{
  "fields": [{"type":"int","id":"_id"},{"info":{"type_override":"text","notes":"Hora UTC de lectura de los datos (AAAA-MM-DD HH:mm:SS)(+1 para CET invierno, +2 para CET verano)","label":"date"},"type":"text","id":"TIMESTAMP"},{"info":{"type_override":"text","notes":"Record Number - identificador del registro","label":"int"},"type":"text","id":"RECORD"},{"info":{"type_override":"text","notes":"Velocidad media del viento en el periodo de 10 minutos leído","label":"float"},"type":"text","id":"VV_S_WVT"},{"info":{"type_override":"text","notes":"Dirección media del viento en el periodo de 10 minutos leído","label":"float"},"type":"text","id":"DV_D1_WVT"},{"info":{"type_override":"text","notes":"Velocidad máxima del viento en el periodo de 10 minutos leído","label":"float"},"type":"text","id":"VV10m3Seg_Max"},{"info":{"type_override":"text","notes":"Dirección de la racha máxima del viento en el periodo de 10 minutos leído","label":"text"},"type":"text","id":"DV10m3Seg_SMM"},{"info":{"type_override":"text","notes":"Presión atmosférica media en el periodo de 10 minutos leído","label":"text"},"type":"text","id":"PRE_Avg"},{"info":{"type_override":"text","notes":"Temperatura del aire media en el periodo de 10 minutos leído","label":"text"},"type":"text","id":"TEM_Avg"},{"info":{"type_override":"text","notes":"Humedad relativa del aire promedio en el periodo de 10 minutos leído","label":"text"},"type":"text","id":"HUM_Avg"},{"info":{"type_override":"text","notes":"Radiación solar media en el periodo de 10 minutos leído","label":"text"},"type":"text","id":"RAD_Avg"},{"info":{"type_override":"text","notes":"Precipitación acumulada en el periodo de 10 minutos leído","label":"text"},"type":"text","id":"PLU_Tot"}],
  "records": [
    [1534506,"2026-01-01 00:00:00","35496","1.075","293.9","2.221","293.7","NAN","NAN","NAN","NAN","NAN"],
    [1534507,"2026-01-01 00:10:00","35497","1.236","292.1","2.744","289.4","NAN","NAN","NAN","NAN","NAN"],
    [1534508,"2026-01-01 00:20:00","35498","1.311","288.3","2.352","288.4","NAN","NAN","NAN","NAN","NAN"],
    [1534509,"2026-01-01 00:30:00","35499","1.331","289.0","2.221","288.3","NAN","NAN","NAN","NAN","NAN"],
    [1534510,"2026-01-01 00:40:00","35500","1.025","288.3","1.764","288.3","NAN","NAN","NAN","NAN","NAN"],
    [1534511,"2026-01-01 00:50:00","35501","0.7140000000000001","288.3","1.535","288.3","NAN","NAN","NAN","NAN","NAN"],
    [1534512,"2026-01-01 01:00:00","35502","1.0070000000000001","288.2","1.895","288.2","NAN","NAN","NAN","NAN","NAN"],
    [1534513,"2026-01-01 01:10:00","35503","0.992","288.3","1.862","288.3","NAN","NAN","NAN","NAN","NAN"],
    [1534514,"2026-01-01 01:20:00","35504","1.268","288.2","2.025","288.2","NAN","NAN","NAN","NAN","NAN"],
    [1534515,"2026-01-01 01:30:00","35505","1.268","288.2","2.156","288.2","NAN","NAN","NAN","NAN","NAN"],
    [1534516,"2026-01-01 01:40:00","35506","1.137","288.2","1.862","288.2","NAN","NAN","NAN","NAN","NAN"],
    [1534517,"2026-01-01 01:50:00","35507","0.691","288.2","1.633","288.2","NAN","NAN","NAN","NAN","NAN"],
    [1534518,"2026-01-01 02:00:00","35508","0.8759999999999999","288.2","1.862","288.1","NAN","NAN","NAN","NAN","NAN"],
    [1534519,"2026-01-01 02:10:00","35509","1.125","288.1","1.96","288.1","NAN","NAN","NAN","NAN","NAN"],
    [1534520,"2026-01-01 02:20:00","35510","0.426","288.1","1.568","288.1","NAN","NAN","NAN","NAN","NAN"],
    [1534521,"2026-01-01 02:30:00","35511","1.235","288.1","2.319","288.1","NAN","NAN","NAN","NAN","NAN"],
    [1534522,"2026-01-01 02:40:00","35512","0.6629999999999999","288.0","1.437","288","NAN","NAN","NAN","NAN","NAN"],
    [1534523,"2026-01-01 02:50:00","35513","0.581","288.0","1.372","288","NAN","NAN","NAN","NAN","NAN"],
    [1534524,"2026-01-01 03:00:00","35514","0.856","288.0","1.927","288","NAN","NAN","NAN","NAN","NAN"],
    [1534525,"2026-01-01 03:10:00","35515","1.419","287.9","2.254","287.9","NAN","NAN","NAN","NAN","NAN"],
    [1534526,"2026-01-01 03:20:00","35516","1.495","287.9","2.287","287.9","NAN","NAN","NAN","NAN","NAN"],
    [1534527,"2026-01-01 03:30:00","35517","1.5390000000000001","287.9","2.646","287.9","NAN","NAN","NAN","NAN","NAN"],
    [1534528,"2026-01-01 03:40:00","35518","1.206","287.9","2.025","287.9","NAN","NAN","NAN","NAN","NAN"],
    [1534529,"2026-01-01 03:50:00","35519","1.07","288.0","1.797","287.9","NAN","NAN","NAN","NAN","NAN"],
    [1534530,"2026-01-01 04:00:00","35520","1.169","290.3","1.96","291.6","NAN","NAN","NAN","NAN","NAN"],
    [1534531,"2026-01-01 04:10:00","35521","1.969","288.1","3.201","289.2","NAN","NAN","NAN","NAN","NAN"],
    [1534532,"2026-01-01 04:20:00","35522","1.8159999999999998","290.8","3.005","292.2","NAN","NAN","NAN","NAN","NAN"],
    [1534533,"2026-01-01 04:30:00","35523","1.7469999999999999","291.6","2.842","291.6","NAN","NAN","NAN","NAN","NAN"],
    [1534534,"2026-01-01 04:40:00","35524","1.787","291.6","2.515","291.4","NAN","NAN","NAN","NAN","NAN"],
    [1534535,"2026-01-01 04:50:00","35525","1.578","293.2","2.548","291.4","NAN","NAN","NAN","NAN","NAN"],
    [1534536,"2026-01-01 05:00:00","35526","1.575","295.8","2.548","296.9","NAN","NAN","NAN","NAN","NAN"],
    [1534537,"2026-01-01 05:10:00","35527","1.745","299.6","2.483","298.7","NAN","NAN","NAN","NAN","NAN"],
    [1534538,"2026-01-01 05:20:00","35528","1.4680000000000002","297.3","2.581","291.4","NAN","NAN","NAN","NAN","NAN"],
    [1534539,"2026-01-01 05:30:00","35529","2.06","291.2","2.973","291.1","NAN","NAN","NAN","NAN","NAN"],
    [1534540,"2026-01-01 05:40:00","35530","1.801","291.2","2.875","291.5","NAN","NAN","NAN","NAN","NAN"],
    [1534541,"2026-01-01 05:50:00","35531","1.796","290.9","2.515","290.9","NAN","NAN","NAN","NAN","NAN"],
    [1534542,"2026-01-01 06:00:00","35532","2.0980000000000003","286.7","3.332","282.9","NAN","NAN","NAN","NAN","NAN"],
    [1534543,"2026-01-01 06:10:00","35533","2.036","280.6","3.299","281","NAN","NAN","NAN","NAN","NAN"],
    [1534544,"2026-01-01 06:20:00","35534","2.114","281.6","3.038","276.6","NAN","NAN","NAN","NAN","NAN"],
    [1534545,"2026-01-01 06:30:00","35535","2.048","280.0","3.071","277.8","NAN","NAN","NAN","NAN","NAN"],
    [1534546,"2026-01-01 06:40:00","35536","1.969","281.8","2.875","283.3","NAN","NAN","NAN","NAN","NAN"],
    [1534547,"2026-01-01 06:50:00","35537","2.105","277.8","2.842","276.6","NAN","NAN","NAN","NAN","NAN"],
    [1534548,"2026-01-01 07:00:00","35538","2.182","279.9","3.103","280.8","NAN","NAN","NAN","NAN","NAN"],
    [1534549,"2026-01-01 07:10:00","35539","2.291","280.5","3.299","282.5","NAN","NAN","NAN","NAN","NAN"],
    [1534550,"2026-01-01 07:20:00","35540","2.282","281.9","3.593","287.6","NAN","NAN","NAN","NAN","NAN"],
    [1534551,"2026-01-01 07:30:00","35541","2.367","282.6","3.789","286.9","NAN","NAN","NAN","NAN","NAN"],
    [1534552,"2026-01-01 07:40:00","35542","2.295","282.2","4.083","287.3","NAN","NAN","NAN","NAN","NAN"],
    [1534553,"2026-01-01 07:50:00","35543","2.075","289.3","3.953","289.2","NAN","NAN","NAN","NAN","NAN"],
    [1534554,"2026-01-01 08:00:00","35544","1.69","289.5","2.94","291.6","NAN","NAN","NAN","NAN","NAN"],
    [1534555,"2026-01-01 08:10:00","35545","2.189","284.2","3.495","287.3","NAN","NAN","NAN","NAN","NAN"],
    [1534556,"2026-01-01 08:20:00","35546","1.973","282.6","3.43","289","NAN","NAN","NAN","NAN","NAN"],
    [1534557,"2026-01-01 08:30:00","35547","2.044","283.1","3.103","285.4","NAN","NAN","NAN","NAN","NAN"],
    [1534558,"2026-01-01 08:40:00","35548","2.032","285.6","3.234","281.1","NAN","NAN","NAN","NAN","NAN"],
    [1534559,"2026-01-01 08:50:00","35549","2.093","283.8","3.593","285.9","NAN","NAN","NAN","NAN","NAN"],
    [1534560,"2026-01-01 09:00:00","35550","1.6909999999999998","287.7","2.842","285.7","NAN","NAN","NAN","NAN","NAN"],
    [1534561,"2026-01-01 09:10:00","35551","1.943","289.2","3.332","282","NAN","NAN","NAN","NAN","NAN"],
    [1534562,"2026-01-01 09:20:00","35552","1.6680000000000001","291.9","3.136","298.7","NAN","NAN","NAN","NAN","NAN"],
    [1534563,"2026-01-01 09:30:00","35553","2.386","282.9","4.279","280.2","NAN","NAN","NAN","NAN","NAN"],
    [1534564,"2026-01-01 09:40:00","35554","2.54","286.1","4.083","294.3","NAN","NAN","NAN","NAN","NAN"],
    [1534565,"2026-01-01 09:50:00","35555","2.639","288.2","3.953","282.6","NAN","NAN","NAN","NAN","NAN"],
    [1534566,"2026-01-01 10:00:00","35556","2.602","287.6","4.312","286.8","NAN","NAN","NAN","NAN","NAN"],
    [1534567,"2026-01-01 10:10:00","35557","2.657","282.4","4.051","292.5","NAN","NAN","NAN","NAN","NAN"],
    [1534568,"2026-01-01 10:20:00","35558","2.239","289.1","4.116","283","NAN","NAN","NAN","NAN","NAN"],
    [1534569,"2026-01-01 10:30:00","35559","2.164","283.0","3.626","289.1","NAN","NAN","NAN","NAN","NAN"],
    [1534570,"2026-01-01 10:40:00","35560","2.365","276.0","3.789","282.4","NAN","NAN","NAN","NAN","NAN"],
    [1534571,"2026-01-01 10:50:00","35561","2.383","282.5","4.083","280.8","NAN","NAN","NAN","NAN","NAN"],
    [1534572,"2026-01-01 11:00:00","35562","2.85","280.2","4.475","281.2","NAN","NAN","NAN","NAN","NAN"],
    [1534573,"2026-01-01 11:10:00","35563","2.224","293.1","3.626","291.3","NAN","NAN","NAN","NAN","NAN"],
    [1534574,"2026-01-01 11:20:00","35564","1.9969999999999999","283.5","3.463","275.1","NAN","NAN","NAN","NAN","NAN"],
    [1534575,"2026-01-01 11:30:00","35565","2.233","275.0","3.887","268.8","NAN","NAN","NAN","NAN","NAN"],
    [1534576,"2026-01-01 11:40:00","35566","1.963","265.0","3.495","249.7","NAN","NAN","NAN","NAN","NAN"],
    [1534577,"2026-01-01 11:50:00","35567","2.019","258.5","3.789","256.8","NAN","NAN","NAN","NAN","NAN"],
    [1534578,"2026-01-01 12:00:00","35568","2.391","256.8","3.92","248.6","NAN","NAN","NAN","NAN","NAN"],
    [1534579,"2026-01-01 12:10:00","35569","1.83","260.9","3.43","267.6","NAN","NAN","NAN","NAN","NAN"],
    [1534580,"2026-01-01 12:20:00","35570","2.403","261.9","4.377","287.1","NAN","NAN","NAN","NAN","NAN"],
    [1534581,"2026-01-01 12:30:00","35571","3.187","261.9","5.521","228.8","NAN","NAN","NAN","NAN","NAN"],
    [1534582,"2026-01-01 12:40:00","35572","3.887","241.0","7.35","224.2","NAN","NAN","NAN","NAN","NAN"],
    [1534583,"2026-01-01 12:50:00","35573","4.745","235.8","8.56","224.6","NAN","NAN","NAN","NAN","NAN"],
    [1534584,"2026-01-01 13:00:00","35574","4.583","233.2","8.04","218.7","NAN","NAN","NAN","NAN","NAN"],
    [1534585,"2026-01-01 13:10:00","35575","5.132000000000001","239.2","8.69","246.3","NAN","NAN","NAN","NAN","NAN"],
    [1534586,"2026-01-01 13:20:00","35576","5.631","238.8","9.8","236.4","NAN","NAN","NAN","NAN","NAN"],
    [1534587,"2026-01-01 13:30:00","35577","4.525","231.6","8.13","212.7","NAN","NAN","NAN","NAN","NAN"],
    [1534588,"2026-01-01 13:40:00","35578","4.761","244.0","8.66","242.2","NAN","NAN","NAN","NAN","NAN"],
    [1534589,"2026-01-01 13:50:00","35579","4.21","237.7","7.775","243.2","NAN","NAN","NAN","NAN","NAN"],
    [1534590,"2026-01-01 14:00:00","35580","4.239","238.9","7.644","239.6","NAN","NAN","NAN","NAN","NAN"],
    [1534591,"2026-01-01 14:10:00","35581","4.51","235.8","8.2","228.1","NAN","NAN","NAN","NAN","NAN"],
    [1534592,"2026-01-01 14:20:00","35582","4.6","232.6","7.709","237.2","NAN","NAN","NAN","NAN","NAN"],
    [1534593,"2026-01-01 14:30:00","35583","4.14","238.0","7.579","241.5","NAN","NAN","NAN","NAN","NAN"],
    [1534594,"2026-01-01 14:40:00","35584","4.681","233.2","7.709","237","NAN","NAN","NAN","NAN","NAN"],
    [1534595,"2026-01-01 14:50:00","35585","3.7439999999999998","228.6","6.566","219.7","NAN","NAN","NAN","NAN","NAN"],
    [1534596,"2026-01-01 15:00:00","35586","3.6239999999999997","230.8","6.697","227.5","NAN","NAN","NAN","NAN","NAN"],
    [1534597,"2026-01-01 15:10:00","35587","2.727","236.1","5.521","226.7","NAN","NAN","NAN","NAN","NAN"],
    [1534598,"2026-01-01 15:20:00","35588","3.155","239.0","4.998","240.4","NAN","NAN","NAN","NAN","NAN"],
    [1534599,"2026-01-01 15:30:00","35589","2.79","240.8","5.129","252.8","NAN","NAN","NAN","NAN","NAN"],
    [1534600,"2026-01-01 15:40:00","35590","2.522","247.3","5.651","255.2","NAN","NAN","NAN","NAN","NAN"],
    [1534601,"2026-01-01 15:50:00","35591","3.205","246.2","5.292","258.5","NAN","NAN","NAN","NAN","NAN"],
    [1534602,"2026-01-01 16:00:00","35592","3.4010000000000002","247.3","5.325","241.8","NAN","NAN","NAN","NAN","NAN"],
    [1534603,"2026-01-01 16:10:00","35593","3.4560000000000004","248.0","5.586","251.2","NAN","NAN","NAN","NAN","NAN"],
    [1534604,"2026-01-01 16:20:00","35594","3.595","254.5","5.945","252.5","NAN","NAN","NAN","NAN","NAN"],
    [1534605,"2026-01-01 16:30:00","35595","3.9610000000000003","253.3","6.272","244.5","NAN","NAN","NAN","NAN","NAN"],
    [1534606,"2026-01-01 16:40:00","35596","3.7969999999999997","251.1","5.945","246.8","NAN","NAN","NAN","NAN","NAN"],
    [1534607,"2026-01-01 16:50:00","35597","3.5439999999999996","253.0","4.998","253.6","NAN","NAN","NAN","NAN","NAN"],
    [1534608,"2026-01-01 17:00:00","35598","3.103","251.9","4.965","251.1","NAN","NAN","NAN","NAN","NAN"],
    [1534609,"2026-01-01 17:10:00","35599","2.948","242.8","5.096","246.4","NAN","NAN","NAN","NAN","NAN"],
    [1534610,"2026-01-01 17:20:00","35600","3.2089999999999996","245.5","4.965","262.2","NAN","NAN","NAN","NAN","NAN"],
    [1534611,"2026-01-01 17:30:00","35601","3.425","246.5","5.194","250.1","NAN","NAN","NAN","NAN","NAN"],
    [1534612,"2026-01-01 17:40:00","35602","2.81","251.8","4.475","254.4","NAN","NAN","NAN","NAN","NAN"],
    [1534613,"2026-01-01 17:50:00","35603","1.8980000000000001","264.9","3.201","263","NAN","NAN","NAN","NAN","NAN"],
    [1534614,"2026-01-01 18:00:00","35604","1.4569999999999999","271.9","2.091","271.8","NAN","NAN","NAN","NAN","NAN"],
    [1534615,"2026-01-01 18:10:00","35605","1.536","274.5","2.352","274.4","NAN","NAN","NAN","NAN","NAN"],
    [1534616,"2026-01-01 18:20:00","35606","1.047","275.7","1.862","275.7","NAN","NAN","NAN","NAN","NAN"],
    [1534617,"2026-01-01 18:30:00","35607","0.807","275.6","1.699","275.5","NAN","NAN","NAN","NAN","NAN"],
    [1534618,"2026-01-01 18:40:00","35608","0.221","275.0","1.241","274.2","NAN","NAN","NAN","NAN","NAN"],
    [1534619,"2026-01-01 18:50:00","35609","0.9690000000000001","269.1","1.699","270.2","NAN","NAN","NAN","NAN","NAN"],
    [1534620,"2026-01-01 19:00:00","35610","0.19399999999999998","266.1","1.176","266.3","NAN","NAN","NAN","NAN","NAN"],
    [1534621,"2026-01-01 19:10:00","35611","0.0","0.0","0","0","NAN","NAN","NAN","NAN","NAN"],
    [1534622,"2026-01-01 19:20:00","35612","0.033","265.3","0.653","265.3","NAN","NAN","NAN","NAN","NAN"],
    [1534623,"2026-01-01 19:30:00","35613","0.069","265.3","0.751","265.3","NAN","NAN","NAN","NAN","NAN"],
    [1534624,"2026-01-01 19:40:00","35614","0.003","265.2","0.131","265.2","NAN","NAN","NAN","NAN","NAN"],
    [1534625,"2026-01-01 19:50:00","35615","0.8240000000000001","264.8","2.254","264.1","NAN","NAN","NAN","NAN","NAN"],
    [1534626,"2026-01-01 20:00:00","35616","1.034","267.6","2.091","264","NAN","NAN","NAN","NAN","NAN"],
    [1534627,"2026-01-01 20:10:00","35617","0.772","274.2","1.731","274","NAN","NAN","NAN","NAN","NAN"],
    [1534628,"2026-01-01 20:20:00","35618","1.315","276.1","2.058","276.6","NAN","NAN","NAN","NAN","NAN"],
    [1534629,"2026-01-01 20:30:00","35619","1.56","280.0","2.319","278.3","NAN","NAN","NAN","NAN","NAN"],
    [1534630,"2026-01-01 20:40:00","35620","1.7469999999999999","281.4","2.809","281.4","NAN","NAN","NAN","NAN","NAN"],
    [1534631,"2026-01-01 20:50:00","35621","1.73","279.5","2.483","279.9","NAN","NAN","NAN","NAN","NAN"],
    [1534632,"2026-01-01 21:00:00","35622","1.379","278.9","2.613","277","NAN","NAN","NAN","NAN","NAN"],
    [1534633,"2026-01-01 21:10:00","35623","1.493","278.5","2.385","276.3","NAN","NAN","NAN","NAN","NAN"],
    [1534634,"2026-01-01 21:20:00","35624","1.67","274.1","2.548","275.9","NAN","NAN","NAN","NAN","NAN"],
    [1534635,"2026-01-01 21:30:00","35625","1.6640000000000001","268.2","2.287","267.3","NAN","NAN","NAN","NAN","NAN"],
    [1534636,"2026-01-01 21:40:00","35626","1.155","269.5","2.058","269.8","NAN","NAN","NAN","NAN","NAN"],
    [1534637,"2026-01-01 21:50:00","35627","0.9740000000000001","270.1","2.091","271","NAN","NAN","NAN","NAN","NAN"],
    [1534638,"2026-01-01 22:00:00","35628","1.6230000000000002","273.1","2.352","271.8","NAN","NAN","NAN","NAN","NAN"],
    [1534639,"2026-01-01 22:10:00","35629","1.3880000000000001","271.6","2.613","273.9","NAN","NAN","NAN","NAN","NAN"],
    [1534640,"2026-01-01 22:20:00","35630","1.036","269.6","1.601","270.4","NAN","NAN","NAN","NAN","NAN"],
    [1534641,"2026-01-01 22:30:00","35631","1.114","272.0","1.535","271.8","NAN","NAN","NAN","NAN","NAN"],
    [1534642,"2026-01-01 22:40:00","35632","0.983","274.9","1.568","274.5","NAN","NAN","NAN","NAN","NAN"],
    [1534643,"2026-01-01 22:50:00","35633","1.1179999999999999","274.7","1.797","275.5","NAN","NAN","NAN","NAN","NAN"],
    [1534644,"2026-01-01 23:00:00","35634","1.215","270.1","2.091","271.8","NAN","NAN","NAN","NAN","NAN"],
    [1534645,"2026-01-01 23:10:00","35635","0.29","274.8","1.111","274.7","NAN","NAN","NAN","NAN","NAN"],
    [1534646,"2026-01-01 23:20:00","35636","0.0","0.0","0","0","NAN","NAN","NAN","NAN","NAN"],
    [1534647,"2026-01-01 23:30:00","35637","0.0","0.0","0","0","NAN","NAN","NAN","NAN","NAN"],
    [1534648,"2026-01-01 23:40:00","35638","0.0","0.0","0","0","NAN","NAN","NAN","NAN","NAN"],
    [1534649,"2026-01-01 23:50:00","35639","0.0","0.0","0","0","NAN","NAN","NAN","NAN","NAN"],
    [1534650,"2026-01-02 00:00:00","35640","0.0","0.0","0","0","NAN","NAN","NAN","NAN","NAN"],
    [1534651,"2026-01-02 00:10:00","35641","0.263","266.7","0.947","266.7","NAN","NAN","NAN","NAN","NAN"],
    [1534652,"2026-01-02 00:20:00","35642","0.21","265.6","0.719","265.6","NAN","NAN","NAN","NAN","NAN"],
    [1534653,"2026-01-02 00:30:00","35643","0.489","263.7","1.339","262.9","NAN","NAN","NAN","NAN","NAN"],
    [1534654,"2026-01-02 00:40:00","35644","1.508","259.6","2.254","260.4","NAN","NAN","NAN","NAN","NAN"],
    [1534655,"2026-01-02 00:50:00","35645","1.4280000000000002","257.8","1.993","258","NAN","NAN","NAN","NAN","NAN"],
    [1534656,"2026-01-02 01:00:00","35646","1.476","256.9","2.646","256.1","NAN","NAN","NAN","NAN","NAN"],
    [1534657,"2026-01-02 01:10:00","35647","1.186","254.4","2.254","254.9","NAN","NAN","NAN","NAN","NAN"],
    [1534658,"2026-01-02 01:20:00","35648","0.639","256.2","1.797","255.8","NAN","NAN","NAN","NAN","NAN"],
    [1534659,"2026-01-02 01:30:00","35649","1.124","260.7","1.927","260.2","NAN","NAN","NAN","NAN","NAN"],
    [1534660,"2026-01-02 01:40:00","35650","1.649","262.6","2.287","261.1","NAN","NAN","NAN","NAN","NAN"],
    [1534661,"2026-01-02 01:50:00","35651","1.663","277.2","2.548","284.2","NAN","NAN","NAN","NAN","NAN"],
    [1534662,"2026-01-02 02:00:00","35652","1.906","280.7","3.005","273.1","NAN","NAN","NAN","NAN","NAN"],
    [1534663,"2026-01-02 02:10:00","35653","1.48","273.2","3.267","272.4","NAN","NAN","NAN","NAN","NAN"],
    [1534664,"2026-01-02 02:20:00","35654","0.445","271.5","1.209","271","NAN","NAN","NAN","NAN","NAN"],
    [1534665,"2026-01-02 02:30:00","35655","0.447","278.0","1.731","276.2","NAN","NAN","NAN","NAN","NAN"],
    [1534666,"2026-01-02 02:40:00","35656","1.901","283.2","4.051","296.9","NAN","NAN","NAN","NAN","NAN"],
    [1534667,"2026-01-02 02:50:00","35657","2.247","287.6","3.953","309","NAN","NAN","NAN","NAN","NAN"],
    [1534668,"2026-01-02 03:00:00","35658","2.333","283.7","3.561","288.3","NAN","NAN","NAN","NAN","NAN"],
    [1534669,"2026-01-02 03:10:00","35659","1.905","292.1","3.822","294.5","NAN","NAN","NAN","NAN","NAN"],
    [1534670,"2026-01-02 03:20:00","35660","0.905","288.0","2.254","290.9","NAN","NAN","NAN","NAN","NAN"],
    [1534671,"2026-01-02 03:30:00","35661","1.0070000000000001","293.7","2.417","297.9","NAN","NAN","NAN","NAN","NAN"],
    [1534672,"2026-01-02 03:40:00","35662","1.39","298.2","5.031","309.3","NAN","NAN","NAN","NAN","NAN"],
    [1534673,"2026-01-02 03:50:00","35663","3.48","313.2","6.958","328.1","NAN","NAN","NAN","NAN","NAN"],
    [1534674,"2026-01-02 04:00:00","35664","4.388999999999999","322.5","7.546","332","NAN","NAN","NAN","NAN","NAN"],
    [1534675,"2026-01-02 04:10:00","35665","2.6639999999999997","303.7","5.978","316.6","NAN","NAN","NAN","NAN","NAN"],
    [1534676,"2026-01-02 04:20:00","35666","2.314","306.3","4.247","308","NAN","NAN","NAN","NAN","NAN"],
    [1534677,"2026-01-02 04:30:00","35667","1.136","309.6","3.397","308.1","NAN","NAN","NAN","NAN","NAN"],
    [1534678,"2026-01-02 04:40:00","35668","0.281","283.2","2.091","251.5","NAN","NAN","NAN","NAN","NAN"],
    [1534679,"2026-01-02 04:50:00","35669","0.981","235.7","2.025","235.1","NAN","NAN","NAN","NAN","NAN"],
    [1534680,"2026-01-02 05:00:00","35670","0.6459999999999999","253.8","2.091","295","NAN","NAN","NAN","NAN","NAN"],
    [1534681,"2026-01-02 05:10:00","35671","1.1320000000000001","313.1","3.953","335","NAN","NAN","NAN","NAN","NAN"],
    [1534682,"2026-01-02 05:20:00","35672","0.017","323.6","0.392","324.2","NAN","NAN","NAN","NAN","NAN"],
    [1534683,"2026-01-02 05:30:00","35673","0.0","0.0","0.163","323.2","NAN","NAN","NAN","NAN","NAN"],
    [1534684,"2026-01-02 05:40:00","35674","0.297","317.3","2.091","310.3","NAN","NAN","NAN","NAN","NAN"],
    [1534685,"2026-01-02 05:50:00","35675","1.607","308.6","4.41","295.8","NAN","NAN","NAN","NAN","NAN"],
    [1534686,"2026-01-02 06:00:00","35676","1.182","294.3","4.41","311.6","NAN","NAN","NAN","NAN","NAN"],
    [1534687,"2026-01-02 06:10:00","35677","2.655","286.4","5.129","283.5","NAN","NAN","NAN","NAN","NAN"],
    [1534688,"2026-01-02 06:20:00","35678","3.173","312.8","4.704","308.6","NAN","NAN","NAN","NAN","NAN"],
    [1534689,"2026-01-02 06:30:00","35679","2.4419999999999997","323.2","5.161","325.5","NAN","NAN","NAN","NAN","NAN"],
    [1534690,"2026-01-02 06:40:00","35680","4.845","323.8","8.2","341.9","NAN","NAN","NAN","NAN","NAN"],
    [1534691,"2026-01-02 06:50:00","35681","3.847","320.8","7.121","317.3","NAN","NAN","NAN","NAN","NAN"],
    [1534692,"2026-01-02 07:00:00","35682","4.2989999999999995","324.4","7.121","326.4","NAN","NAN","NAN","NAN","NAN"],
    [1534693,"2026-01-02 07:10:00","35683","3.5580000000000003","326.0","5.619","321.5","NAN","NAN","NAN","NAN","NAN"],
    [1534694,"2026-01-02 07:20:00","35684","2.396","315.2","4.083","328.5","NAN","NAN","NAN","NAN","NAN"],
    [1534695,"2026-01-02 07:30:00","35685","2.6210000000000004","308.1","4.443","304.7","NAN","NAN","NAN","NAN","NAN"],
    [1534696,"2026-01-02 07:40:00","35686","2.677","317.7","4.867","330.7","NAN","NAN","NAN","NAN","NAN"],
    [1534697,"2026-01-02 07:50:00","35687","2.647","303.7","4.639","303.8","NAN","NAN","NAN","NAN","NAN"],
    [1534698,"2026-01-02 08:00:00","35688","2.9160000000000004","310.6","4.541","320.7","NAN","NAN","NAN","NAN","NAN"],
    [1534699,"2026-01-02 08:10:00","35689","3.4619999999999997","302.4","5.619","310.6","NAN","NAN","NAN","NAN","NAN"],
    [1534700,"2026-01-02 08:20:00","35690","3.53","298.1","5.488","297.1","NAN","NAN","NAN","NAN","NAN"],
    [1534701,"2026-01-02 08:30:00","35691","3.031","315.9","5.063","290","NAN","NAN","NAN","NAN","NAN"],
    [1534702,"2026-01-02 08:40:00","35692","3.221","310.4","5.619","333.5","NAN","NAN","NAN","NAN","NAN"],
    [1534703,"2026-01-02 08:50:00","35693","3.162","305.3","6.305","310.7","NAN","NAN","NAN","NAN","NAN"],
    [1534704,"2026-01-02 09:00:00","35694","3.552","314.5","6.893","330.6","NAN","NAN","NAN","NAN","NAN"],
    [1534705,"2026-01-02 09:10:00","35695","4.95","322.5","8.59","315.2","NAN","NAN","NAN","NAN","NAN"],
    [1534706,"2026-01-02 09:20:00","35696","5.486000000000001","324.5","8.49","310.7","NAN","NAN","NAN","NAN","NAN"],
    [1534707,"2026-01-02 09:30:00","35697","5.51","320.1","8.85","321.9","NAN","NAN","NAN","NAN","NAN"],
    [1534708,"2026-01-02 09:40:00","35698","4.3069999999999995","310.7","7.546","336.8","NAN","NAN","NAN","NAN","NAN"],
    [1534709,"2026-01-02 09:50:00","35699","4.2669999999999995","319.1","7.219","298.5","NAN","NAN","NAN","NAN","NAN"],
    [1534710,"2026-01-02 10:00:00","35700","5.94","325.6","9.67","326.9","NAN","NAN","NAN","NAN","NAN"],
    [1534711,"2026-01-02 10:10:00","35701","5.564","325.0","8.4","322.6","NAN","NAN","NAN","NAN","NAN"],
    [1534712,"2026-01-02 10:20:00","35702","5.266","323.0","8.33","334.2","NAN","NAN","NAN","NAN","NAN"],
    [1534713,"2026-01-02 10:30:00","35703","3.9139999999999997","317.7","6.468","314.1","NAN","NAN","NAN","NAN","NAN"],
    [1534714,"2026-01-02 10:40:00","35704","3.0439999999999996","300.7","5.259","297.9","NAN","NAN","NAN","NAN","NAN"],
    [1534715,"2026-01-02 10:50:00","35705","3.198","291.9","5.782","281.6","NAN","NAN","NAN","NAN","NAN"],
    [1534716,"2026-01-02 11:00:00","35706","3.783","302.6","6.729","306.9","NAN","NAN","NAN","NAN","NAN"],
    [1534717,"2026-01-02 11:10:00","35707","3.815","302.3","6.272","294.3","NAN","NAN","NAN","NAN","NAN"],
    [1534718,"2026-01-02 11:20:00","35708","3.47","293.2","6.207","305","NAN","NAN","NAN","NAN","NAN"],
    [1534719,"2026-01-02 11:30:00","35709","3.0669999999999997","308.9","5.39","302.8","NAN","NAN","NAN","NAN","NAN"],
    [1534720,"2026-01-02 11:40:00","35710","2.5660000000000003","322.1","4.541","318.2","NAN","NAN","NAN","NAN","NAN"],
    [1534721,"2026-01-02 11:50:00","35711","2.093","298.0","3.332","284.2","NAN","NAN","NAN","NAN","NAN"],
    [1534722,"2026-01-02 12:00:00","35712","1.114","284.5","2.385","282.2","NAN","NAN","NAN","NAN","NAN"],
    [1534723,"2026-01-02 12:10:00","35713","2.003","301.9","3.528","323.2","NAN","NAN","NAN","NAN","NAN"],
    [1534724,"2026-01-02 12:20:00","35714","2.766","296.6","4.573","275.5","NAN","NAN","NAN","NAN","NAN"],
    [1534725,"2026-01-02 12:30:00","35715","2.7239999999999998","272.4","4.769","280.5","NAN","NAN","NAN","NAN","NAN"],
    [1534726,"2026-01-02 12:40:00","35716","1.9380000000000002","270.8","3.201","251.1","NAN","NAN","NAN","NAN","NAN"],
    [1534727,"2026-01-02 12:50:00","35717","2.0869999999999997","258.3","3.691","238.8","NAN","NAN","NAN","NAN","NAN"],
    [1534728,"2026-01-02 13:00:00","35718","1.797","259.8","3.103","252.7","NAN","NAN","NAN","NAN","NAN"],
    [1534729,"2026-01-02 13:10:00","35719","2.5380000000000003","283.2","4.377","301.1","NAN","NAN","NAN","NAN","NAN"],
    [1534730,"2026-01-02 13:20:00","35720","2.6","257.5","3.691","264.6","NAN","NAN","NAN","NAN","NAN"],
    [1534731,"2026-01-02 13:30:00","35721","1.896","257.3","3.691","283.4","NAN","NAN","NAN","NAN","NAN"],
    [1534732,"2026-01-02 13:40:00","35722","1.722","240.1","2.907","248","NAN","NAN","NAN","NAN","NAN"],
    [1534733,"2026-01-02 13:50:00","35723","1.412","247.6","2.777","249.9","NAN","NAN","NAN","NAN","NAN"],
    [1534734,"2026-01-02 14:00:00","35724","1.176","232.9","2.287","225.4","NAN","NAN","NAN","NAN","NAN"],
    [1534735,"2026-01-02 14:10:00","35725","1.2690000000000001","232.4","2.711","233.9","NAN","NAN","NAN","NAN","NAN"],
    [1534736,"2026-01-02 14:20:00","35726","1.724","257.1","3.169","256.1","NAN","NAN","NAN","NAN","NAN"],
    [1534737,"2026-01-02 14:30:00","35727","0.812","257.6","2.417","255.7","NAN","NAN","NAN","NAN","NAN"],
    [1534738,"2026-01-02 14:40:00","35728","1.2009999999999998","250.0","2.385","243.6","NAN","NAN","NAN","NAN","NAN"],
    [1534739,"2026-01-02 14:50:00","35729","1.347","277.3","2.613","282.8","NAN","NAN","NAN","NAN","NAN"],
    [1534740,"2026-01-02 15:00:00","35730","1.8","277.9","3.071","277.6","NAN","NAN","NAN","NAN","NAN"],
    [1534741,"2026-01-02 15:10:00","35731","1.76","293.1","2.613","297.6","NAN","NAN","NAN","NAN","NAN"],
    [1534742,"2026-01-02 15:20:00","35732","1.043","297.1","2.189","296.9","NAN","NAN","NAN","NAN","NAN"],
    [1534743,"2026-01-02 15:30:00","35733","1.251","292.5","2.287","298.1","NAN","NAN","NAN","NAN","NAN"],
    [1534744,"2026-01-02 15:40:00","35734","1.1640000000000001","285.4","1.927","283.6","NAN","NAN","NAN","NAN","NAN"],
    [1534745,"2026-01-02 15:50:00","35735","0.562","283.6","1.372","282.6","NAN","NAN","NAN","NAN","NAN"],
    [1534746,"2026-01-02 16:00:00","35736","0.267","283.7","1.111","282.1","NAN","NAN","NAN","NAN","NAN"],
    [1534747,"2026-01-02 16:10:00","35737","0.002","286.9","0.163","286.9","NAN","NAN","NAN","NAN","NAN"],
    [1534748,"2026-01-02 16:20:00","35738","0.406","290.6","1.437","291.3","NAN","NAN","NAN","NAN","NAN"],
    [1534749,"2026-01-02 16:30:00","35739","0.612","295.2","1.176","297.4","NAN","NAN","NAN","NAN","NAN"],
    [1534750,"2026-01-02 16:40:00","35740","0.09","297.5","0.98","297.6","NAN","NAN","NAN","NAN","NAN"],
    [1534751,"2026-01-02 16:50:00","35741","0.035","296.2","0.523","295.9","NAN","NAN","NAN","NAN","NAN"],
    [1534752,"2026-01-02 17:00:00","35742","0.175","297.4","1.013","297.3","NAN","NAN","NAN","NAN","NAN"],
    [1534753,"2026-01-02 17:10:00","35743","0.0","0.0","0","0","NAN","NAN","NAN","NAN","NAN"],
    [1534754,"2026-01-02 17:20:00","35744","0.019","297.7","0.327","297.7","NAN","NAN","NAN","NAN","NAN"],
    [1534755,"2026-01-02 17:30:00","35745","0.0","0.0","0","0","NAN","NAN","NAN","NAN","NAN"],
    [1534756,"2026-01-02 17:40:00","35746","0.008","295.3","0.457","295.3","NAN","NAN","NAN","NAN","NAN"],
    [1534757,"2026-01-02 17:50:00","35747","0.35600000000000004","293.4","1.339","287","NAN","NAN","NAN","NAN","NAN"],
    [1534758,"2026-01-02 18:00:00","35748","0.907","279.2","1.797","277.1","NAN","NAN","NAN","NAN","NAN"],
    [1534759,"2026-01-02 18:10:00","35749","0.373","291.5","1.111","295.8","NAN","NAN","NAN","NAN","NAN"],
    [1534760,"2026-01-02 18:20:00","35750","0.768","279.4","1.797","277.1","NAN","NAN","NAN","NAN","NAN"],
    [1534761,"2026-01-02 18:30:00","35751","1.213","276.8","2.058","276.5","NAN","NAN","NAN","NAN","NAN"],
    [1534762,"2026-01-02 18:40:00","35752","0.631","279.8","1.503","278.9","NAN","NAN","NAN","NAN","NAN"],
    [1534763,"2026-01-02 18:50:00","35753","0.547","281.7","1.666","276.7","NAN","NAN","NAN","NAN","NAN"],
    [1534764,"2026-01-02 19:00:00","35754","0.363","283.9","1.143","284.8","NAN","NAN","NAN","NAN","NAN"],
    [1534765,"2026-01-02 19:10:00","35755","0.639","290.0","1.601","289.9","NAN","NAN","NAN","NAN","NAN"],
    [1534766,"2026-01-02 19:20:00","35756","0.38299999999999995","292.1","1.503","291.9","NAN","NAN","NAN","NAN","NAN"],
    [1534767,"2026-01-02 19:30:00","35757","0.28300000000000003","292.6","1.013","293.6","NAN","NAN","NAN","NAN","NAN"],
    [1534768,"2026-01-02 19:40:00","35758","0.92","294.0","2.483","296.3","NAN","NAN","NAN","NAN","NAN"],
    [1534769,"2026-01-02 19:50:00","35759","1.47","286.7","2.581","277.4","NAN","NAN","NAN","NAN","NAN"],
    [1534770,"2026-01-02 20:00:00","35760","1.7990000000000002","279.1","2.711","272.6","NAN","NAN","NAN","NAN","NAN"],
    [1534771,"2026-01-02 20:10:00","35761","2.042","283.7","3.332","291.3","NAN","NAN","NAN","NAN","NAN"],
    [1534772,"2026-01-02 20:20:00","35762","2.278","271.6","3.463","269.5","NAN","NAN","NAN","NAN","NAN"],
    [1534773,"2026-01-02 20:30:00","35763","2.178","276.8","3.332","264.7","NAN","NAN","NAN","NAN","NAN"],
    [1534774,"2026-01-02 20:40:00","35764","1.669","282.9","2.973","286.9","NAN","NAN","NAN","NAN","NAN"],
    [1534775,"2026-01-02 20:50:00","35765","1.774","273.8","2.646","273.5","NAN","NAN","NAN","NAN","NAN"],
    [1534776,"2026-01-02 21:00:00","35766","2.153","269.1","3.659","260.3","NAN","NAN","NAN","NAN","NAN"],
    [1534777,"2026-01-02 21:10:00","35767","2.556","277.0","3.822","272.7","NAN","NAN","NAN","NAN","NAN"],
    [1534778,"2026-01-02 21:20:00","35768","2.0340000000000003","283.7","3.757","272.4","NAN","NAN","NAN","NAN","NAN"],
    [1534779,"2026-01-02 21:30:00","35769","1.8130000000000002","289.2","3.299","292.8","NAN","NAN","NAN","NAN","NAN"],
    [1534780,"2026-01-02 21:40:00","35770","1.943","293.9","3.528","305.6","NAN","NAN","NAN","NAN","NAN"],
    [1534781,"2026-01-02 21:50:00","35771","2.022","282.5","3.626","294.2","NAN","NAN","NAN","NAN","NAN"],
    [1534782,"2026-01-02 22:00:00","35772","1.689","267.3","2.809","270.8","NAN","NAN","NAN","NAN","NAN"],
    [1534783,"2026-01-02 22:10:00","35773","2.0340000000000003","285.0","3.397","276.4","NAN","NAN","NAN","NAN","NAN"],
    [1534784,"2026-01-02 22:20:00","35774","3.2089999999999996","291.1","5.063","288.6","NAN","NAN","NAN","NAN","NAN"],
    [1534785,"2026-01-02 22:30:00","35775","2.717","312.7","4.345","315.4","NAN","NAN","NAN","NAN","NAN"],
    [1534786,"2026-01-02 22:40:00","35776","1.649","315.0","3.43","322.4","NAN","NAN","NAN","NAN","NAN"],
    [1534787,"2026-01-02 22:50:00","35777","1.5190000000000001","304.6","2.548","300.8","NAN","NAN","NAN","NAN","NAN"],
    [1534788,"2026-01-02 23:00:00","35778","1.3119999999999998","295.0","2.287","297.7","NAN","NAN","NAN","NAN","NAN"],
    [1534789,"2026-01-02 23:10:00","35779","1.3119999999999998","294.1","1.96","293.7","NAN","NAN","NAN","NAN","NAN"],
    [1534790,"2026-01-02 23:20:00","35780","1.185","295.1","1.862","293.6","NAN","NAN","NAN","NAN","NAN"],
    [1534791,"2026-01-02 23:30:00","35781","0.82","293.6","1.731","293.6","NAN","NAN","NAN","NAN","NAN"],
    [1534792,"2026-01-02 23:40:00","35782","1.525","290.9","2.581","280.5","NAN","NAN","NAN","NAN","NAN"],
    [1534793,"2026-01-02 23:50:00","35783","1.5519999999999998","287.1","3.005","280.5","NAN","NAN","NAN","NAN","NAN"],
    [1534794,"2026-01-03 00:00:00","35784","1.875","273.3","2.875","268.1","NAN","NAN","NAN","NAN","NAN"],
    [1534795,"2026-01-03 00:10:00","35785","1.751","275.6","2.679","279.4","NAN","NAN","NAN","NAN","NAN"],
    [1534796,"2026-01-03 00:20:00","35786","1.8090000000000002","278.8","2.907","286.3","NAN","NAN","NAN","NAN","NAN"],
    [1534797,"2026-01-03 00:30:00","35787","1.6840000000000002","286.3","2.907","287","NAN","NAN","NAN","NAN","NAN"],
    [1534798,"2026-01-03 00:40:00","35788","0.971","289.6","2.254","289.6","NAN","NAN","NAN","NAN","NAN"],
    [1534799,"2026-01-03 00:50:00","35789","0.818","290.0","1.568","290","NAN","NAN","NAN","NAN","NAN"],
    [1534800,"2026-01-03 01:00:00","35790","0.7709999999999999","281.6","2.123","277.1","NAN","NAN","NAN","NAN","NAN"],
    [1534801,"2026-01-03 01:10:00","35791","1.5590000000000002","279.6","2.417","277.9","NAN","NAN","NAN","NAN","NAN"],
    [1534802,"2026-01-03 01:20:00","35792","1.311","285.6","2.45","277.6","NAN","NAN","NAN","NAN","NAN"],
    [1534803,"2026-01-03 01:30:00","35793","0.895","286.3","1.895","289.2","NAN","NAN","NAN","NAN","NAN"],
    [1534804,"2026-01-03 01:40:00","35794","1.2590000000000001","281.7","2.221","280.6","NAN","NAN","NAN","NAN","NAN"],
    [1534805,"2026-01-03 01:50:00","35795","0.589","283.7","1.895","279.6","NAN","NAN","NAN","NAN","NAN"],
    [1534806,"2026-01-03 02:00:00","35796","0.775","281.4","1.601","276.9","NAN","NAN","NAN","NAN","NAN"],
    [1534807,"2026-01-03 02:10:00","35797","0.804","287.2","1.535","288.7","NAN","NAN","NAN","NAN","NAN"],
    [1534808,"2026-01-03 02:20:00","35798","0.139","284.0","1.241","285.2","NAN","NAN","NAN","NAN","NAN"],
    [1534809,"2026-01-03 02:30:00","35799","0.735","285.3","1.535","288.1","NAN","NAN","NAN","NAN","NAN"],
    [1534810,"2026-01-03 02:40:00","35800","1.0270000000000001","285.8","1.699","277.5","NAN","NAN","NAN","NAN","NAN"],
    [1534811,"2026-01-03 02:50:00","35801","1.176","288.4","1.797","289.2","NAN","NAN","NAN","NAN","NAN"],
    [1534812,"2026-01-03 03:00:00","35802","1.256","282.4","2.156","276.2","NAN","NAN","NAN","NAN","NAN"],
    [1534813,"2026-01-03 03:10:00","35803","1.643","280.5","2.581","277.9","NAN","NAN","NAN","NAN","NAN"],
    [1534814,"2026-01-03 03:20:00","35804","1.557","287.4","3.038","290.1","NAN","NAN","NAN","NAN","NAN"],
    [1534815,"2026-01-03 03:30:00","35805","1.112","290.7","2.025","290.6","NAN","NAN","NAN","NAN","NAN"],
    [1534816,"2026-01-03 03:40:00","35806","1.026","290.6","1.731","290.8","NAN","NAN","NAN","NAN","NAN"],
    [1534817,"2026-01-03 03:50:00","35807","0.8440000000000001","290.7","1.601","290.8","NAN","NAN","NAN","NAN","NAN"],
    [1534818,"2026-01-03 04:00:00","35808","0.688","284.1","1.307","285.9","NAN","NAN","NAN","NAN","NAN"],
    [1534819,"2026-01-03 04:10:00","35809","0.6890000000000001","288.4","1.241","282.9","NAN","NAN","NAN","NAN","NAN"],
    [1534820,"2026-01-03 04:20:00","35810","0.09","290.6","0.751","290.6","NAN","NAN","NAN","NAN","NAN"],
    [1534821,"2026-01-03 04:30:00","35811","1.205","283.8","1.927","283.7","NAN","NAN","NAN","NAN","NAN"],
    [1534822,"2026-01-03 04:40:00","35812","1.156","289.7","1.895","290.8","NAN","NAN","NAN","NAN","NAN"],
    [1534823,"2026-01-03 04:50:00","35813","0.044000000000000004","290.8","0.719","290.8","NAN","NAN","NAN","NAN","NAN"],
    [1534824,"2026-01-03 05:00:00","35814","0.41100000000000003","290.9","1.143","291","NAN","NAN","NAN","NAN","NAN"],
    [1534825,"2026-01-03 05:10:00","35815","0.212","291.5","1.111","291","NAN","NAN","NAN","NAN","NAN"],
    [1534826,"2026-01-03 05:20:00","35816","1.548","359.3","3.463","7.75","NAN","NAN","NAN","NAN","NAN"],
    [1534827,"2026-01-03 05:30:00","35817","0.602","3.2910000000000004","2.679","9.96","NAN","NAN","NAN","NAN","NAN"],
    [1534828,"2026-01-03 05:40:00","35818","0.11800000000000001","1.253","0.915","1.589","NAN","NAN","NAN","NAN","NAN"],
    [1534829,"2026-01-03 05:50:00","35819","0.002","0.193","0.163","0.193","NAN","NAN","NAN","NAN","NAN"],
    [1534830,"2026-01-03 06:00:00","35820","0.0","0.0","0","0","NAN","NAN","NAN","NAN","NAN"],
    [1534831,"2026-01-03 06:10:00","35821","0.0","0.0","0","0","NAN","NAN","NAN","NAN","NAN"],
    [1534832,"2026-01-03 06:20:00","35822","0.215","319.2","1.143","318.2","NAN","NAN","NAN","NAN","NAN"],
    [1534833,"2026-01-03 06:30:00","35823","0.9420000000000001","318.2","1.731","318.2","NAN","NAN","NAN","NAN","NAN"],
    [1534834,"2026-01-03 06:40:00","35824","0.746","318.0","1.437","318","NAN","NAN","NAN","NAN","NAN"],
    [1534835,"2026-01-03 06:50:00","35825","0.099","318.0","1.045","318","NAN","NAN","NAN","NAN","NAN"],
    [1534836,"2026-01-03 07:00:00","35826","0.14400000000000002","318.1","1.078","318.1","NAN","NAN","NAN","NAN","NAN"],
    [1534837,"2026-01-03 07:10:00","35827","0.19699999999999998","321.3","1.176","325","NAN","NAN","NAN","NAN","NAN"],
    [1534838,"2026-01-03 07:20:00","35828","2.833","69.33","7.415","70.68","NAN","NAN","NAN","NAN","NAN"],
    [1534839,"2026-01-03 07:30:00","35829","4.564","81.2","7.905","63.35","NAN","NAN","NAN","NAN","NAN"],
    [1534840,"2026-01-03 07:40:00","35830","4.994","81.6","7.481","79.82","NAN","NAN","NAN","NAN","NAN"],
    [1534841,"2026-01-03 07:50:00","35831","4.136","86.6","7.285","79.4","NAN","NAN","NAN","NAN","NAN"],
    [1534842,"2026-01-03 08:00:00","35832","4.89","82.2","7.089","89.7","NAN","NAN","NAN","NAN","NAN"],
    [1534843,"2026-01-03 08:10:00","35833","4.745","82.6","7.219","89.5","NAN","NAN","NAN","NAN","NAN"],
    [1534844,"2026-01-03 08:20:00","35834","4.899","80.3","7.644","91.7","NAN","NAN","NAN","NAN","NAN"],
    [1534845,"2026-01-03 08:30:00","35835","4.895","86.0","7.579","84.9","NAN","NAN","NAN","NAN","NAN"],
    [1534846,"2026-01-03 08:40:00","35836","5.187","82.0","7.709","66.69","NAN","NAN","NAN","NAN","NAN"],
    [1534847,"2026-01-03 08:50:00","35837","4.212","81.8","6.795","98.3","NAN","NAN","NAN","NAN","NAN"],
    [1534848,"2026-01-03 09:00:00","35838","4.439","79.6","7.513","76.47","NAN","NAN","NAN","NAN","NAN"],
    [1534849,"2026-01-03 09:10:00","35839","4.261","80.1","6.533","91.2","NAN","NAN","NAN","NAN","NAN"],
    [1534850,"2026-01-03 09:20:00","35840","4.703","81.3","7.317","78.3","NAN","NAN","NAN","NAN","NAN"],
    [1534851,"2026-01-03 09:30:00","35841","4.6339999999999995","79.26","6.991","69.1","NAN","NAN","NAN","NAN","NAN"],
    [1534852,"2026-01-03 09:40:00","35842","4.4830000000000005","79.28","6.337","74.72","NAN","NAN","NAN","NAN","NAN"],
    [1534853,"2026-01-03 09:50:00","35843","4.218999999999999","79.07","6.599","65.45","NAN","NAN","NAN","NAN","NAN"],
    [1534854,"2026-01-03 10:00:00","35844","4.229","88.7","6.305","95","NAN","NAN","NAN","NAN","NAN"],
    [1534855,"2026-01-03 10:10:00","35845","4.591","82.7","6.958","84","NAN","NAN","NAN","NAN","NAN"],
    [1534856,"2026-01-03 10:20:00","35846","4.104","82.8","6.631","82.1","NAN","NAN","NAN","NAN","NAN"],
    [1534857,"2026-01-03 10:30:00","35847","4.506","88.1","7.056","79.76","NAN","NAN","NAN","NAN","NAN"],
    [1534858,"2026-01-03 10:40:00","35848","4.099","87.6","6.403","84.9","NAN","NAN","NAN","NAN","NAN"],
    [1534859,"2026-01-03 10:50:00","35849","3.261","82.6","6.305","77.02","NAN","NAN","NAN","NAN","NAN"],
    [1534860,"2026-01-03 11:00:00","35850","2.977","81.3","5.063","80.8","NAN","NAN","NAN","NAN","NAN"],
    [1534861,"2026-01-03 11:10:00","35851","2.559","72.82","5.063","87.4","NAN","NAN","NAN","NAN","NAN"],
    [1534862,"2026-01-03 11:20:00","35852","4.157","85.5","6.925","58.65","NAN","NAN","NAN","NAN","NAN"],
    [1534863,"2026-01-03 11:30:00","35853","3.742","84.9","5.782","71.01","NAN","NAN","NAN","NAN","NAN"],
    [1534864,"2026-01-03 11:40:00","35854","3.661","88.7","6.501","90.3","NAN","NAN","NAN","NAN","NAN"],
    [1534865,"2026-01-03 11:50:00","35855","3.017","83.2","6.566","82.5","NAN","NAN","NAN","NAN","NAN"],
    [1534866,"2026-01-03 12:00:00","35856","3.3739999999999997","86.6","5.325","90.8","NAN","NAN","NAN","NAN","NAN"],
    [1534867,"2026-01-03 12:10:00","35857","3.4139999999999997","85.4","6.043","81.9","NAN","NAN","NAN","NAN","NAN"],
    [1534868,"2026-01-03 12:20:00","35858","4.322","83.8","6.403","85.6","NAN","NAN","NAN","NAN","NAN"],
    [1534869,"2026-01-03 12:30:00","35859","4.292","80.9","6.337","76.03","NAN","NAN","NAN","NAN","NAN"],
    [1534870,"2026-01-03 12:40:00","35860","3.6430000000000002","87.9","6.076","86","NAN","NAN","NAN","NAN","NAN"],
    [1534871,"2026-01-03 12:50:00","35861","4.0169999999999995","85.2","6.566","91.1","NAN","NAN","NAN","NAN","NAN"],
    [1534872,"2026-01-03 13:00:00","35862","2.904","77.17","4.9","88.3","NAN","NAN","NAN","NAN","NAN"],
    [1534873,"2026-01-03 13:10:00","35863","3.3480000000000003","60.99","5.227","74.27","NAN","NAN","NAN","NAN","NAN"],
    [1534874,"2026-01-03 13:20:00","35864","2.984","66.49","6.011","66.41","NAN","NAN","NAN","NAN","NAN"],
    [1534875,"2026-01-03 13:30:00","35865","3.366","77.32","5.684","66.42","NAN","NAN","NAN","NAN","NAN"],
    [1534876,"2026-01-03 13:40:00","35866","3.095","71.48","4.737","77.37","NAN","NAN","NAN","NAN","NAN"],
    [1534877,"2026-01-03 13:50:00","35867","3.188","77.0","5.619","63.97","NAN","NAN","NAN","NAN","NAN"],
    [1534878,"2026-01-03 14:00:00","35868","2.821","76.85","5.39","69.98","NAN","NAN","NAN","NAN","NAN"],
    [1534879,"2026-01-03 14:10:00","35869","2.804","86.0","5.031","68.89","NAN","NAN","NAN","NAN","NAN"],
    [1534880,"2026-01-03 14:20:00","35870","3.049","79.23","5.782","70.35","NAN","NAN","NAN","NAN","NAN"],
    [1534881,"2026-01-03 14:30:00","35871","2.573","91.7","4.606","85.8","NAN","NAN","NAN","NAN","NAN"],
    [1534882,"2026-01-03 14:40:00","35872","2.8360000000000003","79.64","5.096","75.3","NAN","NAN","NAN","NAN","NAN"],
    [1534883,"2026-01-03 14:50:00","35873","3.7","69.03","5.815","69.22","NAN","NAN","NAN","NAN","NAN"],
    [1534884,"2026-01-03 15:00:00","35874","3.4760000000000004","58.87","6.827","66.34","NAN","NAN","NAN","NAN","NAN"],
    [1534885,"2026-01-03 15:10:00","35875","3.822","61.8","6.925","65.88","NAN","NAN","NAN","NAN","NAN"],
    [1534886,"2026-01-03 15:20:00","35876","3.221","58.21","6.043","49.21","NAN","NAN","NAN","NAN","NAN"],
    [1534887,"2026-01-03 15:30:00","35877","3.0789999999999997","73.06","6.109","76.57","NAN","NAN","NAN","NAN","NAN"],
    [1534888,"2026-01-03 15:40:00","35878","3.326","75.18","5.815","69.8","NAN","NAN","NAN","NAN","NAN"],
    [1534889,"2026-01-03 15:50:00","35879","2.74","82.6","4.639","73.33","NAN","NAN","NAN","NAN","NAN"],
    [1534890,"2026-01-03 16:00:00","35880","3.617","75.97","6.174","62.73","NAN","NAN","NAN","NAN","NAN"],
    [1534891,"2026-01-03 16:10:00","35881","3.213","85.0","5.194","85.5","NAN","NAN","NAN","NAN","NAN"],
    [1534892,"2026-01-03 16:20:00","35882","2.95","79.94","5.586","67.65","NAN","NAN","NAN","NAN","NAN"],
    [1534893,"2026-01-03 16:30:00","35883","3.085","73.29","5.978","68.1","NAN","NAN","NAN","NAN","NAN"],
    [1534894,"2026-01-03 16:40:00","35884","3.727","73.45","6.272","64.64","NAN","NAN","NAN","NAN","NAN"],
    [1534895,"2026-01-03 16:50:00","35885","2.338","84.9","4.802","86.8","NAN","NAN","NAN","NAN","NAN"],
    [1534896,"2026-01-03 17:00:00","35886","3.01","78.67","5.521","73.33","NAN","NAN","NAN","NAN","NAN"],
    [1534897,"2026-01-03 17:10:00","35887","2.577","91.5","4.835","92.7","NAN","NAN","NAN","NAN","NAN"],
    [1534898,"2026-01-03 17:20:00","35888","3.0869999999999997","86.0","5.423","88.4","NAN","NAN","NAN","NAN","NAN"],
    [1534899,"2026-01-03 17:30:00","35889","2.83","95.1","4.704","101.6","NAN","NAN","NAN","NAN","NAN"],
    [1534900,"2026-01-03 17:40:00","35890","3.218","93.5","5.227","86.6","NAN","NAN","NAN","NAN","NAN"],
    [1534901,"2026-01-03 17:50:00","35891","2.6289999999999996","91.9","4.606","84.2","NAN","NAN","NAN","NAN","NAN"],
    [1534902,"2026-01-03 18:00:00","35892","2.722","99.9","4.737","83.9","NAN","NAN","NAN","NAN","NAN"],
    [1534903,"2026-01-03 18:10:00","35893","3.135","87.6","5.619","75.51","NAN","NAN","NAN","NAN","NAN"],
    [1534904,"2026-01-03 18:20:00","35894","3.1239999999999997","93.3","5.913","98.7","NAN","NAN","NAN","NAN","NAN"],
    [1534905,"2026-01-03 18:30:00","35895","2.6489999999999996","80.6","5.847","66.55","NAN","NAN","NAN","NAN","NAN"],
    [1534906,"2026-01-03 18:40:00","35896","2.862","90.3","5.782","96.9","NAN","NAN","NAN","NAN","NAN"],
    [1534907,"2026-01-03 18:50:00","35897","2.271","88.8","4.867","95.4","NAN","NAN","NAN","NAN","NAN"],
    [1534908,"2026-01-03 19:00:00","35898","3.241","86.9","5.88","89.8","NAN","NAN","NAN","NAN","NAN"],
    [1534909,"2026-01-03 19:10:00","35899","3.0669999999999997","80.5","5.619","62.16","NAN","NAN","NAN","NAN","NAN"],
    [1534910,"2026-01-03 19:20:00","35900","3.4960000000000004","75.97","6.501","68.32","NAN","NAN","NAN","NAN","NAN"],
    [1534911,"2026-01-03 19:30:00","35901","3.332","77.01","5.455","67.16","NAN","NAN","NAN","NAN","NAN"],
    [1534912,"2026-01-03 19:40:00","35902","3.213","76.31","6.403","68.28","NAN","NAN","NAN","NAN","NAN"],
    [1534913,"2026-01-03 19:50:00","35903","3.263","72.61","5.455","99.3","NAN","NAN","NAN","NAN","NAN"],
    [1534914,"2026-01-03 20:00:00","35904","2.9810000000000003","82.0","5.782","73.88","NAN","NAN","NAN","NAN","NAN"],
    [1534915,"2026-01-03 20:10:00","35905","2.476","89.7","5.325","84.2","NAN","NAN","NAN","NAN","NAN"],
    [1534916,"2026-01-03 20:20:00","35906","3.3339999999999996","76.06","5.945","70.25","NAN","NAN","NAN","NAN","NAN"],
    [1534917,"2026-01-03 20:30:00","35907","3.29","69.22","5.847","69.18","NAN","NAN","NAN","NAN","NAN"],
    [1534918,"2026-01-03 20:40:00","35908","3.091","79.59","6.076","71.65","NAN","NAN","NAN","NAN","NAN"],
    [1534919,"2026-01-03 20:50:00","35909","3.552","69.9","6.697","65.56","NAN","NAN","NAN","NAN","NAN"],
    [1534920,"2026-01-03 21:00:00","35910","3.213","73.23","6.043","68.58","NAN","NAN","NAN","NAN","NAN"],
    [1534921,"2026-01-03 21:10:00","35911","3.335","78.95","6.827","74.76","NAN","NAN","NAN","NAN","NAN"],
    [1534922,"2026-01-03 21:20:00","35912","3.213","73.2","5.259","71.73","NAN","NAN","NAN","NAN","NAN"],
    [1534923,"2026-01-03 21:30:00","35913","3.037","71.42","5.586","69.5","NAN","NAN","NAN","NAN","NAN"],
    [1534924,"2026-01-03 21:40:00","35914","3.408","70.92","5.88","67.27","NAN","NAN","NAN","NAN","NAN"],
    [1534925,"2026-01-03 21:50:00","35915","3.861","74.98","6.174","75.02","NAN","NAN","NAN","NAN","NAN"],
    [1534926,"2026-01-03 22:00:00","35916","3.469","74.95","5.096","69.16","NAN","NAN","NAN","NAN","NAN"],
    [1534927,"2026-01-03 22:10:00","35917","3.4219999999999997","74.57","5.096","71.25","NAN","NAN","NAN","NAN","NAN"],
    [1534928,"2026-01-03 22:20:00","35918","3.125","73.63","5.651","75.17","NAN","NAN","NAN","NAN","NAN"],
    [1534929,"2026-01-03 22:30:00","35919","2.932","74.07","4.443","76.86","NAN","NAN","NAN","NAN","NAN"],
    [1534930,"2026-01-03 22:40:00","35920","2.3280000000000003","73.77","4.41","72.02","NAN","NAN","NAN","NAN","NAN"],
    [1534931,"2026-01-03 22:50:00","35921","1.942","77.81","3.561","71.77","NAN","NAN","NAN","NAN","NAN"],
    [1534932,"2026-01-03 23:00:00","35922","1.8259999999999998","79.52","3.234","71.41","NAN","NAN","NAN","NAN","NAN"],
    [1534933,"2026-01-03 23:10:00","35923","1.166","64.68","2.45","61.85","NAN","NAN","NAN","NAN","NAN"],
    [1534934,"2026-01-03 23:20:00","35924","0.094","56.77","1.274","56.85","NAN","NAN","NAN","NAN","NAN"],
    [1534935,"2026-01-03 23:30:00","35925","0.16699999999999998","56.52","0.915","56.46","NAN","NAN","NAN","NAN","NAN"],
    [1534936,"2026-01-03 23:40:00","35926","1.679","64.98","4.573","71.13","NAN","NAN","NAN","NAN","NAN"],
    [1534937,"2026-01-03 23:50:00","35927","2.681","74.16","4.475","64.47","NAN","NAN","NAN","NAN","NAN"],
    [1534938,"2026-01-04 00:00:00","35928","2.292","76.73","4.247","67.37","NAN","NAN","NAN","NAN","NAN"],
    [1534939,"2026-01-04 00:10:00","35929","2.623","75.33","4.475","73.6","NAN","NAN","NAN","NAN","NAN"],
    [1534940,"2026-01-04 00:20:00","35930","2.656","88.9","4.704","88.4","NAN","NAN","NAN","NAN","NAN"],
    [1534941,"2026-01-04 00:30:00","35931","2.535","90.7","5.292","94.5","NAN","NAN","NAN","NAN","NAN"],
    [1534942,"2026-01-04 00:40:00","35932","2.714","94.6","5.39","89.7","NAN","NAN","NAN","NAN","NAN"],
    [1534943,"2026-01-04 00:50:00","35933","3.216","94.7","5.423","85.3","NAN","NAN","NAN","NAN","NAN"],
    [1534944,"2026-01-04 01:00:00","35934","3.005","89.8","5.749","89","NAN","NAN","NAN","NAN","NAN"],
    [1534945,"2026-01-04 01:10:00","35935","3.0239999999999996","87.9","5.39","97.4","NAN","NAN","NAN","NAN","NAN"],
    [1534946,"2026-01-04 01:20:00","35936","3.293","77.0","5.815","69.72","NAN","NAN","NAN","NAN","NAN"],
    [1534947,"2026-01-04 01:30:00","35937","2.846","81.6","5.978","69.03","NAN","NAN","NAN","NAN","NAN"],
    [1534948,"2026-01-04 01:40:00","35938","3.568","77.45","6.043","70.77","NAN","NAN","NAN","NAN","NAN"],
    [1534949,"2026-01-04 01:50:00","35939","3.207","86.3","6.468","68.36","NAN","NAN","NAN","NAN","NAN"],
    [1534950,"2026-01-04 02:00:00","35940","3.6660000000000004","77.35","6.435","60.61","NAN","NAN","NAN","NAN","NAN"],
    [1534951,"2026-01-04 02:10:00","35941","3.344","79.15","6.174","61.94","NAN","NAN","NAN","NAN","NAN"],
    [1534952,"2026-01-04 02:20:00","35942","3.7039999999999997","70.19","6.207","61.04","NAN","NAN","NAN","NAN","NAN"],
    [1534953,"2026-01-04 02:30:00","35943","3.235","79.58","6.141","61.45","NAN","NAN","NAN","NAN","NAN"],
    [1534954,"2026-01-04 02:40:00","35944","3.528","92.4","6.599","91.4","NAN","NAN","NAN","NAN","NAN"],
    [1534955,"2026-01-04 02:50:00","35945","4.085","88.2","6.533","66.18","NAN","NAN","NAN","NAN","NAN"],
    [1534956,"2026-01-04 03:00:00","35946","4.288","94.5","8.82","82.9","NAN","NAN","NAN","NAN","NAN"],
    [1534957,"2026-01-04 03:10:00","35947","4.374","85.2","7.807","70.57","NAN","NAN","NAN","NAN","NAN"],
    [1534958,"2026-01-04 03:20:00","35948","4.9910000000000005","73.38","8.62","71.94","NAN","NAN","NAN","NAN","NAN"],
    [1534959,"2026-01-04 03:30:00","35949","4.803999999999999","74.19","8.89","78.99","NAN","NAN","NAN","NAN","NAN"],
    [1534960,"2026-01-04 03:40:00","35950","5.242999999999999","73.83","9.31","66.45","NAN","NAN","NAN","NAN","NAN"],
    [1534961,"2026-01-04 03:50:00","35951","4.341","72.24","6.762","62.84","NAN","NAN","NAN","NAN","NAN"],
    [1534962,"2026-01-04 04:00:00","35952","4.79","73.42","7.481","68.33","NAN","NAN","NAN","NAN","NAN"],
    [1534963,"2026-01-04 04:10:00","35953","4.29","78.58","9.11","62.07","NAN","NAN","NAN","NAN","NAN"],
    [1534964,"2026-01-04 04:20:00","35954","4.31","72.46","7.219","77.5","NAN","NAN","NAN","NAN","NAN"],
    [1534965,"2026-01-04 04:30:00","35955","3.725","69.34","6.207","78.31","NAN","NAN","NAN","NAN","NAN"],
    [1534966,"2026-01-04 04:40:00","35956","3.764","76.85","6.991","70.03","NAN","NAN","NAN","NAN","NAN"],
    [1534967,"2026-01-04 04:50:00","35957","3.576","67.12","6.795","65.61","NAN","NAN","NAN","NAN","NAN"],
    [1534968,"2026-01-04 05:00:00","35958","3.511","67.55","6.729","69.82","NAN","NAN","NAN","NAN","NAN"],
    [1534969,"2026-01-04 05:10:00","35959","4.367","71.73","7.252","68.75","NAN","NAN","NAN","NAN","NAN"],
    [1534970,"2026-01-04 05:20:00","35960","3.9589999999999996","63.92","7.971","70.28","NAN","NAN","NAN","NAN","NAN"],
    [1534971,"2026-01-04 05:30:00","35961","5.175","74.42","8.69","80.1","NAN","NAN","NAN","NAN","NAN"],
    [1534972,"2026-01-04 05:40:00","35962","4.158","72.35","8.2","74.36","NAN","NAN","NAN","NAN","NAN"],
    [1534973,"2026-01-04 05:50:00","35963","4.908","70.7","9.05","69.2","NAN","NAN","NAN","NAN","NAN"],
    [1534974,"2026-01-04 06:00:00","35964","3.878","78.92","6.631","71.08","NAN","NAN","NAN","NAN","NAN"],
    [1534975,"2026-01-04 06:10:00","35965","3.094","82.4","5.292","79.24","NAN","NAN","NAN","NAN","NAN"],
    [1534976,"2026-01-04 06:20:00","35966","3.7","81.8","5.978","66.17","NAN","NAN","NAN","NAN","NAN"],
    [1534977,"2026-01-04 06:30:00","35967","2.781","90.0","6.011","95.5","NAN","NAN","NAN","NAN","NAN"],
    [1534978,"2026-01-04 06:40:00","35968","2.785","71.56","5.063","93.4","NAN","NAN","NAN","NAN","NAN"],
    [1534979,"2026-01-04 06:50:00","35969","2.022","35.15","3.593","36","NAN","NAN","NAN","NAN","NAN"],
    [1534980,"2026-01-04 07:00:00","35970","0.701","31.04","1.633","31.25","NAN","NAN","NAN","NAN","NAN"],
    [1534981,"2026-01-04 07:10:00","35971","0.14800000000000002","30.58","0.915","30.57","NAN","NAN","NAN","NAN","NAN"],
    [1534982,"2026-01-04 07:20:00","35972","0.595","30.51","1.797","30.47","NAN","NAN","NAN","NAN","NAN"],
    [1534983,"2026-01-04 07:30:00","35973","0.289","30.48","1.045","30.47","NAN","NAN","NAN","NAN","NAN"],
    [1534984,"2026-01-04 07:40:00","35974","0.419","30.47","1.372","30.47","NAN","NAN","NAN","NAN","NAN"],
    [1534985,"2026-01-04 07:50:00","35975","0.317","30.48","1.111","30.47","NAN","NAN","NAN","NAN","NAN"],
    [1534986,"2026-01-04 08:00:00","35976","0.20800000000000002","30.48","0.882","30.47","NAN","NAN","NAN","NAN","NAN"],
    [1534987,"2026-01-04 08:10:00","35977","0.0","0.0","0","0","NAN","NAN","NAN","NAN","NAN"],
    [1534988,"2026-01-04 08:20:00","35978","0.0","0.0","0","0","NAN","NAN","NAN","NAN","NAN"],
    [1534989,"2026-01-04 08:30:00","35979","0.0","0.0","0","0","NAN","NAN","NAN","NAN","NAN"],
    [1534990,"2026-01-04 08:40:00","35980","0.0","0.0","0","0","NAN","NAN","NAN","NAN","NAN"],
    [1534991,"2026-01-04 08:50:00","35981","0.0","0.0","0","0","NAN","NAN","NAN","NAN","NAN"],
    [1534992,"2026-01-04 09:00:00","35982","0.008","30.36","0.327","30.38","NAN","NAN","NAN","NAN","NAN"],
    [1534993,"2026-01-04 09:10:00","35983","0.001","30.09","0.163","30.09","NAN","NAN","NAN","NAN","NAN"],
    [1534994,"2026-01-04 09:20:00","35984","0.0","0.0","0","0","NAN","NAN","NAN","NAN","NAN"],
    [1534995,"2026-01-04 09:30:00","35985","0.0","0.0","0","0","NAN","NAN","NAN","NAN","NAN"],
    [1534996,"2026-01-04 09:40:00","35986","0.0","0.0","0","0","NAN","NAN","NAN","NAN","NAN"],
    [1534997,"2026-01-04 09:50:00","35987","0.0","0.0","0","0","NAN","NAN","NAN","NAN","NAN"],
    [1534998,"2026-01-04 10:00:00","35988","0.002","29.42","0.196","29.42","NAN","NAN","NAN","NAN","NAN"],
    [1534999,"2026-01-04 10:10:00","35989","0.0","0.0","0","0","NAN","NAN","NAN","NAN","NAN"],
    [1535000,"2026-01-04 10:20:00","35990","0.002","28.99","0.196","28.98","NAN","NAN","NAN","NAN","NAN"],
    [1535001,"2026-01-04 10:30:00","35991","0.0","0.0","0","0","NAN","NAN","NAN","NAN","NAN"],
    [1535002,"2026-01-04 10:40:00","35992","0.0","0.0","0","0","NAN","NAN","NAN","NAN","NAN"],
    [1535003,"2026-01-04 10:50:00","35993","0.0","0.0","0","0","NAN","NAN","NAN","NAN","NAN"],
    [1535004,"2026-01-04 11:00:00","35994","0.013000000000000001","27.86","0.425","27.97","NAN","NAN","NAN","NAN","NAN"],
    [1535005,"2026-01-04 11:10:00","35995","0.017","26.53","0.392","26.53","NAN","NAN","NAN","NAN","NAN"],
    [1535006,"2026-01-04 11:20:00","35996","0.17","26.51","0.588","26.47","NAN","NAN","NAN","NAN","NAN"],
    [1535007,"2026-01-04 11:30:00","35997","0.39299999999999996","26.28","1.143","26.17","NAN","NAN","NAN","NAN","NAN"],
    [1535008,"2026-01-04 11:40:00","35998","0.508","26.01","1.111","26.03","NAN","NAN","NAN","NAN","NAN"],
    [1535009,"2026-01-04 11:50:00","35999","0.21","25.78","1.143","25.85","NAN","NAN","NAN","NAN","NAN"],
    [1535010,"2026-01-04 12:00:00","36000","0.519","24.71","1.437","24.71","NAN","NAN","NAN","NAN","NAN"],
    [1535011,"2026-01-04 12:10:00","36001","0.365","24.04","0.817","24.02","NAN","NAN","NAN","NAN","NAN"],
    [1535012,"2026-01-04 12:20:00","36002","0.364","24.0","1.013","24","NAN","NAN","NAN","NAN","NAN"],
    [1535013,"2026-01-04 12:30:00","36003","0.204","23.91","0.849","23.9","NAN","NAN","NAN","NAN","NAN"],
    [1535014,"2026-01-04 12:40:00","36004","0.221","23.84","1.045","23.8","NAN","NAN","NAN","NAN","NAN"],
    [1535015,"2026-01-04 12:50:00","36005","0.159","23.74","1.078","23.73","NAN","NAN","NAN","NAN","NAN"],
    [1535016,"2026-01-04 13:00:00","36006","0.138","23.73","0.653","23.73","NAN","NAN","NAN","NAN","NAN"],
    [1535017,"2026-01-04 13:10:00","36007","0.10300000000000001","23.66","0.817","23.73","NAN","NAN","NAN","NAN","NAN"],
    [1535018,"2026-01-04 13:20:00","36008","0.024","23.6","0.588","23.64","NAN","NAN","NAN","NAN","NAN"],
    [1535019,"2026-01-04 13:30:00","36009","0.005","23.55","0.327","23.54","NAN","NAN","NAN","NAN","NAN"],
    [1535020,"2026-01-04 13:40:00","36010","0.004","23.54","0.359","23.54","NAN","NAN","NAN","NAN","NAN"],
    [1535021,"2026-01-04 13:50:00","36011","0.012","23.54","0.523","23.54","NAN","NAN","NAN","NAN","NAN"],
    [1535022,"2026-01-04 14:00:00","36012","0.026000000000000002","23.54","0.327","23.54","NAN","NAN","NAN","NAN","NAN"],
    [1535023,"2026-01-04 14:10:00","36013","0.065","23.54","0.555","23.54","NAN","NAN","NAN","NAN","NAN"],
    [1535024,"2026-01-04 14:20:00","36014","0.797","23.54","1.666","23.54","NAN","NAN","NAN","NAN","NAN"],
    [1535025,"2026-01-04 14:30:00","36015","0.5539999999999999","23.54","1.633","23.54","NAN","NAN","NAN","NAN","NAN"],
    [1535026,"2026-01-04 14:40:00","36016","0.009000000000000001","23.54","0.392","23.54","NAN","NAN","NAN","NAN","NAN"],
    [1535027,"2026-01-04 14:50:00","36017","0.0","0.0","0","0","NAN","NAN","NAN","NAN","NAN"],
    [1535028,"2026-01-04 15:00:00","36018","0.0","0.0","0","0","NAN","NAN","NAN","NAN","NAN"],
    [1535029,"2026-01-04 15:10:00","36019","0.0","0.0","0","0","NAN","NAN","NAN","NAN","NAN"],
    [1535030,"2026-01-04 15:20:00","36020","0.057999999999999996","23.54","0.915","23.54","NAN","NAN","NAN","NAN","NAN"],
    [1535031,"2026-01-04 15:30:00","36021","0.33299999999999996","23.54","1.013","23.54","NAN","NAN","NAN","NAN","NAN"],
    [1535032,"2026-01-04 15:40:00","36022","0.155","23.48","0.882","23.54","NAN","NAN","NAN","NAN","NAN"],
    [1535033,"2026-01-04 15:50:00","36023","0.028999999999999998","23.38","0.359","23.36","NAN","NAN","NAN","NAN","NAN"],
    [1535034,"2026-01-04 16:00:00","36024","0.0","0.0","0","0","NAN","NAN","NAN","NAN","NAN"],
    [1535035,"2026-01-04 16:10:00","36025","0.011000000000000001","22.81","0.392","22.86","NAN","NAN","NAN","NAN","NAN"],
    [1535036,"2026-01-04 16:20:00","36026","2.239","333.7","3.463","321.1","NAN","NAN","NAN","NAN","NAN"],
    [1535037,"2026-01-04 16:30:00","36027","1.105","323.6","2.744","323.1","NAN","NAN","NAN","NAN","NAN"],
    [1535038,"2026-01-04 16:40:00","36028","0.508","322.3","1.339","321.2","NAN","NAN","NAN","NAN","NAN"],
    [1535039,"2026-01-04 16:50:00","36029","1.3319999999999999","325.0","3.365","325.8","NAN","NAN","NAN","NAN","NAN"],
    [1535040,"2026-01-04 17:00:00","36030","2.0980000000000003","328.6","2.94","328.3","NAN","NAN","NAN","NAN","NAN"],
    [1535041,"2026-01-04 17:10:00","36031","1.59","326.6","2.385","323.6","NAN","NAN","NAN","NAN","NAN"],
    [1535042,"2026-01-04 17:20:00","36032","1.034","329.2","1.829","327.5","NAN","NAN","NAN","NAN","NAN"],
    [1535043,"2026-01-04 17:30:00","36033","0.594","326.7","1.731","327.4","NAN","NAN","NAN","NAN","NAN"],
    [1535044,"2026-01-04 17:40:00","36034","0.857","358.1","2.025","332.5","NAN","NAN","NAN","NAN","NAN"],
    [1535045,"2026-01-04 17:50:00","36035","1.276","45.73","2.94","47.71","NAN","NAN","NAN","NAN","NAN"],
    [1535046,"2026-01-04 18:00:00","36036","0.655","39.98","2.287","39.99","NAN","NAN","NAN","NAN","NAN"],
    [1535047,"2026-01-04 18:10:00","36037","0.085","38.96","0.882","39.05","NAN","NAN","NAN","NAN","NAN"],
    [1535048,"2026-01-04 18:20:00","36038","0.29600000000000004","48.05","1.078","50.59","NAN","NAN","NAN","NAN","NAN"],
    [1535049,"2026-01-04 18:30:00","36039","1.14","47.45","2.254","52.42","NAN","NAN","NAN","NAN","NAN"],
    [1535050,"2026-01-04 18:40:00","36040","0.569","38.11","1.307","39.04","NAN","NAN","NAN","NAN","NAN"],
    [1535051,"2026-01-04 18:50:00","36041","0.54","36.1","1.862","36.63","NAN","NAN","NAN","NAN","NAN"],
    [1535052,"2026-01-04 19:00:00","36042","1.196","31.31","1.993","30.08","NAN","NAN","NAN","NAN","NAN"],
    [1535053,"2026-01-04 19:10:00","36043","0.667","357.2","3.953","0.61","NAN","NAN","NAN","NAN","NAN"],
    [1535054,"2026-01-04 19:20:00","36044","0.509","9.5","4.181","74.71","NAN","NAN","NAN","NAN","NAN"],
    [1535055,"2026-01-04 19:30:00","36045","1.531","73.23","3.953","71.24","NAN","NAN","NAN","NAN","NAN"],
    [1535056,"2026-01-04 19:40:00","36046","2.628","79.35","4.508","71.48","NAN","NAN","NAN","NAN","NAN"],
    [1535057,"2026-01-04 19:50:00","36047","2.8739999999999997","80.3","5.39","63.99","NAN","NAN","NAN","NAN","NAN"],
    [1535058,"2026-01-04 20:00:00","36048","2.844","82.4","5.423","96.4","NAN","NAN","NAN","NAN","NAN"],
    [1535059,"2026-01-04 20:10:00","36049","2.186","84.4","4.933","71.27","NAN","NAN","NAN","NAN","NAN"],
    [1535060,"2026-01-04 20:20:00","36050","2.577","78.95","4.639","87.2","NAN","NAN","NAN","NAN","NAN"],
    [1535061,"2026-01-04 20:30:00","36051","0.41200000000000003","45.93","2.385","45.91","NAN","NAN","NAN","NAN","NAN"],
    [1535062,"2026-01-04 20:40:00","36052","0.027999999999999997","42.89","0.49","42.41","NAN","NAN","NAN","NAN","NAN"],
    [1535063,"2026-01-04 20:50:00","36053","0.051","38.59","0.653","38.36","NAN","NAN","NAN","NAN","NAN"],
    [1535064,"2026-01-04 21:00:00","36054","0.025","29.67","0.425","29.65","NAN","NAN","NAN","NAN","NAN"],
    [1535065,"2026-01-04 21:10:00","36055","0.065","29.51","0.621","29.51","NAN","NAN","NAN","NAN","NAN"],
    [1535066,"2026-01-04 21:20:00","36056","0.016","29.51","0.621","29.51","NAN","NAN","NAN","NAN","NAN"],
    [1535067,"2026-01-04 21:30:00","36057","0.015","29.41","0.425","29.41","NAN","NAN","NAN","NAN","NAN"],
    [1535068,"2026-01-04 21:40:00","36058","0.002","29.41","0.261","29.41","NAN","NAN","NAN","NAN","NAN"],
    [1535069,"2026-01-04 21:50:00","36059","0.09699999999999999","0.312","1.503","337.5","NAN","NAN","NAN","NAN","NAN"],
    [1535070,"2026-01-04 22:00:00","36060","2.3930000000000002","309.6","3.789","301.7","NAN","NAN","NAN","NAN","NAN"],
    [1535071,"2026-01-04 22:10:00","36061","1.3430000000000002","305.2","2.777","301.8","NAN","NAN","NAN","NAN","NAN"],
    [1535072,"2026-01-04 22:20:00","36062","1.835","310.0","3.789","314.9","NAN","NAN","NAN","NAN","NAN"],
    [1535073,"2026-01-04 22:30:00","36063","2.975","312.0","4.508","308.2","NAN","NAN","NAN","NAN","NAN"],
    [1535074,"2026-01-04 22:40:00","36064","2.668","325.9","4.671","343.4","NAN","NAN","NAN","NAN","NAN"],
    [1535075,"2026-01-04 22:50:00","36065","2.721","329.3","4.116","332.7","NAN","NAN","NAN","NAN","NAN"],
    [1535076,"2026-01-04 23:00:00","36066","2.239","325.6","3.659","332.3","NAN","NAN","NAN","NAN","NAN"],
    [1535077,"2026-01-04 23:10:00","36067","2.8139999999999996","322.0","5.553","324.8","NAN","NAN","NAN","NAN","NAN"],
    [1535078,"2026-01-04 23:20:00","36068","2.431","326.4","4.508","330","NAN","NAN","NAN","NAN","NAN"],
    [1535079,"2026-01-04 23:30:00","36069","2.8960000000000004","326.6","4.541","339","NAN","NAN","NAN","NAN","NAN"],
    [1535080,"2026-01-04 23:40:00","36070","3.429","327.8","5.096","333.6","NAN","NAN","NAN","NAN","NAN"],
    [1535081,"2026-01-04 23:50:00","36071","3.594","327.3","5.259","318.5","NAN","NAN","NAN","NAN","NAN"],
    [1535082,"2026-01-05 00:00:00","36072","2.964","325.9","4.443","337.8","NAN","NAN","NAN","NAN","NAN"],
    [1535083,"2026-01-05 00:10:00","36073","3.565","322.4","5.259","332.1","NAN","NAN","NAN","NAN","NAN"],
    [1535084,"2026-01-05 00:20:00","36074","3.987","322.8","5.782","325.1","NAN","NAN","NAN","NAN","NAN"],
    [1535085,"2026-01-05 00:30:00","36075","3.148","325.8","5.717","328.9","NAN","NAN","NAN","NAN","NAN"],
    [1535086,"2026-01-05 00:40:00","36076","3.609","326.0","5.782","321.2","NAN","NAN","NAN","NAN","NAN"],
    [1535087,"2026-01-05 00:50:00","36077","3.6839999999999997","322.5","5.586","317.4","NAN","NAN","NAN","NAN","NAN"],
    [1535088,"2026-01-05 01:00:00","36078","3.697","322.3","7.023","314.9","NAN","NAN","NAN","NAN","NAN"],
    [1535089,"2026-01-05 01:10:00","36079","3.08","314.3","5.651","294.4","NAN","NAN","NAN","NAN","NAN"],
    [1535090,"2026-01-05 01:20:00","36080","2.678","324.2","4.312","319.7","NAN","NAN","NAN","NAN","NAN"],
    [1535091,"2026-01-05 01:30:00","36081","2.8080000000000003","309.4","5.063","313","NAN","NAN","NAN","NAN","NAN"],
    [1535092,"2026-01-05 01:40:00","36082","3.3080000000000003","311.0","5.684","307.8","NAN","NAN","NAN","NAN","NAN"],
    [1535093,"2026-01-05 01:50:00","36083","3.1189999999999998","321.4","4.704","327","NAN","NAN","NAN","NAN","NAN"],
    [1535094,"2026-01-05 02:00:00","36084","2.7889999999999997","308.8","5.227","312.1","NAN","NAN","NAN","NAN","NAN"],
    [1535095,"2026-01-05 02:10:00","36085","3.407","320.4","6.076","325.8","NAN","NAN","NAN","NAN","NAN"],
    [1535096,"2026-01-05 02:20:00","36086","2.88","320.9","5.782","331.1","NAN","NAN","NAN","NAN","NAN"],
    [1535097,"2026-01-05 02:30:00","36087","3.489","322.1","5.945","321.6","NAN","NAN","NAN","NAN","NAN"],
    [1535098,"2026-01-05 02:40:00","36088","3.54","328.7","5.553","342.9","NAN","NAN","NAN","NAN","NAN"],
    [1535099,"2026-01-05 02:50:00","36089","3.449","320.1","5.651","305.4","NAN","NAN","NAN","NAN","NAN"],
    [1535100,"2026-01-05 03:00:00","36090","3.747","315.1","7.154","302","NAN","NAN","NAN","NAN","NAN"],
    [1535101,"2026-01-05 03:10:00","36091","4.067","314.5","7.285","312.9","NAN","NAN","NAN","NAN","NAN"],
    [1535102,"2026-01-05 03:20:00","36092","3.9389999999999996","311.9","6.207","308.8","NAN","NAN","NAN","NAN","NAN"],
    [1535103,"2026-01-05 03:30:00","36093","3.155","310.3","5.847","322.6","NAN","NAN","NAN","NAN","NAN"],
    [1535104,"2026-01-05 03:40:00","36094","3.3510000000000004","304.9","6.011","291.6","NAN","NAN","NAN","NAN","NAN"],
    [1535105,"2026-01-05 03:50:00","36095","4.002","311.5","6.795","311.1","NAN","NAN","NAN","NAN","NAN"],
    [1535106,"2026-01-05 04:00:00","36096","3.9530000000000003","314.2","6.435","312.5","NAN","NAN","NAN","NAN","NAN"],
    [1535107,"2026-01-05 04:10:00","36097","3.78","299.2","5.782","300.9","NAN","NAN","NAN","NAN","NAN"],
    [1535108,"2026-01-05 04:20:00","36098","4.635","293.3","8.53","295","NAN","NAN","NAN","NAN","NAN"],
    [1535109,"2026-01-05 04:30:00","36099","3.903","309.3","8.26","292.6","NAN","NAN","NAN","NAN","NAN"],
    [1535110,"2026-01-05 04:40:00","36100","2.9419999999999997","310.8","4.704","310","NAN","NAN","NAN","NAN","NAN"],
    [1535111,"2026-01-05 04:50:00","36101","3.205","320.2","5.945","334.6","NAN","NAN","NAN","NAN","NAN"],
    [1535112,"2026-01-05 05:00:00","36102","4.395","326.4","7.709","339.6","NAN","NAN","NAN","NAN","NAN"],
    [1535113,"2026-01-05 05:10:00","36103","4.569","327.3","7.187","333.7","NAN","NAN","NAN","NAN","NAN"],
    [1535114,"2026-01-05 05:20:00","36104","4.867","321.0","8.07","318.8","NAN","NAN","NAN","NAN","NAN"],
    [1535115,"2026-01-05 05:30:00","36105","3.512","320.7","6.043","316.6","NAN","NAN","NAN","NAN","NAN"],
    [1535116,"2026-01-05 05:40:00","36106","3.745","322.8","6.076","325.9","NAN","NAN","NAN","NAN","NAN"],
    [1535117,"2026-01-05 05:50:00","36107","3.696","316.5","5.88","290.9","NAN","NAN","NAN","NAN","NAN"],
    [1535118,"2026-01-05 06:00:00","36108","4.263999999999999","311.2","7.35","306.7","NAN","NAN","NAN","NAN","NAN"],
    [1535119,"2026-01-05 06:10:00","36109","4.243","313.2","7.644","306.5","NAN","NAN","NAN","NAN","NAN"],
    [1535120,"2026-01-05 06:20:00","36110","4.359","325.4","7.187","331.8","NAN","NAN","NAN","NAN","NAN"],
    [1535121,"2026-01-05 06:30:00","36111","4.572","321.5","8.36","324.1","NAN","NAN","NAN","NAN","NAN"],
    [1535122,"2026-01-05 06:40:00","36112","4.71","320.0","8.23","317.6","NAN","NAN","NAN","NAN","NAN"],
    [1535123,"2026-01-05 06:50:00","36113","4.9239999999999995","321.6","8.33","327.6","NAN","NAN","NAN","NAN","NAN"],
    [1535124,"2026-01-05 07:00:00","36114","4.324","311.8","7.546","310.2","NAN","NAN","NAN","NAN","NAN"],
    [1535125,"2026-01-05 07:10:00","36115","3.877","309.1","6.762","320.6","NAN","NAN","NAN","NAN","NAN"],
    [1535126,"2026-01-05 07:20:00","36116","4.39","312.6","7.154","308.5","NAN","NAN","NAN","NAN","NAN"],
    [1535127,"2026-01-05 07:30:00","36117","3.8489999999999998","310.5","7.089","309.5","NAN","NAN","NAN","NAN","NAN"],
    [1535128,"2026-01-05 07:40:00","36118","3.991","306.1","6.109","299.6","NAN","NAN","NAN","NAN","NAN"],
    [1535129,"2026-01-05 07:50:00","36119","4.01","312.3","7.415","310.3","NAN","NAN","NAN","NAN","NAN"],
    [1535130,"2026-01-05 08:00:00","36120","4.205","309.3","8.1","313.2","NAN","NAN","NAN","NAN","NAN"],
    [1535131,"2026-01-05 08:10:00","36121","3.925","314.7","7.121","315.9","NAN","NAN","NAN","NAN","NAN"],
    [1535132,"2026-01-05 08:20:00","36122","4.585","308.5","7.187","318.8","NAN","NAN","NAN","NAN","NAN"],
    [1535133,"2026-01-05 08:30:00","36123","4.928","310.1","7.775","308","NAN","NAN","NAN","NAN","NAN"],
    [1535134,"2026-01-05 08:40:00","36124","4.45","320.3","7.611","289.3","NAN","NAN","NAN","NAN","NAN"],
    [1535135,"2026-01-05 08:50:00","36125","4.533","314.5","8.17","315.4","NAN","NAN","NAN","NAN","NAN"],
    [1535136,"2026-01-05 09:00:00","36126","4.992","324.9","9.02","344.4","NAN","NAN","NAN","NAN","NAN"],
    [1535137,"2026-01-05 09:10:00","36127","4.072","316.7","7.154","314.9","NAN","NAN","NAN","NAN","NAN"],
    [1535138,"2026-01-05 09:20:00","36128","4.9430000000000005","325.0","7.873","325.5","NAN","NAN","NAN","NAN","NAN"],
    [1535139,"2026-01-05 09:30:00","36129","5.06","326.6","7.742","334.8","NAN","NAN","NAN","NAN","NAN"],
    [1535140,"2026-01-05 09:40:00","36130","3.935","313.2","6.207","320.2","NAN","NAN","NAN","NAN","NAN"],
    [1535141,"2026-01-05 09:50:00","36131","3.6","311.0","6.272","321.1","NAN","NAN","NAN","NAN","NAN"],
    [1535142,"2026-01-05 10:00:00","36132","4.76","324.3","7.938","331.4","NAN","NAN","NAN","NAN","NAN"],
    [1535143,"2026-01-05 10:10:00","36133","4.449","314.8","7.579","305.7","NAN","NAN","NAN","NAN","NAN"],
    [1535144,"2026-01-05 10:20:00","36134","4.295","309.0","6.795","309.5","NAN","NAN","NAN","NAN","NAN"],
    [1535145,"2026-01-05 10:30:00","36135","3.8739999999999997","306.6","6.991","301.1","NAN","NAN","NAN","NAN","NAN"],
    [1535146,"2026-01-05 10:40:00","36136","3.5180000000000002","321.5","5.978","308.3","NAN","NAN","NAN","NAN","NAN"],
    [1535147,"2026-01-05 10:50:00","36137","2.3369999999999997","316.5","4.508","315.8","NAN","NAN","NAN","NAN","NAN"],
    [1535148,"2026-01-05 11:00:00","36138","2.511","301.6","4.083","305.5","NAN","NAN","NAN","NAN","NAN"],
    [1535149,"2026-01-05 11:10:00","36139","2.472","297.6","4.345","297","NAN","NAN","NAN","NAN","NAN"],
    [1535150,"2026-01-05 11:20:00","36140","2.807","299.8","4.475","302.1","NAN","NAN","NAN","NAN","NAN"],
    [1535151,"2026-01-05 11:30:00","36141","3.097","299.1","4.9","294.2","NAN","NAN","NAN","NAN","NAN"],
    [1535152,"2026-01-05 11:40:00","36142","4.029","298.5","6.403","311.2","NAN","NAN","NAN","NAN","NAN"],
    [1535153,"2026-01-05 11:50:00","36143","3.9339999999999997","305.3","6.141","305.9","NAN","NAN","NAN","NAN","NAN"],
    [1535154,"2026-01-05 12:00:00","36144","3.792","298.8","5.325","297.5","NAN","NAN","NAN","NAN","NAN"],
    [1535155,"2026-01-05 12:10:00","36145","3.022","290.0","4.769","285.2","NAN","NAN","NAN","NAN","NAN"],
    [1535156,"2026-01-05 12:20:00","36146","3.675","293.4","6.141","290.5","NAN","NAN","NAN","NAN","NAN"],
    [1535157,"2026-01-05 12:30:00","36147","3.861","297.2","6.207","300.6","NAN","NAN","NAN","NAN","NAN"],
    [1535158,"2026-01-05 12:40:00","36148","4.024","296.2","6.239","306.6","NAN","NAN","NAN","NAN","NAN"],
    [1535159,"2026-01-05 12:50:00","36149","4.26","284.9","6.925","299.2","NAN","NAN","NAN","NAN","NAN"],
    [1535160,"2026-01-05 13:00:00","36150","4.087","293.6","7.089","303.5","NAN","NAN","NAN","NAN","NAN"],
    [1535161,"2026-01-05 13:10:00","36151","4.507","300.7","7.056","289.4","NAN","NAN","NAN","NAN","NAN"],
    [1535162,"2026-01-05 13:20:00","36152","4.0760000000000005","308.1","7.252","310.1","NAN","NAN","NAN","NAN","NAN"],
    [1535163,"2026-01-05 13:30:00","36153","3.779","311.7","5.945","313.2","NAN","NAN","NAN","NAN","NAN"],
    [1535164,"2026-01-05 13:40:00","36154","3.571","311.0","6.043","335.2","NAN","NAN","NAN","NAN","NAN"],
    [1535165,"2026-01-05 13:50:00","36155","3.745","308.6","7.089","311.3","NAN","NAN","NAN","NAN","NAN"],
    [1535166,"2026-01-05 14:00:00","36156","4.556","310.9","7.611","304.8","NAN","NAN","NAN","NAN","NAN"],
    [1535167,"2026-01-05 14:10:00","36157","4.292","310.8","6.893","304","NAN","NAN","NAN","NAN","NAN"],
    [1535168,"2026-01-05 14:20:00","36158","4.612","323.7","7.775","323.3","NAN","NAN","NAN","NAN","NAN"],
    [1535169,"2026-01-05 14:30:00","36159","3.718","316.2","6.141","315.1","NAN","NAN","NAN","NAN","NAN"],
    [1535170,"2026-01-05 14:40:00","36160","3.0239999999999996","309.9","4.443","313.1","NAN","NAN","NAN","NAN","NAN"],
    [1535171,"2026-01-05 14:50:00","36161","3.1189999999999998","309.2","5.194","322.6","NAN","NAN","NAN","NAN","NAN"],
    [1535172,"2026-01-05 15:00:00","36162","3.302","316.3","5.553","308.3","NAN","NAN","NAN","NAN","NAN"],
    [1535173,"2026-01-05 15:10:00","36163","3.2539999999999996","325.1","5.619","333","NAN","NAN","NAN","NAN","NAN"],
    [1535174,"2026-01-05 15:20:00","36164","2.648","310.4","5.227","325.7","NAN","NAN","NAN","NAN","NAN"],
    [1535175,"2026-01-05 15:30:00","36165","2.9360000000000004","306.2","5.978","323.5","NAN","NAN","NAN","NAN","NAN"],
    [1535176,"2026-01-05 15:40:00","36166","3.513","309.5","5.913","307.3","NAN","NAN","NAN","NAN","NAN"],
    [1535177,"2026-01-05 15:50:00","36167","4.09","308.5","6.37","311.8","NAN","NAN","NAN","NAN","NAN"],
    [1535178,"2026-01-05 16:00:00","36168","4.105","313.5","6.925","311.4","NAN","NAN","NAN","NAN","NAN"],
    [1535179,"2026-01-05 16:10:00","36169","3.8939999999999997","317.4","6.566","325.9","NAN","NAN","NAN","NAN","NAN"],
    [1535180,"2026-01-05 16:20:00","36170","3.571","313.7","6.827","310.6","NAN","NAN","NAN","NAN","NAN"],
    [1535181,"2026-01-05 16:30:00","36171","4.043","313.8","6.925","306.3","NAN","NAN","NAN","NAN","NAN"],
    [1535182,"2026-01-05 16:40:00","36172","3.8480000000000003","313.3","6.925","303.4","NAN","NAN","NAN","NAN","NAN"],
    [1535183,"2026-01-05 16:50:00","36173","3.865","309.0","5.586","307.4","NAN","NAN","NAN","NAN","NAN"],
    [1535184,"2026-01-05 17:00:00","36174","3.7739999999999996","311.1","6.37","329.2","NAN","NAN","NAN","NAN","NAN"],
    [1535185,"2026-01-05 17:10:00","36175","4.223","313.5","6.697","302.6","NAN","NAN","NAN","NAN","NAN"],
    [1535186,"2026-01-05 17:20:00","36176","3.911","315.9","6.468","317.3","NAN","NAN","NAN","NAN","NAN"],
    [1535187,"2026-01-05 17:30:00","36177","3.389","308.9","5.978","311.2","NAN","NAN","NAN","NAN","NAN"],
    [1535188,"2026-01-05 17:40:00","36178","3.772","312.2","6.435","325.6","NAN","NAN","NAN","NAN","NAN"],
    [1535189,"2026-01-05 17:50:00","36179","4.011","313.0","6.664","320.1","NAN","NAN","NAN","NAN","NAN"],
    [1535190,"2026-01-05 18:00:00","36180","4.1339999999999995","310.6","6.533","312.6","NAN","NAN","NAN","NAN","NAN"],
    [1535191,"2026-01-05 18:10:00","36181","3.451","305.8","5.88","308.3","NAN","NAN","NAN","NAN","NAN"],
    [1535192,"2026-01-05 18:20:00","36182","3.6860000000000004","302.4","5.488","315.3","NAN","NAN","NAN","NAN","NAN"],
    [1535193,"2026-01-05 18:30:00","36183","3.3369999999999997","304.6","5.423","300.1","NAN","NAN","NAN","NAN","NAN"],
    [1535194,"2026-01-05 18:40:00","36184","3.335","309.9","5.357","305.5","NAN","NAN","NAN","NAN","NAN"],
    [1535195,"2026-01-05 18:50:00","36185","3.4789999999999996","302.8","5.39","292.6","NAN","NAN","NAN","NAN","NAN"],
    [1535196,"2026-01-05 19:00:00","36186","3.534","306.5","6.109","307.9","NAN","NAN","NAN","NAN","NAN"],
    [1535197,"2026-01-05 19:10:00","36187","3.278","300.7","5.031","308.4","NAN","NAN","NAN","NAN","NAN"],
    [1535198,"2026-01-05 19:20:00","36188","3.103","300.0","4.933","304.8","NAN","NAN","NAN","NAN","NAN"],
    [1535199,"2026-01-05 19:30:00","36189","3.49","296.9","5.39","289.4","NAN","NAN","NAN","NAN","NAN"],
    [1535200,"2026-01-05 19:40:00","36190","3.406","300.8","5.455","315","NAN","NAN","NAN","NAN","NAN"],
    [1535201,"2026-01-05 19:50:00","36191","2.778","299.7","6.076","308.8","NAN","NAN","NAN","NAN","NAN"],
    [1535202,"2026-01-05 20:00:00","36192","3.458","296.7","5.455","287","NAN","NAN","NAN","NAN","NAN"],
    [1535203,"2026-01-05 20:10:00","36193","2.948","299.0","4.867","287.9","NAN","NAN","NAN","NAN","NAN"],
    [1535204,"2026-01-05 20:20:00","36194","3.0780000000000003","303.1","5.063","296.6","NAN","NAN","NAN","NAN","NAN"],
    [1535205,"2026-01-05 20:30:00","36195","2.373","304.5","4.475","300.5","NAN","NAN","NAN","NAN","NAN"],
    [1535206,"2026-01-05 20:40:00","36196","2.544","301.9","4.312","302.3","NAN","NAN","NAN","NAN","NAN"],
    [1535207,"2026-01-05 20:50:00","36197","2.427","298.8","3.855","297.3","NAN","NAN","NAN","NAN","NAN"],
    [1535208,"2026-01-05 21:00:00","36198","2.852","297.0","4.312","301.1","NAN","NAN","NAN","NAN","NAN"],
    [1535209,"2026-01-05 21:10:00","36199","2.336","290.2","3.985","294.9","NAN","NAN","NAN","NAN","NAN"],
    [1535210,"2026-01-05 21:20:00","36200","2.68","290.2","4.769","287.4","NAN","NAN","NAN","NAN","NAN"],
    [1535211,"2026-01-05 21:30:00","36201","2.6830000000000003","298.8","4.573","285.5","NAN","NAN","NAN","NAN","NAN"],
    [1535212,"2026-01-05 21:40:00","36202","3.477","303.5","5.978","303.3","NAN","NAN","NAN","NAN","NAN"],
    [1535213,"2026-01-05 21:50:00","36203","3.214","302.4","5.161","309.4","NAN","NAN","NAN","NAN","NAN"],
    [1535214,"2026-01-05 22:00:00","36204","3.3360000000000003","301.9","5.063","314.3","NAN","NAN","NAN","NAN","NAN"],
    [1535215,"2026-01-05 22:10:00","36205","3.049","314.0","5.782","319.9","NAN","NAN","NAN","NAN","NAN"],
    [1535216,"2026-01-05 22:20:00","36206","3.157","304.3","5.194","310.2","NAN","NAN","NAN","NAN","NAN"],
    [1535217,"2026-01-05 22:30:00","36207","3.176","299.3","5.129","302.6","NAN","NAN","NAN","NAN","NAN"],
    [1535218,"2026-01-05 22:40:00","36208","3.2689999999999997","302.2","5.913","313.7","NAN","NAN","NAN","NAN","NAN"],
    [1535219,"2026-01-05 22:50:00","36209","3.299","306.8","5.227","310.5","NAN","NAN","NAN","NAN","NAN"],
    [1535220,"2026-01-05 23:00:00","36210","3.657","305.2","6.435","313.1","NAN","NAN","NAN","NAN","NAN"],
    [1535221,"2026-01-05 23:10:00","36211","3.656","311.5","6.337","322.5","NAN","NAN","NAN","NAN","NAN"],
    [1535222,"2026-01-05 23:20:00","36212","3.889","309.6","6.468","311.2","NAN","NAN","NAN","NAN","NAN"],
    [1535223,"2026-01-05 23:30:00","36213","3.435","308.0","5.945","308.7","NAN","NAN","NAN","NAN","NAN"],
    [1535224,"2026-01-05 23:40:00","36214","3.025","306.7","4.867","317.9","NAN","NAN","NAN","NAN","NAN"],
    [1535225,"2026-01-05 23:50:00","36215","4.005","305.5","5.782","301.5","NAN","NAN","NAN","NAN","NAN"],
    [1535226,"2026-01-06 00:00:00","36216","3.455","303.2","6.272","300.8","NAN","NAN","NAN","NAN","NAN"],
    [1535227,"2026-01-06 00:10:00","36217","3.29","291.9","5.129","299.1","NAN","NAN","NAN","NAN","NAN"],
    [1535228,"2026-01-06 00:20:00","36218","3.1910000000000003","291.1","4.606","285.4","NAN","NAN","NAN","NAN","NAN"],
    [1535229,"2026-01-06 00:30:00","36219","3.784","292.8","5.455","285.6","NAN","NAN","NAN","NAN","NAN"],
    [1535230,"2026-01-06 00:40:00","36220","4.058","294.8","5.651","297.2","NAN","NAN","NAN","NAN","NAN"],
    [1535231,"2026-01-06 00:50:00","36221","4.3180000000000005","300.7","7.219","310.7","NAN","NAN","NAN","NAN","NAN"],
    [1535232,"2026-01-06 01:00:00","36222","3.9989999999999997","308.2","5.945","293.4","NAN","NAN","NAN","NAN","NAN"],
    [1535233,"2026-01-06 01:10:00","36223","4.1739999999999995","313.3","6.37","328.1","NAN","NAN","NAN","NAN","NAN"],
    [1535234,"2026-01-06 01:20:00","36224","3.3960000000000004","319.4","6.239","331.1","NAN","NAN","NAN","NAN","NAN"],
    [1535235,"2026-01-06 01:30:00","36225","3.6919999999999997","325.4","5.553","322.3","NAN","NAN","NAN","NAN","NAN"],
    [1535236,"2026-01-06 01:40:00","36226","4.262","326.4","6.827","326.8","NAN","NAN","NAN","NAN","NAN"],
    [1535237,"2026-01-06 01:50:00","36227","4.603","325.3","7.971","331.5","NAN","NAN","NAN","NAN","NAN"],
    [1535238,"2026-01-06 02:00:00","36228","4.365","318.8","7.775","326","NAN","NAN","NAN","NAN","NAN"],
    [1535239,"2026-01-06 02:10:00","36229","4.627","314.8","7.742","306","NAN","NAN","NAN","NAN","NAN"],
    [1535240,"2026-01-06 02:20:00","36230","4.6160000000000005","318.9","8.17","301.9","NAN","NAN","NAN","NAN","NAN"],
    [1535241,"2026-01-06 02:30:00","36231","4.192","320.7","6.729","317.4","NAN","NAN","NAN","NAN","NAN"],
    [1535242,"2026-01-06 02:40:00","36232","4.526","316.2","7.317","319.8","NAN","NAN","NAN","NAN","NAN"],
    [1535243,"2026-01-06 02:50:00","36233","6.12","307.1","9.11","317.2","NAN","NAN","NAN","NAN","NAN"],
    [1535244,"2026-01-06 03:00:00","36234","5.371","307.8","8.98","299.6","NAN","NAN","NAN","NAN","NAN"],
    [1535245,"2026-01-06 03:10:00","36235","4.06","313.6","7.546","329.9","NAN","NAN","NAN","NAN","NAN"],
    [1535246,"2026-01-06 03:20:00","36236","5.257000000000001","313.9","9.21","310.3","NAN","NAN","NAN","NAN","NAN"],
    [1535247,"2026-01-06 03:30:00","36237","4.81","312.7","8.26","312.6","NAN","NAN","NAN","NAN","NAN"],
    [1535248,"2026-01-06 03:40:00","36238","5.371","309.6","8.62","298.9","NAN","NAN","NAN","NAN","NAN"],
    [1535249,"2026-01-06 03:50:00","36239","4.5089999999999995","314.9","7.84","302","NAN","NAN","NAN","NAN","NAN"],
    [1535250,"2026-01-06 04:00:00","36240","5.726","324.6","10.39","306.3","NAN","NAN","NAN","NAN","NAN"],
    [1535251,"2026-01-06 04:10:00","36241","6.263999999999999","319.7","9.77","320","NAN","NAN","NAN","NAN","NAN"],
    [1535252,"2026-01-06 04:20:00","36242","5.53","318.1","9.28","317.9","NAN","NAN","NAN","NAN","NAN"],
    [1535253,"2026-01-06 04:30:00","36243","4.4239999999999995","312.6","7.383","316.2","NAN","NAN","NAN","NAN","NAN"],
    [1535254,"2026-01-06 04:40:00","36244","5.481","304.8","8.75","307.7","NAN","NAN","NAN","NAN","NAN"],
    [1535255,"2026-01-06 04:50:00","36245","5.015","304.9","8.49","304","NAN","NAN","NAN","NAN","NAN"],
    [1535256,"2026-01-06 05:00:00","36246","4.836","301.0","7.513","311.8","NAN","NAN","NAN","NAN","NAN"],
    [1535257,"2026-01-06 05:10:00","36247","5.6370000000000005","297.8","8.56","288.9","NAN","NAN","NAN","NAN","NAN"],
    [1535258,"2026-01-06 05:20:00","36248","4.437","305.8","6.403","298.7","NAN","NAN","NAN","NAN","NAN"],
    [1535259,"2026-01-06 05:30:00","36249","4.978","301.7","7.742","294.1","NAN","NAN","NAN","NAN","NAN"],
    [1535260,"2026-01-06 05:40:00","36250","4.43","298.9","6.893","299","NAN","NAN","NAN","NAN","NAN"],
    [1535261,"2026-01-06 05:50:00","36251","3.6289999999999996","297.6","5.749","296.1","NAN","NAN","NAN","NAN","NAN"],
    [1535262,"2026-01-06 06:00:00","36252","4.3069999999999995","302.1","6.795","295.2","NAN","NAN","NAN","NAN","NAN"],
    [1535263,"2026-01-06 06:10:00","36253","3.727","302.4","6.272","308.8","NAN","NAN","NAN","NAN","NAN"],
    [1535264,"2026-01-06 06:20:00","36254","4.515","301.2","6.795","295.6","NAN","NAN","NAN","NAN","NAN"],
    [1535265,"2026-01-06 06:30:00","36255","4.906000000000001","306.2","7.579","313.9","NAN","NAN","NAN","NAN","NAN"],
    [1535266,"2026-01-06 06:40:00","36256","4.292","313.7","8.1","312.9","NAN","NAN","NAN","NAN","NAN"],
    [1535267,"2026-01-06 06:50:00","36257","4.327","304.9","6.86","301","NAN","NAN","NAN","NAN","NAN"],
    [1535268,"2026-01-06 07:00:00","36258","4.752","307.0","8.1","314.6","NAN","NAN","NAN","NAN","NAN"],
    [1535269,"2026-01-06 07:10:00","36259","4.431","309.9","7.579","311.3","NAN","NAN","NAN","NAN","NAN"],
    [1535270,"2026-01-06 07:20:00","36260","4.382","311.6","7.775","303.7","NAN","NAN","NAN","NAN","NAN"],
    [1535271,"2026-01-06 07:30:00","36261","4.629","309.4","6.827","328.5","NAN","NAN","NAN","NAN","NAN"],
    [1535272,"2026-01-06 07:40:00","36262","3.5669999999999997","306.5","6.174","305.3","NAN","NAN","NAN","NAN","NAN"],
    [1535273,"2026-01-06 07:50:00","36263","3.486","302.4","5.292","309.4","NAN","NAN","NAN","NAN","NAN"],
    [1535274,"2026-01-06 08:00:00","36264","3.617","301.4","5.39","291.2","NAN","NAN","NAN","NAN","NAN"],
    [1535275,"2026-01-06 08:10:00","36265","4.18","300.8","6.272","300.8","NAN","NAN","NAN","NAN","NAN"],
    [1535276,"2026-01-06 08:20:00","36266","3.4610000000000003","302.5","6.239","307.4","NAN","NAN","NAN","NAN","NAN"],
    [1535277,"2026-01-06 08:30:00","36267","4.0280000000000005","299.7","5.847","303.5","NAN","NAN","NAN","NAN","NAN"],
    [1535278,"2026-01-06 08:40:00","36268","4.4430000000000005","308.2","7.35","308.4","NAN","NAN","NAN","NAN","NAN"],
    [1535279,"2026-01-06 08:50:00","36269","4.353","305.3","6.925","323.7","NAN","NAN","NAN","NAN","NAN"],
    [1535280,"2026-01-06 09:00:00","36270","3.758","305.7","6.207","304.1","NAN","NAN","NAN","NAN","NAN"],
    [1535281,"2026-01-06 09:10:00","36271","4.075","302.0","6.109","298.7","NAN","NAN","NAN","NAN","NAN"],
    [1535282,"2026-01-06 09:20:00","36272","4.043","305.6","6.435","287.9","NAN","NAN","NAN","NAN","NAN"],
    [1535283,"2026-01-06 09:30:00","36273","4.628","305.8","7.938","310.5","NAN","NAN","NAN","NAN","NAN"],
    [1535284,"2026-01-06 09:40:00","36274","3.885","308.0","6.893","314.6","NAN","NAN","NAN","NAN","NAN"],
    [1535285,"2026-01-06 09:50:00","36275","3.74","307.5","6.533","292.6","NAN","NAN","NAN","NAN","NAN"],
    [1535286,"2026-01-06 10:00:00","36276","3.332","301.4","5.945","310","NAN","NAN","NAN","NAN","NAN"],
    [1535287,"2026-01-06 10:10:00","36277","3.4739999999999998","295.6","5.39","294.7","NAN","NAN","NAN","NAN","NAN"],
    [1535288,"2026-01-06 10:20:00","36278","3.67","295.4","5.782","298.2","NAN","NAN","NAN","NAN","NAN"],
    [1535289,"2026-01-06 10:30:00","36279","3.878","294.8","5.913","291.6","NAN","NAN","NAN","NAN","NAN"],
    [1535290,"2026-01-06 10:40:00","36280","4.49","295.9","6.925","309.9","NAN","NAN","NAN","NAN","NAN"],
    [1535291,"2026-01-06 10:50:00","36281","4.175","300.6","6.958","310.7","NAN","NAN","NAN","NAN","NAN"],
    [1535292,"2026-01-06 11:00:00","36282","4.065","299.3","6.697","301.7","NAN","NAN","NAN","NAN","NAN"],
    [1535293,"2026-01-06 11:10:00","36283","4.465","301.7","7.742","307","NAN","NAN","NAN","NAN","NAN"],
    [1535294,"2026-01-06 11:20:00","36284","4.327","304.1","6.925","307","NAN","NAN","NAN","NAN","NAN"],
    [1535295,"2026-01-06 11:30:00","36285","3.582","308.3","6.043","292.8","NAN","NAN","NAN","NAN","NAN"],
    [1535296,"2026-01-06 11:40:00","36286","4.388999999999999","304.9","7.187","303.2","NAN","NAN","NAN","NAN","NAN"],
    [1535297,"2026-01-06 11:50:00","36287","4.503","306.3","6.893","306.8","NAN","NAN","NAN","NAN","NAN"],
    [1535298,"2026-01-06 12:00:00","36288","3.5589999999999997","312.5","6.272","312.6","NAN","NAN","NAN","NAN","NAN"],
    [1535299,"2026-01-06 12:10:00","36289","3.378","311.1","6.795","301.7","NAN","NAN","NAN","NAN","NAN"],
    [1535300,"2026-01-06 12:20:00","36290","3.647","298.7","5.553","289.1","NAN","NAN","NAN","NAN","NAN"],
    [1535301,"2026-01-06 12:30:00","36291","3.6319999999999997","298.6","5.815","299.1","NAN","NAN","NAN","NAN","NAN"],
    [1535302,"2026-01-06 12:40:00","36292","3.301","305.6","5.521","294.5","NAN","NAN","NAN","NAN","NAN"],
    [1535303,"2026-01-06 12:50:00","36293","3.176","311.9","4.802","314.5","NAN","NAN","NAN","NAN","NAN"],
    [1535304,"2026-01-06 13:00:00","36294","3.6430000000000002","313.2","5.586","324.4","NAN","NAN","NAN","NAN","NAN"],
    [1535305,"2026-01-06 13:10:00","36295","2.91","311.5","4.541","282.7","NAN","NAN","NAN","NAN","NAN"],
    [1535306,"2026-01-06 13:20:00","36296","3.161","298.6","5.194","291.8","NAN","NAN","NAN","NAN","NAN"],
    [1535307,"2026-01-06 13:30:00","36297","3.654","294.1","5.357","284.1","NAN","NAN","NAN","NAN","NAN"],
    [1535308,"2026-01-06 13:40:00","36298","3.4139999999999997","303.1","6.043","303.8","NAN","NAN","NAN","NAN","NAN"],
    [1535309,"2026-01-06 13:50:00","36299","3.1830000000000003","302.3","4.933","301.1","NAN","NAN","NAN","NAN","NAN"],
    [1535310,"2026-01-06 14:00:00","36300","2.377","313.2","4.965","326.3","NAN","NAN","NAN","NAN","NAN"],
    [1535311,"2026-01-06 14:10:00","36301","3.2119999999999997","306.1","6.043","301.5","NAN","NAN","NAN","NAN","NAN"],
    [1535312,"2026-01-06 14:20:00","36302","4.103","321.7","6.403","324","NAN","NAN","NAN","NAN","NAN"],
    [1535313,"2026-01-06 14:30:00","36303","4.407","305.0","6.991","292.6","NAN","NAN","NAN","NAN","NAN"],
    [1535314,"2026-01-06 14:40:00","36304","4.006","314.2","6.762","317.7","NAN","NAN","NAN","NAN","NAN"],
    [1535315,"2026-01-06 14:50:00","36305","4.572","322.5","6.958","322.3","NAN","NAN","NAN","NAN","NAN"],
    [1535316,"2026-01-06 15:00:00","36306","3.7289999999999996","318.6","6.141","329.2","NAN","NAN","NAN","NAN","NAN"],
    [1535317,"2026-01-06 15:10:00","36307","3.658","322.6","6.305","336","NAN","NAN","NAN","NAN","NAN"],
    [1535318,"2026-01-06 15:20:00","36308","3.55","313.0","6.239","332.2","NAN","NAN","NAN","NAN","NAN"],
    [1535319,"2026-01-06 15:30:00","36309","3.2319999999999998","308.9","5.357","314.5","NAN","NAN","NAN","NAN","NAN"],
    [1535320,"2026-01-06 15:40:00","36310","2.502","313.9","4.443","307.2","NAN","NAN","NAN","NAN","NAN"],
    [1535321,"2026-01-06 15:50:00","36311","3.0010000000000003","317.3","5.978","331.4","NAN","NAN","NAN","NAN","NAN"],
    [1535322,"2026-01-06 16:00:00","36312","2.715","321.6","5.357","328.3","NAN","NAN","NAN","NAN","NAN"],
    [1535323,"2026-01-06 16:10:00","36313","2.369","303.0","4.279","298.4","NAN","NAN","NAN","NAN","NAN"],
    [1535324,"2026-01-06 16:20:00","36314","2.98","302.8","4.639","299.8","NAN","NAN","NAN","NAN","NAN"],
    [1535325,"2026-01-06 16:30:00","36315","3.998","304.0","6.435","298.9","NAN","NAN","NAN","NAN","NAN"],
    [1535326,"2026-01-06 16:40:00","36316","4.165","302.2","6.893","311.7","NAN","NAN","NAN","NAN","NAN"],
    [1535327,"2026-01-06 16:50:00","36317","3.444","299.1","5.88","317.9","NAN","NAN","NAN","NAN","NAN"],
    [1535328,"2026-01-06 17:00:00","36318","2.8739999999999997","298.2","5.847","314.6","NAN","NAN","NAN","NAN","NAN"],
    [1535329,"2026-01-06 17:10:00","36319","2.7289999999999996","290.5","4.475","286.1","NAN","NAN","NAN","NAN","NAN"],
    [1535330,"2026-01-06 17:20:00","36320","2.841","291.3","4.573","286.4","NAN","NAN","NAN","NAN","NAN"],
    [1535331,"2026-01-06 17:30:00","36321","2.745","289.7","4.9","295.8","NAN","NAN","NAN","NAN","NAN"],
    [1535332,"2026-01-06 17:40:00","36322","3.109","290.0","5.39","298.2","NAN","NAN","NAN","NAN","NAN"],
    [1535333,"2026-01-06 17:50:00","36323","2.737","284.1","4.671","300.5","NAN","NAN","NAN","NAN","NAN"],
    [1535334,"2026-01-06 18:00:00","36324","3.514","286.9","5.553","293.1","NAN","NAN","NAN","NAN","NAN"],
    [1535335,"2026-01-06 18:10:00","36325","3.445","289.9","5.749","287.5","NAN","NAN","NAN","NAN","NAN"],
    [1535336,"2026-01-06 18:20:00","36326","2.565","297.5","5.129","317.1","NAN","NAN","NAN","NAN","NAN"],
    [1535337,"2026-01-06 18:30:00","36327","2.384","328.1","5.88","310.2","NAN","NAN","NAN","NAN","NAN"],
    [1535338,"2026-01-06 18:40:00","36328","0.016","343.1","0.555","343.9","NAN","NAN","NAN","NAN","NAN"],
    [1535339,"2026-01-06 18:50:00","36329","0.121","29.2","1.143","37.5","NAN","NAN","NAN","NAN","NAN"],
    [1535340,"2026-01-06 19:00:00","36330","0.006999999999999999","48.39","0.359","48.38","NAN","NAN","NAN","NAN","NAN"],
    [1535341,"2026-01-06 19:10:00","36331","0.076","40.81","1.078","40.97","NAN","NAN","NAN","NAN","NAN"],
    [1535342,"2026-01-06 19:20:00","36332","0.009000000000000001","34.0","0.392","34.14","NAN","NAN","NAN","NAN","NAN"],
    [1535343,"2026-01-06 19:30:00","36333","0.036000000000000004","28.08","0.751","28.07","NAN","NAN","NAN","NAN","NAN"],
    [1535344,"2026-01-06 19:40:00","36334","1.175","337.5","3.299","330.2","NAN","NAN","NAN","NAN","NAN"],
    [1535345,"2026-01-06 19:50:00","36335","1.463","321.6","3.789","328.9","NAN","NAN","NAN","NAN","NAN"],
    [1535346,"2026-01-06 20:00:00","36336","2.481","321.6","4.149","329.8","NAN","NAN","NAN","NAN","NAN"],
    [1535347,"2026-01-06 20:10:00","36337","1.8359999999999999","317.2","3.561","318.9","NAN","NAN","NAN","NAN","NAN"],
    [1535348,"2026-01-06 20:20:00","36338","2.2359999999999998","309.5","3.005","310.8","NAN","NAN","NAN","NAN","NAN"],
    [1535349,"2026-01-06 20:30:00","36339","2.5340000000000003","319.2","3.92","322.2","NAN","NAN","NAN","NAN","NAN"],
    [1535350,"2026-01-06 20:40:00","36340","2.69","315.3","3.626","307","NAN","NAN","NAN","NAN","NAN"],
    [1535351,"2026-01-06 20:50:00","36341","2.4930000000000003","300.6","4.083","303.8","NAN","NAN","NAN","NAN","NAN"],
    [1535352,"2026-01-06 21:00:00","36342","1.5930000000000002","294.0","2.515","288.3","NAN","NAN","NAN","NAN","NAN"],
    [1535353,"2026-01-06 21:10:00","36343","2.128","289.6","3.43","288.9","NAN","NAN","NAN","NAN","NAN"],
    [1535354,"2026-01-06 21:20:00","36344","2.748","288.2","4.279","293.7","NAN","NAN","NAN","NAN","NAN"],
    [1535355,"2026-01-06 21:30:00","36345","3.1319999999999997","294.9","4.933","304.2","NAN","NAN","NAN","NAN","NAN"],
    [1535356,"2026-01-06 21:40:00","36346","2.813","291.1","4.377","296.2","NAN","NAN","NAN","NAN","NAN"],
    [1535357,"2026-01-06 21:50:00","36347","2.6319999999999997","297.3","4.933","306.6","NAN","NAN","NAN","NAN","NAN"],
    [1535358,"2026-01-06 22:00:00","36348","2.7310000000000003","292.2","4.933","306.6","NAN","NAN","NAN","NAN","NAN"],
    [1535359,"2026-01-06 22:10:00","36349","3.1","296.6","5.259","310.5","NAN","NAN","NAN","NAN","NAN"],
    [1535360,"2026-01-06 22:20:00","36350","3.3110000000000004","304.9","5.194","297","NAN","NAN","NAN","NAN","NAN"],
    [1535361,"2026-01-06 22:30:00","36351","3.569","309.2","5.553","321.7","NAN","NAN","NAN","NAN","NAN"],
    [1535362,"2026-01-06 22:40:00","36352","3.583","309.9","7.35","313.2","NAN","NAN","NAN","NAN","NAN"],
    [1535363,"2026-01-06 22:50:00","36353","3.8160000000000003","298.3","6.697","307.1","NAN","NAN","NAN","NAN","NAN"],
    [1535364,"2026-01-06 23:00:00","36354","4.2989999999999995","309.8","7.644","312.9","NAN","NAN","NAN","NAN","NAN"],
    [1535365,"2026-01-06 23:10:00","36355","3.9410000000000003","310.3","6.501","323.6","NAN","NAN","NAN","NAN","NAN"],
    [1535366,"2026-01-06 23:20:00","36356","4.335","307.7","7.056","305.4","NAN","NAN","NAN","NAN","NAN"],
    [1535367,"2026-01-06 23:30:00","36357","4.513","306.5","6.925","324.8","NAN","NAN","NAN","NAN","NAN"],
    [1535368,"2026-01-06 23:40:00","36358","4.468999999999999","308.3","7.383","320.1","NAN","NAN","NAN","NAN","NAN"],
    [1535369,"2026-01-06 23:50:00","36359","4.188","310.2","6.991","319.7","NAN","NAN","NAN","NAN","NAN"],
    [1535370,"2026-01-07 00:00:00","36360","4.303999999999999","308.4","7.35","315.5","NAN","NAN","NAN","NAN","NAN"],
    [1535371,"2026-01-07 00:10:00","36361","4.398","311.6","7.709","307.4","NAN","NAN","NAN","NAN","NAN"],
    [1535372,"2026-01-07 00:20:00","36362","4.567","312.3","7.35","318.8","NAN","NAN","NAN","NAN","NAN"],
    [1535373,"2026-01-07 00:30:00","36363","4.332","321.5","6.893","314.4","NAN","NAN","NAN","NAN","NAN"],
    [1535374,"2026-01-07 00:40:00","36364","4.978","322.5","8.82","312.6","NAN","NAN","NAN","NAN","NAN"],
    [1535375,"2026-01-07 00:50:00","36365","5.007","321.1","9.6","326.4","NAN","NAN","NAN","NAN","NAN"],
    [1535376,"2026-01-07 01:00:00","36366","5.371","314.8","9.7","322.3","NAN","NAN","NAN","NAN","NAN"],
    [1535377,"2026-01-07 01:10:00","36367","5.055","315.8","9.83","312.5","NAN","NAN","NAN","NAN","NAN"],
    [1535378,"2026-01-07 01:20:00","36368","5.627000000000001","311.2","9.11","320.6","NAN","NAN","NAN","NAN","NAN"],
    [1535379,"2026-01-07 01:30:00","36369","5.4270000000000005","307.4","8.1","303.1","NAN","NAN","NAN","NAN","NAN"],
    [1535380,"2026-01-07 01:40:00","36370","5.945","309.4","10","304.2","NAN","NAN","NAN","NAN","NAN"],
    [1535381,"2026-01-07 01:50:00","36371","4.5","313.6","9.54","312.2","NAN","NAN","NAN","NAN","NAN"],
    [1535382,"2026-01-07 02:00:00","36372","4.022","313.4","7.383","310.3","NAN","NAN","NAN","NAN","NAN"],
    [1535383,"2026-01-07 02:10:00","36373","4.744","317.4","8.43","326.3","NAN","NAN","NAN","NAN","NAN"],
    [1535384,"2026-01-07 02:20:00","36374","5.656000000000001","323.4","10.19","329.2","NAN","NAN","NAN","NAN","NAN"],
    [1535385,"2026-01-07 02:30:00","36375","4.143","319.1","7.644","328.3","NAN","NAN","NAN","NAN","NAN"],
    [1535386,"2026-01-07 02:40:00","36376","4.128","320.5","7.448","318.5","NAN","NAN","NAN","NAN","NAN"],
    [1535387,"2026-01-07 02:50:00","36377","4.221","324.8","7.807","342.1","NAN","NAN","NAN","NAN","NAN"],
    [1535388,"2026-01-07 03:00:00","36378","5.081","319.2","9.57","327.9","NAN","NAN","NAN","NAN","NAN"],
    [1535389,"2026-01-07 03:10:00","36379","4.66","318.5","10.81","309.4","NAN","NAN","NAN","NAN","NAN"],
    [1535390,"2026-01-07 03:20:00","36380","5.86","317.3","9.87","322.2","NAN","NAN","NAN","NAN","NAN"],
    [1535391,"2026-01-07 03:30:00","36381","5.843999999999999","311.5","11.47","328.7","NAN","NAN","NAN","NAN","NAN"],
    [1535392,"2026-01-07 03:40:00","36382","6.667000000000001","321.0","12.51","332.4","NAN","NAN","NAN","NAN","NAN"],
    [1535393,"2026-01-07 03:50:00","36383","4.816","316.0","9.54","311.5","NAN","NAN","NAN","NAN","NAN"],
    [1535394,"2026-01-07 04:00:00","36384","5.148","317.5","9.67","324.8","NAN","NAN","NAN","NAN","NAN"],
    [1535395,"2026-01-07 04:10:00","36385","4.455","310.6","11.47","320","NAN","NAN","NAN","NAN","NAN"],
    [1535396,"2026-01-07 04:20:00","36386","4.9319999999999995","320.4","8.53","334.4","NAN","NAN","NAN","NAN","NAN"],
    [1535397,"2026-01-07 04:30:00","36387","4.223","317.8","8.98","330.3","NAN","NAN","NAN","NAN","NAN"],
    [1535398,"2026-01-07 04:40:00","36388","3.759","307.3","6.272","322","NAN","NAN","NAN","NAN","NAN"],
    [1535399,"2026-01-07 04:50:00","36389","3.136","300.7","5.194","292.8","NAN","NAN","NAN","NAN","NAN"],
    [1535400,"2026-01-07 05:00:00","36390","1.805","287.8","3.855","284.6","NAN","NAN","NAN","NAN","NAN"],
    [1535401,"2026-01-07 05:10:00","36391","2.2880000000000003","302.4","4.41","294.6","NAN","NAN","NAN","NAN","NAN"],
    [1535402,"2026-01-07 05:20:00","36392","3.614","306.4","7.252","312.6","NAN","NAN","NAN","NAN","NAN"],
    [1535403,"2026-01-07 05:30:00","36393","4.795","310.4","8.4","286.9","NAN","NAN","NAN","NAN","NAN"],
    [1535404,"2026-01-07 05:40:00","36394","3.7910000000000004","304.0","8.17","333.4","NAN","NAN","NAN","NAN","NAN"],
    [1535405,"2026-01-07 05:50:00","36395","2.3680000000000003","296.4","5.161","323.3","NAN","NAN","NAN","NAN","NAN"],
    [1535406,"2026-01-07 06:00:00","36396","4.124","319.2","7.089","316","NAN","NAN","NAN","NAN","NAN"],
    [1535407,"2026-01-07 06:10:00","36397","2.588","309.4","6.272","321.4","NAN","NAN","NAN","NAN","NAN"],
    [1535408,"2026-01-07 06:20:00","36398","1.899","314.0","3.43","320.7","NAN","NAN","NAN","NAN","NAN"],
    [1535409,"2026-01-07 06:30:00","36399","1.993","314.4","3.169","302.6","NAN","NAN","NAN","NAN","NAN"],
    [1535410,"2026-01-07 06:40:00","36400","1.8430000000000002","318.3","3.103","329.2","NAN","NAN","NAN","NAN","NAN"],
    [1535411,"2026-01-07 06:50:00","36401","2.6289999999999996","293.9","4.802","286.4","NAN","NAN","NAN","NAN","NAN"],
    [1535412,"2026-01-07 07:00:00","36402","3.802","287.2","5.749","299.6","NAN","NAN","NAN","NAN","NAN"],
    [1535413,"2026-01-07 07:10:00","36403","3.404","277.5","4.671","283.4","NAN","NAN","NAN","NAN","NAN"],
    [1535414,"2026-01-07 07:20:00","36404","2.8110000000000004","259.2","4.377","259.5","NAN","NAN","NAN","NAN","NAN"],
    [1535415,"2026-01-07 07:30:00","36405","2.8489999999999998","286.3","5.063","308.1","NAN","NAN","NAN","NAN","NAN"],
    [1535416,"2026-01-07 07:40:00","36406","3.127","294.8","5.292","310.2","NAN","NAN","NAN","NAN","NAN"],
    [1535417,"2026-01-07 07:50:00","36407","3.216","302.6","5.88","312.8","NAN","NAN","NAN","NAN","NAN"],
    [1535418,"2026-01-07 08:00:00","36408","4.337","319.0","7.481","312.6","NAN","NAN","NAN","NAN","NAN"],
    [1535419,"2026-01-07 08:10:00","36409","5.122000000000001","327.0","8.56","325.8","NAN","NAN","NAN","NAN","NAN"],
    [1535420,"2026-01-07 08:20:00","36410","5.857","324.2","8.46","315.9","NAN","NAN","NAN","NAN","NAN"],
    [1535421,"2026-01-07 08:30:00","36411","3.752","310.0","6.827","304.2","NAN","NAN","NAN","NAN","NAN"],
    [1535422,"2026-01-07 08:40:00","36412","3.9619999999999997","314.6","7.481","303.2","NAN","NAN","NAN","NAN","NAN"],
    [1535423,"2026-01-07 08:50:00","36413","4.9830000000000005","317.2","7.056","328.4","NAN","NAN","NAN","NAN","NAN"],
    [1535424,"2026-01-07 09:00:00","36414","4.525","317.3","9.38","326.2","NAN","NAN","NAN","NAN","NAN"],
    [1535425,"2026-01-07 09:10:00","36415","5.077","316.8","9.67","323.7","NAN","NAN","NAN","NAN","NAN"],
    [1535426,"2026-01-07 09:20:00","36416","4.633","319.3","9.18","334.6","NAN","NAN","NAN","NAN","NAN"],
    [1535427,"2026-01-07 09:30:00","36417","3.9789999999999996","306.8","6.86","294.5","NAN","NAN","NAN","NAN","NAN"],
    [1535428,"2026-01-07 09:40:00","36418","3.995","301.8","7.023","301.4","NAN","NAN","NAN","NAN","NAN"],
    [1535429,"2026-01-07 09:50:00","36419","5.074","309.4","7.873","313.4","NAN","NAN","NAN","NAN","NAN"],
    [1535430,"2026-01-07 10:00:00","36420","4.041","310.7","7.219","314.3","NAN","NAN","NAN","NAN","NAN"],
    [1535431,"2026-01-07 10:10:00","36421","2.574","307.3","4.475","313.8","NAN","NAN","NAN","NAN","NAN"],
    [1535432,"2026-01-07 10:20:00","36422","3.28","302.0","5.521","309.6","NAN","NAN","NAN","NAN","NAN"],
    [1535433,"2026-01-07 10:30:00","36423","4.131","299.9","6.043","295.5","NAN","NAN","NAN","NAN","NAN"],
    [1535434,"2026-01-07 10:40:00","36424","4.416","304.7","7.023","302.4","NAN","NAN","NAN","NAN","NAN"],
    [1535435,"2026-01-07 10:50:00","36425","3.28","309.3","7.35","328.8","NAN","NAN","NAN","NAN","NAN"],
    [1535436,"2026-01-07 11:00:00","36426","4.275","319.5","7.873","313.5","NAN","NAN","NAN","NAN","NAN"],
    [1535437,"2026-01-07 11:10:00","36427","4.0760000000000005","314.4","7.089","313.3","NAN","NAN","NAN","NAN","NAN"],
    [1535438,"2026-01-07 11:20:00","36428","4.603","319.3","7.481","302.6","NAN","NAN","NAN","NAN","NAN"],
    [1535439,"2026-01-07 11:30:00","36429","3.951","307.1","6.599","281.4","NAN","NAN","NAN","NAN","NAN"],
    [1535440,"2026-01-07 11:40:00","36430","4.978","307.7","8.95","307.9","NAN","NAN","NAN","NAN","NAN"],
    [1535441,"2026-01-07 11:50:00","36431","5.138","312.6","8.23","321.5","NAN","NAN","NAN","NAN","NAN"],
    [1535442,"2026-01-07 12:00:00","36432","4.585","314.7","7.35","318.8","NAN","NAN","NAN","NAN","NAN"],
    [1535443,"2026-01-07 12:10:00","36433","4.516","315.0","8.04","316.9","NAN","NAN","NAN","NAN","NAN"],
    [1535444,"2026-01-07 12:20:00","36434","4.473","325.7","6.631","326.2","NAN","NAN","NAN","NAN","NAN"],
    [1535445,"2026-01-07 12:30:00","36435","4.281000000000001","318.9","9.54","327","NAN","NAN","NAN","NAN","NAN"],
    [1535446,"2026-01-07 12:40:00","36436","5.728","327.6","9.21","328.8","NAN","NAN","NAN","NAN","NAN"],
    [1535447,"2026-01-07 12:50:00","36437","4.547","320.6","7.579","326.4","NAN","NAN","NAN","NAN","NAN"],
    [1535448,"2026-01-07 13:00:00","36438","5.767","322.0","9.11","318.3","NAN","NAN","NAN","NAN","NAN"],
    [1535449,"2026-01-07 13:10:00","36439","5.281000000000001","322.4","8.33","321.1","NAN","NAN","NAN","NAN","NAN"],
    [1535450,"2026-01-07 13:20:00","36440","3.824","312.8","8.13","307.9","NAN","NAN","NAN","NAN","NAN"],
    [1535451,"2026-01-07 13:30:00","36441","3.543","315.9","7.089","330.6","NAN","NAN","NAN","NAN","NAN"],
    [1535452,"2026-01-07 13:40:00","36442","3.6510000000000002","317.6","7.023","312","NAN","NAN","NAN","NAN","NAN"],
    [1535453,"2026-01-07 13:50:00","36443","3.3710000000000004","312.0","7.187","320.4","NAN","NAN","NAN","NAN","NAN"],
    [1535454,"2026-01-07 14:00:00","36444","3.612","306.5","6.207","306.5","NAN","NAN","NAN","NAN","NAN"],
    [1535455,"2026-01-07 14:10:00","36445","3.593","305.8","6.305","301.1","NAN","NAN","NAN","NAN","NAN"],
    [1535456,"2026-01-07 14:20:00","36446","5.031000000000001","299.6","6.958","290.9","NAN","NAN","NAN","NAN","NAN"],
    [1535457,"2026-01-07 14:30:00","36447","3.9","295.2","6.141","285.7","NAN","NAN","NAN","NAN","NAN"],
    [1535458,"2026-01-07 14:40:00","36448","2.852","309.8","5.717","306.7","NAN","NAN","NAN","NAN","NAN"],
    [1535459,"2026-01-07 14:50:00","36449","3.725","313.2","5.945","304.6","NAN","NAN","NAN","NAN","NAN"],
    [1535460,"2026-01-07 15:00:00","36450","3.13","315.3","5.847","316.7","NAN","NAN","NAN","NAN","NAN"],
    [1535461,"2026-01-07 15:10:00","36451","3.1189999999999998","316.8","6.174","319.2","NAN","NAN","NAN","NAN","NAN"],
    [1535462,"2026-01-07 15:20:00","36452","3.208","300.6","6.043","308.3","NAN","NAN","NAN","NAN","NAN"],
    [1535463,"2026-01-07 15:30:00","36453","3.36","322.1","6.174","300.3","NAN","NAN","NAN","NAN","NAN"],
    [1535464,"2026-01-07 15:40:00","36454","3.09","320.5","5.553","315.7","NAN","NAN","NAN","NAN","NAN"],
    [1535465,"2026-01-07 15:50:00","36455","2.8160000000000003","303.9","5.39","307.8","NAN","NAN","NAN","NAN","NAN"],
    [1535466,"2026-01-07 16:00:00","36456","2.3409999999999997","309.1","5.455","312.7","NAN","NAN","NAN","NAN","NAN"],
    [1535467,"2026-01-07 16:10:00","36457","2.275","296.0","3.855","301.3","NAN","NAN","NAN","NAN","NAN"],
    [1535468,"2026-01-07 16:20:00","36458","1.871","289.1","4.018","292.4","NAN","NAN","NAN","NAN","NAN"],
    [1535469,"2026-01-07 16:30:00","36459","2.5140000000000002","309.7","4.769","331.8","NAN","NAN","NAN","NAN","NAN"],
    [1535470,"2026-01-07 16:40:00","36460","3.177","318.1","5.488","319.6","NAN","NAN","NAN","NAN","NAN"],
    [1535471,"2026-01-07 16:50:00","36461","3.675","323.3","5.39","340.7","NAN","NAN","NAN","NAN","NAN"],
    [1535472,"2026-01-07 17:00:00","36462","3.014","322.1","5.292","325.7","NAN","NAN","NAN","NAN","NAN"],
    [1535473,"2026-01-07 17:10:00","36463","2.873","319.3","4.247","316.2","NAN","NAN","NAN","NAN","NAN"],
    [1535474,"2026-01-07 17:20:00","36464","2.832","315.0","4.9","315.4","NAN","NAN","NAN","NAN","NAN"],
    [1535475,"2026-01-07 17:30:00","36465","2.5580000000000003","309.3","4.802","301","NAN","NAN","NAN","NAN","NAN"],
    [1535476,"2026-01-07 17:40:00","36466","2.8480000000000003","301.3","4.279","304.7","NAN","NAN","NAN","NAN","NAN"],
    [1535477,"2026-01-07 17:50:00","36467","3.0639999999999996","303.7","4.867","295.4","NAN","NAN","NAN","NAN","NAN"],
    [1535478,"2026-01-07 18:00:00","36468","2.905","286.5","4.508","281.8","NAN","NAN","NAN","NAN","NAN"],
    [1535479,"2026-01-07 18:10:00","36469","3.233","278.3","4.671","276.7","NAN","NAN","NAN","NAN","NAN"],
    [1535480,"2026-01-07 18:20:00","36470","3.0660000000000003","278.9","4.802","291.6","NAN","NAN","NAN","NAN","NAN"],
    [1535481,"2026-01-07 18:30:00","36471","2.269","296.3","3.626","290","NAN","NAN","NAN","NAN","NAN"],
    [1535482,"2026-01-07 18:40:00","36472","2.131","275.2","3.495","277.3","NAN","NAN","NAN","NAN","NAN"],
    [1535483,"2026-01-07 18:50:00","36473","2.185","278.4","3.724","277.9","NAN","NAN","NAN","NAN","NAN"],
    [1535484,"2026-01-07 19:00:00","36474","1.896","286.9","4.606","274.7","NAN","NAN","NAN","NAN","NAN"],
    [1535485,"2026-01-07 19:10:00","36475","2.131","300.7","3.626","311.6","NAN","NAN","NAN","NAN","NAN"],
    [1535486,"2026-01-07 19:20:00","36476","2.138","286.9","3.495","281.1","NAN","NAN","NAN","NAN","NAN"],
    [1535487,"2026-01-07 19:30:00","36477","1.868","289.5","3.234","284.2","NAN","NAN","NAN","NAN","NAN"],
    [1535488,"2026-01-07 19:40:00","36478","1.344","289.0","2.417","306.6","NAN","NAN","NAN","NAN","NAN"],
    [1535489,"2026-01-07 19:50:00","36479","1.176","278.2","2.156","277.8","NAN","NAN","NAN","NAN","NAN"],
    [1535490,"2026-01-07 20:00:00","36480","0.9690000000000001","282.6","1.797","283.1","NAN","NAN","NAN","NAN","NAN"],
    [1535491,"2026-01-07 20:10:00","36481","1.705","291.6","2.679","289.2","NAN","NAN","NAN","NAN","NAN"],
    [1535492,"2026-01-07 20:20:00","36482","1.475","305.4","2.744","311.6","NAN","NAN","NAN","NAN","NAN"],
    [1535493,"2026-01-07 20:30:00","36483","1.469","300.2","3.038","306.1","NAN","NAN","NAN","NAN","NAN"],
    [1535494,"2026-01-07 20:40:00","36484","1.4409999999999998","297.2","2.352","297.5","NAN","NAN","NAN","NAN","NAN"],
    [1535495,"2026-01-07 20:50:00","36485","1.143","299.9","2.058","295.5","NAN","NAN","NAN","NAN","NAN"],
    [1535496,"2026-01-07 21:00:00","36486","1.919","301.3","4.116","302.6","NAN","NAN","NAN","NAN","NAN"],
    [1535497,"2026-01-07 21:10:00","36487","1.876","302.0","4.247","289.4","NAN","NAN","NAN","NAN","NAN"],
    [1535498,"2026-01-07 21:20:00","36488","2.319","315.0","4.312","307.2","NAN","NAN","NAN","NAN","NAN"],
    [1535499,"2026-01-07 21:30:00","36489","2.5269999999999997","312.6","4.443","306.4","NAN","NAN","NAN","NAN","NAN"],
    [1535500,"2026-01-07 21:40:00","36490","2.708","310.2","5.227","300.2","NAN","NAN","NAN","NAN","NAN"],
    [1535501,"2026-01-07 21:50:00","36491","1.787","312.6","4.051","309.8","NAN","NAN","NAN","NAN","NAN"],
    [1535502,"2026-01-07 22:00:00","36492","2.102","324.7","4.802","322.6","NAN","NAN","NAN","NAN","NAN"],
    [1535503,"2026-01-07 22:10:00","36493","1.213","325.0","4.247","331.8","NAN","NAN","NAN","NAN","NAN"],
    [1535504,"2026-01-07 22:20:00","36494","1.348","321.4","5.684","323","NAN","NAN","NAN","NAN","NAN"],
    [1535505,"2026-01-07 22:30:00","36495","3.2239999999999998","315.2","6.239","315.5","NAN","NAN","NAN","NAN","NAN"],
    [1535506,"2026-01-07 22:40:00","36496","2.102","301.7","4.116","313.1","NAN","NAN","NAN","NAN","NAN"],
    [1535507,"2026-01-07 22:50:00","36497","2.117","297.4","3.985","288.8","NAN","NAN","NAN","NAN","NAN"],
    [1535508,"2026-01-07 23:00:00","36498","1.936","296.0","3.953","296.4","NAN","NAN","NAN","NAN","NAN"],
    [1535509,"2026-01-07 23:10:00","36499","2.1319999999999997","287.7","4.083","306.1","NAN","NAN","NAN","NAN","NAN"],
    [1535510,"2026-01-07 23:20:00","36500","0.7070000000000001","285.6","2.058","281","NAN","NAN","NAN","NAN","NAN"],
    [1535511,"2026-01-07 23:30:00","36501","0.228","290.5","1.339","289","NAN","NAN","NAN","NAN","NAN"],
    [1535512,"2026-01-07 23:40:00","36502","0.73","317.5","2.319","320.9","NAN","NAN","NAN","NAN","NAN"],
    [1535513,"2026-01-07 23:50:00","36503","0.9259999999999999","296.1","4.279","294.3","NAN","NAN","NAN","NAN","NAN"],
    [1535514,"2026-01-08 00:00:00","36504","1.456","292.1","3.038","291.7","NAN","NAN","NAN","NAN","NAN"],
    [1535515,"2026-01-08 00:10:00","36505","1.889","282.0","3.365","291.8","NAN","NAN","NAN","NAN","NAN"],
    [1535516,"2026-01-08 00:20:00","36506","1.83","264.7","2.907","264.3","NAN","NAN","NAN","NAN","NAN"],
    [1535517,"2026-01-08 00:30:00","36507","1.764","262.3","3.005","261.7","NAN","NAN","NAN","NAN","NAN"],
    [1535518,"2026-01-08 00:40:00","36508","2.351","270.8","3.887","286.2","NAN","NAN","NAN","NAN","NAN"],
    [1535519,"2026-01-08 00:50:00","36509","1.1420000000000001","281.9","2.679","283.3","NAN","NAN","NAN","NAN","NAN"],
    [1535520,"2026-01-08 01:00:00","36510","1.745","280.9","3.495","283","NAN","NAN","NAN","NAN","NAN"],
    [1535521,"2026-01-08 01:10:00","36511","0.941","279.9","2.613","261.8","NAN","NAN","NAN","NAN","NAN"],
    [1535522,"2026-01-08 01:20:00","36512","1.85","263.7","2.744","267.6","NAN","NAN","NAN","NAN","NAN"],
    [1535523,"2026-01-08 01:30:00","36513","2.464","291.8","3.789","291.9","NAN","NAN","NAN","NAN","NAN"],
    [1535524,"2026-01-08 01:40:00","36514","2.533","313.3","4.377","315.8","NAN","NAN","NAN","NAN","NAN"],
    [1535525,"2026-01-08 01:50:00","36515","3.36","322.4","6.599","330.6","NAN","NAN","NAN","NAN","NAN"],
    [1535526,"2026-01-08 02:00:00","36516","3.295","319.3","6.729","331.4","NAN","NAN","NAN","NAN","NAN"],
    [1535527,"2026-01-08 02:10:00","36517","3.4019999999999997","304.1","5.096","316.4","NAN","NAN","NAN","NAN","NAN"],
    [1535528,"2026-01-08 02:20:00","36518","3.6010000000000004","312.4","6.631","311.4","NAN","NAN","NAN","NAN","NAN"],
    [1535529,"2026-01-08 02:30:00","36519","3.1289999999999996","321.2","5.521","332.6","NAN","NAN","NAN","NAN","NAN"],
    [1535530,"2026-01-08 02:40:00","36520","3.207","317.5","6.305","323.2","NAN","NAN","NAN","NAN","NAN"],
    [1535531,"2026-01-08 02:50:00","36521","2.758","311.6","5.096","322","NAN","NAN","NAN","NAN","NAN"],
    [1535532,"2026-01-08 03:00:00","36522","2.67","311.5","4.443","322.8","NAN","NAN","NAN","NAN","NAN"],
    [1535533,"2026-01-08 03:10:00","36523","2.19","317.9","3.691","314.3","NAN","NAN","NAN","NAN","NAN"],
    [1535534,"2026-01-08 03:20:00","36524","2.323","309.7","3.626","311.2","NAN","NAN","NAN","NAN","NAN"],
    [1535535,"2026-01-08 03:30:00","36525","2.6830000000000003","302.7","4.279","302.7","NAN","NAN","NAN","NAN","NAN"],
    [1535536,"2026-01-08 03:40:00","36526","1.579","299.0","3.365","300.8","NAN","NAN","NAN","NAN","NAN"],
    [1535537,"2026-01-08 03:50:00","36527","1.7009999999999998","303.7","2.842","312.7","NAN","NAN","NAN","NAN","NAN"],
    [1535538,"2026-01-08 04:00:00","36528","1.8330000000000002","314.0","2.842","313.8","NAN","NAN","NAN","NAN","NAN"],
    [1535539,"2026-01-08 04:10:00","36529","2.463","322.8","4.573","319.4","NAN","NAN","NAN","NAN","NAN"],
    [1535540,"2026-01-08 04:20:00","36530","3.214","331.1","4.769","329.3","NAN","NAN","NAN","NAN","NAN"],
    [1535541,"2026-01-08 04:30:00","36531","2.546","320.7","4.41","338.7","NAN","NAN","NAN","NAN","NAN"],
    [1535542,"2026-01-08 04:40:00","36532","2.638","306.8","4.508","303.3","NAN","NAN","NAN","NAN","NAN"],
    [1535543,"2026-01-08 04:50:00","36533","2.468","302.0","4.345","298.3","NAN","NAN","NAN","NAN","NAN"],
    [1535544,"2026-01-08 05:00:00","36534","2.031","306.3","3.724","308","NAN","NAN","NAN","NAN","NAN"],
    [1535545,"2026-01-08 05:10:00","36535","1.705","300.0","3.038","295.7","NAN","NAN","NAN","NAN","NAN"],
    [1535546,"2026-01-08 05:20:00","36536","1.2409999999999999","296.7","2.548","303.7","NAN","NAN","NAN","NAN","NAN"],
    [1535547,"2026-01-08 05:30:00","36537","0.924","293.9","1.862","293.6","NAN","NAN","NAN","NAN","NAN"],
    [1535548,"2026-01-08 05:40:00","36538","1.077","293.2","2.221","293.2","NAN","NAN","NAN","NAN","NAN"],
    [1535549,"2026-01-08 05:50:00","36539","1.4169999999999998","286.8","3.299","287.5","NAN","NAN","NAN","NAN","NAN"],
    [1535550,"2026-01-08 06:00:00","36540","1.7690000000000001","284.1","3.757","295.6","NAN","NAN","NAN","NAN","NAN"],
    [1535551,"2026-01-08 06:10:00","36541","2.8810000000000002","292.7","4.41","303.3","NAN","NAN","NAN","NAN","NAN"],
    [1535552,"2026-01-08 06:20:00","36542","3.0","295.9","5.749","295.8","NAN","NAN","NAN","NAN","NAN"],
    [1535553,"2026-01-08 06:30:00","36543","2.57","296.8","4.704","300.2","NAN","NAN","NAN","NAN","NAN"],
    [1535554,"2026-01-08 06:40:00","36544","2.117","292.7","3.169","291.6","NAN","NAN","NAN","NAN","NAN"],
    [1535555,"2026-01-08 06:50:00","36545","1.81","266.4","3.103","260.8","NAN","NAN","NAN","NAN","NAN"],
    [1535556,"2026-01-08 07:00:00","36546","1.3630000000000002","258.3","2.744","257.5","NAN","NAN","NAN","NAN","NAN"],
    [1535557,"2026-01-08 07:10:00","36547","1.719","275.6","3.005","272.7","NAN","NAN","NAN","NAN","NAN"],
    [1535558,"2026-01-08 07:20:00","36548","0.584","276.2","1.699","275.4","NAN","NAN","NAN","NAN","NAN"],
    [1535559,"2026-01-08 07:30:00","36549","0.01","258.0","0.294","258.5","NAN","NAN","NAN","NAN","NAN"],
    [1535560,"2026-01-08 07:40:00","36550","0.9990000000000001","235.8","2.581","232.6","NAN","NAN","NAN","NAN","NAN"],
    [1535561,"2026-01-08 07:50:00","36551","1.114","235.3","2.483","242.9","NAN","NAN","NAN","NAN","NAN"],
    [1535562,"2026-01-08 08:00:00","36552","1.652","269.6","3.561","277.4","NAN","NAN","NAN","NAN","NAN"],
    [1535563,"2026-01-08 08:10:00","36553","3.3760000000000003","296.5","5.815","293.7","NAN","NAN","NAN","NAN","NAN"],
    [1535564,"2026-01-08 08:20:00","36554","3.1430000000000002","296.4","5.521","307.5","NAN","NAN","NAN","NAN","NAN"],
    [1535565,"2026-01-08 08:30:00","36555","2.5980000000000003","289.2","5.031","303.8","NAN","NAN","NAN","NAN","NAN"],
    [1535566,"2026-01-08 08:40:00","36556","0.9990000000000001","280.4","3.136","280.9","NAN","NAN","NAN","NAN","NAN"],
    [1535567,"2026-01-08 08:50:00","36557","1.9140000000000001","289.5","3.691","277.2","NAN","NAN","NAN","NAN","NAN"],
    [1535568,"2026-01-08 09:00:00","36558","2.158","299.7","3.495","303.5","NAN","NAN","NAN","NAN","NAN"],
    [1535569,"2026-01-08 09:10:00","36559","1.099","296.8","3.234","302.6","NAN","NAN","NAN","NAN","NAN"],
    [1535570,"2026-01-08 09:20:00","36560","0.7659999999999999","301.8","3.855","314.6","NAN","NAN","NAN","NAN","NAN"],
    [1535571,"2026-01-08 09:30:00","36561","2.4530000000000003","323.5","5.357","317.9","NAN","NAN","NAN","NAN","NAN"],
    [1535572,"2026-01-08 09:40:00","36562","2.935","311.8","4.933","326.1","NAN","NAN","NAN","NAN","NAN"],
    [1535573,"2026-01-08 09:50:00","36563","2.156","288.3","3.463","302.7","NAN","NAN","NAN","NAN","NAN"],
    [1535574,"2026-01-08 10:00:00","36564","2.775","270.6","4.737","276.2","NAN","NAN","NAN","NAN","NAN"],
    [1535575,"2026-01-08 10:10:00","36565","2.8739999999999997","280.0","4.704","298.9","NAN","NAN","NAN","NAN","NAN"],
    [1535576,"2026-01-08 10:20:00","36566","2.937","295.3","5.586","285.9","NAN","NAN","NAN","NAN","NAN"],
    [1535577,"2026-01-08 10:30:00","36567","3.926","301.3","6.403","312.9","NAN","NAN","NAN","NAN","NAN"],
    [1535578,"2026-01-08 10:40:00","36568","3.193","293.8","5.031","288.4","NAN","NAN","NAN","NAN","NAN"],
    [1535579,"2026-01-08 10:50:00","36569","2.927","305.2","5.325","313.8","NAN","NAN","NAN","NAN","NAN"],
    [1535580,"2026-01-08 11:00:00","36570","3.5789999999999997","307.4","7.154","319.5","NAN","NAN","NAN","NAN","NAN"],
    [1535581,"2026-01-08 11:10:00","36571","3.264","308.9","6.631","284.9","NAN","NAN","NAN","NAN","NAN"],
    [1535582,"2026-01-08 11:20:00","36572","3.388","294.9","6.207","286.5","NAN","NAN","NAN","NAN","NAN"],
    [1535583,"2026-01-08 11:30:00","36573","4.071000000000001","284.0","6.958","269.5","NAN","NAN","NAN","NAN","NAN"],
    [1535584,"2026-01-08 11:40:00","36574","3.937","296.9","8.04","316.3","NAN","NAN","NAN","NAN","NAN"],
    [1535585,"2026-01-08 11:50:00","36575","4.7219999999999995","304.6","8.07","297.2","NAN","NAN","NAN","NAN","NAN"],
    [1535586,"2026-01-08 12:00:00","36576","4.606","292.0","7.579","261.5","NAN","NAN","NAN","NAN","NAN"],
    [1535587,"2026-01-08 12:10:00","36577","3.8489999999999998","286.9","7.317","293.4","NAN","NAN","NAN","NAN","NAN"],
    [1535588,"2026-01-08 12:20:00","36578","3.3810000000000002","293.7","6.109","291.6","NAN","NAN","NAN","NAN","NAN"],
    [1535589,"2026-01-08 12:30:00","36579","4.268","301.2","7.513","305","NAN","NAN","NAN","NAN","NAN"],
    [1535590,"2026-01-08 12:40:00","36580","3.248","315.2","6.272","324.3","NAN","NAN","NAN","NAN","NAN"],
    [1535591,"2026-01-08 12:50:00","36581","3.147","311.3","5.945","320.7","NAN","NAN","NAN","NAN","NAN"],
    [1535592,"2026-01-08 13:00:00","36582","3.8930000000000002","306.2","6.958","304.8","NAN","NAN","NAN","NAN","NAN"],
    [1535593,"2026-01-08 13:10:00","36583","4.519","320.5","7.84","340","NAN","NAN","NAN","NAN","NAN"],
    [1535594,"2026-01-08 13:20:00","36584","3.299","313.1","6.729","337.1","NAN","NAN","NAN","NAN","NAN"],
    [1535595,"2026-01-08 13:30:00","36585","2.7089999999999996","303.7","5.945","276.8","NAN","NAN","NAN","NAN","NAN"],
    [1535596,"2026-01-08 13:40:00","36586","4.093","302.1","9.77","301.8","NAN","NAN","NAN","NAN","NAN"],
    [1535597,"2026-01-08 13:50:00","36587","5.89","302.7","9.28","287.4","NAN","NAN","NAN","NAN","NAN"],
    [1535598,"2026-01-08 14:00:00","36588","5.809","303.8","9.73","298.5","NAN","NAN","NAN","NAN","NAN"],
    [1535599,"2026-01-08 14:10:00","36589","5.893","303.5","10.42","300.6","NAN","NAN","NAN","NAN","NAN"],
    [1535600,"2026-01-08 14:20:00","36590","5.024","302.1","8.69","305.8","NAN","NAN","NAN","NAN","NAN"],
    [1535601,"2026-01-08 14:30:00","36591","4.716","305.8","7.775","322.3","NAN","NAN","NAN","NAN","NAN"],
    [1535602,"2026-01-08 14:40:00","36592","4.066","307.2","6.795","293.2","NAN","NAN","NAN","NAN","NAN"],
    [1535603,"2026-01-08 14:50:00","36593","4.415","301.1","7.415","301.3","NAN","NAN","NAN","NAN","NAN"],
    [1535604,"2026-01-08 15:00:00","36594","4.775","297.9","10.65","298.9","NAN","NAN","NAN","NAN","NAN"],
    [1535605,"2026-01-08 15:10:00","36595","4.938","309.0","8.53","306.6","NAN","NAN","NAN","NAN","NAN"],
    [1535606,"2026-01-08 15:20:00","36596","3.278","313.0","7.677","326.4","NAN","NAN","NAN","NAN","NAN"],
    [1535607,"2026-01-08 15:30:00","36597","4.457","304.4","8.1","298.6","NAN","NAN","NAN","NAN","NAN"],
    [1535608,"2026-01-08 15:40:00","36598","4.481","305.9","7.873","328.9","NAN","NAN","NAN","NAN","NAN"],
    [1535609,"2026-01-08 15:50:00","36599","4.9430000000000005","310.0","9.67","315.8","NAN","NAN","NAN","NAN","NAN"],
    [1535610,"2026-01-08 16:00:00","36600","4.628","294.2","8.3","288.7","NAN","NAN","NAN","NAN","NAN"],
    [1535611,"2026-01-08 16:10:00","36601","3.531","297.3","7.742","310.4","NAN","NAN","NAN","NAN","NAN"],
    [1535612,"2026-01-08 16:20:00","36602","6.223","303.5","10.32","299.7","NAN","NAN","NAN","NAN","NAN"],
    [1535613,"2026-01-08 16:30:00","36603","5.474","297.7","8.62","316.5","NAN","NAN","NAN","NAN","NAN"],
    [1535614,"2026-01-08 16:40:00","36604","4.0569999999999995","297.3","7.644","310.2","NAN","NAN","NAN","NAN","NAN"],
    [1535615,"2026-01-08 16:50:00","36605","2.148","306.5","3.855","312.3","NAN","NAN","NAN","NAN","NAN"],
    [1535616,"2026-01-08 17:00:00","36606","1.476","295.2","3.789","311.1","NAN","NAN","NAN","NAN","NAN"],
    [1535617,"2026-01-08 17:10:00","36607","1.064","273.8","2.907","274.3","NAN","NAN","NAN","NAN","NAN"],
    [1535618,"2026-01-08 17:20:00","36608","1.581","291.2","3.005","302","NAN","NAN","NAN","NAN","NAN"],
    [1535619,"2026-01-08 17:30:00","36609","1.4","293.9","2.907","303.6","NAN","NAN","NAN","NAN","NAN"],
    [1535620,"2026-01-08 17:40:00","36610","0.377","281.7","1.307","281.7","NAN","NAN","NAN","NAN","NAN"],
    [1535621,"2026-01-08 17:50:00","36611","0.5589999999999999","281.6","1.274","281.6","NAN","NAN","NAN","NAN","NAN"],
    [1535622,"2026-01-08 18:00:00","36612","0.737","281.7","1.633","281.6","NAN","NAN","NAN","NAN","NAN"],
    [1535623,"2026-01-08 18:10:00","36613","1.2830000000000001","281.4","2.123","281.3","NAN","NAN","NAN","NAN","NAN"],
    [1535624,"2026-01-08 18:20:00","36614","1.1079999999999999","258.5","2.94","252.6","NAN","NAN","NAN","NAN","NAN"],
    [1535625,"2026-01-08 18:30:00","36615","1.219","252.7","2.711","253.7","NAN","NAN","NAN","NAN","NAN"],
    [1535626,"2026-01-08 18:40:00","36616","2.715","269.9","4.443","282.5","NAN","NAN","NAN","NAN","NAN"],
    [1535627,"2026-01-08 18:50:00","36617","3.53","270.6","5.88","281","NAN","NAN","NAN","NAN","NAN"],
    [1535628,"2026-01-08 19:00:00","36618","3.536","265.3","5.423","262.6","NAN","NAN","NAN","NAN","NAN"],
    [1535629,"2026-01-08 19:10:00","36619","2.6689999999999996","273.6","4.312","272","NAN","NAN","NAN","NAN","NAN"],
    [1535630,"2026-01-08 19:20:00","36620","2.924","283.3","5.096","273.3","NAN","NAN","NAN","NAN","NAN"],
    [1535631,"2026-01-08 19:30:00","36621","3.161","276.8","4.998","286.1","NAN","NAN","NAN","NAN","NAN"],
    [1535632,"2026-01-08 19:40:00","36622","2.342","279.4","3.757","281.3","NAN","NAN","NAN","NAN","NAN"],
    [1535633,"2026-01-08 19:50:00","36623","2.63","280.3","4.867","286.9","NAN","NAN","NAN","NAN","NAN"],
    [1535634,"2026-01-08 20:00:00","36624","2.668","281.9","5.325","287.9","NAN","NAN","NAN","NAN","NAN"],
    [1535635,"2026-01-08 20:10:00","36625","2.747","279.0","4.639","279.4","NAN","NAN","NAN","NAN","NAN"],
    [1535636,"2026-01-08 20:20:00","36626","2.3480000000000003","279.6","3.887","272.5","NAN","NAN","NAN","NAN","NAN"],
    [1535637,"2026-01-08 20:30:00","36627","1.743","280.8","3.855","285.6","NAN","NAN","NAN","NAN","NAN"],
    [1535638,"2026-01-08 20:40:00","36628","0.723","283.7","1.633","283","NAN","NAN","NAN","NAN","NAN"],
    [1535639,"2026-01-08 20:50:00","36629","0.8109999999999999","275.0","1.764","271.3","NAN","NAN","NAN","NAN","NAN"],
    [1535640,"2026-01-08 21:00:00","36630","1.463","267.5","2.352","264.7","NAN","NAN","NAN","NAN","NAN"],
    [1535641,"2026-01-08 21:10:00","36631","1.432","268.1","2.091","269","NAN","NAN","NAN","NAN","NAN"],
    [1535642,"2026-01-08 21:20:00","36632","0.162","272.7","1.601","272.5","NAN","NAN","NAN","NAN","NAN"],
    [1535643,"2026-01-08 21:30:00","36633","0.114","291.3","2.319","294.7","NAN","NAN","NAN","NAN","NAN"],
    [1535644,"2026-01-08 21:40:00","36634","0.557","294.9","1.405","295.1","NAN","NAN","NAN","NAN","NAN"],
    [1535645,"2026-01-08 21:50:00","36635","0.589","294.9","1.666","295.3","NAN","NAN","NAN","NAN","NAN"],
    [1535646,"2026-01-08 22:00:00","36636","0.01","289.1","0.261","288.3","NAN","NAN","NAN","NAN","NAN"],
    [1535647,"2026-01-08 22:10:00","36637","0.0","0.0","0","0","NAN","NAN","NAN","NAN","NAN"],
    [1535648,"2026-01-08 22:20:00","36638","0.233","253.4","1.829","249.2","NAN","NAN","NAN","NAN","NAN"],
    [1535649,"2026-01-08 22:30:00","36639","0.968","253.4","2.809","249.9","NAN","NAN","NAN","NAN","NAN"],
    [1535650,"2026-01-08 22:40:00","36640","2.245","293.1","5.88","295","NAN","NAN","NAN","NAN","NAN"],
    [1535651,"2026-01-08 22:50:00","36641","4.46","285.9","7.546","275.5","NAN","NAN","NAN","NAN","NAN"],
    [1535652,"2026-01-08 23:00:00","36642","6.167000000000001","280.8","11.37","280.5","NAN","NAN","NAN","NAN","NAN"],
    [1535653,"2026-01-08 23:10:00","36643","5.421","276.5","8.13","277.7","NAN","NAN","NAN","NAN","NAN"],
    [1535654,"2026-01-08 23:20:00","36644","4.588","283.0","7.448","287.4","NAN","NAN","NAN","NAN","NAN"],
    [1535655,"2026-01-08 23:30:00","36645","3.6510000000000002","281.4","6.925","269","NAN","NAN","NAN","NAN","NAN"],
    [1535656,"2026-01-08 23:40:00","36646","2.088","286.0","4.345","272","NAN","NAN","NAN","NAN","NAN"],
    [1535657,"2026-01-08 23:50:00","36647","3.0780000000000003","287.8","4.933","277.7","NAN","NAN","NAN","NAN","NAN"],
    [1535658,"2026-01-09 00:00:00","36648","4.393","274.6","6.566","266.8","NAN","NAN","NAN","NAN","NAN"],
    [1535659,"2026-01-09 00:10:00","36649","4.38","271.4","6.958","266.5","NAN","NAN","NAN","NAN","NAN"],
    [1535660,"2026-01-09 00:20:00","36650","4.887","271.3","8.95","265.2","NAN","NAN","NAN","NAN","NAN"],
    [1535661,"2026-01-09 00:30:00","36651","6.223","264.4","10.03","264.7","NAN","NAN","NAN","NAN","NAN"],
    [1535662,"2026-01-09 00:40:00","36652","7.181","257.8","11.11","251.7","NAN","NAN","NAN","NAN","NAN"],
    [1535663,"2026-01-09 00:50:00","36653","6.205","268.5","10.16","263.2","NAN","NAN","NAN","NAN","NAN"],
    [1535664,"2026-01-09 01:00:00","36654","6.7170000000000005","269.1","10.13","255.5","NAN","NAN","NAN","NAN","NAN"],
    [1535665,"2026-01-09 01:10:00","36655","6.711","272.9","9.83","273.9","NAN","NAN","NAN","NAN","NAN"],
    [1535666,"2026-01-09 01:20:00","36656","6.897","275.3","10","268.9","NAN","NAN","NAN","NAN","NAN"],
    [1535667,"2026-01-09 01:30:00","36657","5.933","280.0","8.92","285.3","NAN","NAN","NAN","NAN","NAN"],
    [1535668,"2026-01-09 01:40:00","36658","6.468","277.7","10.98","275.3","NAN","NAN","NAN","NAN","NAN"],
    [1535669,"2026-01-09 01:50:00","36659","6.396","273.4","11.47","264.8","NAN","NAN","NAN","NAN","NAN"],
    [1535670,"2026-01-09 02:00:00","36660","4.922","267.7","9.02","283.5","NAN","NAN","NAN","NAN","NAN"],
    [1535671,"2026-01-09 02:10:00","36661","4.388","281.5","6.076","266.8","NAN","NAN","NAN","NAN","NAN"],
    [1535672,"2026-01-09 02:20:00","36662","3.58","289.3","5.913","286.5","NAN","NAN","NAN","NAN","NAN"],
    [1535673,"2026-01-09 02:30:00","36663","3.67","288.2","5.619","280","NAN","NAN","NAN","NAN","NAN"],
    [1535674,"2026-01-09 02:40:00","36664","3.859","293.3","5.586","302.1","NAN","NAN","NAN","NAN","NAN"],
    [1535675,"2026-01-09 02:50:00","36665","4.445","282.6","8.17","276.5","NAN","NAN","NAN","NAN","NAN"],
    [1535676,"2026-01-09 03:00:00","36666","3.63","288.4","6.207","297.1","NAN","NAN","NAN","NAN","NAN"],
    [1535677,"2026-01-09 03:10:00","36667","3.22","291.5","5.096","298.5","NAN","NAN","NAN","NAN","NAN"],
    [1535678,"2026-01-09 03:20:00","36668","3.198","287.0","5.227","285.5","NAN","NAN","NAN","NAN","NAN"],
    [1535679,"2026-01-09 03:30:00","36669","2.8569999999999998","293.3","4.214","294.8","NAN","NAN","NAN","NAN","NAN"],
    [1535680,"2026-01-09 03:40:00","36670","3.284","300.8","4.835","308.3","NAN","NAN","NAN","NAN","NAN"],
    [1535681,"2026-01-09 03:50:00","36671","3.3089999999999997","302.6","4.835","300.6","NAN","NAN","NAN","NAN","NAN"],
    [1535682,"2026-01-09 04:00:00","36672","3.23","310.7","5.553","319.6","NAN","NAN","NAN","NAN","NAN"],
    [1535683,"2026-01-09 04:10:00","36673","3.123","310.2","5.553","307.2","NAN","NAN","NAN","NAN","NAN"],
    [1535684,"2026-01-09 04:20:00","36674","3.39","314.9","5.161","306.4","NAN","NAN","NAN","NAN","NAN"],
    [1535685,"2026-01-09 04:30:00","36675","3.267","315.5","5.325","301","NAN","NAN","NAN","NAN","NAN"],
    [1535686,"2026-01-09 04:40:00","36676","3.431","317.4","6.011","328","NAN","NAN","NAN","NAN","NAN"],
    [1535687,"2026-01-09 04:50:00","36677","3.3289999999999997","318.7","6.501","332","NAN","NAN","NAN","NAN","NAN"],
    [1535688,"2026-01-09 05:00:00","36678","3.8","316.6","6.762","325.3","NAN","NAN","NAN","NAN","NAN"],
    [1535689,"2026-01-09 05:10:00","36679","4.173","311.6","8.33","308","NAN","NAN","NAN","NAN","NAN"],
    [1535690,"2026-01-09 05:20:00","36680","4.077","312.7","8","309.1","NAN","NAN","NAN","NAN","NAN"],
    [1535691,"2026-01-09 05:30:00","36681","4.848","316.8","8.13","317.8","NAN","NAN","NAN","NAN","NAN"],
    [1535692,"2026-01-09 05:40:00","36682","3.824","319.2","5.847","325.9","NAN","NAN","NAN","NAN","NAN"],
    [1535693,"2026-01-09 05:50:00","36683","2.74","300.9","5.717","313.1","NAN","NAN","NAN","NAN","NAN"],
    [1535694,"2026-01-09 06:00:00","36684","3.052","265.4","5.194","268.3","NAN","NAN","NAN","NAN","NAN"],
    [1535695,"2026-01-09 06:10:00","36685","3.093","266.5","5.945","271.3","NAN","NAN","NAN","NAN","NAN"],
    [1535696,"2026-01-09 06:20:00","36686","4.573","267.0","7.938","265.7","NAN","NAN","NAN","NAN","NAN"],
    [1535697,"2026-01-09 06:30:00","36687","4.888999999999999","263.7","8","264.8","NAN","NAN","NAN","NAN","NAN"],
    [1535698,"2026-01-09 06:40:00","36688","4.29","262.1","8.04","267.8","NAN","NAN","NAN","NAN","NAN"],
    [1535699,"2026-01-09 06:50:00","36689","4.123","258.6","6.468","247.5","NAN","NAN","NAN","NAN","NAN"],
    [1535700,"2026-01-09 07:00:00","36690","4.465","256.0","7.481","252.9","NAN","NAN","NAN","NAN","NAN"],
    [1535701,"2026-01-09 07:10:00","36691","4.463","251.3","6.827","248.7","NAN","NAN","NAN","NAN","NAN"],
    [1535702,"2026-01-09 07:20:00","36692","4.493","250.3","6.925","254.4","NAN","NAN","NAN","NAN","NAN"],
    [1535703,"2026-01-09 07:30:00","36693","3.905","244.6","6.272","257.8","NAN","NAN","NAN","NAN","NAN"],
    [1535704,"2026-01-09 07:40:00","36694","4.629","244.2","7.513","245.6","NAN","NAN","NAN","NAN","NAN"],
    [1535705,"2026-01-09 07:50:00","36695","3.795","240.3","6.501","220.1","NAN","NAN","NAN","NAN","NAN"],
    [1535706,"2026-01-09 08:00:00","36696","3.531","240.1","5.488","232.2","NAN","NAN","NAN","NAN","NAN"],
    [1535707,"2026-01-09 08:10:00","36697","3.883","237.6","6.599","229.1","NAN","NAN","NAN","NAN","NAN"],
    [1535708,"2026-01-09 08:20:00","36698","4.836","249.4","7.775","235.5","NAN","NAN","NAN","NAN","NAN"],
    [1535709,"2026-01-09 08:30:00","36699","4.908","247.5","7.938","246.8","NAN","NAN","NAN","NAN","NAN"],
    [1535710,"2026-01-09 08:40:00","36700","5.524","250.3","7.84","253","NAN","NAN","NAN","NAN","NAN"],
    [1535711,"2026-01-09 08:50:00","36701","5.712000000000001","248.1","8.66","244.5","NAN","NAN","NAN","NAN","NAN"],
    [1535712,"2026-01-09 09:00:00","36702","5.29","251.2","8.59","269.2","NAN","NAN","NAN","NAN","NAN"],
    [1535713,"2026-01-09 09:10:00","36703","5.073","253.5","8.75","257.2","NAN","NAN","NAN","NAN","NAN"],
    [1535714,"2026-01-09 09:20:00","36704","5.511","256.9","8.66","258.6","NAN","NAN","NAN","NAN","NAN"],
    [1535715,"2026-01-09 09:30:00","36705","5.417999999999999","259.9","9.96","250.3","NAN","NAN","NAN","NAN","NAN"],
    [1535716,"2026-01-09 09:40:00","36706","5.925","263.1","12.28","273.1","NAN","NAN","NAN","NAN","NAN"],
    [1535717,"2026-01-09 09:50:00","36707","6.6370000000000005","269.3","9.44","275.9","NAN","NAN","NAN","NAN","NAN"],
    [1535718,"2026-01-09 10:00:00","36708","5.9639999999999995","267.3","9.6","262","NAN","NAN","NAN","NAN","NAN"],
    [1535719,"2026-01-09 10:10:00","36709","6.742999999999999","271.3","10.42","266.3","NAN","NAN","NAN","NAN","NAN"],
    [1535720,"2026-01-09 10:20:00","36710","6.961","270.5","10.36","275.3","NAN","NAN","NAN","NAN","NAN"],
    [1535721,"2026-01-09 10:30:00","36711","6.447","266.8","10.09","248.4","NAN","NAN","NAN","NAN","NAN"],
    [1535722,"2026-01-09 10:40:00","36712","6.608","267.9","10.52","274","NAN","NAN","NAN","NAN","NAN"],
    [1535723,"2026-01-09 10:50:00","36713","6.393","268.5","10.62","260","NAN","NAN","NAN","NAN","NAN"],
    [1535724,"2026-01-09 11:00:00","36714","7.327000000000001","283.5","12.15","275.8","NAN","NAN","NAN","NAN","NAN"],
    [1535725,"2026-01-09 11:10:00","36715","6.497000000000001","280.5","11.96","285.4","NAN","NAN","NAN","NAN","NAN"],
    [1535726,"2026-01-09 11:20:00","36716","6.62","275.3","12.84","273.3","NAN","NAN","NAN","NAN","NAN"],
    [1535727,"2026-01-09 11:30:00","36717","7.159","279.9","12.84","283.7","NAN","NAN","NAN","NAN","NAN"],
    [1535728,"2026-01-09 11:40:00","36718","6.287000000000001","279.8","12.28","280.2","NAN","NAN","NAN","NAN","NAN"],
    [1535729,"2026-01-09 11:50:00","36719","7.297000000000001","282.9","13.46","290","NAN","NAN","NAN","NAN","NAN"],
    [1535730,"2026-01-09 12:00:00","36720","6.407","268.8","12.32","270","NAN","NAN","NAN","NAN","NAN"],
    [1535731,"2026-01-09 12:10:00","36721","5.7589999999999995","270.6","10.58","273.2","NAN","NAN","NAN","NAN","NAN"],
    [1535732,"2026-01-09 12:20:00","36722","7.24","273.3","13.36","306.5","NAN","NAN","NAN","NAN","NAN"],
    [1535733,"2026-01-09 12:30:00","36723","7.292000000000001","276.3","13.72","265.2","NAN","NAN","NAN","NAN","NAN"],
    [1535734,"2026-01-09 12:40:00","36724","7.952999999999999","275.9","12.64","285.5","NAN","NAN","NAN","NAN","NAN"],
    [1535735,"2026-01-09 12:50:00","36725","6.415","278.7","11.37","279.7","NAN","NAN","NAN","NAN","NAN"],
    [1535736,"2026-01-09 13:00:00","36726","6.724","272.8","11.14","294","NAN","NAN","NAN","NAN","NAN"],
    [1535737,"2026-01-09 13:10:00","36727","9.51","273.5","15.22","266.1","NAN","NAN","NAN","NAN","NAN"],
    [1535738,"2026-01-09 13:20:00","36728","8.33","273.1","14.18","265.9","NAN","NAN","NAN","NAN","NAN"],
    [1535739,"2026-01-09 13:30:00","36729","6.803999999999999","281.2","10.98","281","NAN","NAN","NAN","NAN","NAN"],
    [1535740,"2026-01-09 13:40:00","36730","5.626","285.2","9.73","292.9","NAN","NAN","NAN","NAN","NAN"],
    [1535741,"2026-01-09 13:50:00","36731","7.28","287.3","11.47","284.6","NAN","NAN","NAN","NAN","NAN"],
    [1535742,"2026-01-09 14:00:00","36732","5.02","289.3","10","286.8","NAN","NAN","NAN","NAN","NAN"],
    [1535743,"2026-01-09 14:10:00","36733","6.596","281.3","11.24","275","NAN","NAN","NAN","NAN","NAN"],
    [1535744,"2026-01-09 14:20:00","36734","7.692","273.7","12.02","270.6","NAN","NAN","NAN","NAN","NAN"],
    [1535745,"2026-01-09 14:30:00","36735","7.646","285.0","13.43","292.7","NAN","NAN","NAN","NAN","NAN"],
    [1535746,"2026-01-09 14:40:00","36736","7.085","280.5","13.39","285.3","NAN","NAN","NAN","NAN","NAN"],
    [1535747,"2026-01-09 14:50:00","36737","6.225","283.4","12.61","275.1","NAN","NAN","NAN","NAN","NAN"],
    [1535748,"2026-01-09 15:00:00","36738","6.125","276.6","13.98","298.7","NAN","NAN","NAN","NAN","NAN"],
    [1535749,"2026-01-09 15:10:00","36739","5.4639999999999995","265.6","9.54","270.9","NAN","NAN","NAN","NAN","NAN"],
    [1535750,"2026-01-09 15:20:00","36740","5.692","267.7","10.62","275.7","NAN","NAN","NAN","NAN","NAN"],
    [1535751,"2026-01-09 15:30:00","36741","5.57","277.5","10.26","294.8","NAN","NAN","NAN","NAN","NAN"],
    [1535752,"2026-01-09 15:40:00","36742","5.477","278.5","10.65","277.3","NAN","NAN","NAN","NAN","NAN"],
    [1535753,"2026-01-09 15:50:00","36743","5.013","273.3","10.06","282.9","NAN","NAN","NAN","NAN","NAN"],
    [1535754,"2026-01-09 16:00:00","36744","5.301","265.7","8.49","264.6","NAN","NAN","NAN","NAN","NAN"],
    [1535755,"2026-01-09 16:10:00","36745","5.816","272.6","11.24","276.2","NAN","NAN","NAN","NAN","NAN"],
    [1535756,"2026-01-09 16:20:00","36746","7.228","281.7","17.97","293.8","NAN","NAN","NAN","NAN","NAN"],
    [1535757,"2026-01-09 16:30:00","36747","9.61","281.5","18.65","292.8","NAN","NAN","NAN","NAN","NAN"],
    [1535758,"2026-01-09 16:40:00","36748","5.752999999999999","262.5","9.7","269.6","NAN","NAN","NAN","NAN","NAN"],
    [1535759,"2026-01-09 16:50:00","36749","6.206","275.5","10.06","269.4","NAN","NAN","NAN","NAN","NAN"],
    [1535760,"2026-01-09 17:00:00","36750","5.83","276.3","11.47","269.6","NAN","NAN","NAN","NAN","NAN"],
    [1535761,"2026-01-09 17:10:00","36751","7.162000000000001","268.9","11.6","269","NAN","NAN","NAN","NAN","NAN"],
    [1535762,"2026-01-09 17:20:00","36752","6.71","269.6","11.92","269.4","NAN","NAN","NAN","NAN","NAN"],
    [1535763,"2026-01-09 17:30:00","36753","6.752999999999999","268.2","12.25","271.2","NAN","NAN","NAN","NAN","NAN"],
    [1535764,"2026-01-09 17:40:00","36754","6.817","270.3","11.34","286.5","NAN","NAN","NAN","NAN","NAN"],
    [1535765,"2026-01-09 17:50:00","36755","5.789","280.4","10.32","278.3","NAN","NAN","NAN","NAN","NAN"],
    [1535766,"2026-01-09 18:00:00","36756","5.474","283.8","10.16","281.2","NAN","NAN","NAN","NAN","NAN"],
    [1535767,"2026-01-09 18:10:00","36757","4.56","292.7","8.2","288.3","NAN","NAN","NAN","NAN","NAN"],
    [1535768,"2026-01-09 18:20:00","36758","4.898","295.2","8.62","311","NAN","NAN","NAN","NAN","NAN"],
    [1535769,"2026-01-09 18:30:00","36759","5.992999999999999","298.8","12.12","311.6","NAN","NAN","NAN","NAN","NAN"],
    [1535770,"2026-01-09 18:40:00","36760","5.707000000000001","296.0","10.16","308.8","NAN","NAN","NAN","NAN","NAN"],
    [1535771,"2026-01-09 18:50:00","36761","4.505","291.5","8.72","291","NAN","NAN","NAN","NAN","NAN"],
    [1535772,"2026-01-09 19:00:00","36762","5.422000000000001","292.1","8.79","283","NAN","NAN","NAN","NAN","NAN"],
    [1535773,"2026-01-09 19:10:00","36763","5.42","299.2","9.11","290","NAN","NAN","NAN","NAN","NAN"],
    [1535774,"2026-01-09 19:20:00","36764","6.629","298.4","9.87","301.2","NAN","NAN","NAN","NAN","NAN"],
    [1535775,"2026-01-09 19:30:00","36765","6.977","297.6","11.79","277.9","NAN","NAN","NAN","NAN","NAN"],
    [1535776,"2026-01-09 19:40:00","36766","5.685","297.8","10.26","303.1","NAN","NAN","NAN","NAN","NAN"],
    [1535777,"2026-01-09 19:50:00","36767","4.47","288.9","8.79","292.1","NAN","NAN","NAN","NAN","NAN"],
    [1535778,"2026-01-09 20:00:00","36768","3.9010000000000002","284.6","6.729","293.1","NAN","NAN","NAN","NAN","NAN"],
    [1535779,"2026-01-09 20:10:00","36769","3.4560000000000004","292.4","7.317","284.9","NAN","NAN","NAN","NAN","NAN"],
    [1535780,"2026-01-09 20:20:00","36770","2.9810000000000003","307.2","6.435","300.3","NAN","NAN","NAN","NAN","NAN"],
    [1535781,"2026-01-09 20:30:00","36771","3.685","294.1","5.684","301.3","NAN","NAN","NAN","NAN","NAN"],
    [1535782,"2026-01-09 20:40:00","36772","4.003","285.0","7.252","283","NAN","NAN","NAN","NAN","NAN"],
    [1535783,"2026-01-09 20:50:00","36773","4.907","276.8","7.84","274.3","NAN","NAN","NAN","NAN","NAN"],
    [1535784,"2026-01-09 21:00:00","36774","5.46","281.1","9.57","272.9","NAN","NAN","NAN","NAN","NAN"],
    [1535785,"2026-01-09 21:10:00","36775","6.3020000000000005","284.0","11.92","291.5","NAN","NAN","NAN","NAN","NAN"],
    [1535786,"2026-01-09 21:20:00","36776","7.226","296.0","12.84","284.7","NAN","NAN","NAN","NAN","NAN"],
    [1535787,"2026-01-09 21:30:00","36777","7.888","301.7","13.59","302.3","NAN","NAN","NAN","NAN","NAN"],
    [1535788,"2026-01-09 21:40:00","36778","8.81","303.1","14.9","293.6","NAN","NAN","NAN","NAN","NAN"],
    [1535789,"2026-01-09 21:50:00","36779","8.68","304.3","14.83","301.6","NAN","NAN","NAN","NAN","NAN"],
    [1535790,"2026-01-09 22:00:00","36780","8.63","302.8","14.5","297.9","NAN","NAN","NAN","NAN","NAN"],
    [1535791,"2026-01-09 22:10:00","36781","8.35","302.5","13.56","288.3","NAN","NAN","NAN","NAN","NAN"],
    [1535792,"2026-01-09 22:20:00","36782","8.33","302.9","13.2","288.8","NAN","NAN","NAN","NAN","NAN"],
    [1535793,"2026-01-09 22:30:00","36783","8.2","301.8","13.82","301.2","NAN","NAN","NAN","NAN","NAN"],
    [1535794,"2026-01-09 22:40:00","36784","7.84","304.9","12.32","303.3","NAN","NAN","NAN","NAN","NAN"],
    [1535795,"2026-01-09 22:50:00","36785","7.767","302.0","13.26","313.8","NAN","NAN","NAN","NAN","NAN"],
    [1535796,"2026-01-09 23:00:00","36786","6.648","306.3","12.64","312.2","NAN","NAN","NAN","NAN","NAN"],
    [1535797,"2026-01-09 23:10:00","36787","7.542000000000001","304.9","13.13","303.4","NAN","NAN","NAN","NAN","NAN"],
    [1535798,"2026-01-09 23:20:00","36788","6.601","307.3","13.07","296.4","NAN","NAN","NAN","NAN","NAN"],
    [1535799,"2026-01-09 23:30:00","36789","7.652","307.5","13.36","324.5","NAN","NAN","NAN","NAN","NAN"],
    [1535800,"2026-01-09 23:40:00","36790","7.51","312.0","13.13","303.1","NAN","NAN","NAN","NAN","NAN"],
    [1535801,"2026-01-09 23:50:00","36791","6.148","313.0","11.37","318.8","NAN","NAN","NAN","NAN","NAN"],
    [1535802,"2026-01-10 00:00:00","36792","6.234","306.3","11.63","310","NAN","NAN","NAN","NAN","NAN"],
    [1535803,"2026-01-10 00:10:00","36793","6.229","313.7","10.88","312.6","NAN","NAN","NAN","NAN","NAN"],
    [1535804,"2026-01-10 00:20:00","36794","7.077000000000001","307.7","12.74","292.1","NAN","NAN","NAN","NAN","NAN"],
    [1535805,"2026-01-10 00:30:00","36795","6.995","313.4","11.96","312","NAN","NAN","NAN","NAN","NAN"],
    [1535806,"2026-01-10 00:40:00","36796","7.191","313.4","14.44","310.1","NAN","NAN","NAN","NAN","NAN"],
    [1535807,"2026-01-10 00:50:00","36797","6.9510000000000005","313.7","11.6","303.1","NAN","NAN","NAN","NAN","NAN"],
    [1535808,"2026-01-10 01:00:00","36798","7.034","315.6","12.15","315.8","NAN","NAN","NAN","NAN","NAN"],
    [1535809,"2026-01-10 01:10:00","36799","6.242999999999999","315.2","12.84","318.6","NAN","NAN","NAN","NAN","NAN"],
    [1535810,"2026-01-10 01:20:00","36800","6.678","317.5","12.81","319.6","NAN","NAN","NAN","NAN","NAN"],
    [1535811,"2026-01-10 01:30:00","36801","6.4910000000000005","314.6","10.29","320.8","NAN","NAN","NAN","NAN","NAN"],
    [1535812,"2026-01-10 01:40:00","36802","7.157","306.7","11.69","320.6","NAN","NAN","NAN","NAN","NAN"],
    [1535813,"2026-01-10 01:50:00","36803","8.29","303.3","13.49","316.1","NAN","NAN","NAN","NAN","NAN"],
    [1535814,"2026-01-10 02:00:00","36804","8.0","303.8","12.84","315.3","NAN","NAN","NAN","NAN","NAN"],
    [1535815,"2026-01-10 02:10:00","36805","6.672999999999999","309.3","12.02","316.9","NAN","NAN","NAN","NAN","NAN"],
    [1535816,"2026-01-10 02:20:00","36806","6.497000000000001","313.3","11.14","341.7","NAN","NAN","NAN","NAN","NAN"],
    [1535817,"2026-01-10 02:30:00","36807","6.952999999999999","309.7","13.56","319","NAN","NAN","NAN","NAN","NAN"],
    [1535818,"2026-01-10 02:40:00","36808","6.79","309.7","13.92","297","NAN","NAN","NAN","NAN","NAN"],
    [1535819,"2026-01-10 02:50:00","36809","6.409","308.8","10.03","306.3","NAN","NAN","NAN","NAN","NAN"],
    [1535820,"2026-01-10 03:00:00","36810","5.943","312.3","11.63","314.8","NAN","NAN","NAN","NAN","NAN"],
    [1535821,"2026-01-10 03:10:00","36811","7.473","308.9","12.81","320.9","NAN","NAN","NAN","NAN","NAN"],
    [1535822,"2026-01-10 03:20:00","36812","7.697","306.1","12.05","304","NAN","NAN","NAN","NAN","NAN"],
    [1535823,"2026-01-10 03:30:00","36813","6.852","308.2","11.14","312.7","NAN","NAN","NAN","NAN","NAN"],
    [1535824,"2026-01-10 03:40:00","36814","6.609","306.9","12.35","300.8","NAN","NAN","NAN","NAN","NAN"],
    [1535825,"2026-01-10 03:50:00","36815","8.01","304.2","12.41","307.2","NAN","NAN","NAN","NAN","NAN"],
    [1535826,"2026-01-10 04:00:00","36816","6.026","313.0","9.44","308","NAN","NAN","NAN","NAN","NAN"],
    [1535827,"2026-01-10 04:10:00","36817","5.721","315.0","9.7","320.6","NAN","NAN","NAN","NAN","NAN"],
    [1535828,"2026-01-10 04:20:00","36818","6.28","311.7","9.7","311.6","NAN","NAN","NAN","NAN","NAN"],
    [1535829,"2026-01-10 04:30:00","36819","6.62","314.6","10.62","319.2","NAN","NAN","NAN","NAN","NAN"],
    [1535830,"2026-01-10 04:40:00","36820","6.466","316.0","11.4","309.7","NAN","NAN","NAN","NAN","NAN"],
    [1535831,"2026-01-10 04:50:00","36821","7.0889999999999995","320.4","12.32","317.6","NAN","NAN","NAN","NAN","NAN"],
    [1535832,"2026-01-10 05:00:00","36822","7.105","313.9","10.62","302.5","NAN","NAN","NAN","NAN","NAN"],
    [1535833,"2026-01-10 05:10:00","36823","8.05","305.2","13.46","301.3","NAN","NAN","NAN","NAN","NAN"],
    [1535834,"2026-01-10 05:20:00","36824","7.646","310.1","13.33","302.4","NAN","NAN","NAN","NAN","NAN"],
    [1535835,"2026-01-10 05:30:00","36825","8.27","306.4","12.67","297.6","NAN","NAN","NAN","NAN","NAN"],
    [1535836,"2026-01-10 05:40:00","36826","6.166","310.3","10.71","317.8","NAN","NAN","NAN","NAN","NAN"],
    [1535837,"2026-01-10 05:50:00","36827","6.388999999999999","314.7","11.24","326.4","NAN","NAN","NAN","NAN","NAN"],
    [1535838,"2026-01-10 06:00:00","36828","6.443","312.1","10.81","321.1","NAN","NAN","NAN","NAN","NAN"],
    [1535839,"2026-01-10 06:10:00","36829","6.571000000000001","311.4","9.87","298.7","NAN","NAN","NAN","NAN","NAN"],
    [1535840,"2026-01-10 06:20:00","36830","6.207999999999999","312.6","13.52","305.6","NAN","NAN","NAN","NAN","NAN"],
    [1535841,"2026-01-10 06:30:00","36831","6.111000000000001","318.0","11.86","310.5","NAN","NAN","NAN","NAN","NAN"],
    [1535842,"2026-01-10 06:40:00","36832","6.077999999999999","319.2","12.28","313.2","NAN","NAN","NAN","NAN","NAN"],
    [1535843,"2026-01-10 06:50:00","36833","5.792999999999999","314.7","12.15","308.8","NAN","NAN","NAN","NAN","NAN"],
    [1535844,"2026-01-10 07:00:00","36834","5.846","313.5","10.49","319","NAN","NAN","NAN","NAN","NAN"],
    [1535845,"2026-01-10 07:10:00","36835","6.862","311.6","12.74","309.4","NAN","NAN","NAN","NAN","NAN"],
    [1535846,"2026-01-10 07:20:00","36836","6.187","309.6","10.52","307.9","NAN","NAN","NAN","NAN","NAN"],
    [1535847,"2026-01-10 07:30:00","36837","6.377999999999999","312.9","10.36","321.2","NAN","NAN","NAN","NAN","NAN"],
    [1535848,"2026-01-10 07:40:00","36838","5.233","308.6","9.18","313.6","NAN","NAN","NAN","NAN","NAN"],
    [1535849,"2026-01-10 07:50:00","36839","6.082000000000001","308.1","10.19","308.3","NAN","NAN","NAN","NAN","NAN"],
    [1535850,"2026-01-10 08:00:00","36840","6.629","306.0","10.42","295.4","NAN","NAN","NAN","NAN","NAN"],
    [1535851,"2026-01-10 08:10:00","36841","5.607","308.4","11.04","316.6","NAN","NAN","NAN","NAN","NAN"],
    [1535852,"2026-01-10 08:20:00","36842","5.528","308.3","10.22","316.4","NAN","NAN","NAN","NAN","NAN"],
    [1535853,"2026-01-10 08:30:00","36843","4.021","319.2","7.448","300.3","NAN","NAN","NAN","NAN","NAN"],
    [1535854,"2026-01-10 08:40:00","36844","3.5669999999999997","315.2","6.239","341.7","NAN","NAN","NAN","NAN","NAN"],
    [1535855,"2026-01-10 08:50:00","36845","3.424","316.2","6.501","315","NAN","NAN","NAN","NAN","NAN"],
    [1535856,"2026-01-10 09:00:00","36846","3.5589999999999997","317.0","5.978","329.9","NAN","NAN","NAN","NAN","NAN"],
    [1535857,"2026-01-10 09:10:00","36847","3.0010000000000003","315.2","6.37","327","NAN","NAN","NAN","NAN","NAN"],
    [1535858,"2026-01-10 09:20:00","36848","2.281","313.2","5.096","332.3","NAN","NAN","NAN","NAN","NAN"],
    [1535859,"2026-01-10 09:30:00","36849","2.0340000000000003","337.6","4.606","350.8","NAN","NAN","NAN","NAN","NAN"],
    [1535860,"2026-01-10 09:40:00","36850","2.747","334.8","6.599","320.1","NAN","NAN","NAN","NAN","NAN"],
    [1535861,"2026-01-10 09:50:00","36851","3.452","309.2","7.579","309.2","NAN","NAN","NAN","NAN","NAN"],
    [1535862,"2026-01-10 10:00:00","36852","3.6660000000000004","322.7","6.566","322","NAN","NAN","NAN","NAN","NAN"],
    [1535863,"2026-01-10 10:10:00","36853","3.762","330.0","6.664","327.1","NAN","NAN","NAN","NAN","NAN"],
    [1535864,"2026-01-10 10:20:00","36854","3.117","328.1","6.011","339.2","NAN","NAN","NAN","NAN","NAN"],
    [1535865,"2026-01-10 10:30:00","36855","3.498","320.8","6.991","288.9","NAN","NAN","NAN","NAN","NAN"],
    [1535866,"2026-01-10 10:40:00","36856","4.953","326.6","8.1","325.7","NAN","NAN","NAN","NAN","NAN"],
    [1535867,"2026-01-10 10:50:00","36857","4.901","326.3","7.84","323.3","NAN","NAN","NAN","NAN","NAN"],
    [1535868,"2026-01-10 11:00:00","36858","5.052","323.5","7.971","337.2","NAN","NAN","NAN","NAN","NAN"],
    [1535869,"2026-01-10 11:10:00","36859","5.805","329.0","8","330.5","NAN","NAN","NAN","NAN","NAN"],
    [1535870,"2026-01-10 11:20:00","36860","5.64","322.8","9.18","308.5","NAN","NAN","NAN","NAN","NAN"],
    [1535871,"2026-01-10 11:30:00","36861","5.006","319.2","9.6","307.8","NAN","NAN","NAN","NAN","NAN"],
    [1535872,"2026-01-10 11:40:00","36862","4.35","309.1","8.26","315.6","NAN","NAN","NAN","NAN","NAN"],
    [1535873,"2026-01-10 11:50:00","36863","5.125","307.8","8.92","312.6","NAN","NAN","NAN","NAN","NAN"],
    [1535874,"2026-01-10 12:00:00","36864","6.223","298.2","9.9","306.5","NAN","NAN","NAN","NAN","NAN"],
    [1535875,"2026-01-10 12:10:00","36865","7.1579999999999995","301.5","11.76","302.7","NAN","NAN","NAN","NAN","NAN"],
    [1535876,"2026-01-10 12:20:00","36866","7.4639999999999995","302.6","12.77","309.2","NAN","NAN","NAN","NAN","NAN"],
    [1535877,"2026-01-10 12:30:00","36867","7.322","299.4","11.17","302","NAN","NAN","NAN","NAN","NAN"],
    [1535878,"2026-01-10 12:40:00","36868","5.79","296.1","11.3","302.4","NAN","NAN","NAN","NAN","NAN"],
    [1535879,"2026-01-10 12:50:00","36869","6.781000000000001","293.5","10.52","308.8","NAN","NAN","NAN","NAN","NAN"],
    [1535880,"2026-01-10 13:00:00","36870","6.086","295.2","9.83","294.4","NAN","NAN","NAN","NAN","NAN"],
    [1535881,"2026-01-10 13:10:00","36871","6.2010000000000005","291.2","10.81","295.4","NAN","NAN","NAN","NAN","NAN"],
    [1535882,"2026-01-10 13:20:00","36872","7.402","297.8","12.28","297","NAN","NAN","NAN","NAN","NAN"],
    [1535883,"2026-01-10 13:30:00","36873","7.148","296.2","12.35","290.6","NAN","NAN","NAN","NAN","NAN"],
    [1535884,"2026-01-10 13:40:00","36874","7.653","299.4","10.94","308.6","NAN","NAN","NAN","NAN","NAN"],
    [1535885,"2026-01-10 13:50:00","36875","6.9639999999999995","295.1","10.88","288.3","NAN","NAN","NAN","NAN","NAN"],
    [1535886,"2026-01-10 14:00:00","36876","6.978","295.0","12.87","313.7","NAN","NAN","NAN","NAN","NAN"],
    [1535887,"2026-01-10 14:10:00","36877","6.33","287.2","9.38","287.4","NAN","NAN","NAN","NAN","NAN"],
    [1535888,"2026-01-10 14:20:00","36878","7.005","280.2","11.47","275.7","NAN","NAN","NAN","NAN","NAN"],
    [1535889,"2026-01-10 14:30:00","36879","6.005","292.4","10.26","282.6","NAN","NAN","NAN","NAN","NAN"],
    [1535890,"2026-01-10 14:40:00","36880","4.624","290.0","8.1","301.8","NAN","NAN","NAN","NAN","NAN"],
    [1535891,"2026-01-10 14:50:00","36881","5.122000000000001","284.4","10.19","296.9","NAN","NAN","NAN","NAN","NAN"],
    [1535892,"2026-01-10 15:00:00","36882","4.575","284.6","6.893","270.1","NAN","NAN","NAN","NAN","NAN"],
    [1535893,"2026-01-10 15:10:00","36883","5.561","287.5","10.06","298.9","NAN","NAN","NAN","NAN","NAN"],
    [1535894,"2026-01-10 15:20:00","36884","4.596","286.8","8.23","319.8","NAN","NAN","NAN","NAN","NAN"],
    [1535895,"2026-01-10 15:30:00","36885","4.53","280.5","7.317","299.6","NAN","NAN","NAN","NAN","NAN"],
    [1535896,"2026-01-10 15:40:00","36886","5.09","281.4","8.49","265","NAN","NAN","NAN","NAN","NAN"],
    [1535897,"2026-01-10 15:50:00","36887","4.948","287.4","10.94","307.3","NAN","NAN","NAN","NAN","NAN"],
    [1535898,"2026-01-10 16:00:00","36888","3.8110000000000004","287.3","6.501","293.8","NAN","NAN","NAN","NAN","NAN"],
    [1535899,"2026-01-10 16:10:00","36889","4.249","286.0","8.46","259.9","NAN","NAN","NAN","NAN","NAN"],
    [1535900,"2026-01-10 16:20:00","36890","4.559","287.9","8.26","296.9","NAN","NAN","NAN","NAN","NAN"],
    [1535901,"2026-01-10 16:30:00","36891","3.319","277.5","5.88","296.6","NAN","NAN","NAN","NAN","NAN"],
    [1535902,"2026-01-10 16:40:00","36892","4.8919999999999995","291.4","8.69","280","NAN","NAN","NAN","NAN","NAN"],
    [1535903,"2026-01-10 16:50:00","36893","3.807","283.2","7.742","268.8","NAN","NAN","NAN","NAN","NAN"],
    [1535904,"2026-01-10 17:00:00","36894","3.2889999999999997","272.8","6.109","286.8","NAN","NAN","NAN","NAN","NAN"],
    [1535905,"2026-01-10 17:10:00","36895","4.149","289.0","7.056","294.5","NAN","NAN","NAN","NAN","NAN"],
    [1535906,"2026-01-10 17:20:00","36896","4.2","289.8","7.415","294.1","NAN","NAN","NAN","NAN","NAN"],
    [1535907,"2026-01-10 17:30:00","36897","3.883","283.3","7.35","292.6","NAN","NAN","NAN","NAN","NAN"],
    [1535908,"2026-01-10 17:40:00","36898","4.002","289.0","7.317","293.4","NAN","NAN","NAN","NAN","NAN"],
    [1535909,"2026-01-10 17:50:00","36899","5.0280000000000005","293.6","8.1","274.7","NAN","NAN","NAN","NAN","NAN"],
    [1535910,"2026-01-10 18:00:00","36900","5.1","294.2","9.54","309.8","NAN","NAN","NAN","NAN","NAN"],
    [1535911,"2026-01-10 18:10:00","36901","5.257999999999999","298.2","8.33","286.3","NAN","NAN","NAN","NAN","NAN"],
    [1535912,"2026-01-10 18:20:00","36902","4.55","295.4","7.775","289.5","NAN","NAN","NAN","NAN","NAN"],
    [1535913,"2026-01-10 18:30:00","36903","4.406000000000001","294.3","7.84","322.6","NAN","NAN","NAN","NAN","NAN"],
    [1535914,"2026-01-10 18:40:00","36904","3.645","294.4","5.586","272.1","NAN","NAN","NAN","NAN","NAN"],
    [1535915,"2026-01-10 18:50:00","36905","3.842","296.7","6.501","308.2","NAN","NAN","NAN","NAN","NAN"],
    [1535916,"2026-01-10 19:00:00","36906","4.287","296.6","6.729","298.5","NAN","NAN","NAN","NAN","NAN"],
    [1535917,"2026-01-10 19:10:00","36907","4.198","300.4","8.62","298.9","NAN","NAN","NAN","NAN","NAN"],
    [1535918,"2026-01-10 19:20:00","36908","4.788","301.2","7.546","301.9","NAN","NAN","NAN","NAN","NAN"],
    [1535919,"2026-01-10 19:30:00","36909","4.849","300.1","7.611","306.1","NAN","NAN","NAN","NAN","NAN"],
    [1535920,"2026-01-10 19:40:00","36910","4.586","303.7","8.36","306","NAN","NAN","NAN","NAN","NAN"],
    [1535921,"2026-01-10 19:50:00","36911","4.2219999999999995","305.8","6.827","314","NAN","NAN","NAN","NAN","NAN"],
    [1535922,"2026-01-10 20:00:00","36912","4.018","305.3","7.383","305.7","NAN","NAN","NAN","NAN","NAN"],
    [1535923,"2026-01-10 20:10:00","36913","2.9760000000000004","305.3","4.965","303.2","NAN","NAN","NAN","NAN","NAN"],
    [1535924,"2026-01-10 20:20:00","36914","3.574","303.7","6.925","301.3","NAN","NAN","NAN","NAN","NAN"],
    [1535925,"2026-01-10 20:30:00","36915","3.0039999999999996","299.8","5.978","313.7","NAN","NAN","NAN","NAN","NAN"],
    [1535926,"2026-01-10 20:40:00","36916","3.182","299.3","5.553","298.6","NAN","NAN","NAN","NAN","NAN"],
    [1535927,"2026-01-10 20:50:00","36917","3.409","299.3","5.913","297.3","NAN","NAN","NAN","NAN","NAN"],
    [1535928,"2026-01-10 21:00:00","36918","3.273","300.3","6.109","304.9","NAN","NAN","NAN","NAN","NAN"],
    [1535929,"2026-01-10 21:10:00","36919","3.7060000000000004","302.5","5.978","308.9","NAN","NAN","NAN","NAN","NAN"],
    [1535930,"2026-01-10 21:20:00","36920","3.92","307.8","6.076","306.6","NAN","NAN","NAN","NAN","NAN"],
    [1535931,"2026-01-10 21:30:00","36921","3.488","309.2","6.141","301.8","NAN","NAN","NAN","NAN","NAN"],
    [1535932,"2026-01-10 21:40:00","36922","3.333","310.7","6.337","313.3","NAN","NAN","NAN","NAN","NAN"],
    [1535933,"2026-01-10 21:50:00","36923","3.886","302.1","6.664","285.4","NAN","NAN","NAN","NAN","NAN"],
    [1535934,"2026-01-10 22:00:00","36924","2.6439999999999997","311.4","5.978","300.5","NAN","NAN","NAN","NAN","NAN"],
    [1535935,"2026-01-10 22:10:00","36925","1.4269999999999998","322.6","2.809","315","NAN","NAN","NAN","NAN","NAN"],
    [1535936,"2026-01-10 22:20:00","36926","0.39799999999999996","331.6","2.254","331.6","NAN","NAN","NAN","NAN","NAN"],
    [1535937,"2026-01-10 22:30:00","36927","1.705","327.0","5.553","311.4","NAN","NAN","NAN","NAN","NAN"],
    [1535938,"2026-01-10 22:40:00","36928","2.611","345.2","6.174","302.3","NAN","NAN","NAN","NAN","NAN"],
    [1535939,"2026-01-10 22:50:00","36929","2.188","16.55","4.116","9.91","NAN","NAN","NAN","NAN","NAN"],
    [1535940,"2026-01-10 23:00:00","36930","1.946","1.182","3.822","337.4","NAN","NAN","NAN","NAN","NAN"],
    [1535941,"2026-01-10 23:10:00","36931","2.419","20.16","4.181","14.71","NAN","NAN","NAN","NAN","NAN"],
    [1535942,"2026-01-10 23:20:00","36932","2.227","27.99","4.671","23.08","NAN","NAN","NAN","NAN","NAN"],
    [1535943,"2026-01-10 23:30:00","36933","2.237","22.42","3.201","10.77","NAN","NAN","NAN","NAN","NAN"],
    [1535944,"2026-01-10 23:40:00","36934","1.615","7.99","3.005","5.495","NAN","NAN","NAN","NAN","NAN"],
    [1535945,"2026-01-10 23:50:00","36935","1.5719999999999998","3.408","3.005","0.417","NAN","NAN","NAN","NAN","NAN"],
    [1535946,"2026-01-11 00:00:00","36936","1.716","337.2","3.365","325.2","NAN","NAN","NAN","NAN","NAN"],
    [1535947,"2026-01-11 00:10:00","36937","1.3430000000000002","335.9","2.842","332.3","NAN","NAN","NAN","NAN","NAN"],
    [1535948,"2026-01-11 00:20:00","36938","2.647","326.6","4.933","333.9","NAN","NAN","NAN","NAN","NAN"],
    [1535949,"2026-01-11 00:30:00","36939","2.792","326.5","4.279","328.6","NAN","NAN","NAN","NAN","NAN"],
    [1535950,"2026-01-11 00:40:00","36940","2.992","310.7","4.704","308","NAN","NAN","NAN","NAN","NAN"],
    [1535951,"2026-01-11 00:50:00","36941","2.866","296.8","4.443","298.8","NAN","NAN","NAN","NAN","NAN"],
    [1535952,"2026-01-11 01:00:00","36942","2.472","294.0","3.92","288.7","NAN","NAN","NAN","NAN","NAN"],
    [1535953,"2026-01-11 01:10:00","36943","2.329","296.0","3.757","295.6","NAN","NAN","NAN","NAN","NAN"],
    [1535954,"2026-01-11 01:20:00","36944","1.554","297.9","2.973","301.2","NAN","NAN","NAN","NAN","NAN"],
    [1535955,"2026-01-11 01:30:00","36945","1.123","299.4","1.96","297.9","NAN","NAN","NAN","NAN","NAN"],
    [1535956,"2026-01-11 01:40:00","36946","1.9269999999999998","304.8","3.463","302.3","NAN","NAN","NAN","NAN","NAN"],
    [1535957,"2026-01-11 01:50:00","36947","1.743","299.3","2.973","304.3","NAN","NAN","NAN","NAN","NAN"],
    [1535958,"2026-01-11 02:00:00","36948","1.2690000000000001","303.2","2.483","302.2","NAN","NAN","NAN","NAN","NAN"],
    [1535959,"2026-01-11 02:10:00","36949","1.331","295.8","2.385","295.3","NAN","NAN","NAN","NAN","NAN"],
    [1535960,"2026-01-11 02:20:00","36950","1.327","297.0","2.777","295.5","NAN","NAN","NAN","NAN","NAN"],
    [1535961,"2026-01-11 02:30:00","36951","1.626","299.1","2.352","296.9","NAN","NAN","NAN","NAN","NAN"],
    [1535962,"2026-01-11 02:40:00","36952","2.149","299.9","3.561","299.5","NAN","NAN","NAN","NAN","NAN"],
    [1535963,"2026-01-11 02:50:00","36953","2.575","311.1","4.345","307.5","NAN","NAN","NAN","NAN","NAN"],
    [1535964,"2026-01-11 03:00:00","36954","2.085","314.6","3.365","314.6","NAN","NAN","NAN","NAN","NAN"],
    [1535965,"2026-01-11 03:10:00","36955","2.106","307.4","3.397","313.3","NAN","NAN","NAN","NAN","NAN"],
    [1535966,"2026-01-11 03:20:00","36956","1.73","297.2","2.973","303.9","NAN","NAN","NAN","NAN","NAN"],
    [1535967,"2026-01-11 03:30:00","36957","2.052","298.4","3.724","300","NAN","NAN","NAN","NAN","NAN"],
    [1535968,"2026-01-11 03:40:00","36958","2.1180000000000003","291.9","3.495","298.7","NAN","NAN","NAN","NAN","NAN"],
    [1535969,"2026-01-11 03:50:00","36959","2.932","301.2","4.247","303.5","NAN","NAN","NAN","NAN","NAN"],
    [1535970,"2026-01-11 04:00:00","36960","2.359","307.5","3.593","304.9","NAN","NAN","NAN","NAN","NAN"],
    [1535971,"2026-01-11 04:10:00","36961","2.479","300.4","3.593","295.1","NAN","NAN","NAN","NAN","NAN"],
    [1535972,"2026-01-11 04:20:00","36962","2.193","297.8","3.169","291.8","NAN","NAN","NAN","NAN","NAN"],
    [1535973,"2026-01-11 04:30:00","36963","2.74","300.6","4.051","301.5","NAN","NAN","NAN","NAN","NAN"],
    [1535974,"2026-01-11 04:40:00","36964","2.7239999999999998","303.8","3.757","303.9","NAN","NAN","NAN","NAN","NAN"],
    [1535975,"2026-01-11 04:50:00","36965","2.675","309.6","4.149","306.9","NAN","NAN","NAN","NAN","NAN"],
    [1535976,"2026-01-11 05:00:00","36966","2.764","305.8","4.149","306.7","NAN","NAN","NAN","NAN","NAN"],
    [1535977,"2026-01-11 05:10:00","36967","2.529","303.3","3.887","306.3","NAN","NAN","NAN","NAN","NAN"],
    [1535978,"2026-01-11 05:20:00","36968","2.736","302.7","4.051","296.1","NAN","NAN","NAN","NAN","NAN"],
    [1535979,"2026-01-11 05:30:00","36969","2.502","299.4","4.051","315.4","NAN","NAN","NAN","NAN","NAN"],
    [1535980,"2026-01-11 05:40:00","36970","3.8989999999999996","303.8","6.533","297.5","NAN","NAN","NAN","NAN","NAN"],
    [1535981,"2026-01-11 05:50:00","36971","3.142","304.7","5.749","320.2","NAN","NAN","NAN","NAN","NAN"],
    [1535982,"2026-01-11 06:00:00","36972","2.7689999999999997","310.3","4.835","317.6","NAN","NAN","NAN","NAN","NAN"],
    [1535983,"2026-01-11 06:10:00","36973","2.867","310.4","5.586","325.1","NAN","NAN","NAN","NAN","NAN"],
    [1535984,"2026-01-11 06:20:00","36974","2.623","315.8","4.835","330.5","NAN","NAN","NAN","NAN","NAN"],
    [1535985,"2026-01-11 06:30:00","36975","3.255","318.6","6.435","332.9","NAN","NAN","NAN","NAN","NAN"],
    [1535986,"2026-01-11 06:40:00","36976","3.392","321.4","6.272","326.8","NAN","NAN","NAN","NAN","NAN"],
    [1535987,"2026-01-11 06:50:00","36977","4.0","316.2","6.109","319.9","NAN","NAN","NAN","NAN","NAN"],
    [1535988,"2026-01-11 07:00:00","36978","3.051","315.1","4.933","313.3","NAN","NAN","NAN","NAN","NAN"],
    [1535989,"2026-01-11 07:10:00","36979","3.9610000000000003","315.7","6.729","302.6","NAN","NAN","NAN","NAN","NAN"],
    [1535990,"2026-01-11 07:20:00","36980","3.699","313.3","6.011","307.4","NAN","NAN","NAN","NAN","NAN"],
    [1535991,"2026-01-11 07:30:00","36981","3.343","309.3","5.455","303.6","NAN","NAN","NAN","NAN","NAN"],
    [1535992,"2026-01-11 07:40:00","36982","3.1319999999999997","311.7","5.913","305.2","NAN","NAN","NAN","NAN","NAN"],
    [1535993,"2026-01-11 07:50:00","36983","2.099","315.6","3.561","335","NAN","NAN","NAN","NAN","NAN"],
    [1535994,"2026-01-11 08:00:00","36984","2.099","316.7","4.083","318.4","NAN","NAN","NAN","NAN","NAN"],
    [1535995,"2026-01-11 08:10:00","36985","2.779","308.5","4.965","314.1","NAN","NAN","NAN","NAN","NAN"],
    [1535996,"2026-01-11 08:20:00","36986","2.83","293.6","5.194","292.9","NAN","NAN","NAN","NAN","NAN"],
    [1535997,"2026-01-11 08:30:00","36987","2.7569999999999997","290.3","4.443","290.9","NAN","NAN","NAN","NAN","NAN"],
    [1535998,"2026-01-11 08:40:00","36988","3.395","291.9","5.357","294.9","NAN","NAN","NAN","NAN","NAN"],
    [1535999,"2026-01-11 08:50:00","36989","3.035","297.2","4.737","288.7","NAN","NAN","NAN","NAN","NAN"],
    [1536000,"2026-01-11 09:00:00","36990","3.622","291.6","5.357","287.7","NAN","NAN","NAN","NAN","NAN"],
    [1536001,"2026-01-11 09:10:00","36991","3.5660000000000003","290.6","6.305","295.3","NAN","NAN","NAN","NAN","NAN"],
    [1536002,"2026-01-11 09:20:00","36992","3.842","293.1","6.37","303","NAN","NAN","NAN","NAN","NAN"],
    [1536003,"2026-01-11 09:30:00","36993","4.305","295.7","6.435","300.1","NAN","NAN","NAN","NAN","NAN"],
    [1536004,"2026-01-11 09:40:00","36994","4.427","297.2","6.893","296.4","NAN","NAN","NAN","NAN","NAN"],
    [1536005,"2026-01-11 09:50:00","36995","4.535","302.3","8.1","293.4","NAN","NAN","NAN","NAN","NAN"],
    [1536006,"2026-01-11 10:00:00","36996","4.658","302.8","7.023","305.6","NAN","NAN","NAN","NAN","NAN"],
    [1536007,"2026-01-11 10:10:00","36997","5.142","302.1","8.2","295","NAN","NAN","NAN","NAN","NAN"],
    [1536008,"2026-01-11 10:20:00","36998","4.129","311.5","7.971","306","NAN","NAN","NAN","NAN","NAN"],
    [1536009,"2026-01-11 10:30:00","36999","3.7089999999999996","317.7","6.37","324.9","NAN","NAN","NAN","NAN","NAN"],
    [1536010,"2026-01-11 10:40:00","37000","4.814","308.0","7.677","287.1","NAN","NAN","NAN","NAN","NAN"],
    [1536011,"2026-01-11 10:50:00","37001","4.271","318.7","6.925","328.9","NAN","NAN","NAN","NAN","NAN"],
    [1536012,"2026-01-11 11:00:00","37002","5.075","327.1","7.546","328.8","NAN","NAN","NAN","NAN","NAN"],
    [1536013,"2026-01-11 11:10:00","37003","4.822","320.7","8.36","319.1","NAN","NAN","NAN","NAN","NAN"],
    [1536014,"2026-01-11 11:20:00","37004","4.694","327.0","7.383","325.6","NAN","NAN","NAN","NAN","NAN"],
    [1536015,"2026-01-11 11:30:00","37005","5.0280000000000005","329.6","7.023","320","NAN","NAN","NAN","NAN","NAN"],
    [1536016,"2026-01-11 11:40:00","37006","4.894","325.2","7.056","291.3","NAN","NAN","NAN","NAN","NAN"],
    [1536017,"2026-01-11 11:50:00","37007","4.308","327.8","7.219","334.4","NAN","NAN","NAN","NAN","NAN"],
    [1536018,"2026-01-11 12:00:00","37008","5.038","327.8","7.089","327.2","NAN","NAN","NAN","NAN","NAN"],
    [1536019,"2026-01-11 12:10:00","37009","3.1439999999999997","325.8","6.076","322.2","NAN","NAN","NAN","NAN","NAN"],
    [1536020,"2026-01-11 12:20:00","37010","3.6189999999999998","326.1","5.227","327","NAN","NAN","NAN","NAN","NAN"],
    [1536021,"2026-01-11 12:30:00","37011","2.8160000000000003","314.1","4.867","296.4","NAN","NAN","NAN","NAN","NAN"],
    [1536022,"2026-01-11 12:40:00","37012","2.386","322.2","6.076","310.8","NAN","NAN","NAN","NAN","NAN"],
    [1536023,"2026-01-11 12:50:00","37013","1.9069999999999998","271.4","3.528","264.6","NAN","NAN","NAN","NAN","NAN"],
    [1536024,"2026-01-11 13:00:00","37014","1.6280000000000001","232.0","3.691","227.9","NAN","NAN","NAN","NAN","NAN"],
    [1536025,"2026-01-11 13:10:00","37015","1.9340000000000002","214.0","3.822","220.3","NAN","NAN","NAN","NAN","NAN"],
    [1536026,"2026-01-11 13:20:00","37016","2.76","212.1","4.573","212.3","NAN","NAN","NAN","NAN","NAN"],
    [1536027,"2026-01-11 13:30:00","37017","2.925","220.9","4.443","212.6","NAN","NAN","NAN","NAN","NAN"],
    [1536028,"2026-01-11 13:40:00","37018","2.383","211.8","4.639","210.9","NAN","NAN","NAN","NAN","NAN"],
    [1536029,"2026-01-11 13:50:00","37019","2.099","192.7","3.691","170.1","NAN","NAN","NAN","NAN","NAN"],
    [1536030,"2026-01-11 14:00:00","37020","2.031","215.6","3.887","205.8","NAN","NAN","NAN","NAN","NAN"],
    [1536031,"2026-01-11 14:10:00","37021","1.686","222.9","3.855","207.8","NAN","NAN","NAN","NAN","NAN"],
    [1536032,"2026-01-11 14:20:00","37022","1.6740000000000002","227.6","3.985","266.7","NAN","NAN","NAN","NAN","NAN"],
    [1536033,"2026-01-11 14:30:00","37023","1.645","230.2","3.822","216.2","NAN","NAN","NAN","NAN","NAN"],
    [1536034,"2026-01-11 14:40:00","37024","2.109","189.7","5.357","170.1","NAN","NAN","NAN","NAN","NAN"],
    [1536035,"2026-01-11 14:50:00","37025","1.5090000000000001","194.0","3.789","165.4","NAN","NAN","NAN","NAN","NAN"],
    [1536036,"2026-01-11 15:00:00","37026","2.046","204.6","3.953","214.8","NAN","NAN","NAN","NAN","NAN"],
    [1536037,"2026-01-11 15:10:00","37027","2.026","197.9","4.181","228.7","NAN","NAN","NAN","NAN","NAN"],
    [1536038,"2026-01-11 15:20:00","37028","2.12","221.3","3.822","210.6","NAN","NAN","NAN","NAN","NAN"],
    [1536039,"2026-01-11 15:30:00","37029","2.213","208.3","4.083","210.8","NAN","NAN","NAN","NAN","NAN"],
    [1536040,"2026-01-11 15:40:00","37030","1.73","234.7","2.809","248.5","NAN","NAN","NAN","NAN","NAN"],
    [1536041,"2026-01-11 15:50:00","37031","2.2569999999999997","231.5","3.789","237.9","NAN","NAN","NAN","NAN","NAN"],
    [1536042,"2026-01-11 16:00:00","37032","2.145","234.1","3.757","215.5","NAN","NAN","NAN","NAN","NAN"],
    [1536043,"2026-01-11 16:10:00","37033","1.663","224.7","3.528","224.3","NAN","NAN","NAN","NAN","NAN"],
    [1536044,"2026-01-11 16:20:00","37034","1.659","221.2","3.626","224","NAN","NAN","NAN","NAN","NAN"],
    [1536045,"2026-01-11 16:30:00","37035","1.181","230.1","2.646","219.7","NAN","NAN","NAN","NAN","NAN"],
    [1536046,"2026-01-11 16:40:00","37036","1.156","232.2","2.091","233.4","NAN","NAN","NAN","NAN","NAN"],
    [1536047,"2026-01-11 16:50:00","37037","0.701","233.5","1.633","233.5","NAN","NAN","NAN","NAN","NAN"],
    [1536048,"2026-01-11 17:00:00","37038","0.652","220.6","1.96","220.9","NAN","NAN","NAN","NAN","NAN"],
    [1536049,"2026-01-11 17:10:00","37039","0.7090000000000001","228.7","1.895","230.5","NAN","NAN","NAN","NAN","NAN"],
    [1536050,"2026-01-11 17:20:00","37040","1.1740000000000002","220.4","1.993","217.4","NAN","NAN","NAN","NAN","NAN"],
    [1536051,"2026-01-11 17:30:00","37041","1.4709999999999999","216.1","2.287","216.9","NAN","NAN","NAN","NAN","NAN"],
    [1536052,"2026-01-11 17:40:00","37042","1.719","217.7","3.005","206.7","NAN","NAN","NAN","NAN","NAN"],
    [1536053,"2026-01-11 17:50:00","37043","1.879","239.8","3.659","242.7","NAN","NAN","NAN","NAN","NAN"],
    [1536054,"2026-01-11 18:00:00","37044","0.975","240.5","2.254","236.9","NAN","NAN","NAN","NAN","NAN"],
    [1536055,"2026-01-11 18:10:00","37045","1.5219999999999998","246.1","2.287","244.8","NAN","NAN","NAN","NAN","NAN"],
    [1536056,"2026-01-11 18:20:00","37046","1.162","247.5","1.993","247.5","NAN","NAN","NAN","NAN","NAN"],
    [1536057,"2026-01-11 18:30:00","37047","1.3319999999999999","247.4","1.797","247.5","NAN","NAN","NAN","NAN","NAN"],
    [1536058,"2026-01-11 18:40:00","37048","1.08","247.8","2.091","247.8","NAN","NAN","NAN","NAN","NAN"],
    [1536059,"2026-01-11 18:50:00","37049","0.299","248.3","1.176","248.3","NAN","NAN","NAN","NAN","NAN"],
    [1536060,"2026-01-11 19:00:00","37050","0.523","248.3","1.143","248.3","NAN","NAN","NAN","NAN","NAN"],
    [1536061,"2026-01-11 19:10:00","37051","0.9590000000000001","246.3","1.927","245.9","NAN","NAN","NAN","NAN","NAN"],
    [1536062,"2026-01-11 19:20:00","37052","0.313","248.3","2.025","248.3","NAN","NAN","NAN","NAN","NAN"],
    [1536063,"2026-01-11 19:30:00","37053","0.024","242.5","0.49","242.4","NAN","NAN","NAN","NAN","NAN"],
    [1536064,"2026-01-11 19:40:00","37054","0.017","242.3","0.392","242.3","NAN","NAN","NAN","NAN","NAN"],
    [1536065,"2026-01-11 19:50:00","37055","0.0","248.2","0.033","248.2","NAN","NAN","NAN","NAN","NAN"],
    [1536066,"2026-01-11 20:00:00","37056","0.0","0.0","0","0","NAN","NAN","NAN","NAN","NAN"],
    [1536067,"2026-01-11 20:10:00","37057","0.0","0.0","0","0","NAN","NAN","NAN","NAN","NAN"],
    [1536068,"2026-01-11 20:20:00","37058","0.0","0.0","0","0","NAN","NAN","NAN","NAN","NAN"],
    [1536069,"2026-01-11 20:30:00","37059","0.145","245.0","0.882","245","NAN","NAN","NAN","NAN","NAN"],
    [1536070,"2026-01-11 20:40:00","37060","0.488","248.1","1.045","248.3","NAN","NAN","NAN","NAN","NAN"],
    [1536071,"2026-01-11 20:50:00","37061","0.609","248.1","0.947","248.3","NAN","NAN","NAN","NAN","NAN"],
    [1536072,"2026-01-11 21:00:00","37062","0.5760000000000001","248.3","1.437","248.4","NAN","NAN","NAN","NAN","NAN"],
    [1536073,"2026-01-11 21:10:00","37063","0.445","248.3","1.209","248.4","NAN","NAN","NAN","NAN","NAN"],
    [1536074,"2026-01-11 21:20:00","37064","0.529","248.3","1.633","248.4","NAN","NAN","NAN","NAN","NAN"],
    [1536075,"2026-01-11 21:30:00","37065","0.265","248.4","0.849","248.4","NAN","NAN","NAN","NAN","NAN"],
    [1536076,"2026-01-11 21:40:00","37066","0.516","248.4","1.895","248.4","NAN","NAN","NAN","NAN","NAN"],
    [1536077,"2026-01-11 21:50:00","37067","1.514","248.5","2.287","248.5","NAN","NAN","NAN","NAN","NAN"],
    [1536078,"2026-01-11 22:00:00","37068","1.4969999999999999","248.5","2.221","248.5","NAN","NAN","NAN","NAN","NAN"],
    [1536079,"2026-01-11 22:10:00","37069","1.4","248.6","1.829","248.6","NAN","NAN","NAN","NAN","NAN"],
    [1536080,"2026-01-11 22:20:00","37070","1.435","248.6","1.829","248.6","NAN","NAN","NAN","NAN","NAN"],
    [1536081,"2026-01-11 22:30:00","37071","1.4869999999999999","248.7","2.058","248.7","NAN","NAN","NAN","NAN","NAN"],
    [1536082,"2026-01-11 22:40:00","37072","1.61","248.8","2.613","249","NAN","NAN","NAN","NAN","NAN"],
    [1536083,"2026-01-11 22:50:00","37073","1.3259999999999998","249.0","2.221","249","NAN","NAN","NAN","NAN","NAN"],
    [1536084,"2026-01-11 23:00:00","37074","1.525","249.6","2.156","249.7","NAN","NAN","NAN","NAN","NAN"],
    [1536085,"2026-01-11 23:10:00","37075","1.62","248.7","2.123","249.6","NAN","NAN","NAN","NAN","NAN"],
    [1536086,"2026-01-11 23:20:00","37076","1.4409999999999998","249.6","1.993","249.6","NAN","NAN","NAN","NAN","NAN"],
    [1536087,"2026-01-11 23:30:00","37077","1.4569999999999999","249.7","2.189","249.7","NAN","NAN","NAN","NAN","NAN"],
    [1536088,"2026-01-11 23:40:00","37078","1.742","250.9","2.352","251.5","NAN","NAN","NAN","NAN","NAN"],
    [1536089,"2026-01-11 23:50:00","37079","1.6119999999999999","252.3","2.156","252.6","NAN","NAN","NAN","NAN","NAN"],
    [1536090,"2026-01-12 00:00:00","37080","1.489","252.2","2.058","252.6","NAN","NAN","NAN","NAN","NAN"],
    [1536091,"2026-01-12 00:10:00","37081","1.69","252.4","2.287","249.7","NAN","NAN","NAN","NAN","NAN"],
    [1536092,"2026-01-12 00:20:00","37082","1.985","261.7","2.581","259.8","NAN","NAN","NAN","NAN","NAN"],
    [1536093,"2026-01-12 00:30:00","37083","2.137","262.9","2.973","264","NAN","NAN","NAN","NAN","NAN"],
    [1536094,"2026-01-12 00:40:00","37084","1.922","253.4","2.45","255.2","NAN","NAN","NAN","NAN","NAN"],
    [1536095,"2026-01-12 00:50:00","37085","2.039","253.3","2.777","250","NAN","NAN","NAN","NAN","NAN"],
    [1536096,"2026-01-12 01:00:00","37086","2.07","260.1","2.842","249.8","NAN","NAN","NAN","NAN","NAN"],
    [1536097,"2026-01-12 01:10:00","37087","2.371","264.4","3.332","265.7","NAN","NAN","NAN","NAN","NAN"],
    [1536098,"2026-01-12 01:20:00","37088","1.963","262.0","2.777","258.3","NAN","NAN","NAN","NAN","NAN"],
    [1536099,"2026-01-12 01:30:00","37089","2.133","266.7","3.169","268.1","NAN","NAN","NAN","NAN","NAN"],
    [1536100,"2026-01-12 01:40:00","37090","1.6580000000000001","265.1","2.515","269.4","NAN","NAN","NAN","NAN","NAN"],
    [1536101,"2026-01-12 01:50:00","37091","1.8130000000000002","268.8","2.679","270.2","NAN","NAN","NAN","NAN","NAN"],
    [1536102,"2026-01-12 02:00:00","37092","1.486","257.6","2.319","255.7","NAN","NAN","NAN","NAN","NAN"],
    [1536103,"2026-01-12 02:10:00","37093","1.396","260.4","2.058","264.9","NAN","NAN","NAN","NAN","NAN"],
    [1536104,"2026-01-12 02:20:00","37094","1.6340000000000001","262.6","2.319","269","NAN","NAN","NAN","NAN","NAN"],
    [1536105,"2026-01-12 02:30:00","37095","2.123","256.6","2.777","255.5","NAN","NAN","NAN","NAN","NAN"],
    [1536106,"2026-01-12 02:40:00","37096","2.1109999999999998","257.0","2.842","256.8","NAN","NAN","NAN","NAN","NAN"],
    [1536107,"2026-01-12 02:50:00","37097","1.405","261.7","2.221","265.5","NAN","NAN","NAN","NAN","NAN"],
    [1536108,"2026-01-12 03:00:00","37098","1.3869999999999998","251.5","2.548","251.9","NAN","NAN","NAN","NAN","NAN"],
    [1536109,"2026-01-12 03:10:00","37099","1.77","254.8","2.352","250.9","NAN","NAN","NAN","NAN","NAN"],
    [1536110,"2026-01-12 03:20:00","37100","1.911","252.7","2.777","250.5","NAN","NAN","NAN","NAN","NAN"],
    [1536111,"2026-01-12 03:30:00","37101","1.79","251.5","2.777","248.5","NAN","NAN","NAN","NAN","NAN"],
    [1536112,"2026-01-12 03:40:00","37102","1.7409999999999999","247.8","2.711","246.5","NAN","NAN","NAN","NAN","NAN"],
    [1536113,"2026-01-12 03:50:00","37103","1.95","230.6","3.201","215.2","NAN","NAN","NAN","NAN","NAN"],
    [1536114,"2026-01-12 04:00:00","37104","2.6310000000000002","257.1","3.855","267.6","NAN","NAN","NAN","NAN","NAN"],
    [1536115,"2026-01-12 04:10:00","37105","2.645","270.3","3.887","270.8","NAN","NAN","NAN","NAN","NAN"],
    [1536116,"2026-01-12 04:20:00","37106","2.678","267.6","3.724","264.2","NAN","NAN","NAN","NAN","NAN"],
    [1536117,"2026-01-12 04:30:00","37107","2.052","280.9","3.397","277","NAN","NAN","NAN","NAN","NAN"],
    [1536118,"2026-01-12 04:40:00","37108","2.279","284.5","3.299","287.8","NAN","NAN","NAN","NAN","NAN"],
    [1536119,"2026-01-12 04:50:00","37109","2.162","277.5","3.528","288.8","NAN","NAN","NAN","NAN","NAN"],
    [1536120,"2026-01-12 05:00:00","37110","1.765","278.8","2.777","274.4","NAN","NAN","NAN","NAN","NAN"],
    [1536121,"2026-01-12 05:10:00","37111","1.4780000000000002","274.2","2.189","276.7","NAN","NAN","NAN","NAN","NAN"],
    [1536122,"2026-01-12 05:20:00","37112","1.361","271.3","2.385","265.6","NAN","NAN","NAN","NAN","NAN"],
    [1536123,"2026-01-12 05:30:00","37113","1.982","268.4","2.777","276.2","NAN","NAN","NAN","NAN","NAN"],
    [1536124,"2026-01-12 05:40:00","37114","1.876","278.3","2.809","282.6","NAN","NAN","NAN","NAN","NAN"],
    [1536125,"2026-01-12 05:50:00","37115","1.4780000000000002","275.2","2.515","282.8","NAN","NAN","NAN","NAN","NAN"],
    [1536126,"2026-01-12 06:00:00","37116","1.077","267.8","2.417","272.8","NAN","NAN","NAN","NAN","NAN"],
    [1536127,"2026-01-12 06:10:00","37117","1.735","269.3","3.005","275.2","NAN","NAN","NAN","NAN","NAN"],
    [1536128,"2026-01-12 06:20:00","37118","2.116","273.3","3.332","267","NAN","NAN","NAN","NAN","NAN"],
    [1536129,"2026-01-12 06:30:00","37119","1.9909999999999999","275.8","3.201","283.8","NAN","NAN","NAN","NAN","NAN"],
    [1536130,"2026-01-12 06:40:00","37120","2.44","288.0","4.573","297.8","NAN","NAN","NAN","NAN","NAN"],
    [1536131,"2026-01-12 06:50:00","37121","2.478","282.3","4.051","281.7","NAN","NAN","NAN","NAN","NAN"],
    [1536132,"2026-01-12 07:00:00","37122","2.8989999999999996","282.8","4.116","283.4","NAN","NAN","NAN","NAN","NAN"],
    [1536133,"2026-01-12 07:10:00","37123","2.998","277.3","4.214","272","NAN","NAN","NAN","NAN","NAN"],
    [1536134,"2026-01-12 07:20:00","37124","2.72","275.0","3.626","276.2","NAN","NAN","NAN","NAN","NAN"],
    [1536135,"2026-01-12 07:30:00","37125","2.9339999999999997","273.3","4.149","266.6","NAN","NAN","NAN","NAN","NAN"],
    [1536136,"2026-01-12 07:40:00","37126","2.7460000000000004","274.2","3.855","272.5","NAN","NAN","NAN","NAN","NAN"],
    [1536137,"2026-01-12 07:50:00","37127","2.365","285.4","3.855","289.9","NAN","NAN","NAN","NAN","NAN"],
    [1536138,"2026-01-12 08:00:00","37128","2.495","283.9","4.083","277.9","NAN","NAN","NAN","NAN","NAN"],
    [1536139,"2026-01-12 08:10:00","37129","2.354","271.1","3.593","273.1","NAN","NAN","NAN","NAN","NAN"],
    [1536140,"2026-01-12 08:20:00","37130","2.122","270.2","4.051","277.5","NAN","NAN","NAN","NAN","NAN"],
    [1536141,"2026-01-12 08:30:00","37131","2.383","262.3","4.018","264.2","NAN","NAN","NAN","NAN","NAN"],
    [1536142,"2026-01-12 08:40:00","37132","2.322","266.7","3.985","272.2","NAN","NAN","NAN","NAN","NAN"],
    [1536143,"2026-01-12 08:50:00","37133","2.193","264.0","3.463","271.7","NAN","NAN","NAN","NAN","NAN"],
    [1536144,"2026-01-12 09:00:00","37134","1.821","267.0","2.875","272.1","NAN","NAN","NAN","NAN","NAN"],
    [1536145,"2026-01-12 09:10:00","37135","2.012","264.7","2.907","265.4","NAN","NAN","NAN","NAN","NAN"],
    [1536146,"2026-01-12 09:20:00","37136","2.026","261.8","3.136","254.9","NAN","NAN","NAN","NAN","NAN"],
    [1536147,"2026-01-12 09:30:00","37137","1.5190000000000001","276.7","3.169","271.4","NAN","NAN","NAN","NAN","NAN"],
    [1536148,"2026-01-12 09:40:00","37138","2.275","280.7","3.593","295.5","NAN","NAN","NAN","NAN","NAN"],
    [1536149,"2026-01-12 09:50:00","37139","2.0269999999999997","287.7","3.169","283.5","NAN","NAN","NAN","NAN","NAN"],
    [1536150,"2026-01-12 10:00:00","37140","2.125","284.1","4.149","278.1","NAN","NAN","NAN","NAN","NAN"],
    [1536151,"2026-01-12 10:10:00","37141","2.182","287.0","4.116","303.7","NAN","NAN","NAN","NAN","NAN"],
    [1536152,"2026-01-12 10:20:00","37142","1.932","285.1","3.626","273.7","NAN","NAN","NAN","NAN","NAN"],
    [1536153,"2026-01-12 10:30:00","37143","2.207","272.5","3.855","262.2","NAN","NAN","NAN","NAN","NAN"],
    [1536154,"2026-01-12 10:40:00","37144","2.6860000000000004","280.9","4.671","286.6","NAN","NAN","NAN","NAN","NAN"],
    [1536155,"2026-01-12 10:50:00","37145","2.6180000000000003","269.4","3.887","280","NAN","NAN","NAN","NAN","NAN"],
    [1536156,"2026-01-12 11:00:00","37146","3.2","268.0","4.443","273.1","NAN","NAN","NAN","NAN","NAN"],
    [1536157,"2026-01-12 11:10:00","37147","2.574","270.3","4.247","267.6","NAN","NAN","NAN","NAN","NAN"],
    [1536158,"2026-01-12 11:20:00","37148","2.7489999999999997","270.9","4.41","273.8","NAN","NAN","NAN","NAN","NAN"],
    [1536159,"2026-01-12 11:30:00","37149","2.2840000000000003","270.3","3.757","269.9","NAN","NAN","NAN","NAN","NAN"],
    [1536160,"2026-01-12 11:40:00","37150","1.776","271.6","3.397","267.1","NAN","NAN","NAN","NAN","NAN"],
    [1536161,"2026-01-12 11:50:00","37151","1.679","268.6","3.724","270.5","NAN","NAN","NAN","NAN","NAN"],
    [1536162,"2026-01-12 12:00:00","37152","1.6869999999999998","271.7","3.789","241.7","NAN","NAN","NAN","NAN","NAN"],
    [1536163,"2026-01-12 12:10:00","37153","1.9580000000000002","261.1","3.43","256.6","NAN","NAN","NAN","NAN","NAN"],
    [1536164,"2026-01-12 12:20:00","37154","1.652","269.4","3.103","271.4","NAN","NAN","NAN","NAN","NAN"],
    [1536165,"2026-01-12 12:30:00","37155","1.766","258.1","3.757","253.6","NAN","NAN","NAN","NAN","NAN"],
    [1536166,"2026-01-12 12:40:00","37156","1.256","258.7","3.724","256.5","NAN","NAN","NAN","NAN","NAN"],
    [1536167,"2026-01-12 12:50:00","37157","2.5269999999999997","256.5","4.769","272.2","NAN","NAN","NAN","NAN","NAN"],
    [1536168,"2026-01-12 13:00:00","37158","2.3","249.2","4.149","240.5","NAN","NAN","NAN","NAN","NAN"],
    [1536169,"2026-01-12 13:10:00","37159","2.575","239.8","4.737","252.7","NAN","NAN","NAN","NAN","NAN"],
    [1536170,"2026-01-12 13:20:00","37160","3.5639999999999996","245.7","6.37","250.9","NAN","NAN","NAN","NAN","NAN"],
    [1536171,"2026-01-12 13:30:00","37161","4.143","247.7","7.35","261.9","NAN","NAN","NAN","NAN","NAN"],
    [1536172,"2026-01-12 13:40:00","37162","4.718999999999999","239.8","7.677","238","NAN","NAN","NAN","NAN","NAN"],
    [1536173,"2026-01-12 13:50:00","37163","4.324","239.1","6.925","255.2","NAN","NAN","NAN","NAN","NAN"],
    [1536174,"2026-01-12 14:00:00","37164","3.737","241.7","7.252","261.8","NAN","NAN","NAN","NAN","NAN"],
    [1536175,"2026-01-12 14:10:00","37165","4.2139999999999995","235.9","8.07","233.7","NAN","NAN","NAN","NAN","NAN"],
    [1536176,"2026-01-12 14:20:00","37166","4.523","237.9","7.873","237.3","NAN","NAN","NAN","NAN","NAN"],
    [1536177,"2026-01-12 14:30:00","37167","3.4419999999999997","229.7","6.337","239.9","NAN","NAN","NAN","NAN","NAN"],
    [1536178,"2026-01-12 14:40:00","37168","3.845","229.5","7.709","226.8","NAN","NAN","NAN","NAN","NAN"],
    [1536179,"2026-01-12 14:50:00","37169","4.092","225.6","7.513","228.1","NAN","NAN","NAN","NAN","NAN"],
    [1536180,"2026-01-12 15:00:00","37170","4.543","221.1","7.579","222.2","NAN","NAN","NAN","NAN","NAN"],
    [1536181,"2026-01-12 15:10:00","37171","3.895","219.4","7.056","229.7","NAN","NAN","NAN","NAN","NAN"],
    [1536182,"2026-01-12 15:20:00","37172","4.303999999999999","220.9","7.089","231.7","NAN","NAN","NAN","NAN","NAN"],
    [1536183,"2026-01-12 15:30:00","37173","4.4319999999999995","217.3","8.59","230.3","NAN","NAN","NAN","NAN","NAN"],
    [1536184,"2026-01-12 15:40:00","37174","4.532","224.5","7.611","234.3","NAN","NAN","NAN","NAN","NAN"],
    [1536185,"2026-01-12 15:50:00","37175","3.806","220.8","6.729","227","NAN","NAN","NAN","NAN","NAN"],
    [1536186,"2026-01-12 16:00:00","37176","4.3919999999999995","226.1","7.285","209.4","NAN","NAN","NAN","NAN","NAN"],
    [1536187,"2026-01-12 16:10:00","37177","3.83","225.5","6.631","223.4","NAN","NAN","NAN","NAN","NAN"],
    [1536188,"2026-01-12 16:20:00","37178","3.111","234.1","6.239","253.9","NAN","NAN","NAN","NAN","NAN"],
    [1536189,"2026-01-12 16:30:00","37179","3.07","245.2","6.729","224.8","NAN","NAN","NAN","NAN","NAN"],
    [1536190,"2026-01-12 16:40:00","37180","2.8989999999999996","252.3","5.161","258.8","NAN","NAN","NAN","NAN","NAN"],
    [1536191,"2026-01-12 16:50:00","37181","2.898","248.2","6.109","253.3","NAN","NAN","NAN","NAN","NAN"],
    [1536192,"2026-01-12 17:00:00","37182","2.665","248.1","5.227","248","NAN","NAN","NAN","NAN","NAN"],
    [1536193,"2026-01-12 17:10:00","37183","2.499","248.5","4.9","237.6","NAN","NAN","NAN","NAN","NAN"],
    [1536194,"2026-01-12 17:20:00","37184","2.492","245.9","4.867","237.2","NAN","NAN","NAN","NAN","NAN"],
    [1536195,"2026-01-12 17:30:00","37185","2.209","244.6","3.789","254.1","NAN","NAN","NAN","NAN","NAN"],
    [1536196,"2026-01-12 17:40:00","37186","2.637","242.7","4.573","242.8","NAN","NAN","NAN","NAN","NAN"],
    [1536197,"2026-01-12 17:50:00","37187","2.762","243.5","4.573","247.3","NAN","NAN","NAN","NAN","NAN"],
    [1536198,"2026-01-12 18:00:00","37188","2.7319999999999998","246.3","4.377","253.6","NAN","NAN","NAN","NAN","NAN"],
    [1536199,"2026-01-12 18:10:00","37189","2.4530000000000003","250.2","3.691","259.7","NAN","NAN","NAN","NAN","NAN"],
    [1536200,"2026-01-12 18:20:00","37190","2.08","249.7","3.659","250","NAN","NAN","NAN","NAN","NAN"],
    [1536201,"2026-01-12 18:30:00","37191","1.8259999999999998","252.8","3.038","250.8","NAN","NAN","NAN","NAN","NAN"],
    [1536202,"2026-01-12 18:40:00","37192","1.3119999999999998","251.3","2.254","254.1","NAN","NAN","NAN","NAN","NAN"],
    [1536203,"2026-01-12 18:50:00","37193","1.07","256.6","2.287","258.1","NAN","NAN","NAN","NAN","NAN"],
    [1536204,"2026-01-12 19:00:00","37194","0.303","256.0","1.209","257.5","NAN","NAN","NAN","NAN","NAN"],
    [1536205,"2026-01-12 19:10:00","37195","0.423","258.2","0.947","258.5","NAN","NAN","NAN","NAN","NAN"],
    [1536206,"2026-01-12 19:20:00","37196","0.19899999999999998","258.6","1.111","258.5","NAN","NAN","NAN","NAN","NAN"],
    [1536207,"2026-01-12 19:30:00","37197","0.0","0.0","0","0","NAN","NAN","NAN","NAN","NAN"],
    [1536208,"2026-01-12 19:40:00","37198","0.0","0.0","0","0","NAN","NAN","NAN","NAN","NAN"],
    [1536209,"2026-01-12 19:50:00","37199","0.0","0.0","0","0","NAN","NAN","NAN","NAN","NAN"],
    [1536210,"2026-01-12 20:00:00","37200","0.0","0.0","0","0","NAN","NAN","NAN","NAN","NAN"],
    [1536211,"2026-01-12 20:10:00","37201","0.0","0.0","0","0","NAN","NAN","NAN","NAN","NAN"],
    [1536212,"2026-01-12 20:20:00","37202","0.002","258.5","0.163","258.5","NAN","NAN","NAN","NAN","NAN"],
    [1536213,"2026-01-12 20:30:00","37203","0.0","0.0","0","0","NAN","NAN","NAN","NAN","NAN"],
    [1536214,"2026-01-12 20:40:00","37204","0.0","0.0","0","0","NAN","NAN","NAN","NAN","NAN"],
    [1536215,"2026-01-12 20:50:00","37205","0.0","0.0","0","0","NAN","NAN","NAN","NAN","NAN"],
    [1536216,"2026-01-12 21:00:00","37206","0.0","0.0","0","0","NAN","NAN","NAN","NAN","NAN"],
    [1536217,"2026-01-12 21:10:00","37207","0.33399999999999996","258.6","0.751","258.6","NAN","NAN","NAN","NAN","NAN"],
    [1536218,"2026-01-12 21:20:00","37208","0.664","258.5","1.013","258.6","NAN","NAN","NAN","NAN","NAN"],
    [1536219,"2026-01-12 21:30:00","37209","0.826","258.6","1.372","258.6","NAN","NAN","NAN","NAN","NAN"],
    [1536220,"2026-01-12 21:40:00","37210","0.15","258.8","0.849","258.8","NAN","NAN","NAN","NAN","NAN"],
    [1536221,"2026-01-12 21:50:00","37211","0.284","258.7","0.915","258.8","NAN","NAN","NAN","NAN","NAN"],
    [1536222,"2026-01-12 22:00:00","37212","0.737","258.8","1.241","258.8","NAN","NAN","NAN","NAN","NAN"],
    [1536223,"2026-01-12 22:10:00","37213","0.258","258.8","1.143","258.8","NAN","NAN","NAN","NAN","NAN"],
    [1536224,"2026-01-12 22:20:00","37214","0.154","258.9","0.882","258.9","NAN","NAN","NAN","NAN","NAN"],
    [1536225,"2026-01-12 22:30:00","37215","0.5820000000000001","258.9","1.372","258.7","NAN","NAN","NAN","NAN","NAN"],
    [1536226,"2026-01-12 22:40:00","37216","0.773","258.8","1.503","258.8","NAN","NAN","NAN","NAN","NAN"],
    [1536227,"2026-01-12 22:50:00","37217","0.7020000000000001","258.1","1.993","256.7","NAN","NAN","NAN","NAN","NAN"],
    [1536228,"2026-01-12 23:00:00","37218","0.335","259.1","1.143","259.1","NAN","NAN","NAN","NAN","NAN"],
    [1536229,"2026-01-12 23:10:00","37219","1.178","258.9","2.025","256","NAN","NAN","NAN","NAN","NAN"],
    [1536230,"2026-01-12 23:20:00","37220","0.893","259.6","2.221","259.3","NAN","NAN","NAN","NAN","NAN"],
    [1536231,"2026-01-12 23:30:00","37221","1.16","258.6","1.993","257.6","NAN","NAN","NAN","NAN","NAN"],
    [1536232,"2026-01-12 23:40:00","37222","1.3969999999999998","259.1","2.058","259.9","NAN","NAN","NAN","NAN","NAN"],
    [1536233,"2026-01-12 23:50:00","37223","1.369","259.7","2.123","260","NAN","NAN","NAN","NAN","NAN"],
    [1536234,"2026-01-13 00:00:00","37224","1.564","259.7","2.45","260.2","NAN","NAN","NAN","NAN","NAN"],
    [1536235,"2026-01-13 00:10:00","37225","1.6269999999999998","260.4","2.417","260.2","NAN","NAN","NAN","NAN","NAN"],
    [1536236,"2026-01-13 00:20:00","37226","0.787","260.4","1.633","260.3","NAN","NAN","NAN","NAN","NAN"],
    [1536237,"2026-01-13 00:30:00","37227","1.137","260.0","1.764","260.3","NAN","NAN","NAN","NAN","NAN"],
    [1536238,"2026-01-13 00:40:00","37228","0.858","260.4","2.058","260.5","NAN","NAN","NAN","NAN","NAN"],
    [1536239,"2026-01-13 00:50:00","37229","1.147","259.7","1.633","260","NAN","NAN","NAN","NAN","NAN"],
    [1536240,"2026-01-13 01:00:00","37230","1.3559999999999999","260.0","2.091","259.9","NAN","NAN","NAN","NAN","NAN"],
    [1536241,"2026-01-13 01:10:00","37231","0.8740000000000001","260.5","1.568","260.5","NAN","NAN","NAN","NAN","NAN"],
    [1536242,"2026-01-13 01:20:00","37232","1.281","260.5","1.829","260.6","NAN","NAN","NAN","NAN","NAN"],
    [1536243,"2026-01-13 01:30:00","37233","0.978","260.6","1.927","260.6","NAN","NAN","NAN","NAN","NAN"],
    [1536244,"2026-01-13 01:40:00","37234","0.873","260.6","1.601","260.6","NAN","NAN","NAN","NAN","NAN"],
    [1536245,"2026-01-13 01:50:00","37235","0.821","258.6","2.352","260.6","NAN","NAN","NAN","NAN","NAN"],
    [1536246,"2026-01-13 02:00:00","37236","1.6580000000000001","259.3","2.45","260.6","NAN","NAN","NAN","NAN","NAN"],
    [1536247,"2026-01-13 02:10:00","37237","0.8740000000000001","260.8","1.633","260.8","NAN","NAN","NAN","NAN","NAN"],
    [1536248,"2026-01-13 02:20:00","37238","1.0190000000000001","260.7","2.123","260.8","NAN","NAN","NAN","NAN","NAN"],
    [1536249,"2026-01-13 02:30:00","37239","0.997","260.5","1.601","260.8","NAN","NAN","NAN","NAN","NAN"],
    [1536250,"2026-01-13 02:40:00","37240","0.805","260.8","1.699","260.7","NAN","NAN","NAN","NAN","NAN"],
    [1536251,"2026-01-13 02:50:00","37241","0.821","260.8","1.633","260.7","NAN","NAN","NAN","NAN","NAN"],
    [1536252,"2026-01-13 03:00:00","37242","1.11","260.5","1.699","260.8","NAN","NAN","NAN","NAN","NAN"],
    [1536253,"2026-01-13 03:10:00","37243","1.048","260.8","2.025","260.7","NAN","NAN","NAN","NAN","NAN"],
    [1536254,"2026-01-13 03:20:00","37244","0.8190000000000001","260.9","1.241","260.9","NAN","NAN","NAN","NAN","NAN"],
    [1536255,"2026-01-13 03:30:00","37245","1.0","259.9","1.601","261","NAN","NAN","NAN","NAN","NAN"],
    [1536256,"2026-01-13 03:40:00","37246","1.034","260.9","1.568","260.8","NAN","NAN","NAN","NAN","NAN"],
    [1536257,"2026-01-13 03:50:00","37247","1.301","260.7","1.764","261.1","NAN","NAN","NAN","NAN","NAN"],
    [1536258,"2026-01-13 04:00:00","37248","0.85","261.0","1.535","261.1","NAN","NAN","NAN","NAN","NAN"],
    [1536259,"2026-01-13 04:10:00","37249","1.176","260.8","1.993","261.1","NAN","NAN","NAN","NAN","NAN"],
    [1536260,"2026-01-13 04:20:00","37250","0.787","260.8","1.437","261.2","NAN","NAN","NAN","NAN","NAN"],
    [1536261,"2026-01-13 04:30:00","37251","1.036","261.2","2.156","261.2","NAN","NAN","NAN","NAN","NAN"],
    [1536262,"2026-01-13 04:40:00","37252","0.7609999999999999","261.3","1.731","261.2","NAN","NAN","NAN","NAN","NAN"],
    [1536263,"2026-01-13 04:50:00","37253","0.537","261.4","1.927","261.4","NAN","NAN","NAN","NAN","NAN"],
    [1536264,"2026-01-13 05:00:00","37254","0.314","260.1","0.915","261.2","NAN","NAN","NAN","NAN","NAN"],
    [1536265,"2026-01-13 05:10:00","37255","0.8240000000000001","260.5","2.058","261.1","NAN","NAN","NAN","NAN","NAN"],
    [1536266,"2026-01-13 05:20:00","37256","1.172","260.6","1.862","258.4","NAN","NAN","NAN","NAN","NAN"],
    [1536267,"2026-01-13 05:30:00","37257","1.075","260.5","2.287","258.3","NAN","NAN","NAN","NAN","NAN"],
    [1536268,"2026-01-13 05:40:00","37258","0.835","261.8","1.633","262","NAN","NAN","NAN","NAN","NAN"],
    [1536269,"2026-01-13 05:50:00","37259","0.392","260.9","1.307","261.9","NAN","NAN","NAN","NAN","NAN"],
    [1536270,"2026-01-13 06:00:00","37260","0.57","261.8","1.568","262.1","NAN","NAN","NAN","NAN","NAN"],
    [1536271,"2026-01-13 06:10:00","37261","0.879","259.0","1.633","258","NAN","NAN","NAN","NAN","NAN"],
    [1536272,"2026-01-13 06:20:00","37262","0.838","258.7","1.764","262","NAN","NAN","NAN","NAN","NAN"],
    [1536273,"2026-01-13 06:30:00","37263","1.538","262.1","2.515","262.3","NAN","NAN","NAN","NAN","NAN"],
    [1536274,"2026-01-13 06:40:00","37264","1.077","263.0","1.993","262.4","NAN","NAN","NAN","NAN","NAN"],
    [1536275,"2026-01-13 06:50:00","37265","1.212","263.9","2.319","264.4","NAN","NAN","NAN","NAN","NAN"],
    [1536276,"2026-01-13 07:00:00","37266","1.285","264.8","2.352","264.9","NAN","NAN","NAN","NAN","NAN"],
    [1536277,"2026-01-13 07:10:00","37267","0.9059999999999999","263.6","1.862","260.4","NAN","NAN","NAN","NAN","NAN"],
    [1536278,"2026-01-13 07:20:00","37268","1.173","262.1","2.613","264.6","NAN","NAN","NAN","NAN","NAN"],
    [1536279,"2026-01-13 07:30:00","37269","1.204","264.3","2.189","265.2","NAN","NAN","NAN","NAN","NAN"],
    [1536280,"2026-01-13 07:40:00","37270","0.674","262.8","2.091","265.2","NAN","NAN","NAN","NAN","NAN"],
    [1536281,"2026-01-13 07:50:00","37271","0.856","263.7","1.895","263.5","NAN","NAN","NAN","NAN","NAN"],
    [1536282,"2026-01-13 08:00:00","37272","1.565","264.0","2.254","265.3","NAN","NAN","NAN","NAN","NAN"],
    [1536283,"2026-01-13 08:10:00","37273","1.537","264.8","2.417","265.1","NAN","NAN","NAN","NAN","NAN"],
    [1536284,"2026-01-13 08:20:00","37274","1.385","269.7","2.385","265.9","NAN","NAN","NAN","NAN","NAN"],
    [1536285,"2026-01-13 08:30:00","37275","1.137","269.1","2.091","264.3","NAN","NAN","NAN","NAN","NAN"],
    [1536286,"2026-01-13 08:40:00","37276","1.81","274.9","2.842","279","NAN","NAN","NAN","NAN","NAN"],
    [1536287,"2026-01-13 08:50:00","37277","1.585","272.1","2.679","265.8","NAN","NAN","NAN","NAN","NAN"],
    [1536288,"2026-01-13 09:00:00","37278","1.8530000000000002","269.2","2.809","267.9","NAN","NAN","NAN","NAN","NAN"],
    [1536289,"2026-01-13 09:10:00","37279","1.662","277.9","3.299","289.8","NAN","NAN","NAN","NAN","NAN"],
    [1536290,"2026-01-13 09:20:00","37280","2.374","286.3","3.201","290.2","NAN","NAN","NAN","NAN","NAN"],
    [1536291,"2026-01-13 09:30:00","37281","2.499","287.4","3.495","286.2","NAN","NAN","NAN","NAN","NAN"],
    [1536292,"2026-01-13 09:40:00","37282","1.993","287.3","3.561","291.9","NAN","NAN","NAN","NAN","NAN"],
    [1536293,"2026-01-13 09:50:00","37283","1.935","284.0","3.234","289","NAN","NAN","NAN","NAN","NAN"],
    [1536294,"2026-01-13 10:00:00","37284","1.885","272.0","3.495","264.5","NAN","NAN","NAN","NAN","NAN"],
    [1536295,"2026-01-13 10:10:00","37285","2.167","274.4","3.267","267.3","NAN","NAN","NAN","NAN","NAN"],
    [1536296,"2026-01-13 10:20:00","37286","1.85","273.5","3.005","268","NAN","NAN","NAN","NAN","NAN"],
    [1536297,"2026-01-13 10:30:00","37287","2.235","263.4","3.365","263.5","NAN","NAN","NAN","NAN","NAN"],
    [1536298,"2026-01-13 10:40:00","37288","1.764","268.4","3.528","267","NAN","NAN","NAN","NAN","NAN"],
    [1536299,"2026-01-13 10:50:00","37289","2.418","265.3","3.691","264.8","NAN","NAN","NAN","NAN","NAN"],
    [1536300,"2026-01-13 11:00:00","37290","1.944","278.8","3.397","270.1","NAN","NAN","NAN","NAN","NAN"],
    [1536301,"2026-01-13 11:10:00","37291","1.845","278.3","2.907","268.4","NAN","NAN","NAN","NAN","NAN"],
    [1536302,"2026-01-13 11:20:00","37292","2.193","261.4","3.887","241.3","NAN","NAN","NAN","NAN","NAN"],
    [1536303,"2026-01-13 11:30:00","37293","2.329","227.9","3.43","250.4","NAN","NAN","NAN","NAN","NAN"],
    [1536304,"2026-01-13 11:40:00","37294","2.151","241.6","4.312","257.9","NAN","NAN","NAN","NAN","NAN"],
    [1536305,"2026-01-13 11:50:00","37295","1.982","246.5","4.214","269.6","NAN","NAN","NAN","NAN","NAN"],
    [1536306,"2026-01-13 12:00:00","37296","2.505","233.8","5.488","207.2","NAN","NAN","NAN","NAN","NAN"],
    [1536307,"2026-01-13 12:10:00","37297","3.699","220.6","5.553","200.7","NAN","NAN","NAN","NAN","NAN"],
    [1536308,"2026-01-13 12:20:00","37298","2.888","238.3","6.305","243.3","NAN","NAN","NAN","NAN","NAN"],
    [1536309,"2026-01-13 12:30:00","37299","2.465","229.7","3.887","233.6","NAN","NAN","NAN","NAN","NAN"],
    [1536310,"2026-01-13 12:40:00","37300","3.0410000000000004","238.4","5.325","238","NAN","NAN","NAN","NAN","NAN"],
    [1536311,"2026-01-13 12:50:00","37301","3.377","239.7","5.586","232.8","NAN","NAN","NAN","NAN","NAN"],
    [1536312,"2026-01-13 13:00:00","37302","3.783","243.6","6.109","228.1","NAN","NAN","NAN","NAN","NAN"],
    [1536313,"2026-01-13 13:10:00","37303","3.648","232.4","6.599","226","NAN","NAN","NAN","NAN","NAN"],
    [1536314,"2026-01-13 13:20:00","37304","3.3289999999999997","229.8","6.043","233.8","NAN","NAN","NAN","NAN","NAN"],
    [1536315,"2026-01-13 13:30:00","37305","3.883","228.9","6.468","226.2","NAN","NAN","NAN","NAN","NAN"],
    [1536316,"2026-01-13 13:40:00","37306","3.48","233.1","6.043","226.6","NAN","NAN","NAN","NAN","NAN"],
    [1536317,"2026-01-13 13:50:00","37307","3.5869999999999997","244.4","6.697","244.9","NAN","NAN","NAN","NAN","NAN"],
    [1536318,"2026-01-13 14:00:00","37308","4.21","234.1","7.546","249.7","NAN","NAN","NAN","NAN","NAN"],
    [1536319,"2026-01-13 14:10:00","37309","4.449","221.1","7.677","225.6","NAN","NAN","NAN","NAN","NAN"],
    [1536320,"2026-01-13 14:20:00","37310","3.33","232.6","5.619","235.1","NAN","NAN","NAN","NAN","NAN"],
    [1536321,"2026-01-13 14:30:00","37311","3.7289999999999996","239.3","6.174","221.1","NAN","NAN","NAN","NAN","NAN"],
    [1536322,"2026-01-13 14:40:00","37312","2.992","231.9","5.227","202.7","NAN","NAN","NAN","NAN","NAN"],
    [1536323,"2026-01-13 14:50:00","37313","2.725","239.4","5.161","265.9","NAN","NAN","NAN","NAN","NAN"],
    [1536324,"2026-01-13 15:00:00","37314","2.463","229.0","4.443","233.7","NAN","NAN","NAN","NAN","NAN"],
    [1536325,"2026-01-13 15:10:00","37315","2.688","221.0","5.096","221.5","NAN","NAN","NAN","NAN","NAN"],
    [1536326,"2026-01-13 15:20:00","37316","2.483","219.0","4.214","213.5","NAN","NAN","NAN","NAN","NAN"],
    [1536327,"2026-01-13 15:30:00","37317","2.4819999999999998","219.7","4.9","208.5","NAN","NAN","NAN","NAN","NAN"],
    [1536328,"2026-01-13 15:40:00","37318","2.471","223.7","4.149","230.6","NAN","NAN","NAN","NAN","NAN"],
    [1536329,"2026-01-13 15:50:00","37319","2.45","212.4","4.312","204.2","NAN","NAN","NAN","NAN","NAN"],
    [1536330,"2026-01-13 16:00:00","37320","2.056","217.7","3.626","226.7","NAN","NAN","NAN","NAN","NAN"],
    [1536331,"2026-01-13 16:10:00","37321","1.462","228.4","3.365","229.1","NAN","NAN","NAN","NAN","NAN"],
    [1536332,"2026-01-13 16:20:00","37322","2.106","231.3","3.855","229.1","NAN","NAN","NAN","NAN","NAN"],
    [1536333,"2026-01-13 16:30:00","37323","1.38","236.8","2.319","238.6","NAN","NAN","NAN","NAN","NAN"],
    [1536334,"2026-01-13 16:40:00","37324","1.4809999999999999","236.7","2.613","228.4","NAN","NAN","NAN","NAN","NAN"],
    [1536335,"2026-01-13 16:50:00","37325","1.421","239.8","2.711","240","NAN","NAN","NAN","NAN","NAN"],
    [1536336,"2026-01-13 17:00:00","37326","1.249","239.6","2.45","240.3","NAN","NAN","NAN","NAN","NAN"],
    [1536337,"2026-01-13 17:10:00","37327","0.991","240.5","1.797","240.6","NAN","NAN","NAN","NAN","NAN"],
    [1536338,"2026-01-13 17:20:00","37328","0.972","240.7","1.764","240.8","NAN","NAN","NAN","NAN","NAN"],
    [1536339,"2026-01-13 17:30:00","37329","0.644","240.9","1.797","240.9","NAN","NAN","NAN","NAN","NAN"],
    [1536340,"2026-01-13 17:40:00","37330","0.127","240.9","0.817","240.9","NAN","NAN","NAN","NAN","NAN"],
    [1536341,"2026-01-13 17:50:00","37331","0.008","240.8","0.425","240.8","NAN","NAN","NAN","NAN","NAN"],
    [1536342,"2026-01-13 18:00:00","37332","0.0","0.0","0","0","NAN","NAN","NAN","NAN","NAN"],
    [1536343,"2026-01-13 18:10:00","37333","0.0","0.0","0","0","NAN","NAN","NAN","NAN","NAN"],
    [1536344,"2026-01-13 18:20:00","37334","0.0","0.0","0","0","NAN","NAN","NAN","NAN","NAN"],
    [1536345,"2026-01-13 18:30:00","37335","0.0","0.0","0","0","NAN","NAN","NAN","NAN","NAN"],
    [1536346,"2026-01-13 18:40:00","37336","0.001","230.1","0.131","230","NAN","NAN","NAN","NAN","NAN"],
    [1536347,"2026-01-13 18:50:00","37337","0.0","0.0","0","0","NAN","NAN","NAN","NAN","NAN"],
    [1536348,"2026-01-13 19:00:00","37338","0.0","0.0","0","0","NAN","NAN","NAN","NAN","NAN"],
    [1536349,"2026-01-13 19:10:00","37339","0.0","0.0","0","0","NAN","NAN","NAN","NAN","NAN"],
    [1536350,"2026-01-13 19:20:00","37340","0.0","0.0","0","0","NAN","NAN","NAN","NAN","NAN"],
    [1536351,"2026-01-13 19:30:00","37341","0.006999999999999999","225.9","0.359","225.7","NAN","NAN","NAN","NAN","NAN"],
    [1536352,"2026-01-13 19:40:00","37342","0.0","225.5","0.033","225.6","NAN","NAN","NAN","NAN","NAN"],
    [1536353,"2026-01-13 19:50:00","37343","0.0","0.0","0","0","NAN","NAN","NAN","NAN","NAN"],
    [1536354,"2026-01-13 20:00:00","37344","0.0","0.0","0","0","NAN","NAN","NAN","NAN","NAN"],
    [1536355,"2026-01-13 20:10:00","37345","0.0","0.0","0","0","NAN","NAN","NAN","NAN","NAN"],
    [1536356,"2026-01-13 20:20:00","37346","0.001","222.7","0.098","222.7","NAN","NAN","NAN","NAN","NAN"],
    [1536357,"2026-01-13 20:30:00","37347","0.14","222.6","0.653","222.6","NAN","NAN","NAN","NAN","NAN"],
    [1536358,"2026-01-13 20:40:00","37348","0.0","0.0","0","0","NAN","NAN","NAN","NAN","NAN"],
    [1536359,"2026-01-13 20:50:00","37349","0.0","233.5","0.098","233.5","NAN","NAN","NAN","NAN","NAN"],
    [1536360,"2026-01-13 21:00:00","37350","0.285","239.5","0.817","240.3","NAN","NAN","NAN","NAN","NAN"],
    [1536361,"2026-01-13 21:10:00","37351","0.102","240.6","0.817","240.6","NAN","NAN","NAN","NAN","NAN"],
    [1536362,"2026-01-13 21:20:00","37352","0.163","240.5","0.719","240.5","NAN","NAN","NAN","NAN","NAN"],
    [1536363,"2026-01-13 21:30:00","37353","0.086","240.5","0.523","240.5","NAN","NAN","NAN","NAN","NAN"],
    [1536364,"2026-01-13 21:40:00","37354","0.002","240.6","0.131","240.6","NAN","NAN","NAN","NAN","NAN"],
    [1536365,"2026-01-13 21:50:00","37355","0.121","240.6","0.817","240.6","NAN","NAN","NAN","NAN","NAN"],
    [1536366,"2026-01-13 22:00:00","37356","0.069","240.7","0.555","240.7","NAN","NAN","NAN","NAN","NAN"],
    [1536367,"2026-01-13 22:10:00","37357","0.467","240.7","1.176","240.7","NAN","NAN","NAN","NAN","NAN"],
    [1536368,"2026-01-13 22:20:00","37358","0.27899999999999997","240.7","1.143","240.8","NAN","NAN","NAN","NAN","NAN"],
    [1536369,"2026-01-13 22:30:00","37359","0.376","240.8","1.209","240.8","NAN","NAN","NAN","NAN","NAN"],
    [1536370,"2026-01-13 22:40:00","37360","0.19699999999999998","240.7","1.307","240.7","NAN","NAN","NAN","NAN","NAN"],
    [1536371,"2026-01-13 22:50:00","37361","0.095","240.7","0.621","240.8","NAN","NAN","NAN","NAN","NAN"],
    [1536372,"2026-01-13 23:00:00","37362","0.305","240.7","0.915","240.7","NAN","NAN","NAN","NAN","NAN"],
    [1536373,"2026-01-13 23:10:00","37363","0.609","240.8","1.307","240.8","NAN","NAN","NAN","NAN","NAN"],
    [1536374,"2026-01-13 23:20:00","37364","0.179","240.8","0.719","240.8","NAN","NAN","NAN","NAN","NAN"],
    [1536375,"2026-01-13 23:30:00","37365","0.18","240.8","1.078","240.8","NAN","NAN","NAN","NAN","NAN"],
    [1536376,"2026-01-13 23:40:00","37366","0.728","240.8","1.405","240.9","NAN","NAN","NAN","NAN","NAN"],
    [1536377,"2026-01-13 23:50:00","37367","1.393","260.4","2.842","269.6","NAN","NAN","NAN","NAN","NAN"],
    [1536378,"2026-01-14 00:00:00","37368","1.178","274.0","2.123","274","NAN","NAN","NAN","NAN","NAN"],
    [1536379,"2026-01-14 00:10:00","37369","1.0390000000000001","274.0","1.699","274","NAN","NAN","NAN","NAN","NAN"],
    [1536380,"2026-01-14 00:20:00","37370","0.6859999999999999","271.6","1.601","271.1","NAN","NAN","NAN","NAN","NAN"],
    [1536381,"2026-01-14 00:30:00","37371","0.857","273.7","1.633","273.9","NAN","NAN","NAN","NAN","NAN"],
    [1536382,"2026-01-14 00:40:00","37372","0.496","274.0","1.307","274","NAN","NAN","NAN","NAN","NAN"],
    [1536383,"2026-01-14 00:50:00","37373","0.762","273.5","1.209","272.4","NAN","NAN","NAN","NAN","NAN"],
    [1536384,"2026-01-14 01:00:00","37374","0.89","272.2","1.372","270.7","NAN","NAN","NAN","NAN","NAN"],
    [1536385,"2026-01-14 01:10:00","37375","1.041","272.2","1.568","271.6","NAN","NAN","NAN","NAN","NAN"],
    [1536386,"2026-01-14 01:20:00","37376","1.272","271.1","1.797","269.9","NAN","NAN","NAN","NAN","NAN"],
    [1536387,"2026-01-14 01:30:00","37377","0.701","272.8","1.895","271.2","NAN","NAN","NAN","NAN","NAN"],
    [1536388,"2026-01-14 01:40:00","37378","0.7709999999999999","271.6","1.927","269","NAN","NAN","NAN","NAN","NAN"],
    [1536389,"2026-01-14 01:50:00","37379","0.764","273.2","1.503","270.8","NAN","NAN","NAN","NAN","NAN"],
    [1536390,"2026-01-14 02:00:00","37380","0.903","273.9","1.535","274","NAN","NAN","NAN","NAN","NAN"],
    [1536391,"2026-01-14 02:10:00","37381","0.76","274.0","2.189","274.1","NAN","NAN","NAN","NAN","NAN"],
    [1536392,"2026-01-14 02:20:00","37382","0.9470000000000001","273.7","1.797","274.1","NAN","NAN","NAN","NAN","NAN"],
    [1536393,"2026-01-14 02:30:00","37383","0.915","273.9","1.503","274.1","NAN","NAN","NAN","NAN","NAN"],
    [1536394,"2026-01-14 02:40:00","37384","1.163","273.9","2.058","274.2","NAN","NAN","NAN","NAN","NAN"],
    [1536395,"2026-01-14 02:50:00","37385","0.8029999999999999","274.3","1.764","274.3","NAN","NAN","NAN","NAN","NAN"],
    [1536396,"2026-01-14 03:00:00","37386","0.409","274.3","1.372","274.3","NAN","NAN","NAN","NAN","NAN"],
    [1536397,"2026-01-14 03:10:00","37387","1.355","274.9","2.483","275.7","NAN","NAN","NAN","NAN","NAN"],
    [1536398,"2026-01-14 03:20:00","37388","1.344","274.7","2.483","270","NAN","NAN","NAN","NAN","NAN"],
    [1536399,"2026-01-14 03:30:00","37389","1.693","273.5","2.385","274.3","NAN","NAN","NAN","NAN","NAN"],
    [1536400,"2026-01-14 03:40:00","37390","2.099","277.0","3.103","268.3","NAN","NAN","NAN","NAN","NAN"],
    [1536401,"2026-01-14 03:50:00","37391","1.8780000000000001","283.7","3.495","275.2","NAN","NAN","NAN","NAN","NAN"],
    [1536402,"2026-01-14 04:00:00","37392","2.194","281.8","3.299","280.5","NAN","NAN","NAN","NAN","NAN"],
    [1536403,"2026-01-14 04:10:00","37393","1.881","283.3","3.136","280.3","NAN","NAN","NAN","NAN","NAN"],
    [1536404,"2026-01-14 04:20:00","37394","1.492","278.0","2.352","284.2","NAN","NAN","NAN","NAN","NAN"],
    [1536405,"2026-01-14 04:30:00","37395","1.358","277.1","2.45","275","NAN","NAN","NAN","NAN","NAN"],
    [1536406,"2026-01-14 04:40:00","37396","1.382","277.6","2.646","276.6","NAN","NAN","NAN","NAN","NAN"],
    [1536407,"2026-01-14 04:50:00","37397","2.383","280.7","3.528","285.8","NAN","NAN","NAN","NAN","NAN"],
    [1536408,"2026-01-14 05:00:00","37398","2.029","279.7","3.299","288","NAN","NAN","NAN","NAN","NAN"],
    [1536409,"2026-01-14 05:10:00","37399","1.785","278.3","3.038","273.7","NAN","NAN","NAN","NAN","NAN"],
    [1536410,"2026-01-14 05:20:00","37400","2.335","278.5","3.593","287.8","NAN","NAN","NAN","NAN","NAN"],
    [1536411,"2026-01-14 05:30:00","37401","2.16","282.7","3.593","278.8","NAN","NAN","NAN","NAN","NAN"],
    [1536412,"2026-01-14 05:40:00","37402","2.286","282.2","3.757","283.2","NAN","NAN","NAN","NAN","NAN"],
    [1536413,"2026-01-14 05:50:00","37403","1.8940000000000001","276.6","2.973","269.9","NAN","NAN","NAN","NAN","NAN"],
    [1536414,"2026-01-14 06:00:00","37404","1.431","273.9","2.45","274.7","NAN","NAN","NAN","NAN","NAN"],
    [1536415,"2026-01-14 06:10:00","37405","1.6869999999999998","273.8","2.581","271.5","NAN","NAN","NAN","NAN","NAN"],
    [1536416,"2026-01-14 06:20:00","37406","1.8559999999999999","279.4","2.777","283.1","NAN","NAN","NAN","NAN","NAN"],
    [1536417,"2026-01-14 06:30:00","37407","1.65","282.7","2.744","286.2","NAN","NAN","NAN","NAN","NAN"],
    [1536418,"2026-01-14 06:40:00","37408","1.7109999999999999","283.2","2.809","283.9","NAN","NAN","NAN","NAN","NAN"],
    [1536419,"2026-01-14 06:50:00","37409","1.271","288.3","2.581","289.6","NAN","NAN","NAN","NAN","NAN"],
    [1536420,"2026-01-14 07:00:00","37410","1.45","278.1","2.221","274.1","NAN","NAN","NAN","NAN","NAN"],
    [1536421,"2026-01-14 07:10:00","37411","1.599","284.3","2.711","289.1","NAN","NAN","NAN","NAN","NAN"],
    [1536422,"2026-01-14 07:20:00","37412","1.0959999999999999","283.2","2.875","288.2","NAN","NAN","NAN","NAN","NAN"],
    [1536423,"2026-01-14 07:30:00","37413","1.124","288.3","2.417","289","NAN","NAN","NAN","NAN","NAN"],
    [1536424,"2026-01-14 07:40:00","37414","1.54","281.7","2.744","289.8","NAN","NAN","NAN","NAN","NAN"],
    [1536425,"2026-01-14 07:50:00","37415","2.045","289.9","3.201","290.5","NAN","NAN","NAN","NAN","NAN"],
    [1536426,"2026-01-14 08:00:00","37416","1.796","285.8","2.483","285.7","NAN","NAN","NAN","NAN","NAN"],
    [1536427,"2026-01-14 08:10:00","37417","1.7","284.0","2.809","282","NAN","NAN","NAN","NAN","NAN"],
    [1536428,"2026-01-14 08:20:00","37418","2.085","277.6","3.136","274.4","NAN","NAN","NAN","NAN","NAN"],
    [1536429,"2026-01-14 08:30:00","37419","2.131","276.3","3.365","269.5","NAN","NAN","NAN","NAN","NAN"],
    [1536430,"2026-01-14 08:40:00","37420","2.164","276.4","3.365","269.9","NAN","NAN","NAN","NAN","NAN"],
    [1536431,"2026-01-14 08:50:00","37421","2.267","290.8","3.495","301.5","NAN","NAN","NAN","NAN","NAN"],
    [1536432,"2026-01-14 09:00:00","37422","2.497","294.3","3.92","289.8","NAN","NAN","NAN","NAN","NAN"],
    [1536433,"2026-01-14 09:10:00","37423","1.841","289.9","3.789","293.4","NAN","NAN","NAN","NAN","NAN"],
    [1536434,"2026-01-14 09:20:00","37424","1.879","286.0","3.365","284.7","NAN","NAN","NAN","NAN","NAN"],
    [1536435,"2026-01-14 09:30:00","37425","1.263","282.9","2.679","295.8","NAN","NAN","NAN","NAN","NAN"],
    [1536436,"2026-01-14 09:40:00","37426","1.679","268.6","3.038","266.8","NAN","NAN","NAN","NAN","NAN"],
    [1536437,"2026-01-14 09:50:00","37427","1.611","274.2","3.528","276.3","NAN","NAN","NAN","NAN","NAN"],
    [1536438,"2026-01-14 10:00:00","37428","2.005","282.4","3.397","278.2","NAN","NAN","NAN","NAN","NAN"],
    [1536439,"2026-01-14 10:10:00","37429","2.01","285.7","3.136","280.7","NAN","NAN","NAN","NAN","NAN"],
    [1536440,"2026-01-14 10:20:00","37430","2.283","288.2","3.463","292.7","NAN","NAN","NAN","NAN","NAN"],
    [1536441,"2026-01-14 10:30:00","37431","1.869","292.5","2.809","292.8","NAN","NAN","NAN","NAN","NAN"],
    [1536442,"2026-01-14 10:40:00","37432","1.881","288.3","2.842","280","NAN","NAN","NAN","NAN","NAN"],
    [1536443,"2026-01-14 10:50:00","37433","1.883","273.7","3.071","268.6","NAN","NAN","NAN","NAN","NAN"],
    [1536444,"2026-01-14 11:00:00","37434","1.9769999999999999","271.5","3.169","277.2","NAN","NAN","NAN","NAN","NAN"],
    [1536445,"2026-01-14 11:10:00","37435","1.6230000000000002","265.4","2.777","262.4","NAN","NAN","NAN","NAN","NAN"],
    [1536446,"2026-01-14 11:20:00","37436","0.348","268.1","1.535","274.7","NAN","NAN","NAN","NAN","NAN"],
    [1536447,"2026-01-14 11:30:00","37437","0.271","264.2","1.633","261.3","NAN","NAN","NAN","NAN","NAN"],
    [1536448,"2026-01-14 11:40:00","37438","0.562","261.1","1.96","260.3","NAN","NAN","NAN","NAN","NAN"],
    [1536449,"2026-01-14 11:50:00","37439","1.133","273.0","2.875","272.7","NAN","NAN","NAN","NAN","NAN"],
    [1536450,"2026-01-14 12:00:00","37440","0.868","268.9","2.515","259.3","NAN","NAN","NAN","NAN","NAN"],
    [1536451,"2026-01-14 12:10:00","37441","0.524","261.9","2.254","267.3","NAN","NAN","NAN","NAN","NAN"],
    [1536452,"2026-01-14 12:20:00","37442","0.272","262.0","1.241","258.3","NAN","NAN","NAN","NAN","NAN"],
    [1536453,"2026-01-14 12:30:00","37443","0.8740000000000001","198.3","3.267","128.4","NAN","NAN","NAN","NAN","NAN"],
    [1536454,"2026-01-14 12:40:00","37444","2.311","128.1","3.332","127.1","NAN","NAN","NAN","NAN","NAN"],
    [1536455,"2026-01-14 12:50:00","37445","1.9080000000000001","133.0","3.103","129.5","NAN","NAN","NAN","NAN","NAN"],
    [1536456,"2026-01-14 13:00:00","37446","1.94","131.9","3.463","135.6","NAN","NAN","NAN","NAN","NAN"],
    [1536457,"2026-01-14 13:10:00","37447","1.9909999999999999","122.9","3.332","109.6","NAN","NAN","NAN","NAN","NAN"],
    [1536458,"2026-01-14 13:20:00","37448","2.1180000000000003","118.6","3.822","132.7","NAN","NAN","NAN","NAN","NAN"],
    [1536459,"2026-01-14 13:30:00","37449","2.307","133.5","3.495","137.4","NAN","NAN","NAN","NAN","NAN"],
    [1536460,"2026-01-14 13:40:00","37450","2.262","132.8","3.822","129.5","NAN","NAN","NAN","NAN","NAN"],
    [1536461,"2026-01-14 13:50:00","37451","2.204","134.6","3.691","142.4","NAN","NAN","NAN","NAN","NAN"],
    [1536462,"2026-01-14 14:00:00","37452","2.588","135.0","3.92","141","NAN","NAN","NAN","NAN","NAN"],
    [1536463,"2026-01-14 14:10:00","37453","2.189","149.0","3.397","153.7","NAN","NAN","NAN","NAN","NAN"],
    [1536464,"2026-01-14 14:20:00","37454","1.6580000000000001","154.7","2.842","154.3","NAN","NAN","NAN","NAN","NAN"],
    [1536465,"2026-01-14 14:30:00","37455","1.675","152.3","2.809","152.9","NAN","NAN","NAN","NAN","NAN"],
    [1536466,"2026-01-14 14:40:00","37456","1.454","142.9","2.417","137.1","NAN","NAN","NAN","NAN","NAN"],
    [1536467,"2026-01-14 14:50:00","37457","1.591","153.5","2.548","152.6","NAN","NAN","NAN","NAN","NAN"],
    [1536468,"2026-01-14 15:00:00","37458","1.671","148.4","2.319","143.1","NAN","NAN","NAN","NAN","NAN"],
    [1536469,"2026-01-14 15:10:00","37459","1.053","157.0","2.548","155.2","NAN","NAN","NAN","NAN","NAN"],
    [1536470,"2026-01-14 15:20:00","37460","1.671","159.2","2.613","152","NAN","NAN","NAN","NAN","NAN"],
    [1536471,"2026-01-14 15:30:00","37461","1.16","158.6","2.025","159.6","NAN","NAN","NAN","NAN","NAN"],
    [1536472,"2026-01-14 15:40:00","37462","1.239","158.6","2.221","161.4","NAN","NAN","NAN","NAN","NAN"],
    [1536473,"2026-01-14 15:50:00","37463","0.32299999999999995","161.6","1.274","161.5","NAN","NAN","NAN","NAN","NAN"],
    [1536474,"2026-01-14 16:00:00","37464","0.519","161.8","1.633","161.8","NAN","NAN","NAN","NAN","NAN"],
    [1536475,"2026-01-14 16:10:00","37465","0.086","161.8","0.784","161.9","NAN","NAN","NAN","NAN","NAN"],
    [1536476,"2026-01-14 16:20:00","37466","0.433","161.9","1.241","161.9","NAN","NAN","NAN","NAN","NAN"],
    [1536477,"2026-01-14 16:30:00","37467","0.368","161.9","1.274","161.9","NAN","NAN","NAN","NAN","NAN"],
    [1536478,"2026-01-14 16:40:00","37468","0.121","161.9","0.849","161.9","NAN","NAN","NAN","NAN","NAN"],
    [1536479,"2026-01-14 16:50:00","37469","0.159","162.0","0.719","161.9","NAN","NAN","NAN","NAN","NAN"],
    [1536480,"2026-01-14 17:00:00","37470","0.146","162.0","1.013","161.9","NAN","NAN","NAN","NAN","NAN"],
    [1536481,"2026-01-14 17:10:00","37471","0.115","161.9","0.686","161.9","NAN","NAN","NAN","NAN","NAN"],
    [1536482,"2026-01-14 17:20:00","37472","0.005","161.9","0.294","161.9","NAN","NAN","NAN","NAN","NAN"],
    [1536483,"2026-01-14 17:30:00","37473","0.129","161.9","1.013","161.9","NAN","NAN","NAN","NAN","NAN"],
    [1536484,"2026-01-14 17:40:00","37474","0.038","161.9","0.392","161.9","NAN","NAN","NAN","NAN","NAN"],
    [1536485,"2026-01-14 17:50:00","37475","0.001","162.0","0.163","162","NAN","NAN","NAN","NAN","NAN"],
    [1536486,"2026-01-14 18:00:00","37476","0.0","0.0","0","0","NAN","NAN","NAN","NAN","NAN"],
    [1536487,"2026-01-14 18:10:00","37477","0.022000000000000002","161.9","0.457","161.9","NAN","NAN","NAN","NAN","NAN"],
    [1536488,"2026-01-14 18:20:00","37478","0.006999999999999999","161.9","0.392","161.9","NAN","NAN","NAN","NAN","NAN"],
    [1536489,"2026-01-14 18:30:00","37479","0.0","0.0","0","0","NAN","NAN","NAN","NAN","NAN"],
    [1536490,"2026-01-14 18:40:00","37480","0.0","0.0","0","0","NAN","NAN","NAN","NAN","NAN"],
    [1536491,"2026-01-14 18:50:00","37481","0.006999999999999999","161.9","0.457","161.9","NAN","NAN","NAN","NAN","NAN"],
    [1536492,"2026-01-14 19:00:00","37482","0.0","0.0","0","0","NAN","NAN","NAN","NAN","NAN"],
    [1536493,"2026-01-14 19:10:00","37483","0.027000000000000003","161.9","0.523","161.9","NAN","NAN","NAN","NAN","NAN"],
    [1536494,"2026-01-14 19:20:00","37484","0.011000000000000001","162.0","0.457","162","NAN","NAN","NAN","NAN","NAN"],
    [1536495,"2026-01-14 19:30:00","37485","0.008","162.1","0.457","162.1","NAN","NAN","NAN","NAN","NAN"],
    [1536496,"2026-01-14 19:40:00","37486","0.11699999999999999","162.1","0.784","162.1","NAN","NAN","NAN","NAN","NAN"],
    [1536497,"2026-01-14 19:50:00","37487","0.024","162.1","0.588","162.1","NAN","NAN","NAN","NAN","NAN"],
    [1536498,"2026-01-14 20:00:00","37488","0.0","0.0","0","0","NAN","NAN","NAN","NAN","NAN"],
    [1536499,"2026-01-14 20:10:00","37489","0.043","162.4","0.523","162.3","NAN","NAN","NAN","NAN","NAN"],
    [1536500,"2026-01-14 20:20:00","37490","0.0","0.0","0","0","NAN","NAN","NAN","NAN","NAN"],
    [1536501,"2026-01-14 20:30:00","37491","0.003","162.4","0.261","162.4","NAN","NAN","NAN","NAN","NAN"],
    [1536502,"2026-01-14 20:40:00","37492","0.044000000000000004","162.4","0.49","162.4","NAN","NAN","NAN","NAN","NAN"],
    [1536503,"2026-01-14 20:50:00","37493","0.006999999999999999","162.4","0.425","162.4","NAN","NAN","NAN","NAN","NAN"],
    [1536504,"2026-01-14 21:00:00","37494","0.005","162.5","0.359","162.5","NAN","NAN","NAN","NAN","NAN"],
    [1536505,"2026-01-14 21:10:00","37495","0.0","162.5","0.033","162.5","NAN","NAN","NAN","NAN","NAN"],
    [1536506,"2026-01-14 21:20:00","37496","0.0","0.0","0","0","NAN","NAN","NAN","NAN","NAN"],
    [1536507,"2026-01-14 21:30:00","37497","0.18","162.6","0.882","162.6","NAN","NAN","NAN","NAN","NAN"],
    [1536508,"2026-01-14 21:40:00","37498","1.1","212.1","2.613","272.8","NAN","NAN","NAN","NAN","NAN"],
    [1536509,"2026-01-14 21:50:00","37499","1.453","272.9","2.483","272.9","NAN","NAN","NAN","NAN","NAN"],
    [1536510,"2026-01-14 22:00:00","37500","1.162","267.3","1.862","273.1","NAN","NAN","NAN","NAN","NAN"],
    [1536511,"2026-01-14 22:10:00","37501","0.825","265.7","1.339","263","NAN","NAN","NAN","NAN","NAN"],
    [1536512,"2026-01-14 22:20:00","37502","0.924","265.2","1.535","263.4","NAN","NAN","NAN","NAN","NAN"],
    [1536513,"2026-01-14 22:30:00","37503","0.6920000000000001","268.5","1.307","270.6","NAN","NAN","NAN","NAN","NAN"],
    [1536514,"2026-01-14 22:40:00","37504","0.515","269.7","1.241","269.1","NAN","NAN","NAN","NAN","NAN"],
    [1536515,"2026-01-14 22:50:00","37505","1.006","263.2","1.601","263.5","NAN","NAN","NAN","NAN","NAN"],
    [1536516,"2026-01-14 23:00:00","37506","1.391","264.6","1.862","266.4","NAN","NAN","NAN","NAN","NAN"],
    [1536517,"2026-01-14 23:10:00","37507","0.8420000000000001","269.4","1.405","265.1","NAN","NAN","NAN","NAN","NAN"],
    [1536518,"2026-01-14 23:20:00","37508","0.073","272.1","1.176","272.2","NAN","NAN","NAN","NAN","NAN"],
    [1536519,"2026-01-14 23:30:00","37509","0.125","272.2","0.947","272.2","NAN","NAN","NAN","NAN","NAN"],
    [1536520,"2026-01-14 23:40:00","37510","0.951","270.1","1.666","266.8","NAN","NAN","NAN","NAN","NAN"],
    [1536521,"2026-01-14 23:50:00","37511","0.961","272.4","1.829","273","NAN","NAN","NAN","NAN","NAN"],
    [1536522,"2026-01-15 00:00:00","37512","0.9359999999999999","273.1","1.829","273.1","NAN","NAN","NAN","NAN","NAN"],
    [1536523,"2026-01-15 00:10:00","37513","0.18899999999999997","273.1","0.915","273.1","NAN","NAN","NAN","NAN","NAN"],
    [1536524,"2026-01-15 00:20:00","37514","0.025","272.4","0.621","272.7","NAN","NAN","NAN","NAN","NAN"],
    [1536525,"2026-01-15 00:30:00","37515","0.665","262.3","1.437","262","NAN","NAN","NAN","NAN","NAN"],
    [1536526,"2026-01-15 00:40:00","37516","1.3730000000000002","260.7","2.254","260.1","NAN","NAN","NAN","NAN","NAN"],
    [1536527,"2026-01-15 00:50:00","37517","1.472","266.5","2.711","263.3","NAN","NAN","NAN","NAN","NAN"],
    [1536528,"2026-01-15 01:00:00","37518","1.521","269.8","2.287","269.2","NAN","NAN","NAN","NAN","NAN"],
    [1536529,"2026-01-15 01:10:00","37519","1.47","270.2","2.352","271.2","NAN","NAN","NAN","NAN","NAN"],
    [1536530,"2026-01-15 01:20:00","37520","1.196","272.3","1.862","272.8","NAN","NAN","NAN","NAN","NAN"],
    [1536531,"2026-01-15 01:30:00","37521","0.69","272.6","1.568","272.9","NAN","NAN","NAN","NAN","NAN"],
    [1536532,"2026-01-15 01:40:00","37522","0.7490000000000001","273.0","1.307","273.1","NAN","NAN","NAN","NAN","NAN"],
    [1536533,"2026-01-15 01:50:00","37523","0.5479999999999999","273.0","1.503","273","NAN","NAN","NAN","NAN","NAN"],
    [1536534,"2026-01-15 02:00:00","37524","0.89","267.7","1.699","264.6","NAN","NAN","NAN","NAN","NAN"],
    [1536535,"2026-01-15 02:10:00","37525","0.6","271.1","1.372","272.9","NAN","NAN","NAN","NAN","NAN"],
    [1536536,"2026-01-15 02:20:00","37526","0.978","273.0","1.764","273","NAN","NAN","NAN","NAN","NAN"],
    [1536537,"2026-01-15 02:30:00","37527","1.021","273.1","2.221","273.2","NAN","NAN","NAN","NAN","NAN"],
    [1536538,"2026-01-15 02:40:00","37528","1.435","273.0","2.907","273.3","NAN","NAN","NAN","NAN","NAN"],
    [1536539,"2026-01-15 02:50:00","37529","1.742","273.1","2.646","273.4","NAN","NAN","NAN","NAN","NAN"],
    [1536540,"2026-01-15 03:00:00","37530","2.029","275.7","3.887","277.9","NAN","NAN","NAN","NAN","NAN"],
    [1536541,"2026-01-15 03:10:00","37531","1.314","274.9","1.96","277","NAN","NAN","NAN","NAN","NAN"],
    [1536542,"2026-01-15 03:20:00","37532","1.829","276.5","3.005","275.7","NAN","NAN","NAN","NAN","NAN"],
    [1536543,"2026-01-15 03:30:00","37533","1.79","277.9","3.136","276.9","NAN","NAN","NAN","NAN","NAN"],
    [1536544,"2026-01-15 03:40:00","37534","2.133","278.1","3.169","279.2","NAN","NAN","NAN","NAN","NAN"],
    [1536545,"2026-01-15 03:50:00","37535","1.367","286.9","3.103","283.5","NAN","NAN","NAN","NAN","NAN"],
    [1536546,"2026-01-15 04:00:00","37536","1.0390000000000001","288.4","2.189","290.3","NAN","NAN","NAN","NAN","NAN"],
    [1536547,"2026-01-15 04:10:00","37537","0.7120000000000001","290.3","2.287","290.3","NAN","NAN","NAN","NAN","NAN"],
    [1536548,"2026-01-15 04:20:00","37538","0.35","287.3","1.176","287.4","NAN","NAN","NAN","NAN","NAN"],
    [1536549,"2026-01-15 04:30:00","37539","0.763","278.1","1.829","276.8","NAN","NAN","NAN","NAN","NAN"],
    [1536550,"2026-01-15 04:40:00","37540","0.447","276.8","1.143","276.9","NAN","NAN","NAN","NAN","NAN"],
    [1536551,"2026-01-15 04:50:00","37541","0.555","289.2","1.862","289.5","NAN","NAN","NAN","NAN","NAN"],
    [1536552,"2026-01-15 05:00:00","37542","1.0270000000000001","290.5","2.058","290.9","NAN","NAN","NAN","NAN","NAN"],
    [1536553,"2026-01-15 05:10:00","37543","1.8230000000000002","285.3","2.907","278","NAN","NAN","NAN","NAN","NAN"],
    [1536554,"2026-01-15 05:20:00","37544","0.875","288.8","2.483","292.3","NAN","NAN","NAN","NAN","NAN"],
    [1536555,"2026-01-15 05:30:00","37545","1.764","284.8","3.365","296.3","NAN","NAN","NAN","NAN","NAN"],
    [1536556,"2026-01-15 05:40:00","37546","2.195","286.2","3.136","277.5","NAN","NAN","NAN","NAN","NAN"],
    [1536557,"2026-01-15 05:50:00","37547","2.13","282.3","3.169","288.2","NAN","NAN","NAN","NAN","NAN"],
    [1536558,"2026-01-15 06:00:00","37548","1.9709999999999999","284.6","2.907","289.2","NAN","NAN","NAN","NAN","NAN"],
    [1536559,"2026-01-15 06:10:00","37549","1.609","289.2","2.777","293.2","NAN","NAN","NAN","NAN","NAN"],
    [1536560,"2026-01-15 06:20:00","37550","2.0909999999999997","294.3","3.593","299.9","NAN","NAN","NAN","NAN","NAN"],
    [1536561,"2026-01-15 06:30:00","37551","1.931","304.3","3.887","302.3","NAN","NAN","NAN","NAN","NAN"],
    [1536562,"2026-01-15 06:40:00","37552","2.044","295.5","3.626","292.3","NAN","NAN","NAN","NAN","NAN"],
    [1536563,"2026-01-15 06:50:00","37553","1.547","288.5","3.005","292.3","NAN","NAN","NAN","NAN","NAN"],
    [1536564,"2026-01-15 07:00:00","37554","1.8219999999999998","290.6","2.973","286.6","NAN","NAN","NAN","NAN","NAN"],
    [1536565,"2026-01-15 07:10:00","37555","2.004","301.9","3.201","316.2","NAN","NAN","NAN","NAN","NAN"],
    [1536566,"2026-01-15 07:20:00","37556","2.093","314.5","3.789","302.8","NAN","NAN","NAN","NAN","NAN"],
    [1536567,"2026-01-15 07:30:00","37557","1.9480000000000002","319.0","4.345","322.7","NAN","NAN","NAN","NAN","NAN"],
    [1536568,"2026-01-15 07:40:00","37558","2.842","311.4","5.325","338.7","NAN","NAN","NAN","NAN","NAN"],
    [1536569,"2026-01-15 07:50:00","37559","2.6260000000000003","299.9","3.985","314.5","NAN","NAN","NAN","NAN","NAN"],
    [1536570,"2026-01-15 08:00:00","37560","1.885","284.7","3.495","287.1","NAN","NAN","NAN","NAN","NAN"],
    [1536571,"2026-01-15 08:10:00","37561","2.505","287.2","3.724","288.9","NAN","NAN","NAN","NAN","NAN"],
    [1536572,"2026-01-15 08:20:00","37562","2.635","281.0","4.116","282.4","NAN","NAN","NAN","NAN","NAN"],
    [1536573,"2026-01-15 08:30:00","37563","2.513","279.8","4.377","284.7","NAN","NAN","NAN","NAN","NAN"],
    [1536574,"2026-01-15 08:40:00","37564","2.145","277.4","3.43","275.7","NAN","NAN","NAN","NAN","NAN"],
    [1536575,"2026-01-15 08:50:00","37565","2.155","270.5","3.43","264.1","NAN","NAN","NAN","NAN","NAN"],
    [1536576,"2026-01-15 09:00:00","37566","2.513","267.3","3.659","268.6","NAN","NAN","NAN","NAN","NAN"],
    [1536577,"2026-01-15 09:10:00","37567","2.406","265.6","3.691","259.8","NAN","NAN","NAN","NAN","NAN"],
    [1536578,"2026-01-15 09:20:00","37568","2.51","266.0","3.528","260.1","NAN","NAN","NAN","NAN","NAN"],
    [1536579,"2026-01-15 09:30:00","37569","2.5989999999999998","267.7","4.116","271.8","NAN","NAN","NAN","NAN","NAN"],
    [1536580,"2026-01-15 09:40:00","37570","2.7110000000000003","270.8","4.149","278.5","NAN","NAN","NAN","NAN","NAN"],
    [1536581,"2026-01-15 09:50:00","37571","2.826","279.2","4.377","281.9","NAN","NAN","NAN","NAN","NAN"],
    [1536582,"2026-01-15 10:00:00","37572","3.537","293.9","5.194","288.7","NAN","NAN","NAN","NAN","NAN"],
    [1536583,"2026-01-15 10:10:00","37573","2.795","294.3","4.639","298.2","NAN","NAN","NAN","NAN","NAN"],
    [1536584,"2026-01-15 10:20:00","37574","2.2119999999999997","292.2","3.789","299.1","NAN","NAN","NAN","NAN","NAN"],
    [1536585,"2026-01-15 10:30:00","37575","1.955","282.1","3.626","277","NAN","NAN","NAN","NAN","NAN"],
    [1536586,"2026-01-15 10:40:00","37576","1.94","284.9","3.103","279.1","NAN","NAN","NAN","NAN","NAN"],
    [1536587,"2026-01-15 10:50:00","37577","2.451","270.3","3.659","268.7","NAN","NAN","NAN","NAN","NAN"],
    [1536588,"2026-01-15 11:00:00","37578","1.9969999999999999","272.1","4.443","286.6","NAN","NAN","NAN","NAN","NAN"],
    [1536589,"2026-01-15 11:10:00","37579","1.814","264.3","3.626","267","NAN","NAN","NAN","NAN","NAN"],
    [1536590,"2026-01-15 11:20:00","37580","2.291","256.2","4.214","253.7","NAN","NAN","NAN","NAN","NAN"],
    [1536591,"2026-01-15 11:30:00","37581","1.86","258.0","4.051","247.9","NAN","NAN","NAN","NAN","NAN"],
    [1536592,"2026-01-15 11:40:00","37582","1.995","235.3","3.789","248.4","NAN","NAN","NAN","NAN","NAN"],
    [1536593,"2026-01-15 11:50:00","37583","2.6889999999999996","248.2","5.129","264.5","NAN","NAN","NAN","NAN","NAN"],
    [1536594,"2026-01-15 12:00:00","37584","3.002","253.7","5.455","248.2","NAN","NAN","NAN","NAN","NAN"],
    [1536595,"2026-01-15 12:10:00","37585","2.918","237.8","4.835","239.1","NAN","NAN","NAN","NAN","NAN"],
    [1536596,"2026-01-15 12:20:00","37586","2.72","253.4","4.867","254.3","NAN","NAN","NAN","NAN","NAN"],
    [1536597,"2026-01-15 12:30:00","37587","3.035","238.0","5.227","224.6","NAN","NAN","NAN","NAN","NAN"],
    [1536598,"2026-01-15 12:40:00","37588","2.748","233.4","4.769","257.1","NAN","NAN","NAN","NAN","NAN"],
    [1536599,"2026-01-15 12:50:00","37589","3.04","236.1","4.965","221.9","NAN","NAN","NAN","NAN","NAN"],
    [1536600,"2026-01-15 13:00:00","37590","3.029","220.0","5.063","217.4","NAN","NAN","NAN","NAN","NAN"],
    [1536601,"2026-01-15 13:10:00","37591","3.555","206.9","5.619","207.5","NAN","NAN","NAN","NAN","NAN"],
    [1536602,"2026-01-15 13:20:00","37592","3.073","204.0","6.011","212.1","NAN","NAN","NAN","NAN","NAN"],
    [1536603,"2026-01-15 13:30:00","37593","3.641","202.7","5.945","212","NAN","NAN","NAN","NAN","NAN"],
    [1536604,"2026-01-15 13:40:00","37594","3.733","213.5","6.011","210.5","NAN","NAN","NAN","NAN","NAN"],
    [1536605,"2026-01-15 13:50:00","37595","3.637","208.1","5.553","210.1","NAN","NAN","NAN","NAN","NAN"],
    [1536606,"2026-01-15 14:00:00","37596","3.3480000000000003","216.5","6.141","230.1","NAN","NAN","NAN","NAN","NAN"],
    [1536607,"2026-01-15 14:10:00","37597","3.063","218.1","5.423","221.5","NAN","NAN","NAN","NAN","NAN"],
    [1536608,"2026-01-15 14:20:00","37598","3.674","218.0","6.272","212.8","NAN","NAN","NAN","NAN","NAN"],
    [1536609,"2026-01-15 14:30:00","37599","4.581","215.2","7.317","224.1","NAN","NAN","NAN","NAN","NAN"],
    [1536610,"2026-01-15 14:40:00","37600","3.623","224.9","6.827","223.7","NAN","NAN","NAN","NAN","NAN"],
    [1536611,"2026-01-15 14:50:00","37601","3.986","223.0","6.893","211.6","NAN","NAN","NAN","NAN","NAN"],
    [1536612,"2026-01-15 15:00:00","37602","3.947","218.6","6.795","222","NAN","NAN","NAN","NAN","NAN"],
    [1536613,"2026-01-15 15:10:00","37603","4.465","214.1","6.795","206.4","NAN","NAN","NAN","NAN","NAN"],
    [1536614,"2026-01-15 15:20:00","37604","4.163","216.3","6.697","223.7","NAN","NAN","NAN","NAN","NAN"],
    [1536615,"2026-01-15 15:30:00","37605","3.8539999999999996","220.8","6.958","225.1","NAN","NAN","NAN","NAN","NAN"],
    [1536616,"2026-01-15 15:40:00","37606","3.435","220.5","6.566","225.2","NAN","NAN","NAN","NAN","NAN"],
    [1536617,"2026-01-15 15:50:00","37607","3.303","215.5","5.651","239.7","NAN","NAN","NAN","NAN","NAN"],
    [1536618,"2026-01-15 16:00:00","37608","3.258","216.4","5.357","213.8","NAN","NAN","NAN","NAN","NAN"],
    [1536619,"2026-01-15 16:10:00","37609","2.957","213.7","5.259","218.6","NAN","NAN","NAN","NAN","NAN"],
    [1536620,"2026-01-15 16:20:00","37610","2.7960000000000003","217.9","5.129","236.1","NAN","NAN","NAN","NAN","NAN"],
    [1536621,"2026-01-15 16:30:00","37611","2.8739999999999997","216.7","4.508","204.3","NAN","NAN","NAN","NAN","NAN"],
    [1536622,"2026-01-15 16:40:00","37612","2.773","215.5","4.508","218.2","NAN","NAN","NAN","NAN","NAN"],
    [1536623,"2026-01-15 16:50:00","37613","2.792","221.8","5.292","231.5","NAN","NAN","NAN","NAN","NAN"],
    [1536624,"2026-01-15 17:00:00","37614","2.335","226.1","4.247","231","NAN","NAN","NAN","NAN","NAN"],
    [1536625,"2026-01-15 17:10:00","37615","2.35","225.0","4.671","234.1","NAN","NAN","NAN","NAN","NAN"],
    [1536626,"2026-01-15 17:20:00","37616","2.218","225.6","3.92","216.7","NAN","NAN","NAN","NAN","NAN"],
    [1536627,"2026-01-15 17:30:00","37617","2.0980000000000003","227.1","3.92","230.9","NAN","NAN","NAN","NAN","NAN"],
    [1536628,"2026-01-15 17:40:00","37618","2.116","236.4","3.659","247.7","NAN","NAN","NAN","NAN","NAN"],
    [1536629,"2026-01-15 17:50:00","37619","2.138","241.8","3.332","249","NAN","NAN","NAN","NAN","NAN"],
    [1536630,"2026-01-15 18:00:00","37620","1.796","241.1","2.711","247.8","NAN","NAN","NAN","NAN","NAN"],
    [1536631,"2026-01-15 18:10:00","37621","1.527","232.9","2.679","232.6","NAN","NAN","NAN","NAN","NAN"],
    [1536632,"2026-01-15 18:20:00","37622","1.795","243.0","3.136","242.9","NAN","NAN","NAN","NAN","NAN"],
    [1536633,"2026-01-15 18:30:00","37623","1.9269999999999998","243.7","3.071","244.3","NAN","NAN","NAN","NAN","NAN"],
    [1536634,"2026-01-15 18:40:00","37624","1.4480000000000002","234.4","3.038","239.8","NAN","NAN","NAN","NAN","NAN"],
    [1536635,"2026-01-15 18:50:00","37625","1.005","231.6","2.319","235.6","NAN","NAN","NAN","NAN","NAN"],
    [1536636,"2026-01-15 19:00:00","37626","1.2690000000000001","242.4","2.091","229.2","NAN","NAN","NAN","NAN","NAN"],
    [1536637,"2026-01-15 19:10:00","37627","1.52","244.0","2.646","248","NAN","NAN","NAN","NAN","NAN"],
    [1536638,"2026-01-15 19:20:00","37628","1.585","245.2","2.777","242.1","NAN","NAN","NAN","NAN","NAN"],
    [1536639,"2026-01-15 19:30:00","37629","1.5919999999999999","252.4","2.548","251.9","NAN","NAN","NAN","NAN","NAN"],
    [1536640,"2026-01-15 19:40:00","37630","0.847","252.7","1.797","252.7","NAN","NAN","NAN","NAN","NAN"],
    [1536641,"2026-01-15 19:50:00","37631","0.9490000000000001","252.0","1.503","251.7","NAN","NAN","NAN","NAN","NAN"],
    [1536642,"2026-01-15 20:00:00","37632","0.5329999999999999","252.7","1.111","252.5","NAN","NAN","NAN","NAN","NAN"],
    [1536643,"2026-01-15 20:10:00","37633","0.282","252.7","0.784","252.7","NAN","NAN","NAN","NAN","NAN"],
    [1536644,"2026-01-15 20:20:00","37634","0.212","252.7","1.045","252.7","NAN","NAN","NAN","NAN","NAN"],
    [1536645,"2026-01-15 20:30:00","37635","0.385","252.7","0.947","252.8","NAN","NAN","NAN","NAN","NAN"],
    [1536646,"2026-01-15 20:40:00","37636","0.168","252.7","0.882","252.7","NAN","NAN","NAN","NAN","NAN"],
    [1536647,"2026-01-15 20:50:00","37637","0.522","252.7","1.045","252.8","NAN","NAN","NAN","NAN","NAN"],
    [1536648,"2026-01-15 21:00:00","37638","0.444","252.8","0.849","252.7","NAN","NAN","NAN","NAN","NAN"],
    [1536649,"2026-01-15 21:10:00","37639","0.18600000000000003","252.7","0.784","252.6","NAN","NAN","NAN","NAN","NAN"],
    [1536650,"2026-01-15 21:20:00","37640","0.374","252.6","0.882","252.6","NAN","NAN","NAN","NAN","NAN"],
    [1536651,"2026-01-15 21:30:00","37641","0.968","252.7","1.568","252.6","NAN","NAN","NAN","NAN","NAN"],
    [1536652,"2026-01-15 21:40:00","37642","0.743","252.7","1.372","252.6","NAN","NAN","NAN","NAN","NAN"],
    [1536653,"2026-01-15 21:50:00","37643","1.053","252.7","1.47","252.8","NAN","NAN","NAN","NAN","NAN"],
    [1536654,"2026-01-15 22:00:00","37644","0.609","252.8","1.241","252.8","NAN","NAN","NAN","NAN","NAN"],
    [1536655,"2026-01-15 22:10:00","37645","0.809","252.8","1.241","252.8","NAN","NAN","NAN","NAN","NAN"],
    [1536656,"2026-01-15 22:20:00","37646","1.079","252.3","1.503","252.7","NAN","NAN","NAN","NAN","NAN"],
    [1536657,"2026-01-15 22:30:00","37647","1.505","252.5","2.058","252.7","NAN","NAN","NAN","NAN","NAN"],
    [1536658,"2026-01-15 22:40:00","37648","1.345","252.7","2.123","252.7","NAN","NAN","NAN","NAN","NAN"],
    [1536659,"2026-01-15 22:50:00","37649","1.5090000000000001","252.7","2.287","252.8","NAN","NAN","NAN","NAN","NAN"],
    [1536660,"2026-01-15 23:00:00","37650","1.3840000000000001","252.8","2.123","252.8","NAN","NAN","NAN","NAN","NAN"],
    [1536661,"2026-01-15 23:10:00","37651","1.176","252.8","1.862","252.8","NAN","NAN","NAN","NAN","NAN"],
    [1536662,"2026-01-15 23:20:00","37652","0.557","252.8","1.274","252.8","NAN","NAN","NAN","NAN","NAN"],
    [1536663,"2026-01-15 23:30:00","37653","1.145","252.8","1.895","252.8","NAN","NAN","NAN","NAN","NAN"],
    [1536664,"2026-01-15 23:40:00","37654","1.171","252.8","1.731","252.8","NAN","NAN","NAN","NAN","NAN"],
    [1536665,"2026-01-15 23:50:00","37655","1.062","252.8","1.731","252.8","NAN","NAN","NAN","NAN","NAN"],
    [1536666,"2026-01-16 00:00:00","37656","1.03","252.8","1.535","252.8","NAN","NAN","NAN","NAN","NAN"],
    [1536667,"2026-01-16 00:10:00","37657","1.2890000000000001","252.8","1.96","252.8","NAN","NAN","NAN","NAN","NAN"],
    [1536668,"2026-01-16 00:20:00","37658","1.238","252.9","2.254","252.9","NAN","NAN","NAN","NAN","NAN"],
    [1536669,"2026-01-16 00:30:00","37659","0.35","252.9","1.927","252.9","NAN","NAN","NAN","NAN","NAN"],
    [1536670,"2026-01-16 00:40:00","37660","1.416","252.9","2.45","253","NAN","NAN","NAN","NAN","NAN"],
    [1536671,"2026-01-16 00:50:00","37661","1.521","253.0","2.058","253","NAN","NAN","NAN","NAN","NAN"],
    [1536672,"2026-01-16 01:00:00","37662","1.364","253.0","2.058","253","NAN","NAN","NAN","NAN","NAN"],
    [1536673,"2026-01-16 01:10:00","37663","0.816","253.0","1.666","253","NAN","NAN","NAN","NAN","NAN"],
    [1536674,"2026-01-16 01:20:00","37664","0.862","253.0","1.601","253","NAN","NAN","NAN","NAN","NAN"],
    [1536675,"2026-01-16 01:30:00","37665","0.733","252.9","1.568","252.9","NAN","NAN","NAN","NAN","NAN"],
    [1536676,"2026-01-16 01:40:00","37666","0.599","252.9","1.437","252.9","NAN","NAN","NAN","NAN","NAN"],
    [1536677,"2026-01-16 01:50:00","37667","0.536","252.9","1.241","252.9","NAN","NAN","NAN","NAN","NAN"],
    [1536678,"2026-01-16 02:00:00","37668","1.026","252.9","1.568","252.9","NAN","NAN","NAN","NAN","NAN"],
    [1536679,"2026-01-16 02:10:00","37669","1.135","252.9","1.895","252.9","NAN","NAN","NAN","NAN","NAN"],
    [1536680,"2026-01-16 02:20:00","37670","0.106","253.0","0.817","253","NAN","NAN","NAN","NAN","NAN"],
    [1536681,"2026-01-16 02:30:00","37671","0.898","252.4","1.764","253","NAN","NAN","NAN","NAN","NAN"],
    [1536682,"2026-01-16 02:40:00","37672","1.364","253.0","1.927","253","NAN","NAN","NAN","NAN","NAN"],
    [1536683,"2026-01-16 02:50:00","37673","1.28","253.0","1.927","253","NAN","NAN","NAN","NAN","NAN"],
    [1536684,"2026-01-16 03:00:00","37674","1.085","253.0","1.764","253","NAN","NAN","NAN","NAN","NAN"],
    [1536685,"2026-01-16 03:10:00","37675","0.237","253.0","1.013","253","NAN","NAN","NAN","NAN","NAN"],
    [1536686,"2026-01-16 03:20:00","37676","0.0","0.0","0","0","NAN","NAN","NAN","NAN","NAN"],
    [1536687,"2026-01-16 03:30:00","37677","0.237","251.9","1.601","253","NAN","NAN","NAN","NAN","NAN"],
    [1536688,"2026-01-16 03:40:00","37678","1.7209999999999999","253.1","2.123","253","NAN","NAN","NAN","NAN","NAN"],
    [1536689,"2026-01-16 03:50:00","37679","1.218","253.1","2.058","253.1","NAN","NAN","NAN","NAN","NAN"],
    [1536690,"2026-01-16 04:00:00","37680","0.602","253.1","1.209","253.1","NAN","NAN","NAN","NAN","NAN"],
    [1536691,"2026-01-16 04:10:00","37681","0.24100000000000002","253.1","1.274","253.1","NAN","NAN","NAN","NAN","NAN"],
    [1536692,"2026-01-16 04:20:00","37682","0.0","253.1","0.033","253.1","NAN","NAN","NAN","NAN","NAN"],
    [1536693,"2026-01-16 04:30:00","37683","0.162","253.1","1.045","253.1","NAN","NAN","NAN","NAN","NAN"],
    [1536694,"2026-01-16 04:40:00","37684","1.367","253.2","2.319","253.2","NAN","NAN","NAN","NAN","NAN"],
    [1536695,"2026-01-16 04:50:00","37685","1.163","256.1","2.058","257.8","NAN","NAN","NAN","NAN","NAN"],
    [1536696,"2026-01-16 05:00:00","37686","0.871","260.6","2.058","260.6","NAN","NAN","NAN","NAN","NAN"],
    [1536697,"2026-01-16 05:10:00","37687","0.985","260.6","2.189","260.6","NAN","NAN","NAN","NAN","NAN"],
    [1536698,"2026-01-16 05:20:00","37688","1.255","264.3","2.646","261.7","NAN","NAN","NAN","NAN","NAN"],
    [1536699,"2026-01-16 05:30:00","37689","1.028","267.2","2.254","267.2","NAN","NAN","NAN","NAN","NAN"],
    [1536700,"2026-01-16 05:40:00","37690","1.133","267.2","1.862","267.2","NAN","NAN","NAN","NAN","NAN"],
    [1536701,"2026-01-16 05:50:00","37691","0.93","266.7","1.666","267.1","NAN","NAN","NAN","NAN","NAN"],
    [1536702,"2026-01-16 06:00:00","37692","1.113","262.0","2.123","266.2","NAN","NAN","NAN","NAN","NAN"],
    [1536703,"2026-01-16 06:10:00","37693","1.844","268.1","2.875","268.4","NAN","NAN","NAN","NAN","NAN"],
    [1536704,"2026-01-16 06:20:00","37694","1.6440000000000001","266.8","2.679","261.8","NAN","NAN","NAN","NAN","NAN"],
    [1536705,"2026-01-16 06:30:00","37695","1.126","269.0","1.927","268.6","NAN","NAN","NAN","NAN","NAN"],
    [1536706,"2026-01-16 06:40:00","37696","1.463","267.7","2.679","269.9","NAN","NAN","NAN","NAN","NAN"],
    [1536707,"2026-01-16 06:50:00","37697","2.074","268.0","2.973","268.2","NAN","NAN","NAN","NAN","NAN"],
    [1536708,"2026-01-16 07:00:00","37698","1.2819999999999998","265.9","2.156","269.6","NAN","NAN","NAN","NAN","NAN"],
    [1536709,"2026-01-16 07:10:00","37699","1.758","263.0","3.005","267.9","NAN","NAN","NAN","NAN","NAN"],
    [1536710,"2026-01-16 07:20:00","37700","1.521","265.7","2.483","268.9","NAN","NAN","NAN","NAN","NAN"],
    [1536711,"2026-01-16 07:30:00","37701","1.0959999999999999","261.5","2.156","263.4","NAN","NAN","NAN","NAN","NAN"],
    [1536712,"2026-01-16 07:40:00","37702","1.9980000000000002","269.3","3.071","270.2","NAN","NAN","NAN","NAN","NAN"],
    [1536713,"2026-01-16 07:50:00","37703","1.369","268.4","2.515","270.1","NAN","NAN","NAN","NAN","NAN"],
    [1536714,"2026-01-16 08:00:00","37704","0.24","269.2","1.666","270.1","NAN","NAN","NAN","NAN","NAN"],
    [1536715,"2026-01-16 08:10:00","37705","1.2229999999999999","270.9","1.895","271.1","NAN","NAN","NAN","NAN","NAN"],
    [1536716,"2026-01-16 08:20:00","37706","1.035","269.2","2.613","271.2","NAN","NAN","NAN","NAN","NAN"],
    [1536717,"2026-01-16 08:30:00","37707","0.899","271.1","2.319","271.4","NAN","NAN","NAN","NAN","NAN"],
    [1536718,"2026-01-16 08:40:00","37708","1.58","270.4","2.613","269.4","NAN","NAN","NAN","NAN","NAN"],
    [1536719,"2026-01-16 08:50:00","37709","2.024","274.1","3.103","282.5","NAN","NAN","NAN","NAN","NAN"],
    [1536720,"2026-01-16 09:00:00","37710","2.53","285.1","3.463","278.4","NAN","NAN","NAN","NAN","NAN"],
    [1536721,"2026-01-16 09:10:00","37711","2.117","285.8","3.234","290.5","NAN","NAN","NAN","NAN","NAN"],
    [1536722,"2026-01-16 09:20:00","37712","2.27","283.8","3.365","276.2","NAN","NAN","NAN","NAN","NAN"],
    [1536723,"2026-01-16 09:30:00","37713","2.401","278.9","3.92","280.3","NAN","NAN","NAN","NAN","NAN"],
    [1536724,"2026-01-16 09:40:00","37714","2.336","277.5","3.626","270.8","NAN","NAN","NAN","NAN","NAN"],
    [1536725,"2026-01-16 09:50:00","37715","1.8130000000000002","281.3","3.397","284.3","NAN","NAN","NAN","NAN","NAN"],
    [1536726,"2026-01-16 10:00:00","37716","1.633","287.3","2.548","290","NAN","NAN","NAN","NAN","NAN"],
    [1536727,"2026-01-16 10:10:00","37717","1.412","280.7","2.123","274.8","NAN","NAN","NAN","NAN","NAN"],
    [1536728,"2026-01-16 10:20:00","37718","1.148","272.1","2.058","271.6","NAN","NAN","NAN","NAN","NAN"],
    [1536729,"2026-01-16 10:30:00","37719","1.9369999999999998","271.3","3.234","270.7","NAN","NAN","NAN","NAN","NAN"],
    [1536730,"2026-01-16 10:40:00","37720","1.679","275.8","2.875","284.6","NAN","NAN","NAN","NAN","NAN"],
    [1536731,"2026-01-16 10:50:00","37721","2.225","286.5","3.234","290","NAN","NAN","NAN","NAN","NAN"],
    [1536732,"2026-01-16 11:00:00","37722","1.8219999999999998","290.4","3.005","293.1","NAN","NAN","NAN","NAN","NAN"],
    [1536733,"2026-01-16 11:10:00","37723","1.5119999999999998","284.1","3.201","274","NAN","NAN","NAN","NAN","NAN"],
    [1536734,"2026-01-16 11:20:00","37724","1.755","280.9","2.646","290","NAN","NAN","NAN","NAN","NAN"],
    [1536735,"2026-01-16 11:30:00","37725","1.1740000000000002","281.6","2.254","274","NAN","NAN","NAN","NAN","NAN"],
    [1536736,"2026-01-16 11:40:00","37726","0.41600000000000004","280.9","1.633","281.5","NAN","NAN","NAN","NAN","NAN"],
    [1536737,"2026-01-16 11:50:00","37727","1.1540000000000001","272.7","2.842","275.4","NAN","NAN","NAN","NAN","NAN"],
    [1536738,"2026-01-16 12:00:00","37728","0.304","271.6","1.535","271.5","NAN","NAN","NAN","NAN","NAN"],
    [1536739,"2026-01-16 12:10:00","37729","0.77","272.4","1.993","271.1","NAN","NAN","NAN","NAN","NAN"],
    [1536740,"2026-01-16 12:20:00","37730","1.056","270.8","1.862","271","NAN","NAN","NAN","NAN","NAN"],
    [1536741,"2026-01-16 12:30:00","37731","0.449","270.3","1.143","270.3","NAN","NAN","NAN","NAN","NAN"],
    [1536742,"2026-01-16 12:40:00","37732","0.439","270.3","1.176","270.2","NAN","NAN","NAN","NAN","NAN"],
    [1536743,"2026-01-16 12:50:00","37733","0.321","270.2","1.437","270.5","NAN","NAN","NAN","NAN","NAN"],
    [1536744,"2026-01-16 13:00:00","37734","1.317","289.1","2.091","291.3","NAN","NAN","NAN","NAN","NAN"],
    [1536745,"2026-01-16 13:10:00","37735","1.248","201.0","3.103","278","NAN","NAN","NAN","NAN","NAN"],
    [1536746,"2026-01-16 13:20:00","37736","0.883","158.0","1.895","158.2","NAN","NAN","NAN","NAN","NAN"],
    [1536747,"2026-01-16 13:30:00","37737","1.033","155.5","2.352","154.7","NAN","NAN","NAN","NAN","NAN"],
    [1536748,"2026-01-16 13:40:00","37738","1.207","152.5","2.287","151.9","NAN","NAN","NAN","NAN","NAN"],
    [1536749,"2026-01-16 13:50:00","37739","1.926","142.9","3.005","135.8","NAN","NAN","NAN","NAN","NAN"],
    [1536750,"2026-01-16 14:00:00","37740","1.8769999999999998","135.3","2.744","134.3","NAN","NAN","NAN","NAN","NAN"],
    [1536751,"2026-01-16 14:10:00","37741","1.702","133.2","2.94","133.3","NAN","NAN","NAN","NAN","NAN"],
    [1536752,"2026-01-16 14:20:00","37742","1.215","131.6","2.319","131.7","NAN","NAN","NAN","NAN","NAN"],
    [1536753,"2026-01-16 14:30:00","37743","1.564","131.4","2.319","131.4","NAN","NAN","NAN","NAN","NAN"],
    [1536754,"2026-01-16 14:40:00","37744","1.5330000000000001","131.3","2.45","131.3","NAN","NAN","NAN","NAN","NAN"],
    [1536755,"2026-01-16 14:50:00","37745","1.09","131.2","2.091","131.2","NAN","NAN","NAN","NAN","NAN"],
    [1536756,"2026-01-16 15:00:00","37746","0.8959999999999999","131.2","1.601","131.2","NAN","NAN","NAN","NAN","NAN"],
    [1536757,"2026-01-16 15:10:00","37747","1.124","131.2","2.058","131.2","NAN","NAN","NAN","NAN","NAN"],
    [1536758,"2026-01-16 15:20:00","37748","0.9620000000000001","131.2","1.731","131.2","NAN","NAN","NAN","NAN","NAN"],
    [1536759,"2026-01-16 15:30:00","37749","1.288","131.2","2.025","131.1","NAN","NAN","NAN","NAN","NAN"],
    [1536760,"2026-01-16 15:40:00","37750","1.1909999999999998","130.9","2.156","130.4","NAN","NAN","NAN","NAN","NAN"],
    [1536761,"2026-01-16 15:50:00","37751","1.47","128.3","2.581","124.6","NAN","NAN","NAN","NAN","NAN"],
    [1536762,"2026-01-16 16:00:00","37752","1.3119999999999998","123.1","2.385","123","NAN","NAN","NAN","NAN","NAN"],
    [1536763,"2026-01-16 16:10:00","37753","1.714","120.5","2.483","119.6","NAN","NAN","NAN","NAN","NAN"],
    [1536764,"2026-01-16 16:20:00","37754","1.581","114.0","3.201","113.2","NAN","NAN","NAN","NAN","NAN"],
    [1536765,"2026-01-16 16:30:00","37755","0.672","112.8","1.764","112.9","NAN","NAN","NAN","NAN","NAN"],
    [1536766,"2026-01-16 16:40:00","37756","1.452","112.8","2.417","112.8","NAN","NAN","NAN","NAN","NAN"],
    [1536767,"2026-01-16 16:50:00","37757","2.2","108.8","3.365","99.7","NAN","NAN","NAN","NAN","NAN"],
    [1536768,"2026-01-16 17:00:00","37758","1.735","94.7","2.809","94.4","NAN","NAN","NAN","NAN","NAN"],
    [1536769,"2026-01-16 17:10:00","37759","1.7180000000000002","95.0","3.397","94.9","NAN","NAN","NAN","NAN","NAN"],
    [1536770,"2026-01-16 17:20:00","37760","2.258","95.1","3.234","94.3","NAN","NAN","NAN","NAN","NAN"],
    [1536771,"2026-01-16 17:30:00","37761","1.3880000000000001","95.2","2.548","96.3","NAN","NAN","NAN","NAN","NAN"],
    [1536772,"2026-01-16 17:40:00","37762","1.2770000000000001","96.7","2.417","93.9","NAN","NAN","NAN","NAN","NAN"],
    [1536773,"2026-01-16 17:50:00","37763","0.888","102.8","1.699","104.4","NAN","NAN","NAN","NAN","NAN"],
    [1536774,"2026-01-16 18:00:00","37764","0.37200000000000005","106.8","1.307","106.5","NAN","NAN","NAN","NAN","NAN"],
    [1536775,"2026-01-16 18:10:00","37765","0.48200000000000004","107.5","0.882","107.5","NAN","NAN","NAN","NAN","NAN"],
    [1536776,"2026-01-16 18:20:00","37766","0.17600000000000002","107.6","0.947","107.7","NAN","NAN","NAN","NAN","NAN"],
    [1536777,"2026-01-16 18:30:00","37767","0.003","107.7","0.229","107.7","NAN","NAN","NAN","NAN","NAN"],
    [1536778,"2026-01-16 18:40:00","37768","0.008","107.7","0.327","107.7","NAN","NAN","NAN","NAN","NAN"],
    [1536779,"2026-01-16 18:50:00","37769","0.04","107.7","0.523","107.7","NAN","NAN","NAN","NAN","NAN"],
    [1536780,"2026-01-16 19:00:00","37770","0.6970000000000001","107.7","1.013","107.7","NAN","NAN","NAN","NAN","NAN"],
    [1536781,"2026-01-16 19:10:00","37771","0.6890000000000001","107.7","1.339","107.8","NAN","NAN","NAN","NAN","NAN"],
    [1536782,"2026-01-16 19:20:00","37772","0.92","108.0","1.568","108","NAN","NAN","NAN","NAN","NAN"],
    [1536783,"2026-01-16 19:30:00","37773","0.687","108.5","1.633","108.4","NAN","NAN","NAN","NAN","NAN"],
    [1536784,"2026-01-16 19:40:00","37774","0.8","110.0","1.797","110.6","NAN","NAN","NAN","NAN","NAN"],
    [1536785,"2026-01-16 19:50:00","37775","0.8029999999999999","111.9","2.091","112.7","NAN","NAN","NAN","NAN","NAN"],
    [1536786,"2026-01-16 20:00:00","37776","0.778","114.3","1.797","114","NAN","NAN","NAN","NAN","NAN"],
    [1536787,"2026-01-16 20:10:00","37777","0.847","115.0","2.254","114.7","NAN","NAN","NAN","NAN","NAN"],
    [1536788,"2026-01-16 20:20:00","37778","0.034","115.4","0.49","115.4","NAN","NAN","NAN","NAN","NAN"],
    [1536789,"2026-01-16 20:30:00","37779","0.0","0.0","0","0","NAN","NAN","NAN","NAN","NAN"],
    [1536790,"2026-01-16 20:40:00","37780","0.0","0.0","0","0","NAN","NAN","NAN","NAN","NAN"],
    [1536791,"2026-01-16 20:50:00","37781","0.0","0.0","0","0","NAN","NAN","NAN","NAN","NAN"],
    [1536792,"2026-01-16 21:00:00","37782","0.078","115.3","0.784","115.3","NAN","NAN","NAN","NAN","NAN"],
    [1536793,"2026-01-16 21:10:00","37783","0.688","115.3","1.241","115.3","NAN","NAN","NAN","NAN","NAN"],
    [1536794,"2026-01-16 21:20:00","37784","0.495","115.3","1.339","115.3","NAN","NAN","NAN","NAN","NAN"],
    [1536795,"2026-01-16 21:30:00","37785","0.485","115.3","0.882","115.3","NAN","NAN","NAN","NAN","NAN"],
    [1536796,"2026-01-16 21:40:00","37786","0.7020000000000001","115.2","1.013","115.3","NAN","NAN","NAN","NAN","NAN"],
    [1536797,"2026-01-16 21:50:00","37787","0.539","113.9","1.241","113.9","NAN","NAN","NAN","NAN","NAN"],
    [1536798,"2026-01-16 22:00:00","37788","0.039","113.9","0.653","113.9","NAN","NAN","NAN","NAN","NAN"],
    [1536799,"2026-01-16 22:10:00","37789","0.387","113.8","1.045","113.7","NAN","NAN","NAN","NAN","NAN"],
    [1536800,"2026-01-16 22:20:00","37790","0.784","113.7","1.274","113.7","NAN","NAN","NAN","NAN","NAN"],
    [1536801,"2026-01-16 22:30:00","37791","0.354","113.5","1.209","113.8","NAN","NAN","NAN","NAN","NAN"],
    [1536802,"2026-01-16 22:40:00","37792","0.773","114.8","1.372","115.1","NAN","NAN","NAN","NAN","NAN"],
    [1536803,"2026-01-16 22:50:00","37793","1.149","114.9","1.927","115.4","NAN","NAN","NAN","NAN","NAN"],
    [1536804,"2026-01-16 23:00:00","37794","1.056","115.4","1.731","115.5","NAN","NAN","NAN","NAN","NAN"],
    [1536805,"2026-01-16 23:10:00","37795","1.19","115.2","1.96","114.6","NAN","NAN","NAN","NAN","NAN"],
    [1536806,"2026-01-16 23:20:00","37796","1.415","114.9","2.581","113.5","NAN","NAN","NAN","NAN","NAN"],
    [1536807,"2026-01-16 23:30:00","37797","1.518","107.7","2.613","107.4","NAN","NAN","NAN","NAN","NAN"],
    [1536808,"2026-01-16 23:40:00","37798","1.483","106.4","2.352","113.4","NAN","NAN","NAN","NAN","NAN"],
    [1536809,"2026-01-16 23:50:00","37799","1.433","114.2","2.385","114.7","NAN","NAN","NAN","NAN","NAN"],
    [1536810,"2026-01-17 00:00:00","37800","2.354","115.3","4.181","118.6","NAN","NAN","NAN","NAN","NAN"],
    [1536811,"2026-01-17 00:10:00","37801","1.114","110.3","1.503","109.1","NAN","NAN","NAN","NAN","NAN"],
    [1536812,"2026-01-17 00:20:00","37802","1.581","108.5","2.613","108","NAN","NAN","NAN","NAN","NAN"],
    [1536813,"2026-01-17 00:30:00","37803","1.676","106.9","2.809","106.2","NAN","NAN","NAN","NAN","NAN"],
    [1536814,"2026-01-17 00:40:00","37804","1.64","105.4","2.842","105.2","NAN","NAN","NAN","NAN","NAN"],
    [1536815,"2026-01-17 00:50:00","37805","1.9809999999999999","96.7","4.083","93.6","NAN","NAN","NAN","NAN","NAN"],
    [1536816,"2026-01-17 01:00:00","37806","0.912","94.8","2.189","91.6","NAN","NAN","NAN","NAN","NAN"],
    [1536817,"2026-01-17 01:10:00","37807","1.4809999999999999","87.1","3.005","88.7","NAN","NAN","NAN","NAN","NAN"],
    [1536818,"2026-01-17 01:20:00","37808","1.068","88.7","3.071","83.4","NAN","NAN","NAN","NAN","NAN"],
    [1536819,"2026-01-17 01:30:00","37809","1.3359999999999999","85.2","3.201","82.9","NAN","NAN","NAN","NAN","NAN"],
    [1536820,"2026-01-17 01:40:00","37810","2.0580000000000003","76.83","4.051","70.36","NAN","NAN","NAN","NAN","NAN"],
    [1536821,"2026-01-17 01:50:00","37811","1.943","73.73","3.985","65.84","NAN","NAN","NAN","NAN","NAN"],
    [1536822,"2026-01-17 02:00:00","37812","2.273","87.3","4.247","98.6","NAN","NAN","NAN","NAN","NAN"],
    [1536823,"2026-01-17 02:10:00","37813","2.826","94.2","4.573","89","NAN","NAN","NAN","NAN","NAN"],
    [1536824,"2026-01-17 02:20:00","37814","2.476","93.0","4.671","90.5","NAN","NAN","NAN","NAN","NAN"],
    [1536825,"2026-01-17 02:30:00","37815","2.588","94.8","4.41","96.8","NAN","NAN","NAN","NAN","NAN"],
    [1536826,"2026-01-17 02:40:00","37816","3.219","95.0","5.357","87.7","NAN","NAN","NAN","NAN","NAN"],
    [1536827,"2026-01-17 02:50:00","37817","2.705","97.8","4.443","90","NAN","NAN","NAN","NAN","NAN"],
    [1536828,"2026-01-17 03:00:00","37818","2.8810000000000002","109.4","4.998","98.3","NAN","NAN","NAN","NAN","NAN"],
    [1536829,"2026-01-17 03:10:00","37819","2.847","116.3","5.619","113.5","NAN","NAN","NAN","NAN","NAN"],
    [1536830,"2026-01-17 03:20:00","37820","2.6430000000000002","120.7","4.867","114.9","NAN","NAN","NAN","NAN","NAN"],
    [1536831,"2026-01-17 03:30:00","37821","2.662","126.2","4.704","131.7","NAN","NAN","NAN","NAN","NAN"],
    [1536832,"2026-01-17 03:40:00","37822","3.528","132.6","5.325","135.7","NAN","NAN","NAN","NAN","NAN"],
    [1536833,"2026-01-17 03:50:00","37823","3.3480000000000003","127.1","6.403","110.2","NAN","NAN","NAN","NAN","NAN"],
    [1536834,"2026-01-17 04:00:00","37824","2.73","130.5","4.965","124.4","NAN","NAN","NAN","NAN","NAN"],
    [1536835,"2026-01-17 04:10:00","37825","3.323","120.0","6.174","117.6","NAN","NAN","NAN","NAN","NAN"],
    [1536836,"2026-01-17 04:20:00","37826","2.927","111.2","5.096","104.5","NAN","NAN","NAN","NAN","NAN"],
    [1536837,"2026-01-17 04:30:00","37827","3.3289999999999997","107.9","5.031","113.2","NAN","NAN","NAN","NAN","NAN"],
    [1536838,"2026-01-17 04:40:00","37828","2.978","119.0","5.651","115.9","NAN","NAN","NAN","NAN","NAN"],
    [1536839,"2026-01-17 04:50:00","37829","3.137","121.8","5.161","136.4","NAN","NAN","NAN","NAN","NAN"],
    [1536840,"2026-01-17 05:00:00","37830","3.06","114.6","4.965","118.5","NAN","NAN","NAN","NAN","NAN"],
    [1536841,"2026-01-17 05:10:00","37831","2.911","107.7","4.769","86.3","NAN","NAN","NAN","NAN","NAN"],
    [1536842,"2026-01-17 05:20:00","37832","3.091","105.4","5.717","101.8","NAN","NAN","NAN","NAN","NAN"],
    [1536843,"2026-01-17 05:30:00","37833","3.302","103.1","5.619","91.5","NAN","NAN","NAN","NAN","NAN"],
    [1536844,"2026-01-17 05:40:00","37834","3.446","100.5","5.717","94","NAN","NAN","NAN","NAN","NAN"],
    [1536845,"2026-01-17 05:50:00","37835","3.9389999999999996","97.7","6.37","87.1","NAN","NAN","NAN","NAN","NAN"],
    [1536846,"2026-01-17 06:00:00","37836","4.523","97.4","7.252","92.8","NAN","NAN","NAN","NAN","NAN"],
    [1536847,"2026-01-17 06:10:00","37837","4.526","99.0","6.631","95.5","NAN","NAN","NAN","NAN","NAN"],
    [1536848,"2026-01-17 06:20:00","37838","4.132","101.0","7.35","89.1","NAN","NAN","NAN","NAN","NAN"],
    [1536849,"2026-01-17 06:30:00","37839","4.534","100.8","7.579","99.3","NAN","NAN","NAN","NAN","NAN"],
    [1536850,"2026-01-17 06:40:00","37840","4.428999999999999","99.0","7.807","100.3","NAN","NAN","NAN","NAN","NAN"],
    [1536851,"2026-01-17 06:50:00","37841","4.0569999999999995","103.6","6.207","91.9","NAN","NAN","NAN","NAN","NAN"],
    [1536852,"2026-01-17 07:00:00","37842","4.99","106.8","8.1","112","NAN","NAN","NAN","NAN","NAN"],
    [1536853,"2026-01-17 07:10:00","37843","4.715","107.0","6.991","108.1","NAN","NAN","NAN","NAN","NAN"],
    [1536854,"2026-01-17 07:20:00","37844","4.513","109.2","6.86","113.2","NAN","NAN","NAN","NAN","NAN"],
    [1536855,"2026-01-17 07:30:00","37845","4.417","106.4","7.775","112.5","NAN","NAN","NAN","NAN","NAN"],
    [1536856,"2026-01-17 07:40:00","37846","3.867","107.5","6.599","116.5","NAN","NAN","NAN","NAN","NAN"],
    [1536857,"2026-01-17 07:50:00","37847","4.141","107.0","7.187","111.3","NAN","NAN","NAN","NAN","NAN"],
    [1536858,"2026-01-17 08:00:00","37848","4.064","103.8","6.893","99.4","NAN","NAN","NAN","NAN","NAN"],
    [1536859,"2026-01-17 08:10:00","37849","4.547","107.0","8.3","118.1","NAN","NAN","NAN","NAN","NAN"],
    [1536860,"2026-01-17 08:20:00","37850","4.888","108.4","7.415","99.3","NAN","NAN","NAN","NAN","NAN"],
    [1536861,"2026-01-17 08:30:00","37851","4.561","108.1","7.611","118.4","NAN","NAN","NAN","NAN","NAN"],
    [1536862,"2026-01-17 08:40:00","37852","3.9739999999999998","102.4","6.795","90.1","NAN","NAN","NAN","NAN","NAN"],
    [1536863,"2026-01-17 08:50:00","37853","4.226","102.5","6.991","80.1","NAN","NAN","NAN","NAN","NAN"],
    [1536864,"2026-01-17 09:00:00","37854","4.427","106.3","7.317","101.9","NAN","NAN","NAN","NAN","NAN"],
    [1536865,"2026-01-17 09:10:00","37855","4.4110000000000005","108.9","8.33","121.3","NAN","NAN","NAN","NAN","NAN"],
    [1536866,"2026-01-17 09:20:00","37856","4.4239999999999995","109.5","7.317","114.3","NAN","NAN","NAN","NAN","NAN"],
    [1536867,"2026-01-17 09:30:00","37857","5.0089999999999995","101.4","7.644","119.5","NAN","NAN","NAN","NAN","NAN"],
    [1536868,"2026-01-17 09:40:00","37858","4.979","100.7","8.69","99.9","NAN","NAN","NAN","NAN","NAN"],
    [1536869,"2026-01-17 09:50:00","37859","4.7410000000000005","106.0","8.56","116.4","NAN","NAN","NAN","NAN","NAN"],
    [1536870,"2026-01-17 10:00:00","37860","4.696000000000001","108.1","7.579","111.3","NAN","NAN","NAN","NAN","NAN"],
    [1536871,"2026-01-17 10:10:00","37861","5.004","105.3","8.04","95.1","NAN","NAN","NAN","NAN","NAN"],
    [1536872,"2026-01-17 10:20:00","37862","5.642","106.3","10.22","92.6","NAN","NAN","NAN","NAN","NAN"],
    [1536873,"2026-01-17 10:30:00","37863","4.997","107.7","8.62","114.2","NAN","NAN","NAN","NAN","NAN"],
    [1536874,"2026-01-17 10:40:00","37864","4.7589999999999995","100.8","7.775","82.7","NAN","NAN","NAN","NAN","NAN"],
    [1536875,"2026-01-17 10:50:00","37865","4.9639999999999995","102.6","8.3","98.3","NAN","NAN","NAN","NAN","NAN"],
    [1536876,"2026-01-17 11:00:00","37866","4.763999999999999","101.8","8.43","93.2","NAN","NAN","NAN","NAN","NAN"],
    [1536877,"2026-01-17 11:10:00","37867","4.502","101.9","8.43","94.4","NAN","NAN","NAN","NAN","NAN"],
    [1536878,"2026-01-17 11:20:00","37868","4.697","98.6","7.579","102.3","NAN","NAN","NAN","NAN","NAN"],
    [1536879,"2026-01-17 11:30:00","37869","4.681","101.5","7.579","95.5","NAN","NAN","NAN","NAN","NAN"],
    [1536880,"2026-01-17 11:40:00","37870","4.475","100.5","7.513","102.3","NAN","NAN","NAN","NAN","NAN"],
    [1536881,"2026-01-17 11:50:00","37871","4.295","102.4","7.513","102.3","NAN","NAN","NAN","NAN","NAN"],
    [1536882,"2026-01-17 12:00:00","37872","4.297","104.6","7.285","103.6","NAN","NAN","NAN","NAN","NAN"],
    [1536883,"2026-01-17 12:10:00","37873","4.622","101.4","7.807","103.8","NAN","NAN","NAN","NAN","NAN"],
    [1536884,"2026-01-17 12:20:00","37874","4.51","105.3","7.285","86.6","NAN","NAN","NAN","NAN","NAN"],
    [1536885,"2026-01-17 12:30:00","37875","4.504","110.5","8.33","115.7","NAN","NAN","NAN","NAN","NAN"],
    [1536886,"2026-01-17 12:40:00","37876","4.3069999999999995","109.4","7.056","115.8","NAN","NAN","NAN","NAN","NAN"],
    [1536887,"2026-01-17 12:50:00","37877","4.846","111.3","8.95","112.3","NAN","NAN","NAN","NAN","NAN"],
    [1536888,"2026-01-17 13:00:00","37878","4.449","118.5","7.807","118.5","NAN","NAN","NAN","NAN","NAN"],
    [1536889,"2026-01-17 13:10:00","37879","3.878","120.6","6.795","136.4","NAN","NAN","NAN","NAN","NAN"],
    [1536890,"2026-01-17 13:20:00","37880","4.053999999999999","119.6","6.501","113.7","NAN","NAN","NAN","NAN","NAN"],
    [1536891,"2026-01-17 13:30:00","37881","3.866","119.0","7.481","115.2","NAN","NAN","NAN","NAN","NAN"],
    [1536892,"2026-01-17 13:40:00","37882","3.735","119.0","5.553","115.8","NAN","NAN","NAN","NAN","NAN"],
    [1536893,"2026-01-17 13:50:00","37883","3.6889999999999996","118.2","6.435","127.4","NAN","NAN","NAN","NAN","NAN"],
    [1536894,"2026-01-17 14:00:00","37884","3.872","122.0","6.468","135.4","NAN","NAN","NAN","NAN","NAN"],
    [1536895,"2026-01-17 14:10:00","37885","5.018","130.5","7.611","141.2","NAN","NAN","NAN","NAN","NAN"],
    [1536896,"2026-01-17 14:20:00","37886","3.218","123.7","6.697","144.7","NAN","NAN","NAN","NAN","NAN"],
    [1536897,"2026-01-17 14:30:00","37887","3.5669999999999997","130.7","5.227","137.9","NAN","NAN","NAN","NAN","NAN"],
    [1536898,"2026-01-17 14:40:00","37888","3.968","223.6","7.187","241.7","NAN","NAN","NAN","NAN","NAN"],
    [1536899,"2026-01-17 14:50:00","37889","0.6729999999999999","238.7","3.495","253.4","NAN","NAN","NAN","NAN","NAN"],
    [1536900,"2026-01-17 15:00:00","37890","2.766","250.7","4.443","262.6","NAN","NAN","NAN","NAN","NAN"],
    [1536901,"2026-01-17 15:10:00","37891","1.911","254.3","3.92","264.5","NAN","NAN","NAN","NAN","NAN"],
    [1536902,"2026-01-17 15:20:00","37892","1.337","255.4","2.777","257.1","NAN","NAN","NAN","NAN","NAN"],
    [1536903,"2026-01-17 15:30:00","37893","0.706","262.1","2.123","260.9","NAN","NAN","NAN","NAN","NAN"],
    [1536904,"2026-01-17 15:40:00","37894","0.028999999999999998","267.7","0.882","267.2","NAN","NAN","NAN","NAN","NAN"],
    [1536905,"2026-01-17 15:50:00","37895","0.0","0.0","0","0","NAN","NAN","NAN","NAN","NAN"],
    [1536906,"2026-01-17 16:00:00","37896","0.32","269.1","0.947","269.4","NAN","NAN","NAN","NAN","NAN"],
    [1536907,"2026-01-17 16:10:00","37897","0.49","270.0","1.045","269.8","NAN","NAN","NAN","NAN","NAN"],
    [1536908,"2026-01-17 16:20:00","37898","0.655","271.5","1.503","271.7","NAN","NAN","NAN","NAN","NAN"],
    [1536909,"2026-01-17 16:30:00","37899","0.723","271.9","1.927","271.9","NAN","NAN","NAN","NAN","NAN"],
    [1536910,"2026-01-17 16:40:00","37900","0.789","276.2","1.503","273.4","NAN","NAN","NAN","NAN","NAN"],
    [1536911,"2026-01-17 16:50:00","37901","0.57","293.1","1.568","284","NAN","NAN","NAN","NAN","NAN"],
    [1536912,"2026-01-17 17:00:00","37902","0.414","319.9","1.535","304.7","NAN","NAN","NAN","NAN","NAN"],
    [1536913,"2026-01-17 17:10:00","37903","0.5710000000000001","11.34","2.94","15.19","NAN","NAN","NAN","NAN","NAN"],
    [1536914,"2026-01-17 17:20:00","37904","0.767","18.93","1.895","17.76","NAN","NAN","NAN","NAN","NAN"],
    [1536915,"2026-01-17 17:30:00","37905","1.171","24.1","2.581","22.06","NAN","NAN","NAN","NAN","NAN"],
    [1536916,"2026-01-17 17:40:00","37906","0.752","35.86","2.515","30.08","NAN","NAN","NAN","NAN","NAN"],
    [1536917,"2026-01-17 17:50:00","37907","0.882","44.9","2.646","45.04","NAN","NAN","NAN","NAN","NAN"],
    [1536918,"2026-01-17 18:00:00","37908","0.973","44.89","3.038","45.43","NAN","NAN","NAN","NAN","NAN"],
    [1536919,"2026-01-17 18:10:00","37909","1.041","46.05","2.287","47.6","NAN","NAN","NAN","NAN","NAN"],
    [1536920,"2026-01-17 18:20:00","37910","1.3659999999999999","45.54","2.483","44.59","NAN","NAN","NAN","NAN","NAN"],
    [1536921,"2026-01-17 18:30:00","37911","1.304","45.47","2.45","40.4","NAN","NAN","NAN","NAN","NAN"],
    [1536922,"2026-01-17 18:40:00","37912","1.145","44.86","1.829","40.03","NAN","NAN","NAN","NAN","NAN"],
    [1536923,"2026-01-17 18:50:00","37913","0.691","40.42","2.091","42.73","NAN","NAN","NAN","NAN","NAN"],
    [1536924,"2026-01-17 19:00:00","37914","0.898","40.56","2.123","38.16","NAN","NAN","NAN","NAN","NAN"],
    [1536925,"2026-01-17 19:10:00","37915","1.128","38.93","2.842","45.35","NAN","NAN","NAN","NAN","NAN"],
    [1536926,"2026-01-17 19:20:00","37916","1.12","46.81","2.842","45.35","NAN","NAN","NAN","NAN","NAN"],
    [1536927,"2026-01-17 19:30:00","37917","1.89","43.46","3.103","41.96","NAN","NAN","NAN","NAN","NAN"],
    [1536928,"2026-01-17 19:40:00","37918","1.3259999999999998","51.27","3.365","53.4","NAN","NAN","NAN","NAN","NAN"],
    [1536929,"2026-01-17 19:50:00","37919","1.6159999999999999","51.66","3.626","54.86","NAN","NAN","NAN","NAN","NAN"],
    [1536930,"2026-01-17 20:00:00","37920","1.85","46.78","3.299","44.61","NAN","NAN","NAN","NAN","NAN"],
    [1536931,"2026-01-17 20:10:00","37921","2.23","43.61","4.214","46.55","NAN","NAN","NAN","NAN","NAN"],
    [1536932,"2026-01-17 20:20:00","37922","1.874","56.95","4.345","66.93","NAN","NAN","NAN","NAN","NAN"],
    [1536933,"2026-01-17 20:30:00","37923","1.902","61.99","4.965","28.38","NAN","NAN","NAN","NAN","NAN"],
    [1536934,"2026-01-17 20:40:00","37924","2.6689999999999996","50.31","4.704","38.36","NAN","NAN","NAN","NAN","NAN"],
    [1536935,"2026-01-17 20:50:00","37925","3.2119999999999997","39.99","5.39","35.62","NAN","NAN","NAN","NAN","NAN"],
    [1536936,"2026-01-17 21:00:00","37926","2.929","41.72","4.9","43.67","NAN","NAN","NAN","NAN","NAN"],
    [1536937,"2026-01-17 21:10:00","37927","2.477","43.17","4.671","42.13","NAN","NAN","NAN","NAN","NAN"],
    [1536938,"2026-01-17 21:20:00","37928","1.7069999999999999","49.01","4.769","42.02","NAN","NAN","NAN","NAN","NAN"],
    [1536939,"2026-01-17 21:30:00","37929","2.602","43.73","5.194","34.25","NAN","NAN","NAN","NAN","NAN"],
    [1536940,"2026-01-17 21:40:00","37930","1.929","40.37","4.279","43.75","NAN","NAN","NAN","NAN","NAN"],
    [1536941,"2026-01-17 21:50:00","37931","0.6609999999999999","40.65","1.895","39.83","NAN","NAN","NAN","NAN","NAN"],
    [1536942,"2026-01-17 22:00:00","37932","2.057","40.87","3.561","33.94","NAN","NAN","NAN","NAN","NAN"],
    [1536943,"2026-01-17 22:10:00","37933","1.733","41.69","3.953","36.86","NAN","NAN","NAN","NAN","NAN"],
    [1536944,"2026-01-17 22:20:00","37934","2.443","39.58","4.475","36.89","NAN","NAN","NAN","NAN","NAN"],
    [1536945,"2026-01-17 22:30:00","37935","1.871","41.59","3.691","42.83","NAN","NAN","NAN","NAN","NAN"],
    [1536946,"2026-01-17 22:40:00","37936","1.714","45.81","3.724","34.81","NAN","NAN","NAN","NAN","NAN"],
    [1536947,"2026-01-17 22:50:00","37937","1.1440000000000001","33.05","3.691","2.848","NAN","NAN","NAN","NAN","NAN"],
    [1536948,"2026-01-17 23:00:00","37938","1.0090000000000001","347.4","4.802","358.5","NAN","NAN","NAN","NAN","NAN"],
    [1536949,"2026-01-17 23:10:00","37939","0.09300000000000001","332.4","1.078","332.4","NAN","NAN","NAN","NAN","NAN"],
    [1536950,"2026-01-17 23:20:00","37940","1.1909999999999998","250.0","4.279","202.3","NAN","NAN","NAN","NAN","NAN"],
    [1536951,"2026-01-17 23:30:00","37941","1.045","214.2","4.671","208.8","NAN","NAN","NAN","NAN","NAN"],
    [1536952,"2026-01-17 23:40:00","37942","0.192","224.0","0.915","224.3","NAN","NAN","NAN","NAN","NAN"],
    [1536953,"2026-01-17 23:50:00","37943","0.628","226.7","1.568","227.5","NAN","NAN","NAN","NAN","NAN"],
    [1536954,"2026-01-18 00:00:00","37944","0.778","226.5","2.058","227.6","NAN","NAN","NAN","NAN","NAN"],
    [1536955,"2026-01-18 00:10:00","37945","0.8240000000000001","227.6","1.895","227.7","NAN","NAN","NAN","NAN","NAN"],
    [1536956,"2026-01-18 00:20:00","37946","0.027000000000000003","227.7","0.621","227.7","NAN","NAN","NAN","NAN","NAN"],
    [1536957,"2026-01-18 00:30:00","37947","0.008","227.0","0.294","226.7","NAN","NAN","NAN","NAN","NAN"],
    [1536958,"2026-01-18 00:40:00","37948","0.11199999999999999","224.1","1.078","223.7","NAN","NAN","NAN","NAN","NAN"],
    [1536959,"2026-01-18 00:50:00","37949","0.066","227.5","0.555","227.6","NAN","NAN","NAN","NAN","NAN"],
    [1536960,"2026-01-18 01:00:00","37950","0.0","0.0","0","0","NAN","NAN","NAN","NAN","NAN"],
    [1536961,"2026-01-18 01:10:00","37951","0.0","0.0","0","0","NAN","NAN","NAN","NAN","NAN"],
    [1536962,"2026-01-18 01:20:00","37952","0.0","0.0","0","0","NAN","NAN","NAN","NAN","NAN"],
    [1536963,"2026-01-18 01:30:00","37953","0.001","227.7","0.163","227.7","NAN","NAN","NAN","NAN","NAN"],
    [1536964,"2026-01-18 01:40:00","37954","0.001","227.7","0.131","227.7","NAN","NAN","NAN","NAN","NAN"],
    [1536965,"2026-01-18 01:50:00","37955","0.0","0.0","0","0","NAN","NAN","NAN","NAN","NAN"],
    [1536966,"2026-01-18 02:00:00","37956","0.0","0.0","0","0","NAN","NAN","NAN","NAN","NAN"],
    [1536967,"2026-01-18 02:10:00","37957","0.0","0.0","0","0","NAN","NAN","NAN","NAN","NAN"],
    [1536968,"2026-01-18 02:20:00","37958","0.0","0.0","0","0","NAN","NAN","NAN","NAN","NAN"],
    [1536969,"2026-01-18 02:30:00","37959","0.0","0.0","0","0","NAN","NAN","NAN","NAN","NAN"],
    [1536970,"2026-01-18 02:40:00","37960","0.0","0.0","0","0","NAN","NAN","NAN","NAN","NAN"],
    [1536971,"2026-01-18 02:50:00","37961","0.0","0.0","0","0","NAN","NAN","NAN","NAN","NAN"],
    [1536972,"2026-01-18 03:00:00","37962","0.0","0.0","0","0","NAN","NAN","NAN","NAN","NAN"],
    [1536973,"2026-01-18 03:10:00","37963","0.0","0.0","0","0","NAN","NAN","NAN","NAN","NAN"],
    [1536974,"2026-01-18 03:20:00","37964","0.0","0.0","0","0","NAN","NAN","NAN","NAN","NAN"],
    [1536975,"2026-01-18 03:30:00","37965","0.132","227.7","0.784","227.7","NAN","NAN","NAN","NAN","NAN"],
    [1536976,"2026-01-18 03:40:00","37966","0.0","0.0","0","0","NAN","NAN","NAN","NAN","NAN"],
    [1536977,"2026-01-18 03:50:00","37967","0.0","0.0","0","0","NAN","NAN","NAN","NAN","NAN"],
    [1536978,"2026-01-18 04:00:00","37968","0.0","0.0","0","0","NAN","NAN","NAN","NAN","NAN"],
    [1536979,"2026-01-18 04:10:00","37969","0.07","227.8","0.555","227.8","NAN","NAN","NAN","NAN","NAN"],
    [1536980,"2026-01-18 04:20:00","37970","0.0","0.0","0","0","NAN","NAN","NAN","NAN","NAN"],
    [1536981,"2026-01-18 04:30:00","37971","0.002","227.9","0.261","227.9","NAN","NAN","NAN","NAN","NAN"],
    [1536982,"2026-01-18 04:40:00","37972","0.0","0.0","0","0","NAN","NAN","NAN","NAN","NAN"],
    [1536983,"2026-01-18 04:50:00","37973","0.0","227.9","0.033","227.9","NAN","NAN","NAN","NAN","NAN"],
    [1536984,"2026-01-18 05:00:00","37974","0.111","226.0","0.817","227.8","NAN","NAN","NAN","NAN","NAN"],
    [1536985,"2026-01-18 05:10:00","37975","0.188","223.4","1.176","223.6","NAN","NAN","NAN","NAN","NAN"],
    [1536986,"2026-01-18 05:20:00","37976","1.6469999999999998","166.5","4.867","155.6","NAN","NAN","NAN","NAN","NAN"],
    [1536987,"2026-01-18 05:30:00","37977","2.7260000000000004","158.0","4.606","166.1","NAN","NAN","NAN","NAN","NAN"],
    [1536988,"2026-01-18 05:40:00","37978","2.1790000000000003","147.8","4.116","147.4","NAN","NAN","NAN","NAN","NAN"],
    [1536989,"2026-01-18 05:50:00","37979","2.68","146.5","4.051","139.1","NAN","NAN","NAN","NAN","NAN"],
    [1536990,"2026-01-18 06:00:00","37980","1.798","146.6","3.724","152.1","NAN","NAN","NAN","NAN","NAN"],
    [1536991,"2026-01-18 06:10:00","37981","0.8690000000000001","144.1","1.666","146.5","NAN","NAN","NAN","NAN","NAN"],
    [1536992,"2026-01-18 06:20:00","37982","1.2590000000000001","144.3","2.515","141.9","NAN","NAN","NAN","NAN","NAN"],
    [1536993,"2026-01-18 06:30:00","37983","0.6920000000000001","139.6","2.254","139.7","NAN","NAN","NAN","NAN","NAN"],
    [1536994,"2026-01-18 06:40:00","37984","0.342","139.3","1.013","139.2","NAN","NAN","NAN","NAN","NAN"],
    [1536995,"2026-01-18 06:50:00","37985","0.613","139.1","1.47","139","NAN","NAN","NAN","NAN","NAN"],
    [1536996,"2026-01-18 07:00:00","37986","0.44799999999999995","139.0","1.437","139","NAN","NAN","NAN","NAN","NAN"],
    [1536997,"2026-01-18 07:10:00","37987","0.243","139.0","0.98","139","NAN","NAN","NAN","NAN","NAN"],
    [1536998,"2026-01-18 07:20:00","37988","0.099","138.6","0.751","138.7","NAN","NAN","NAN","NAN","NAN"],
    [1536999,"2026-01-18 07:30:00","37989","0.028999999999999998","137.5","0.49","137.4","NAN","NAN","NAN","NAN","NAN"],
    [1537000,"2026-01-18 07:40:00","37990","0.15","137.4","1.078","137.4","NAN","NAN","NAN","NAN","NAN"],
    [1537001,"2026-01-18 07:50:00","37991","0.764","137.3","1.339","137.3","NAN","NAN","NAN","NAN","NAN"],
    [1537002,"2026-01-18 08:00:00","37992","0.19699999999999998","137.1","0.751","137.1","NAN","NAN","NAN","NAN","NAN"],
    [1537003,"2026-01-18 08:10:00","37993","0.371","137.1","1.307","137.1","NAN","NAN","NAN","NAN","NAN"],
    [1537004,"2026-01-18 08:20:00","37994","0.603","137.1","1.307","137.1","NAN","NAN","NAN","NAN","NAN"],
    [1537005,"2026-01-18 08:30:00","37995","0.006","137.1","0.294","137.1","NAN","NAN","NAN","NAN","NAN"],
    [1537006,"2026-01-18 08:40:00","37996","0.095","137.1","0.849","137.1","NAN","NAN","NAN","NAN","NAN"],
    [1537007,"2026-01-18 08:50:00","37997","0.373","137.1","1.013","137.1","NAN","NAN","NAN","NAN","NAN"],
    [1537008,"2026-01-18 09:00:00","37998","0.0","0.0","0","0","NAN","NAN","NAN","NAN","NAN"],
    [1537009,"2026-01-18 09:10:00","37999","0.0","0.0","0","0","NAN","NAN","NAN","NAN","NAN"],
    [1537010,"2026-01-18 09:20:00","38000","0.0","0.0","0","0","NAN","NAN","NAN","NAN","NAN"],
    [1537011,"2026-01-18 09:30:00","38001","0.151","137.1","0.686","137","NAN","NAN","NAN","NAN","NAN"],
    [1537012,"2026-01-18 09:40:00","38002","0.0","0.0","0","0","NAN","NAN","NAN","NAN","NAN"],
    [1537013,"2026-01-18 09:50:00","38003","0.011000000000000001","136.8","0.327","136.8","NAN","NAN","NAN","NAN","NAN"],
    [1537014,"2026-01-18 10:00:00","38004","0.062","136.5","0.849","136.5","NAN","NAN","NAN","NAN","NAN"],
    [1537015,"2026-01-18 10:10:00","38005","0.16899999999999998","128.0","1.699","135","NAN","NAN","NAN","NAN","NAN"],
    [1537016,"2026-01-18 10:20:00","38006","0.348","115.8","1.568","115.2","NAN","NAN","NAN","NAN","NAN"],
    [1537017,"2026-01-18 10:30:00","38007","1.2690000000000001","86.9","3.234","83.7","NAN","NAN","NAN","NAN","NAN"],
    [1537018,"2026-01-18 10:40:00","38008","1.742","63.84","3.103","52.38","NAN","NAN","NAN","NAN","NAN"],
    [1537019,"2026-01-18 10:50:00","38009","1.5219999999999998","47.46","2.777","49.04","NAN","NAN","NAN","NAN","NAN"],
    [1537020,"2026-01-18 11:00:00","38010","1.575","44.41","2.842","44.39","NAN","NAN","NAN","NAN","NAN"],
    [1537021,"2026-01-18 11:10:00","38011","2.168","39.9","3.593","40.93","NAN","NAN","NAN","NAN","NAN"],
    [1537022,"2026-01-18 11:20:00","38012","2.164","33.69","3.528","36.72","NAN","NAN","NAN","NAN","NAN"],
    [1537023,"2026-01-18 11:30:00","38013","1.288","30.1","2.319","29.89","NAN","NAN","NAN","NAN","NAN"],
    [1537024,"2026-01-18 11:40:00","38014","1.022","28.25","2.319","29.15","NAN","NAN","NAN","NAN","NAN"],
    [1537025,"2026-01-18 11:50:00","38015","1.3869999999999998","26.07","2.875","26.88","NAN","NAN","NAN","NAN","NAN"],
    [1537026,"2026-01-18 12:00:00","38016","2.0580000000000003","27.25","4.149","43.18","NAN","NAN","NAN","NAN","NAN"],
    [1537027,"2026-01-18 12:10:00","38017","1.999","33.24","3.234","29.79","NAN","NAN","NAN","NAN","NAN"],
    [1537028,"2026-01-18 12:20:00","38018","2.416","32.41","4.149","31.07","NAN","NAN","NAN","NAN","NAN"],
    [1537029,"2026-01-18 12:30:00","38019","2.617","26.54","3.887","26.62","NAN","NAN","NAN","NAN","NAN"],
    [1537030,"2026-01-18 12:40:00","38020","2.3040000000000003","22.27","4.116","19.62","NAN","NAN","NAN","NAN","NAN"],
    [1537031,"2026-01-18 12:50:00","38021","2.231","19.14","4.345","20.07","NAN","NAN","NAN","NAN","NAN"],
    [1537032,"2026-01-18 13:00:00","38022","2.68","22.56","4.606","19.4","NAN","NAN","NAN","NAN","NAN"],
    [1537033,"2026-01-18 13:10:00","38023","2.903","22.92","4.998","31.54","NAN","NAN","NAN","NAN","NAN"],
    [1537034,"2026-01-18 13:20:00","38024","2.912","23.44","4.769","32.81","NAN","NAN","NAN","NAN","NAN"],
    [1537035,"2026-01-18 13:30:00","38025","3.033","11.91","4.704","18.19","NAN","NAN","NAN","NAN","NAN"],
    [1537036,"2026-01-18 13:40:00","38026","2.59","15.42","5.227","16.42","NAN","NAN","NAN","NAN","NAN"],
    [1537037,"2026-01-18 13:50:00","38027","2.648","15.31","4.051","23.21","NAN","NAN","NAN","NAN","NAN"],
    [1537038,"2026-01-18 14:00:00","38028","2.1719999999999997","20.61","3.822","16.06","NAN","NAN","NAN","NAN","NAN"],
    [1537039,"2026-01-18 14:10:00","38029","2.133","28.84","4.41","29.12","NAN","NAN","NAN","NAN","NAN"],
    [1537040,"2026-01-18 14:20:00","38030","2.214","38.1","4.965","47.37","NAN","NAN","NAN","NAN","NAN"],
    [1537041,"2026-01-18 14:30:00","38031","2.383","50.36","4.083","47.83","NAN","NAN","NAN","NAN","NAN"],
    [1537042,"2026-01-18 14:40:00","38032","3.198","51.31","5.717","65.19","NAN","NAN","NAN","NAN","NAN"],
    [1537043,"2026-01-18 14:50:00","38033","3.161","42.99","5.749","39.37","NAN","NAN","NAN","NAN","NAN"],
    [1537044,"2026-01-18 15:00:00","38034","3.908","44.48","6.631","46.93","NAN","NAN","NAN","NAN","NAN"],
    [1537045,"2026-01-18 15:10:00","38035","3.142","44.34","5.553","48.37","NAN","NAN","NAN","NAN","NAN"],
    [1537046,"2026-01-18 15:20:00","38036","3.299","44.77","6.076","37.78","NAN","NAN","NAN","NAN","NAN"],
    [1537047,"2026-01-18 15:30:00","38037","2.863","41.06","5.39","49.25","NAN","NAN","NAN","NAN","NAN"],
    [1537048,"2026-01-18 15:40:00","38038","2.985","42.39","5.259","38.31","NAN","NAN","NAN","NAN","NAN"],
    [1537049,"2026-01-18 15:50:00","38039","3.464","47.11","5.717","46.14","NAN","NAN","NAN","NAN","NAN"],
    [1537050,"2026-01-18 16:00:00","38040","3.1710000000000003","46.28","5.553","39.74","NAN","NAN","NAN","NAN","NAN"],
    [1537051,"2026-01-18 16:10:00","38041","2.923","48.56","4.933","46.64","NAN","NAN","NAN","NAN","NAN"],
    [1537052,"2026-01-18 16:20:00","38042","2.021","49.33","4.247","53.72","NAN","NAN","NAN","NAN","NAN"],
    [1537053,"2026-01-18 16:30:00","38043","2.541","47.56","4.671","43.68","NAN","NAN","NAN","NAN","NAN"],
    [1537054,"2026-01-18 16:40:00","38044","2.5540000000000003","51.97","5.063","45.97","NAN","NAN","NAN","NAN","NAN"],
    [1537055,"2026-01-18 16:50:00","38045","2.716","59.28","5.292","72.08","NAN","NAN","NAN","NAN","NAN"],
    [1537056,"2026-01-18 17:00:00","38046","3.241","64.47","5.651","69.93","NAN","NAN","NAN","NAN","NAN"],
    [1537057,"2026-01-18 17:10:00","38047","3.0189999999999997","61.53","6.011","77.56","NAN","NAN","NAN","NAN","NAN"],
    [1537058,"2026-01-18 17:20:00","38048","2.885","57.44","5.913","61.98","NAN","NAN","NAN","NAN","NAN"],
    [1537059,"2026-01-18 17:30:00","38049","2.023","51.48","4.181","48.88","NAN","NAN","NAN","NAN","NAN"],
    [1537060,"2026-01-18 17:40:00","38050","3.43","50.65","5.684","54.44","NAN","NAN","NAN","NAN","NAN"],
    [1537061,"2026-01-18 17:50:00","38051","3.23","45.07","6.337","34.6","NAN","NAN","NAN","NAN","NAN"],
    [1537062,"2026-01-18 18:00:00","38052","3.198","40.77","5.292","41.02","NAN","NAN","NAN","NAN","NAN"],
    [1537063,"2026-01-18 18:10:00","38053","2.1959999999999997","42.62","3.92","37.33","NAN","NAN","NAN","NAN","NAN"],
    [1537064,"2026-01-18 18:20:00","38054","1.5519999999999998","63.74","3.757","91.3","NAN","NAN","NAN","NAN","NAN"],
    [1537065,"2026-01-18 18:30:00","38055","3.3089999999999997","95.9","6.468","93.4","NAN","NAN","NAN","NAN","NAN"],
    [1537066,"2026-01-18 18:40:00","38056","3.952","97.1","6.762","99.7","NAN","NAN","NAN","NAN","NAN"],
    [1537067,"2026-01-18 18:50:00","38057","4.012","99.6","6.272","97.2","NAN","NAN","NAN","NAN","NAN"],
    [1537068,"2026-01-18 19:00:00","38058","3.179","92.4","5.684","89.6","NAN","NAN","NAN","NAN","NAN"],
    [1537069,"2026-01-18 19:10:00","38059","4.165","97.4","7.709","94.7","NAN","NAN","NAN","NAN","NAN"],
    [1537070,"2026-01-18 19:20:00","38060","4.011","71.88","7.448","65.67","NAN","NAN","NAN","NAN","NAN"],
    [1537071,"2026-01-18 19:30:00","38061","3.995","65.9","6.925","72.97","NAN","NAN","NAN","NAN","NAN"],
    [1537072,"2026-01-18 19:40:00","38062","3.5980000000000003","62.52","7.187","66.7","NAN","NAN","NAN","NAN","NAN"],
    [1537073,"2026-01-18 19:50:00","38063","2.676","52.46","5.39","59.02","NAN","NAN","NAN","NAN","NAN"],
    [1537074,"2026-01-18 20:00:00","38064","2.745","50.19","4.769","41.88","NAN","NAN","NAN","NAN","NAN"],
    [1537075,"2026-01-18 20:10:00","38065","3.491","46.91","6.958","47.27","NAN","NAN","NAN","NAN","NAN"],
    [1537076,"2026-01-18 20:20:00","38066","3.63","52.21","6.631","66.22","NAN","NAN","NAN","NAN","NAN"],
    [1537077,"2026-01-18 20:30:00","38067","3.114","45.78","5.227","44.07","NAN","NAN","NAN","NAN","NAN"],
    [1537078,"2026-01-18 20:40:00","38068","3.464","42.96","6.305","39.11","NAN","NAN","NAN","NAN","NAN"],
    [1537079,"2026-01-18 20:50:00","38069","3.139","55.29","6.631","66.76","NAN","NAN","NAN","NAN","NAN"],
    [1537080,"2026-01-18 21:00:00","38070","3.177","45.47","6.403","53.41","NAN","NAN","NAN","NAN","NAN"],
    [1537081,"2026-01-18 21:10:00","38071","3.247","47.43","5.815","49.79","NAN","NAN","NAN","NAN","NAN"],
    [1537082,"2026-01-18 21:20:00","38072","3.767","41.5","6.239","39.98","NAN","NAN","NAN","NAN","NAN"],
    [1537083,"2026-01-18 21:30:00","38073","2.946","38.91","4.802","33.56","NAN","NAN","NAN","NAN","NAN"],
    [1537084,"2026-01-18 21:40:00","38074","3.188","39.53","4.835","33.22","NAN","NAN","NAN","NAN","NAN"],
    [1537085,"2026-01-18 21:50:00","38075","2.989","36.66","4.443","32.89","NAN","NAN","NAN","NAN","NAN"],
    [1537086,"2026-01-18 22:00:00","38076","2.9939999999999998","40.9","5.553","36.02","NAN","NAN","NAN","NAN","NAN"],
    [1537087,"2026-01-18 22:10:00","38077","2.72","39.39","4.345","37.78","NAN","NAN","NAN","NAN","NAN"],
    [1537088,"2026-01-18 22:20:00","38078","3.036","35.57","4.769","33.33","NAN","NAN","NAN","NAN","NAN"],
    [1537089,"2026-01-18 22:30:00","38079","3.33","38.4","4.933","31.97","NAN","NAN","NAN","NAN","NAN"],
    [1537090,"2026-01-18 22:40:00","38080","3.554","42.85","5.945","41.75","NAN","NAN","NAN","NAN","NAN"],
    [1537091,"2026-01-18 22:50:00","38081","3.157","42.0","6.174","45.28","NAN","NAN","NAN","NAN","NAN"],
    [1537092,"2026-01-18 23:00:00","38082","3.092","49.25","5.978","61.09","NAN","NAN","NAN","NAN","NAN"],
    [1537093,"2026-01-18 23:10:00","38083","3.1069999999999998","42.42","5.586","35.74","NAN","NAN","NAN","NAN","NAN"],
    [1537094,"2026-01-18 23:20:00","38084","3.372","47.23","6.076","51.84","NAN","NAN","NAN","NAN","NAN"],
    [1537095,"2026-01-18 23:30:00","38085","3.346","42.16","6.207","24.56","NAN","NAN","NAN","NAN","NAN"],
    [1537096,"2026-01-18 23:40:00","38086","3.3739999999999997","43.13","5.619","34.12","NAN","NAN","NAN","NAN","NAN"],
    [1537097,"2026-01-18 23:50:00","38087","2.955","36.72","5.031","45.05","NAN","NAN","NAN","NAN","NAN"],
    [1537098,"2026-01-19 00:00:00","38088","3.148","43.98","4.998","50.1","NAN","NAN","NAN","NAN","NAN"],
    [1537099,"2026-01-19 00:10:00","38089","2.864","48.51","5.913","53.72","NAN","NAN","NAN","NAN","NAN"],
    [1537100,"2026-01-19 00:20:00","38090","3.178","45.15","6.566","41.4","NAN","NAN","NAN","NAN","NAN"],
    [1537101,"2026-01-19 00:30:00","38091","2.9560000000000004","44.76","5.129","57.95","NAN","NAN","NAN","NAN","NAN"],
    [1537102,"2026-01-19 00:40:00","38092","3.082","46.92","5.259","36.02","NAN","NAN","NAN","NAN","NAN"],
    [1537103,"2026-01-19 00:50:00","38093","2.623","42.48","4.41","48.2","NAN","NAN","NAN","NAN","NAN"],
    [1537104,"2026-01-19 01:00:00","38094","2.6239999999999997","39.08","4.41","40.02","NAN","NAN","NAN","NAN","NAN"],
    [1537105,"2026-01-19 01:10:00","38095","2.595","37.87","4.508","40.67","NAN","NAN","NAN","NAN","NAN"],
    [1537106,"2026-01-19 01:20:00","38096","2.271","42.67","4.671","36.92","NAN","NAN","NAN","NAN","NAN"],
    [1537107,"2026-01-19 01:30:00","38097","2.924","45.1","5.129","52.52","NAN","NAN","NAN","NAN","NAN"],
    [1537108,"2026-01-19 01:40:00","38098","2.8819999999999997","41.39","4.769","41.42","NAN","NAN","NAN","NAN","NAN"],
    [1537109,"2026-01-19 01:50:00","38099","2.9389999999999996","43.49","6.141","43.23","NAN","NAN","NAN","NAN","NAN"],
    [1537110,"2026-01-19 02:00:00","38100","2.792","49.75","5.096","50.4","NAN","NAN","NAN","NAN","NAN"],
    [1537111,"2026-01-19 02:10:00","38101","2.907","53.45","5.88","55.96","NAN","NAN","NAN","NAN","NAN"],
    [1537112,"2026-01-19 02:20:00","38102","3.0469999999999997","45.57","5.782","50.77","NAN","NAN","NAN","NAN","NAN"],
    [1537113,"2026-01-19 02:30:00","38103","2.795","49.89","4.541","54.34","NAN","NAN","NAN","NAN","NAN"],
    [1537114,"2026-01-19 02:40:00","38104","2.687","41.84","4.508","39.13","NAN","NAN","NAN","NAN","NAN"],
    [1537115,"2026-01-19 02:50:00","38105","2.144","37.42","3.495","32.68","NAN","NAN","NAN","NAN","NAN"],
    [1537116,"2026-01-19 03:00:00","38106","2.427","52.78","4.802","60.11","NAN","NAN","NAN","NAN","NAN"],
    [1537117,"2026-01-19 03:10:00","38107","2.681","63.51","5.031","75.26","NAN","NAN","NAN","NAN","NAN"],
    [1537118,"2026-01-19 03:20:00","38108","2.154","56.9","4.247","73.73","NAN","NAN","NAN","NAN","NAN"],
    [1537119,"2026-01-19 03:30:00","38109","2.387","41.55","4.083","53.16","NAN","NAN","NAN","NAN","NAN"],
    [1537120,"2026-01-19 03:40:00","38110","0.7170000000000001","33.98","2.515","35.08","NAN","NAN","NAN","NAN","NAN"],
    [1537121,"2026-01-19 03:50:00","38111","0.415","33.14","1.568","32.68","NAN","NAN","NAN","NAN","NAN"],
    [1537122,"2026-01-19 04:00:00","38112","0.742","32.02","1.862","32","NAN","NAN","NAN","NAN","NAN"],
    [1537123,"2026-01-19 04:10:00","38113","0.335","30.88","1.274","31.23","NAN","NAN","NAN","NAN","NAN"],
    [1537124,"2026-01-19 04:20:00","38114","0.445","30.17","1.503","30.27","NAN","NAN","NAN","NAN","NAN"],
    [1537125,"2026-01-19 04:30:00","38115","0.529","30.05","1.372","29.98","NAN","NAN","NAN","NAN","NAN"],
    [1537126,"2026-01-19 04:40:00","38116","0.248","29.98","1.045","29.98","NAN","NAN","NAN","NAN","NAN"],
    [1537127,"2026-01-19 04:50:00","38117","1.2009999999999998","29.86","2.417","29.69","NAN","NAN","NAN","NAN","NAN"],
    [1537128,"2026-01-19 05:00:00","38118","0.889","29.54","1.993","29.41","NAN","NAN","NAN","NAN","NAN"],
    [1537129,"2026-01-19 05:10:00","38119","0.608","29.45","1.829","29.48","NAN","NAN","NAN","NAN","NAN"],
    [1537130,"2026-01-19 05:20:00","38120","1.7269999999999999","30.21","3.005","29.6","NAN","NAN","NAN","NAN","NAN"],
    [1537131,"2026-01-19 05:30:00","38121","1.9180000000000001","28.47","3.463","26.52","NAN","NAN","NAN","NAN","NAN"],
    [1537132,"2026-01-19 05:40:00","38122","2.258","32.06","3.299","34.88","NAN","NAN","NAN","NAN","NAN"],
    [1537133,"2026-01-19 05:50:00","38123","1.723","30.35","3.136","28.96","NAN","NAN","NAN","NAN","NAN"],
    [1537134,"2026-01-19 06:00:00","38124","1.524","25.34","3.005","24.88","NAN","NAN","NAN","NAN","NAN"],
    [1537135,"2026-01-19 06:10:00","38125","1.32","29.17","2.287","29.9","NAN","NAN","NAN","NAN","NAN"],
    [1537136,"2026-01-19 06:20:00","38126","1.145","26.2","2.515","24.11","NAN","NAN","NAN","NAN","NAN"],
    [1537137,"2026-01-19 06:30:00","38127","1.3880000000000001","22.25","2.679","23.11","NAN","NAN","NAN","NAN","NAN"],
    [1537138,"2026-01-19 06:40:00","38128","0.917","21.73","1.927","21.8","NAN","NAN","NAN","NAN","NAN"],
    [1537139,"2026-01-19 06:50:00","38129","1.4240000000000002","23.56","2.45","28.07","NAN","NAN","NAN","NAN","NAN"],
    [1537140,"2026-01-19 07:00:00","38130","1.579","28.65","2.875","28.66","NAN","NAN","NAN","NAN","NAN"],
    [1537141,"2026-01-19 07:10:00","38131","1.588","26.94","2.515","27.26","NAN","NAN","NAN","NAN","NAN"],
    [1537142,"2026-01-19 07:20:00","38132","1.575","31.49","2.613","29.79","NAN","NAN","NAN","NAN","NAN"],
    [1537143,"2026-01-19 07:30:00","38133","1.381","24.19","2.548","29.53","NAN","NAN","NAN","NAN","NAN"],
    [1537144,"2026-01-19 07:40:00","38134","1.453","21.43","2.45","20.94","NAN","NAN","NAN","NAN","NAN"],
    [1537145,"2026-01-19 07:50:00","38135","1.1420000000000001","21.24","2.319","20.55","NAN","NAN","NAN","NAN","NAN"],
    [1537146,"2026-01-19 08:00:00","38136","1.446","20.59","2.417","20.07","NAN","NAN","NAN","NAN","NAN"],
    [1537147,"2026-01-19 08:10:00","38137","1.264","21.91","2.581","19.88","NAN","NAN","NAN","NAN","NAN"],
    [1537148,"2026-01-19 08:20:00","38138","1.266","19.49","2.809","18.91","NAN","NAN","NAN","NAN","NAN"],
    [1537149,"2026-01-19 08:30:00","38139","1.4169999999999998","18.49","2.515","17.86","NAN","NAN","NAN","NAN","NAN"],
    [1537150,"2026-01-19 08:40:00","38140","1.756","16.76","2.842","17.09","NAN","NAN","NAN","NAN","NAN"],
    [1537151,"2026-01-19 08:50:00","38141","1.867","12.24","3.397","8.84","NAN","NAN","NAN","NAN","NAN"],
    [1537152,"2026-01-19 09:00:00","38142","1.692","10.38","3.659","8.71","NAN","NAN","NAN","NAN","NAN"],
    [1537153,"2026-01-19 09:10:00","38143","1.861","10.74","3.365","7.652","NAN","NAN","NAN","NAN","NAN"],
    [1537154,"2026-01-19 09:20:00","38144","2.3409999999999997","22.2","3.789","17.33","NAN","NAN","NAN","NAN","NAN"],
    [1537155,"2026-01-19 09:30:00","38145","2.634","30.04","4.312","21.5","NAN","NAN","NAN","NAN","NAN"],
    [1537156,"2026-01-19 09:40:00","38146","2.502","35.51","4.018","41.84","NAN","NAN","NAN","NAN","NAN"],
    [1537157,"2026-01-19 09:50:00","38147","2.7230000000000003","28.74","5.521","23.86","NAN","NAN","NAN","NAN","NAN"],
    [1537158,"2026-01-19 10:00:00","38148","2.9810000000000003","45.69","4.933","31.88","NAN","NAN","NAN","NAN","NAN"],
    [1537159,"2026-01-19 10:10:00","38149","2.6710000000000003","35.19","4.769","29.29","NAN","NAN","NAN","NAN","NAN"],
    [1537160,"2026-01-19 10:20:00","38150","2.77","37.12","5.455","33.77","NAN","NAN","NAN","NAN","NAN"],
    [1537161,"2026-01-19 10:30:00","38151","3.8310000000000004","35.47","7.383","41.73","NAN","NAN","NAN","NAN","NAN"],
    [1537162,"2026-01-19 10:40:00","38152","3.8369999999999997","28.42","6.011","30.62","NAN","NAN","NAN","NAN","NAN"],
    [1537163,"2026-01-19 10:50:00","38153","4.236000000000001","28.1","6.729","43.39","NAN","NAN","NAN","NAN","NAN"],
    [1537164,"2026-01-19 11:00:00","38154","4.238","32.18","6.795","22.71","NAN","NAN","NAN","NAN","NAN"],
    [1537165,"2026-01-19 11:10:00","38155","4.008","27.77","6.958","11.34","NAN","NAN","NAN","NAN","NAN"],
    [1537166,"2026-01-19 11:20:00","38156","3.6630000000000003","31.55","5.913","29.98","NAN","NAN","NAN","NAN","NAN"],
    [1537167,"2026-01-19 11:30:00","38157","3.4189999999999996","18.31","6.141","23.26","NAN","NAN","NAN","NAN","NAN"],
    [1537168,"2026-01-19 11:40:00","38158","2.977","9.6","5.913","0.762","NAN","NAN","NAN","NAN","NAN"],
    [1537169,"2026-01-19 11:50:00","38159","4.329","8.73","6.239","11.1","NAN","NAN","NAN","NAN","NAN"],
    [1537170,"2026-01-19 12:00:00","38160","3.25","12.81","5.717","7.478","NAN","NAN","NAN","NAN","NAN"],
    [1537171,"2026-01-19 12:10:00","38161","3.555","13.05","5.978","26.95","NAN","NAN","NAN","NAN","NAN"],
    [1537172,"2026-01-19 12:20:00","38162","3.5860000000000003","18.52","6.664","16.39","NAN","NAN","NAN","NAN","NAN"],
    [1537173,"2026-01-19 12:30:00","38163","3.1489999999999996","18.75","5.357","23.57","NAN","NAN","NAN","NAN","NAN"],
    [1537174,"2026-01-19 12:40:00","38164","3.8089999999999997","17.55","7.807","21.69","NAN","NAN","NAN","NAN","NAN"],
    [1537175,"2026-01-19 12:50:00","38165","3.3539999999999996","14.51","5.488","8.57","NAN","NAN","NAN","NAN","NAN"],
    [1537176,"2026-01-19 13:00:00","38166","3.292","7.601","5.815","11.57","NAN","NAN","NAN","NAN","NAN"],
    [1537177,"2026-01-19 13:10:00","38167","3.06","15.93","5.227","3.505","NAN","NAN","NAN","NAN","NAN"],
    [1537178,"2026-01-19 13:20:00","38168","2.986","16.95","5.619","22.14","NAN","NAN","NAN","NAN","NAN"],
    [1537179,"2026-01-19 13:30:00","38169","2.865","7.532","4.835","1.829","NAN","NAN","NAN","NAN","NAN"],
    [1537180,"2026-01-19 13:40:00","38170","2.81","10.31","5.194","20.96","NAN","NAN","NAN","NAN","NAN"],
    [1537181,"2026-01-19 13:50:00","38171","3.0389999999999997","11.46","5.717","4.348","NAN","NAN","NAN","NAN","NAN"],
    [1537182,"2026-01-19 14:00:00","38172","2.813","13.71","4.965","22.19","NAN","NAN","NAN","NAN","NAN"],
    [1537183,"2026-01-19 14:10:00","38173","3.0239999999999996","11.15","5.259","14.65","NAN","NAN","NAN","NAN","NAN"],
    [1537184,"2026-01-19 14:20:00","38174","3.43","8.41","5.553","21.8","NAN","NAN","NAN","NAN","NAN"],
    [1537185,"2026-01-19 14:30:00","38175","3.273","19.02","5.292","14.89","NAN","NAN","NAN","NAN","NAN"],
    [1537186,"2026-01-19 14:40:00","38176","3.2310000000000003","21.46","4.998","26.2","NAN","NAN","NAN","NAN","NAN"],
    [1537187,"2026-01-19 14:50:00","38177","3.153","24.97","5.684","26.98","NAN","NAN","NAN","NAN","NAN"],
    [1537188,"2026-01-19 15:00:00","38178","3.6839999999999997","23.87","5.619","22.8","NAN","NAN","NAN","NAN","NAN"],
    [1537189,"2026-01-19 15:10:00","38179","3.8739999999999997","18.03","5.945","24.38","NAN","NAN","NAN","NAN","NAN"],
    [1537190,"2026-01-19 15:20:00","38180","3.168","16.18","5.717","5.719","NAN","NAN","NAN","NAN","NAN"],
    [1537191,"2026-01-19 15:30:00","38181","3.592","15.69","6.337","16.49","NAN","NAN","NAN","NAN","NAN"],
    [1537192,"2026-01-19 15:40:00","38182","3.647","23.44","5.945","27.66","NAN","NAN","NAN","NAN","NAN"],
    [1537193,"2026-01-19 15:50:00","38183","3.603","22.76","6.86","22.96","NAN","NAN","NAN","NAN","NAN"],
    [1537194,"2026-01-19 16:00:00","38184","3.772","22.12","6.076","26.38","NAN","NAN","NAN","NAN","NAN"],
    [1537195,"2026-01-19 16:10:00","38185","3.69","21.67","6.011","12.86","NAN","NAN","NAN","NAN","NAN"],
    [1537196,"2026-01-19 16:20:00","38186","3.431","19.67","6.239","26.36","NAN","NAN","NAN","NAN","NAN"],
    [1537197,"2026-01-19 16:30:00","38187","3.113","14.92","6.011","6.385","NAN","NAN","NAN","NAN","NAN"],
    [1537198,"2026-01-19 16:40:00","38188","3.386","19.27","5.978","13.01","NAN","NAN","NAN","NAN","NAN"],
    [1537199,"2026-01-19 16:50:00","38189","3.477","20.14","5.553","30.77","NAN","NAN","NAN","NAN","NAN"],
    [1537200,"2026-01-19 17:00:00","38190","3.2289999999999996","23.26","5.39","34.37","NAN","NAN","NAN","NAN","NAN"],
    [1537201,"2026-01-19 17:10:00","38191","3.4989999999999997","23.18","5.194","29.36","NAN","NAN","NAN","NAN","NAN"],
    [1537202,"2026-01-19 17:20:00","38192","3.2889999999999997","17.25","5.782","26.61","NAN","NAN","NAN","NAN","NAN"],
    [1537203,"2026-01-19 17:30:00","38193","2.6710000000000003","17.89","5.455","14.17","NAN","NAN","NAN","NAN","NAN"],
    [1537204,"2026-01-19 17:40:00","38194","3.5469999999999997","16.65","5.782","42.4","NAN","NAN","NAN","NAN","NAN"],
    [1537205,"2026-01-19 17:50:00","38195","3.529","20.4","6.893","31.55","NAN","NAN","NAN","NAN","NAN"],
    [1537206,"2026-01-19 18:00:00","38196","3.5869999999999997","17.8","6.043","36.91","NAN","NAN","NAN","NAN","NAN"],
    [1537207,"2026-01-19 18:10:00","38197","3.56","21.15","6.109","11.04","NAN","NAN","NAN","NAN","NAN"],
    [1537208,"2026-01-19 18:20:00","38198","3.6310000000000002","23.06","6.599","24.46","NAN","NAN","NAN","NAN","NAN"],
    [1537209,"2026-01-19 18:30:00","38199","3.529","29.19","6.468","26.07","NAN","NAN","NAN","NAN","NAN"],
    [1537210,"2026-01-19 18:40:00","38200","4.495","33.27","7.154","39.16","NAN","NAN","NAN","NAN","NAN"],
    [1537211,"2026-01-19 18:50:00","38201","4.1160000000000005","29.08","7.317","39.64","NAN","NAN","NAN","NAN","NAN"],
    [1537212,"2026-01-19 19:00:00","38202","5.321000000000001","37.01","8.07","51.82","NAN","NAN","NAN","NAN","NAN"],
    [1537213,"2026-01-19 19:10:00","38203","5.0","30.93","8.53","46.55","NAN","NAN","NAN","NAN","NAN"],
    [1537214,"2026-01-19 19:20:00","38204","4.448","24.31","7.056","46.08","NAN","NAN","NAN","NAN","NAN"],
    [1537215,"2026-01-19 19:30:00","38205","3.792","21.49","6.207","2.694","NAN","NAN","NAN","NAN","NAN"],
    [1537216,"2026-01-19 19:40:00","38206","4.208","22.09","7.84","29.46","NAN","NAN","NAN","NAN","NAN"],
    [1537217,"2026-01-19 19:50:00","38207","3.478","20.65","5.749","33.87","NAN","NAN","NAN","NAN","NAN"],
    [1537218,"2026-01-19 20:00:00","38208","3.95","21.67","6.827","42.62","NAN","NAN","NAN","NAN","NAN"],
    [1537219,"2026-01-19 20:10:00","38209","4.303","25.29","8.1","32.77","NAN","NAN","NAN","NAN","NAN"],
    [1537220,"2026-01-19 20:20:00","38210","5.407","27.67","9.15","31.19","NAN","NAN","NAN","NAN","NAN"],
    [1537221,"2026-01-19 20:30:00","38211","5.047","24.25","7.938","41.58","NAN","NAN","NAN","NAN","NAN"],
    [1537222,"2026-01-19 20:40:00","38212","4.503","25.46","7.513","37.19","NAN","NAN","NAN","NAN","NAN"],
    [1537223,"2026-01-19 20:50:00","38213","4.072","26.68","8.1","29.95","NAN","NAN","NAN","NAN","NAN"],
    [1537224,"2026-01-19 21:00:00","38214","4.6530000000000005","32.53","8.26","32.41","NAN","NAN","NAN","NAN","NAN"],
    [1537225,"2026-01-19 21:10:00","38215","6.132000000000001","37.83","10.62","34.43","NAN","NAN","NAN","NAN","NAN"],
    [1537226,"2026-01-19 21:20:00","38216","5.446000000000001","39.73","8.75","38.16","NAN","NAN","NAN","NAN","NAN"],
    [1537227,"2026-01-19 21:30:00","38217","4.475","43.6","8.04","54.54","NAN","NAN","NAN","NAN","NAN"],
    [1537228,"2026-01-19 21:40:00","38218","4.773","42.99","8.17","48.11","NAN","NAN","NAN","NAN","NAN"],
    [1537229,"2026-01-19 21:50:00","38219","4.478","41.1","8.98","28.93","NAN","NAN","NAN","NAN","NAN"],
    [1537230,"2026-01-19 22:00:00","38220","4.615","35.17","8.82","34.64","NAN","NAN","NAN","NAN","NAN"],
    [1537231,"2026-01-19 22:10:00","38221","5.1579999999999995","28.88","8.36","20.51","NAN","NAN","NAN","NAN","NAN"],
    [1537232,"2026-01-19 22:20:00","38222","5.332999999999999","29.05","9.02","25.35","NAN","NAN","NAN","NAN","NAN"],
    [1537233,"2026-01-19 22:30:00","38223","4.798","35.01","7.317","44.26","NAN","NAN","NAN","NAN","NAN"],
    [1537234,"2026-01-19 22:40:00","38224","4.475","37.06","8.92","31.92","NAN","NAN","NAN","NAN","NAN"],
    [1537235,"2026-01-19 22:50:00","38225","3.846","39.47","7.285","33.52","NAN","NAN","NAN","NAN","NAN"],
    [1537236,"2026-01-19 23:00:00","38226","4.3","39.12","8.89","40.67","NAN","NAN","NAN","NAN","NAN"],
    [1537237,"2026-01-19 23:10:00","38227","4.444","40.87","7.611","42.59","NAN","NAN","NAN","NAN","NAN"],
    [1537238,"2026-01-19 23:20:00","38228","5.223","43.11","9.93","45.3","NAN","NAN","NAN","NAN","NAN"],
    [1537239,"2026-01-19 23:30:00","38229","4.446000000000001","36.51","7.546","36.9","NAN","NAN","NAN","NAN","NAN"],
    [1537240,"2026-01-19 23:40:00","38230","4.2010000000000005","23.17","7.089","28.08","NAN","NAN","NAN","NAN","NAN"],
    [1537241,"2026-01-19 23:50:00","38231","3.68","20.07","6.011","17.77","NAN","NAN","NAN","NAN","NAN"],
    [1537242,"2026-01-20 00:00:00","38232","3.9339999999999997","21.28","6.631","21.59","NAN","NAN","NAN","NAN","NAN"],
    [1537243,"2026-01-20 00:10:00","38233","4.354","22.96","6.795","20.15","NAN","NAN","NAN","NAN","NAN"],
    [1537244,"2026-01-20 00:20:00","38234","4.485","24.26","8","35.04","NAN","NAN","NAN","NAN","NAN"],
    [1537245,"2026-01-20 00:30:00","38235","5.303","28.61","8.23","26.94","NAN","NAN","NAN","NAN","NAN"],
    [1537246,"2026-01-20 00:40:00","38236","4.835","26.24","8.62","10.69","NAN","NAN","NAN","NAN","NAN"],
    [1537247,"2026-01-20 00:50:00","38237","5.105","27.91","11.83","30.75","NAN","NAN","NAN","NAN","NAN"],
    [1537248,"2026-01-20 01:00:00","38238","5.9110000000000005","27.3","10.09","33.88","NAN","NAN","NAN","NAN","NAN"],
    [1537249,"2026-01-20 01:10:00","38239","6.8","30.28","11.01","53.08","NAN","NAN","NAN","NAN","NAN"],
    [1537250,"2026-01-20 01:20:00","38240","5.897","29.26","10.22","57.25","NAN","NAN","NAN","NAN","NAN"],
    [1537251,"2026-01-20 01:30:00","38241","6.146","26.28","11.69","31.32","NAN","NAN","NAN","NAN","NAN"],
    [1537252,"2026-01-20 01:40:00","38242","5.513","25.72","9.7","36.25","NAN","NAN","NAN","NAN","NAN"],
    [1537253,"2026-01-20 01:50:00","38243","6.522","19.91","10.16","31.77","NAN","NAN","NAN","NAN","NAN"],
    [1537254,"2026-01-20 02:00:00","38244","6.171","23.4","9.87","21.11","NAN","NAN","NAN","NAN","NAN"],
    [1537255,"2026-01-20 02:10:00","38245","6.4479999999999995","27.29","11.37","32.19","NAN","NAN","NAN","NAN","NAN"],
    [1537256,"2026-01-20 02:20:00","38246","7.843999999999999","22.96","15.52","24.02","NAN","NAN","NAN","NAN","NAN"],
    [1537257,"2026-01-20 02:30:00","38247","6.876","22.06","12.84","24.82","NAN","NAN","NAN","NAN","NAN"],
    [1537258,"2026-01-20 02:40:00","38248","6.662000000000001","22.03","10.62","29.14","NAN","NAN","NAN","NAN","NAN"],
    [1537259,"2026-01-20 02:50:00","38249","7.436","24.31","13.39","11.75","NAN","NAN","NAN","NAN","NAN"],
    [1537260,"2026-01-20 03:00:00","38250","6.721","25.06","10.75","29.02","NAN","NAN","NAN","NAN","NAN"],
    [1537261,"2026-01-20 03:10:00","38251","7.272","28.44","12.38","31.73","NAN","NAN","NAN","NAN","NAN"],
    [1537262,"2026-01-20 03:20:00","38252","7.232","22.6","12.48","24.97","NAN","NAN","NAN","NAN","NAN"],
    [1537263,"2026-01-20 03:30:00","38253","6.221","22.54","11.79","32.06","NAN","NAN","NAN","NAN","NAN"],
    [1537264,"2026-01-20 03:40:00","38254","6.718","21.28","10.94","22.09","NAN","NAN","NAN","NAN","NAN"],
    [1537265,"2026-01-20 03:50:00","38255","7.317","20.8","11.3","17.83","NAN","NAN","NAN","NAN","NAN"],
    [1537266,"2026-01-20 04:00:00","38256","5.69","14.09","10.65","21.83","NAN","NAN","NAN","NAN","NAN"],
    [1537267,"2026-01-20 04:10:00","38257","4.934","15.23","8.33","37.39","NAN","NAN","NAN","NAN","NAN"],
    [1537268,"2026-01-20 04:20:00","38258","5.916","14.42","12.18","14.34","NAN","NAN","NAN","NAN","NAN"],
    [1537269,"2026-01-20 04:30:00","38259","6.165","20.55","11.24","25.11","NAN","NAN","NAN","NAN","NAN"],
    [1537270,"2026-01-20 04:40:00","38260","6.6160000000000005","18.34","12.05","13.68","NAN","NAN","NAN","NAN","NAN"],
    [1537271,"2026-01-20 04:50:00","38261","5.125","9.62","9.38","22.85","NAN","NAN","NAN","NAN","NAN"],
    [1537272,"2026-01-20 05:00:00","38262","5.665","0.975","9.9","4.71","NAN","NAN","NAN","NAN","NAN"],
    [1537273,"2026-01-20 05:10:00","38263","5.115","356.7","9.7","339.2","NAN","NAN","NAN","NAN","NAN"],
    [1537274,"2026-01-20 05:20:00","38264","5.612","11.57","11.04","23.59","NAN","NAN","NAN","NAN","NAN"],
    [1537275,"2026-01-20 05:30:00","38265","5.479","9.72","9.51","10.77","NAN","NAN","NAN","NAN","NAN"],
    [1537276,"2026-01-20 05:40:00","38266","5.97","8.91","10.29","353","NAN","NAN","NAN","NAN","NAN"],
    [1537277,"2026-01-20 05:50:00","38267","5.916","14.92","9.67","1.428","NAN","NAN","NAN","NAN","NAN"],
    [1537278,"2026-01-20 06:00:00","38268","6.183","22.29","10.71","20.36","NAN","NAN","NAN","NAN","NAN"],
    [1537279,"2026-01-20 06:10:00","38269","5.8260000000000005","16.05","9.77","28.8","NAN","NAN","NAN","NAN","NAN"],
    [1537280,"2026-01-20 06:20:00","38270","5.617000000000001","20.99","9.83","43.57","NAN","NAN","NAN","NAN","NAN"],
    [1537281,"2026-01-20 06:30:00","38271","6.006","30.03","10.68","25.07","NAN","NAN","NAN","NAN","NAN"],
    [1537282,"2026-01-20 06:40:00","38272","6.356","26.14","9.7","29.25","NAN","NAN","NAN","NAN","NAN"],
    [1537283,"2026-01-20 06:50:00","38273","4.391","23.08","7.056","21.53","NAN","NAN","NAN","NAN","NAN"],
    [1537284,"2026-01-20 07:00:00","38274","4.63","23.21","6.991","24.43","NAN","NAN","NAN","NAN","NAN"],
    [1537285,"2026-01-20 07:10:00","38275","5.0969999999999995","23.5","8.3","34.19","NAN","NAN","NAN","NAN","NAN"],
    [1537286,"2026-01-20 07:20:00","38276","4.935","21.57","9.34","28.12","NAN","NAN","NAN","NAN","NAN"],
    [1537287,"2026-01-20 07:30:00","38277","4.638999999999999","23.04","8.26","19.7","NAN","NAN","NAN","NAN","NAN"],
    [1537288,"2026-01-20 07:40:00","38278","4.605","25.38","7.644","28.69","NAN","NAN","NAN","NAN","NAN"],
    [1537289,"2026-01-20 07:50:00","38279","5.2860000000000005","23.1","8.66","25.37","NAN","NAN","NAN","NAN","NAN"],
    [1537290,"2026-01-20 08:00:00","38280","5.099","26.5","7.742","18.36","NAN","NAN","NAN","NAN","NAN"],
    [1537291,"2026-01-20 08:10:00","38281","4.446000000000001","22.93","8.75","33.4","NAN","NAN","NAN","NAN","NAN"],
    [1537292,"2026-01-20 08:20:00","38282","5.905","22.44","9.31","22.59","NAN","NAN","NAN","NAN","NAN"],
    [1537293,"2026-01-20 08:30:00","38283","4.893","16.82","8.98","3.803","NAN","NAN","NAN","NAN","NAN"],
    [1537294,"2026-01-20 08:40:00","38284","4.422","11.7","7.938","4.678","NAN","NAN","NAN","NAN","NAN"],
    [1537295,"2026-01-20 08:50:00","38285","4.708","9.37","7.971","4.749","NAN","NAN","NAN","NAN","NAN"],
    [1537296,"2026-01-20 09:00:00","38286","4.523","16.33","7.285","26.37","NAN","NAN","NAN","NAN","NAN"],
    [1537297,"2026-01-20 09:10:00","38287","4.641","16.9","7.84","19.96","NAN","NAN","NAN","NAN","NAN"],
    [1537298,"2026-01-20 09:20:00","38288","4.574","13.11","8.1","10.02","NAN","NAN","NAN","NAN","NAN"],
    [1537299,"2026-01-20 09:30:00","38289","4.195","14.96","7.317","7.328","NAN","NAN","NAN","NAN","NAN"],
    [1537300,"2026-01-20 09:40:00","38290","4.44","18.23","8.17","33.28","NAN","NAN","NAN","NAN","NAN"],
    [1537301,"2026-01-20 09:50:00","38291","3.7560000000000002","19.26","6.533","18.34","NAN","NAN","NAN","NAN","NAN"],
    [1537302,"2026-01-20 10:00:00","38292","4.091","15.36","7.089","17.27","NAN","NAN","NAN","NAN","NAN"],
    [1537303,"2026-01-20 10:10:00","38293","3.5639999999999996","11.9","6.174","18.2","NAN","NAN","NAN","NAN","NAN"],
    [1537304,"2026-01-20 10:20:00","38294","4.019","10.0","7.677","358","NAN","NAN","NAN","NAN","NAN"],
    [1537305,"2026-01-20 10:30:00","38295","4.078","9.12","7.742","36.44","NAN","NAN","NAN","NAN","NAN"],
    [1537306,"2026-01-20 10:40:00","38296","4.1419999999999995","4.38","6.403","11.72","NAN","NAN","NAN","NAN","NAN"],
    [1537307,"2026-01-20 10:50:00","38297","3.6069999999999998","3.253","6.86","357.9","NAN","NAN","NAN","NAN","NAN"],
    [1537308,"2026-01-20 11:00:00","38298","4.367","2.5639999999999996","7.546","0.417","NAN","NAN","NAN","NAN","NAN"],
    [1537309,"2026-01-20 11:10:00","38299","3.758","3.575","7.023","15.33","NAN","NAN","NAN","NAN","NAN"],
    [1537310,"2026-01-20 11:20:00","38300","3.717","5.775","6.468","10.88","NAN","NAN","NAN","NAN","NAN"],
    [1537311,"2026-01-20 11:30:00","38301","3.867","359.9","6.827","354.2","NAN","NAN","NAN","NAN","NAN"],
    [1537312,"2026-01-20 11:40:00","38302","3.772","355.1","6.893","25.48","NAN","NAN","NAN","NAN","NAN"],
    [1537313,"2026-01-20 11:50:00","38303","3.536","2.294","5.815","5.449","NAN","NAN","NAN","NAN","NAN"],
    [1537314,"2026-01-20 12:00:00","38304","3.4619999999999997","14.95","6.991","9.18","NAN","NAN","NAN","NAN","NAN"],
    [1537315,"2026-01-20 12:10:00","38305","5.085","18.04","10","14.18","NAN","NAN","NAN","NAN","NAN"],
    [1537316,"2026-01-20 12:20:00","38306","4.513","20.56","7.285","24.62","NAN","NAN","NAN","NAN","NAN"],
    [1537317,"2026-01-20 12:30:00","38307","3.917","17.87","6.664","4.532","NAN","NAN","NAN","NAN","NAN"],
    [1537318,"2026-01-20 12:40:00","38308","3.775","15.05","6.272","4.461","NAN","NAN","NAN","NAN","NAN"],
    [1537319,"2026-01-20 12:50:00","38309","3.718","7.195","6.991","2.568","NAN","NAN","NAN","NAN","NAN"],
    [1537320,"2026-01-20 13:00:00","38310","3.7680000000000002","9.65","6.729","356.6","NAN","NAN","NAN","NAN","NAN"],
    [1537321,"2026-01-20 13:10:00","38311","3.687","6.352","5.651","11.26","NAN","NAN","NAN","NAN","NAN"],
    [1537322,"2026-01-20 13:20:00","38312","3.3280000000000003","1.3659999999999999","5.945","350.1","NAN","NAN","NAN","NAN","NAN"],
    [1537323,"2026-01-20 13:30:00","38313","3.3360000000000003","4.03","5.782","357","NAN","NAN","NAN","NAN","NAN"],
    [1537324,"2026-01-20 13:40:00","38314","2.535","12.52","4.867","31.72","NAN","NAN","NAN","NAN","NAN"],
    [1537325,"2026-01-20 13:50:00","38315","3.56","15.57","5.978","26.19","NAN","NAN","NAN","NAN","NAN"],
    [1537326,"2026-01-20 14:00:00","38316","3.332","22.27","7.056","13.25","NAN","NAN","NAN","NAN","NAN"],
    [1537327,"2026-01-20 14:10:00","38317","3.5780000000000003","25.48","7.677","31.09","NAN","NAN","NAN","NAN","NAN"],
    [1537328,"2026-01-20 14:20:00","38318","3.983","37.23","7.448","32.69","NAN","NAN","NAN","NAN","NAN"],
    [1537329,"2026-01-20 14:30:00","38319","4.379","45.09","8.33","58.59","NAN","NAN","NAN","NAN","NAN"],
    [1537330,"2026-01-20 14:40:00","38320","4.843","47.44","9.73","57.37","NAN","NAN","NAN","NAN","NAN"],
    [1537331,"2026-01-20 14:50:00","38321","4.31","47.59","10.06","52.02","NAN","NAN","NAN","NAN","NAN"],
    [1537332,"2026-01-20 15:00:00","38322","4.81","49.65","10","66.92","NAN","NAN","NAN","NAN","NAN"],
    [1537333,"2026-01-20 15:10:00","38323","4.8389999999999995","51.48","10.16","60.18","NAN","NAN","NAN","NAN","NAN"],
    [1537334,"2026-01-20 15:20:00","38324","5.665","45.7","9.67","40.05","NAN","NAN","NAN","NAN","NAN"],
    [1537335,"2026-01-20 15:30:00","38325","5.334","45.37","9.24","41.87","NAN","NAN","NAN","NAN","NAN"],
    [1537336,"2026-01-20 15:40:00","38326","5.027","45.32","9.05","52.73","NAN","NAN","NAN","NAN","NAN"],
    [1537337,"2026-01-20 15:50:00","38327","4.827","48.54","8.82","65.77","NAN","NAN","NAN","NAN","NAN"],
    [1537338,"2026-01-20 16:00:00","38328","5.336","45.68","8.95","36.96","NAN","NAN","NAN","NAN","NAN"],
    [1537339,"2026-01-20 16:10:00","38329","4.87","51.7","8.72","57.79","NAN","NAN","NAN","NAN","NAN"],
    [1537340,"2026-01-20 16:20:00","38330","4.453","45.75","7.677","32.15","NAN","NAN","NAN","NAN","NAN"],
    [1537341,"2026-01-20 16:30:00","38331","4.76","45.93","8.95","39.94","NAN","NAN","NAN","NAN","NAN"],
    [1537342,"2026-01-20 16:40:00","38332","5.051","46.67","9.34","41.35","NAN","NAN","NAN","NAN","NAN"],
    [1537343,"2026-01-20 16:50:00","38333","5.2589999999999995","46.17","9.05","26.25","NAN","NAN","NAN","NAN","NAN"],
    [1537344,"2026-01-20 17:00:00","38334","5.135","45.44","8.98","41.68","NAN","NAN","NAN","NAN","NAN"],
    [1537345,"2026-01-20 17:10:00","38335","4.684","45.56","9.64","31.81","NAN","NAN","NAN","NAN","NAN"],
    [1537346,"2026-01-20 17:20:00","38336","4.198","44.27","7.154","59.37","NAN","NAN","NAN","NAN","NAN"],
    [1537347,"2026-01-20 17:30:00","38337","4.877","44.08","8.66","42.23","NAN","NAN","NAN","NAN","NAN"],
    [1537348,"2026-01-20 17:40:00","38338","4.566","44.17","8.49","41.74","NAN","NAN","NAN","NAN","NAN"],
    [1537349,"2026-01-20 17:50:00","38339","4.537","44.87","9.34","26.7","NAN","NAN","NAN","NAN","NAN"],
    [1537350,"2026-01-20 18:00:00","38340","4.305","45.42","8.2","31.16","NAN","NAN","NAN","NAN","NAN"],
    [1537351,"2026-01-20 18:10:00","38341","4.114","56.95","9.93","61.18","NAN","NAN","NAN","NAN","NAN"],
    [1537352,"2026-01-20 18:20:00","38342","4.312","52.98","9.57","89.5","NAN","NAN","NAN","NAN","NAN"],
    [1537353,"2026-01-20 18:30:00","38343","3.782","56.34","7.187","47.96","NAN","NAN","NAN","NAN","NAN"],
    [1537354,"2026-01-20 18:40:00","38344","4.368","56.11","9.6","65.95","NAN","NAN","NAN","NAN","NAN"],
    [1537355,"2026-01-20 18:50:00","38345","3.964","63.0","9.9","45.44","NAN","NAN","NAN","NAN","NAN"],
    [1537356,"2026-01-20 19:00:00","38346","3.613","56.67","8.69","44.48","NAN","NAN","NAN","NAN","NAN"],
    [1537357,"2026-01-20 19:10:00","38347","4.32","53.77","9.44","44.07","NAN","NAN","NAN","NAN","NAN"],
    [1537358,"2026-01-20 19:20:00","38348","3.885","51.3","6.468","35.99","NAN","NAN","NAN","NAN","NAN"],
    [1537359,"2026-01-20 19:30:00","38349","3.428","56.36","7.644","51.42","NAN","NAN","NAN","NAN","NAN"],
    [1537360,"2026-01-20 19:40:00","38350","3.9789999999999996","51.64","7.187","72.22","NAN","NAN","NAN","NAN","NAN"],
    [1537361,"2026-01-20 19:50:00","38351","3.605","55.57","8.69","58.92","NAN","NAN","NAN","NAN","NAN"],
    [1537362,"2026-01-20 20:00:00","38352","4.16","61.18","8.36","77.9","NAN","NAN","NAN","NAN","NAN"],
    [1537363,"2026-01-20 20:10:00","38353","4.423","53.99","8.72","51.34","NAN","NAN","NAN","NAN","NAN"],
    [1537364,"2026-01-20 20:20:00","38354","4.171","58.0","7.481","40.01","NAN","NAN","NAN","NAN","NAN"],
    [1537365,"2026-01-20 20:30:00","38355","3.798","54.94","7.481","46.23","NAN","NAN","NAN","NAN","NAN"],
    [1537366,"2026-01-20 20:40:00","38356","3.492","53.93","8.4","47.45","NAN","NAN","NAN","NAN","NAN"],
    [1537367,"2026-01-20 20:50:00","38357","3.2289999999999996","52.88","6.925","42.22","NAN","NAN","NAN","NAN","NAN"],
    [1537368,"2026-01-20 21:00:00","38358","3.013","52.62","6.272","30.06","NAN","NAN","NAN","NAN","NAN"],
    [1537369,"2026-01-20 21:10:00","38359","3.641","51.78","7.089","42.68","NAN","NAN","NAN","NAN","NAN"],
    [1537370,"2026-01-20 21:20:00","38360","3.25","55.14","5.945","72.59","NAN","NAN","NAN","NAN","NAN"],
    [1537371,"2026-01-20 21:30:00","38361","2.7060000000000004","55.6","4.998","57.88","NAN","NAN","NAN","NAN","NAN"],
    [1537372,"2026-01-20 21:40:00","38362","2.96","57.55","6.337","59.46","NAN","NAN","NAN","NAN","NAN"],
    [1537373,"2026-01-20 21:50:00","38363","2.5980000000000003","50.04","5.488","53.12","NAN","NAN","NAN","NAN","NAN"],
    [1537374,"2026-01-20 22:00:00","38364","2.7760000000000002","47.26","5.847","33.59","NAN","NAN","NAN","NAN","NAN"],
    [1537375,"2026-01-20 22:10:00","38365","2.759","50.68","6.533","42.27","NAN","NAN","NAN","NAN","NAN"],
    [1537376,"2026-01-20 22:20:00","38366","2.843","49.53","6.762","41.05","NAN","NAN","NAN","NAN","NAN"],
    [1537377,"2026-01-20 22:30:00","38367","2.642","41.96","5.194","41.04","NAN","NAN","NAN","NAN","NAN"],
    [1537378,"2026-01-20 22:40:00","38368","2.8280000000000003","32.69","5.031","30.89","NAN","NAN","NAN","NAN","NAN"],
    [1537379,"2026-01-20 22:50:00","38369","2.79","30.11","4.541","28.54","NAN","NAN","NAN","NAN","NAN"],
    [1537380,"2026-01-20 23:00:00","38370","3.1310000000000002","24.21","4.933","9.76","NAN","NAN","NAN","NAN","NAN"],
    [1537381,"2026-01-20 23:10:00","38371","2.546","24.85","4.083","25.57","NAN","NAN","NAN","NAN","NAN"],
    [1537382,"2026-01-20 23:20:00","38372","2.115","21.62","4.345","19.97","NAN","NAN","NAN","NAN","NAN"],
    [1537383,"2026-01-20 23:30:00","38373","1.966","18.07","3.43","20.45","NAN","NAN","NAN","NAN","NAN"],
    [1537384,"2026-01-20 23:40:00","38374","2.1590000000000003","23.92","3.724","27.54","NAN","NAN","NAN","NAN","NAN"],
    [1537385,"2026-01-20 23:50:00","38375","2.45","28.81","4.149","26","NAN","NAN","NAN","NAN","NAN"],
    [1537386,"2026-01-21 00:00:00","38376","2.7","36.6","4.41","34.8","NAN","NAN","NAN","NAN","NAN"],
    [1537387,"2026-01-21 00:10:00","38377","1.92","35.52","3.332","36.62","NAN","NAN","NAN","NAN","NAN"],
    [1537388,"2026-01-21 00:20:00","38378","1.815","28.56","3.103","35.6","NAN","NAN","NAN","NAN","NAN"],
    [1537389,"2026-01-21 00:30:00","38379","1.31","23.86","2.907","22.7","NAN","NAN","NAN","NAN","NAN"],
    [1537390,"2026-01-21 00:40:00","38380","2.037","18.73","3.136","25.69","NAN","NAN","NAN","NAN","NAN"],
    [1537391,"2026-01-21 00:50:00","38381","1.922","14.97","3.169","14.58","NAN","NAN","NAN","NAN","NAN"],
    [1537392,"2026-01-21 01:00:00","38382","2.488","11.99","3.953","9.48","NAN","NAN","NAN","NAN","NAN"],
    [1537393,"2026-01-21 01:10:00","38383","1.5719999999999998","7.441","3.071","3.802","NAN","NAN","NAN","NAN","NAN"],
    [1537394,"2026-01-21 01:20:00","38384","1.7169999999999999","6.186","2.907","3.096","NAN","NAN","NAN","NAN","NAN"],
    [1537395,"2026-01-21 01:30:00","38385","1.2429999999999999","6.7589999999999995","2.385","2.936","NAN","NAN","NAN","NAN","NAN"],
    [1537396,"2026-01-21 01:40:00","38386","1.1840000000000002","7.852","1.96","10.21","NAN","NAN","NAN","NAN","NAN"],
    [1537397,"2026-01-21 01:50:00","38387","1.255","13.35","2.417","12.7","NAN","NAN","NAN","NAN","NAN"],
    [1537398,"2026-01-21 02:00:00","38388","0.7190000000000001","13.93","1.601","13.91","NAN","NAN","NAN","NAN","NAN"],
    [1537399,"2026-01-21 02:10:00","38389","1.135","12.1","2.613","14.05","NAN","NAN","NAN","NAN","NAN"],
    [1537400,"2026-01-21 02:20:00","38390","1.092","5.617000000000001","1.829","6.337","NAN","NAN","NAN","NAN","NAN"],
    [1537401,"2026-01-21 02:30:00","38391","0.871","3.198","1.829","3.032","NAN","NAN","NAN","NAN","NAN"],
    [1537402,"2026-01-21 02:40:00","38392","0.909","2.957","1.633","3.032","NAN","NAN","NAN","NAN","NAN"],
    [1537403,"2026-01-21 02:50:00","38393","0.496","2.8489999999999998","1.437","2.831","NAN","NAN","NAN","NAN","NAN"],
    [1537404,"2026-01-21 03:00:00","38394","0.002","2.7430000000000003","0.261","2.743","NAN","NAN","NAN","NAN","NAN"],
    [1537405,"2026-01-21 03:10:00","38395","0.0","0.0","0","0","NAN","NAN","NAN","NAN","NAN"],
    [1537406,"2026-01-21 03:20:00","38396","0.0","0.0","0","0","NAN","NAN","NAN","NAN","NAN"],
    [1537407,"2026-01-21 03:30:00","38397","0.0","0.0","0","0","NAN","NAN","NAN","NAN","NAN"],
    [1537408,"2026-01-21 03:40:00","38398","0.0","0.0","0","0","NAN","NAN","NAN","NAN","NAN"],
    [1537409,"2026-01-21 03:50:00","38399","0.0","0.0","0","0","NAN","NAN","NAN","NAN","NAN"],
    [1537410,"2026-01-21 04:00:00","38400","0.0","0.0","0","0","NAN","NAN","NAN","NAN","NAN"],
    [1537411,"2026-01-21 04:10:00","38401","0.001","2.551","0.131","2.551","NAN","NAN","NAN","NAN","NAN"],
    [1537412,"2026-01-21 04:20:00","38402","0.0","0.0","0","0","NAN","NAN","NAN","NAN","NAN"],
    [1537413,"2026-01-21 04:30:00","38403","0.0","0.0","0","0","NAN","NAN","NAN","NAN","NAN"],
    [1537414,"2026-01-21 04:40:00","38404","0.0","0.0","0","0","NAN","NAN","NAN","NAN","NAN"],
    [1537415,"2026-01-21 04:50:00","38405","0.0","0.0","0","0","NAN","NAN","NAN","NAN","NAN"],
    [1537416,"2026-01-21 05:00:00","38406","0.0","0.0","0","0","NAN","NAN","NAN","NAN","NAN"],
    [1537417,"2026-01-21 05:10:00","38407","0.0","0.0","0","0","NAN","NAN","NAN","NAN","NAN"],
    [1537418,"2026-01-21 05:20:00","38408","0.0","0.0","0","0","NAN","NAN","NAN","NAN","NAN"],
    [1537419,"2026-01-21 05:30:00","38409","0.0","0.0","0","0","NAN","NAN","NAN","NAN","NAN"],
    [1537420,"2026-01-21 05:40:00","38410","0.003","1.7369999999999999","0.261","1.524","NAN","NAN","NAN","NAN","NAN"],
    [1537421,"2026-01-21 05:50:00","38411","0.0","0.0","0","0","NAN","NAN","NAN","NAN","NAN"],
    [1537422,"2026-01-21 06:00:00","38412","0.001","1.011","0.098","1.011","NAN","NAN","NAN","NAN","NAN"],
    [1537423,"2026-01-21 06:10:00","38413","0.392","0.503","1.47","0.481","NAN","NAN","NAN","NAN","NAN"],
    [1537424,"2026-01-21 06:20:00","38414","0.016","0.336","0.588","0.289","NAN","NAN","NAN","NAN","NAN"],
    [1537425,"2026-01-21 06:30:00","38415","0.001","0.193","0.131","0.193","NAN","NAN","NAN","NAN","NAN"],
    [1537426,"2026-01-21 06:40:00","38416","0.015","0.193","0.523","0.193","NAN","NAN","NAN","NAN","NAN"],
    [1537427,"2026-01-21 06:50:00","38417","0.003","0.193","0.131","0.193","NAN","NAN","NAN","NAN","NAN"],
    [1537428,"2026-01-21 07:00:00","38418","0.001","0.193","0.163","0.193","NAN","NAN","NAN","NAN","NAN"],
    [1537429,"2026-01-21 07:10:00","38419","0.0","0.0","0","0","NAN","NAN","NAN","NAN","NAN"],
    [1537430,"2026-01-21 07:20:00","38420","0.0","0.0","0","0","NAN","NAN","NAN","NAN","NAN"],
    [1537431,"2026-01-21 07:30:00","38421","0.005","0.17","0.359","0.176","NAN","NAN","NAN","NAN","NAN"],
    [1537432,"2026-01-21 07:40:00","38422","0.002","0.175","0.163","0.184","NAN","NAN","NAN","NAN","NAN"],
    [1537433,"2026-01-21 07:50:00","38423","0.006","0.16399999999999998","0.229","0.16","NAN","NAN","NAN","NAN","NAN"],
    [1537434,"2026-01-21 08:00:00","38424","0.0","0.0","0","0","NAN","NAN","NAN","NAN","NAN"],
    [1537435,"2026-01-21 08:10:00","38425","0.23800000000000002","355.9","1.862","354","NAN","NAN","NAN","NAN","NAN"],
    [1537436,"2026-01-21 08:20:00","38426","0.992","345.0","2.254","352.9","NAN","NAN","NAN","NAN","NAN"],
    [1537437,"2026-01-21 08:30:00","38427","0.27399999999999997","336.7","1.797","336.9","NAN","NAN","NAN","NAN","NAN"],
    [1537438,"2026-01-21 08:40:00","38428","1.069","335.6","2.777","331.6","NAN","NAN","NAN","NAN","NAN"],
    [1537439,"2026-01-21 08:50:00","38429","1.653","318.7","2.842","317.7","NAN","NAN","NAN","NAN","NAN"],
    [1537440,"2026-01-21 09:00:00","38430","1.7380000000000002","313.2","3.789","311.9","NAN","NAN","NAN","NAN","NAN"],
    [1537441,"2026-01-21 09:10:00","38431","1.2009999999999998","312.7","2.94","308.8","NAN","NAN","NAN","NAN","NAN"],
    [1537442,"2026-01-21 09:20:00","38432","2.005","306.8","3.659","300.8","NAN","NAN","NAN","NAN","NAN"],
    [1537443,"2026-01-21 09:30:00","38433","1.976","311.1","3.365","306.3","NAN","NAN","NAN","NAN","NAN"],
    [1537444,"2026-01-21 09:40:00","38434","2.053","300.3","3.169","317.4","NAN","NAN","NAN","NAN","NAN"],
    [1537445,"2026-01-21 09:50:00","38435","1.561","297.5","3.528","299.8","NAN","NAN","NAN","NAN","NAN"],
    [1537446,"2026-01-21 10:00:00","38436","1.358","287.5","2.548","286","NAN","NAN","NAN","NAN","NAN"],
    [1537447,"2026-01-21 10:10:00","38437","0.9229999999999999","285.0","2.385","285.4","NAN","NAN","NAN","NAN","NAN"],
    [1537448,"2026-01-21 10:20:00","38438","0.61","283.8","2.352","283.3","NAN","NAN","NAN","NAN","NAN"],
    [1537449,"2026-01-21 10:30:00","38439","0.564","278.0","2.156","273.6","NAN","NAN","NAN","NAN","NAN"],
    [1537450,"2026-01-21 10:40:00","38440","0.322","256.7","1.339","255.3","NAN","NAN","NAN","NAN","NAN"],
    [1537451,"2026-01-21 10:50:00","38441","0.772","232.5","2.548","249.2","NAN","NAN","NAN","NAN","NAN"],
    [1537452,"2026-01-21 11:00:00","38442","1.87","229.5","4.41","219.6","NAN","NAN","NAN","NAN","NAN"],
    [1537453,"2026-01-21 11:10:00","38443","2.6060000000000003","224.7","5.782","219.7","NAN","NAN","NAN","NAN","NAN"],
    [1537454,"2026-01-21 11:20:00","38444","3.205","248.7","5.292","250.3","NAN","NAN","NAN","NAN","NAN"],
    [1537455,"2026-01-21 11:30:00","38445","3.195","248.2","5.913","246.3","NAN","NAN","NAN","NAN","NAN"],
    [1537456,"2026-01-21 11:40:00","38446","3.002","244.3","5.521","240.5","NAN","NAN","NAN","NAN","NAN"],
    [1537457,"2026-01-21 11:50:00","38447","3.0469999999999997","239.1","5.39","261.8","NAN","NAN","NAN","NAN","NAN"],
    [1537458,"2026-01-21 12:00:00","38448","2.912","239.7","5.455","218.5","NAN","NAN","NAN","NAN","NAN"],
    [1537459,"2026-01-21 12:10:00","38449","3.145","227.1","5.455","227.4","NAN","NAN","NAN","NAN","NAN"],
    [1537460,"2026-01-21 12:20:00","38450","3.327","232.4","5.488","232.1","NAN","NAN","NAN","NAN","NAN"],
    [1537461,"2026-01-21 12:30:00","38451","3.89","241.6","7.023","246.7","NAN","NAN","NAN","NAN","NAN"],
    [1537462,"2026-01-21 12:40:00","38452","3.782","237.6","6.599","226.3","NAN","NAN","NAN","NAN","NAN"],
    [1537463,"2026-01-21 12:50:00","38453","3.326","244.6","5.455","253.4","NAN","NAN","NAN","NAN","NAN"],
    [1537464,"2026-01-21 13:00:00","38454","3.634","253.8","6.239","260.3","NAN","NAN","NAN","NAN","NAN"],
    [1537465,"2026-01-21 13:10:00","38455","3.3160000000000003","237.0","6.468","255.9","NAN","NAN","NAN","NAN","NAN"],
    [1537466,"2026-01-21 13:20:00","38456","4.9319999999999995","249.7","7.644","251.6","NAN","NAN","NAN","NAN","NAN"],
    [1537467,"2026-01-21 13:30:00","38457","4.62","243.9","8.13","260","NAN","NAN","NAN","NAN","NAN"],
    [1537468,"2026-01-21 13:40:00","38458","3.8569999999999998","237.7","6.403","246.5","NAN","NAN","NAN","NAN","NAN"],
    [1537469,"2026-01-21 13:50:00","38459","4.328","236.1","6.925","239.6","NAN","NAN","NAN","NAN","NAN"],
    [1537470,"2026-01-21 14:00:00","38460","3.95","230.3","7.35","221.6","NAN","NAN","NAN","NAN","NAN"],
    [1537471,"2026-01-21 14:10:00","38461","3.9419999999999997","233.4","6.762","228.1","NAN","NAN","NAN","NAN","NAN"],
    [1537472,"2026-01-21 14:20:00","38462","4.015","246.0","6.272","232.5","NAN","NAN","NAN","NAN","NAN"],
    [1537473,"2026-01-21 14:30:00","38463","4.68","249.2","8.07","253.7","NAN","NAN","NAN","NAN","NAN"],
    [1537474,"2026-01-21 14:40:00","38464","4.249","244.3","7.742","263.1","NAN","NAN","NAN","NAN","NAN"],
    [1537475,"2026-01-21 14:50:00","38465","4.184","239.6","7.709","241.4","NAN","NAN","NAN","NAN","NAN"],
    [1537476,"2026-01-21 15:00:00","38466","3.9739999999999998","244.5","6.991","248.2","NAN","NAN","NAN","NAN","NAN"],
    [1537477,"2026-01-21 15:10:00","38467","3.2560000000000002","236.1","5.619","247.7","NAN","NAN","NAN","NAN","NAN"],
    [1537478,"2026-01-21 15:20:00","38468","4.235","229.3","7.35","246.4","NAN","NAN","NAN","NAN","NAN"],
    [1537479,"2026-01-21 15:30:00","38469","4.1739999999999995","229.4","7.611","241.2","NAN","NAN","NAN","NAN","NAN"],
    [1537480,"2026-01-21 15:40:00","38470","3.366","219.3","5.913","236.8","NAN","NAN","NAN","NAN","NAN"],
    [1537481,"2026-01-21 15:50:00","38471","1.8940000000000001","228.3","4.345","237.1","NAN","NAN","NAN","NAN","NAN"],
    [1537482,"2026-01-21 16:00:00","38472","3.016","228.5","5.651","234.7","NAN","NAN","NAN","NAN","NAN"],
    [1537483,"2026-01-21 16:10:00","38473","3.114","236.9","5.488","243.6","NAN","NAN","NAN","NAN","NAN"],
    [1537484,"2026-01-21 16:20:00","38474","2.925","246.7","5.194","253.5","NAN","NAN","NAN","NAN","NAN"],
    [1537485,"2026-01-21 16:30:00","38475","3.31","248.8","5.161","267.1","NAN","NAN","NAN","NAN","NAN"],
    [1537486,"2026-01-21 16:40:00","38476","2.403","243.7","4.475","237.5","NAN","NAN","NAN","NAN","NAN"],
    [1537487,"2026-01-21 16:50:00","38477","2.032","245.7","3.691","250.6","NAN","NAN","NAN","NAN","NAN"],
    [1537488,"2026-01-21 17:00:00","38478","2.562","250.6","4.214","263.4","NAN","NAN","NAN","NAN","NAN"],
    [1537489,"2026-01-21 17:10:00","38479","1.93","244.1","3.985","251.2","NAN","NAN","NAN","NAN","NAN"],
    [1537490,"2026-01-21 17:20:00","38480","2.7430000000000003","253.8","4.083","256.1","NAN","NAN","NAN","NAN","NAN"],
    [1537491,"2026-01-21 17:30:00","38481","2.371","252.3","3.822","251","NAN","NAN","NAN","NAN","NAN"],
    [1537492,"2026-01-21 17:40:00","38482","2.454","248.4","3.691","245.6","NAN","NAN","NAN","NAN","NAN"],
    [1537493,"2026-01-21 17:50:00","38483","2.63","251.7","4.639","260.2","NAN","NAN","NAN","NAN","NAN"],
    [1537494,"2026-01-21 18:00:00","38484","3.32","250.9","4.933","249.3","NAN","NAN","NAN","NAN","NAN"],
    [1537495,"2026-01-21 18:10:00","38485","2.984","249.1","5.063","241.6","NAN","NAN","NAN","NAN","NAN"],
    [1537496,"2026-01-21 18:20:00","38486","2.5780000000000003","246.5","4.606","235.7","NAN","NAN","NAN","NAN","NAN"],
    [1537497,"2026-01-21 18:30:00","38487","2.821","226.9","5.782","223.8","NAN","NAN","NAN","NAN","NAN"],
    [1537498,"2026-01-21 18:40:00","38488","2.688","225.2","6.305","240.8","NAN","NAN","NAN","NAN","NAN"],
    [1537499,"2026-01-21 18:50:00","38489","2.707","227.4","5.553","225.3","NAN","NAN","NAN","NAN","NAN"],
    [1537500,"2026-01-21 19:00:00","38490","2.511","229.0","5.325","212.1","NAN","NAN","NAN","NAN","NAN"],
    [1537501,"2026-01-21 19:10:00","38491","4.101","226.8","7.775","220.4","NAN","NAN","NAN","NAN","NAN"],
    [1537502,"2026-01-21 19:20:00","38492","2.8289999999999997","233.9","5.815","219.6","NAN","NAN","NAN","NAN","NAN"],
    [1537503,"2026-01-21 19:30:00","38493","3.0010000000000003","232.6","5.978","232.5","NAN","NAN","NAN","NAN","NAN"],
    [1537504,"2026-01-21 19:40:00","38494","3.303","242.6","5.488","239.9","NAN","NAN","NAN","NAN","NAN"],
    [1537505,"2026-01-21 19:50:00","38495","4.006","249.6","7.252","249.3","NAN","NAN","NAN","NAN","NAN"],
    [1537506,"2026-01-21 20:00:00","38496","3.569","251.2","5.39","238.5","NAN","NAN","NAN","NAN","NAN"],
    [1537507,"2026-01-21 20:10:00","38497","3.3289999999999997","250.3","4.998","253.8","NAN","NAN","NAN","NAN","NAN"],
    [1537508,"2026-01-21 20:20:00","38498","3.112","251.3","4.867","251.6","NAN","NAN","NAN","NAN","NAN"],
    [1537509,"2026-01-21 20:30:00","38499","3.18","250.1","4.769","257.2","NAN","NAN","NAN","NAN","NAN"],
    [1537510,"2026-01-21 20:40:00","38500","3.56","249.4","5.717","259.6","NAN","NAN","NAN","NAN","NAN"],
    [1537511,"2026-01-21 20:50:00","38501","4.555","252.4","7.121","251.2","NAN","NAN","NAN","NAN","NAN"],
    [1537512,"2026-01-21 21:00:00","38502","4.312","255.0","6.697","259.4","NAN","NAN","NAN","NAN","NAN"],
    [1537513,"2026-01-21 21:10:00","38503","4.349","254.0","6.272","244.8","NAN","NAN","NAN","NAN","NAN"],
    [1537514,"2026-01-21 21:20:00","38504","4.538","254.9","6.86","241.6","NAN","NAN","NAN","NAN","NAN"],
    [1537515,"2026-01-21 21:30:00","38505","4.428999999999999","256.1","6.207","251","NAN","NAN","NAN","NAN","NAN"],
    [1537516,"2026-01-21 21:40:00","38506","4.86","250.8","6.893","241.3","NAN","NAN","NAN","NAN","NAN"],
    [1537517,"2026-01-21 21:50:00","38507","4.218999999999999","252.0","6.468","248.8","NAN","NAN","NAN","NAN","NAN"],
    [1537518,"2026-01-21 22:00:00","38508","4.285","253.6","6.37","250.2","NAN","NAN","NAN","NAN","NAN"],
    [1537519,"2026-01-21 22:10:00","38509","4.001","250.9","6.109","263.2","NAN","NAN","NAN","NAN","NAN"],
    [1537520,"2026-01-21 22:20:00","38510","3.424","250.3","5.553","242.4","NAN","NAN","NAN","NAN","NAN"],
    [1537521,"2026-01-21 22:30:00","38511","3.188","251.4","5.39","251.2","NAN","NAN","NAN","NAN","NAN"],
    [1537522,"2026-01-21 22:40:00","38512","2.9339999999999997","252.9","4.573","254.8","NAN","NAN","NAN","NAN","NAN"],
    [1537523,"2026-01-21 22:50:00","38513","3.3789999999999996","248.2","5.815","239.9","NAN","NAN","NAN","NAN","NAN"],
    [1537524,"2026-01-21 23:00:00","38514","3.585","249.7","5.259","257.9","NAN","NAN","NAN","NAN","NAN"],
    [1537525,"2026-01-21 23:10:00","38515","2.926","230.4","5.651","221.7","NAN","NAN","NAN","NAN","NAN"],
    [1537526,"2026-01-21 23:20:00","38516","3.423","223.9","6.272","222.3","NAN","NAN","NAN","NAN","NAN"],
    [1537527,"2026-01-21 23:30:00","38517","3.213","224.5","6.272","227.2","NAN","NAN","NAN","NAN","NAN"],
    [1537528,"2026-01-21 23:40:00","38518","2.833","213.9","4.998","219.4","NAN","NAN","NAN","NAN","NAN"],
    [1537529,"2026-01-21 23:50:00","38519","2.39","211.1","3.92","198.7","NAN","NAN","NAN","NAN","NAN"],
    [1537530,"2026-01-22 00:00:00","38520","1.41","217.5","3.528","204.9","NAN","NAN","NAN","NAN","NAN"],
    [1537531,"2026-01-22 00:10:00","38521","0.37799999999999995","228.1","1.731","226.9","NAN","NAN","NAN","NAN","NAN"],
    [1537532,"2026-01-22 00:20:00","38522","0.012","231.5","0.457","231.8","NAN","NAN","NAN","NAN","NAN"],
    [1537533,"2026-01-22 00:30:00","38523","0.051","233.1","0.719","232.9","NAN","NAN","NAN","NAN","NAN"],
    [1537534,"2026-01-22 00:40:00","38524","0.105","236.9","0.915","233.5","NAN","NAN","NAN","NAN","NAN"],
    [1537535,"2026-01-22 00:50:00","38525","0.051","243.6","1.176","243.6","NAN","NAN","NAN","NAN","NAN"],
    [1537536,"2026-01-22 01:00:00","38526","1.36","260.5","6.043","280.1","NAN","NAN","NAN","NAN","NAN"],
    [1537537,"2026-01-22 01:10:00","38527","1.9780000000000002","269.3","4.247","271.6","NAN","NAN","NAN","NAN","NAN"],
    [1537538,"2026-01-22 01:20:00","38528","2.346","276.4","3.822","279.6","NAN","NAN","NAN","NAN","NAN"],
    [1537539,"2026-01-22 01:30:00","38529","2.8489999999999998","277.3","5.129","269.5","NAN","NAN","NAN","NAN","NAN"],
    [1537540,"2026-01-22 01:40:00","38530","1.942","267.9","3.332","267.4","NAN","NAN","NAN","NAN","NAN"],
    [1537541,"2026-01-22 01:50:00","38531","1.455","263.4","2.907","268.8","NAN","NAN","NAN","NAN","NAN"],
    [1537542,"2026-01-22 02:00:00","38532","1.7790000000000001","268.0","2.548","269.3","NAN","NAN","NAN","NAN","NAN"],
    [1537543,"2026-01-22 02:10:00","38533","1.37","261.9","2.842","253.4","NAN","NAN","NAN","NAN","NAN"],
    [1537544,"2026-01-22 02:20:00","38534","1.225","263.9","2.907","265.9","NAN","NAN","NAN","NAN","NAN"],
    [1537545,"2026-01-22 02:30:00","38535","0.381","273.9","1.927","273.7","NAN","NAN","NAN","NAN","NAN"],
    [1537546,"2026-01-22 02:40:00","38536","1.014","269.7","3.43","269.6","NAN","NAN","NAN","NAN","NAN"],
    [1537547,"2026-01-22 02:50:00","38537","0.927","266.4","2.613","266.5","NAN","NAN","NAN","NAN","NAN"],
    [1537548,"2026-01-22 03:00:00","38538","1.32","263.8","2.679","258","NAN","NAN","NAN","NAN","NAN"],
    [1537549,"2026-01-22 03:10:00","38539","2.1430000000000002","263.9","3.267","268.6","NAN","NAN","NAN","NAN","NAN"],
    [1537550,"2026-01-22 03:20:00","38540","1.3719999999999999","274.6","2.907","273.5","NAN","NAN","NAN","NAN","NAN"],
    [1537551,"2026-01-22 03:30:00","38541","0.7390000000000001","275.7","1.862","275.7","NAN","NAN","NAN","NAN","NAN"],
    [1537552,"2026-01-22 03:40:00","38542","2.46","308.6","4.737","329.4","NAN","NAN","NAN","NAN","NAN"],
    [1537553,"2026-01-22 03:50:00","38543","3.8339999999999996","331.3","5.423","325.8","NAN","NAN","NAN","NAN","NAN"],
    [1537554,"2026-01-22 04:00:00","38544","3.3739999999999997","331.9","5.423","331.7","NAN","NAN","NAN","NAN","NAN"],
    [1537555,"2026-01-22 04:10:00","38545","2.648","329.5","4.377","320.3","NAN","NAN","NAN","NAN","NAN"],
    [1537556,"2026-01-22 04:20:00","38546","2.424","321.9","4.279","326.8","NAN","NAN","NAN","NAN","NAN"],
    [1537557,"2026-01-22 04:30:00","38547","1.838","313.1","3.299","312","NAN","NAN","NAN","NAN","NAN"],
    [1537558,"2026-01-22 04:40:00","38548","2.406","293.8","3.561","290.4","NAN","NAN","NAN","NAN","NAN"],
    [1537559,"2026-01-22 04:50:00","38549","1.806","294.8","3.528","289.2","NAN","NAN","NAN","NAN","NAN"],
    [1537560,"2026-01-22 05:00:00","38550","1.881","307.1","3.365","295.1","NAN","NAN","NAN","NAN","NAN"],
    [1537561,"2026-01-22 05:10:00","38551","2.343","314.8","4.867","325.6","NAN","NAN","NAN","NAN","NAN"],
    [1537562,"2026-01-22 05:20:00","38552","2.685","311.6","6.827","303.2","NAN","NAN","NAN","NAN","NAN"],
    [1537563,"2026-01-22 05:30:00","38553","2.983","314.8","5.553","341.3","NAN","NAN","NAN","NAN","NAN"],
    [1537564,"2026-01-22 05:40:00","38554","3.9610000000000003","315.8","6.795","323.6","NAN","NAN","NAN","NAN","NAN"],
    [1537565,"2026-01-22 05:50:00","38555","4.362","319.8","8.4","336.1","NAN","NAN","NAN","NAN","NAN"],
    [1537566,"2026-01-22 06:00:00","38556","4.867","320.5","8.53","313","NAN","NAN","NAN","NAN","NAN"],
    [1537567,"2026-01-22 06:10:00","38557","3.986","320.4","7.611","316.1","NAN","NAN","NAN","NAN","NAN"],
    [1537568,"2026-01-22 06:20:00","38558","4.428","326.4","7.807","331.4","NAN","NAN","NAN","NAN","NAN"],
    [1537569,"2026-01-22 06:30:00","38559","3.4219999999999997","343.3","6.37","349","NAN","NAN","NAN","NAN","NAN"],
    [1537570,"2026-01-22 06:40:00","38560","4.34","335.4","7.154","354.3","NAN","NAN","NAN","NAN","NAN"],
    [1537571,"2026-01-22 06:50:00","38561","4.5089999999999995","326.5","7.35","338.4","NAN","NAN","NAN","NAN","NAN"],
    [1537572,"2026-01-22 07:00:00","38562","4.5760000000000005","330.4","7.644","340.1","NAN","NAN","NAN","NAN","NAN"],
    [1537573,"2026-01-22 07:10:00","38563","2.786","333.5","5.325","337.8","NAN","NAN","NAN","NAN","NAN"],
    [1537574,"2026-01-22 07:20:00","38564","3.135","335.1","5.586","356.9","NAN","NAN","NAN","NAN","NAN"],
    [1537575,"2026-01-22 07:30:00","38565","1.8619999999999999","346.7","3.855","12.29","NAN","NAN","NAN","NAN","NAN"],
    [1537576,"2026-01-22 07:40:00","38566","1.1179999999999999","350.5","3.495","12.75","NAN","NAN","NAN","NAN","NAN"],
    [1537577,"2026-01-22 07:50:00","38567","1.919","339.6","3.495","342.3","NAN","NAN","NAN","NAN","NAN"],
    [1537578,"2026-01-22 08:00:00","38568","1.9369999999999998","332.2","3.985","328.3","NAN","NAN","NAN","NAN","NAN"],
    [1537579,"2026-01-22 08:10:00","38569","0.75","331.8","2.156","334.9","NAN","NAN","NAN","NAN","NAN"],
    [1537580,"2026-01-22 08:20:00","38570","0.026000000000000002","330.3","0.915","330.3","NAN","NAN","NAN","NAN","NAN"],
    [1537581,"2026-01-22 08:30:00","38571","0.293","339.3","1.143","341.4","NAN","NAN","NAN","NAN","NAN"],
    [1537582,"2026-01-22 08:40:00","38572","0.456","344.0","1.372","343.7","NAN","NAN","NAN","NAN","NAN"],
    [1537583,"2026-01-22 08:50:00","38573","1.521","353.4","2.711","354.5","NAN","NAN","NAN","NAN","NAN"],
    [1537584,"2026-01-22 09:00:00","38574","2.114","340.7","4.443","322.2","NAN","NAN","NAN","NAN","NAN"],
    [1537585,"2026-01-22 09:10:00","38575","2.971","328.2","4.508","326.8","NAN","NAN","NAN","NAN","NAN"],
    [1537586,"2026-01-22 09:20:00","38576","2.83","321.8","4.443","315","NAN","NAN","NAN","NAN","NAN"],
    [1537587,"2026-01-22 09:30:00","38577","2.727","321.4","4.802","319.2","NAN","NAN","NAN","NAN","NAN"],
    [1537588,"2026-01-22 09:40:00","38578","3.159","325.7","4.998","335.7","NAN","NAN","NAN","NAN","NAN"],
    [1537589,"2026-01-22 09:50:00","38579","2.395","343.0","3.626","338.6","NAN","NAN","NAN","NAN","NAN"],
    [1537590,"2026-01-22 10:00:00","38580","2.405","333.9","4.051","324.9","NAN","NAN","NAN","NAN","NAN"],
    [1537591,"2026-01-22 10:10:00","38581","1.931","343.8","3.299","0.755","NAN","NAN","NAN","NAN","NAN"],
    [1537592,"2026-01-22 10:20:00","38582","2.18","344.1","4.606","354.4","NAN","NAN","NAN","NAN","NAN"],
    [1537593,"2026-01-22 10:30:00","38583","1.431","343.1","3.234","351","NAN","NAN","NAN","NAN","NAN"],
    [1537594,"2026-01-22 10:40:00","38584","0.504","340.4","1.927","340","NAN","NAN","NAN","NAN","NAN"],
    [1537595,"2026-01-22 10:50:00","38585","0.253","334.3","1.111","330.8","NAN","NAN","NAN","NAN","NAN"],
    [1537596,"2026-01-22 11:00:00","38586","0.185","326.6","1.339","323.4","NAN","NAN","NAN","NAN","NAN"],
    [1537597,"2026-01-22 11:10:00","38587","2.07","292.5","4.312","271.5","NAN","NAN","NAN","NAN","NAN"],
    [1537598,"2026-01-22 11:20:00","38588","3.05","277.9","4.835","262","NAN","NAN","NAN","NAN","NAN"],
    [1537599,"2026-01-22 11:30:00","38589","3.159","289.1","5.619","298","NAN","NAN","NAN","NAN","NAN"],
    [1537600,"2026-01-22 11:40:00","38590","2.634","298.7","4.737","290.3","NAN","NAN","NAN","NAN","NAN"],
    [1537601,"2026-01-22 11:50:00","38591","2.471","299.5","4.018","293.3","NAN","NAN","NAN","NAN","NAN"],
    [1537602,"2026-01-22 12:00:00","38592","2.332","285.1","4.083","294.8","NAN","NAN","NAN","NAN","NAN"],
    [1537603,"2026-01-22 12:10:00","38593","1.982","273.7","3.985","271.8","NAN","NAN","NAN","NAN","NAN"],
    [1537604,"2026-01-22 12:20:00","38594","2.3569999999999998","280.2","4.051","267","NAN","NAN","NAN","NAN","NAN"],
    [1537605,"2026-01-22 12:30:00","38595","2.802","276.5","4.475","261.3","NAN","NAN","NAN","NAN","NAN"],
    [1537606,"2026-01-22 12:40:00","38596","3.233","303.9","5.749","316","NAN","NAN","NAN","NAN","NAN"],
    [1537607,"2026-01-22 12:50:00","38597","3.536","288.5","5.88","295","NAN","NAN","NAN","NAN","NAN"],
    [1537608,"2026-01-22 13:00:00","38598","2.7239999999999998","288.7","5.292","271.3","NAN","NAN","NAN","NAN","NAN"],
    [1537609,"2026-01-22 13:10:00","38599","2.388","290.5","4.083","289.7","NAN","NAN","NAN","NAN","NAN"],
    [1537610,"2026-01-22 13:20:00","38600","2.597","257.1","5.292","200.7","NAN","NAN","NAN","NAN","NAN"],
    [1537611,"2026-01-22 13:30:00","38601","3.0669999999999997","215.0","5.488","216.7","NAN","NAN","NAN","NAN","NAN"],
    [1537612,"2026-01-22 13:40:00","38602","3.043","209.8","4.737","206.9","NAN","NAN","NAN","NAN","NAN"],
    [1537613,"2026-01-22 13:50:00","38603","2.267","243.7","3.789","262.5","NAN","NAN","NAN","NAN","NAN"],
    [1537614,"2026-01-22 14:00:00","38604","2.259","211.2","4.606","198.6","NAN","NAN","NAN","NAN","NAN"],
    [1537615,"2026-01-22 14:10:00","38605","1.6980000000000002","202.4","4.083","210.3","NAN","NAN","NAN","NAN","NAN"],
    [1537616,"2026-01-22 14:20:00","38606","2.307","199.6","4.508","202.9","NAN","NAN","NAN","NAN","NAN"],
    [1537617,"2026-01-22 14:30:00","38607","1.9140000000000001","195.5","3.92","175.8","NAN","NAN","NAN","NAN","NAN"],
    [1537618,"2026-01-22 14:40:00","38608","1.422","188.5","2.907","190.4","NAN","NAN","NAN","NAN","NAN"],
    [1537619,"2026-01-22 14:50:00","38609","1.8","186.6","2.842","186.5","NAN","NAN","NAN","NAN","NAN"],
    [1537620,"2026-01-22 15:00:00","38610","1.5390000000000001","185.5","3.332","199.5","NAN","NAN","NAN","NAN","NAN"],
    [1537621,"2026-01-22 15:10:00","38611","1.631","173.8","3.071","171.3","NAN","NAN","NAN","NAN","NAN"],
    [1537622,"2026-01-22 15:20:00","38612","1.713","174.1","3.136","169.2","NAN","NAN","NAN","NAN","NAN"],
    [1537623,"2026-01-22 15:30:00","38613","2.187","172.8","3.103","177.1","NAN","NAN","NAN","NAN","NAN"],
    [1537624,"2026-01-22 15:40:00","38614","2.025","174.8","3.005","178.2","NAN","NAN","NAN","NAN","NAN"],
    [1537625,"2026-01-22 15:50:00","38615","2.017","175.3","3.561","179.3","NAN","NAN","NAN","NAN","NAN"],
    [1537626,"2026-01-22 16:00:00","38616","1.876","193.3","3.463","197.8","NAN","NAN","NAN","NAN","NAN"],
    [1537627,"2026-01-22 16:10:00","38617","2.352","203.8","3.757","203.3","NAN","NAN","NAN","NAN","NAN"],
    [1537628,"2026-01-22 16:20:00","38618","2.4019999999999997","206.7","3.43","209.4","NAN","NAN","NAN","NAN","NAN"],
    [1537629,"2026-01-22 16:30:00","38619","2.435","208.4","3.789","211.2","NAN","NAN","NAN","NAN","NAN"],
    [1537630,"2026-01-22 16:40:00","38620","1.46","208.1","3.071","211.7","NAN","NAN","NAN","NAN","NAN"],
    [1537631,"2026-01-22 16:50:00","38621","1.0","209.7","2.156","212.8","NAN","NAN","NAN","NAN","NAN"],
    [1537632,"2026-01-22 17:00:00","38622","0.7190000000000001","212.3","1.829","208.7","NAN","NAN","NAN","NAN","NAN"],
    [1537633,"2026-01-22 17:10:00","38623","0.171","214.9","1.339","216","NAN","NAN","NAN","NAN","NAN"],
    [1537634,"2026-01-22 17:20:00","38624","0.493","219.4","2.385","217.4","NAN","NAN","NAN","NAN","NAN"],
    [1537635,"2026-01-22 17:30:00","38625","0.005","233.6","0.261","233.6","NAN","NAN","NAN","NAN","NAN"],
    [1537636,"2026-01-22 17:40:00","38626","0.03","233.8","0.98","233.9","NAN","NAN","NAN","NAN","NAN"],
    [1537637,"2026-01-22 17:50:00","38627","1.4180000000000001","278.6","3.593","312","NAN","NAN","NAN","NAN","NAN"],
    [1537638,"2026-01-22 18:00:00","38628","2.05","289.7","3.789","297.6","NAN","NAN","NAN","NAN","NAN"],
    [1537639,"2026-01-22 18:10:00","38629","2.279","299.7","3.757","290.5","NAN","NAN","NAN","NAN","NAN"],
    [1537640,"2026-01-22 18:20:00","38630","2.001","303.8","3.789","307","NAN","NAN","NAN","NAN","NAN"],
    [1537641,"2026-01-22 18:30:00","38631","2.258","313.9","3.985","311","NAN","NAN","NAN","NAN","NAN"],
    [1537642,"2026-01-22 18:40:00","38632","1.976","313.0","3.43","316.2","NAN","NAN","NAN","NAN","NAN"],
    [1537643,"2026-01-22 18:50:00","38633","2.766","320.5","4.279","326.2","NAN","NAN","NAN","NAN","NAN"],
    [1537644,"2026-01-22 19:00:00","38634","2.5","313.9","3.92","319.2","NAN","NAN","NAN","NAN","NAN"],
    [1537645,"2026-01-22 19:10:00","38635","1.268","306.0","3.234","304.9","NAN","NAN","NAN","NAN","NAN"],
    [1537646,"2026-01-22 19:20:00","38636","1.02","302.3","2.189","302.6","NAN","NAN","NAN","NAN","NAN"],
    [1537647,"2026-01-22 19:30:00","38637","1.073","301.5","2.352","301.4","NAN","NAN","NAN","NAN","NAN"],
    [1537648,"2026-01-22 19:40:00","38638","0.522","301.1","1.666","300.9","NAN","NAN","NAN","NAN","NAN"],
    [1537649,"2026-01-22 19:50:00","38639","0.998","300.9","2.123","300.7","NAN","NAN","NAN","NAN","NAN"],
    [1537650,"2026-01-22 20:00:00","38640","1.0070000000000001","300.4","1.927","300.6","NAN","NAN","NAN","NAN","NAN"],
    [1537651,"2026-01-22 20:10:00","38641","1.6640000000000001","284.0","3.691","264.9","NAN","NAN","NAN","NAN","NAN"],
    [1537652,"2026-01-22 20:20:00","38642","1.446","266.7","2.875","265.1","NAN","NAN","NAN","NAN","NAN"],
    [1537653,"2026-01-22 20:30:00","38643","0.318","267.1","1.568","265","NAN","NAN","NAN","NAN","NAN"],
    [1537654,"2026-01-22 20:40:00","38644","0.057","272.3","0.719","272.7","NAN","NAN","NAN","NAN","NAN"],
    [1537655,"2026-01-22 20:50:00","38645","0.534","269.3","1.307","266.7","NAN","NAN","NAN","NAN","NAN"],
    [1537656,"2026-01-22 21:00:00","38646","0.41600000000000004","270.4","1.47","270.8","NAN","NAN","NAN","NAN","NAN"],
    [1537657,"2026-01-22 21:10:00","38647","1.014","272.3","2.221","272.2","NAN","NAN","NAN","NAN","NAN"],
    [1537658,"2026-01-22 21:20:00","38648","0.701","273.9","2.123","274.5","NAN","NAN","NAN","NAN","NAN"],
    [1537659,"2026-01-22 21:30:00","38649","1.21","279.4","2.385","275.8","NAN","NAN","NAN","NAN","NAN"],
    [1537660,"2026-01-22 21:40:00","38650","0.9159999999999999","280.8","1.96","279.6","NAN","NAN","NAN","NAN","NAN"],
    [1537661,"2026-01-22 21:50:00","38651","1.6130000000000002","276.1","2.352","274.2","NAN","NAN","NAN","NAN","NAN"],
    [1537662,"2026-01-22 22:00:00","38652","1.244","270.8","1.96","269.8","NAN","NAN","NAN","NAN","NAN"],
    [1537663,"2026-01-22 22:10:00","38653","1.013","269.5","1.503","268.9","NAN","NAN","NAN","NAN","NAN"],
    [1537664,"2026-01-22 22:20:00","38654","0.6609999999999999","269.5","1.111","269.3","NAN","NAN","NAN","NAN","NAN"],
    [1537665,"2026-01-22 22:30:00","38655","0.544","268.2","1.274","268.2","NAN","NAN","NAN","NAN","NAN"],
    [1537666,"2026-01-22 22:40:00","38656","0.131","267.8","0.947","267.8","NAN","NAN","NAN","NAN","NAN"],
    [1537667,"2026-01-22 22:50:00","38657","0.72","268.0","1.241","267.8","NAN","NAN","NAN","NAN","NAN"],
    [1537668,"2026-01-22 23:00:00","38658","0.7859999999999999","269.0","1.47","269.1","NAN","NAN","NAN","NAN","NAN"],
    [1537669,"2026-01-22 23:10:00","38659","1.3259999999999998","268.1","2.254","268","NAN","NAN","NAN","NAN","NAN"],
    [1537670,"2026-01-22 23:20:00","38660","0.8909999999999999","272.7","2.581","278.1","NAN","NAN","NAN","NAN","NAN"],
    [1537671,"2026-01-22 23:30:00","38661","1.29","271.9","1.96","267.4","NAN","NAN","NAN","NAN","NAN"],
    [1537672,"2026-01-22 23:40:00","38662","1.6680000000000001","270.6","2.581","276.6","NAN","NAN","NAN","NAN","NAN"],
    [1537673,"2026-01-22 23:50:00","38663","0.9640000000000001","274.8","2.123","273.4","NAN","NAN","NAN","NAN","NAN"],
    [1537674,"2026-01-23 00:00:00","38664","0.501","276.9","1.503","276.6","NAN","NAN","NAN","NAN","NAN"],
    [1537675,"2026-01-23 00:10:00","38665","1.504","269.9","2.221","265.6","NAN","NAN","NAN","NAN","NAN"],
    [1537676,"2026-01-23 00:20:00","38666","1.11","265.9","2.025","266","NAN","NAN","NAN","NAN","NAN"],
    [1537677,"2026-01-23 00:30:00","38667","1.431","265.5","2.123","265.3","NAN","NAN","NAN","NAN","NAN"],
    [1537678,"2026-01-23 00:40:00","38668","1.327","266.9","2.809","265.9","NAN","NAN","NAN","NAN","NAN"],
    [1537679,"2026-01-23 00:50:00","38669","1.206","276.1","2.287","271.5","NAN","NAN","NAN","NAN","NAN"],
    [1537680,"2026-01-23 01:00:00","38670","1.234","266.7","2.091","265.3","NAN","NAN","NAN","NAN","NAN"],
    [1537681,"2026-01-23 01:10:00","38671","0.8220000000000001","266.8","1.503","266.9","NAN","NAN","NAN","NAN","NAN"],
    [1537682,"2026-01-23 01:20:00","38672","0.55","266.8","1.176","267.6","NAN","NAN","NAN","NAN","NAN"],
    [1537683,"2026-01-23 01:30:00","38673","0.9","266.8","1.699","265","NAN","NAN","NAN","NAN","NAN"],
    [1537684,"2026-01-23 01:40:00","38674","1.973","268.3","2.613","268.2","NAN","NAN","NAN","NAN","NAN"],
    [1537685,"2026-01-23 01:50:00","38675","1.011","266.8","1.895","269.6","NAN","NAN","NAN","NAN","NAN"],
    [1537686,"2026-01-23 02:00:00","38676","1.5490000000000002","273.9","2.483","280.6","NAN","NAN","NAN","NAN","NAN"],
    [1537687,"2026-01-23 02:10:00","38677","1.285","283.1","2.875","282.6","NAN","NAN","NAN","NAN","NAN"],
    [1537688,"2026-01-23 02:20:00","38678","0.95","283.5","2.058","283.4","NAN","NAN","NAN","NAN","NAN"],
    [1537689,"2026-01-23 02:30:00","38679","0.109","282.9","0.719","283.2","NAN","NAN","NAN","NAN","NAN"],
    [1537690,"2026-01-23 02:40:00","38680","0.191","280.6","0.849","280.3","NAN","NAN","NAN","NAN","NAN"],
    [1537691,"2026-01-23 02:50:00","38681","0.267","280.2","0.947","279.5","NAN","NAN","NAN","NAN","NAN"],
    [1537692,"2026-01-23 03:00:00","38682","0.493","278.9","1.372","279.3","NAN","NAN","NAN","NAN","NAN"],
    [1537693,"2026-01-23 03:10:00","38683","0.043","273.7","0.621","273.8","NAN","NAN","NAN","NAN","NAN"],
    [1537694,"2026-01-23 03:20:00","38684","0.524","272.5","1.535","270.4","NAN","NAN","NAN","NAN","NAN"],
    [1537695,"2026-01-23 03:30:00","38685","0.753","267.1","1.666","266.7","NAN","NAN","NAN","NAN","NAN"],
    [1537696,"2026-01-23 03:40:00","38686","0.379","266.2","1.241","266.3","NAN","NAN","NAN","NAN","NAN"],
    [1537697,"2026-01-23 03:50:00","38687","0.58","266.2","1.437","266.1","NAN","NAN","NAN","NAN","NAN"],
    [1537698,"2026-01-23 04:00:00","38688","0.281","266.3","1.045","266.4","NAN","NAN","NAN","NAN","NAN"],
    [1537699,"2026-01-23 04:10:00","38689","0.415","266.3","1.241","266.3","NAN","NAN","NAN","NAN","NAN"],
    [1537700,"2026-01-23 04:20:00","38690","0.331","270.0","1.405","271.6","NAN","NAN","NAN","NAN","NAN"],
    [1537701,"2026-01-23 04:30:00","38691","0.24","272.8","1.176","272.8","NAN","NAN","NAN","NAN","NAN"],
    [1537702,"2026-01-23 04:40:00","38692","0.0","0.0","0","0","NAN","NAN","NAN","NAN","NAN"],
    [1537703,"2026-01-23 04:50:00","38693","0.004","273.2","0.229","273.2","NAN","NAN","NAN","NAN","NAN"],
    [1537704,"2026-01-23 05:00:00","38694","0.054000000000000006","273.2","0.784","273.1","NAN","NAN","NAN","NAN","NAN"],
    [1537705,"2026-01-23 05:10:00","38695","0.836","279.9","2.091","278","NAN","NAN","NAN","NAN","NAN"],
    [1537706,"2026-01-23 05:20:00","38696","0.172","279.5","0.98","279.7","NAN","NAN","NAN","NAN","NAN"],
    [1537707,"2026-01-23 05:30:00","38697","0.314","270.6","1.437","269.4","NAN","NAN","NAN","NAN","NAN"],
    [1537708,"2026-01-23 05:40:00","38698","0.128","268.8","1.339","269.1","NAN","NAN","NAN","NAN","NAN"],
    [1537709,"2026-01-23 05:50:00","38699","0.782","271.7","1.503","273","NAN","NAN","NAN","NAN","NAN"],
    [1537710,"2026-01-23 06:00:00","38700","0.8","269.8","1.503","268","NAN","NAN","NAN","NAN","NAN"],
    [1537711,"2026-01-23 06:10:00","38701","0.35700000000000004","267.8","1.176","267","NAN","NAN","NAN","NAN","NAN"],
    [1537712,"2026-01-23 06:20:00","38702","0.061","268.6","0.882","267.1","NAN","NAN","NAN","NAN","NAN"],
    [1537713,"2026-01-23 06:30:00","38703","0.023","267.9","0.49","267.7","NAN","NAN","NAN","NAN","NAN"],
    [1537714,"2026-01-23 06:40:00","38704","0.12","271.3","0.719","271.1","NAN","NAN","NAN","NAN","NAN"],
    [1537715,"2026-01-23 06:50:00","38705","0.449","268.2","1.503","271.2","NAN","NAN","NAN","NAN","NAN"],
    [1537716,"2026-01-23 07:00:00","38706","1.216","265.7","2.058","265.3","NAN","NAN","NAN","NAN","NAN"],
    [1537717,"2026-01-23 07:10:00","38707","1.755","265.2","2.94","266.5","NAN","NAN","NAN","NAN","NAN"],
    [1537718,"2026-01-23 07:20:00","38708","1.8559999999999999","270.5","3.038","268.7","NAN","NAN","NAN","NAN","NAN"],
    [1537719,"2026-01-23 07:30:00","38709","1.3719999999999999","273.1","2.483","265.9","NAN","NAN","NAN","NAN","NAN"],
    [1537720,"2026-01-23 07:40:00","38710","1.015","278.1","2.352","278.9","NAN","NAN","NAN","NAN","NAN"],
    [1537721,"2026-01-23 07:50:00","38711","0.65","274.2","1.535","276.2","NAN","NAN","NAN","NAN","NAN"],
    [1537722,"2026-01-23 08:00:00","38712","1.402","274.0","2.45","272","NAN","NAN","NAN","NAN","NAN"],
    [1537723,"2026-01-23 08:10:00","38713","0.831","275.3","2.548","279.9","NAN","NAN","NAN","NAN","NAN"],
    [1537724,"2026-01-23 08:20:00","38714","1.5759999999999998","277.4","3.103","285.2","NAN","NAN","NAN","NAN","NAN"],
    [1537725,"2026-01-23 08:30:00","38715","1.047","279.7","3.005","285.2","NAN","NAN","NAN","NAN","NAN"],
    [1537726,"2026-01-23 08:40:00","38716","0.897","267.1","1.666","267.2","NAN","NAN","NAN","NAN","NAN"],
    [1537727,"2026-01-23 08:50:00","38717","0.779","266.2","1.797","266.1","NAN","NAN","NAN","NAN","NAN"],
    [1537728,"2026-01-23 09:00:00","38718","1.288","275.6","3.43","284.5","NAN","NAN","NAN","NAN","NAN"],
    [1537729,"2026-01-23 09:10:00","38719","2.23","281.2","3.724","285.6","NAN","NAN","NAN","NAN","NAN"],
    [1537730,"2026-01-23 09:20:00","38720","2.401","288.9","4.083","288","NAN","NAN","NAN","NAN","NAN"],
    [1537731,"2026-01-23 09:30:00","38721","2.343","292.8","3.855","304","NAN","NAN","NAN","NAN","NAN"],
    [1537732,"2026-01-23 09:40:00","38722","2.455","297.2","4.475","309.5","NAN","NAN","NAN","NAN","NAN"],
    [1537733,"2026-01-23 09:50:00","38723","2.457","285.2","4.279","287.9","NAN","NAN","NAN","NAN","NAN"],
    [1537734,"2026-01-23 10:00:00","38724","2.458","281.8","4.149","282.3","NAN","NAN","NAN","NAN","NAN"],
    [1537735,"2026-01-23 10:10:00","38725","2.7510000000000003","276.3","3.953","281.4","NAN","NAN","NAN","NAN","NAN"],
    [1537736,"2026-01-23 10:20:00","38726","2.316","277.2","3.855","278.9","NAN","NAN","NAN","NAN","NAN"],
    [1537737,"2026-01-23 10:30:00","38727","1.962","276.1","3.397","289.3","NAN","NAN","NAN","NAN","NAN"],
    [1537738,"2026-01-23 10:40:00","38728","1.765","250.9","3.332","243.5","NAN","NAN","NAN","NAN","NAN"],
    [1537739,"2026-01-23 10:50:00","38729","1.817","249.5","3.887","269","NAN","NAN","NAN","NAN","NAN"],
    [1537740,"2026-01-23 11:00:00","38730","1.0390000000000001","249.9","2.548","260.1","NAN","NAN","NAN","NAN","NAN"],
    [1537741,"2026-01-23 11:10:00","38731","0.9329999999999999","257.4","2.679","259.2","NAN","NAN","NAN","NAN","NAN"],
    [1537742,"2026-01-23 11:20:00","38732","1.365","256.3","3.169","265.5","NAN","NAN","NAN","NAN","NAN"],
    [1537743,"2026-01-23 11:30:00","38733","1.818","237.4","4.247","230.1","NAN","NAN","NAN","NAN","NAN"],
    [1537744,"2026-01-23 11:40:00","38734","3.404","228.7","6.207","214","NAN","NAN","NAN","NAN","NAN"],
    [1537745,"2026-01-23 11:50:00","38735","2.9210000000000003","236.0","5.586","245.5","NAN","NAN","NAN","NAN","NAN"],
    [1537746,"2026-01-23 12:00:00","38736","3.33","244.8","6.076","241.2","NAN","NAN","NAN","NAN","NAN"],
    [1537747,"2026-01-23 12:10:00","38737","3.799","239.2","6.729","236.3","NAN","NAN","NAN","NAN","NAN"],
    [1537748,"2026-01-23 12:20:00","38738","3.4419999999999997","238.1","6.893","232.7","NAN","NAN","NAN","NAN","NAN"],
    [1537749,"2026-01-23 12:30:00","38739","3.7089999999999996","246.5","6.337","244.4","NAN","NAN","NAN","NAN","NAN"],
    [1537750,"2026-01-23 12:40:00","38740","3.642","244.7","5.815","243.3","NAN","NAN","NAN","NAN","NAN"],
    [1537751,"2026-01-23 12:50:00","38741","2.488","238.6","4.051","257.3","NAN","NAN","NAN","NAN","NAN"],
    [1537752,"2026-01-23 13:00:00","38742","2.137","282.2","5.684","328.7","NAN","NAN","NAN","NAN","NAN"],
    [1537753,"2026-01-23 13:10:00","38743","3.8110000000000004","309.3","6.501","308.6","NAN","NAN","NAN","NAN","NAN"],
    [1537754,"2026-01-23 13:20:00","38744","3.787","311.3","7.219","329.6","NAN","NAN","NAN","NAN","NAN"],
    [1537755,"2026-01-23 13:30:00","38745","3.787","297.9","7.513","288.2","NAN","NAN","NAN","NAN","NAN"],
    [1537756,"2026-01-23 13:40:00","38746","3.055","287.0","6.076","300.8","NAN","NAN","NAN","NAN","NAN"],
    [1537757,"2026-01-23 13:50:00","38747","4.194","294.4","7.383","283.5","NAN","NAN","NAN","NAN","NAN"],
    [1537758,"2026-01-23 14:00:00","38748","3.696","285.3","7.154","268.3","NAN","NAN","NAN","NAN","NAN"],
    [1537759,"2026-01-23 14:10:00","38749","3.99","288.7","6.599","300","NAN","NAN","NAN","NAN","NAN"],
    [1537760,"2026-01-23 14:20:00","38750","4.885","288.6","8.89","297.8","NAN","NAN","NAN","NAN","NAN"],
    [1537761,"2026-01-23 14:30:00","38751","4.919","290.6","8.92","291.8","NAN","NAN","NAN","NAN","NAN"],
    [1537762,"2026-01-23 14:40:00","38752","4.761","287.4","7.873","272.4","NAN","NAN","NAN","NAN","NAN"],
    [1537763,"2026-01-23 14:50:00","38753","3.805","293.3","6.827","298.1","NAN","NAN","NAN","NAN","NAN"],
    [1537764,"2026-01-23 15:00:00","38754","4.236000000000001","284.8","7.154","268.2","NAN","NAN","NAN","NAN","NAN"],
    [1537765,"2026-01-23 15:10:00","38755","4.95","285.2","8.49","292.9","NAN","NAN","NAN","NAN","NAN"],
    [1537766,"2026-01-23 15:20:00","38756","4.025","290.4","7.905","306","NAN","NAN","NAN","NAN","NAN"],
    [1537767,"2026-01-23 15:30:00","38757","5.154","281.7","8.33","274.5","NAN","NAN","NAN","NAN","NAN"],
    [1537768,"2026-01-23 15:40:00","38758","4.453","297.6","7.807","289.4","NAN","NAN","NAN","NAN","NAN"],
    [1537769,"2026-01-23 15:50:00","38759","4.324","284.2","7.415","278.9","NAN","NAN","NAN","NAN","NAN"],
    [1537770,"2026-01-23 16:00:00","38760","4.165","295.4","7.448","289","NAN","NAN","NAN","NAN","NAN"],
    [1537771,"2026-01-23 16:10:00","38761","3.674","303.5","6.599","284.2","NAN","NAN","NAN","NAN","NAN"],
    [1537772,"2026-01-23 16:20:00","38762","3.25","291.9","6.697","293.6","NAN","NAN","NAN","NAN","NAN"],
    [1537773,"2026-01-23 16:30:00","38763","3.938","294.7","7.415","297.1","NAN","NAN","NAN","NAN","NAN"],
    [1537774,"2026-01-23 16:40:00","38764","3.6460000000000004","303.1","6.795","321.8","NAN","NAN","NAN","NAN","NAN"],
    [1537775,"2026-01-23 16:50:00","38765","2.917","291.7","5.031","299.3","NAN","NAN","NAN","NAN","NAN"],
    [1537776,"2026-01-23 17:00:00","38766","2.399","288.6","4.933","278.6","NAN","NAN","NAN","NAN","NAN"],
    [1537777,"2026-01-23 17:10:00","38767","2.1069999999999998","271.0","4.181","288.9","NAN","NAN","NAN","NAN","NAN"],
    [1537778,"2026-01-23 17:20:00","38768","0.991","258.9","2.189","259.5","NAN","NAN","NAN","NAN","NAN"],
    [1537779,"2026-01-23 17:30:00","38769","1.29","255.2","2.581","257","NAN","NAN","NAN","NAN","NAN"],
    [1537780,"2026-01-23 17:40:00","38770","0.244","260.3","1.307","260.4","NAN","NAN","NAN","NAN","NAN"],
    [1537781,"2026-01-23 17:50:00","38771","1.002","277.5","3.332","278.4","NAN","NAN","NAN","NAN","NAN"],
    [1537782,"2026-01-23 18:00:00","38772","0.71","282.7","1.47","282.6","NAN","NAN","NAN","NAN","NAN"],
    [1537783,"2026-01-23 18:10:00","38773","0.9359999999999999","282.4","2.221","282.1","NAN","NAN","NAN","NAN","NAN"],
    [1537784,"2026-01-23 18:20:00","38774","0.545","286.8","1.927","288.7","NAN","NAN","NAN","NAN","NAN"],
    [1537785,"2026-01-23 18:30:00","38775","1.143","289.0","2.025","289","NAN","NAN","NAN","NAN","NAN"],
    [1537786,"2026-01-23 18:40:00","38776","1.939","289.8","3.397","292.5","NAN","NAN","NAN","NAN","NAN"],
    [1537787,"2026-01-23 18:50:00","38777","1.831","298.2","3.299","295.3","NAN","NAN","NAN","NAN","NAN"],
    [1537788,"2026-01-23 19:00:00","38778","2.374","305.5","3.855","299.9","NAN","NAN","NAN","NAN","NAN"],
    [1537789,"2026-01-23 19:10:00","38779","2.365","304.1","3.659","306.4","NAN","NAN","NAN","NAN","NAN"],
    [1537790,"2026-01-23 19:20:00","38780","2.65","314.0","4.867","314.6","NAN","NAN","NAN","NAN","NAN"],
    [1537791,"2026-01-23 19:30:00","38781","1.902","316.0","3.822","323.5","NAN","NAN","NAN","NAN","NAN"],
    [1537792,"2026-01-23 19:40:00","38782","1.7519999999999998","308.1","3.234","309.2","NAN","NAN","NAN","NAN","NAN"],
    [1537793,"2026-01-23 19:50:00","38783","2.5810000000000004","300.8","5.096","323.6","NAN","NAN","NAN","NAN","NAN"],
    [1537794,"2026-01-23 20:00:00","38784","2.778","305.7","4.41","299.1","NAN","NAN","NAN","NAN","NAN"],
    [1537795,"2026-01-23 20:10:00","38785","3.033","305.7","4.965","300.9","NAN","NAN","NAN","NAN","NAN"],
    [1537796,"2026-01-23 20:20:00","38786","2.8310000000000004","304.6","5.749","315.2","NAN","NAN","NAN","NAN","NAN"],
    [1537797,"2026-01-23 20:30:00","38787","1.619","304.6","3.953","299.2","NAN","NAN","NAN","NAN","NAN"],
    [1537798,"2026-01-23 20:40:00","38788","0.21600000000000003","309.0","1.535","309.3","NAN","NAN","NAN","NAN","NAN"],
    [1537799,"2026-01-23 20:50:00","38789","0.78","306.8","1.731","305.2","NAN","NAN","NAN","NAN","NAN"],
    [1537800,"2026-01-23 21:00:00","38790","1.3330000000000002","298.3","2.091","300.9","NAN","NAN","NAN","NAN","NAN"],
    [1537801,"2026-01-23 21:10:00","38791","1.722","275.4","2.842","260.9","NAN","NAN","NAN","NAN","NAN"],
    [1537802,"2026-01-23 21:20:00","38792","1.442","258.5","3.071","254","NAN","NAN","NAN","NAN","NAN"],
    [1537803,"2026-01-23 21:30:00","38793","1.325","255.5","2.515","255.8","NAN","NAN","NAN","NAN","NAN"],
    [1537804,"2026-01-23 21:40:00","38794","1.953","246.1","3.332","223.6","NAN","NAN","NAN","NAN","NAN"],
    [1537805,"2026-01-23 21:50:00","38795","1.2830000000000001","228.7","2.94","216.4","NAN","NAN","NAN","NAN","NAN"],
    [1537806,"2026-01-23 22:00:00","38796","1.5","231.1","4.769","215.5","NAN","NAN","NAN","NAN","NAN"],
    [1537807,"2026-01-23 22:10:00","38797","2.9410000000000003","254.6","4.769","236.3","NAN","NAN","NAN","NAN","NAN"],
    [1537808,"2026-01-23 22:20:00","38798","0.887","262.8","2.973","264.9","NAN","NAN","NAN","NAN","NAN"],
    [1537809,"2026-01-23 22:30:00","38799","0.39899999999999997","264.7","1.274","264.4","NAN","NAN","NAN","NAN","NAN"],
    [1537810,"2026-01-23 22:40:00","38800","0.784","263.7","1.372","264.5","NAN","NAN","NAN","NAN","NAN"],
    [1537811,"2026-01-23 22:50:00","38801","0.17300000000000001","264.4","1.111","264.4","NAN","NAN","NAN","NAN","NAN"],
    [1537812,"2026-01-23 23:00:00","38802","0.0","0.0","0","0","NAN","NAN","NAN","NAN","NAN"],
    [1537813,"2026-01-23 23:10:00","38803","0.0","0.0","0","0","NAN","NAN","NAN","NAN","NAN"],
    [1537814,"2026-01-23 23:20:00","38804","0.0","0.0","0","0","NAN","NAN","NAN","NAN","NAN"],
    [1537815,"2026-01-23 23:30:00","38805","0.0","0.0","0","0","NAN","NAN","NAN","NAN","NAN"],
    [1537816,"2026-01-23 23:40:00","38806","0.013000000000000001","264.8","0.359","264.9","NAN","NAN","NAN","NAN","NAN"],
    [1537817,"2026-01-23 23:50:00","38807","0.0","0.0","0","0","NAN","NAN","NAN","NAN","NAN"],
    [1537818,"2026-01-24 00:00:00","38808","0.0","0.0","0","0","NAN","NAN","NAN","NAN","NAN"],
    [1537819,"2026-01-24 00:10:00","38809","0.091","265.1","0.784","265.1","NAN","NAN","NAN","NAN","NAN"],
    [1537820,"2026-01-24 00:20:00","38810","0.0","0.0","0","0","NAN","NAN","NAN","NAN","NAN"],
    [1537821,"2026-01-24 00:30:00","38811","0.0","0.0","0","0","NAN","NAN","NAN","NAN","NAN"],
    [1537822,"2026-01-24 00:40:00","38812","0.573","265.1","1.143","265.1","NAN","NAN","NAN","NAN","NAN"],
    [1537823,"2026-01-24 00:50:00","38813","0.26","265.1","0.947","265.1","NAN","NAN","NAN","NAN","NAN"],
    [1537824,"2026-01-24 01:00:00","38814","0.006","264.7","0.327","264.7","NAN","NAN","NAN","NAN","NAN"],
    [1537825,"2026-01-24 01:10:00","38815","0.929","264.9","1.503","265.2","NAN","NAN","NAN","NAN","NAN"],
    [1537826,"2026-01-24 01:20:00","38816","0.8690000000000001","265.0","1.47","265","NAN","NAN","NAN","NAN","NAN"],
    [1537827,"2026-01-24 01:30:00","38817","0.021","264.3","0.751","263.8","NAN","NAN","NAN","NAN","NAN"],
    [1537828,"2026-01-24 01:40:00","38818","0.168","260.6","1.274","262.7","NAN","NAN","NAN","NAN","NAN"],
    [1537829,"2026-01-24 01:50:00","38819","0.25","263.9","1.274","260.1","NAN","NAN","NAN","NAN","NAN"],
    [1537830,"2026-01-24 02:00:00","38820","1.794","263.5","2.94","257","NAN","NAN","NAN","NAN","NAN"],
    [1537831,"2026-01-24 02:10:00","38821","1.112","265.7","2.123","266.1","NAN","NAN","NAN","NAN","NAN"],
    [1537832,"2026-01-24 02:20:00","38822","0.934","261.7","3.626","260.5","NAN","NAN","NAN","NAN","NAN"],
    [1537833,"2026-01-24 02:30:00","38823","0.831","259.4","2.581","253.6","NAN","NAN","NAN","NAN","NAN"],
    [1537834,"2026-01-24 02:40:00","38824","0.848","260.3","3.561","249.9","NAN","NAN","NAN","NAN","NAN"],
    [1537835,"2026-01-24 02:50:00","38825","0.9159999999999999","258.0","1.895","259.7","NAN","NAN","NAN","NAN","NAN"],
    [1537836,"2026-01-24 03:00:00","38826","0.958","264.5","2.058","265.2","NAN","NAN","NAN","NAN","NAN"],
    [1537837,"2026-01-24 03:10:00","38827","0.601","265.6","1.829","265.6","NAN","NAN","NAN","NAN","NAN"],
    [1537838,"2026-01-24 03:20:00","38828","0.523","265.7","1.535","265.6","NAN","NAN","NAN","NAN","NAN"],
    [1537839,"2026-01-24 03:30:00","38829","0.41","264.5","2.058","256.3","NAN","NAN","NAN","NAN","NAN"],
    [1537840,"2026-01-24 03:40:00","38830","2.089","266.8","4.116","267.4","NAN","NAN","NAN","NAN","NAN"],
    [1537841,"2026-01-24 03:50:00","38831","2.677","283.8","4.508","287.8","NAN","NAN","NAN","NAN","NAN"],
    [1537842,"2026-01-24 04:00:00","38832","2.0","296.6","3.757","293.9","NAN","NAN","NAN","NAN","NAN"],
    [1537843,"2026-01-24 04:10:00","38833","2.847","322.8","4.9","327.9","NAN","NAN","NAN","NAN","NAN"],
    [1537844,"2026-01-24 04:20:00","38834","2.438","344.3","4.639","337.6","NAN","NAN","NAN","NAN","NAN"],
    [1537845,"2026-01-24 04:30:00","38835","0.787","344.1","2.058","350.6","NAN","NAN","NAN","NAN","NAN"],
    [1537846,"2026-01-24 04:40:00","38836","0.273","335.7","0.882","334.5","NAN","NAN","NAN","NAN","NAN"],
    [1537847,"2026-01-24 04:50:00","38837","0.6459999999999999","330.5","1.862","330.2","NAN","NAN","NAN","NAN","NAN"],
    [1537848,"2026-01-24 05:00:00","38838","0.42100000000000004","327.0","1.143","327","NAN","NAN","NAN","NAN","NAN"],
    [1537849,"2026-01-24 05:10:00","38839","0.284","326.5","1.176","326.4","NAN","NAN","NAN","NAN","NAN"],
    [1537850,"2026-01-24 05:20:00","38840","0.494","326.2","1.339","326.2","NAN","NAN","NAN","NAN","NAN"],
    [1537851,"2026-01-24 05:30:00","38841","0.006","326.2","0.49","326.2","NAN","NAN","NAN","NAN","NAN"],
    [1537852,"2026-01-24 05:40:00","38842","0.40700000000000003","326.1","2.025","326","NAN","NAN","NAN","NAN","NAN"],
    [1537853,"2026-01-24 05:50:00","38843","2.176","209.0","4.606","159.7","NAN","NAN","NAN","NAN","NAN"],
    [1537854,"2026-01-24 06:00:00","38844","2.7089999999999996","107.2","4.41","104.6","NAN","NAN","NAN","NAN","NAN"],
    [1537855,"2026-01-24 06:10:00","38845","1.115","99.8","3.136","114.6","NAN","NAN","NAN","NAN","NAN"],
    [1537856,"2026-01-24 06:20:00","38846","0.22","93.8","1.209","93","NAN","NAN","NAN","NAN","NAN"],
    [1537857,"2026-01-24 06:30:00","38847","0.941","99.8","2.156","98.9","NAN","NAN","NAN","NAN","NAN"],
    [1537858,"2026-01-24 06:40:00","38848","2.3","78.97","4.181","51.54","NAN","NAN","NAN","NAN","NAN"],
    [1537859,"2026-01-24 06:50:00","38849","1.891","40.62","4.541","47.1","NAN","NAN","NAN","NAN","NAN"],
    [1537860,"2026-01-24 07:00:00","38850","0.6779999999999999","43.22","2.156","46.03","NAN","NAN","NAN","NAN","NAN"],
    [1537861,"2026-01-24 07:10:00","38851","0.033","36.92","0.49","42.7","NAN","NAN","NAN","NAN","NAN"],
    [1537862,"2026-01-24 07:20:00","38852","0.002","32.78","0.294","32.78","NAN","NAN","NAN","NAN","NAN"],
    [1537863,"2026-01-24 07:30:00","38853","0.0","0.0","0","0","NAN","NAN","NAN","NAN","NAN"],
    [1537864,"2026-01-24 07:40:00","38854","0.026000000000000002","23.06","0.555","23.06","NAN","NAN","NAN","NAN","NAN"],
    [1537865,"2026-01-24 07:50:00","38855","0.745","4.427","3.724","292.6","NAN","NAN","NAN","NAN","NAN"],
    [1537866,"2026-01-24 08:00:00","38856","2.5839999999999996","291.6","4.018","293.5","NAN","NAN","NAN","NAN","NAN"],
    [1537867,"2026-01-24 08:10:00","38857","2.4219999999999997","306.6","3.593","290","NAN","NAN","NAN","NAN","NAN"],
    [1537868,"2026-01-24 08:20:00","38858","3.08","324.5","5.063","330","NAN","NAN","NAN","NAN","NAN"],
    [1537869,"2026-01-24 08:30:00","38859","3.549","326.9","5.292","330.7","NAN","NAN","NAN","NAN","NAN"],
    [1537870,"2026-01-24 08:40:00","38860","2.7060000000000004","321.9","4.737","331.3","NAN","NAN","NAN","NAN","NAN"],
    [1537871,"2026-01-24 08:50:00","38861","4.781000000000001","323.7","8.4","334","NAN","NAN","NAN","NAN","NAN"],
    [1537872,"2026-01-24 09:00:00","38862","5.074","325.9","9.05","336.5","NAN","NAN","NAN","NAN","NAN"],
    [1537873,"2026-01-24 09:10:00","38863","4.191","315.3","7.121","306.7","NAN","NAN","NAN","NAN","NAN"],
    [1537874,"2026-01-24 09:20:00","38864","5.109","303.4","8.72","294.2","NAN","NAN","NAN","NAN","NAN"],
    [1537875,"2026-01-24 09:30:00","38865","5.181","306.0","9.51","308.3","NAN","NAN","NAN","NAN","NAN"],
    [1537876,"2026-01-24 09:40:00","38866","5.013","302.0","8.53","301.4","NAN","NAN","NAN","NAN","NAN"],
    [1537877,"2026-01-24 09:50:00","38867","5.563","297.5","9.05","279.9","NAN","NAN","NAN","NAN","NAN"],
    [1537878,"2026-01-24 10:00:00","38868","6.553","292.2","11.11","305.2","NAN","NAN","NAN","NAN","NAN"],
    [1537879,"2026-01-24 10:10:00","38869","5.813","291.1","11.01","292.6","NAN","NAN","NAN","NAN","NAN"],
    [1537880,"2026-01-24 10:20:00","38870","5.0489999999999995","283.2","8.53","296.6","NAN","NAN","NAN","NAN","NAN"],
    [1537881,"2026-01-24 10:30:00","38871","4.402","276.8","7.35","272.4","NAN","NAN","NAN","NAN","NAN"],
    [1537882,"2026-01-24 10:40:00","38872","4.775","278.2","8.2","286.5","NAN","NAN","NAN","NAN","NAN"],
    [1537883,"2026-01-24 10:50:00","38873","4.48","273.8","7.971","272.8","NAN","NAN","NAN","NAN","NAN"],
    [1537884,"2026-01-24 11:00:00","38874","4.7669999999999995","266.9","7.089","265.9","NAN","NAN","NAN","NAN","NAN"],
    [1537885,"2026-01-24 11:10:00","38875","4.155","256.1","6.631","255.6","NAN","NAN","NAN","NAN","NAN"],
    [1537886,"2026-01-24 11:20:00","38876","4.441","248.3","7.742","239","NAN","NAN","NAN","NAN","NAN"],
    [1537887,"2026-01-24 11:30:00","38877","4.609","244.0","6.925","242.7","NAN","NAN","NAN","NAN","NAN"],
    [1537888,"2026-01-24 11:40:00","38878","4.654","249.0","6.86","245.9","NAN","NAN","NAN","NAN","NAN"],
    [1537889,"2026-01-24 11:50:00","38879","4.148","250.5","6.631","261.7","NAN","NAN","NAN","NAN","NAN"],
    [1537890,"2026-01-24 12:00:00","38880","3.503","261.9","5.749","253.8","NAN","NAN","NAN","NAN","NAN"],
    [1537891,"2026-01-24 12:10:00","38881","3.247","258.6","6.272","258.4","NAN","NAN","NAN","NAN","NAN"],
    [1537892,"2026-01-24 12:20:00","38882","3.56","262.7","5.521","250.1","NAN","NAN","NAN","NAN","NAN"],
    [1537893,"2026-01-24 12:30:00","38883","4.324","261.8","8.07","249.4","NAN","NAN","NAN","NAN","NAN"],
    [1537894,"2026-01-24 12:40:00","38884","3.989","257.1","6.697","253.3","NAN","NAN","NAN","NAN","NAN"],
    [1537895,"2026-01-24 12:50:00","38885","5.011","269.4","7.317","271.1","NAN","NAN","NAN","NAN","NAN"],
    [1537896,"2026-01-24 13:00:00","38886","4.675","270.4","6.958","277.6","NAN","NAN","NAN","NAN","NAN"],
    [1537897,"2026-01-24 13:10:00","38887","4.404","275.0","7.709","277.4","NAN","NAN","NAN","NAN","NAN"],
    [1537898,"2026-01-24 13:20:00","38888","4.785","286.1","7.905","282.4","NAN","NAN","NAN","NAN","NAN"],
    [1537899,"2026-01-24 13:30:00","38889","4.026","286.8","7.056","284.8","NAN","NAN","NAN","NAN","NAN"],
    [1537900,"2026-01-24 13:40:00","38890","3.68","283.7","6.207","283.4","NAN","NAN","NAN","NAN","NAN"],
    [1537901,"2026-01-24 13:50:00","38891","3.043","290.2","5.586","287.2","NAN","NAN","NAN","NAN","NAN"],
    [1537902,"2026-01-24 14:00:00","38892","3.557","308.0","5.749","301.1","NAN","NAN","NAN","NAN","NAN"],
    [1537903,"2026-01-24 14:10:00","38893","4.235","295.8","8.69","287.2","NAN","NAN","NAN","NAN","NAN"],
    [1537904,"2026-01-24 14:20:00","38894","3.802","297.8","7.285","304.8","NAN","NAN","NAN","NAN","NAN"],
    [1537905,"2026-01-24 14:30:00","38895","2.84","288.6","4.998","278.4","NAN","NAN","NAN","NAN","NAN"],
    [1537906,"2026-01-24 14:40:00","38896","2.72","284.7","5.717","287.9","NAN","NAN","NAN","NAN","NAN"],
    [1537907,"2026-01-24 14:50:00","38897","3.696","301.9","6.697","310.7","NAN","NAN","NAN","NAN","NAN"],
    [1537908,"2026-01-24 15:00:00","38898","3.9410000000000003","298.0","6.468","299.1","NAN","NAN","NAN","NAN","NAN"],
    [1537909,"2026-01-24 15:10:00","38899","3.219","293.5","5.292","287.3","NAN","NAN","NAN","NAN","NAN"],
    [1537910,"2026-01-24 15:20:00","38900","2.356","280.1","3.822","293.9","NAN","NAN","NAN","NAN","NAN"],
    [1537911,"2026-01-24 15:30:00","38901","2.867","253.0","4.475","271.7","NAN","NAN","NAN","NAN","NAN"],
    [1537912,"2026-01-24 15:40:00","38902","3.116","245.7","5.227","240.1","NAN","NAN","NAN","NAN","NAN"],
    [1537913,"2026-01-24 15:50:00","38903","2.53","235.5","4.573","247.8","NAN","NAN","NAN","NAN","NAN"],
    [1537914,"2026-01-24 16:00:00","38904","2.511","226.6","3.789","223","NAN","NAN","NAN","NAN","NAN"],
    [1537915,"2026-01-24 16:10:00","38905","2.718","227.0","4.345","219.6","NAN","NAN","NAN","NAN","NAN"],
    [1537916,"2026-01-24 16:20:00","38906","2.68","234.7","4.377","240.5","NAN","NAN","NAN","NAN","NAN"],
    [1537917,"2026-01-24 16:30:00","38907","2.375","231.7","4.573","225.4","NAN","NAN","NAN","NAN","NAN"],
    [1537918,"2026-01-24 16:40:00","38908","1.821","238.3","3.561","232","NAN","NAN","NAN","NAN","NAN"],
    [1537919,"2026-01-24 16:50:00","38909","1.655","231.7","3.985","225.3","NAN","NAN","NAN","NAN","NAN"],
    [1537920,"2026-01-24 17:00:00","38910","1.185","233.7","2.842","239.4","NAN","NAN","NAN","NAN","NAN"],
    [1537921,"2026-01-24 17:10:00","38911","1.215","227.8","2.221","227.1","NAN","NAN","NAN","NAN","NAN"],
    [1537922,"2026-01-24 17:20:00","38912","0.545","228.9","2.091","228.1","NAN","NAN","NAN","NAN","NAN"],
    [1537923,"2026-01-24 17:30:00","38913","1.043","230.8","2.907","230.1","NAN","NAN","NAN","NAN","NAN"],
    [1537924,"2026-01-24 17:40:00","38914","0.45799999999999996","240.6","2.319","243.9","NAN","NAN","NAN","NAN","NAN"],
    [1537925,"2026-01-24 17:50:00","38915","1.04","236.7","2.287","236.2","NAN","NAN","NAN","NAN","NAN"],
    [1537926,"2026-01-24 18:00:00","38916","1.4","231.7","2.417","227.5","NAN","NAN","NAN","NAN","NAN"],
    [1537927,"2026-01-24 18:10:00","38917","1.308","234.4","2.744","233.9","NAN","NAN","NAN","NAN","NAN"],
    [1537928,"2026-01-24 18:20:00","38918","1.117","228.2","1.993","230","NAN","NAN","NAN","NAN","NAN"],
    [1537929,"2026-01-24 18:30:00","38919","1.226","228.3","2.123","226.6","NAN","NAN","NAN","NAN","NAN"],
    [1537930,"2026-01-24 18:40:00","38920","0.9690000000000001","229.8","2.45","234.6","NAN","NAN","NAN","NAN","NAN"],
    [1537931,"2026-01-24 18:50:00","38921","1.2590000000000001","243.3","3.626","256.9","NAN","NAN","NAN","NAN","NAN"],
    [1537932,"2026-01-24 19:00:00","38922","0.525","249.8","1.927","249.9","NAN","NAN","NAN","NAN","NAN"],
    [1537933,"2026-01-24 19:10:00","38923","0.002","249.5","0.196","249.5","NAN","NAN","NAN","NAN","NAN"],
    [1537934,"2026-01-24 19:20:00","38924","0.006","251.3","0.261","251.3","NAN","NAN","NAN","NAN","NAN"],
    [1537935,"2026-01-24 19:30:00","38925","0.039","254.6","0.49","253.9","NAN","NAN","NAN","NAN","NAN"],
    [1537936,"2026-01-24 19:40:00","38926","0.0","0.0","0","0","NAN","NAN","NAN","NAN","NAN"],
    [1537937,"2026-01-24 19:50:00","38927","0.0","0.0","0","0","NAN","NAN","NAN","NAN","NAN"],
    [1537938,"2026-01-24 20:00:00","38928","0.065","249.4","0.915","249.4","NAN","NAN","NAN","NAN","NAN"],
    [1537939,"2026-01-24 20:10:00","38929","0.008","249.4","0.49","249.4","NAN","NAN","NAN","NAN","NAN"],
    [1537940,"2026-01-24 20:20:00","38930","0.161","249.3","1.47","249.2","NAN","NAN","NAN","NAN","NAN"],
    [1537941,"2026-01-24 20:30:00","38931","0.474","249.0","1.601","249.1","NAN","NAN","NAN","NAN","NAN"],
    [1537942,"2026-01-24 20:40:00","38932","1.205","249.3","2.744","247.9","NAN","NAN","NAN","NAN","NAN"],
    [1537943,"2026-01-24 20:50:00","38933","1.35","251.0","3.005","246.3","NAN","NAN","NAN","NAN","NAN"],
    [1537944,"2026-01-24 21:00:00","38934","0.295","262.3","1.699","259.5","NAN","NAN","NAN","NAN","NAN"],
    [1537945,"2026-01-24 21:10:00","38935","0.009000000000000001","261.0","0.425","261","NAN","NAN","NAN","NAN","NAN"],
    [1537946,"2026-01-24 21:20:00","38936","0.01","264.5","0.653","264.9","NAN","NAN","NAN","NAN","NAN"],
    [1537947,"2026-01-24 21:30:00","38937","0.027000000000000003","266.6","0.817","267.5","NAN","NAN","NAN","NAN","NAN"],
    [1537948,"2026-01-24 21:40:00","38938","0.7070000000000001","324.4","4.279","331.2","NAN","NAN","NAN","NAN","NAN"],
    [1537949,"2026-01-24 21:50:00","38939","0.297","331.9","2.385","332.2","NAN","NAN","NAN","NAN","NAN"],
    [1537950,"2026-01-24 22:00:00","38940","1.2919999999999998","330.7","2.907","332.4","NAN","NAN","NAN","NAN","NAN"],
    [1537951,"2026-01-24 22:10:00","38941","1.358","328.7","2.254","326.5","NAN","NAN","NAN","NAN","NAN"],
    [1537952,"2026-01-24 22:20:00","38942","0.655","315.5","1.829","319.8","NAN","NAN","NAN","NAN","NAN"],
    [1537953,"2026-01-24 22:30:00","38943","1.158","305.3","3.234","307.8","NAN","NAN","NAN","NAN","NAN"],
    [1537954,"2026-01-24 22:40:00","38944","0.0","0.0","0","0","NAN","NAN","NAN","NAN","NAN"],
    [1537955,"2026-01-24 22:50:00","38945","0.004","307.0","0.392","307","NAN","NAN","NAN","NAN","NAN"],
    [1537956,"2026-01-24 23:00:00","38946","0.096","307.9","1.078","308.1","NAN","NAN","NAN","NAN","NAN"],
    [1537957,"2026-01-24 23:10:00","38947","2.209","352.9","4.116","347.9","NAN","NAN","NAN","NAN","NAN"],
    [1537958,"2026-01-24 23:20:00","38948","1.7309999999999999","349.1","4.279","351.9","NAN","NAN","NAN","NAN","NAN"],
    [1537959,"2026-01-24 23:30:00","38949","2.269","354.7","5.586","6.847","NAN","NAN","NAN","NAN","NAN"],
    [1537960,"2026-01-24 23:40:00","38950","2.311","340.6","5.129","320.7","NAN","NAN","NAN","NAN","NAN"],
    [1537961,"2026-01-24 23:50:00","38951","1.088","338.8","5.39","320.8","NAN","NAN","NAN","NAN","NAN"],
    [1537962,"2026-01-25 00:00:00","38952","2.448","6.275","4.639","6.812","NAN","NAN","NAN","NAN","NAN"],
    [1537963,"2026-01-25 00:10:00","38953","1.746","353.2","5.096","341.7","NAN","NAN","NAN","NAN","NAN"],
    [1537964,"2026-01-25 00:20:00","38954","3.4210000000000003","343.4","6.631","348.5","NAN","NAN","NAN","NAN","NAN"],
    [1537965,"2026-01-25 00:30:00","38955","2.437","330.6","5.978","334.9","NAN","NAN","NAN","NAN","NAN"],
    [1537966,"2026-01-25 00:40:00","38956","1.39","348.1","2.94","354.5","NAN","NAN","NAN","NAN","NAN"],
    [1537967,"2026-01-25 00:50:00","38957","1.806","317.8","5.913","300.9","NAN","NAN","NAN","NAN","NAN"],
    [1537968,"2026-01-25 01:00:00","38958","1.94","303.0","4.9","286","NAN","NAN","NAN","NAN","NAN"],
    [1537969,"2026-01-25 01:10:00","38959","2.49","313.2","5.227","299.5","NAN","NAN","NAN","NAN","NAN"],
    [1537970,"2026-01-25 01:20:00","38960","2.089","324.2","4.769","347.9","NAN","NAN","NAN","NAN","NAN"],
    [1537971,"2026-01-25 01:30:00","38961","1.435","311.0","4.279","331.5","NAN","NAN","NAN","NAN","NAN"],
    [1537972,"2026-01-25 01:40:00","38962","1.319","286.4","4.018","262.9","NAN","NAN","NAN","NAN","NAN"],
    [1537973,"2026-01-25 01:50:00","38963","1.611","317.6","4.835","349.2","NAN","NAN","NAN","NAN","NAN"],
    [1537974,"2026-01-25 02:00:00","38964","3.323","324.6","6.435","280.8","NAN","NAN","NAN","NAN","NAN"],
    [1537975,"2026-01-25 02:10:00","38965","3.772","311.0","6.795","309.1","NAN","NAN","NAN","NAN","NAN"],
    [1537976,"2026-01-25 02:20:00","38966","3.8139999999999996","307.4","7.775","319.5","NAN","NAN","NAN","NAN","NAN"],
    [1537977,"2026-01-25 02:30:00","38967","3.242","307.2","7.056","310.9","NAN","NAN","NAN","NAN","NAN"],
    [1537978,"2026-01-25 02:40:00","38968","4.055","306.0","8.46","293.7","NAN","NAN","NAN","NAN","NAN"],
    [1537979,"2026-01-25 02:50:00","38969","4.319","312.3","8.04","333.2","NAN","NAN","NAN","NAN","NAN"],
    [1537980,"2026-01-25 03:00:00","38970","3.5660000000000003","306.3","7.154","305.8","NAN","NAN","NAN","NAN","NAN"],
    [1537981,"2026-01-25 03:10:00","38971","0.915","327.4","4.018","320.6","NAN","NAN","NAN","NAN","NAN"],
    [1537982,"2026-01-25 03:20:00","38972","2.258","329.2","4.933","326.9","NAN","NAN","NAN","NAN","NAN"],
    [1537983,"2026-01-25 03:30:00","38973","2.0","315.0","4.965","336.5","NAN","NAN","NAN","NAN","NAN"],
    [1537984,"2026-01-25 03:40:00","38974","2.375","333.3","5.423","330.2","NAN","NAN","NAN","NAN","NAN"],
    [1537985,"2026-01-25 03:50:00","38975","3.8","332.2","6.925","324.3","NAN","NAN","NAN","NAN","NAN"],
    [1537986,"2026-01-25 04:00:00","38976","3.93","333.6","7.317","324.8","NAN","NAN","NAN","NAN","NAN"],
    [1537987,"2026-01-25 04:10:00","38977","4.1930000000000005","342.7","7.252","346.7","NAN","NAN","NAN","NAN","NAN"],
    [1537988,"2026-01-25 04:20:00","38978","3.685","335.9","6.86","336.6","NAN","NAN","NAN","NAN","NAN"],
    [1537989,"2026-01-25 04:30:00","38979","2.736","339.9","5.129","327.8","NAN","NAN","NAN","NAN","NAN"],
    [1537990,"2026-01-25 04:40:00","38980","2.623","344.6","5.978","342.8","NAN","NAN","NAN","NAN","NAN"],
    [1537991,"2026-01-25 04:50:00","38981","2.287","345.0","4.541","339.3","NAN","NAN","NAN","NAN","NAN"],
    [1537992,"2026-01-25 05:00:00","38982","2.197","326.5","4.508","308.2","NAN","NAN","NAN","NAN","NAN"],
    [1537993,"2026-01-25 05:10:00","38983","2.1790000000000003","342.3","5.357","346.6","NAN","NAN","NAN","NAN","NAN"],
    [1537994,"2026-01-25 05:20:00","38984","2.6","341.1","6.403","335.4","NAN","NAN","NAN","NAN","NAN"],
    [1537995,"2026-01-25 05:30:00","38985","3.863","334.6","6.664","327.5","NAN","NAN","NAN","NAN","NAN"],
    [1537996,"2026-01-25 05:40:00","38986","4.072","326.8","7.383","321.1","NAN","NAN","NAN","NAN","NAN"],
    [1537997,"2026-01-25 05:50:00","38987","4.636","331.4","7.644","324.6","NAN","NAN","NAN","NAN","NAN"],
    [1537998,"2026-01-25 06:00:00","38988","3.122","325.0","5.978","321.9","NAN","NAN","NAN","NAN","NAN"],
    [1537999,"2026-01-25 06:10:00","38989","3.122","330.2","5.096","323.9","NAN","NAN","NAN","NAN","NAN"],
    [1538000,"2026-01-25 06:20:00","38990","2.827","332.9","5.978","347.7","NAN","NAN","NAN","NAN","NAN"],
    [1538001,"2026-01-25 06:30:00","38991","0.613","313.0","2.287","297.3","NAN","NAN","NAN","NAN","NAN"],
    [1538002,"2026-01-25 06:40:00","38992","0.5579999999999999","285.3","2.123","284.9","NAN","NAN","NAN","NAN","NAN"],
    [1538003,"2026-01-25 06:50:00","38993","0.701","292.8","2.221","306.4","NAN","NAN","NAN","NAN","NAN"],
    [1538004,"2026-01-25 07:00:00","38994","2.335","311.3","4.345","295.3","NAN","NAN","NAN","NAN","NAN"],
    [1538005,"2026-01-25 07:10:00","38995","2.938","285.5","6.501","289.1","NAN","NAN","NAN","NAN","NAN"],
    [1538006,"2026-01-25 07:20:00","38996","3.54","303.7","6.043","303.8","NAN","NAN","NAN","NAN","NAN"],
    [1538007,"2026-01-25 07:30:00","38997","3.069","298.9","5.488","298.1","NAN","NAN","NAN","NAN","NAN"],
    [1538008,"2026-01-25 07:40:00","38998","3.091","294.4","5.88","300.6","NAN","NAN","NAN","NAN","NAN"],
    [1538009,"2026-01-25 07:50:00","38999","2.823","275.8","5.194","251.4","NAN","NAN","NAN","NAN","NAN"],
    [1538010,"2026-01-25 08:00:00","39000","3.165","269.0","6.272","255.3","NAN","NAN","NAN","NAN","NAN"],
    [1538011,"2026-01-25 08:10:00","39001","3.53","291.9","6.207","296.5","NAN","NAN","NAN","NAN","NAN"],
    [1538012,"2026-01-25 08:20:00","39002","3.2539999999999996","280.0","6.141","285.5","NAN","NAN","NAN","NAN","NAN"],
    [1538013,"2026-01-25 08:30:00","39003","2.658","283.0","5.521","282.7","NAN","NAN","NAN","NAN","NAN"],
    [1538014,"2026-01-25 08:40:00","39004","2.406","280.7","5.227","283.9","NAN","NAN","NAN","NAN","NAN"],
    [1538015,"2026-01-25 08:50:00","39005","3.447","296.0","5.521","289.9","NAN","NAN","NAN","NAN","NAN"],
    [1538016,"2026-01-25 09:00:00","39006","3.4189999999999996","301.2","5.292","303.2","NAN","NAN","NAN","NAN","NAN"],
    [1538017,"2026-01-25 09:10:00","39007","3.31","297.7","5.325","290.1","NAN","NAN","NAN","NAN","NAN"],
    [1538018,"2026-01-25 09:20:00","39008","2.713","278.9","5.39","286.5","NAN","NAN","NAN","NAN","NAN"],
    [1538019,"2026-01-25 09:30:00","39009","3.327","284.0","5.913","275.2","NAN","NAN","NAN","NAN","NAN"],
    [1538020,"2026-01-25 09:40:00","39010","4.261","293.7","7.154","291.6","NAN","NAN","NAN","NAN","NAN"],
    [1538021,"2026-01-25 09:50:00","39011","6.006","300.5","8.53","302.7","NAN","NAN","NAN","NAN","NAN"],
    [1538022,"2026-01-25 10:00:00","39012","5.296","298.5","8.56","296.2","NAN","NAN","NAN","NAN","NAN"],
    [1538023,"2026-01-25 10:10:00","39013","5.672000000000001","294.5","8.49","286.7","NAN","NAN","NAN","NAN","NAN"],
    [1538024,"2026-01-25 10:20:00","39014","5.478","301.8","8.72","302.2","NAN","NAN","NAN","NAN","NAN"],
    [1538025,"2026-01-25 10:30:00","39015","4.659","298.5","8.23","290.6","NAN","NAN","NAN","NAN","NAN"],
    [1538026,"2026-01-25 10:40:00","39016","4.748","287.3","7.644","292","NAN","NAN","NAN","NAN","NAN"],
    [1538027,"2026-01-25 10:50:00","39017","5.095","284.8","7.905","276.8","NAN","NAN","NAN","NAN","NAN"],
    [1538028,"2026-01-25 11:00:00","39018","4.862","288.4","8.72","307.4","NAN","NAN","NAN","NAN","NAN"],
    [1538029,"2026-01-25 11:10:00","39019","5.332999999999999","296.9","8.53","294.7","NAN","NAN","NAN","NAN","NAN"],
    [1538030,"2026-01-25 11:20:00","39020","5.72","294.3","10.06","282.4","NAN","NAN","NAN","NAN","NAN"],
    [1538031,"2026-01-25 11:30:00","39021","5.945","283.1","9.21","297.8","NAN","NAN","NAN","NAN","NAN"],
    [1538032,"2026-01-25 11:40:00","39022","6.837000000000001","289.7","10.39","301.3","NAN","NAN","NAN","NAN","NAN"],
    [1538033,"2026-01-25 11:50:00","39023","6.604","289.4","12.09","295.5","NAN","NAN","NAN","NAN","NAN"],
    [1538034,"2026-01-25 12:00:00","39024","5.675","276.0","9.8","263.4","NAN","NAN","NAN","NAN","NAN"],
    [1538035,"2026-01-25 12:10:00","39025","6.981","275.1","12.94","277.7","NAN","NAN","NAN","NAN","NAN"],
    [1538036,"2026-01-25 12:20:00","39026","7.207000000000001","268.6","10.88","250.6","NAN","NAN","NAN","NAN","NAN"],
    [1538037,"2026-01-25 12:30:00","39027","6.797999999999999","270.3","11.66","271.3","NAN","NAN","NAN","NAN","NAN"],
    [1538038,"2026-01-25 12:40:00","39028","5.761","272.2","10.42","278.9","NAN","NAN","NAN","NAN","NAN"],
    [1538039,"2026-01-25 12:50:00","39029","6.114","269.4","10.65","264.1","NAN","NAN","NAN","NAN","NAN"],
    [1538040,"2026-01-25 13:00:00","39030","6.312","260.6","10.45","272.6","NAN","NAN","NAN","NAN","NAN"],
    [1538041,"2026-01-25 13:10:00","39031","5.622999999999999","265.0","9.87","264.7","NAN","NAN","NAN","NAN","NAN"],
    [1538042,"2026-01-25 13:20:00","39032","5.935","271.8","9.6","269.2","NAN","NAN","NAN","NAN","NAN"],
    [1538043,"2026-01-25 13:30:00","39033","5.607","278.0","9.18","275.6","NAN","NAN","NAN","NAN","NAN"],
    [1538044,"2026-01-25 13:40:00","39034","5.358","276.6","10.45","274.9","NAN","NAN","NAN","NAN","NAN"],
    [1538045,"2026-01-25 13:50:00","39035","5.025","283.0","8.66","290.9","NAN","NAN","NAN","NAN","NAN"],
    [1538046,"2026-01-25 14:00:00","39036","4.9830000000000005","269.5","8.1","273.5","NAN","NAN","NAN","NAN","NAN"],
    [1538047,"2026-01-25 14:10:00","39037","5.188","277.7","9.51","270.6","NAN","NAN","NAN","NAN","NAN"],
    [1538048,"2026-01-25 14:20:00","39038","5.2589999999999995","277.2","8.69","272.3","NAN","NAN","NAN","NAN","NAN"],
    [1538049,"2026-01-25 14:30:00","39039","6.632999999999999","277.5","10.32","265.8","NAN","NAN","NAN","NAN","NAN"],
    [1538050,"2026-01-25 14:40:00","39040","6.119","286.1","10.03","282.7","NAN","NAN","NAN","NAN","NAN"],
    [1538051,"2026-01-25 14:50:00","39041","4.835","273.7","8.85","248.2","NAN","NAN","NAN","NAN","NAN"],
    [1538052,"2026-01-25 15:00:00","39042","5.242999999999999","272.8","8.75","277.5","NAN","NAN","NAN","NAN","NAN"],
    [1538053,"2026-01-25 15:10:00","39043","5.033","280.5","9.24","285.8","NAN","NAN","NAN","NAN","NAN"],
    [1538054,"2026-01-25 15:20:00","39044","4.551","272.0","8.2","258.7","NAN","NAN","NAN","NAN","NAN"],
    [1538055,"2026-01-25 15:30:00","39045","3.7939999999999996","253.5","6.174","249","NAN","NAN","NAN","NAN","NAN"],
    [1538056,"2026-01-25 15:40:00","39046","3.3539999999999996","249.1","6.076","249.4","NAN","NAN","NAN","NAN","NAN"],
    [1538057,"2026-01-25 15:50:00","39047","2.533","248.1","4.377","258.4","NAN","NAN","NAN","NAN","NAN"],
    [1538058,"2026-01-25 16:00:00","39048","2.793","249.4","4.639","245.5","NAN","NAN","NAN","NAN","NAN"],
    [1538059,"2026-01-25 16:10:00","39049","2.213","257.3","4.541","267.3","NAN","NAN","NAN","NAN","NAN"],
    [1538060,"2026-01-25 16:20:00","39050","1.4680000000000002","247.9","3.397","255.2","NAN","NAN","NAN","NAN","NAN"],
    [1538061,"2026-01-25 16:30:00","39051","2.059","252.8","3.561","257.1","NAN","NAN","NAN","NAN","NAN"],
    [1538062,"2026-01-25 16:40:00","39052","2.8080000000000003","252.1","5.39","254.8","NAN","NAN","NAN","NAN","NAN"],
    [1538063,"2026-01-25 16:50:00","39053","3.867","249.9","6.599","237.5","NAN","NAN","NAN","NAN","NAN"],
    [1538064,"2026-01-25 17:00:00","39054","3.013","254.8","6.403","253","NAN","NAN","NAN","NAN","NAN"],
    [1538065,"2026-01-25 17:10:00","39055","2.239","251.7","4.181","282.5","NAN","NAN","NAN","NAN","NAN"],
    [1538066,"2026-01-25 17:20:00","39056","6.04","344.7","11.6","348.7","NAN","NAN","NAN","NAN","NAN"],
    [1538067,"2026-01-25 17:30:00","39057","2.667","317.5","5.847","319.9","NAN","NAN","NAN","NAN","NAN"],
    [1538068,"2026-01-25 17:40:00","39058","1.5030000000000001","319.2","3.136","321.4","NAN","NAN","NAN","NAN","NAN"],
    [1538069,"2026-01-25 17:50:00","39059","2.21","322.4","3.299","326.9","NAN","NAN","NAN","NAN","NAN"],
    [1538070,"2026-01-25 18:00:00","39060","4.09","301.1","11.37","287.7","NAN","NAN","NAN","NAN","NAN"],
    [1538071,"2026-01-25 18:10:00","39061","3.5410000000000004","278.4","10.16","291.7","NAN","NAN","NAN","NAN","NAN"],
    [1538072,"2026-01-25 18:20:00","39062","1.614","286.2","2.94","277","NAN","NAN","NAN","NAN","NAN"],
    [1538073,"2026-01-25 18:30:00","39063","2.4859999999999998","255.2","3.691","257.3","NAN","NAN","NAN","NAN","NAN"],
    [1538074,"2026-01-25 18:40:00","39064","1.52","254.4","2.842","252.8","NAN","NAN","NAN","NAN","NAN"],
    [1538075,"2026-01-25 18:50:00","39065","0.262","253.1","1.699","252.8","NAN","NAN","NAN","NAN","NAN"],
    [1538076,"2026-01-25 19:00:00","39066","0.0","0.0","0","0","NAN","NAN","NAN","NAN","NAN"],
    [1538077,"2026-01-25 19:10:00","39067","0.29","258.9","1.372","258.3","NAN","NAN","NAN","NAN","NAN"],
    [1538078,"2026-01-25 19:20:00","39068","0.35600000000000004","261.1","1.535","260.9","NAN","NAN","NAN","NAN","NAN"],
    [1538079,"2026-01-25 19:30:00","39069","0.109","263.0","0.915","263.3","NAN","NAN","NAN","NAN","NAN"],
    [1538080,"2026-01-25 19:40:00","39070","0.469","264.6","1.601","264.7","NAN","NAN","NAN","NAN","NAN"],
    [1538081,"2026-01-25 19:50:00","39071","1.6580000000000001","257.8","2.613","253.9","NAN","NAN","NAN","NAN","NAN"],
    [1538082,"2026-01-25 20:00:00","39072","1.895","253.0","2.875","253.3","NAN","NAN","NAN","NAN","NAN"],
    [1538083,"2026-01-25 20:10:00","39073","1.475","253.0","3.005","252.2","NAN","NAN","NAN","NAN","NAN"],
    [1538084,"2026-01-25 20:20:00","39074","1.213","268.5","3.071","267.8","NAN","NAN","NAN","NAN","NAN"],
    [1538085,"2026-01-25 20:30:00","39075","0.08199999999999999","267.7","1.045","267.3","NAN","NAN","NAN","NAN","NAN"],
    [1538086,"2026-01-25 20:40:00","39076","0.011000000000000001","270.3","0.686","270.3","NAN","NAN","NAN","NAN","NAN"],
    [1538087,"2026-01-25 20:50:00","39077","1.5530000000000002","310.2","7.219","340.5","NAN","NAN","NAN","NAN","NAN"],
    [1538088,"2026-01-25 21:00:00","39078","3.9189999999999996","313.7","7.285","310.1","NAN","NAN","NAN","NAN","NAN"],
    [1538089,"2026-01-25 21:10:00","39079","3.7","297.3","6.174","316.7","NAN","NAN","NAN","NAN","NAN"],
    [1538090,"2026-01-25 21:20:00","39080","4.803","301.6","8.23","320","NAN","NAN","NAN","NAN","NAN"],
    [1538091,"2026-01-25 21:30:00","39081","3.9810000000000003","300.6","6.664","324.2","NAN","NAN","NAN","NAN","NAN"],
    [1538092,"2026-01-25 21:40:00","39082","3.122","320.8","5.357","318.3","NAN","NAN","NAN","NAN","NAN"],
    [1538093,"2026-01-25 21:50:00","39083","3.3560000000000003","320.6","5.815","310.5","NAN","NAN","NAN","NAN","NAN"],
    [1538094,"2026-01-25 22:00:00","39084","4.811","315.7","8.04","310.3","NAN","NAN","NAN","NAN","NAN"],
    [1538095,"2026-01-25 22:10:00","39085","6.277","320.6","10.32","309.2","NAN","NAN","NAN","NAN","NAN"],
    [1538096,"2026-01-25 22:20:00","39086","5.7829999999999995","318.7","10.32","323.7","NAN","NAN","NAN","NAN","NAN"],
    [1538097,"2026-01-25 22:30:00","39087","4.935","323.9","9.38","324.9","NAN","NAN","NAN","NAN","NAN"],
    [1538098,"2026-01-25 22:40:00","39088","5.62","328.9","9.96","332.7","NAN","NAN","NAN","NAN","NAN"],
    [1538099,"2026-01-25 22:50:00","39089","6.97","329.2","12.09","340.8","NAN","NAN","NAN","NAN","NAN"],
    [1538100,"2026-01-25 23:00:00","39090","6.3839999999999995","321.3","12.05","309.8","NAN","NAN","NAN","NAN","NAN"],
    [1538101,"2026-01-25 23:10:00","39091","7.612","322.1","13.62","340.6","NAN","NAN","NAN","NAN","NAN"],
    [1538102,"2026-01-25 23:20:00","39092","6.715","315.6","12.15","328.1","NAN","NAN","NAN","NAN","NAN"],
    [1538103,"2026-01-25 23:30:00","39093","5.872999999999999","311.8","9.67","307.7","NAN","NAN","NAN","NAN","NAN"],
    [1538104,"2026-01-25 23:40:00","39094","5.917000000000001","311.1","9.54","301.7","NAN","NAN","NAN","NAN","NAN"],
    [1538105,"2026-01-25 23:50:00","39095","6.457999999999999","313.0","10.78","318","NAN","NAN","NAN","NAN","NAN"],
    [1538106,"2026-01-26 00:00:00","39096","7.204","307.6","12.41","301.1","NAN","NAN","NAN","NAN","NAN"],
    [1538107,"2026-01-26 00:10:00","39097","6.461","307.5","11.89","297.9","NAN","NAN","NAN","NAN","NAN"],
    [1538108,"2026-01-26 00:20:00","39098","5.5520000000000005","307.2","8.75","295.8","NAN","NAN","NAN","NAN","NAN"],
    [1538109,"2026-01-26 00:30:00","39099","4.445","295.7","9.57","309.4","NAN","NAN","NAN","NAN","NAN"],
    [1538110,"2026-01-26 00:40:00","39100","3.823","289.2","8.85","308.4","NAN","NAN","NAN","NAN","NAN"],
    [1538111,"2026-01-26 00:50:00","39101","4.452","286.8","9.93","295.5","NAN","NAN","NAN","NAN","NAN"],
    [1538112,"2026-01-26 01:00:00","39102","2.0469999999999997","285.2","5.651","283.1","NAN","NAN","NAN","NAN","NAN"],
    [1538113,"2026-01-26 01:10:00","39103","1.864","278.1","3.659","255.4","NAN","NAN","NAN","NAN","NAN"],
    [1538114,"2026-01-26 01:20:00","39104","2.6039999999999996","266.8","6.958","284.6","NAN","NAN","NAN","NAN","NAN"],
    [1538115,"2026-01-26 01:30:00","39105","2.957","284.2","5.847","309.3","NAN","NAN","NAN","NAN","NAN"],
    [1538116,"2026-01-26 01:40:00","39106","2.577","258.0","5.455","262.1","NAN","NAN","NAN","NAN","NAN"],
    [1538117,"2026-01-26 01:50:00","39107","1.794","195.1","4.541","152.2","NAN","NAN","NAN","NAN","NAN"],
    [1538118,"2026-01-26 02:00:00","39108","2.6439999999999997","284.9","6.272","294","NAN","NAN","NAN","NAN","NAN"],
    [1538119,"2026-01-26 02:10:00","39109","1.107","257.3","3.659","180.9","NAN","NAN","NAN","NAN","NAN"],
    [1538120,"2026-01-26 02:20:00","39110","1.2309999999999999","215.9","4.606","273.3","NAN","NAN","NAN","NAN","NAN"],
    [1538121,"2026-01-26 02:30:00","39111","0.6990000000000001","219.6","2.875","212.5","NAN","NAN","NAN","NAN","NAN"],
    [1538122,"2026-01-26 02:40:00","39112","1.901","264.4","5.357","262","NAN","NAN","NAN","NAN","NAN"],
    [1538123,"2026-01-26 02:50:00","39113","2.8810000000000002","285.3","8.46","281.4","NAN","NAN","NAN","NAN","NAN"],
    [1538124,"2026-01-26 03:00:00","39114","4.178","292.9","7.677","312.4","NAN","NAN","NAN","NAN","NAN"],
    [1538125,"2026-01-26 03:10:00","39115","5.3229999999999995","300.4","12.9","308","NAN","NAN","NAN","NAN","NAN"],
    [1538126,"2026-01-26 03:20:00","39116","4.7860000000000005","305.8","10.03","307.5","NAN","NAN","NAN","NAN","NAN"],
    [1538127,"2026-01-26 03:30:00","39117","5.617999999999999","310.1","12.02","288","NAN","NAN","NAN","NAN","NAN"],
    [1538128,"2026-01-26 03:40:00","39118","7.297000000000001","315.8","13.65","298.5","NAN","NAN","NAN","NAN","NAN"],
    [1538129,"2026-01-26 03:50:00","39119","7.894","318.7","15.12","306.7","NAN","NAN","NAN","NAN","NAN"],
    [1538130,"2026-01-26 04:00:00","39120","7.905","318.0","13.13","324.2","NAN","NAN","NAN","NAN","NAN"],
    [1538131,"2026-01-26 04:10:00","39121","6.888999999999999","321.6","14.41","314.8","NAN","NAN","NAN","NAN","NAN"],
    [1538132,"2026-01-26 04:20:00","39122","8.54","323.2","14.08","324.6","NAN","NAN","NAN","NAN","NAN"],
    [1538133,"2026-01-26 04:30:00","39123","8.16","317.5","13.26","325.4","NAN","NAN","NAN","NAN","NAN"],
    [1538134,"2026-01-26 04:40:00","39124","8.12","320.1","14.31","319.9","NAN","NAN","NAN","NAN","NAN"],
    [1538135,"2026-01-26 04:50:00","39125","8.12","317.9","14.57","331.9","NAN","NAN","NAN","NAN","NAN"],
    [1538136,"2026-01-26 05:00:00","39126","8.15","317.6","13.79","317.5","NAN","NAN","NAN","NAN","NAN"],
    [1538137,"2026-01-26 05:10:00","39127","6.999","315.9","13.79","318","NAN","NAN","NAN","NAN","NAN"],
    [1538138,"2026-01-26 05:20:00","39128","6.58","312.7","11.01","317","NAN","NAN","NAN","NAN","NAN"],
    [1538139,"2026-01-26 05:30:00","39129","7.01","309.6","11.73","315.3","NAN","NAN","NAN","NAN","NAN"],
    [1538140,"2026-01-26 05:40:00","39130","6.968","312.8","12.74","317.2","NAN","NAN","NAN","NAN","NAN"],
    [1538141,"2026-01-26 05:50:00","39131","7.718999999999999","318.3","14.41","302.1","NAN","NAN","NAN","NAN","NAN"],
    [1538142,"2026-01-26 06:00:00","39132","7.444","323.3","13.39","334.9","NAN","NAN","NAN","NAN","NAN"],
    [1538143,"2026-01-26 06:10:00","39133","6.895","317.2","11.6","303.8","NAN","NAN","NAN","NAN","NAN"],
    [1538144,"2026-01-26 06:20:00","39134","6.982","318.9","12.09","313.5","NAN","NAN","NAN","NAN","NAN"],
    [1538145,"2026-01-26 06:30:00","39135","7.495","322.5","12.09","318.4","NAN","NAN","NAN","NAN","NAN"],
    [1538146,"2026-01-26 06:40:00","39136","7.433","323.7","12.67","317.2","NAN","NAN","NAN","NAN","NAN"],
    [1538147,"2026-01-26 06:50:00","39137","7.131","325.4","13.3","316.3","NAN","NAN","NAN","NAN","NAN"],
    [1538148,"2026-01-26 07:00:00","39138","7.43","329.0","12.41","325.5","NAN","NAN","NAN","NAN","NAN"],
    [1538149,"2026-01-26 07:10:00","39139","7.357","323.3","11.04","328.4","NAN","NAN","NAN","NAN","NAN"],
    [1538150,"2026-01-26 07:20:00","39140","6.541","327.4","10.45","334.3","NAN","NAN","NAN","NAN","NAN"],
    [1538151,"2026-01-26 07:30:00","39141","5.435","348.2","10.94","322.1","NAN","NAN","NAN","NAN","NAN"],
    [1538152,"2026-01-26 07:40:00","39142","2.674","342.2","7.448","301.5","NAN","NAN","NAN","NAN","NAN"],
    [1538153,"2026-01-26 07:50:00","39143","2.782","352.4","6.076","298.1","NAN","NAN","NAN","NAN","NAN"],
    [1538154,"2026-01-26 08:00:00","39144","2.963","351.8","7.056","347.7","NAN","NAN","NAN","NAN","NAN"],
    [1538155,"2026-01-26 08:10:00","39145","3.517","346.3","6.664","343.5","NAN","NAN","NAN","NAN","NAN"],
    [1538156,"2026-01-26 08:20:00","39146","3.7","330.3","7.056","326.3","NAN","NAN","NAN","NAN","NAN"],
    [1538157,"2026-01-26 08:30:00","39147","4.081","333.0","7.089","341.1","NAN","NAN","NAN","NAN","NAN"],
    [1538158,"2026-01-26 08:40:00","39148","5.205","325.2","8.1","330.8","NAN","NAN","NAN","NAN","NAN"],
    [1538159,"2026-01-26 08:50:00","39149","4.544","318.6","7.252","309.1","NAN","NAN","NAN","NAN","NAN"],
    [1538160,"2026-01-26 09:00:00","39150","3.915","316.0","7.252","324.8","NAN","NAN","NAN","NAN","NAN"],
    [1538161,"2026-01-26 09:10:00","39151","3.446","314.8","6.076","318.2","NAN","NAN","NAN","NAN","NAN"],
    [1538162,"2026-01-26 09:20:00","39152","4.993","314.7","8.72","303.3","NAN","NAN","NAN","NAN","NAN"],
    [1538163,"2026-01-26 09:30:00","39153","5.591","309.6","8.79","311.2","NAN","NAN","NAN","NAN","NAN"],
    [1538164,"2026-01-26 09:40:00","39154","4.996","310.0","8.72","318.5","NAN","NAN","NAN","NAN","NAN"],
    [1538165,"2026-01-26 09:50:00","39155","5.901","309.0","10.16","304.4","NAN","NAN","NAN","NAN","NAN"],
    [1538166,"2026-01-26 10:00:00","39156","6.077999999999999","312.3","11.56","329.6","NAN","NAN","NAN","NAN","NAN"],
    [1538167,"2026-01-26 10:10:00","39157","6.468999999999999","311.0","13.03","310.8","NAN","NAN","NAN","NAN","NAN"],
    [1538168,"2026-01-26 10:20:00","39158","6.231","311.2","11.76","313.9","NAN","NAN","NAN","NAN","NAN"],
    [1538169,"2026-01-26 10:30:00","39159","5.957999999999999","315.7","11.2","311.1","NAN","NAN","NAN","NAN","NAN"],
    [1538170,"2026-01-26 10:40:00","39160","6.04","306.2","9.77","317","NAN","NAN","NAN","NAN","NAN"],
    [1538171,"2026-01-26 10:50:00","39161","5.452000000000001","309.8","9.73","303.9","NAN","NAN","NAN","NAN","NAN"],
    [1538172,"2026-01-26 11:00:00","39162","5.615","313.3","9.87","297.2","NAN","NAN","NAN","NAN","NAN"],
    [1538173,"2026-01-26 11:10:00","39163","5.99","312.5","10.45","285.9","NAN","NAN","NAN","NAN","NAN"],
    [1538174,"2026-01-26 11:20:00","39164","7.039","307.9","12.41","318.6","NAN","NAN","NAN","NAN","NAN"],
    [1538175,"2026-01-26 11:30:00","39165","6.494","309.1","10.65","305.8","NAN","NAN","NAN","NAN","NAN"],
    [1538176,"2026-01-26 11:40:00","39166","6.882000000000001","307.0","12.84","315.3","NAN","NAN","NAN","NAN","NAN"],
    [1538177,"2026-01-26 11:50:00","39167","7.0089999999999995","305.7","12.15","303.4","NAN","NAN","NAN","NAN","NAN"],
    [1538178,"2026-01-26 12:00:00","39168","6.2379999999999995","306.6","10.68","300.9","NAN","NAN","NAN","NAN","NAN"],
    [1538179,"2026-01-26 12:10:00","39169","7.109","311.9","12.38","304.4","NAN","NAN","NAN","NAN","NAN"],
    [1538180,"2026-01-26 12:20:00","39170","6.155","302.5","10.75","296.6","NAN","NAN","NAN","NAN","NAN"],
    [1538181,"2026-01-26 12:30:00","39171","5.871","298.5","10.78","298.2","NAN","NAN","NAN","NAN","NAN"],
    [1538182,"2026-01-26 12:40:00","39172","5.732","294.0","10.19","300.6","NAN","NAN","NAN","NAN","NAN"],
    [1538183,"2026-01-26 12:50:00","39173","5.787999999999999","289.0","9.8","299.9","NAN","NAN","NAN","NAN","NAN"],
    [1538184,"2026-01-26 13:00:00","39174","5.185","291.4","9.05","300.7","NAN","NAN","NAN","NAN","NAN"],
    [1538185,"2026-01-26 13:10:00","39175","4.783","279.4","8.46","267.5","NAN","NAN","NAN","NAN","NAN"],
    [1538186,"2026-01-26 13:20:00","39176","5.1370000000000005","284.1","9.08","267.8","NAN","NAN","NAN","NAN","NAN"],
    [1538187,"2026-01-26 13:30:00","39177","6.145","287.1","9.67","289","NAN","NAN","NAN","NAN","NAN"],
    [1538188,"2026-01-26 13:40:00","39178","5.734","281.2","9.41","270.9","NAN","NAN","NAN","NAN","NAN"],
    [1538189,"2026-01-26 13:50:00","39179","6.516","283.5","9.9","271.8","NAN","NAN","NAN","NAN","NAN"],
    [1538190,"2026-01-26 14:00:00","39180","6.26","292.9","10.29","308.2","NAN","NAN","NAN","NAN","NAN"],
    [1538191,"2026-01-26 14:10:00","39181","6.646","300.8","10.03","294.5","NAN","NAN","NAN","NAN","NAN"],
    [1538192,"2026-01-26 14:20:00","39182","6.979","305.0","9.96","298.9","NAN","NAN","NAN","NAN","NAN"],
    [1538193,"2026-01-26 14:30:00","39183","6.528","301.4","11.01","296.8","NAN","NAN","NAN","NAN","NAN"],
    [1538194,"2026-01-26 14:40:00","39184","5.165","293.1","8.72","298","NAN","NAN","NAN","NAN","NAN"],
    [1538195,"2026-01-26 14:50:00","39185","5.305","294.7","9.02","278.4","NAN","NAN","NAN","NAN","NAN"],
    [1538196,"2026-01-26 15:00:00","39186","5.5120000000000005","298.2","8.89","300.3","NAN","NAN","NAN","NAN","NAN"],
    [1538197,"2026-01-26 15:10:00","39187","4.3469999999999995","281.9","7.971","288.7","NAN","NAN","NAN","NAN","NAN"],
    [1538198,"2026-01-26 15:20:00","39188","4.561","295.5","8.36","268.1","NAN","NAN","NAN","NAN","NAN"],
    [1538199,"2026-01-26 15:30:00","39189","5.7170000000000005","287.3","9.11","290.2","NAN","NAN","NAN","NAN","NAN"],
    [1538200,"2026-01-26 15:40:00","39190","4.0969999999999995","281.4","8.36","285.7","NAN","NAN","NAN","NAN","NAN"],
    [1538201,"2026-01-26 15:50:00","39191","3.4810000000000003","282.3","5.847","275.2","NAN","NAN","NAN","NAN","NAN"],
    [1538202,"2026-01-26 16:00:00","39192","3.451","280.2","6.599","285.2","NAN","NAN","NAN","NAN","NAN"],
    [1538203,"2026-01-26 16:10:00","39193","2.605","267.4","5.651","257.5","NAN","NAN","NAN","NAN","NAN"],
    [1538204,"2026-01-26 16:20:00","39194","2.753","280.0","4.9","289.9","NAN","NAN","NAN","NAN","NAN"],
    [1538205,"2026-01-26 16:30:00","39195","2.354","263.7","4.639","266.8","NAN","NAN","NAN","NAN","NAN"],
    [1538206,"2026-01-26 16:40:00","39196","2.615","250.6","4.573","272.2","NAN","NAN","NAN","NAN","NAN"],
    [1538207,"2026-01-26 16:50:00","39197","2.718","297.0","6.043","297.7","NAN","NAN","NAN","NAN","NAN"],
    [1538208,"2026-01-26 17:00:00","39198","2.279","285.2","4.214","304.1","NAN","NAN","NAN","NAN","NAN"],
    [1538209,"2026-01-26 17:10:00","39199","2.367","290.5","4.345","294","NAN","NAN","NAN","NAN","NAN"],
    [1538210,"2026-01-26 17:20:00","39200","1.733","298.1","3.593","303.6","NAN","NAN","NAN","NAN","NAN"],
    [1538211,"2026-01-26 17:30:00","39201","1.515","285.5","2.613","283.6","NAN","NAN","NAN","NAN","NAN"],
    [1538212,"2026-01-26 17:40:00","39202","2.186","278.1","3.267","282.1","NAN","NAN","NAN","NAN","NAN"],
    [1538213,"2026-01-26 17:50:00","39203","1.464","270.0","2.613","277.2","NAN","NAN","NAN","NAN","NAN"],
    [1538214,"2026-01-26 18:00:00","39204","1.278","252.7","3.397","252.8","NAN","NAN","NAN","NAN","NAN"],
    [1538215,"2026-01-26 18:10:00","39205","1.932","246.6","3.299","244.8","NAN","NAN","NAN","NAN","NAN"],
    [1538216,"2026-01-26 18:20:00","39206","1.489","247.2","3.299","249","NAN","NAN","NAN","NAN","NAN"],
    [1538217,"2026-01-26 18:30:00","39207","1.712","251.1","4.018","269.7","NAN","NAN","NAN","NAN","NAN"],
    [1538218,"2026-01-26 18:40:00","39208","2.351","261.2","3.691","263","NAN","NAN","NAN","NAN","NAN"],
    [1538219,"2026-01-26 18:50:00","39209","1.49","252.4","3.332","251","NAN","NAN","NAN","NAN","NAN"],
    [1538220,"2026-01-26 19:00:00","39210","0.261","250.1","1.307","250.3","NAN","NAN","NAN","NAN","NAN"],
    [1538221,"2026-01-26 19:10:00","39211","0.878","251.9","2.091","255.8","NAN","NAN","NAN","NAN","NAN"],
    [1538222,"2026-01-26 19:20:00","39212","1.8780000000000001","252.2","2.875","250.1","NAN","NAN","NAN","NAN","NAN"],
    [1538223,"2026-01-26 19:30:00","39213","1.4769999999999999","252.7","2.679","246.4","NAN","NAN","NAN","NAN","NAN"],
    [1538224,"2026-01-26 19:40:00","39214","2.169","276.5","3.659","290.9","NAN","NAN","NAN","NAN","NAN"],
    [1538225,"2026-01-26 19:50:00","39215","2.224","274.9","3.495","275.6","NAN","NAN","NAN","NAN","NAN"],
    [1538226,"2026-01-26 20:00:00","39216","1.851","268.7","4.018","283.3","NAN","NAN","NAN","NAN","NAN"],
    [1538227,"2026-01-26 20:10:00","39217","0.745","265.4","2.287","265.5","NAN","NAN","NAN","NAN","NAN"],
    [1538228,"2026-01-26 20:20:00","39218","0.38299999999999995","262.0","1.633","261.6","NAN","NAN","NAN","NAN","NAN"],
    [1538229,"2026-01-26 20:30:00","39219","0.818","256.7","2.777","254.7","NAN","NAN","NAN","NAN","NAN"],
    [1538230,"2026-01-26 20:40:00","39220","1.6440000000000001","241.6","2.842","229.7","NAN","NAN","NAN","NAN","NAN"],
    [1538231,"2026-01-26 20:50:00","39221","1.835","244.0","3.528","239","NAN","NAN","NAN","NAN","NAN"],
    [1538232,"2026-01-26 21:00:00","39222","1.2770000000000001","229.8","3.005","228.5","NAN","NAN","NAN","NAN","NAN"],
    [1538233,"2026-01-26 21:10:00","39223","1.314","237.2","3.071","238.2","NAN","NAN","NAN","NAN","NAN"],
    [1538234,"2026-01-26 21:20:00","39224","0.9670000000000001","243.7","2.907","246.7","NAN","NAN","NAN","NAN","NAN"],
    [1538235,"2026-01-26 21:30:00","39225","1.3319999999999999","233.9","3.038","233.1","NAN","NAN","NAN","NAN","NAN"],
    [1538236,"2026-01-26 21:40:00","39226","2.251","245.4","3.561","247.4","NAN","NAN","NAN","NAN","NAN"],
    [1538237,"2026-01-26 21:50:00","39227","2.041","248.1","2.94","247.3","NAN","NAN","NAN","NAN","NAN"],
    [1538238,"2026-01-26 22:00:00","39228","1.262","250.6","2.646","250.5","NAN","NAN","NAN","NAN","NAN"],
    [1538239,"2026-01-26 22:10:00","39229","1.043","251.1","1.895","250.4","NAN","NAN","NAN","NAN","NAN"],
    [1538240,"2026-01-26 22:20:00","39230","1.386","248.8","2.319","251.8","NAN","NAN","NAN","NAN","NAN"],
    [1538241,"2026-01-26 22:30:00","39231","1.476","252.7","2.287","252.9","NAN","NAN","NAN","NAN","NAN"],
    [1538242,"2026-01-26 22:40:00","39232","1.726","253.4","2.679","253.8","NAN","NAN","NAN","NAN","NAN"],
    [1538243,"2026-01-26 22:50:00","39233","1.328","254.3","2.417","254.3","NAN","NAN","NAN","NAN","NAN"],
    [1538244,"2026-01-26 23:00:00","39234","0.6890000000000001","254.6","1.797","254.5","NAN","NAN","NAN","NAN","NAN"],
    [1538245,"2026-01-26 23:10:00","39235","0.5429999999999999","254.6","1.274","254.6","NAN","NAN","NAN","NAN","NAN"],
    [1538246,"2026-01-26 23:20:00","39236","1.3869999999999998","254.7","2.091","255.1","NAN","NAN","NAN","NAN","NAN"],
    [1538247,"2026-01-26 23:30:00","39237","0.307","255.1","1.568","255.1","NAN","NAN","NAN","NAN","NAN"],
    [1538248,"2026-01-26 23:40:00","39238","0.02","255.1","0.686","255.1","NAN","NAN","NAN","NAN","NAN"],
    [1538249,"2026-01-26 23:50:00","39239","0.084","255.1","0.719","255.1","NAN","NAN","NAN","NAN","NAN"],
    [1538250,"2026-01-27 00:00:00","39240","0.397","255.2","1.045","255.2","NAN","NAN","NAN","NAN","NAN"],
    [1538251,"2026-01-27 00:10:00","39241","0.5379999999999999","255.2","1.209","255.2","NAN","NAN","NAN","NAN","NAN"],
    [1538252,"2026-01-27 00:20:00","39242","0.823","255.2","1.503","255.2","NAN","NAN","NAN","NAN","NAN"],
    [1538253,"2026-01-27 00:30:00","39243","0.904","255.3","1.699","255.3","NAN","NAN","NAN","NAN","NAN"],
    [1538254,"2026-01-27 00:40:00","39244","0.6659999999999999","255.5","1.731","255.5","NAN","NAN","NAN","NAN","NAN"],
    [1538255,"2026-01-27 00:50:00","39245","0.406","255.5","1.176","255.5","NAN","NAN","NAN","NAN","NAN"],
    [1538256,"2026-01-27 01:00:00","39246","0.797","255.7","1.862","256.5","NAN","NAN","NAN","NAN","NAN"],
    [1538257,"2026-01-27 01:10:00","39247","1.064","256.9","1.927","256.8","NAN","NAN","NAN","NAN","NAN"],
    [1538258,"2026-01-27 01:20:00","39248","0.7809999999999999","257.3","1.633","257.3","NAN","NAN","NAN","NAN","NAN"],
    [1538259,"2026-01-27 01:30:00","39249","0.9159999999999999","257.3","2.058","257.2","NAN","NAN","NAN","NAN","NAN"],
    [1538260,"2026-01-27 01:40:00","39250","0.153","257.3","1.111","257.2","NAN","NAN","NAN","NAN","NAN"],
    [1538261,"2026-01-27 01:50:00","39251","0.233","257.3","0.915","257.3","NAN","NAN","NAN","NAN","NAN"],
    [1538262,"2026-01-27 02:00:00","39252","0.465","257.3","1.045","257.3","NAN","NAN","NAN","NAN","NAN"],
    [1538263,"2026-01-27 02:10:00","39253","0.146","257.3","1.013","257.3","NAN","NAN","NAN","NAN","NAN"],
    [1538264,"2026-01-27 02:20:00","39254","0.84","257.4","1.535","257.4","NAN","NAN","NAN","NAN","NAN"],
    [1538265,"2026-01-27 02:30:00","39255","0.34299999999999997","257.4","0.947","257.4","NAN","NAN","NAN","NAN","NAN"],
    [1538266,"2026-01-27 02:40:00","39256","0.0","0.0","0","0","NAN","NAN","NAN","NAN","NAN"],
    [1538267,"2026-01-27 02:50:00","39257","0.0","0.0","0","0","NAN","NAN","NAN","NAN","NAN"],
    [1538268,"2026-01-27 03:00:00","39258","0.0","0.0","0","0","NAN","NAN","NAN","NAN","NAN"],
    [1538269,"2026-01-27 03:10:00","39259","0.505","229.9","1.437","229.2","NAN","NAN","NAN","NAN","NAN"],
    [1538270,"2026-01-27 03:20:00","39260","1.334","229.8","2.058","229.2","NAN","NAN","NAN","NAN","NAN"],
    [1538271,"2026-01-27 03:30:00","39261","0.511","232.8","1.601","229.2","NAN","NAN","NAN","NAN","NAN"],
    [1538272,"2026-01-27 03:40:00","39262","1.133","238.1","1.666","239.2","NAN","NAN","NAN","NAN","NAN"],
    [1538273,"2026-01-27 03:50:00","39263","1.357","239.3","2.287","239.8","NAN","NAN","NAN","NAN","NAN"],
    [1538274,"2026-01-27 04:00:00","39264","1.25","242.6","2.058","244.5","NAN","NAN","NAN","NAN","NAN"],
    [1538275,"2026-01-27 04:10:00","39265","1.07","245.9","1.993","245.4","NAN","NAN","NAN","NAN","NAN"],
    [1538276,"2026-01-27 04:20:00","39266","0.963","241.0","1.96","245","NAN","NAN","NAN","NAN","NAN"],
    [1538277,"2026-01-27 04:30:00","39267","1.396","241.9","2.483","235.8","NAN","NAN","NAN","NAN","NAN"],
    [1538278,"2026-01-27 04:40:00","39268","0.912","245.8","2.091","243.2","NAN","NAN","NAN","NAN","NAN"],
    [1538279,"2026-01-27 04:50:00","39269","0.478","250.1","1.666","250.1","NAN","NAN","NAN","NAN","NAN"],
    [1538280,"2026-01-27 05:00:00","39270","1.5830000000000002","251.9","2.45","252.3","NAN","NAN","NAN","NAN","NAN"],
    [1538281,"2026-01-27 05:10:00","39271","1.7080000000000002","254.1","2.875","253.6","NAN","NAN","NAN","NAN","NAN"],
    [1538282,"2026-01-27 05:20:00","39272","1.6840000000000002","258.3","2.548","258.1","NAN","NAN","NAN","NAN","NAN"],
    [1538283,"2026-01-27 05:30:00","39273","1.768","257.4","3.103","255.3","NAN","NAN","NAN","NAN","NAN"],
    [1538284,"2026-01-27 05:40:00","39274","1.0190000000000001","250.0","2.483","251.9","NAN","NAN","NAN","NAN","NAN"],
    [1538285,"2026-01-27 05:50:00","39275","1.306","255.5","2.94","261.3","NAN","NAN","NAN","NAN","NAN"],
    [1538286,"2026-01-27 06:00:00","39276","1.601","258.8","2.777","261.5","NAN","NAN","NAN","NAN","NAN"],
    [1538287,"2026-01-27 06:10:00","39277","1.5630000000000002","249.3","2.973","253.7","NAN","NAN","NAN","NAN","NAN"],
    [1538288,"2026-01-27 06:20:00","39278","1.49","257.1","2.679","260.9","NAN","NAN","NAN","NAN","NAN"],
    [1538289,"2026-01-27 06:30:00","39279","1.301","261.6","2.385","261.5","NAN","NAN","NAN","NAN","NAN"],
    [1538290,"2026-01-27 06:40:00","39280","1.068","261.7","2.091","261.7","NAN","NAN","NAN","NAN","NAN"],
    [1538291,"2026-01-27 06:50:00","39281","0.778","259.7","1.633","257.5","NAN","NAN","NAN","NAN","NAN"],
    [1538292,"2026-01-27 07:00:00","39282","0.846","247.1","1.633","245.7","NAN","NAN","NAN","NAN","NAN"],
    [1538293,"2026-01-27 07:10:00","39283","0.415","261.7","1.535","261.6","NAN","NAN","NAN","NAN","NAN"],
    [1538294,"2026-01-27 07:20:00","39284","0.856","253.5","2.352","261.3","NAN","NAN","NAN","NAN","NAN"],
    [1538295,"2026-01-27 07:30:00","39285","1.801","261.9","2.548","262.1","NAN","NAN","NAN","NAN","NAN"],
    [1538296,"2026-01-27 07:40:00","39286","1.67","263.8","2.777","263","NAN","NAN","NAN","NAN","NAN"],
    [1538297,"2026-01-27 07:50:00","39287","1.163","264.4","2.221","264.4","NAN","NAN","NAN","NAN","NAN"],
    [1538298,"2026-01-27 08:00:00","39288","1.3619999999999999","264.9","2.581","265.8","NAN","NAN","NAN","NAN","NAN"],
    [1538299,"2026-01-27 08:10:00","39289","0.023","266.1","0.425","266.1","NAN","NAN","NAN","NAN","NAN"],
    [1538300,"2026-01-27 08:20:00","39290","0.6659999999999999","265.9","1.699","266.1","NAN","NAN","NAN","NAN","NAN"],
    [1538301,"2026-01-27 08:30:00","39291","0.29","265.8","1.078","265.9","NAN","NAN","NAN","NAN","NAN"],
    [1538302,"2026-01-27 08:40:00","39292","0.003","256.6","0.261","256.6","NAN","NAN","NAN","NAN","NAN"],
    [1538303,"2026-01-27 08:50:00","39293","1.262","263.2","2.058","266","NAN","NAN","NAN","NAN","NAN"],
    [1538304,"2026-01-27 09:00:00","39294","0.741","266.2","1.829","266.2","NAN","NAN","NAN","NAN","NAN"],
    [1538305,"2026-01-27 09:10:00","39295","0.002","266.4","0.261","266.4","NAN","NAN","NAN","NAN","NAN"],
    [1538306,"2026-01-27 09:20:00","39296","0.215","252.3","1.47","251.1","NAN","NAN","NAN","NAN","NAN"],
    [1538307,"2026-01-27 09:30:00","39297","0.6459999999999999","265.5","2.352","269.3","NAN","NAN","NAN","NAN","NAN"],
    [1538308,"2026-01-27 09:40:00","39298","1.351","272.3","2.45","273.2","NAN","NAN","NAN","NAN","NAN"],
    [1538309,"2026-01-27 09:50:00","39299","0.705","267.0","2.679","273.1","NAN","NAN","NAN","NAN","NAN"],
    [1538310,"2026-01-27 10:00:00","39300","0.7759999999999999","272.0","2.221","273.7","NAN","NAN","NAN","NAN","NAN"],
    [1538311,"2026-01-27 10:10:00","39301","0.532","271.6","1.699","273.6","NAN","NAN","NAN","NAN","NAN"],
    [1538312,"2026-01-27 10:20:00","39302","0.977","265.7","2.221","269.2","NAN","NAN","NAN","NAN","NAN"],
    [1538313,"2026-01-27 10:30:00","39303","1.236","271.1","2.352","270.7","NAN","NAN","NAN","NAN","NAN"],
    [1538314,"2026-01-27 10:40:00","39304","0.647","274.5","1.601","266.4","NAN","NAN","NAN","NAN","NAN"],
    [1538315,"2026-01-27 10:50:00","39305","0.682","260.6","2.058","259.7","NAN","NAN","NAN","NAN","NAN"],
    [1538316,"2026-01-27 11:00:00","39306","1.415","265.1","2.94","259.6","NAN","NAN","NAN","NAN","NAN"],
    [1538317,"2026-01-27 11:10:00","39307","2.237","269.4","3.299","276.6","NAN","NAN","NAN","NAN","NAN"],
    [1538318,"2026-01-27 11:20:00","39308","1.693","269.9","3.005","271","NAN","NAN","NAN","NAN","NAN"],
    [1538319,"2026-01-27 11:30:00","39309","1.4280000000000002","266.5","2.352","265.2","NAN","NAN","NAN","NAN","NAN"],
    [1538320,"2026-01-27 11:40:00","39310","1.092","267.1","2.025","266.9","NAN","NAN","NAN","NAN","NAN"],
    [1538321,"2026-01-27 11:50:00","39311","0.53","261.6","1.568","271","NAN","NAN","NAN","NAN","NAN"],
    [1538322,"2026-01-27 12:00:00","39312","1.17","263.7","2.123","274.5","NAN","NAN","NAN","NAN","NAN"],
    [1538323,"2026-01-27 12:10:00","39313","1.182","262.3","2.515","264.1","NAN","NAN","NAN","NAN","NAN"],
    [1538324,"2026-01-27 12:20:00","39314","1.1079999999999999","255.4","2.613","255.9","NAN","NAN","NAN","NAN","NAN"],
    [1538325,"2026-01-27 12:30:00","39315","1.307","255.1","3.038","253","NAN","NAN","NAN","NAN","NAN"],
    [1538326,"2026-01-27 12:40:00","39316","3.178","246.1","6.762","255.4","NAN","NAN","NAN","NAN","NAN"],
    [1538327,"2026-01-27 12:50:00","39317","4.686","245.4","8.13","233","NAN","NAN","NAN","NAN","NAN"],
    [1538328,"2026-01-27 13:00:00","39318","3.69","246.7","6.958","262.4","NAN","NAN","NAN","NAN","NAN"],
    [1538329,"2026-01-27 13:10:00","39319","4.138999999999999","248.6","8.2","253.3","NAN","NAN","NAN","NAN","NAN"],
    [1538330,"2026-01-27 13:20:00","39320","5.422999999999999","248.2","8.85","258.5","NAN","NAN","NAN","NAN","NAN"],
    [1538331,"2026-01-27 13:30:00","39321","4.627","244.2","7.742","247.4","NAN","NAN","NAN","NAN","NAN"],
    [1538332,"2026-01-27 13:40:00","39322","3.967","248.1","5.978","254.6","NAN","NAN","NAN","NAN","NAN"],
    [1538333,"2026-01-27 13:50:00","39323","4.397","247.9","7.317","258","NAN","NAN","NAN","NAN","NAN"],
    [1538334,"2026-01-27 14:00:00","39324","4.109","244.3","7.677","253.4","NAN","NAN","NAN","NAN","NAN"],
    [1538335,"2026-01-27 14:10:00","39325","4.838","243.9","8.36","233.4","NAN","NAN","NAN","NAN","NAN"],
    [1538336,"2026-01-27 14:20:00","39326","4.041","240.1","7.709","245.8","NAN","NAN","NAN","NAN","NAN"],
    [1538337,"2026-01-27 14:30:00","39327","3.222","239.5","5.357","248.2","NAN","NAN","NAN","NAN","NAN"],
    [1538338,"2026-01-27 14:40:00","39328","3.43","243.7","6.174","247.3","NAN","NAN","NAN","NAN","NAN"],
    [1538339,"2026-01-27 14:50:00","39329","3.7089999999999996","248.4","6.403","253.6","NAN","NAN","NAN","NAN","NAN"],
    [1538340,"2026-01-27 15:00:00","39330","3.65","245.6","5.651","256.5","NAN","NAN","NAN","NAN","NAN"],
    [1538341,"2026-01-27 15:10:00","39331","3.2680000000000002","236.4","6.925","239.9","NAN","NAN","NAN","NAN","NAN"],
    [1538342,"2026-01-27 15:20:00","39332","2.779","237.4","4.998","240.4","NAN","NAN","NAN","NAN","NAN"],
    [1538343,"2026-01-27 15:30:00","39333","2.6039999999999996","242.1","4.606","241.7","NAN","NAN","NAN","NAN","NAN"],
    [1538344,"2026-01-27 15:40:00","39334","1.242","221.5","3.855","219.7","NAN","NAN","NAN","NAN","NAN"],
    [1538345,"2026-01-27 15:50:00","39335","1.995","232.6","5.782","247.1","NAN","NAN","NAN","NAN","NAN"],
    [1538346,"2026-01-27 16:00:00","39336","2.7680000000000002","247.2","4.769","239.1","NAN","NAN","NAN","NAN","NAN"],
    [1538347,"2026-01-27 16:10:00","39337","2.134","237.7","4.018","239.4","NAN","NAN","NAN","NAN","NAN"],
    [1538348,"2026-01-27 16:20:00","39338","1.6219999999999999","236.2","3.593","237.8","NAN","NAN","NAN","NAN","NAN"],
    [1538349,"2026-01-27 16:30:00","39339","1.296","248.5","2.809","250.7","NAN","NAN","NAN","NAN","NAN"],
    [1538350,"2026-01-27 16:40:00","39340","1.294","251.8","2.417","252","NAN","NAN","NAN","NAN","NAN"],
    [1538351,"2026-01-27 16:50:00","39341","0.321","250.5","1.47","249.7","NAN","NAN","NAN","NAN","NAN"],
    [1538352,"2026-01-27 17:00:00","39342","1.21","248.4","3.561","253.1","NAN","NAN","NAN","NAN","NAN"],
    [1538353,"2026-01-27 17:10:00","39343","1.719","198.8","3.201","210.5","NAN","NAN","NAN","NAN","NAN"],
    [1538354,"2026-01-27 17:20:00","39344","1.7309999999999999","205.2","3.103","198.8","NAN","NAN","NAN","NAN","NAN"],
    [1538355,"2026-01-27 17:30:00","39345","1.415","214.4","2.94","214.6","NAN","NAN","NAN","NAN","NAN"],
    [1538356,"2026-01-27 17:40:00","39346","1.8259999999999998","215.9","3.659","221.9","NAN","NAN","NAN","NAN","NAN"],
    [1538357,"2026-01-27 17:50:00","39347","2.2159999999999997","237.0","4.606","250.6","NAN","NAN","NAN","NAN","NAN"],
    [1538358,"2026-01-27 18:00:00","39348","2.483","245.9","5.325","258.6","NAN","NAN","NAN","NAN","NAN"],
    [1538359,"2026-01-27 18:10:00","39349","2.647","244.8","4.051","248","NAN","NAN","NAN","NAN","NAN"],
    [1538360,"2026-01-27 18:20:00","39350","3.318","241.3","7.056","230.9","NAN","NAN","NAN","NAN","NAN"],
    [1538361,"2026-01-27 18:30:00","39351","3.853","224.3","6.795","215.4","NAN","NAN","NAN","NAN","NAN"],
    [1538362,"2026-01-27 18:40:00","39352","3.8280000000000003","248.2","6.729","238.5","NAN","NAN","NAN","NAN","NAN"],
    [1538363,"2026-01-27 18:50:00","39353","3.117","244.5","5.031","253.6","NAN","NAN","NAN","NAN","NAN"],
    [1538364,"2026-01-27 19:00:00","39354","2.08","239.2","4.443","236.4","NAN","NAN","NAN","NAN","NAN"],
    [1538365,"2026-01-27 19:10:00","39355","1.6740000000000002","226.0","3.103","238.2","NAN","NAN","NAN","NAN","NAN"],
    [1538366,"2026-01-27 19:20:00","39356","1.704","225.1","3.201","222.4","NAN","NAN","NAN","NAN","NAN"],
    [1538367,"2026-01-27 19:30:00","39357","1.2690000000000001","236.9","2.45","233.2","NAN","NAN","NAN","NAN","NAN"],
    [1538368,"2026-01-27 19:40:00","39358","0.5870000000000001","242.1","1.96","241.8","NAN","NAN","NAN","NAN","NAN"],
    [1538369,"2026-01-27 19:50:00","39359","0.6829999999999999","242.4","1.568","242.4","NAN","NAN","NAN","NAN","NAN"],
    [1538370,"2026-01-27 20:00:00","39360","0.474","242.3","1.96","242.7","NAN","NAN","NAN","NAN","NAN"],
    [1538371,"2026-01-27 20:10:00","39361","1.268","230.2","2.515","225.3","NAN","NAN","NAN","NAN","NAN"],
    [1538372,"2026-01-27 20:20:00","39362","1.508","238.0","2.711","242.4","NAN","NAN","NAN","NAN","NAN"],
    [1538373,"2026-01-27 20:30:00","39363","1.9240000000000002","231.4","2.875","221.9","NAN","NAN","NAN","NAN","NAN"],
    [1538374,"2026-01-27 20:40:00","39364","2.432","268.3","4.443","292","NAN","NAN","NAN","NAN","NAN"],
    [1538375,"2026-01-27 20:50:00","39365","1.633","280.7","3.822","281.2","NAN","NAN","NAN","NAN","NAN"],
    [1538376,"2026-01-27 21:00:00","39366","1.199","264.9","2.744","265.4","NAN","NAN","NAN","NAN","NAN"],
    [1538377,"2026-01-27 21:10:00","39367","2.322","252.2","4.443","246","NAN","NAN","NAN","NAN","NAN"],
    [1538378,"2026-01-27 21:20:00","39368","2.209","264.3","3.561","267.4","NAN","NAN","NAN","NAN","NAN"],
    [1538379,"2026-01-27 21:30:00","39369","1.999","279.0","3.365","275.9","NAN","NAN","NAN","NAN","NAN"],
    [1538380,"2026-01-27 21:40:00","39370","1.645","279.5","2.94","276","NAN","NAN","NAN","NAN","NAN"],
    [1538381,"2026-01-27 21:50:00","39371","1.063","281.5","2.189","281.7","NAN","NAN","NAN","NAN","NAN"],
    [1538382,"2026-01-27 22:00:00","39372","1.946","297.6","4.508","304.4","NAN","NAN","NAN","NAN","NAN"],
    [1538383,"2026-01-27 22:10:00","39373","2.825","317.3","7.775","322.1","NAN","NAN","NAN","NAN","NAN"],
    [1538384,"2026-01-27 22:20:00","39374","4.816","302.3","9.21","314.9","NAN","NAN","NAN","NAN","NAN"],
    [1538385,"2026-01-27 22:30:00","39375","4.692","279.8","8.62","291.8","NAN","NAN","NAN","NAN","NAN"],
    [1538386,"2026-01-27 22:40:00","39376","4.507","267.1","8.36","273.5","NAN","NAN","NAN","NAN","NAN"],
    [1538387,"2026-01-27 22:50:00","39377","3.468","267.8","5.815","272.3","NAN","NAN","NAN","NAN","NAN"],
    [1538388,"2026-01-27 23:00:00","39378","4.168","273.3","6.501","282.5","NAN","NAN","NAN","NAN","NAN"],
    [1538389,"2026-01-27 23:10:00","39379","4.406000000000001","272.5","8.17","289.1","NAN","NAN","NAN","NAN","NAN"],
    [1538390,"2026-01-27 23:20:00","39380","3.412","252.2","6.109","255.6","NAN","NAN","NAN","NAN","NAN"],
    [1538391,"2026-01-27 23:30:00","39381","3.792","247.8","5.553","252.7","NAN","NAN","NAN","NAN","NAN"],
    [1538392,"2026-01-27 23:40:00","39382","4.223","247.2","6.958","248.4","NAN","NAN","NAN","NAN","NAN"],
    [1538393,"2026-01-27 23:50:00","39383","4.566","247.4","7.317","239.7","NAN","NAN","NAN","NAN","NAN"],
    [1538394,"2026-01-28 00:00:00","39384","4.638","245.9","8.2","240.3","NAN","NAN","NAN","NAN","NAN"],
    [1538395,"2026-01-28 00:10:00","39385","4.645","246.3","7.481","259.1","NAN","NAN","NAN","NAN","NAN"],
    [1538396,"2026-01-28 00:20:00","39386","4.827","251.0","7.056","247.1","NAN","NAN","NAN","NAN","NAN"],
    [1538397,"2026-01-28 00:30:00","39387","5.126","247.7","7.611","237.8","NAN","NAN","NAN","NAN","NAN"],
    [1538398,"2026-01-28 00:40:00","39388","4.931","246.7","7.546","242.1","NAN","NAN","NAN","NAN","NAN"],
    [1538399,"2026-01-28 00:50:00","39389","4.72","245.1","8.49","254.1","NAN","NAN","NAN","NAN","NAN"],
    [1538400,"2026-01-28 01:00:00","39390","4.587","245.5","8.1","246.1","NAN","NAN","NAN","NAN","NAN"],
    [1538401,"2026-01-28 01:10:00","39391","5.882000000000001","251.1","8.43","261.1","NAN","NAN","NAN","NAN","NAN"],
    [1538402,"2026-01-28 01:20:00","39392","6.303","247.9","9.34","235.9","NAN","NAN","NAN","NAN","NAN"],
    [1538403,"2026-01-28 01:30:00","39393","5.167000000000001","244.1","8.92","248.5","NAN","NAN","NAN","NAN","NAN"],
    [1538404,"2026-01-28 01:40:00","39394","4.928","238.3","8.69","235.2","NAN","NAN","NAN","NAN","NAN"],
    [1538405,"2026-01-28 01:50:00","39395","4.034","245.6","7.056","257.7","NAN","NAN","NAN","NAN","NAN"],
    [1538406,"2026-01-28 02:00:00","39396","4.465","247.6","7.611","251.3","NAN","NAN","NAN","NAN","NAN"],
    [1538407,"2026-01-28 02:10:00","39397","3.9960000000000004","234.7","6.827","250.6","NAN","NAN","NAN","NAN","NAN"],
    [1538408,"2026-01-28 02:20:00","39398","4.087","246.3","6.631","246.9","NAN","NAN","NAN","NAN","NAN"],
    [1538409,"2026-01-28 02:30:00","39399","2.93","260.8","5.292","275.6","NAN","NAN","NAN","NAN","NAN"],
    [1538410,"2026-01-28 02:40:00","39400","3.855","271.0","8.1","290.1","NAN","NAN","NAN","NAN","NAN"],
    [1538411,"2026-01-28 02:50:00","39401","4.775","261.2","8.1","290.1","NAN","NAN","NAN","NAN","NAN"],
    [1538412,"2026-01-28 03:00:00","39402","4.106","252.1","7.807","247.7","NAN","NAN","NAN","NAN","NAN"],
    [1538413,"2026-01-28 03:10:00","39403","3.803","250.0","6.958","243.8","NAN","NAN","NAN","NAN","NAN"],
    [1538414,"2026-01-28 03:20:00","39404","3.299","250.7","5.455","262.3","NAN","NAN","NAN","NAN","NAN"],
    [1538415,"2026-01-28 03:30:00","39405","3.719","255.2","6.795","248.6","NAN","NAN","NAN","NAN","NAN"],
    [1538416,"2026-01-28 03:40:00","39406","3.5439999999999996","264.0","6.141","282.1","NAN","NAN","NAN","NAN","NAN"],
    [1538417,"2026-01-28 03:50:00","39407","2.9219999999999997","261.6","5.488","266.7","NAN","NAN","NAN","NAN","NAN"],
    [1538418,"2026-01-28 04:00:00","39408","3.4930000000000003","252.0","5.553","249.2","NAN","NAN","NAN","NAN","NAN"],
    [1538419,"2026-01-28 04:10:00","39409","3.5639999999999996","253.8","6.109","245.5","NAN","NAN","NAN","NAN","NAN"],
    [1538420,"2026-01-28 04:20:00","39410","2.832","261.2","6.043","254.8","NAN","NAN","NAN","NAN","NAN"],
    [1538421,"2026-01-28 04:30:00","39411","3.438","258.8","5.913","268.9","NAN","NAN","NAN","NAN","NAN"],
    [1538422,"2026-01-28 04:40:00","39412","4.513999999999999","240.0","8.98","261.8","NAN","NAN","NAN","NAN","NAN"],
    [1538423,"2026-01-28 04:50:00","39413","5.397","249.9","9.24","258.3","NAN","NAN","NAN","NAN","NAN"],
    [1538424,"2026-01-28 05:00:00","39414","4.805","256.1","7.971","255.9","NAN","NAN","NAN","NAN","NAN"],
    [1538425,"2026-01-28 05:10:00","39415","4.454","249.6","7.089","232.5","NAN","NAN","NAN","NAN","NAN"],
    [1538426,"2026-01-28 05:20:00","39416","3.4610000000000003","239.7","6.076","216.6","NAN","NAN","NAN","NAN","NAN"],
    [1538427,"2026-01-28 05:30:00","39417","3.573","240.3","7.121","240.6","NAN","NAN","NAN","NAN","NAN"],
    [1538428,"2026-01-28 05:40:00","39418","4.158","227.2","7.546","223.2","NAN","NAN","NAN","NAN","NAN"],
    [1538429,"2026-01-28 05:50:00","39419","3.858","236.9","7.154","233.9","NAN","NAN","NAN","NAN","NAN"],
    [1538430,"2026-01-28 06:00:00","39420","4.561","248.0","6.762","252.3","NAN","NAN","NAN","NAN","NAN"],
    [1538431,"2026-01-28 06:10:00","39421","4.313","245.7","7.252","245.9","NAN","NAN","NAN","NAN","NAN"],
    [1538432,"2026-01-28 06:20:00","39422","3.58","250.2","5.913","257.8","NAN","NAN","NAN","NAN","NAN"],
    [1538433,"2026-01-28 06:30:00","39423","3.136","255.5","5.325","253.4","NAN","NAN","NAN","NAN","NAN"],
    [1538434,"2026-01-28 06:40:00","39424","2.56","273.5","3.887","277.1","NAN","NAN","NAN","NAN","NAN"],
    [1538435,"2026-01-28 06:50:00","39425","2.513","275.3","4.541","271.4","NAN","NAN","NAN","NAN","NAN"],
    [1538436,"2026-01-28 07:00:00","39426","1.538","284.6","4.377","273.5","NAN","NAN","NAN","NAN","NAN"],
    [1538437,"2026-01-28 07:10:00","39427","0.645","289.5","3.038","279.4","NAN","NAN","NAN","NAN","NAN"],
    [1538438,"2026-01-28 07:20:00","39428","0.183","286.5","2.091","283.7","NAN","NAN","NAN","NAN","NAN"],
    [1538439,"2026-01-28 07:30:00","39429","1.492","275.3","4.41","278.9","NAN","NAN","NAN","NAN","NAN"],
    [1538440,"2026-01-28 07:40:00","39430","3.298","290.8","5.129","300.6","NAN","NAN","NAN","NAN","NAN"],
    [1538441,"2026-01-28 07:50:00","39431","4.728","289.2","7.383","286.6","NAN","NAN","NAN","NAN","NAN"],
    [1538442,"2026-01-28 08:00:00","39432","3.859","278.7","7.873","295.3","NAN","NAN","NAN","NAN","NAN"],
    [1538443,"2026-01-28 08:10:00","39433","4.061","299.1","7.415","322.6","NAN","NAN","NAN","NAN","NAN"],
    [1538444,"2026-01-28 08:20:00","39434","2.524","274.5","5.586","315.1","NAN","NAN","NAN","NAN","NAN"],
    [1538445,"2026-01-28 08:30:00","39435","0.2","221.9","2.254","223.5","NAN","NAN","NAN","NAN","NAN"],
    [1538446,"2026-01-28 08:40:00","39436","0.09","221.6","1.111","221.6","NAN","NAN","NAN","NAN","NAN"],
    [1538447,"2026-01-28 08:50:00","39437","2.492","181.0","3.887","173.7","NAN","NAN","NAN","NAN","NAN"],
    [1538448,"2026-01-28 09:00:00","39438","1.261","233.5","2.744","184","NAN","NAN","NAN","NAN","NAN"],
    [1538449,"2026-01-28 09:10:00","39439","3.267","279.0","5.847","284.9","NAN","NAN","NAN","NAN","NAN"],
    [1538450,"2026-01-28 09:20:00","39440","2.459","279.7","5.88","266.5","NAN","NAN","NAN","NAN","NAN"],
    [1538451,"2026-01-28 09:30:00","39441","1.4769999999999999","285.9","3.887","274.6","NAN","NAN","NAN","NAN","NAN"],
    [1538452,"2026-01-28 09:40:00","39442","1.298","240.8","3.201","241.1","NAN","NAN","NAN","NAN","NAN"],
    [1538453,"2026-01-28 09:50:00","39443","1.544","241.3","3.397","223.7","NAN","NAN","NAN","NAN","NAN"],
    [1538454,"2026-01-28 10:00:00","39444","2.5340000000000003","225.4","5.031","221.1","NAN","NAN","NAN","NAN","NAN"],
    [1538455,"2026-01-28 10:10:00","39445","3.9419999999999997","250.5","7.448","252.8","NAN","NAN","NAN","NAN","NAN"],
    [1538456,"2026-01-28 10:20:00","39446","4.657","255.2","7.383","257.1","NAN","NAN","NAN","NAN","NAN"],
    [1538457,"2026-01-28 10:30:00","39447","3.805","244.4","6.239","245.2","NAN","NAN","NAN","NAN","NAN"],
    [1538458,"2026-01-28 10:40:00","39448","4.758","248.6","7.252","256.2","NAN","NAN","NAN","NAN","NAN"],
    [1538459,"2026-01-28 10:50:00","39449","3.168","262.5","5.357","245.7","NAN","NAN","NAN","NAN","NAN"],
    [1538460,"2026-01-28 11:00:00","39450","2.3209999999999997","254.1","4.116","253.8","NAN","NAN","NAN","NAN","NAN"],
    [1538461,"2026-01-28 11:10:00","39451","3.148","249.5","4.835","260.8","NAN","NAN","NAN","NAN","NAN"],
    [1538462,"2026-01-28 11:20:00","39452","1.0390000000000001","262.8","2.581","257.3","NAN","NAN","NAN","NAN","NAN"],
    [1538463,"2026-01-28 11:30:00","39453","8.66","291.0","5.586","294.9","NAN","NAN","NAN","NAN","NAN"],
    [1538464,"2026-01-28 11:40:00","39454","2.792","290.9","5.553","299.1","NAN","NAN","NAN","NAN","NAN"],
    [1538465,"2026-01-28 11:50:00","39455","2.245","292.6","4.345","286.8","NAN","NAN","NAN","NAN","NAN"],
    [1538466,"2026-01-28 12:00:00","39456","2.122","298.8","4.573","304.8","NAN","NAN","NAN","NAN","NAN"],
    [1538467,"2026-01-28 12:10:00","39457","1.804","290.7","3.724","286.4","NAN","NAN","NAN","NAN","NAN"],
    [1538468,"2026-01-28 12:20:00","39458","1.25","294.1","3.103","286.5","NAN","NAN","NAN","NAN","NAN"],
    [1538469,"2026-01-28 12:30:00","39459","1.526","295.3","3.038","294","NAN","NAN","NAN","NAN","NAN"],
    [1538470,"2026-01-28 12:40:00","39460","1.464","300.4","2.744","300.7","NAN","NAN","NAN","NAN","NAN"],
    [1538471,"2026-01-28 12:50:00","39461","2.097","294.8","3.985","291.5","NAN","NAN","NAN","NAN","NAN"],
    [1538472,"2026-01-28 13:00:00","39462","2.4730000000000003","274.1","4.998","284.2","NAN","NAN","NAN","NAN","NAN"],
    [1538473,"2026-01-28 13:10:00","39463","2.373","268.5","3.757","257.6","NAN","NAN","NAN","NAN","NAN"],
    [1538474,"2026-01-28 13:20:00","39464","3.2889999999999997","269.3","5.913","265.2","NAN","NAN","NAN","NAN","NAN"],
    [1538475,"2026-01-28 13:30:00","39465","3.5780000000000003","261.9","5.978","249.2","NAN","NAN","NAN","NAN","NAN"],
    [1538476,"2026-01-28 13:40:00","39466","3.589","279.1","6.207","313.3","NAN","NAN","NAN","NAN","NAN"],
    [1538477,"2026-01-28 13:50:00","39467","2.8369999999999997","282.2","6.272","296.9","NAN","NAN","NAN","NAN","NAN"],
    [1538478,"2026-01-28 14:00:00","39468","2.5860000000000003","294.4","5.161","307.1","NAN","NAN","NAN","NAN","NAN"],
    [1538479,"2026-01-28 14:10:00","39469","3.54","298.6","6.011","314.5","NAN","NAN","NAN","NAN","NAN"],
    [1538480,"2026-01-28 14:20:00","39470","3.102","312.5","5.586","328.8","NAN","NAN","NAN","NAN","NAN"],
    [1538481,"2026-01-28 14:30:00","39471","3.9930000000000003","324.3","6.86","333.7","NAN","NAN","NAN","NAN","NAN"],
    [1538482,"2026-01-28 14:40:00","39472","2.84","308.3","5.913","328.3","NAN","NAN","NAN","NAN","NAN"],
    [1538483,"2026-01-28 14:50:00","39473","3.6039999999999996","310.1","6.697","328","NAN","NAN","NAN","NAN","NAN"],
    [1538484,"2026-01-28 15:00:00","39474","3.7310000000000003","319.3","6.566","329","NAN","NAN","NAN","NAN","NAN"],
    [1538485,"2026-01-28 15:10:00","39475","2.612","308.3","5.423","310.1","NAN","NAN","NAN","NAN","NAN"],
    [1538486,"2026-01-28 15:20:00","39476","2.9619999999999997","307.1","5.423","323.9","NAN","NAN","NAN","NAN","NAN"],
    [1538487,"2026-01-28 15:30:00","39477","3.569","324.9","5.684","339","NAN","NAN","NAN","NAN","NAN"],
    [1538488,"2026-01-28 15:40:00","39478","4.5360000000000005","319.4","8.23","316.1","NAN","NAN","NAN","NAN","NAN"],
    [1538489,"2026-01-28 15:50:00","39479","4.168","311.6","6.435","314.4","NAN","NAN","NAN","NAN","NAN"],
    [1538490,"2026-01-28 16:00:00","39480","3.7289999999999996","317.4","5.945","312.9","NAN","NAN","NAN","NAN","NAN"],
    [1538491,"2026-01-28 16:10:00","39481","3.23","324.9","5.194","341.5","NAN","NAN","NAN","NAN","NAN"],
    [1538492,"2026-01-28 16:20:00","39482","2.8739999999999997","328.6","6.337","352.5","NAN","NAN","NAN","NAN","NAN"],
    [1538493,"2026-01-28 16:30:00","39483","2.83","327.2","6.403","305.4","NAN","NAN","NAN","NAN","NAN"],
    [1538494,"2026-01-28 16:40:00","39484","4.2989999999999995","329.4","7.415","334","NAN","NAN","NAN","NAN","NAN"],
    [1538495,"2026-01-28 16:50:00","39485","5.06","326.0","8.72","318.9","NAN","NAN","NAN","NAN","NAN"],
    [1538496,"2026-01-28 17:00:00","39486","5.617000000000001","315.7","10.52","313.3","NAN","NAN","NAN","NAN","NAN"],
    [1538497,"2026-01-28 17:10:00","39487","5.544","309.5","9.41","325.5","NAN","NAN","NAN","NAN","NAN"],
    [1538498,"2026-01-28 17:20:00","39488","6.986000000000001","305.5","12.87","288.3","NAN","NAN","NAN","NAN","NAN"],
    [1538499,"2026-01-28 17:30:00","39489","6.694","303.6","10.65","292","NAN","NAN","NAN","NAN","NAN"],
    [1538500,"2026-01-28 17:40:00","39490","5.4910000000000005","309.1","9.31","311.5","NAN","NAN","NAN","NAN","NAN"],
    [1538501,"2026-01-28 17:50:00","39491","4.381","308.1","7.579","310.2","NAN","NAN","NAN","NAN","NAN"],
    [1538502,"2026-01-28 18:00:00","39492","5.312","301.3","9.57","301.8","NAN","NAN","NAN","NAN","NAN"],
    [1538503,"2026-01-28 18:10:00","39493","4.709","297.7","9.24","296.2","NAN","NAN","NAN","NAN","NAN"],
    [1538504,"2026-01-28 18:20:00","39494","4.677","314.8","10.22","316.3","NAN","NAN","NAN","NAN","NAN"],
    [1538505,"2026-01-28 18:30:00","39495","4.586","305.2","9.08","295.6","NAN","NAN","NAN","NAN","NAN"],
    [1538506,"2026-01-28 18:40:00","39496","3.1519999999999997","289.1","6.305","281.3","NAN","NAN","NAN","NAN","NAN"],
    [1538507,"2026-01-28 18:50:00","39497","3.767","295.7","7.644","294.7","NAN","NAN","NAN","NAN","NAN"],
    [1538508,"2026-01-28 19:00:00","39498","5.321000000000001","296.5","10.03","297.3","NAN","NAN","NAN","NAN","NAN"],
    [1538509,"2026-01-28 19:10:00","39499","5.53","301.2","9.93","296.7","NAN","NAN","NAN","NAN","NAN"],
    [1538510,"2026-01-28 19:20:00","39500","6.53","302.8","12.74","319.4","NAN","NAN","NAN","NAN","NAN"],
    [1538511,"2026-01-28 19:30:00","39501","6.532","304.2","11.43","307.4","NAN","NAN","NAN","NAN","NAN"],
    [1538512,"2026-01-28 19:40:00","39502","6.311","306.4","12.41","305.2","NAN","NAN","NAN","NAN","NAN"],
    [1538513,"2026-01-28 19:50:00","39503","7.223","303.9","12.12","290.6","NAN","NAN","NAN","NAN","NAN"],
    [1538514,"2026-01-28 20:00:00","39504","7.511","301.8","11.6","305.1","NAN","NAN","NAN","NAN","NAN"],
    [1538515,"2026-01-28 20:10:00","39505","6.394","304.7","11.69","317.7","NAN","NAN","NAN","NAN","NAN"],
    [1538516,"2026-01-28 20:20:00","39506","6.723","307.8","12.02","306.1","NAN","NAN","NAN","NAN","NAN"],
    [1538517,"2026-01-28 20:30:00","39507","5.792000000000001","307.3","13","317.1","NAN","NAN","NAN","NAN","NAN"],
    [1538518,"2026-01-28 20:40:00","39508","5.614","297.4","10.09","289.4","NAN","NAN","NAN","NAN","NAN"],
    [1538519,"2026-01-28 20:50:00","39509","6.2589999999999995","293.3","10.36","283.5","NAN","NAN","NAN","NAN","NAN"],
    [1538520,"2026-01-28 21:00:00","39510","5.695","299.3","10","292.4","NAN","NAN","NAN","NAN","NAN"],
    [1538521,"2026-01-28 21:10:00","39511","4.998","294.1","8.82","308.4","NAN","NAN","NAN","NAN","NAN"],
    [1538522,"2026-01-28 21:20:00","39512","4.297","264.8","7.35","250.4","NAN","NAN","NAN","NAN","NAN"],
    [1538523,"2026-01-28 21:30:00","39513","3.218","251.1","6.893","270.7","NAN","NAN","NAN","NAN","NAN"],
    [1538524,"2026-01-28 21:40:00","39514","1.942","268.0","4.214","270.5","NAN","NAN","NAN","NAN","NAN"],
    [1538525,"2026-01-28 21:50:00","39515","2.6919999999999997","268.0","4.769","270.5","NAN","NAN","NAN","NAN","NAN"],
    [1538526,"2026-01-28 22:00:00","39516","2.938","253.0","5.325","250.6","NAN","NAN","NAN","NAN","NAN"],
    [1538527,"2026-01-28 22:10:00","39517","2.075","231.7","3.789","224","NAN","NAN","NAN","NAN","NAN"],
    [1538528,"2026-01-28 22:20:00","39518","2.0869999999999997","227.2","4.867","221.9","NAN","NAN","NAN","NAN","NAN"],
    [1538529,"2026-01-28 22:30:00","39519","1.901","242.4","3.071","243","NAN","NAN","NAN","NAN","NAN"],
    [1538530,"2026-01-28 22:40:00","39520","2.5669999999999997","260.8","4.181","257.5","NAN","NAN","NAN","NAN","NAN"],
    [1538531,"2026-01-28 22:50:00","39521","2.0580000000000003","266.3","3.789","255.6","NAN","NAN","NAN","NAN","NAN"],
    [1538532,"2026-01-28 23:00:00","39522","0.902","270.1","2.515","272","NAN","NAN","NAN","NAN","NAN"],
    [1538533,"2026-01-28 23:10:00","39523","0.613","269.8","1.535","272.4","NAN","NAN","NAN","NAN","NAN"],
    [1538534,"2026-01-28 23:20:00","39524","0.35200000000000004","270.5","1.535","272.4","NAN","NAN","NAN","NAN","NAN"],
    [1538535,"2026-01-28 23:30:00","39525","0.5720000000000001","276.8","4.083","284.2","NAN","NAN","NAN","NAN","NAN"],
    [1538536,"2026-01-28 23:40:00","39526","3.241","285.3","5.88","289.2","NAN","NAN","NAN","NAN","NAN"],
    [1538537,"2026-01-28 23:50:00","39527","3.3160000000000003","281.4","5.913","291.2","NAN","NAN","NAN","NAN","NAN"],
    [1538538,"2026-01-29 00:00:00","39528","2.5780000000000003","269.1","4.214","269.6","NAN","NAN","NAN","NAN","NAN"],
    [1538539,"2026-01-29 00:10:00","39529","2.009","259.3","4.573","253.2","NAN","NAN","NAN","NAN","NAN"],
    [1538540,"2026-01-29 00:20:00","39530","0.244","263.0","1.339","267.9","NAN","NAN","NAN","NAN","NAN"],
    [1538541,"2026-01-29 00:30:00","39531","1.131","278.9","3.789","293.1","NAN","NAN","NAN","NAN","NAN"],
    [1538542,"2026-01-29 00:40:00","39532","0.779","283.3","2.809","267.2","NAN","NAN","NAN","NAN","NAN"],
    [1538543,"2026-01-29 00:50:00","39533","1.496","300.1","2.973","303.7","NAN","NAN","NAN","NAN","NAN"],
    [1538544,"2026-01-29 01:00:00","39534","2.294","300.5","4.541","306.4","NAN","NAN","NAN","NAN","NAN"],
    [1538545,"2026-01-29 01:10:00","39535","3.154","292.7","5.488","278.5","NAN","NAN","NAN","NAN","NAN"],
    [1538546,"2026-01-29 01:20:00","39536","2.707","278.8","5.913","274.2","NAN","NAN","NAN","NAN","NAN"],
    [1538547,"2026-01-29 01:30:00","39537","2.3930000000000002","281.8","5.227","282.6","NAN","NAN","NAN","NAN","NAN"],
    [1538548,"2026-01-29 01:40:00","39538","3.4189999999999996","280.2","6.207","269.3","NAN","NAN","NAN","NAN","NAN"],
    [1538549,"2026-01-29 01:50:00","39539","4.012","281.6","6.762","285.8","NAN","NAN","NAN","NAN","NAN"],
    [1538550,"2026-01-29 02:00:00","39540","4.019","282.4","6.925","291.4","NAN","NAN","NAN","NAN","NAN"],
    [1538551,"2026-01-29 02:10:00","39541","4.501","280.5","7.219","287.9","NAN","NAN","NAN","NAN","NAN"],
    [1538552,"2026-01-29 02:20:00","39542","5.52","295.0","9.41","290.4","NAN","NAN","NAN","NAN","NAN"],
    [1538553,"2026-01-29 02:30:00","39543","5.757999999999999","298.5","8.95","274.1","NAN","NAN","NAN","NAN","NAN"],
    [1538554,"2026-01-29 02:40:00","39544","4.913","302.9","8.46","316.2","NAN","NAN","NAN","NAN","NAN"],
    [1538555,"2026-01-29 02:50:00","39545","4.484","306.9","8.26","312.5","NAN","NAN","NAN","NAN","NAN"],
    [1538556,"2026-01-29 03:00:00","39546","5.024","308.6","8.82","316.8","NAN","NAN","NAN","NAN","NAN"],
    [1538557,"2026-01-29 03:10:00","39547","4.83","301.9","7.579","301.2","NAN","NAN","NAN","NAN","NAN"],
    [1538558,"2026-01-29 03:20:00","39548","3.108","272.9","5.39","278.6","NAN","NAN","NAN","NAN","NAN"],
    [1538559,"2026-01-29 03:30:00","39549","2.7539999999999996","271.8","4.345","287.5","NAN","NAN","NAN","NAN","NAN"],
    [1538560,"2026-01-29 03:40:00","39550","2.884","306.2","4.867","311.8","NAN","NAN","NAN","NAN","NAN"],
    [1538561,"2026-01-29 03:50:00","39551","1.47","299.9","4.018","301.4","NAN","NAN","NAN","NAN","NAN"],
    [1538562,"2026-01-29 04:00:00","39552","0.833","303.9","2.385","310.1","NAN","NAN","NAN","NAN","NAN"],
    [1538563,"2026-01-29 04:10:00","39553","1.07","311.7","2.515","316.1","NAN","NAN","NAN","NAN","NAN"],
    [1538564,"2026-01-29 04:20:00","39554","0.35700000000000004","300.1","2.45","311.8","NAN","NAN","NAN","NAN","NAN"],
    [1538565,"2026-01-29 04:30:00","39555","0.24","299.3","2.156","304.1","NAN","NAN","NAN","NAN","NAN"],
    [1538566,"2026-01-29 04:40:00","39556","1.3130000000000002","305.8","2.515","310.3","NAN","NAN","NAN","NAN","NAN"],
    [1538567,"2026-01-29 04:50:00","39557","1.964","312.0","3.299","314.7","NAN","NAN","NAN","NAN","NAN"],
    [1538568,"2026-01-29 05:00:00","39558","1.551","311.4","3.234","314.9","NAN","NAN","NAN","NAN","NAN"],
    [1538569,"2026-01-29 05:10:00","39559","1.402","301.6","3.005","303.2","NAN","NAN","NAN","NAN","NAN"],
    [1538570,"2026-01-29 05:20:00","39560","0.912","298.0","2.875","295.9","NAN","NAN","NAN","NAN","NAN"],
    [1538571,"2026-01-29 05:30:00","39561","1.695","297.5","3.332","301.6","NAN","NAN","NAN","NAN","NAN"],
    [1538572,"2026-01-29 05:40:00","39562","1.8","297.1","3.953","299.5","NAN","NAN","NAN","NAN","NAN"],
    [1538573,"2026-01-29 05:50:00","39563","1.0170000000000001","290.2","2.156","289.5","NAN","NAN","NAN","NAN","NAN"],
    [1538574,"2026-01-29 06:00:00","39564","1.167","289.2","2.319","289.1","NAN","NAN","NAN","NAN","NAN"],
    [1538575,"2026-01-29 06:10:00","39565","1.286","290.6","2.417","288.9","NAN","NAN","NAN","NAN","NAN"],
    [1538576,"2026-01-29 06:20:00","39566","0.718","289.7","2.744","287.6","NAN","NAN","NAN","NAN","NAN"],
    [1538577,"2026-01-29 06:30:00","39567","0.428","288.7","2.352","289.5","NAN","NAN","NAN","NAN","NAN"],
    [1538578,"2026-01-29 06:40:00","39568","0.18100000000000002","288.7","1.437","287.4","NAN","NAN","NAN","NAN","NAN"],
    [1538579,"2026-01-29 06:50:00","39569","0.08199999999999999","288.4","1.013","287.4","NAN","NAN","NAN","NAN","NAN"],
    [1538580,"2026-01-29 07:00:00","39570","0.09300000000000001","287.3","0.751","287.3","NAN","NAN","NAN","NAN","NAN"],
    [1538581,"2026-01-29 07:10:00","39571","0.028999999999999998","287.2","0.817","287.2","NAN","NAN","NAN","NAN","NAN"],
    [1538582,"2026-01-29 07:20:00","39572","0.0","0.0","0","0","NAN","NAN","NAN","NAN","NAN"],
    [1538583,"2026-01-29 07:30:00","39573","0.237","287.8","1.437","290.8","NAN","NAN","NAN","NAN","NAN"],
    [1538584,"2026-01-29 07:40:00","39574","1.2770000000000001","292.8","2.123","294.1","NAN","NAN","NAN","NAN","NAN"],
    [1538585,"2026-01-29 07:50:00","39575","1.6840000000000002","291.5","3.038","286.2","NAN","NAN","NAN","NAN","NAN"],
    [1538586,"2026-01-29 08:00:00","39576","1.205","290.6","2.417","294.6","NAN","NAN","NAN","NAN","NAN"],
    [1538587,"2026-01-29 08:10:00","39577","0.682","288.5","1.862","285.8","NAN","NAN","NAN","NAN","NAN"],
    [1538588,"2026-01-29 08:20:00","39578","1.32","294.0","2.744","292.8","NAN","NAN","NAN","NAN","NAN"],
    [1538589,"2026-01-29 08:30:00","39579","1.1740000000000002","299.9","2.45","298.9","NAN","NAN","NAN","NAN","NAN"],
    [1538590,"2026-01-29 08:40:00","39580","1.9240000000000002","304.5","3.365","304.1","NAN","NAN","NAN","NAN","NAN"],
    [1538591,"2026-01-29 08:50:00","39581","1.935","309.2","4.051","309","NAN","NAN","NAN","NAN","NAN"],
    [1538592,"2026-01-29 09:00:00","39582","4.69","330.8","6.664","335.8","NAN","NAN","NAN","NAN","NAN"],
    [1538593,"2026-01-29 09:10:00","39583","3.611","320.2","6.272","333.7","NAN","NAN","NAN","NAN","NAN"],
    [1538594,"2026-01-29 09:20:00","39584","3.1460000000000004","304.7","4.998","302.8","NAN","NAN","NAN","NAN","NAN"],
    [1538595,"2026-01-29 09:30:00","39585","3.111","293.6","5.161","298.2","NAN","NAN","NAN","NAN","NAN"],
    [1538596,"2026-01-29 09:40:00","39586","3.315","289.5","5.292","271.6","NAN","NAN","NAN","NAN","NAN"],
    [1538597,"2026-01-29 09:50:00","39587","3.09","273.2","5.325","279.2","NAN","NAN","NAN","NAN","NAN"],
    [1538598,"2026-01-29 10:00:00","39588","3.2119999999999997","279.9","5.423","284.2","NAN","NAN","NAN","NAN","NAN"],
    [1538599,"2026-01-29 10:10:00","39589","3.2060000000000004","294.9","5.586","309.4","NAN","NAN","NAN","NAN","NAN"],
    [1538600,"2026-01-29 10:20:00","39590","3.4939999999999998","292.6","5.717","289.4","NAN","NAN","NAN","NAN","NAN"],
    [1538601,"2026-01-29 10:30:00","39591","3.1660000000000004","285.1","4.867","295.5","NAN","NAN","NAN","NAN","NAN"],
    [1538602,"2026-01-29 10:40:00","39592","2.674","296.5","4.149","290.2","NAN","NAN","NAN","NAN","NAN"],
    [1538603,"2026-01-29 10:50:00","39593","2.235","283.2","3.724","297.3","NAN","NAN","NAN","NAN","NAN"],
    [1538604,"2026-01-29 11:00:00","39594","1.797","296.3","3.724","305.8","NAN","NAN","NAN","NAN","NAN"],
    [1538605,"2026-01-29 11:10:00","39595","1.455","293.3","2.94","300.7","NAN","NAN","NAN","NAN","NAN"],
    [1538606,"2026-01-29 11:20:00","39596","2.008","281.7","3.495","277.2","NAN","NAN","NAN","NAN","NAN"],
    [1538607,"2026-01-29 11:30:00","39597","1.429","283.0","3.495","273.4","NAN","NAN","NAN","NAN","NAN"],
    [1538608,"2026-01-29 11:40:00","39598","1.454","283.1","2.646","291","NAN","NAN","NAN","NAN","NAN"],
    [1538609,"2026-01-29 11:50:00","39599","2.253","278.7","4.116","283.1","NAN","NAN","NAN","NAN","NAN"],
    [1538610,"2026-01-29 12:00:00","39600","1.78","278.2","3.691","286.6","NAN","NAN","NAN","NAN","NAN"],
    [1538611,"2026-01-29 12:10:00","39601","2.117","293.2","3.593","294.2","NAN","NAN","NAN","NAN","NAN"],
    [1538612,"2026-01-29 12:20:00","39602","2.18","280.5","4.737","278.9","NAN","NAN","NAN","NAN","NAN"],
    [1538613,"2026-01-29 12:30:00","39603","3.043","255.1","6.239","228","NAN","NAN","NAN","NAN","NAN"],
    [1538614,"2026-01-29 12:40:00","39604","4.0360000000000005","239.1","6.403","219.7","NAN","NAN","NAN","NAN","NAN"],
    [1538615,"2026-01-29 12:50:00","39605","3.49","243.1","6.141","236","NAN","NAN","NAN","NAN","NAN"],
    [1538616,"2026-01-29 13:00:00","39606","3.925","234.1","7.481","236","NAN","NAN","NAN","NAN","NAN"],
    [1538617,"2026-01-29 13:10:00","39607","4.367","225.7","8.3","217.1","NAN","NAN","NAN","NAN","NAN"],
    [1538618,"2026-01-29 13:20:00","39608","4.523","230.6","7.448","251.8","NAN","NAN","NAN","NAN","NAN"],
    [1538619,"2026-01-29 13:30:00","39609","4.916","226.3","8.33","230.8","NAN","NAN","NAN","NAN","NAN"],
    [1538620,"2026-01-29 13:40:00","39610","5.292999999999999","221.4","10.52","223.6","NAN","NAN","NAN","NAN","NAN"],
    [1538621,"2026-01-29 13:50:00","39611","5.906000000000001","229.8","10.98","229.9","NAN","NAN","NAN","NAN","NAN"],
    [1538622,"2026-01-29 14:00:00","39612","5.593999999999999","231.3","9.93","221.3","NAN","NAN","NAN","NAN","NAN"],
    [1538623,"2026-01-29 14:10:00","39613","5.194","230.9","8.62","255.4","NAN","NAN","NAN","NAN","NAN"],
    [1538624,"2026-01-29 14:20:00","39614","4.212","215.0","7.383","210.4","NAN","NAN","NAN","NAN","NAN"],
    [1538625,"2026-01-29 14:30:00","39615","4.735","218.8","9.11","219.5","NAN","NAN","NAN","NAN","NAN"],
    [1538626,"2026-01-29 14:40:00","39616","4.196000000000001","239.7","7.579","252.4","NAN","NAN","NAN","NAN","NAN"],
    [1538627,"2026-01-29 14:50:00","39617","3.714","239.5","7.677","250.7","NAN","NAN","NAN","NAN","NAN"],
    [1538628,"2026-01-29 15:00:00","39618","4.378","244.0","8.33","248.2","NAN","NAN","NAN","NAN","NAN"],
    [1538629,"2026-01-29 15:10:00","39619","5.0089999999999995","245.2","8.26","246.9","NAN","NAN","NAN","NAN","NAN"],
    [1538630,"2026-01-29 15:20:00","39620","4.274","244.9","7.513","237.1","NAN","NAN","NAN","NAN","NAN"],
    [1538631,"2026-01-29 15:30:00","39621","4.171","253.5","7.121","238.6","NAN","NAN","NAN","NAN","NAN"],
    [1538632,"2026-01-29 15:40:00","39622","3.7089999999999996","248.8","6.174","245.1","NAN","NAN","NAN","NAN","NAN"],
    [1538633,"2026-01-29 15:50:00","39623","4.325","248.4","7.252","245.5","NAN","NAN","NAN","NAN","NAN"],
    [1538634,"2026-01-29 16:00:00","39624","4.5489999999999995","252.7","7.317","244","NAN","NAN","NAN","NAN","NAN"],
    [1538635,"2026-01-29 16:10:00","39625","4.309","248.8","7.546","240.6","NAN","NAN","NAN","NAN","NAN"],
    [1538636,"2026-01-29 16:20:00","39626","5.126","256.7","7.709","275.7","NAN","NAN","NAN","NAN","NAN"],
    [1538637,"2026-01-29 16:30:00","39627","5.09","253.0","7.611","260.8","NAN","NAN","NAN","NAN","NAN"],
    [1538638,"2026-01-29 16:40:00","39628","4.447","248.4","7.513","254.3","NAN","NAN","NAN","NAN","NAN"],
    [1538639,"2026-01-29 16:50:00","39629","4.086","243.9","6.599","249.5","NAN","NAN","NAN","NAN","NAN"],
    [1538640,"2026-01-29 17:00:00","39630","4.625","246.6","8.56","243.9","NAN","NAN","NAN","NAN","NAN"],
    [1538641,"2026-01-29 17:10:00","39631","3.448","250.0","6.729","238","NAN","NAN","NAN","NAN","NAN"],
    [1538642,"2026-01-29 17:20:00","39632","3.2289999999999996","252.5","6.239","250.1","NAN","NAN","NAN","NAN","NAN"],
    [1538643,"2026-01-29 17:30:00","39633","2.9010000000000002","256.9","5.423","272.1","NAN","NAN","NAN","NAN","NAN"],
    [1538644,"2026-01-29 17:40:00","39634","3.0189999999999997","253.0","4.9","262.5","NAN","NAN","NAN","NAN","NAN"],
    [1538645,"2026-01-29 17:50:00","39635","2.041","262.6","4.247","245.8","NAN","NAN","NAN","NAN","NAN"],
    [1538646,"2026-01-29 18:00:00","39636","1.865","270.7","5.031","279.2","NAN","NAN","NAN","NAN","NAN"],
    [1538647,"2026-01-29 18:10:00","39637","2.6630000000000003","278.0","5.619","281.3","NAN","NAN","NAN","NAN","NAN"],
    [1538648,"2026-01-29 18:20:00","39638","2.094","289.1","3.92","282.8","NAN","NAN","NAN","NAN","NAN"],
    [1538649,"2026-01-29 18:30:00","39639","1.7530000000000001","283.4","2.646","286.8","NAN","NAN","NAN","NAN","NAN"],
    [1538650,"2026-01-29 18:40:00","39640","1.112","285.3","2.091","284.6","NAN","NAN","NAN","NAN","NAN"],
    [1538651,"2026-01-29 18:50:00","39641","0.084","288.0","1.339","288.2","NAN","NAN","NAN","NAN","NAN"],
    [1538652,"2026-01-29 19:00:00","39642","0.0","0.0","0","0","NAN","NAN","NAN","NAN","NAN"],
    [1538653,"2026-01-29 19:10:00","39643","0.008","290.6","0.392","290.5","NAN","NAN","NAN","NAN","NAN"],
    [1538654,"2026-01-29 19:20:00","39644","0.42100000000000004","289.1","1.339","288.4","NAN","NAN","NAN","NAN","NAN"],
    [1538655,"2026-01-29 19:30:00","39645","0.903","282.3","1.731","282.7","NAN","NAN","NAN","NAN","NAN"],
    [1538656,"2026-01-29 19:40:00","39646","0.648","284.0","1.437","287.5","NAN","NAN","NAN","NAN","NAN"],
    [1538657,"2026-01-29 19:50:00","39647","0.7959999999999999","292.0","1.895","292.6","NAN","NAN","NAN","NAN","NAN"],
    [1538658,"2026-01-29 20:00:00","39648","0.28","292.6","1.372","292.6","NAN","NAN","NAN","NAN","NAN"],
    [1538659,"2026-01-29 20:10:00","39649","0.11599999999999999","292.6","1.274","292.6","NAN","NAN","NAN","NAN","NAN"],
    [1538660,"2026-01-29 20:20:00","39650","0.258","292.5","1.045","292.5","NAN","NAN","NAN","NAN","NAN"],
    [1538661,"2026-01-29 20:30:00","39651","0.674","288.7","1.797","283.4","NAN","NAN","NAN","NAN","NAN"],
    [1538662,"2026-01-29 20:40:00","39652","1.508","285.7","2.581","280.2","NAN","NAN","NAN","NAN","NAN"],
    [1538663,"2026-01-29 20:50:00","39653","1.475","292.2","2.352","292.7","NAN","NAN","NAN","NAN","NAN"],
    [1538664,"2026-01-29 21:00:00","39654","1.62","292.2","3.071","285.5","NAN","NAN","NAN","NAN","NAN"],
    [1538665,"2026-01-29 21:10:00","39655","1.615","289.7","2.842","292.8","NAN","NAN","NAN","NAN","NAN"],
    [1538666,"2026-01-29 21:20:00","39656","1.5930000000000002","290.7","2.907","280.5","NAN","NAN","NAN","NAN","NAN"],
    [1538667,"2026-01-29 21:30:00","39657","1.77","294.6","2.973","296","NAN","NAN","NAN","NAN","NAN"],
    [1538668,"2026-01-29 21:40:00","39658","1.952","306.1","3.397","313.6","NAN","NAN","NAN","NAN","NAN"],
    [1538669,"2026-01-29 21:50:00","39659","1.915","307.8","3.267","310.9","NAN","NAN","NAN","NAN","NAN"],
    [1538670,"2026-01-29 22:00:00","39660","1.8730000000000002","309.3","3.038","312.8","NAN","NAN","NAN","NAN","NAN"],
    [1538671,"2026-01-29 22:10:00","39661","2.2840000000000003","313.5","3.593","321.8","NAN","NAN","NAN","NAN","NAN"],
    [1538672,"2026-01-29 22:20:00","39662","2.061","310.5","3.92","318.5","NAN","NAN","NAN","NAN","NAN"],
    [1538673,"2026-01-29 22:30:00","39663","0.266","305.3","1.699","305.5","NAN","NAN","NAN","NAN","NAN"],
    [1538674,"2026-01-29 22:40:00","39664","1.2","306.4","2.711","305.7","NAN","NAN","NAN","NAN","NAN"],
    [1538675,"2026-01-29 22:50:00","39665","1.781","308.8","2.973","309.8","NAN","NAN","NAN","NAN","NAN"],
    [1538676,"2026-01-29 23:00:00","39666","1.245","307.4","2.94","318.4","NAN","NAN","NAN","NAN","NAN"],
    [1538677,"2026-01-29 23:10:00","39667","2.33","302.3","4.377","309.8","NAN","NAN","NAN","NAN","NAN"],
    [1538678,"2026-01-29 23:20:00","39668","2.7","307.5","4.018","309.7","NAN","NAN","NAN","NAN","NAN"],
    [1538679,"2026-01-29 23:30:00","39669","2.965","320.8","4.835","324.3","NAN","NAN","NAN","NAN","NAN"],
    [1538680,"2026-01-29 23:40:00","39670","2.552","315.2","3.887","319","NAN","NAN","NAN","NAN","NAN"],
    [1538681,"2026-01-29 23:50:00","39671","2.449","307.9","3.953","315.1","NAN","NAN","NAN","NAN","NAN"],
    [1538682,"2026-01-30 00:00:00","39672","1.7890000000000001","305.8","3.038","314.2","NAN","NAN","NAN","NAN","NAN"],
    [1538683,"2026-01-30 00:10:00","39673","1.37","300.8","2.287","300.7","NAN","NAN","NAN","NAN","NAN"],
    [1538684,"2026-01-30 00:20:00","39674","1.545","299.3","2.385","298.7","NAN","NAN","NAN","NAN","NAN"],
    [1538685,"2026-01-30 00:30:00","39675","1.337","298.6","2.646","298.6","NAN","NAN","NAN","NAN","NAN"],
    [1538686,"2026-01-30 00:40:00","39676","0.5329999999999999","298.5","1.372","298.2","NAN","NAN","NAN","NAN","NAN"],
    [1538687,"2026-01-30 00:50:00","39677","0.852","298.2","1.699","298.2","NAN","NAN","NAN","NAN","NAN"],
    [1538688,"2026-01-30 01:00:00","39678","1.064","298.1","1.829","298.1","NAN","NAN","NAN","NAN","NAN"],
    [1538689,"2026-01-30 01:10:00","39679","0.784","298.1","1.764","298.1","NAN","NAN","NAN","NAN","NAN"],
    [1538690,"2026-01-30 01:20:00","39680","0.134","298.1","0.751","298.1","NAN","NAN","NAN","NAN","NAN"],
    [1538691,"2026-01-30 01:30:00","39681","0.593","298.1","1.339","298.1","NAN","NAN","NAN","NAN","NAN"],
    [1538692,"2026-01-30 01:40:00","39682","0.557","298.1","1.47","298.1","NAN","NAN","NAN","NAN","NAN"],
    [1538693,"2026-01-30 01:50:00","39683","1.167","298.1","1.699","298.1","NAN","NAN","NAN","NAN","NAN"],
    [1538694,"2026-01-30 02:00:00","39684","0.499","298.1","1.372","298.1","NAN","NAN","NAN","NAN","NAN"],
    [1538695,"2026-01-30 02:10:00","39685","0.509","298.0","1.437","298","NAN","NAN","NAN","NAN","NAN"],
    [1538696,"2026-01-30 02:20:00","39686","0.09300000000000001","298.0","1.503","298","NAN","NAN","NAN","NAN","NAN"],
    [1538697,"2026-01-30 02:30:00","39687","0.01","298.0","0.359","298","NAN","NAN","NAN","NAN","NAN"],
    [1538698,"2026-01-30 02:40:00","39688","0.32899999999999996","298.0","0.947","298","NAN","NAN","NAN","NAN","NAN"],
    [1538699,"2026-01-30 02:50:00","39689","0.21","298.0","1.241","298","NAN","NAN","NAN","NAN","NAN"],
    [1538700,"2026-01-30 03:00:00","39690","0.243","299.7","1.568","299.8","NAN","NAN","NAN","NAN","NAN"],
    [1538701,"2026-01-30 03:10:00","39691","0.44799999999999995","300.0","1.47","298.3","NAN","NAN","NAN","NAN","NAN"],
    [1538702,"2026-01-30 03:20:00","39692","0.386","305.8","2.156","310.1","NAN","NAN","NAN","NAN","NAN"],
    [1538703,"2026-01-30 03:30:00","39693","1.226","309.9","2.319","314.7","NAN","NAN","NAN","NAN","NAN"],
    [1538704,"2026-01-30 03:40:00","39694","1.47","303.9","2.809","299.5","NAN","NAN","NAN","NAN","NAN"],
    [1538705,"2026-01-30 03:50:00","39695","2.736","293.8","4.737","273.5","NAN","NAN","NAN","NAN","NAN"],
    [1538706,"2026-01-30 04:00:00","39696","3.2430000000000003","300.1","5.063","299.9","NAN","NAN","NAN","NAN","NAN"],
    [1538707,"2026-01-30 04:10:00","39697","3.963","310.2","6.337","306.3","NAN","NAN","NAN","NAN","NAN"],
    [1538708,"2026-01-30 04:20:00","39698","4.949","305.2","8.49","325","NAN","NAN","NAN","NAN","NAN"],
    [1538709,"2026-01-30 04:30:00","39699","5.893","309.7","10.81","293.8","NAN","NAN","NAN","NAN","NAN"],
    [1538710,"2026-01-30 04:40:00","39700","5.352","311.9","10.03","334","NAN","NAN","NAN","NAN","NAN"],
    [1538711,"2026-01-30 04:50:00","39701","5.197","315.0","10.22","313.7","NAN","NAN","NAN","NAN","NAN"],
    [1538712,"2026-01-30 05:00:00","39702","5.501","312.1","9.54","307.1","NAN","NAN","NAN","NAN","NAN"],
    [1538713,"2026-01-30 05:10:00","39703","6.071000000000001","311.7","10.78","300.5","NAN","NAN","NAN","NAN","NAN"],
    [1538714,"2026-01-30 05:20:00","39704","6.205","312.5","10.88","323","NAN","NAN","NAN","NAN","NAN"],
    [1538715,"2026-01-30 05:30:00","39705","6.145","307.9","9.54","303.5","NAN","NAN","NAN","NAN","NAN"],
    [1538716,"2026-01-30 05:40:00","39706","5.872999999999999","311.2","10.62","314.8","NAN","NAN","NAN","NAN","NAN"],
    [1538717,"2026-01-30 05:50:00","39707","6.087999999999999","318.0","10.19","312.5","NAN","NAN","NAN","NAN","NAN"],
    [1538718,"2026-01-30 06:00:00","39708","6.362","319.8","11.56","316.5","NAN","NAN","NAN","NAN","NAN"],
    [1538719,"2026-01-30 06:10:00","39709","5.7010000000000005","316.9","10.55","318.6","NAN","NAN","NAN","NAN","NAN"],
    [1538720,"2026-01-30 06:20:00","39710","5.93","318.9","9.73","315.5","NAN","NAN","NAN","NAN","NAN"],
    [1538721,"2026-01-30 06:30:00","39711","5.689","315.9","10.26","312.1","NAN","NAN","NAN","NAN","NAN"],
    [1538722,"2026-01-30 06:40:00","39712","6.132000000000001","318.7","10.49","312.7","NAN","NAN","NAN","NAN","NAN"],
    [1538723,"2026-01-30 06:50:00","39713","6.638","322.0","14.05","308.8","NAN","NAN","NAN","NAN","NAN"],
    [1538724,"2026-01-30 07:00:00","39714","6.949","320.0","14.05","308.8","NAN","NAN","NAN","NAN","NAN"],
    [1538725,"2026-01-30 07:10:00","39715","6.367000000000001","323.9","10.81","314.2","NAN","NAN","NAN","NAN","NAN"],
    [1538726,"2026-01-30 07:20:00","39716","6.476","326.7","10.91","326.1","NAN","NAN","NAN","NAN","NAN"],
    [1538727,"2026-01-30 07:30:00","39717","5.428","324.5","9.05","326.7","NAN","NAN","NAN","NAN","NAN"],
    [1538728,"2026-01-30 07:40:00","39718","4.482","324.7","8","333.1","NAN","NAN","NAN","NAN","NAN"],
    [1538729,"2026-01-30 07:50:00","39719","3.815","324.1","7.546","334.1","NAN","NAN","NAN","NAN","NAN"],
    [1538730,"2026-01-30 08:00:00","39720","2.3680000000000003","308.1","5.325","309.6","NAN","NAN","NAN","NAN","NAN"],
    [1538731,"2026-01-30 08:10:00","39721","1.7590000000000001","288.7","3.691","284.9","NAN","NAN","NAN","NAN","NAN"],
    [1538732,"2026-01-30 08:20:00","39722","1.989","288.3","4.835","309.2","NAN","NAN","NAN","NAN","NAN"],
    [1538733,"2026-01-30 08:30:00","39723","4.322","318.9","9.02","316.8","NAN","NAN","NAN","NAN","NAN"],
    [1538734,"2026-01-30 08:40:00","39724","4.544","314.1","8.85","311.4","NAN","NAN","NAN","NAN","NAN"],
    [1538735,"2026-01-30 08:50:00","39725","4.145","313.2","6.925","325.2","NAN","NAN","NAN","NAN","NAN"],
    [1538736,"2026-01-30 09:00:00","39726","3.891","306.0","7.154","318","NAN","NAN","NAN","NAN","NAN"],
    [1538737,"2026-01-30 09:10:00","39727","3.931","283.3","6.272","287.1","NAN","NAN","NAN","NAN","NAN"],
    [1538738,"2026-01-30 09:20:00","39728","4.107","301.7","6.533","297.2","NAN","NAN","NAN","NAN","NAN"],
    [1538739,"2026-01-30 09:30:00","39729","3.415","313.3","5.455","320.3","NAN","NAN","NAN","NAN","NAN"],
    [1538740,"2026-01-30 09:40:00","39730","2.87","303.5","5.684","260.3","NAN","NAN","NAN","NAN","NAN"],
    [1538741,"2026-01-30 09:50:00","39731","2.299","303.8","5.063","310.3","NAN","NAN","NAN","NAN","NAN"],
    [1538742,"2026-01-30 10:00:00","39732","3.529","295.6","6.925","298.2","NAN","NAN","NAN","NAN","NAN"],
    [1538743,"2026-01-30 10:10:00","39733","5.3420000000000005","298.9","7.938","295.4","NAN","NAN","NAN","NAN","NAN"],
    [1538744,"2026-01-30 10:20:00","39734","4.204","298.7","6.991","302.4","NAN","NAN","NAN","NAN","NAN"],
    [1538745,"2026-01-30 10:30:00","39735","3.162","298.0","5.913","311.2","NAN","NAN","NAN","NAN","NAN"],
    [1538746,"2026-01-30 10:40:00","39736","2.574","316.5","5.39","325.9","NAN","NAN","NAN","NAN","NAN"],
    [1538747,"2026-01-30 10:50:00","39737","2.884","316.6","5.031","312.9","NAN","NAN","NAN","NAN","NAN"],
    [1538748,"2026-01-30 11:00:00","39738","1.179","289.8","3.724","286.6","NAN","NAN","NAN","NAN","NAN"],
    [1538749,"2026-01-30 11:10:00","39739","1.5319999999999998","294.0","3.365","279.7","NAN","NAN","NAN","NAN","NAN"],
    [1538750,"2026-01-30 11:20:00","39740","2.61","290.4","7.023","275.9","NAN","NAN","NAN","NAN","NAN"],
    [1538751,"2026-01-30 11:30:00","39741","3.111","295.7","5.717","314.5","NAN","NAN","NAN","NAN","NAN"],
    [1538752,"2026-01-30 11:40:00","39742","3.16","301.8","5.39","326","NAN","NAN","NAN","NAN","NAN"],
    [1538753,"2026-01-30 11:50:00","39743","3.708","295.5","6.991","291.8","NAN","NAN","NAN","NAN","NAN"],
    [1538754,"2026-01-30 12:00:00","39744","4.606","301.0","9.28","317.1","NAN","NAN","NAN","NAN","NAN"],
    [1538755,"2026-01-30 12:10:00","39745","2.985","316.0","6.403","300.6","NAN","NAN","NAN","NAN","NAN"],
    [1538756,"2026-01-30 12:20:00","39746","3.96","304.1","6.991","264.2","NAN","NAN","NAN","NAN","NAN"],
    [1538757,"2026-01-30 12:30:00","39747","3.929","273.6","7.677","282.5","NAN","NAN","NAN","NAN","NAN"],
    [1538758,"2026-01-30 12:40:00","39748","5.79","274.5","9.73","272.3","NAN","NAN","NAN","NAN","NAN"],
    [1538759,"2026-01-30 12:50:00","39749","5.325","275.3","8.85","270.9","NAN","NAN","NAN","NAN","NAN"],
    [1538760,"2026-01-30 13:00:00","39750","6.276","290.9","11.24","297.2","NAN","NAN","NAN","NAN","NAN"],
    [1538761,"2026-01-30 13:10:00","39751","5.136","281.2","10.09","279.9","NAN","NAN","NAN","NAN","NAN"],
    [1538762,"2026-01-30 13:20:00","39752","4.81","277.9","9.28","308.6","NAN","NAN","NAN","NAN","NAN"],
    [1538763,"2026-01-30 13:30:00","39753","5.359","270.5","8.53","249.7","NAN","NAN","NAN","NAN","NAN"],
    [1538764,"2026-01-30 13:40:00","39754","6.077999999999999","262.1","9.38","272.2","NAN","NAN","NAN","NAN","NAN"],
    [1538765,"2026-01-30 13:50:00","39755","5.311","243.7","9.15","238.1","NAN","NAN","NAN","NAN","NAN"],
    [1538766,"2026-01-30 14:00:00","39756","6.242999999999999","250.9","10.13","247.7","NAN","NAN","NAN","NAN","NAN"],
    [1538767,"2026-01-30 14:10:00","39757","6.922999999999999","255.7","11.69","266.3","NAN","NAN","NAN","NAN","NAN"],
    [1538768,"2026-01-30 14:20:00","39758","6.843999999999999","257.7","10.62","260.4","NAN","NAN","NAN","NAN","NAN"],
    [1538769,"2026-01-30 14:30:00","39759","6.284","256.1","10.52","257.9","NAN","NAN","NAN","NAN","NAN"],
    [1538770,"2026-01-30 14:40:00","39760","6.699","266.3","11.14","242.8","NAN","NAN","NAN","NAN","NAN"],
    [1538771,"2026-01-30 14:50:00","39761","5.104","261.6","8.33","259.4","NAN","NAN","NAN","NAN","NAN"],
    [1538772,"2026-01-30 15:00:00","39762","5.256","250.9","8.53","255.5","NAN","NAN","NAN","NAN","NAN"],
    [1538773,"2026-01-30 15:10:00","39763","4.47","252.6","7.807","266.7","NAN","NAN","NAN","NAN","NAN"],
    [1538774,"2026-01-30 15:20:00","39764","3.634","236.8","7.252","254.7","NAN","NAN","NAN","NAN","NAN"],
    [1538775,"2026-01-30 15:30:00","39765","3.714","221.6","7.154","220.5","NAN","NAN","NAN","NAN","NAN"],
    [1538776,"2026-01-30 15:40:00","39766","4.254","218.4","7.905","216.3","NAN","NAN","NAN","NAN","NAN"],
    [1538777,"2026-01-30 15:50:00","39767","4.532","215.4","9.38","221.2","NAN","NAN","NAN","NAN","NAN"],
    [1538778,"2026-01-30 16:00:00","39768","4.907","236.0","8.53","234.9","NAN","NAN","NAN","NAN","NAN"],
    [1538779,"2026-01-30 16:10:00","39769","4.489","236.5","9.11","232.6","NAN","NAN","NAN","NAN","NAN"],
    [1538780,"2026-01-30 16:20:00","39770","3.7939999999999996","241.1","7.252","252.1","NAN","NAN","NAN","NAN","NAN"],
    [1538781,"2026-01-30 16:30:00","39771","3.7889999999999997","241.8","6.697","253.6","NAN","NAN","NAN","NAN","NAN"],
    [1538782,"2026-01-30 16:40:00","39772","3.9939999999999998","246.3","6.795","246.4","NAN","NAN","NAN","NAN","NAN"],
    [1538783,"2026-01-30 16:50:00","39773","3.755","251.7","7.219","248.2","NAN","NAN","NAN","NAN","NAN"],
    [1538784,"2026-01-30 17:00:00","39774","3.2119999999999997","247.8","6.37","258.2","NAN","NAN","NAN","NAN","NAN"],
    [1538785,"2026-01-30 17:10:00","39775","3.615","244.1","6.207","239.1","NAN","NAN","NAN","NAN","NAN"],
    [1538786,"2026-01-30 17:20:00","39776","2.414","235.7","4.541","232","NAN","NAN","NAN","NAN","NAN"],
    [1538787,"2026-01-30 17:30:00","39777","2.634","239.1","5.619","244.7","NAN","NAN","NAN","NAN","NAN"],
    [1538788,"2026-01-30 17:40:00","39778","2.721","247.8","5.063","262.4","NAN","NAN","NAN","NAN","NAN"],
    [1538789,"2026-01-30 17:50:00","39779","2.555","241.4","4.573","236.3","NAN","NAN","NAN","NAN","NAN"],
    [1538790,"2026-01-30 18:00:00","39780","1.095","235.1","2.777","235.2","NAN","NAN","NAN","NAN","NAN"],
    [1538791,"2026-01-30 18:10:00","39781","1.128","235.9","2.091","234.1","NAN","NAN","NAN","NAN","NAN"],
    [1538792,"2026-01-30 18:20:00","39782","0.9520000000000001","240.6","1.993","240.3","NAN","NAN","NAN","NAN","NAN"],
    [1538793,"2026-01-30 18:30:00","39783","0.38299999999999995","243.7","1.372","244.2","NAN","NAN","NAN","NAN","NAN"],
    [1538794,"2026-01-30 18:40:00","39784","0.025","248.4","0.882","248.3","NAN","NAN","NAN","NAN","NAN"],
    [1538795,"2026-01-30 18:50:00","39785","0.002","248.5","0.261","248.6","NAN","NAN","NAN","NAN","NAN"],
    [1538796,"2026-01-30 19:00:00","39786","0.0","0.0","0","0","NAN","NAN","NAN","NAN","NAN"],
    [1538797,"2026-01-30 19:10:00","39787","0.012","248.7","0.392","248.7","NAN","NAN","NAN","NAN","NAN"],
    [1538798,"2026-01-30 19:20:00","39788","0.0","0.0","0","0","NAN","NAN","NAN","NAN","NAN"],
    [1538799,"2026-01-30 19:30:00","39789","0.0","0.0","0","0","NAN","NAN","NAN","NAN","NAN"],
    [1538800,"2026-01-30 19:40:00","39790","0.0","248.7","0.065","248.7","NAN","NAN","NAN","NAN","NAN"],
    [1538801,"2026-01-30 19:50:00","39791","0.862","249.6","2.123","250.4","NAN","NAN","NAN","NAN","NAN"],
    [1538802,"2026-01-30 20:00:00","39792","1.155","251.8","1.927","249.8","NAN","NAN","NAN","NAN","NAN"],
    [1538803,"2026-01-30 20:10:00","39793","1.162","256.8","2.385","264.9","NAN","NAN","NAN","NAN","NAN"],
    [1538804,"2026-01-30 20:20:00","39794","2.363","285.4","5.847","319.2","NAN","NAN","NAN","NAN","NAN"],
    [1538805,"2026-01-30 20:30:00","39795","4.178","286.9","10.09","264.2","NAN","NAN","NAN","NAN","NAN"],
    [1538806,"2026-01-30 20:40:00","39796","4.952","298.3","10.32","301.9","NAN","NAN","NAN","NAN","NAN"],
    [1538807,"2026-01-30 20:50:00","39797","5.15","325.3","8.62","336.1","NAN","NAN","NAN","NAN","NAN"],
    [1538808,"2026-01-30 21:00:00","39798","6.1979999999999995","323.9","10.19","334.6","NAN","NAN","NAN","NAN","NAN"],
    [1538809,"2026-01-30 21:10:00","39799","5.937","316.9","12.25","328.6","NAN","NAN","NAN","NAN","NAN"],
    [1538810,"2026-01-30 21:20:00","39800","5.397","326.7","9.21","321.9","NAN","NAN","NAN","NAN","NAN"],
    [1538811,"2026-01-30 21:30:00","39801","5.184","321.9","9.24","329","NAN","NAN","NAN","NAN","NAN"],
    [1538812,"2026-01-30 21:40:00","39802","4.3260000000000005","306.4","8.46","311.3","NAN","NAN","NAN","NAN","NAN"],
    [1538813,"2026-01-30 21:50:00","39803","4.287","301.2","7.677","294.5","NAN","NAN","NAN","NAN","NAN"],
    [1538814,"2026-01-30 22:00:00","39804","3.569","308.2","7.089","296.7","NAN","NAN","NAN","NAN","NAN"],
    [1538815,"2026-01-30 22:10:00","39805","4.4030000000000005","315.7","6.729","308.7","NAN","NAN","NAN","NAN","NAN"],
    [1538816,"2026-01-30 22:20:00","39806","2.658","300.7","5.423","282.7","NAN","NAN","NAN","NAN","NAN"],
    [1538817,"2026-01-30 22:30:00","39807","2.528","307.0","4.508","305.8","NAN","NAN","NAN","NAN","NAN"],
    [1538818,"2026-01-30 22:40:00","39808","3.384","307.8","5.913","309.9","NAN","NAN","NAN","NAN","NAN"],
    [1538819,"2026-01-30 22:50:00","39809","3.5069999999999997","320.5","6.37","318.7","NAN","NAN","NAN","NAN","NAN"],
    [1538820,"2026-01-30 23:00:00","39810","2.736","313.6","5.913","315.9","NAN","NAN","NAN","NAN","NAN"],
    [1538821,"2026-01-30 23:10:00","39811","2.286","304.0","4.345","305.9","NAN","NAN","NAN","NAN","NAN"],
    [1538822,"2026-01-30 23:20:00","39812","2.274","310.1","4.312","299.7","NAN","NAN","NAN","NAN","NAN"],
    [1538823,"2026-01-30 23:30:00","39813","2.659","306.3","4.835","314.1","NAN","NAN","NAN","NAN","NAN"],
    [1538824,"2026-01-30 23:40:00","39814","2.294","299.6","3.887","287.9","NAN","NAN","NAN","NAN","NAN"],
    [1538825,"2026-01-30 23:50:00","39815","2.9139999999999997","294.4","4.933","297.3","NAN","NAN","NAN","NAN","NAN"],
    [1538826,"2026-01-31 00:00:00","39816","2.995","290.4","4.541","287.9","NAN","NAN","NAN","NAN","NAN"],
    [1538827,"2026-01-31 00:10:00","39817","3.264","295.0","5.651","296.4","NAN","NAN","NAN","NAN","NAN"],
    [1538828,"2026-01-31 00:20:00","39818","2.8819999999999997","291.5","5.488","297.6","NAN","NAN","NAN","NAN","NAN"],
    [1538829,"2026-01-31 00:30:00","39819","2.861","282.8","4.835","295.1","NAN","NAN","NAN","NAN","NAN"],
    [1538830,"2026-01-31 00:40:00","39820","3.228","279.9","5.129","280.7","NAN","NAN","NAN","NAN","NAN"],
    [1538831,"2026-01-31 00:50:00","39821","3.43","299.9","6.011","292","NAN","NAN","NAN","NAN","NAN"],
    [1538832,"2026-01-31 01:00:00","39822","3.675","303.4","6.207","303.7","NAN","NAN","NAN","NAN","NAN"],
    [1538833,"2026-01-31 01:10:00","39823","3.062","303.6","4.606","297.9","NAN","NAN","NAN","NAN","NAN"],
    [1538834,"2026-01-31 01:20:00","39824","2.467","302.8","5.129","314.5","NAN","NAN","NAN","NAN","NAN"],
    [1538835,"2026-01-31 01:30:00","39825","2.235","315.1","3.822","306","NAN","NAN","NAN","NAN","NAN"],
    [1538836,"2026-01-31 01:40:00","39826","1.946","309.3","3.201","309.1","NAN","NAN","NAN","NAN","NAN"],
    [1538837,"2026-01-31 01:50:00","39827","2.503","310.1","4.671","305.6","NAN","NAN","NAN","NAN","NAN"],
    [1538838,"2026-01-31 02:00:00","39828","2.369","302.8","4.181","302.7","NAN","NAN","NAN","NAN","NAN"],
    [1538839,"2026-01-31 02:10:00","39829","1.9140000000000001","297.2","3.332","301.8","NAN","NAN","NAN","NAN","NAN"],
    [1538840,"2026-01-31 02:20:00","39830","2.318","290.5","3.985","295.5","NAN","NAN","NAN","NAN","NAN"],
    [1538841,"2026-01-31 02:30:00","39831","2.54","283.0","4.377","282.1","NAN","NAN","NAN","NAN","NAN"],
    [1538842,"2026-01-31 02:40:00","39832","2.535","305.1","4.606","308.7","NAN","NAN","NAN","NAN","NAN"],
    [1538843,"2026-01-31 02:50:00","39833","2.339","319.1","3.985","321","NAN","NAN","NAN","NAN","NAN"],
    [1538844,"2026-01-31 03:00:00","39834","2.6660000000000004","302.3","4.312","304.3","NAN","NAN","NAN","NAN","NAN"],
    [1538845,"2026-01-31 03:10:00","39835","2.696","295.1","5.357","293.4","NAN","NAN","NAN","NAN","NAN"],
    [1538846,"2026-01-31 03:20:00","39836","2.546","288.8","5.259","281.5","NAN","NAN","NAN","NAN","NAN"],
    [1538847,"2026-01-31 03:30:00","39837","1.208","298.5","3.169","299.1","NAN","NAN","NAN","NAN","NAN"],
    [1538848,"2026-01-31 03:40:00","39838","1.739","299.5","4.279","290.2","NAN","NAN","NAN","NAN","NAN"],
    [1538849,"2026-01-31 03:50:00","39839","1.78","294.1","3.855","289.2","NAN","NAN","NAN","NAN","NAN"],
    [1538850,"2026-01-31 04:00:00","39840","3.533","311.8","6.958","306","NAN","NAN","NAN","NAN","NAN"],
    [1538851,"2026-01-31 04:10:00","39841","3.3360000000000003","299.8","6.207","300.9","NAN","NAN","NAN","NAN","NAN"],
    [1538852,"2026-01-31 04:20:00","39842","2.147","298.3","9.24","315.4","NAN","NAN","NAN","NAN","NAN"],
    [1538853,"2026-01-31 04:30:00","39843","4.803999999999999","305.5","10.62","302.8","NAN","NAN","NAN","NAN","NAN"],
    [1538854,"2026-01-31 04:40:00","39844","5.516","309.0","9.9","303.9","NAN","NAN","NAN","NAN","NAN"],
    [1538855,"2026-01-31 04:50:00","39845","4.362","311.3","7.35","305.9","NAN","NAN","NAN","NAN","NAN"],
    [1538856,"2026-01-31 05:00:00","39846","3.31","316.9","7.448","301.8","NAN","NAN","NAN","NAN","NAN"],
    [1538857,"2026-01-31 05:10:00","39847","2.614","338.2","5.586","331.4","NAN","NAN","NAN","NAN","NAN"],
    [1538858,"2026-01-31 05:20:00","39848","1.8730000000000002","341.1","6.043","333.9","NAN","NAN","NAN","NAN","NAN"],
    [1538859,"2026-01-31 05:30:00","39849","3.278","327.0","7.611","332","NAN","NAN","NAN","NAN","NAN"],
    [1538860,"2026-01-31 05:40:00","39850","2.588","326.3","4.965","14.92","NAN","NAN","NAN","NAN","NAN"],
    [1538861,"2026-01-31 05:50:00","39851","4.593999999999999","312.5","9.28","329.2","NAN","NAN","NAN","NAN","NAN"],
    [1538862,"2026-01-31 06:00:00","39852","5.756","312.8","12.09","316.8","NAN","NAN","NAN","NAN","NAN"],
    [1538863,"2026-01-31 06:10:00","39853","5.433","318.8","10.19","315.4","NAN","NAN","NAN","NAN","NAN"],
    [1538864,"2026-01-31 06:20:00","39854","7.872000000000001","319.1","12.67","337.2","NAN","NAN","NAN","NAN","NAN"],
    [1538865,"2026-01-31 06:30:00","39855","6.367000000000001","317.0","10.88","308.2","NAN","NAN","NAN","NAN","NAN"],
    [1538866,"2026-01-31 06:40:00","39856","5.944","316.6","10.62","299.1","NAN","NAN","NAN","NAN","NAN"],
    [1538867,"2026-01-31 06:50:00","39857","6.087999999999999","309.9","11.11","311","NAN","NAN","NAN","NAN","NAN"],
    [1538868,"2026-01-31 07:00:00","39858","7.15","307.3","11.76","306.2","NAN","NAN","NAN","NAN","NAN"],
    [1538869,"2026-01-31 07:10:00","39859","6.225","310.9","12.15","299.3","NAN","NAN","NAN","NAN","NAN"],
    [1538870,"2026-01-31 07:20:00","39860","6.926","304.7","10.91","302.8","NAN","NAN","NAN","NAN","NAN"],
    [1538871,"2026-01-31 07:30:00","39861","6.54","307.9","10.06","308.6","NAN","NAN","NAN","NAN","NAN"],
    [1538872,"2026-01-31 07:40:00","39862","7.392","304.5","12.15","299.4","NAN","NAN","NAN","NAN","NAN"],
    [1538873,"2026-01-31 07:50:00","39863","6.781000000000001","304.7","11.53","304.8","NAN","NAN","NAN","NAN","NAN"],
    [1538874,"2026-01-31 08:00:00","39864","5.763999999999999","305.3","10.13","299.9","NAN","NAN","NAN","NAN","NAN"],
    [1538875,"2026-01-31 08:10:00","39865","5.862","309.3","11.07","312.8","NAN","NAN","NAN","NAN","NAN"],
    [1538876,"2026-01-31 08:20:00","39866","5.901","314.0","11.27","294.5","NAN","NAN","NAN","NAN","NAN"],
    [1538877,"2026-01-31 08:30:00","39867","5.669","317.8","10.94","326.5","NAN","NAN","NAN","NAN","NAN"],
    [1538878,"2026-01-31 08:40:00","39868","5.766","317.3","10.16","306.7","NAN","NAN","NAN","NAN","NAN"],
    [1538879,"2026-01-31 08:50:00","39869","6.192","313.4","12.22","320.1","NAN","NAN","NAN","NAN","NAN"],
    [1538880,"2026-01-31 09:00:00","39870","7.1739999999999995","314.3","12.32","318.2","NAN","NAN","NAN","NAN","NAN"],
    [1538881,"2026-01-31 09:10:00","39871","7.792999999999999","310.1","13.2","276.7","NAN","NAN","NAN","NAN","NAN"],
    [1538882,"2026-01-31 09:20:00","39872","8.48","311.5","14.5","315","NAN","NAN","NAN","NAN","NAN"],
    [1538883,"2026-01-31 09:30:00","39873","7.393","319.2","14.28","321.7","NAN","NAN","NAN","NAN","NAN"],
    [1538884,"2026-01-31 09:40:00","39874","6.372999999999999","319.1","11.5","319.3","NAN","NAN","NAN","NAN","NAN"],
    [1538885,"2026-01-31 09:50:00","39875","7.597","324.2","13.33","310.4","NAN","NAN","NAN","NAN","NAN"],
    [1538886,"2026-01-31 10:00:00","39876","6.814","322.9","11.66","316.4","NAN","NAN","NAN","NAN","NAN"],
    [1538887,"2026-01-31 10:10:00","39877","8.14","321.8","14.73","325.6","NAN","NAN","NAN","NAN","NAN"],
    [1538888,"2026-01-31 10:20:00","39878","7.456","316.2","15.19","295.8","NAN","NAN","NAN","NAN","NAN"],
    [1538889,"2026-01-31 10:30:00","39879","6.697","318.1","11.14","333.9","NAN","NAN","NAN","NAN","NAN"],
    [1538890,"2026-01-31 10:40:00","39880","7.396","310.6","12.71","315.9","NAN","NAN","NAN","NAN","NAN"],
    [1538891,"2026-01-31 10:50:00","39881","6.2","312.7","12.02","314.3","NAN","NAN","NAN","NAN","NAN"],
    [1538892,"2026-01-31 11:00:00","39882","7.058","304.4","11.53","306.4","NAN","NAN","NAN","NAN","NAN"],
    [1538893,"2026-01-31 11:10:00","39883","6.936","306.8","11.83","304","NAN","NAN","NAN","NAN","NAN"],
    [1538894,"2026-01-31 11:20:00","39884","6.183","305.5","10","325.8","NAN","NAN","NAN","NAN","NAN"],
    [1538895,"2026-01-31 11:30:00","39885","5.492999999999999","305.5","10.98","302","NAN","NAN","NAN","NAN","NAN"],
    [1538896,"2026-01-31 11:40:00","39886","6.485","308.0","11.63","304.1","NAN","NAN","NAN","NAN","NAN"],
    [1538897,"2026-01-31 11:50:00","39887","6.524","307.9","11.17","315.4","NAN","NAN","NAN","NAN","NAN"],
    [1538898,"2026-01-31 12:00:00","39888","6.251","318.4","10.58","320.6","NAN","NAN","NAN","NAN","NAN"],
    [1538899,"2026-01-31 12:10:00","39889","5.819","314.5","9.83","308.5","NAN","NAN","NAN","NAN","NAN"],
    [1538900,"2026-01-31 12:20:00","39890","6.885","301.5","11.01","307.4","NAN","NAN","NAN","NAN","NAN"],
    [1538901,"2026-01-31 12:30:00","39891","6.568","312.8","10.78","307.7","NAN","NAN","NAN","NAN","NAN"],
    [1538902,"2026-01-31 12:40:00","39892","6.222","313.2","12.64","310.2","NAN","NAN","NAN","NAN","NAN"],
    [1538903,"2026-01-31 12:50:00","39893","6.091","317.4","11.24","322.5","NAN","NAN","NAN","NAN","NAN"],
    [1538904,"2026-01-31 13:00:00","39894","6.221","318.0","11.56","320","NAN","NAN","NAN","NAN","NAN"],
    [1538905,"2026-01-31 13:10:00","39895","6.343","314.9","11.73","312","NAN","NAN","NAN","NAN","NAN"],
    [1538906,"2026-01-31 13:20:00","39896","6.4239999999999995","312.7","10.39","299","NAN","NAN","NAN","NAN","NAN"],
    [1538907,"2026-01-31 13:30:00","39897","5.444","318.0","9.02","325.6","NAN","NAN","NAN","NAN","NAN"],
    [1538908,"2026-01-31 13:40:00","39898","6.263999999999999","314.0","10.29","311","NAN","NAN","NAN","NAN","NAN"],
    [1538909,"2026-01-31 13:50:00","39899","5.595","306.3","8.85","315.7","NAN","NAN","NAN","NAN","NAN"],
    [1538910,"2026-01-31 14:00:00","39900","5.593999999999999","298.1","11.11","313.3","NAN","NAN","NAN","NAN","NAN"],
    [1538911,"2026-01-31 14:10:00","39901","5.212999999999999","320.6","9.18","326.8","NAN","NAN","NAN","NAN","NAN"],
    [1538912,"2026-01-31 14:20:00","39902","5.263","318.9","9.54","322.8","NAN","NAN","NAN","NAN","NAN"],
    [1538913,"2026-01-31 14:30:00","39903","4.23","309.3","7.383","332.8","NAN","NAN","NAN","NAN","NAN"],
    [1538914,"2026-01-31 14:40:00","39904","5.742999999999999","311.9","9.73","305.3","NAN","NAN","NAN","NAN","NAN"],
    [1538915,"2026-01-31 14:50:00","39905","4.871","311.7","8.75","290.8","NAN","NAN","NAN","NAN","NAN"],
    [1538916,"2026-01-31 15:00:00","39906","4.922","314.6","8.69","333.5","NAN","NAN","NAN","NAN","NAN"],
    [1538917,"2026-01-31 15:10:00","39907","3.1830000000000003","310.9","6.566","312.3","NAN","NAN","NAN","NAN","NAN"],
    [1538918,"2026-01-31 15:20:00","39908","3.344","307.0","5.978","291.7","NAN","NAN","NAN","NAN","NAN"],
    [1538919,"2026-01-31 15:30:00","39909","3.5780000000000003","313.7","5.945","334","NAN","NAN","NAN","NAN","NAN"],
    [1538920,"2026-01-31 15:40:00","39910","2.7760000000000002","290.4","5.684","284.8","NAN","NAN","NAN","NAN","NAN"],
    [1538921,"2026-01-31 15:50:00","39911","2.838","302.4","6.239","333.9","NAN","NAN","NAN","NAN","NAN"],
    [1538922,"2026-01-31 16:00:00","39912","5.045","300.1","9.57","275.2","NAN","NAN","NAN","NAN","NAN"],
    [1538923,"2026-01-31 16:10:00","39913","3.497","304.7","6.207","335.6","NAN","NAN","NAN","NAN","NAN"],
    [1538924,"2026-01-31 16:20:00","39914","3.595","303.4","6.109","297.1","NAN","NAN","NAN","NAN","NAN"],
    [1538925,"2026-01-31 16:30:00","39915","4.794","325.3","8.07","330.7","NAN","NAN","NAN","NAN","NAN"],
    [1538926,"2026-01-31 16:40:00","39916","4.0280000000000005","320.4","6.762","330.2","NAN","NAN","NAN","NAN","NAN"],
    [1538927,"2026-01-31 16:50:00","39917","2.842","318.9","4.9","322.2","NAN","NAN","NAN","NAN","NAN"],
    [1538928,"2026-01-31 17:00:00","39918","4.455","311.9","8.79","320.1","NAN","NAN","NAN","NAN","NAN"],
    [1538929,"2026-01-31 17:10:00","39919","3.978","303.9","8.33","303.1","NAN","NAN","NAN","NAN","NAN"],
    [1538930,"2026-01-31 17:20:00","39920","3.253","304.2","5.39","313.6","NAN","NAN","NAN","NAN","NAN"],
    [1538931,"2026-01-31 17:30:00","39921","2.674","298.3","4.835","294.5","NAN","NAN","NAN","NAN","NAN"],
    [1538932,"2026-01-31 17:40:00","39922","4.092","295.7","7.35","296.3","NAN","NAN","NAN","NAN","NAN"],
    [1538933,"2026-01-31 17:50:00","39923","4.361000000000001","305.5","8.95","310.6","NAN","NAN","NAN","NAN","NAN"],
    [1538934,"2026-01-31 18:00:00","39924","4.659","305.4","7.971","301.2","NAN","NAN","NAN","NAN","NAN"],
    [1538935,"2026-01-31 18:10:00","39925","5.249","303.3","8.46","309.8","NAN","NAN","NAN","NAN","NAN"],
    [1538936,"2026-01-31 18:20:00","39926","5.035","304.1","7.35","304.2","NAN","NAN","NAN","NAN","NAN"],
    [1538937,"2026-01-31 18:30:00","39927","3.4189999999999996","309.1","5.913","309.2","NAN","NAN","NAN","NAN","NAN"],
    [1538938,"2026-01-31 18:40:00","39928","2.821","318.2","5.423","318.4","NAN","NAN","NAN","NAN","NAN"],
    [1538939,"2026-01-31 18:50:00","39929","3.0839999999999996","314.9","6.141","314","NAN","NAN","NAN","NAN","NAN"],
    [1538940,"2026-01-31 19:00:00","39930","2.411","319.6","6.174","309.5","NAN","NAN","NAN","NAN","NAN"],
    [1538941,"2026-01-31 19:10:00","39931","1.9869999999999999","326.5","4.377","354.3","NAN","NAN","NAN","NAN","NAN"],
    [1538942,"2026-01-31 19:20:00","39932","2.021","319.1","6.141","327","NAN","NAN","NAN","NAN","NAN"],
    [1538943,"2026-01-31 19:30:00","39933","2.6860000000000004","315.6","7.415","333.7","NAN","NAN","NAN","NAN","NAN"],
    [1538944,"2026-01-31 19:40:00","39934","4.171","308.1","9.15","313.2","NAN","NAN","NAN","NAN","NAN"],
    [1538945,"2026-01-31 19:50:00","39935","4.132","301.0","7.971","302.4","NAN","NAN","NAN","NAN","NAN"],
    [1538946,"2026-01-31 20:00:00","39936","5.329","316.7","11.24","295.6","NAN","NAN","NAN","NAN","NAN"],
    [1538947,"2026-01-31 20:10:00","39937","5.428","317.4","11.11","341.2","NAN","NAN","NAN","NAN","NAN"],
    [1538948,"2026-01-31 20:20:00","39938","6.695","315.5","11.56","317.3","NAN","NAN","NAN","NAN","NAN"],
    [1538949,"2026-01-31 20:30:00","39939","6.002000000000001","309.3","8.75","312.9","NAN","NAN","NAN","NAN","NAN"],
    [1538950,"2026-01-31 20:40:00","39940","5.655","314.2","9.11","325.2","NAN","NAN","NAN","NAN","NAN"],
    [1538951,"2026-01-31 20:50:00","39941","5.117","320.1","9.02","322.2","NAN","NAN","NAN","NAN","NAN"],
    [1538952,"2026-01-31 21:00:00","39942","7.907","320.0","12.32","318.2","NAN","NAN","NAN","NAN","NAN"],
    [1538953,"2026-01-31 21:10:00","39943","6.845","317.5","11.3","314.6","NAN","NAN","NAN","NAN","NAN"],
    [1538954,"2026-01-31 21:20:00","39944","6.891","318.1","11.11","323.5","NAN","NAN","NAN","NAN","NAN"],
    [1538955,"2026-01-31 21:30:00","39945","6.912000000000001","316.7","12.35","324.1","NAN","NAN","NAN","NAN","NAN"],
    [1538956,"2026-01-31 21:40:00","39946","6.584","316.0","12.35","318.2","NAN","NAN","NAN","NAN","NAN"],
    [1538957,"2026-01-31 21:50:00","39947","5.767","313.8","10.62","312.5","NAN","NAN","NAN","NAN","NAN"],
    [1538958,"2026-01-31 22:00:00","39948","6.492999999999999","315.8","10.85","306.3","NAN","NAN","NAN","NAN","NAN"],
    [1538959,"2026-01-31 22:10:00","39949","5.547000000000001","317.2","10.88","315.3","NAN","NAN","NAN","NAN","NAN"],
    [1538960,"2026-01-31 22:20:00","39950","6.064","317.5","10","331.3","NAN","NAN","NAN","NAN","NAN"],
    [1538961,"2026-01-31 22:30:00","39951","6.125","316.4","10.39","313.7","NAN","NAN","NAN","NAN","NAN"],
    [1538962,"2026-01-31 22:40:00","39952","5.756","313.9","10.85","299.5","NAN","NAN","NAN","NAN","NAN"],
    [1538963,"2026-01-31 22:50:00","39953","5.644","316.6","10.65","319.9","NAN","NAN","NAN","NAN","NAN"],
    [1538964,"2026-01-31 23:00:00","39954","5.468999999999999","313.2","9.54","334.4","NAN","NAN","NAN","NAN","NAN"],
    [1538965,"2026-01-31 23:10:00","39955","5.632999999999999","309.9","11.96","301.3","NAN","NAN","NAN","NAN","NAN"],
    [1538966,"2026-01-31 23:20:00","39956","5.9670000000000005","315.3","10.71","307.8","NAN","NAN","NAN","NAN","NAN"],
    [1538967,"2026-01-31 23:30:00","39957","6.065","318.1","10.75","307.4","NAN","NAN","NAN","NAN","NAN"],
    [1538968,"2026-01-31 23:40:00","39958","6.329","314.7","10.32","327.3","NAN","NAN","NAN","NAN","NAN"],
    [1538969,"2026-01-31 23:50:00","39959","5.643","310.7","9.96","305.6","NAN","NAN","NAN","NAN","NAN"],
    [1538970,"2026-02-01 00:00:00","39960","6.591","308.3","11.73","298.6","NAN","NAN","NAN","NAN","NAN"],
    [1538971,"2026-02-01 00:10:00","39961","6.438","311.6","11.92","320.4","NAN","NAN","NAN","NAN","NAN"],
    [1538972,"2026-02-01 00:20:00","39962","4.9239999999999995","317.5","9.54","325.8","NAN","NAN","NAN","NAN","NAN"],
    [1538973,"2026-02-01 00:30:00","39963","5.61","317.1","10.88","311.6","NAN","NAN","NAN","NAN","NAN"],
    [1538974,"2026-02-01 00:40:00","39964","5.945","312.6","11.63","307.2","NAN","NAN","NAN","NAN","NAN"],
    [1538975,"2026-02-01 00:50:00","39965","6.816","308.1","12.35","311.2","NAN","NAN","NAN","NAN","NAN"],
    [1538976,"2026-02-01 01:00:00","39966","6.897","303.8","11.47","300.6","NAN","NAN","NAN","NAN","NAN"],
    [1538977,"2026-02-01 01:10:00","39967","7.268","309.0","11.2","308","NAN","NAN","NAN","NAN","NAN"],
    [1538978,"2026-02-01 01:20:00","39968","6.295","309.0","10.68","305.2","NAN","NAN","NAN","NAN","NAN"],
    [1538979,"2026-02-01 01:30:00","39969","6.772","313.8","11.6","304.8","NAN","NAN","NAN","NAN","NAN"],
    [1538980,"2026-02-01 01:40:00","39970","5.985","312.3","10.88","319.9","NAN","NAN","NAN","NAN","NAN"],
    [1538981,"2026-02-01 01:50:00","39971","6.8629999999999995","308.7","11.76","321.8","NAN","NAN","NAN","NAN","NAN"],
    [1538982,"2026-02-01 02:00:00","39972","6.252999999999999","319.1","10.39","320.7","NAN","NAN","NAN","NAN","NAN"],
    [1538983,"2026-02-01 02:10:00","39973","7.242000000000001","319.9","13.3","318.3","NAN","NAN","NAN","NAN","NAN"],
    [1538984,"2026-02-01 02:20:00","39974","6.433","319.0","11.79","312.6","NAN","NAN","NAN","NAN","NAN"],
    [1538985,"2026-02-01 02:30:00","39975","7.372000000000001","321.1","12.71","320.4","NAN","NAN","NAN","NAN","NAN"],
    [1538986,"2026-02-01 02:40:00","39976","7.14","322.8","11.53","305.6","NAN","NAN","NAN","NAN","NAN"],
    [1538987,"2026-02-01 02:50:00","39977","7.377999999999999","325.5","12.61","329.5","NAN","NAN","NAN","NAN","NAN"],
    [1538988,"2026-02-01 03:00:00","39978","6.212999999999999","322.0","11.11","318.9","NAN","NAN","NAN","NAN","NAN"],
    [1538989,"2026-02-01 03:10:00","39979","5.035","321.7","9.24","334.8","NAN","NAN","NAN","NAN","NAN"],
    [1538990,"2026-02-01 03:20:00","39980","5.667999999999999","323.0","10.62","345.3","NAN","NAN","NAN","NAN","NAN"],
    [1538991,"2026-02-01 03:30:00","39981","3.3489999999999998","287.5","9.64","321.1","NAN","NAN","NAN","NAN","NAN"],
    [1538992,"2026-02-01 03:40:00","39982","1.0290000000000001","246.7","3.659","260.1","NAN","NAN","NAN","NAN","NAN"],
    [1538993,"2026-02-01 03:50:00","39983","0.534","233.8","4.083","261.9","NAN","NAN","NAN","NAN","NAN"],
    [1538994,"2026-02-01 04:00:00","39984","5.818","285.2","10.62","304.2","NAN","NAN","NAN","NAN","NAN"],
    [1538995,"2026-02-01 04:10:00","39985","6.1370000000000005","321.9","10.58","325.3","NAN","NAN","NAN","NAN","NAN"],
    [1538996,"2026-02-01 04:20:00","39986","3.495","316.4","7.775","335.3","NAN","NAN","NAN","NAN","NAN"],
    [1538997,"2026-02-01 04:30:00","39987","2.356","299.0","5.161","337.1","NAN","NAN","NAN","NAN","NAN"],
    [1538998,"2026-02-01 04:40:00","39988","6.367999999999999","330.1","9.18","336.1","NAN","NAN","NAN","NAN","NAN"],
    [1538999,"2026-02-01 04:50:00","39989","6.409","327.8","9.15","330.2","NAN","NAN","NAN","NAN","NAN"],
    [1539000,"2026-02-01 05:00:00","39990","4.091","319.6","7.121","336.5","NAN","NAN","NAN","NAN","NAN"],
    [1539001,"2026-02-01 05:10:00","39991","2.182","311.4","5.259","330.9","NAN","NAN","NAN","NAN","NAN"],
    [1539002,"2026-02-01 05:20:00","39992","2.519","321.0","5.553","338.4","NAN","NAN","NAN","NAN","NAN"],
    [1539003,"2026-02-01 05:30:00","39993","2.395","314.8","4.9","312","NAN","NAN","NAN","NAN","NAN"],
    [1539004,"2026-02-01 05:40:00","39994","2.457","274.9","5.194","257.1","NAN","NAN","NAN","NAN","NAN"],
    [1539005,"2026-02-01 05:50:00","39995","4.173","277.4","6.207","274.2","NAN","NAN","NAN","NAN","NAN"],
    [1539006,"2026-02-01 06:00:00","39996","4.046","295.1","6.076","295.2","NAN","NAN","NAN","NAN","NAN"],
    [1539007,"2026-02-01 06:10:00","39997","3.557","291.4","5.031","293.8","NAN","NAN","NAN","NAN","NAN"],
    [1539008,"2026-02-01 06:20:00","39998","4.1","300.5","6.174","302.6","NAN","NAN","NAN","NAN","NAN"],
    [1539009,"2026-02-01 06:30:00","39999","2.585","291.0","4.508","304.1","NAN","NAN","NAN","NAN","NAN"],
    [1539010,"2026-02-01 06:40:00","40000","2.812","290.1","4.312","295.4","NAN","NAN","NAN","NAN","NAN"],
    [1539011,"2026-02-01 06:50:00","40001","2.8289999999999997","294.1","4.867","291","NAN","NAN","NAN","NAN","NAN"],
    [1539012,"2026-02-01 07:00:00","40002","1.5390000000000001","302.0","3.071","293.3","NAN","NAN","NAN","NAN","NAN"],
    [1539013,"2026-02-01 07:10:00","40003","2.1830000000000003","299.8","4.214","291.2","NAN","NAN","NAN","NAN","NAN"],
    [1539014,"2026-02-01 07:20:00","40004","1.385","303.1","2.744","307.4","NAN","NAN","NAN","NAN","NAN"],
    [1539015,"2026-02-01 07:30:00","40005","2.292","299.4","3.789","294.1","NAN","NAN","NAN","NAN","NAN"],
    [1539016,"2026-02-01 07:40:00","40006","0.94","297.5","2.091","297.9","NAN","NAN","NAN","NAN","NAN"],
    [1539017,"2026-02-01 07:50:00","40007","0.317","291.5","1.372","291.2","NAN","NAN","NAN","NAN","NAN"],
    [1539018,"2026-02-01 08:00:00","40008","1.013","287.2","3.038","288.4","NAN","NAN","NAN","NAN","NAN"],
    [1539019,"2026-02-01 08:10:00","40009","1.695","287.6","3.071","288.7","NAN","NAN","NAN","NAN","NAN"],
    [1539020,"2026-02-01 08:20:00","40010","2.456","293.4","4.9","306.5","NAN","NAN","NAN","NAN","NAN"],
    [1539021,"2026-02-01 08:30:00","40011","2.905","286.6","5.161","305.3","NAN","NAN","NAN","NAN","NAN"],
    [1539022,"2026-02-01 08:40:00","40012","3.53","294.5","5.357","292.2","NAN","NAN","NAN","NAN","NAN"],
    [1539023,"2026-02-01 08:50:00","40013","2.9539999999999997","280.7","4.704","277.6","NAN","NAN","NAN","NAN","NAN"],
    [1539024,"2026-02-01 09:00:00","40014","3.1460000000000004","284.5","5.619","292","NAN","NAN","NAN","NAN","NAN"],
    [1539025,"2026-02-01 09:10:00","40015","2.766","284.7","4.965","286.2","NAN","NAN","NAN","NAN","NAN"],
    [1539026,"2026-02-01 09:20:00","40016","3.361","284.8","5.815","271.1","NAN","NAN","NAN","NAN","NAN"],
    [1539027,"2026-02-01 09:30:00","40017","2.971","296.9","4.704","294.5","NAN","NAN","NAN","NAN","NAN"],
    [1539028,"2026-02-01 09:40:00","40018","2.8289999999999997","286.3","4.9","302.7","NAN","NAN","NAN","NAN","NAN"],
    [1539029,"2026-02-01 09:50:00","40019","3.346","282.1","5.39","277.3","NAN","NAN","NAN","NAN","NAN"],
    [1539030,"2026-02-01 10:00:00","40020","3.778","283.9","6.207","278","NAN","NAN","NAN","NAN","NAN"],
    [1539031,"2026-02-01 10:10:00","40021","3.511","286.0","5.325","298.8","NAN","NAN","NAN","NAN","NAN"],
    [1539032,"2026-02-01 10:20:00","40022","3.911","291.2","5.88","293.3","NAN","NAN","NAN","NAN","NAN"],
    [1539033,"2026-02-01 10:30:00","40023","4.056","295.9","6.37","306.1","NAN","NAN","NAN","NAN","NAN"],
    [1539034,"2026-02-01 10:40:00","40024","4.457","295.6","7.121","294.2","NAN","NAN","NAN","NAN","NAN"],
    [1539035,"2026-02-01 10:50:00","40025","3.9330000000000003","294.6","6.043","301.6","NAN","NAN","NAN","NAN","NAN"],
    [1539036,"2026-02-01 11:00:00","40026","4.229","301.4","6.86","299.3","NAN","NAN","NAN","NAN","NAN"],
    [1539037,"2026-02-01 11:10:00","40027","3.842","289.8","6.795","295.8","NAN","NAN","NAN","NAN","NAN"],
    [1539038,"2026-02-01 11:20:00","40028","3.5010000000000003","285.0","6.239","281.6","NAN","NAN","NAN","NAN","NAN"],
    [1539039,"2026-02-01 11:30:00","40029","3.373","285.9","5.357","286.1","NAN","NAN","NAN","NAN","NAN"],
    [1539040,"2026-02-01 11:40:00","40030","3.951","280.7","6.37","292.9","NAN","NAN","NAN","NAN","NAN"],
    [1539041,"2026-02-01 11:50:00","40031","2.91","291.6","4.965","284.2","NAN","NAN","NAN","NAN","NAN"],
    [1539042,"2026-02-01 12:00:00","40032","3.135","304.3","5.161","321.6","NAN","NAN","NAN","NAN","NAN"],
    [1539043,"2026-02-01 12:10:00","40033","3.0380000000000003","304.8","4.573","307.5","NAN","NAN","NAN","NAN","NAN"],
    [1539044,"2026-02-01 12:20:00","40034","2.884","302.9","4.998","309","NAN","NAN","NAN","NAN","NAN"],
    [1539045,"2026-02-01 12:30:00","40035","3.049","296.6","4.998","302.6","NAN","NAN","NAN","NAN","NAN"],
    [1539046,"2026-02-01 12:40:00","40036","2.824","299.9","4.867","317.1","NAN","NAN","NAN","NAN","NAN"],
    [1539047,"2026-02-01 12:50:00","40037","2.661","281.5","4.769","259","NAN","NAN","NAN","NAN","NAN"],
    [1539048,"2026-02-01 13:00:00","40038","2.781","264.4","4.9","258.7","NAN","NAN","NAN","NAN","NAN"],
    [1539049,"2026-02-01 13:10:00","40039","2.717","241.8","4.639","231.2","NAN","NAN","NAN","NAN","NAN"],
    [1539050,"2026-02-01 13:20:00","40040","2.34","232.0","4.41","210.1","NAN","NAN","NAN","NAN","NAN"],
    [1539051,"2026-02-01 13:30:00","40041","2.752","221.4","5.325","213","NAN","NAN","NAN","NAN","NAN"],
    [1539052,"2026-02-01 13:40:00","40042","2.866","208.3","5.913","212.1","NAN","NAN","NAN","NAN","NAN"],
    [1539053,"2026-02-01 13:50:00","40043","3.2910000000000004","201.4","5.521","210.4","NAN","NAN","NAN","NAN","NAN"],
    [1539054,"2026-02-01 14:00:00","40044","3.175","204.7","4.998","205.3","NAN","NAN","NAN","NAN","NAN"],
    [1539055,"2026-02-01 14:10:00","40045","2.696","204.5","5.325","220.4","NAN","NAN","NAN","NAN","NAN"],
    [1539056,"2026-02-01 14:20:00","40046","3.134","205.4","5.227","200.4","NAN","NAN","NAN","NAN","NAN"],
    [1539057,"2026-02-01 14:30:00","40047","3.2710000000000004","205.6","5.161","210.3","NAN","NAN","NAN","NAN","NAN"],
    [1539058,"2026-02-01 14:40:00","40048","3.287","202.5","6.272","206.4","NAN","NAN","NAN","NAN","NAN"],
    [1539059,"2026-02-01 14:50:00","40049","3.6889999999999996","210.3","5.847","209.4","NAN","NAN","NAN","NAN","NAN"],
    [1539060,"2026-02-01 15:00:00","40050","2.336","220.6","4.279","229.4","NAN","NAN","NAN","NAN","NAN"],
    [1539061,"2026-02-01 15:10:00","40051","3.003","222.7","5.945","224.4","NAN","NAN","NAN","NAN","NAN"],
    [1539062,"2026-02-01 15:20:00","40052","3.2560000000000002","249.2","5.586","245.9","NAN","NAN","NAN","NAN","NAN"],
    [1539063,"2026-02-01 15:30:00","40053","2.674","256.7","4.181","262.8","NAN","NAN","NAN","NAN","NAN"],
    [1539064,"2026-02-01 15:40:00","40054","3.562","258.1","5.651","251.4","NAN","NAN","NAN","NAN","NAN"],
    [1539065,"2026-02-01 15:50:00","40055","3.76","272.9","6.109","266.6","NAN","NAN","NAN","NAN","NAN"],
    [1539066,"2026-02-01 16:00:00","40056","4.194","272.4","7.383","291.1","NAN","NAN","NAN","NAN","NAN"],
    [1539067,"2026-02-01 16:10:00","40057","3.945","283.4","6.631","278.8","NAN","NAN","NAN","NAN","NAN"],
    [1539068,"2026-02-01 16:20:00","40058","3.178","298.4","5.651","315","NAN","NAN","NAN","NAN","NAN"],
    [1539069,"2026-02-01 16:30:00","40059","3.0","302.0","5.357","304.2","NAN","NAN","NAN","NAN","NAN"],
    [1539070,"2026-02-01 16:40:00","40060","2.204","298.5","4.181","308.4","NAN","NAN","NAN","NAN","NAN"],
    [1539071,"2026-02-01 16:50:00","40061","2.136","285.2","3.691","300.3","NAN","NAN","NAN","NAN","NAN"],
    [1539072,"2026-02-01 17:00:00","40062","1.879","282.2","3.463","296.3","NAN","NAN","NAN","NAN","NAN"],
    [1539073,"2026-02-01 17:10:00","40063","1.51","278.1","2.875","277.1","NAN","NAN","NAN","NAN","NAN"],
    [1539074,"2026-02-01 17:20:00","40064","1.39","281.9","2.679","281.9","NAN","NAN","NAN","NAN","NAN"],
    [1539075,"2026-02-01 17:30:00","40065","1.925","278.4","4.41","276.1","NAN","NAN","NAN","NAN","NAN"],
    [1539076,"2026-02-01 17:40:00","40066","2.113","277.9","3.463","271.4","NAN","NAN","NAN","NAN","NAN"],
    [1539077,"2026-02-01 17:50:00","40067","2.2030000000000003","274.1","3.626","277.6","NAN","NAN","NAN","NAN","NAN"],
    [1539078,"2026-02-01 18:00:00","40068","1.639","277.7","2.777","275.3","NAN","NAN","NAN","NAN","NAN"],
    [1539079,"2026-02-01 18:10:00","40069","1.2790000000000001","281.6","2.777","279.7","NAN","NAN","NAN","NAN","NAN"],
    [1539080,"2026-02-01 18:20:00","40070","1.121","285.0","2.025","285.1","NAN","NAN","NAN","NAN","NAN"],
    [1539081,"2026-02-01 18:30:00","40071","0.7290000000000001","280.3","2.319","286","NAN","NAN","NAN","NAN","NAN"],
    [1539082,"2026-02-01 18:40:00","40072","0.795","270.4","2.156","268.4","NAN","NAN","NAN","NAN","NAN"],
    [1539083,"2026-02-01 18:50:00","40073","0.067","268.6","1.274","268.4","NAN","NAN","NAN","NAN","NAN"],
    [1539084,"2026-02-01 19:00:00","40074","0.39299999999999996","268.5","1.437","268.5","NAN","NAN","NAN","NAN","NAN"],
    [1539085,"2026-02-01 19:10:00","40075","0.0","0.0","0","0","NAN","NAN","NAN","NAN","NAN"],
    [1539086,"2026-02-01 19:20:00","40076","0.0","0.0","0","0","NAN","NAN","NAN","NAN","NAN"],
    [1539087,"2026-02-01 19:30:00","40077","0.0","0.0","0","0","NAN","NAN","NAN","NAN","NAN"],
    [1539088,"2026-02-01 19:40:00","40078","0.0","0.0","0","0","NAN","NAN","NAN","NAN","NAN"],
    [1539089,"2026-02-01 19:50:00","40079","0.0","0.0","0","0","NAN","NAN","NAN","NAN","NAN"],
    [1539090,"2026-02-01 20:00:00","40080","0.623","278.6","1.601","278.3","NAN","NAN","NAN","NAN","NAN"],
    [1539091,"2026-02-01 20:10:00","40081","1.162","274.8","1.993","268.4","NAN","NAN","NAN","NAN","NAN"],
    [1539092,"2026-02-01 20:20:00","40082","1.548","274.6","3.169","265.9","NAN","NAN","NAN","NAN","NAN"],
    [1539093,"2026-02-01 20:30:00","40083","1.524","265.2","2.973","264","NAN","NAN","NAN","NAN","NAN"],
    [1539094,"2026-02-01 20:40:00","40084","1.123","270.7","1.895","269.5","NAN","NAN","NAN","NAN","NAN"],
    [1539095,"2026-02-01 20:50:00","40085","0.865","273.6","1.666","275.5","NAN","NAN","NAN","NAN","NAN"],
    [1539096,"2026-02-01 21:00:00","40086","0.764","270.1","1.339","267.7","NAN","NAN","NAN","NAN","NAN"],
    [1539097,"2026-02-01 21:10:00","40087","0.10300000000000001","264.5","0.947","264.2","NAN","NAN","NAN","NAN","NAN"],
    [1539098,"2026-02-01 21:20:00","40088","0.8059999999999999","274.6","1.699","277.4","NAN","NAN","NAN","NAN","NAN"],
    [1539099,"2026-02-01 21:30:00","40089","0.93","278.5","1.405","278.4","NAN","NAN","NAN","NAN","NAN"],
    [1539100,"2026-02-01 21:40:00","40090","1.364","266.4","2.156","269.3","NAN","NAN","NAN","NAN","NAN"],
    [1539101,"2026-02-01 21:50:00","40091","1.19","263.9","2.221","263.5","NAN","NAN","NAN","NAN","NAN"],
    [1539102,"2026-02-01 22:00:00","40092","0.9259999999999999","263.4","1.764","263.4","NAN","NAN","NAN","NAN","NAN"],
    [1539103,"2026-02-01 22:10:00","40093","1.349","269.1","2.352","278.7","NAN","NAN","NAN","NAN","NAN"],
    [1539104,"2026-02-01 22:20:00","40094","1.435","266.6","2.352","270.1","NAN","NAN","NAN","NAN","NAN"],
    [1539105,"2026-02-01 22:30:00","40095","0.9670000000000001","277.7","1.764","279.6","NAN","NAN","NAN","NAN","NAN"],
    [1539106,"2026-02-01 22:40:00","40096","0.355","279.4","1.633","278.7","NAN","NAN","NAN","NAN","NAN"],
    [1539107,"2026-02-01 22:50:00","40097","0.0","0.0","0","0","NAN","NAN","NAN","NAN","NAN"],
    [1539108,"2026-02-01 23:00:00","40098","0.0","0.0","0","0","NAN","NAN","NAN","NAN","NAN"],
    [1539109,"2026-02-01 23:10:00","40099","0.0","0.0","0","0","NAN","NAN","NAN","NAN","NAN"],
    [1539110,"2026-02-01 23:20:00","40100","0.0","0.0","0","0","NAN","NAN","NAN","NAN","NAN"],
    [1539111,"2026-02-01 23:30:00","40101","0.28600000000000003","270.9","1.045","269.9","NAN","NAN","NAN","NAN","NAN"],
    [1539112,"2026-02-01 23:40:00","40102","1.0290000000000001","267.2","1.96","263.6","NAN","NAN","NAN","NAN","NAN"],
    [1539113,"2026-02-01 23:50:00","40103","0.321","277.1","1.111","272.2","NAN","NAN","NAN","NAN","NAN"],
    [1539114,"2026-02-02 00:00:00","40104","0.106","279.4","1.045","279.4","NAN","NAN","NAN","NAN","NAN"],
    [1539115,"2026-02-02 00:10:00","40105","0.995","278.1","1.633","278.7","NAN","NAN","NAN","NAN","NAN"],
    [1539116,"2026-02-02 00:20:00","40106","0.8420000000000001","274.2","2.091","278.2","NAN","NAN","NAN","NAN","NAN"],
    [1539117,"2026-02-02 00:30:00","40107","1.251","276.5","2.091","278.2","NAN","NAN","NAN","NAN","NAN"],
    [1539118,"2026-02-02 00:40:00","40108","0.706","272.2","2.025","269.3","NAN","NAN","NAN","NAN","NAN"],
    [1539119,"2026-02-02 00:50:00","40109","0.28800000000000003","278.8","1.013","279","NAN","NAN","NAN","NAN","NAN"],
    [1539120,"2026-02-02 01:00:00","40110","0.0","0.0","0","0","NAN","NAN","NAN","NAN","NAN"],
    [1539121,"2026-02-02 01:10:00","40111","1.028","268.8","1.862","267.1","NAN","NAN","NAN","NAN","NAN"],
    [1539122,"2026-02-02 01:20:00","40112","1.5330000000000001","271.2","2.189","269.7","NAN","NAN","NAN","NAN","NAN"],
    [1539123,"2026-02-02 01:30:00","40113","0.855","279.0","2.156","279.4","NAN","NAN","NAN","NAN","NAN"],
    [1539124,"2026-02-02 01:40:00","40114","0.035","277.1","0.523","280.6","NAN","NAN","NAN","NAN","NAN"],
    [1539125,"2026-02-02 01:50:00","40115","0.992","277.1","1.895","275.8","NAN","NAN","NAN","NAN","NAN"],
    [1539126,"2026-02-02 02:00:00","40116","1.492","271.5","2.287","267.7","NAN","NAN","NAN","NAN","NAN"],
    [1539127,"2026-02-02 02:10:00","40117","1.656","276.7","2.646","279.1","NAN","NAN","NAN","NAN","NAN"],
    [1539128,"2026-02-02 02:20:00","40118","1.369","283.3","2.94","273.2","NAN","NAN","NAN","NAN","NAN"],
    [1539129,"2026-02-02 02:30:00","40119","1.202","273.4","2.156","269.1","NAN","NAN","NAN","NAN","NAN"],
    [1539130,"2026-02-02 02:40:00","40120","1.38","270.2","2.45","267.5","NAN","NAN","NAN","NAN","NAN"],
    [1539131,"2026-02-02 02:50:00","40121","0.875","267.6","1.699","267","NAN","NAN","NAN","NAN","NAN"],
    [1539132,"2026-02-02 03:00:00","40122","0.9470000000000001","268.9","1.829","266.9","NAN","NAN","NAN","NAN","NAN"],
    [1539133,"2026-02-02 03:10:00","40123","0.485","281.3","1.535","282.6","NAN","NAN","NAN","NAN","NAN"],
    [1539134,"2026-02-02 03:20:00","40124","0.146","278.1","0.947","276.7","NAN","NAN","NAN","NAN","NAN"],
    [1539135,"2026-02-02 03:30:00","40125","0.10300000000000001","269.2","0.849","268.2","NAN","NAN","NAN","NAN","NAN"],
    [1539136,"2026-02-02 03:40:00","40126","0.6779999999999999","267.1","1.143","266.9","NAN","NAN","NAN","NAN","NAN"],
    [1539137,"2026-02-02 03:50:00","40127","1.0590000000000002","266.9","1.666","266.8","NAN","NAN","NAN","NAN","NAN"],
    [1539138,"2026-02-02 04:00:00","40128","0.963","272.5","1.96","276","NAN","NAN","NAN","NAN","NAN"],
    [1539139,"2026-02-02 04:10:00","40129","0.331","280.7","1.405","282.6","NAN","NAN","NAN","NAN","NAN"],
    [1539140,"2026-02-02 04:20:00","40130","0.21100000000000002","282.5","1.111","280.9","NAN","NAN","NAN","NAN","NAN"],
    [1539141,"2026-02-02 04:30:00","40131","0.44","282.9","1.143","279.9","NAN","NAN","NAN","NAN","NAN"],
    [1539142,"2026-02-02 04:40:00","40132","0.5760000000000001","272.6","1.241","275.1","NAN","NAN","NAN","NAN","NAN"],
    [1539143,"2026-02-02 04:50:00","40133","1.0270000000000001","273.7","2.646","275.5","NAN","NAN","NAN","NAN","NAN"],
    [1539144,"2026-02-02 05:00:00","40134","2.066","275.0","3.234","275.4","NAN","NAN","NAN","NAN","NAN"],
    [1539145,"2026-02-02 05:10:00","40135","1.99","288.5","3.299","294.5","NAN","NAN","NAN","NAN","NAN"],
    [1539146,"2026-02-02 05:20:00","40136","1.306","294.6","2.45","295.6","NAN","NAN","NAN","NAN","NAN"],
    [1539147,"2026-02-02 05:30:00","40137","1.051","294.7","2.548","296.4","NAN","NAN","NAN","NAN","NAN"],
    [1539148,"2026-02-02 05:40:00","40138","0.8220000000000001","293.6","1.96","296.3","NAN","NAN","NAN","NAN","NAN"],
    [1539149,"2026-02-02 05:50:00","40139","1.262","288.0","2.744","280","NAN","NAN","NAN","NAN","NAN"],
    [1539150,"2026-02-02 06:00:00","40140","0.573","288.3","1.503","279.6","NAN","NAN","NAN","NAN","NAN"],
    [1539151,"2026-02-02 06:10:00","40141","0.9329999999999999","286.2","2.515","290.7","NAN","NAN","NAN","NAN","NAN"],
    [1539152,"2026-02-02 06:20:00","40142","1.837","290.0","4.214","300.8","NAN","NAN","NAN","NAN","NAN"],
    [1539153,"2026-02-02 06:30:00","40143","1.197","304.4","2.319","306.2","NAN","NAN","NAN","NAN","NAN"],
    [1539154,"2026-02-02 06:40:00","40144","1.214","299.6","2.907","295.6","NAN","NAN","NAN","NAN","NAN"],
    [1539155,"2026-02-02 06:50:00","40145","0.222","292.9","1.503","297.8","NAN","NAN","NAN","NAN","NAN"],
    [1539156,"2026-02-02 07:00:00","40146","0.7440000000000001","295.2","2.025","291","NAN","NAN","NAN","NAN","NAN"],
    [1539157,"2026-02-02 07:10:00","40147","0.7659999999999999","290.2","2.287","290.8","NAN","NAN","NAN","NAN","NAN"],
    [1539158,"2026-02-02 07:20:00","40148","0.034","290.1","0.751","290.1","NAN","NAN","NAN","NAN","NAN"],
    [1539159,"2026-02-02 07:30:00","40149","0.21899999999999997","289.8","1.111","289.8","NAN","NAN","NAN","NAN","NAN"],
    [1539160,"2026-02-02 07:40:00","40150","1.112","289.2","2.254","289.1","NAN","NAN","NAN","NAN","NAN"],
    [1539161,"2026-02-02 07:50:00","40151","2.276","291.1","3.659","287.9","NAN","NAN","NAN","NAN","NAN"],
    [1539162,"2026-02-02 08:00:00","40152","1.1179999999999999","295.1","2.809","291.4","NAN","NAN","NAN","NAN","NAN"],
    [1539163,"2026-02-02 08:10:00","40153","0.106","302.9","0.947","303","NAN","NAN","NAN","NAN","NAN"],
    [1539164,"2026-02-02 08:20:00","40154","0.16","304.0","1.045","304.1","NAN","NAN","NAN","NAN","NAN"],
    [1539165,"2026-02-02 08:30:00","40155","0.065","303.6","0.882","304.1","NAN","NAN","NAN","NAN","NAN"],
    [1539166,"2026-02-02 08:40:00","40156","0.024","302.0","0.555","301.8","NAN","NAN","NAN","NAN","NAN"],
    [1539167,"2026-02-02 08:50:00","40157","0.0","0.0","0","0","NAN","NAN","NAN","NAN","NAN"],
    [1539168,"2026-02-02 09:00:00","40158","0.0","0.0","0","0","NAN","NAN","NAN","NAN","NAN"],
    [1539169,"2026-02-02 09:10:00","40159","0.312","296.5","1.307","296.7","NAN","NAN","NAN","NAN","NAN"],
    [1539170,"2026-02-02 09:20:00","40160","0.003","293.6","0.261","293.7","NAN","NAN","NAN","NAN","NAN"],
    [1539171,"2026-02-02 09:30:00","40161","0.015","293.3","0.425","293.5","NAN","NAN","NAN","NAN","NAN"],
    [1539172,"2026-02-02 09:40:00","40162","0.818","288.4","2.417","286.8","NAN","NAN","NAN","NAN","NAN"],
    [1539173,"2026-02-02 09:50:00","40163","1.151","286.6","2.091","286.7","NAN","NAN","NAN","NAN","NAN"],
    [1539174,"2026-02-02 10:00:00","40164","1.598","283.8","3.626","284.4","NAN","NAN","NAN","NAN","NAN"],
    [1539175,"2026-02-02 10:10:00","40165","2.168","298.2","3.659","288.8","NAN","NAN","NAN","NAN","NAN"],
    [1539176,"2026-02-02 10:20:00","40166","1.5830000000000002","301.3","3.234","310.6","NAN","NAN","NAN","NAN","NAN"],
    [1539177,"2026-02-02 10:30:00","40167","0.865","303.0","1.829","300.4","NAN","NAN","NAN","NAN","NAN"],
    [1539178,"2026-02-02 10:40:00","40168","0.665","301.3","1.274","294.3","NAN","NAN","NAN","NAN","NAN"],
    [1539179,"2026-02-02 10:50:00","40169","0.745","299.7","1.372","304.9","NAN","NAN","NAN","NAN","NAN"],
    [1539180,"2026-02-02 11:00:00","40170","0.17","294.0","1.209","293.6","NAN","NAN","NAN","NAN","NAN"],
    [1539181,"2026-02-02 11:10:00","40171","0.65","294.4","1.731","292.9","NAN","NAN","NAN","NAN","NAN"],
    [1539182,"2026-02-02 11:20:00","40172","0.5820000000000001","291.3","1.47","291.1","NAN","NAN","NAN","NAN","NAN"],
    [1539183,"2026-02-02 11:30:00","40173","0.28300000000000003","290.7","1.209","290.7","NAN","NAN","NAN","NAN","NAN"],
    [1539184,"2026-02-02 11:40:00","40174","0.225","290.8","1.045","290.7","NAN","NAN","NAN","NAN","NAN"],
    [1539185,"2026-02-02 11:50:00","40175","0.037000000000000005","290.8","0.457","290.8","NAN","NAN","NAN","NAN","NAN"],
    [1539186,"2026-02-02 12:00:00","40176","0.006999999999999999","296.1","0.327","296.6","NAN","NAN","NAN","NAN","NAN"],
    [1539187,"2026-02-02 12:10:00","40177","0.31","304.3","1.045","305.4","NAN","NAN","NAN","NAN","NAN"],
    [1539188,"2026-02-02 12:20:00","40178","0.006999999999999999","306.5","0.327","306.5","NAN","NAN","NAN","NAN","NAN"],
    [1539189,"2026-02-02 12:30:00","40179","0.006999999999999999","308.5","0.425","308.4","NAN","NAN","NAN","NAN","NAN"],
    [1539190,"2026-02-02 12:40:00","40180","0.013999999999999999","309.3","0.359","309.3","NAN","NAN","NAN","NAN","NAN"],
    [1539191,"2026-02-02 12:50:00","40181","0.0","310.0","0.033","310","NAN","NAN","NAN","NAN","NAN"],
    [1539192,"2026-02-02 13:00:00","40182","0.0","310.5","0.033","310.5","NAN","NAN","NAN","NAN","NAN"],
    [1539193,"2026-02-02 13:10:00","40183","0.016","310.5","0.653","310.6","NAN","NAN","NAN","NAN","NAN"],
    [1539194,"2026-02-02 13:20:00","40184","0.805","310.8","1.633","310.7","NAN","NAN","NAN","NAN","NAN"],
    [1539195,"2026-02-02 13:30:00","40185","0.408","311.8","1.437","311.2","NAN","NAN","NAN","NAN","NAN"],
    [1539196,"2026-02-02 13:40:00","40186","0.376","308.5","1.633","294.4","NAN","NAN","NAN","NAN","NAN"],
    [1539197,"2026-02-02 13:50:00","40187","0.449","313.4","1.274","313.2","NAN","NAN","NAN","NAN","NAN"],
    [1539198,"2026-02-02 14:00:00","40188","0.127","313.9","0.784","314","NAN","NAN","NAN","NAN","NAN"],
    [1539199,"2026-02-02 14:10:00","40189","0.0","313.9","0.098","313.9","NAN","NAN","NAN","NAN","NAN"],
    [1539200,"2026-02-02 14:20:00","40190","0.298","303.5","1.699","293.9","NAN","NAN","NAN","NAN","NAN"],
    [1539201,"2026-02-02 14:30:00","40191","0.0","0.0","0","0","NAN","NAN","NAN","NAN","NAN"],
    [1539202,"2026-02-02 14:40:00","40192","0.052000000000000005","310.2","1.307","308.3","NAN","NAN","NAN","NAN","NAN"],
    [1539203,"2026-02-02 14:50:00","40193","1.192","297.3","2.515","293.5","NAN","NAN","NAN","NAN","NAN"],
    [1539204,"2026-02-02 15:00:00","40194","0.256","307.6","1.535","298.5","NAN","NAN","NAN","NAN","NAN"],
    [1539205,"2026-02-02 15:10:00","40195","0.0","0.0","0","0","NAN","NAN","NAN","NAN","NAN"],
    [1539206,"2026-02-02 15:20:00","40196","0.0","313.3","0.033","313.3","NAN","NAN","NAN","NAN","NAN"],
    [1539207,"2026-02-02 15:30:00","40197","0.109","313.6","0.882","313.6","NAN","NAN","NAN","NAN","NAN"],
    [1539208,"2026-02-02 15:40:00","40198","0.0","0.0","0","0","NAN","NAN","NAN","NAN","NAN"],
    [1539209,"2026-02-02 15:50:00","40199","0.0","0.0","0","0","NAN","NAN","NAN","NAN","NAN"],
    [1539210,"2026-02-02 16:00:00","40200","0.0","0.0","0","0","NAN","NAN","NAN","NAN","NAN"],
    [1539211,"2026-02-02 16:10:00","40201","0.0","0.0","0","0","NAN","NAN","NAN","NAN","NAN"],
    [1539212,"2026-02-02 16:20:00","40202","0.0","0.0","0","0","NAN","NAN","NAN","NAN","NAN"],
    [1539213,"2026-02-02 16:30:00","40203","0.068","313.6","0.686","313.6","NAN","NAN","NAN","NAN","NAN"],
    [1539214,"2026-02-02 16:40:00","40204","0.138","313.0","0.621","311.7","NAN","NAN","NAN","NAN","NAN"],
    [1539215,"2026-02-02 16:50:00","40205","0.146","296.5","1.601","298","NAN","NAN","NAN","NAN","NAN"],
    [1539216,"2026-02-02 17:00:00","40206","0.032","290.7","0.555","290.5","NAN","NAN","NAN","NAN","NAN"],
    [1539217,"2026-02-02 17:10:00","40207","0.021","290.7","0.359","291.4","NAN","NAN","NAN","NAN","NAN"],
    [1539218,"2026-02-02 17:20:00","40208","0.0","0.0","0","0","NAN","NAN","NAN","NAN","NAN"],
    [1539219,"2026-02-02 17:30:00","40209","0.052000000000000005","292.6","0.719","292.7","NAN","NAN","NAN","NAN","NAN"],
    [1539220,"2026-02-02 17:40:00","40210","0.379","303.5","1.209","304.8","NAN","NAN","NAN","NAN","NAN"],
    [1539221,"2026-02-02 17:50:00","40211","0.0","0.0","0","0","NAN","NAN","NAN","NAN","NAN"],
    [1539222,"2026-02-02 18:00:00","40212","0.135","294.8","1.535","289.9","NAN","NAN","NAN","NAN","NAN"],
    [1539223,"2026-02-02 18:10:00","40213","0.621","291.3","1.47","291.4","NAN","NAN","NAN","NAN","NAN"],
    [1539224,"2026-02-02 18:20:00","40214","0.032","291.7","0.719","294.5","NAN","NAN","NAN","NAN","NAN"],
    [1539225,"2026-02-02 18:30:00","40215","0.371","287.6","1.862","287.5","NAN","NAN","NAN","NAN","NAN"],
    [1539226,"2026-02-02 18:40:00","40216","1.49","288.1","2.94","287","NAN","NAN","NAN","NAN","NAN"],
    [1539227,"2026-02-02 18:50:00","40217","1.4180000000000001","281.6","3.626","282.2","NAN","NAN","NAN","NAN","NAN"],
    [1539228,"2026-02-02 19:00:00","40218","0.81","281.0","1.829","281","NAN","NAN","NAN","NAN","NAN"],
    [1539229,"2026-02-02 19:10:00","40219","0.5870000000000001","281.0","1.568","281","NAN","NAN","NAN","NAN","NAN"],
    [1539230,"2026-02-02 19:20:00","40220","1.0070000000000001","279.6","2.058","279.2","NAN","NAN","NAN","NAN","NAN"],
    [1539231,"2026-02-02 19:30:00","40221","1.5530000000000002","280.4","2.548","278.4","NAN","NAN","NAN","NAN","NAN"],
    [1539232,"2026-02-02 19:40:00","40222","2.7460000000000004","261.1","4.639","250.4","NAN","NAN","NAN","NAN","NAN"],
    [1539233,"2026-02-02 19:50:00","40223","5.0889999999999995","264.5","10.68","264.4","NAN","NAN","NAN","NAN","NAN"],
    [1539234,"2026-02-02 20:00:00","40224","6.946000000000001","288.5","13.56","302.3","NAN","NAN","NAN","NAN","NAN"],
    [1539235,"2026-02-02 20:10:00","40225","5.149","280.3","10.88","278.3","NAN","NAN","NAN","NAN","NAN"],
    [1539236,"2026-02-02 20:20:00","40226","4.523","292.3","10.71","266.6","NAN","NAN","NAN","NAN","NAN"],
    [1539237,"2026-02-02 20:30:00","40227","5.059","273.1","9.83","288.6","NAN","NAN","NAN","NAN","NAN"],
    [1539238,"2026-02-02 20:40:00","40228","3.122","288.8","5.815","295.5","NAN","NAN","NAN","NAN","NAN"],
    [1539239,"2026-02-02 20:50:00","40229","3.301","255.7","5.325","253.3","NAN","NAN","NAN","NAN","NAN"],
    [1539240,"2026-02-02 21:00:00","40230","3.322","257.3","5.913","251.9","NAN","NAN","NAN","NAN","NAN"],
    [1539241,"2026-02-02 21:10:00","40231","1.883","273.1","3.169","263.8","NAN","NAN","NAN","NAN","NAN"],
    [1539242,"2026-02-02 21:20:00","40232","2.747","249.7","3.855","240","NAN","NAN","NAN","NAN","NAN"],
    [1539243,"2026-02-02 21:30:00","40233","3.352","247.9","4.704","259.7","NAN","NAN","NAN","NAN","NAN"],
    [1539244,"2026-02-02 21:40:00","40234","2.7439999999999998","255.8","5.129","245.7","NAN","NAN","NAN","NAN","NAN"],
    [1539245,"2026-02-02 21:50:00","40235","3.695","239.5","6.599","248","NAN","NAN","NAN","NAN","NAN"],
    [1539246,"2026-02-02 22:00:00","40236","4.0280000000000005","246.8","5.88","249.5","NAN","NAN","NAN","NAN","NAN"],
    [1539247,"2026-02-02 22:10:00","40237","3.8689999999999998","254.4","6.631","258","NAN","NAN","NAN","NAN","NAN"],
    [1539248,"2026-02-02 22:20:00","40238","2.944","261.4","4.9","255.5","NAN","NAN","NAN","NAN","NAN"],
    [1539249,"2026-02-02 22:30:00","40239","3.577","268.5","5.488","267.3","NAN","NAN","NAN","NAN","NAN"],
    [1539250,"2026-02-02 22:40:00","40240","3.042","263.2","4.933","264.4","NAN","NAN","NAN","NAN","NAN"],
    [1539251,"2026-02-02 22:50:00","40241","3.907","254.4","6.207","244.7","NAN","NAN","NAN","NAN","NAN"],
    [1539252,"2026-02-02 23:00:00","40242","3.8360000000000003","252.0","5.717","247.7","NAN","NAN","NAN","NAN","NAN"],
    [1539253,"2026-02-02 23:10:00","40243","3.8110000000000004","250.3","5.651","251.1","NAN","NAN","NAN","NAN","NAN"],
    [1539254,"2026-02-02 23:20:00","40244","4.215","250.6","6.043","246.3","NAN","NAN","NAN","NAN","NAN"],
    [1539255,"2026-02-02 23:30:00","40245","4.231","250.7","6.533","253.6","NAN","NAN","NAN","NAN","NAN"],
    [1539256,"2026-02-02 23:40:00","40246","5.13","250.8","10.94","245.8","NAN","NAN","NAN","NAN","NAN"],
    [1539257,"2026-02-02 23:50:00","40247","4.595","251.8","10.09","246.1","NAN","NAN","NAN","NAN","NAN"],
    [1539258,"2026-02-03 00:00:00","40248","4.087","253.2","5.782","251.2","NAN","NAN","NAN","NAN","NAN"],
    [1539259,"2026-02-03 00:10:00","40249","3.3960000000000004","259.3","5.815","267.8","NAN","NAN","NAN","NAN","NAN"],
    [1539260,"2026-02-03 00:20:00","40250","4.263999999999999","255.8","7.089","254.5","NAN","NAN","NAN","NAN","NAN"],
    [1539261,"2026-02-03 00:30:00","40251","4.663","248.9","6.991","250.7","NAN","NAN","NAN","NAN","NAN"],
    [1539262,"2026-02-03 00:40:00","40252","4.3469999999999995","249.9","7.056","247.7","NAN","NAN","NAN","NAN","NAN"],
    [1539263,"2026-02-03 00:50:00","40253","3.8539999999999996","252.8","5.684","255.4","NAN","NAN","NAN","NAN","NAN"],
    [1539264,"2026-02-03 01:00:00","40254","3.093","258.7","10.36","275.2","NAN","NAN","NAN","NAN","NAN"],
    [1539265,"2026-02-03 01:10:00","40255","4.791","261.7","9.96","269","NAN","NAN","NAN","NAN","NAN"],
    [1539266,"2026-02-03 01:20:00","40256","3.096","255.3","5.815","258.5","NAN","NAN","NAN","NAN","NAN"],
    [1539267,"2026-02-03 01:30:00","40257","3.0039999999999996","266.1","5.978","277","NAN","NAN","NAN","NAN","NAN"],
    [1539268,"2026-02-03 01:40:00","40258","3.455","270.1","5.684","270.5","NAN","NAN","NAN","NAN","NAN"],
    [1539269,"2026-02-03 01:50:00","40259","2.285","268.5","4.083","269.5","NAN","NAN","NAN","NAN","NAN"],
    [1539270,"2026-02-03 02:00:00","40260","2.3080000000000003","264.8","4.639","262.9","NAN","NAN","NAN","NAN","NAN"],
    [1539271,"2026-02-03 02:10:00","40261","0.87","284.9","2.679","280.8","NAN","NAN","NAN","NAN","NAN"],
    [1539272,"2026-02-03 02:20:00","40262","0.267","283.0","1.96","281.8","NAN","NAN","NAN","NAN","NAN"],
    [1539273,"2026-02-03 02:30:00","40263","0.02","275.4","0.392","277.1","NAN","NAN","NAN","NAN","NAN"],
    [1539274,"2026-02-03 02:40:00","40264","0.626","220.3","1.568","219.3","NAN","NAN","NAN","NAN","NAN"],
    [1539275,"2026-02-03 02:50:00","40265","0.003","218.1","0.359","218.1","NAN","NAN","NAN","NAN","NAN"],
    [1539276,"2026-02-03 03:00:00","40266","0.004","218.1","0.392","218.1","NAN","NAN","NAN","NAN","NAN"],
    [1539277,"2026-02-03 03:10:00","40267","0.055","218.2","0.588","218.2","NAN","NAN","NAN","NAN","NAN"],
    [1539278,"2026-02-03 03:20:00","40268","0.115","221.9","0.915","222.8","NAN","NAN","NAN","NAN","NAN"],
    [1539279,"2026-02-03 03:30:00","40269","0.0","0.0","0","0","NAN","NAN","NAN","NAN","NAN"],
    [1539280,"2026-02-03 03:40:00","40270","0.01","238.3","0.392","238.4","NAN","NAN","NAN","NAN","NAN"],
    [1539281,"2026-02-03 03:50:00","40271","0.001","239.2","0.163","239.2","NAN","NAN","NAN","NAN","NAN"],
    [1539282,"2026-02-03 04:00:00","40272","0.0","0.0","0","0","NAN","NAN","NAN","NAN","NAN"],
    [1539283,"2026-02-03 04:10:00","40273","0.45799999999999996","224.8","2.058","223.7","NAN","NAN","NAN","NAN","NAN"],
    [1539284,"2026-02-03 04:20:00","40274","0.38299999999999995","225.7","1.797","217.8","NAN","NAN","NAN","NAN","NAN"],
    [1539285,"2026-02-03 04:30:00","40275","0.076","239.6","0.784","239.4","NAN","NAN","NAN","NAN","NAN"],
    [1539286,"2026-02-03 04:40:00","40276","0.061","239.9","0.686","239.9","NAN","NAN","NAN","NAN","NAN"],
    [1539287,"2026-02-03 04:50:00","40277","0.079","241.4","1.013","241.3","NAN","NAN","NAN","NAN","NAN"],
    [1539288,"2026-02-03 05:00:00","40278","0.003","241.4","0.261","241.4","NAN","NAN","NAN","NAN","NAN"],
    [1539289,"2026-02-03 05:10:00","40279","0.0","0.0","0","0","NAN","NAN","NAN","NAN","NAN"],
    [1539290,"2026-02-03 05:20:00","40280","0.0","0.0","0","0","NAN","NAN","NAN","NAN","NAN"],
    [1539291,"2026-02-03 05:30:00","40281","0.034","241.3","0.849","241.3","NAN","NAN","NAN","NAN","NAN"],
    [1539292,"2026-02-03 05:40:00","40282","0.006","241.3","0.49","241.3","NAN","NAN","NAN","NAN","NAN"],
    [1539293,"2026-02-03 05:50:00","40283","0.0","0.0","0","0","NAN","NAN","NAN","NAN","NAN"],
    [1539294,"2026-02-03 06:00:00","40284","0.0","0.0","0","0","NAN","NAN","NAN","NAN","NAN"],
    [1539295,"2026-02-03 06:10:00","40285","0.023","240.9","0.686","240.6","NAN","NAN","NAN","NAN","NAN"],
    [1539296,"2026-02-03 06:20:00","40286","0.003","241.4","0.196","241.4","NAN","NAN","NAN","NAN","NAN"],
    [1539297,"2026-02-03 06:30:00","40287","0.0","0.0","0","0","NAN","NAN","NAN","NAN","NAN"],
    [1539298,"2026-02-03 06:40:00","40288","0.0","0.0","0","0","NAN","NAN","NAN","NAN","NAN"],
    [1539299,"2026-02-03 06:50:00","40289","0.0","0.0","0","0","NAN","NAN","NAN","NAN","NAN"],
    [1539300,"2026-02-03 07:00:00","40290","0.011000000000000001","240.4","0.555","241.3","NAN","NAN","NAN","NAN","NAN"],
    [1539301,"2026-02-03 07:10:00","40291","0.26899999999999996","241.3","1.372","241.4","NAN","NAN","NAN","NAN","NAN"],
    [1539302,"2026-02-03 07:20:00","40292","0.34600000000000003","241.4","1.372","241.4","NAN","NAN","NAN","NAN","NAN"],
    [1539303,"2026-02-03 07:30:00","40293","0.03","241.5","0.882","241.5","NAN","NAN","NAN","NAN","NAN"],
    [1539304,"2026-02-03 07:40:00","40294","0.057999999999999996","241.6","0.686","241.6","NAN","NAN","NAN","NAN","NAN"],
    [1539305,"2026-02-03 07:50:00","40295","0.24","241.6","0.947","241.6","NAN","NAN","NAN","NAN","NAN"],
    [1539306,"2026-02-03 08:00:00","40296","0.006999999999999999","241.5","0.49","241.5","NAN","NAN","NAN","NAN","NAN"],
    [1539307,"2026-02-03 08:10:00","40297","0.015","241.6","0.653","241.6","NAN","NAN","NAN","NAN","NAN"],
    [1539308,"2026-02-03 08:20:00","40298","0.841","241.8","1.927","241.9","NAN","NAN","NAN","NAN","NAN"],
    [1539309,"2026-02-03 08:30:00","40299","0.9","242.1","2.091","242.1","NAN","NAN","NAN","NAN","NAN"],
    [1539310,"2026-02-03 08:40:00","40300","0.537","242.2","1.633","242.2","NAN","NAN","NAN","NAN","NAN"],
    [1539311,"2026-02-03 08:50:00","40301","1.3130000000000002","242.3","2.091","242.3","NAN","NAN","NAN","NAN","NAN"],
    [1539312,"2026-02-03 09:00:00","40302","0.955","242.5","1.927","242.6","NAN","NAN","NAN","NAN","NAN"],
    [1539313,"2026-02-03 09:10:00","40303","0.847","242.6","1.993","242.7","NAN","NAN","NAN","NAN","NAN"],
    [1539314,"2026-02-03 09:20:00","40304","1.426","240.8","2.483","241.4","NAN","NAN","NAN","NAN","NAN"],
    [1539315,"2026-02-03 09:30:00","40305","1.3330000000000002","241.7","2.613","243.1","NAN","NAN","NAN","NAN","NAN"],
    [1539316,"2026-02-03 09:40:00","40306","1.089","243.8","2.221","243.6","NAN","NAN","NAN","NAN","NAN"],
    [1539317,"2026-02-03 09:50:00","40307","0.9359999999999999","244.1","2.189","244.2","NAN","NAN","NAN","NAN","NAN"],
    [1539318,"2026-02-03 10:00:00","40308","1.214","261.1","2.94","266.9","NAN","NAN","NAN","NAN","NAN"],
    [1539319,"2026-02-03 10:10:00","40309","1.629","267.9","2.907","268.2","NAN","NAN","NAN","NAN","NAN"],
    [1539320,"2026-02-03 10:20:00","40310","1.462","274.2","3.005","278.8","NAN","NAN","NAN","NAN","NAN"],
    [1539321,"2026-02-03 10:30:00","40311","1.624","293.2","3.397","294.3","NAN","NAN","NAN","NAN","NAN"],
    [1539322,"2026-02-03 10:40:00","40312","1.2670000000000001","287.7","3.626","294.3","NAN","NAN","NAN","NAN","NAN"],
    [1539323,"2026-02-03 10:50:00","40313","1.743","291.3","3.561","298.4","NAN","NAN","NAN","NAN","NAN"],
    [1539324,"2026-02-03 11:00:00","40314","1.829","286.6","3.365","290.4","NAN","NAN","NAN","NAN","NAN"],
    [1539325,"2026-02-03 11:10:00","40315","2.166","285.8","3.789","304.5","NAN","NAN","NAN","NAN","NAN"],
    [1539326,"2026-02-03 11:20:00","40316","0.8809999999999999","294.3","2.254","304.5","NAN","NAN","NAN","NAN","NAN"],
    [1539327,"2026-02-03 11:30:00","40317","1.64","275.0","4.214","280.7","NAN","NAN","NAN","NAN","NAN"],
    [1539328,"2026-02-03 11:40:00","40318","2.214","231.7","4.41","204.6","NAN","NAN","NAN","NAN","NAN"],
    [1539329,"2026-02-03 11:50:00","40319","2.591","217.9","4.737","210.5","NAN","NAN","NAN","NAN","NAN"],
    [1539330,"2026-02-03 12:00:00","40320","1.98","223.5","4.149","236.2","NAN","NAN","NAN","NAN","NAN"],
    [1539331,"2026-02-03 12:10:00","40321","3.302","212.9","5.292","223.6","NAN","NAN","NAN","NAN","NAN"],
    [1539332,"2026-02-03 12:20:00","40322","2.77","198.8","5.161","203.7","NAN","NAN","NAN","NAN","NAN"],
    [1539333,"2026-02-03 12:30:00","40323","2.733","194.4","4.279","207.6","NAN","NAN","NAN","NAN","NAN"],
    [1539334,"2026-02-03 12:40:00","40324","2.2","184.0","4.639","214.5","NAN","NAN","NAN","NAN","NAN"],
    [1539335,"2026-02-03 12:50:00","40325","3.112","227.0","5.423","218.9","NAN","NAN","NAN","NAN","NAN"],
    [1539336,"2026-02-03 13:00:00","40326","3.966","215.6","6.631","201.6","NAN","NAN","NAN","NAN","NAN"],
    [1539337,"2026-02-03 13:10:00","40327","3.7769999999999997","221.7","6.566","207.1","NAN","NAN","NAN","NAN","NAN"],
    [1539338,"2026-02-03 13:20:00","40328","4.333","212.9","6.599","208.5","NAN","NAN","NAN","NAN","NAN"],
    [1539339,"2026-02-03 13:30:00","40329","3.852","209.1","5.978","208.6","NAN","NAN","NAN","NAN","NAN"],
    [1539340,"2026-02-03 13:40:00","40330","3.9939999999999998","207.7","6.207","212.7","NAN","NAN","NAN","NAN","NAN"],
    [1539341,"2026-02-03 13:50:00","40331","4.132","207.6","5.945","210.3","NAN","NAN","NAN","NAN","NAN"],
    [1539342,"2026-02-03 14:00:00","40332","3.924","206.8","6.893","214","NAN","NAN","NAN","NAN","NAN"],
    [1539343,"2026-02-03 14:10:00","40333","4.234","205.7","6.468","214.9","NAN","NAN","NAN","NAN","NAN"],
    [1539344,"2026-02-03 14:20:00","40334","4.08","214.5","6.533","205.6","NAN","NAN","NAN","NAN","NAN"],
    [1539345,"2026-02-03 14:30:00","40335","4.742","212.9","7.154","227.8","NAN","NAN","NAN","NAN","NAN"],
    [1539346,"2026-02-03 14:40:00","40336","4.453","206.1","7.546","208.5","NAN","NAN","NAN","NAN","NAN"],
    [1539347,"2026-02-03 14:50:00","40337","4.611000000000001","209.3","6.893","213.6","NAN","NAN","NAN","NAN","NAN"],
    [1539348,"2026-02-03 15:00:00","40338","4.744","210.4","7.971","214.9","NAN","NAN","NAN","NAN","NAN"],
    [1539349,"2026-02-03 15:10:00","40339","5.103","207.1","8.33","215.9","NAN","NAN","NAN","NAN","NAN"],
    [1539350,"2026-02-03 15:20:00","40340","4.532","211.1","7.317","208.1","NAN","NAN","NAN","NAN","NAN"],
    [1539351,"2026-02-03 15:30:00","40341","4.397","208.6","6.958","205.7","NAN","NAN","NAN","NAN","NAN"],
    [1539352,"2026-02-03 15:40:00","40342","3.668","213.0","6.664","222.4","NAN","NAN","NAN","NAN","NAN"],
    [1539353,"2026-02-03 15:50:00","40343","3.9339999999999997","209.6","5.488","210.9","NAN","NAN","NAN","NAN","NAN"],
    [1539354,"2026-02-03 16:00:00","40344","3.6839999999999997","214.8","6.305","213.8","NAN","NAN","NAN","NAN","NAN"],
    [1539355,"2026-02-03 16:10:00","40345","2.841","222.4","5.782","219.3","NAN","NAN","NAN","NAN","NAN"],
    [1539356,"2026-02-03 16:20:00","40346","2.793","227.1","5.325","228.2","NAN","NAN","NAN","NAN","NAN"],
    [1539357,"2026-02-03 16:30:00","40347","2.997","225.7","5.684","213.7","NAN","NAN","NAN","NAN","NAN"],
    [1539358,"2026-02-03 16:40:00","40348","2.408","231.1","4.443","241","NAN","NAN","NAN","NAN","NAN"],
    [1539359,"2026-02-03 16:50:00","40349","1.8459999999999999","231.4","3.691","231","NAN","NAN","NAN","NAN","NAN"],
    [1539360,"2026-02-03 17:00:00","40350","1.393","238.7","2.842","234.4","NAN","NAN","NAN","NAN","NAN"],
    [1539361,"2026-02-03 17:10:00","40351","1.3159999999999998","243.1","2.744","247.6","NAN","NAN","NAN","NAN","NAN"],
    [1539362,"2026-02-03 17:20:00","40352","1.324","244.6","3.071","247.9","NAN","NAN","NAN","NAN","NAN"],
    [1539363,"2026-02-03 17:30:00","40353","1.24","243.2","2.777","247.1","NAN","NAN","NAN","NAN","NAN"],
    [1539364,"2026-02-03 17:40:00","40354","0.508","246.7","1.503","245.5","NAN","NAN","NAN","NAN","NAN"],
    [1539365,"2026-02-03 17:50:00","40355","0.899","247.9","2.091","248.2","NAN","NAN","NAN","NAN","NAN"],
    [1539366,"2026-02-03 18:00:00","40356","0.662","248.2","1.47","248.3","NAN","NAN","NAN","NAN","NAN"],
    [1539367,"2026-02-03 18:10:00","40357","1.374","245.7","2.744","247.3","NAN","NAN","NAN","NAN","NAN"],
    [1539368,"2026-02-03 18:20:00","40358","1.4380000000000002","242.0","2.744","242.9","NAN","NAN","NAN","NAN","NAN"],
    [1539369,"2026-02-03 18:30:00","40359","1.474","245.3","3.267","248","NAN","NAN","NAN","NAN","NAN"],
    [1539370,"2026-02-03 18:40:00","40360","0.99","245.6","2.254","248.3","NAN","NAN","NAN","NAN","NAN"],
    [1539371,"2026-02-03 18:50:00","40361","0.777","239.1","1.96","240.9","NAN","NAN","NAN","NAN","NAN"],
    [1539372,"2026-02-03 19:00:00","40362","1.057","241.0","2.548","242.3","NAN","NAN","NAN","NAN","NAN"],
    [1539373,"2026-02-03 19:10:00","40363","1.3780000000000001","241.8","2.352","240.4","NAN","NAN","NAN","NAN","NAN"],
    [1539374,"2026-02-03 19:20:00","40364","1.2209999999999999","246.5","2.254","244.9","NAN","NAN","NAN","NAN","NAN"],
    [1539375,"2026-02-03 19:30:00","40365","1.1159999999999999","240.4","2.221","243","NAN","NAN","NAN","NAN","NAN"],
    [1539376,"2026-02-03 19:40:00","40366","1.673","243.5","2.646","239.1","NAN","NAN","NAN","NAN","NAN"],
    [1539377,"2026-02-03 19:50:00","40367","1.581","246.5","2.515","247.8","NAN","NAN","NAN","NAN","NAN"],
    [1539378,"2026-02-03 20:00:00","40368","1.157","247.1","2.058","248.5","NAN","NAN","NAN","NAN","NAN"],
    [1539379,"2026-02-03 20:10:00","40369","0.17800000000000002","242.6","1.47","240.1","NAN","NAN","NAN","NAN","NAN"],
    [1539380,"2026-02-03 20:20:00","40370","0.0","0.0","0","0","NAN","NAN","NAN","NAN","NAN"],
    [1539381,"2026-02-03 20:30:00","40371","0.0","0.0","0","0","NAN","NAN","NAN","NAN","NAN"],
    [1539382,"2026-02-03 20:40:00","40372","0.008","248.6","0.359","248.6","NAN","NAN","NAN","NAN","NAN"],
    [1539383,"2026-02-03 20:50:00","40373","0.031","248.6","0.523","248.6","NAN","NAN","NAN","NAN","NAN"],
    [1539384,"2026-02-03 21:00:00","40374","0.013999999999999999","248.6","0.294","248.6","NAN","NAN","NAN","NAN","NAN"],
    [1539385,"2026-02-03 21:10:00","40375","0.017","248.6","0.327","248.7","NAN","NAN","NAN","NAN","NAN"],
    [1539386,"2026-02-03 21:20:00","40376","0.14800000000000002","248.7","0.523","248.7","NAN","NAN","NAN","NAN","NAN"],
    [1539387,"2026-02-03 21:30:00","40377","0.066","248.7","0.523","248.7","NAN","NAN","NAN","NAN","NAN"],
    [1539388,"2026-02-03 21:40:00","40378","0.091","248.6","0.653","248.6","NAN","NAN","NAN","NAN","NAN"],
    [1539389,"2026-02-03 21:50:00","40379","0.792","248.6","1.274","248.6","NAN","NAN","NAN","NAN","NAN"],
    [1539390,"2026-02-03 22:00:00","40380","1.008","248.6","1.503","248.7","NAN","NAN","NAN","NAN","NAN"],
    [1539391,"2026-02-03 22:10:00","40381","0.22699999999999998","248.6","0.915","248.7","NAN","NAN","NAN","NAN","NAN"],
    [1539392,"2026-02-03 22:20:00","40382","0.0","0.0","0","0","NAN","NAN","NAN","NAN","NAN"],
    [1539393,"2026-02-03 22:30:00","40383","0.0","0.0","0","0","NAN","NAN","NAN","NAN","NAN"],
    [1539394,"2026-02-03 22:40:00","40384","0.32","248.6","0.817","248.6","NAN","NAN","NAN","NAN","NAN"],
    [1539395,"2026-02-03 22:50:00","40385","0.609","248.6","1.241","248.6","NAN","NAN","NAN","NAN","NAN"],
    [1539396,"2026-02-03 23:00:00","40386","0.055","248.6","0.621","248.6","NAN","NAN","NAN","NAN","NAN"],
    [1539397,"2026-02-03 23:10:00","40387","0.39","248.6","1.013","248.6","NAN","NAN","NAN","NAN","NAN"],
    [1539398,"2026-02-03 23:20:00","40388","0.445","248.6","1.372","248.7","NAN","NAN","NAN","NAN","NAN"],
    [1539399,"2026-02-03 23:30:00","40389","1.091","248.7","1.96","248.8","NAN","NAN","NAN","NAN","NAN"],
    [1539400,"2026-02-03 23:40:00","40390","0.278","248.8","1.241","248.8","NAN","NAN","NAN","NAN","NAN"],
    [1539401,"2026-02-03 23:50:00","40391","0.237","248.7","1.013","248.7","NAN","NAN","NAN","NAN","NAN"],
    [1539402,"2026-02-04 00:00:00","40392","0.318","248.7","1.078","248.7","NAN","NAN","NAN","NAN","NAN"],
    [1539403,"2026-02-04 00:10:00","40393","0.18","248.7","0.98","248.7","NAN","NAN","NAN","NAN","NAN"],
    [1539404,"2026-02-04 00:20:00","40394","0.0","0.0","0","0","NAN","NAN","NAN","NAN","NAN"],
    [1539405,"2026-02-04 00:30:00","40395","0.0","0.0","0","0","NAN","NAN","NAN","NAN","NAN"],
    [1539406,"2026-02-04 00:40:00","40396","0.0","0.0","0","0","NAN","NAN","NAN","NAN","NAN"],
    [1539407,"2026-02-04 00:50:00","40397","0.0","0.0","0","0","NAN","NAN","NAN","NAN","NAN"],
    [1539408,"2026-02-04 01:00:00","40398","0.0","0.0","0","0","NAN","NAN","NAN","NAN","NAN"],
    [1539409,"2026-02-04 01:10:00","40399","0.7090000000000001","248.7","1.241","248.6","NAN","NAN","NAN","NAN","NAN"],
    [1539410,"2026-02-04 01:20:00","40400","0.8220000000000001","248.8","1.731","248.8","NAN","NAN","NAN","NAN","NAN"],
    [1539411,"2026-02-04 01:30:00","40401","0.172","248.8","1.339","248.8","NAN","NAN","NAN","NAN","NAN"],
    [1539412,"2026-02-04 01:40:00","40402","0.41600000000000004","248.9","1.503","248.8","NAN","NAN","NAN","NAN","NAN"],
    [1539413,"2026-02-04 01:50:00","40403","0.258","248.9","1.078","248.9","NAN","NAN","NAN","NAN","NAN"],
    [1539414,"2026-02-04 02:00:00","40404","0.11199999999999999","248.9","0.849","248.9","NAN","NAN","NAN","NAN","NAN"],
    [1539415,"2026-02-04 02:10:00","40405","0.001","248.8","0.163","248.9","NAN","NAN","NAN","NAN","NAN"],
    [1539416,"2026-02-04 02:20:00","40406","0.0","0.0","0","0","NAN","NAN","NAN","NAN","NAN"],
    [1539417,"2026-02-04 02:30:00","40407","0.006","248.9","0.229","248.9","NAN","NAN","NAN","NAN","NAN"],
    [1539418,"2026-02-04 02:40:00","40408","0.051","248.8","0.784","248.8","NAN","NAN","NAN","NAN","NAN"],
    [1539419,"2026-02-04 02:50:00","40409","0.158","248.8","0.784","248.8","NAN","NAN","NAN","NAN","NAN"],
    [1539420,"2026-02-04 03:00:00","40410","0.233","248.8","0.784","248.8","NAN","NAN","NAN","NAN","NAN"],
    [1539421,"2026-02-04 03:10:00","40411","0.003","248.8","0.229","248.8","NAN","NAN","NAN","NAN","NAN"],
    [1539422,"2026-02-04 03:20:00","40412","0.032","248.9","0.719","248.9","NAN","NAN","NAN","NAN","NAN"],
    [1539423,"2026-02-04 03:30:00","40413","0.612","248.9","1.535","249","NAN","NAN","NAN","NAN","NAN"],
    [1539424,"2026-02-04 03:40:00","40414","0.664","249.0","1.437","249","NAN","NAN","NAN","NAN","NAN"],
    [1539425,"2026-02-04 03:50:00","40415","0.527","249.0","1.699","249","NAN","NAN","NAN","NAN","NAN"],
    [1539426,"2026-02-04 04:00:00","40416","0.11","249.0","0.817","249","NAN","NAN","NAN","NAN","NAN"],
    [1539427,"2026-02-04 04:10:00","40417","0.04","249.0","0.653","249","NAN","NAN","NAN","NAN","NAN"],
    [1539428,"2026-02-04 04:20:00","40418","0.154","249.0","1.176","248.9","NAN","NAN","NAN","NAN","NAN"],
    [1539429,"2026-02-04 04:30:00","40419","0.462","249.1","1.339","249.1","NAN","NAN","NAN","NAN","NAN"],
    [1539430,"2026-02-04 04:40:00","40420","0.521","249.2","1.829","249.2","NAN","NAN","NAN","NAN","NAN"],
    [1539431,"2026-02-04 04:50:00","40421","0.414","249.2","1.241","249.2","NAN","NAN","NAN","NAN","NAN"],
    [1539432,"2026-02-04 05:00:00","40422","0.252","249.2","1.176","249.2","NAN","NAN","NAN","NAN","NAN"],
    [1539433,"2026-02-04 05:10:00","40423","0.025","249.2","0.751","249.2","NAN","NAN","NAN","NAN","NAN"],
    [1539434,"2026-02-04 05:20:00","40424","0.155","249.3","1.013","249.3","NAN","NAN","NAN","NAN","NAN"],
    [1539435,"2026-02-04 05:30:00","40425","0.816","249.4","1.862","249.4","NAN","NAN","NAN","NAN","NAN"],
    [1539436,"2026-02-04 05:40:00","40426","0.3","249.1","1.699","249.4","NAN","NAN","NAN","NAN","NAN"],
    [1539437,"2026-02-04 05:50:00","40427","1.319","249.8","2.581","249.7","NAN","NAN","NAN","NAN","NAN"],
    [1539438,"2026-02-04 06:00:00","40428","1.515","262.3","2.94","265.4","NAN","NAN","NAN","NAN","NAN"],
    [1539439,"2026-02-04 06:10:00","40429","0.728","266.7","2.319","266.7","NAN","NAN","NAN","NAN","NAN"],
    [1539440,"2026-02-04 06:20:00","40430","0.076","266.7","0.817","266.7","NAN","NAN","NAN","NAN","NAN"],
    [1539441,"2026-02-04 06:30:00","40431","1.023","261.9","2.385","260.4","NAN","NAN","NAN","NAN","NAN"],
    [1539442,"2026-02-04 06:40:00","40432","0.74","256.6","2.123","255.2","NAN","NAN","NAN","NAN","NAN"],
    [1539443,"2026-02-04 06:50:00","40433","0.988","262.6","2.025","264.2","NAN","NAN","NAN","NAN","NAN"],
    [1539444,"2026-02-04 07:00:00","40434","1.5230000000000001","265.3","2.711","266.9","NAN","NAN","NAN","NAN","NAN"],
    [1539445,"2026-02-04 07:10:00","40435","1.329","267.1","2.646","267.1","NAN","NAN","NAN","NAN","NAN"],
    [1539446,"2026-02-04 07:20:00","40436","1.075","266.9","2.058","267.5","NAN","NAN","NAN","NAN","NAN"],
    [1539447,"2026-02-04 07:30:00","40437","0.741","267.6","1.666","267.6","NAN","NAN","NAN","NAN","NAN"],
    [1539448,"2026-02-04 07:40:00","40438","0.564","267.6","1.666","267.5","NAN","NAN","NAN","NAN","NAN"],
    [1539449,"2026-02-04 07:50:00","40439","0.449","267.8","1.633","267.8","NAN","NAN","NAN","NAN","NAN"],
    [1539450,"2026-02-04 08:00:00","40440","1.25","267.4","2.417","266.8","NAN","NAN","NAN","NAN","NAN"],
    [1539451,"2026-02-04 08:10:00","40441","1.056","268.2","2.319","268.6","NAN","NAN","NAN","NAN","NAN"],
    [1539452,"2026-02-04 08:20:00","40442","0.7759999999999999","266.1","1.764","268.9","NAN","NAN","NAN","NAN","NAN"],
    [1539453,"2026-02-04 08:30:00","40443","1.058","265.5","2.091","264.8","NAN","NAN","NAN","NAN","NAN"],
    [1539454,"2026-02-04 08:40:00","40444","0.7040000000000001","263.1","1.601","258.4","NAN","NAN","NAN","NAN","NAN"],
    [1539455,"2026-02-04 08:50:00","40445","1.469","251.4","2.907","246.5","NAN","NAN","NAN","NAN","NAN"],
    [1539456,"2026-02-04 09:00:00","40446","1.297","247.4","2.287","245.9","NAN","NAN","NAN","NAN","NAN"],
    [1539457,"2026-02-04 09:10:00","40447","1.168","246.9","2.417","245.5","NAN","NAN","NAN","NAN","NAN"],
    [1539458,"2026-02-04 09:20:00","40448","1.228","249.6","2.417","255.1","NAN","NAN","NAN","NAN","NAN"],
    [1539459,"2026-02-04 09:30:00","40449","1.495","251.6","3.201","246.7","NAN","NAN","NAN","NAN","NAN"],
    [1539460,"2026-02-04 09:40:00","40450","1.6840000000000002","245.1","2.907","244.1","NAN","NAN","NAN","NAN","NAN"],
    [1539461,"2026-02-04 09:50:00","40451","1.936","242.9","3.071","254.1","NAN","NAN","NAN","NAN","NAN"],
    [1539462,"2026-02-04 10:00:00","40452","1.618","242.6","2.809","235.9","NAN","NAN","NAN","NAN","NAN"],
    [1539463,"2026-02-04 10:10:00","40453","1.255","249.1","3.038","244.2","NAN","NAN","NAN","NAN","NAN"],
    [1539464,"2026-02-04 10:20:00","40454","1.32","255.3","2.679","257.9","NAN","NAN","NAN","NAN","NAN"],
    [1539465,"2026-02-04 10:30:00","40455","1.244","254.1","2.385","238.2","NAN","NAN","NAN","NAN","NAN"],
    [1539466,"2026-02-04 10:40:00","40456","1.611","240.1","2.875","238.1","NAN","NAN","NAN","NAN","NAN"],
    [1539467,"2026-02-04 10:50:00","40457","0.934","239.7","2.385","247.7","NAN","NAN","NAN","NAN","NAN"],
    [1539468,"2026-02-04 11:00:00","40458","0.612","241.4","1.666","246.7","NAN","NAN","NAN","NAN","NAN"],
    [1539469,"2026-02-04 11:10:00","40459","1.317","239.7","4.051","240.7","NAN","NAN","NAN","NAN","NAN"],
    [1539470,"2026-02-04 11:20:00","40460","1.781","234.8","4.573","225.5","NAN","NAN","NAN","NAN","NAN"],
    [1539471,"2026-02-04 11:30:00","40461","2.596","225.0","5.063","215.1","NAN","NAN","NAN","NAN","NAN"],
    [1539472,"2026-02-04 11:40:00","40462","2.5860000000000003","237.1","5.031","229.3","NAN","NAN","NAN","NAN","NAN"],
    [1539473,"2026-02-04 11:50:00","40463","2.761","236.7","4.475","251.1","NAN","NAN","NAN","NAN","NAN"],
    [1539474,"2026-02-04 12:00:00","40464","2.205","261.8","4.279","258","NAN","NAN","NAN","NAN","NAN"],
    [1539475,"2026-02-04 12:10:00","40465","2.252","228.7","4.181","239.5","NAN","NAN","NAN","NAN","NAN"],
    [1539476,"2026-02-04 12:20:00","40466","2.64","217.4","4.737","241.9","NAN","NAN","NAN","NAN","NAN"],
    [1539477,"2026-02-04 12:30:00","40467","2.907","219.2","5.619","222.2","NAN","NAN","NAN","NAN","NAN"],
    [1539478,"2026-02-04 12:40:00","40468","2.737","222.1","6.043","222.9","NAN","NAN","NAN","NAN","NAN"],
    [1539479,"2026-02-04 12:50:00","40469","3.802","230.8","6.239","215.6","NAN","NAN","NAN","NAN","NAN"],
    [1539480,"2026-02-04 13:00:00","40470","3.767","231.4","6.239","239.8","NAN","NAN","NAN","NAN","NAN"],
    [1539481,"2026-02-04 13:10:00","40471","3.825","241.4","6.86","251","NAN","NAN","NAN","NAN","NAN"],
    [1539482,"2026-02-04 13:20:00","40472","4.738","237.9","8.23","236.8","NAN","NAN","NAN","NAN","NAN"],
    [1539483,"2026-02-04 13:30:00","40473","4.879","248.1","9.83","251.6","NAN","NAN","NAN","NAN","NAN"],
    [1539484,"2026-02-04 13:40:00","40474","5.354","247.4","8.69","250.3","NAN","NAN","NAN","NAN","NAN"],
    [1539485,"2026-02-04 13:50:00","40475","4.735","244.0","7.448","250.3","NAN","NAN","NAN","NAN","NAN"],
    [1539486,"2026-02-04 14:00:00","40476","3.667","240.0","6.925","224.7","NAN","NAN","NAN","NAN","NAN"],
    [1539487,"2026-02-04 14:10:00","40477","3.676","242.6","7.905","259","NAN","NAN","NAN","NAN","NAN"],
    [1539488,"2026-02-04 14:20:00","40478","3.341","259.4","6.207","259","NAN","NAN","NAN","NAN","NAN"],
    [1539489,"2026-02-04 14:30:00","40479","3.037","253.3","6.566","264.2","NAN","NAN","NAN","NAN","NAN"],
    [1539490,"2026-02-04 14:40:00","40480","3.645","248.4","5.847","251","NAN","NAN","NAN","NAN","NAN"],
    [1539491,"2026-02-04 14:50:00","40481","3.095","250.2","5.651","247.5","NAN","NAN","NAN","NAN","NAN"],
    [1539492,"2026-02-04 15:00:00","40482","2.405","270.4","4.083","280.6","NAN","NAN","NAN","NAN","NAN"],
    [1539493,"2026-02-04 15:10:00","40483","2.057","264.6","3.267","268.4","NAN","NAN","NAN","NAN","NAN"],
    [1539494,"2026-02-04 15:20:00","40484","2.765","266.4","5.749","280.3","NAN","NAN","NAN","NAN","NAN"],
    [1539495,"2026-02-04 15:30:00","40485","3.094","246.3","5.423","233.2","NAN","NAN","NAN","NAN","NAN"],
    [1539496,"2026-02-04 15:40:00","40486","3.273","249.4","4.965","227.9","NAN","NAN","NAN","NAN","NAN"],
    [1539497,"2026-02-04 15:50:00","40487","1.859","254.3","3.365","247.5","NAN","NAN","NAN","NAN","NAN"],
    [1539498,"2026-02-04 16:00:00","40488","2.785","281.5","4.377","286","NAN","NAN","NAN","NAN","NAN"],
    [1539499,"2026-02-04 16:10:00","40489","2.17","287.9","5.488","300.5","NAN","NAN","NAN","NAN","NAN"],
    [1539500,"2026-02-04 16:20:00","40490","3.615","300.3","5.684","306.1","NAN","NAN","NAN","NAN","NAN"],
    [1539501,"2026-02-04 16:30:00","40491","2.967","300.8","4.802","295.9","NAN","NAN","NAN","NAN","NAN"],
    [1539502,"2026-02-04 16:40:00","40492","2.408","295.4","4.345","290.2","NAN","NAN","NAN","NAN","NAN"],
    [1539503,"2026-02-04 16:50:00","40493","2.7539999999999996","277.1","4.769","277.1","NAN","NAN","NAN","NAN","NAN"],
    [1539504,"2026-02-04 17:00:00","40494","2.2880000000000003","277.1","4.475","268.2","NAN","NAN","NAN","NAN","NAN"],
    [1539505,"2026-02-04 17:10:00","40495","2.125","275.9","4.247","267.3","NAN","NAN","NAN","NAN","NAN"],
    [1539506,"2026-02-04 17:20:00","40496","1.129","272.3","3.169","277.1","NAN","NAN","NAN","NAN","NAN"],
    [1539507,"2026-02-04 17:30:00","40497","0.787","268.9","1.927","268.8","NAN","NAN","NAN","NAN","NAN"],
    [1539508,"2026-02-04 17:40:00","40498","0.375","270.1","2.025","271.7","NAN","NAN","NAN","NAN","NAN"],
    [1539509,"2026-02-04 17:50:00","40499","0.504","268.3","1.405","268.2","NAN","NAN","NAN","NAN","NAN"],
    [1539510,"2026-02-04 18:00:00","40500","0.374","268.2","1.372","271.8","NAN","NAN","NAN","NAN","NAN"],
    [1539511,"2026-02-04 18:10:00","40501","0.055999999999999994","267.9","1.111","267.9","NAN","NAN","NAN","NAN","NAN"],
    [1539512,"2026-02-04 18:20:00","40502","0.521","267.8","1.927","267.7","NAN","NAN","NAN","NAN","NAN"],
    [1539513,"2026-02-04 18:30:00","40503","0.488","267.6","2.091","267.6","NAN","NAN","NAN","NAN","NAN"],
    [1539514,"2026-02-04 18:40:00","40504","0.012","267.5","0.327","267.5","NAN","NAN","NAN","NAN","NAN"],
    [1539515,"2026-02-04 18:50:00","40505","0.452","267.6","1.241","267.4","NAN","NAN","NAN","NAN","NAN"],
    [1539516,"2026-02-04 19:00:00","40506","0.715","269.4","1.601","272.1","NAN","NAN","NAN","NAN","NAN"],
    [1539517,"2026-02-04 19:10:00","40507","0.725","276.7","2.287","279","NAN","NAN","NAN","NAN","NAN"],
    [1539518,"2026-02-04 19:20:00","40508","0.965","279.9","1.927","278.6","NAN","NAN","NAN","NAN","NAN"],
    [1539519,"2026-02-04 19:30:00","40509","1.807","278.2","2.907","276.7","NAN","NAN","NAN","NAN","NAN"],
    [1539520,"2026-02-04 19:40:00","40510","2.149","272.5","3.463","269.3","NAN","NAN","NAN","NAN","NAN"],
    [1539521,"2026-02-04 19:50:00","40511","2.2569999999999997","267.7","3.626","273","NAN","NAN","NAN","NAN","NAN"],
    [1539522,"2026-02-04 20:00:00","40512","2.494","271.0","3.855","262.7","NAN","NAN","NAN","NAN","NAN"],
    [1539523,"2026-02-04 20:10:00","40513","2.267","262.8","3.397","261.2","NAN","NAN","NAN","NAN","NAN"],
    [1539524,"2026-02-04 20:20:00","40514","1.9080000000000001","265.3","3.136","260.8","NAN","NAN","NAN","NAN","NAN"],
    [1539525,"2026-02-04 20:30:00","40515","0.557","261.8","2.221","260.9","NAN","NAN","NAN","NAN","NAN"],
    [1539526,"2026-02-04 20:40:00","40516","0.24100000000000002","271.3","1.111","271.6","NAN","NAN","NAN","NAN","NAN"],
    [1539527,"2026-02-04 20:50:00","40517","0.0","0.0","0.196","272","NAN","NAN","NAN","NAN","NAN"],
    [1539528,"2026-02-04 21:00:00","40518","0.0","273.7","0.065","273.7","NAN","NAN","NAN","NAN","NAN"],
    [1539529,"2026-02-04 21:10:00","40519","0.797","276.4","1.862","277.6","NAN","NAN","NAN","NAN","NAN"],
    [1539530,"2026-02-04 21:20:00","40520","0.894","269.3","1.503","262.4","NAN","NAN","NAN","NAN","NAN"],
    [1539531,"2026-02-04 21:30:00","40521","1.083","261.0","1.568","261.3","NAN","NAN","NAN","NAN","NAN"],
    [1539532,"2026-02-04 21:40:00","40522","1.13","261.5","1.764","260.8","NAN","NAN","NAN","NAN","NAN"],
    [1539533,"2026-02-04 21:50:00","40523","0.209","265.1","0.947","266.4","NAN","NAN","NAN","NAN","NAN"],
    [1539534,"2026-02-04 22:00:00","40524","0.222","277.8","1.274","277.8","NAN","NAN","NAN","NAN","NAN"],
    [1539535,"2026-02-04 22:10:00","40525","0.9420000000000001","278.5","1.895","279.1","NAN","NAN","NAN","NAN","NAN"],
    [1539536,"2026-02-04 22:20:00","40526","0.743","279.4","1.633","279.4","NAN","NAN","NAN","NAN","NAN"],
    [1539537,"2026-02-04 22:30:00","40527","0.905","279.8","1.666","279.9","NAN","NAN","NAN","NAN","NAN"],
    [1539538,"2026-02-04 22:40:00","40528","0.82","279.8","1.339","279.9","NAN","NAN","NAN","NAN","NAN"],
    [1539539,"2026-02-04 22:50:00","40529","1.518","279.6","2.385","280.8","NAN","NAN","NAN","NAN","NAN"],
    [1539540,"2026-02-04 23:00:00","40530","1.739","279.9","2.744","280.7","NAN","NAN","NAN","NAN","NAN"],
    [1539541,"2026-02-04 23:10:00","40531","1.926","282.2","3.005","283.9","NAN","NAN","NAN","NAN","NAN"],
    [1539542,"2026-02-04 23:20:00","40532","1.473","282.5","2.189","284.2","NAN","NAN","NAN","NAN","NAN"],
    [1539543,"2026-02-04 23:30:00","40533","0.953","279.7","2.221","284","NAN","NAN","NAN","NAN","NAN"],
    [1539544,"2026-02-04 23:40:00","40534","0.735","283.4","1.437","284.3","NAN","NAN","NAN","NAN","NAN"],
    [1539545,"2026-02-04 23:50:00","40535","1.214","278.2","1.829","274.1","NAN","NAN","NAN","NAN","NAN"],
    [1539546,"2026-02-05 00:00:00","40536","1.473","277.4","2.123","277.8","NAN","NAN","NAN","NAN","NAN"],
    [1539547,"2026-02-05 00:10:00","40537","1.136","278.9","1.731","282.3","NAN","NAN","NAN","NAN","NAN"],
    [1539548,"2026-02-05 00:20:00","40538","1.095","279.8","1.862","282.7","NAN","NAN","NAN","NAN","NAN"],
    [1539549,"2026-02-05 00:30:00","40539","0.254","274.2","1.143","274.8","NAN","NAN","NAN","NAN","NAN"],
    [1539550,"2026-02-05 00:40:00","40540","0.838","273.5","1.176","273.4","NAN","NAN","NAN","NAN","NAN"],
    [1539551,"2026-02-05 00:50:00","40541","1.288","272.5","1.829","272.2","NAN","NAN","NAN","NAN","NAN"],
    [1539552,"2026-02-05 01:00:00","40542","1.5830000000000002","281.1","2.483","284.5","NAN","NAN","NAN","NAN","NAN"],
    [1539553,"2026-02-05 01:10:00","40543","1.589","282.4","2.613","284.8","NAN","NAN","NAN","NAN","NAN"],
    [1539554,"2026-02-05 01:20:00","40544","1.472","281.4","2.483","284.6","NAN","NAN","NAN","NAN","NAN"],
    [1539555,"2026-02-05 01:30:00","40545","1.2109999999999999","277.2","1.797","273.5","NAN","NAN","NAN","NAN","NAN"],
    [1539556,"2026-02-05 01:40:00","40546","0.7090000000000001","273.0","1.47","272.6","NAN","NAN","NAN","NAN","NAN"],
    [1539557,"2026-02-05 01:50:00","40547","0.945","270.9","1.764","270.2","NAN","NAN","NAN","NAN","NAN"],
    [1539558,"2026-02-05 02:00:00","40548","0.607","269.9","1.339","270","NAN","NAN","NAN","NAN","NAN"],
    [1539559,"2026-02-05 02:10:00","40549","1.187","267.9","1.993","266.5","NAN","NAN","NAN","NAN","NAN"],
    [1539560,"2026-02-05 02:20:00","40550","1.709","271.6","2.581","272.6","NAN","NAN","NAN","NAN","NAN"],
    [1539561,"2026-02-05 02:30:00","40551","1.229","277.3","2.385","281.2","NAN","NAN","NAN","NAN","NAN"],
    [1539562,"2026-02-05 02:40:00","40552","1.7930000000000001","265.3","2.711","264.7","NAN","NAN","NAN","NAN","NAN"],
    [1539563,"2026-02-05 02:50:00","40553","1.4969999999999999","270.2","2.907","270.8","NAN","NAN","NAN","NAN","NAN"],
    [1539564,"2026-02-05 03:00:00","40554","0.6709999999999999","271.6","1.503","272","NAN","NAN","NAN","NAN","NAN"],
    [1539565,"2026-02-05 03:10:00","40555","0.8909999999999999","264.1","1.797","264","NAN","NAN","NAN","NAN","NAN"],
    [1539566,"2026-02-05 03:20:00","40556","1.085","261.6","2.091","261.2","NAN","NAN","NAN","NAN","NAN"],
    [1539567,"2026-02-05 03:30:00","40557","1.3219999999999998","261.1","2.025","261.1","NAN","NAN","NAN","NAN","NAN"],
    [1539568,"2026-02-05 03:40:00","40558","1.597","260.9","2.319","260.8","NAN","NAN","NAN","NAN","NAN"],
    [1539569,"2026-02-05 03:50:00","40559","1.0759999999999998","266.8","2.189","260.7","NAN","NAN","NAN","NAN","NAN"],
    [1539570,"2026-02-05 04:00:00","40560","0.6609999999999999","277.6","1.699","278.4","NAN","NAN","NAN","NAN","NAN"],
    [1539571,"2026-02-05 04:10:00","40561","0.9470000000000001","273.1","1.699","267.6","NAN","NAN","NAN","NAN","NAN"],
    [1539572,"2026-02-05 04:20:00","40562","1.153","262.4","2.319","263.1","NAN","NAN","NAN","NAN","NAN"],
    [1539573,"2026-02-05 04:30:00","40563","1.574","263.4","3.103","264.2","NAN","NAN","NAN","NAN","NAN"],
    [1539574,"2026-02-05 04:40:00","40564","2.086","267.5","3.463","261.2","NAN","NAN","NAN","NAN","NAN"],
    [1539575,"2026-02-05 04:50:00","40565","1.9080000000000001","270.0","3.201","275.8","NAN","NAN","NAN","NAN","NAN"],
    [1539576,"2026-02-05 05:00:00","40566","1.736","276.6","2.907","274.1","NAN","NAN","NAN","NAN","NAN"],
    [1539577,"2026-02-05 05:10:00","40567","1.355","278.3","2.189","279","NAN","NAN","NAN","NAN","NAN"],
    [1539578,"2026-02-05 05:20:00","40568","1.175","275.7","2.189","270.9","NAN","NAN","NAN","NAN","NAN"],
    [1539579,"2026-02-05 05:30:00","40569","0.9129999999999999","278.9","1.927","279.4","NAN","NAN","NAN","NAN","NAN"],
    [1539580,"2026-02-05 05:40:00","40570","0.9279999999999999","279.0","2.287","280","NAN","NAN","NAN","NAN","NAN"],
    [1539581,"2026-02-05 05:50:00","40571","1.805","282.3","3.103","291.5","NAN","NAN","NAN","NAN","NAN"],
    [1539582,"2026-02-05 06:00:00","40572","0.7240000000000001","297.5","2.352","315.5","NAN","NAN","NAN","NAN","NAN"],
    [1539583,"2026-02-05 06:10:00","40573","0.737","299.5","1.535","296.9","NAN","NAN","NAN","NAN","NAN"],
    [1539584,"2026-02-05 06:20:00","40574","1.35","294.2","3.038","289.6","NAN","NAN","NAN","NAN","NAN"],
    [1539585,"2026-02-05 06:30:00","40575","1.936","284.4","3.103","288.4","NAN","NAN","NAN","NAN","NAN"],
    [1539586,"2026-02-05 06:40:00","40576","1.069","280.8","2.319","280.6","NAN","NAN","NAN","NAN","NAN"],
    [1539587,"2026-02-05 06:50:00","40577","0.845","279.0","1.862","278.9","NAN","NAN","NAN","NAN","NAN"],
    [1539588,"2026-02-05 07:00:00","40578","0.35200000000000004","279.1","1.764","281.5","NAN","NAN","NAN","NAN","NAN"],
    [1539589,"2026-02-05 07:10:00","40579","1.611","280.8","3.365","272","NAN","NAN","NAN","NAN","NAN"],
    [1539590,"2026-02-05 07:20:00","40580","2.094","272.2","3.234","279.3","NAN","NAN","NAN","NAN","NAN"],
    [1539591,"2026-02-05 07:30:00","40581","1.672","280.9","2.973","284","NAN","NAN","NAN","NAN","NAN"],
    [1539592,"2026-02-05 07:40:00","40582","1.587","284.4","2.875","287.4","NAN","NAN","NAN","NAN","NAN"],
    [1539593,"2026-02-05 07:50:00","40583","1.1159999999999999","280.3","2.94","287.5","NAN","NAN","NAN","NAN","NAN"],
    [1539594,"2026-02-05 08:00:00","40584","1.023","274.1","2.156","273.9","NAN","NAN","NAN","NAN","NAN"],
    [1539595,"2026-02-05 08:10:00","40585","1.3259999999999998","270.7","2.45","270.1","NAN","NAN","NAN","NAN","NAN"],
    [1539596,"2026-02-05 08:20:00","40586","1.673","273.4","2.483","269.9","NAN","NAN","NAN","NAN","NAN"],
    [1539597,"2026-02-05 08:30:00","40587","1.155","280.8","2.058","279.7","NAN","NAN","NAN","NAN","NAN"],
    [1539598,"2026-02-05 08:40:00","40588","1.209","279.1","2.189","284.2","NAN","NAN","NAN","NAN","NAN"],
    [1539599,"2026-02-05 08:50:00","40589","1.157","268.5","2.417","267.8","NAN","NAN","NAN","NAN","NAN"],
    [1539600,"2026-02-05 09:00:00","40590","1.248","268.5","2.809","267.7","NAN","NAN","NAN","NAN","NAN"],
    [1539601,"2026-02-05 09:10:00","40591","1.5090000000000001","269.0","2.548","274.2","NAN","NAN","NAN","NAN","NAN"],
    [1539602,"2026-02-05 09:20:00","40592","1.5630000000000002","278.0","2.515","275.6","NAN","NAN","NAN","NAN","NAN"],
    [1539603,"2026-02-05 09:30:00","40593","0.5820000000000001","282.6","1.568","283.7","NAN","NAN","NAN","NAN","NAN"],
    [1539604,"2026-02-05 09:40:00","40594","0.12300000000000001","283.9","0.882","284.3","NAN","NAN","NAN","NAN","NAN"],
    [1539605,"2026-02-05 09:50:00","40595","1.0979999999999999","272.3","2.123","274.7","NAN","NAN","NAN","NAN","NAN"],
    [1539606,"2026-02-05 10:00:00","40596","2.081","272.6","3.92","277","NAN","NAN","NAN","NAN","NAN"],
    [1539607,"2026-02-05 10:10:00","40597","1.9140000000000001","273.7","3.757","273.3","NAN","NAN","NAN","NAN","NAN"],
    [1539608,"2026-02-05 10:20:00","40598","1.433","279.9","2.646","279.4","NAN","NAN","NAN","NAN","NAN"],
    [1539609,"2026-02-05 10:30:00","40599","0.484","280.8","1.731","280.9","NAN","NAN","NAN","NAN","NAN"],
    [1539610,"2026-02-05 10:40:00","40600","0.049","281.0","0.653","281","NAN","NAN","NAN","NAN","NAN"],
    [1539611,"2026-02-05 10:50:00","40601","0.292","278.0","1.111","276.3","NAN","NAN","NAN","NAN","NAN"],
    [1539612,"2026-02-05 11:00:00","40602","0.115","279.9","1.274","278.4","NAN","NAN","NAN","NAN","NAN"],
    [1539613,"2026-02-05 11:10:00","40603","0.992","275.6","1.666","271.5","NAN","NAN","NAN","NAN","NAN"],
    [1539614,"2026-02-05 11:20:00","40604","0.327","271.8","1.372","271.1","NAN","NAN","NAN","NAN","NAN"],
    [1539615,"2026-02-05 11:30:00","40605","0.032","265.0","0.392","264.2","NAN","NAN","NAN","NAN","NAN"],
    [1539616,"2026-02-05 11:40:00","40606","0.0","0.0","0","0","NAN","NAN","NAN","NAN","NAN"],
    [1539617,"2026-02-05 11:50:00","40607","0.10800000000000001","280.4","1.241","281","NAN","NAN","NAN","NAN","NAN"],
    [1539618,"2026-02-05 12:00:00","40608","0.0","0.0","0","0","NAN","NAN","NAN","NAN","NAN"],
    [1539619,"2026-02-05 12:10:00","40609","0.0","0.0","0","0","NAN","NAN","NAN","NAN","NAN"],
    [1539620,"2026-02-05 12:20:00","40610","0.0","263.4","0.033","263.4","NAN","NAN","NAN","NAN","NAN"],
    [1539621,"2026-02-05 12:30:00","40611","0.006","263.2","0.229","263.2","NAN","NAN","NAN","NAN","NAN"],
    [1539622,"2026-02-05 12:40:00","40612","0.035","263.0","0.49","263","NAN","NAN","NAN","NAN","NAN"],
    [1539623,"2026-02-05 12:50:00","40613","0.0","0.0","0","0","NAN","NAN","NAN","NAN","NAN"],
    [1539624,"2026-02-05 13:00:00","40614","0.027000000000000003","274.2","0.686","273","NAN","NAN","NAN","NAN","NAN"],
    [1539625,"2026-02-05 13:10:00","40615","0.057999999999999996","275.6","0.98","273.3","NAN","NAN","NAN","NAN","NAN"],
    [1539626,"2026-02-05 13:20:00","40616","0.047","276.5","0.784","274.8","NAN","NAN","NAN","NAN","NAN"],
    [1539627,"2026-02-05 13:30:00","40617","0.655","275.4","2.45","276.5","NAN","NAN","NAN","NAN","NAN"],
    [1539628,"2026-02-05 13:40:00","40618","1.5290000000000001","294.0","3.626","319.7","NAN","NAN","NAN","NAN","NAN"],
    [1539629,"2026-02-05 13:50:00","40619","1.3659999999999999","312.9","3.005","319.8","NAN","NAN","NAN","NAN","NAN"],
    [1539630,"2026-02-05 14:00:00","40620","2.217","166.5","5.684","150.1","NAN","NAN","NAN","NAN","NAN"],
    [1539631,"2026-02-05 14:10:00","40621","0.45899999999999996","172.5","1.764","171.4","NAN","NAN","NAN","NAN","NAN"],
    [1539632,"2026-02-05 14:20:00","40622","0.142","178.2","1.143","175.6","NAN","NAN","NAN","NAN","NAN"],
    [1539633,"2026-02-05 14:30:00","40623","1.077","182.0","2.842","182.4","NAN","NAN","NAN","NAN","NAN"],
    [1539634,"2026-02-05 14:40:00","40624","1.768","259.6","3.463","240.6","NAN","NAN","NAN","NAN","NAN"],
    [1539635,"2026-02-05 14:50:00","40625","1.735","281.1","3.169","288.8","NAN","NAN","NAN","NAN","NAN"],
    [1539636,"2026-02-05 15:00:00","40626","1.4409999999999998","272.1","3.234","276.1","NAN","NAN","NAN","NAN","NAN"],
    [1539637,"2026-02-05 15:10:00","40627","2.384","234.0","4.508","232","NAN","NAN","NAN","NAN","NAN"],
    [1539638,"2026-02-05 15:20:00","40628","3.406","210.3","6.011","224.9","NAN","NAN","NAN","NAN","NAN"],
    [1539639,"2026-02-05 15:30:00","40629","3.298","222.4","6.795","226.3","NAN","NAN","NAN","NAN","NAN"],
    [1539640,"2026-02-05 15:40:00","40630","3.727","227.8","7.056","241.5","NAN","NAN","NAN","NAN","NAN"],
    [1539641,"2026-02-05 15:50:00","40631","3.0189999999999997","232.7","8.23","232.2","NAN","NAN","NAN","NAN","NAN"],
    [1539642,"2026-02-05 16:00:00","40632","3.088","237.0","6.664","228.8","NAN","NAN","NAN","NAN","NAN"],
    [1539643,"2026-02-05 16:10:00","40633","3.83","238.1","7.317","244.2","NAN","NAN","NAN","NAN","NAN"],
    [1539644,"2026-02-05 16:20:00","40634","3.372","235.7","7.317","244.2","NAN","NAN","NAN","NAN","NAN"],
    [1539645,"2026-02-05 16:30:00","40635","3.2030000000000003","242.2","5.259","238.9","NAN","NAN","NAN","NAN","NAN"],
    [1539646,"2026-02-05 16:40:00","40636","3.1460000000000004","244.9","5.586","257.7","NAN","NAN","NAN","NAN","NAN"],
    [1539647,"2026-02-05 16:50:00","40637","2.687","238.3","4.998","250.1","NAN","NAN","NAN","NAN","NAN"],
    [1539648,"2026-02-05 17:00:00","40638","2.957","231.8","5.815","233.9","NAN","NAN","NAN","NAN","NAN"],
    [1539649,"2026-02-05 17:10:00","40639","3.37","224.8","5.815","229.8","NAN","NAN","NAN","NAN","NAN"],
    [1539650,"2026-02-05 17:20:00","40640","3.13","233.0","5.325","218","NAN","NAN","NAN","NAN","NAN"],
    [1539651,"2026-02-05 17:30:00","40641","3.715","229.4","7.023","228.2","NAN","NAN","NAN","NAN","NAN"],
    [1539652,"2026-02-05 17:40:00","40642","4.475","248.7","7.187","249.2","NAN","NAN","NAN","NAN","NAN"],
    [1539653,"2026-02-05 17:50:00","40643","3.957","251.4","5.847","253.9","NAN","NAN","NAN","NAN","NAN"],
    [1539654,"2026-02-05 18:00:00","40644","3.8080000000000003","271.7","8.46","265.8","NAN","NAN","NAN","NAN","NAN"],
    [1539655,"2026-02-05 18:10:00","40645","4.675","275.5","8.95","275.1","NAN","NAN","NAN","NAN","NAN"],
    [1539656,"2026-02-05 18:20:00","40646","5.591","275.0","9.34","264.3","NAN","NAN","NAN","NAN","NAN"],
    [1539657,"2026-02-05 18:30:00","40647","5.497999999999999","279.2","10.19","278.9","NAN","NAN","NAN","NAN","NAN"],
    [1539658,"2026-02-05 18:40:00","40648","4.717","279.8","11.53","273.4","NAN","NAN","NAN","NAN","NAN"],
    [1539659,"2026-02-05 18:50:00","40649","3.985","277.3","7.709","291","NAN","NAN","NAN","NAN","NAN"],
    [1539660,"2026-02-05 19:00:00","40650","4.7139999999999995","280.1","8.75","300.6","NAN","NAN","NAN","NAN","NAN"],
    [1539661,"2026-02-05 19:10:00","40651","4.1419999999999995","288.6","7.317","287","NAN","NAN","NAN","NAN","NAN"],
    [1539662,"2026-02-05 19:20:00","40652","4.291","285.2","9.51","274.6","NAN","NAN","NAN","NAN","NAN"],
    [1539663,"2026-02-05 19:30:00","40653","5.247000000000001","280.3","10.71","291.9","NAN","NAN","NAN","NAN","NAN"],
    [1539664,"2026-02-05 19:40:00","40654","4.0680000000000005","275.6","7.807","310.4","NAN","NAN","NAN","NAN","NAN"],
    [1539665,"2026-02-05 19:50:00","40655","3.285","251.7","5.945","261.6","NAN","NAN","NAN","NAN","NAN"],
    [1539666,"2026-02-05 20:00:00","40656","3.261","256.1","5.782","260.5","NAN","NAN","NAN","NAN","NAN"],
    [1539667,"2026-02-05 20:10:00","40657","2.54","253.7","4.541","238.3","NAN","NAN","NAN","NAN","NAN"],
    [1539668,"2026-02-05 20:20:00","40658","3.305","262.3","5.586","289.2","NAN","NAN","NAN","NAN","NAN"],
    [1539669,"2026-02-05 20:30:00","40659","4.31","260.1","8.49","252.5","NAN","NAN","NAN","NAN","NAN"],
    [1539670,"2026-02-05 20:40:00","40660","3.917","253.9","7.023","257.7","NAN","NAN","NAN","NAN","NAN"],
    [1539671,"2026-02-05 20:50:00","40661","3.86","262.3","6.631","258.3","NAN","NAN","NAN","NAN","NAN"],
    [1539672,"2026-02-05 21:00:00","40662","3.608","242.5","5.292","258.2","NAN","NAN","NAN","NAN","NAN"],
    [1539673,"2026-02-05 21:10:00","40663","3.1210000000000004","236.2","7.448","257.6","NAN","NAN","NAN","NAN","NAN"],
    [1539674,"2026-02-05 21:20:00","40664","4.032","258.5","6.272","250.1","NAN","NAN","NAN","NAN","NAN"],
    [1539675,"2026-02-05 21:30:00","40665","3.343","239.3","5.455","248.4","NAN","NAN","NAN","NAN","NAN"],
    [1539676,"2026-02-05 21:40:00","40666","2.463","228.5","4.279","217","NAN","NAN","NAN","NAN","NAN"],
    [1539677,"2026-02-05 21:50:00","40667","2.67","229.3","4.573","237.3","NAN","NAN","NAN","NAN","NAN"],
    [1539678,"2026-02-05 22:00:00","40668","3.031","225.1","4.769","220.2","NAN","NAN","NAN","NAN","NAN"],
    [1539679,"2026-02-05 22:10:00","40669","3.199","238.9","5.292","235.8","NAN","NAN","NAN","NAN","NAN"],
    [1539680,"2026-02-05 22:20:00","40670","3.13","240.5","5.325","239.7","NAN","NAN","NAN","NAN","NAN"],
    [1539681,"2026-02-05 22:30:00","40671","3.1919999999999997","244.7","5.161","242.1","NAN","NAN","NAN","NAN","NAN"],
    [1539682,"2026-02-05 22:40:00","40672","3.0260000000000002","224.2","4.704","212.1","NAN","NAN","NAN","NAN","NAN"],
    [1539683,"2026-02-05 22:50:00","40673","3.708","213.6","6.729","214.7","NAN","NAN","NAN","NAN","NAN"],
    [1539684,"2026-02-05 23:00:00","40674","3.529","221.9","6.925","222.3","NAN","NAN","NAN","NAN","NAN"],
    [1539685,"2026-02-05 23:10:00","40675","3.335","225.1","6.599","220.4","NAN","NAN","NAN","NAN","NAN"],
    [1539686,"2026-02-05 23:20:00","40676","3.957","225.9","6.795","221.5","NAN","NAN","NAN","NAN","NAN"],
    [1539687,"2026-02-05 23:30:00","40677","3.6180000000000003","235.5","6.207","236.5","NAN","NAN","NAN","NAN","NAN"],
    [1539688,"2026-02-05 23:40:00","40678","3.469","227.7","5.913","237.6","NAN","NAN","NAN","NAN","NAN"],
    [1539689,"2026-02-05 23:50:00","40679","3.489","228.3","5.749","223.5","NAN","NAN","NAN","NAN","NAN"],
    [1539690,"2026-02-06 00:00:00","40680","3.795","246.5","5.553","239.8","NAN","NAN","NAN","NAN","NAN"],
    [1539691,"2026-02-06 00:10:00","40681","4.8069999999999995","253.2","7.481","252.7","NAN","NAN","NAN","NAN","NAN"],
    [1539692,"2026-02-06 00:20:00","40682","4.921","257.3","7.742","252.8","NAN","NAN","NAN","NAN","NAN"],
    [1539693,"2026-02-06 00:30:00","40683","5.1739999999999995","254.0","7.775","247.4","NAN","NAN","NAN","NAN","NAN"],
    [1539694,"2026-02-06 00:40:00","40684","5.122999999999999","257.7","8.46","244.5","NAN","NAN","NAN","NAN","NAN"],
    [1539695,"2026-02-06 00:50:00","40685","4.9830000000000005","254.0","9.47","232.7","NAN","NAN","NAN","NAN","NAN"],
    [1539696,"2026-02-06 01:00:00","40686","5.362","248.8","8.1","241.5","NAN","NAN","NAN","NAN","NAN"],
    [1539697,"2026-02-06 01:10:00","40687","4.878","259.2","8","257.1","NAN","NAN","NAN","NAN","NAN"],
    [1539698,"2026-02-06 01:20:00","40688","4.8260000000000005","255.4","8.13","249.6","NAN","NAN","NAN","NAN","NAN"],
    [1539699,"2026-02-06 01:30:00","40689","4.544","266.4","7.35","258.8","NAN","NAN","NAN","NAN","NAN"],
    [1539700,"2026-02-06 01:40:00","40690","4.473","278.6","7.317","272.4","NAN","NAN","NAN","NAN","NAN"],
    [1539701,"2026-02-06 01:50:00","40691","4.253","279.4","6.043","286.1","NAN","NAN","NAN","NAN","NAN"],
    [1539702,"2026-02-06 02:00:00","40692","3.608","280.2","5.782","275.7","NAN","NAN","NAN","NAN","NAN"],
    [1539703,"2026-02-06 02:10:00","40693","3.0189999999999997","283.2","6.631","270.9","NAN","NAN","NAN","NAN","NAN"],
    [1539704,"2026-02-06 02:20:00","40694","2.95","279.0","4.312","279","NAN","NAN","NAN","NAN","NAN"],
    [1539705,"2026-02-06 02:30:00","40695","2.56","288.8","5.227","294.3","NAN","NAN","NAN","NAN","NAN"],
    [1539706,"2026-02-06 02:40:00","40696","3.241","307.9","5.259","315.4","NAN","NAN","NAN","NAN","NAN"],
    [1539707,"2026-02-06 02:50:00","40697","4.334","315.4","7.056","324.6","NAN","NAN","NAN","NAN","NAN"],
    [1539708,"2026-02-06 03:00:00","40698","3.886","305.5","6.729","310.4","NAN","NAN","NAN","NAN","NAN"],
    [1539709,"2026-02-06 03:10:00","40699","3.009","301.5","5.586","302.9","NAN","NAN","NAN","NAN","NAN"],
    [1539710,"2026-02-06 03:20:00","40700","1.36","296.9","3.593","308.7","NAN","NAN","NAN","NAN","NAN"],
    [1539711,"2026-02-06 03:30:00","40701","0.13699999999999998","287.9","1.013","288.1","NAN","NAN","NAN","NAN","NAN"],
    [1539712,"2026-02-06 03:40:00","40702","0.21","295.5","1.535","287.4","NAN","NAN","NAN","NAN","NAN"],
    [1539713,"2026-02-06 03:50:00","40703","0.619","301.1","3.005","290.7","NAN","NAN","NAN","NAN","NAN"],
    [1539714,"2026-02-06 04:00:00","40704","0.36700000000000005","289.6","1.535","294","NAN","NAN","NAN","NAN","NAN"],
    [1539715,"2026-02-06 04:10:00","40705","0.498","284.4","1.405","284.4","NAN","NAN","NAN","NAN","NAN"],
    [1539716,"2026-02-06 04:20:00","40706","0.852","280.6","2.875","279.8","NAN","NAN","NAN","NAN","NAN"],
    [1539717,"2026-02-06 04:30:00","40707","1.032","283.5","1.895","295.8","NAN","NAN","NAN","NAN","NAN"],
    [1539718,"2026-02-06 04:40:00","40708","1.121","306.1","6.337","290.7","NAN","NAN","NAN","NAN","NAN"],
    [1539719,"2026-02-06 04:50:00","40709","0.7120000000000001","305.3","2.973","309.3","NAN","NAN","NAN","NAN","NAN"],
    [1539720,"2026-02-06 05:00:00","40710","2.416","297.4","4.116","290.6","NAN","NAN","NAN","NAN","NAN"],
    [1539721,"2026-02-06 05:10:00","40711","2.748","294.1","5.39","298.1","NAN","NAN","NAN","NAN","NAN"],
    [1539722,"2026-02-06 05:20:00","40712","3.425","291.7","7.089","304.8","NAN","NAN","NAN","NAN","NAN"],
    [1539723,"2026-02-06 05:30:00","40713","2.37","283.9","5.782","302.4","NAN","NAN","NAN","NAN","NAN"],
    [1539724,"2026-02-06 05:40:00","40714","0.813","272.4","2.646","273.5","NAN","NAN","NAN","NAN","NAN"],
    [1539725,"2026-02-06 05:50:00","40715","0.275","270.2","1.895","270.1","NAN","NAN","NAN","NAN","NAN"],
    [1539726,"2026-02-06 06:00:00","40716","1.003","270.1","2.123","270","NAN","NAN","NAN","NAN","NAN"],
    [1539727,"2026-02-06 06:10:00","40717","0.17800000000000002","270.2","1.176","270.2","NAN","NAN","NAN","NAN","NAN"],
    [1539728,"2026-02-06 06:20:00","40718","0.392","269.4","3.267","272.4","NAN","NAN","NAN","NAN","NAN"],
    [1539729,"2026-02-06 06:30:00","40719","2.074","273.2","3.365","278","NAN","NAN","NAN","NAN","NAN"],
    [1539730,"2026-02-06 06:40:00","40720","2.737","284.2","5.553","296.6","NAN","NAN","NAN","NAN","NAN"],
    [1539731,"2026-02-06 06:50:00","40721","4.2010000000000005","285.0","7.709","281","NAN","NAN","NAN","NAN","NAN"],
    [1539732,"2026-02-06 07:00:00","40722","4.112","287.0","7.709","287.3","NAN","NAN","NAN","NAN","NAN"],
    [1539733,"2026-02-06 07:10:00","40723","4.371","288.7","8.23","282.7","NAN","NAN","NAN","NAN","NAN"],
    [1539734,"2026-02-06 07:20:00","40724","3.3160000000000003","292.6","7.154","288.8","NAN","NAN","NAN","NAN","NAN"],
    [1539735,"2026-02-06 07:30:00","40725","3.175","292.0","6.337","296.5","NAN","NAN","NAN","NAN","NAN"],
    [1539736,"2026-02-06 07:40:00","40726","2.224","289.1","5.455","288.6","NAN","NAN","NAN","NAN","NAN"],
    [1539737,"2026-02-06 07:50:00","40727","1.986","276.4","4.41","279.5","NAN","NAN","NAN","NAN","NAN"],
    [1539738,"2026-02-06 08:00:00","40728","2.517","274.0","3.887","270.7","NAN","NAN","NAN","NAN","NAN"],
    [1539739,"2026-02-06 08:10:00","40729","3.193","258.5","5.031","253.8","NAN","NAN","NAN","NAN","NAN"],
    [1539740,"2026-02-06 08:20:00","40730","2.299","254.3","4.149","279.1","NAN","NAN","NAN","NAN","NAN"],
    [1539741,"2026-02-06 08:30:00","40731","2.615","255.9","4.835","269.5","NAN","NAN","NAN","NAN","NAN"],
    [1539742,"2026-02-06 08:40:00","40732","2.9760000000000004","268.2","4.704","256.1","NAN","NAN","NAN","NAN","NAN"],
    [1539743,"2026-02-06 08:50:00","40733","2.818","279.3","4.802","267.4","NAN","NAN","NAN","NAN","NAN"],
    [1539744,"2026-02-06 09:00:00","40734","1.395","293.0","4.083","271.8","NAN","NAN","NAN","NAN","NAN"],
    [1539745,"2026-02-06 09:10:00","40735","1.198","282.8","3.463","290.3","NAN","NAN","NAN","NAN","NAN"],
    [1539746,"2026-02-06 09:20:00","40736","0.47100000000000003","282.2","2.287","284.1","NAN","NAN","NAN","NAN","NAN"],
    [1539747,"2026-02-06 09:30:00","40737","0.708","258.1","3.887","267.7","NAN","NAN","NAN","NAN","NAN"],
    [1539748,"2026-02-06 09:40:00","40738","0.821","234.6","4.214","245.4","NAN","NAN","NAN","NAN","NAN"],
    [1539749,"2026-02-06 09:50:00","40739","0.094","227.8","1.274","227.1","NAN","NAN","NAN","NAN","NAN"],
    [1539750,"2026-02-06 10:00:00","40740","1.2670000000000001","289.8","4.279","317.4","NAN","NAN","NAN","NAN","NAN"],
    [1539751,"2026-02-06 10:10:00","40741","2.315","291.4","5.455","248.4","NAN","NAN","NAN","NAN","NAN"],
    [1539752,"2026-02-06 10:20:00","40742","3.326","277.2","6.011","265.9","NAN","NAN","NAN","NAN","NAN"],
    [1539753,"2026-02-06 10:30:00","40743","4.25","291.9","6.533","287.3","NAN","NAN","NAN","NAN","NAN"],
    [1539754,"2026-02-06 10:40:00","40744","4.4830000000000005","285.7","7.709","292.9","NAN","NAN","NAN","NAN","NAN"],
    [1539755,"2026-02-06 10:50:00","40745","4.984","292.3","8.53","279.6","NAN","NAN","NAN","NAN","NAN"],
    [1539756,"2026-02-06 11:00:00","40746","5.062","297.4","8.59","292.2","NAN","NAN","NAN","NAN","NAN"],
    [1539757,"2026-02-06 11:10:00","40747","4.7410000000000005","299.5","8.69","308.3","NAN","NAN","NAN","NAN","NAN"],
    [1539758,"2026-02-06 11:20:00","40748","3.819","296.8","6.958","309","NAN","NAN","NAN","NAN","NAN"],
    [1539759,"2026-02-06 11:30:00","40749","5.678999999999999","273.7","9.57","265.7","NAN","NAN","NAN","NAN","NAN"],
    [1539760,"2026-02-06 11:40:00","40750","6.084","273.0","10","265","NAN","NAN","NAN","NAN","NAN"],
    [1539761,"2026-02-06 11:50:00","40751","5.888999999999999","277.1","10.91","292.3","NAN","NAN","NAN","NAN","NAN"],
    [1539762,"2026-02-06 12:00:00","40752","5.971","289.7","9.93","308.2","NAN","NAN","NAN","NAN","NAN"],
    [1539763,"2026-02-06 12:10:00","40753","5.598","292.6","9.96","263.3","NAN","NAN","NAN","NAN","NAN"],
    [1539764,"2026-02-06 12:20:00","40754","4.71","296.2","7.775","299.7","NAN","NAN","NAN","NAN","NAN"],
    [1539765,"2026-02-06 12:30:00","40755","4.914","289.3","7.579","286.6","NAN","NAN","NAN","NAN","NAN"],
    [1539766,"2026-02-06 12:40:00","40756","4.008","284.8","8.66","286.2","NAN","NAN","NAN","NAN","NAN"],
    [1539767,"2026-02-06 12:50:00","40757","3.909","249.2","7.056","256.8","NAN","NAN","NAN","NAN","NAN"],
    [1539768,"2026-02-06 13:00:00","40758","3.304","242.9","5.717","227.4","NAN","NAN","NAN","NAN","NAN"],
    [1539769,"2026-02-06 13:10:00","40759","4.399","224.0","8.1","224","NAN","NAN","NAN","NAN","NAN"],
    [1539770,"2026-02-06 13:20:00","40760","5.18","208.6","8.59","205.1","NAN","NAN","NAN","NAN","NAN"],
    [1539771,"2026-02-06 13:30:00","40761","4.474","220.6","8.43","204.5","NAN","NAN","NAN","NAN","NAN"],
    [1539772,"2026-02-06 13:40:00","40762","4.407","243.5","8.23","234.5","NAN","NAN","NAN","NAN","NAN"],
    [1539773,"2026-02-06 13:50:00","40763","5.154","235.7","9.02","242.4","NAN","NAN","NAN","NAN","NAN"],
    [1539774,"2026-02-06 14:00:00","40764","4.777","227.3","8.13","214.6","NAN","NAN","NAN","NAN","NAN"],
    [1539775,"2026-02-06 14:10:00","40765","4.075","228.1","6.762","232","NAN","NAN","NAN","NAN","NAN"],
    [1539776,"2026-02-06 14:20:00","40766","4.574","230.6","8.53","253.2","NAN","NAN","NAN","NAN","NAN"],
    [1539777,"2026-02-06 14:30:00","40767","4.478","233.9","8.98","239.6","NAN","NAN","NAN","NAN","NAN"],
    [1539778,"2026-02-06 14:40:00","40768","5.237","231.8","8.82","234.6","NAN","NAN","NAN","NAN","NAN"],
    [1539779,"2026-02-06 14:50:00","40769","4.387","234.3","8.53","255.8","NAN","NAN","NAN","NAN","NAN"],
    [1539780,"2026-02-06 15:00:00","40770","4.02","230.9","8.85","228.9","NAN","NAN","NAN","NAN","NAN"],
    [1539781,"2026-02-06 15:10:00","40771","4.138","232.3","7.317","226","NAN","NAN","NAN","NAN","NAN"],
    [1539782,"2026-02-06 15:20:00","40772","4.034","233.4","8.43","215","NAN","NAN","NAN","NAN","NAN"],
    [1539783,"2026-02-06 15:30:00","40773","4.584","234.9","7.775","255.6","NAN","NAN","NAN","NAN","NAN"],
    [1539784,"2026-02-06 15:40:00","40774","3.885","237.3","7.219","245.8","NAN","NAN","NAN","NAN","NAN"],
    [1539785,"2026-02-06 15:50:00","40775","3.612","225.7","6.958","218.6","NAN","NAN","NAN","NAN","NAN"],
    [1539786,"2026-02-06 16:00:00","40776","3.497","230.6","6.533","236.4","NAN","NAN","NAN","NAN","NAN"],
    [1539787,"2026-02-06 16:10:00","40777","3.7569999999999997","220.9","6.925","221.8","NAN","NAN","NAN","NAN","NAN"],
    [1539788,"2026-02-06 16:20:00","40778","3.34","214.9","5.423","238.7","NAN","NAN","NAN","NAN","NAN"],
    [1539789,"2026-02-06 16:30:00","40779","3.219","226.6","6.011","229.5","NAN","NAN","NAN","NAN","NAN"],
    [1539790,"2026-02-06 16:40:00","40780","2.525","243.4","4.573","241.8","NAN","NAN","NAN","NAN","NAN"],
    [1539791,"2026-02-06 16:50:00","40781","1.77","232.1","3.561","229.5","NAN","NAN","NAN","NAN","NAN"],
    [1539792,"2026-02-06 17:00:00","40782","2.347","241.3","3.855","240.8","NAN","NAN","NAN","NAN","NAN"],
    [1539793,"2026-02-06 17:10:00","40783","2.072","233.5","3.332","249.6","NAN","NAN","NAN","NAN","NAN"],
    [1539794,"2026-02-06 17:20:00","40784","2.004","238.6","4.181","228.5","NAN","NAN","NAN","NAN","NAN"],
    [1539795,"2026-02-06 17:30:00","40785","1.444","226.7","2.744","234.1","NAN","NAN","NAN","NAN","NAN"],
    [1539796,"2026-02-06 17:40:00","40786","0.9309999999999999","236.5","2.156","234.6","NAN","NAN","NAN","NAN","NAN"],
    [1539797,"2026-02-06 17:50:00","40787","0.489","239.8","1.862","239.2","NAN","NAN","NAN","NAN","NAN"],
    [1539798,"2026-02-06 18:00:00","40788","0.11199999999999999","244.5","0.588","241.8","NAN","NAN","NAN","NAN","NAN"],
    [1539799,"2026-02-06 18:10:00","40789","0.18899999999999997","249.1","0.751","249.1","NAN","NAN","NAN","NAN","NAN"],
    [1539800,"2026-02-06 18:20:00","40790","0.43200000000000005","249.1","1.111","249.1","NAN","NAN","NAN","NAN","NAN"],
    [1539801,"2026-02-06 18:30:00","40791","0.166","249.1","0.784","249.1","NAN","NAN","NAN","NAN","NAN"],
    [1539802,"2026-02-06 18:40:00","40792","0.613","241.6","2.025","229","NAN","NAN","NAN","NAN","NAN"],
    [1539803,"2026-02-06 18:50:00","40793","1.45","219.7","3.299","220.3","NAN","NAN","NAN","NAN","NAN"],
    [1539804,"2026-02-06 19:00:00","40794","1.1159999999999999","221.0","1.96","223.4","NAN","NAN","NAN","NAN","NAN"],
    [1539805,"2026-02-06 19:10:00","40795","0.698","226.6","1.993","227.1","NAN","NAN","NAN","NAN","NAN"],
    [1539806,"2026-02-06 19:20:00","40796","0.107","228.5","0.882","228.1","NAN","NAN","NAN","NAN","NAN"],
    [1539807,"2026-02-06 19:30:00","40797","0.645","231.4","1.927","231","NAN","NAN","NAN","NAN","NAN"],
    [1539808,"2026-02-06 19:40:00","40798","0.9470000000000001","225.6","1.601","221.5","NAN","NAN","NAN","NAN","NAN"],
    [1539809,"2026-02-06 19:50:00","40799","0.337","226.4","2.189","234.6","NAN","NAN","NAN","NAN","NAN"],
    [1539810,"2026-02-06 20:00:00","40800","0.009000000000000001","235.0","0.359","235","NAN","NAN","NAN","NAN","NAN"],
    [1539811,"2026-02-06 20:10:00","40801","0.569","235.0","1.601","234.8","NAN","NAN","NAN","NAN","NAN"],
    [1539812,"2026-02-06 20:20:00","40802","0.92","235.4","1.47","235.4","NAN","NAN","NAN","NAN","NAN"],
    [1539813,"2026-02-06 20:30:00","40803","0.757","227.1","2.319","217.9","NAN","NAN","NAN","NAN","NAN"],
    [1539814,"2026-02-06 20:40:00","40804","1.472","235.6","2.221","237","NAN","NAN","NAN","NAN","NAN"],
    [1539815,"2026-02-06 20:50:00","40805","0.682","236.9","1.437","237","NAN","NAN","NAN","NAN","NAN"],
    [1539816,"2026-02-06 21:00:00","40806","0.591","237.6","1.47","237.4","NAN","NAN","NAN","NAN","NAN"],
    [1539817,"2026-02-06 21:10:00","40807","0.07200000000000001","237.7","0.947","237.7","NAN","NAN","NAN","NAN","NAN"],
    [1539818,"2026-02-06 21:20:00","40808","0.006","237.8","0.261","237.8","NAN","NAN","NAN","NAN","NAN"],
    [1539819,"2026-02-06 21:30:00","40809","0.14800000000000002","237.8","1.143","237.8","NAN","NAN","NAN","NAN","NAN"],
    [1539820,"2026-02-06 21:40:00","40810","0.171","237.8","1.307","237.8","NAN","NAN","NAN","NAN","NAN"],
    [1539821,"2026-02-06 21:50:00","40811","0.0","237.8","0.033","237.8","NAN","NAN","NAN","NAN","NAN"],
    [1539822,"2026-02-06 22:00:00","40812","0.0","0.0","0","0","NAN","NAN","NAN","NAN","NAN"],
    [1539823,"2026-02-06 22:10:00","40813","0.001","238.1","0.065","238.2","NAN","NAN","NAN","NAN","NAN"],
    [1539824,"2026-02-06 22:20:00","40814","1.151","232.6","3.136","218","NAN","NAN","NAN","NAN","NAN"],
    [1539825,"2026-02-06 22:30:00","40815","2.066","216.5","2.809","216.5","NAN","NAN","NAN","NAN","NAN"],
    [1539826,"2026-02-06 22:40:00","40816","1.053","222.1","2.254","228.8","NAN","NAN","NAN","NAN","NAN"],
    [1539827,"2026-02-06 22:50:00","40817","2.391","244.5","4.475","267.4","NAN","NAN","NAN","NAN","NAN"],
    [1539828,"2026-02-06 23:00:00","40818","2.755","272.2","4.41","259.4","NAN","NAN","NAN","NAN","NAN"],
    [1539829,"2026-02-06 23:10:00","40819","2.39","292.9","3.724","287.6","NAN","NAN","NAN","NAN","NAN"],
    [1539830,"2026-02-06 23:20:00","40820","2.4019999999999997","285.6","3.691","287.8","NAN","NAN","NAN","NAN","NAN"],
    [1539831,"2026-02-06 23:30:00","40821","2.4219999999999997","276.7","3.985","281.4","NAN","NAN","NAN","NAN","NAN"],
    [1539832,"2026-02-06 23:40:00","40822","1.76","280.3","3.038","284.2","NAN","NAN","NAN","NAN","NAN"],
    [1539833,"2026-02-06 23:50:00","40823","2.3480000000000003","268.5","3.953","271.7","NAN","NAN","NAN","NAN","NAN"],
    [1539834,"2026-02-07 00:00:00","40824","2.371","282.2","4.083","266.3","NAN","NAN","NAN","NAN","NAN"],
    [1539835,"2026-02-07 00:10:00","40825","3.063","294.7","5.619","293.6","NAN","NAN","NAN","NAN","NAN"],
    [1539836,"2026-02-07 00:20:00","40826","3.7039999999999997","292.5","5.782","307.3","NAN","NAN","NAN","NAN","NAN"],
    [1539837,"2026-02-07 00:30:00","40827","3.227","285.4","5.586","287.5","NAN","NAN","NAN","NAN","NAN"],
    [1539838,"2026-02-07 00:40:00","40828","3.123","273.0","5.194","270.5","NAN","NAN","NAN","NAN","NAN"],
    [1539839,"2026-02-07 00:50:00","40829","2.6180000000000003","256.6","3.92","255","NAN","NAN","NAN","NAN","NAN"],
    [1539840,"2026-02-07 01:00:00","40830","2.1959999999999997","268.8","3.822","268.7","NAN","NAN","NAN","NAN","NAN"],
    [1539841,"2026-02-07 01:10:00","40831","2.019","279.3","4.541","285","NAN","NAN","NAN","NAN","NAN"],
    [1539842,"2026-02-07 01:20:00","40832","2.046","275.8","3.822","275.9","NAN","NAN","NAN","NAN","NAN"],
    [1539843,"2026-02-07 01:30:00","40833","3.0439999999999996","265.9","7.775","272","NAN","NAN","NAN","NAN","NAN"],
    [1539844,"2026-02-07 01:40:00","40834","3.833","254.2","6.207","245.9","NAN","NAN","NAN","NAN","NAN"],
    [1539845,"2026-02-07 01:50:00","40835","3.458","245.5","6.664","244.3","NAN","NAN","NAN","NAN","NAN"],
    [1539846,"2026-02-07 02:00:00","40836","3.638","257.1","6.272","255.4","NAN","NAN","NAN","NAN","NAN"],
    [1539847,"2026-02-07 02:10:00","40837","1.7830000000000001","232.8","4.149","254.5","NAN","NAN","NAN","NAN","NAN"],
    [1539848,"2026-02-07 02:20:00","40838","1.617","214.5","3.136","213.3","NAN","NAN","NAN","NAN","NAN"],
    [1539849,"2026-02-07 02:30:00","40839","1.055","226.3","2.45","215.4","NAN","NAN","NAN","NAN","NAN"],
    [1539850,"2026-02-07 02:40:00","40840","0.364","236.7","1.601","236.7","NAN","NAN","NAN","NAN","NAN"],
    [1539851,"2026-02-07 02:50:00","40841","0.774","235.6","1.927","233.1","NAN","NAN","NAN","NAN","NAN"],
    [1539852,"2026-02-07 03:00:00","40842","1.3880000000000001","236.2","2.907","237.4","NAN","NAN","NAN","NAN","NAN"],
    [1539853,"2026-02-07 03:10:00","40843","1.96","252.8","3.267","258.2","NAN","NAN","NAN","NAN","NAN"],
    [1539854,"2026-02-07 03:20:00","40844","1.712","261.7","2.973","258.8","NAN","NAN","NAN","NAN","NAN"],
    [1539855,"2026-02-07 03:30:00","40845","2.338","267.3","5.423","273.8","NAN","NAN","NAN","NAN","NAN"],
    [1539856,"2026-02-07 03:40:00","40846","1.609","274.4","3.299","271.1","NAN","NAN","NAN","NAN","NAN"],
    [1539857,"2026-02-07 03:50:00","40847","0.374","270.9","1.47","271.8","NAN","NAN","NAN","NAN","NAN"],
    [1539858,"2026-02-07 04:00:00","40848","0.297","266.5","1.274","266.5","NAN","NAN","NAN","NAN","NAN"],
    [1539859,"2026-02-07 04:10:00","40849","0.006","263.8","0.392","263.7","NAN","NAN","NAN","NAN","NAN"],
    [1539860,"2026-02-07 04:20:00","40850","0.0","0.0","0","0","NAN","NAN","NAN","NAN","NAN"],
    [1539861,"2026-02-07 04:30:00","40851","0.076","263.1","0.947","264.2","NAN","NAN","NAN","NAN","NAN"],
    [1539862,"2026-02-07 04:40:00","40852","1.365","265.3","2.679","264","NAN","NAN","NAN","NAN","NAN"],
    [1539863,"2026-02-07 04:50:00","40853","1.6769999999999998","262.2","2.809","262","NAN","NAN","NAN","NAN","NAN"],
    [1539864,"2026-02-07 05:00:00","40854","1.5090000000000001","264.9","2.319","262","NAN","NAN","NAN","NAN","NAN"],
    [1539865,"2026-02-07 05:10:00","40855","1.29","268.8","2.385","269.4","NAN","NAN","NAN","NAN","NAN"],
    [1539866,"2026-02-07 05:20:00","40856","1.555","265.2","3.593","238.3","NAN","NAN","NAN","NAN","NAN"],
    [1539867,"2026-02-07 05:30:00","40857","2.2969999999999997","252.0","4.214","247.2","NAN","NAN","NAN","NAN","NAN"],
    [1539868,"2026-02-07 05:40:00","40858","3.9389999999999996","252.2","7.415","242.5","NAN","NAN","NAN","NAN","NAN"],
    [1539869,"2026-02-07 05:50:00","40859","3.917","267.1","6.435","263.2","NAN","NAN","NAN","NAN","NAN"],
    [1539870,"2026-02-07 06:00:00","40860","3.4730000000000003","270.7","5.521","276.1","NAN","NAN","NAN","NAN","NAN"],
    [1539871,"2026-02-07 06:10:00","40861","3.773","263.8","6.501","274","NAN","NAN","NAN","NAN","NAN"],
    [1539872,"2026-02-07 06:20:00","40862","3.531","265.0","5.553","233.3","NAN","NAN","NAN","NAN","NAN"],
    [1539873,"2026-02-07 06:30:00","40863","1.9909999999999999","259.0","3.953","258.2","NAN","NAN","NAN","NAN","NAN"],
    [1539874,"2026-02-07 06:40:00","40864","1.97","275.8","4.214","281.3","NAN","NAN","NAN","NAN","NAN"],
    [1539875,"2026-02-07 06:50:00","40865","1.754","260.4","3.103","257.7","NAN","NAN","NAN","NAN","NAN"],
    [1539876,"2026-02-07 07:00:00","40866","1.5930000000000002","260.6","2.679","266","NAN","NAN","NAN","NAN","NAN"],
    [1539877,"2026-02-07 07:10:00","40867","2.7119999999999997","277.6","5.227","271.7","NAN","NAN","NAN","NAN","NAN"],
    [1539878,"2026-02-07 07:20:00","40868","3.5610000000000004","302.8","6.468","306.2","NAN","NAN","NAN","NAN","NAN"],
    [1539879,"2026-02-07 07:30:00","40869","3.533","306.7","5.815","291.5","NAN","NAN","NAN","NAN","NAN"],
    [1539880,"2026-02-07 07:40:00","40870","2.295","315.7","4.933","326.6","NAN","NAN","NAN","NAN","NAN"],
    [1539881,"2026-02-07 07:50:00","40871","1.66","320.2","3.789","316.5","NAN","NAN","NAN","NAN","NAN"],
    [1539882,"2026-02-07 08:00:00","40872","2.157","316.0","3.691","310.4","NAN","NAN","NAN","NAN","NAN"],
    [1539883,"2026-02-07 08:10:00","40873","3.528","305.5","6.566","275.8","NAN","NAN","NAN","NAN","NAN"],
    [1539884,"2026-02-07 08:20:00","40874","3.48","295.7","7.807","267.5","NAN","NAN","NAN","NAN","NAN"],
    [1539885,"2026-02-07 08:30:00","40875","4.379","301.5","7.513","316.5","NAN","NAN","NAN","NAN","NAN"],
    [1539886,"2026-02-07 08:40:00","40876","3.9160000000000004","298.0","6.207","300.9","NAN","NAN","NAN","NAN","NAN"],
    [1539887,"2026-02-07 08:50:00","40877","2.674","303.3","6.141","298.1","NAN","NAN","NAN","NAN","NAN"],
    [1539888,"2026-02-07 09:00:00","40878","3.281","308.4","6.043","297.8","NAN","NAN","NAN","NAN","NAN"],
    [1539889,"2026-02-07 09:10:00","40879","2.3080000000000003","306.0","3.953","310.7","NAN","NAN","NAN","NAN","NAN"],
    [1539890,"2026-02-07 09:20:00","40880","2.7539999999999996","300.8","5.651","316.7","NAN","NAN","NAN","NAN","NAN"],
    [1539891,"2026-02-07 09:30:00","40881","3.505","293.8","7.023","263.5","NAN","NAN","NAN","NAN","NAN"],
    [1539892,"2026-02-07 09:40:00","40882","4.448","291.9","7.971","270.6","NAN","NAN","NAN","NAN","NAN"],
    [1539893,"2026-02-07 09:50:00","40883","4.335","283.2","7.219","283.3","NAN","NAN","NAN","NAN","NAN"],
    [1539894,"2026-02-07 10:00:00","40884","3.897","275.3","7.383","266.9","NAN","NAN","NAN","NAN","NAN"],
    [1539895,"2026-02-07 10:10:00","40885","5.58","273.9","8.56","267.7","NAN","NAN","NAN","NAN","NAN"],
    [1539896,"2026-02-07 10:20:00","40886","5.487","287.8","8.75","267.9","NAN","NAN","NAN","NAN","NAN"],
    [1539897,"2026-02-07 10:30:00","40887","5.55","284.0","9.6","296.8","NAN","NAN","NAN","NAN","NAN"],
    [1539898,"2026-02-07 10:40:00","40888","5.078","284.2","8","313.9","NAN","NAN","NAN","NAN","NAN"],
    [1539899,"2026-02-07 10:50:00","40889","5.2139999999999995","291.1","9.28","305.2","NAN","NAN","NAN","NAN","NAN"],
    [1539900,"2026-02-07 11:00:00","40890","5.746","301.9","9.77","301.9","NAN","NAN","NAN","NAN","NAN"],
    [1539901,"2026-02-07 11:10:00","40891","4.8839999999999995","289.6","9.96","303.6","NAN","NAN","NAN","NAN","NAN"],
    [1539902,"2026-02-07 11:20:00","40892","5.396","305.9","11.04","299.4","NAN","NAN","NAN","NAN","NAN"],
    [1539903,"2026-02-07 11:30:00","40893","5.8389999999999995","294.9","9.38","276.5","NAN","NAN","NAN","NAN","NAN"],
    [1539904,"2026-02-07 11:40:00","40894","7.162999999999999","303.1","11.5","300.6","NAN","NAN","NAN","NAN","NAN"],
    [1539905,"2026-02-07 11:50:00","40895","6.311","287.9","10.71","298.8","NAN","NAN","NAN","NAN","NAN"],
    [1539906,"2026-02-07 12:00:00","40896","6.023","287.4","11.34","270.3","NAN","NAN","NAN","NAN","NAN"],
    [1539907,"2026-02-07 12:10:00","40897","6.621","297.0","10.09","254.6","NAN","NAN","NAN","NAN","NAN"],
    [1539908,"2026-02-07 12:20:00","40898","5.704","300.2","10.13","263.3","NAN","NAN","NAN","NAN","NAN"],
    [1539909,"2026-02-07 12:30:00","40899","5.906000000000001","293.6","9.05","314.6","NAN","NAN","NAN","NAN","NAN"],
    [1539910,"2026-02-07 12:40:00","40900","6.279","302.6","10.32","304.6","NAN","NAN","NAN","NAN","NAN"],
    [1539911,"2026-02-07 12:50:00","40901","6.5520000000000005","298.5","9.7","296","NAN","NAN","NAN","NAN","NAN"],
    [1539912,"2026-02-07 13:00:00","40902","7.244","295.5","11.4","307.7","NAN","NAN","NAN","NAN","NAN"],
    [1539913,"2026-02-07 13:10:00","40903","7.372000000000001","302.3","10.88","294.3","NAN","NAN","NAN","NAN","NAN"],
    [1539914,"2026-02-07 13:20:00","40904","6.9110000000000005","296.4","12.02","298.9","NAN","NAN","NAN","NAN","NAN"],
    [1539915,"2026-02-07 13:30:00","40905","6.49","296.8","10.49","306.7","NAN","NAN","NAN","NAN","NAN"],
    [1539916,"2026-02-07 13:40:00","40906","5.303999999999999","290.2","8.72","303.9","NAN","NAN","NAN","NAN","NAN"],
    [1539917,"2026-02-07 13:50:00","40907","5.8870000000000005","305.3","9.96","303.4","NAN","NAN","NAN","NAN","NAN"],
    [1539918,"2026-02-07 14:00:00","40908","5.0889999999999995","301.2","8.33","316.6","NAN","NAN","NAN","NAN","NAN"],
    [1539919,"2026-02-07 14:10:00","40909","6.004","295.6","10.29","286.7","NAN","NAN","NAN","NAN","NAN"],
    [1539920,"2026-02-07 14:20:00","40910","4.832","280.9","7.775","289","NAN","NAN","NAN","NAN","NAN"],
    [1539921,"2026-02-07 14:30:00","40911","4.227","293.8","6.86","289.7","NAN","NAN","NAN","NAN","NAN"],
    [1539922,"2026-02-07 14:40:00","40912","5.071000000000001","274.8","9.05","265.1","NAN","NAN","NAN","NAN","NAN"],
    [1539923,"2026-02-07 14:50:00","40913","5.232","277.5","9.11","277.9","NAN","NAN","NAN","NAN","NAN"],
    [1539924,"2026-02-07 15:00:00","40914","5.27","287.1","9.31","273.3","NAN","NAN","NAN","NAN","NAN"],
    [1539925,"2026-02-07 15:10:00","40915","4.752","270.0","8.2","265","NAN","NAN","NAN","NAN","NAN"],
    [1539926,"2026-02-07 15:20:00","40916","5.107","283.8","8.2","278.1","NAN","NAN","NAN","NAN","NAN"],
    [1539927,"2026-02-07 15:30:00","40917","5.0089999999999995","280.3","8.89","271.6","NAN","NAN","NAN","NAN","NAN"],
    [1539928,"2026-02-07 15:40:00","40918","4.596","271.2","8.26","257.2","NAN","NAN","NAN","NAN","NAN"],
    [1539929,"2026-02-07 15:50:00","40919","3.802","255.5","6.697","251.1","NAN","NAN","NAN","NAN","NAN"],
    [1539930,"2026-02-07 16:00:00","40920","4.482","253.7","8.46","277.7","NAN","NAN","NAN","NAN","NAN"],
    [1539931,"2026-02-07 16:10:00","40921","4.9239999999999995","245.0","9.57","253.8","NAN","NAN","NAN","NAN","NAN"],
    [1539932,"2026-02-07 16:20:00","40922","5.308","250.0","9.11","251.4","NAN","NAN","NAN","NAN","NAN"],
    [1539933,"2026-02-07 16:30:00","40923","5.111000000000001","246.1","8.69","227.7","NAN","NAN","NAN","NAN","NAN"],
    [1539934,"2026-02-07 16:40:00","40924","4.585","241.3","8.85","237.2","NAN","NAN","NAN","NAN","NAN"],
    [1539935,"2026-02-07 16:50:00","40925","4.658","234.5","9.02","236.9","NAN","NAN","NAN","NAN","NAN"],
    [1539936,"2026-02-07 17:00:00","40926","5.496","251.3","8.33","251.1","NAN","NAN","NAN","NAN","NAN"],
    [1539937,"2026-02-07 17:10:00","40927","4.945","253.1","9.54","247.7","NAN","NAN","NAN","NAN","NAN"],
    [1539938,"2026-02-07 17:20:00","40928","3.8939999999999997","248.0","6.729","252.3","NAN","NAN","NAN","NAN","NAN"],
    [1539939,"2026-02-07 17:30:00","40929","3.483","248.5","6.239","242.7","NAN","NAN","NAN","NAN","NAN"],
    [1539940,"2026-02-07 17:40:00","40930","4.835","253.5","7.056","256.1","NAN","NAN","NAN","NAN","NAN"],
    [1539941,"2026-02-07 17:50:00","40931","4.436","251.5","6.501","251.3","NAN","NAN","NAN","NAN","NAN"],
    [1539942,"2026-02-07 18:00:00","40932","3.239","245.3","6.403","251.6","NAN","NAN","NAN","NAN","NAN"],
    [1539943,"2026-02-07 18:10:00","40933","3.3489999999999998","257.2","5.063","265.4","NAN","NAN","NAN","NAN","NAN"],
    [1539944,"2026-02-07 18:20:00","40934","3.03","256.3","4.704","257.2","NAN","NAN","NAN","NAN","NAN"],
    [1539945,"2026-02-07 18:30:00","40935","2.4219999999999997","255.4","4.377","247.4","NAN","NAN","NAN","NAN","NAN"],
    [1539946,"2026-02-07 18:40:00","40936","1.857","261.0","3.463","253.3","NAN","NAN","NAN","NAN","NAN"],
    [1539947,"2026-02-07 18:50:00","40937","2.495","249.6","3.887","254.1","NAN","NAN","NAN","NAN","NAN"],
    [1539948,"2026-02-07 19:00:00","40938","2.2640000000000002","247.3","3.495","239.9","NAN","NAN","NAN","NAN","NAN"],
    [1539949,"2026-02-07 19:10:00","40939","1.6059999999999999","258.5","2.417","255.8","NAN","NAN","NAN","NAN","NAN"],
    [1539950,"2026-02-07 19:20:00","40940","0.977","264.0","2.515","264.2","NAN","NAN","NAN","NAN","NAN"],
    [1539951,"2026-02-07 19:30:00","40941","0.01","264.4","0.392","264.4","NAN","NAN","NAN","NAN","NAN"],
    [1539952,"2026-02-07 19:40:00","40942","0.008","264.4","0.327","264.4","NAN","NAN","NAN","NAN","NAN"],
    [1539953,"2026-02-07 19:50:00","40943","0.359","264.3","1.241","264.2","NAN","NAN","NAN","NAN","NAN"],
    [1539954,"2026-02-07 20:00:00","40944","0.0","0.0","0","0","NAN","NAN","NAN","NAN","NAN"],
    [1539955,"2026-02-07 20:10:00","40945","0.0","0.0","0","0","NAN","NAN","NAN","NAN","NAN"],
    [1539956,"2026-02-07 20:20:00","40946","0.0","0.0","0","0","NAN","NAN","NAN","NAN","NAN"],
    [1539957,"2026-02-07 20:30:00","40947","0.0","0.0","0","0","NAN","NAN","NAN","NAN","NAN"],
    [1539958,"2026-02-07 20:40:00","40948","0.0","0.0","0","0","NAN","NAN","NAN","NAN","NAN"],
    [1539959,"2026-02-07 20:50:00","40949","0.0","0.0","0","0","NAN","NAN","NAN","NAN","NAN"],
    [1539960,"2026-02-07 21:00:00","40950","0.0","0.0","0","0","NAN","NAN","NAN","NAN","NAN"],
    [1539961,"2026-02-07 21:10:00","40951","0.0","0.0","0","0","NAN","NAN","NAN","NAN","NAN"],
    [1539962,"2026-02-07 21:20:00","40952","0.0","0.0","0","0","NAN","NAN","NAN","NAN","NAN"],
    [1539963,"2026-02-07 21:30:00","40953","0.0","0.0","0","0","NAN","NAN","NAN","NAN","NAN"],
    [1539964,"2026-02-07 21:40:00","40954","0.0","0.0","0","0","NAN","NAN","NAN","NAN","NAN"],
    [1539965,"2026-02-07 21:50:00","40955","0.0","0.0","0","0","NAN","NAN","NAN","NAN","NAN"],
    [1539966,"2026-02-07 22:00:00","40956","0.0","0.0","0","0","NAN","NAN","NAN","NAN","NAN"],
    [1539967,"2026-02-07 22:10:00","40957","0.023","264.3","0.425","264.3","NAN","NAN","NAN","NAN","NAN"],
    [1539968,"2026-02-07 22:20:00","40958","0.0","0.0","0","0","NAN","NAN","NAN","NAN","NAN"],
    [1539969,"2026-02-07 22:30:00","40959","0.0","0.0","0","0","NAN","NAN","NAN","NAN","NAN"],
    [1539970,"2026-02-07 22:40:00","40960","0.076","263.2","1.045","263.4","NAN","NAN","NAN","NAN","NAN"],
    [1539971,"2026-02-07 22:50:00","40961","0.047","264.0","0.849","264","NAN","NAN","NAN","NAN","NAN"],
    [1539972,"2026-02-07 23:00:00","40962","1.072","262.1","1.666","261.5","NAN","NAN","NAN","NAN","NAN"],
    [1539973,"2026-02-07 23:10:00","40963","1.271","261.5","2.025","264","NAN","NAN","NAN","NAN","NAN"],
    [1539974,"2026-02-07 23:20:00","40964","0.139","264.0","1.176","263.2","NAN","NAN","NAN","NAN","NAN"],
    [1539975,"2026-02-07 23:30:00","40965","0.175","264.3","1.274","264.3","NAN","NAN","NAN","NAN","NAN"],
    [1539976,"2026-02-07 23:40:00","40966","0.13699999999999998","264.4","0.817","264.4","NAN","NAN","NAN","NAN","NAN"],
    [1539977,"2026-02-07 23:50:00","40967","0.013000000000000001","264.4","0.457","264.4","NAN","NAN","NAN","NAN","NAN"],
    [1539978,"2026-02-08 00:00:00","40968","0.16399999999999998","264.4","0.915","264.5","NAN","NAN","NAN","NAN","NAN"],
    [1539979,"2026-02-08 00:10:00","40969","0.19","264.5","0.947","264.6","NAN","NAN","NAN","NAN","NAN"],
    [1539980,"2026-02-08 00:20:00","40970","0.042","261.5","0.621","261.2","NAN","NAN","NAN","NAN","NAN"],
    [1539981,"2026-02-08 00:30:00","40971","0.0","0.0","0","0","NAN","NAN","NAN","NAN","NAN"],
    [1539982,"2026-02-08 00:40:00","40972","0.0","0.0","0","0","NAN","NAN","NAN","NAN","NAN"],
    [1539983,"2026-02-08 00:50:00","40973","0.0","0.0","0","0","NAN","NAN","NAN","NAN","NAN"],
    [1539984,"2026-02-08 01:00:00","40974","0.003","261.7","0.196","261.7","NAN","NAN","NAN","NAN","NAN"],
    [1539985,"2026-02-08 01:10:00","40975","0.0","0.0","0","0","NAN","NAN","NAN","NAN","NAN"],
    [1539986,"2026-02-08 01:20:00","40976","0.035","260.3","0.719","260.3","NAN","NAN","NAN","NAN","NAN"],
    [1539987,"2026-02-08 01:30:00","40977","0.062","240.6","0.653","242.8","NAN","NAN","NAN","NAN","NAN"],
    [1539988,"2026-02-08 01:40:00","40978","0.344","185.8","1.437","183.8","NAN","NAN","NAN","NAN","NAN"],
    [1539989,"2026-02-08 01:50:00","40979","0.0","0.0","0","0","NAN","NAN","NAN","NAN","NAN"],
    [1539990,"2026-02-08 02:00:00","40980","0.13","183.7","0.915","183.7","NAN","NAN","NAN","NAN","NAN"],
    [1539991,"2026-02-08 02:10:00","40981","0.075","183.7","0.817","183.7","NAN","NAN","NAN","NAN","NAN"],
    [1539992,"2026-02-08 02:20:00","40982","0.599","135.9","2.319","119.9","NAN","NAN","NAN","NAN","NAN"],
    [1539993,"2026-02-08 02:30:00","40983","0.41600000000000004","128.8","1.503","119.2","NAN","NAN","NAN","NAN","NAN"],
    [1539994,"2026-02-08 02:40:00","40984","1.1440000000000001","127.1","1.829","141.1","NAN","NAN","NAN","NAN","NAN"],
    [1539995,"2026-02-08 02:50:00","40985","0.742","131.8","1.601","119.7","NAN","NAN","NAN","NAN","NAN"],
    [1539996,"2026-02-08 03:00:00","40986","0.09","141.1","0.817","141.1","NAN","NAN","NAN","NAN","NAN"],
    [1539997,"2026-02-08 03:10:00","40987","0.9590000000000001","141.4","1.601","141.2","NAN","NAN","NAN","NAN","NAN"],
    [1539998,"2026-02-08 03:20:00","40988","0.498","142.0","1.862","142.1","NAN","NAN","NAN","NAN","NAN"],
    [1539999,"2026-02-08 03:30:00","40989","0.782","142.2","1.568","142.2","NAN","NAN","NAN","NAN","NAN"],
    [1540000,"2026-02-08 03:40:00","40990","0.8170000000000001","142.5","2.025","143.2","NAN","NAN","NAN","NAN","NAN"],
    [1540001,"2026-02-08 03:50:00","40991","0.753","178.5","2.221","143.7","NAN","NAN","NAN","NAN","NAN"],
    [1540002,"2026-02-08 04:00:00","40992","1.915","273.9","2.907","279.4","NAN","NAN","NAN","NAN","NAN"],
    [1540003,"2026-02-08 04:10:00","40993","1.9180000000000001","283.9","3.071","280.8","NAN","NAN","NAN","NAN","NAN"],
    [1540004,"2026-02-08 04:20:00","40994","1.6159999999999999","279.3","2.646","280.1","NAN","NAN","NAN","NAN","NAN"],
    [1540005,"2026-02-08 04:30:00","40995","1.6280000000000001","281.9","2.777","281.5","NAN","NAN","NAN","NAN","NAN"],
    [1540006,"2026-02-08 04:40:00","40996","2.217","289.0","3.528","289.5","NAN","NAN","NAN","NAN","NAN"],
    [1540007,"2026-02-08 04:50:00","40997","2.1630000000000003","286.4","3.463","289.6","NAN","NAN","NAN","NAN","NAN"],
    [1540008,"2026-02-08 05:00:00","40998","2.117","288.8","4.377","306.4","NAN","NAN","NAN","NAN","NAN"],
    [1540009,"2026-02-08 05:10:00","40999","2.627","295.1","4.345","292","NAN","NAN","NAN","NAN","NAN"],
    [1540010,"2026-02-08 05:20:00","41000","2.573","295.3","3.953","291.3","NAN","NAN","NAN","NAN","NAN"],
    [1540011,"2026-02-08 05:30:00","41001","1.609","296.9","2.875","290.1","NAN","NAN","NAN","NAN","NAN"],
    [1540012,"2026-02-08 05:40:00","41002","1.6440000000000001","294.1","3.169","289.6","NAN","NAN","NAN","NAN","NAN"],
    [1540013,"2026-02-08 05:50:00","41003","2.0869999999999997","291.8","3.593","295.9","NAN","NAN","NAN","NAN","NAN"],
    [1540014,"2026-02-08 06:00:00","41004","2.274","292.6","3.43","285.4","NAN","NAN","NAN","NAN","NAN"],
    [1540015,"2026-02-08 06:10:00","41005","1.578","296.0","3.593","299.2","NAN","NAN","NAN","NAN","NAN"],
    [1540016,"2026-02-08 06:20:00","41006","0.727","296.4","1.535","303.6","NAN","NAN","NAN","NAN","NAN"],
    [1540017,"2026-02-08 06:30:00","41007","1.197","295.0","2.417","298.8","NAN","NAN","NAN","NAN","NAN"],
    [1540018,"2026-02-08 06:40:00","41008","1.493","295.0","2.711","298.1","NAN","NAN","NAN","NAN","NAN"],
    [1540019,"2026-02-08 06:50:00","41009","1.99","301.7","3.561","301.8","NAN","NAN","NAN","NAN","NAN"],
    [1540020,"2026-02-08 07:00:00","41010","2.148","302.3","3.691","297.4","NAN","NAN","NAN","NAN","NAN"],
    [1540021,"2026-02-08 07:10:00","41011","2.421","304.5","3.495","297.7","NAN","NAN","NAN","NAN","NAN"],
    [1540022,"2026-02-08 07:20:00","41012","1.666","293.4","2.809","289.2","NAN","NAN","NAN","NAN","NAN"],
    [1540023,"2026-02-08 07:30:00","41013","1.577","286.6","2.319","286.5","NAN","NAN","NAN","NAN","NAN"],
    [1540024,"2026-02-08 07:40:00","41014","1.537","286.0","2.385","285.9","NAN","NAN","NAN","NAN","NAN"],
    [1540025,"2026-02-08 07:50:00","41015","1.7","282.9","2.581","281","NAN","NAN","NAN","NAN","NAN"],
    [1540026,"2026-02-08 08:00:00","41016","2.201","273.5","3.267","270.5","NAN","NAN","NAN","NAN","NAN"],
    [1540027,"2026-02-08 08:10:00","41017","1.864","285.0","3.071","286.5","NAN","NAN","NAN","NAN","NAN"],
    [1540028,"2026-02-08 08:20:00","41018","1.725","283.2","2.777","287.1","NAN","NAN","NAN","NAN","NAN"],
    [1540029,"2026-02-08 08:30:00","41019","1.653","297.7","3.495","314.1","NAN","NAN","NAN","NAN","NAN"],
    [1540030,"2026-02-08 08:40:00","41020","2.687","321.0","4.116","312.8","NAN","NAN","NAN","NAN","NAN"],
    [1540031,"2026-02-08 08:50:00","41021","2.414","305.8","3.724","314.4","NAN","NAN","NAN","NAN","NAN"],
    [1540032,"2026-02-08 09:00:00","41022","2.432","292.7","3.659","293.8","NAN","NAN","NAN","NAN","NAN"],
    [1540033,"2026-02-08 09:10:00","41023","2.6889999999999996","278.7","4.181","282.3","NAN","NAN","NAN","NAN","NAN"],
    [1540034,"2026-02-08 09:20:00","41024","2.668","271.7","4.149","270.9","NAN","NAN","NAN","NAN","NAN"],
    [1540035,"2026-02-08 09:30:00","41025","2.455","286.4","3.887","289.4","NAN","NAN","NAN","NAN","NAN"],
    [1540036,"2026-02-08 09:40:00","41026","2.5","284.9","3.822","287.2","NAN","NAN","NAN","NAN","NAN"],
    [1540037,"2026-02-08 09:50:00","41027","2.623","278.8","4.214","273.8","NAN","NAN","NAN","NAN","NAN"],
    [1540038,"2026-02-08 10:00:00","41028","2.52","290.4","3.887","279.8","NAN","NAN","NAN","NAN","NAN"],
    [1540039,"2026-02-08 10:10:00","41029","3.2680000000000002","298.0","5.096","298.8","NAN","NAN","NAN","NAN","NAN"],
    [1540040,"2026-02-08 10:20:00","41030","2.687","296.5","4.181","286.5","NAN","NAN","NAN","NAN","NAN"],
    [1540041,"2026-02-08 10:30:00","41031","2.8819999999999997","299.0","4.867","303.3","NAN","NAN","NAN","NAN","NAN"],
    [1540042,"2026-02-08 10:40:00","41032","3.5460000000000003","292.0","5.357","285.6","NAN","NAN","NAN","NAN","NAN"],
    [1540043,"2026-02-08 10:50:00","41033","3.3930000000000002","298.4","5.553","304.8","NAN","NAN","NAN","NAN","NAN"],
    [1540044,"2026-02-08 11:00:00","41034","4.628","299.5","8.56","304.2","NAN","NAN","NAN","NAN","NAN"],
    [1540045,"2026-02-08 11:10:00","41035","4.32","305.1","7.513","302.7","NAN","NAN","NAN","NAN","NAN"],
    [1540046,"2026-02-08 11:20:00","41036","3.8160000000000003","298.6","6.435","282.8","NAN","NAN","NAN","NAN","NAN"],
    [1540047,"2026-02-08 11:30:00","41037","4.957","295.3","7.807","294.7","NAN","NAN","NAN","NAN","NAN"],
    [1540048,"2026-02-08 11:40:00","41038","5.295","297.2","7.611","278.2","NAN","NAN","NAN","NAN","NAN"],
    [1540049,"2026-02-08 11:50:00","41039","4.874","297.2","8.3","296.1","NAN","NAN","NAN","NAN","NAN"],
    [1540050,"2026-02-08 12:00:00","41040","4.2139999999999995","293.4","8.13","277.3","NAN","NAN","NAN","NAN","NAN"],
    [1540051,"2026-02-08 12:10:00","41041","3.927","292.1","7.546","296","NAN","NAN","NAN","NAN","NAN"],
    [1540052,"2026-02-08 12:20:00","41042","4.12","299.7","6.501","284","NAN","NAN","NAN","NAN","NAN"],
    [1540053,"2026-02-08 12:30:00","41043","4.484","294.5","7.285","294","NAN","NAN","NAN","NAN","NAN"],
    [1540054,"2026-02-08 12:40:00","41044","4.823","292.3","8.3","290.7","NAN","NAN","NAN","NAN","NAN"],
    [1540055,"2026-02-08 12:50:00","41045","5.308","316.0","9.05","315.3","NAN","NAN","NAN","NAN","NAN"],
    [1540056,"2026-02-08 13:00:00","41046","3.4789999999999996","310.4","6.174","290","NAN","NAN","NAN","NAN","NAN"],
    [1540057,"2026-02-08 13:10:00","41047","4.5680000000000005","297.4","7.415","301.5","NAN","NAN","NAN","NAN","NAN"],
    [1540058,"2026-02-08 13:20:00","41048","4.244","310.9","7.154","299.2","NAN","NAN","NAN","NAN","NAN"],
    [1540059,"2026-02-08 13:30:00","41049","4.092","312.9","6.272","323.5","NAN","NAN","NAN","NAN","NAN"],
    [1540060,"2026-02-08 13:40:00","41050","3.634","312.5","6.86","307.6","NAN","NAN","NAN","NAN","NAN"],
    [1540061,"2026-02-08 13:50:00","41051","2.2359999999999998","350.0","5.031","337.8","NAN","NAN","NAN","NAN","NAN"],
    [1540062,"2026-02-08 14:00:00","41052","1.168","29.46","3.724","58.54","NAN","NAN","NAN","NAN","NAN"],
    [1540063,"2026-02-08 14:10:00","41053","0.392","44.26","1.372","45.87","NAN","NAN","NAN","NAN","NAN"],
    [1540064,"2026-02-08 14:20:00","41054","1.238","71.52","3.267","103.8","NAN","NAN","NAN","NAN","NAN"],
    [1540065,"2026-02-08 14:30:00","41055","1.929","105.8","3.757","104.3","NAN","NAN","NAN","NAN","NAN"],
    [1540066,"2026-02-08 14:40:00","41056","1.69","105.6","3.463","100.1","NAN","NAN","NAN","NAN","NAN"],
    [1540067,"2026-02-08 14:50:00","41057","1.5919999999999999","107.4","2.711","101","NAN","NAN","NAN","NAN","NAN"],
    [1540068,"2026-02-08 15:00:00","41058","1.993","117.9","3.463","121","NAN","NAN","NAN","NAN","NAN"],
    [1540069,"2026-02-08 15:10:00","41059","2.124","111.5","3.495","115.1","NAN","NAN","NAN","NAN","NAN"],
    [1540070,"2026-02-08 15:20:00","41060","2.595","94.4","3.691","88","NAN","NAN","NAN","NAN","NAN"],
    [1540071,"2026-02-08 15:30:00","41061","2.181","93.4","3.495","88.9","NAN","NAN","NAN","NAN","NAN"],
    [1540072,"2026-02-08 15:40:00","41062","2.241","98.3","3.92","89.9","NAN","NAN","NAN","NAN","NAN"],
    [1540073,"2026-02-08 15:50:00","41063","2.349","89.6","3.953","87.3","NAN","NAN","NAN","NAN","NAN"],
    [1540074,"2026-02-08 16:00:00","41064","2.141","92.3","3.234","85.6","NAN","NAN","NAN","NAN","NAN"],
    [1540075,"2026-02-08 16:10:00","41065","1.8330000000000002","94.1","2.711","89.6","NAN","NAN","NAN","NAN","NAN"],
    [1540076,"2026-02-08 16:20:00","41066","1.709","90.0","2.842","84.6","NAN","NAN","NAN","NAN","NAN"],
    [1540077,"2026-02-08 16:30:00","41067","2.146","65.58","3.397","54.33","NAN","NAN","NAN","NAN","NAN"],
    [1540078,"2026-02-08 16:40:00","41068","1.37","57.85","2.548","61.97","NAN","NAN","NAN","NAN","NAN"],
    [1540079,"2026-02-08 16:50:00","41069","1.4340000000000002","57.52","2.581","52.7","NAN","NAN","NAN","NAN","NAN"],
    [1540080,"2026-02-08 17:00:00","41070","1.2590000000000001","68.8","2.319","60.62","NAN","NAN","NAN","NAN","NAN"],
    [1540081,"2026-02-08 17:10:00","41071","1.3090000000000002","72.5","2.156","72.05","NAN","NAN","NAN","NAN","NAN"],
    [1540082,"2026-02-08 17:20:00","41072","1.247","73.33","1.993","73.59","NAN","NAN","NAN","NAN","NAN"],
    [1540083,"2026-02-08 17:30:00","41073","0.858","74.02","2.352","73.76","NAN","NAN","NAN","NAN","NAN"],
    [1540084,"2026-02-08 17:40:00","41074","1.069","74.15","2.287","74.16","NAN","NAN","NAN","NAN","NAN"],
    [1540085,"2026-02-08 17:50:00","41075","0.7","72.27","1.895","74.16","NAN","NAN","NAN","NAN","NAN"],
    [1540086,"2026-02-08 18:00:00","41076","1.246","56.16","2.254","53.76","NAN","NAN","NAN","NAN","NAN"],
    [1540087,"2026-02-08 18:10:00","41077","1.395","53.12","2.711","52.93","NAN","NAN","NAN","NAN","NAN"],
    [1540088,"2026-02-08 18:20:00","41078","0.922","54.8","2.679","62.04","NAN","NAN","NAN","NAN","NAN"],
    [1540089,"2026-02-08 18:30:00","41079","1.2890000000000001","55.7","2.679","58.7","NAN","NAN","NAN","NAN","NAN"],
    [1540090,"2026-02-08 18:40:00","41080","0.804","62.39","2.156","60.73","NAN","NAN","NAN","NAN","NAN"],
    [1540091,"2026-02-08 18:50:00","41081","1.151","74.43","4.247","108.4","NAN","NAN","NAN","NAN","NAN"],
    [1540092,"2026-02-08 19:00:00","41082","2.464","95.1","4.541","85.7","NAN","NAN","NAN","NAN","NAN"],
    [1540093,"2026-02-08 19:10:00","41083","2.136","70.82","3.561","68.1","NAN","NAN","NAN","NAN","NAN"],
    [1540094,"2026-02-08 19:20:00","41084","2.075","70.62","3.267","63.99","NAN","NAN","NAN","NAN","NAN"],
    [1540095,"2026-02-08 19:30:00","41085","2.281","62.68","3.985","55.46","NAN","NAN","NAN","NAN","NAN"],
    [1540096,"2026-02-08 19:40:00","41086","2.417","66.01","3.887","61.55","NAN","NAN","NAN","NAN","NAN"],
    [1540097,"2026-02-08 19:50:00","41087","2.323","71.24","3.92","68.87","NAN","NAN","NAN","NAN","NAN"],
    [1540098,"2026-02-08 20:00:00","41088","2.596","70.28","4.606","70.24","NAN","NAN","NAN","NAN","NAN"],
    [1540099,"2026-02-08 20:10:00","41089","2.383","74.84","4.704","74.07","NAN","NAN","NAN","NAN","NAN"],
    [1540100,"2026-02-08 20:20:00","41090","2.314","75.69","4.116","71.72","NAN","NAN","NAN","NAN","NAN"],
    [1540101,"2026-02-08 20:30:00","41091","2.544","75.9","4.802","74.84","NAN","NAN","NAN","NAN","NAN"],
    [1540102,"2026-02-08 20:40:00","41092","3.485","74.22","5.455","70.99","NAN","NAN","NAN","NAN","NAN"],
    [1540103,"2026-02-08 20:50:00","41093","2.908","79.16","5.063","76.58","NAN","NAN","NAN","NAN","NAN"],
    [1540104,"2026-02-08 21:00:00","41094","2.4819999999999998","74.95","4.998","73.93","NAN","NAN","NAN","NAN","NAN"],
    [1540105,"2026-02-08 21:10:00","41095","1.761","71.69","3.463","71.41","NAN","NAN","NAN","NAN","NAN"],
    [1540106,"2026-02-08 21:20:00","41096","1.869","78.76","3.528","83.8","NAN","NAN","NAN","NAN","NAN"],
    [1540107,"2026-02-08 21:30:00","41097","2.263","76.31","3.528","74.35","NAN","NAN","NAN","NAN","NAN"],
    [1540108,"2026-02-08 21:40:00","41098","2.6919999999999997","69.43","4.867","66.78","NAN","NAN","NAN","NAN","NAN"],
    [1540109,"2026-02-08 21:50:00","41099","2.36","64.29","4.279","66.43","NAN","NAN","NAN","NAN","NAN"],
    [1540110,"2026-02-08 22:00:00","41100","2.195","57.21","3.659","56.93","NAN","NAN","NAN","NAN","NAN"],
    [1540111,"2026-02-08 22:10:00","41101","1.454","53.55","3.234","50.68","NAN","NAN","NAN","NAN","NAN"],
    [1540112,"2026-02-08 22:20:00","41102","1.55","60.73","2.973","62.43","NAN","NAN","NAN","NAN","NAN"],
    [1540113,"2026-02-08 22:30:00","41103","1.421","63.59","2.973","67.23","NAN","NAN","NAN","NAN","NAN"],
    [1540114,"2026-02-08 22:40:00","41104","0.84","67.34","1.895","67.51","NAN","NAN","NAN","NAN","NAN"],
    [1540115,"2026-02-08 22:50:00","41105","1.466","68.0","2.711","67.92","NAN","NAN","NAN","NAN","NAN"],
    [1540116,"2026-02-08 23:00:00","41106","1.88","68.48","3.463","67.9","NAN","NAN","NAN","NAN","NAN"],
    [1540117,"2026-02-08 23:10:00","41107","1.796","69.77","3.626","65.53","NAN","NAN","NAN","NAN","NAN"],
    [1540118,"2026-02-08 23:20:00","41108","2.138","71.22","4.083","65.83","NAN","NAN","NAN","NAN","NAN"],
    [1540119,"2026-02-08 23:30:00","41109","1.9809999999999999","77.53","3.953","69.43","NAN","NAN","NAN","NAN","NAN"],
    [1540120,"2026-02-08 23:40:00","41110","1.857","88.0","3.92","92.6","NAN","NAN","NAN","NAN","NAN"],
    [1540121,"2026-02-08 23:50:00","41111","1.9340000000000002","93.5","4.475","88","NAN","NAN","NAN","NAN","NAN"],
    [1540122,"2026-02-09 00:00:00","41112","1.0979999999999999","88.2","3.757","84.2","NAN","NAN","NAN","NAN","NAN"],
    [1540123,"2026-02-09 00:10:00","41113","0.7170000000000001","84.1","1.927","84.1","NAN","NAN","NAN","NAN","NAN"],
    [1540124,"2026-02-09 00:20:00","41114","0.18100000000000002","84.0","0.882","84","NAN","NAN","NAN","NAN","NAN"],
    [1540125,"2026-02-09 00:30:00","41115","0.631","83.6","1.927","83.5","NAN","NAN","NAN","NAN","NAN"],
    [1540126,"2026-02-09 00:40:00","41116","1.246","77.97","2.254","83.3","NAN","NAN","NAN","NAN","NAN"],
    [1540127,"2026-02-09 00:50:00","41117","1.9769999999999999","309.8","3.169","307.9","NAN","NAN","NAN","NAN","NAN"],
    [1540128,"2026-02-09 01:00:00","41118","1.546","315.7","3.136","317.1","NAN","NAN","NAN","NAN","NAN"],
    [1540129,"2026-02-09 01:10:00","41119","0.376","309.9","1.274","309.8","NAN","NAN","NAN","NAN","NAN"],
    [1540130,"2026-02-09 01:20:00","41120","0.006999999999999999","310.1","0.457","310.2","NAN","NAN","NAN","NAN","NAN"],
    [1540131,"2026-02-09 01:30:00","41121","0.168","309.9","1.045","309.8","NAN","NAN","NAN","NAN","NAN"],
    [1540132,"2026-02-09 01:40:00","41122","0.27899999999999997","308.9","1.143","309.5","NAN","NAN","NAN","NAN","NAN"],
    [1540133,"2026-02-09 01:50:00","41123","0.293","308.2","1.176","308.2","NAN","NAN","NAN","NAN","NAN"],
    [1540134,"2026-02-09 02:00:00","41124","0.231","308.1","1.078","308.1","NAN","NAN","NAN","NAN","NAN"],
    [1540135,"2026-02-09 02:10:00","41125","0.0","0.0","0","0","NAN","NAN","NAN","NAN","NAN"],
    [1540136,"2026-02-09 02:20:00","41126","0.091","308.0","0.817","308","NAN","NAN","NAN","NAN","NAN"],
    [1540137,"2026-02-09 02:30:00","41127","0.217","308.0","0.882","308","NAN","NAN","NAN","NAN","NAN"],
    [1540138,"2026-02-09 02:40:00","41128","0.49","308.1","1.405","308","NAN","NAN","NAN","NAN","NAN"],
    [1540139,"2026-02-09 02:50:00","41129","0.37","308.0","1.111","308","NAN","NAN","NAN","NAN","NAN"],
    [1540140,"2026-02-09 03:00:00","41130","0.042","308.0","0.588","308","NAN","NAN","NAN","NAN","NAN"],
    [1540141,"2026-02-09 03:10:00","41131","0.037000000000000005","308.0","0.555","308","NAN","NAN","NAN","NAN","NAN"],
    [1540142,"2026-02-09 03:20:00","41132","0.0","0.0","0","0","NAN","NAN","NAN","NAN","NAN"],
    [1540143,"2026-02-09 03:30:00","41133","0.0","0.0","0","0","NAN","NAN","NAN","NAN","NAN"],
    [1540144,"2026-02-09 03:40:00","41134","0.023","307.9","0.523","307.9","NAN","NAN","NAN","NAN","NAN"],
    [1540145,"2026-02-09 03:50:00","41135","0.374","307.9","1.111","307.9","NAN","NAN","NAN","NAN","NAN"],
    [1540146,"2026-02-09 04:00:00","41136","0.5820000000000001","307.9","1.731","307.8","NAN","NAN","NAN","NAN","NAN"],
    [1540147,"2026-02-09 04:10:00","41137","1.041","308.1","1.895","307.8","NAN","NAN","NAN","NAN","NAN"],
    [1540148,"2026-02-09 04:20:00","41138","0.635","307.5","1.797","307.6","NAN","NAN","NAN","NAN","NAN"],
    [1540149,"2026-02-09 04:30:00","41139","1.761","292.8","3.463","283.4","NAN","NAN","NAN","NAN","NAN"],
    [1540150,"2026-02-09 04:40:00","41140","1.411","284.9","2.352","284.2","NAN","NAN","NAN","NAN","NAN"],
    [1540151,"2026-02-09 04:50:00","41141","1.3230000000000002","290.7","2.744","291.2","NAN","NAN","NAN","NAN","NAN"],
    [1540152,"2026-02-09 05:00:00","41142","0.33399999999999996","289.7","1.699","289.7","NAN","NAN","NAN","NAN","NAN"],
    [1540153,"2026-02-09 05:10:00","41143","0.36700000000000005","285.0","1.078","284.9","NAN","NAN","NAN","NAN","NAN"],
    [1540154,"2026-02-09 05:20:00","41144","0.115","288.6","1.111","288.5","NAN","NAN","NAN","NAN","NAN"],
    [1540155,"2026-02-09 05:30:00","41145","0.34","284.5","1.47","284","NAN","NAN","NAN","NAN","NAN"],
    [1540156,"2026-02-09 05:40:00","41146","0.889","286.4","2.091","284.7","NAN","NAN","NAN","NAN","NAN"],
    [1540157,"2026-02-09 05:50:00","41147","0.976","283.3","1.764","283.2","NAN","NAN","NAN","NAN","NAN"],
    [1540158,"2026-02-09 06:00:00","41148","1.903","283.1","2.973","283","NAN","NAN","NAN","NAN","NAN"],
    [1540159,"2026-02-09 06:10:00","41149","2.0380000000000003","278.5","3.005","278","NAN","NAN","NAN","NAN","NAN"],
    [1540160,"2026-02-09 06:20:00","41150","1.984","281.4","3.561","285.9","NAN","NAN","NAN","NAN","NAN"],
    [1540161,"2026-02-09 06:30:00","41151","1.889","286.5","3.201","287.5","NAN","NAN","NAN","NAN","NAN"],
    [1540162,"2026-02-09 06:40:00","41152","2.209","314.3","3.463","316.1","NAN","NAN","NAN","NAN","NAN"],
    [1540163,"2026-02-09 06:50:00","41153","1.19","315.4","2.417","319.2","NAN","NAN","NAN","NAN","NAN"],
    [1540164,"2026-02-09 07:00:00","41154","1.198","303.1","2.156","299.5","NAN","NAN","NAN","NAN","NAN"],
    [1540165,"2026-02-09 07:10:00","41155","1.829","297.0","2.94","297.7","NAN","NAN","NAN","NAN","NAN"],
    [1540166,"2026-02-09 07:20:00","41156","1.9709999999999999","298.5","3.234","301.2","NAN","NAN","NAN","NAN","NAN"],
    [1540167,"2026-02-09 07:30:00","41157","1.475","300.7","2.842","303.7","NAN","NAN","NAN","NAN","NAN"],
    [1540168,"2026-02-09 07:40:00","41158","1.766","302.3","3.267","308.5","NAN","NAN","NAN","NAN","NAN"],
    [1540169,"2026-02-09 07:50:00","41159","2.079","304.1","3.822","302.3","NAN","NAN","NAN","NAN","NAN"],
    [1540170,"2026-02-09 08:00:00","41160","2.4219999999999997","304.0","4.214","308.1","NAN","NAN","NAN","NAN","NAN"],
    [1540171,"2026-02-09 08:10:00","41161","2.503","316.5","4.965","311.8","NAN","NAN","NAN","NAN","NAN"],
    [1540172,"2026-02-09 08:20:00","41162","1.915","312.0","3.855","315.8","NAN","NAN","NAN","NAN","NAN"],
    [1540173,"2026-02-09 08:30:00","41163","2.5340000000000003","319.2","4.181","327.3","NAN","NAN","NAN","NAN","NAN"],
    [1540174,"2026-02-09 08:40:00","41164","2.355","325.9","4.541","334.2","NAN","NAN","NAN","NAN","NAN"],
    [1540175,"2026-02-09 08:50:00","41165","3.1489999999999996","317.1","6.043","312.7","NAN","NAN","NAN","NAN","NAN"],
    [1540176,"2026-02-09 09:00:00","41166","2.991","322.8","4.835","307.5","NAN","NAN","NAN","NAN","NAN"],
    [1540177,"2026-02-09 09:10:00","41167","2.762","322.6","4.606","320.3","NAN","NAN","NAN","NAN","NAN"],
    [1540178,"2026-02-09 09:20:00","41168","2.875","327.4","4.671","334.5","NAN","NAN","NAN","NAN","NAN"],
    [1540179,"2026-02-09 09:30:00","41169","3.093","328.4","4.802","323.5","NAN","NAN","NAN","NAN","NAN"],
    [1540180,"2026-02-09 09:40:00","41170","2.8169999999999997","331.4","4.149","327.3","NAN","NAN","NAN","NAN","NAN"],
    [1540181,"2026-02-09 09:50:00","41171","2.073","331.2","3.593","335.2","NAN","NAN","NAN","NAN","NAN"],
    [1540182,"2026-02-09 10:00:00","41172","2.217","328.8","3.267","332.6","NAN","NAN","NAN","NAN","NAN"],
    [1540183,"2026-02-09 10:10:00","41173","2.032","329.8","3.691","331.8","NAN","NAN","NAN","NAN","NAN"],
    [1540184,"2026-02-09 10:20:00","41174","2.292","322.3","3.724","310.9","NAN","NAN","NAN","NAN","NAN"],
    [1540185,"2026-02-09 10:30:00","41175","2.5380000000000003","323.2","3.593","332.3","NAN","NAN","NAN","NAN","NAN"],
    [1540186,"2026-02-09 10:40:00","41176","1.0590000000000002","325.1","3.397","325.6","NAN","NAN","NAN","NAN","NAN"],
    [1540187,"2026-02-09 10:50:00","41177","0.47700000000000004","321.4","2.646","322.4","NAN","NAN","NAN","NAN","NAN"],
    [1540188,"2026-02-09 11:00:00","41178","0.075","310.6","0.98","312.8","NAN","NAN","NAN","NAN","NAN"],
    [1540189,"2026-02-09 11:10:00","41179","1.217","250.4","3.234","245.2","NAN","NAN","NAN","NAN","NAN"],
    [1540190,"2026-02-09 11:20:00","41180","0.8640000000000001","209.6","3.659","150.7","NAN","NAN","NAN","NAN","NAN"],
    [1540191,"2026-02-09 11:30:00","41181","2.375","121.2","3.822","112.8","NAN","NAN","NAN","NAN","NAN"],
    [1540192,"2026-02-09 11:40:00","41182","2.627","136.5","3.985","137.2","NAN","NAN","NAN","NAN","NAN"],
    [1540193,"2026-02-09 11:50:00","41183","2.4419999999999997","171.7","4.9","171.2","NAN","NAN","NAN","NAN","NAN"],
    [1540194,"2026-02-09 12:00:00","41184","3.68","166.0","5.227","154.6","NAN","NAN","NAN","NAN","NAN"],
    [1540195,"2026-02-09 12:10:00","41185","2.371","187.0","5.292","177.9","NAN","NAN","NAN","NAN","NAN"],
    [1540196,"2026-02-09 12:20:00","41186","2.958","174.5","5.063","173.7","NAN","NAN","NAN","NAN","NAN"],
    [1540197,"2026-02-09 12:30:00","41187","3.261","165.7","5.063","169.7","NAN","NAN","NAN","NAN","NAN"],
    [1540198,"2026-02-09 12:40:00","41188","2.8789999999999996","179.4","5.063","164.9","NAN","NAN","NAN","NAN","NAN"],
    [1540199,"2026-02-09 12:50:00","41189","3.075","195.5","5.357","217.6","NAN","NAN","NAN","NAN","NAN"],
    [1540200,"2026-02-09 13:00:00","41190","3.17","199.8","5.194","202.8","NAN","NAN","NAN","NAN","NAN"],
    [1540201,"2026-02-09 13:10:00","41191","3.635","207.5","5.39","208.8","NAN","NAN","NAN","NAN","NAN"],
    [1540202,"2026-02-09 13:20:00","41192","2.6310000000000002","199.3","4.475","170.8","NAN","NAN","NAN","NAN","NAN"],
    [1540203,"2026-02-09 13:30:00","41193","2.924","198.0","6.435","208.1","NAN","NAN","NAN","NAN","NAN"],
    [1540204,"2026-02-09 13:40:00","41194","3.237","175.9","6.631","155.1","NAN","NAN","NAN","NAN","NAN"],
    [1540205,"2026-02-09 13:50:00","41195","3.612","219.1","7.611","219.7","NAN","NAN","NAN","NAN","NAN"],
    [1540206,"2026-02-09 14:00:00","41196","4.183","220.3","7.252","226","NAN","NAN","NAN","NAN","NAN"],
    [1540207,"2026-02-09 14:10:00","41197","4.008","229.2","7.089","236.7","NAN","NAN","NAN","NAN","NAN"],
    [1540208,"2026-02-09 14:20:00","41198","3.575","231.3","6.043","257.2","NAN","NAN","NAN","NAN","NAN"],
    [1540209,"2026-02-09 14:30:00","41199","2.9789999999999996","239.5","5.227","257.9","NAN","NAN","NAN","NAN","NAN"],
    [1540210,"2026-02-09 14:40:00","41200","3.145","249.9","5.031","252.5","NAN","NAN","NAN","NAN","NAN"],
    [1540211,"2026-02-09 14:50:00","41201","2.545","257.3","5.259","264.3","NAN","NAN","NAN","NAN","NAN"],
    [1540212,"2026-02-09 15:00:00","41202","3.173","296.9","6.664","289.2","NAN","NAN","NAN","NAN","NAN"],
    [1540213,"2026-02-09 15:10:00","41203","3.636","319.5","6.011","320.8","NAN","NAN","NAN","NAN","NAN"],
    [1540214,"2026-02-09 15:20:00","41204","4.169","328.7","6.697","333.5","NAN","NAN","NAN","NAN","NAN"],
    [1540215,"2026-02-09 15:30:00","41205","3.182","313.6","5.325","318.4","NAN","NAN","NAN","NAN","NAN"],
    [1540216,"2026-02-09 15:40:00","41206","3.049","307.4","5.227","325.8","NAN","NAN","NAN","NAN","NAN"],
    [1540217,"2026-02-09 15:50:00","41207","3.605","304.5","6.141","295.8","NAN","NAN","NAN","NAN","NAN"],
    [1540218,"2026-02-09 16:00:00","41208","2.21","303.0","4.802","304.2","NAN","NAN","NAN","NAN","NAN"],
    [1540219,"2026-02-09 16:10:00","41209","1.932","283.8","4.508","235.7","NAN","NAN","NAN","NAN","NAN"],
    [1540220,"2026-02-09 16:20:00","41210","3.142","243.1","5.88","236.6","NAN","NAN","NAN","NAN","NAN"],
    [1540221,"2026-02-09 16:30:00","41211","3.035","238.3","6.305","237.6","NAN","NAN","NAN","NAN","NAN"],
    [1540222,"2026-02-09 16:40:00","41212","2.3890000000000002","231.9","4.541","248.8","NAN","NAN","NAN","NAN","NAN"],
    [1540223,"2026-02-09 16:50:00","41213","3.102","240.9","5.455","237.1","NAN","NAN","NAN","NAN","NAN"],
    [1540224,"2026-02-09 17:00:00","41214","2.71","251.5","4.377","249.2","NAN","NAN","NAN","NAN","NAN"],
    [1540225,"2026-02-09 17:10:00","41215","2.15","242.0","4.149","235.3","NAN","NAN","NAN","NAN","NAN"],
    [1540226,"2026-02-09 17:20:00","41216","1.6769999999999998","252.1","2.94","254.3","NAN","NAN","NAN","NAN","NAN"],
    [1540227,"2026-02-09 17:30:00","41217","1.567","249.3","2.744","252.9","NAN","NAN","NAN","NAN","NAN"],
    [1540228,"2026-02-09 17:40:00","41218","1.5430000000000001","245.4","3.43","246.4","NAN","NAN","NAN","NAN","NAN"],
    [1540229,"2026-02-09 17:50:00","41219","2.342","237.2","4.247","224.6","NAN","NAN","NAN","NAN","NAN"],
    [1540230,"2026-02-09 18:00:00","41220","2.64","239.7","4.573","240.4","NAN","NAN","NAN","NAN","NAN"],
    [1540231,"2026-02-09 18:10:00","41221","2.252","247.0","3.953","238.6","NAN","NAN","NAN","NAN","NAN"],
    [1540232,"2026-02-09 18:20:00","41222","1.771","250.0","3.038","247.1","NAN","NAN","NAN","NAN","NAN"],
    [1540233,"2026-02-09 18:30:00","41223","1.075","240.6","2.254","235.1","NAN","NAN","NAN","NAN","NAN"],
    [1540234,"2026-02-09 18:40:00","41224","1.07","236.3","2.744","238","NAN","NAN","NAN","NAN","NAN"],
    [1540235,"2026-02-09 18:50:00","41225","1.0","239.3","2.385","237.6","NAN","NAN","NAN","NAN","NAN"],
    [1540236,"2026-02-09 19:00:00","41226","1.817","247.5","3.626","249.8","NAN","NAN","NAN","NAN","NAN"],
    [1540237,"2026-02-09 19:10:00","41227","2.6319999999999997","245.3","4.345","236.4","NAN","NAN","NAN","NAN","NAN"],
    [1540238,"2026-02-09 19:20:00","41228","3.0180000000000002","244.4","4.965","266.4","NAN","NAN","NAN","NAN","NAN"],
    [1540239,"2026-02-09 19:30:00","41229","2.892","249.8","4.704","253.1","NAN","NAN","NAN","NAN","NAN"],
    [1540240,"2026-02-09 19:40:00","41230","3.611","249.0","5.978","255.8","NAN","NAN","NAN","NAN","NAN"],
    [1540241,"2026-02-09 19:50:00","41231","3.972","249.8","6.501","256.2","NAN","NAN","NAN","NAN","NAN"],
    [1540242,"2026-02-09 20:00:00","41232","3.8989999999999996","247.3","5.815","248.4","NAN","NAN","NAN","NAN","NAN"],
    [1540243,"2026-02-09 20:10:00","41233","2.447","239.4","4.867","234.6","NAN","NAN","NAN","NAN","NAN"],
    [1540244,"2026-02-09 20:20:00","41234","2.687","247.8","4.867","253.8","NAN","NAN","NAN","NAN","NAN"],
    [1540245,"2026-02-09 20:30:00","41235","2.688","251.5","3.985","247.8","NAN","NAN","NAN","NAN","NAN"],
    [1540246,"2026-02-09 20:40:00","41236","2.593","250.3","3.626","253.3","NAN","NAN","NAN","NAN","NAN"],
    [1540247,"2026-02-09 20:50:00","41237","2.97","254.8","5.357","253.2","NAN","NAN","NAN","NAN","NAN"],
    [1540248,"2026-02-09 21:00:00","41238","2.7889999999999997","256.0","4.116","244.5","NAN","NAN","NAN","NAN","NAN"],
    [1540249,"2026-02-09 21:10:00","41239","2.762","256.9","4.573","262.1","NAN","NAN","NAN","NAN","NAN"],
    [1540250,"2026-02-09 21:20:00","41240","2.424","260.6","3.92","253.3","NAN","NAN","NAN","NAN","NAN"],
    [1540251,"2026-02-09 21:30:00","41241","3.15","248.9","4.606","240.4","NAN","NAN","NAN","NAN","NAN"],
    [1540252,"2026-02-09 21:40:00","41242","2.7510000000000003","252.7","4.181","237.5","NAN","NAN","NAN","NAN","NAN"],
    [1540253,"2026-02-09 21:50:00","41243","2.81","263.4","4.606","259.5","NAN","NAN","NAN","NAN","NAN"],
    [1540254,"2026-02-09 22:00:00","41244","3.052","269.9","4.998","276.4","NAN","NAN","NAN","NAN","NAN"],
    [1540255,"2026-02-09 22:10:00","41245","2.9930000000000003","268.9","4.933","264.7","NAN","NAN","NAN","NAN","NAN"],
    [1540256,"2026-02-09 22:20:00","41246","1.4709999999999999","265.6","2.744","263.9","NAN","NAN","NAN","NAN","NAN"],
    [1540257,"2026-02-09 22:30:00","41247","1.964","258.2","3.495","254.2","NAN","NAN","NAN","NAN","NAN"],
    [1540258,"2026-02-09 22:40:00","41248","1.361","261.3","2.091","256.5","NAN","NAN","NAN","NAN","NAN"],
    [1540259,"2026-02-09 22:50:00","41249","1.3940000000000001","265.1","2.221","266.9","NAN","NAN","NAN","NAN","NAN"],
    [1540260,"2026-02-09 23:00:00","41250","1.69","260.4","3.169","252.9","NAN","NAN","NAN","NAN","NAN"],
    [1540261,"2026-02-09 23:10:00","41251","1.911","252.6","3.169","250.6","NAN","NAN","NAN","NAN","NAN"],
    [1540262,"2026-02-09 23:20:00","41252","1.75","258.1","2.907","260.6","NAN","NAN","NAN","NAN","NAN"],
    [1540263,"2026-02-09 23:30:00","41253","1.765","252.9","3.267","251.1","NAN","NAN","NAN","NAN","NAN"],
    [1540264,"2026-02-09 23:40:00","41254","1.984","253.0","3.169","256.8","NAN","NAN","NAN","NAN","NAN"],
    [1540265,"2026-02-09 23:50:00","41255","0.522","258.8","2.221","251.9","NAN","NAN","NAN","NAN","NAN"],
    [1540266,"2026-02-10 00:00:00","41256","0.35200000000000004","267.2","1.372","268","NAN","NAN","NAN","NAN","NAN"],
    [1540267,"2026-02-10 00:10:00","41257","0.006","269.1","0.457","268.8","NAN","NAN","NAN","NAN","NAN"],
    [1540268,"2026-02-10 00:20:00","41258","0.924","301.7","2.025","309.2","NAN","NAN","NAN","NAN","NAN"],
    [1540269,"2026-02-10 00:30:00","41259","1.2309999999999999","309.8","2.744","301","NAN","NAN","NAN","NAN","NAN"],
    [1540270,"2026-02-10 00:40:00","41260","1.262","299.2","2.385","303.8","NAN","NAN","NAN","NAN","NAN"],
    [1540271,"2026-02-10 00:50:00","41261","0.6709999999999999","293.7","1.96","293","NAN","NAN","NAN","NAN","NAN"],
    [1540272,"2026-02-10 01:00:00","41262","0.629","291.7","1.731","291.2","NAN","NAN","NAN","NAN","NAN"],
    [1540273,"2026-02-10 01:10:00","41263","1.053","290.4","1.96","290.4","NAN","NAN","NAN","NAN","NAN"],
    [1540274,"2026-02-10 01:20:00","41264","0.9490000000000001","289.7","1.731","289.6","NAN","NAN","NAN","NAN","NAN"],
    [1540275,"2026-02-10 01:30:00","41265","0.586","289.6","1.437","289.6","NAN","NAN","NAN","NAN","NAN"],
    [1540276,"2026-02-10 01:40:00","41266","1.216","289.4","3.038","289.1","NAN","NAN","NAN","NAN","NAN"],
    [1540277,"2026-02-10 01:50:00","41267","1.4240000000000002","288.9","2.287","289","NAN","NAN","NAN","NAN","NAN"],
    [1540278,"2026-02-10 02:00:00","41268","1.54","288.3","2.385","287.5","NAN","NAN","NAN","NAN","NAN"],
    [1540279,"2026-02-10 02:10:00","41269","1.742","288.4","2.809","286.6","NAN","NAN","NAN","NAN","NAN"],
    [1540280,"2026-02-10 02:20:00","41270","1.547","288.4","2.548","296.5","NAN","NAN","NAN","NAN","NAN"],
    [1540281,"2026-02-10 02:30:00","41271","1.683","287.4","3.332","281","NAN","NAN","NAN","NAN","NAN"],
    [1540282,"2026-02-10 02:40:00","41272","2.057","280.6","3.528","270.7","NAN","NAN","NAN","NAN","NAN"],
    [1540283,"2026-02-10 02:50:00","41273","1.693","291.8","2.744","291.1","NAN","NAN","NAN","NAN","NAN"],
    [1540284,"2026-02-10 03:00:00","41274","1.53","302.4","2.875","297.7","NAN","NAN","NAN","NAN","NAN"],
    [1540285,"2026-02-10 03:10:00","41275","1.71","302.8","2.809","301.3","NAN","NAN","NAN","NAN","NAN"],
    [1540286,"2026-02-10 03:20:00","41276","2.97","310.7","5.194","318","NAN","NAN","NAN","NAN","NAN"],
    [1540287,"2026-02-10 03:30:00","41277","2.383","302.0","4.573","306","NAN","NAN","NAN","NAN","NAN"],
    [1540288,"2026-02-10 03:40:00","41278","1.6869999999999998","306.0","3.626","311.8","NAN","NAN","NAN","NAN","NAN"],
    [1540289,"2026-02-10 03:50:00","41279","0.9","309.6","2.646","313.3","NAN","NAN","NAN","NAN","NAN"],
    [1540290,"2026-02-10 04:00:00","41280","0.14400000000000002","313.4","1.274","313.4","NAN","NAN","NAN","NAN","NAN"],
    [1540291,"2026-02-10 04:10:00","41281","0.022000000000000002","311.8","0.555","311.7","NAN","NAN","NAN","NAN","NAN"],
    [1540292,"2026-02-10 04:20:00","41282","0.8959999999999999","286.8","3.005","280.6","NAN","NAN","NAN","NAN","NAN"],
    [1540293,"2026-02-10 04:30:00","41283","1.5530000000000002","299.8","3.43","299.8","NAN","NAN","NAN","NAN","NAN"],
    [1540294,"2026-02-10 04:40:00","41284","1.97","299.4","4.149","300.2","NAN","NAN","NAN","NAN","NAN"],
    [1540295,"2026-02-10 04:50:00","41285","2.421","303.2","4.443","313.8","NAN","NAN","NAN","NAN","NAN"],
    [1540296,"2026-02-10 05:00:00","41286","2.9360000000000004","310.2","4.867","320","NAN","NAN","NAN","NAN","NAN"],
    [1540297,"2026-02-10 05:10:00","41287","2.523","323.4","4.639","336","NAN","NAN","NAN","NAN","NAN"],
    [1540298,"2026-02-10 05:20:00","41288","1.8619999999999999","321.9","3.365","322.2","NAN","NAN","NAN","NAN","NAN"],
    [1540299,"2026-02-10 05:30:00","41289","2.148","320.2","3.463","319.2","NAN","NAN","NAN","NAN","NAN"],
    [1540300,"2026-02-10 05:40:00","41290","1.166","314.2","3.495","320.7","NAN","NAN","NAN","NAN","NAN"],
    [1540301,"2026-02-10 05:50:00","41291","0.72","316.1","1.862","316.1","NAN","NAN","NAN","NAN","NAN"],
    [1540302,"2026-02-10 06:00:00","41292","1.014","316.3","2.058","315.9","NAN","NAN","NAN","NAN","NAN"],
    [1540303,"2026-02-10 06:10:00","41293","0.22","316.0","1.143","316","NAN","NAN","NAN","NAN","NAN"],
    [1540304,"2026-02-10 06:20:00","41294","0.147","315.9","1.274","315.9","NAN","NAN","NAN","NAN","NAN"],
    [1540305,"2026-02-10 06:30:00","41295","0.142","315.7","1.176","315.6","NAN","NAN","NAN","NAN","NAN"],
    [1540306,"2026-02-10 06:40:00","41296","0.506","315.2","1.503","314.9","NAN","NAN","NAN","NAN","NAN"],
    [1540307,"2026-02-10 06:50:00","41297","0.235","314.8","1.274","314.8","NAN","NAN","NAN","NAN","NAN"],
    [1540308,"2026-02-10 07:00:00","41298","0.19","314.9","1.176","314.9","NAN","NAN","NAN","NAN","NAN"],
    [1540309,"2026-02-10 07:10:00","41299","0.774","314.8","1.437","314.8","NAN","NAN","NAN","NAN","NAN"],
    [1540310,"2026-02-10 07:20:00","41300","0.29","314.7","1.209","314.6","NAN","NAN","NAN","NAN","NAN"],
    [1540311,"2026-02-10 07:30:00","41301","0.574","314.5","1.535","314.4","NAN","NAN","NAN","NAN","NAN"],
    [1540312,"2026-02-10 07:40:00","41302","0.242","314.3","1.241","314.3","NAN","NAN","NAN","NAN","NAN"],
    [1540313,"2026-02-10 07:50:00","41303","0.18","317.2","1.143","316.6","NAN","NAN","NAN","NAN","NAN"],
    [1540314,"2026-02-10 08:00:00","41304","0.026000000000000002","316.5","0.555","316.5","NAN","NAN","NAN","NAN","NAN"],
    [1540315,"2026-02-10 08:10:00","41305","0.0","0.0","0","0","NAN","NAN","NAN","NAN","NAN"],
    [1540316,"2026-02-10 08:20:00","41306","0.061","316.3","0.719","316.2","NAN","NAN","NAN","NAN","NAN"],
    [1540317,"2026-02-10 08:30:00","41307","0.0","0.0","0","0","NAN","NAN","NAN","NAN","NAN"],
    [1540318,"2026-02-10 08:40:00","41308","0.264","315.3","1.274","315.2","NAN","NAN","NAN","NAN","NAN"],
    [1540319,"2026-02-10 08:50:00","41309","0.40299999999999997","315.2","1.47","315.1","NAN","NAN","NAN","NAN","NAN"],
    [1540320,"2026-02-10 09:00:00","41310","0.792","315.1","1.568","315.1","NAN","NAN","NAN","NAN","NAN"],
    [1540321,"2026-02-10 09:10:00","41311","0.7390000000000001","316.0","1.699","315","NAN","NAN","NAN","NAN","NAN"],
    [1540322,"2026-02-10 09:20:00","41312","0.789","315.5","2.091","314.9","NAN","NAN","NAN","NAN","NAN"],
    [1540323,"2026-02-10 09:30:00","41313","0.65","314.5","1.927","314.4","NAN","NAN","NAN","NAN","NAN"],
    [1540324,"2026-02-10 09:40:00","41314","0.868","314.3","2.254","314.4","NAN","NAN","NAN","NAN","NAN"],
    [1540325,"2026-02-10 09:50:00","41315","0.4","313.5","1.503","314","NAN","NAN","NAN","NAN","NAN"],
    [1540326,"2026-02-10 10:00:00","41316","1.224","312.7","2.483","312.2","NAN","NAN","NAN","NAN","NAN"],
    [1540327,"2026-02-10 10:10:00","41317","1.2890000000000001","311.5","3.169","311.2","NAN","NAN","NAN","NAN","NAN"],
    [1540328,"2026-02-10 10:20:00","41318","0.532","313.6","1.993","310.9","NAN","NAN","NAN","NAN","NAN"],
    [1540329,"2026-02-10 10:30:00","41319","0.125","311.0","1.241","311","NAN","NAN","NAN","NAN","NAN"],
    [1540330,"2026-02-10 10:40:00","41320","1.159","311.8","2.254","310.4","NAN","NAN","NAN","NAN","NAN"],
    [1540331,"2026-02-10 10:50:00","41321","0.27","310.1","1.372","310.1","NAN","NAN","NAN","NAN","NAN"],
    [1540332,"2026-02-10 11:00:00","41322","0.166","310.1","1.47","310.1","NAN","NAN","NAN","NAN","NAN"],
    [1540333,"2026-02-10 11:10:00","41323","0.204","306.8","1.143","309.5","NAN","NAN","NAN","NAN","NAN"],
    [1540334,"2026-02-10 11:20:00","41324","0.022000000000000002","284.8","0.588","286.8","NAN","NAN","NAN","NAN","NAN"],
    [1540335,"2026-02-10 11:30:00","41325","0.22399999999999998","280.5","1.731","279.6","NAN","NAN","NAN","NAN","NAN"],
    [1540336,"2026-02-10 11:40:00","41326","1.094","249.0","3.43","216.7","NAN","NAN","NAN","NAN","NAN"],
    [1540337,"2026-02-10 11:50:00","41327","1.618","220.2","2.875","218.2","NAN","NAN","NAN","NAN","NAN"],
    [1540338,"2026-02-10 12:00:00","41328","1.706","217.9","3.463","213.5","NAN","NAN","NAN","NAN","NAN"],
    [1540339,"2026-02-10 12:10:00","41329","2.055","212.4","3.528","210.6","NAN","NAN","NAN","NAN","NAN"],
    [1540340,"2026-02-10 12:20:00","41330","2.221","210.1","3.397","211.5","NAN","NAN","NAN","NAN","NAN"],
    [1540341,"2026-02-10 12:30:00","41331","1.492","218.0","2.842","217.5","NAN","NAN","NAN","NAN","NAN"],
    [1540342,"2026-02-10 12:40:00","41332","1.057","206.3","2.94","204.7","NAN","NAN","NAN","NAN","NAN"],
    [1540343,"2026-02-10 12:50:00","41333","0.45","215.9","1.862","217.3","NAN","NAN","NAN","NAN","NAN"],
    [1540344,"2026-02-10 13:00:00","41334","1.104","240.0","2.973","252.6","NAN","NAN","NAN","NAN","NAN"],
    [1540345,"2026-02-10 13:10:00","41335","1.7269999999999999","242.1","3.789","245.9","NAN","NAN","NAN","NAN","NAN"],
    [1540346,"2026-02-10 13:20:00","41336","1.617","244.6","2.94","237.2","NAN","NAN","NAN","NAN","NAN"],
    [1540347,"2026-02-10 13:30:00","41337","0.271","239.2","1.535","241.4","NAN","NAN","NAN","NAN","NAN"],
    [1540348,"2026-02-10 13:40:00","41338","0.557","213.1","1.862","214.6","NAN","NAN","NAN","NAN","NAN"],
    [1540349,"2026-02-10 13:50:00","41339","2.013","234.2","5.521","243.8","NAN","NAN","NAN","NAN","NAN"],
    [1540350,"2026-02-10 14:00:00","41340","4.724","244.1","8.69","241.7","NAN","NAN","NAN","NAN","NAN"],
    [1540351,"2026-02-10 14:10:00","41341","4.245","243.7","7.415","244.9","NAN","NAN","NAN","NAN","NAN"],
    [1540352,"2026-02-10 14:20:00","41342","4.303999999999999","243.2","8.33","244.7","NAN","NAN","NAN","NAN","NAN"],
    [1540353,"2026-02-10 14:30:00","41343","3.839","240.0","7.546","238.5","NAN","NAN","NAN","NAN","NAN"],
    [1540354,"2026-02-10 14:40:00","41344","4.859","249.1","8.36","253.8","NAN","NAN","NAN","NAN","NAN"],
    [1540355,"2026-02-10 14:50:00","41345","5.294","242.5","8.4","245.2","NAN","NAN","NAN","NAN","NAN"],
    [1540356,"2026-02-10 15:00:00","41346","5.595","246.4","8.59","232.8","NAN","NAN","NAN","NAN","NAN"],
    [1540357,"2026-02-10 15:10:00","41347","5.587999999999999","246.9","9.73","256.2","NAN","NAN","NAN","NAN","NAN"],
    [1540358,"2026-02-10 15:20:00","41348","4.762","247.2","7.775","256.1","NAN","NAN","NAN","NAN","NAN"],
    [1540359,"2026-02-10 15:30:00","41349","4.481","239.9","8.43","250.8","NAN","NAN","NAN","NAN","NAN"],
    [1540360,"2026-02-10 15:40:00","41350","4.781000000000001","245.4","8.66","247.7","NAN","NAN","NAN","NAN","NAN"],
    [1540361,"2026-02-10 15:50:00","41351","4.736000000000001","248.5","7.317","254.3","NAN","NAN","NAN","NAN","NAN"],
    [1540362,"2026-02-10 16:00:00","41352","4.912","247.6","7.579","243.6","NAN","NAN","NAN","NAN","NAN"],
    [1540363,"2026-02-10 16:10:00","41353","4.508","247.0","8.04","233.7","NAN","NAN","NAN","NAN","NAN"],
    [1540364,"2026-02-10 16:20:00","41354","4.605","248.2","7.546","249.2","NAN","NAN","NAN","NAN","NAN"],
    [1540365,"2026-02-10 16:30:00","41355","4.798","250.0","8.1","249.2","NAN","NAN","NAN","NAN","NAN"],
    [1540366,"2026-02-10 16:40:00","41356","5.092","250.8","8","252","NAN","NAN","NAN","NAN","NAN"],
    [1540367,"2026-02-10 16:50:00","41357","4.272","248.8","6.762","245.7","NAN","NAN","NAN","NAN","NAN"],
    [1540368,"2026-02-10 17:00:00","41358","3.468","244.5","6.076","241.5","NAN","NAN","NAN","NAN","NAN"],
    [1540369,"2026-02-10 17:10:00","41359","4.111000000000001","243.4","6.631","240.3","NAN","NAN","NAN","NAN","NAN"],
    [1540370,"2026-02-10 17:20:00","41360","3.361","237.6","5.717","231.7","NAN","NAN","NAN","NAN","NAN"],
    [1540371,"2026-02-10 17:30:00","41361","2.988","246.0","4.671","246.9","NAN","NAN","NAN","NAN","NAN"],
    [1540372,"2026-02-10 17:40:00","41362","3.4410000000000003","248.2","5.423","260.8","NAN","NAN","NAN","NAN","NAN"],
    [1540373,"2026-02-10 17:50:00","41363","3.272","238.3","5.488","250.1","NAN","NAN","NAN","NAN","NAN"],
    [1540374,"2026-02-10 18:00:00","41364","3.158","241.4","4.475","227.8","NAN","NAN","NAN","NAN","NAN"],
    [1540375,"2026-02-10 18:10:00","41365","3.0639999999999996","236.2","5.651","239.2","NAN","NAN","NAN","NAN","NAN"],
    [1540376,"2026-02-10 18:20:00","41366","2.552","236.6","4.214","237.7","NAN","NAN","NAN","NAN","NAN"],
    [1540377,"2026-02-10 18:30:00","41367","2.7680000000000002","239.2","4.149","231.6","NAN","NAN","NAN","NAN","NAN"],
    [1540378,"2026-02-10 18:40:00","41368","2.1719999999999997","239.6","3.855","236.2","NAN","NAN","NAN","NAN","NAN"],
    [1540379,"2026-02-10 18:50:00","41369","1.959","241.2","3.299","239.2","NAN","NAN","NAN","NAN","NAN"],
    [1540380,"2026-02-10 19:00:00","41370","1.976","238.6","3.463","233","NAN","NAN","NAN","NAN","NAN"],
    [1540381,"2026-02-10 19:10:00","41371","2.476","234.4","4.345","227.5","NAN","NAN","NAN","NAN","NAN"],
    [1540382,"2026-02-10 19:20:00","41372","2.562","241.5","4.214","252.3","NAN","NAN","NAN","NAN","NAN"],
    [1540383,"2026-02-10 19:30:00","41373","2.2159999999999997","256.0","4.606","257.5","NAN","NAN","NAN","NAN","NAN"],
    [1540384,"2026-02-10 19:40:00","41374","1.83","251.1","3.267","244.3","NAN","NAN","NAN","NAN","NAN"],
    [1540385,"2026-02-10 19:50:00","41375","1.811","241.8","4.508","241.2","NAN","NAN","NAN","NAN","NAN"],
    [1540386,"2026-02-10 20:00:00","41376","0.66","250.3","2.581","247.8","NAN","NAN","NAN","NAN","NAN"],
    [1540387,"2026-02-10 20:10:00","41377","1.389","258.6","2.254","258.9","NAN","NAN","NAN","NAN","NAN"],
    [1540388,"2026-02-10 20:20:00","41378","0.26899999999999996","259.0","1.307","259","NAN","NAN","NAN","NAN","NAN"],
    [1540389,"2026-02-10 20:30:00","41379","0.311","256.7","1.372","258.8","NAN","NAN","NAN","NAN","NAN"],
    [1540390,"2026-02-10 20:40:00","41380","0.562","258.8","1.437","259","NAN","NAN","NAN","NAN","NAN"],
    [1540391,"2026-02-10 20:50:00","41381","0.541","259.0","1.633","259.2","NAN","NAN","NAN","NAN","NAN"],
    [1540392,"2026-02-10 21:00:00","41382","1.2919999999999998","259.4","2.058","259.6","NAN","NAN","NAN","NAN","NAN"],
    [1540393,"2026-02-10 21:10:00","41383","1.9869999999999999","256.3","2.875","258.9","NAN","NAN","NAN","NAN","NAN"],
    [1540394,"2026-02-10 21:20:00","41384","2.202","244.0","4.867","231.1","NAN","NAN","NAN","NAN","NAN"],
    [1540395,"2026-02-10 21:30:00","41385","2.193","233.3","4.312","220.4","NAN","NAN","NAN","NAN","NAN"],
    [1540396,"2026-02-10 21:40:00","41386","0.44299999999999995","245.2","2.777","229.7","NAN","NAN","NAN","NAN","NAN"],
    [1540397,"2026-02-10 21:50:00","41387","1.24","297.3","2.875","300.9","NAN","NAN","NAN","NAN","NAN"],
    [1540398,"2026-02-10 22:00:00","41388","0.988","296.1","1.862","296.7","NAN","NAN","NAN","NAN","NAN"],
    [1540399,"2026-02-10 22:10:00","41389","0.207","299.8","1.013","297.8","NAN","NAN","NAN","NAN","NAN"],
    [1540400,"2026-02-10 22:20:00","41390","0.95","300.5","1.568","301.3","NAN","NAN","NAN","NAN","NAN"],
    [1540401,"2026-02-10 22:30:00","41391","0.6459999999999999","299.3","1.731","298.5","NAN","NAN","NAN","NAN","NAN"],
    [1540402,"2026-02-10 22:40:00","41392","0.5","300.5","1.503","301.3","NAN","NAN","NAN","NAN","NAN"],
    [1540403,"2026-02-10 22:50:00","41393","0.255","302.1","0.915","301.9","NAN","NAN","NAN","NAN","NAN"],
    [1540404,"2026-02-10 23:00:00","41394","0.645","300.7","2.189","304.2","NAN","NAN","NAN","NAN","NAN"],
    [1540405,"2026-02-10 23:10:00","41395","0.423","303.9","1.405","304.2","NAN","NAN","NAN","NAN","NAN"],
    [1540406,"2026-02-10 23:20:00","41396","0.42100000000000004","299.8","1.274","304.2","NAN","NAN","NAN","NAN","NAN"],
    [1540407,"2026-02-10 23:30:00","41397","0.518","292.1","1.797","286.1","NAN","NAN","NAN","NAN","NAN"],
    [1540408,"2026-02-10 23:40:00","41398","0.425","286.3","1.862","283.1","NAN","NAN","NAN","NAN","NAN"],
    [1540409,"2026-02-10 23:50:00","41399","0.111","283.4","1.176","290","NAN","NAN","NAN","NAN","NAN"],
    [1540410,"2026-02-11 00:00:00","41400","0.6509999999999999","281.9","1.993","278","NAN","NAN","NAN","NAN","NAN"],
    [1540411,"2026-02-11 00:10:00","41401","1.1740000000000002","267.1","4.541","267.7","NAN","NAN","NAN","NAN","NAN"],
    [1540412,"2026-02-11 00:20:00","41402","3.345","285.7","6.925","278.8","NAN","NAN","NAN","NAN","NAN"],
    [1540413,"2026-02-11 00:30:00","41403","4.797","288.4","9.02","279.7","NAN","NAN","NAN","NAN","NAN"],
    [1540414,"2026-02-11 00:40:00","41404","4.62","288.7","7.905","284.3","NAN","NAN","NAN","NAN","NAN"],
    [1540415,"2026-02-11 00:50:00","41405","4.4639999999999995","283.2","9.9","292.7","NAN","NAN","NAN","NAN","NAN"],
    [1540416,"2026-02-11 01:00:00","41406","4.059","288.1","7.84","278.6","NAN","NAN","NAN","NAN","NAN"],
    [1540417,"2026-02-11 01:10:00","41407","3.1069999999999998","281.8","5.521","293","NAN","NAN","NAN","NAN","NAN"],
    [1540418,"2026-02-11 01:20:00","41408","3.138","270.6","5.488","285.6","NAN","NAN","NAN","NAN","NAN"],
    [1540419,"2026-02-11 01:30:00","41409","3.523","287.3","6.435","298.1","NAN","NAN","NAN","NAN","NAN"],
    [1540420,"2026-02-11 01:40:00","41410","3.803","296.4","7.775","291.8","NAN","NAN","NAN","NAN","NAN"],
    [1540421,"2026-02-11 01:50:00","41411","3.7760000000000002","304.2","7.481","309.4","NAN","NAN","NAN","NAN","NAN"],
    [1540422,"2026-02-11 02:00:00","41412","4.329","311.9","7.383","325.4","NAN","NAN","NAN","NAN","NAN"],
    [1540423,"2026-02-11 02:10:00","41413","4.941","289.9","9.44","292.1","NAN","NAN","NAN","NAN","NAN"],
    [1540424,"2026-02-11 02:20:00","41414","4.904","300.9","9.24","309.7","NAN","NAN","NAN","NAN","NAN"],
    [1540425,"2026-02-11 02:30:00","41415","5.635","301.8","12.84","324.2","NAN","NAN","NAN","NAN","NAN"],
    [1540426,"2026-02-11 02:40:00","41416","6.522","306.7","11.27","311.6","NAN","NAN","NAN","NAN","NAN"],
    [1540427,"2026-02-11 02:50:00","41417","7.2620000000000005","308.8","15.22","291","NAN","NAN","NAN","NAN","NAN"],
    [1540428,"2026-02-11 03:00:00","41418","7.999","310.3","14.86","313.1","NAN","NAN","NAN","NAN","NAN"],
    [1540429,"2026-02-11 03:10:00","41419","7.563","311.5","14.41","312.6","NAN","NAN","NAN","NAN","NAN"],
    [1540430,"2026-02-11 03:20:00","41420","8.96","312.7","14.63","292.8","NAN","NAN","NAN","NAN","NAN"],
    [1540431,"2026-02-11 03:30:00","41421","8.82","316.1","15.75","308.8","NAN","NAN","NAN","NAN","NAN"],
    [1540432,"2026-02-11 03:40:00","41422","9.3","311.4","18.16","335","NAN","NAN","NAN","NAN","NAN"],
    [1540433,"2026-02-11 03:50:00","41423","11.82","306.2","17.64","307.5","NAN","NAN","NAN","NAN","NAN"],
    [1540434,"2026-02-11 04:00:00","41424","9.27","309.1","16.53","303.1","NAN","NAN","NAN","NAN","NAN"],
    [1540435,"2026-02-11 04:10:00","41425","8.94","304.1","18.2","320.6","NAN","NAN","NAN","NAN","NAN"],
    [1540436,"2026-02-11 04:20:00","41426","8.49","304.1","14.28","312.2","NAN","NAN","NAN","NAN","NAN"],
    [1540437,"2026-02-11 04:30:00","41427","7.96","306.8","14.8","310.1","NAN","NAN","NAN","NAN","NAN"],
    [1540438,"2026-02-11 04:40:00","41428","8.51","302.5","15.16","308.2","NAN","NAN","NAN","NAN","NAN"],
    [1540439,"2026-02-11 04:50:00","41429","9.9","300.6","17.44","292.2","NAN","NAN","NAN","NAN","NAN"],
    [1540440,"2026-02-11 05:00:00","41430","9.51","301.4","17.64","290.7","NAN","NAN","NAN","NAN","NAN"],
    [1540441,"2026-02-11 05:10:00","41431","9.29","300.1","15.88","316.9","NAN","NAN","NAN","NAN","NAN"],
    [1540442,"2026-02-11 05:20:00","41432","8.45","299.2","14.9","299.5","NAN","NAN","NAN","NAN","NAN"],
    [1540443,"2026-02-11 05:30:00","41433","10.12","302.1","16.27","309.8","NAN","NAN","NAN","NAN","NAN"],
    [1540444,"2026-02-11 05:40:00","41434","8.0","302.6","16.01","278.7","NAN","NAN","NAN","NAN","NAN"],
    [1540445,"2026-02-11 05:50:00","41435","8.75","297.9","15.29","293.7","NAN","NAN","NAN","NAN","NAN"],
    [1540446,"2026-02-11 06:00:00","41436","7.841","291.0","14.31","310.9","NAN","NAN","NAN","NAN","NAN"],
    [1540447,"2026-02-11 06:10:00","41437","6.575","284.5","12.32","307.2","NAN","NAN","NAN","NAN","NAN"],
    [1540448,"2026-02-11 06:20:00","41438","5.4910000000000005","268.1","10.06","265.5","NAN","NAN","NAN","NAN","NAN"],
    [1540449,"2026-02-11 06:30:00","41439","6.324","268.1","11.76","279.6","NAN","NAN","NAN","NAN","NAN"],
    [1540450,"2026-02-11 06:40:00","41440","5.685","265.1","10.55","248.2","NAN","NAN","NAN","NAN","NAN"],
    [1540451,"2026-02-11 06:50:00","41441","5.529","262.6","10.16","268.5","NAN","NAN","NAN","NAN","NAN"],
    [1540452,"2026-02-11 07:00:00","41442","4.228","265.2","9.47","251.7","NAN","NAN","NAN","NAN","NAN"],
    [1540453,"2026-02-11 07:10:00","41443","4.501","291.6","8.2","286.5","NAN","NAN","NAN","NAN","NAN"],
    [1540454,"2026-02-11 07:20:00","41444","5.233","295.7","8.69","280.9","NAN","NAN","NAN","NAN","NAN"],
    [1540455,"2026-02-11 07:30:00","41445","5.484","298.4","10.32","291.6","NAN","NAN","NAN","NAN","NAN"],
    [1540456,"2026-02-11 07:40:00","41446","5.396","295.8","8.75","298.1","NAN","NAN","NAN","NAN","NAN"],
    [1540457,"2026-02-11 07:50:00","41447","5.562","303.8","9.83","308.5","NAN","NAN","NAN","NAN","NAN"],
    [1540458,"2026-02-11 08:00:00","41448","2.897","307.6","8.46","324","NAN","NAN","NAN","NAN","NAN"],
    [1540459,"2026-02-11 08:10:00","41449","3.432","311.2","6.37","306.8","NAN","NAN","NAN","NAN","NAN"],
    [1540460,"2026-02-11 08:20:00","41450","3.2489999999999997","297.2","5.455","314.1","NAN","NAN","NAN","NAN","NAN"],
    [1540461,"2026-02-11 08:30:00","41451","2.883","259.1","5.194","263.8","NAN","NAN","NAN","NAN","NAN"],
    [1540462,"2026-02-11 08:40:00","41452","3.445","278.4","6.403","302.5","NAN","NAN","NAN","NAN","NAN"],
    [1540463,"2026-02-11 08:50:00","41453","2.086","256.8","3.985","244.7","NAN","NAN","NAN","NAN","NAN"],
    [1540464,"2026-02-11 09:00:00","41454","3.737","255.1","6.043","259","NAN","NAN","NAN","NAN","NAN"],
    [1540465,"2026-02-11 09:10:00","41455","4.933","281.3","9.8","314.2","NAN","NAN","NAN","NAN","NAN"],
    [1540466,"2026-02-11 09:20:00","41456","4.908","293.9","9.31","306.1","NAN","NAN","NAN","NAN","NAN"],
    [1540467,"2026-02-11 09:30:00","41457","4.531000000000001","285.6","8.46","278.9","NAN","NAN","NAN","NAN","NAN"],
    [1540468,"2026-02-11 09:40:00","41458","2.678","277.8","6.141","274","NAN","NAN","NAN","NAN","NAN"],
    [1540469,"2026-02-11 09:50:00","41459","2.66","305.4","6.043","333.2","NAN","NAN","NAN","NAN","NAN"],
    [1540470,"2026-02-11 10:00:00","41460","3.5039999999999996","307.4","6.729","312.1","NAN","NAN","NAN","NAN","NAN"],
    [1540471,"2026-02-11 10:10:00","41461","3.6719999999999997","296.2","6.174","303","NAN","NAN","NAN","NAN","NAN"],
    [1540472,"2026-02-11 10:20:00","41462","4.777","295.8","10.62","290.3","NAN","NAN","NAN","NAN","NAN"],
    [1540473,"2026-02-11 10:30:00","41463","5.482","297.3","9.67","307.8","NAN","NAN","NAN","NAN","NAN"],
    [1540474,"2026-02-11 10:40:00","41464","4.935","299.7","7.873","298.1","NAN","NAN","NAN","NAN","NAN"],
    [1540475,"2026-02-11 10:50:00","41465","6.358","291.3","11.2","259.9","NAN","NAN","NAN","NAN","NAN"],
    [1540476,"2026-02-11 11:00:00","41466","4.112","288.8","7.154","263.2","NAN","NAN","NAN","NAN","NAN"],
    [1540477,"2026-02-11 11:10:00","41467","6.196000000000001","283.6","10.75","269.9","NAN","NAN","NAN","NAN","NAN"],
    [1540478,"2026-02-11 11:20:00","41468","5.865","292.0","9.8","296.5","NAN","NAN","NAN","NAN","NAN"],
    [1540479,"2026-02-11 11:30:00","41469","5.045","305.8","8.1","310.3","NAN","NAN","NAN","NAN","NAN"],
    [1540480,"2026-02-11 11:40:00","41470","4.082","292.5","10.13","300.6","NAN","NAN","NAN","NAN","NAN"],
    [1540481,"2026-02-11 11:50:00","41471","5.126","293.7","8.46","277.8","NAN","NAN","NAN","NAN","NAN"],
    [1540482,"2026-02-11 12:00:00","41472","3.569","280.8","6.174","266.8","NAN","NAN","NAN","NAN","NAN"],
    [1540483,"2026-02-11 12:10:00","41473","5.4479999999999995","289.9","9.11","297.1","NAN","NAN","NAN","NAN","NAN"],
    [1540484,"2026-02-11 12:20:00","41474","5.622000000000001","300.1","10.09","304.4","NAN","NAN","NAN","NAN","NAN"],
    [1540485,"2026-02-11 12:30:00","41475","5.138999999999999","306.6","9.38","292.3","NAN","NAN","NAN","NAN","NAN"],
    [1540486,"2026-02-11 12:40:00","41476","5.8870000000000005","293.9","10.45","301.4","NAN","NAN","NAN","NAN","NAN"],
    [1540487,"2026-02-11 12:50:00","41477","5.597","290.2","9.54","277.3","NAN","NAN","NAN","NAN","NAN"],
    [1540488,"2026-02-11 13:00:00","41478","6.649","289.8","11.89","299.6","NAN","NAN","NAN","NAN","NAN"],
    [1540489,"2026-02-11 13:10:00","41479","6.646","301.3","11.07","297.2","NAN","NAN","NAN","NAN","NAN"],
    [1540490,"2026-02-11 13:20:00","41480","5.596","302.3","8.4","291.2","NAN","NAN","NAN","NAN","NAN"],
    [1540491,"2026-02-11 13:30:00","41481","5.395","292.4","9.67","293.7","NAN","NAN","NAN","NAN","NAN"],
    [1540492,"2026-02-11 13:40:00","41482","4.803999999999999","287.4","9.44","288.8","NAN","NAN","NAN","NAN","NAN"],
    [1540493,"2026-02-11 13:50:00","41483","5.59","287.3","9.15","284.2","NAN","NAN","NAN","NAN","NAN"],
    [1540494,"2026-02-11 14:00:00","41484","5.58","291.7","8.92","297.6","NAN","NAN","NAN","NAN","NAN"],
    [1540495,"2026-02-11 14:10:00","41485","7.122999999999999","298.8","10.62","285.6","NAN","NAN","NAN","NAN","NAN"],
    [1540496,"2026-02-11 14:20:00","41486","5.854","279.6","10.39","295.6","NAN","NAN","NAN","NAN","NAN"],
    [1540497,"2026-02-11 14:30:00","41487","5.684","283.9","10.26","268.2","NAN","NAN","NAN","NAN","NAN"],
    [1540498,"2026-02-11 14:40:00","41488","5.812","292.1","8.72","260.4","NAN","NAN","NAN","NAN","NAN"],
    [1540499,"2026-02-11 14:50:00","41489","6.402","296.1","11.43","293.9","NAN","NAN","NAN","NAN","NAN"],
    [1540500,"2026-02-11 15:00:00","41490","5.354","276.2","9.05","273","NAN","NAN","NAN","NAN","NAN"],
    [1540501,"2026-02-11 15:10:00","41491","5.756","262.8","8.85","266.2","NAN","NAN","NAN","NAN","NAN"],
    [1540502,"2026-02-11 15:20:00","41492","5.292999999999999","269.3","10.42","257.3","NAN","NAN","NAN","NAN","NAN"],
    [1540503,"2026-02-11 15:30:00","41493","4.7330000000000005","269.1","8.49","277.5","NAN","NAN","NAN","NAN","NAN"],
    [1540504,"2026-02-11 15:40:00","41494","4.985","267.7","8.36","262","NAN","NAN","NAN","NAN","NAN"],
    [1540505,"2026-02-11 15:50:00","41495","5.531000000000001","270.1","10.13","266.8","NAN","NAN","NAN","NAN","NAN"],
    [1540506,"2026-02-11 16:00:00","41496","5.316","271.0","8.82","267.5","NAN","NAN","NAN","NAN","NAN"],
    [1540507,"2026-02-11 16:10:00","41497","5.502999999999999","272.8","10.22","272.5","NAN","NAN","NAN","NAN","NAN"],
    [1540508,"2026-02-11 16:20:00","41498","4.582","268.6","8.56","269.5","NAN","NAN","NAN","NAN","NAN"],
    [1540509,"2026-02-11 16:30:00","41499","4.3469999999999995","287.2","6.893","294.9","NAN","NAN","NAN","NAN","NAN"],
    [1540510,"2026-02-11 16:40:00","41500","4.874","280.1","9.11","287.1","NAN","NAN","NAN","NAN","NAN"],
    [1540511,"2026-02-11 16:50:00","41501","5.035","288.7","7.742","291.8","NAN","NAN","NAN","NAN","NAN"],
    [1540512,"2026-02-11 17:00:00","41502","3.6639999999999997","290.3","7.056","286.4","NAN","NAN","NAN","NAN","NAN"],
    [1540513,"2026-02-11 17:10:00","41503","4.678999999999999","293.2","8.07","303","NAN","NAN","NAN","NAN","NAN"],
    [1540514,"2026-02-11 17:20:00","41504","4.28","295.3","6.795","289.9","NAN","NAN","NAN","NAN","NAN"],
    [1540515,"2026-02-11 17:30:00","41505","4.414","291.8","8.46","301","NAN","NAN","NAN","NAN","NAN"],
    [1540516,"2026-02-11 17:40:00","41506","3.653","265.2","5.847","274.3","NAN","NAN","NAN","NAN","NAN"],
    [1540517,"2026-02-11 17:50:00","41507","3.588","278.9","5.521","284.2","NAN","NAN","NAN","NAN","NAN"],
    [1540518,"2026-02-11 18:00:00","41508","4.218999999999999","296.6","6.37","308","NAN","NAN","NAN","NAN","NAN"],
    [1540519,"2026-02-11 18:10:00","41509","4.136","312.1","6.795","304.8","NAN","NAN","NAN","NAN","NAN"],
    [1540520,"2026-02-11 18:20:00","41510","3.3480000000000003","305.6","6.403","315.4","NAN","NAN","NAN","NAN","NAN"],
    [1540521,"2026-02-11 18:30:00","41511","3.285","294.2","5.227","291.5","NAN","NAN","NAN","NAN","NAN"],
    [1540522,"2026-02-11 18:40:00","41512","2.573","281.8","4.083","291.6","NAN","NAN","NAN","NAN","NAN"],
    [1540523,"2026-02-11 18:50:00","41513","3.022","292.1","4.671","287.4","NAN","NAN","NAN","NAN","NAN"],
    [1540524,"2026-02-11 19:00:00","41514","3.3139999999999996","291.6","5.031","288.1","NAN","NAN","NAN","NAN","NAN"],
    [1540525,"2026-02-11 19:10:00","41515","2.885","285.4","4.279","276.1","NAN","NAN","NAN","NAN","NAN"],
    [1540526,"2026-02-11 19:20:00","41516","2.404","285.8","4.116","291.1","NAN","NAN","NAN","NAN","NAN"],
    [1540527,"2026-02-11 19:30:00","41517","1.689","298.9","3.985","306.6","NAN","NAN","NAN","NAN","NAN"],
    [1540528,"2026-02-11 19:40:00","41518","2.676","313.7","5.717","314.8","NAN","NAN","NAN","NAN","NAN"],
    [1540529,"2026-02-11 19:50:00","41519","4.253","319.8","7.938","328.6","NAN","NAN","NAN","NAN","NAN"],
    [1540530,"2026-02-11 20:00:00","41520","3.721","316.2","7.383","321.9","NAN","NAN","NAN","NAN","NAN"],
    [1540531,"2026-02-11 20:10:00","41521","3.585","321.1","6.174","312.6","NAN","NAN","NAN","NAN","NAN"],
    [1540532,"2026-02-11 20:20:00","41522","3.198","325.5","5.194","331.4","NAN","NAN","NAN","NAN","NAN"],
    [1540533,"2026-02-11 20:30:00","41523","2.255","310.8","4.247","314.6","NAN","NAN","NAN","NAN","NAN"],
    [1540534,"2026-02-11 20:40:00","41524","1.751","297.7","2.973","292.6","NAN","NAN","NAN","NAN","NAN"],
    [1540535,"2026-02-11 20:50:00","41525","2.6239999999999997","297.6","3.887","298.1","NAN","NAN","NAN","NAN","NAN"],
    [1540536,"2026-02-11 21:00:00","41526","2.524","290.9","3.789","288.7","NAN","NAN","NAN","NAN","NAN"],
    [1540537,"2026-02-11 21:10:00","41527","2.144","287.0","4.018","288.9","NAN","NAN","NAN","NAN","NAN"],
    [1540538,"2026-02-11 21:20:00","41528","2.3890000000000002","291.7","4.377","290.1","NAN","NAN","NAN","NAN","NAN"],
    [1540539,"2026-02-11 21:30:00","41529","2.63","292.3","3.659","293.9","NAN","NAN","NAN","NAN","NAN"],
    [1540540,"2026-02-11 21:40:00","41530","2.278","297.9","3.561","293.4","NAN","NAN","NAN","NAN","NAN"],
    [1540541,"2026-02-11 21:50:00","41531","1.409","297.2","2.777","291.8","NAN","NAN","NAN","NAN","NAN"],
    [1540542,"2026-02-11 22:00:00","41532","1.227","294.7","2.581","296.6","NAN","NAN","NAN","NAN","NAN"],
    [1540543,"2026-02-11 22:10:00","41533","1.6880000000000002","306.4","2.973","307.7","NAN","NAN","NAN","NAN","NAN"],
    [1540544,"2026-02-11 22:20:00","41534","1.1059999999999999","297.8","2.287","291.7","NAN","NAN","NAN","NAN","NAN"],
    [1540545,"2026-02-11 22:30:00","41535","2.004","280.1","3.299","268.1","NAN","NAN","NAN","NAN","NAN"],
    [1540546,"2026-02-11 22:40:00","41536","1.7280000000000002","273.9","3.397","269.9","NAN","NAN","NAN","NAN","NAN"],
    [1540547,"2026-02-11 22:50:00","41537","1.38","287.2","2.777","290.5","NAN","NAN","NAN","NAN","NAN"],
    [1540548,"2026-02-11 23:00:00","41538","1.2890000000000001","294.1","2.221","295.9","NAN","NAN","NAN","NAN","NAN"],
    [1540549,"2026-02-11 23:10:00","41539","0.894","295.8","2.091","296.1","NAN","NAN","NAN","NAN","NAN"],
    [1540550,"2026-02-11 23:20:00","41540","0.615","288.0","1.764","290.7","NAN","NAN","NAN","NAN","NAN"],
    [1540551,"2026-02-11 23:30:00","41541","0.299","275.1","1.633","275.1","NAN","NAN","NAN","NAN","NAN"],
    [1540552,"2026-02-11 23:40:00","41542","0.0","0.0","0","0","NAN","NAN","NAN","NAN","NAN"],
    [1540553,"2026-02-11 23:50:00","41543","0.002","274.8","0.196","274.8","NAN","NAN","NAN","NAN","NAN"],
    [1540554,"2026-02-12 00:00:00","41544","0.203","274.4","0.98","274.3","NAN","NAN","NAN","NAN","NAN"],
    [1540555,"2026-02-12 00:10:00","41545","0.12300000000000001","274.2","0.947","274.3","NAN","NAN","NAN","NAN","NAN"],
    [1540556,"2026-02-12 00:20:00","41546","0.8390000000000001","300.0","9.41","312.2","NAN","NAN","NAN","NAN","NAN"],
    [1540557,"2026-02-12 00:30:00","41547","6.843999999999999","289.8","11.47","281","NAN","NAN","NAN","NAN","NAN"],
    [1540558,"2026-02-12 00:40:00","41548","9.0","296.2","19.37","288.9","NAN","NAN","NAN","NAN","NAN"],
    [1540559,"2026-02-12 00:50:00","41549","11.28","299.8","18.46","290.9","NAN","NAN","NAN","NAN","NAN"],
    [1540560,"2026-02-12 01:00:00","41550","8.64","296.1","14.08","306.3","NAN","NAN","NAN","NAN","NAN"],
    [1540561,"2026-02-12 01:10:00","41551","10.43","293.0","19.89","270.4","NAN","NAN","NAN","NAN","NAN"],
    [1540562,"2026-02-12 01:20:00","41552","10.4","294.4","18.72","293.6","NAN","NAN","NAN","NAN","NAN"],
    [1540563,"2026-02-12 01:30:00","41553","10.22","290.8","19.99","308.8","NAN","NAN","NAN","NAN","NAN"],
    [1540564,"2026-02-12 01:40:00","41554","10.2","285.8","17.57","283.1","NAN","NAN","NAN","NAN","NAN"],
    [1540565,"2026-02-12 01:50:00","41555","8.55","287.3","17.57","302.6","NAN","NAN","NAN","NAN","NAN"],
    [1540566,"2026-02-12 02:00:00","41556","10.09","284.1","15.97","289.6","NAN","NAN","NAN","NAN","NAN"],
    [1540567,"2026-02-12 02:10:00","41557","9.12","287.6","15.55","278.5","NAN","NAN","NAN","NAN","NAN"],
    [1540568,"2026-02-12 02:20:00","41558","9.97","284.4","16.14","266.3","NAN","NAN","NAN","NAN","NAN"],
    [1540569,"2026-02-12 02:30:00","41559","9.7","285.6","15.97","272.7","NAN","NAN","NAN","NAN","NAN"],
    [1540570,"2026-02-12 02:40:00","41560","10.51","281.2","16.92","286.1","NAN","NAN","NAN","NAN","NAN"],
    [1540571,"2026-02-12 02:50:00","41561","10.21","281.8","18.42","295.9","NAN","NAN","NAN","NAN","NAN"],
    [1540572,"2026-02-12 03:00:00","41562","8.87","282.3","16.66","301.1","NAN","NAN","NAN","NAN","NAN"],
    [1540573,"2026-02-12 03:10:00","41563","8.98","277.1","16.69","265.2","NAN","NAN","NAN","NAN","NAN"],
    [1540574,"2026-02-12 03:20:00","41564","9.55","278.2","15.06","284.4","NAN","NAN","NAN","NAN","NAN"],
    [1540575,"2026-02-12 03:30:00","41565","8.5","278.4","15.68","278.7","NAN","NAN","NAN","NAN","NAN"],
    [1540576,"2026-02-12 03:40:00","41566","9.19","277.4","17.22","254.3","NAN","NAN","NAN","NAN","NAN"],
    [1540577,"2026-02-12 03:50:00","41567","9.51","279.7","14.31","271.8","NAN","NAN","NAN","NAN","NAN"],
    [1540578,"2026-02-12 04:00:00","41568","8.44","275.4","13.26","269.6","NAN","NAN","NAN","NAN","NAN"],
    [1540579,"2026-02-12 04:10:00","41569","8.1","279.9","13.75","271.3","NAN","NAN","NAN","NAN","NAN"],
    [1540580,"2026-02-12 04:20:00","41570","9.02","281.2","16.95","287","NAN","NAN","NAN","NAN","NAN"],
    [1540581,"2026-02-12 04:30:00","41571","9.37","280.4","14.7","277","NAN","NAN","NAN","NAN","NAN"],
    [1540582,"2026-02-12 04:40:00","41572","9.21","278.7","17.51","262.9","NAN","NAN","NAN","NAN","NAN"],
    [1540583,"2026-02-12 04:50:00","41573","12.7","276.2","23.39","272.8","NAN","NAN","NAN","NAN","NAN"],
    [1540584,"2026-02-12 05:00:00","41574","11.05","278.7","18.95","279.8","NAN","NAN","NAN","NAN","NAN"],
    [1540585,"2026-02-12 05:10:00","41575","13.75","280.2","23.75","282.6","NAN","NAN","NAN","NAN","NAN"],
    [1540586,"2026-02-12 05:20:00","41576","13.5","282.2","22.28","279.2","NAN","NAN","NAN","NAN","NAN"],
    [1540587,"2026-02-12 05:30:00","41577","13.69","283.0","23.26","274.6","NAN","NAN","NAN","NAN","NAN"],
    [1540588,"2026-02-12 05:40:00","41578","12.12","288.0","20.58","289.3","NAN","NAN","NAN","NAN","NAN"],
    [1540589,"2026-02-12 05:50:00","41579","12.3","288.0","22.34","279.9","NAN","NAN","NAN","NAN","NAN"],
    [1540590,"2026-02-12 06:00:00","41580","13.04","288.7","20.94","282.6","NAN","NAN","NAN","NAN","NAN"],
    [1540591,"2026-02-12 06:10:00","41581","13.16","292.2","22.61","290.6","NAN","NAN","NAN","NAN","NAN"],
    [1540592,"2026-02-12 06:20:00","41582","12.46","289.6","22.93","280.4","NAN","NAN","NAN","NAN","NAN"],
    [1540593,"2026-02-12 06:30:00","41583","12.86","289.7","24.27","281.2","NAN","NAN","NAN","NAN","NAN"],
    [1540594,"2026-02-12 06:40:00","41584","9.91","288.9","17.84","283.1","NAN","NAN","NAN","NAN","NAN"],
    [1540595,"2026-02-12 06:50:00","41585","10.74","295.4","19.04","309.4","NAN","NAN","NAN","NAN","NAN"],
    [1540596,"2026-02-12 07:00:00","41586","11.46","293.3","22.02","305.1","NAN","NAN","NAN","NAN","NAN"],
    [1540597,"2026-02-12 07:10:00","41587","8.09","294.0","18.03","287.8","NAN","NAN","NAN","NAN","NAN"],
    [1540598,"2026-02-12 07:20:00","41588","10.51","294.3","18.55","288.7","NAN","NAN","NAN","NAN","NAN"],
    [1540599,"2026-02-12 07:30:00","41589","8.21","290.9","15.84","288.9","NAN","NAN","NAN","NAN","NAN"],
    [1540600,"2026-02-12 07:40:00","41590","8.48","289.2","16.3","302.5","NAN","NAN","NAN","NAN","NAN"],
    [1540601,"2026-02-12 07:50:00","41591","9.01","295.1","16.56","310.9","NAN","NAN","NAN","NAN","NAN"],
    [1540602,"2026-02-12 08:00:00","41592","9.8","298.0","17.74","310.4","NAN","NAN","NAN","NAN","NAN"],
    [1540603,"2026-02-12 08:10:00","41593","9.35","296.0","15.61","317.8","NAN","NAN","NAN","NAN","NAN"],
    [1540604,"2026-02-12 08:20:00","41594","8.96","293.0","18.29","282.2","NAN","NAN","NAN","NAN","NAN"],
    [1540605,"2026-02-12 08:30:00","41595","7.8260000000000005","296.8","14.93","293.6","NAN","NAN","NAN","NAN","NAN"],
    [1540606,"2026-02-12 08:40:00","41596","8.39","298.3","16.76","290.1","NAN","NAN","NAN","NAN","NAN"],
    [1540607,"2026-02-12 08:50:00","41597","9.72","301.9","16.53","298.2","NAN","NAN","NAN","NAN","NAN"],
    [1540608,"2026-02-12 09:00:00","41598","10.31","299.5","18.52","305.5","NAN","NAN","NAN","NAN","NAN"],
    [1540609,"2026-02-12 09:10:00","41599","10.54","302.7","18.16","314.2","NAN","NAN","NAN","NAN","NAN"],
    [1540610,"2026-02-12 09:20:00","41600","11.67","304.5","23.45","310.1","NAN","NAN","NAN","NAN","NAN"],
    [1540611,"2026-02-12 09:30:00","41601","11.29","296.9","19.34","283.4","NAN","NAN","NAN","NAN","NAN"],
    [1540612,"2026-02-12 09:40:00","41602","10.57","298.8","21.1","288.7","NAN","NAN","NAN","NAN","NAN"],
    [1540613,"2026-02-12 09:50:00","41603","11.95","298.0","20.65","296.4","NAN","NAN","NAN","NAN","NAN"],
    [1540614,"2026-02-12 10:00:00","41604","11.95","300.4","20.97","297.7","NAN","NAN","NAN","NAN","NAN"],
    [1540615,"2026-02-12 10:10:00","41605","10.06","300.9","17.51","329.8","NAN","NAN","NAN","NAN","NAN"],
    [1540616,"2026-02-12 10:20:00","41606","10.14","299.0","17.44","294.3","NAN","NAN","NAN","NAN","NAN"],
    [1540617,"2026-02-12 10:30:00","41607","9.71","304.6","15.55","288.5","NAN","NAN","NAN","NAN","NAN"],
    [1540618,"2026-02-12 10:40:00","41608","11.57","299.8","20.58","301.2","NAN","NAN","NAN","NAN","NAN"],
    [1540619,"2026-02-12 10:50:00","41609","11.68","296.5","17.77","295.2","NAN","NAN","NAN","NAN","NAN"],
    [1540620,"2026-02-12 11:00:00","41610","12.03","298.3","18.75","290","NAN","NAN","NAN","NAN","NAN"],
    [1540621,"2026-02-12 11:10:00","41611","10.24","297.7","19.18","284.4","NAN","NAN","NAN","NAN","NAN"],
    [1540622,"2026-02-12 11:20:00","41612","10.93","300.1","19.47","303.4","NAN","NAN","NAN","NAN","NAN"],
    [1540623,"2026-02-12 11:30:00","41613","9.5","300.5","14.99","297.8","NAN","NAN","NAN","NAN","NAN"],
    [1540624,"2026-02-12 11:40:00","41614","8.97","298.6","17.25","301.6","NAN","NAN","NAN","NAN","NAN"],
    [1540625,"2026-02-12 11:50:00","41615","11.21","300.0","20.29","303.5","NAN","NAN","NAN","NAN","NAN"],
    [1540626,"2026-02-12 12:00:00","41616","9.07","303.5","15.78","310.4","NAN","NAN","NAN","NAN","NAN"],
    [1540627,"2026-02-12 12:10:00","41617","9.19","304.2","17.41","300","NAN","NAN","NAN","NAN","NAN"],
    [1540628,"2026-02-12 12:20:00","41618","8.69","300.2","14.24","305.2","NAN","NAN","NAN","NAN","NAN"],
    [1540629,"2026-02-12 12:30:00","41619","9.48","286.4","18.72","253.7","NAN","NAN","NAN","NAN","NAN"],
    [1540630,"2026-02-12 12:40:00","41620","9.73","288.5","17.84","289","NAN","NAN","NAN","NAN","NAN"],
    [1540631,"2026-02-12 12:50:00","41621","11.33","296.6","16.82","285.9","NAN","NAN","NAN","NAN","NAN"],
    [1540632,"2026-02-12 13:00:00","41622","8.58","298.3","15.61","277.2","NAN","NAN","NAN","NAN","NAN"],
    [1540633,"2026-02-12 13:10:00","41623","9.09","301.3","15.81","285.6","NAN","NAN","NAN","NAN","NAN"],
    [1540634,"2026-02-12 13:20:00","41624","9.41","301.7","15.45","303.9","NAN","NAN","NAN","NAN","NAN"],
    [1540635,"2026-02-12 13:30:00","41625","9.32","301.7","15.68","291.6","NAN","NAN","NAN","NAN","NAN"],
    [1540636,"2026-02-12 13:40:00","41626","10.32","307.3","18.23","325.1","NAN","NAN","NAN","NAN","NAN"],
    [1540637,"2026-02-12 13:50:00","41627","10.27","303.2","15.81","318.7","NAN","NAN","NAN","NAN","NAN"],
    [1540638,"2026-02-12 14:00:00","41628","9.28","303.5","14.5","290.4","NAN","NAN","NAN","NAN","NAN"],
    [1540639,"2026-02-12 14:10:00","41629","7.454","310.8","16.69","300.2","NAN","NAN","NAN","NAN","NAN"],
    [1540640,"2026-02-12 14:20:00","41630","11.06","297.8","16.82","305","NAN","NAN","NAN","NAN","NAN"],
    [1540641,"2026-02-12 14:30:00","41631","8.32","303.4","16.17","301.3","NAN","NAN","NAN","NAN","NAN"],
    [1540642,"2026-02-12 14:40:00","41632","8.22","295.9","14.18","310.4","NAN","NAN","NAN","NAN","NAN"],
    [1540643,"2026-02-12 14:50:00","41633","7.403","301.4","12.22","272.7","NAN","NAN","NAN","NAN","NAN"],
    [1540644,"2026-02-12 15:00:00","41634","7.642","297.6","13.07","303.1","NAN","NAN","NAN","NAN","NAN"],
    [1540645,"2026-02-12 15:10:00","41635","9.86","303.6","16.73","307.3","NAN","NAN","NAN","NAN","NAN"],
    [1540646,"2026-02-12 15:20:00","41636","8.63","306.7","13.3","306.6","NAN","NAN","NAN","NAN","NAN"],
    [1540647,"2026-02-12 15:30:00","41637","6.415","301.6","11.17","303.2","NAN","NAN","NAN","NAN","NAN"],
    [1540648,"2026-02-12 15:40:00","41638","7.024","299.0","12.81","284.6","NAN","NAN","NAN","NAN","NAN"],
    [1540649,"2026-02-12 15:50:00","41639","9.08","305.8","16.2","303.4","NAN","NAN","NAN","NAN","NAN"],
    [1540650,"2026-02-12 16:00:00","41640","8.17","300.0","14.14","286.8","NAN","NAN","NAN","NAN","NAN"],
    [1540651,"2026-02-12 16:10:00","41641","10.49","300.5","17.51","296.9","NAN","NAN","NAN","NAN","NAN"],
    [1540652,"2026-02-12 16:20:00","41642","8.1","310.8","12.64","308.9","NAN","NAN","NAN","NAN","NAN"],
    [1540653,"2026-02-12 16:30:00","41643","9.36","305.4","16.66","298.4","NAN","NAN","NAN","NAN","NAN"],
    [1540654,"2026-02-12 16:40:00","41644","9.08","305.5","14.28","303.7","NAN","NAN","NAN","NAN","NAN"],
    [1540655,"2026-02-12 16:50:00","41645","8.82","300.7","14.57","282.1","NAN","NAN","NAN","NAN","NAN"],
    [1540656,"2026-02-12 17:00:00","41646","7.191","299.1","13.56","298.7","NAN","NAN","NAN","NAN","NAN"],
    [1540657,"2026-02-12 17:10:00","41647","8.57","299.3","13.3","305","NAN","NAN","NAN","NAN","NAN"],
    [1540658,"2026-02-12 17:20:00","41648","8.67","300.4","12.94","303.9","NAN","NAN","NAN","NAN","NAN"],
    [1540659,"2026-02-12 17:30:00","41649","7.6739999999999995","300.4","13.49","302","NAN","NAN","NAN","NAN","NAN"],
    [1540660,"2026-02-12 17:40:00","41650","7.5360000000000005","300.0","13.59","298.5","NAN","NAN","NAN","NAN","NAN"],
    [1540661,"2026-02-12 17:50:00","41651","8.24","298.9","14.96","282.8","NAN","NAN","NAN","NAN","NAN"],
    [1540662,"2026-02-12 18:00:00","41652","7.1739999999999995","301.6","11.37","300.9","NAN","NAN","NAN","NAN","NAN"],
    [1540663,"2026-02-12 18:10:00","41653","6.14","299.9","10.68","303.8","NAN","NAN","NAN","NAN","NAN"],
    [1540664,"2026-02-12 18:20:00","41654","6.146","302.3","11.34","288.5","NAN","NAN","NAN","NAN","NAN"],
    [1540665,"2026-02-12 18:30:00","41655","5.832999999999999","304.3","10.06","305.8","NAN","NAN","NAN","NAN","NAN"],
    [1540666,"2026-02-12 18:40:00","41656","5.805","304.4","8.59","294.4","NAN","NAN","NAN","NAN","NAN"],
    [1540667,"2026-02-12 18:50:00","41657","4.582","302.4","8.62","300.9","NAN","NAN","NAN","NAN","NAN"],
    [1540668,"2026-02-12 19:00:00","41658","5.104","299.8","10.49","298","NAN","NAN","NAN","NAN","NAN"],
    [1540669,"2026-02-12 19:10:00","41659","5.917999999999999","306.4","10.06","305.2","NAN","NAN","NAN","NAN","NAN"],
    [1540670,"2026-02-12 19:20:00","41660","5.215","304.1","9.21","318.5","NAN","NAN","NAN","NAN","NAN"],
    [1540671,"2026-02-12 19:30:00","41661","3.0410000000000004","303.3","5.749","318.5","NAN","NAN","NAN","NAN","NAN"],
    [1540672,"2026-02-12 19:40:00","41662","3.602","304.0","6.403","315.3","NAN","NAN","NAN","NAN","NAN"],
    [1540673,"2026-02-12 19:50:00","41663","4.372","295.5","8.36","282.8","NAN","NAN","NAN","NAN","NAN"],
    [1540674,"2026-02-12 20:00:00","41664","3.605","291.9","6.501","287.9","NAN","NAN","NAN","NAN","NAN"],
    [1540675,"2026-02-12 20:10:00","41665","3.105","304.8","6.043","291.8","NAN","NAN","NAN","NAN","NAN"],
    [1540676,"2026-02-12 20:20:00","41666","2.7960000000000003","290.7","5.063","303.3","NAN","NAN","NAN","NAN","NAN"],
    [1540677,"2026-02-12 20:30:00","41667","2.209","293.6","5.357","280.8","NAN","NAN","NAN","NAN","NAN"],
    [1540678,"2026-02-12 20:40:00","41668","1.5759999999999998","309.0","5.39","351.6","NAN","NAN","NAN","NAN","NAN"],
    [1540679,"2026-02-12 20:50:00","41669","1.38","317.0","3.005","323.6","NAN","NAN","NAN","NAN","NAN"],
    [1540680,"2026-02-12 21:00:00","41670","1.864","306.7","4.083","323.5","NAN","NAN","NAN","NAN","NAN"],
    [1540681,"2026-02-12 21:10:00","41671","3.293","280.5","5.88","287.8","NAN","NAN","NAN","NAN","NAN"],
    [1540682,"2026-02-12 21:20:00","41672","3.57","280.4","6.076","252.2","NAN","NAN","NAN","NAN","NAN"],
    [1540683,"2026-02-12 21:30:00","41673","4.53","281.0","7.448","264.6","NAN","NAN","NAN","NAN","NAN"],
    [1540684,"2026-02-12 21:40:00","41674","4.556","285.0","6.762","294.3","NAN","NAN","NAN","NAN","NAN"],
    [1540685,"2026-02-12 21:50:00","41675","4.218999999999999","287.2","7.023","299.1","NAN","NAN","NAN","NAN","NAN"],
    [1540686,"2026-02-12 22:00:00","41676","4.532","281.7","8.62","270","NAN","NAN","NAN","NAN","NAN"],
    [1540687,"2026-02-12 22:10:00","41677","4.198","291.1","6.795","296","NAN","NAN","NAN","NAN","NAN"],
    [1540688,"2026-02-12 22:20:00","41678","2.4659999999999997","293.1","5.129","301.3","NAN","NAN","NAN","NAN","NAN"],
    [1540689,"2026-02-12 22:30:00","41679","2.241","289.4","5.88","309.1","NAN","NAN","NAN","NAN","NAN"],
    [1540690,"2026-02-12 22:40:00","41680","2.8819999999999997","263.1","6.86","281.4","NAN","NAN","NAN","NAN","NAN"],
    [1540691,"2026-02-12 22:50:00","41681","1.912","215.8","4.051","204.6","NAN","NAN","NAN","NAN","NAN"],
    [1540692,"2026-02-12 23:00:00","41682","2.8680000000000003","235.2","5.586","244.8","NAN","NAN","NAN","NAN","NAN"],
    [1540693,"2026-02-12 23:10:00","41683","3.478","265.4","6.86","273.2","NAN","NAN","NAN","NAN","NAN"],
    [1540694,"2026-02-12 23:20:00","41684","2.761","306.6","5.521","310.4","NAN","NAN","NAN","NAN","NAN"],
    [1540695,"2026-02-12 23:30:00","41685","1.952","324.3","5.063","336.6","NAN","NAN","NAN","NAN","NAN"],
    [1540696,"2026-02-12 23:40:00","41686","2.835","98.6","4.867","130.3","NAN","NAN","NAN","NAN","NAN"],
    [1540697,"2026-02-12 23:50:00","41687","3.617","154.0","5.161","159.8","NAN","NAN","NAN","NAN","NAN"],
    [1540698,"2026-02-13 00:00:00","41688","4.15","207.6","8.26","214.2","NAN","NAN","NAN","NAN","NAN"],
    [1540699,"2026-02-13 00:10:00","41689","5.07","257.6","8.17","275.8","NAN","NAN","NAN","NAN","NAN"],
    [1540700,"2026-02-13 00:20:00","41690","4.559","280.3","6.991","286.6","NAN","NAN","NAN","NAN","NAN"],
    [1540701,"2026-02-13 00:30:00","41691","2.741","288.7","4.704","271.9","NAN","NAN","NAN","NAN","NAN"],
    [1540702,"2026-02-13 00:40:00","41692","1.757","291.3","4.443","295.1","NAN","NAN","NAN","NAN","NAN"],
    [1540703,"2026-02-13 00:50:00","41693","0.095","252.0","0.882","230","NAN","NAN","NAN","NAN","NAN"],
    [1540704,"2026-02-13 01:00:00","41694","1.369","223.4","3.267","239","NAN","NAN","NAN","NAN","NAN"],
    [1540705,"2026-02-13 01:10:00","41695","3.8339999999999996","257.3","6.207","260.4","NAN","NAN","NAN","NAN","NAN"],
    [1540706,"2026-02-13 01:20:00","41696","3.469","289.0","5.455","287.9","NAN","NAN","NAN","NAN","NAN"],
    [1540707,"2026-02-13 01:30:00","41697","0.8059999999999999","274.1","3.234","297.6","NAN","NAN","NAN","NAN","NAN"],
    [1540708,"2026-02-13 01:40:00","41698","2.386","173.1","3.822","182.7","NAN","NAN","NAN","NAN","NAN"],
    [1540709,"2026-02-13 01:50:00","41699","1.3130000000000002","266.4","3.92","294.9","NAN","NAN","NAN","NAN","NAN"],
    [1540710,"2026-02-13 02:00:00","41700","2.483","233.5","4.116","235","NAN","NAN","NAN","NAN","NAN"],
    [1540711,"2026-02-13 02:10:00","41701","2.7089999999999996","286.6","4.083","290.3","NAN","NAN","NAN","NAN","NAN"],
    [1540712,"2026-02-13 02:20:00","41702","2.02","279.9","3.528","290.1","NAN","NAN","NAN","NAN","NAN"],
    [1540713,"2026-02-13 02:30:00","41703","2.193","283.5","3.397","275.2","NAN","NAN","NAN","NAN","NAN"],
    [1540714,"2026-02-13 02:40:00","41704","2.1919999999999997","290.6","3.43","287.2","NAN","NAN","NAN","NAN","NAN"],
    [1540715,"2026-02-13 02:50:00","41705","1.4269999999999998","271.5","3.234","293.1","NAN","NAN","NAN","NAN","NAN"],
    [1540716,"2026-02-13 03:00:00","41706","0.9540000000000001","265.7","2.483","263.9","NAN","NAN","NAN","NAN","NAN"],
    [1540717,"2026-02-13 03:10:00","41707","0.9590000000000001","248.3","3.299","213.9","NAN","NAN","NAN","NAN","NAN"],
    [1540718,"2026-02-13 03:20:00","41708","1.825","239.2","3.234","250","NAN","NAN","NAN","NAN","NAN"],
    [1540719,"2026-02-13 03:30:00","41709","1.403","223.9","2.94","258.5","NAN","NAN","NAN","NAN","NAN"],
    [1540720,"2026-02-13 03:40:00","41710","1.624","221.8","3.234","212","NAN","NAN","NAN","NAN","NAN"],
    [1540721,"2026-02-13 03:50:00","41711","1.177","233.9","2.319","239.5","NAN","NAN","NAN","NAN","NAN"],
    [1540722,"2026-02-13 04:00:00","41712","1.4569999999999999","227.1","3.201","219.2","NAN","NAN","NAN","NAN","NAN"],
    [1540723,"2026-02-13 04:10:00","41713","1.625","230.4","2.711","233","NAN","NAN","NAN","NAN","NAN"],
    [1540724,"2026-02-13 04:20:00","41714","1.06","223.8","3.234","221.3","NAN","NAN","NAN","NAN","NAN"],
    [1540725,"2026-02-13 04:30:00","41715","0.39799999999999996","200.9","2.123","187.1","NAN","NAN","NAN","NAN","NAN"],
    [1540726,"2026-02-13 04:40:00","41716","1.071","192.9","2.45","186.3","NAN","NAN","NAN","NAN","NAN"],
    [1540727,"2026-02-13 04:50:00","41717","1.598","223.5","3.332","240.1","NAN","NAN","NAN","NAN","NAN"],
    [1540728,"2026-02-13 05:00:00","41718","1.732","241.3","2.973","241","NAN","NAN","NAN","NAN","NAN"],
    [1540729,"2026-02-13 05:10:00","41719","1.913","232.3","3.789","232.3","NAN","NAN","NAN","NAN","NAN"],
    [1540730,"2026-02-13 05:20:00","41720","1.272","250.8","3.267","237.5","NAN","NAN","NAN","NAN","NAN"],
    [1540731,"2026-02-13 05:30:00","41721","0.428","266.7","1.895","266.7","NAN","NAN","NAN","NAN","NAN"],
    [1540732,"2026-02-13 05:40:00","41722","0.0","266.9","0.098","266.9","NAN","NAN","NAN","NAN","NAN"],
    [1540733,"2026-02-13 05:50:00","41723","0.013999999999999999","267.1","0.523","267.1","NAN","NAN","NAN","NAN","NAN"],
    [1540734,"2026-02-13 06:00:00","41724","0.027999999999999997","267.3","0.555","267.3","NAN","NAN","NAN","NAN","NAN"],
    [1540735,"2026-02-13 06:10:00","41725","0.004","267.5","0.229","267.5","NAN","NAN","NAN","NAN","NAN"],
    [1540736,"2026-02-13 06:20:00","41726","0.299","262.3","1.307","253.9","NAN","NAN","NAN","NAN","NAN"],
    [1540737,"2026-02-13 06:30:00","41727","0.0","0.0","0","0","NAN","NAN","NAN","NAN","NAN"],
    [1540738,"2026-02-13 06:40:00","41728","0.0","0.0","0","0","NAN","NAN","NAN","NAN","NAN"],
    [1540739,"2026-02-13 06:50:00","41729","0.0","0.0","0","0","NAN","NAN","NAN","NAN","NAN"],
    [1540740,"2026-02-13 07:00:00","41730","0.021","216.8","1.078","216","NAN","NAN","NAN","NAN","NAN"],
    [1540741,"2026-02-13 07:10:00","41731","0.659","212.4","1.731","212.2","NAN","NAN","NAN","NAN","NAN"],
    [1540742,"2026-02-13 07:20:00","41732","0.922","224.3","2.646","231.8","NAN","NAN","NAN","NAN","NAN"],
    [1540743,"2026-02-13 07:30:00","41733","1.5430000000000001","234.0","2.646","233.9","NAN","NAN","NAN","NAN","NAN"],
    [1540744,"2026-02-13 07:40:00","41734","0.7509999999999999","231.5","2.189","230.8","NAN","NAN","NAN","NAN","NAN"],
    [1540745,"2026-02-13 07:50:00","41735","0.374","238.8","1.339","238.8","NAN","NAN","NAN","NAN","NAN"],
    [1540746,"2026-02-13 08:00:00","41736","0.6","237.7","1.829","239","NAN","NAN","NAN","NAN","NAN"],
    [1540747,"2026-02-13 08:10:00","41737","0.073","239.1","1.405","239","NAN","NAN","NAN","NAN","NAN"],
    [1540748,"2026-02-13 08:20:00","41738","0.001","239.3","0.196","239.3","NAN","NAN","NAN","NAN","NAN"],
    [1540749,"2026-02-13 08:30:00","41739","0.40299999999999997","233.3","1.568","239.6","NAN","NAN","NAN","NAN","NAN"],
    [1540750,"2026-02-13 08:40:00","41740","0.564","238.8","1.47","239.7","NAN","NAN","NAN","NAN","NAN"],
    [1540751,"2026-02-13 08:50:00","41741","0.08199999999999999","240.0","0.653","240.1","NAN","NAN","NAN","NAN","NAN"],
    [1540752,"2026-02-13 09:00:00","41742","0.38799999999999996","240.1","1.633","240.1","NAN","NAN","NAN","NAN","NAN"],
    [1540753,"2026-02-13 09:10:00","41743","0.105","240.1","1.078","240.1","NAN","NAN","NAN","NAN","NAN"],
    [1540754,"2026-02-13 09:20:00","41744","0.284","240.1","1.797","240.2","NAN","NAN","NAN","NAN","NAN"],
    [1540755,"2026-02-13 09:30:00","41745","1.5859999999999999","308.9","3.071","331.8","NAN","NAN","NAN","NAN","NAN"],
    [1540756,"2026-02-13 09:40:00","41746","0.99","318.0","2.581","300","NAN","NAN","NAN","NAN","NAN"],
    [1540757,"2026-02-13 09:50:00","41747","0.319","300.4","2.417","299.6","NAN","NAN","NAN","NAN","NAN"],
    [1540758,"2026-02-13 10:00:00","41748","1.195","297.1","3.103","296.6","NAN","NAN","NAN","NAN","NAN"],
    [1540759,"2026-02-13 10:10:00","41749","0.031","296.9","0.784","293.9","NAN","NAN","NAN","NAN","NAN"],
    [1540760,"2026-02-13 10:20:00","41750","0.0","0.0","0","0","NAN","NAN","NAN","NAN","NAN"],
    [1540761,"2026-02-13 10:30:00","41751","0.21899999999999997","293.8","1.666","293.7","NAN","NAN","NAN","NAN","NAN"],
    [1540762,"2026-02-13 10:40:00","41752","0.768","308.3","1.666","309.2","NAN","NAN","NAN","NAN","NAN"],
    [1540763,"2026-02-13 10:50:00","41753","0.446","297.1","1.372","296.2","NAN","NAN","NAN","NAN","NAN"],
    [1540764,"2026-02-13 11:00:00","41754","0.131","306.8","0.817","307.3","NAN","NAN","NAN","NAN","NAN"],
    [1540765,"2026-02-13 11:10:00","41755","0.046","311.0","0.49","310.5","NAN","NAN","NAN","NAN","NAN"],
    [1540766,"2026-02-13 11:20:00","41756","0.0","0.0","0","0","NAN","NAN","NAN","NAN","NAN"],
    [1540767,"2026-02-13 11:30:00","41757","0.004","312.3","0.327","312.3","NAN","NAN","NAN","NAN","NAN"],
    [1540768,"2026-02-13 11:40:00","41758","0.0","0.0","0","0","NAN","NAN","NAN","NAN","NAN"],
    [1540769,"2026-02-13 11:50:00","41759","0.0","0.0","0","0","NAN","NAN","NAN","NAN","NAN"],
    [1540770,"2026-02-13 12:00:00","41760","0.006999999999999999","315.3","0.392","314.9","NAN","NAN","NAN","NAN","NAN"],
    [1540771,"2026-02-13 12:10:00","41761","0.12300000000000001","332.8","0.98","325.1","NAN","NAN","NAN","NAN","NAN"],
    [1540772,"2026-02-13 12:20:00","41762","0.0","343.1","0.065","343.1","NAN","NAN","NAN","NAN","NAN"],
    [1540773,"2026-02-13 12:30:00","41763","0.009000000000000001","343.5","0.327","343.6","NAN","NAN","NAN","NAN","NAN"],
    [1540774,"2026-02-13 12:40:00","41764","0.461","28.0","3.626","60.94","NAN","NAN","NAN","NAN","NAN"],
    [1540775,"2026-02-13 12:50:00","41765","2.0380000000000003","70.43","4.051","89.4","NAN","NAN","NAN","NAN","NAN"],
    [1540776,"2026-02-13 13:00:00","41766","2.891","75.81","5.031","84.5","NAN","NAN","NAN","NAN","NAN"],
    [1540777,"2026-02-13 13:10:00","41767","2.8680000000000003","74.3","4.541","69.8","NAN","NAN","NAN","NAN","NAN"],
    [1540778,"2026-02-13 13:20:00","41768","2.764","78.45","5.455","81.9","NAN","NAN","NAN","NAN","NAN"],
    [1540779,"2026-02-13 13:30:00","41769","3.445","75.99","5.292","69.88","NAN","NAN","NAN","NAN","NAN"],
    [1540780,"2026-02-13 13:40:00","41770","3.179","83.6","5.488","87","NAN","NAN","NAN","NAN","NAN"],
    [1540781,"2026-02-13 13:50:00","41771","3.242","75.74","5.586","87.4","NAN","NAN","NAN","NAN","NAN"],
    [1540782,"2026-02-13 14:00:00","41772","3.1630000000000003","302.5","7.187","269.4","NAN","NAN","NAN","NAN","NAN"],
    [1540783,"2026-02-13 14:10:00","41773","3.9219999999999997","309.9","7.84","292.2","NAN","NAN","NAN","NAN","NAN"],
    [1540784,"2026-02-13 14:20:00","41774","2.0","295.0","4.279","330.3","NAN","NAN","NAN","NAN","NAN"],
    [1540785,"2026-02-13 14:30:00","41775","2.677","291.9","5.096","288.7","NAN","NAN","NAN","NAN","NAN"],
    [1540786,"2026-02-13 14:40:00","41776","4.177","283.0","6.566","280.1","NAN","NAN","NAN","NAN","NAN"],
    [1540787,"2026-02-13 14:50:00","41777","4.493","300.1","7.742","294.6","NAN","NAN","NAN","NAN","NAN"],
    [1540788,"2026-02-13 15:00:00","41778","3.4189999999999996","294.6","5.39","302.1","NAN","NAN","NAN","NAN","NAN"],
    [1540789,"2026-02-13 15:10:00","41779","3.35","293.9","5.325","288","NAN","NAN","NAN","NAN","NAN"],
    [1540790,"2026-02-13 15:20:00","41780","3.445","288.9","5.423","292","NAN","NAN","NAN","NAN","NAN"],
    [1540791,"2026-02-13 15:30:00","41781","2.833","277.9","4.573","280.8","NAN","NAN","NAN","NAN","NAN"],
    [1540792,"2026-02-13 15:40:00","41782","2.155","270.6","3.659","267.7","NAN","NAN","NAN","NAN","NAN"],
    [1540793,"2026-02-13 15:50:00","41783","1.92","266.8","3.234","271","NAN","NAN","NAN","NAN","NAN"],
    [1540794,"2026-02-13 16:00:00","41784","2.012","259.8","4.377","251.3","NAN","NAN","NAN","NAN","NAN"],
    [1540795,"2026-02-13 16:10:00","41785","4.216","251.4","7.35","251.6","NAN","NAN","NAN","NAN","NAN"],
    [1540796,"2026-02-13 16:20:00","41786","5.228","251.2","8.3","266.2","NAN","NAN","NAN","NAN","NAN"],
    [1540797,"2026-02-13 16:30:00","41787","5.4079999999999995","251.1","8.17","235.2","NAN","NAN","NAN","NAN","NAN"],
    [1540798,"2026-02-13 16:40:00","41788","5.19","252.8","8.56","245.7","NAN","NAN","NAN","NAN","NAN"],
    [1540799,"2026-02-13 16:50:00","41789","4.635","252.5","8.13","238.7","NAN","NAN","NAN","NAN","NAN"],
    [1540800,"2026-02-13 17:00:00","41790","4.507","258.3","7.807","250.8","NAN","NAN","NAN","NAN","NAN"],
    [1540801,"2026-02-13 17:10:00","41791","3.3939999999999997","271.3","6.239","259.4","NAN","NAN","NAN","NAN","NAN"],
    [1540802,"2026-02-13 17:20:00","41792","3.1510000000000002","282.0","5.292","279.7","NAN","NAN","NAN","NAN","NAN"],
    [1540803,"2026-02-13 17:30:00","41793","2.7289999999999996","283.8","4.998","286.4","NAN","NAN","NAN","NAN","NAN"],
    [1540804,"2026-02-13 17:40:00","41794","2.7910000000000004","281.4","4.508","282.9","NAN","NAN","NAN","NAN","NAN"],
    [1540805,"2026-02-13 17:50:00","41795","2.166","283.5","3.528","283.6","NAN","NAN","NAN","NAN","NAN"],
    [1540806,"2026-02-13 18:00:00","41796","1.72","287.6","3.495","290.2","NAN","NAN","NAN","NAN","NAN"],
    [1540807,"2026-02-13 18:10:00","41797","1.993","282.6","3.234","287.3","NAN","NAN","NAN","NAN","NAN"],
    [1540808,"2026-02-13 18:20:00","41798","2.449","290.8","4.279","299.5","NAN","NAN","NAN","NAN","NAN"],
    [1540809,"2026-02-13 18:30:00","41799","2.2680000000000002","286.1","4.377","287.3","NAN","NAN","NAN","NAN","NAN"],
    [1540810,"2026-02-13 18:40:00","41800","3.16","269.8","4.867","276.8","NAN","NAN","NAN","NAN","NAN"],
    [1540811,"2026-02-13 18:50:00","41801","3.315","267.2","4.9","269.9","NAN","NAN","NAN","NAN","NAN"],
    [1540812,"2026-02-13 19:00:00","41802","2.397","272.9","3.43","281.1","NAN","NAN","NAN","NAN","NAN"],
    [1540813,"2026-02-13 19:10:00","41803","2.3169999999999997","267.9","3.855","272.2","NAN","NAN","NAN","NAN","NAN"],
    [1540814,"2026-02-13 19:20:00","41804","2.2880000000000003","273.5","4.671","280.4","NAN","NAN","NAN","NAN","NAN"],
    [1540815,"2026-02-13 19:30:00","41805","2.345","274.1","4.508","283.5","NAN","NAN","NAN","NAN","NAN"],
    [1540816,"2026-02-13 19:40:00","41806","2.793","282.2","5.031","277.3","NAN","NAN","NAN","NAN","NAN"],
    [1540817,"2026-02-13 19:50:00","41807","4.107","291.4","7.219","302.1","NAN","NAN","NAN","NAN","NAN"],
    [1540818,"2026-02-13 20:00:00","41808","4.7330000000000005","293.2","8.89","301.9","NAN","NAN","NAN","NAN","NAN"],
    [1540819,"2026-02-13 20:10:00","41809","6.082999999999999","291.1","10.81","292.6","NAN","NAN","NAN","NAN","NAN"],
    [1540820,"2026-02-13 20:20:00","41810","5.973","288.7","9.02","290.4","NAN","NAN","NAN","NAN","NAN"],
    [1540821,"2026-02-13 20:30:00","41811","5.452000000000001","288.2","9.31","298.7","NAN","NAN","NAN","NAN","NAN"],
    [1540822,"2026-02-13 20:40:00","41812","5.525","289.5","9.67","300.7","NAN","NAN","NAN","NAN","NAN"],
    [1540823,"2026-02-13 20:50:00","41813","6.287999999999999","293.3","11.6","292.3","NAN","NAN","NAN","NAN","NAN"],
    [1540824,"2026-02-13 21:00:00","41814","6.004","294.4","9.77","297.6","NAN","NAN","NAN","NAN","NAN"],
    [1540825,"2026-02-13 21:10:00","41815","5.749","294.1","10.16","296.7","NAN","NAN","NAN","NAN","NAN"],
    [1540826,"2026-02-13 21:20:00","41816","6.087999999999999","290.7","10.19","277.4","NAN","NAN","NAN","NAN","NAN"],
    [1540827,"2026-02-13 21:30:00","41817","5.546","287.6","9.87","286.1","NAN","NAN","NAN","NAN","NAN"],
    [1540828,"2026-02-13 21:40:00","41818","5.865","289.3","10.49","298.6","NAN","NAN","NAN","NAN","NAN"],
    [1540829,"2026-02-13 21:50:00","41819","4.828","285.6","10.26","270.7","NAN","NAN","NAN","NAN","NAN"],
    [1540830,"2026-02-13 22:00:00","41820","4.519","273.0","8.79","262.4","NAN","NAN","NAN","NAN","NAN"],
    [1540831,"2026-02-13 22:10:00","41821","4.825","263.4","10.88","284.5","NAN","NAN","NAN","NAN","NAN"],
    [1540832,"2026-02-13 22:20:00","41822","5.228","266.8","10.22","283.2","NAN","NAN","NAN","NAN","NAN"],
    [1540833,"2026-02-13 22:30:00","41823","4.863","269.4","7.742","287.5","NAN","NAN","NAN","NAN","NAN"],
    [1540834,"2026-02-13 22:40:00","41824","4.3","271.5","8.1","255.5","NAN","NAN","NAN","NAN","NAN"],
    [1540835,"2026-02-13 22:50:00","41825","4.096","281.5","7.121","271.3","NAN","NAN","NAN","NAN","NAN"],
    [1540836,"2026-02-13 23:00:00","41826","3.455","292.3","6.37","283.9","NAN","NAN","NAN","NAN","NAN"],
    [1540837,"2026-02-13 23:10:00","41827","3.3789999999999996","290.9","6.435","281.8","NAN","NAN","NAN","NAN","NAN"],
    [1540838,"2026-02-13 23:20:00","41828","3.1180000000000003","284.5","8.17","283.4","NAN","NAN","NAN","NAN","NAN"],
    [1540839,"2026-02-13 23:30:00","41829","2.461","289.3","8.33","305","NAN","NAN","NAN","NAN","NAN"],
    [1540840,"2026-02-13 23:40:00","41830","2.459","296.6","9.08","309.2","NAN","NAN","NAN","NAN","NAN"],
    [1540841,"2026-02-13 23:50:00","41831","2.7739999999999996","299.4","8.33","339.6","NAN","NAN","NAN","NAN","NAN"],
    [1540842,"2026-02-14 00:00:00","41832","3.6310000000000002","296.6","7.154","318.8","NAN","NAN","NAN","NAN","NAN"],
    [1540843,"2026-02-14 00:10:00","41833","3.5210000000000004","298.8","7.938","293.2","NAN","NAN","NAN","NAN","NAN"],
    [1540844,"2026-02-14 00:20:00","41834","4.345","288.9","8.2","270.7","NAN","NAN","NAN","NAN","NAN"],
    [1540845,"2026-02-14 00:30:00","41835","3.888","273.8","8.3","315.9","NAN","NAN","NAN","NAN","NAN"],
    [1540846,"2026-02-14 00:40:00","41836","4.588","296.4","8","275.7","NAN","NAN","NAN","NAN","NAN"],
    [1540847,"2026-02-14 00:50:00","41837","3.14","310.5","8.17","329.8","NAN","NAN","NAN","NAN","NAN"],
    [1540848,"2026-02-14 01:00:00","41838","6.449","312.2","12.25","317.1","NAN","NAN","NAN","NAN","NAN"],
    [1540849,"2026-02-14 01:10:00","41839","6.261","321.1","10.62","332","NAN","NAN","NAN","NAN","NAN"],
    [1540850,"2026-02-14 01:20:00","41840","5.257000000000001","327.8","8.33","343.3","NAN","NAN","NAN","NAN","NAN"],
    [1540851,"2026-02-14 01:30:00","41841","5.537999999999999","332.3","9.9","318.1","NAN","NAN","NAN","NAN","NAN"],
    [1540852,"2026-02-14 01:40:00","41842","4.422","331.4","9.31","332.8","NAN","NAN","NAN","NAN","NAN"],
    [1540853,"2026-02-14 01:50:00","41843","4.352","332.6","8.75","354.2","NAN","NAN","NAN","NAN","NAN"],
    [1540854,"2026-02-14 02:00:00","41844","3.9619999999999997","331.8","7.971","352","NAN","NAN","NAN","NAN","NAN"],
    [1540855,"2026-02-14 02:10:00","41845","2.716","343.6","8.17","300.7","NAN","NAN","NAN","NAN","NAN"],
    [1540856,"2026-02-14 02:20:00","41846","1.126","333.5","4.769","300.7","NAN","NAN","NAN","NAN","NAN"],
    [1540857,"2026-02-14 02:30:00","41847","1.629","352.7","5.749","329.5","NAN","NAN","NAN","NAN","NAN"],
    [1540858,"2026-02-14 02:40:00","41848","1.5519999999999998","352.3","4.475","0.748","NAN","NAN","NAN","NAN","NAN"],
    [1540859,"2026-02-14 02:50:00","41849","2.26","337.2","5.521","296.5","NAN","NAN","NAN","NAN","NAN"],
    [1540860,"2026-02-14 03:00:00","41850","2.483","348.7","5.847","354.2","NAN","NAN","NAN","NAN","NAN"],
    [1540861,"2026-02-14 03:10:00","41851","3.342","359.0","6.599","348.2","NAN","NAN","NAN","NAN","NAN"],
    [1540862,"2026-02-14 03:20:00","41852","2.734","353.8","5.031","9.22","NAN","NAN","NAN","NAN","NAN"],
    [1540863,"2026-02-14 03:30:00","41853","3.365","357.7","5.847","322.4","NAN","NAN","NAN","NAN","NAN"],
    [1540864,"2026-02-14 03:40:00","41854","2.396","354.9","6.174","317.2","NAN","NAN","NAN","NAN","NAN"],
    [1540865,"2026-02-14 03:50:00","41855","2.22","11.46","4.606","339.2","NAN","NAN","NAN","NAN","NAN"],
    [1540866,"2026-02-14 04:00:00","41856","2.391","354.2","4.606","3.329","NAN","NAN","NAN","NAN","NAN"],
    [1540867,"2026-02-14 04:10:00","41857","1.466","341.7","4.639","295.7","NAN","NAN","NAN","NAN","NAN"],
    [1540868,"2026-02-14 04:20:00","41858","1.5530000000000002","338.7","3.659","332.2","NAN","NAN","NAN","NAN","NAN"],
    [1540869,"2026-02-14 04:30:00","41859","2.465","333.3","4.835","358.6","NAN","NAN","NAN","NAN","NAN"],
    [1540870,"2026-02-14 04:40:00","41860","2.742","332.0","5.227","352.5","NAN","NAN","NAN","NAN","NAN"],
    [1540871,"2026-02-14 04:50:00","41861","3.037","330.2","5.913","329.1","NAN","NAN","NAN","NAN","NAN"],
    [1540872,"2026-02-14 05:00:00","41862","3.075","333.7","5.717","321.9","NAN","NAN","NAN","NAN","NAN"],
    [1540873,"2026-02-14 05:10:00","41863","3.162","340.5","6.501","305.2","NAN","NAN","NAN","NAN","NAN"],
    [1540874,"2026-02-14 05:20:00","41864","2.805","350.7","6.403","339.5","NAN","NAN","NAN","NAN","NAN"],
    [1540875,"2026-02-14 05:30:00","41865","1.8359999999999999","358.7","4.639","7.541","NAN","NAN","NAN","NAN","NAN"],
    [1540876,"2026-02-14 05:40:00","41866","1.923","1.452","4.018","1.131","NAN","NAN","NAN","NAN","NAN"],
    [1540877,"2026-02-14 05:50:00","41867","2.062","349.6","4.606","350.6","NAN","NAN","NAN","NAN","NAN"],
    [1540878,"2026-02-14 06:00:00","41868","2.133","346.1","4.671","328.5","NAN","NAN","NAN","NAN","NAN"],
    [1540879,"2026-02-14 06:10:00","41869","2.275","347.6","4.345","327.5","NAN","NAN","NAN","NAN","NAN"],
    [1540880,"2026-02-14 06:20:00","41870","2.394","347.6","4.867","17.41","NAN","NAN","NAN","NAN","NAN"],
    [1540881,"2026-02-14 06:30:00","41871","2.0340000000000003","325.5","4.965","349.8","NAN","NAN","NAN","NAN","NAN"],
    [1540882,"2026-02-14 06:40:00","41872","2.325","335.2","5.586","344.9","NAN","NAN","NAN","NAN","NAN"],
    [1540883,"2026-02-14 06:50:00","41873","2.342","326.0","5.488","313.2","NAN","NAN","NAN","NAN","NAN"],
    [1540884,"2026-02-14 07:00:00","41874","4.457","326.8","8.49","338.2","NAN","NAN","NAN","NAN","NAN"],
    [1540885,"2026-02-14 07:10:00","41875","4.312","326.5","7.121","325.6","NAN","NAN","NAN","NAN","NAN"],
    [1540886,"2026-02-14 07:20:00","41876","4.232","320.8","9.11","341.9","NAN","NAN","NAN","NAN","NAN"],
    [1540887,"2026-02-14 07:30:00","41877","4.327","329.6","9.15","357.2","NAN","NAN","NAN","NAN","NAN"],
    [1540888,"2026-02-14 07:40:00","41878","3.187","317.6","6.991","314","NAN","NAN","NAN","NAN","NAN"],
    [1540889,"2026-02-14 07:50:00","41879","2.115","313.3","4.639","334.1","NAN","NAN","NAN","NAN","NAN"],
    [1540890,"2026-02-14 08:00:00","41880","1.915","325.2","5.815","340.5","NAN","NAN","NAN","NAN","NAN"],
    [1540891,"2026-02-14 08:10:00","41881","2.168","309.1","4.639","279","NAN","NAN","NAN","NAN","NAN"],
    [1540892,"2026-02-14 08:20:00","41882","1.358","315.5","5.553","310.1","NAN","NAN","NAN","NAN","NAN"],
    [1540893,"2026-02-14 08:30:00","41883","1.48","320.5","6.37","324.8","NAN","NAN","NAN","NAN","NAN"],
    [1540894,"2026-02-14 08:40:00","41884","1.4609999999999999","351.0","6.011","333.8","NAN","NAN","NAN","NAN","NAN"],
    [1540895,"2026-02-14 08:50:00","41885","2.485","320.1","7.513","327.4","NAN","NAN","NAN","NAN","NAN"],
    [1540896,"2026-02-14 09:00:00","41886","3.7119999999999997","323.1","10.94","331.9","NAN","NAN","NAN","NAN","NAN"],
    [1540897,"2026-02-14 09:10:00","41887","4.105","326.0","9.77","343.1","NAN","NAN","NAN","NAN","NAN"],
    [1540898,"2026-02-14 09:20:00","41888","5.4879999999999995","322.5","9.47","303.5","NAN","NAN","NAN","NAN","NAN"],
    [1540899,"2026-02-14 09:30:00","41889","4.782","326.2","10.55","317.7","NAN","NAN","NAN","NAN","NAN"],
    [1540900,"2026-02-14 09:40:00","41890","4.408","319.8","9.21","320","NAN","NAN","NAN","NAN","NAN"],
    [1540901,"2026-02-14 09:50:00","41891","5.0760000000000005","314.1","11.6","326.8","NAN","NAN","NAN","NAN","NAN"],
    [1540902,"2026-02-14 10:00:00","41892","5.942","311.9","11.3","318.1","NAN","NAN","NAN","NAN","NAN"],
    [1540903,"2026-02-14 10:10:00","41893","6.529","311.9","11.86","296.9","NAN","NAN","NAN","NAN","NAN"],
    [1540904,"2026-02-14 10:20:00","41894","7.5360000000000005","320.3","12.9","306.3","NAN","NAN","NAN","NAN","NAN"],
    [1540905,"2026-02-14 10:30:00","41895","7.2410000000000005","317.4","11.92","307.4","NAN","NAN","NAN","NAN","NAN"],
    [1540906,"2026-02-14 10:40:00","41896","6.9910000000000005","315.1","15.32","335.1","NAN","NAN","NAN","NAN","NAN"],
    [1540907,"2026-02-14 10:50:00","41897","6.62","312.3","12.18","324.4","NAN","NAN","NAN","NAN","NAN"],
    [1540908,"2026-02-14 11:00:00","41898","6.524","316.5","10.88","311.3","NAN","NAN","NAN","NAN","NAN"],
    [1540909,"2026-02-14 11:10:00","41899","7.678999999999999","319.9","12.67","304.7","NAN","NAN","NAN","NAN","NAN"],
    [1540910,"2026-02-14 11:20:00","41900","6.645","320.3","12.25","327.5","NAN","NAN","NAN","NAN","NAN"],
    [1540911,"2026-02-14 11:30:00","41901","7.361000000000001","316.1","12.12","309.1","NAN","NAN","NAN","NAN","NAN"],
    [1540912,"2026-02-14 11:40:00","41902","7.21","319.4","11.66","319.1","NAN","NAN","NAN","NAN","NAN"],
    [1540913,"2026-02-14 11:50:00","41903","7.34","305.9","12.28","316.9","NAN","NAN","NAN","NAN","NAN"],
    [1540914,"2026-02-14 12:00:00","41904","6.236000000000001","314.4","12.71","328.4","NAN","NAN","NAN","NAN","NAN"],
    [1540915,"2026-02-14 12:10:00","41905","7.425","305.7","11.43","322.3","NAN","NAN","NAN","NAN","NAN"],
    [1540916,"2026-02-14 12:20:00","41906","5.896","314.3","10.81","325","NAN","NAN","NAN","NAN","NAN"],
    [1540917,"2026-02-14 12:30:00","41907","5.896","320.8","9.96","329.7","NAN","NAN","NAN","NAN","NAN"],
    [1540918,"2026-02-14 12:40:00","41908","7.92","322.0","12.64","336.8","NAN","NAN","NAN","NAN","NAN"],
    [1540919,"2026-02-14 12:50:00","41909","6.87","310.9","11.53","306.4","NAN","NAN","NAN","NAN","NAN"],
    [1540920,"2026-02-14 13:00:00","41910","7.1579999999999995","309.9","11.56","315.6","NAN","NAN","NAN","NAN","NAN"],
    [1540921,"2026-02-14 13:10:00","41911","7.059","302.4","10.88","295.9","NAN","NAN","NAN","NAN","NAN"],
    [1540922,"2026-02-14 13:20:00","41912","6.968","306.7","10.58","295.6","NAN","NAN","NAN","NAN","NAN"],
    [1540923,"2026-02-14 13:30:00","41913","7.095","300.3","10.78","302.3","NAN","NAN","NAN","NAN","NAN"],
    [1540924,"2026-02-14 13:40:00","41914","6.3839999999999995","301.7","10.45","311","NAN","NAN","NAN","NAN","NAN"],
    [1540925,"2026-02-14 13:50:00","41915","6.757999999999999","307.7","10.03","297.1","NAN","NAN","NAN","NAN","NAN"],
    [1540926,"2026-02-14 14:00:00","41916","7.688","301.0","11.47","296.4","NAN","NAN","NAN","NAN","NAN"],
    [1540927,"2026-02-14 14:10:00","41917","6.907","302.2","11.24","305.7","NAN","NAN","NAN","NAN","NAN"],
    [1540928,"2026-02-14 14:20:00","41918","6.202999999999999","307.4","10.88","308.2","NAN","NAN","NAN","NAN","NAN"],
    [1540929,"2026-02-14 14:30:00","41919","7.082999999999999","304.4","11.99","312.5","NAN","NAN","NAN","NAN","NAN"],
    [1540930,"2026-02-14 14:40:00","41920","6.415","316.1","13.88","338.1","NAN","NAN","NAN","NAN","NAN"],
    [1540931,"2026-02-14 14:50:00","41921","5.276","317.3","10.29","297.3","NAN","NAN","NAN","NAN","NAN"],
    [1540932,"2026-02-14 15:00:00","41922","4.372","19.0","10.16","328.8","NAN","NAN","NAN","NAN","NAN"],
    [1540933,"2026-02-14 15:10:00","41923","2.082","44.35","6.664","70.93","NAN","NAN","NAN","NAN","NAN"],
    [1540934,"2026-02-14 15:20:00","41924","3.8560000000000003","63.51","7.154","61.15","NAN","NAN","NAN","NAN","NAN"],
    [1540935,"2026-02-14 15:30:00","41925","3.556","64.58","6.86","63.13","NAN","NAN","NAN","NAN","NAN"],
    [1540936,"2026-02-14 15:40:00","41926","4.468999999999999","67.71","7.187","68.87","NAN","NAN","NAN","NAN","NAN"],
    [1540937,"2026-02-14 15:50:00","41927","4.045","67.22","6.958","68.81","NAN","NAN","NAN","NAN","NAN"],
    [1540938,"2026-02-14 16:00:00","41928","3.487","72.29","5.815","68.04","NAN","NAN","NAN","NAN","NAN"],
    [1540939,"2026-02-14 16:10:00","41929","3.446","65.31","6.043","75.73","NAN","NAN","NAN","NAN","NAN"],
    [1540940,"2026-02-14 16:20:00","41930","3.252","66.34","6.174","75.74","NAN","NAN","NAN","NAN","NAN"],
    [1540941,"2026-02-14 16:30:00","41931","2.7110000000000003","59.81","4.606","68.92","NAN","NAN","NAN","NAN","NAN"],
    [1540942,"2026-02-14 16:40:00","41932","1.655","57.79","3.43","60.01","NAN","NAN","NAN","NAN","NAN"],
    [1540943,"2026-02-14 16:50:00","41933","2.819","66.98","4.475","74.08","NAN","NAN","NAN","NAN","NAN"],
    [1540944,"2026-02-14 17:00:00","41934","2.9739999999999998","71.81","4.933","79.16","NAN","NAN","NAN","NAN","NAN"],
    [1540945,"2026-02-14 17:10:00","41935","2.7439999999999998","78.28","4.181","65.59","NAN","NAN","NAN","NAN","NAN"],
    [1540946,"2026-02-14 17:20:00","41936","2.138","79.41","4.671","69.09","NAN","NAN","NAN","NAN","NAN"],
    [1540947,"2026-02-14 17:30:00","41937","0.9229999999999999","80.4","3.789","73.6","NAN","NAN","NAN","NAN","NAN"],
    [1540948,"2026-02-14 17:40:00","41938","1.601","18.23","6.893","340.2","NAN","NAN","NAN","NAN","NAN"],
    [1540949,"2026-02-14 17:50:00","41939","5.973","328.4","9.54","318","NAN","NAN","NAN","NAN","NAN"],
    [1540950,"2026-02-14 18:00:00","41940","6.683","327.5","11.34","333.1","NAN","NAN","NAN","NAN","NAN"],
    [1540951,"2026-02-14 18:10:00","41941","8.65","329.8","12.71","328.7","NAN","NAN","NAN","NAN","NAN"],
    [1540952,"2026-02-14 18:20:00","41942","8.01","328.3","11.83","333","NAN","NAN","NAN","NAN","NAN"],
    [1540953,"2026-02-14 18:30:00","41943","8.16","328.0","12.58","333","NAN","NAN","NAN","NAN","NAN"],
    [1540954,"2026-02-14 18:40:00","41944","7.746","329.7","11.56","337.7","NAN","NAN","NAN","NAN","NAN"],
    [1540955,"2026-02-14 18:50:00","41945","5.472","321.7","9.73","338.1","NAN","NAN","NAN","NAN","NAN"],
    [1540956,"2026-02-14 19:00:00","41946","4.939","319.9","8.79","321.4","NAN","NAN","NAN","NAN","NAN"],
    [1540957,"2026-02-14 19:10:00","41947","3.903","318.3","7.415","330.9","NAN","NAN","NAN","NAN","NAN"],
    [1540958,"2026-02-14 19:20:00","41948","4.158","318.9","8.59","343.6","NAN","NAN","NAN","NAN","NAN"],
    [1540959,"2026-02-14 19:30:00","41949","4.861000000000001","322.4","8.07","323.6","NAN","NAN","NAN","NAN","NAN"],
    [1540960,"2026-02-14 19:40:00","41950","5.215","323.9","10.32","331.4","NAN","NAN","NAN","NAN","NAN"],
    [1540961,"2026-02-14 19:50:00","41951","6.0520000000000005","325.1","9.77","329.6","NAN","NAN","NAN","NAN","NAN"],
    [1540962,"2026-02-14 20:00:00","41952","5.965","329.3","9.64","328.8","NAN","NAN","NAN","NAN","NAN"],
    [1540963,"2026-02-14 20:10:00","41953","4.878","322.6","9.15","332","NAN","NAN","NAN","NAN","NAN"],
    [1540964,"2026-02-14 20:20:00","41954","4.31","318.9","7.611","322.4","NAN","NAN","NAN","NAN","NAN"],
    [1540965,"2026-02-14 20:30:00","41955","4.562","310.6","8.07","311.6","NAN","NAN","NAN","NAN","NAN"],
    [1540966,"2026-02-14 20:40:00","41956","3.622","306.9","6.795","296.3","NAN","NAN","NAN","NAN","NAN"],
    [1540967,"2026-02-14 20:50:00","41957","3.5210000000000004","297.4","5.521","289.2","NAN","NAN","NAN","NAN","NAN"],
    [1540968,"2026-02-14 21:00:00","41958","3.4539999999999997","298.9","5.553","296","NAN","NAN","NAN","NAN","NAN"],
    [1540969,"2026-02-14 21:10:00","41959","4.159","321.6","7.089","326.5","NAN","NAN","NAN","NAN","NAN"],
    [1540970,"2026-02-14 21:20:00","41960","3.8930000000000002","334.6","6.991","326.9","NAN","NAN","NAN","NAN","NAN"],
    [1540971,"2026-02-14 21:30:00","41961","3.389","336.4","7.056","347.7","NAN","NAN","NAN","NAN","NAN"],
    [1540972,"2026-02-14 21:40:00","41962","3.761","340.0","9.38","350.8","NAN","NAN","NAN","NAN","NAN"],
    [1540973,"2026-02-14 21:50:00","41963","4.709","346.9","9.38","350.8","NAN","NAN","NAN","NAN","NAN"],
    [1540974,"2026-02-14 22:00:00","41964","4.968999999999999","329.7","7.448","330.9","NAN","NAN","NAN","NAN","NAN"],
    [1540975,"2026-02-14 22:10:00","41965","3.984","319.7","6.631","331.9","NAN","NAN","NAN","NAN","NAN"],
    [1540976,"2026-02-14 22:20:00","41966","4.058","299.3","6.239","293.7","NAN","NAN","NAN","NAN","NAN"],
    [1540977,"2026-02-14 22:30:00","41967","3.3539999999999996","297.8","5.292","283.7","NAN","NAN","NAN","NAN","NAN"],
    [1540978,"2026-02-14 22:40:00","41968","3.793","286.8","6.109","283.1","NAN","NAN","NAN","NAN","NAN"],
    [1540979,"2026-02-14 22:50:00","41969","3.821","293.6","6.141","293.4","NAN","NAN","NAN","NAN","NAN"],
    [1540980,"2026-02-14 23:00:00","41970","3.947","303.2","6.076","302.3","NAN","NAN","NAN","NAN","NAN"],
    [1540981,"2026-02-14 23:10:00","41971","3.697","305.1","5.488","302.2","NAN","NAN","NAN","NAN","NAN"],
    [1540982,"2026-02-14 23:20:00","41972","3.5580000000000003","299.5","7.546","310.9","NAN","NAN","NAN","NAN","NAN"],
    [1540983,"2026-02-14 23:30:00","41973","4.761","295.1","8.23","302.6","NAN","NAN","NAN","NAN","NAN"],
    [1540984,"2026-02-14 23:40:00","41974","4.559","297.8","8.3","300.5","NAN","NAN","NAN","NAN","NAN"],
    [1540985,"2026-02-14 23:50:00","41975","3.3930000000000002","271.4","5.847","263.9","NAN","NAN","NAN","NAN","NAN"],
    [1540986,"2026-02-15 00:00:00","41976","3.59","286.2","6.305","264.1","NAN","NAN","NAN","NAN","NAN"],
    [1540987,"2026-02-15 00:10:00","41977","3.32","302.3","6.174","300.8","NAN","NAN","NAN","NAN","NAN"],
    [1540988,"2026-02-15 00:20:00","41978","2.96","295.6","6.043","300.3","NAN","NAN","NAN","NAN","NAN"],
    [1540989,"2026-02-15 00:30:00","41979","3.9530000000000003","295.6","7.84","284","NAN","NAN","NAN","NAN","NAN"],
    [1540990,"2026-02-15 00:40:00","41980","4.171","295.2","8.46","300","NAN","NAN","NAN","NAN","NAN"],
    [1540991,"2026-02-15 00:50:00","41981","3.7039999999999997","293.7","6.435","297.3","NAN","NAN","NAN","NAN","NAN"],
    [1540992,"2026-02-15 01:00:00","41982","3.301","280.9","8.98","279.5","NAN","NAN","NAN","NAN","NAN"],
    [1540993,"2026-02-15 01:10:00","41983","3.556","274.5","6.337","286.1","NAN","NAN","NAN","NAN","NAN"],
    [1540994,"2026-02-15 01:20:00","41984","3.628","271.7","5.913","272","NAN","NAN","NAN","NAN","NAN"],
    [1540995,"2026-02-15 01:30:00","41985","3.156","272.2","5.259","250.4","NAN","NAN","NAN","NAN","NAN"],
    [1540996,"2026-02-15 01:40:00","41986","3.4010000000000002","279.3","5.88","279.6","NAN","NAN","NAN","NAN","NAN"],
    [1540997,"2026-02-15 01:50:00","41987","3.424","281.6","8.13","297.8","NAN","NAN","NAN","NAN","NAN"],
    [1540998,"2026-02-15 02:00:00","41988","3.83","292.8","7.742","285.6","NAN","NAN","NAN","NAN","NAN"],
    [1540999,"2026-02-15 02:10:00","41989","5.763","308.3","10.81","293.6","NAN","NAN","NAN","NAN","NAN"],
    [1541000,"2026-02-15 02:20:00","41990","7.296","308.9","12.18","299.7","NAN","NAN","NAN","NAN","NAN"],
    [1541001,"2026-02-15 02:30:00","41991","7.109","307.4","11.86","302.6","NAN","NAN","NAN","NAN","NAN"],
    [1541002,"2026-02-15 02:40:00","41992","7.797000000000001","310.3","13.07","321.3","NAN","NAN","NAN","NAN","NAN"],
    [1541003,"2026-02-15 02:50:00","41993","7.968999999999999","314.3","13.52","323.1","NAN","NAN","NAN","NAN","NAN"],
    [1541004,"2026-02-15 03:00:00","41994","7.58","311.2","12.71","293.7","NAN","NAN","NAN","NAN","NAN"],
    [1541005,"2026-02-15 03:10:00","41995","7.711","311.6","13.75","315.2","NAN","NAN","NAN","NAN","NAN"],
    [1541006,"2026-02-15 03:20:00","41996","8.31","315.8","14.18","306.2","NAN","NAN","NAN","NAN","NAN"],
    [1541007,"2026-02-15 03:30:00","41997","8.14","317.7","13.82","306.3","NAN","NAN","NAN","NAN","NAN"],
    [1541008,"2026-02-15 03:40:00","41998","8.85","320.8","16.01","322","NAN","NAN","NAN","NAN","NAN"],
    [1541009,"2026-02-15 03:50:00","41999","7.3260000000000005","319.9","13.59","321.7","NAN","NAN","NAN","NAN","NAN"],
    [1541010,"2026-02-15 04:00:00","42000","7.231","317.7","11.99","323.3","NAN","NAN","NAN","NAN","NAN"],
    [1541011,"2026-02-15 04:10:00","42001","6.994","316.2","14.18","297.3","NAN","NAN","NAN","NAN","NAN"],
    [1541012,"2026-02-15 04:20:00","42002","6.909","320.1","12.02","302","NAN","NAN","NAN","NAN","NAN"],
    [1541013,"2026-02-15 04:30:00","42003","6.0889999999999995","318.7","11.34","319.9","NAN","NAN","NAN","NAN","NAN"],
    [1541014,"2026-02-15 04:40:00","42004","5.377000000000001","334.9","9.6","331.2","NAN","NAN","NAN","NAN","NAN"],
    [1541015,"2026-02-15 04:50:00","42005","2.6660000000000004","12.31","5.259","349.8","NAN","NAN","NAN","NAN","NAN"],
    [1541016,"2026-02-15 05:00:00","42006","3.168","349.5","7.023","349.8","NAN","NAN","NAN","NAN","NAN"],
    [1541017,"2026-02-15 05:10:00","42007","3.057","341.8","6.011","331.8","NAN","NAN","NAN","NAN","NAN"],
    [1541018,"2026-02-15 05:20:00","42008","2.063","315.1","5.978","327","NAN","NAN","NAN","NAN","NAN"],
    [1541019,"2026-02-15 05:30:00","42009","1.063","326.0","3.234","332.8","NAN","NAN","NAN","NAN","NAN"],
    [1541020,"2026-02-15 05:40:00","42010","1.903","339.0","4.181","343.8","NAN","NAN","NAN","NAN","NAN"],
    [1541021,"2026-02-15 05:50:00","42011","2.74","325.7","4.41","318.3","NAN","NAN","NAN","NAN","NAN"],
    [1541022,"2026-02-15 06:00:00","42012","1.7790000000000001","314.4","2.973","323.4","NAN","NAN","NAN","NAN","NAN"],
    [1541023,"2026-02-15 06:10:00","42013","3.5810000000000004","327.0","6.893","322.6","NAN","NAN","NAN","NAN","NAN"],
    [1541024,"2026-02-15 06:20:00","42014","3.3960000000000004","305.3","5.357","298.1","NAN","NAN","NAN","NAN","NAN"],
    [1541025,"2026-02-15 06:30:00","42015","2.4459999999999997","321.5","4.149","328.6","NAN","NAN","NAN","NAN","NAN"],
    [1541026,"2026-02-15 06:40:00","42016","1.92","338.6","3.495","326.2","NAN","NAN","NAN","NAN","NAN"],
    [1541027,"2026-02-15 06:50:00","42017","0.966","339.7","1.862","333.8","NAN","NAN","NAN","NAN","NAN"],
    [1541028,"2026-02-15 07:00:00","42018","0.45299999999999996","351.6","2.352","344.6","NAN","NAN","NAN","NAN","NAN"],
    [1541029,"2026-02-15 07:10:00","42019","0.29600000000000004","4.288","1.241","5.568","NAN","NAN","NAN","NAN","NAN"],
    [1541030,"2026-02-15 07:20:00","42020","0.44799999999999995","351.6","1.568","347.1","NAN","NAN","NAN","NAN","NAN"],
    [1541031,"2026-02-15 07:30:00","42021","1.1440000000000001","351.4","3.169","353.7","NAN","NAN","NAN","NAN","NAN"],
    [1541032,"2026-02-15 07:40:00","42022","2.485","335.3","3.822","333.9","NAN","NAN","NAN","NAN","NAN"],
    [1541033,"2026-02-15 07:50:00","42023","0.8909999999999999","345.8","2.254","344.2","NAN","NAN","NAN","NAN","NAN"],
    [1541034,"2026-02-15 08:00:00","42024","1.4509999999999998","8.6","3.593","23.99","NAN","NAN","NAN","NAN","NAN"],
    [1541035,"2026-02-15 08:10:00","42025","1.535","15.24","3.626","10.82","NAN","NAN","NAN","NAN","NAN"],
    [1541036,"2026-02-15 08:20:00","42026","1.686","11.23","4.214","10.36","NAN","NAN","NAN","NAN","NAN"],
    [1541037,"2026-02-15 08:30:00","42027","1.355","11.17","2.417","11.26","NAN","NAN","NAN","NAN","NAN"],
    [1541038,"2026-02-15 08:40:00","42028","1.249","20.63","2.94","16.51","NAN","NAN","NAN","NAN","NAN"],
    [1541039,"2026-02-15 08:50:00","42029","2.019","355.3","4.214","324.5","NAN","NAN","NAN","NAN","NAN"],
    [1541040,"2026-02-15 09:00:00","42030","1.192","354.3","2.875","354.5","NAN","NAN","NAN","NAN","NAN"],
    [1541041,"2026-02-15 09:10:00","42031","0.8420000000000001","353.3","2.45","350.2","NAN","NAN","NAN","NAN","NAN"],
    [1541042,"2026-02-15 09:20:00","42032","1.3519999999999999","347.9","3.103","310.9","NAN","NAN","NAN","NAN","NAN"],
    [1541043,"2026-02-15 09:30:00","42033","2.229","310.2","4.247","297","NAN","NAN","NAN","NAN","NAN"],
    [1541044,"2026-02-15 09:40:00","42034","2.275","309.7","4.508","298.7","NAN","NAN","NAN","NAN","NAN"],
    [1541045,"2026-02-15 09:50:00","42035","2.502","346.4","3.953","348.8","NAN","NAN","NAN","NAN","NAN"],
    [1541046,"2026-02-15 10:00:00","42036","1.3719999999999999","347.1","2.842","339.1","NAN","NAN","NAN","NAN","NAN"],
    [1541047,"2026-02-15 10:10:00","42037","2.093","342.8","4.704","305.5","NAN","NAN","NAN","NAN","NAN"],
    [1541048,"2026-02-15 10:20:00","42038","3.417","309.1","5.586","312.5","NAN","NAN","NAN","NAN","NAN"],
    [1541049,"2026-02-15 10:30:00","42039","3.739","324.5","6.991","314.2","NAN","NAN","NAN","NAN","NAN"],
    [1541050,"2026-02-15 10:40:00","42040","3.764","325.9","5.782","335","NAN","NAN","NAN","NAN","NAN"],
    [1541051,"2026-02-15 10:50:00","42041","3.029","346.5","4.867","327.5","NAN","NAN","NAN","NAN","NAN"],
    [1541052,"2026-02-15 11:00:00","42042","1.506","348.4","3.463","29.6","NAN","NAN","NAN","NAN","NAN"],
    [1541053,"2026-02-15 11:10:00","42043","0.141","353.6","1.274","353.5","NAN","NAN","NAN","NAN","NAN"],
    [1541054,"2026-02-15 11:20:00","42044","0.049","334.0","0.784","334","NAN","NAN","NAN","NAN","NAN"],
    [1541055,"2026-02-15 11:30:00","42045","0.669","340.4","3.169","349.6","NAN","NAN","NAN","NAN","NAN"],
    [1541056,"2026-02-15 11:40:00","42046","1.999","296.0","4.345","305.6","NAN","NAN","NAN","NAN","NAN"],
    [1541057,"2026-02-15 11:50:00","42047","2.144","247.9","3.887","239.1","NAN","NAN","NAN","NAN","NAN"],
    [1541058,"2026-02-15 12:00:00","42048","0.6970000000000001","258.3","3.103","258.7","NAN","NAN","NAN","NAN","NAN"],
    [1541059,"2026-02-15 12:10:00","42049","2.065","248.9","4.639","248.7","NAN","NAN","NAN","NAN","NAN"],
    [1541060,"2026-02-15 12:20:00","42050","2.623","230.9","5.227","208.6","NAN","NAN","NAN","NAN","NAN"],
    [1541061,"2026-02-15 12:30:00","42051","4.262","205.9","6.403","158.1","NAN","NAN","NAN","NAN","NAN"],
    [1541062,"2026-02-15 12:40:00","42052","3.741","204.9","7.317","203.1","NAN","NAN","NAN","NAN","NAN"],
    [1541063,"2026-02-15 12:50:00","42053","4.285","207.7","6.958","208.6","NAN","NAN","NAN","NAN","NAN"],
    [1541064,"2026-02-15 13:00:00","42054","3.9389999999999996","217.0","7.187","216.3","NAN","NAN","NAN","NAN","NAN"],
    [1541065,"2026-02-15 13:10:00","42055","4.184","216.3","6.893","213.6","NAN","NAN","NAN","NAN","NAN"],
    [1541066,"2026-02-15 13:20:00","42056","3.949","210.2","7.023","207.5","NAN","NAN","NAN","NAN","NAN"],
    [1541067,"2026-02-15 13:30:00","42057","4.306","215.1","7.677","210.9","NAN","NAN","NAN","NAN","NAN"],
    [1541068,"2026-02-15 13:40:00","42058","4.109","213.2","6.174","225.4","NAN","NAN","NAN","NAN","NAN"],
    [1541069,"2026-02-15 13:50:00","42059","3.622","212.7","5.684","219.7","NAN","NAN","NAN","NAN","NAN"],
    [1541070,"2026-02-15 14:00:00","42060","3.835","202.2","6.37","219.3","NAN","NAN","NAN","NAN","NAN"],
    [1541071,"2026-02-15 14:10:00","42061","3.823","198.3","6.533","234.5","NAN","NAN","NAN","NAN","NAN"],
    [1541072,"2026-02-15 14:20:00","42062","2.617","180.8","4.508","176.2","NAN","NAN","NAN","NAN","NAN"],
    [1541073,"2026-02-15 14:30:00","42063","2.827","195.6","4.933","152.7","NAN","NAN","NAN","NAN","NAN"],
    [1541074,"2026-02-15 14:40:00","42064","3.295","212.4","6.076","213.1","NAN","NAN","NAN","NAN","NAN"],
    [1541075,"2026-02-15 14:50:00","42065","2.966","217.8","4.998","220.4","NAN","NAN","NAN","NAN","NAN"],
    [1541076,"2026-02-15 15:00:00","42066","2.89","208.9","4.671","207.3","NAN","NAN","NAN","NAN","NAN"],
    [1541077,"2026-02-15 15:10:00","42067","1.9880000000000002","221.0","4.247","237.2","NAN","NAN","NAN","NAN","NAN"],
    [1541078,"2026-02-15 15:20:00","42068","2.209","228.0","5.129","258.6","NAN","NAN","NAN","NAN","NAN"],
    [1541079,"2026-02-15 15:30:00","42069","2.191","220.3","4.051","201.4","NAN","NAN","NAN","NAN","NAN"],
    [1541080,"2026-02-15 15:40:00","42070","2.242","214.2","4.345","224.9","NAN","NAN","NAN","NAN","NAN"],
    [1541081,"2026-02-15 15:50:00","42071","1.062","215.2","3.626","207.8","NAN","NAN","NAN","NAN","NAN"],
    [1541082,"2026-02-15 16:00:00","42072","2.124","235.0","3.92","233.5","NAN","NAN","NAN","NAN","NAN"],
    [1541083,"2026-02-15 16:10:00","42073","1.435","221.6","3.201","226.1","NAN","NAN","NAN","NAN","NAN"],
    [1541084,"2026-02-15 16:20:00","42074","1.175","213.8","2.319","213.5","NAN","NAN","NAN","NAN","NAN"],
    [1541085,"2026-02-15 16:30:00","42075","1.306","216.7","2.711","219.5","NAN","NAN","NAN","NAN","NAN"],
    [1541086,"2026-02-15 16:40:00","42076","1.3730000000000002","221.5","2.907","217.8","NAN","NAN","NAN","NAN","NAN"],
    [1541087,"2026-02-15 16:50:00","42077","1.084","227.6","2.352","219.4","NAN","NAN","NAN","NAN","NAN"],
    [1541088,"2026-02-15 17:00:00","42078","0.325","225.1","1.535","221.1","NAN","NAN","NAN","NAN","NAN"],
    [1541089,"2026-02-15 17:10:00","42079","0.225","230.8","1.209","230.9","NAN","NAN","NAN","NAN","NAN"],
    [1541090,"2026-02-15 17:20:00","42080","0.098","230.0","0.98","230.2","NAN","NAN","NAN","NAN","NAN"],
    [1541091,"2026-02-15 17:30:00","42081","0.017","229.8","0.653","229.8","NAN","NAN","NAN","NAN","NAN"],
    [1541092,"2026-02-15 17:40:00","42082","0.0","0.0","0","0","NAN","NAN","NAN","NAN","NAN"],
    [1541093,"2026-02-15 17:50:00","42083","0.08199999999999999","226.1","0.523","228.7","NAN","NAN","NAN","NAN","NAN"],
    [1541094,"2026-02-15 18:00:00","42084","0.0","0.0","0","0","NAN","NAN","NAN","NAN","NAN"],
    [1541095,"2026-02-15 18:10:00","42085","0.182","212.7","0.784","212.7","NAN","NAN","NAN","NAN","NAN"],
    [1541096,"2026-02-15 18:20:00","42086","0.308","212.2","1.045","212.4","NAN","NAN","NAN","NAN","NAN"],
    [1541097,"2026-02-15 18:30:00","42087","0.13699999999999998","231.2","0.98","228.5","NAN","NAN","NAN","NAN","NAN"],
    [1541098,"2026-02-15 18:40:00","42088","0.064","250.9","0.817","250.9","NAN","NAN","NAN","NAN","NAN"],
    [1541099,"2026-02-15 18:50:00","42089","0.158","250.3","1.209","251","NAN","NAN","NAN","NAN","NAN"],
    [1541100,"2026-02-15 19:00:00","42090","0.086","250.9","0.751","250.9","NAN","NAN","NAN","NAN","NAN"],
    [1541101,"2026-02-15 19:10:00","42091","0.446","248.7","1.437","249.6","NAN","NAN","NAN","NAN","NAN"],
    [1541102,"2026-02-15 19:20:00","42092","0.924","248.4","1.47","251","NAN","NAN","NAN","NAN","NAN"],
    [1541103,"2026-02-15 19:30:00","42093","0.654","244.8","1.437","251","NAN","NAN","NAN","NAN","NAN"],
    [1541104,"2026-02-15 19:40:00","42094","0.452","246.4","1.209","239.8","NAN","NAN","NAN","NAN","NAN"],
    [1541105,"2026-02-15 19:50:00","42095","0.068","251.0","0.882","251","NAN","NAN","NAN","NAN","NAN"],
    [1541106,"2026-02-15 20:00:00","42096","0.0","243.6","0.033","243.6","NAN","NAN","NAN","NAN","NAN"],
    [1541107,"2026-02-15 20:10:00","42097","1.787","261.6","3.985","254","NAN","NAN","NAN","NAN","NAN"],
    [1541108,"2026-02-15 20:20:00","42098","1.93","261.4","3.691","259.9","NAN","NAN","NAN","NAN","NAN"],
    [1541109,"2026-02-15 20:30:00","42099","1.263","263.8","3.038","254.8","NAN","NAN","NAN","NAN","NAN"],
    [1541110,"2026-02-15 20:40:00","42100","1.632","274.1","4.508","292.8","NAN","NAN","NAN","NAN","NAN"],
    [1541111,"2026-02-15 20:50:00","42101","1.504","275.1","3.234","286.7","NAN","NAN","NAN","NAN","NAN"],
    [1541112,"2026-02-15 21:00:00","42102","1.774","277.2","3.234","266.4","NAN","NAN","NAN","NAN","NAN"],
    [1541113,"2026-02-15 21:10:00","42103","3.036","277.5","6.011","266.5","NAN","NAN","NAN","NAN","NAN"],
    [1541114,"2026-02-15 21:20:00","42104","3.431","277.7","5.651","270.7","NAN","NAN","NAN","NAN","NAN"],
    [1541115,"2026-02-15 21:30:00","42105","2.66","266.6","5.063","261.4","NAN","NAN","NAN","NAN","NAN"],
    [1541116,"2026-02-15 21:40:00","42106","2.2969999999999997","258.4","4.737","248.1","NAN","NAN","NAN","NAN","NAN"],
    [1541117,"2026-02-15 21:50:00","42107","3.322","265.5","4.867","275.6","NAN","NAN","NAN","NAN","NAN"],
    [1541118,"2026-02-15 22:00:00","42108","2.7119999999999997","279.7","4.802","267.9","NAN","NAN","NAN","NAN","NAN"],
    [1541119,"2026-02-15 22:10:00","42109","2.627","284.3","4.671","297.5","NAN","NAN","NAN","NAN","NAN"],
    [1541120,"2026-02-15 22:20:00","42110","3.012","294.0","5.847","302.2","NAN","NAN","NAN","NAN","NAN"],
    [1541121,"2026-02-15 22:30:00","42111","2.887","296.6","4.639","284.1","NAN","NAN","NAN","NAN","NAN"],
    [1541122,"2026-02-15 22:40:00","42112","3.284","300.3","7.35","320.2","NAN","NAN","NAN","NAN","NAN"],
    [1541123,"2026-02-15 22:50:00","42113","4.742","299.8","8","301.6","NAN","NAN","NAN","NAN","NAN"],
    [1541124,"2026-02-15 23:00:00","42114","4.819","307.9","8.36","316.6","NAN","NAN","NAN","NAN","NAN"],
    [1541125,"2026-02-15 23:10:00","42115","4.45","309.9","7.285","316.3","NAN","NAN","NAN","NAN","NAN"],
    [1541126,"2026-02-15 23:20:00","42116","2.802","317.6","6.403","337","NAN","NAN","NAN","NAN","NAN"],
    [1541127,"2026-02-15 23:30:00","42117","2.171","313.4","4.181","318.7","NAN","NAN","NAN","NAN","NAN"],
    [1541128,"2026-02-15 23:40:00","42118","1.122","303.3","3.463","292","NAN","NAN","NAN","NAN","NAN"],
    [1541129,"2026-02-15 23:50:00","42119","1.01","303.8","4.181","301.7","NAN","NAN","NAN","NAN","NAN"],
    [1541130,"2026-02-16 00:00:00","42120","0.843","319.9","2.548","321.5","NAN","NAN","NAN","NAN","NAN"],
    [1541131,"2026-02-16 00:10:00","42121","1.811","320.0","4.345","301.9","NAN","NAN","NAN","NAN","NAN"],
    [1541132,"2026-02-16 00:20:00","42122","2.591","313.7","5.651","297.9","NAN","NAN","NAN","NAN","NAN"],
    [1541133,"2026-02-16 00:30:00","42123","3.105","311.2","5.096","313","NAN","NAN","NAN","NAN","NAN"],
    [1541134,"2026-02-16 00:40:00","42124","4.138","321.5","6.533","320.3","NAN","NAN","NAN","NAN","NAN"],
    [1541135,"2026-02-16 00:50:00","42125","4.492","311.5","7.807","324.4","NAN","NAN","NAN","NAN","NAN"],
    [1541136,"2026-02-16 01:00:00","42126","3.568","294.4","6.991","308.6","NAN","NAN","NAN","NAN","NAN"],
    [1541137,"2026-02-16 01:10:00","42127","3.2089999999999996","287.7","5.455","313.2","NAN","NAN","NAN","NAN","NAN"],
    [1541138,"2026-02-16 01:20:00","42128","2.727","275.1","4.9","280.6","NAN","NAN","NAN","NAN","NAN"],
    [1541139,"2026-02-16 01:30:00","42129","2.531","298.7","5.325","313.3","NAN","NAN","NAN","NAN","NAN"],
    [1541140,"2026-02-16 01:40:00","42130","2.8489999999999998","301.5","6.501","305.7","NAN","NAN","NAN","NAN","NAN"],
    [1541141,"2026-02-16 01:50:00","42131","2.765","296.8","7.938","288.6","NAN","NAN","NAN","NAN","NAN"],
    [1541142,"2026-02-16 02:00:00","42132","2.3680000000000003","270.7","5.749","299.6","NAN","NAN","NAN","NAN","NAN"],
    [1541143,"2026-02-16 02:10:00","42133","0.18100000000000002","245.4","1.47","261.5","NAN","NAN","NAN","NAN","NAN"],
    [1541144,"2026-02-16 02:20:00","42134","0.091","243.0","1.731","249.2","NAN","NAN","NAN","NAN","NAN"],
    [1541145,"2026-02-16 02:30:00","42135","0.095","240.4","0.947","238.4","NAN","NAN","NAN","NAN","NAN"],
    [1541146,"2026-02-16 02:40:00","42136","0.8740000000000001","235.6","3.103","235.6","NAN","NAN","NAN","NAN","NAN"],
    [1541147,"2026-02-16 02:50:00","42137","0.77","211.4","4.247","200.1","NAN","NAN","NAN","NAN","NAN"],
    [1541148,"2026-02-16 03:00:00","42138","0.52","248.7","3.201","256.6","NAN","NAN","NAN","NAN","NAN"],
    [1541149,"2026-02-16 03:10:00","42139","0.7090000000000001","248.1","1.241","243.6","NAN","NAN","NAN","NAN","NAN"],
    [1541150,"2026-02-16 03:20:00","42140","1.8730000000000002","236.2","4.083","232.3","NAN","NAN","NAN","NAN","NAN"],
    [1541151,"2026-02-16 03:30:00","42141","3.4819999999999998","245.0","6.174","235.6","NAN","NAN","NAN","NAN","NAN"],
    [1541152,"2026-02-16 03:40:00","42142","2.266","278.9","4.116","292.1","NAN","NAN","NAN","NAN","NAN"],
    [1541153,"2026-02-16 03:50:00","42143","2.9019999999999997","284.8","5.521","279.1","NAN","NAN","NAN","NAN","NAN"],
    [1541154,"2026-02-16 04:00:00","42144","3.0239999999999996","273.8","5.521","281.5","NAN","NAN","NAN","NAN","NAN"],
    [1541155,"2026-02-16 04:10:00","42145","2.366","259.7","5.423","280","NAN","NAN","NAN","NAN","NAN"],
    [1541156,"2026-02-16 04:20:00","42146","1.8330000000000002","224.3","4.443","216","NAN","NAN","NAN","NAN","NAN"],
    [1541157,"2026-02-16 04:30:00","42147","1.3319999999999999","216.4","3.038","217.5","NAN","NAN","NAN","NAN","NAN"],
    [1541158,"2026-02-16 04:40:00","42148","1.705","245.8","4.835","284.7","NAN","NAN","NAN","NAN","NAN"],
    [1541159,"2026-02-16 04:50:00","42149","3.295","273.4","6.337","273.9","NAN","NAN","NAN","NAN","NAN"],
    [1541160,"2026-02-16 05:00:00","42150","3.1860000000000004","247.4","5.423","251.8","NAN","NAN","NAN","NAN","NAN"],
    [1541161,"2026-02-16 05:10:00","42151","3.153","248.9","5.651","255.9","NAN","NAN","NAN","NAN","NAN"],
    [1541162,"2026-02-16 05:20:00","42152","3.265","266.3","6.762","266.3","NAN","NAN","NAN","NAN","NAN"],
    [1541163,"2026-02-16 05:30:00","42153","3.2560000000000002","256.3","6.827","269.1","NAN","NAN","NAN","NAN","NAN"],
    [1541164,"2026-02-16 05:40:00","42154","1.2930000000000001","217.1","4.508","229.8","NAN","NAN","NAN","NAN","NAN"],
    [1541165,"2026-02-16 05:50:00","42155","3.384","303.6","7.709","295.9","NAN","NAN","NAN","NAN","NAN"],
    [1541166,"2026-02-16 06:00:00","42156","4.364","298.3","7.415","301.4","NAN","NAN","NAN","NAN","NAN"],
    [1541167,"2026-02-16 06:10:00","42157","4.426","292.8","6.991","296.1","NAN","NAN","NAN","NAN","NAN"],
    [1541168,"2026-02-16 06:20:00","42158","4.668","291.1","7.448","296.8","NAN","NAN","NAN","NAN","NAN"],
    [1541169,"2026-02-16 06:30:00","42159","4.166","288.8","6.631","291.3","NAN","NAN","NAN","NAN","NAN"],
    [1541170,"2026-02-16 06:40:00","42160","4.138999999999999","293.4","7.709","292.2","NAN","NAN","NAN","NAN","NAN"],
    [1541171,"2026-02-16 06:50:00","42161","3.111","296.3","6.272","306","NAN","NAN","NAN","NAN","NAN"],
    [1541172,"2026-02-16 07:00:00","42162","2.117","282.5","4.149","290.4","NAN","NAN","NAN","NAN","NAN"],
    [1541173,"2026-02-16 07:10:00","42163","0.899","263.5","2.842","259","NAN","NAN","NAN","NAN","NAN"],
    [1541174,"2026-02-16 07:20:00","42164","0.5770000000000001","255.8","2.646","255.7","NAN","NAN","NAN","NAN","NAN"],
    [1541175,"2026-02-16 07:30:00","42165","1.2830000000000001","244.0","2.907","230.5","NAN","NAN","NAN","NAN","NAN"],
    [1541176,"2026-02-16 07:40:00","42166","2.363","254.7","4.41","267.9","NAN","NAN","NAN","NAN","NAN"],
    [1541177,"2026-02-16 07:50:00","42167","1.58","254.8","2.777","263","NAN","NAN","NAN","NAN","NAN"],
    [1541178,"2026-02-16 08:00:00","42168","1.6119999999999999","240.1","2.744","252.3","NAN","NAN","NAN","NAN","NAN"],
    [1541179,"2026-02-16 08:10:00","42169","1.636","226.2","3.234","222","NAN","NAN","NAN","NAN","NAN"],
    [1541180,"2026-02-16 08:20:00","42170","2.253","229.9","3.561","224.5","NAN","NAN","NAN","NAN","NAN"],
    [1541181,"2026-02-16 08:30:00","42171","2.681","235.1","4.606","254","NAN","NAN","NAN","NAN","NAN"],
    [1541182,"2026-02-16 08:40:00","42172","2.815","280.8","4.867","302.8","NAN","NAN","NAN","NAN","NAN"],
    [1541183,"2026-02-16 08:50:00","42173","3.2289999999999996","261.3","7.056","265.4","NAN","NAN","NAN","NAN","NAN"],
    [1541184,"2026-02-16 09:00:00","42174","3.237","267.0","5.357","275.2","NAN","NAN","NAN","NAN","NAN"],
    [1541185,"2026-02-16 09:10:00","42175","3.4730000000000003","258.1","6.37","254.6","NAN","NAN","NAN","NAN","NAN"],
    [1541186,"2026-02-16 09:20:00","42176","3.665","255.1","6.207","269.9","NAN","NAN","NAN","NAN","NAN"],
    [1541187,"2026-02-16 09:30:00","42177","3.33","262.2","6.109","256","NAN","NAN","NAN","NAN","NAN"],
    [1541188,"2026-02-16 09:40:00","42178","3.6889999999999996","249.1","6.925","236","NAN","NAN","NAN","NAN","NAN"],
    [1541189,"2026-02-16 09:50:00","42179","2.8360000000000003","249.1","5.651","268","NAN","NAN","NAN","NAN","NAN"],
    [1541190,"2026-02-16 10:00:00","42180","3.264","275.5","6.011","271.7","NAN","NAN","NAN","NAN","NAN"],
    [1541191,"2026-02-16 10:10:00","42181","3.864","281.4","8.4","255.9","NAN","NAN","NAN","NAN","NAN"],
    [1541192,"2026-02-16 10:20:00","42182","3.8360000000000003","291.2","8.92","283.8","NAN","NAN","NAN","NAN","NAN"],
    [1541193,"2026-02-16 10:30:00","42183","5.497000000000001","296.3","9.11","318.1","NAN","NAN","NAN","NAN","NAN"],
    [1541194,"2026-02-16 10:40:00","42184","5.621","301.2","10.26","300.4","NAN","NAN","NAN","NAN","NAN"],
    [1541195,"2026-02-16 10:50:00","42185","5.566","302.4","11.17","307.3","NAN","NAN","NAN","NAN","NAN"],
    [1541196,"2026-02-16 11:00:00","42186","4.282","307.9","9.54","319","NAN","NAN","NAN","NAN","NAN"],
    [1541197,"2026-02-16 11:10:00","42187","5.626","309.4","12.45","310.6","NAN","NAN","NAN","NAN","NAN"],
    [1541198,"2026-02-16 11:20:00","42188","7.645","304.0","12.15","314.4","NAN","NAN","NAN","NAN","NAN"],
    [1541199,"2026-02-16 11:30:00","42189","7.1160000000000005","303.7","10.78","296.8","NAN","NAN","NAN","NAN","NAN"],
    [1541200,"2026-02-16 11:40:00","42190","5.797000000000001","304.2","10.22","306","NAN","NAN","NAN","NAN","NAN"],
    [1541201,"2026-02-16 11:50:00","42191","6.8420000000000005","304.0","10.52","313.8","NAN","NAN","NAN","NAN","NAN"],
    [1541202,"2026-02-16 12:00:00","42192","6.687","308.2","13.1","325.9","NAN","NAN","NAN","NAN","NAN"],
    [1541203,"2026-02-16 12:10:00","42193","5.921","301.5","10.09","293.1","NAN","NAN","NAN","NAN","NAN"],
    [1541204,"2026-02-16 12:20:00","42194","5.372000000000001","302.9","11.63","298.3","NAN","NAN","NAN","NAN","NAN"],
    [1541205,"2026-02-16 12:30:00","42195","6.971","307.8","14.05","322.7","NAN","NAN","NAN","NAN","NAN"],
    [1541206,"2026-02-16 12:40:00","42196","5.72","296.4","9.51","282.1","NAN","NAN","NAN","NAN","NAN"],
    [1541207,"2026-02-16 12:50:00","42197","5.794","294.5","9.34","277.1","NAN","NAN","NAN","NAN","NAN"],
    [1541208,"2026-02-16 13:00:00","42198","7.441","291.4","12.58","288","NAN","NAN","NAN","NAN","NAN"],
    [1541209,"2026-02-16 13:10:00","42199","6.077999999999999","288.6","9.96","300.2","NAN","NAN","NAN","NAN","NAN"],
    [1541210,"2026-02-16 13:20:00","42200","2.77","283.3","7.513","307.8","NAN","NAN","NAN","NAN","NAN"],
    [1541211,"2026-02-16 13:30:00","42201","2.904","257.5","5.945","233.1","NAN","NAN","NAN","NAN","NAN"],
    [1541212,"2026-02-16 13:40:00","42202","3.0589999999999997","267.3","5.684","263.3","NAN","NAN","NAN","NAN","NAN"],
    [1541213,"2026-02-16 13:50:00","42203","3.642","269.5","6.174","275.4","NAN","NAN","NAN","NAN","NAN"],
    [1541214,"2026-02-16 14:00:00","42204","4.113","265.0","7.807","287.1","NAN","NAN","NAN","NAN","NAN"],
    [1541215,"2026-02-16 14:10:00","42205","4.98","261.3","10.32","282.2","NAN","NAN","NAN","NAN","NAN"],
    [1541216,"2026-02-16 14:20:00","42206","2.958","235.3","6.011","264.9","NAN","NAN","NAN","NAN","NAN"],
    [1541217,"2026-02-16 14:30:00","42207","3.467","268.2","7.971","278.5","NAN","NAN","NAN","NAN","NAN"],
    [1541218,"2026-02-16 14:40:00","42208","7.082999999999999","288.8","12.12","301.3","NAN","NAN","NAN","NAN","NAN"],
    [1541219,"2026-02-16 14:50:00","42209","5.132999999999999","282.9","9.8","276.1","NAN","NAN","NAN","NAN","NAN"],
    [1541220,"2026-02-16 15:00:00","42210","4.512","283.2","9.11","304.9","NAN","NAN","NAN","NAN","NAN"],
    [1541221,"2026-02-16 15:10:00","42211","5.0280000000000005","285.0","10.71","288.5","NAN","NAN","NAN","NAN","NAN"],
    [1541222,"2026-02-16 15:20:00","42212","7.005","280.6","10.94","287.4","NAN","NAN","NAN","NAN","NAN"],
    [1541223,"2026-02-16 15:30:00","42213","5.496","279.6","10.13","295.5","NAN","NAN","NAN","NAN","NAN"],
    [1541224,"2026-02-16 15:40:00","42214","6.028","285.6","11.6","269","NAN","NAN","NAN","NAN","NAN"],
    [1541225,"2026-02-16 15:50:00","42215","5.1370000000000005","288.4","8.89","284.4","NAN","NAN","NAN","NAN","NAN"],
    [1541226,"2026-02-16 16:00:00","42216","4.7860000000000005","272.2","9.38","288.3","NAN","NAN","NAN","NAN","NAN"],
    [1541227,"2026-02-16 16:10:00","42217","5.601","277.8","9.47","278.9","NAN","NAN","NAN","NAN","NAN"],
    [1541228,"2026-02-16 16:20:00","42218","4.574","275.5","9.08","286.8","NAN","NAN","NAN","NAN","NAN"],
    [1541229,"2026-02-16 16:30:00","42219","4.66","288.1","8.53","283.6","NAN","NAN","NAN","NAN","NAN"],
    [1541230,"2026-02-16 16:40:00","42220","4.03","278.8","8.46","276.2","NAN","NAN","NAN","NAN","NAN"],
    [1541231,"2026-02-16 16:50:00","42221","3.537","272.1","7.546","222.3","NAN","NAN","NAN","NAN","NAN"],
    [1541232,"2026-02-16 17:00:00","42222","4.022","268.0","7.807","261.7","NAN","NAN","NAN","NAN","NAN"],
    [1541233,"2026-02-16 17:10:00","42223","3.123","267.8","6.207","264.4","NAN","NAN","NAN","NAN","NAN"],
    [1541234,"2026-02-16 17:20:00","42224","3.85","269.3","7.285","264.3","NAN","NAN","NAN","NAN","NAN"],
    [1541235,"2026-02-16 17:30:00","42225","4.345","276.7","9.67","289.5","NAN","NAN","NAN","NAN","NAN"],
    [1541236,"2026-02-16 17:40:00","42226","4.627","282.6","9.31","314.8","NAN","NAN","NAN","NAN","NAN"],
    [1541237,"2026-02-16 17:50:00","42227","4.894","279.8","8.85","277.6","NAN","NAN","NAN","NAN","NAN"],
    [1541238,"2026-02-16 18:00:00","42228","3.575","278.9","6.827","276.9","NAN","NAN","NAN","NAN","NAN"],
    [1541239,"2026-02-16 18:10:00","42229","3.7430000000000003","287.5","8.1","308.5","NAN","NAN","NAN","NAN","NAN"],
    [1541240,"2026-02-16 18:20:00","42230","3.159","292.0","8.17","306.4","NAN","NAN","NAN","NAN","NAN"],
    [1541241,"2026-02-16 18:30:00","42231","2.085","303.1","4.737","279.3","NAN","NAN","NAN","NAN","NAN"],
    [1541242,"2026-02-16 18:40:00","42232","2.128","322.5","6.403","325.3","NAN","NAN","NAN","NAN","NAN"],
    [1541243,"2026-02-16 18:50:00","42233","2.3930000000000002","342.0","4.769","337.9","NAN","NAN","NAN","NAN","NAN"],
    [1541244,"2026-02-16 19:00:00","42234","2.714","328.4","4.867","330.6","NAN","NAN","NAN","NAN","NAN"],
    [1541245,"2026-02-16 19:10:00","42235","3.426","327.6","6.272","326.9","NAN","NAN","NAN","NAN","NAN"],
    [1541246,"2026-02-16 19:20:00","42236","2.59","314.5","6.109","321.7","NAN","NAN","NAN","NAN","NAN"],
    [1541247,"2026-02-16 19:30:00","42237","3.5460000000000003","319.9","5.945","333.9","NAN","NAN","NAN","NAN","NAN"],
    [1541248,"2026-02-16 19:40:00","42238","4.287","319.7","8.07","328.7","NAN","NAN","NAN","NAN","NAN"],
    [1541249,"2026-02-16 19:50:00","42239","3.7489999999999997","311.4","7.775","294.9","NAN","NAN","NAN","NAN","NAN"],
    [1541250,"2026-02-16 20:00:00","42240","3.8280000000000003","309.2","8.17","301.5","NAN","NAN","NAN","NAN","NAN"],
    [1541251,"2026-02-16 20:10:00","42241","5.539","311.5","10.52","309.8","NAN","NAN","NAN","NAN","NAN"],
    [1541252,"2026-02-16 20:20:00","42242","4.4110000000000005","312.7","7.84","316.4","NAN","NAN","NAN","NAN","NAN"],
    [1541253,"2026-02-16 20:30:00","42243","4.004","317.5","6.925","321.8","NAN","NAN","NAN","NAN","NAN"],
    [1541254,"2026-02-16 20:40:00","42244","4.024","309.0","7.644","316.6","NAN","NAN","NAN","NAN","NAN"],
    [1541255,"2026-02-16 20:50:00","42245","3.835","320.6","6.435","326.5","NAN","NAN","NAN","NAN","NAN"],
    [1541256,"2026-02-16 21:00:00","42246","5.862","330.7","9.08","320.8","NAN","NAN","NAN","NAN","NAN"],
    [1541257,"2026-02-16 21:10:00","42247","5.272","329.4","7.971","325.5","NAN","NAN","NAN","NAN","NAN"],
    [1541258,"2026-02-16 21:20:00","42248","4.781000000000001","322.6","9.51","324.5","NAN","NAN","NAN","NAN","NAN"],
    [1541259,"2026-02-16 21:30:00","42249","4.735","321.5","7.807","343.5","NAN","NAN","NAN","NAN","NAN"],
    [1541260,"2026-02-16 21:40:00","42250","3.452","313.0","6.468","320.5","NAN","NAN","NAN","NAN","NAN"],
    [1541261,"2026-02-16 21:50:00","42251","4.17","312.1","8.72","305.6","NAN","NAN","NAN","NAN","NAN"],
    [1541262,"2026-02-16 22:00:00","42252","3.2319999999999998","314.3","6.109","308.8","NAN","NAN","NAN","NAN","NAN"],
    [1541263,"2026-02-16 22:10:00","42253","3.02","320.9","4.9","328.3","NAN","NAN","NAN","NAN","NAN"],
    [1541264,"2026-02-16 22:20:00","42254","3.641","311.2","5.88","298.8","NAN","NAN","NAN","NAN","NAN"],
    [1541265,"2026-02-16 22:30:00","42255","4.218","296.8","7.121","301.2","NAN","NAN","NAN","NAN","NAN"],
    [1541266,"2026-02-16 22:40:00","42256","4.917","294.6","9.28","301.2","NAN","NAN","NAN","NAN","NAN"],
    [1541267,"2026-02-16 22:50:00","42257","4.942","299.0","9.44","306.5","NAN","NAN","NAN","NAN","NAN"],
    [1541268,"2026-02-16 23:00:00","42258","4.669","306.5","9.41","321.1","NAN","NAN","NAN","NAN","NAN"],
    [1541269,"2026-02-16 23:10:00","42259","4.03","305.2","7.187","318.4","NAN","NAN","NAN","NAN","NAN"],
    [1541270,"2026-02-16 23:20:00","42260","4.226","297.5","6.958","304.3","NAN","NAN","NAN","NAN","NAN"],
    [1541271,"2026-02-16 23:30:00","42261","3.3960000000000004","305.2","6.174","300.4","NAN","NAN","NAN","NAN","NAN"],
    [1541272,"2026-02-16 23:40:00","42262","3.2110000000000003","316.4","6.599","312.4","NAN","NAN","NAN","NAN","NAN"],
    [1541273,"2026-02-16 23:50:00","42263","3.6910000000000003","314.8","6.827","299.6","NAN","NAN","NAN","NAN","NAN"],
    [1541274,"2026-02-17 00:00:00","42264","3.6719999999999997","314.1","7.807","298.7","NAN","NAN","NAN","NAN","NAN"],
    [1541275,"2026-02-17 00:10:00","42265","4.387","303.0","7.219","305.3","NAN","NAN","NAN","NAN","NAN"],
    [1541276,"2026-02-17 00:20:00","42266","4.148","294.1","6.599","309.1","NAN","NAN","NAN","NAN","NAN"],
    [1541277,"2026-02-17 00:30:00","42267","5.41","296.9","9.08","298.1","NAN","NAN","NAN","NAN","NAN"],
    [1541278,"2026-02-17 00:40:00","42268","4.75","285.8","8.1","280.5","NAN","NAN","NAN","NAN","NAN"],
    [1541279,"2026-02-17 00:50:00","42269","4.478","292.8","7.023","285.1","NAN","NAN","NAN","NAN","NAN"],
    [1541280,"2026-02-17 01:00:00","42270","4.462","298.3","6.697","306.7","NAN","NAN","NAN","NAN","NAN"],
    [1541281,"2026-02-17 01:10:00","42271","3.945","301.0","5.815","301.1","NAN","NAN","NAN","NAN","NAN"],
    [1541282,"2026-02-17 01:20:00","42272","2.935","300.9","5.357","302.5","NAN","NAN","NAN","NAN","NAN"],
    [1541283,"2026-02-17 01:30:00","42273","3.0180000000000002","277.6","4.737","277.4","NAN","NAN","NAN","NAN","NAN"],
    [1541284,"2026-02-17 01:40:00","42274","3.19","273.0","6.239","254","NAN","NAN","NAN","NAN","NAN"],
    [1541285,"2026-02-17 01:50:00","42275","4.086","290.6","7.448","294.2","NAN","NAN","NAN","NAN","NAN"],
    [1541286,"2026-02-17 02:00:00","42276","5.263999999999999","303.0","9.24","296.7","NAN","NAN","NAN","NAN","NAN"],
    [1541287,"2026-02-17 02:10:00","42277","4.1","313.3","7.121","309.7","NAN","NAN","NAN","NAN","NAN"],
    [1541288,"2026-02-17 02:20:00","42278","3.785","305.6","6.893","305.1","NAN","NAN","NAN","NAN","NAN"],
    [1541289,"2026-02-17 02:30:00","42279","3.266","306.2","5.749","312.4","NAN","NAN","NAN","NAN","NAN"],
    [1541290,"2026-02-17 02:40:00","42280","4.256","310.0","6.762","304","NAN","NAN","NAN","NAN","NAN"],
    [1541291,"2026-02-17 02:50:00","42281","4.788","310.8","7.056","297.8","NAN","NAN","NAN","NAN","NAN"],
    [1541292,"2026-02-17 03:00:00","42282","4.29","313.3","7.905","314.9","NAN","NAN","NAN","NAN","NAN"],
    [1541293,"2026-02-17 03:10:00","42283","5.803","303.9","8.46","303","NAN","NAN","NAN","NAN","NAN"],
    [1541294,"2026-02-17 03:20:00","42284","5.739","303.5","10.68","305.9","NAN","NAN","NAN","NAN","NAN"],
    [1541295,"2026-02-17 03:30:00","42285","5.95","306.5","9.8","302.5","NAN","NAN","NAN","NAN","NAN"],
    [1541296,"2026-02-17 03:40:00","42286","5.444","303.5","9.05","296.6","NAN","NAN","NAN","NAN","NAN"],
    [1541297,"2026-02-17 03:50:00","42287","3.764","319.1","8.1","307.5","NAN","NAN","NAN","NAN","NAN"],
    [1541298,"2026-02-17 04:00:00","42288","3.8689999999999998","317.8","8.04","331","NAN","NAN","NAN","NAN","NAN"],
    [1541299,"2026-02-17 04:10:00","42289","4.103","314.0","6.925","340.5","NAN","NAN","NAN","NAN","NAN"],
    [1541300,"2026-02-17 04:20:00","42290","4.109","321.9","6.958","328.8","NAN","NAN","NAN","NAN","NAN"],
    [1541301,"2026-02-17 04:30:00","42291","2.051","340.1","4.312","336.3","NAN","NAN","NAN","NAN","NAN"],
    [1541302,"2026-02-17 04:40:00","42292","1.7990000000000002","341.9","3.659","348.1","NAN","NAN","NAN","NAN","NAN"],
    [1541303,"2026-02-17 04:50:00","42293","2.595","329.6","4.149","350.5","NAN","NAN","NAN","NAN","NAN"],
    [1541304,"2026-02-17 05:00:00","42294","1.165","328.0","3.528","314.5","NAN","NAN","NAN","NAN","NAN"],
    [1541305,"2026-02-17 05:10:00","42295","0.057999999999999996","348.3","0.719","344.3","NAN","NAN","NAN","NAN","NAN"],
    [1541306,"2026-02-17 05:20:00","42296","0.002","353.2","0.196","353.2","NAN","NAN","NAN","NAN","NAN"],
    [1541307,"2026-02-17 05:30:00","42297","0.053","349.2","0.817","353.4","NAN","NAN","NAN","NAN","NAN"],
    [1541308,"2026-02-17 05:40:00","42298","0.18899999999999997","357.4","1.176","354.4","NAN","NAN","NAN","NAN","NAN"],
    [1541309,"2026-02-17 05:50:00","42299","0.071","0.192","0.882","0.192","NAN","NAN","NAN","NAN","NAN"],
    [1541310,"2026-02-17 06:00:00","42300","0.88","340.3","1.633","341.5","NAN","NAN","NAN","NAN","NAN"],
    [1541311,"2026-02-17 06:10:00","42301","0.217","337.3","1.535","337.2","NAN","NAN","NAN","NAN","NAN"],
    [1541312,"2026-02-17 06:20:00","42302","0.672","336.2","2.352","336.2","NAN","NAN","NAN","NAN","NAN"],
    [1541313,"2026-02-17 06:30:00","42303","1.0979999999999999","336.0","2.417","335.9","NAN","NAN","NAN","NAN","NAN"],
    [1541314,"2026-02-17 06:40:00","42304","0.708","335.6","2.319","335.6","NAN","NAN","NAN","NAN","NAN"],
    [1541315,"2026-02-17 06:50:00","42305","0.083","336.9","0.686","338","NAN","NAN","NAN","NAN","NAN"],
    [1541316,"2026-02-17 07:00:00","42306","1.069","355.3","1.568","0.16","NAN","NAN","NAN","NAN","NAN"],
    [1541317,"2026-02-17 07:10:00","42307","0.337","0.33399999999999996","1.241","0.385","NAN","NAN","NAN","NAN","NAN"],
    [1541318,"2026-02-17 07:20:00","42308","0.001","337.8","0.131","337.8","NAN","NAN","NAN","NAN","NAN"],
    [1541319,"2026-02-17 07:30:00","42309","0.001","337.5","0.131","337.5","NAN","NAN","NAN","NAN","NAN"],
    [1541320,"2026-02-17 07:40:00","42310","0.1","337.0","0.817","336.9","NAN","NAN","NAN","NAN","NAN"],
    [1541321,"2026-02-17 07:50:00","42311","0.9670000000000001","327.9","3.626","311.6","NAN","NAN","NAN","NAN","NAN"],
    [1541322,"2026-02-17 08:00:00","42312","2.635","318.6","4.214","327.5","NAN","NAN","NAN","NAN","NAN"],
    [1541323,"2026-02-17 08:10:00","42313","3.054","330.4","4.475","325.2","NAN","NAN","NAN","NAN","NAN"],
    [1541324,"2026-02-17 08:20:00","42314","2.155","331.6","3.789","326.8","NAN","NAN","NAN","NAN","NAN"],
    [1541325,"2026-02-17 08:30:00","42315","3.6639999999999997","327.9","5.194","328","NAN","NAN","NAN","NAN","NAN"],
    [1541326,"2026-02-17 08:40:00","42316","3.363","325.5","4.9","331.9","NAN","NAN","NAN","NAN","NAN"],
    [1541327,"2026-02-17 08:50:00","42317","1.5419999999999998","311.4","3.528","309.3","NAN","NAN","NAN","NAN","NAN"],
    [1541328,"2026-02-17 09:00:00","42318","1.2009999999999998","315.8","2.907","315.5","NAN","NAN","NAN","NAN","NAN"],
    [1541329,"2026-02-17 09:10:00","42319","0.446","300.4","1.47","302.2","NAN","NAN","NAN","NAN","NAN"],
    [1541330,"2026-02-17 09:20:00","42320","1.837","184.1","3.92","174.1","NAN","NAN","NAN","NAN","NAN"],
    [1541331,"2026-02-17 09:30:00","42321","3.176","158.7","4.41","148","NAN","NAN","NAN","NAN","NAN"],
    [1541332,"2026-02-17 09:40:00","42322","2.31","146.8","3.855","151.6","NAN","NAN","NAN","NAN","NAN"],
    [1541333,"2026-02-17 09:50:00","42323","2.793","144.7","4.443","157","NAN","NAN","NAN","NAN","NAN"],
    [1541334,"2026-02-17 10:00:00","42324","2.495","149.2","3.953","155","NAN","NAN","NAN","NAN","NAN"],
    [1541335,"2026-02-17 10:10:00","42325","2.366","130.1","4.051","126.9","NAN","NAN","NAN","NAN","NAN"],
    [1541336,"2026-02-17 10:20:00","42326","2.401","126.7","3.691","124.6","NAN","NAN","NAN","NAN","NAN"],
    [1541337,"2026-02-17 10:30:00","42327","2.495","121.1","4.345","121.1","NAN","NAN","NAN","NAN","NAN"],
    [1541338,"2026-02-17 10:40:00","42328","2.947","116.2","4.737","128","NAN","NAN","NAN","NAN","NAN"],
    [1541339,"2026-02-17 10:50:00","42329","2.877","104.8","5.455","91.3","NAN","NAN","NAN","NAN","NAN"],
    [1541340,"2026-02-17 11:00:00","42330","3.092","102.9","5.325","122.1","NAN","NAN","NAN","NAN","NAN"],
    [1541341,"2026-02-17 11:10:00","42331","2.9010000000000002","101.8","4.867","95.7","NAN","NAN","NAN","NAN","NAN"],
    [1541342,"2026-02-17 11:20:00","42332","3.39","89.9","5.161","94.2","NAN","NAN","NAN","NAN","NAN"],
    [1541343,"2026-02-17 11:30:00","42333","2.943","93.9","4.737","98.4","NAN","NAN","NAN","NAN","NAN"],
    [1541344,"2026-02-17 11:40:00","42334","3.0869999999999997","106.1","5.749","131.7","NAN","NAN","NAN","NAN","NAN"],
    [1541345,"2026-02-17 11:50:00","42335","2.991","115.4","5.096","137.3","NAN","NAN","NAN","NAN","NAN"],
    [1541346,"2026-02-17 12:00:00","42336","3.292","106.7","4.867","90.8","NAN","NAN","NAN","NAN","NAN"],
    [1541347,"2026-02-17 12:10:00","42337","3.177","96.4","5.455","88.2","NAN","NAN","NAN","NAN","NAN"],
    [1541348,"2026-02-17 12:20:00","42338","3.884","91.0","5.782","98.2","NAN","NAN","NAN","NAN","NAN"],
    [1541349,"2026-02-17 12:30:00","42339","4.156000000000001","88.4","6.043","96.1","NAN","NAN","NAN","NAN","NAN"],
    [1541350,"2026-02-17 12:40:00","42340","3.5580000000000003","86.6","5.749","63.17","NAN","NAN","NAN","NAN","NAN"],
    [1541351,"2026-02-17 12:50:00","42341","3.665","95.6","5.651","91","NAN","NAN","NAN","NAN","NAN"],
    [1541352,"2026-02-17 13:00:00","42342","3.745","92.6","6.174","106.1","NAN","NAN","NAN","NAN","NAN"],
    [1541353,"2026-02-17 13:10:00","42343","4.025","91.3","6.305","86.6","NAN","NAN","NAN","NAN","NAN"],
    [1541354,"2026-02-17 13:20:00","42344","3.8680000000000003","94.5","5.945","86.9","NAN","NAN","NAN","NAN","NAN"],
    [1541355,"2026-02-17 13:30:00","42345","2.7239999999999998","78.21","5.227","93.4","NAN","NAN","NAN","NAN","NAN"],
    [1541356,"2026-02-17 13:40:00","42346","2.889","47.23","4.998","35.31","NAN","NAN","NAN","NAN","NAN"],
    [1541357,"2026-02-17 13:50:00","42347","1.9980000000000002","48.37","3.626","57.09","NAN","NAN","NAN","NAN","NAN"],
    [1541358,"2026-02-17 14:00:00","42348","1.6480000000000001","39.05","3.528","38.28","NAN","NAN","NAN","NAN","NAN"],
    [1541359,"2026-02-17 14:10:00","42349","1.536","56.93","3.822","58.86","NAN","NAN","NAN","NAN","NAN"],
    [1541360,"2026-02-17 14:20:00","42350","2.1180000000000003","69.27","3.463","70.81","NAN","NAN","NAN","NAN","NAN"],
    [1541361,"2026-02-17 14:30:00","42351","2.6689999999999996","84.9","4.737","86.6","NAN","NAN","NAN","NAN","NAN"],
    [1541362,"2026-02-17 14:40:00","42352","3.293","97.9","4.769","95.3","NAN","NAN","NAN","NAN","NAN"],
    [1541363,"2026-02-17 14:50:00","42353","3.0210000000000004","111.7","4.606","82.2","NAN","NAN","NAN","NAN","NAN"],
    [1541364,"2026-02-17 15:00:00","42354","2.8539999999999996","120.5","4.671","126.7","NAN","NAN","NAN","NAN","NAN"],
    [1541365,"2026-02-17 15:10:00","42355","3.025","115.9","4.508","108","NAN","NAN","NAN","NAN","NAN"],
    [1541366,"2026-02-17 15:20:00","42356","2.4330000000000003","116.7","4.639","126.6","NAN","NAN","NAN","NAN","NAN"],
    [1541367,"2026-02-17 15:30:00","42357","2.144","118.1","3.201","125.8","NAN","NAN","NAN","NAN","NAN"],
    [1541368,"2026-02-17 15:40:00","42358","3.05","111.1","4.606","103.4","NAN","NAN","NAN","NAN","NAN"],
    [1541369,"2026-02-17 15:50:00","42359","2.545","93.1","3.887","77.68","NAN","NAN","NAN","NAN","NAN"],
    [1541370,"2026-02-17 16:00:00","42360","2.753","82.9","4.116","91.8","NAN","NAN","NAN","NAN","NAN"],
    [1541371,"2026-02-17 16:10:00","42361","2.661","93.8","4.116","98.3","NAN","NAN","NAN","NAN","NAN"],
    [1541372,"2026-02-17 16:20:00","42362","2.8939999999999997","89.6","4.802","100.5","NAN","NAN","NAN","NAN","NAN"],
    [1541373,"2026-02-17 16:30:00","42363","3.012","89.8","4.933","93","NAN","NAN","NAN","NAN","NAN"],
    [1541374,"2026-02-17 16:40:00","42364","2.9219999999999997","86.5","4.671","84.9","NAN","NAN","NAN","NAN","NAN"],
    [1541375,"2026-02-17 16:50:00","42365","2.8139999999999996","109.6","4.802","117.8","NAN","NAN","NAN","NAN","NAN"],
    [1541376,"2026-02-17 17:00:00","42366","2.6210000000000004","111.6","4.116","103.2","NAN","NAN","NAN","NAN","NAN"],
    [1541377,"2026-02-17 17:10:00","42367","2.748","112.9","4.541","119","NAN","NAN","NAN","NAN","NAN"],
    [1541378,"2026-02-17 17:20:00","42368","2.439","113.4","3.92","128","NAN","NAN","NAN","NAN","NAN"],
    [1541379,"2026-02-17 17:30:00","42369","2.411","96.7","3.593","95","NAN","NAN","NAN","NAN","NAN"],
    [1541380,"2026-02-17 17:40:00","42370","2.7739999999999996","99.7","4.41","95.8","NAN","NAN","NAN","NAN","NAN"],
    [1541381,"2026-02-17 17:50:00","42371","2.472","102.4","4.083","98.2","NAN","NAN","NAN","NAN","NAN"],
    [1541382,"2026-02-17 18:00:00","42372","2.399","118.0","4.769","97.3","NAN","NAN","NAN","NAN","NAN"],
    [1541383,"2026-02-17 18:10:00","42373","2.552","97.6","4.279","98.8","NAN","NAN","NAN","NAN","NAN"],
    [1541384,"2026-02-17 18:20:00","42374","2.033","98.1","3.561","102.2","NAN","NAN","NAN","NAN","NAN"],
    [1541385,"2026-02-17 18:30:00","42375","1.9869999999999999","97.2","3.757","93.9","NAN","NAN","NAN","NAN","NAN"],
    [1541386,"2026-02-17 18:40:00","42376","1.9709999999999999","88.2","3.103","87.5","NAN","NAN","NAN","NAN","NAN"],
    [1541387,"2026-02-17 18:50:00","42377","2.705","89.7","4.083","83.7","NAN","NAN","NAN","NAN","NAN"],
    [1541388,"2026-02-17 19:00:00","42378","2.115","86.0","3.659","97.4","NAN","NAN","NAN","NAN","NAN"],
    [1541389,"2026-02-17 19:10:00","42379","2.819","88.3","4.116","89.9","NAN","NAN","NAN","NAN","NAN"],
    [1541390,"2026-02-17 19:20:00","42380","2.572","87.6","4.149","87","NAN","NAN","NAN","NAN","NAN"],
    [1541391,"2026-02-17 19:30:00","42381","2.08","90.7","3.659","97.3","NAN","NAN","NAN","NAN","NAN"],
    [1541392,"2026-02-17 19:40:00","42382","1.841","96.4","3.267","98.2","NAN","NAN","NAN","NAN","NAN"],
    [1541393,"2026-02-17 19:50:00","42383","2.18","96.4","3.691","86","NAN","NAN","NAN","NAN","NAN"],
    [1541394,"2026-02-17 20:00:00","42384","2.06","98.2","3.659","94.6","NAN","NAN","NAN","NAN","NAN"],
    [1541395,"2026-02-17 20:10:00","42385","2.105","97.9","4.181","97.6","NAN","NAN","NAN","NAN","NAN"],
    [1541396,"2026-02-17 20:20:00","42386","2.33","100.0","3.724","86","NAN","NAN","NAN","NAN","NAN"],
    [1541397,"2026-02-17 20:30:00","42387","1.964","105.9","3.789","110.4","NAN","NAN","NAN","NAN","NAN"],
    [1541398,"2026-02-17 20:40:00","42388","2.0980000000000003","99.0","3.561","96.2","NAN","NAN","NAN","NAN","NAN"],
    [1541399,"2026-02-17 20:50:00","42389","1.9980000000000002","99.4","3.561","92.5","NAN","NAN","NAN","NAN","NAN"],
    [1541400,"2026-02-17 21:00:00","42390","2.309","105.6","4.639","97","NAN","NAN","NAN","NAN","NAN"],
    [1541401,"2026-02-17 21:10:00","42391","2.445","95.8","4.083","89.6","NAN","NAN","NAN","NAN","NAN"],
    [1541402,"2026-02-17 21:20:00","42392","2.0269999999999997","89.9","3.691","87.9","NAN","NAN","NAN","NAN","NAN"],
    [1541403,"2026-02-17 21:30:00","42393","2.675","91.6","4.475","85.8","NAN","NAN","NAN","NAN","NAN"],
    [1541404,"2026-02-17 21:40:00","42394","2.5639999999999996","92.0","4.116","94.7","NAN","NAN","NAN","NAN","NAN"],
    [1541405,"2026-02-17 21:50:00","42395","2.313","90.7","3.822","96.3","NAN","NAN","NAN","NAN","NAN"],
    [1541406,"2026-02-17 22:00:00","42396","2.2","75.31","4.475","65.78","NAN","NAN","NAN","NAN","NAN"],
    [1541407,"2026-02-17 22:10:00","42397","2.16","82.0","3.822","78.48","NAN","NAN","NAN","NAN","NAN"],
    [1541408,"2026-02-17 22:20:00","42398","2.195","76.72","3.985","71.49","NAN","NAN","NAN","NAN","NAN"],
    [1541409,"2026-02-17 22:30:00","42399","2.419","77.72","3.757","67.6","NAN","NAN","NAN","NAN","NAN"],
    [1541410,"2026-02-17 22:40:00","42400","2.707","70.79","4.345","68.14","NAN","NAN","NAN","NAN","NAN"],
    [1541411,"2026-02-17 22:50:00","42401","2.549","71.46","4.377","68.87","NAN","NAN","NAN","NAN","NAN"],
    [1541412,"2026-02-17 23:00:00","42402","2.496","71.23","4.083","68.86","NAN","NAN","NAN","NAN","NAN"],
    [1541413,"2026-02-17 23:10:00","42403","2.079","77.47","3.561","72.54","NAN","NAN","NAN","NAN","NAN"],
    [1541414,"2026-02-17 23:20:00","42404","2.519","73.38","4.704","66.85","NAN","NAN","NAN","NAN","NAN"],
    [1541415,"2026-02-17 23:30:00","42405","2.181","75.9","4.475","68.91","NAN","NAN","NAN","NAN","NAN"],
    [1541416,"2026-02-17 23:40:00","42406","2.5269999999999997","70.26","4.279","67.76","NAN","NAN","NAN","NAN","NAN"],
    [1541417,"2026-02-17 23:50:00","42407","2.386","71.26","3.953","66.24","NAN","NAN","NAN","NAN","NAN"],
    [1541418,"2026-02-18 00:00:00","42408","2.478","70.55","3.985","71.25","NAN","NAN","NAN","NAN","NAN"],
    [1541419,"2026-02-18 00:10:00","42409","2.2319999999999998","74.22","4.051","70.29","NAN","NAN","NAN","NAN","NAN"],
    [1541420,"2026-02-18 00:20:00","42410","2.5989999999999998","72.16","4.541","68.3","NAN","NAN","NAN","NAN","NAN"],
    [1541421,"2026-02-18 00:30:00","42411","2.537","69.18","5.031","71.86","NAN","NAN","NAN","NAN","NAN"],
    [1541422,"2026-02-18 00:40:00","42412","1.383","75.05","3.071","77.22","NAN","NAN","NAN","NAN","NAN"],
    [1541423,"2026-02-18 00:50:00","42413","1.75","67.81","3.495","63.64","NAN","NAN","NAN","NAN","NAN"],
    [1541424,"2026-02-18 01:00:00","42414","0.9009999999999999","69.48","2.809","64.71","NAN","NAN","NAN","NAN","NAN"],
    [1541425,"2026-02-18 01:10:00","42415","1.03","67.56","2.319","68.88","NAN","NAN","NAN","NAN","NAN"],
    [1541426,"2026-02-18 01:20:00","42416","1.0070000000000001","77.96","2.352","79.34","NAN","NAN","NAN","NAN","NAN"],
    [1541427,"2026-02-18 01:30:00","42417","1.439","82.8","2.581","81.9","NAN","NAN","NAN","NAN","NAN"],
    [1541428,"2026-02-18 01:40:00","42418","1.715","81.9","3.169","85","NAN","NAN","NAN","NAN","NAN"],
    [1541429,"2026-02-18 01:50:00","42419","1.911","75.15","3.43","70.16","NAN","NAN","NAN","NAN","NAN"],
    [1541430,"2026-02-18 02:00:00","42420","1.8019999999999998","73.26","3.299","64.85","NAN","NAN","NAN","NAN","NAN"],
    [1541431,"2026-02-18 02:10:00","42421","1.4480000000000002","74.04","2.875","74.55","NAN","NAN","NAN","NAN","NAN"],
    [1541432,"2026-02-18 02:20:00","42422","1.196","76.45","2.809","63.18","NAN","NAN","NAN","NAN","NAN"],
    [1541433,"2026-02-18 02:30:00","42423","0.873","80.0","1.764","79.42","NAN","NAN","NAN","NAN","NAN"],
    [1541434,"2026-02-18 02:40:00","42424","1.172","79.98","2.711","83","NAN","NAN","NAN","NAN","NAN"],
    [1541435,"2026-02-18 02:50:00","42425","1.81","83.0","3.169","84.7","NAN","NAN","NAN","NAN","NAN"],
    [1541436,"2026-02-18 03:00:00","42426","1.464","82.2","2.515","84.8","NAN","NAN","NAN","NAN","NAN"],
    [1541437,"2026-02-18 03:10:00","42427","1.159","77.65","2.679","74.67","NAN","NAN","NAN","NAN","NAN"],
    [1541438,"2026-02-18 03:20:00","42428","1.43","73.59","2.483","74.67","NAN","NAN","NAN","NAN","NAN"],
    [1541439,"2026-02-18 03:30:00","42429","1.138","67.96","1.96","68.43","NAN","NAN","NAN","NAN","NAN"],
    [1541440,"2026-02-18 03:40:00","42430","0.935","65.73","1.666","65.69","NAN","NAN","NAN","NAN","NAN"],
    [1541441,"2026-02-18 03:50:00","42431","0.5429999999999999","65.44","1.339","65.41","NAN","NAN","NAN","NAN","NAN"],
    [1541442,"2026-02-18 04:00:00","42432","0.13","65.3","0.98","65.31","NAN","NAN","NAN","NAN","NAN"],
    [1541443,"2026-02-18 04:10:00","42433","0.016","65.1","0.425","65.1","NAN","NAN","NAN","NAN","NAN"],
    [1541444,"2026-02-18 04:20:00","42434","0.001","65.06","0.131","65.06","NAN","NAN","NAN","NAN","NAN"],
    [1541445,"2026-02-18 04:30:00","42435","0.20199999999999999","65.03","1.013","65.03","NAN","NAN","NAN","NAN","NAN"],
    [1541446,"2026-02-18 04:40:00","42436","0.565","65.04","0.915","65.03","NAN","NAN","NAN","NAN","NAN"],
    [1541447,"2026-02-18 04:50:00","42437","0.063","65.03","0.686","65.02","NAN","NAN","NAN","NAN","NAN"],
    [1541448,"2026-02-18 05:00:00","42438","0.031","65.1","0.49","65.11","NAN","NAN","NAN","NAN","NAN"],
    [1541449,"2026-02-18 05:10:00","42439","0.024","65.11","0.425","65.11","NAN","NAN","NAN","NAN","NAN"],
    [1541450,"2026-02-18 05:20:00","42440","0.0","65.02","0.033","65.02","NAN","NAN","NAN","NAN","NAN"],
    [1541451,"2026-02-18 05:30:00","42441","0.063","64.94","0.523","65.01","NAN","NAN","NAN","NAN","NAN"],
    [1541452,"2026-02-18 05:40:00","42442","0.166","64.96","0.784","64.92","NAN","NAN","NAN","NAN","NAN"],
    [1541453,"2026-02-18 05:50:00","42443","0.547","64.75","0.98","64.82","NAN","NAN","NAN","NAN","NAN"],
    [1541454,"2026-02-18 06:00:00","42444","0.16699999999999998","64.95","0.817","65.82","NAN","NAN","NAN","NAN","NAN"],
    [1541455,"2026-02-18 06:10:00","42445","0.32899999999999996","64.14","1.535","63.86","NAN","NAN","NAN","NAN","NAN"],
    [1541456,"2026-02-18 06:20:00","42446","0.094","63.86","0.98","63.86","NAN","NAN","NAN","NAN","NAN"],
    [1541457,"2026-02-18 06:30:00","42447","0.402","63.83","1.307","63.85","NAN","NAN","NAN","NAN","NAN"],
    [1541458,"2026-02-18 06:40:00","42448","0.172","63.77","0.751","63.77","NAN","NAN","NAN","NAN","NAN"],
    [1541459,"2026-02-18 06:50:00","42449","0.991","63.5","1.699","63.77","NAN","NAN","NAN","NAN","NAN"],
    [1541460,"2026-02-18 07:00:00","42450","0.715","59.96","1.568","62.03","NAN","NAN","NAN","NAN","NAN"],
    [1541461,"2026-02-18 07:10:00","42451","0.542","59.13","1.241","59.31","NAN","NAN","NAN","NAN","NAN"],
    [1541462,"2026-02-18 07:20:00","42452","0.613","58.82","1.503","58.76","NAN","NAN","NAN","NAN","NAN"],
    [1541463,"2026-02-18 07:30:00","42453","0.146","58.67","1.045","58.67","NAN","NAN","NAN","NAN","NAN"],
    [1541464,"2026-02-18 07:40:00","42454","0.135","58.65","1.013","58.59","NAN","NAN","NAN","NAN","NAN"],
    [1541465,"2026-02-18 07:50:00","42455","0.799","54.41","1.405","52.63","NAN","NAN","NAN","NAN","NAN"],
    [1541466,"2026-02-18 08:00:00","42456","0.32899999999999996","50.29","1.013","51.16","NAN","NAN","NAN","NAN","NAN"],
    [1541467,"2026-02-18 08:10:00","42457","0.183","40.44","0.784","40.47","NAN","NAN","NAN","NAN","NAN"],
    [1541468,"2026-02-18 08:20:00","42458","0.16399999999999998","40.31","0.882","40.19","NAN","NAN","NAN","NAN","NAN"],
    [1541469,"2026-02-18 08:30:00","42459","0.266","40.11","0.817","40.19","NAN","NAN","NAN","NAN","NAN"],
    [1541470,"2026-02-18 08:40:00","42460","0.149","40.09","0.784","40.09","NAN","NAN","NAN","NAN","NAN"],
    [1541471,"2026-02-18 08:50:00","42461","0.004","40.09","0.261","40.09","NAN","NAN","NAN","NAN","NAN"],
    [1541472,"2026-02-18 09:00:00","42462","0.41700000000000004","39.96","1.601","39.9","NAN","NAN","NAN","NAN","NAN"],
    [1541473,"2026-02-18 09:10:00","42463","0.511","39.74","1.405","39.7","NAN","NAN","NAN","NAN","NAN"],
    [1541474,"2026-02-18 09:20:00","42464","0.149","39.61","1.307","39.61","NAN","NAN","NAN","NAN","NAN"],
    [1541475,"2026-02-18 09:30:00","42465","0.012","39.4","0.392","39.12","NAN","NAN","NAN","NAN","NAN"],
    [1541476,"2026-02-18 09:40:00","42466","0.513","37.7","1.895","37.59","NAN","NAN","NAN","NAN","NAN"],
    [1541477,"2026-02-18 09:50:00","42467","0.59","39.88","1.731","37.13","NAN","NAN","NAN","NAN","NAN"],
    [1541478,"2026-02-18 10:00:00","42468","1.319","325.5","3.757","275.3","NAN","NAN","NAN","NAN","NAN"],
    [1541479,"2026-02-18 10:10:00","42469","2.545","275.2","4.149","277.4","NAN","NAN","NAN","NAN","NAN"],
    [1541480,"2026-02-18 10:20:00","42470","2.394","272.2","3.365","264.7","NAN","NAN","NAN","NAN","NAN"],
    [1541481,"2026-02-18 10:30:00","42471","2.161","259.4","4.312","247.3","NAN","NAN","NAN","NAN","NAN"],
    [1541482,"2026-02-18 10:40:00","42472","1.6280000000000001","241.2","4.475","211.1","NAN","NAN","NAN","NAN","NAN"],
    [1541483,"2026-02-18 10:50:00","42473","2.6310000000000002","230.2","4.802","225.6","NAN","NAN","NAN","NAN","NAN"],
    [1541484,"2026-02-18 11:00:00","42474","1.136","240.3","3.169","219.4","NAN","NAN","NAN","NAN","NAN"],
    [1541485,"2026-02-18 11:10:00","42475","1.9240000000000002","246.4","4.116","251.2","NAN","NAN","NAN","NAN","NAN"],
    [1541486,"2026-02-18 11:20:00","42476","2.29","226.2","4.116","215.8","NAN","NAN","NAN","NAN","NAN"],
    [1541487,"2026-02-18 11:30:00","42477","3.133","208.6","6.011","207.1","NAN","NAN","NAN","NAN","NAN"],
    [1541488,"2026-02-18 11:40:00","42478","3.145","206.7","5.194","210.8","NAN","NAN","NAN","NAN","NAN"],
    [1541489,"2026-02-18 11:50:00","42479","3.3160000000000003","213.1","5.488","209.6","NAN","NAN","NAN","NAN","NAN"],
    [1541490,"2026-02-18 12:00:00","42480","2.957","231.1","4.998","213.9","NAN","NAN","NAN","NAN","NAN"],
    [1541491,"2026-02-18 12:10:00","42481","3.267","215.7","5.39","211.4","NAN","NAN","NAN","NAN","NAN"],
    [1541492,"2026-02-18 12:20:00","42482","3.405","223.5","5.553","193.4","NAN","NAN","NAN","NAN","NAN"],
    [1541493,"2026-02-18 12:30:00","42483","2.878","222.9","5.129","205.4","NAN","NAN","NAN","NAN","NAN"],
    [1541494,"2026-02-18 12:40:00","42484","2.826","225.2","5.227","214","NAN","NAN","NAN","NAN","NAN"],
    [1541495,"2026-02-18 12:50:00","42485","3.575","221.0","5.553","222.9","NAN","NAN","NAN","NAN","NAN"],
    [1541496,"2026-02-18 13:00:00","42486","3.9130000000000003","220.4","7.317","207.2","NAN","NAN","NAN","NAN","NAN"],
    [1541497,"2026-02-18 13:10:00","42487","4.083","216.0","6.566","211.2","NAN","NAN","NAN","NAN","NAN"],
    [1541498,"2026-02-18 13:20:00","42488","3.2560000000000002","224.0","5.945","211.3","NAN","NAN","NAN","NAN","NAN"],
    [1541499,"2026-02-18 13:30:00","42489","3.178","242.7","5.488","259.6","NAN","NAN","NAN","NAN","NAN"],
    [1541500,"2026-02-18 13:40:00","42490","4.386","247.2","6.893","264.9","NAN","NAN","NAN","NAN","NAN"],
    [1541501,"2026-02-18 13:50:00","42491","3.562","227.1","6.599","237.9","NAN","NAN","NAN","NAN","NAN"],
    [1541502,"2026-02-18 14:00:00","42492","3.745","230.6","7.023","212.4","NAN","NAN","NAN","NAN","NAN"],
    [1541503,"2026-02-18 14:10:00","42493","4.254","225.3","7.415","222.1","NAN","NAN","NAN","NAN","NAN"],
    [1541504,"2026-02-18 14:20:00","42494","4.306","217.8","7.415","222.1","NAN","NAN","NAN","NAN","NAN"],
    [1541505,"2026-02-18 14:30:00","42495","4.566","210.9","7.187","215.1","NAN","NAN","NAN","NAN","NAN"],
    [1541506,"2026-02-18 14:40:00","42496","4.2780000000000005","210.0","6.664","216.2","NAN","NAN","NAN","NAN","NAN"],
    [1541507,"2026-02-18 14:50:00","42497","4.298","207.6","7.089","203.6","NAN","NAN","NAN","NAN","NAN"],
    [1541508,"2026-02-18 15:00:00","42498","4.333","206.4","6.958","210.3","NAN","NAN","NAN","NAN","NAN"],
    [1541509,"2026-02-18 15:10:00","42499","3.5439999999999996","203.9","6.795","208.7","NAN","NAN","NAN","NAN","NAN"],
    [1541510,"2026-02-18 15:20:00","42500","3.405","208.1","6.893","202","NAN","NAN","NAN","NAN","NAN"],
    [1541511,"2026-02-18 15:30:00","42501","4.0680000000000005","207.5","7.252","224.2","NAN","NAN","NAN","NAN","NAN"],
    [1541512,"2026-02-18 15:40:00","42502","3.012","208.7","5.488","205.3","NAN","NAN","NAN","NAN","NAN"],
    [1541513,"2026-02-18 15:50:00","42503","2.995","214.7","5.945","212","NAN","NAN","NAN","NAN","NAN"],
    [1541514,"2026-02-18 16:00:00","42504","3.123","226.5","5.488","233.3","NAN","NAN","NAN","NAN","NAN"],
    [1541515,"2026-02-18 16:10:00","42505","2.254","229.0","4.051","219.8","NAN","NAN","NAN","NAN","NAN"],
    [1541516,"2026-02-18 16:20:00","42506","2.536","216.7","4.312","201.3","NAN","NAN","NAN","NAN","NAN"],
    [1541517,"2026-02-18 16:30:00","42507","2.3930000000000002","217.0","4.835","239","NAN","NAN","NAN","NAN","NAN"],
    [1541518,"2026-02-18 16:40:00","42508","1.615","214.8","3.169","199.1","NAN","NAN","NAN","NAN","NAN"],
    [1541519,"2026-02-18 16:50:00","42509","2.3280000000000003","206.2","4.149","200.6","NAN","NAN","NAN","NAN","NAN"],
    [1541520,"2026-02-18 17:00:00","42510","2.3680000000000003","231.0","4.606","234","NAN","NAN","NAN","NAN","NAN"],
    [1541521,"2026-02-18 17:10:00","42511","2.201","215.2","4.116","218.9","NAN","NAN","NAN","NAN","NAN"],
    [1541522,"2026-02-18 17:20:00","42512","2.81","210.8","4.541","201","NAN","NAN","NAN","NAN","NAN"],
    [1541523,"2026-02-18 17:30:00","42513","2.276","215.7","3.887","217.2","NAN","NAN","NAN","NAN","NAN"],
    [1541524,"2026-02-18 17:40:00","42514","2.728","210.1","4.965","214.5","NAN","NAN","NAN","NAN","NAN"],
    [1541525,"2026-02-18 17:50:00","42515","2.742","221.0","5.227","223.5","NAN","NAN","NAN","NAN","NAN"],
    [1541526,"2026-02-18 18:00:00","42516","3.43","218.9","5.586","219.8","NAN","NAN","NAN","NAN","NAN"],
    [1541527,"2026-02-18 18:10:00","42517","3.3110000000000004","217.1","6.239","218.4","NAN","NAN","NAN","NAN","NAN"],
    [1541528,"2026-02-18 18:20:00","42518","2.7030000000000003","219.5","5.553","209","NAN","NAN","NAN","NAN","NAN"],
    [1541529,"2026-02-18 18:30:00","42519","2.408","221.9","4.769","203.9","NAN","NAN","NAN","NAN","NAN"],
    [1541530,"2026-02-18 18:40:00","42520","2.815","237.2","5.259","260","NAN","NAN","NAN","NAN","NAN"],
    [1541531,"2026-02-18 18:50:00","42521","3.1719999999999997","235.1","6.86","226","NAN","NAN","NAN","NAN","NAN"],
    [1541532,"2026-02-18 19:00:00","42522","3.175","225.6","5.945","207.9","NAN","NAN","NAN","NAN","NAN"],
    [1541533,"2026-02-18 19:10:00","42523","2.987","227.2","5.325","216.7","NAN","NAN","NAN","NAN","NAN"],
    [1541534,"2026-02-18 19:20:00","42524","2.714","221.2","4.769","207.7","NAN","NAN","NAN","NAN","NAN"],
    [1541535,"2026-02-18 19:30:00","42525","2.609","212.9","5.259","219.6","NAN","NAN","NAN","NAN","NAN"],
    [1541536,"2026-02-18 19:40:00","42526","2.215","239.2","4.606","259.9","NAN","NAN","NAN","NAN","NAN"],
    [1541537,"2026-02-18 19:50:00","42527","2.559","244.5","4.769","255.6","NAN","NAN","NAN","NAN","NAN"],
    [1541538,"2026-02-18 20:00:00","42528","3.344","243.3","5.782","245.5","NAN","NAN","NAN","NAN","NAN"],
    [1541539,"2026-02-18 20:10:00","42529","2.826","236.1","5.423","235.2","NAN","NAN","NAN","NAN","NAN"],
    [1541540,"2026-02-18 20:20:00","42530","2.71","236.9","5.488","213.8","NAN","NAN","NAN","NAN","NAN"],
    [1541541,"2026-02-18 20:30:00","42531","2.95","230.5","5.292","242","NAN","NAN","NAN","NAN","NAN"],
    [1541542,"2026-02-18 20:40:00","42532","3.465","246.3","5.39","235.6","NAN","NAN","NAN","NAN","NAN"],
    [1541543,"2026-02-18 20:50:00","42533","2.786","236.2","5.782","218.7","NAN","NAN","NAN","NAN","NAN"],
    [1541544,"2026-02-18 21:00:00","42534","2.8310000000000004","226.6","5.651","247.4","NAN","NAN","NAN","NAN","NAN"],
    [1541545,"2026-02-18 21:10:00","42535","3.02","222.8","5.553","211.9","NAN","NAN","NAN","NAN","NAN"],
    [1541546,"2026-02-18 21:20:00","42536","2.324","223.3","4.247","226.2","NAN","NAN","NAN","NAN","NAN"],
    [1541547,"2026-02-18 21:30:00","42537","2.633","232.8","5.488","240.1","NAN","NAN","NAN","NAN","NAN"],
    [1541548,"2026-02-18 21:40:00","42538","2.783","237.4","5.455","235","NAN","NAN","NAN","NAN","NAN"],
    [1541549,"2026-02-18 21:50:00","42539","3.4410000000000003","256.0","5.553","252.9","NAN","NAN","NAN","NAN","NAN"],
    [1541550,"2026-02-18 22:00:00","42540","3.717","261.8","6.174","259.8","NAN","NAN","NAN","NAN","NAN"],
    [1541551,"2026-02-18 22:10:00","42541","4.238","257.8","7.35","261.2","NAN","NAN","NAN","NAN","NAN"],
    [1541552,"2026-02-18 22:20:00","42542","3.4939999999999998","268.5","6.043","258.6","NAN","NAN","NAN","NAN","NAN"],
    [1541553,"2026-02-18 22:30:00","42543","3.423","263.4","5.488","273.1","NAN","NAN","NAN","NAN","NAN"],
    [1541554,"2026-02-18 22:40:00","42544","3.6860000000000004","254.1","6.109","246","NAN","NAN","NAN","NAN","NAN"],
    [1541555,"2026-02-18 22:50:00","42545","4.027","249.2","6.337","248.2","NAN","NAN","NAN","NAN","NAN"],
    [1541556,"2026-02-18 23:00:00","42546","3.785","263.0","6.076","258.8","NAN","NAN","NAN","NAN","NAN"],
    [1541557,"2026-02-18 23:10:00","42547","3.635","258.7","5.913","264.3","NAN","NAN","NAN","NAN","NAN"],
    [1541558,"2026-02-18 23:20:00","42548","2.8489999999999998","258.2","4.9","242.2","NAN","NAN","NAN","NAN","NAN"],
    [1541559,"2026-02-18 23:30:00","42549","2.166","271.1","4.41","246","NAN","NAN","NAN","NAN","NAN"],
    [1541560,"2026-02-18 23:40:00","42550","1.069","277.0","2.156","270.3","NAN","NAN","NAN","NAN","NAN"],
    [1541561,"2026-02-18 23:50:00","42551","0.701","256.6","2.679","265.3","NAN","NAN","NAN","NAN","NAN"],
    [1541562,"2026-02-19 00:00:00","42552","1.29","245.6","4.116","218.2","NAN","NAN","NAN","NAN","NAN"],
    [1541563,"2026-02-19 00:10:00","42553","1.963","223.4","3.071","219.1","NAN","NAN","NAN","NAN","NAN"],
    [1541564,"2026-02-19 00:20:00","42554","1.2570000000000001","229.8","2.613","237.7","NAN","NAN","NAN","NAN","NAN"],
    [1541565,"2026-02-19 00:30:00","42555","1.355","236.9","2.45","238.5","NAN","NAN","NAN","NAN","NAN"],
    [1541566,"2026-02-19 00:40:00","42556","0.114","230.3","1.209","230.1","NAN","NAN","NAN","NAN","NAN"],
    [1541567,"2026-02-19 00:50:00","42557","0.24","238.6","0.751","238.6","NAN","NAN","NAN","NAN","NAN"],
    [1541568,"2026-02-19 01:00:00","42558","0.0","0.0","0","0","NAN","NAN","NAN","NAN","NAN"],
    [1541569,"2026-02-19 01:10:00","42559","0.0","238.5","0.098","238.5","NAN","NAN","NAN","NAN","NAN"],
    [1541570,"2026-02-19 01:20:00","42560","0.005","236.9","0.294","237.9","NAN","NAN","NAN","NAN","NAN"],
    [1541571,"2026-02-19 01:30:00","42561","0.095","236.7","1.078","238.6","NAN","NAN","NAN","NAN","NAN"],
    [1541572,"2026-02-19 01:40:00","42562","0.095","217.4","1.699","218.3","NAN","NAN","NAN","NAN","NAN"],
    [1541573,"2026-02-19 01:50:00","42563","0.27899999999999997","218.7","1.372","218.8","NAN","NAN","NAN","NAN","NAN"],
    [1541574,"2026-02-19 02:00:00","42564","1.2670000000000001","253.9","3.822","275.3","NAN","NAN","NAN","NAN","NAN"],
    [1541575,"2026-02-19 02:10:00","42565","3.7","279.7","6.664","299.3","NAN","NAN","NAN","NAN","NAN"],
    [1541576,"2026-02-19 02:20:00","42566","5.307","280.2","10.85","274","NAN","NAN","NAN","NAN","NAN"],
    [1541577,"2026-02-19 02:30:00","42567","6.537000000000001","290.8","13.36","278.1","NAN","NAN","NAN","NAN","NAN"],
    [1541578,"2026-02-19 02:40:00","42568","5.882999999999999","281.4","13.49","294.2","NAN","NAN","NAN","NAN","NAN"],
    [1541579,"2026-02-19 02:50:00","42569","5.468999999999999","287.1","9.6","289.4","NAN","NAN","NAN","NAN","NAN"],
    [1541580,"2026-02-19 03:00:00","42570","4.785","284.8","8.1","272.5","NAN","NAN","NAN","NAN","NAN"],
    [1541581,"2026-02-19 03:10:00","42571","4.103","276.5","8.07","283.8","NAN","NAN","NAN","NAN","NAN"],
    [1541582,"2026-02-19 03:20:00","42572","4.276","272.0","8.07","279.9","NAN","NAN","NAN","NAN","NAN"],
    [1541583,"2026-02-19 03:30:00","42573","3.3489999999999998","267.0","5.455","263.4","NAN","NAN","NAN","NAN","NAN"],
    [1541584,"2026-02-19 03:40:00","42574","2.4130000000000003","265.0","3.855","251.5","NAN","NAN","NAN","NAN","NAN"],
    [1541585,"2026-02-19 03:50:00","42575","3.217","268.9","6.207","299.1","NAN","NAN","NAN","NAN","NAN"],
    [1541586,"2026-02-19 04:00:00","42576","4.159","287.9","7.873","271.6","NAN","NAN","NAN","NAN","NAN"],
    [1541587,"2026-02-19 04:10:00","42577","5.707999999999999","305.1","10.85","308.9","NAN","NAN","NAN","NAN","NAN"],
    [1541588,"2026-02-19 04:20:00","42578","6.182","305.3","12.64","318.5","NAN","NAN","NAN","NAN","NAN"],
    [1541589,"2026-02-19 04:30:00","42579","7.002999999999999","299.7","11.79","321.5","NAN","NAN","NAN","NAN","NAN"],
    [1541590,"2026-02-19 04:40:00","42580","6.742999999999999","294.4","11.92","283.8","NAN","NAN","NAN","NAN","NAN"],
    [1541591,"2026-02-19 04:50:00","42581","6.6770000000000005","286.9","12.12","291","NAN","NAN","NAN","NAN","NAN"],
    [1541592,"2026-02-19 05:00:00","42582","8.03","286.1","12.94","276.2","NAN","NAN","NAN","NAN","NAN"],
    [1541593,"2026-02-19 05:10:00","42583","7.004","284.5","11.34","296.4","NAN","NAN","NAN","NAN","NAN"],
    [1541594,"2026-02-19 05:20:00","42584","7.2860000000000005","287.7","14.83","286.1","NAN","NAN","NAN","NAN","NAN"],
    [1541595,"2026-02-19 05:30:00","42585","5.787999999999999","293.2","11.11","286.4","NAN","NAN","NAN","NAN","NAN"],
    [1541596,"2026-02-19 05:40:00","42586","7.145","292.5","13.03","299.6","NAN","NAN","NAN","NAN","NAN"],
    [1541597,"2026-02-19 05:50:00","42587","7.415","287.5","13.98","275.8","NAN","NAN","NAN","NAN","NAN"],
    [1541598,"2026-02-19 06:00:00","42588","7.5120000000000005","284.1","13.46","257.8","NAN","NAN","NAN","NAN","NAN"],
    [1541599,"2026-02-19 06:10:00","42589","7.425","289.3","12.35","280","NAN","NAN","NAN","NAN","NAN"],
    [1541600,"2026-02-19 06:20:00","42590","9.2","294.1","18.2","305","NAN","NAN","NAN","NAN","NAN"],
    [1541601,"2026-02-19 06:30:00","42591","7.91","291.7","15.68","300.6","NAN","NAN","NAN","NAN","NAN"],
    [1541602,"2026-02-19 06:40:00","42592","7.165","294.3","12.97","283","NAN","NAN","NAN","NAN","NAN"],
    [1541603,"2026-02-19 06:50:00","42593","7.704","298.1","12.28","292.2","NAN","NAN","NAN","NAN","NAN"],
    [1541604,"2026-02-19 07:00:00","42594","7.5","304.6","11.73","305","NAN","NAN","NAN","NAN","NAN"],
    [1541605,"2026-02-19 07:10:00","42595","8.38","303.2","13.03","298","NAN","NAN","NAN","NAN","NAN"],
    [1541606,"2026-02-19 07:20:00","42596","8.56","296.6","14.83","299.1","NAN","NAN","NAN","NAN","NAN"],
    [1541607,"2026-02-19 07:30:00","42597","7.882000000000001","296.6","13.13","301.5","NAN","NAN","NAN","NAN","NAN"],
    [1541608,"2026-02-19 07:40:00","42598","6.722","299.0","13.33","291.5","NAN","NAN","NAN","NAN","NAN"],
    [1541609,"2026-02-19 07:50:00","42599","8.37","305.2","14.08","300.1","NAN","NAN","NAN","NAN","NAN"],
    [1541610,"2026-02-19 08:00:00","42600","6.41","305.7","12.28","325.7","NAN","NAN","NAN","NAN","NAN"],
    [1541611,"2026-02-19 08:10:00","42601","5.482","318.7","12.87","310.5","NAN","NAN","NAN","NAN","NAN"],
    [1541612,"2026-02-19 08:20:00","42602","5.42","319.7","10.71","303.9","NAN","NAN","NAN","NAN","NAN"],
    [1541613,"2026-02-19 08:30:00","42603","5.311","306.3","9.05","297.5","NAN","NAN","NAN","NAN","NAN"],
    [1541614,"2026-02-19 08:40:00","42604","4.117","303.9","7.873","317.1","NAN","NAN","NAN","NAN","NAN"],
    [1541615,"2026-02-19 08:50:00","42605","5.322","297.0","9.41","304.1","NAN","NAN","NAN","NAN","NAN"],
    [1541616,"2026-02-19 09:00:00","42606","5.166","303.0","9.24","304.5","NAN","NAN","NAN","NAN","NAN"],
    [1541617,"2026-02-19 09:10:00","42607","5.542999999999999","298.1","9.47","288.3","NAN","NAN","NAN","NAN","NAN"],
    [1541618,"2026-02-19 09:20:00","42608","7.356","296.1","11.96","288.2","NAN","NAN","NAN","NAN","NAN"],
    [1541619,"2026-02-19 09:30:00","42609","7.242000000000001","296.5","13.03","296","NAN","NAN","NAN","NAN","NAN"],
    [1541620,"2026-02-19 09:40:00","42610","7.317","303.0","11.56","303.5","NAN","NAN","NAN","NAN","NAN"],
    [1541621,"2026-02-19 09:50:00","42611","8.38","306.5","13.49","302.8","NAN","NAN","NAN","NAN","NAN"],
    [1541622,"2026-02-19 10:00:00","42612","7.916","309.1","13.85","312.5","NAN","NAN","NAN","NAN","NAN"],
    [1541623,"2026-02-19 10:10:00","42613","8.31","314.2","14.44","301.8","NAN","NAN","NAN","NAN","NAN"],
    [1541624,"2026-02-19 10:20:00","42614","6.898","305.2","12.74","288.7","NAN","NAN","NAN","NAN","NAN"],
    [1541625,"2026-02-19 10:30:00","42615","6.17","304.9","10.94","326.1","NAN","NAN","NAN","NAN","NAN"],
    [1541626,"2026-02-19 10:40:00","42616","7.7010000000000005","297.7","13.43","303.1","NAN","NAN","NAN","NAN","NAN"],
    [1541627,"2026-02-19 10:50:00","42617","6.372999999999999","306.4","12.77","322.5","NAN","NAN","NAN","NAN","NAN"],
    [1541628,"2026-02-19 11:00:00","42618","6.781000000000001","306.3","10.65","303.1","NAN","NAN","NAN","NAN","NAN"],
    [1541629,"2026-02-19 11:10:00","42619","7.178","307.5","12.32","317.3","NAN","NAN","NAN","NAN","NAN"],
    [1541630,"2026-02-19 11:20:00","42620","6.7379999999999995","308.7","13.07","309.3","NAN","NAN","NAN","NAN","NAN"],
    [1541631,"2026-02-19 11:30:00","42621","7.77","309.2","12.48","298.6","NAN","NAN","NAN","NAN","NAN"],
    [1541632,"2026-02-19 11:40:00","42622","7.16","309.6","12.02","323.3","NAN","NAN","NAN","NAN","NAN"],
    [1541633,"2026-02-19 11:50:00","42623","6.617999999999999","305.8","12.41","295.5","NAN","NAN","NAN","NAN","NAN"],
    [1541634,"2026-02-19 12:00:00","42624","8.15","304.2","15.35","309.5","NAN","NAN","NAN","NAN","NAN"],
    [1541635,"2026-02-19 12:10:00","42625","9.06","299.0","12.71","303.6","NAN","NAN","NAN","NAN","NAN"],
    [1541636,"2026-02-19 12:20:00","42626","8.73","300.5","13.72","300.5","NAN","NAN","NAN","NAN","NAN"],
    [1541637,"2026-02-19 12:30:00","42627","7.845","296.5","14.44","295.4","NAN","NAN","NAN","NAN","NAN"],
    [1541638,"2026-02-19 12:40:00","42628","7.98","293.9","12.71","298.3","NAN","NAN","NAN","NAN","NAN"],
    [1541639,"2026-02-19 12:50:00","42629","8.71","292.9","13.92","293.2","NAN","NAN","NAN","NAN","NAN"],
    [1541640,"2026-02-19 13:00:00","42630","8.14","291.6","13.39","315","NAN","NAN","NAN","NAN","NAN"],
    [1541641,"2026-02-19 13:10:00","42631","7.237","293.8","11.34","310","NAN","NAN","NAN","NAN","NAN"],
    [1541642,"2026-02-19 13:20:00","42632","5.152","306.5","9.15","314.2","NAN","NAN","NAN","NAN","NAN"],
    [1541643,"2026-02-19 13:30:00","42633","6.004","296.8","11.04","291.6","NAN","NAN","NAN","NAN","NAN"],
    [1541644,"2026-02-19 13:40:00","42634","6.215","291.9","11.96","286.2","NAN","NAN","NAN","NAN","NAN"],
    [1541645,"2026-02-19 13:50:00","42635","6.511","288.8","10.42","290.4","NAN","NAN","NAN","NAN","NAN"],
    [1541646,"2026-02-19 14:00:00","42636","6.362","290.0","10.85","284.7","NAN","NAN","NAN","NAN","NAN"],
    [1541647,"2026-02-19 14:10:00","42637","5.731","279.5","9.93","274.3","NAN","NAN","NAN","NAN","NAN"],
    [1541648,"2026-02-19 14:20:00","42638","6.294","281.1","11.17","286.9","NAN","NAN","NAN","NAN","NAN"],
    [1541649,"2026-02-19 14:30:00","42639","5.971","288.0","12.02","299.5","NAN","NAN","NAN","NAN","NAN"],
    [1541650,"2026-02-19 14:40:00","42640","6.6129999999999995","288.0","11.6","285.3","NAN","NAN","NAN","NAN","NAN"],
    [1541651,"2026-02-19 14:50:00","42641","6.515","291.2","11.86","301.5","NAN","NAN","NAN","NAN","NAN"],
    [1541652,"2026-02-19 15:00:00","42642","6.271","290.2","11.53","304.2","NAN","NAN","NAN","NAN","NAN"],
    [1541653,"2026-02-19 15:10:00","42643","5.836","283.4","11.3","279.9","NAN","NAN","NAN","NAN","NAN"],
    [1541654,"2026-02-19 15:20:00","42644","4.73","293.7","11.53","304.7","NAN","NAN","NAN","NAN","NAN"],
    [1541655,"2026-02-19 15:30:00","42645","5.807","293.3","10.81","302.2","NAN","NAN","NAN","NAN","NAN"],
    [1541656,"2026-02-19 15:40:00","42646","8.39","293.3","14.01","292.1","NAN","NAN","NAN","NAN","NAN"],
    [1541657,"2026-02-19 15:50:00","42647","6.957000000000001","287.9","12.58","268","NAN","NAN","NAN","NAN","NAN"],
    [1541658,"2026-02-19 16:00:00","42648","7.082999999999999","286.6","11.53","267.3","NAN","NAN","NAN","NAN","NAN"],
    [1541659,"2026-02-19 16:10:00","42649","8.24","291.6","14.05","293.4","NAN","NAN","NAN","NAN","NAN"],
    [1541660,"2026-02-19 16:20:00","42650","7.252999999999999","295.7","13","306.1","NAN","NAN","NAN","NAN","NAN"],
    [1541661,"2026-02-19 16:30:00","42651","5.2860000000000005","288.2","10.98","307.3","NAN","NAN","NAN","NAN","NAN"],
    [1541662,"2026-02-19 16:40:00","42652","6.0089999999999995","286.3","12.87","275","NAN","NAN","NAN","NAN","NAN"],
    [1541663,"2026-02-19 16:50:00","42653","5.837999999999999","292.0","11.04","282.6","NAN","NAN","NAN","NAN","NAN"],
    [1541664,"2026-02-19 17:00:00","42654","5.534","294.1","9.93","301.8","NAN","NAN","NAN","NAN","NAN"],
    [1541665,"2026-02-19 17:10:00","42655","6.322","292.1","12.58","297.7","NAN","NAN","NAN","NAN","NAN"],
    [1541666,"2026-02-19 17:20:00","42656","6.188","291.5","10.42","294","NAN","NAN","NAN","NAN","NAN"],
    [1541667,"2026-02-19 17:30:00","42657","6.9270000000000005","289.7","12.28","270.7","NAN","NAN","NAN","NAN","NAN"],
    [1541668,"2026-02-19 17:40:00","42658","6.4110000000000005","285.6","11.6","290.4","NAN","NAN","NAN","NAN","NAN"],
    [1541669,"2026-02-19 17:50:00","42659","6.164","290.3","10.62","270.7","NAN","NAN","NAN","NAN","NAN"],
    [1541670,"2026-02-19 18:00:00","42660","5.945","287.5","10.75","298.3","NAN","NAN","NAN","NAN","NAN"],
    [1541671,"2026-02-19 18:10:00","42661","6.075","291.2","9.64","302.7","NAN","NAN","NAN","NAN","NAN"],
    [1541672,"2026-02-19 18:20:00","42662","6.7589999999999995","293.6","14.01","292.3","NAN","NAN","NAN","NAN","NAN"],
    [1541673,"2026-02-19 18:30:00","42663","6.194","295.0","11.5","295.5","NAN","NAN","NAN","NAN","NAN"],
    [1541674,"2026-02-19 18:40:00","42664","5.997999999999999","293.9","12.12","286.5","NAN","NAN","NAN","NAN","NAN"],
    [1541675,"2026-02-19 18:50:00","42665","5.077","288.3","9.31","305.3","NAN","NAN","NAN","NAN","NAN"],
    [1541676,"2026-02-19 19:00:00","42666","5.542999999999999","285.0","10.09","271.6","NAN","NAN","NAN","NAN","NAN"],
    [1541677,"2026-02-19 19:10:00","42667","6.432","281.3","12.38","270","NAN","NAN","NAN","NAN","NAN"],
    [1541678,"2026-02-19 19:20:00","42668","3.9530000000000003","278.7","8.26","279.8","NAN","NAN","NAN","NAN","NAN"],
    [1541679,"2026-02-19 19:30:00","42669","3.384","277.1","6.076","280.8","NAN","NAN","NAN","NAN","NAN"],
    [1541680,"2026-02-19 19:40:00","42670","3.873","280.7","7.154","300.8","NAN","NAN","NAN","NAN","NAN"],
    [1541681,"2026-02-19 19:50:00","42671","3.4410000000000003","280.8","6.925","325.3","NAN","NAN","NAN","NAN","NAN"],
    [1541682,"2026-02-19 20:00:00","42672","2.872","290.1","5.129","288.6","NAN","NAN","NAN","NAN","NAN"],
    [1541683,"2026-02-19 20:10:00","42673","4.198","288.9","7.219","297.8","NAN","NAN","NAN","NAN","NAN"],
    [1541684,"2026-02-19 20:20:00","42674","2.5789999999999997","297.7","5.717","309.6","NAN","NAN","NAN","NAN","NAN"],
    [1541685,"2026-02-19 20:30:00","42675","0.77","292.1","3.038","300.8","NAN","NAN","NAN","NAN","NAN"],
    [1541686,"2026-02-19 20:40:00","42676","1.962","263.2","4.704","317.2","NAN","NAN","NAN","NAN","NAN"],
    [1541687,"2026-02-19 20:50:00","42677","1.9969999999999999","257.3","3.757","263.3","NAN","NAN","NAN","NAN","NAN"],
    [1541688,"2026-02-19 21:00:00","42678","2.522","265.0","4.475","274.9","NAN","NAN","NAN","NAN","NAN"],
    [1541689,"2026-02-19 21:10:00","42679","2.294","264.0","4.214","276.1","NAN","NAN","NAN","NAN","NAN"],
    [1541690,"2026-02-19 21:20:00","42680","3.4810000000000003","277.8","7.415","294.5","NAN","NAN","NAN","NAN","NAN"],
    [1541691,"2026-02-19 21:30:00","42681","5.1370000000000005","283.7","8.79","294.6","NAN","NAN","NAN","NAN","NAN"],
    [1541692,"2026-02-19 21:40:00","42682","4.746","291.0","8.04","291.5","NAN","NAN","NAN","NAN","NAN"],
    [1541693,"2026-02-19 21:50:00","42683","4.785","294.8","8.56","287.9","NAN","NAN","NAN","NAN","NAN"],
    [1541694,"2026-02-19 22:00:00","42684","4.118","291.2","6.729","289.4","NAN","NAN","NAN","NAN","NAN"],
    [1541695,"2026-02-19 22:10:00","42685","3.475","288.6","5.684","290.6","NAN","NAN","NAN","NAN","NAN"],
    [1541696,"2026-02-19 22:20:00","42686","2.911","283.6","5.521","287.1","NAN","NAN","NAN","NAN","NAN"],
    [1541697,"2026-02-19 22:30:00","42687","2.124","271.0","4.737","314.8","NAN","NAN","NAN","NAN","NAN"],
    [1541698,"2026-02-19 22:40:00","42688","2.89","276.8","7.121","308.1","NAN","NAN","NAN","NAN","NAN"],
    [1541699,"2026-02-19 22:50:00","42689","4.112","289.1","7.807","304.7","NAN","NAN","NAN","NAN","NAN"],
    [1541700,"2026-02-19 23:00:00","42690","4.079","299.2","9.83","269.4","NAN","NAN","NAN","NAN","NAN"],
    [1541701,"2026-02-19 23:10:00","42691","5.882000000000001","305.3","11.3","313.8","NAN","NAN","NAN","NAN","NAN"],
    [1541702,"2026-02-19 23:20:00","42692","5.2139999999999995","311.6","9.77","320.2","NAN","NAN","NAN","NAN","NAN"],
    [1541703,"2026-02-19 23:30:00","42693","5.239","304.0","10.81","313.9","NAN","NAN","NAN","NAN","NAN"],
    [1541704,"2026-02-19 23:40:00","42694","4.975","301.2","9.57","322.2","NAN","NAN","NAN","NAN","NAN"],
    [1541705,"2026-02-19 23:50:00","42695","5.684","299.5","10.19","288.5","NAN","NAN","NAN","NAN","NAN"],
    [1541706,"2026-02-20 00:00:00","42696","6.318","300.6","11.76","302.1","NAN","NAN","NAN","NAN","NAN"],
    [1541707,"2026-02-20 00:10:00","42697","7.117999999999999","302.5","12.05","277.1","NAN","NAN","NAN","NAN","NAN"],
    [1541708,"2026-02-20 00:20:00","42698","7.242999999999999","306.2","11.63","306.5","NAN","NAN","NAN","NAN","NAN"],
    [1541709,"2026-02-20 00:30:00","42699","7.577000000000001","308.9","12.77","325.8","NAN","NAN","NAN","NAN","NAN"],
    [1541710,"2026-02-20 00:40:00","42700","6.683","311.2","12.64","312.5","NAN","NAN","NAN","NAN","NAN"],
    [1541711,"2026-02-20 00:50:00","42701","6.6339999999999995","315.8","11.04","330.3","NAN","NAN","NAN","NAN","NAN"],
    [1541712,"2026-02-20 01:00:00","42702","7.16","317.9","13.03","342.2","NAN","NAN","NAN","NAN","NAN"],
    [1541713,"2026-02-20 01:10:00","42703","7.4639999999999995","312.8","13.16","308.1","NAN","NAN","NAN","NAN","NAN"],
    [1541714,"2026-02-20 01:20:00","42704","6.6370000000000005","315.3","11.17","312.3","NAN","NAN","NAN","NAN","NAN"],
    [1541715,"2026-02-20 01:30:00","42705","6.531000000000001","316.4","13.23","323","NAN","NAN","NAN","NAN","NAN"],
    [1541716,"2026-02-20 01:40:00","42706","7.095","315.8","13.62","322.2","NAN","NAN","NAN","NAN","NAN"],
    [1541717,"2026-02-20 01:50:00","42707","7.063","315.6","12.67","308.5","NAN","NAN","NAN","NAN","NAN"],
    [1541718,"2026-02-20 02:00:00","42708","7.1129999999999995","317.2","12.18","327.8","NAN","NAN","NAN","NAN","NAN"],
    [1541719,"2026-02-20 02:10:00","42709","7.277","318.3","13.39","303.2","NAN","NAN","NAN","NAN","NAN"],
    [1541720,"2026-02-20 02:20:00","42710","6.683","316.5","11.73","306.7","NAN","NAN","NAN","NAN","NAN"],
    [1541721,"2026-02-20 02:30:00","42711","7.636","315.1","14.05","302.8","NAN","NAN","NAN","NAN","NAN"],
    [1541722,"2026-02-20 02:40:00","42712","7.976","318.5","13.3","300.6","NAN","NAN","NAN","NAN","NAN"],
    [1541723,"2026-02-20 02:50:00","42713","7.996","319.6","14.63","321.2","NAN","NAN","NAN","NAN","NAN"],
    [1541724,"2026-02-20 03:00:00","42714","6.707000000000001","315.5","12.38","327.6","NAN","NAN","NAN","NAN","NAN"],
    [1541725,"2026-02-20 03:10:00","42715","7.0760000000000005","318.0","11.63","325.2","NAN","NAN","NAN","NAN","NAN"],
    [1541726,"2026-02-20 03:20:00","42716","6.364","318.5","11.14","335.8","NAN","NAN","NAN","NAN","NAN"],
    [1541727,"2026-02-20 03:30:00","42717","6.077000000000001","318.3","9.73","329.5","NAN","NAN","NAN","NAN","NAN"],
    [1541728,"2026-02-20 03:40:00","42718","6.041","319.3","11.34","319.3","NAN","NAN","NAN","NAN","NAN"],
    [1541729,"2026-02-20 03:50:00","42719","7.216","322.5","11.99","316.1","NAN","NAN","NAN","NAN","NAN"],
    [1541730,"2026-02-20 04:00:00","42720","6.301","322.5","10.13","323.5","NAN","NAN","NAN","NAN","NAN"],
    [1541731,"2026-02-20 04:10:00","42721","4.901","324.1","9.67","331.7","NAN","NAN","NAN","NAN","NAN"],
    [1541732,"2026-02-20 04:20:00","42722","4.084","318.4","7.317","317","NAN","NAN","NAN","NAN","NAN"],
    [1541733,"2026-02-20 04:30:00","42723","4.74","310.7","8.53","310.5","NAN","NAN","NAN","NAN","NAN"],
    [1541734,"2026-02-20 04:40:00","42724","5.146","321.7","8.98","307.1","NAN","NAN","NAN","NAN","NAN"],
    [1541735,"2026-02-20 04:50:00","42725","5.465","316.5","10.45","311.8","NAN","NAN","NAN","NAN","NAN"],
    [1541736,"2026-02-20 05:00:00","42726","5.477","319.7","10.58","314.6","NAN","NAN","NAN","NAN","NAN"],
    [1541737,"2026-02-20 05:10:00","42727","5.2","314.2","9.54","317.4","NAN","NAN","NAN","NAN","NAN"],
    [1541738,"2026-02-20 05:20:00","42728","5.978","315.9","10.81","328","NAN","NAN","NAN","NAN","NAN"],
    [1541739,"2026-02-20 05:30:00","42729","5.239","317.4","10.06","317.7","NAN","NAN","NAN","NAN","NAN"],
    [1541740,"2026-02-20 05:40:00","42730","4.968","314.3","9.7","318.1","NAN","NAN","NAN","NAN","NAN"],
    [1541741,"2026-02-20 05:50:00","42731","5.63","319.8","10.29","301.6","NAN","NAN","NAN","NAN","NAN"],
    [1541742,"2026-02-20 06:00:00","42732","3.3139999999999996","316.4","6.893","324.5","NAN","NAN","NAN","NAN","NAN"],
    [1541743,"2026-02-20 06:10:00","42733","3.699","305.7","6.207","319.1","NAN","NAN","NAN","NAN","NAN"],
    [1541744,"2026-02-20 06:20:00","42734","3.68","312.8","7.154","315.8","NAN","NAN","NAN","NAN","NAN"],
    [1541745,"2026-02-20 06:30:00","42735","1.6769999999999998","332.3","4.573","309.9","NAN","NAN","NAN","NAN","NAN"],
    [1541746,"2026-02-20 06:40:00","42736","2.024","312.3","4.377","282.4","NAN","NAN","NAN","NAN","NAN"],
    [1541747,"2026-02-20 06:50:00","42737","3.1069999999999998","324.1","5.749","312.1","NAN","NAN","NAN","NAN","NAN"],
    [1541748,"2026-02-20 07:00:00","42738","3.534","313.3","6.435","302.7","NAN","NAN","NAN","NAN","NAN"],
    [1541749,"2026-02-20 07:10:00","42739","3.127","306.4","5.488","304.4","NAN","NAN","NAN","NAN","NAN"],
    [1541750,"2026-02-20 07:20:00","42740","3.65","303.3","5.455","303.3","NAN","NAN","NAN","NAN","NAN"],
    [1541751,"2026-02-20 07:30:00","42741","3.488","314.5","5.521","326.8","NAN","NAN","NAN","NAN","NAN"],
    [1541752,"2026-02-20 07:40:00","42742","3.759","316.8","6.305","315.6","NAN","NAN","NAN","NAN","NAN"],
    [1541753,"2026-02-20 07:50:00","42743","3.181","311.6","4.998","301.5","NAN","NAN","NAN","NAN","NAN"],
    [1541754,"2026-02-20 08:00:00","42744","2.966","310.2","5.194","312.7","NAN","NAN","NAN","NAN","NAN"],
    [1541755,"2026-02-20 08:10:00","42745","2.2880000000000003","316.4","4.443","320.5","NAN","NAN","NAN","NAN","NAN"],
    [1541756,"2026-02-20 08:20:00","42746","2.8569999999999998","319.8","6.827","318.6","NAN","NAN","NAN","NAN","NAN"],
    [1541757,"2026-02-20 08:30:00","42747","3.608","314.1","6.468","319.7","NAN","NAN","NAN","NAN","NAN"],
    [1541758,"2026-02-20 08:40:00","42748","3.617","316.6","7.546","331.4","NAN","NAN","NAN","NAN","NAN"],
    [1541759,"2026-02-20 08:50:00","42749","3.182","309.4","5.063","314.1","NAN","NAN","NAN","NAN","NAN"],
    [1541760,"2026-02-20 09:00:00","42750","3.6489999999999996","316.4","5.945","304.2","NAN","NAN","NAN","NAN","NAN"],
    [1541761,"2026-02-20 09:10:00","42751","3.799","325.0","5.749","331","NAN","NAN","NAN","NAN","NAN"],
    [1541762,"2026-02-20 09:20:00","42752","4.637","326.5","7.35","330.3","NAN","NAN","NAN","NAN","NAN"],
    [1541763,"2026-02-20 09:30:00","42753","4.066","332.0","7.579","330.7","NAN","NAN","NAN","NAN","NAN"],
    [1541764,"2026-02-20 09:40:00","42754","4.074","322.1","6.109","324.3","NAN","NAN","NAN","NAN","NAN"],
    [1541765,"2026-02-20 09:50:00","42755","4.08","319.0","6.109","311.9","NAN","NAN","NAN","NAN","NAN"],
    [1541766,"2026-02-20 10:00:00","42756","4.869","328.7","7.611","328.2","NAN","NAN","NAN","NAN","NAN"],
    [1541767,"2026-02-20 10:10:00","42757","4.104","307.8","6.729","304.3","NAN","NAN","NAN","NAN","NAN"],
    [1541768,"2026-02-20 10:20:00","42758","4.4239999999999995","310.1","6.762","302.4","NAN","NAN","NAN","NAN","NAN"],
    [1541769,"2026-02-20 10:30:00","42759","4.167","327.1","6.599","323","NAN","NAN","NAN","NAN","NAN"],
    [1541770,"2026-02-20 10:40:00","42760","3.483","324.1","5.357","315.8","NAN","NAN","NAN","NAN","NAN"],
    [1541771,"2026-02-20 10:50:00","42761","3.8819999999999997","303.0","6.174","293.3","NAN","NAN","NAN","NAN","NAN"],
    [1541772,"2026-02-20 11:00:00","42762","4.3389999999999995","296.5","6.501","301.2","NAN","NAN","NAN","NAN","NAN"],
    [1541773,"2026-02-20 11:10:00","42763","3.7769999999999997","314.3","6.272","300.5","NAN","NAN","NAN","NAN","NAN"],
    [1541774,"2026-02-20 11:20:00","42764","3.03","336.4","5.227","323.2","NAN","NAN","NAN","NAN","NAN"],
    [1541775,"2026-02-20 11:30:00","42765","3.431","339.0","6.501","325.1","NAN","NAN","NAN","NAN","NAN"],
    [1541776,"2026-02-20 11:40:00","42766","3.15","337.1","6.174","327","NAN","NAN","NAN","NAN","NAN"],
    [1541777,"2026-02-20 11:50:00","42767","3.514","7.936","6.109","21.82","NAN","NAN","NAN","NAN","NAN"],
    [1541778,"2026-02-20 12:00:00","42768","4.016","4.311","7.219","1.074","NAN","NAN","NAN","NAN","NAN"],
    [1541779,"2026-02-20 12:10:00","42769","3.8110000000000004","6.983","6.337","24.46","NAN","NAN","NAN","NAN","NAN"],
    [1541780,"2026-02-20 12:20:00","42770","3.9739999999999998","347.8","6.827","8.07","NAN","NAN","NAN","NAN","NAN"],
    [1541781,"2026-02-20 12:30:00","42771","4.209","323.4","6.533","321.4","NAN","NAN","NAN","NAN","NAN"],
    [1541782,"2026-02-20 12:40:00","42772","3.139","316.5","5.586","325.5","NAN","NAN","NAN","NAN","NAN"],
    [1541783,"2026-02-20 12:50:00","42773","3.3489999999999998","345.3","6.37","325.4","NAN","NAN","NAN","NAN","NAN"],
    [1541784,"2026-02-20 13:00:00","42774","2.9160000000000004","317.3","5.259","304","NAN","NAN","NAN","NAN","NAN"],
    [1541785,"2026-02-20 13:10:00","42775","2.7680000000000002","314.6","6.011","303","NAN","NAN","NAN","NAN","NAN"],
    [1541786,"2026-02-20 13:20:00","42776","4.115","317.8","7.056","328.8","NAN","NAN","NAN","NAN","NAN"],
    [1541787,"2026-02-20 13:30:00","42777","4.258","325.3","7.546","329.7","NAN","NAN","NAN","NAN","NAN"],
    [1541788,"2026-02-20 13:40:00","42778","4.2780000000000005","334.9","7.448","333.3","NAN","NAN","NAN","NAN","NAN"],
    [1541789,"2026-02-20 13:50:00","42779","3.991","330.9","7.513","327.1","NAN","NAN","NAN","NAN","NAN"],
    [1541790,"2026-02-20 14:00:00","42780","3.717","315.3","5.553","324","NAN","NAN","NAN","NAN","NAN"],
    [1541791,"2026-02-20 14:10:00","42781","5.124","319.4","8.56","330","NAN","NAN","NAN","NAN","NAN"],
    [1541792,"2026-02-20 14:20:00","42782","5.0569999999999995","327.0","7.448","327.1","NAN","NAN","NAN","NAN","NAN"],
    [1541793,"2026-02-20 14:30:00","42783","3.9539999999999997","313.0","6.533","311.6","NAN","NAN","NAN","NAN","NAN"],
    [1541794,"2026-02-20 14:40:00","42784","3.82","320.4","6.403","327.1","NAN","NAN","NAN","NAN","NAN"],
    [1541795,"2026-02-20 14:50:00","42785","3.235","318.7","5.553","327.8","NAN","NAN","NAN","NAN","NAN"],
    [1541796,"2026-02-20 15:00:00","42786","3.636","315.7","5.455","311.2","NAN","NAN","NAN","NAN","NAN"],
    [1541797,"2026-02-20 15:10:00","42787","3.159","332.4","4.704","336.5","NAN","NAN","NAN","NAN","NAN"],
    [1541798,"2026-02-20 15:20:00","42788","2.577","320.9","4.018","325.7","NAN","NAN","NAN","NAN","NAN"],
    [1541799,"2026-02-20 15:30:00","42789","2.4219999999999997","304.1","4.247","313","NAN","NAN","NAN","NAN","NAN"],
    [1541800,"2026-02-20 15:40:00","42790","2.401","307.9","3.887","332.2","NAN","NAN","NAN","NAN","NAN"],
    [1541801,"2026-02-20 15:50:00","42791","1.944","260.9","4.867","313.7","NAN","NAN","NAN","NAN","NAN"],
    [1541802,"2026-02-20 16:00:00","42792","1.64","238.3","3.005","249.9","NAN","NAN","NAN","NAN","NAN"],
    [1541803,"2026-02-20 16:10:00","42793","1.901","228.4","3.332","229.5","NAN","NAN","NAN","NAN","NAN"],
    [1541804,"2026-02-20 16:20:00","42794","1.518","223.8","3.136","223.8","NAN","NAN","NAN","NAN","NAN"],
    [1541805,"2026-02-20 16:30:00","42795","1.5190000000000001","222.9","2.385","222.9","NAN","NAN","NAN","NAN","NAN"],
    [1541806,"2026-02-20 16:40:00","42796","2.002","222.0","4.018","221.4","NAN","NAN","NAN","NAN","NAN"],
    [1541807,"2026-02-20 16:50:00","42797","2.0269999999999997","219.6","3.169","220.2","NAN","NAN","NAN","NAN","NAN"],
    [1541808,"2026-02-20 17:00:00","42798","1.521","219.1","2.973","219.1","NAN","NAN","NAN","NAN","NAN"],
    [1541809,"2026-02-20 17:10:00","42799","1.401","218.9","3.071","219","NAN","NAN","NAN","NAN","NAN"],
    [1541810,"2026-02-20 17:20:00","42800","0.716","218.8","2.809","218.8","NAN","NAN","NAN","NAN","NAN"],
    [1541811,"2026-02-20 17:30:00","42801","0.028999999999999998","218.7","0.555","218.7","NAN","NAN","NAN","NAN","NAN"],
    [1541812,"2026-02-20 17:40:00","42802","0.11900000000000001","218.7","1.405","218.7","NAN","NAN","NAN","NAN","NAN"],
    [1541813,"2026-02-20 17:50:00","42803","0.644","218.7","1.993","218.7","NAN","NAN","NAN","NAN","NAN"],
    [1541814,"2026-02-20 18:00:00","42804","0.121","219.7","0.784","219.2","NAN","NAN","NAN","NAN","NAN"],
    [1541815,"2026-02-20 18:10:00","42805","0.0","0.0","0","0","NAN","NAN","NAN","NAN","NAN"],
    [1541816,"2026-02-20 18:20:00","42806","0.084","218.7","0.686","218.7","NAN","NAN","NAN","NAN","NAN"],
    [1541817,"2026-02-20 18:30:00","42807","0.575","218.6","1.601","218.5","NAN","NAN","NAN","NAN","NAN"],
    [1541818,"2026-02-20 18:40:00","42808","1.245","215.3","2.483","215.1","NAN","NAN","NAN","NAN","NAN"],
    [1541819,"2026-02-20 18:50:00","42809","0.841","211.5","1.895","211.5","NAN","NAN","NAN","NAN","NAN"],
    [1541820,"2026-02-20 19:00:00","42810","0.9420000000000001","210.3","2.091","210.3","NAN","NAN","NAN","NAN","NAN"],
    [1541821,"2026-02-20 19:10:00","42811","0.5670000000000001","209.4","1.601","209.5","NAN","NAN","NAN","NAN","NAN"],
    [1541822,"2026-02-20 19:20:00","42812","0.304","209.4","1.111","209.4","NAN","NAN","NAN","NAN","NAN"],
    [1541823,"2026-02-20 19:30:00","42813","0.33799999999999997","209.4","1.111","209.4","NAN","NAN","NAN","NAN","NAN"],
    [1541824,"2026-02-20 19:40:00","42814","0.154","209.2","0.98","209.2","NAN","NAN","NAN","NAN","NAN"],
    [1541825,"2026-02-20 19:50:00","42815","0.27","209.0","0.882","209","NAN","NAN","NAN","NAN","NAN"],
    [1541826,"2026-02-20 20:00:00","42816","0.991","209.8","1.862","212.2","NAN","NAN","NAN","NAN","NAN"],
    [1541827,"2026-02-20 20:10:00","42817","0.43799999999999994","217.5","1.666","217.1","NAN","NAN","NAN","NAN","NAN"],
    [1541828,"2026-02-20 20:20:00","42818","0.494","222.6","1.274","222.5","NAN","NAN","NAN","NAN","NAN"],
    [1541829,"2026-02-20 20:30:00","42819","0.01","222.8","0.425","222.8","NAN","NAN","NAN","NAN","NAN"],
    [1541830,"2026-02-20 20:40:00","42820","0.008","222.9","0.392","222.9","NAN","NAN","NAN","NAN","NAN"],
    [1541831,"2026-02-20 20:50:00","42821","0.259","223.0","1.274","223.2","NAN","NAN","NAN","NAN","NAN"],
    [1541832,"2026-02-20 21:00:00","42822","0.449","224.1","1.241","224.9","NAN","NAN","NAN","NAN","NAN"],
    [1541833,"2026-02-20 21:10:00","42823","0.213","225.5","1.111","225.5","NAN","NAN","NAN","NAN","NAN"],
    [1541834,"2026-02-20 21:20:00","42824","0.006999999999999999","226.5","0.229","226.6","NAN","NAN","NAN","NAN","NAN"],
    [1541835,"2026-02-20 21:30:00","42825","0.004","226.6","0.261","226.6","NAN","NAN","NAN","NAN","NAN"],
    [1541836,"2026-02-20 21:40:00","42826","0.051","226.7","0.947","226.7","NAN","NAN","NAN","NAN","NAN"],
    [1541837,"2026-02-20 21:50:00","42827","0.439","226.8","1.339","226.8","NAN","NAN","NAN","NAN","NAN"],
    [1541838,"2026-02-20 22:00:00","42828","0.0","0.0","0","0","NAN","NAN","NAN","NAN","NAN"],
    [1541839,"2026-02-20 22:10:00","42829","0.311","228.1","1.045","229.3","NAN","NAN","NAN","NAN","NAN"],
    [1541840,"2026-02-20 22:20:00","42830","0.9790000000000001","230.3","1.633","230.3","NAN","NAN","NAN","NAN","NAN"],
    [1541841,"2026-02-20 22:30:00","42831","0.765","230.4","1.47","230.4","NAN","NAN","NAN","NAN","NAN"],
    [1541842,"2026-02-20 22:40:00","42832","0.467","230.4","1.111","230.4","NAN","NAN","NAN","NAN","NAN"],
    [1541843,"2026-02-20 22:50:00","42833","0.294","230.8","1.405","230.5","NAN","NAN","NAN","NAN","NAN"],
    [1541844,"2026-02-20 23:00:00","42834","1.776","326.0","4.737","321.1","NAN","NAN","NAN","NAN","NAN"],
    [1541845,"2026-02-20 23:10:00","42835","4.635","329.8","7.089","330.1","NAN","NAN","NAN","NAN","NAN"],
    [1541846,"2026-02-20 23:20:00","42836","2.634","320.9","5.063","331.4","NAN","NAN","NAN","NAN","NAN"],
    [1541847,"2026-02-20 23:30:00","42837","4.251","320.5","8.07","330.9","NAN","NAN","NAN","NAN","NAN"],
    [1541848,"2026-02-20 23:40:00","42838","5.537999999999999","325.2","8.1","325","NAN","NAN","NAN","NAN","NAN"],
    [1541849,"2026-02-20 23:50:00","42839","4.183","324.1","6.533","319.1","NAN","NAN","NAN","NAN","NAN"],
    [1541850,"2026-02-21 00:00:00","42840","3.8110000000000004","324.8","6.533","325.8","NAN","NAN","NAN","NAN","NAN"],
    [1541851,"2026-02-21 00:10:00","42841","4.434","325.6","6.631","325.1","NAN","NAN","NAN","NAN","NAN"],
    [1541852,"2026-02-21 00:20:00","42842","3.728","319.7","6.827","325.8","NAN","NAN","NAN","NAN","NAN"],
    [1541853,"2026-02-21 00:30:00","42843","3.3280000000000003","323.2","6.468","327.2","NAN","NAN","NAN","NAN","NAN"],
    [1541854,"2026-02-21 00:40:00","42844","5.968","328.5","8.82","323.2","NAN","NAN","NAN","NAN","NAN"],
    [1541855,"2026-02-21 00:50:00","42845","5.261","330.9","8.3","330.5","NAN","NAN","NAN","NAN","NAN"],
    [1541856,"2026-02-21 01:00:00","42846","6.091","328.0","9.05","330.5","NAN","NAN","NAN","NAN","NAN"],
    [1541857,"2026-02-21 01:10:00","42847","5.977","328.5","9.67","314.4","NAN","NAN","NAN","NAN","NAN"],
    [1541858,"2026-02-21 01:20:00","42848","5.688","327.0","8.56","327.6","NAN","NAN","NAN","NAN","NAN"],
    [1541859,"2026-02-21 01:30:00","42849","5.236000000000001","320.7","8.59","324.5","NAN","NAN","NAN","NAN","NAN"],
    [1541860,"2026-02-21 01:40:00","42850","4.328","318.3","7.285","316.9","NAN","NAN","NAN","NAN","NAN"],
    [1541861,"2026-02-21 01:50:00","42851","4.018","319.6","6.501","321.6","NAN","NAN","NAN","NAN","NAN"],
    [1541862,"2026-02-21 02:00:00","42852","4.05","311.5","8.72","320","NAN","NAN","NAN","NAN","NAN"],
    [1541863,"2026-02-21 02:10:00","42853","4.247","313.4","6.566","307.7","NAN","NAN","NAN","NAN","NAN"],
    [1541864,"2026-02-21 02:20:00","42854","4.702","318.5","8.43","322.6","NAN","NAN","NAN","NAN","NAN"],
    [1541865,"2026-02-21 02:30:00","42855","4.168","309.5","6.795","325.8","NAN","NAN","NAN","NAN","NAN"],
    [1541866,"2026-02-21 02:40:00","42856","3.713","308.8","6.697","304.4","NAN","NAN","NAN","NAN","NAN"],
    [1541867,"2026-02-21 02:50:00","42857","3.615","296.4","5.39","313.8","NAN","NAN","NAN","NAN","NAN"],
    [1541868,"2026-02-21 03:00:00","42858","2.823","300.6","4.835","308.3","NAN","NAN","NAN","NAN","NAN"],
    [1541869,"2026-02-21 03:10:00","42859","1.945","311.8","4.475","307.5","NAN","NAN","NAN","NAN","NAN"],
    [1541870,"2026-02-21 03:20:00","42860","3.498","322.9","5.39","335","NAN","NAN","NAN","NAN","NAN"],
    [1541871,"2026-02-21 03:30:00","42861","3.28","322.2","5.847","320","NAN","NAN","NAN","NAN","NAN"],
    [1541872,"2026-02-21 03:40:00","42862","2.6430000000000002","313.3","4.247","311","NAN","NAN","NAN","NAN","NAN"],
    [1541873,"2026-02-21 03:50:00","42863","2.39","310.6","3.593","330.3","NAN","NAN","NAN","NAN","NAN"],
    [1541874,"2026-02-21 04:00:00","42864","2.907","319.8","4.704","330","NAN","NAN","NAN","NAN","NAN"],
    [1541875,"2026-02-21 04:10:00","42865","3.2460000000000004","327.1","4.933","331.5","NAN","NAN","NAN","NAN","NAN"],
    [1541876,"2026-02-21 04:20:00","42866","3.2510000000000003","326.8","5.325","336.1","NAN","NAN","NAN","NAN","NAN"],
    [1541877,"2026-02-21 04:30:00","42867","4.269","328.5","6.697","328.8","NAN","NAN","NAN","NAN","NAN"],
    [1541878,"2026-02-21 04:40:00","42868","3.682","324.5","6.011","328.4","NAN","NAN","NAN","NAN","NAN"],
    [1541879,"2026-02-21 04:50:00","42869","3.1839999999999997","320.7","5.488","333.5","NAN","NAN","NAN","NAN","NAN"],
    [1541880,"2026-02-21 05:00:00","42870","2.819","313.5","4.573","325.5","NAN","NAN","NAN","NAN","NAN"],
    [1541881,"2026-02-21 05:10:00","42871","2.412","297.4","4.835","298.3","NAN","NAN","NAN","NAN","NAN"],
    [1541882,"2026-02-21 05:20:00","42872","2.375","279.9","3.593","279.9","NAN","NAN","NAN","NAN","NAN"],
    [1541883,"2026-02-21 05:30:00","42873","2.748","293.5","4.051","293.4","NAN","NAN","NAN","NAN","NAN"],
    [1541884,"2026-02-21 05:40:00","42874","2.92","315.1","5.651","321.5","NAN","NAN","NAN","NAN","NAN"],
    [1541885,"2026-02-21 05:50:00","42875","4.101","324.3","6.795","314.4","NAN","NAN","NAN","NAN","NAN"],
    [1541886,"2026-02-21 06:00:00","42876","2.499","311.5","4.639","314.4","NAN","NAN","NAN","NAN","NAN"],
    [1541887,"2026-02-21 06:10:00","42877","2.8930000000000002","308.6","4.671","330.9","NAN","NAN","NAN","NAN","NAN"],
    [1541888,"2026-02-21 06:20:00","42878","3.01","306.2","4.933","308","NAN","NAN","NAN","NAN","NAN"],
    [1541889,"2026-02-21 06:30:00","42879","3.222","303.7","5.357","313.4","NAN","NAN","NAN","NAN","NAN"],
    [1541890,"2026-02-21 06:40:00","42880","2.877","310.4","5.096","307.7","NAN","NAN","NAN","NAN","NAN"],
    [1541891,"2026-02-21 06:50:00","42881","2.6839999999999997","310.0","4.671","312.1","NAN","NAN","NAN","NAN","NAN"],
    [1541892,"2026-02-21 07:00:00","42882","2.451","306.3","4.377","311.8","NAN","NAN","NAN","NAN","NAN"],
    [1541893,"2026-02-21 07:10:00","42883","2.362","314.1","4.214","303.2","NAN","NAN","NAN","NAN","NAN"],
    [1541894,"2026-02-21 07:20:00","42884","2.597","315.9","5.129","310.7","NAN","NAN","NAN","NAN","NAN"],
    [1541895,"2026-02-21 07:30:00","42885","2.872","316.5","5.096","324","NAN","NAN","NAN","NAN","NAN"],
    [1541896,"2026-02-21 07:40:00","42886","3.123","298.4","4.802","293.9","NAN","NAN","NAN","NAN","NAN"],
    [1541897,"2026-02-21 07:50:00","42887","3.591","305.0","5.39","304.9","NAN","NAN","NAN","NAN","NAN"],
    [1541898,"2026-02-21 08:00:00","42888","3.89","317.0","7.089","306.5","NAN","NAN","NAN","NAN","NAN"],
    [1541899,"2026-02-21 08:10:00","42889","4.422","321.5","7.415","319.5","NAN","NAN","NAN","NAN","NAN"],
    [1541900,"2026-02-21 08:20:00","42890","3.548","316.0","6.501","317.7","NAN","NAN","NAN","NAN","NAN"],
    [1541901,"2026-02-21 08:30:00","42891","4.444","318.5","7.644","327.5","NAN","NAN","NAN","NAN","NAN"],
    [1541902,"2026-02-21 08:40:00","42892","4.938","322.3","8.49","326.3","NAN","NAN","NAN","NAN","NAN"],
    [1541903,"2026-02-21 08:50:00","42893","4.539","316.7","7.644","309.4","NAN","NAN","NAN","NAN","NAN"],
    [1541904,"2026-02-21 09:00:00","42894","5.6160000000000005","322.4","8.92","326.5","NAN","NAN","NAN","NAN","NAN"],
    [1541905,"2026-02-21 09:10:00","42895","5.26","320.9","8.46","308.9","NAN","NAN","NAN","NAN","NAN"],
    [1541906,"2026-02-21 09:20:00","42896","4.546","319.9","7.415","315.6","NAN","NAN","NAN","NAN","NAN"],
    [1541907,"2026-02-21 09:30:00","42897","4.433","312.9","7.317","317.1","NAN","NAN","NAN","NAN","NAN"],
    [1541908,"2026-02-21 09:40:00","42898","4.648","325.2","7.056","316.3","NAN","NAN","NAN","NAN","NAN"],
    [1541909,"2026-02-21 09:50:00","42899","3.634","325.7","5.913","320.5","NAN","NAN","NAN","NAN","NAN"],
    [1541910,"2026-02-21 10:00:00","42900","3.235","318.7","5.063","314.5","NAN","NAN","NAN","NAN","NAN"],
    [1541911,"2026-02-21 10:10:00","42901","2.448","313.0","4.149","320.1","NAN","NAN","NAN","NAN","NAN"],
    [1541912,"2026-02-21 10:20:00","42902","2.7569999999999997","314.7","5.031","285.7","NAN","NAN","NAN","NAN","NAN"],
    [1541913,"2026-02-21 10:30:00","42903","3.06","310.1","5.749","311.9","NAN","NAN","NAN","NAN","NAN"],
    [1541914,"2026-02-21 10:40:00","42904","3.406","313.9","5.423","320","NAN","NAN","NAN","NAN","NAN"],
    [1541915,"2026-02-21 10:50:00","42905","3.1180000000000003","302.7","5.488","305.5","NAN","NAN","NAN","NAN","NAN"],
    [1541916,"2026-02-21 11:00:00","42906","3.303","296.6","4.606","289.5","NAN","NAN","NAN","NAN","NAN"],
    [1541917,"2026-02-21 11:10:00","42907","3.2310000000000003","291.8","5.423","282.5","NAN","NAN","NAN","NAN","NAN"],
    [1541918,"2026-02-21 11:20:00","42908","2.795","295.1","4.802","270.2","NAN","NAN","NAN","NAN","NAN"],
    [1541919,"2026-02-21 11:30:00","42909","3.157","311.5","5.847","329.8","NAN","NAN","NAN","NAN","NAN"],
    [1541920,"2026-02-21 11:40:00","42910","2.719","295.0","5.292","315.2","NAN","NAN","NAN","NAN","NAN"],
    [1541921,"2026-02-21 11:50:00","42911","1.399","273.2","2.809","289.9","NAN","NAN","NAN","NAN","NAN"],
    [1541922,"2026-02-21 12:00:00","42912","1.538","269.5","3.593","275.3","NAN","NAN","NAN","NAN","NAN"],
    [1541923,"2026-02-21 12:10:00","42913","1.442","250.1","3.169","249.2","NAN","NAN","NAN","NAN","NAN"],
    [1541924,"2026-02-21 12:20:00","42914","2.425","219.4","6.043","215.1","NAN","NAN","NAN","NAN","NAN"],
    [1541925,"2026-02-21 12:30:00","42915","3.201","197.0","5.455","204","NAN","NAN","NAN","NAN","NAN"],
    [1541926,"2026-02-21 12:40:00","42916","3.127","188.9","5.684","205.3","NAN","NAN","NAN","NAN","NAN"],
    [1541927,"2026-02-21 12:50:00","42917","3.515","218.8","5.749","210","NAN","NAN","NAN","NAN","NAN"],
    [1541928,"2026-02-21 13:00:00","42918","3.832","204.7","5.913","210.6","NAN","NAN","NAN","NAN","NAN"],
    [1541929,"2026-02-21 13:10:00","42919","3.4560000000000004","211.7","5.553","208.9","NAN","NAN","NAN","NAN","NAN"],
    [1541930,"2026-02-21 13:20:00","42920","3.239","205.6","5.651","213.7","NAN","NAN","NAN","NAN","NAN"],
    [1541931,"2026-02-21 13:30:00","42921","3.536","210.0","5.586","204.5","NAN","NAN","NAN","NAN","NAN"],
    [1541932,"2026-02-21 13:40:00","42922","3.4360000000000004","207.2","5.684","198","NAN","NAN","NAN","NAN","NAN"],
    [1541933,"2026-02-21 13:50:00","42923","3.517","225.0","5.619","240","NAN","NAN","NAN","NAN","NAN"],
    [1541934,"2026-02-21 14:00:00","42924","2.7680000000000002","220.9","4.508","211.4","NAN","NAN","NAN","NAN","NAN"],
    [1541935,"2026-02-21 14:10:00","42925","3.44","205.4","5.129","215","NAN","NAN","NAN","NAN","NAN"],
    [1541936,"2026-02-21 14:20:00","42926","2.917","214.6","4.965","223.9","NAN","NAN","NAN","NAN","NAN"],
    [1541937,"2026-02-21 14:30:00","42927","2.844","208.7","4.998","205.8","NAN","NAN","NAN","NAN","NAN"],
    [1541938,"2026-02-21 14:40:00","42928","2.859","221.3","5.455","239","NAN","NAN","NAN","NAN","NAN"],
    [1541939,"2026-02-21 14:50:00","42929","3.4010000000000002","217.3","5.455","211.4","NAN","NAN","NAN","NAN","NAN"],
    [1541940,"2026-02-21 15:00:00","42930","3.5610000000000004","212.6","5.619","223.3","NAN","NAN","NAN","NAN","NAN"],
    [1541941,"2026-02-21 15:10:00","42931","3.3819999999999997","217.0","5.227","208.9","NAN","NAN","NAN","NAN","NAN"],
    [1541942,"2026-02-21 15:20:00","42932","3.262","221.9","5.259","234.8","NAN","NAN","NAN","NAN","NAN"],
    [1541943,"2026-02-21 15:30:00","42933","3.031","212.9","5.161","213.5","NAN","NAN","NAN","NAN","NAN"],
    [1541944,"2026-02-21 15:40:00","42934","3.1180000000000003","218.4","4.867","206.6","NAN","NAN","NAN","NAN","NAN"],
    [1541945,"2026-02-21 15:50:00","42935","3.057","228.2","5.194","253.2","NAN","NAN","NAN","NAN","NAN"],
    [1541946,"2026-02-21 16:00:00","42936","3.139","231.7","5.619","239.6","NAN","NAN","NAN","NAN","NAN"],
    [1541947,"2026-02-21 16:10:00","42937","2.471","235.1","4.573","237.6","NAN","NAN","NAN","NAN","NAN"],
    [1541948,"2026-02-21 16:20:00","42938","2.531","218.4","4.639","222.6","NAN","NAN","NAN","NAN","NAN"],
    [1541949,"2026-02-21 16:30:00","42939","2.748","208.4","4.312","215.9","NAN","NAN","NAN","NAN","NAN"],
    [1541950,"2026-02-21 16:40:00","42940","2.164","210.1","4.247","202.8","NAN","NAN","NAN","NAN","NAN"],
    [1541951,"2026-02-21 16:50:00","42941","2.499","210.9","4.41","211.1","NAN","NAN","NAN","NAN","NAN"],
    [1541952,"2026-02-21 17:00:00","42942","2.0909999999999997","211.0","4.312","211.6","NAN","NAN","NAN","NAN","NAN"],
    [1541953,"2026-02-21 17:10:00","42943","2.261","231.8","4.116","239.4","NAN","NAN","NAN","NAN","NAN"],
    [1541954,"2026-02-21 17:20:00","42944","2.3409999999999997","244.8","3.593","251.7","NAN","NAN","NAN","NAN","NAN"],
    [1541955,"2026-02-21 17:30:00","42945","2.375","249.4","4.279","240","NAN","NAN","NAN","NAN","NAN"],
    [1541956,"2026-02-21 17:40:00","42946","1.209","244.7","2.94","244.7","NAN","NAN","NAN","NAN","NAN"],
    [1541957,"2026-02-21 17:50:00","42947","1.2570000000000001","243.3","2.45","249.1","NAN","NAN","NAN","NAN","NAN"],
    [1541958,"2026-02-21 18:00:00","42948","1.4409999999999998","241.6","3.103","243","NAN","NAN","NAN","NAN","NAN"],
    [1541959,"2026-02-21 18:10:00","42949","1.455","239.1","2.613","244.2","NAN","NAN","NAN","NAN","NAN"],
    [1541960,"2026-02-21 18:20:00","42950","1.4609999999999999","237.0","2.679","237.1","NAN","NAN","NAN","NAN","NAN"],
    [1541961,"2026-02-21 18:30:00","42951","1.433","240.8","2.515","245.6","NAN","NAN","NAN","NAN","NAN"],
    [1541962,"2026-02-21 18:40:00","42952","2.017","235.5","4.965","230.9","NAN","NAN","NAN","NAN","NAN"],
    [1541963,"2026-02-21 18:50:00","42953","1.899","238.4","3.495","220.1","NAN","NAN","NAN","NAN","NAN"],
    [1541964,"2026-02-21 19:00:00","42954","2.318","246.2","3.953","235.3","NAN","NAN","NAN","NAN","NAN"],
    [1541965,"2026-02-21 19:10:00","42955","1.689","248.9","3.169","251.9","NAN","NAN","NAN","NAN","NAN"],
    [1541966,"2026-02-21 19:20:00","42956","1.308","249.7","2.221","254.4","NAN","NAN","NAN","NAN","NAN"],
    [1541967,"2026-02-21 19:30:00","42957","0.662","253.8","1.372","254.5","NAN","NAN","NAN","NAN","NAN"],
    [1541968,"2026-02-21 19:40:00","42958","1.0","251.1","1.862","245.4","NAN","NAN","NAN","NAN","NAN"],
    [1541969,"2026-02-21 19:50:00","42959","1.3769999999999998","251.9","1.96","254.9","NAN","NAN","NAN","NAN","NAN"],
    [1541970,"2026-02-21 20:00:00","42960","1.148","249.6","1.797","254.4","NAN","NAN","NAN","NAN","NAN"],
    [1541971,"2026-02-21 20:10:00","42961","1.087","248.3","2.058","254.7","NAN","NAN","NAN","NAN","NAN"],
    [1541972,"2026-02-21 20:20:00","42962","1.868","251.9","2.548","249.7","NAN","NAN","NAN","NAN","NAN"],
    [1541973,"2026-02-21 20:30:00","42963","1.8","252.5","2.646","254.5","NAN","NAN","NAN","NAN","NAN"],
    [1541974,"2026-02-21 20:40:00","42964","1.892","253.9","3.299","254.9","NAN","NAN","NAN","NAN","NAN"],
    [1541975,"2026-02-21 20:50:00","42965","2.122","261.7","3.397","264.3","NAN","NAN","NAN","NAN","NAN"],
    [1541976,"2026-02-21 21:00:00","42966","2.533","268.8","3.92","269.2","NAN","NAN","NAN","NAN","NAN"],
    [1541977,"2026-02-21 21:10:00","42967","2.898","271.9","4.312","276","NAN","NAN","NAN","NAN","NAN"],
    [1541978,"2026-02-21 21:20:00","42968","2.476","266.7","3.92","262.6","NAN","NAN","NAN","NAN","NAN"],
    [1541979,"2026-02-21 21:30:00","42969","1.463","258.1","2.613","256.7","NAN","NAN","NAN","NAN","NAN"],
    [1541980,"2026-02-21 21:40:00","42970","2.015","256.1","2.777","256.2","NAN","NAN","NAN","NAN","NAN"],
    [1541981,"2026-02-21 21:50:00","42971","2.177","252.5","3.071","249.7","NAN","NAN","NAN","NAN","NAN"],
    [1541982,"2026-02-21 22:00:00","42972","2.57","249.0","3.299","246.6","NAN","NAN","NAN","NAN","NAN"],
    [1541983,"2026-02-21 22:10:00","42973","2.501","248.2","3.593","242.6","NAN","NAN","NAN","NAN","NAN"],
    [1541984,"2026-02-21 22:20:00","42974","2.2319999999999998","248.5","3.365","240.5","NAN","NAN","NAN","NAN","NAN"],
    [1541985,"2026-02-21 22:30:00","42975","2.184","249.6","3.038","248.4","NAN","NAN","NAN","NAN","NAN"],
    [1541986,"2026-02-21 22:40:00","42976","2.195","252.3","3.169","257.1","NAN","NAN","NAN","NAN","NAN"],
    [1541987,"2026-02-21 22:50:00","42977","2.3369999999999997","247.0","3.43","239.2","NAN","NAN","NAN","NAN","NAN"],
    [1541988,"2026-02-21 23:00:00","42978","2.283","247.4","3.201","248.6","NAN","NAN","NAN","NAN","NAN"],
    [1541989,"2026-02-21 23:10:00","42979","2.294","252.0","3.169","244.6","NAN","NAN","NAN","NAN","NAN"],
    [1541990,"2026-02-21 23:20:00","42980","2.5810000000000004","246.5","3.463","243.8","NAN","NAN","NAN","NAN","NAN"],
    [1541991,"2026-02-21 23:30:00","42981","2.456","247.0","3.332","244.2","NAN","NAN","NAN","NAN","NAN"],
    [1541992,"2026-02-21 23:40:00","42982","2.283","244.9","3.528","240.1","NAN","NAN","NAN","NAN","NAN"],
    [1541993,"2026-02-21 23:50:00","42983","2.3680000000000003","249.5","3.397","253.3","NAN","NAN","NAN","NAN","NAN"],
    [1541994,"2026-02-22 00:00:00","42984","2.543","253.8","3.659","256.3","NAN","NAN","NAN","NAN","NAN"],
    [1541995,"2026-02-22 00:10:00","42985","2.356","254.8","3.626","256.2","NAN","NAN","NAN","NAN","NAN"],
    [1541996,"2026-02-22 00:20:00","42986","2.515","261.3","3.757","267.6","NAN","NAN","NAN","NAN","NAN"],
    [1541997,"2026-02-22 00:30:00","42987","2.641","259.7","3.92","260.7","NAN","NAN","NAN","NAN","NAN"],
    [1541998,"2026-02-22 00:40:00","42988","2.676","262.1","3.822","249.2","NAN","NAN","NAN","NAN","NAN"],
    [1541999,"2026-02-22 00:50:00","42989","2.785","260.5","4.312","258.8","NAN","NAN","NAN","NAN","NAN"],
    [1542000,"2026-02-22 01:00:00","42990","2.8810000000000002","258.5","3.855","252.8","NAN","NAN","NAN","NAN","NAN"],
    [1542001,"2026-02-22 01:10:00","42991","2.9130000000000003","259.9","4.051","262.8","NAN","NAN","NAN","NAN","NAN"],
    [1542002,"2026-02-22 01:20:00","42992","2.057","255.4","3.071","259.5","NAN","NAN","NAN","NAN","NAN"],
    [1542003,"2026-02-22 01:30:00","42993","1.6969999999999998","250.6","2.646","250.7","NAN","NAN","NAN","NAN","NAN"],
    [1542004,"2026-02-22 01:40:00","42994","2.029","250.3","2.809","250.1","NAN","NAN","NAN","NAN","NAN"],
    [1542005,"2026-02-22 01:50:00","42995","1.839","251.9","2.744","251.1","NAN","NAN","NAN","NAN","NAN"],
    [1542006,"2026-02-22 02:00:00","42996","1.51","249.0","2.352","248.8","NAN","NAN","NAN","NAN","NAN"],
    [1542007,"2026-02-22 02:10:00","42997","1.693","257.5","2.287","253.4","NAN","NAN","NAN","NAN","NAN"],
    [1542008,"2026-02-22 02:20:00","42998","2.165","263.4","2.842","266.2","NAN","NAN","NAN","NAN","NAN"],
    [1542009,"2026-02-22 02:30:00","42999","2.752","278.5","4.181","279.9","NAN","NAN","NAN","NAN","NAN"],
    [1542010,"2026-02-22 02:40:00","43000","2.395","287.5","3.724","287.2","NAN","NAN","NAN","NAN","NAN"],
    [1542011,"2026-02-22 02:50:00","43001","1.526","284.0","2.711","285","NAN","NAN","NAN","NAN","NAN"],
    [1542012,"2026-02-22 03:00:00","43002","1.9969999999999999","282.0","3.038","281.7","NAN","NAN","NAN","NAN","NAN"],
    [1542013,"2026-02-22 03:10:00","43003","2.24","277.6","3.724","276.7","NAN","NAN","NAN","NAN","NAN"],
    [1542014,"2026-02-22 03:20:00","43004","2.925","273.3","4.802","272.3","NAN","NAN","NAN","NAN","NAN"],
    [1542015,"2026-02-22 03:30:00","43005","3.139","262.8","4.9","265.8","NAN","NAN","NAN","NAN","NAN"],
    [1542016,"2026-02-22 03:40:00","43006","2.469","259.9","3.822","263.9","NAN","NAN","NAN","NAN","NAN"],
    [1542017,"2026-02-22 03:50:00","43007","2.82","261.8","4.149","261.2","NAN","NAN","NAN","NAN","NAN"],
    [1542018,"2026-02-22 04:00:00","43008","3.156","261.8","4.508","260.8","NAN","NAN","NAN","NAN","NAN"],
    [1542019,"2026-02-22 04:10:00","43009","2.8310000000000004","260.3","4.345","260.7","NAN","NAN","NAN","NAN","NAN"],
    [1542020,"2026-02-22 04:20:00","43010","2.782","264.3","3.855","256.8","NAN","NAN","NAN","NAN","NAN"],
    [1542021,"2026-02-22 04:30:00","43011","2.701","274.6","3.757","278.9","NAN","NAN","NAN","NAN","NAN"],
    [1542022,"2026-02-22 04:40:00","43012","3.2739999999999996","272.5","5.455","266.6","NAN","NAN","NAN","NAN","NAN"],
    [1542023,"2026-02-22 04:50:00","43013","3.9619999999999997","272.0","5.978","274.3","NAN","NAN","NAN","NAN","NAN"],
    [1542024,"2026-02-22 05:00:00","43014","3.361","284.6","5.488","277","NAN","NAN","NAN","NAN","NAN"],
    [1542025,"2026-02-22 05:10:00","43015","2.897","278.1","4.345","282.9","NAN","NAN","NAN","NAN","NAN"],
    [1542026,"2026-02-22 05:20:00","43016","2.095","272.3","3.92","276","NAN","NAN","NAN","NAN","NAN"],
    [1542027,"2026-02-22 05:30:00","43017","2.5780000000000003","281.8","4.083","292.1","NAN","NAN","NAN","NAN","NAN"],
    [1542028,"2026-02-22 05:40:00","43018","2.5869999999999997","274.4","4.181","273.8","NAN","NAN","NAN","NAN","NAN"],
    [1542029,"2026-02-22 05:50:00","43019","2.2680000000000002","266.2","3.626","273.2","NAN","NAN","NAN","NAN","NAN"],
    [1542030,"2026-02-22 06:00:00","43020","1.8519999999999999","262.8","3.103","272.9","NAN","NAN","NAN","NAN","NAN"],
    [1542031,"2026-02-22 06:10:00","43021","1.7369999999999999","264.3","2.842","271.8","NAN","NAN","NAN","NAN","NAN"],
    [1542032,"2026-02-22 06:20:00","43022","2.2159999999999997","272.5","3.593","275.6","NAN","NAN","NAN","NAN","NAN"],
    [1542033,"2026-02-22 06:30:00","43023","2.537","285.8","3.92","285.8","NAN","NAN","NAN","NAN","NAN"],
    [1542034,"2026-02-22 06:40:00","43024","2.714","293.8","5.129","289.5","NAN","NAN","NAN","NAN","NAN"],
    [1542035,"2026-02-22 06:50:00","43025","2.474","290.6","4.671","300.7","NAN","NAN","NAN","NAN","NAN"],
    [1542036,"2026-02-22 07:00:00","43026","1.801","284.3","3.136","289.8","NAN","NAN","NAN","NAN","NAN"],
    [1542037,"2026-02-22 07:10:00","43027","2.001","281.6","2.94","280.6","NAN","NAN","NAN","NAN","NAN"],
    [1542038,"2026-02-22 07:20:00","43028","1.15","285.5","2.319","280.6","NAN","NAN","NAN","NAN","NAN"],
    [1542039,"2026-02-22 07:30:00","43029","1.149","280.9","2.025","280.5","NAN","NAN","NAN","NAN","NAN"],
    [1542040,"2026-02-22 07:40:00","43030","0.35600000000000004","281.9","2.025","280.4","NAN","NAN","NAN","NAN","NAN"],
    [1542041,"2026-02-22 07:50:00","43031","0.049","280.5","0.98","280.5","NAN","NAN","NAN","NAN","NAN"],
    [1542042,"2026-02-22 08:00:00","43032","0.04","280.5","0.621","280.5","NAN","NAN","NAN","NAN","NAN"],
    [1542043,"2026-02-22 08:10:00","43033","0.0","0.0","0","0","NAN","NAN","NAN","NAN","NAN"],
    [1542044,"2026-02-22 08:20:00","43034","0.14300000000000002","291.8","1.241","293.6","NAN","NAN","NAN","NAN","NAN"],
    [1542045,"2026-02-22 08:30:00","43035","0.518","298.9","1.405","298.8","NAN","NAN","NAN","NAN","NAN"],
    [1542046,"2026-02-22 08:40:00","43036","0.226","299.5","1.241","299.6","NAN","NAN","NAN","NAN","NAN"],
    [1542047,"2026-02-22 08:50:00","43037","0.596","299.6","1.535","299.6","NAN","NAN","NAN","NAN","NAN"],
    [1542048,"2026-02-22 09:00:00","43038","0.662","294.8","1.535","299.7","NAN","NAN","NAN","NAN","NAN"],
    [1542049,"2026-02-22 09:10:00","43039","0.252","282.6","1.176","281.4","NAN","NAN","NAN","NAN","NAN"],
    [1542050,"2026-02-22 09:20:00","43040","0.0","283.0","0.065","283","NAN","NAN","NAN","NAN","NAN"],
    [1542051,"2026-02-22 09:30:00","43041","0.13","279.8","1.241","279.8","NAN","NAN","NAN","NAN","NAN"],
    [1542052,"2026-02-22 09:40:00","43042","1.382","276.5","3.463","263","NAN","NAN","NAN","NAN","NAN"],
    [1542053,"2026-02-22 09:50:00","43043","3.1189999999999998","262.1","4.443","271.8","NAN","NAN","NAN","NAN","NAN"],
    [1542054,"2026-02-22 10:00:00","43044","2.903","261.3","4.279","266","NAN","NAN","NAN","NAN","NAN"],
    [1542055,"2026-02-22 10:10:00","43045","2.8819999999999997","260.3","4.377","268.7","NAN","NAN","NAN","NAN","NAN"],
    [1542056,"2026-02-22 10:20:00","43046","2.369","257.5","3.659","261.3","NAN","NAN","NAN","NAN","NAN"],
    [1542057,"2026-02-22 10:30:00","43047","1.673","259.7","4.116","266.8","NAN","NAN","NAN","NAN","NAN"],
    [1542058,"2026-02-22 10:40:00","43048","1.314","248.0","2.287","249","NAN","NAN","NAN","NAN","NAN"],
    [1542059,"2026-02-22 10:50:00","43049","1.245","241.2","2.091","246.5","NAN","NAN","NAN","NAN","NAN"],
    [1542060,"2026-02-22 11:00:00","43050","0.951","237.8","1.666","238.1","NAN","NAN","NAN","NAN","NAN"],
    [1542061,"2026-02-22 11:10:00","43051","0.98","211.3","2.091","235.7","NAN","NAN","NAN","NAN","NAN"],
    [1542062,"2026-02-22 11:20:00","43052","1.053","159.3","3.985","170","NAN","NAN","NAN","NAN","NAN"],
    [1542063,"2026-02-22 11:30:00","43053","3.397","177.8","5.259","159.1","NAN","NAN","NAN","NAN","NAN"],
    [1542064,"2026-02-22 11:40:00","43054","3.0269999999999997","174.0","4.312","169.3","NAN","NAN","NAN","NAN","NAN"],
    [1542065,"2026-02-22 11:50:00","43055","2.8989999999999996","171.8","5.063","170.3","NAN","NAN","NAN","NAN","NAN"],
    [1542066,"2026-02-22 12:00:00","43056","2.823","177.8","4.671","171.2","NAN","NAN","NAN","NAN","NAN"],
    [1542067,"2026-02-22 12:10:00","43057","2.6630000000000003","199.9","4.704","212.9","NAN","NAN","NAN","NAN","NAN"],
    [1542068,"2026-02-22 12:20:00","43058","1.854","190.0","3.397","186.6","NAN","NAN","NAN","NAN","NAN"],
    [1542069,"2026-02-22 12:30:00","43059","1.641","194.1","3.234","200.6","NAN","NAN","NAN","NAN","NAN"],
    [1542070,"2026-02-22 12:40:00","43060","2.356","186.5","3.789","203.6","NAN","NAN","NAN","NAN","NAN"],
    [1542071,"2026-02-22 12:50:00","43061","2.263","173.1","3.593","163.8","NAN","NAN","NAN","NAN","NAN"],
    [1542072,"2026-02-22 13:00:00","43062","1.666","170.4","2.679","172.9","NAN","NAN","NAN","NAN","NAN"],
    [1542073,"2026-02-22 13:10:00","43063","2.2230000000000003","169.0","3.332","172.1","NAN","NAN","NAN","NAN","NAN"],
    [1542074,"2026-02-22 13:20:00","43064","2.286","169.0","4.018","169.7","NAN","NAN","NAN","NAN","NAN"],
    [1542075,"2026-02-22 13:30:00","43065","1.893","182.2","3.299","166.2","NAN","NAN","NAN","NAN","NAN"],
    [1542076,"2026-02-22 13:40:00","43066","2.052","187.9","3.332","170.2","NAN","NAN","NAN","NAN","NAN"],
    [1542077,"2026-02-22 13:50:00","43067","2.9730000000000003","210.1","5.031","204","NAN","NAN","NAN","NAN","NAN"],
    [1542078,"2026-02-22 14:00:00","43068","3.25","209.2","4.704","200.1","NAN","NAN","NAN","NAN","NAN"],
    [1542079,"2026-02-22 14:10:00","43069","3.154","227.8","5.259","224.7","NAN","NAN","NAN","NAN","NAN"],
    [1542080,"2026-02-22 14:20:00","43070","2.8369999999999997","221.1","5.749","212.9","NAN","NAN","NAN","NAN","NAN"],
    [1542081,"2026-02-22 14:30:00","43071","2.88","234.2","5.129","252.1","NAN","NAN","NAN","NAN","NAN"],
    [1542082,"2026-02-22 14:40:00","43072","2.49","222.0","4.965","215.6","NAN","NAN","NAN","NAN","NAN"],
    [1542083,"2026-02-22 14:50:00","43073","2.3280000000000003","221.5","4.671","211.4","NAN","NAN","NAN","NAN","NAN"],
    [1542084,"2026-02-22 15:00:00","43074","2.813","211.2","5.292","202.2","NAN","NAN","NAN","NAN","NAN"],
    [1542085,"2026-02-22 15:10:00","43075","2.963","226.0","4.802","223.3","NAN","NAN","NAN","NAN","NAN"],
    [1542086,"2026-02-22 15:20:00","43076","3.068","215.6","5.619","205.5","NAN","NAN","NAN","NAN","NAN"],
    [1542087,"2026-02-22 15:30:00","43077","3.113","225.0","5.063","210.2","NAN","NAN","NAN","NAN","NAN"],
    [1542088,"2026-02-22 15:40:00","43078","2.918","211.1","4.671","207.4","NAN","NAN","NAN","NAN","NAN"],
    [1542089,"2026-02-22 15:50:00","43079","3.19","209.2","4.933","199.8","NAN","NAN","NAN","NAN","NAN"],
    [1542090,"2026-02-22 16:00:00","43080","3.0469999999999997","215.2","5.423","200","NAN","NAN","NAN","NAN","NAN"],
    [1542091,"2026-02-22 16:10:00","43081","2.885","207.3","4.965","207.5","NAN","NAN","NAN","NAN","NAN"],
    [1542092,"2026-02-22 16:20:00","43082","2.439","210.4","4.867","212.8","NAN","NAN","NAN","NAN","NAN"],
    [1542093,"2026-02-22 16:30:00","43083","2.126","207.7","4.279","206.4","NAN","NAN","NAN","NAN","NAN"],
    [1542094,"2026-02-22 16:40:00","43084","1.829","225.7","3.397","248.3","NAN","NAN","NAN","NAN","NAN"],
    [1542095,"2026-02-22 16:50:00","43085","1.9","232.1","3.887","247.2","NAN","NAN","NAN","NAN","NAN"],
    [1542096,"2026-02-22 17:00:00","43086","1.659","235.0","3.43","229","NAN","NAN","NAN","NAN","NAN"],
    [1542097,"2026-02-22 17:10:00","43087","2.3","229.0","4.149","226.9","NAN","NAN","NAN","NAN","NAN"],
    [1542098,"2026-02-22 17:20:00","43088","1.6469999999999998","234.3","3.561","227","NAN","NAN","NAN","NAN","NAN"],
    [1542099,"2026-02-22 17:30:00","43089","1.584","227.7","3.071","229.8","NAN","NAN","NAN","NAN","NAN"],
    [1542100,"2026-02-22 17:40:00","43090","1.043","238.7","2.809","241.9","NAN","NAN","NAN","NAN","NAN"],
    [1542101,"2026-02-22 17:50:00","43091","1.3130000000000002","243.4","2.581","237.8","NAN","NAN","NAN","NAN","NAN"],
    [1542102,"2026-02-22 18:00:00","43092","1.173","243.8","2.254","241.1","NAN","NAN","NAN","NAN","NAN"],
    [1542103,"2026-02-22 18:10:00","43093","1.022","242.3","1.96","242.3","NAN","NAN","NAN","NAN","NAN"],
    [1542104,"2026-02-22 18:20:00","43094","0.332","241.6","1.731","241.8","NAN","NAN","NAN","NAN","NAN"],
    [1542105,"2026-02-22 18:30:00","43095","0.5379999999999999","238.2","1.666","236.4","NAN","NAN","NAN","NAN","NAN"],
    [1542106,"2026-02-22 18:40:00","43096","0.045","239.7","0.817","243","NAN","NAN","NAN","NAN","NAN"],
    [1542107,"2026-02-22 18:50:00","43097","0.0","0.0","0","0","NAN","NAN","NAN","NAN","NAN"],
    [1542108,"2026-02-22 19:00:00","43098","0.006999999999999999","235.1","0.327","235","NAN","NAN","NAN","NAN","NAN"],
    [1542109,"2026-02-22 19:10:00","43099","0.0","0.0","0","0","NAN","NAN","NAN","NAN","NAN"],
    [1542110,"2026-02-22 19:20:00","43100","0.0","0.0","0","0","NAN","NAN","NAN","NAN","NAN"],
    [1542111,"2026-02-22 19:30:00","43101","0.0","0.0","0","0","NAN","NAN","NAN","NAN","NAN"],
    [1542112,"2026-02-22 19:40:00","43102","0.0","0.0","0","0","NAN","NAN","NAN","NAN","NAN"],
    [1542113,"2026-02-22 19:50:00","43103","0.0","0.0","0","0","NAN","NAN","NAN","NAN","NAN"],
    [1542114,"2026-02-22 20:00:00","43104","0.0","0.0","0","0","NAN","NAN","NAN","NAN","NAN"],
    [1542115,"2026-02-22 20:10:00","43105","0.0","0.0","0","0","NAN","NAN","NAN","NAN","NAN"],
    [1542116,"2026-02-22 20:20:00","43106","0.623","239.1","1.437","240.6","NAN","NAN","NAN","NAN","NAN"],
    [1542117,"2026-02-22 20:30:00","43107","0.445","244.4","0.98","244.4","NAN","NAN","NAN","NAN","NAN"],
    [1542118,"2026-02-22 20:40:00","43108","0.799","244.4","1.339","244.4","NAN","NAN","NAN","NAN","NAN"],
    [1542119,"2026-02-22 20:50:00","43109","1.0090000000000001","236.8","1.862","236.3","NAN","NAN","NAN","NAN","NAN"],
    [1542120,"2026-02-22 21:00:00","43110","1.036","243.1","1.993","244.6","NAN","NAN","NAN","NAN","NAN"],
    [1542121,"2026-02-22 21:10:00","43111","2.008","244.8","3.071","246","NAN","NAN","NAN","NAN","NAN"],
    [1542122,"2026-02-22 21:20:00","43112","1.7730000000000001","247.6","2.94","248.3","NAN","NAN","NAN","NAN","NAN"],
    [1542123,"2026-02-22 21:30:00","43113","1.8559999999999999","248.6","2.94","248.3","NAN","NAN","NAN","NAN","NAN"],
    [1542124,"2026-02-22 21:40:00","43114","1.641","248.6","2.613","248.7","NAN","NAN","NAN","NAN","NAN"],
    [1542125,"2026-02-22 21:50:00","43115","1.7480000000000002","248.7","2.744","248.8","NAN","NAN","NAN","NAN","NAN"],
    [1542126,"2026-02-22 22:00:00","43116","1.9409999999999998","248.8","2.711","248.9","NAN","NAN","NAN","NAN","NAN"],
    [1542127,"2026-02-22 22:10:00","43117","1.4","248.8","2.646","248.9","NAN","NAN","NAN","NAN","NAN"],
    [1542128,"2026-02-22 22:20:00","43118","1.253","248.9","2.156","249","NAN","NAN","NAN","NAN","NAN"],
    [1542129,"2026-02-22 22:30:00","43119","2.249","245.4","3.463","248.6","NAN","NAN","NAN","NAN","NAN"],
    [1542130,"2026-02-22 22:40:00","43120","2.176","244.2","3.561","248.6","NAN","NAN","NAN","NAN","NAN"],
    [1542131,"2026-02-22 22:50:00","43121","2.9210000000000003","249.1","4.312","241.3","NAN","NAN","NAN","NAN","NAN"],
    [1542132,"2026-02-22 23:00:00","43122","2.499","253.3","3.691","247.2","NAN","NAN","NAN","NAN","NAN"],
    [1542133,"2026-02-22 23:10:00","43123","2.404","252.5","3.626","246.1","NAN","NAN","NAN","NAN","NAN"],
    [1542134,"2026-02-22 23:20:00","43124","1.715","259.7","3.071","257.6","NAN","NAN","NAN","NAN","NAN"],
    [1542135,"2026-02-22 23:30:00","43125","1.911","261.9","3.234","262.8","NAN","NAN","NAN","NAN","NAN"],
    [1542136,"2026-02-22 23:40:00","43126","2.434","260.0","4.149","263.4","NAN","NAN","NAN","NAN","NAN"],
    [1542137,"2026-02-22 23:50:00","43127","2.432","264.2","3.887","265.5","NAN","NAN","NAN","NAN","NAN"],
    [1542138,"2026-02-23 00:00:00","43128","1.4709999999999999","259.8","2.483","269.8","NAN","NAN","NAN","NAN","NAN"],
    [1542139,"2026-02-23 00:10:00","43129","1.886","256.7","2.777","264.7","NAN","NAN","NAN","NAN","NAN"],
    [1542140,"2026-02-23 00:20:00","43130","1.6740000000000002","260.5","2.809","256.8","NAN","NAN","NAN","NAN","NAN"],
    [1542141,"2026-02-23 00:30:00","43131","1.09","265.0","1.895","262.4","NAN","NAN","NAN","NAN","NAN"],
    [1542142,"2026-02-23 00:40:00","43132","0.083","267.1","0.882","267.7","NAN","NAN","NAN","NAN","NAN"],
    [1542143,"2026-02-23 00:50:00","43133","0.649","258.0","1.307","257.3","NAN","NAN","NAN","NAN","NAN"],
    [1542144,"2026-02-23 01:00:00","43134","0.74","258.6","1.797","265.3","NAN","NAN","NAN","NAN","NAN"],
    [1542145,"2026-02-23 01:10:00","43135","0.893","263.0","1.862","259.6","NAN","NAN","NAN","NAN","NAN"],
    [1542146,"2026-02-23 01:20:00","43136","1.294","264.2","2.842","266.2","NAN","NAN","NAN","NAN","NAN"],
    [1542147,"2026-02-23 01:30:00","43137","2.353","266.7","3.985","273","NAN","NAN","NAN","NAN","NAN"],
    [1542148,"2026-02-23 01:40:00","43138","2.2640000000000002","270.0","3.691","273.4","NAN","NAN","NAN","NAN","NAN"],
    [1542149,"2026-02-23 01:50:00","43139","2.497","268.0","3.985","272.6","NAN","NAN","NAN","NAN","NAN"],
    [1542150,"2026-02-23 02:00:00","43140","1.205","273.8","3.038","274","NAN","NAN","NAN","NAN","NAN"],
    [1542151,"2026-02-23 02:10:00","43141","2.1430000000000002","264.1","3.267","262","NAN","NAN","NAN","NAN","NAN"],
    [1542152,"2026-02-23 02:20:00","43142","2.786","271.4","4.377","268.8","NAN","NAN","NAN","NAN","NAN"],
    [1542153,"2026-02-23 02:30:00","43143","2.667","271.6","4.083","275.9","NAN","NAN","NAN","NAN","NAN"],
    [1542154,"2026-02-23 02:40:00","43144","1.662","275.1","3.789","279.4","NAN","NAN","NAN","NAN","NAN"],
    [1542155,"2026-02-23 02:50:00","43145","0.479","278.5","2.156","279","NAN","NAN","NAN","NAN","NAN"],
    [1542156,"2026-02-23 03:00:00","43146","0.517","271.6","1.96","267.8","NAN","NAN","NAN","NAN","NAN"],
    [1542157,"2026-02-23 03:10:00","43147","1.8980000000000001","273.7","3.365","270.9","NAN","NAN","NAN","NAN","NAN"],
    [1542158,"2026-02-23 03:20:00","43148","1.462","276.7","2.548","270.3","NAN","NAN","NAN","NAN","NAN"],
    [1542159,"2026-02-23 03:30:00","43149","0.174","281.5","0.882","282","NAN","NAN","NAN","NAN","NAN"],
    [1542160,"2026-02-23 03:40:00","43150","0.231","282.0","0.98","282","NAN","NAN","NAN","NAN","NAN"],
    [1542161,"2026-02-23 03:50:00","43151","0.059000000000000004","272.5","0.686","268","NAN","NAN","NAN","NAN","NAN"],
    [1542162,"2026-02-23 04:00:00","43152","0.203","266.7","1.143","266.8","NAN","NAN","NAN","NAN","NAN"],
    [1542163,"2026-02-23 04:10:00","43153","0.39299999999999996","271.8","1.143","270.5","NAN","NAN","NAN","NAN","NAN"],
    [1542164,"2026-02-23 04:20:00","43154","0.55","272.4","1.176","270.5","NAN","NAN","NAN","NAN","NAN"],
    [1542165,"2026-02-23 04:30:00","43155","0.2","277.3","0.915","277.3","NAN","NAN","NAN","NAN","NAN"],
    [1542166,"2026-02-23 04:40:00","43156","0.19899999999999998","269.0","1.568","269.7","NAN","NAN","NAN","NAN","NAN"],
    [1542167,"2026-02-23 04:50:00","43157","1.393","272.1","1.895","272.1","NAN","NAN","NAN","NAN","NAN"],
    [1542168,"2026-02-23 05:00:00","43158","0.081","268.1","1.176","270.1","NAN","NAN","NAN","NAN","NAN"],
    [1542169,"2026-02-23 05:10:00","43159","0.396","267.4","1.503","266.2","NAN","NAN","NAN","NAN","NAN"],
    [1542170,"2026-02-23 05:20:00","43160","0.848","276.4","1.862","279.9","NAN","NAN","NAN","NAN","NAN"],
    [1542171,"2026-02-23 05:30:00","43161","0.68","277.9","1.241","277.1","NAN","NAN","NAN","NAN","NAN"],
    [1542172,"2026-02-23 05:40:00","43162","0.655","279.8","1.307","279.2","NAN","NAN","NAN","NAN","NAN"],
    [1542173,"2026-02-23 05:50:00","43163","0.094","275.6","0.915","274.3","NAN","NAN","NAN","NAN","NAN"],
    [1542174,"2026-02-23 06:00:00","43164","0.225","279.3","1.111","278.9","NAN","NAN","NAN","NAN","NAN"],
    [1542175,"2026-02-23 06:10:00","43165","0.789","277.9","1.764","274.7","NAN","NAN","NAN","NAN","NAN"],
    [1542176,"2026-02-23 06:20:00","43166","0.135","278.3","1.045","281.6","NAN","NAN","NAN","NAN","NAN"],
    [1542177,"2026-02-23 06:30:00","43167","0.39399999999999996","267.7","1.241","267.9","NAN","NAN","NAN","NAN","NAN"],
    [1542178,"2026-02-23 06:40:00","43168","1.199","269.7","2.287","274.6","NAN","NAN","NAN","NAN","NAN"],
    [1542179,"2026-02-23 06:50:00","43169","1.254","278.3","2.319","275.9","NAN","NAN","NAN","NAN","NAN"],
    [1542180,"2026-02-23 07:00:00","43170","0.5589999999999999","280.7","1.829","281.3","NAN","NAN","NAN","NAN","NAN"],
    [1542181,"2026-02-23 07:10:00","43171","0.092","280.3","0.751","280.9","NAN","NAN","NAN","NAN","NAN"],
    [1542182,"2026-02-23 07:20:00","43172","0.23800000000000002","280.2","1.045","278.4","NAN","NAN","NAN","NAN","NAN"],
    [1542183,"2026-02-23 07:30:00","43173","0.223","279.7","1.111","280.9","NAN","NAN","NAN","NAN","NAN"],
    [1542184,"2026-02-23 07:40:00","43174","0.009000000000000001","280.7","0.294","281","NAN","NAN","NAN","NAN","NAN"],
    [1542185,"2026-02-23 07:50:00","43175","0.16399999999999998","280.2","0.882","280.9","NAN","NAN","NAN","NAN","NAN"],
    [1542186,"2026-02-23 08:00:00","43176","0.434","277.4","1.176","279.4","NAN","NAN","NAN","NAN","NAN"],
    [1542187,"2026-02-23 08:10:00","43177","0.27899999999999997","281.3","1.437","281.2","NAN","NAN","NAN","NAN","NAN"],
    [1542188,"2026-02-23 08:20:00","43178","0.008","278.9","0.229","277.1","NAN","NAN","NAN","NAN","NAN"],
    [1542189,"2026-02-23 08:30:00","43179","0.469","281.4","1.437","281.1","NAN","NAN","NAN","NAN","NAN"],
    [1542190,"2026-02-23 08:40:00","43180","0.616","280.8","1.503","281.6","NAN","NAN","NAN","NAN","NAN"],
    [1542191,"2026-02-23 08:50:00","43181","0.087","279.9","1.209","281.2","NAN","NAN","NAN","NAN","NAN"],
    [1542192,"2026-02-23 09:00:00","43182","0.29","282.3","1.274","282.5","NAN","NAN","NAN","NAN","NAN"],
    [1542193,"2026-02-23 09:10:00","43183","0.7909999999999999","282.7","1.372","283.1","NAN","NAN","NAN","NAN","NAN"],
    [1542194,"2026-02-23 09:20:00","43184","0.536","282.5","1.241","283.2","NAN","NAN","NAN","NAN","NAN"],
    [1542195,"2026-02-23 09:30:00","43185","0.406","282.7","1.209","283.3","NAN","NAN","NAN","NAN","NAN"],
    [1542196,"2026-02-23 09:40:00","43186","0.8490000000000001","279.2","1.895","267.7","NAN","NAN","NAN","NAN","NAN"],
    [1542197,"2026-02-23 09:50:00","43187","1.2690000000000001","283.9","3.005","288.5","NAN","NAN","NAN","NAN","NAN"],
    [1542198,"2026-02-23 10:00:00","43188","1.6019999999999999","276.3","2.973","290.9","NAN","NAN","NAN","NAN","NAN"],
    [1542199,"2026-02-23 10:10:00","43189","1.044","277.2","1.993","281.2","NAN","NAN","NAN","NAN","NAN"],
    [1542200,"2026-02-23 10:20:00","43190","1.075","295.0","1.96","293.5","NAN","NAN","NAN","NAN","NAN"],
    [1542201,"2026-02-23 10:30:00","43191","0.799","319.8","1.601","308.3","NAN","NAN","NAN","NAN","NAN"],
    [1542202,"2026-02-23 10:40:00","43192","1.065","337.4","2.091","335.6","NAN","NAN","NAN","NAN","NAN"],
    [1542203,"2026-02-23 10:50:00","43193","0.861","351.3","1.895","343.4","NAN","NAN","NAN","NAN","NAN"],
    [1542204,"2026-02-23 11:00:00","43194","0.159","17.88","1.143","26.35","NAN","NAN","NAN","NAN","NAN"],
    [1542205,"2026-02-23 11:10:00","43195","0.136","40.97","1.209","41.36","NAN","NAN","NAN","NAN","NAN"],
    [1542206,"2026-02-23 11:20:00","43196","0.659","64.13","1.601","60.38","NAN","NAN","NAN","NAN","NAN"],
    [1542207,"2026-02-23 11:30:00","43197","1.4369999999999998","86.1","2.646","86.9","NAN","NAN","NAN","NAN","NAN"],
    [1542208,"2026-02-23 11:40:00","43198","1.3530000000000002","85.7","2.483","87.3","NAN","NAN","NAN","NAN","NAN"],
    [1542209,"2026-02-23 11:50:00","43199","1.671","86.7","2.809","88","NAN","NAN","NAN","NAN","NAN"],
    [1542210,"2026-02-23 12:00:00","43200","1.8090000000000002","88.1","2.809","86","NAN","NAN","NAN","NAN","NAN"],
    [1542211,"2026-02-23 12:10:00","43201","1.605","85.2","2.777","77.99","NAN","NAN","NAN","NAN","NAN"],
    [1542212,"2026-02-23 12:20:00","43202","1.825","89.1","2.973","90.9","NAN","NAN","NAN","NAN","NAN"],
    [1542213,"2026-02-23 12:30:00","43203","2.318","92.2","3.43","91.5","NAN","NAN","NAN","NAN","NAN"],
    [1542214,"2026-02-23 12:40:00","43204","1.931","92.9","3.267","96.7","NAN","NAN","NAN","NAN","NAN"],
    [1542215,"2026-02-23 12:50:00","43205","1.2590000000000001","99.3","2.809","103.2","NAN","NAN","NAN","NAN","NAN"],
    [1542216,"2026-02-23 13:00:00","43206","1.7830000000000001","111.0","3.005","107.2","NAN","NAN","NAN","NAN","NAN"],
    [1542217,"2026-02-23 13:10:00","43207","1.8330000000000002","110.7","3.234","115.8","NAN","NAN","NAN","NAN","NAN"],
    [1542218,"2026-02-23 13:20:00","43208","1.944","107.4","2.907","106.4","NAN","NAN","NAN","NAN","NAN"],
    [1542219,"2026-02-23 13:30:00","43209","1.423","112.2","2.679","103","NAN","NAN","NAN","NAN","NAN"],
    [1542220,"2026-02-23 13:40:00","43210","1.3880000000000001","112.0","2.94","115.8","NAN","NAN","NAN","NAN","NAN"],
    [1542221,"2026-02-23 13:50:00","43211","2.401","108.3","3.463","102.1","NAN","NAN","NAN","NAN","NAN"],
    [1542222,"2026-02-23 14:00:00","43212","2.872","107.7","3.659","113.4","NAN","NAN","NAN","NAN","NAN"],
    [1542223,"2026-02-23 14:10:00","43213","2.536","110.9","3.691","104.4","NAN","NAN","NAN","NAN","NAN"],
    [1542224,"2026-02-23 14:20:00","43214","2.469","120.4","4.018","127","NAN","NAN","NAN","NAN","NAN"],
    [1542225,"2026-02-23 14:30:00","43215","2.327","121.7","3.332","114.7","NAN","NAN","NAN","NAN","NAN"],
    [1542226,"2026-02-23 14:40:00","43216","2.3680000000000003","112.1","3.561","105.7","NAN","NAN","NAN","NAN","NAN"],
    [1542227,"2026-02-23 14:50:00","43217","2.015","112.8","3.234","110","NAN","NAN","NAN","NAN","NAN"],
    [1542228,"2026-02-23 15:00:00","43218","1.686","126.5","3.463","126.9","NAN","NAN","NAN","NAN","NAN"],
    [1542229,"2026-02-23 15:10:00","43219","0.735","133.6","2.385","133.3","NAN","NAN","NAN","NAN","NAN"],
    [1542230,"2026-02-23 15:20:00","43220","1.1","135.8","2.417","135.9","NAN","NAN","NAN","NAN","NAN"],
    [1542231,"2026-02-23 15:30:00","43221","1.314","137.9","2.809","137.1","NAN","NAN","NAN","NAN","NAN"],
    [1542232,"2026-02-23 15:40:00","43222","1.415","140.1","2.842","141.8","NAN","NAN","NAN","NAN","NAN"],
    [1542233,"2026-02-23 15:50:00","43223","1.5190000000000001","144.3","2.809","144.6","NAN","NAN","NAN","NAN","NAN"],
    [1542234,"2026-02-23 16:00:00","43224","1.5190000000000001","151.9","3.626","146.2","NAN","NAN","NAN","NAN","NAN"],
    [1542235,"2026-02-23 16:10:00","43225","1.54","155.6","2.809","153.5","NAN","NAN","NAN","NAN","NAN"],
    [1542236,"2026-02-23 16:20:00","43226","2.195","160.9","3.757","160.8","NAN","NAN","NAN","NAN","NAN"],
    [1542237,"2026-02-23 16:30:00","43227","1.1159999999999999","165.5","2.515","164.7","NAN","NAN","NAN","NAN","NAN"],
    [1542238,"2026-02-23 16:40:00","43228","0.774","166.4","2.025","166.7","NAN","NAN","NAN","NAN","NAN"],
    [1542239,"2026-02-23 16:50:00","43229","0.733","167.0","1.862","167.1","NAN","NAN","NAN","NAN","NAN"],
    [1542240,"2026-02-23 17:00:00","43230","0.6629999999999999","167.3","1.568","167.4","NAN","NAN","NAN","NAN","NAN"],
    [1542241,"2026-02-23 17:10:00","43231","0.863","167.1","1.895","167.4","NAN","NAN","NAN","NAN","NAN"],
    [1542242,"2026-02-23 17:20:00","43232","0.934","167.4","1.699","167.4","NAN","NAN","NAN","NAN","NAN"],
    [1542243,"2026-02-23 17:30:00","43233","0.86","167.7","1.731","167.8","NAN","NAN","NAN","NAN","NAN"],
    [1542244,"2026-02-23 17:40:00","43234","1.124","168.1","1.699","168.2","NAN","NAN","NAN","NAN","NAN"],
    [1542245,"2026-02-23 17:50:00","43235","0.612","168.2","1.633","168.2","NAN","NAN","NAN","NAN","NAN"],
    [1542246,"2026-02-23 18:00:00","43236","0.392","168.2","1.535","168.2","NAN","NAN","NAN","NAN","NAN"],
    [1542247,"2026-02-23 18:10:00","43237","0.52","168.2","1.372","168.3","NAN","NAN","NAN","NAN","NAN"],
    [1542248,"2026-02-23 18:20:00","43238","0.359","168.2","1.209","168.3","NAN","NAN","NAN","NAN","NAN"],
    [1542249,"2026-02-23 18:30:00","43239","0.368","168.2","1.078","168.2","NAN","NAN","NAN","NAN","NAN"],
    [1542250,"2026-02-23 18:40:00","43240","0.41100000000000003","168.2","1.307","168.2","NAN","NAN","NAN","NAN","NAN"],
    [1542251,"2026-02-23 18:50:00","43241","0.23199999999999998","168.2","0.947","168.2","NAN","NAN","NAN","NAN","NAN"],
    [1542252,"2026-02-23 19:00:00","43242","0.038","168.2","0.425","168.3","NAN","NAN","NAN","NAN","NAN"],
    [1542253,"2026-02-23 19:10:00","43243","0.0","0.0","0","0","NAN","NAN","NAN","NAN","NAN"],
    [1542254,"2026-02-23 19:20:00","43244","0.177","168.3","1.045","168.3","NAN","NAN","NAN","NAN","NAN"],
    [1542255,"2026-02-23 19:30:00","43245","0.13699999999999998","168.3","0.849","168.3","NAN","NAN","NAN","NAN","NAN"],
    [1542256,"2026-02-23 19:40:00","43246","0.005","168.3","0.457","168.3","NAN","NAN","NAN","NAN","NAN"],
    [1542257,"2026-02-23 19:50:00","43247","0.0","0.0","0","0","NAN","NAN","NAN","NAN","NAN"],
    [1542258,"2026-02-23 20:00:00","43248","0.0","0.0","0","0","NAN","NAN","NAN","NAN","NAN"],
    [1542259,"2026-02-23 20:10:00","43249","0.005","168.5","0.294","168.5","NAN","NAN","NAN","NAN","NAN"],
    [1542260,"2026-02-23 20:20:00","43250","0.0","0.0","0","0","NAN","NAN","NAN","NAN","NAN"],
    [1542261,"2026-02-23 20:30:00","43251","0.0","0.0","0","0","NAN","NAN","NAN","NAN","NAN"],
    [1542262,"2026-02-23 20:40:00","43252","0.0","0.0","0","0","NAN","NAN","NAN","NAN","NAN"],
    [1542263,"2026-02-23 20:50:00","43253","0.0","0.0","0","0","NAN","NAN","NAN","NAN","NAN"],
    [1542264,"2026-02-23 21:00:00","43254","0.0","0.0","0","0","NAN","NAN","NAN","NAN","NAN"],
    [1542265,"2026-02-23 21:10:00","43255","0.0","0.0","0","0","NAN","NAN","NAN","NAN","NAN"],
    [1542266,"2026-02-23 21:20:00","43256","0.0","0.0","0","0","NAN","NAN","NAN","NAN","NAN"],
    [1542267,"2026-02-23 21:30:00","43257","0.0","0.0","0","0","NAN","NAN","NAN","NAN","NAN"],
    [1542268,"2026-02-23 21:40:00","43258","0.0","0.0","0","0","NAN","NAN","NAN","NAN","NAN"],
    [1542269,"2026-02-23 21:50:00","43259","0.0","0.0","0","0","NAN","NAN","NAN","NAN","NAN"],
    [1542270,"2026-02-23 22:00:00","43260","0.0","0.0","0","0","NAN","NAN","NAN","NAN","NAN"],
    [1542271,"2026-02-23 22:10:00","43261","0.0","0.0","0","0","NAN","NAN","NAN","NAN","NAN"],
    [1542272,"2026-02-23 22:20:00","43262","0.0","0.0","0","0","NAN","NAN","NAN","NAN","NAN"],
    [1542273,"2026-02-23 22:30:00","43263","0.0","0.0","0","0","NAN","NAN","NAN","NAN","NAN"],
    [1542274,"2026-02-23 22:40:00","43264","0.0","0.0","0","0","NAN","NAN","NAN","NAN","NAN"],
    [1542275,"2026-02-23 22:50:00","43265","0.0","0.0","0","0","NAN","NAN","NAN","NAN","NAN"],
    [1542276,"2026-02-23 23:00:00","43266","0.0","0.0","0","0","NAN","NAN","NAN","NAN","NAN"],
    [1542277,"2026-02-23 23:10:00","43267","0.028999999999999998","168.6","0.719","168.6","NAN","NAN","NAN","NAN","NAN"],
    [1542278,"2026-02-23 23:20:00","43268","0.086","168.6","0.588","168.6","NAN","NAN","NAN","NAN","NAN"],
    [1542279,"2026-02-23 23:30:00","43269","0.0","168.7","0.065","168.7","NAN","NAN","NAN","NAN","NAN"],
    [1542280,"2026-02-23 23:40:00","43270","0.0","0.0","0","0","NAN","NAN","NAN","NAN","NAN"],
    [1542281,"2026-02-23 23:50:00","43271","0.003","168.7","0.261","168.7","NAN","NAN","NAN","NAN","NAN"],
    [1542282,"2026-02-24 00:00:00","43272","0.018000000000000002","168.7","0.457","168.7","NAN","NAN","NAN","NAN","NAN"],
    [1542283,"2026-02-24 00:10:00","43273","0.078","168.8","0.686","168.8","NAN","NAN","NAN","NAN","NAN"],
    [1542284,"2026-02-24 00:20:00","43274","0.07","168.9","0.784","168.9","NAN","NAN","NAN","NAN","NAN"],
    [1542285,"2026-02-24 00:30:00","43275","0.045","168.8","0.719","168.8","NAN","NAN","NAN","NAN","NAN"],
    [1542286,"2026-02-24 00:40:00","43276","0.005","168.8","0.261","168.8","NAN","NAN","NAN","NAN","NAN"],
    [1542287,"2026-02-24 00:50:00","43277","0.081","169.1","1.045","169.2","NAN","NAN","NAN","NAN","NAN"],
    [1542288,"2026-02-24 01:00:00","43278","0.268","169.3","1.241","169.4","NAN","NAN","NAN","NAN","NAN"],
    [1542289,"2026-02-24 01:10:00","43279","0.284","169.6","1.045","169.6","NAN","NAN","NAN","NAN","NAN"],
    [1542290,"2026-02-24 01:20:00","43280","0.163","169.7","0.653","169.7","NAN","NAN","NAN","NAN","NAN"],
    [1542291,"2026-02-24 01:30:00","43281","0.311","169.8","1.176","169.8","NAN","NAN","NAN","NAN","NAN"],
    [1542292,"2026-02-24 01:40:00","43282","0.146","169.8","0.719","169.8","NAN","NAN","NAN","NAN","NAN"],
    [1542293,"2026-02-24 01:50:00","43283","0.0","0.0","0","0","NAN","NAN","NAN","NAN","NAN"],
    [1542294,"2026-02-24 02:00:00","43284","0.0","0.0","0","0","NAN","NAN","NAN","NAN","NAN"],
    [1542295,"2026-02-24 02:10:00","43285","0.0","0.0","0","0","NAN","NAN","NAN","NAN","NAN"],
    [1542296,"2026-02-24 02:20:00","43286","0.16699999999999998","169.7","0.555","169.8","NAN","NAN","NAN","NAN","NAN"],
    [1542297,"2026-02-24 02:30:00","43287","0.018000000000000002","169.8","0.555","169.8","NAN","NAN","NAN","NAN","NAN"],
    [1542298,"2026-02-24 02:40:00","43288","0.0","0.0","0","0","NAN","NAN","NAN","NAN","NAN"],
    [1542299,"2026-02-24 02:50:00","43289","0.002","169.8","0.261","169.8","NAN","NAN","NAN","NAN","NAN"],
    [1542300,"2026-02-24 03:00:00","43290","0.0","0.0","0","0","NAN","NAN","NAN","NAN","NAN"],
    [1542301,"2026-02-24 03:10:00","43291","0.0","0.0","0","0","NAN","NAN","NAN","NAN","NAN"],
    [1542302,"2026-02-24 03:20:00","43292","0.23","195.9","1.307","202.8","NAN","NAN","NAN","NAN","NAN"],
    [1542303,"2026-02-24 03:30:00","43293","2.269","262.0","3.985","279.7","NAN","NAN","NAN","NAN","NAN"],
    [1542304,"2026-02-24 03:40:00","43294","3.273","278.5","5.096","283.3","NAN","NAN","NAN","NAN","NAN"],
    [1542305,"2026-02-24 03:50:00","43295","3.75","276.2","5.651","276.9","NAN","NAN","NAN","NAN","NAN"],
    [1542306,"2026-02-24 04:00:00","43296","3.498","273.0","5.913","272","NAN","NAN","NAN","NAN","NAN"],
    [1542307,"2026-02-24 04:10:00","43297","3.47","269.6","5.553","268.3","NAN","NAN","NAN","NAN","NAN"],
    [1542308,"2026-02-24 04:20:00","43298","3.378","269.0","5.553","283.3","NAN","NAN","NAN","NAN","NAN"],
    [1542309,"2026-02-24 04:30:00","43299","2.501","268.8","4.573","277.6","NAN","NAN","NAN","NAN","NAN"],
    [1542310,"2026-02-24 04:40:00","43300","2.502","275.7","4.018","279.4","NAN","NAN","NAN","NAN","NAN"],
    [1542311,"2026-02-24 04:50:00","43301","2.54","269.1","4.541","267.4","NAN","NAN","NAN","NAN","NAN"],
    [1542312,"2026-02-24 05:00:00","43302","2.694","269.7","4.312","279.8","NAN","NAN","NAN","NAN","NAN"],
    [1542313,"2026-02-24 05:10:00","43303","2.964","273.3","5.423","281.4","NAN","NAN","NAN","NAN","NAN"],
    [1542314,"2026-02-24 05:20:00","43304","3.116","273.1","6.141","276.8","NAN","NAN","NAN","NAN","NAN"],
    [1542315,"2026-02-24 05:30:00","43305","2.197","268.9","3.789","268.6","NAN","NAN","NAN","NAN","NAN"],
    [1542316,"2026-02-24 05:40:00","43306","1.594","272.0","2.777","276.8","NAN","NAN","NAN","NAN","NAN"],
    [1542317,"2026-02-24 05:50:00","43307","1.411","268.9","2.679","275","NAN","NAN","NAN","NAN","NAN"],
    [1542318,"2026-02-24 06:00:00","43308","1.338","267.2","2.777","276.9","NAN","NAN","NAN","NAN","NAN"],
    [1542319,"2026-02-24 06:10:00","43309","1.506","265.7","2.581","263.7","NAN","NAN","NAN","NAN","NAN"],
    [1542320,"2026-02-24 06:20:00","43310","1.486","267.1","2.809","268.2","NAN","NAN","NAN","NAN","NAN"],
    [1542321,"2026-02-24 06:30:00","43311","2.0269999999999997","262.7","3.234","261.4","NAN","NAN","NAN","NAN","NAN"],
    [1542322,"2026-02-24 06:40:00","43312","2.234","267.2","3.659","262.5","NAN","NAN","NAN","NAN","NAN"],
    [1542323,"2026-02-24 06:50:00","43313","2.696","269.0","4.149","274.5","NAN","NAN","NAN","NAN","NAN"],
    [1542324,"2026-02-24 07:00:00","43314","2.759","264.8","4.312","261.2","NAN","NAN","NAN","NAN","NAN"],
    [1542325,"2026-02-24 07:10:00","43315","2.923","258.8","4.377","254.1","NAN","NAN","NAN","NAN","NAN"],
    [1542326,"2026-02-24 07:20:00","43316","2.9560000000000004","261.5","4.377","264.1","NAN","NAN","NAN","NAN","NAN"],
    [1542327,"2026-02-24 07:30:00","43317","2.7489999999999997","263.1","4.573","260.6","NAN","NAN","NAN","NAN","NAN"],
    [1542328,"2026-02-24 07:40:00","43318","3.073","258.0","4.475","265.2","NAN","NAN","NAN","NAN","NAN"],
    [1542329,"2026-02-24 07:50:00","43319","3.063","261.5","4.737","260.6","NAN","NAN","NAN","NAN","NAN"],
    [1542330,"2026-02-24 08:00:00","43320","2.758","263.0","5.096","260.4","NAN","NAN","NAN","NAN","NAN"],
    [1542331,"2026-02-24 08:10:00","43321","3.159","263.5","5.161","269.6","NAN","NAN","NAN","NAN","NAN"],
    [1542332,"2026-02-24 08:20:00","43322","3.3310000000000004","264.8","5.325","263.6","NAN","NAN","NAN","NAN","NAN"],
    [1542333,"2026-02-24 08:30:00","43323","3.764","266.3","5.586","263.1","NAN","NAN","NAN","NAN","NAN"],
    [1542334,"2026-02-24 08:40:00","43324","2.717","265.1","4.475","275.2","NAN","NAN","NAN","NAN","NAN"],
    [1542335,"2026-02-24 08:50:00","43325","2.299","263.2","3.887","274.5","NAN","NAN","NAN","NAN","NAN"],
    [1542336,"2026-02-24 09:00:00","43326","2.705","266.3","4.573","267.9","NAN","NAN","NAN","NAN","NAN"],
    [1542337,"2026-02-24 09:10:00","43327","2.737","254.9","4.933","250.3","NAN","NAN","NAN","NAN","NAN"],
    [1542338,"2026-02-24 09:20:00","43328","3.178","248.4","5.063","246.4","NAN","NAN","NAN","NAN","NAN"],
    [1542339,"2026-02-24 09:30:00","43329","2.375","241.1","4.116","253.4","NAN","NAN","NAN","NAN","NAN"],
    [1542340,"2026-02-24 09:40:00","43330","1.837","233.2","3.659","230.9","NAN","NAN","NAN","NAN","NAN"],
    [1542341,"2026-02-24 09:50:00","43331","1.911","228.1","4.377","240","NAN","NAN","NAN","NAN","NAN"],
    [1542342,"2026-02-24 10:00:00","43332","2.3280000000000003","235.1","4.377","242.5","NAN","NAN","NAN","NAN","NAN"],
    [1542343,"2026-02-24 10:10:00","43333","2.548","241.9","4.541","230.2","NAN","NAN","NAN","NAN","NAN"],
    [1542344,"2026-02-24 10:20:00","43334","2.319","223.1","4.377","217.5","NAN","NAN","NAN","NAN","NAN"],
    [1542345,"2026-02-24 10:30:00","43335","2.499","216.2","4.41","207.7","NAN","NAN","NAN","NAN","NAN"],
    [1542346,"2026-02-24 10:40:00","43336","2.923","217.4","4.802","221.5","NAN","NAN","NAN","NAN","NAN"],
    [1542347,"2026-02-24 10:50:00","43337","3.944","211.5","5.684","213.1","NAN","NAN","NAN","NAN","NAN"],
    [1542348,"2026-02-24 11:00:00","43338","4.093","213.7","5.847","200.5","NAN","NAN","NAN","NAN","NAN"],
    [1542349,"2026-02-24 11:10:00","43339","4.041","213.1","6.141","216.1","NAN","NAN","NAN","NAN","NAN"],
    [1542350,"2026-02-24 11:20:00","43340","3.2680000000000002","222.9","5.717","207.8","NAN","NAN","NAN","NAN","NAN"],
    [1542351,"2026-02-24 11:30:00","43341","3.299","244.2","5.749","260.8","NAN","NAN","NAN","NAN","NAN"],
    [1542352,"2026-02-24 11:40:00","43342","3.083","224.8","5.063","220.1","NAN","NAN","NAN","NAN","NAN"],
    [1542353,"2026-02-24 11:50:00","43343","3.0010000000000003","229.0","4.933","235.4","NAN","NAN","NAN","NAN","NAN"],
    [1542354,"2026-02-24 12:00:00","43344","3.7760000000000002","217.9","5.749","203.2","NAN","NAN","NAN","NAN","NAN"],
    [1542355,"2026-02-24 12:10:00","43345","3.917","216.4","5.913","203.6","NAN","NAN","NAN","NAN","NAN"],
    [1542356,"2026-02-24 12:20:00","43346","3.358","224.8","6.076","202.5","NAN","NAN","NAN","NAN","NAN"],
    [1542357,"2026-02-24 12:30:00","43347","3.822","221.9","6.109","233.8","NAN","NAN","NAN","NAN","NAN"],
    [1542358,"2026-02-24 12:40:00","43348","3.636","222.3","5.782","205.9","NAN","NAN","NAN","NAN","NAN"],
    [1542359,"2026-02-24 12:50:00","43349","3.929","217.9","6.337","230.8","NAN","NAN","NAN","NAN","NAN"],
    [1542360,"2026-02-24 13:00:00","43350","3.807","216.4","6.076","206.2","NAN","NAN","NAN","NAN","NAN"],
    [1542361,"2026-02-24 13:10:00","43351","3.464","231.4","6.305","235.9","NAN","NAN","NAN","NAN","NAN"],
    [1542362,"2026-02-24 13:20:00","43352","3.5980000000000003","230.5","6.37","216.3","NAN","NAN","NAN","NAN","NAN"],
    [1542363,"2026-02-24 13:30:00","43353","3.205","230.8","6.925","258.4","NAN","NAN","NAN","NAN","NAN"],
    [1542364,"2026-02-24 13:40:00","43354","3.388","224.8","5.88","216.5","NAN","NAN","NAN","NAN","NAN"],
    [1542365,"2026-02-24 13:50:00","43355","3.285","241.1","5.978","255.5","NAN","NAN","NAN","NAN","NAN"],
    [1542366,"2026-02-24 14:00:00","43356","3.612","220.0","6.174","218.2","NAN","NAN","NAN","NAN","NAN"],
    [1542367,"2026-02-24 14:10:00","43357","3.552","225.0","5.913","220.9","NAN","NAN","NAN","NAN","NAN"],
    [1542368,"2026-02-24 14:20:00","43358","3.282","241.4","5.945","254.8","NAN","NAN","NAN","NAN","NAN"],
    [1542369,"2026-02-24 14:30:00","43359","2.9619999999999997","220.3","5.325","228.7","NAN","NAN","NAN","NAN","NAN"],
    [1542370,"2026-02-24 14:40:00","43360","3.779","228.7","6.239","232.3","NAN","NAN","NAN","NAN","NAN"],
    [1542371,"2026-02-24 14:50:00","43361","3.2689999999999997","235.4","5.815","219.3","NAN","NAN","NAN","NAN","NAN"],
    [1542372,"2026-02-24 15:00:00","43362","3.245","219.6","5.782","224.8","NAN","NAN","NAN","NAN","NAN"],
    [1542373,"2026-02-24 15:10:00","43363","3.786","231.0","6.533","241","NAN","NAN","NAN","NAN","NAN"],
    [1542374,"2026-02-24 15:20:00","43364","3.259","215.6","6.109","210.6","NAN","NAN","NAN","NAN","NAN"],
    [1542375,"2026-02-24 15:30:00","43365","2.736","223.9","5.782","217.3","NAN","NAN","NAN","NAN","NAN"],
    [1542376,"2026-02-24 15:40:00","43366","2.8989999999999996","222.6","5.553","231.9","NAN","NAN","NAN","NAN","NAN"],
    [1542377,"2026-02-24 15:50:00","43367","3.591","234.5","5.749","216.7","NAN","NAN","NAN","NAN","NAN"],
    [1542378,"2026-02-24 16:00:00","43368","3.822","229.7","6.762","226.7","NAN","NAN","NAN","NAN","NAN"],
    [1542379,"2026-02-24 16:10:00","43369","4.117","232.7","7.023","221.4","NAN","NAN","NAN","NAN","NAN"],
    [1542380,"2026-02-24 16:20:00","43370","3.972","232.4","6.239","207.6","NAN","NAN","NAN","NAN","NAN"],
    [1542381,"2026-02-24 16:30:00","43371","3.112","233.6","5.619","246.5","NAN","NAN","NAN","NAN","NAN"],
    [1542382,"2026-02-24 16:40:00","43372","2.891","230.3","5.39","228.1","NAN","NAN","NAN","NAN","NAN"],
    [1542383,"2026-02-24 16:50:00","43373","3.0039999999999996","231.7","5.096","236.4","NAN","NAN","NAN","NAN","NAN"],
    [1542384,"2026-02-24 17:00:00","43374","2.911","227.2","5.586","235.7","NAN","NAN","NAN","NAN","NAN"],
    [1542385,"2026-02-24 17:10:00","43375","3.135","230.1","5.39","234.2","NAN","NAN","NAN","NAN","NAN"],
    [1542386,"2026-02-24 17:20:00","43376","3.2910000000000004","238.2","5.325","236.6","NAN","NAN","NAN","NAN","NAN"],
    [1542387,"2026-02-24 17:30:00","43377","3.14","245.2","5.782","234.6","NAN","NAN","NAN","NAN","NAN"],
    [1542388,"2026-02-24 17:40:00","43378","2.33","238.3","4.377","243.4","NAN","NAN","NAN","NAN","NAN"],
    [1542389,"2026-02-24 17:50:00","43379","1.955","238.3","4.312","230.8","NAN","NAN","NAN","NAN","NAN"],
    [1542390,"2026-02-24 18:00:00","43380","1.483","233.4","3.136","240.3","NAN","NAN","NAN","NAN","NAN"],
    [1542391,"2026-02-24 18:10:00","43381","1.439","231.1","2.777","230.4","NAN","NAN","NAN","NAN","NAN"],
    [1542392,"2026-02-24 18:20:00","43382","2.379","248.4","4.443","250.5","NAN","NAN","NAN","NAN","NAN"],
    [1542393,"2026-02-24 18:30:00","43383","1.962","252.8","3.365","249.3","NAN","NAN","NAN","NAN","NAN"],
    [1542394,"2026-02-24 18:40:00","43384","1.6780000000000002","238.6","3.495","220","NAN","NAN","NAN","NAN","NAN"],
    [1542395,"2026-02-24 18:50:00","43385","1.286","244.4","2.646","244.8","NAN","NAN","NAN","NAN","NAN"],
    [1542396,"2026-02-24 19:00:00","43386","1.042","243.9","2.287","245.1","NAN","NAN","NAN","NAN","NAN"],
    [1542397,"2026-02-24 19:10:00","43387","1.7530000000000001","241.8","3.397","242.8","NAN","NAN","NAN","NAN","NAN"],
    [1542398,"2026-02-24 19:20:00","43388","1.784","241.7","3.071","232.4","NAN","NAN","NAN","NAN","NAN"],
    [1542399,"2026-02-24 19:30:00","43389","1.4909999999999999","238.5","3.169","240","NAN","NAN","NAN","NAN","NAN"],
    [1542400,"2026-02-24 19:40:00","43390","1.8780000000000001","238.1","3.561","229.6","NAN","NAN","NAN","NAN","NAN"],
    [1542401,"2026-02-24 19:50:00","43391","1.858","242.2","3.691","241.2","NAN","NAN","NAN","NAN","NAN"],
    [1542402,"2026-02-24 20:00:00","43392","1.696","247.4","2.613","245.4","NAN","NAN","NAN","NAN","NAN"],
    [1542403,"2026-02-24 20:10:00","43393","1.726","247.7","3.267","247","NAN","NAN","NAN","NAN","NAN"],
    [1542404,"2026-02-24 20:20:00","43394","1.827","248.6","3.43","248.6","NAN","NAN","NAN","NAN","NAN"],
    [1542405,"2026-02-24 20:30:00","43395","1.556","249.6","2.777","250","NAN","NAN","NAN","NAN","NAN"],
    [1542406,"2026-02-24 20:40:00","43396","2.378","250.2","3.659","250.1","NAN","NAN","NAN","NAN","NAN"],
    [1542407,"2026-02-24 20:50:00","43397","2.4659999999999997","250.2","3.985","252.2","NAN","NAN","NAN","NAN","NAN"],
    [1542408,"2026-02-24 21:00:00","43398","1.9380000000000002","247.9","3.071","247.6","NAN","NAN","NAN","NAN","NAN"],
    [1542409,"2026-02-24 21:10:00","43399","1.726","249.1","3.234","245.1","NAN","NAN","NAN","NAN","NAN"],
    [1542410,"2026-02-24 21:20:00","43400","1.6480000000000001","251.5","2.711","252.7","NAN","NAN","NAN","NAN","NAN"],
    [1542411,"2026-02-24 21:30:00","43401","2.209","251.8","3.953","255.6","NAN","NAN","NAN","NAN","NAN"],
    [1542412,"2026-02-24 21:40:00","43402","3.076","255.9","4.541","258.6","NAN","NAN","NAN","NAN","NAN"],
    [1542413,"2026-02-24 21:50:00","43403","3.306","251.5","4.802","251","NAN","NAN","NAN","NAN","NAN"],
    [1542414,"2026-02-24 22:00:00","43404","3.176","251.8","5.357","256.4","NAN","NAN","NAN","NAN","NAN"],
    [1542415,"2026-02-24 22:10:00","43405","3.108","251.1","4.475","244.6","NAN","NAN","NAN","NAN","NAN"],
    [1542416,"2026-02-24 22:20:00","43406","3.115","250.2","4.769","257.2","NAN","NAN","NAN","NAN","NAN"],
    [1542417,"2026-02-24 22:30:00","43407","3.188","242.7","5.717","243","NAN","NAN","NAN","NAN","NAN"],
    [1542418,"2026-02-24 22:40:00","43408","2.9539999999999997","244.5","5.259","241.6","NAN","NAN","NAN","NAN","NAN"],
    [1542419,"2026-02-24 22:50:00","43409","2.846","251.4","4.737","253.4","NAN","NAN","NAN","NAN","NAN"],
    [1542420,"2026-02-24 23:00:00","43410","2.251","260.5","3.985","253.2","NAN","NAN","NAN","NAN","NAN"],
    [1542421,"2026-02-24 23:10:00","43411","1.5730000000000002","263.1","2.417","260.7","NAN","NAN","NAN","NAN","NAN"],
    [1542422,"2026-02-24 23:20:00","43412","1.514","263.6","2.189","264.5","NAN","NAN","NAN","NAN","NAN"],
    [1542423,"2026-02-24 23:30:00","43413","1.5819999999999999","264.1","2.254","264.4","NAN","NAN","NAN","NAN","NAN"],
    [1542424,"2026-02-24 23:40:00","43414","0.948","264.6","2.156","264.5","NAN","NAN","NAN","NAN","NAN"],
    [1542425,"2026-02-24 23:50:00","43415","0.595","264.3","1.372","260.1","NAN","NAN","NAN","NAN","NAN"],
    [1542426,"2026-02-25 00:00:00","43416","1.354","262.2","2.744","264.7","NAN","NAN","NAN","NAN","NAN"],
    [1542427,"2026-02-25 00:10:00","43417","2.024","267.5","3.299","264.7","NAN","NAN","NAN","NAN","NAN"],
    [1542428,"2026-02-25 00:20:00","43418","1.459","266.0","2.711","266.6","NAN","NAN","NAN","NAN","NAN"],
    [1542429,"2026-02-25 00:30:00","43419","2.136","266.8","2.973","266.5","NAN","NAN","NAN","NAN","NAN"],
    [1542430,"2026-02-25 00:40:00","43420","1.469","268.3","2.352","271.3","NAN","NAN","NAN","NAN","NAN"],
    [1542431,"2026-02-25 00:50:00","43421","1.535","265.8","2.221","268.2","NAN","NAN","NAN","NAN","NAN"],
    [1542432,"2026-02-25 01:00:00","43422","1.777","265.5","3.365","263.1","NAN","NAN","NAN","NAN","NAN"],
    [1542433,"2026-02-25 01:10:00","43423","1.7730000000000001","269.7","3.103","266.9","NAN","NAN","NAN","NAN","NAN"],
    [1542434,"2026-02-25 01:20:00","43424","1.5030000000000001","264.8","2.744","260.8","NAN","NAN","NAN","NAN","NAN"],
    [1542435,"2026-02-25 01:30:00","43425","1.944","261.5","3.626","263.5","NAN","NAN","NAN","NAN","NAN"],
    [1542436,"2026-02-25 01:40:00","43426","2.286","249.5","3.92","248.5","NAN","NAN","NAN","NAN","NAN"],
    [1542437,"2026-02-25 01:50:00","43427","2.499","249.4","3.528","244.4","NAN","NAN","NAN","NAN","NAN"],
    [1542438,"2026-02-25 02:00:00","43428","2.116","250.0","3.201","243.8","NAN","NAN","NAN","NAN","NAN"],
    [1542439,"2026-02-25 02:10:00","43429","1.494","243.8","2.548","241.6","NAN","NAN","NAN","NAN","NAN"],
    [1542440,"2026-02-25 02:20:00","43430","1.2409999999999999","242.1","2.319","241","NAN","NAN","NAN","NAN","NAN"],
    [1542441,"2026-02-25 02:30:00","43431","1.4609999999999999","238.2","3.005","235.3","NAN","NAN","NAN","NAN","NAN"],
    [1542442,"2026-02-25 02:40:00","43432","0.607","239.8","2.45","236.8","NAN","NAN","NAN","NAN","NAN"],
    [1542443,"2026-02-25 02:50:00","43433","0.324","247.2","1.862","235.3","NAN","NAN","NAN","NAN","NAN"],
    [1542444,"2026-02-25 03:00:00","43434","0.9009999999999999","253.3","2.352","253.1","NAN","NAN","NAN","NAN","NAN"],
    [1542445,"2026-02-25 03:10:00","43435","1.074","253.8","1.764","253.6","NAN","NAN","NAN","NAN","NAN"],
    [1542446,"2026-02-25 03:20:00","43436","1.187","253.9","2.091","254","NAN","NAN","NAN","NAN","NAN"],
    [1542447,"2026-02-25 03:30:00","43437","0.895","251.0","1.797","244.2","NAN","NAN","NAN","NAN","NAN"],
    [1542448,"2026-02-25 03:40:00","43438","0.35","251.9","1.241","251.5","NAN","NAN","NAN","NAN","NAN"],
    [1542449,"2026-02-25 03:50:00","43439","0.0","0.0","0","0","NAN","NAN","NAN","NAN","NAN"],
    [1542450,"2026-02-25 04:00:00","43440","0.0","0.0","0","0","NAN","NAN","NAN","NAN","NAN"],
    [1542451,"2026-02-25 04:10:00","43441","0.037000000000000005","253.6","0.523","253.6","NAN","NAN","NAN","NAN","NAN"],
    [1542452,"2026-02-25 04:20:00","43442","0.147","253.8","0.751","253.8","NAN","NAN","NAN","NAN","NAN"],
    [1542453,"2026-02-25 04:30:00","43443","0.024","254.0","0.327","254.1","NAN","NAN","NAN","NAN","NAN"],
    [1542454,"2026-02-25 04:40:00","43444","0.0","0.0","0","0","NAN","NAN","NAN","NAN","NAN"],
    [1542455,"2026-02-25 04:50:00","43445","0.026000000000000002","254.2","0.49","254.1","NAN","NAN","NAN","NAN","NAN"],
    [1542456,"2026-02-25 05:00:00","43446","0.146","254.7","1.241","254.9","NAN","NAN","NAN","NAN","NAN"],
    [1542457,"2026-02-25 05:10:00","43447","0.308","330.6","1.47","256.5","NAN","NAN","NAN","NAN","NAN"],
    [1542458,"2026-02-25 05:20:00","43448","0.455","338.9","1.372","338.9","NAN","NAN","NAN","NAN","NAN"],
    [1542459,"2026-02-25 05:30:00","43449","1.3780000000000001","358.0","3.92","18.91","NAN","NAN","NAN","NAN","NAN"],
    [1542460,"2026-02-25 05:40:00","43450","1.52","26.16","2.777","25.4","NAN","NAN","NAN","NAN","NAN"],
    [1542461,"2026-02-25 05:50:00","43451","1.844","27.02","2.973","27.19","NAN","NAN","NAN","NAN","NAN"],
    [1542462,"2026-02-25 06:00:00","43452","2.066","27.41","3.724","27.77","NAN","NAN","NAN","NAN","NAN"],
    [1542463,"2026-02-25 06:10:00","43453","2.388","28.19","4.083","26.59","NAN","NAN","NAN","NAN","NAN"],
    [1542464,"2026-02-25 06:20:00","43454","2.344","30.31","4.737","30.12","NAN","NAN","NAN","NAN","NAN"],
    [1542465,"2026-02-25 06:30:00","43455","2.237","30.69","3.659","34.09","NAN","NAN","NAN","NAN","NAN"],
    [1542466,"2026-02-25 06:40:00","43456","2.479","37.57","4.965","42.06","NAN","NAN","NAN","NAN","NAN"],
    [1542467,"2026-02-25 06:50:00","43457","2.485","43.0","5.423","43.4","NAN","NAN","NAN","NAN","NAN"],
    [1542468,"2026-02-25 07:00:00","43458","2.3480000000000003","45.82","4.541","42.94","NAN","NAN","NAN","NAN","NAN"],
    [1542469,"2026-02-25 07:10:00","43459","2.209","54.56","4.835","52.31","NAN","NAN","NAN","NAN","NAN"],
    [1542470,"2026-02-25 07:20:00","43460","2.57","62.7","5.619","66.27","NAN","NAN","NAN","NAN","NAN"],
    [1542471,"2026-02-25 07:30:00","43461","2.967","77.33","4.998","80.7","NAN","NAN","NAN","NAN","NAN"],
    [1542472,"2026-02-25 07:40:00","43462","2.7239999999999998","76.15","5.031","68.46","NAN","NAN","NAN","NAN","NAN"],
    [1542473,"2026-02-25 07:50:00","43463","2.549","66.52","5.325","59.84","NAN","NAN","NAN","NAN","NAN"],
    [1542474,"2026-02-25 08:00:00","43464","3.0669999999999997","49.02","5.325","54.34","NAN","NAN","NAN","NAN","NAN"],
    [1542475,"2026-02-25 08:10:00","43465","2.975","51.19","5.325","66.88","NAN","NAN","NAN","NAN","NAN"],
    [1542476,"2026-02-25 08:20:00","43466","3.0039999999999996","66.9","5.521","74.29","NAN","NAN","NAN","NAN","NAN"],
    [1542477,"2026-02-25 08:30:00","43467","3.116","60.43","5.227","61.65","NAN","NAN","NAN","NAN","NAN"],
    [1542478,"2026-02-25 08:40:00","43468","2.911","67.19","4.867","61.31","NAN","NAN","NAN","NAN","NAN"],
    [1542479,"2026-02-25 08:50:00","43469","3.292","69.4","5.194","67.24","NAN","NAN","NAN","NAN","NAN"],
    [1542480,"2026-02-25 09:00:00","43470","3.122","68.08","5.978","60.83","NAN","NAN","NAN","NAN","NAN"],
    [1542481,"2026-02-25 09:10:00","43471","3.6710000000000003","74.43","6.305","71.66","NAN","NAN","NAN","NAN","NAN"],
    [1542482,"2026-02-25 09:20:00","43472","2.905","67.27","5.553","72.5","NAN","NAN","NAN","NAN","NAN"],
    [1542483,"2026-02-25 09:30:00","43473","2.9610000000000003","66.92","5.586","69.82","NAN","NAN","NAN","NAN","NAN"],
    [1542484,"2026-02-25 09:40:00","43474","2.237","83.7","4.639","83","NAN","NAN","NAN","NAN","NAN"],
    [1542485,"2026-02-25 09:50:00","43475","3.5269999999999997","66.44","6.697","65.23","NAN","NAN","NAN","NAN","NAN"],
    [1542486,"2026-02-25 10:00:00","43476","3.156","66.86","5.651","69.44","NAN","NAN","NAN","NAN","NAN"],
    [1542487,"2026-02-25 10:10:00","43477","3.3539999999999996","62.6","5.292","63.55","NAN","NAN","NAN","NAN","NAN"],
    [1542488,"2026-02-25 10:20:00","43478","2.945","60.38","5.259","65.49","NAN","NAN","NAN","NAN","NAN"],
    [1542489,"2026-02-25 10:30:00","43479","3.5869999999999997","61.81","5.847","69.39","NAN","NAN","NAN","NAN","NAN"],
    [1542490,"2026-02-25 10:40:00","43480","3.2939999999999996","64.25","5.455","67.6","NAN","NAN","NAN","NAN","NAN"],
    [1542491,"2026-02-25 10:50:00","43481","3.011","58.19","5.651","57.11","NAN","NAN","NAN","NAN","NAN"],
    [1542492,"2026-02-25 11:00:00","43482","2.647","57.22","5.096","63.78","NAN","NAN","NAN","NAN","NAN"],
    [1542493,"2026-02-25 11:10:00","43483","2.576","54.84","5.259","74.35","NAN","NAN","NAN","NAN","NAN"],
    [1542494,"2026-02-25 11:20:00","43484","2.628","54.12","4.867","63.84","NAN","NAN","NAN","NAN","NAN"],
    [1542495,"2026-02-25 11:30:00","43485","2.9139999999999997","60.07","4.671","68.47","NAN","NAN","NAN","NAN","NAN"],
    [1542496,"2026-02-25 11:40:00","43486","2.997","65.49","4.541","67.17","NAN","NAN","NAN","NAN","NAN"],
    [1542497,"2026-02-25 11:50:00","43487","2.967","68.53","4.998","76.19","NAN","NAN","NAN","NAN","NAN"],
    [1542498,"2026-02-25 12:00:00","43488","2.804","66.69","4.835","60.87","NAN","NAN","NAN","NAN","NAN"],
    [1542499,"2026-02-25 12:10:00","43489","3.2539999999999996","64.99","4.802","67.95","NAN","NAN","NAN","NAN","NAN"],
    [1542500,"2026-02-25 12:20:00","43490","3.486","64.6","5.325","67.28","NAN","NAN","NAN","NAN","NAN"],
    [1542501,"2026-02-25 12:30:00","43491","3.0","67.9","5.423","71.89","NAN","NAN","NAN","NAN","NAN"],
    [1542502,"2026-02-25 12:40:00","43492","3.0639999999999996","71.02","4.933","58.15","NAN","NAN","NAN","NAN","NAN"],
    [1542503,"2026-02-25 12:50:00","43493","3.1239999999999997","69.64","5.096","65.19","NAN","NAN","NAN","NAN","NAN"],
    [1542504,"2026-02-25 13:00:00","43494","3.2460000000000004","74.7","5.913","60.51","NAN","NAN","NAN","NAN","NAN"],
    [1542505,"2026-02-25 13:10:00","43495","3.096","73.83","5.194","65.52","NAN","NAN","NAN","NAN","NAN"],
    [1542506,"2026-02-25 13:20:00","43496","3.602","74.55","6.305","68.48","NAN","NAN","NAN","NAN","NAN"],
    [1542507,"2026-02-25 13:30:00","43497","3.363","96.0","5.455","105.5","NAN","NAN","NAN","NAN","NAN"],
    [1542508,"2026-02-25 13:40:00","43498","3.4560000000000004","100.6","5.749","104.8","NAN","NAN","NAN","NAN","NAN"],
    [1542509,"2026-02-25 13:50:00","43499","3.5439999999999996","96.4","5.39","93.3","NAN","NAN","NAN","NAN","NAN"],
    [1542510,"2026-02-25 14:00:00","43500","3.707","95.3","6.141","91.4","NAN","NAN","NAN","NAN","NAN"],
    [1542511,"2026-02-25 14:10:00","43501","2.7739999999999996","89.8","5.031","100","NAN","NAN","NAN","NAN","NAN"],
    [1542512,"2026-02-25 14:20:00","43502","2.85","90.3","4.802","100.8","NAN","NAN","NAN","NAN","NAN"],
    [1542513,"2026-02-25 14:30:00","43503","2.984","77.46","5.096","69.51","NAN","NAN","NAN","NAN","NAN"],
    [1542514,"2026-02-25 14:40:00","43504","3.3510000000000004","74.03","6.435","61.01","NAN","NAN","NAN","NAN","NAN"],
    [1542515,"2026-02-25 14:50:00","43505","3.353","85.7","5.259","95.2","NAN","NAN","NAN","NAN","NAN"],
    [1542516,"2026-02-25 15:00:00","43506","4.024","99.8","6.403","93.7","NAN","NAN","NAN","NAN","NAN"],
    [1542517,"2026-02-25 15:10:00","43507","4.329","94.8","6.272","91.7","NAN","NAN","NAN","NAN","NAN"],
    [1542518,"2026-02-25 15:20:00","43508","3.904","97.7","6.305","95.3","NAN","NAN","NAN","NAN","NAN"],
    [1542519,"2026-02-25 15:30:00","43509","4.162","99.3","6.37","97.6","NAN","NAN","NAN","NAN","NAN"],
    [1542520,"2026-02-25 15:40:00","43510","3.2889999999999997","95.7","5.749","91.9","NAN","NAN","NAN","NAN","NAN"],
    [1542521,"2026-02-25 15:50:00","43511","3.014","97.7","5.031","102.9","NAN","NAN","NAN","NAN","NAN"],
    [1542522,"2026-02-25 16:00:00","43512","3.523","99.7","5.031","98","NAN","NAN","NAN","NAN","NAN"],
    [1542523,"2026-02-25 16:10:00","43513","2.977","79.29","5.325","51.7","NAN","NAN","NAN","NAN","NAN"],
    [1542524,"2026-02-25 16:20:00","43514","3.7319999999999998","68.76","6.272","66.76","NAN","NAN","NAN","NAN","NAN"],
    [1542525,"2026-02-25 16:30:00","43515","3.279","68.96","4.933","68.91","NAN","NAN","NAN","NAN","NAN"],
    [1542526,"2026-02-25 16:40:00","43516","3.568","69.14","5.455","65.82","NAN","NAN","NAN","NAN","NAN"],
    [1542527,"2026-02-25 16:50:00","43517","3.35","72.32","4.965","67.28","NAN","NAN","NAN","NAN","NAN"],
    [1542528,"2026-02-25 17:00:00","43518","3.3760000000000003","71.39","5.553","71.01","NAN","NAN","NAN","NAN","NAN"],
    [1542529,"2026-02-25 17:10:00","43519","3.5210000000000004","71.19","6.011","77.67","NAN","NAN","NAN","NAN","NAN"],
    [1542530,"2026-02-25 17:20:00","43520","2.735","67.41","4.9","74.98","NAN","NAN","NAN","NAN","NAN"],
    [1542531,"2026-02-25 17:30:00","43521","2.543","68.37","4.573","58.54","NAN","NAN","NAN","NAN","NAN"],
    [1542532,"2026-02-25 17:40:00","43522","2.2680000000000002","68.63","4.051","62.42","NAN","NAN","NAN","NAN","NAN"],
    [1542533,"2026-02-25 17:50:00","43523","2.559","65.5","4.083","66.61","NAN","NAN","NAN","NAN","NAN"],
    [1542534,"2026-02-25 18:00:00","43524","3.0239999999999996","67.14","4.769","66.54","NAN","NAN","NAN","NAN","NAN"],
    [1542535,"2026-02-25 18:10:00","43525","3.1189999999999998","68.14","4.802","64.22","NAN","NAN","NAN","NAN","NAN"],
    [1542536,"2026-02-25 18:20:00","43526","2.504","65.04","4.769","61.73","NAN","NAN","NAN","NAN","NAN"],
    [1542537,"2026-02-25 18:30:00","43527","2.72","66.29","4.867","70.91","NAN","NAN","NAN","NAN","NAN"],
    [1542538,"2026-02-25 18:40:00","43528","2.9930000000000003","66.3","4.41","73.08","NAN","NAN","NAN","NAN","NAN"],
    [1542539,"2026-02-25 18:50:00","43529","2.272","63.51","4.639","58.93","NAN","NAN","NAN","NAN","NAN"],
    [1542540,"2026-02-25 19:00:00","43530","1.984","58.57","3.757","59.8","NAN","NAN","NAN","NAN","NAN"],
    [1542541,"2026-02-25 19:10:00","43531","2.239","58.06","4.9","68.82","NAN","NAN","NAN","NAN","NAN"],
    [1542542,"2026-02-25 19:20:00","43532","1.517","58.23","3.985","60.51","NAN","NAN","NAN","NAN","NAN"],
    [1542543,"2026-02-25 19:30:00","43533","1.903","55.61","3.887","49.48","NAN","NAN","NAN","NAN","NAN"],
    [1542544,"2026-02-25 19:40:00","43534","1.8159999999999998","52.19","4.149","58.13","NAN","NAN","NAN","NAN","NAN"],
    [1542545,"2026-02-25 19:50:00","43535","2.151","50.14","3.887","46.65","NAN","NAN","NAN","NAN","NAN"],
    [1542546,"2026-02-25 20:00:00","43536","2.569","52.47","4.41","53.1","NAN","NAN","NAN","NAN","NAN"],
    [1542547,"2026-02-25 20:10:00","43537","1.919","51.22","3.626","43.36","NAN","NAN","NAN","NAN","NAN"],
    [1542548,"2026-02-25 20:20:00","43538","2.213","51.63","4.279","54.66","NAN","NAN","NAN","NAN","NAN"],
    [1542549,"2026-02-25 20:30:00","43539","2.391","55.61","4.737","61.85","NAN","NAN","NAN","NAN","NAN"],
    [1542550,"2026-02-25 20:40:00","43540","2.256","52.12","5.129","59.15","NAN","NAN","NAN","NAN","NAN"],
    [1542551,"2026-02-25 20:50:00","43541","2.2","53.32","4.247","55.78","NAN","NAN","NAN","NAN","NAN"],
    [1542552,"2026-02-25 21:00:00","43542","2.989","60.72","5.129","63.51","NAN","NAN","NAN","NAN","NAN"],
    [1542553,"2026-02-25 21:10:00","43543","2.249","58.39","4.018","52.39","NAN","NAN","NAN","NAN","NAN"],
    [1542554,"2026-02-25 21:20:00","43544","2.23","64.81","4.181","55.99","NAN","NAN","NAN","NAN","NAN"],
    [1542555,"2026-02-25 21:30:00","43545","3.264","71.84","5.521","71.2","NAN","NAN","NAN","NAN","NAN"],
    [1542556,"2026-02-25 21:40:00","43546","3.154","72.63","5.782","63.94","NAN","NAN","NAN","NAN","NAN"],
    [1542557,"2026-02-25 21:50:00","43547","3.378","69.17","6.403","66.32","NAN","NAN","NAN","NAN","NAN"],
    [1542558,"2026-02-25 22:00:00","43548","3.147","60.45","5.063","45.46","NAN","NAN","NAN","NAN","NAN"],
    [1542559,"2026-02-25 22:10:00","43549","2.204","55.3","3.953","63.12","NAN","NAN","NAN","NAN","NAN"],
    [1542560,"2026-02-25 22:20:00","43550","2.96","44.47","4.737","31.13","NAN","NAN","NAN","NAN","NAN"],
    [1542561,"2026-02-25 22:30:00","43551","3.1210000000000004","34.89","4.933","43.39","NAN","NAN","NAN","NAN","NAN"],
    [1542562,"2026-02-25 22:40:00","43552","2.495","39.4","4.475","39.02","NAN","NAN","NAN","NAN","NAN"],
    [1542563,"2026-02-25 22:50:00","43553","2.602","45.28","5.096","54.28","NAN","NAN","NAN","NAN","NAN"],
    [1542564,"2026-02-25 23:00:00","43554","3.21","45.84","4.933","35.97","NAN","NAN","NAN","NAN","NAN"],
    [1542565,"2026-02-25 23:10:00","43555","2.983","63.24","5.194","66.05","NAN","NAN","NAN","NAN","NAN"],
    [1542566,"2026-02-25 23:20:00","43556","2.895","47.71","4.606","43.07","NAN","NAN","NAN","NAN","NAN"],
    [1542567,"2026-02-25 23:30:00","43557","2.6","45.75","4.867","47.91","NAN","NAN","NAN","NAN","NAN"],
    [1542568,"2026-02-25 23:40:00","43558","2.6239999999999997","51.21","4.312","48.85","NAN","NAN","NAN","NAN","NAN"],
    [1542569,"2026-02-25 23:50:00","43559","2.657","64.1","5.586","73.31","NAN","NAN","NAN","NAN","NAN"],
    [1542570,"2026-02-26 00:00:00","43560","2.734","63.65","6.207","74.95","NAN","NAN","NAN","NAN","NAN"],
    [1542571,"2026-02-26 00:10:00","43561","2.656","48.77","4.247","52.79","NAN","NAN","NAN","NAN","NAN"],
    [1542572,"2026-02-26 00:20:00","43562","2.447","45.54","4.312","45.56","NAN","NAN","NAN","NAN","NAN"],
    [1542573,"2026-02-26 00:30:00","43563","1.807","51.38","3.593","59.42","NAN","NAN","NAN","NAN","NAN"],
    [1542574,"2026-02-26 00:40:00","43564","1.5590000000000002","43.81","3.528","59.99","NAN","NAN","NAN","NAN","NAN"],
    [1542575,"2026-02-26 00:50:00","43565","1.5830000000000002","37.42","3.234","36.9","NAN","NAN","NAN","NAN","NAN"],
    [1542576,"2026-02-26 01:00:00","43566","1.181","36.2","2.254","36.04","NAN","NAN","NAN","NAN","NAN"],
    [1542577,"2026-02-26 01:10:00","43567","1.035","35.61","2.221","35.74","NAN","NAN","NAN","NAN","NAN"],
    [1542578,"2026-02-26 01:20:00","43568","1.21","35.35","2.45","35.27","NAN","NAN","NAN","NAN","NAN"],
    [1542579,"2026-02-26 01:30:00","43569","1.187","34.58","2.221","34.78","NAN","NAN","NAN","NAN","NAN"],
    [1542580,"2026-02-26 01:40:00","43570","1.321","33.86","2.417","33.82","NAN","NAN","NAN","NAN","NAN"],
    [1542581,"2026-02-26 01:50:00","43571","1.202","33.72","1.96","33.73","NAN","NAN","NAN","NAN","NAN"],
    [1542582,"2026-02-26 02:00:00","43572","0.6779999999999999","33.53","1.829","33.53","NAN","NAN","NAN","NAN","NAN"],
    [1542583,"2026-02-26 02:10:00","43573","0.1","33.53","0.98","33.53","NAN","NAN","NAN","NAN","NAN"],
    [1542584,"2026-02-26 02:20:00","43574","0.071","33.53","0.751","33.53","NAN","NAN","NAN","NAN","NAN"],
    [1542585,"2026-02-26 02:30:00","43575","0.0","0.0","0","0","NAN","NAN","NAN","NAN","NAN"],
    [1542586,"2026-02-26 02:40:00","43576","0.03","33.54","0.621","33.53","NAN","NAN","NAN","NAN","NAN"],
    [1542587,"2026-02-26 02:50:00","43577","0.022000000000000002","33.53","0.359","33.54","NAN","NAN","NAN","NAN","NAN"],
    [1542588,"2026-02-26 03:00:00","43578","0.0","0.0","0","0","NAN","NAN","NAN","NAN","NAN"],
    [1542589,"2026-02-26 03:10:00","43579","0.0","0.0","0","0","NAN","NAN","NAN","NAN","NAN"],
    [1542590,"2026-02-26 03:20:00","43580","0.0","0.0","0","0","NAN","NAN","NAN","NAN","NAN"],
    [1542591,"2026-02-26 03:30:00","43581","0.01","33.45","0.359","33.45","NAN","NAN","NAN","NAN","NAN"],
    [1542592,"2026-02-26 03:40:00","43582","0.0","0.0","0","0","NAN","NAN","NAN","NAN","NAN"],
    [1542593,"2026-02-26 03:50:00","43583","0.024","33.41","0.392","33.39","NAN","NAN","NAN","NAN","NAN"],
    [1542594,"2026-02-26 04:00:00","43584","0.0","0.0","0","0","NAN","NAN","NAN","NAN","NAN"],
    [1542595,"2026-02-26 04:10:00","43585","0.0","0.0","0","0","NAN","NAN","NAN","NAN","NAN"],
    [1542596,"2026-02-26 04:20:00","43586","0.0","0.0","0","0","NAN","NAN","NAN","NAN","NAN"],
    [1542597,"2026-02-26 04:30:00","43587","0.0","0.0","0","0","NAN","NAN","NAN","NAN","NAN"],
    [1542598,"2026-02-26 04:40:00","43588","0.003","33.33","0.229","33.35","NAN","NAN","NAN","NAN","NAN"],
    [1542599,"2026-02-26 04:50:00","43589","0.0","0.0","0","0","NAN","NAN","NAN","NAN","NAN"],
    [1542600,"2026-02-26 05:00:00","43590","0.003","33.25","0.294","33.25","NAN","NAN","NAN","NAN","NAN"],
    [1542601,"2026-02-26 05:10:00","43591","0.003","33.18","0.294","33.16","NAN","NAN","NAN","NAN","NAN"],
    [1542602,"2026-02-26 05:20:00","43592","0.003","33.06","0.294","33.06","NAN","NAN","NAN","NAN","NAN"],
    [1542603,"2026-02-26 05:30:00","43593","0.009000000000000001","33.06","0.588","33.06","NAN","NAN","NAN","NAN","NAN"],
    [1542604,"2026-02-26 05:40:00","43594","0.0","0.0","0","0","NAN","NAN","NAN","NAN","NAN"],
    [1542605,"2026-02-26 05:50:00","43595","0.0","32.97","0.033","32.97","NAN","NAN","NAN","NAN","NAN"],
    [1542606,"2026-02-26 06:00:00","43596","0.002","32.97","0.261","32.97","NAN","NAN","NAN","NAN","NAN"],
    [1542607,"2026-02-26 06:10:00","43597","0.017","32.92","0.555","32.87","NAN","NAN","NAN","NAN","NAN"],
    [1542608,"2026-02-26 06:20:00","43598","0.006999999999999999","32.87","0.261","32.87","NAN","NAN","NAN","NAN","NAN"],
    [1542609,"2026-02-26 06:30:00","43599","0.0","32.87","0.033","32.87","NAN","NAN","NAN","NAN","NAN"],
    [1542610,"2026-02-26 06:40:00","43600","0.016","32.87","0.49","32.87","NAN","NAN","NAN","NAN","NAN"],
    [1542611,"2026-02-26 06:50:00","43601","0.008","32.83","0.359","32.83","NAN","NAN","NAN","NAN","NAN"],
    [1542612,"2026-02-26 07:00:00","43602","0.006999999999999999","32.77","0.359","32.77","NAN","NAN","NAN","NAN","NAN"],
    [1542613,"2026-02-26 07:10:00","43603","0.0","0.0","0","0","NAN","NAN","NAN","NAN","NAN"],
    [1542614,"2026-02-26 07:20:00","43604","0.0","0.0","0","0","NAN","NAN","NAN","NAN","NAN"],
    [1542615,"2026-02-26 07:30:00","43605","0.002","32.82","0.196","32.8","NAN","NAN","NAN","NAN","NAN"],
    [1542616,"2026-02-26 07:40:00","43606","0.005","32.74","0.327","32.77","NAN","NAN","NAN","NAN","NAN"],
    [1542617,"2026-02-26 07:50:00","43607","0.018000000000000002","32.7","0.523","32.69","NAN","NAN","NAN","NAN","NAN"],
    [1542618,"2026-02-26 08:00:00","43608","0.002","32.58","0.098","32.58","NAN","NAN","NAN","NAN","NAN"],
    [1542619,"2026-02-26 08:10:00","43609","0.003","32.42","0.294","32.4","NAN","NAN","NAN","NAN","NAN"],
    [1542620,"2026-02-26 08:20:00","43610","0.016","32.39","0.621","32.39","NAN","NAN","NAN","NAN","NAN"],
    [1542621,"2026-02-26 08:30:00","43611","0.44","35.29","2.025","35.31","NAN","NAN","NAN","NAN","NAN"],
    [1542622,"2026-02-26 08:40:00","43612","1.6130000000000002","49.84","2.679","47.66","NAN","NAN","NAN","NAN","NAN"],
    [1542623,"2026-02-26 08:50:00","43613","2.059","58.87","3.626","62.04","NAN","NAN","NAN","NAN","NAN"],
    [1542624,"2026-02-26 09:00:00","43614","2.153","56.09","3.691","59.67","NAN","NAN","NAN","NAN","NAN"],
    [1542625,"2026-02-26 09:10:00","43615","2.286","56.66","3.561","49.04","NAN","NAN","NAN","NAN","NAN"],
    [1542626,"2026-02-26 09:20:00","43616","1.633","56.89","3.103","64.07","NAN","NAN","NAN","NAN","NAN"],
    [1542627,"2026-02-26 09:30:00","43617","1.7480000000000002","57.23","3.561","59.99","NAN","NAN","NAN","NAN","NAN"],
    [1542628,"2026-02-26 09:40:00","43618","2.1630000000000003","65.92","3.43","67.77","NAN","NAN","NAN","NAN","NAN"],
    [1542629,"2026-02-26 09:50:00","43619","2.238","67.14","3.561","68.58","NAN","NAN","NAN","NAN","NAN"],
    [1542630,"2026-02-26 10:00:00","43620","2.342","70.11","3.855","69.6","NAN","NAN","NAN","NAN","NAN"],
    [1542631,"2026-02-26 10:10:00","43621","2.782","67.93","4.018","66.74","NAN","NAN","NAN","NAN","NAN"],
    [1542632,"2026-02-26 10:20:00","43622","2.616","63.3","4.018","63.68","NAN","NAN","NAN","NAN","NAN"],
    [1542633,"2026-02-26 10:30:00","43623","2.41","66.1","3.92","61.6","NAN","NAN","NAN","NAN","NAN"],
    [1542634,"2026-02-26 10:40:00","43624","2.555","70.34","4.443","68.02","NAN","NAN","NAN","NAN","NAN"],
    [1542635,"2026-02-26 10:50:00","43625","2.9330000000000003","68.05","4.704","61.73","NAN","NAN","NAN","NAN","NAN"],
    [1542636,"2026-02-26 11:00:00","43626","2.8569999999999998","74.35","4.867","63.75","NAN","NAN","NAN","NAN","NAN"],
    [1542637,"2026-02-26 11:10:00","43627","2.975","68.42","4.704","72.37","NAN","NAN","NAN","NAN","NAN"],
    [1542638,"2026-02-26 11:20:00","43628","2.3280000000000003","68.19","4.051","66.67","NAN","NAN","NAN","NAN","NAN"],
    [1542639,"2026-02-26 11:30:00","43629","2.316","75.33","3.789","67.98","NAN","NAN","NAN","NAN","NAN"],
    [1542640,"2026-02-26 11:40:00","43630","2.6039999999999996","98.1","4.377","100.3","NAN","NAN","NAN","NAN","NAN"],
    [1542641,"2026-02-26 11:50:00","43631","2.826","102.3","4.508","89.9","NAN","NAN","NAN","NAN","NAN"],
    [1542642,"2026-02-26 12:00:00","43632","2.68","89.9","5.129","94","NAN","NAN","NAN","NAN","NAN"],
    [1542643,"2026-02-26 12:10:00","43633","2.219","92.6","4.704","88.6","NAN","NAN","NAN","NAN","NAN"],
    [1542644,"2026-02-26 12:20:00","43634","2.487","92.5","3.92","98","NAN","NAN","NAN","NAN","NAN"],
    [1542645,"2026-02-26 12:30:00","43635","2.654","98.9","4.508","105.6","NAN","NAN","NAN","NAN","NAN"],
    [1542646,"2026-02-26 12:40:00","43636","3.0789999999999997","100.2","4.867","92.6","NAN","NAN","NAN","NAN","NAN"],
    [1542647,"2026-02-26 12:50:00","43637","2.194","104.6","3.528","113.6","NAN","NAN","NAN","NAN","NAN"],
    [1542648,"2026-02-26 13:00:00","43638","2.168","106.9","4.181","106.1","NAN","NAN","NAN","NAN","NAN"],
    [1542649,"2026-02-26 13:10:00","43639","2.532","112.7","4.606","136.6","NAN","NAN","NAN","NAN","NAN"],
    [1542650,"2026-02-26 13:20:00","43640","2.827","108.3","4.149","135.3","NAN","NAN","NAN","NAN","NAN"],
    [1542651,"2026-02-26 13:30:00","43641","2.028","110.6","4.41","91.1","NAN","NAN","NAN","NAN","NAN"],
    [1542652,"2026-02-26 13:40:00","43642","2.103","121.2","3.691","131.2","NAN","NAN","NAN","NAN","NAN"],
    [1542653,"2026-02-26 13:50:00","43643","2.4419999999999997","125.5","3.887","131","NAN","NAN","NAN","NAN","NAN"],
    [1542654,"2026-02-26 14:00:00","43644","2.325","107.6","3.757","114.9","NAN","NAN","NAN","NAN","NAN"],
    [1542655,"2026-02-26 14:10:00","43645","2.44","111.7","3.92","99.1","NAN","NAN","NAN","NAN","NAN"],
    [1542656,"2026-02-26 14:20:00","43646","2.324","105.0","4.345","99.6","NAN","NAN","NAN","NAN","NAN"],
    [1542657,"2026-02-26 14:30:00","43647","2.062","112.7","3.561","105.7","NAN","NAN","NAN","NAN","NAN"],
    [1542658,"2026-02-26 14:40:00","43648","2.597","107.6","4.247","89.5","NAN","NAN","NAN","NAN","NAN"],
    [1542659,"2026-02-26 14:50:00","43649","1.919","111.1","3.365","98.7","NAN","NAN","NAN","NAN","NAN"],
    [1542660,"2026-02-26 15:00:00","43650","2.182","135.4","3.691","138.4","NAN","NAN","NAN","NAN","NAN"],
    [1542661,"2026-02-26 15:10:00","43651","1.829","118.7","3.463","125.1","NAN","NAN","NAN","NAN","NAN"],
    [1542662,"2026-02-26 15:20:00","43652","1.693","120.4","3.757","137.2","NAN","NAN","NAN","NAN","NAN"],
    [1542663,"2026-02-26 15:30:00","43653","2.513","136.5","3.985","154.9","NAN","NAN","NAN","NAN","NAN"],
    [1542664,"2026-02-26 15:40:00","43654","2.338","142.1","3.953","135.1","NAN","NAN","NAN","NAN","NAN"],
    [1542665,"2026-02-26 15:50:00","43655","2.253","139.2","3.822","134.5","NAN","NAN","NAN","NAN","NAN"],
    [1542666,"2026-02-26 16:00:00","43656","2.1590000000000003","127.6","3.691","136.8","NAN","NAN","NAN","NAN","NAN"],
    [1542667,"2026-02-26 16:10:00","43657","2.451","138.4","3.724","138.2","NAN","NAN","NAN","NAN","NAN"],
    [1542668,"2026-02-26 16:20:00","43658","2.02","134.1","3.626","130.6","NAN","NAN","NAN","NAN","NAN"],
    [1542669,"2026-02-26 16:30:00","43659","1.3869999999999998","146.2","2.744","145.5","NAN","NAN","NAN","NAN","NAN"],
    [1542670,"2026-02-26 16:40:00","43660","1.682","132.8","2.777","136.4","NAN","NAN","NAN","NAN","NAN"],
    [1542671,"2026-02-26 16:50:00","43661","1.6380000000000001","139.6","2.907","140.6","NAN","NAN","NAN","NAN","NAN"],
    [1542672,"2026-02-26 17:00:00","43662","1.351","128.7","2.646","130.5","NAN","NAN","NAN","NAN","NAN"],
    [1542673,"2026-02-26 17:10:00","43663","1.646","130.5","2.809","132.1","NAN","NAN","NAN","NAN","NAN"],
    [1542674,"2026-02-26 17:20:00","43664","1.1520000000000001","122.5","2.221","121.2","NAN","NAN","NAN","NAN","NAN"],
    [1542675,"2026-02-26 17:30:00","43665","1.075","133.2","2.189","133.5","NAN","NAN","NAN","NAN","NAN"],
    [1542676,"2026-02-26 17:40:00","43666","1.124","135.7","1.927","137.9","NAN","NAN","NAN","NAN","NAN"],
    [1542677,"2026-02-26 17:50:00","43667","1.26","135.4","2.319","134.9","NAN","NAN","NAN","NAN","NAN"],
    [1542678,"2026-02-26 18:00:00","43668","1.097","138.9","2.417","132.4","NAN","NAN","NAN","NAN","NAN"],
    [1542679,"2026-02-26 18:10:00","43669","0.953","140.3","1.731","140.4","NAN","NAN","NAN","NAN","NAN"],
    [1542680,"2026-02-26 18:20:00","43670","0.6859999999999999","141.1","1.601","141.3","NAN","NAN","NAN","NAN","NAN"],
    [1542681,"2026-02-26 18:30:00","43671","0.514","141.5","1.47","141.5","NAN","NAN","NAN","NAN","NAN"],
    [1542682,"2026-02-26 18:40:00","43672","0.669","139.7","1.372","140.1","NAN","NAN","NAN","NAN","NAN"],
    [1542683,"2026-02-26 18:50:00","43673","0.20800000000000002","139.2","0.947","139.2","NAN","NAN","NAN","NAN","NAN"],
    [1542684,"2026-02-26 19:00:00","43674","0.01","139.2","0.261","138.6","NAN","NAN","NAN","NAN","NAN"],
    [1542685,"2026-02-26 19:10:00","43675","0.001","140.7","0.131","140.7","NAN","NAN","NAN","NAN","NAN"],
    [1542686,"2026-02-26 19:20:00","43676","0.0","0.0","0","0","NAN","NAN","NAN","NAN","NAN"],
    [1542687,"2026-02-26 19:30:00","43677","0.21600000000000003","141.3","0.751","141.4","NAN","NAN","NAN","NAN","NAN"],
    [1542688,"2026-02-26 19:40:00","43678","0.095","141.4","0.686","141.4","NAN","NAN","NAN","NAN","NAN"],
    [1542689,"2026-02-26 19:50:00","43679","0.0","0.0","0","0","NAN","NAN","NAN","NAN","NAN"],
    [1542690,"2026-02-26 20:00:00","43680","0.0","0.0","0","0","NAN","NAN","NAN","NAN","NAN"],
    [1542691,"2026-02-26 20:10:00","43681","0.001","141.8","0.131","141.8","NAN","NAN","NAN","NAN","NAN"],
    [1542692,"2026-02-26 20:20:00","43682","0.003","141.8","0.196","141.8","NAN","NAN","NAN","NAN","NAN"],
    [1542693,"2026-02-26 20:30:00","43683","0.021","141.9","0.392","142","NAN","NAN","NAN","NAN","NAN"],
    [1542694,"2026-02-26 20:40:00","43684","0.083","142.0","0.882","142","NAN","NAN","NAN","NAN","NAN"],
    [1542695,"2026-02-26 20:50:00","43685","0.062","142.7","0.49","142.4","NAN","NAN","NAN","NAN","NAN"],
    [1542696,"2026-02-26 21:00:00","43686","0.035","143.4","0.686","143.3","NAN","NAN","NAN","NAN","NAN"],
    [1542697,"2026-02-26 21:10:00","43687","0.12","144.1","0.915","143.8","NAN","NAN","NAN","NAN","NAN"],
    [1542698,"2026-02-26 21:20:00","43688","0.073","144.6","0.49","144.8","NAN","NAN","NAN","NAN","NAN"],
    [1542699,"2026-02-26 21:30:00","43689","0.064","144.9","0.457","144.9","NAN","NAN","NAN","NAN","NAN"],
    [1542700,"2026-02-26 21:40:00","43690","0.21100000000000002","145.0","0.588","145","NAN","NAN","NAN","NAN","NAN"],
    [1542701,"2026-02-26 21:50:00","43691","0.057","145.1","0.425","145.1","NAN","NAN","NAN","NAN","NAN"],
    [1542702,"2026-02-26 22:00:00","43692","0.384","145.0","0.882","145","NAN","NAN","NAN","NAN","NAN"],
    [1542703,"2026-02-26 22:10:00","43693","0.613","145.0","1.731","145.1","NAN","NAN","NAN","NAN","NAN"],
    [1542704,"2026-02-26 22:20:00","43694","0.045","145.1","0.359","145.1","NAN","NAN","NAN","NAN","NAN"],
    [1542705,"2026-02-26 22:30:00","43695","0.159","145.1","0.719","145.2","NAN","NAN","NAN","NAN","NAN"],
    [1542706,"2026-02-26 22:40:00","43696","0.544","145.6","0.98","145.7","NAN","NAN","NAN","NAN","NAN"],
    [1542707,"2026-02-26 22:50:00","43697","0.46799999999999997","153.6","1.993","148.6","NAN","NAN","NAN","NAN","NAN"],
    [1542708,"2026-02-26 23:00:00","43698","0.526","156.6","1.045","156.7","NAN","NAN","NAN","NAN","NAN"],
    [1542709,"2026-02-26 23:10:00","43699","0.616","157.4","1.307","159.1","NAN","NAN","NAN","NAN","NAN"],
    [1542710,"2026-02-26 23:20:00","43700","0.613","159.9","1.764","160","NAN","NAN","NAN","NAN","NAN"],
    [1542711,"2026-02-26 23:30:00","43701","0.431","160.0","1.633","160","NAN","NAN","NAN","NAN","NAN"],
    [1542712,"2026-02-26 23:40:00","43702","0.065","160.0","0.686","160","NAN","NAN","NAN","NAN","NAN"],
    [1542713,"2026-02-26 23:50:00","43703","0.433","160.0","1.437","160","NAN","NAN","NAN","NAN","NAN"],
    [1542714,"2026-02-27 00:00:00","43704","0.154","160.2","0.588","160.2","NAN","NAN","NAN","NAN","NAN"],
    [1542715,"2026-02-27 00:10:00","43705","0.52","160.2","1.405","160.3","NAN","NAN","NAN","NAN","NAN"],
    [1542716,"2026-02-27 00:20:00","43706","0.774","160.4","1.568","160.5","NAN","NAN","NAN","NAN","NAN"],
    [1542717,"2026-02-27 00:30:00","43707","0.747","160.8","1.535","160.9","NAN","NAN","NAN","NAN","NAN"],
    [1542718,"2026-02-27 00:40:00","43708","0.581","161.2","1.176","161.2","NAN","NAN","NAN","NAN","NAN"],
    [1542719,"2026-02-27 00:50:00","43709","0.252","161.3","1.078","161.3","NAN","NAN","NAN","NAN","NAN"],
    [1542720,"2026-02-27 01:00:00","43710","0.536","161.4","1.568","161.4","NAN","NAN","NAN","NAN","NAN"],
    [1542721,"2026-02-27 01:10:00","43711","0.7559999999999999","161.4","1.503","161.4","NAN","NAN","NAN","NAN","NAN"],
    [1542722,"2026-02-27 01:20:00","43712","0.878","161.4","1.633","161.4","NAN","NAN","NAN","NAN","NAN"],
    [1542723,"2026-02-27 01:30:00","43713","1.147","161.5","1.96","161.5","NAN","NAN","NAN","NAN","NAN"],
    [1542724,"2026-02-27 01:40:00","43714","1.207","161.5","1.96","161.5","NAN","NAN","NAN","NAN","NAN"],
    [1542725,"2026-02-27 01:50:00","43715","0.733","161.7","1.96","162","NAN","NAN","NAN","NAN","NAN"],
    [1542726,"2026-02-27 02:00:00","43716","1.119","162.9","2.156","163.1","NAN","NAN","NAN","NAN","NAN"],
    [1542727,"2026-02-27 02:10:00","43717","0.8370000000000001","176.4","1.568","164.8","NAN","NAN","NAN","NAN","NAN"],
    [1542728,"2026-02-27 02:20:00","43718","0.335","188.6","1.111","188.3","NAN","NAN","NAN","NAN","NAN"],
    [1542729,"2026-02-27 02:30:00","43719","0.28800000000000003","194.8","1.078","189.8","NAN","NAN","NAN","NAN","NAN"],
    [1542730,"2026-02-27 02:40:00","43720","0.045","213.3","0.947","210.8","NAN","NAN","NAN","NAN","NAN"],
    [1542731,"2026-02-27 02:50:00","43721","0.256","224.4","1.209","224.4","NAN","NAN","NAN","NAN","NAN"],
    [1542732,"2026-02-27 03:00:00","43722","0.525","227.2","1.764","226.7","NAN","NAN","NAN","NAN","NAN"],
    [1542733,"2026-02-27 03:10:00","43723","0.42200000000000004","234.0","1.666","238.7","NAN","NAN","NAN","NAN","NAN"],
    [1542734,"2026-02-27 03:20:00","43724","0.434","240.3","1.633","240","NAN","NAN","NAN","NAN","NAN"],
    [1542735,"2026-02-27 03:30:00","43725","0.439","241.0","1.176","241.1","NAN","NAN","NAN","NAN","NAN"],
    [1542736,"2026-02-27 03:40:00","43726","0.6579999999999999","241.4","1.895","241.2","NAN","NAN","NAN","NAN","NAN"],
    [1542737,"2026-02-27 03:50:00","43727","0.909","243.6","2.058","242.2","NAN","NAN","NAN","NAN","NAN"],
    [1542738,"2026-02-27 04:00:00","43728","1.3259999999999998","246.3","3.169","246.4","NAN","NAN","NAN","NAN","NAN"],
    [1542739,"2026-02-27 04:10:00","43729","1.1909999999999998","247.8","2.45","246.6","NAN","NAN","NAN","NAN","NAN"],
    [1542740,"2026-02-27 04:20:00","43730","1.075","251.0","2.907","251.6","NAN","NAN","NAN","NAN","NAN"],
    [1542741,"2026-02-27 04:30:00","43731","1.4569999999999999","255.2","3.201","254","NAN","NAN","NAN","NAN","NAN"],
    [1542742,"2026-02-27 04:40:00","43732","2.1109999999999998","260.8","3.463","260.9","NAN","NAN","NAN","NAN","NAN"],
    [1542743,"2026-02-27 04:50:00","43733","2.577","264.0","4.508","270.5","NAN","NAN","NAN","NAN","NAN"],
    [1542744,"2026-02-27 05:00:00","43734","2.967","275.2","4.639","264.3","NAN","NAN","NAN","NAN","NAN"],
    [1542745,"2026-02-27 05:10:00","43735","2.542","268.0","3.757","264","NAN","NAN","NAN","NAN","NAN"],
    [1542746,"2026-02-27 05:20:00","43736","2.997","267.4","4.247","268.1","NAN","NAN","NAN","NAN","NAN"],
    [1542747,"2026-02-27 05:30:00","43737","3.052","267.2","4.508","269.4","NAN","NAN","NAN","NAN","NAN"],
    [1542748,"2026-02-27 05:40:00","43738","2.537","268.1","3.855","273","NAN","NAN","NAN","NAN","NAN"],
    [1542749,"2026-02-27 05:50:00","43739","2.803","272.9","4.051","277.1","NAN","NAN","NAN","NAN","NAN"],
    [1542750,"2026-02-27 06:00:00","43740","3.147","267.7","4.998","272","NAN","NAN","NAN","NAN","NAN"],
    [1542751,"2026-02-27 06:10:00","43741","3.5069999999999997","271.6","5.129","269.6","NAN","NAN","NAN","NAN","NAN"],
    [1542752,"2026-02-27 06:20:00","43742","2.491","283.0","4.443","296.4","NAN","NAN","NAN","NAN","NAN"],
    [1542753,"2026-02-27 06:30:00","43743","2.324","283.8","3.985","287.8","NAN","NAN","NAN","NAN","NAN"],
    [1542754,"2026-02-27 06:40:00","43744","2.28","289.3","3.757","290.3","NAN","NAN","NAN","NAN","NAN"],
    [1542755,"2026-02-27 06:50:00","43745","1.575","294.1","2.777","296.8","NAN","NAN","NAN","NAN","NAN"],
    [1542756,"2026-02-27 07:00:00","43746","1.557","292.4","2.613","291.5","NAN","NAN","NAN","NAN","NAN"],
    [1542757,"2026-02-27 07:10:00","43747","1.4140000000000001","297.0","2.809","297.5","NAN","NAN","NAN","NAN","NAN"],
    [1542758,"2026-02-27 07:20:00","43748","1.2429999999999999","295.4","2.483","288.1","NAN","NAN","NAN","NAN","NAN"],
    [1542759,"2026-02-27 07:30:00","43749","1.31","297.5","2.581","298.2","NAN","NAN","NAN","NAN","NAN"],
    [1542760,"2026-02-27 07:40:00","43750","0.78","294.2","2.581","283.1","NAN","NAN","NAN","NAN","NAN"],
    [1542761,"2026-02-27 07:50:00","43751","0.9790000000000001","297.7","2.025","298.6","NAN","NAN","NAN","NAN","NAN"],
    [1542762,"2026-02-27 08:00:00","43752","1.4140000000000001","295.6","2.45","292.3","NAN","NAN","NAN","NAN","NAN"],
    [1542763,"2026-02-27 08:10:00","43753","1.074","297.3","2.45","290","NAN","NAN","NAN","NAN","NAN"],
    [1542764,"2026-02-27 08:20:00","43754","1.161","298.1","2.025","299.3","NAN","NAN","NAN","NAN","NAN"],
    [1542765,"2026-02-27 08:30:00","43755","1.31","297.4","2.679","292.2","NAN","NAN","NAN","NAN","NAN"],
    [1542766,"2026-02-27 08:40:00","43756","1.1520000000000001","287.5","2.973","278.9","NAN","NAN","NAN","NAN","NAN"],
    [1542767,"2026-02-27 08:50:00","43757","1.433","294.0","3.201","299.6","NAN","NAN","NAN","NAN","NAN"],
    [1542768,"2026-02-27 09:00:00","43758","1.176","293.5","2.515","299.5","NAN","NAN","NAN","NAN","NAN"],
    [1542769,"2026-02-27 09:10:00","43759","0.982","294.8","3.234","300.5","NAN","NAN","NAN","NAN","NAN"],
    [1542770,"2026-02-27 09:20:00","43760","0.9590000000000001","289.9","2.287","299.8","NAN","NAN","NAN","NAN","NAN"],
    [1542771,"2026-02-27 09:30:00","43761","1.077","292.5","2.613","296.4","NAN","NAN","NAN","NAN","NAN"],
    [1542772,"2026-02-27 09:40:00","43762","1.133","281.2","2.907","284.4","NAN","NAN","NAN","NAN","NAN"],
    [1542773,"2026-02-27 09:50:00","43763","0.43","272.8","2.025","277.3","NAN","NAN","NAN","NAN","NAN"],
    [1542774,"2026-02-27 10:00:00","43764","0.7140000000000001","268.8","2.091","268.4","NAN","NAN","NAN","NAN","NAN"],
    [1542775,"2026-02-27 10:10:00","43765","0.44799999999999995","279.2","1.666","285.9","NAN","NAN","NAN","NAN","NAN"],
    [1542776,"2026-02-27 10:20:00","43766","0.726","269.8","2.091","266.6","NAN","NAN","NAN","NAN","NAN"],
    [1542777,"2026-02-27 10:30:00","43767","0.919","258.9","2.515","250.2","NAN","NAN","NAN","NAN","NAN"],
    [1542778,"2026-02-27 10:40:00","43768","1.536","256.7","3.43","269.6","NAN","NAN","NAN","NAN","NAN"],
    [1542779,"2026-02-27 10:50:00","43769","1.129","259.3","3.43","270","NAN","NAN","NAN","NAN","NAN"],
    [1542780,"2026-02-27 11:00:00","43770","0.293","251.9","1.829","263.8","NAN","NAN","NAN","NAN","NAN"],
    [1542781,"2026-02-27 11:10:00","43771","0.838","236.1","3.561","219.6","NAN","NAN","NAN","NAN","NAN"],
    [1542782,"2026-02-27 11:20:00","43772","1.179","213.0","2.777","214.7","NAN","NAN","NAN","NAN","NAN"],
    [1542783,"2026-02-27 11:30:00","43773","2.301","207.1","4.083","212","NAN","NAN","NAN","NAN","NAN"],
    [1542784,"2026-02-27 11:40:00","43774","1.06","208.6","4.214","155.8","NAN","NAN","NAN","NAN","NAN"],
    [1542785,"2026-02-27 11:50:00","43775","2.559","167.3","4.541","157","NAN","NAN","NAN","NAN","NAN"],
    [1542786,"2026-02-27 12:00:00","43776","2.642","169.5","4.377","170.1","NAN","NAN","NAN","NAN","NAN"],
    [1542787,"2026-02-27 12:10:00","43777","2.802","186.0","4.769","173.1","NAN","NAN","NAN","NAN","NAN"],
    [1542788,"2026-02-27 12:20:00","43778","2.7289999999999996","167.1","4.345","166.6","NAN","NAN","NAN","NAN","NAN"],
    [1542789,"2026-02-27 12:30:00","43779","1.983","192.8","4.541","193.8","NAN","NAN","NAN","NAN","NAN"],
    [1542790,"2026-02-27 12:40:00","43780","3.177","174.8","4.671","163.9","NAN","NAN","NAN","NAN","NAN"],
    [1542791,"2026-02-27 12:50:00","43781","2.1430000000000002","187.8","4.606","176.2","NAN","NAN","NAN","NAN","NAN"],
    [1542792,"2026-02-27 13:00:00","43782","2.787","195.0","4.933","175.3","NAN","NAN","NAN","NAN","NAN"],
    [1542793,"2026-02-27 13:10:00","43783","2.718","178.9","4.377","168.9","NAN","NAN","NAN","NAN","NAN"],
    [1542794,"2026-02-27 13:20:00","43784","3.12","171.2","4.671","179.2","NAN","NAN","NAN","NAN","NAN"],
    [1542795,"2026-02-27 13:30:00","43785","2.367","173.7","4.181","175.5","NAN","NAN","NAN","NAN","NAN"],
    [1542796,"2026-02-27 13:40:00","43786","2.384","191.7","4.181","221.1","NAN","NAN","NAN","NAN","NAN"],
    [1542797,"2026-02-27 13:50:00","43787","2.36","203.3","4.704","213.3","NAN","NAN","NAN","NAN","NAN"],
    [1542798,"2026-02-27 14:00:00","43788","1.825","190.2","4.116","221.5","NAN","NAN","NAN","NAN","NAN"],
    [1542799,"2026-02-27 14:10:00","43789","2.383","198.4","4.541","219.5","NAN","NAN","NAN","NAN","NAN"],
    [1542800,"2026-02-27 14:20:00","43790","2.504","183.4","4.312","165.1","NAN","NAN","NAN","NAN","NAN"],
    [1542801,"2026-02-27 14:30:00","43791","2.1830000000000003","184.3","4.671","160.1","NAN","NAN","NAN","NAN","NAN"],
    [1542802,"2026-02-27 14:40:00","43792","2.166","177.7","5.129","174.9","NAN","NAN","NAN","NAN","NAN"],
    [1542803,"2026-02-27 14:50:00","43793","2.13","180.9","3.855","174","NAN","NAN","NAN","NAN","NAN"],
    [1542804,"2026-02-27 15:00:00","43794","2.3890000000000002","182.2","4.018","207.8","NAN","NAN","NAN","NAN","NAN"],
    [1542805,"2026-02-27 15:10:00","43795","2.427","182.8","4.181","209","NAN","NAN","NAN","NAN","NAN"],
    [1542806,"2026-02-27 15:20:00","43796","2.613","191.2","4.018","189.8","NAN","NAN","NAN","NAN","NAN"],
    [1542807,"2026-02-27 15:30:00","43797","2.844","192.1","4.704","217.4","NAN","NAN","NAN","NAN","NAN"],
    [1542808,"2026-02-27 15:40:00","43798","2.7430000000000003","195.4","3.985","202.4","NAN","NAN","NAN","NAN","NAN"],
    [1542809,"2026-02-27 15:50:00","43799","2.279","188.6","3.985","204.9","NAN","NAN","NAN","NAN","NAN"],
    [1542810,"2026-02-27 16:00:00","43800","2.656","203.6","4.214","203.2","NAN","NAN","NAN","NAN","NAN"],
    [1542811,"2026-02-27 16:10:00","43801","2.0469999999999997","212.0","4.475","213.3","NAN","NAN","NAN","NAN","NAN"],
    [1542812,"2026-02-27 16:20:00","43802","2.398","217.0","4.116","215.4","NAN","NAN","NAN","NAN","NAN"],
    [1542813,"2026-02-27 16:30:00","43803","2.555","208.0","4.116","211.4","NAN","NAN","NAN","NAN","NAN"],
    [1542814,"2026-02-27 16:40:00","43804","2.3040000000000003","206.3","3.789","204.8","NAN","NAN","NAN","NAN","NAN"],
    [1542815,"2026-02-27 16:50:00","43805","2.2769999999999997","217.6","3.691","205.8","NAN","NAN","NAN","NAN","NAN"],
    [1542816,"2026-02-27 17:00:00","43806","1.6369999999999998","226.6","3.103","228","NAN","NAN","NAN","NAN","NAN"],
    [1542817,"2026-02-27 17:10:00","43807","1.79","215.7","3.005","208.8","NAN","NAN","NAN","NAN","NAN"],
    [1542818,"2026-02-27 17:20:00","43808","2.372","213.1","3.855","220.1","NAN","NAN","NAN","NAN","NAN"],
    [1542819,"2026-02-27 17:30:00","43809","2.4090000000000003","209.4","4.279","208.4","NAN","NAN","NAN","NAN","NAN"],
    [1542820,"2026-02-27 17:40:00","43810","2.448","208.9","3.757","202.9","NAN","NAN","NAN","NAN","NAN"],
    [1542821,"2026-02-27 17:50:00","43811","2.366","214.2","3.985","205","NAN","NAN","NAN","NAN","NAN"],
    [1542822,"2026-02-27 18:00:00","43812","2.5869999999999997","210.9","3.92","211.2","NAN","NAN","NAN","NAN","NAN"],
    [1542823,"2026-02-27 18:10:00","43813","2.114","211.8","3.953","220.3","NAN","NAN","NAN","NAN","NAN"],
    [1542824,"2026-02-27 18:20:00","43814","2.388","211.2","3.757","211.3","NAN","NAN","NAN","NAN","NAN"],
    [1542825,"2026-02-27 18:30:00","43815","1.692","213.9","3.789","201.2","NAN","NAN","NAN","NAN","NAN"],
    [1542826,"2026-02-27 18:40:00","43816","1.3259999999999998","217.0","2.483","200.5","NAN","NAN","NAN","NAN","NAN"],
    [1542827,"2026-02-27 18:50:00","43817","1.811","222.4","4.149","211.6","NAN","NAN","NAN","NAN","NAN"],
    [1542828,"2026-02-27 19:00:00","43818","1.182","221.8","2.417","221.3","NAN","NAN","NAN","NAN","NAN"],
    [1542829,"2026-02-27 19:10:00","43819","1.367","219.9","2.385","211.6","NAN","NAN","NAN","NAN","NAN"],
    [1542830,"2026-02-27 19:20:00","43820","1.54","226.1","3.659","218.4","NAN","NAN","NAN","NAN","NAN"],
    [1542831,"2026-02-27 19:30:00","43821","1.6640000000000001","224.9","3.201","211.9","NAN","NAN","NAN","NAN","NAN"],
    [1542832,"2026-02-27 19:40:00","43822","1.177","226.6","2.483","226.9","NAN","NAN","NAN","NAN","NAN"],
    [1542833,"2026-02-27 19:50:00","43823","0.763","231.1","1.993","220.9","NAN","NAN","NAN","NAN","NAN"],
    [1542834,"2026-02-27 20:00:00","43824","1.089","235.1","2.123","235.2","NAN","NAN","NAN","NAN","NAN"],
    [1542835,"2026-02-27 20:10:00","43825","0.5579999999999999","235.3","1.633","235.4","NAN","NAN","NAN","NAN","NAN"],
    [1542836,"2026-02-27 20:20:00","43826","0.7440000000000001","234.5","1.927","235.4","NAN","NAN","NAN","NAN","NAN"],
    [1542837,"2026-02-27 20:30:00","43827","0.275","234.9","1.535","231.7","NAN","NAN","NAN","NAN","NAN"],
    [1542838,"2026-02-27 20:40:00","43828","0.33399999999999996","235.5","1.143","235.5","NAN","NAN","NAN","NAN","NAN"],
    [1542839,"2026-02-27 20:50:00","43829","1.0959999999999999","235.7","1.927","235.8","NAN","NAN","NAN","NAN","NAN"],
    [1542840,"2026-02-27 21:00:00","43830","0.55","235.8","1.764","235.8","NAN","NAN","NAN","NAN","NAN"],
    [1542841,"2026-02-27 21:10:00","43831","0.20600000000000002","235.8","1.535","235.8","NAN","NAN","NAN","NAN","NAN"],
    [1542842,"2026-02-27 21:20:00","43832","1.371","236.0","2.45","236","NAN","NAN","NAN","NAN","NAN"],
    [1542843,"2026-02-27 21:30:00","43833","1.2930000000000001","235.5","2.091","236.6","NAN","NAN","NAN","NAN","NAN"],
    [1542844,"2026-02-27 21:40:00","43834","1.003","236.7","2.287","236.7","NAN","NAN","NAN","NAN","NAN"],
    [1542845,"2026-02-27 21:50:00","43835","0.7240000000000001","236.6","1.927","236.8","NAN","NAN","NAN","NAN","NAN"],
    [1542846,"2026-02-27 22:00:00","43836","0.537","236.5","2.025","236.8","NAN","NAN","NAN","NAN","NAN"],
    [1542847,"2026-02-27 22:10:00","43837","1.1079999999999999","236.9","1.927","236.9","NAN","NAN","NAN","NAN","NAN"],
    [1542848,"2026-02-27 22:20:00","43838","0.23800000000000002","236.9","1.633","236.9","NAN","NAN","NAN","NAN","NAN"],
    [1542849,"2026-02-27 22:30:00","43839","0.0","0.0","0","0","NAN","NAN","NAN","NAN","NAN"],
    [1542850,"2026-02-27 22:40:00","43840","0.025","236.9","0.621","236.9","NAN","NAN","NAN","NAN","NAN"],
    [1542851,"2026-02-27 22:50:00","43841","0.207","236.9","1.143","236.9","NAN","NAN","NAN","NAN","NAN"],
    [1542852,"2026-02-27 23:00:00","43842","0.321","236.8","1.339","236.9","NAN","NAN","NAN","NAN","NAN"],
    [1542853,"2026-02-27 23:10:00","43843","0.001","236.9","0.098","236.9","NAN","NAN","NAN","NAN","NAN"],
    [1542854,"2026-02-27 23:20:00","43844","0.053","235.3","0.751","236.6","NAN","NAN","NAN","NAN","NAN"],
    [1542855,"2026-02-27 23:30:00","43845","0.0","0.0","0","0","NAN","NAN","NAN","NAN","NAN"],
    [1542856,"2026-02-27 23:40:00","43846","0.0","0.0","0","0","NAN","NAN","NAN","NAN","NAN"],
    [1542857,"2026-02-27 23:50:00","43847","0.002","224.0","0.131","224.1","NAN","NAN","NAN","NAN","NAN"],
    [1542858,"2026-02-28 00:00:00","43848","0.16","227.3","1.503","232.5","NAN","NAN","NAN","NAN","NAN"],
    [1542859,"2026-02-28 00:10:00","43849","0.44299999999999995","236.8","1.372","237","NAN","NAN","NAN","NAN","NAN"],
    [1542860,"2026-02-28 00:20:00","43850","0.6809999999999999","237.1","1.437","237.2","NAN","NAN","NAN","NAN","NAN"],
    [1542861,"2026-02-28 00:30:00","43851","0.16","229.2","0.817","237.1","NAN","NAN","NAN","NAN","NAN"],
    [1542862,"2026-02-28 00:40:00","43852","0.746","226.1","1.829","237.2","NAN","NAN","NAN","NAN","NAN"],
    [1542863,"2026-02-28 00:50:00","43853","1.02","234.2","2.417","237.8","NAN","NAN","NAN","NAN","NAN"],
    [1542864,"2026-02-28 01:00:00","43854","1.09","238.4","1.895","239.1","NAN","NAN","NAN","NAN","NAN"],
    [1542865,"2026-02-28 01:10:00","43855","0.305","217.6","1.699","216.9","NAN","NAN","NAN","NAN","NAN"],
    [1542866,"2026-02-28 01:20:00","43856","0.9309999999999999","185.6","2.515","216.8","NAN","NAN","NAN","NAN","NAN"],
    [1542867,"2026-02-28 01:30:00","43857","0.2","98.7","1.307","87.8","NAN","NAN","NAN","NAN","NAN"],
    [1542868,"2026-02-28 01:40:00","43858","1.795","55.3","3.789","45.91","NAN","NAN","NAN","NAN","NAN"],
    [1542869,"2026-02-28 01:50:00","43859","2.252","43.97","4.116","38.44","NAN","NAN","NAN","NAN","NAN"],
    [1542870,"2026-02-28 02:00:00","43860","1.919","42.22","3.691","35.31","NAN","NAN","NAN","NAN","NAN"],
    [1542871,"2026-02-28 02:10:00","43861","1.693","46.41","3.267","39.4","NAN","NAN","NAN","NAN","NAN"],
    [1542872,"2026-02-28 02:20:00","43862","1.44","53.47","3.887","52.59","NAN","NAN","NAN","NAN","NAN"],
    [1542873,"2026-02-28 02:30:00","43863","0.9540000000000001","54.35","1.96","55.85","NAN","NAN","NAN","NAN","NAN"],
    [1542874,"2026-02-28 02:40:00","43864","1.675","45.81","3.463","42.35","NAN","NAN","NAN","NAN","NAN"],
    [1542875,"2026-02-28 02:50:00","43865","2.383","41.34","3.953","28.23","NAN","NAN","NAN","NAN","NAN"],
    [1542876,"2026-02-28 03:00:00","43866","2.572","41.98","4.377","29.57","NAN","NAN","NAN","NAN","NAN"],
    [1542877,"2026-02-28 03:10:00","43867","1.37","63.42","3.201","52.36","NAN","NAN","NAN","NAN","NAN"],
    [1542878,"2026-02-28 03:20:00","43868","1.3090000000000002","59.17","3.887","53.69","NAN","NAN","NAN","NAN","NAN"],
    [1542879,"2026-02-28 03:30:00","43869","2.1390000000000002","44.69","3.365","38.86","NAN","NAN","NAN","NAN","NAN"],
    [1542880,"2026-02-28 03:40:00","43870","2.001","48.43","4.247","39.6","NAN","NAN","NAN","NAN","NAN"],
    [1542881,"2026-02-28 03:50:00","43871","1.591","54.81","3.822","36.9","NAN","NAN","NAN","NAN","NAN"],
    [1542882,"2026-02-28 04:00:00","43872","1.8880000000000001","68.25","3.887","70.68","NAN","NAN","NAN","NAN","NAN"],
    [1542883,"2026-02-28 04:10:00","43873","2.5269999999999997","86.3","4.9","65.63","NAN","NAN","NAN","NAN","NAN"],
    [1542884,"2026-02-28 04:20:00","43874","2.394","89.2","4.116","100.4","NAN","NAN","NAN","NAN","NAN"],
    [1542885,"2026-02-28 04:30:00","43875","2.218","83.9","3.626","95.7","NAN","NAN","NAN","NAN","NAN"],
    [1542886,"2026-02-28 04:40:00","43876","2.978","84.0","4.573","90.5","NAN","NAN","NAN","NAN","NAN"],
    [1542887,"2026-02-28 04:50:00","43877","3.082","82.3","5.292","78.32","NAN","NAN","NAN","NAN","NAN"],
    [1542888,"2026-02-28 05:00:00","43878","3.7310000000000003","79.29","5.749","73.39","NAN","NAN","NAN","NAN","NAN"],
    [1542889,"2026-02-28 05:10:00","43879","3.312","82.2","5.749","75.54","NAN","NAN","NAN","NAN","NAN"],
    [1542890,"2026-02-28 05:20:00","43880","2.995","74.18","5.847","83.3","NAN","NAN","NAN","NAN","NAN"],
    [1542891,"2026-02-28 05:30:00","43881","2.9810000000000003","70.47","5.847","59.15","NAN","NAN","NAN","NAN","NAN"],
    [1542892,"2026-02-28 05:40:00","43882","4.21","79.68","6.893","85.6","NAN","NAN","NAN","NAN","NAN"],
    [1542893,"2026-02-28 05:50:00","43883","4.121","86.2","7.415","79.13","NAN","NAN","NAN","NAN","NAN"],
    [1542894,"2026-02-28 06:00:00","43884","4.223","82.3","6.664","79.02","NAN","NAN","NAN","NAN","NAN"],
    [1542895,"2026-02-28 06:10:00","43885","4.831","79.35","8","69.94","NAN","NAN","NAN","NAN","NAN"],
    [1542896,"2026-02-28 06:20:00","43886","4.422","80.6","7.023","78.86","NAN","NAN","NAN","NAN","NAN"],
    [1542897,"2026-02-28 06:30:00","43887","3.891","89.5","6.305","99.1","NAN","NAN","NAN","NAN","NAN"],
    [1542898,"2026-02-28 06:40:00","43888","4.132","98.8","6.958","90.5","NAN","NAN","NAN","NAN","NAN"],
    [1542899,"2026-02-28 06:50:00","43889","3.188","94.1","6.207","95.5","NAN","NAN","NAN","NAN","NAN"],
    [1542900,"2026-02-28 07:00:00","43890","3.177","101.3","5.782","99.5","NAN","NAN","NAN","NAN","NAN"],
    [1542901,"2026-02-28 07:10:00","43891","3.391","101.4","5.259","108.6","NAN","NAN","NAN","NAN","NAN"],
    [1542902,"2026-02-28 07:20:00","43892","3.133","101.4","5.423","97","NAN","NAN","NAN","NAN","NAN"],
    [1542903,"2026-02-28 07:30:00","43893","2.991","101.1","4.867","104.7","NAN","NAN","NAN","NAN","NAN"],
    [1542904,"2026-02-28 07:40:00","43894","2.6189999999999998","92.5","4.312","87.3","NAN","NAN","NAN","NAN","NAN"],
    [1542905,"2026-02-28 07:50:00","43895","2.734","103.4","4.149","121.4","NAN","NAN","NAN","NAN","NAN"],
    [1542906,"2026-02-28 08:00:00","43896","2.338","92.2","4.149","87","NAN","NAN","NAN","NAN","NAN"],
    [1542907,"2026-02-28 08:10:00","43897","2.158","86.9","3.463","95.9","NAN","NAN","NAN","NAN","NAN"],
    [1542908,"2026-02-28 08:20:00","43898","2.424","84.2","4.018","79.98","NAN","NAN","NAN","NAN","NAN"],
    [1542909,"2026-02-28 08:30:00","43899","2.044","84.9","3.659","91.2","NAN","NAN","NAN","NAN","NAN"],
    [1542910,"2026-02-28 08:40:00","43900","1.002","89.7","3.201","92.8","NAN","NAN","NAN","NAN","NAN"],
    [1542911,"2026-02-28 08:50:00","43901","1.659","88.6","3.267","86.3","NAN","NAN","NAN","NAN","NAN"],
    [1542912,"2026-02-28 09:00:00","43902","1.5590000000000002","76.3","3.495","70.53","NAN","NAN","NAN","NAN","NAN"],
    [1542913,"2026-02-28 09:10:00","43903","1.597","61.79","3.299","53.68","NAN","NAN","NAN","NAN","NAN"],
    [1542914,"2026-02-28 09:20:00","43904","2.043","53.78","3.593","60.88","NAN","NAN","NAN","NAN","NAN"],
    [1542915,"2026-02-28 09:30:00","43905","1.556","52.61","3.953","63.92","NAN","NAN","NAN","NAN","NAN"],
    [1542916,"2026-02-28 09:40:00","43906","1.1520000000000001","65.39","2.973","66.99","NAN","NAN","NAN","NAN","NAN"],
    [1542917,"2026-02-28 09:50:00","43907","1.8780000000000001","72.88","3.103","76.71","NAN","NAN","NAN","NAN","NAN"],
    [1542918,"2026-02-28 10:00:00","43908","2.231","56.92","4.051","60.76","NAN","NAN","NAN","NAN","NAN"],
    [1542919,"2026-02-28 10:10:00","43909","1.883","57.53","3.561","58.68","NAN","NAN","NAN","NAN","NAN"],
    [1542920,"2026-02-28 10:20:00","43910","2.133","64.89","3.397","72.94","NAN","NAN","NAN","NAN","NAN"],
    [1542921,"2026-02-28 10:30:00","43911","1.6130000000000002","70.35","3.953","79.19","NAN","NAN","NAN","NAN","NAN"],
    [1542922,"2026-02-28 10:40:00","43912","1.9240000000000002","81.2","3.463","87.5","NAN","NAN","NAN","NAN","NAN"],
    [1542923,"2026-02-28 10:50:00","43913","2.14","62.6","4.214","65.19","NAN","NAN","NAN","NAN","NAN"],
    [1542924,"2026-02-28 11:00:00","43914","2.372","63.23","5.651","62.18","NAN","NAN","NAN","NAN","NAN"],
    [1542925,"2026-02-28 11:10:00","43915","2.472","64.33","4.41","71.32","NAN","NAN","NAN","NAN","NAN"],
    [1542926,"2026-02-28 11:20:00","43916","2.272","52.59","3.985","38.64","NAN","NAN","NAN","NAN","NAN"],
    [1542927,"2026-02-28 11:30:00","43917","1.76","55.2","3.822","32.56","NAN","NAN","NAN","NAN","NAN"],
    [1542928,"2026-02-28 11:40:00","43918","1.771","54.12","3.724","36.77","NAN","NAN","NAN","NAN","NAN"],
    [1542929,"2026-02-28 11:50:00","43919","1.785","64.31","4.312","54.72","NAN","NAN","NAN","NAN","NAN"],
    [1542930,"2026-02-28 12:00:00","43920","2.701","68.68","5.096","82.5","NAN","NAN","NAN","NAN","NAN"],
    [1542931,"2026-02-28 12:10:00","43921","3.372","74.42","4.965","65.42","NAN","NAN","NAN","NAN","NAN"],
    [1542932,"2026-02-28 12:20:00","43922","2.8369999999999997","76.47","5.913","66.91","NAN","NAN","NAN","NAN","NAN"],
    [1542933,"2026-02-28 12:30:00","43923","2.892","72.75","5.945","69.62","NAN","NAN","NAN","NAN","NAN"],
    [1542934,"2026-02-28 12:40:00","43924","2.427","73.97","4.181","63.03","NAN","NAN","NAN","NAN","NAN"],
    [1542935,"2026-02-28 12:50:00","43925","2.7769999999999997","64.2","5.063","66.73","NAN","NAN","NAN","NAN","NAN"],
    [1542936,"2026-02-28 13:00:00","43926","2.5660000000000003","63.47","4.443","59.71","NAN","NAN","NAN","NAN","NAN"],
    [1542937,"2026-02-28 13:10:00","43927","2.231","65.03","3.724","59.47","NAN","NAN","NAN","NAN","NAN"],
    [1542938,"2026-02-28 13:20:00","43928","2.2319999999999998","66.27","3.659","64.84","NAN","NAN","NAN","NAN","NAN"],
    [1542939,"2026-02-28 13:30:00","43929","2.27","71.79","3.659","68.65","NAN","NAN","NAN","NAN","NAN"],
    [1542940,"2026-02-28 13:40:00","43930","2.074","72.81","3.691","64.16","NAN","NAN","NAN","NAN","NAN"],
    [1542941,"2026-02-28 13:50:00","43931","2.261","70.5","3.691","64.16","NAN","NAN","NAN","NAN","NAN"],
    [1542942,"2026-02-28 14:00:00","43932","1.9880000000000002","80.2","3.561","84.1","NAN","NAN","NAN","NAN","NAN"],
    [1542943,"2026-02-28 14:10:00","43933","1.9280000000000002","73.59","3.659","64.37","NAN","NAN","NAN","NAN","NAN"],
    [1542944,"2026-02-28 14:20:00","43934","1.1179999999999999","66.14","2.777","64.32","NAN","NAN","NAN","NAN","NAN"],
    [1542945,"2026-02-28 14:30:00","43935","0.907","75.72","2.45","84.1","NAN","NAN","NAN","NAN","NAN"],
    [1542946,"2026-02-28 14:40:00","43936","1.609","84.4","3.332","86.4","NAN","NAN","NAN","NAN","NAN"],
    [1542947,"2026-02-28 14:50:00","43937","2.5860000000000003","93.1","4.247","87.6","NAN","NAN","NAN","NAN","NAN"],
    [1542948,"2026-02-28 15:00:00","43938","2.099","92.0","3.43","82.4","NAN","NAN","NAN","NAN","NAN"],
    [1542949,"2026-02-28 15:10:00","43939","2.511","78.17","4.475","68.26","NAN","NAN","NAN","NAN","NAN"],
    [1542950,"2026-02-28 15:20:00","43940","2.406","68.6","3.659","69.19","NAN","NAN","NAN","NAN","NAN"],
    [1542951,"2026-02-28 15:30:00","43941","2.312","85.5","4.279","98.4","NAN","NAN","NAN","NAN","NAN"],
    [1542952,"2026-02-28 15:40:00","43942","2.261","79.11","4.639","71.28","NAN","NAN","NAN","NAN","NAN"],
    [1542953,"2026-02-28 15:50:00","43943","2.59","94.0","4.704","95.8","NAN","NAN","NAN","NAN","NAN"],
    [1542954,"2026-02-28 16:00:00","43944","3.013","99.8","5.357","100.3","NAN","NAN","NAN","NAN","NAN"],
    [1542955,"2026-02-28 16:10:00","43945","1.974","89.8","4.116","94.1","NAN","NAN","NAN","NAN","NAN"],
    [1542956,"2026-02-28 16:20:00","43946","2.326","87.8","4.639","96.7","NAN","NAN","NAN","NAN","NAN"],
    [1542957,"2026-02-28 16:30:00","43947","2.5810000000000004","98.6","4.639","96.7","NAN","NAN","NAN","NAN","NAN"],
    [1542958,"2026-02-28 16:40:00","43948","2.23","100.8","3.92","101.4","NAN","NAN","NAN","NAN","NAN"],
    [1542959,"2026-02-28 16:50:00","43949","1.712","98.8","4.018","104.7","NAN","NAN","NAN","NAN","NAN"],
    [1542960,"2026-02-28 17:00:00","43950","1.4680000000000002","89.2","3.659","86.2","NAN","NAN","NAN","NAN","NAN"],
    [1542961,"2026-02-28 17:10:00","43951","1.775","84.4","3.43","109.9","NAN","NAN","NAN","NAN","NAN"],
    [1542962,"2026-02-28 17:20:00","43952","1.972","85.4","3.593","60.89","NAN","NAN","NAN","NAN","NAN"],
    [1542963,"2026-02-28 17:30:00","43953","2.074","89.1","3.822","97.1","NAN","NAN","NAN","NAN","NAN"],
    [1542964,"2026-02-28 17:40:00","43954","2.008","87.9","3.985","86.8","NAN","NAN","NAN","NAN","NAN"],
    [1542965,"2026-02-28 17:50:00","43955","1.796","86.7","3.757","80.5","NAN","NAN","NAN","NAN","NAN"],
    [1542966,"2026-02-28 18:00:00","43956","2.239","82.7","3.887","98.6","NAN","NAN","NAN","NAN","NAN"],
    [1542967,"2026-02-28 18:10:00","43957","2.48","87.6","4.475","90.4","NAN","NAN","NAN","NAN","NAN"],
    [1542968,"2026-02-28 18:20:00","43958","2.5269999999999997","92.2","4.508","82.4","NAN","NAN","NAN","NAN","NAN"],
    [1542969,"2026-02-28 18:30:00","43959","2.745","94.4","4.051","87.7","NAN","NAN","NAN","NAN","NAN"],
    [1542970,"2026-02-28 18:40:00","43960","2.283","95.4","4.214","98.1","NAN","NAN","NAN","NAN","NAN"],
    [1542971,"2026-02-28 18:50:00","43961","1.94","94.9","3.43","99.8","NAN","NAN","NAN","NAN","NAN"],
    [1542972,"2026-02-28 19:00:00","43962","2.702","97.4","4.541","100.8","NAN","NAN","NAN","NAN","NAN"],
    [1542973,"2026-02-28 19:10:00","43963","2.0469999999999997","95.1","3.43","86.7","NAN","NAN","NAN","NAN","NAN"],
    [1542974,"2026-02-28 19:20:00","43964","1.946","101.0","3.495","101.2","NAN","NAN","NAN","NAN","NAN"],
    [1542975,"2026-02-28 19:30:00","43965","1.931","98.8","3.724","103.5","NAN","NAN","NAN","NAN","NAN"],
    [1542976,"2026-02-28 19:40:00","43966","2.204","100.0","3.822","94.5","NAN","NAN","NAN","NAN","NAN"],
    [1542977,"2026-02-28 19:50:00","43967","1.95","99.5","3.463","98.1","NAN","NAN","NAN","NAN","NAN"],
    [1542978,"2026-02-28 20:00:00","43968","1.8780000000000001","95.7","3.43","96.8","NAN","NAN","NAN","NAN","NAN"],
    [1542979,"2026-02-28 20:10:00","43969","1.4669999999999999","100.6","3.332","103.4","NAN","NAN","NAN","NAN","NAN"],
    [1542980,"2026-02-28 20:20:00","43970","1.626","95.0","3.332","88","NAN","NAN","NAN","NAN","NAN"],
    [1542981,"2026-02-28 20:30:00","43971","1.681","94.2","2.875","97.3","NAN","NAN","NAN","NAN","NAN"],
    [1542982,"2026-02-28 20:40:00","43972","1.847","98.0","2.744","98.4","NAN","NAN","NAN","NAN","NAN"],
    [1542983,"2026-02-28 20:50:00","43973","2.063","100.2","3.234","100.5","NAN","NAN","NAN","NAN","NAN"],
    [1542984,"2026-02-28 21:00:00","43974","1.531","95.3","2.809","104.6","NAN","NAN","NAN","NAN","NAN"],
    [1542985,"2026-02-28 21:10:00","43975","1.263","99.0","2.515","95.7","NAN","NAN","NAN","NAN","NAN"],
    [1542986,"2026-02-28 21:20:00","43976","1.389","102.3","2.515","97.7","NAN","NAN","NAN","NAN","NAN"],
    [1542987,"2026-02-28 21:30:00","43977","1.083","95.3","1.927","93.8","NAN","NAN","NAN","NAN","NAN"],
    [1542988,"2026-02-28 21:40:00","43978","1.119","102.3","2.189","97","NAN","NAN","NAN","NAN","NAN"],
    [1542989,"2026-02-28 21:50:00","43979","0.18600000000000003","106.8","1.307","107","NAN","NAN","NAN","NAN","NAN"],
    [1542990,"2026-02-28 22:00:00","43980","0.0","0.0","0","0","NAN","NAN","NAN","NAN","NAN"],
    [1542991,"2026-02-28 22:10:00","43981","0.053","106.4","0.686","106.3","NAN","NAN","NAN","NAN","NAN"],
    [1542992,"2026-02-28 22:20:00","43982","0.035","106.6","0.523","106.6","NAN","NAN","NAN","NAN","NAN"],
    [1542993,"2026-02-28 22:30:00","43983","0.0","0.0","0","0","NAN","NAN","NAN","NAN","NAN"],
    [1542994,"2026-02-28 22:40:00","43984","0.0","0.0","0","0","NAN","NAN","NAN","NAN","NAN"],
    [1542995,"2026-02-28 22:50:00","43985","0.0","0.0","0","0","NAN","NAN","NAN","NAN","NAN"],
    [1542996,"2026-02-28 23:00:00","43986","0.0","0.0","0","0","NAN","NAN","NAN","NAN","NAN"],
    [1542997,"2026-02-28 23:10:00","43987","0.0","0.0","0","0","NAN","NAN","NAN","NAN","NAN"],
    [1542998,"2026-02-28 23:20:00","43988","0.043","106.8","0.49","107","NAN","NAN","NAN","NAN","NAN"],
    [1542999,"2026-02-28 23:30:00","43989","0.009000000000000001","107.0","0.359","107","NAN","NAN","NAN","NAN","NAN"],
    [1543000,"2026-02-28 23:40:00","43990","0.247","107.1","0.719","107","NAN","NAN","NAN","NAN","NAN"],
    [1543001,"2026-02-28 23:50:00","43991","0.034","106.0","0.621","106.1","NAN","NAN","NAN","NAN","NAN"],
    [1543002,"2026-03-01 00:00:00","43992","0.016","105.7","0.327","105.9","NAN","NAN","NAN","NAN","NAN"],
    [1543003,"2026-03-01 00:10:00","43993","0.496","107.1","1.209","107.2","NAN","NAN","NAN","NAN","NAN"],
    [1543004,"2026-03-01 00:20:00","43994","0.91","107.4","1.339","107.3","NAN","NAN","NAN","NAN","NAN"],
    [1543005,"2026-03-01 00:30:00","43995","0.8370000000000001","107.5","1.601","107.5","NAN","NAN","NAN","NAN","NAN"],
    [1543006,"2026-03-01 00:40:00","43996","0.685","94.7","1.699","99.3","NAN","NAN","NAN","NAN","NAN"],
    [1543007,"2026-03-01 00:50:00","43997","0.6970000000000001","88.0","1.503","87.7","NAN","NAN","NAN","NAN","NAN"],
    [1543008,"2026-03-01 01:00:00","43998","1.0","87.0","1.797","87.3","NAN","NAN","NAN","NAN","NAN"],
    [1543009,"2026-03-01 01:10:00","43999","0.804","86.7","1.633","86.7","NAN","NAN","NAN","NAN","NAN"],
    [1543010,"2026-03-01 01:20:00","44000","0.44","86.7","0.98","86.6","NAN","NAN","NAN","NAN","NAN"],
    [1543011,"2026-03-01 01:30:00","44001","0.622","86.7","1.143","86.6","NAN","NAN","NAN","NAN","NAN"],
    [1543012,"2026-03-01 01:40:00","44002","0.28300000000000003","86.6","0.849","86.6","NAN","NAN","NAN","NAN","NAN"],
    [1543013,"2026-03-01 01:50:00","44003","0.28600000000000003","86.7","0.849","86.7","NAN","NAN","NAN","NAN","NAN"],
    [1543014,"2026-03-01 02:00:00","44004","0.429","87.8","0.882","87.3","NAN","NAN","NAN","NAN","NAN"],
    [1543015,"2026-03-01 02:10:00","44005","0.6809999999999999","87.6","0.98","87.4","NAN","NAN","NAN","NAN","NAN"],
    [1543016,"2026-03-01 02:20:00","44006","0.76","88.9","1.47","89.8","NAN","NAN","NAN","NAN","NAN"],
    [1543017,"2026-03-01 02:30:00","44007","0.845","89.8","1.339","90.2","NAN","NAN","NAN","NAN","NAN"],
    [1543018,"2026-03-01 02:40:00","44008","0.748","87.6","1.274","88.7","NAN","NAN","NAN","NAN","NAN"],
    [1543019,"2026-03-01 02:50:00","44009","0.6759999999999999","86.6","1.274","86.6","NAN","NAN","NAN","NAN","NAN"],
    [1543020,"2026-03-01 03:00:00","44010","0.28","86.5","1.013","86.5","NAN","NAN","NAN","NAN","NAN"],
    [1543021,"2026-03-01 03:10:00","44011","0.521","90.2","1.176","90.9","NAN","NAN","NAN","NAN","NAN"],
    [1543022,"2026-03-01 03:20:00","44012","0.522","92.2","1.176","92.2","NAN","NAN","NAN","NAN","NAN"],
    [1543023,"2026-03-01 03:30:00","44013","0.628","90.7","1.176","92.2","NAN","NAN","NAN","NAN","NAN"],
    [1543024,"2026-03-01 03:40:00","44014","0.94","88.3","1.307","86.6","NAN","NAN","NAN","NAN","NAN"],
    [1543025,"2026-03-01 03:50:00","44015","0.711","92.8","1.078","92.6","NAN","NAN","NAN","NAN","NAN"],
    [1543026,"2026-03-01 04:00:00","44016","0.475","92.5","0.882","93.2","NAN","NAN","NAN","NAN","NAN"],
    [1543027,"2026-03-01 04:10:00","44017","0.752","92.9","1.503","94.3","NAN","NAN","NAN","NAN","NAN"],
    [1543028,"2026-03-01 04:20:00","44018","0.563","93.8","1.176","94.9","NAN","NAN","NAN","NAN","NAN"],
    [1543029,"2026-03-01 04:30:00","44019","0.38799999999999996","86.6","1.045","86.5","NAN","NAN","NAN","NAN","NAN"],
    [1543030,"2026-03-01 04:40:00","44020","0.316","86.6","0.719","86.6","NAN","NAN","NAN","NAN","NAN"],
    [1543031,"2026-03-01 04:50:00","44021","0.359","86.8","0.784","86.5","NAN","NAN","NAN","NAN","NAN"],
    [1543032,"2026-03-01 05:00:00","44022","0.35200000000000004","88.4","0.882","88.7","NAN","NAN","NAN","NAN","NAN"],
    [1543033,"2026-03-01 05:10:00","44023","0.0","0.0","0","0","NAN","NAN","NAN","NAN","NAN"],
    [1543034,"2026-03-01 05:20:00","44024","0.0","0.0","0","0","NAN","NAN","NAN","NAN","NAN"],
    [1543035,"2026-03-01 05:30:00","44025","0.0","0.0","0","0","NAN","NAN","NAN","NAN","NAN"],
    [1543036,"2026-03-01 05:40:00","44026","0.0","0.0","0","0","NAN","NAN","NAN","NAN","NAN"],
    [1543037,"2026-03-01 05:50:00","44027","0.0","0.0","0","0","NAN","NAN","NAN","NAN","NAN"],
    [1543038,"2026-03-01 06:00:00","44028","0.0","0.0","0","0","NAN","NAN","NAN","NAN","NAN"],
    [1543039,"2026-03-01 06:10:00","44029","0.0","0.0","0","0","NAN","NAN","NAN","NAN","NAN"],
    [1543040,"2026-03-01 06:20:00","44030","0.0","0.0","0","0","NAN","NAN","NAN","NAN","NAN"],
    [1543041,"2026-03-01 06:30:00","44031","0.0","0.0","0","0","NAN","NAN","NAN","NAN","NAN"],
    [1543042,"2026-03-01 06:40:00","44032","0.052000000000000005","91.5","0.392","91.5","NAN","NAN","NAN","NAN","NAN"],
    [1543043,"2026-03-01 06:50:00","44033","0.39899999999999997","89.5","0.98","86.6","NAN","NAN","NAN","NAN","NAN"],
    [1543044,"2026-03-01 07:00:00","44034","0.485","90.7","1.241","94.8","NAN","NAN","NAN","NAN","NAN"],
    [1543045,"2026-03-01 07:10:00","44035","0.215","95.2","0.719","95.2","NAN","NAN","NAN","NAN","NAN"],
    [1543046,"2026-03-01 07:20:00","44036","0.621","95.2","0.947","95.2","NAN","NAN","NAN","NAN","NAN"],
    [1543047,"2026-03-01 07:30:00","44037","0.504","95.2","0.849","95.2","NAN","NAN","NAN","NAN","NAN"],
    [1543048,"2026-03-01 07:40:00","44038","0.42200000000000004","95.3","1.078","95.3","NAN","NAN","NAN","NAN","NAN"],
    [1543049,"2026-03-01 07:50:00","44039","0.679","95.5","1.111","95.5","NAN","NAN","NAN","NAN","NAN"],
    [1543050,"2026-03-01 08:00:00","44040","0.602","91.8","1.111","92.9","NAN","NAN","NAN","NAN","NAN"],
    [1543051,"2026-03-01 08:10:00","44041","0.821","90.8","1.633","95.7","NAN","NAN","NAN","NAN","NAN"],
    [1543052,"2026-03-01 08:20:00","44042","0.851","90.2","1.535","95.5","NAN","NAN","NAN","NAN","NAN"],
    [1543053,"2026-03-01 08:30:00","44043","0.7490000000000001","92.8","1.405","96.2","NAN","NAN","NAN","NAN","NAN"],
    [1543054,"2026-03-01 08:40:00","44044","0.802","86.3","1.47","87.6","NAN","NAN","NAN","NAN","NAN"],
    [1543055,"2026-03-01 08:50:00","44045","1.228","96.5","2.123","101.9","NAN","NAN","NAN","NAN","NAN"],
    [1543056,"2026-03-01 09:00:00","44046","1.518","94.7","2.352","105.2","NAN","NAN","NAN","NAN","NAN"],
    [1543057,"2026-03-01 09:10:00","44047","0.909","88.6","2.091","95.6","NAN","NAN","NAN","NAN","NAN"],
    [1543058,"2026-03-01 09:20:00","44048","1.004","103.5","1.927","105.2","NAN","NAN","NAN","NAN","NAN"],
    [1543059,"2026-03-01 09:30:00","44049","0.978","94.1","1.862","106.8","NAN","NAN","NAN","NAN","NAN"],
    [1543060,"2026-03-01 09:40:00","44050","0.9179999999999999","101.1","1.862","91.6","NAN","NAN","NAN","NAN","NAN"],
    [1543061,"2026-03-01 09:50:00","44051","0.884","95.3","2.025","85.6","NAN","NAN","NAN","NAN","NAN"],
    [1543062,"2026-03-01 10:00:00","44052","0.695","82.7","1.601","105.5","NAN","NAN","NAN","NAN","NAN"],
    [1543063,"2026-03-01 10:10:00","44053","0.561","91.9","1.535","93.1","NAN","NAN","NAN","NAN","NAN"],
    [1543064,"2026-03-01 10:20:00","44054","1.149","32.7","3.103","9.75","NAN","NAN","NAN","NAN","NAN"],
    [1543065,"2026-03-01 10:30:00","44055","1.111","348.1","3.169","340","NAN","NAN","NAN","NAN","NAN"],
    [1543066,"2026-03-01 10:40:00","44056","1.422","327.9","3.071","329.8","NAN","NAN","NAN","NAN","NAN"],
    [1543067,"2026-03-01 10:50:00","44057","1.685","277.3","3.528","270.9","NAN","NAN","NAN","NAN","NAN"],
    [1543068,"2026-03-01 11:00:00","44058","2.998","265.6","4.475","271.7","NAN","NAN","NAN","NAN","NAN"],
    [1543069,"2026-03-01 11:10:00","44059","3.057","277.4","4.704","269.1","NAN","NAN","NAN","NAN","NAN"],
    [1543070,"2026-03-01 11:20:00","44060","2.7760000000000002","287.8","3.985","293.3","NAN","NAN","NAN","NAN","NAN"],
    [1543071,"2026-03-01 11:30:00","44061","2.617","282.8","4.737","269.5","NAN","NAN","NAN","NAN","NAN"],
    [1543072,"2026-03-01 11:40:00","44062","2.44","274.4","3.528","270.4","NAN","NAN","NAN","NAN","NAN"],
    [1543073,"2026-03-01 11:50:00","44063","2.262","268.2","3.463","265.6","NAN","NAN","NAN","NAN","NAN"],
    [1543074,"2026-03-01 12:00:00","44064","2.4459999999999997","267.1","4.279","265.5","NAN","NAN","NAN","NAN","NAN"],
    [1543075,"2026-03-01 12:10:00","44065","1.9509999999999998","246.5","3.593","225.9","NAN","NAN","NAN","NAN","NAN"],
    [1543076,"2026-03-01 12:20:00","44066","2.8160000000000003","219.5","4.867","216.6","NAN","NAN","NAN","NAN","NAN"],
    [1543077,"2026-03-01 12:30:00","44067","3.3160000000000003","198.7","5.423","210.9","NAN","NAN","NAN","NAN","NAN"],
    [1543078,"2026-03-01 12:40:00","44068","3.306","188.9","6.762","168.5","NAN","NAN","NAN","NAN","NAN"],
    [1543079,"2026-03-01 12:50:00","44069","3.826","188.3","6.272","210.1","NAN","NAN","NAN","NAN","NAN"],
    [1543080,"2026-03-01 13:00:00","44070","3.253","192.7","5.945","179.1","NAN","NAN","NAN","NAN","NAN"],
    [1543081,"2026-03-01 13:10:00","44071","3.98","202.0","6.272","215.2","NAN","NAN","NAN","NAN","NAN"],
    [1543082,"2026-03-01 13:20:00","44072","3.853","201.1","6.305","214.4","NAN","NAN","NAN","NAN","NAN"],
    [1543083,"2026-03-01 13:30:00","44073","4.208","204.7","6.631","214.1","NAN","NAN","NAN","NAN","NAN"],
    [1543084,"2026-03-01 13:40:00","44074","3.613","200.9","6.239","202.1","NAN","NAN","NAN","NAN","NAN"],
    [1543085,"2026-03-01 13:50:00","44075","3.985","208.4","6.239","231.1","NAN","NAN","NAN","NAN","NAN"],
    [1543086,"2026-03-01 14:00:00","44076","4.058","212.9","6.631","206.6","NAN","NAN","NAN","NAN","NAN"],
    [1543087,"2026-03-01 14:10:00","44077","3.955","204.6","5.847","201.7","NAN","NAN","NAN","NAN","NAN"],
    [1543088,"2026-03-01 14:20:00","44078","3.535","210.2","6.011","201.2","NAN","NAN","NAN","NAN","NAN"],
    [1543089,"2026-03-01 14:30:00","44079","4.314","210.7","6.925","201.1","NAN","NAN","NAN","NAN","NAN"],
    [1543090,"2026-03-01 14:40:00","44080","4.209","201.2","7.579","219.4","NAN","NAN","NAN","NAN","NAN"],
    [1543091,"2026-03-01 14:50:00","44081","3.824","195.8","7.121","218.8","NAN","NAN","NAN","NAN","NAN"],
    [1543092,"2026-03-01 15:00:00","44082","4.315","211.7","7.807","210.1","NAN","NAN","NAN","NAN","NAN"],
    [1543093,"2026-03-01 15:10:00","44083","4.467","209.7","7.611","209.3","NAN","NAN","NAN","NAN","NAN"],
    [1543094,"2026-03-01 15:20:00","44084","4.198","213.5","7.121","203.9","NAN","NAN","NAN","NAN","NAN"],
    [1543095,"2026-03-01 15:30:00","44085","4.8919999999999995","206.7","8.1","209.1","NAN","NAN","NAN","NAN","NAN"],
    [1543096,"2026-03-01 15:40:00","44086","4.784","213.6","8.1","204.6","NAN","NAN","NAN","NAN","NAN"],
    [1543097,"2026-03-01 15:50:00","44087","4.632","216.4","7.873","218.3","NAN","NAN","NAN","NAN","NAN"],
    [1543098,"2026-03-01 16:00:00","44088","3.928","219.8","6.403","191.2","NAN","NAN","NAN","NAN","NAN"],
    [1543099,"2026-03-01 16:10:00","44089","4.396","211.4","7.219","202","NAN","NAN","NAN","NAN","NAN"],
    [1543100,"2026-03-01 16:20:00","44090","3.9930000000000003","217.0","6.599","214.6","NAN","NAN","NAN","NAN","NAN"],
    [1543101,"2026-03-01 16:30:00","44091","4.466","215.3","7.121","204.8","NAN","NAN","NAN","NAN","NAN"],
    [1543102,"2026-03-01 16:40:00","44092","4.407","213.8","7.056","202.4","NAN","NAN","NAN","NAN","NAN"],
    [1543103,"2026-03-01 16:50:00","44093","3.697","223.0","6.566","215.6","NAN","NAN","NAN","NAN","NAN"],
    [1543104,"2026-03-01 17:00:00","44094","3.557","227.9","6.174","224.4","NAN","NAN","NAN","NAN","NAN"],
    [1543105,"2026-03-01 17:10:00","44095","3.427","220.2","6.795","218.6","NAN","NAN","NAN","NAN","NAN"],
    [1543106,"2026-03-01 17:20:00","44096","3.6660000000000004","220.0","6.533","240.6","NAN","NAN","NAN","NAN","NAN"],
    [1543107,"2026-03-01 17:30:00","44097","2.674","217.8","4.769","225.9","NAN","NAN","NAN","NAN","NAN"],
    [1543108,"2026-03-01 17:40:00","44098","2.109","235.0","4.018","228.1","NAN","NAN","NAN","NAN","NAN"],
    [1543109,"2026-03-01 17:50:00","44099","2.032","228.1","3.528","225.2","NAN","NAN","NAN","NAN","NAN"],
    [1543110,"2026-03-01 18:00:00","44100","2.039","225.3","3.43","217.2","NAN","NAN","NAN","NAN","NAN"],
    [1543111,"2026-03-01 18:10:00","44101","1.182","220.3","2.385","217.5","NAN","NAN","NAN","NAN","NAN"],
    [1543112,"2026-03-01 18:20:00","44102","1.175","218.0","2.45","216.9","NAN","NAN","NAN","NAN","NAN"],
    [1543113,"2026-03-01 18:30:00","44103","1.156","216.5","2.679","216.9","NAN","NAN","NAN","NAN","NAN"],
    [1543114,"2026-03-01 18:40:00","44104","0.9","223.4","2.221","229.2","NAN","NAN","NAN","NAN","NAN"],
    [1543115,"2026-03-01 18:50:00","44105","0.899","225.1","1.829","223.2","NAN","NAN","NAN","NAN","NAN"],
    [1543116,"2026-03-01 19:00:00","44106","1.0390000000000001","222.4","2.123","224.4","NAN","NAN","NAN","NAN","NAN"],
    [1543117,"2026-03-01 19:10:00","44107","1.081","226.6","2.058","221.9","NAN","NAN","NAN","NAN","NAN"],
    [1543118,"2026-03-01 19:20:00","44108","0.754","227.7","1.699","229.6","NAN","NAN","NAN","NAN","NAN"],
    [1543119,"2026-03-01 19:30:00","44109","0.943","228.1","2.45","229.6","NAN","NAN","NAN","NAN","NAN"],
    [1543120,"2026-03-01 19:40:00","44110","0.951","227.5","2.123","229.9","NAN","NAN","NAN","NAN","NAN"],
    [1543121,"2026-03-01 19:50:00","44111","1.165","228.8","1.993","233.3","NAN","NAN","NAN","NAN","NAN"],
    [1543122,"2026-03-01 20:00:00","44112","1.5119999999999998","235.9","2.679","236.2","NAN","NAN","NAN","NAN","NAN"],
    [1543123,"2026-03-01 20:10:00","44113","1.3119999999999998","237.3","2.515","238.4","NAN","NAN","NAN","NAN","NAN"],
    [1543124,"2026-03-01 20:20:00","44114","1.601","239.6","2.679","240.8","NAN","NAN","NAN","NAN","NAN"],
    [1543125,"2026-03-01 20:30:00","44115","1.882","240.5","2.973","240.9","NAN","NAN","NAN","NAN","NAN"],
    [1543126,"2026-03-01 20:40:00","44116","0.804","241.7","1.568","241.7","NAN","NAN","NAN","NAN","NAN"],
    [1543127,"2026-03-01 20:50:00","44117","0.158","241.8","0.882","241.9","NAN","NAN","NAN","NAN","NAN"],
    [1543128,"2026-03-01 21:00:00","44118","0.102","241.9","1.111","241.9","NAN","NAN","NAN","NAN","NAN"],
    [1543129,"2026-03-01 21:10:00","44119","0.0","0.0","0","0","NAN","NAN","NAN","NAN","NAN"],
    [1543130,"2026-03-01 21:20:00","44120","0.001","242.0","0.163","242","NAN","NAN","NAN","NAN","NAN"],
    [1543131,"2026-03-01 21:30:00","44121","0.042","241.9","0.784","242","NAN","NAN","NAN","NAN","NAN"],
    [1543132,"2026-03-01 21:40:00","44122","0.162","242.0","1.078","242","NAN","NAN","NAN","NAN","NAN"],
    [1543133,"2026-03-01 21:50:00","44123","0.54","242.1","1.176","242","NAN","NAN","NAN","NAN","NAN"],
    [1543134,"2026-03-01 22:00:00","44124","0.245","242.1","0.915","242.1","NAN","NAN","NAN","NAN","NAN"],
    [1543135,"2026-03-01 22:10:00","44125","0.087","242.0","0.686","242","NAN","NAN","NAN","NAN","NAN"],
    [1543136,"2026-03-01 22:20:00","44126","0.28300000000000003","242.1","1.013","242.1","NAN","NAN","NAN","NAN","NAN"],
    [1543137,"2026-03-01 22:30:00","44127","0.077","242.1","0.621","242.1","NAN","NAN","NAN","NAN","NAN"],
    [1543138,"2026-03-01 22:40:00","44128","0.113","242.1","0.588","242.1","NAN","NAN","NAN","NAN","NAN"],
    [1543139,"2026-03-01 22:50:00","44129","0.002","242.1","0.196","242.1","NAN","NAN","NAN","NAN","NAN"],
    [1543140,"2026-03-01 23:00:00","44130","0.162","242.1","0.653","242.1","NAN","NAN","NAN","NAN","NAN"],
    [1543141,"2026-03-01 23:10:00","44131","0.239","242.1","0.784","242.1","NAN","NAN","NAN","NAN","NAN"],
    [1543142,"2026-03-01 23:20:00","44132","0.053","242.1","0.457","242.1","NAN","NAN","NAN","NAN","NAN"],
    [1543143,"2026-03-01 23:30:00","44133","0.0","0.0","0","0","NAN","NAN","NAN","NAN","NAN"],
    [1543144,"2026-03-01 23:40:00","44134","0.0","0.0","0","0","NAN","NAN","NAN","NAN","NAN"],
    [1543145,"2026-03-01 23:50:00","44135","0.001","242.0","0.131","242","NAN","NAN","NAN","NAN","NAN"],
    [1543146,"2026-03-02 00:00:00","44136","0.011000000000000001","242.0","0.229","242","NAN","NAN","NAN","NAN","NAN"],
    [1543147,"2026-03-02 00:10:00","44137","0.526","242.1","1.503","242.1","NAN","NAN","NAN","NAN","NAN"],
    [1543148,"2026-03-02 00:20:00","44138","0.866","242.2","1.731","242.2","NAN","NAN","NAN","NAN","NAN"],
    [1543149,"2026-03-02 00:30:00","44139","0.695","242.3","1.111","242.2","NAN","NAN","NAN","NAN","NAN"],
    [1543150,"2026-03-02 00:40:00","44140","0.243","242.2","1.013","242.2","NAN","NAN","NAN","NAN","NAN"],
    [1543151,"2026-03-02 00:50:00","44141","0.006","242.2","0.294","242.2","NAN","NAN","NAN","NAN","NAN"],
    [1543152,"2026-03-02 01:00:00","44142","0.0","0.0","0","0","NAN","NAN","NAN","NAN","NAN"],
    [1543153,"2026-03-02 01:10:00","44143","0.001","242.2","0.163","242.2","NAN","NAN","NAN","NAN","NAN"],
    [1543154,"2026-03-02 01:20:00","44144","0.028999999999999998","242.2","0.457","242.2","NAN","NAN","NAN","NAN","NAN"],
    [1543155,"2026-03-02 01:30:00","44145","0.006999999999999999","242.3","0.229","242.3","NAN","NAN","NAN","NAN","NAN"],
    [1543156,"2026-03-02 01:40:00","44146","0.009000000000000001","242.3","0.294","242.3","NAN","NAN","NAN","NAN","NAN"],
    [1543157,"2026-03-02 01:50:00","44147","0.046","242.3","0.392","242.3","NAN","NAN","NAN","NAN","NAN"],
    [1543158,"2026-03-02 02:00:00","44148","0.0","0.0","0","0","NAN","NAN","NAN","NAN","NAN"],
    [1543159,"2026-03-02 02:10:00","44149","0.01","242.3","0.327","242.3","NAN","NAN","NAN","NAN","NAN"],
    [1543160,"2026-03-02 02:20:00","44150","0.466","242.3","0.98","242.4","NAN","NAN","NAN","NAN","NAN"],
    [1543161,"2026-03-02 02:30:00","44151","0.008","242.4","0.261","242.4","NAN","NAN","NAN","NAN","NAN"],
    [1543162,"2026-03-02 02:40:00","44152","0.069","242.4","0.49","242.4","NAN","NAN","NAN","NAN","NAN"],
    [1543163,"2026-03-02 02:50:00","44153","0.17300000000000001","242.4","0.784","242.4","NAN","NAN","NAN","NAN","NAN"],
    [1543164,"2026-03-02 03:00:00","44154","0.04","242.4","0.523","242.4","NAN","NAN","NAN","NAN","NAN"],
    [1543165,"2026-03-02 03:10:00","44155","0.021","242.4","0.49","242.4","NAN","NAN","NAN","NAN","NAN"],
    [1543166,"2026-03-02 03:20:00","44156","0.26899999999999996","242.4","1.241","242.4","NAN","NAN","NAN","NAN","NAN"],
    [1543167,"2026-03-02 03:30:00","44157","0.318","242.4","0.719","242.4","NAN","NAN","NAN","NAN","NAN"],
    [1543168,"2026-03-02 03:40:00","44158","0.242","242.4","1.045","242.4","NAN","NAN","NAN","NAN","NAN"],
    [1543169,"2026-03-02 03:50:00","44159","0.478","242.3","1.503","242.4","NAN","NAN","NAN","NAN","NAN"],
    [1543170,"2026-03-02 04:00:00","44160","0.462","242.4","1.307","242.4","NAN","NAN","NAN","NAN","NAN"],
    [1543171,"2026-03-02 04:10:00","44161","0.284","242.4","1.143","242.4","NAN","NAN","NAN","NAN","NAN"],
    [1543172,"2026-03-02 04:20:00","44162","0.18","242.5","1.47","242.6","NAN","NAN","NAN","NAN","NAN"],
    [1543173,"2026-03-02 04:30:00","44163","0.261","242.5","1.111","242.6","NAN","NAN","NAN","NAN","NAN"],
    [1543174,"2026-03-02 04:40:00","44164","0.195","242.5","1.209","242.6","NAN","NAN","NAN","NAN","NAN"],
    [1543175,"2026-03-02 04:50:00","44165","0.486","242.6","1.437","242.6","NAN","NAN","NAN","NAN","NAN"],
    [1543176,"2026-03-02 05:00:00","44166","0.455","242.7","1.437","242.7","NAN","NAN","NAN","NAN","NAN"],
    [1543177,"2026-03-02 05:10:00","44167","0.654","242.8","1.437","242.8","NAN","NAN","NAN","NAN","NAN"],
    [1543178,"2026-03-02 05:20:00","44168","0.42700000000000005","242.8","1.209","242.8","NAN","NAN","NAN","NAN","NAN"],
    [1543179,"2026-03-02 05:30:00","44169","0.644","243.0","1.209","243","NAN","NAN","NAN","NAN","NAN"],
    [1543180,"2026-03-02 05:40:00","44170","0.997","243.2","1.993","243.3","NAN","NAN","NAN","NAN","NAN"],
    [1543181,"2026-03-02 05:50:00","44171","0.639","243.5","1.797","243.4","NAN","NAN","NAN","NAN","NAN"],
    [1543182,"2026-03-02 06:00:00","44172","1.113","250.7","2.058","250.9","NAN","NAN","NAN","NAN","NAN"],
    [1543183,"2026-03-02 06:10:00","44173","0.88","251.0","1.993","250.9","NAN","NAN","NAN","NAN","NAN"],
    [1543184,"2026-03-02 06:20:00","44174","1.37","251.1","2.254","251.2","NAN","NAN","NAN","NAN","NAN"],
    [1543185,"2026-03-02 06:30:00","44175","0.96","251.5","2.319","251.6","NAN","NAN","NAN","NAN","NAN"],
    [1543186,"2026-03-02 06:40:00","44176","0.81","251.7","1.731","251.7","NAN","NAN","NAN","NAN","NAN"],
    [1543187,"2026-03-02 06:50:00","44177","1.053","251.8","1.699","251.9","NAN","NAN","NAN","NAN","NAN"],
    [1543188,"2026-03-02 07:00:00","44178","1.031","251.8","2.091","251.8","NAN","NAN","NAN","NAN","NAN"],
    [1543189,"2026-03-02 07:10:00","44179","0.479","251.8","1.372","251.9","NAN","NAN","NAN","NAN","NAN"],
    [1543190,"2026-03-02 07:20:00","44180","0.182","251.7","1.241","251.8","NAN","NAN","NAN","NAN","NAN"],
    [1543191,"2026-03-02 07:30:00","44181","0.188","251.8","1.339","251.8","NAN","NAN","NAN","NAN","NAN"],
    [1543192,"2026-03-02 07:40:00","44182","0.905","251.8","1.862","251.8","NAN","NAN","NAN","NAN","NAN"],
    [1543193,"2026-03-02 07:50:00","44183","0.5670000000000001","252.0","1.993","252.1","NAN","NAN","NAN","NAN","NAN"],
    [1543194,"2026-03-02 08:00:00","44184","0.545","252.1","1.699","252.1","NAN","NAN","NAN","NAN","NAN"],
    [1543195,"2026-03-02 08:10:00","44185","0.55","252.6","1.241","252.6","NAN","NAN","NAN","NAN","NAN"],
    [1543196,"2026-03-02 08:20:00","44186","0.57","253.0","1.47","253","NAN","NAN","NAN","NAN","NAN"],
    [1543197,"2026-03-02 08:30:00","44187","0.018000000000000002","253.0","0.588","253","NAN","NAN","NAN","NAN","NAN"],
    [1543198,"2026-03-02 08:40:00","44188","0.046","253.1","0.588","253.1","NAN","NAN","NAN","NAN","NAN"],
    [1543199,"2026-03-02 08:50:00","44189","0.003","253.1","0.327","253.1","NAN","NAN","NAN","NAN","NAN"],
    [1543200,"2026-03-02 09:00:00","44190","0.001","253.2","0.065","253.2","NAN","NAN","NAN","NAN","NAN"],
    [1543201,"2026-03-02 09:10:00","44191","0.45299999999999996","252.8","2.385","253.8","NAN","NAN","NAN","NAN","NAN"],
    [1543202,"2026-03-02 09:20:00","44192","1.16","255.1","2.613","255","NAN","NAN","NAN","NAN","NAN"],
    [1543203,"2026-03-02 09:30:00","44193","1.125","255.3","3.267","255.8","NAN","NAN","NAN","NAN","NAN"],
    [1543204,"2026-03-02 09:40:00","44194","1.571","262.0","3.365","256.8","NAN","NAN","NAN","NAN","NAN"],
    [1543205,"2026-03-02 09:50:00","44195","1.3130000000000002","261.6","2.352","261.7","NAN","NAN","NAN","NAN","NAN"],
    [1543206,"2026-03-02 10:00:00","44196","1.486","259.2","2.744","262.6","NAN","NAN","NAN","NAN","NAN"],
    [1543207,"2026-03-02 10:10:00","44197","0.8170000000000001","260.7","1.927","263","NAN","NAN","NAN","NAN","NAN"],
    [1543208,"2026-03-02 10:20:00","44198","0.305","258.5","1.666","257","NAN","NAN","NAN","NAN","NAN"],
    [1543209,"2026-03-02 10:30:00","44199","0.015","252.6","0.327","250.7","NAN","NAN","NAN","NAN","NAN"],
    [1543210,"2026-03-02 10:40:00","44200","0.0","0.0","0","0","NAN","NAN","NAN","NAN","NAN"],
    [1543211,"2026-03-02 10:50:00","44201","1.157","242.5","2.156","241.3","NAN","NAN","NAN","NAN","NAN"],
    [1543212,"2026-03-02 11:00:00","44202","0.122","233.2","0.98","233.1","NAN","NAN","NAN","NAN","NAN"],
    [1543213,"2026-03-02 11:10:00","44203","0.096","232.3","1.274","231.5","NAN","NAN","NAN","NAN","NAN"],
    [1543214,"2026-03-02 11:20:00","44204","0.804","139.8","1.993","225.5","NAN","NAN","NAN","NAN","NAN"],
    [1543215,"2026-03-02 11:30:00","44205","1.5590000000000002","124.1","3.757","114.4","NAN","NAN","NAN","NAN","NAN"],
    [1543216,"2026-03-02 11:40:00","44206","2.285","105.4","3.365","105.2","NAN","NAN","NAN","NAN","NAN"],
    [1543217,"2026-03-02 11:50:00","44207","2.401","93.2","3.887","88.6","NAN","NAN","NAN","NAN","NAN"],
    [1543218,"2026-03-02 12:00:00","44208","2.504","96.0","4.083","93.8","NAN","NAN","NAN","NAN","NAN"],
    [1543219,"2026-03-02 12:10:00","44209","2.946","103.1","4.704","96.1","NAN","NAN","NAN","NAN","NAN"],
    [1543220,"2026-03-02 12:20:00","44210","3.1189999999999998","101.9","5.096","93","NAN","NAN","NAN","NAN","NAN"],
    [1543221,"2026-03-02 12:30:00","44211","3.1310000000000002","94.4","4.639","95.9","NAN","NAN","NAN","NAN","NAN"],
    [1543222,"2026-03-02 12:40:00","44212","2.781","99.7","4.9","98.5","NAN","NAN","NAN","NAN","NAN"],
    [1543223,"2026-03-02 12:50:00","44213","3.063","103.8","4.475","95.6","NAN","NAN","NAN","NAN","NAN"],
    [1543224,"2026-03-02 13:00:00","44214","3.2939999999999996","99.2","4.769","101.7","NAN","NAN","NAN","NAN","NAN"],
    [1543225,"2026-03-02 13:10:00","44215","3.0439999999999996","101.4","4.345","103.5","NAN","NAN","NAN","NAN","NAN"],
    [1543226,"2026-03-02 13:20:00","44216","2.821","102.7","4.475","99.1","NAN","NAN","NAN","NAN","NAN"],
    [1543227,"2026-03-02 13:30:00","44217","3.178","106.6","4.671","94.1","NAN","NAN","NAN","NAN","NAN"],
    [1543228,"2026-03-02 13:40:00","44218","3.373","111.4","4.965","115.8","NAN","NAN","NAN","NAN","NAN"],
    [1543229,"2026-03-02 13:50:00","44219","3.407","109.0","5.521","115.1","NAN","NAN","NAN","NAN","NAN"],
    [1543230,"2026-03-02 14:00:00","44220","3.613","124.7","5.717","134.2","NAN","NAN","NAN","NAN","NAN"],
    [1543231,"2026-03-02 14:10:00","44221","3.489","119.0","5.031","134.2","NAN","NAN","NAN","NAN","NAN"],
    [1543232,"2026-03-02 14:20:00","44222","3.137","124.0","4.802","138.4","NAN","NAN","NAN","NAN","NAN"],
    [1543233,"2026-03-02 14:30:00","44223","3.063","123.5","5.031","136.2","NAN","NAN","NAN","NAN","NAN"],
    [1543234,"2026-03-02 14:40:00","44224","2.846","122.6","4.508","115.1","NAN","NAN","NAN","NAN","NAN"],
    [1543235,"2026-03-02 14:50:00","44225","2.9589999999999996","120.5","4.475","134.2","NAN","NAN","NAN","NAN","NAN"],
    [1543236,"2026-03-02 15:00:00","44226","3.155","126.1","4.704","138.9","NAN","NAN","NAN","NAN","NAN"],
    [1543237,"2026-03-02 15:10:00","44227","2.678","120.8","4.116","118.7","NAN","NAN","NAN","NAN","NAN"],
    [1543238,"2026-03-02 15:20:00","44228","2.677","115.0","4.345","117.4","NAN","NAN","NAN","NAN","NAN"],
    [1543239,"2026-03-02 15:30:00","44229","2.5860000000000003","121.2","4.541","108.7","NAN","NAN","NAN","NAN","NAN"],
    [1543240,"2026-03-02 15:40:00","44230","2.116","119.2","3.43","115.2","NAN","NAN","NAN","NAN","NAN"],
    [1543241,"2026-03-02 15:50:00","44231","3.162","120.5","5.586","110.9","NAN","NAN","NAN","NAN","NAN"],
    [1543242,"2026-03-02 16:00:00","44232","2.432","128.6","4.214","124.9","NAN","NAN","NAN","NAN","NAN"],
    [1543243,"2026-03-02 16:10:00","44233","2.251","114.1","3.495","111","NAN","NAN","NAN","NAN","NAN"],
    [1543244,"2026-03-02 16:20:00","44234","2.004","118.2","3.136","125.8","NAN","NAN","NAN","NAN","NAN"],
    [1543245,"2026-03-02 16:30:00","44235","2.194","116.1","3.691","118","NAN","NAN","NAN","NAN","NAN"],
    [1543246,"2026-03-02 16:40:00","44236","1.839","118.1","3.43","116.4","NAN","NAN","NAN","NAN","NAN"],
    [1543247,"2026-03-02 16:50:00","44237","1.8359999999999999","113.4","3.201","111.8","NAN","NAN","NAN","NAN","NAN"],
    [1543248,"2026-03-02 17:00:00","44238","1.706","116.5","3.201","118.5","NAN","NAN","NAN","NAN","NAN"],
    [1543249,"2026-03-02 17:10:00","44239","1.946","123.5","3.169","116.9","NAN","NAN","NAN","NAN","NAN"],
    [1543250,"2026-03-02 17:20:00","44240","1.7890000000000001","118.3","2.875","118.7","NAN","NAN","NAN","NAN","NAN"],
    [1543251,"2026-03-02 17:30:00","44241","2.04","126.8","3.397","130.9","NAN","NAN","NAN","NAN","NAN"],
    [1543252,"2026-03-02 17:40:00","44242","2.021","128.0","3.299","127.9","NAN","NAN","NAN","NAN","NAN"],
    [1543253,"2026-03-02 17:50:00","44243","1.73","128.2","3.463","132.8","NAN","NAN","NAN","NAN","NAN"],
    [1543254,"2026-03-02 18:00:00","44244","1.676","126.8","2.711","133.1","NAN","NAN","NAN","NAN","NAN"],
    [1543255,"2026-03-02 18:10:00","44245","1.545","113.9","3.005","111.7","NAN","NAN","NAN","NAN","NAN"],
    [1543256,"2026-03-02 18:20:00","44246","1.369","110.8","2.711","112.9","NAN","NAN","NAN","NAN","NAN"],
    [1543257,"2026-03-02 18:30:00","44247","1.425","112.9","2.45","107.2","NAN","NAN","NAN","NAN","NAN"],
    [1543258,"2026-03-02 18:40:00","44248","2.013","111.7","3.397","106.4","NAN","NAN","NAN","NAN","NAN"],
    [1543259,"2026-03-02 18:50:00","44249","1.6269999999999998","109.5","3.136","105.3","NAN","NAN","NAN","NAN","NAN"],
    [1543260,"2026-03-02 19:00:00","44250","1.9969999999999999","104.5","3.528","101.9","NAN","NAN","NAN","NAN","NAN"],
    [1543261,"2026-03-02 19:10:00","44251","1.6540000000000001","106.1","3.397","101.9","NAN","NAN","NAN","NAN","NAN"],
    [1543262,"2026-03-02 19:20:00","44252","2.0180000000000002","120.4","3.332","123","NAN","NAN","NAN","NAN","NAN"],
    [1543263,"2026-03-02 19:30:00","44253","1.588","117.7","2.646","118.6","NAN","NAN","NAN","NAN","NAN"],
    [1543264,"2026-03-02 19:40:00","44254","1.669","107.9","2.646","106.1","NAN","NAN","NAN","NAN","NAN"],
    [1543265,"2026-03-02 19:50:00","44255","1.781","104.6","3.071","103.1","NAN","NAN","NAN","NAN","NAN"],
    [1543266,"2026-03-02 20:00:00","44256","2.1390000000000002","105.9","3.071","101.9","NAN","NAN","NAN","NAN","NAN"],
    [1543267,"2026-03-02 20:10:00","44257","1.5490000000000002","101.1","3.201","100.5","NAN","NAN","NAN","NAN","NAN"],
    [1543268,"2026-03-02 20:20:00","44258","1.993","100.5","3.953","96.6","NAN","NAN","NAN","NAN","NAN"],
    [1543269,"2026-03-02 20:30:00","44259","1.874","95.8","4.083","96.5","NAN","NAN","NAN","NAN","NAN"],
    [1543270,"2026-03-02 20:40:00","44260","1.2990000000000002","93.2","2.842","92.1","NAN","NAN","NAN","NAN","NAN"],
    [1543271,"2026-03-02 20:50:00","44261","1.8119999999999998","82.9","4.312","70.8","NAN","NAN","NAN","NAN","NAN"],
    [1543272,"2026-03-02 21:00:00","44262","2.213","70.12","4.541","56.66","NAN","NAN","NAN","NAN","NAN"],
    [1543273,"2026-03-02 21:10:00","44263","3.278","66.5","4.933","80.1","NAN","NAN","NAN","NAN","NAN"],
    [1543274,"2026-03-02 21:20:00","44264","3.197","67.66","5.194","60.15","NAN","NAN","NAN","NAN","NAN"],
    [1543275,"2026-03-02 21:30:00","44265","2.383","69.36","4.247","73.38","NAN","NAN","NAN","NAN","NAN"],
    [1543276,"2026-03-02 21:40:00","44266","2.477","71.68","4.704","64.68","NAN","NAN","NAN","NAN","NAN"],
    [1543277,"2026-03-02 21:50:00","44267","2.779","65.1","4.965","58.15","NAN","NAN","NAN","NAN","NAN"],
    [1543278,"2026-03-02 22:00:00","44268","3.054","62.43","5.227","63.75","NAN","NAN","NAN","NAN","NAN"],
    [1543279,"2026-03-02 22:10:00","44269","3.165","63.33","5.129","66.64","NAN","NAN","NAN","NAN","NAN"],
    [1543280,"2026-03-02 22:20:00","44270","2.89","65.77","4.835","65.75","NAN","NAN","NAN","NAN","NAN"],
    [1543281,"2026-03-02 22:30:00","44271","2.8569999999999998","63.86","5.227","73.63","NAN","NAN","NAN","NAN","NAN"],
    [1543282,"2026-03-02 22:40:00","44272","2.927","65.33","4.802","67.31","NAN","NAN","NAN","NAN","NAN"],
    [1543283,"2026-03-02 22:50:00","44273","2.391","56.59","4.639","59.97","NAN","NAN","NAN","NAN","NAN"],
    [1543284,"2026-03-02 23:00:00","44274","2.271","55.48","3.985","65.67","NAN","NAN","NAN","NAN","NAN"],
    [1543285,"2026-03-02 23:10:00","44275","2.312","58.05","4.606","67.79","NAN","NAN","NAN","NAN","NAN"],
    [1543286,"2026-03-02 23:20:00","44276","2.048","52.45","4.9","45.15","NAN","NAN","NAN","NAN","NAN"],
    [1543287,"2026-03-02 23:30:00","44277","2.694","59.69","5.619","52.96","NAN","NAN","NAN","NAN","NAN"],
    [1543288,"2026-03-02 23:40:00","44278","3.0780000000000003","58.88","5.455","68.86","NAN","NAN","NAN","NAN","NAN"],
    [1543289,"2026-03-02 23:50:00","44279","2.737","46.64","4.737","47.91","NAN","NAN","NAN","NAN","NAN"],
    [1543290,"2026-03-03 00:00:00","44280","2.318","54.2","4.541","47.12","NAN","NAN","NAN","NAN","NAN"],
    [1543291,"2026-03-03 00:10:00","44281","1.845","54.99","4.737","66.8","NAN","NAN","NAN","NAN","NAN"],
    [1543292,"2026-03-03 00:20:00","44282","2.106","51.04","4.377","64.06","NAN","NAN","NAN","NAN","NAN"],
    [1543293,"2026-03-03 00:30:00","44283","2.476","52.43","4.867","61.01","NAN","NAN","NAN","NAN","NAN"],
    [1543294,"2026-03-03 00:40:00","44284","2.141","49.95","4.083","47.28","NAN","NAN","NAN","NAN","NAN"],
    [1543295,"2026-03-03 00:50:00","44285","2.6510000000000002","47.88","4.835","36.26","NAN","NAN","NAN","NAN","NAN"],
    [1543296,"2026-03-03 01:00:00","44286","2.7710000000000004","47.8","4.933","58.88","NAN","NAN","NAN","NAN","NAN"],
    [1543297,"2026-03-03 01:10:00","44287","2.6710000000000003","52.14","5.39","59.13","NAN","NAN","NAN","NAN","NAN"],
    [1543298,"2026-03-03 01:20:00","44288","2.153","52.96","5.259","51.77","NAN","NAN","NAN","NAN","NAN"],
    [1543299,"2026-03-03 01:30:00","44289","1.849","60.06","4.802","36.88","NAN","NAN","NAN","NAN","NAN"],
    [1543300,"2026-03-03 01:40:00","44290","2.376","62.88","5.815","82.1","NAN","NAN","NAN","NAN","NAN"],
    [1543301,"2026-03-03 01:50:00","44291","2.281","67.78","5.292","47.97","NAN","NAN","NAN","NAN","NAN"],
    [1543302,"2026-03-03 02:00:00","44292","1.449","60.23","4.149","46.82","NAN","NAN","NAN","NAN","NAN"],
    [1543303,"2026-03-03 02:10:00","44293","2.048","69.12","6.631","62.34","NAN","NAN","NAN","NAN","NAN"],
    [1543304,"2026-03-03 02:20:00","44294","1.666","66.81","5.357","82.6","NAN","NAN","NAN","NAN","NAN"],
    [1543305,"2026-03-03 02:30:00","44295","2.372","68.22","4.802","97.3","NAN","NAN","NAN","NAN","NAN"],
    [1543306,"2026-03-03 02:40:00","44296","1.834","68.09","4.279","62.3","NAN","NAN","NAN","NAN","NAN"],
    [1543307,"2026-03-03 02:50:00","44297","2.591","47.24","5.096","57.59","NAN","NAN","NAN","NAN","NAN"],
    [1543308,"2026-03-03 03:00:00","44298","2.5639999999999996","46.21","5.227","70.04","NAN","NAN","NAN","NAN","NAN"],
    [1543309,"2026-03-03 03:10:00","44299","2.931","34.23","4.704","33.33","NAN","NAN","NAN","NAN","NAN"],
    [1543310,"2026-03-03 03:20:00","44300","2.843","26.28","5.325","23.94","NAN","NAN","NAN","NAN","NAN"],
    [1543311,"2026-03-03 03:30:00","44301","3.29","25.76","5.619","21.88","NAN","NAN","NAN","NAN","NAN"],
    [1543312,"2026-03-03 03:40:00","44302","3.091","28.41","5.292","34.9","NAN","NAN","NAN","NAN","NAN"],
    [1543313,"2026-03-03 03:50:00","44303","3.088","32.07","4.998","22.62","NAN","NAN","NAN","NAN","NAN"],
    [1543314,"2026-03-03 04:00:00","44304","3.207","26.97","5.325","27.98","NAN","NAN","NAN","NAN","NAN"],
    [1543315,"2026-03-03 04:10:00","44305","3.062","26.23","5.978","22.4","NAN","NAN","NAN","NAN","NAN"],
    [1543316,"2026-03-03 04:20:00","44306","3.389","39.21","5.749","34.79","NAN","NAN","NAN","NAN","NAN"],
    [1543317,"2026-03-03 04:30:00","44307","3.937","35.83","6.566","38.38","NAN","NAN","NAN","NAN","NAN"],
    [1543318,"2026-03-03 04:40:00","44308","3.015","42.14","5.945","45.67","NAN","NAN","NAN","NAN","NAN"],
    [1543319,"2026-03-03 04:50:00","44309","2.306","46.8","4.639","27.12","NAN","NAN","NAN","NAN","NAN"],
    [1543320,"2026-03-03 05:00:00","44310","2.675","33.31","4.312","37.22","NAN","NAN","NAN","NAN","NAN"],
    [1543321,"2026-03-03 05:10:00","44311","2.636","38.53","5.129","34.85","NAN","NAN","NAN","NAN","NAN"],
    [1543322,"2026-03-03 05:20:00","44312","1.814","27.46","3.299","26.89","NAN","NAN","NAN","NAN","NAN"],
    [1543323,"2026-03-03 05:30:00","44313","2.0869999999999997","26.68","3.855","25.55","NAN","NAN","NAN","NAN","NAN"],
    [1543324,"2026-03-03 05:40:00","44314","2.022","23.6","3.561","18.95","NAN","NAN","NAN","NAN","NAN"],
    [1543325,"2026-03-03 05:50:00","44315","2.363","26.44","3.822","21.54","NAN","NAN","NAN","NAN","NAN"],
    [1543326,"2026-03-03 06:00:00","44316","1.921","21.17","3.201","18.94","NAN","NAN","NAN","NAN","NAN"],
    [1543327,"2026-03-03 06:10:00","44317","2.225","20.31","4.083","29.7","NAN","NAN","NAN","NAN","NAN"],
    [1543328,"2026-03-03 06:20:00","44318","2.415","22.24","4.247","32.76","NAN","NAN","NAN","NAN","NAN"],
    [1543329,"2026-03-03 06:30:00","44319","3.1519999999999997","41.85","5.586","45.71","NAN","NAN","NAN","NAN","NAN"],
    [1543330,"2026-03-03 06:40:00","44320","2.8369999999999997","43.57","5.619","35.21","NAN","NAN","NAN","NAN","NAN"],
    [1543331,"2026-03-03 06:50:00","44321","3.365","42.38","5.815","34.43","NAN","NAN","NAN","NAN","NAN"],
    [1543332,"2026-03-03 07:00:00","44322","3.452","42.54","5.227","34.74","NAN","NAN","NAN","NAN","NAN"],
    [1543333,"2026-03-03 07:10:00","44323","3.4989999999999997","40.08","6.827","50.12","NAN","NAN","NAN","NAN","NAN"],
    [1543334,"2026-03-03 07:20:00","44324","3.763","44.08","5.88","52","NAN","NAN","NAN","NAN","NAN"],
    [1543335,"2026-03-03 07:30:00","44325","3.42","43.25","5.455","33.1","NAN","NAN","NAN","NAN","NAN"],
    [1543336,"2026-03-03 07:40:00","44326","3.935","41.58","6.631","30.78","NAN","NAN","NAN","NAN","NAN"],
    [1543337,"2026-03-03 07:50:00","44327","3.408","44.63","5.847","43.11","NAN","NAN","NAN","NAN","NAN"],
    [1543338,"2026-03-03 08:00:00","44328","3.1060000000000003","47.84","5.684","45.92","NAN","NAN","NAN","NAN","NAN"],
    [1543339,"2026-03-03 08:10:00","44329","2.4459999999999997","47.68","5.423","44.7","NAN","NAN","NAN","NAN","NAN"],
    [1543340,"2026-03-03 08:20:00","44330","2.8169999999999997","61.19","6.468","92","NAN","NAN","NAN","NAN","NAN"],
    [1543341,"2026-03-03 08:30:00","44331","4.452","68.64","8.82","53.94","NAN","NAN","NAN","NAN","NAN"],
    [1543342,"2026-03-03 08:40:00","44332","4.569","70.73","9.6","78.4","NAN","NAN","NAN","NAN","NAN"],
    [1543343,"2026-03-03 08:50:00","44333","3.9739999999999998","73.32","8.13","57.78","NAN","NAN","NAN","NAN","NAN"],
    [1543344,"2026-03-03 09:00:00","44334","4.553999999999999","72.67","9.47","38.23","NAN","NAN","NAN","NAN","NAN"],
    [1543345,"2026-03-03 09:10:00","44335","5.192","70.8","9.87","63.09","NAN","NAN","NAN","NAN","NAN"],
    [1543346,"2026-03-03 09:20:00","44336","5.176","69.86","9.28","60.28","NAN","NAN","NAN","NAN","NAN"],
    [1543347,"2026-03-03 09:30:00","44337","4.723","74.4","10.42","75.35","NAN","NAN","NAN","NAN","NAN"],
    [1543348,"2026-03-03 09:40:00","44338","4.468999999999999","76.07","8.59","61.34","NAN","NAN","NAN","NAN","NAN"],
    [1543349,"2026-03-03 09:50:00","44339","4.5280000000000005","80.2","8.85","90.1","NAN","NAN","NAN","NAN","NAN"],
    [1543350,"2026-03-03 10:00:00","44340","4.029","84.1","7.742","98.5","NAN","NAN","NAN","NAN","NAN"],
    [1543351,"2026-03-03 10:10:00","44341","5.615","86.7","9.47","88.9","NAN","NAN","NAN","NAN","NAN"],
    [1543352,"2026-03-03 10:20:00","44342","5.5889999999999995","85.5","9.51","86.3","NAN","NAN","NAN","NAN","NAN"],
    [1543353,"2026-03-03 10:30:00","44343","4.308","71.47","7.35","92.6","NAN","NAN","NAN","NAN","NAN"],
    [1543354,"2026-03-03 10:40:00","44344","5.707999999999999","65.83","11.2","63.47","NAN","NAN","NAN","NAN","NAN"],
    [1543355,"2026-03-03 10:50:00","44345","6.327000000000001","72.1","12.15","55.72","NAN","NAN","NAN","NAN","NAN"],
    [1543356,"2026-03-03 11:00:00","44346","5.11","73.37","12.38","65.66","NAN","NAN","NAN","NAN","NAN"],
    [1543357,"2026-03-03 11:10:00","44347","4.513999999999999","74.39","10.29","74.34","NAN","NAN","NAN","NAN","NAN"],
    [1543358,"2026-03-03 11:20:00","44348","4.97","81.7","10.65","84.4","NAN","NAN","NAN","NAN","NAN"],
    [1543359,"2026-03-03 11:30:00","44349","4.947","81.5","8.36","92.2","NAN","NAN","NAN","NAN","NAN"],
    [1543360,"2026-03-03 11:40:00","44350","3.7939999999999996","72.18","8.04","82.5","NAN","NAN","NAN","NAN","NAN"],
    [1543361,"2026-03-03 11:50:00","44351","4.625","72.07","9.9","69.38","NAN","NAN","NAN","NAN","NAN"],
    [1543362,"2026-03-03 12:00:00","44352","5.4270000000000005","72.0","9.9","71.28","NAN","NAN","NAN","NAN","NAN"],
    [1543363,"2026-03-03 12:10:00","44353","5.76","67.77","10.55","49.96","NAN","NAN","NAN","NAN","NAN"],
    [1543364,"2026-03-03 12:20:00","44354","5.797000000000001","69.71","13.2","67.3","NAN","NAN","NAN","NAN","NAN"],
    [1543365,"2026-03-03 12:30:00","44355","5.784","68.36","11.24","55.86","NAN","NAN","NAN","NAN","NAN"],
    [1543366,"2026-03-03 12:40:00","44356","5.181","68.87","10.32","70.1","NAN","NAN","NAN","NAN","NAN"],
    [1543367,"2026-03-03 12:50:00","44357","5.029","66.64","10.26","75.25","NAN","NAN","NAN","NAN","NAN"],
    [1543368,"2026-03-03 13:00:00","44358","5.59","71.24","9.7","63.81","NAN","NAN","NAN","NAN","NAN"],
    [1543369,"2026-03-03 13:10:00","44359","5.84","72.88","11.56","66.33","NAN","NAN","NAN","NAN","NAN"],
    [1543370,"2026-03-03 13:20:00","44360","5.504","73.8","11.43","65.54","NAN","NAN","NAN","NAN","NAN"],
    [1543371,"2026-03-03 13:30:00","44361","4.061","62.95","6.893","82.5","NAN","NAN","NAN","NAN","NAN"],
    [1543372,"2026-03-03 13:40:00","44362","4.673","68.39","10","59","NAN","NAN","NAN","NAN","NAN"],
    [1543373,"2026-03-03 13:50:00","44363","4.584","65.22","10.88","64.07","NAN","NAN","NAN","NAN","NAN"],
    [1543374,"2026-03-03 14:00:00","44364","5.255","65.57","9.34","52.78","NAN","NAN","NAN","NAN","NAN"],
    [1543375,"2026-03-03 14:10:00","44365","5.2379999999999995","69.14","10.85","79.75","NAN","NAN","NAN","NAN","NAN"],
    [1543376,"2026-03-03 14:20:00","44366","4.843","71.9","13.03","56.4","NAN","NAN","NAN","NAN","NAN"],
    [1543377,"2026-03-03 14:30:00","44367","5.627000000000001","68.47","10.29","32.63","NAN","NAN","NAN","NAN","NAN"],
    [1543378,"2026-03-03 14:40:00","44368","5.757999999999999","69.47","16.1","57.84","NAN","NAN","NAN","NAN","NAN"],
    [1543379,"2026-03-03 14:50:00","44369","5.232","76.46","10.75","64.12","NAN","NAN","NAN","NAN","NAN"],
    [1543380,"2026-03-03 15:00:00","44370","4.15","76.64","7.448","95.4","NAN","NAN","NAN","NAN","NAN"],
    [1543381,"2026-03-03 15:10:00","44371","4.025","75.42","7.579","51.41","NAN","NAN","NAN","NAN","NAN"],
    [1543382,"2026-03-03 15:20:00","44372","4.604","82.4","8.13","94.4","NAN","NAN","NAN","NAN","NAN"],
    [1543383,"2026-03-03 15:30:00","44373","5.617000000000001","84.9","8.82","73.43","NAN","NAN","NAN","NAN","NAN"],
    [1543384,"2026-03-03 15:40:00","44374","5.013","84.9","9.7","103.2","NAN","NAN","NAN","NAN","NAN"],
    [1543385,"2026-03-03 15:50:00","44375","4.487","83.5","8.59","102.8","NAN","NAN","NAN","NAN","NAN"],
    [1543386,"2026-03-03 16:00:00","44376","4.181","78.24","8.79","86.7","NAN","NAN","NAN","NAN","NAN"],
    [1543387,"2026-03-03 16:10:00","44377","4.059","76.99","8.59","74.39","NAN","NAN","NAN","NAN","NAN"],
    [1543388,"2026-03-03 16:20:00","44378","4.665","84.0","9.47","79.39","NAN","NAN","NAN","NAN","NAN"],
    [1543389,"2026-03-03 16:30:00","44379","4.172","82.8","10.85","81.5","NAN","NAN","NAN","NAN","NAN"],
    [1543390,"2026-03-03 16:40:00","44380","4.684","82.2","8.1","79.48","NAN","NAN","NAN","NAN","NAN"],
    [1543391,"2026-03-03 16:50:00","44381","4.99","82.0","8.85","78.67","NAN","NAN","NAN","NAN","NAN"],
    [1543392,"2026-03-03 17:00:00","44382","4.421","81.3","8.62","70.64","NAN","NAN","NAN","NAN","NAN"],
    [1543393,"2026-03-03 17:10:00","44383","4.112","82.1","7.775","90.2","NAN","NAN","NAN","NAN","NAN"],
    [1543394,"2026-03-03 17:20:00","44384","3.1860000000000004","80.1","6.141","63.42","NAN","NAN","NAN","NAN","NAN"],
    [1543395,"2026-03-03 17:30:00","44385","4.065","81.0","10.58","45.85","NAN","NAN","NAN","NAN","NAN"],
    [1543396,"2026-03-03 17:40:00","44386","3.36","77.48","6.664","45.55","NAN","NAN","NAN","NAN","NAN"],
    [1543397,"2026-03-03 17:50:00","44387","3.595","69.14","7.317","90.5","NAN","NAN","NAN","NAN","NAN"],
    [1543398,"2026-03-03 18:00:00","44388","3.3510000000000004","75.53","7.415","42.36","NAN","NAN","NAN","NAN","NAN"],
    [1543399,"2026-03-03 18:10:00","44389","3.529","62.42","8.23","71.98","NAN","NAN","NAN","NAN","NAN"],
    [1543400,"2026-03-03 18:20:00","44390","3.827","59.01","9.02","62.18","NAN","NAN","NAN","NAN","NAN"],
    [1543401,"2026-03-03 18:30:00","44391","3.67","63.06","9.05","64.74","NAN","NAN","NAN","NAN","NAN"],
    [1543402,"2026-03-03 18:40:00","44392","3.668","74.32","8.36","65.72","NAN","NAN","NAN","NAN","NAN"],
    [1543403,"2026-03-03 18:50:00","44393","4.024","84.6","6.337","71.7","NAN","NAN","NAN","NAN","NAN"],
    [1543404,"2026-03-03 19:00:00","44394","5.306","83.8","9.54","71.18","NAN","NAN","NAN","NAN","NAN"],
    [1543405,"2026-03-03 19:10:00","44395","6.62","79.02","10.55","88.4","NAN","NAN","NAN","NAN","NAN"],
    [1543406,"2026-03-03 19:20:00","44396","7.8","79.2","12.02","76.92","NAN","NAN","NAN","NAN","NAN"],
    [1543407,"2026-03-03 19:30:00","44397","8.46","80.4","13.75","78.44","NAN","NAN","NAN","NAN","NAN"],
    [1543408,"2026-03-03 19:40:00","44398","8.39","80.5","14.63","79.57","NAN","NAN","NAN","NAN","NAN"],
    [1543409,"2026-03-03 19:50:00","44399","8.28","81.5","12.22","87.9","NAN","NAN","NAN","NAN","NAN"],
    [1543410,"2026-03-03 20:00:00","44400","7.7010000000000005","83.2","12.61","84.8","NAN","NAN","NAN","NAN","NAN"],
    [1543411,"2026-03-03 20:10:00","44401","7.489","85.9","11.53","95.2","NAN","NAN","NAN","NAN","NAN"],
    [1543412,"2026-03-03 20:20:00","44402","5.607","83.8","10.26","91","NAN","NAN","NAN","NAN","NAN"],
    [1543413,"2026-03-03 20:30:00","44403","5.211","83.8","10.65","88.4","NAN","NAN","NAN","NAN","NAN"],
    [1543414,"2026-03-03 20:40:00","44404","4.025","74.97","9.6","63.53","NAN","NAN","NAN","NAN","NAN"],
    [1543415,"2026-03-03 20:50:00","44405","3.8939999999999997","71.18","8.62","52.67","NAN","NAN","NAN","NAN","NAN"],
    [1543416,"2026-03-03 21:00:00","44406","4.323","72.39","9.02","77.57","NAN","NAN","NAN","NAN","NAN"],
    [1543417,"2026-03-03 21:10:00","44407","5.016","69.14","9.51","58.73","NAN","NAN","NAN","NAN","NAN"],
    [1543418,"2026-03-03 21:20:00","44408","4.104","71.24","8.82","60.36","NAN","NAN","NAN","NAN","NAN"],
    [1543419,"2026-03-03 21:30:00","44409","3.929","72.27","8.23","61.16","NAN","NAN","NAN","NAN","NAN"],
    [1543420,"2026-03-03 21:40:00","44410","3.3989999999999996","74.84","7.611","50.07","NAN","NAN","NAN","NAN","NAN"],
    [1543421,"2026-03-03 21:50:00","44411","3.95","66.91","8.66","50.74","NAN","NAN","NAN","NAN","NAN"],
    [1543422,"2026-03-03 22:00:00","44412","3.056","73.38","8.92","55.51","NAN","NAN","NAN","NAN","NAN"],
    [1543423,"2026-03-03 22:10:00","44413","4.3260000000000005","83.4","7.481","85.4","NAN","NAN","NAN","NAN","NAN"],
    [1543424,"2026-03-03 22:20:00","44414","6.059","86.6","9.93","86","NAN","NAN","NAN","NAN","NAN"],
    [1543425,"2026-03-03 22:30:00","44415","6.346","87.6","9.21","86.2","NAN","NAN","NAN","NAN","NAN"],
    [1543426,"2026-03-03 22:40:00","44416","4.499","83.6","8.85","90","NAN","NAN","NAN","NAN","NAN"],
    [1543427,"2026-03-03 22:50:00","44417","4.1819999999999995","84.2","7.938","92.1","NAN","NAN","NAN","NAN","NAN"],
    [1543428,"2026-03-03 23:00:00","44418","4.763999999999999","85.2","8.17","88.2","NAN","NAN","NAN","NAN","NAN"],
    [1543429,"2026-03-03 23:10:00","44419","4.54","82.0","8.26","83.2","NAN","NAN","NAN","NAN","NAN"],
    [1543430,"2026-03-03 23:20:00","44420","4.546","85.1","8.98","85.3","NAN","NAN","NAN","NAN","NAN"],
    [1543431,"2026-03-03 23:30:00","44421","3.745","81.4","7.807","85.5","NAN","NAN","NAN","NAN","NAN"],
    [1543432,"2026-03-03 23:40:00","44422","3.8080000000000003","81.5","7.742","78.02","NAN","NAN","NAN","NAN","NAN"],
    [1543433,"2026-03-03 23:50:00","44423","3.4330000000000003","77.88","7.219","76.48","NAN","NAN","NAN","NAN","NAN"],
    [1543434,"2026-03-04 00:00:00","44424","3.889","75.15","7.873","85.6","NAN","NAN","NAN","NAN","NAN"],
    [1543435,"2026-03-04 00:10:00","44425","4.506","80.1","7.677","61.38","NAN","NAN","NAN","NAN","NAN"],
    [1543436,"2026-03-04 00:20:00","44426","3.659","71.93","8.59","53.73","NAN","NAN","NAN","NAN","NAN"],
    [1543437,"2026-03-04 00:30:00","44427","3.645","69.05","9.47","70.31","NAN","NAN","NAN","NAN","NAN"],
    [1543438,"2026-03-04 00:40:00","44428","4.223","65.19","10.49","86.6","NAN","NAN","NAN","NAN","NAN"],
    [1543439,"2026-03-04 00:50:00","44429","3.763","69.24","7.677","58.74","NAN","NAN","NAN","NAN","NAN"],
    [1543440,"2026-03-04 01:00:00","44430","4.204","67.21","8.43","27.04","NAN","NAN","NAN","NAN","NAN"],
    [1543441,"2026-03-04 01:10:00","44431","3.4339999999999997","63.43","6.827","73","NAN","NAN","NAN","NAN","NAN"],
    [1543442,"2026-03-04 01:20:00","44432","3.283","64.0","6.697","39.03","NAN","NAN","NAN","NAN","NAN"],
    [1543443,"2026-03-04 01:30:00","44433","3.452","63.52","7.84","72.44","NAN","NAN","NAN","NAN","NAN"],
    [1543444,"2026-03-04 01:40:00","44434","3.3","68.8","9.05","75.25","NAN","NAN","NAN","NAN","NAN"],
    [1543445,"2026-03-04 01:50:00","44435","3.627","58.77","7.383","62.34","NAN","NAN","NAN","NAN","NAN"],
    [1543446,"2026-03-04 02:00:00","44436","3.762","72.29","8.85","74.91","NAN","NAN","NAN","NAN","NAN"],
    [1543447,"2026-03-04 02:10:00","44437","3.447","74.84","7.481","66.77","NAN","NAN","NAN","NAN","NAN"],
    [1543448,"2026-03-04 02:20:00","44438","4.012","83.9","8.4","82.6","NAN","NAN","NAN","NAN","NAN"],
    [1543449,"2026-03-04 02:30:00","44439","3.627","78.52","8.13","90.2","NAN","NAN","NAN","NAN","NAN"],
    [1543450,"2026-03-04 02:40:00","44440","3.0780000000000003","70.4","7.285","49.66","NAN","NAN","NAN","NAN","NAN"],
    [1543451,"2026-03-04 02:50:00","44441","3.855","69.82","8.26","55.58","NAN","NAN","NAN","NAN","NAN"],
    [1543452,"2026-03-04 03:00:00","44442","4.569","70.97","10.68","54.6","NAN","NAN","NAN","NAN","NAN"],
    [1543453,"2026-03-04 03:10:00","44443","4.147","72.73","9.54","48.5","NAN","NAN","NAN","NAN","NAN"],
    [1543454,"2026-03-04 03:20:00","44444","3.4410000000000003","73.21","7.579","64.57","NAN","NAN","NAN","NAN","NAN"],
    [1543455,"2026-03-04 03:30:00","44445","3.89","75.58","8.43","87.4","NAN","NAN","NAN","NAN","NAN"],
    [1543456,"2026-03-04 03:40:00","44446","4.439","64.34","9.67","25.44","NAN","NAN","NAN","NAN","NAN"],
    [1543457,"2026-03-04 03:50:00","44447","4.7989999999999995","64.24","11.07","61.15","NAN","NAN","NAN","NAN","NAN"],
    [1543458,"2026-03-04 04:00:00","44448","4.385","62.0","9.28","95.2","NAN","NAN","NAN","NAN","NAN"],
    [1543459,"2026-03-04 04:10:00","44449","4.434","65.99","9.44","96.2","NAN","NAN","NAN","NAN","NAN"],
    [1543460,"2026-03-04 04:20:00","44450","5.147","64.15","9.73","59.71","NAN","NAN","NAN","NAN","NAN"],
    [1543461,"2026-03-04 04:30:00","44451","5.073","69.62","10.71","44.18","NAN","NAN","NAN","NAN","NAN"],
    [1543462,"2026-03-04 04:40:00","44452","4.916","70.67","9.9","59.86","NAN","NAN","NAN","NAN","NAN"],
    [1543463,"2026-03-04 04:50:00","44453","4.836","66.21","12.25","77.31","NAN","NAN","NAN","NAN","NAN"],
    [1543464,"2026-03-04 05:00:00","44454","4.148","58.08","8.56","48.19","NAN","NAN","NAN","NAN","NAN"],
    [1543465,"2026-03-04 05:10:00","44455","4.805","62.03","8.49","80.3","NAN","NAN","NAN","NAN","NAN"],
    [1543466,"2026-03-04 05:20:00","44456","4.416","61.73","9.8","49.07","NAN","NAN","NAN","NAN","NAN"],
    [1543467,"2026-03-04 05:30:00","44457","4.508","66.33","9.7","61","NAN","NAN","NAN","NAN","NAN"],
    [1543468,"2026-03-04 05:40:00","44458","4.382","70.18","9.77","69.26","NAN","NAN","NAN","NAN","NAN"],
    [1543469,"2026-03-04 05:50:00","44459","4.104","76.04","7.807","97.4","NAN","NAN","NAN","NAN","NAN"],
    [1543470,"2026-03-04 06:00:00","44460","3.597","72.58","7.644","49.26","NAN","NAN","NAN","NAN","NAN"],
    [1543471,"2026-03-04 06:10:00","44461","3.807","69.08","9.41","43.82","NAN","NAN","NAN","NAN","NAN"],
    [1543472,"2026-03-04 06:20:00","44462","4.535","70.67","10.36","61.39","NAN","NAN","NAN","NAN","NAN"],
    [1543473,"2026-03-04 06:30:00","44463","5.43","68.65","10.81","54.39","NAN","NAN","NAN","NAN","NAN"],
    [1543474,"2026-03-04 06:40:00","44464","4.97","69.6","12.28","42.92","NAN","NAN","NAN","NAN","NAN"],
    [1543475,"2026-03-04 06:50:00","44465","4.55","70.58","8.75","89.2","NAN","NAN","NAN","NAN","NAN"],
    [1543476,"2026-03-04 07:00:00","44466","4.317","69.64","8.23","71.69","NAN","NAN","NAN","NAN","NAN"],
    [1543477,"2026-03-04 07:10:00","44467","3.8710000000000004","65.41","9.34","72.3","NAN","NAN","NAN","NAN","NAN"],
    [1543478,"2026-03-04 07:20:00","44468","4.434","65.1","8.36","63.54","NAN","NAN","NAN","NAN","NAN"],
    [1543479,"2026-03-04 07:30:00","44469","4.904","68.47","10.36","68.19","NAN","NAN","NAN","NAN","NAN"],
    [1543480,"2026-03-04 07:40:00","44470","5.048","71.5","11.2","71.63","NAN","NAN","NAN","NAN","NAN"],
    [1543481,"2026-03-04 07:50:00","44471","4.791","67.76","10.06","66.65","NAN","NAN","NAN","NAN","NAN"],
    [1543482,"2026-03-04 08:00:00","44472","4.152","71.47","8.79","60.46","NAN","NAN","NAN","NAN","NAN"],
    [1543483,"2026-03-04 08:10:00","44473","4.802","70.27","9.02","50.44","NAN","NAN","NAN","NAN","NAN"],
    [1543484,"2026-03-04 08:20:00","44474","5.01","66.81","8.85","51.15","NAN","NAN","NAN","NAN","NAN"],
    [1543485,"2026-03-04 08:30:00","44475","4.64","73.45","8.46","78.79","NAN","NAN","NAN","NAN","NAN"],
    [1543486,"2026-03-04 08:40:00","44476","4.016","67.35","7.481","44.62","NAN","NAN","NAN","NAN","NAN"],
    [1543487,"2026-03-04 08:50:00","44477","4.141","72.54","7.775","90.4","NAN","NAN","NAN","NAN","NAN"],
    [1543488,"2026-03-04 09:00:00","44478","4.263","78.62","8.82","83","NAN","NAN","NAN","NAN","NAN"],
    [1543489,"2026-03-04 09:10:00","44479","4.507","80.7","8.53","76.42","NAN","NAN","NAN","NAN","NAN"],
    [1543490,"2026-03-04 09:20:00","44480","3.676","67.69","7.84","63.07","NAN","NAN","NAN","NAN","NAN"],
    [1543491,"2026-03-04 09:30:00","44481","4.262","69.23","7.873","47.34","NAN","NAN","NAN","NAN","NAN"],
    [1543492,"2026-03-04 09:40:00","44482","3.9789999999999996","77.91","9.47","51.17","NAN","NAN","NAN","NAN","NAN"],
    [1543493,"2026-03-04 09:50:00","44483","3.708","74.82","8.72","52.69","NAN","NAN","NAN","NAN","NAN"],
    [1543494,"2026-03-04 10:00:00","44484","4.925","81.7","9.96","85","NAN","NAN","NAN","NAN","NAN"],
    [1543495,"2026-03-04 10:10:00","44485","4.579","79.55","8.66","97.5","NAN","NAN","NAN","NAN","NAN"],
    [1543496,"2026-03-04 10:20:00","44486","4.5489999999999995","78.51","8.79","57.85","NAN","NAN","NAN","NAN","NAN"],
    [1543497,"2026-03-04 10:30:00","44487","5.3020000000000005","85.3","9.41","92.4","NAN","NAN","NAN","NAN","NAN"],
    [1543498,"2026-03-04 10:40:00","44488","6.162999999999999","86.3","10.06","93.4","NAN","NAN","NAN","NAN","NAN"],
    [1543499,"2026-03-04 10:50:00","44489","7.325","83.9","11.27","73.9","NAN","NAN","NAN","NAN","NAN"],
    [1543500,"2026-03-04 11:00:00","44490","6.0089999999999995","87.1","10.65","94","NAN","NAN","NAN","NAN","NAN"],
    [1543501,"2026-03-04 11:10:00","44491","5.938","86.1","10.16","90.7","NAN","NAN","NAN","NAN","NAN"],
    [1543502,"2026-03-04 11:20:00","44492","5.553","85.2","9.87","92.8","NAN","NAN","NAN","NAN","NAN"],
    [1543503,"2026-03-04 11:30:00","44493","5.1","84.8","9.05","87.2","NAN","NAN","NAN","NAN","NAN"],
    [1543504,"2026-03-04 11:40:00","44494","5.006","81.9","8.69","75.27","NAN","NAN","NAN","NAN","NAN"],
    [1543505,"2026-03-04 11:50:00","44495","5.382999999999999","86.6","9.28","68.33","NAN","NAN","NAN","NAN","NAN"],
    [1543506,"2026-03-04 12:00:00","44496","6.872000000000001","87.0","11.76","76.9","NAN","NAN","NAN","NAN","NAN"],
    [1543507,"2026-03-04 12:10:00","44497","6.605","88.1","10.71","89.3","NAN","NAN","NAN","NAN","NAN"],
    [1543508,"2026-03-04 12:20:00","44498","7.242999999999999","86.6","11.63","83","NAN","NAN","NAN","NAN","NAN"],
    [1543509,"2026-03-04 12:30:00","44499","7.016","86.4","11.53","84.9","NAN","NAN","NAN","NAN","NAN"],
    [1543510,"2026-03-04 12:40:00","44500","6.695","87.8","10.62","99.2","NAN","NAN","NAN","NAN","NAN"],
    [1543511,"2026-03-04 12:50:00","44501","5.648","85.6","8.95","86.7","NAN","NAN","NAN","NAN","NAN"],
    [1543512,"2026-03-04 13:00:00","44502","5.865","87.1","10","94.4","NAN","NAN","NAN","NAN","NAN"],
    [1543513,"2026-03-04 13:10:00","44503","5.492999999999999","87.6","9.8","102.6","NAN","NAN","NAN","NAN","NAN"],
    [1543514,"2026-03-04 13:20:00","44504","6.053","87.5","10.09","91.9","NAN","NAN","NAN","NAN","NAN"],
    [1543515,"2026-03-04 13:30:00","44505","6.711","85.2","10.94","87.8","NAN","NAN","NAN","NAN","NAN"],
    [1543516,"2026-03-04 13:40:00","44506","7.7139999999999995","84.8","13.39","93.7","NAN","NAN","NAN","NAN","NAN"],
    [1543517,"2026-03-04 13:50:00","44507","7.346","81.9","11.27","76.44","NAN","NAN","NAN","NAN","NAN"],
    [1543518,"2026-03-04 14:00:00","44508","7.84","83.1","11.56","76.89","NAN","NAN","NAN","NAN","NAN"],
    [1543519,"2026-03-04 14:10:00","44509","7.617000000000001","83.7","11.89","79.17","NAN","NAN","NAN","NAN","NAN"],
    [1543520,"2026-03-04 14:20:00","44510","7.995","81.4","11.99","74.79","NAN","NAN","NAN","NAN","NAN"],
    [1543521,"2026-03-04 14:30:00","44511","8.43","79.81","13.13","77.9","NAN","NAN","NAN","NAN","NAN"],
    [1543522,"2026-03-04 14:40:00","44512","8.0","81.0","12.35","85","NAN","NAN","NAN","NAN","NAN"],
    [1543523,"2026-03-04 14:50:00","44513","8.65","82.2","13.33","80.7","NAN","NAN","NAN","NAN","NAN"],
    [1543524,"2026-03-04 15:00:00","44514","8.87","80.6","13.2","87.8","NAN","NAN","NAN","NAN","NAN"],
    [1543525,"2026-03-04 15:10:00","44515","8.13","82.2","12.84","68.67","NAN","NAN","NAN","NAN","NAN"],
    [1543526,"2026-03-04 15:20:00","44516","8.2","81.1","12.32","65.4","NAN","NAN","NAN","NAN","NAN"],
    [1543527,"2026-03-04 15:30:00","44517","7.787999999999999","83.1","13.43","66.92","NAN","NAN","NAN","NAN","NAN"],
    [1543528,"2026-03-04 15:40:00","44518","7.9639999999999995","81.6","13.95","78.5","NAN","NAN","NAN","NAN","NAN"],
    [1543529,"2026-03-04 15:50:00","44519","8.41","81.6","13.26","88.1","NAN","NAN","NAN","NAN","NAN"],
    [1543530,"2026-03-04 16:00:00","44520","8.23","79.9","12.48","87.7","NAN","NAN","NAN","NAN","NAN"],
    [1543531,"2026-03-04 16:10:00","44521","7.621","83.5","10.81","88.7","NAN","NAN","NAN","NAN","NAN"],
    [1543532,"2026-03-04 16:20:00","44522","7.124","85.7","11.56","90.2","NAN","NAN","NAN","NAN","NAN"],
    [1543533,"2026-03-04 16:30:00","44523","7.529","83.0","12.58","75.5","NAN","NAN","NAN","NAN","NAN"],
    [1543534,"2026-03-04 16:40:00","44524","7.907","78.66","12.35","82.7","NAN","NAN","NAN","NAN","NAN"],
    [1543535,"2026-03-04 16:50:00","44525","7.892","79.64","12.87","74.94","NAN","NAN","NAN","NAN","NAN"],
    [1543536,"2026-03-04 17:00:00","44526","8.16","82.1","12.74","86.9","NAN","NAN","NAN","NAN","NAN"],
    [1543537,"2026-03-04 17:10:00","44527","8.21","80.8","13.07","82.3","NAN","NAN","NAN","NAN","NAN"],
    [1543538,"2026-03-04 17:20:00","44528","7.8020000000000005","85.3","12.02","87.8","NAN","NAN","NAN","NAN","NAN"],
    [1543539,"2026-03-04 17:30:00","44529","6.476","86.1","10.49","80.7","NAN","NAN","NAN","NAN","NAN"],
    [1543540,"2026-03-04 17:40:00","44530","5.513","86.2","9.9","90.2","NAN","NAN","NAN","NAN","NAN"],
    [1543541,"2026-03-04 17:50:00","44531","4.593999999999999","83.4","9.77","86.4","NAN","NAN","NAN","NAN","NAN"],
    [1543542,"2026-03-04 18:00:00","44532","6.218999999999999","86.6","9.18","94.8","NAN","NAN","NAN","NAN","NAN"],
    [1543543,"2026-03-04 18:10:00","44533","6.35","85.5","11.11","88.3","NAN","NAN","NAN","NAN","NAN"],
    [1543544,"2026-03-04 18:20:00","44534","4.503","86.4","8.56","88.2","NAN","NAN","NAN","NAN","NAN"],
    [1543545,"2026-03-04 18:30:00","44535","3.889","78.17","7.709","62.18","NAN","NAN","NAN","NAN","NAN"],
    [1543546,"2026-03-04 18:40:00","44536","5.809","87.5","9.34","99.6","NAN","NAN","NAN","NAN","NAN"],
    [1543547,"2026-03-04 18:50:00","44537","7.146","86.2","10.71","87.7","NAN","NAN","NAN","NAN","NAN"],
    [1543548,"2026-03-04 19:00:00","44538","5.601","79.03","10.26","82.1","NAN","NAN","NAN","NAN","NAN"],
    [1543549,"2026-03-04 19:10:00","44539","4.22","84.2","8.33","96.2","NAN","NAN","NAN","NAN","NAN"],
    [1543550,"2026-03-04 19:20:00","44540","5.287999999999999","86.0","9.73","101.3","NAN","NAN","NAN","NAN","NAN"],
    [1543551,"2026-03-04 19:30:00","44541","6.687","86.7","10.75","78.57","NAN","NAN","NAN","NAN","NAN"],
    [1543552,"2026-03-04 19:40:00","44542","5.14","85.7","7.742","43.89","NAN","NAN","NAN","NAN","NAN"],
    [1543553,"2026-03-04 19:50:00","44543","5.314","84.9","9.18","83.4","NAN","NAN","NAN","NAN","NAN"],
    [1543554,"2026-03-04 20:00:00","44544","5.358","87.0","9.51","85.6","NAN","NAN","NAN","NAN","NAN"],
    [1543555,"2026-03-04 20:10:00","44545","4.295","80.9","10.16","99.6","NAN","NAN","NAN","NAN","NAN"],
    [1543556,"2026-03-04 20:20:00","44546","4.5760000000000005","83.0","9.77","90.4","NAN","NAN","NAN","NAN","NAN"],
    [1543557,"2026-03-04 20:30:00","44547","4.717","82.6","9.02","89.8","NAN","NAN","NAN","NAN","NAN"],
    [1543558,"2026-03-04 20:40:00","44548","5.504","83.9","8.53","63.71","NAN","NAN","NAN","NAN","NAN"],
    [1543559,"2026-03-04 20:50:00","44549","5.904","86.0","9.8","83","NAN","NAN","NAN","NAN","NAN"],
    [1543560,"2026-03-04 21:00:00","44550","4.812","84.2","9.44","82.4","NAN","NAN","NAN","NAN","NAN"],
    [1543561,"2026-03-04 21:10:00","44551","5.268","88.2","8.75","85.9","NAN","NAN","NAN","NAN","NAN"],
    [1543562,"2026-03-04 21:20:00","44552","5.266","83.5","8.92","79.23","NAN","NAN","NAN","NAN","NAN"],
    [1543563,"2026-03-04 21:30:00","44553","4.512","83.1","8.66","96.1","NAN","NAN","NAN","NAN","NAN"],
    [1543564,"2026-03-04 21:40:00","44554","5.022","82.2","9.28","91.1","NAN","NAN","NAN","NAN","NAN"],
    [1543565,"2026-03-04 21:50:00","44555","4.395","80.5","7.971","69.97","NAN","NAN","NAN","NAN","NAN"],
    [1543566,"2026-03-04 22:00:00","44556","4.651","75.51","10.71","71.42","NAN","NAN","NAN","NAN","NAN"],
    [1543567,"2026-03-04 22:10:00","44557","4.501","68.3","9.44","68.89","NAN","NAN","NAN","NAN","NAN"],
    [1543568,"2026-03-04 22:20:00","44558","5.369","67.59","10.49","61.49","NAN","NAN","NAN","NAN","NAN"],
    [1543569,"2026-03-04 22:30:00","44559","3.932","72.25","7.644","63.85","NAN","NAN","NAN","NAN","NAN"],
    [1543570,"2026-03-04 22:40:00","44560","4.039","70.99","7.742","51.14","NAN","NAN","NAN","NAN","NAN"],
    [1543571,"2026-03-04 22:50:00","44561","3.7760000000000002","70.32","7.187","97.1","NAN","NAN","NAN","NAN","NAN"],
    [1543572,"2026-03-04 23:00:00","44562","3.938","82.9","7.121","95.4","NAN","NAN","NAN","NAN","NAN"],
    [1543573,"2026-03-04 23:10:00","44563","4.062","75.6","7.611","55.78","NAN","NAN","NAN","NAN","NAN"],
    [1543574,"2026-03-04 23:20:00","44564","3.763","82.3","6.925","74.24","NAN","NAN","NAN","NAN","NAN"],
    [1543575,"2026-03-04 23:30:00","44565","4.13","74.8","7.611","61.65","NAN","NAN","NAN","NAN","NAN"],
    [1543576,"2026-03-04 23:40:00","44566","3.873","78.2","7.905","84.8","NAN","NAN","NAN","NAN","NAN"],
    [1543577,"2026-03-04 23:50:00","44567","5.402","86.2","12.51","72","NAN","NAN","NAN","NAN","NAN"],
    [1543578,"2026-03-05 00:00:00","44568","7.257000000000001","85.5","11.47","89.6","NAN","NAN","NAN","NAN","NAN"],
    [1543579,"2026-03-05 00:10:00","44569","7.556","86.5","11.63","88.5","NAN","NAN","NAN","NAN","NAN"],
    [1543580,"2026-03-05 00:20:00","44570","7.178999999999999","88.1","11.47","83.3","NAN","NAN","NAN","NAN","NAN"],
    [1543581,"2026-03-05 00:30:00","44571","4.638999999999999","81.3","11.79","56.89","NAN","NAN","NAN","NAN","NAN"],
    [1543582,"2026-03-05 00:40:00","44572","4.02","75.27","8.43","55.04","NAN","NAN","NAN","NAN","NAN"],
    [1543583,"2026-03-05 00:50:00","44573","4.297","70.95","8.53","68","NAN","NAN","NAN","NAN","NAN"],
    [1543584,"2026-03-05 01:00:00","44574","3.8739999999999997","72.05","9.41","65.29","NAN","NAN","NAN","NAN","NAN"],
    [1543585,"2026-03-05 01:10:00","44575","4.706","72.75","10.42","71.47","NAN","NAN","NAN","NAN","NAN"],
    [1543586,"2026-03-05 01:20:00","44576","4.086","69.9","9.11","85.3","NAN","NAN","NAN","NAN","NAN"],
    [1543587,"2026-03-05 01:30:00","44577","3.549","74.14","9.24","75.43","NAN","NAN","NAN","NAN","NAN"],
    [1543588,"2026-03-05 01:40:00","44578","4.726","81.5","8.82","87.2","NAN","NAN","NAN","NAN","NAN"],
    [1543589,"2026-03-05 01:50:00","44579","5.349","86.8","9.28","82.9","NAN","NAN","NAN","NAN","NAN"],
    [1543590,"2026-03-05 02:00:00","44580","6.013999999999999","88.7","11.04","88.9","NAN","NAN","NAN","NAN","NAN"],
    [1543591,"2026-03-05 02:10:00","44581","6.832999999999999","84.4","10.36","89.6","NAN","NAN","NAN","NAN","NAN"],
    [1543592,"2026-03-05 02:20:00","44582","5.355","84.8","9.08","77.48","NAN","NAN","NAN","NAN","NAN"],
    [1543593,"2026-03-05 02:30:00","44583","6.375","84.2","10.06","75.09","NAN","NAN","NAN","NAN","NAN"],
    [1543594,"2026-03-05 02:40:00","44584","5.843999999999999","84.0","9.44","89.8","NAN","NAN","NAN","NAN","NAN"],
    [1543595,"2026-03-05 02:50:00","44585","4.989","83.2","8.98","96.3","NAN","NAN","NAN","NAN","NAN"],
    [1543596,"2026-03-05 03:00:00","44586","3.904","79.25","9.67","90.6","NAN","NAN","NAN","NAN","NAN"],
    [1543597,"2026-03-05 03:10:00","44587","4.938","79.25","9.44","97.9","NAN","NAN","NAN","NAN","NAN"],
    [1543598,"2026-03-05 03:20:00","44588","4.437","77.79","9.24","43.43","NAN","NAN","NAN","NAN","NAN"],
    [1543599,"2026-03-05 03:30:00","44589","6.367000000000001","87.8","11.56","95.6","NAN","NAN","NAN","NAN","NAN"],
    [1543600,"2026-03-05 03:40:00","44590","6.59","86.4","9.96","90.7","NAN","NAN","NAN","NAN","NAN"],
    [1543601,"2026-03-05 03:50:00","44591","6.965","83.7","11.63","92.3","NAN","NAN","NAN","NAN","NAN"],
    [1543602,"2026-03-05 04:00:00","44592","4.863","73.86","9.96","53.37","NAN","NAN","NAN","NAN","NAN"],
    [1543603,"2026-03-05 04:10:00","44593","5.002","68.51","11.5","76.95","NAN","NAN","NAN","NAN","NAN"],
    [1543604,"2026-03-05 04:20:00","44594","4.399","68.35","9.34","56.36","NAN","NAN","NAN","NAN","NAN"],
    [1543605,"2026-03-05 04:30:00","44595","4.518","70.78","10.75","49.31","NAN","NAN","NAN","NAN","NAN"],
    [1543606,"2026-03-05 04:40:00","44596","4.941","74.4","11.86","95","NAN","NAN","NAN","NAN","NAN"],
    [1543607,"2026-03-05 04:50:00","44597","4.454","77.63","10.36","66.57","NAN","NAN","NAN","NAN","NAN"],
    [1543608,"2026-03-05 05:00:00","44598","4.675","77.68","8.59","86.2","NAN","NAN","NAN","NAN","NAN"],
    [1543609,"2026-03-05 05:10:00","44599","4.246","72.43","8.69","86.5","NAN","NAN","NAN","NAN","NAN"],
    [1543610,"2026-03-05 05:20:00","44600","4.438","73.28","8.82","74.08","NAN","NAN","NAN","NAN","NAN"],
    [1543611,"2026-03-05 05:30:00","44601","4.855","70.26","10.75","67.73","NAN","NAN","NAN","NAN","NAN"],
    [1543612,"2026-03-05 05:40:00","44602","5.029","63.52","9.6","59.74","NAN","NAN","NAN","NAN","NAN"],
    [1543613,"2026-03-05 05:50:00","44603","4.919","61.76","8.98","60.88","NAN","NAN","NAN","NAN","NAN"],
    [1543614,"2026-03-05 06:00:00","44604","4.272","60.9","10.65","57.23","NAN","NAN","NAN","NAN","NAN"],
    [1543615,"2026-03-05 06:10:00","44605","5.261","65.34","10.22","76.59","NAN","NAN","NAN","NAN","NAN"],
    [1543616,"2026-03-05 06:20:00","44606","4.678999999999999","69.07","9.02","56.14","NAN","NAN","NAN","NAN","NAN"],
    [1543617,"2026-03-05 06:30:00","44607","4.3260000000000005","73.19","11.24","56.31","NAN","NAN","NAN","NAN","NAN"],
    [1543618,"2026-03-05 06:40:00","44608","4.757","71.96","8.36","79.23","NAN","NAN","NAN","NAN","NAN"],
    [1543619,"2026-03-05 06:50:00","44609","5.029","69.96","10.71","65.49","NAN","NAN","NAN","NAN","NAN"],
    [1543620,"2026-03-05 07:00:00","44610","4.995","68.74","9.64","57.93","NAN","NAN","NAN","NAN","NAN"],
    [1543621,"2026-03-05 07:10:00","44611","4.7669999999999995","71.48","8.85","91.9","NAN","NAN","NAN","NAN","NAN"],
    [1543622,"2026-03-05 07:20:00","44612","5.246","66.87","12.05","65.2","NAN","NAN","NAN","NAN","NAN"],
    [1543623,"2026-03-05 07:30:00","44613","4.992","64.58","9.21","25.22","NAN","NAN","NAN","NAN","NAN"],
    [1543624,"2026-03-05 07:40:00","44614","5.811","63.51","11.99","76.58","NAN","NAN","NAN","NAN","NAN"],
    [1543625,"2026-03-05 07:50:00","44615","5.053999999999999","60.59","9.21","72.35","NAN","NAN","NAN","NAN","NAN"],
    [1543626,"2026-03-05 08:00:00","44616","5.263","64.04","10.58","63.97","NAN","NAN","NAN","NAN","NAN"],
    [1543627,"2026-03-05 08:10:00","44617","6.564","64.85","13.36","56.76","NAN","NAN","NAN","NAN","NAN"],
    [1543628,"2026-03-05 08:20:00","44618","5.242000000000001","74.75","11.2","93.8","NAN","NAN","NAN","NAN","NAN"],
    [1543629,"2026-03-05 08:30:00","44619","6.111000000000001","77.0","10.36","56.82","NAN","NAN","NAN","NAN","NAN"],
    [1543630,"2026-03-05 08:40:00","44620","6.225","85.5","11.2","88.6","NAN","NAN","NAN","NAN","NAN"],
    [1543631,"2026-03-05 08:50:00","44621","6.291","86.7","10.81","90","NAN","NAN","NAN","NAN","NAN"],
    [1543632,"2026-03-05 09:00:00","44622","5.011","71.98","9.96","85.9","NAN","NAN","NAN","NAN","NAN"],
    [1543633,"2026-03-05 09:10:00","44623","6.182","66.16","12.94","71.09","NAN","NAN","NAN","NAN","NAN"],
    [1543634,"2026-03-05 09:20:00","44624","5.81","74.25","11.83","87.2","NAN","NAN","NAN","NAN","NAN"],
    [1543635,"2026-03-05 09:30:00","44625","5.459","80.9","9.83","46.88","NAN","NAN","NAN","NAN","NAN"],
    [1543636,"2026-03-05 09:40:00","44626","5.577999999999999","79.48","11.07","58.35","NAN","NAN","NAN","NAN","NAN"],
    [1543637,"2026-03-05 09:50:00","44627","6.437","87.1","13.07","83.6","NAN","NAN","NAN","NAN","NAN"],
    [1543638,"2026-03-05 10:00:00","44628","5.8229999999999995","69.58","9.83","82.5","NAN","NAN","NAN","NAN","NAN"],
    [1543639,"2026-03-05 10:10:00","44629","5.586","63.5","10.29","33.73","NAN","NAN","NAN","NAN","NAN"],
    [1543640,"2026-03-05 10:20:00","44630","6.636","48.21","12.64","42.52","NAN","NAN","NAN","NAN","NAN"],
    [1543641,"2026-03-05 10:30:00","44631","6.099","67.11","10.36","62.93","NAN","NAN","NAN","NAN","NAN"],
    [1543642,"2026-03-05 10:40:00","44632","6.0120000000000005","61.6","11.76","66.47","NAN","NAN","NAN","NAN","NAN"],
    [1543643,"2026-03-05 10:50:00","44633","5.499","58.25","11.83","67.55","NAN","NAN","NAN","NAN","NAN"],
    [1543644,"2026-03-05 11:00:00","44634","6.147","49.53","11.53","54.75","NAN","NAN","NAN","NAN","NAN"],
    [1543645,"2026-03-05 11:10:00","44635","5.313","65.69","10.32","51.12","NAN","NAN","NAN","NAN","NAN"],
    [1543646,"2026-03-05 11:20:00","44636","6.296","49.87","10.58","39.55","NAN","NAN","NAN","NAN","NAN"],
    [1543647,"2026-03-05 11:30:00","44637","5.295","60.97","10.98","72.51","NAN","NAN","NAN","NAN","NAN"],
    [1543648,"2026-03-05 11:40:00","44638","5.152","61.01","11.14","68.93","NAN","NAN","NAN","NAN","NAN"],
    [1543649,"2026-03-05 11:50:00","44639","5.218","58.47","9.44","49.59","NAN","NAN","NAN","NAN","NAN"],
    [1543650,"2026-03-05 12:00:00","44640","6.678","64.05","12.32","72.77","NAN","NAN","NAN","NAN","NAN"],
    [1543651,"2026-03-05 12:10:00","44641","6.696000000000001","67.45","13.72","87.4","NAN","NAN","NAN","NAN","NAN"],
    [1543652,"2026-03-05 12:20:00","44642","5.865","70.63","12.41","67.02","NAN","NAN","NAN","NAN","NAN"],
    [1543653,"2026-03-05 12:30:00","44643","5.414","74.85","12.05","58.03","NAN","NAN","NAN","NAN","NAN"],
    [1543654,"2026-03-05 12:40:00","44644","5.167999999999999","70.16","10.29","72.86","NAN","NAN","NAN","NAN","NAN"],
    [1543655,"2026-03-05 12:50:00","44645","5.096","82.4","10.03","93.7","NAN","NAN","NAN","NAN","NAN"],
    [1543656,"2026-03-05 13:00:00","44646","5.254","80.1","13.56","74.31","NAN","NAN","NAN","NAN","NAN"],
    [1543657,"2026-03-05 13:10:00","44647","5.79","82.8","10.71","98.6","NAN","NAN","NAN","NAN","NAN"],
    [1543658,"2026-03-05 13:20:00","44648","6.941","84.6","11.53","91","NAN","NAN","NAN","NAN","NAN"],
    [1543659,"2026-03-05 13:30:00","44649","5.245","81.1","10.42","90.3","NAN","NAN","NAN","NAN","NAN"],
    [1543660,"2026-03-05 13:40:00","44650","6.562","78.7","10.62","76.97","NAN","NAN","NAN","NAN","NAN"],
    [1543661,"2026-03-05 13:50:00","44651","6.732","80.6","10.62","95.8","NAN","NAN","NAN","NAN","NAN"],
    [1543662,"2026-03-05 14:00:00","44652","5.702000000000001","78.75","8.89","72.26","NAN","NAN","NAN","NAN","NAN"],
    [1543663,"2026-03-05 14:10:00","44653","6.1129999999999995","80.7","9.41","75.81","NAN","NAN","NAN","NAN","NAN"],
    [1543664,"2026-03-05 14:20:00","44654","5.394","83.5","8.33","99.7","NAN","NAN","NAN","NAN","NAN"],
    [1543665,"2026-03-05 14:30:00","44655","5.482","79.88","9.9","79.06","NAN","NAN","NAN","NAN","NAN"],
    [1543666,"2026-03-05 14:40:00","44656","5.638999999999999","77.28","8.98","79.75","NAN","NAN","NAN","NAN","NAN"],
    [1543667,"2026-03-05 14:50:00","44657","5.379","78.92","8.46","78.55","NAN","NAN","NAN","NAN","NAN"],
    [1543668,"2026-03-05 15:00:00","44658","5.063","80.5","7.481","77.84","NAN","NAN","NAN","NAN","NAN"],
    [1543669,"2026-03-05 15:10:00","44659","5.603","78.97","8.04","84","NAN","NAN","NAN","NAN","NAN"],
    [1543670,"2026-03-05 15:20:00","44660","4.544","83.9","7.84","73.82","NAN","NAN","NAN","NAN","NAN"],
    [1543671,"2026-03-05 15:30:00","44661","3.136","81.1","6.109","85.5","NAN","NAN","NAN","NAN","NAN"],
    [1543672,"2026-03-05 15:40:00","44662","2.977","70.27","5.978","46.45","NAN","NAN","NAN","NAN","NAN"],
    [1543673,"2026-03-05 15:50:00","44663","2.739","67.75","5.749","89.4","NAN","NAN","NAN","NAN","NAN"],
    [1543674,"2026-03-05 16:00:00","44664","3.404","75.12","6.599","62.01","NAN","NAN","NAN","NAN","NAN"],
    [1543675,"2026-03-05 16:10:00","44665","3.951","79.1","6.827","89.1","NAN","NAN","NAN","NAN","NAN"],
    [1543676,"2026-03-05 16:20:00","44666","3.97","81.5","6.664","79.47","NAN","NAN","NAN","NAN","NAN"],
    [1543677,"2026-03-05 16:30:00","44667","6.11","82.7","9.21","80.4","NAN","NAN","NAN","NAN","NAN"],
    [1543678,"2026-03-05 16:40:00","44668","4.909","75.75","9.31","92.9","NAN","NAN","NAN","NAN","NAN"],
    [1543679,"2026-03-05 16:50:00","44669","3.987","59.58","7.089","67.98","NAN","NAN","NAN","NAN","NAN"],
    [1543680,"2026-03-05 17:00:00","44670","4.58","68.22","8","61.85","NAN","NAN","NAN","NAN","NAN"],
    [1543681,"2026-03-05 17:10:00","44671","5.114","69.47","8.3","81.1","NAN","NAN","NAN","NAN","NAN"],
    [1543682,"2026-03-05 17:20:00","44672","5.306","68.56","8.53","64.05","NAN","NAN","NAN","NAN","NAN"],
    [1543683,"2026-03-05 17:30:00","44673","4.702","71.06","7.644","61.3","NAN","NAN","NAN","NAN","NAN"],
    [1543684,"2026-03-05 17:40:00","44674","4.845","68.01","7.742","81.8","NAN","NAN","NAN","NAN","NAN"],
    [1543685,"2026-03-05 17:50:00","44675","4.619","68.57","7.873","66.46","NAN","NAN","NAN","NAN","NAN"],
    [1543686,"2026-03-05 18:00:00","44676","3.99","85.6","7.84","89","NAN","NAN","NAN","NAN","NAN"],
    [1543687,"2026-03-05 18:10:00","44677","5.141","70.64","8.33","67.86","NAN","NAN","NAN","NAN","NAN"],
    [1543688,"2026-03-05 18:20:00","44678","5.015","68.4","8.79","70.6","NAN","NAN","NAN","NAN","NAN"],
    [1543689,"2026-03-05 18:30:00","44679","4.213","67.17","6.631","75.77","NAN","NAN","NAN","NAN","NAN"],
    [1543690,"2026-03-05 18:40:00","44680","4.38","67.47","7.513","69.62","NAN","NAN","NAN","NAN","NAN"],
    [1543691,"2026-03-05 18:50:00","44681","4.612","67.17","7.579","61.73","NAN","NAN","NAN","NAN","NAN"],
    [1543692,"2026-03-05 19:00:00","44682","4.519","67.23","8","54.8","NAN","NAN","NAN","NAN","NAN"],
    [1543693,"2026-03-05 19:10:00","44683","4.744","66.32","7.481","67.97","NAN","NAN","NAN","NAN","NAN"],
    [1543694,"2026-03-05 19:20:00","44684","4.79","64.97","8.46","59.92","NAN","NAN","NAN","NAN","NAN"],
    [1543695,"2026-03-05 19:30:00","44685","4.944","68.69","9.38","65.18","NAN","NAN","NAN","NAN","NAN"],
    [1543696,"2026-03-05 19:40:00","44686","5.1979999999999995","70.61","8.23","72.07","NAN","NAN","NAN","NAN","NAN"],
    [1543697,"2026-03-05 19:50:00","44687","4.289","66.54","8.13","76.63","NAN","NAN","NAN","NAN","NAN"],
    [1543698,"2026-03-05 20:00:00","44688","5.025","63.22","8.92","63.14","NAN","NAN","NAN","NAN","NAN"],
    [1543699,"2026-03-05 20:10:00","44689","4.815","60.56","8.13","63.67","NAN","NAN","NAN","NAN","NAN"],
    [1543700,"2026-03-05 20:20:00","44690","5.377000000000001","62.7","8.98","68.76","NAN","NAN","NAN","NAN","NAN"],
    [1543701,"2026-03-05 20:30:00","44691","5.495","63.05","10.85","67.77","NAN","NAN","NAN","NAN","NAN"],
    [1543702,"2026-03-05 20:40:00","44692","4.922","61.22","9.67","66.91","NAN","NAN","NAN","NAN","NAN"],
    [1543703,"2026-03-05 20:50:00","44693","4.626","55.5","9.28","64.54","NAN","NAN","NAN","NAN","NAN"],
    [1543704,"2026-03-05 21:00:00","44694","5.231","60.22","12.41","71.98","NAN","NAN","NAN","NAN","NAN"],
    [1543705,"2026-03-05 21:10:00","44695","6.233","63.0","10.13","72.54","NAN","NAN","NAN","NAN","NAN"],
    [1543706,"2026-03-05 21:20:00","44696","5.807","63.04","9.57","54.41","NAN","NAN","NAN","NAN","NAN"],
    [1543707,"2026-03-05 21:30:00","44697","5.93","57.59","11.04","56.76","NAN","NAN","NAN","NAN","NAN"],
    [1543708,"2026-03-05 21:40:00","44698","5.2989999999999995","60.62","11.17","67.76","NAN","NAN","NAN","NAN","NAN"],
    [1543709,"2026-03-05 21:50:00","44699","6.154","63.67","10.88","68.7","NAN","NAN","NAN","NAN","NAN"],
    [1543710,"2026-03-05 22:00:00","44700","6.247999999999999","62.59","11.11","66.26","NAN","NAN","NAN","NAN","NAN"],
    [1543711,"2026-03-05 22:10:00","44701","5.966","60.65","11.4","63.1","NAN","NAN","NAN","NAN","NAN"],
    [1543712,"2026-03-05 22:20:00","44702","6.223","63.26","10.09","66.02","NAN","NAN","NAN","NAN","NAN"],
    [1543713,"2026-03-05 22:30:00","44703","5.649","62.8","10.81","68.23","NAN","NAN","NAN","NAN","NAN"],
    [1543714,"2026-03-05 22:40:00","44704","6.0120000000000005","68.07","10.94","75.23","NAN","NAN","NAN","NAN","NAN"],
    [1543715,"2026-03-05 22:50:00","44705","4.953","67.31","8.33","71.6","NAN","NAN","NAN","NAN","NAN"],
    [1543716,"2026-03-05 23:00:00","44706","5.153","66.01","8.33","55.03","NAN","NAN","NAN","NAN","NAN"],
    [1543717,"2026-03-05 23:10:00","44707","5.277","67.39","9.44","58.14","NAN","NAN","NAN","NAN","NAN"],
    [1543718,"2026-03-05 23:20:00","44708","4.787","67.36","9.8","55.88","NAN","NAN","NAN","NAN","NAN"],
    [1543719,"2026-03-05 23:30:00","44709","4.55","68.12","8.82","67.66","NAN","NAN","NAN","NAN","NAN"],
    [1543720,"2026-03-05 23:40:00","44710","5.46","63.41","8.92","58.52","NAN","NAN","NAN","NAN","NAN"],
    [1543721,"2026-03-05 23:50:00","44711","5.523","63.43","8.49","54.61","NAN","NAN","NAN","NAN","NAN"],
    [1543722,"2026-03-06 00:00:00","44712","5.624","62.48","10.68","80.3","NAN","NAN","NAN","NAN","NAN"],
    [1543723,"2026-03-06 00:10:00","44713","5.622999999999999","62.9","9.18","67.17","NAN","NAN","NAN","NAN","NAN"],
    [1543724,"2026-03-06 00:20:00","44714","6.393","61.87","10.19","64.31","NAN","NAN","NAN","NAN","NAN"],
    [1543725,"2026-03-06 00:30:00","44715","6.0089999999999995","63.91","9.57","67.04","NAN","NAN","NAN","NAN","NAN"],
    [1543726,"2026-03-06 00:40:00","44716","6.939","61.81","10.68","62.85","NAN","NAN","NAN","NAN","NAN"],
    [1543727,"2026-03-06 00:50:00","44717","6.568","63.92","10.62","66.32","NAN","NAN","NAN","NAN","NAN"],
    [1543728,"2026-03-06 01:00:00","44718","6.315","65.31","11.5","64.52","NAN","NAN","NAN","NAN","NAN"],
    [1543729,"2026-03-06 01:10:00","44719","5.5329999999999995","65.08","9.31","57.32","NAN","NAN","NAN","NAN","NAN"],
    [1543730,"2026-03-06 01:20:00","44720","5.718999999999999","66.34","11.83","74.47","NAN","NAN","NAN","NAN","NAN"],
    [1543731,"2026-03-06 01:30:00","44721","6.784","61.6","12.51","61.58","NAN","NAN","NAN","NAN","NAN"],
    [1543732,"2026-03-06 01:40:00","44722","6.334","64.91","10.36","62.9","NAN","NAN","NAN","NAN","NAN"],
    [1543733,"2026-03-06 01:50:00","44723","6.746","61.08","11.4","57.73","NAN","NAN","NAN","NAN","NAN"],
    [1543734,"2026-03-06 02:00:00","44724","6.218","57.33","11.76","79.77","NAN","NAN","NAN","NAN","NAN"],
    [1543735,"2026-03-06 02:10:00","44725","5.6979999999999995","60.13","11.66","73.24","NAN","NAN","NAN","NAN","NAN"],
    [1543736,"2026-03-06 02:20:00","44726","5.547000000000001","53.95","9.54","67.15","NAN","NAN","NAN","NAN","NAN"],
    [1543737,"2026-03-06 02:30:00","44727","5.595","55.39","9.54","65.5","NAN","NAN","NAN","NAN","NAN"],
    [1543738,"2026-03-06 02:40:00","44728","5.867999999999999","60.94","10.36","68.28","NAN","NAN","NAN","NAN","NAN"],
    [1543739,"2026-03-06 02:50:00","44729","5.545","59.11","10.75","67.99","NAN","NAN","NAN","NAN","NAN"],
    [1543740,"2026-03-06 03:00:00","44730","5.818","61.1","10.81","72.91","NAN","NAN","NAN","NAN","NAN"],
    [1543741,"2026-03-06 03:10:00","44731","6.237","72.89","10.36","76.15","NAN","NAN","NAN","NAN","NAN"],
    [1543742,"2026-03-06 03:20:00","44732","4.841","80.4","10.45","96","NAN","NAN","NAN","NAN","NAN"],
    [1543743,"2026-03-06 03:30:00","44733","5.999","93.0","11.17","92.2","NAN","NAN","NAN","NAN","NAN"],
    [1543744,"2026-03-06 03:40:00","44734","6.614","93.8","11.56","86.6","NAN","NAN","NAN","NAN","NAN"],
    [1543745,"2026-03-06 03:50:00","44735","5.931","93.3","11.76","78.84","NAN","NAN","NAN","NAN","NAN"],
    [1543746,"2026-03-06 04:00:00","44736","5.482","90.7","10.78","76.21","NAN","NAN","NAN","NAN","NAN"],
    [1543747,"2026-03-06 04:10:00","44737","5.2589999999999995","83.7","9.41","98.1","NAN","NAN","NAN","NAN","NAN"],
    [1543748,"2026-03-06 04:20:00","44738","5.461","81.3","11.27","93","NAN","NAN","NAN","NAN","NAN"],
    [1543749,"2026-03-06 04:30:00","44739","6.287000000000001","85.8","12.51","93.8","NAN","NAN","NAN","NAN","NAN"],
    [1543750,"2026-03-06 04:40:00","44740","6.162999999999999","83.5","12.02","79.66","NAN","NAN","NAN","NAN","NAN"],
    [1543751,"2026-03-06 04:50:00","44741","7.16","69.14","13.65","63.2","NAN","NAN","NAN","NAN","NAN"],
    [1543752,"2026-03-06 05:00:00","44742","7.306","61.94","11.63","66.52","NAN","NAN","NAN","NAN","NAN"],
    [1543753,"2026-03-06 05:10:00","44743","6.442","55.07","11.47","57.07","NAN","NAN","NAN","NAN","NAN"],
    [1543754,"2026-03-06 05:20:00","44744","6.672000000000001","63.42","12.97","43.09","NAN","NAN","NAN","NAN","NAN"],
    [1543755,"2026-03-06 05:30:00","44745","5.5920000000000005","82.6","10.29","82.4","NAN","NAN","NAN","NAN","NAN"],
    [1543756,"2026-03-06 05:40:00","44746","4.8","85.8","9.67","77.34","NAN","NAN","NAN","NAN","NAN"],
    [1543757,"2026-03-06 05:50:00","44747","5.518","92.1","12.87","70.44","NAN","NAN","NAN","NAN","NAN"],
    [1543758,"2026-03-06 06:00:00","44748","5.5489999999999995","90.6","11.96","95.8","NAN","NAN","NAN","NAN","NAN"],
    [1543759,"2026-03-06 06:10:00","44749","4.2410000000000005","88.8","9.73","92","NAN","NAN","NAN","NAN","NAN"],
    [1543760,"2026-03-06 06:20:00","44750","6.622999999999999","76.33","11.43","64.96","NAN","NAN","NAN","NAN","NAN"],
    [1543761,"2026-03-06 06:30:00","44751","6.8420000000000005","73.35","12.38","73.31","NAN","NAN","NAN","NAN","NAN"],
    [1543762,"2026-03-06 06:40:00","44752","6.055","77.86","10.62","70.56","NAN","NAN","NAN","NAN","NAN"],
    [1543763,"2026-03-06 06:50:00","44753","7.001","75.26","13.39","74.37","NAN","NAN","NAN","NAN","NAN"],
    [1543764,"2026-03-06 07:00:00","44754","6.0760000000000005","75.51","10.22","74.13","NAN","NAN","NAN","NAN","NAN"],
    [1543765,"2026-03-06 07:10:00","44755","6.082000000000001","76.62","11.2","72.32","NAN","NAN","NAN","NAN","NAN"],
    [1543766,"2026-03-06 07:20:00","44756","6.148","77.36","10.55","63.91","NAN","NAN","NAN","NAN","NAN"],
    [1543767,"2026-03-06 07:30:00","44757","8.17","71.51","12.38","73.29","NAN","NAN","NAN","NAN","NAN"],
    [1543768,"2026-03-06 07:40:00","44758","6.803999999999999","70.87","11.17","80.4","NAN","NAN","NAN","NAN","NAN"],
    [1543769,"2026-03-06 07:50:00","44759","6.985","72.39","10.09","75.91","NAN","NAN","NAN","NAN","NAN"],
    [1543770,"2026-03-06 08:00:00","44760","5.915","60.69","9.64","79.4","NAN","NAN","NAN","NAN","NAN"],
    [1543771,"2026-03-06 08:10:00","44761","5.636","61.05","9.73","70.58","NAN","NAN","NAN","NAN","NAN"],
    [1543772,"2026-03-06 08:20:00","44762","6.359","63.22","9.93","54.27","NAN","NAN","NAN","NAN","NAN"],
    [1543773,"2026-03-06 08:30:00","44763","6.565","62.47","11.14","55.33","NAN","NAN","NAN","NAN","NAN"],
    [1543774,"2026-03-06 08:40:00","44764","7.465","61.2","12.94","59.69","NAN","NAN","NAN","NAN","NAN"],
    [1543775,"2026-03-06 08:50:00","44765","6.857","60.08","13.88","70.82","NAN","NAN","NAN","NAN","NAN"],
    [1543776,"2026-03-06 09:00:00","44766","5.947","58.64","12.81","72.58","NAN","NAN","NAN","NAN","NAN"],
    [1543777,"2026-03-06 09:10:00","44767","6.599","59.26","12.81","73.52","NAN","NAN","NAN","NAN","NAN"],
    [1543778,"2026-03-06 09:20:00","44768","7.189","60.04","12.05","70.44","NAN","NAN","NAN","NAN","NAN"],
    [1543779,"2026-03-06 09:30:00","44769","8.15","59.93","13.82","64.68","NAN","NAN","NAN","NAN","NAN"],
    [1543780,"2026-03-06 09:40:00","44770","6.765","57.42","12.77","65.6","NAN","NAN","NAN","NAN","NAN"],
    [1543781,"2026-03-06 09:50:00","44771","6.43","55.96","11.63","68.36","NAN","NAN","NAN","NAN","NAN"],
    [1543782,"2026-03-06 10:00:00","44772","6.37","61.34","11.79","51.99","NAN","NAN","NAN","NAN","NAN"],
    [1543783,"2026-03-06 10:10:00","44773","7.107","71.54","11.34","66.87","NAN","NAN","NAN","NAN","NAN"],
    [1543784,"2026-03-06 10:20:00","44774","8.57","74.16","13.85","69.05","NAN","NAN","NAN","NAN","NAN"],
    [1543785,"2026-03-06 10:30:00","44775","8.61","74.39","15.58","69.14","NAN","NAN","NAN","NAN","NAN"],
    [1543786,"2026-03-06 10:40:00","44776","7.946000000000001","73.99","13.2","71.54","NAN","NAN","NAN","NAN","NAN"],
    [1543787,"2026-03-06 10:50:00","44777","8.45","73.11","13.13","73.57","NAN","NAN","NAN","NAN","NAN"],
    [1543788,"2026-03-06 11:00:00","44778","8.87","72.99","14.21","83.2","NAN","NAN","NAN","NAN","NAN"],
    [1543789,"2026-03-06 11:10:00","44779","7.0729999999999995","76.47","12.54","63.01","NAN","NAN","NAN","NAN","NAN"],
    [1543790,"2026-03-06 11:20:00","44780","6.807","73.47","11.3","61.24","NAN","NAN","NAN","NAN","NAN"],
    [1543791,"2026-03-06 11:30:00","44781","6.507999999999999","74.91","10.58","68.04","NAN","NAN","NAN","NAN","NAN"],
    [1543792,"2026-03-06 11:40:00","44782","5.72","78.83","9.6","75.48","NAN","NAN","NAN","NAN","NAN"],
    [1543793,"2026-03-06 11:50:00","44783","5.388","86.0","11.3","91.3","NAN","NAN","NAN","NAN","NAN"],
    [1543794,"2026-03-06 12:00:00","44784","4.663","85.2","9.15","72.32","NAN","NAN","NAN","NAN","NAN"],
    [1543795,"2026-03-06 12:10:00","44785","4.703","82.4","8.95","100.3","NAN","NAN","NAN","NAN","NAN"],
    [1543796,"2026-03-06 12:20:00","44786","4.925","78.8","10.03","71.06","NAN","NAN","NAN","NAN","NAN"],
    [1543797,"2026-03-06 12:30:00","44787","4.927","83.5","8.92","67.43","NAN","NAN","NAN","NAN","NAN"],
    [1543798,"2026-03-06 12:40:00","44788","4.466","86.4","8.49","69.91","NAN","NAN","NAN","NAN","NAN"],
    [1543799,"2026-03-06 12:50:00","44789","5.816","74.81","11.63","70.31","NAN","NAN","NAN","NAN","NAN"],
    [1543800,"2026-03-06 13:00:00","44790","6.968","71.25","10.55","67.06","NAN","NAN","NAN","NAN","NAN"],
    [1543801,"2026-03-06 13:10:00","44791","6.397","67.96","10.32","78.08","NAN","NAN","NAN","NAN","NAN"],
    [1543802,"2026-03-06 13:20:00","44792","5.04","68.24","8.92","63.16","NAN","NAN","NAN","NAN","NAN"],
    [1543803,"2026-03-06 13:30:00","44793","4.908","64.61","8.69","63.77","NAN","NAN","NAN","NAN","NAN"],
    [1543804,"2026-03-06 13:40:00","44794","4.665","66.7","9.05","62.27","NAN","NAN","NAN","NAN","NAN"],
    [1543805,"2026-03-06 13:50:00","44795","5.072","64.86","9.28","64.24","NAN","NAN","NAN","NAN","NAN"],
    [1543806,"2026-03-06 14:00:00","44796","4.854","62.6","8.17","64.62","NAN","NAN","NAN","NAN","NAN"],
    [1543807,"2026-03-06 14:10:00","44797","5.255","62.17","9.28","58.81","NAN","NAN","NAN","NAN","NAN"],
    [1543808,"2026-03-06 14:20:00","44798","4.476","65.18","7.644","51.73","NAN","NAN","NAN","NAN","NAN"],
    [1543809,"2026-03-06 14:30:00","44799","4.301","63.76","7.807","74.1","NAN","NAN","NAN","NAN","NAN"],
    [1543810,"2026-03-06 14:40:00","44800","4.755","60.32","8.17","63.92","NAN","NAN","NAN","NAN","NAN"],
    [1543811,"2026-03-06 14:50:00","44801","4.442","63.22","7.742","65.57","NAN","NAN","NAN","NAN","NAN"],
    [1543812,"2026-03-06 15:00:00","44802","4.599","62.35","7.971","56.73","NAN","NAN","NAN","NAN","NAN"],
    [1543813,"2026-03-06 15:10:00","44803","4.328","65.06","7.383","72.18","NAN","NAN","NAN","NAN","NAN"],
    [1543814,"2026-03-06 15:20:00","44804","5.192","67.42","10.29","68.54","NAN","NAN","NAN","NAN","NAN"],
    [1543815,"2026-03-06 15:30:00","44805","4.25","68.13","7.84","70.32","NAN","NAN","NAN","NAN","NAN"],
    [1543816,"2026-03-06 15:40:00","44806","4.492","68.74","7.154","67.15","NAN","NAN","NAN","NAN","NAN"],
    [1543817,"2026-03-06 15:50:00","44807","4.593","71.0","8.79","62.68","NAN","NAN","NAN","NAN","NAN"],
    [1543818,"2026-03-06 16:00:00","44808","3.963","60.74","7.35","57.08","NAN","NAN","NAN","NAN","NAN"],
    [1543819,"2026-03-06 16:10:00","44809","4.952","67.89","8.49","56.69","NAN","NAN","NAN","NAN","NAN"],
    [1543820,"2026-03-06 16:20:00","44810","4.396","73.23","8.23","71.58","NAN","NAN","NAN","NAN","NAN"],
    [1543821,"2026-03-06 16:30:00","44811","4.249","64.79","7.415","66.13","NAN","NAN","NAN","NAN","NAN"],
    [1543822,"2026-03-06 16:40:00","44812","5.579","64.19","10.32","63.97","NAN","NAN","NAN","NAN","NAN"],
    [1543823,"2026-03-06 16:50:00","44813","5.96","60.68","9.8","53.78","NAN","NAN","NAN","NAN","NAN"],
    [1543824,"2026-03-06 17:00:00","44814","5.841","61.56","9.9","57.15","NAN","NAN","NAN","NAN","NAN"],
    [1543825,"2026-03-06 17:10:00","44815","5.223","64.52","9.7","61.65","NAN","NAN","NAN","NAN","NAN"],
    [1543826,"2026-03-06 17:20:00","44816","6.207999999999999","70.19","10.06","63.55","NAN","NAN","NAN","NAN","NAN"],
    [1543827,"2026-03-06 17:30:00","44817","6.046","74.86","12.48","66.56","NAN","NAN","NAN","NAN","NAN"],
    [1543828,"2026-03-06 17:40:00","44818","4.8260000000000005","98.5","8.13","95.8","NAN","NAN","NAN","NAN","NAN"],
    [1543829,"2026-03-06 17:50:00","44819","4.648","94.4","8.59","88.1","NAN","NAN","NAN","NAN","NAN"],
    [1543830,"2026-03-06 18:00:00","44820","4.377","97.4","8.3","101.3","NAN","NAN","NAN","NAN","NAN"],
    [1543831,"2026-03-06 18:10:00","44821","4.061","97.5","7.481","95.5","NAN","NAN","NAN","NAN","NAN"],
    [1543832,"2026-03-06 18:20:00","44822","4.702","94.9","7.84","86.5","NAN","NAN","NAN","NAN","NAN"],
    [1543833,"2026-03-06 18:30:00","44823","4.485","95.3","7.317","88.3","NAN","NAN","NAN","NAN","NAN"],
    [1543834,"2026-03-06 18:40:00","44824","4.494","93.7","6.893","96.1","NAN","NAN","NAN","NAN","NAN"],
    [1543835,"2026-03-06 18:50:00","44825","4.356","89.0","7.513","82.6","NAN","NAN","NAN","NAN","NAN"],
    [1543836,"2026-03-06 19:00:00","44826","3.2760000000000002","74.41","6.533","53.23","NAN","NAN","NAN","NAN","NAN"],
    [1543837,"2026-03-06 19:10:00","44827","4.243","67.2","7.317","52.52","NAN","NAN","NAN","NAN","NAN"],
    [1543838,"2026-03-06 19:20:00","44828","4.155","69.66","7.089","66.12","NAN","NAN","NAN","NAN","NAN"],
    [1543839,"2026-03-06 19:30:00","44829","3.719","72.62","6.305","73.71","NAN","NAN","NAN","NAN","NAN"],
    [1543840,"2026-03-06 19:40:00","44830","3.377","77.8","6.86","64.58","NAN","NAN","NAN","NAN","NAN"],
    [1543841,"2026-03-06 19:50:00","44831","2.991","81.3","6.043","70.52","NAN","NAN","NAN","NAN","NAN"],
    [1543842,"2026-03-06 20:00:00","44832","3.1239999999999997","81.1","6.37","60.53","NAN","NAN","NAN","NAN","NAN"],
    [1543843,"2026-03-06 20:10:00","44833","4.0","64.27","7.415","66.11","NAN","NAN","NAN","NAN","NAN"],
    [1543844,"2026-03-06 20:20:00","44834","3.052","65.88","6.174","74.98","NAN","NAN","NAN","NAN","NAN"],
    [1543845,"2026-03-06 20:30:00","44835","3.2319999999999998","65.78","6.403","63.77","NAN","NAN","NAN","NAN","NAN"],
    [1543846,"2026-03-06 20:40:00","44836","3.908","60.88","6.893","52.59","NAN","NAN","NAN","NAN","NAN"],
    [1543847,"2026-03-06 20:50:00","44837","3.807","69.06","6.762","60.07","NAN","NAN","NAN","NAN","NAN"],
    [1543848,"2026-03-06 21:00:00","44838","4.532","69.43","7.873","71.27","NAN","NAN","NAN","NAN","NAN"],
    [1543849,"2026-03-06 21:10:00","44839","3.99","67.4","6.925","61.82","NAN","NAN","NAN","NAN","NAN"],
    [1543850,"2026-03-06 21:20:00","44840","4.288","65.76","7.35","64.08","NAN","NAN","NAN","NAN","NAN"],
    [1543851,"2026-03-06 21:30:00","44841","3.9139999999999997","68.87","7.187","77.93","NAN","NAN","NAN","NAN","NAN"],
    [1543852,"2026-03-06 21:40:00","44842","4.46","63.16","8.2","86.8","NAN","NAN","NAN","NAN","NAN"],
    [1543853,"2026-03-06 21:50:00","44843","4.5760000000000005","68.97","8.69","69.78","NAN","NAN","NAN","NAN","NAN"],
    [1543854,"2026-03-06 22:00:00","44844","4.32","69.48","7.513","76.44","NAN","NAN","NAN","NAN","NAN"],
    [1543855,"2026-03-06 22:10:00","44845","4.84","65.94","8.36","58.69","NAN","NAN","NAN","NAN","NAN"],
    [1543856,"2026-03-06 22:20:00","44846","5.2139999999999995","60.91","9.83","59.71","NAN","NAN","NAN","NAN","NAN"],
    [1543857,"2026-03-06 22:30:00","44847","5.035","71.92","8.69","51.97","NAN","NAN","NAN","NAN","NAN"],
    [1543858,"2026-03-06 22:40:00","44848","4.955","68.41","9.02","66.66","NAN","NAN","NAN","NAN","NAN"],
    [1543859,"2026-03-06 22:50:00","44849","4.883","69.13","9.34","67.55","NAN","NAN","NAN","NAN","NAN"],
    [1543860,"2026-03-06 23:00:00","44850","5.601","74.49","9.15","67.6","NAN","NAN","NAN","NAN","NAN"],
    [1543861,"2026-03-06 23:10:00","44851","5.346","72.14","8.85","70.2","NAN","NAN","NAN","NAN","NAN"],
    [1543862,"2026-03-06 23:20:00","44852","5.433","68.28","8.49","68.39","NAN","NAN","NAN","NAN","NAN"],
    [1543863,"2026-03-06 23:30:00","44853","4.91","69.29","8.17","70.77","NAN","NAN","NAN","NAN","NAN"],
    [1543864,"2026-03-06 23:40:00","44854","5.7589999999999995","69.6","9.34","68.03","NAN","NAN","NAN","NAN","NAN"],
    [1543865,"2026-03-06 23:50:00","44855","4.656000000000001","85.7","8.36","66.88","NAN","NAN","NAN","NAN","NAN"],
    [1543866,"2026-03-07 00:00:00","44856","4.402","89.2","7.677","89.2","NAN","NAN","NAN","NAN","NAN"],
    [1543867,"2026-03-07 00:10:00","44857","4.065","91.6","7.807","84.4","NAN","NAN","NAN","NAN","NAN"],
    [1543868,"2026-03-07 00:20:00","44858","3.862","95.0","7.611","83.7","NAN","NAN","NAN","NAN","NAN"],
    [1543869,"2026-03-07 00:30:00","44859","4.29","93.7","7.938","82.7","NAN","NAN","NAN","NAN","NAN"],
    [1543870,"2026-03-07 00:40:00","44860","3.826","97.8","6.827","108.2","NAN","NAN","NAN","NAN","NAN"],
    [1543871,"2026-03-07 00:50:00","44861","4.123","97.7","6.37","100.8","NAN","NAN","NAN","NAN","NAN"],
    [1543872,"2026-03-07 01:00:00","44862","3.588","98.1","6.174","115","NAN","NAN","NAN","NAN","NAN"],
    [1543873,"2026-03-07 01:10:00","44863","4.067","98.1","6.599","95.9","NAN","NAN","NAN","NAN","NAN"],
    [1543874,"2026-03-07 01:20:00","44864","4.4430000000000005","98.8","7.056","90","NAN","NAN","NAN","NAN","NAN"],
    [1543875,"2026-03-07 01:30:00","44865","3.799","100.3","8.26","81.1","NAN","NAN","NAN","NAN","NAN"],
    [1543876,"2026-03-07 01:40:00","44866","3.514","102.1","5.945","106","NAN","NAN","NAN","NAN","NAN"],
    [1543877,"2026-03-07 01:50:00","44867","3.498","100.7","6.272","94.5","NAN","NAN","NAN","NAN","NAN"],
    [1543878,"2026-03-07 02:00:00","44868","3.83","96.5","6.468","90.7","NAN","NAN","NAN","NAN","NAN"],
    [1543879,"2026-03-07 02:10:00","44869","4.209","96.3","7.971","93.3","NAN","NAN","NAN","NAN","NAN"],
    [1543880,"2026-03-07 02:20:00","44870","3.8930000000000002","98.3","7.317","109.7","NAN","NAN","NAN","NAN","NAN"],
    [1543881,"2026-03-07 02:30:00","44871","3.758","98.6","6.435","102.3","NAN","NAN","NAN","NAN","NAN"],
    [1543882,"2026-03-07 02:40:00","44872","3.452","97.5","5.749","106.5","NAN","NAN","NAN","NAN","NAN"],
    [1543883,"2026-03-07 02:50:00","44873","3.295","89.9","5.292","88.6","NAN","NAN","NAN","NAN","NAN"],
    [1543884,"2026-03-07 03:00:00","44874","2.329","88.9","4.443","96","NAN","NAN","NAN","NAN","NAN"],
    [1543885,"2026-03-07 03:10:00","44875","3.054","91.1","5.619","86.9","NAN","NAN","NAN","NAN","NAN"],
    [1543886,"2026-03-07 03:20:00","44876","2.193","86.2","4.508","67.81","NAN","NAN","NAN","NAN","NAN"],
    [1543887,"2026-03-07 03:30:00","44877","2.883","85.1","5.684","66.05","NAN","NAN","NAN","NAN","NAN"],
    [1543888,"2026-03-07 03:40:00","44878","3.398","97.3","5.847","105.3","NAN","NAN","NAN","NAN","NAN"],
    [1543889,"2026-03-07 03:50:00","44879","2.8569999999999998","102.8","5.586","102.1","NAN","NAN","NAN","NAN","NAN"],
    [1543890,"2026-03-07 04:00:00","44880","3.32","97.8","5.488","91.7","NAN","NAN","NAN","NAN","NAN"],
    [1543891,"2026-03-07 04:10:00","44881","2.779","107.3","4.181","111.4","NAN","NAN","NAN","NAN","NAN"],
    [1543892,"2026-03-07 04:20:00","44882","3.535","122.6","6.076","121.4","NAN","NAN","NAN","NAN","NAN"],
    [1543893,"2026-03-07 04:30:00","44883","4.516","134.1","6.566","134.1","NAN","NAN","NAN","NAN","NAN"],
    [1543894,"2026-03-07 04:40:00","44884","3.8789999999999996","138.7","5.815","159.7","NAN","NAN","NAN","NAN","NAN"],
    [1543895,"2026-03-07 04:50:00","44885","3.8110000000000004","138.6","6.566","139.1","NAN","NAN","NAN","NAN","NAN"],
    [1543896,"2026-03-07 05:00:00","44886","4.073","136.7","5.978","137.9","NAN","NAN","NAN","NAN","NAN"],
    [1543897,"2026-03-07 05:10:00","44887","3.389","141.6","6.272","146.6","NAN","NAN","NAN","NAN","NAN"],
    [1543898,"2026-03-07 05:20:00","44888","2.68","147.4","5.651","167.5","NAN","NAN","NAN","NAN","NAN"],
    [1543899,"2026-03-07 05:30:00","44889","2.866","149.6","4.867","163.8","NAN","NAN","NAN","NAN","NAN"],
    [1543900,"2026-03-07 05:40:00","44890","2.117","140.4","3.103","138","NAN","NAN","NAN","NAN","NAN"],
    [1543901,"2026-03-07 05:50:00","44891","1.82","147.1","3.201","140.6","NAN","NAN","NAN","NAN","NAN"],
    [1543902,"2026-03-07 06:00:00","44892","1.8159999999999998","138.0","3.201","140.2","NAN","NAN","NAN","NAN","NAN"],
    [1543903,"2026-03-07 06:10:00","44893","1.2990000000000002","137.1","2.123","136.3","NAN","NAN","NAN","NAN","NAN"],
    [1543904,"2026-03-07 06:20:00","44894","0.64","135.9","1.699","134.9","NAN","NAN","NAN","NAN","NAN"],
    [1543905,"2026-03-07 06:30:00","44895","0.753","134.9","2.091","134.9","NAN","NAN","NAN","NAN","NAN"],
    [1543906,"2026-03-07 06:40:00","44896","0.455","134.9","1.111","134.9","NAN","NAN","NAN","NAN","NAN"],
    [1543907,"2026-03-07 06:50:00","44897","0.1","134.9","1.045","134.9","NAN","NAN","NAN","NAN","NAN"],
    [1543908,"2026-03-07 07:00:00","44898","0.379","134.9","1.078","134.9","NAN","NAN","NAN","NAN","NAN"],
    [1543909,"2026-03-07 07:10:00","44899","0.679","134.9","1.895","134.9","NAN","NAN","NAN","NAN","NAN"],
    [1543910,"2026-03-07 07:20:00","44900","0.8109999999999999","135.3","2.058","135.1","NAN","NAN","NAN","NAN","NAN"],
    [1543911,"2026-03-07 07:30:00","44901","1.2309999999999999","135.3","2.483","138.2","NAN","NAN","NAN","NAN","NAN"],
    [1543912,"2026-03-07 07:40:00","44902","1.004","133.7","2.025","133.9","NAN","NAN","NAN","NAN","NAN"],
    [1543913,"2026-03-07 07:50:00","44903","1.422","134.2","2.973","142.6","NAN","NAN","NAN","NAN","NAN"],
    [1543914,"2026-03-07 08:00:00","44904","0.903","133.6","2.744","133.1","NAN","NAN","NAN","NAN","NAN"],
    [1543915,"2026-03-07 08:10:00","44905","1.022","133.2","2.058","132.5","NAN","NAN","NAN","NAN","NAN"],
    [1543916,"2026-03-07 08:20:00","44906","0.883","132.4","2.058","132.5","NAN","NAN","NAN","NAN","NAN"],
    [1543917,"2026-03-07 08:30:00","44907","0.912","131.9","1.829","131.3","NAN","NAN","NAN","NAN","NAN"],
    [1543918,"2026-03-07 08:40:00","44908","1.423","129.7","2.842","128.5","NAN","NAN","NAN","NAN","NAN"],
    [1543919,"2026-03-07 08:50:00","44909","1.901","125.2","3.071","124.4","NAN","NAN","NAN","NAN","NAN"],
    [1543920,"2026-03-07 09:00:00","44910","2.086","120.6","3.267","121.8","NAN","NAN","NAN","NAN","NAN"],
    [1543921,"2026-03-07 09:10:00","44911","2.16","112.4","3.43","115.2","NAN","NAN","NAN","NAN","NAN"],
    [1543922,"2026-03-07 09:20:00","44912","2.056","112.8","3.495","121","NAN","NAN","NAN","NAN","NAN"],
    [1543923,"2026-03-07 09:30:00","44913","2.392","99.1","3.822","93.9","NAN","NAN","NAN","NAN","NAN"],
    [1543924,"2026-03-07 09:40:00","44914","2.44","94.2","4.083","94.6","NAN","NAN","NAN","NAN","NAN"],
    [1543925,"2026-03-07 09:50:00","44915","2.385","98.4","4.279","91.7","NAN","NAN","NAN","NAN","NAN"],
    [1543926,"2026-03-07 10:00:00","44916","1.9080000000000001","110.6","3.397","110.9","NAN","NAN","NAN","NAN","NAN"],
    [1543927,"2026-03-07 10:10:00","44917","1.936","114.5","3.136","122.4","NAN","NAN","NAN","NAN","NAN"],
    [1543928,"2026-03-07 10:20:00","44918","2.278","103.5","4.345","95.9","NAN","NAN","NAN","NAN","NAN"],
    [1543929,"2026-03-07 10:30:00","44919","2.742","108.0","4.377","126.9","NAN","NAN","NAN","NAN","NAN"],
    [1543930,"2026-03-07 10:40:00","44920","2.5989999999999998","118.7","4.018","116.3","NAN","NAN","NAN","NAN","NAN"],
    [1543931,"2026-03-07 10:50:00","44921","2.716","97.8","4.606","87.9","NAN","NAN","NAN","NAN","NAN"],
    [1543932,"2026-03-07 11:00:00","44922","2.437","96.2","3.953","89.4","NAN","NAN","NAN","NAN","NAN"],
    [1543933,"2026-03-07 11:10:00","44923","2.49","90.6","4.933","73.68","NAN","NAN","NAN","NAN","NAN"],
    [1543934,"2026-03-07 11:20:00","44924","2.523","92.0","4.475","81.3","NAN","NAN","NAN","NAN","NAN"],
    [1543935,"2026-03-07 11:30:00","44925","3.185","85.4","4.181","80.2","NAN","NAN","NAN","NAN","NAN"],
    [1543936,"2026-03-07 11:40:00","44926","2.5789999999999997","84.7","3.985","99","NAN","NAN","NAN","NAN","NAN"],
    [1543937,"2026-03-07 11:50:00","44927","2.763","89.0","4.475","82.9","NAN","NAN","NAN","NAN","NAN"],
    [1543938,"2026-03-07 12:00:00","44928","3.042","86.5","4.965","85.7","NAN","NAN","NAN","NAN","NAN"],
    [1543939,"2026-03-07 12:10:00","44929","3.1439999999999997","92.8","5.39","93","NAN","NAN","NAN","NAN","NAN"],
    [1543940,"2026-03-07 12:20:00","44930","2.977","83.4","4.867","84.9","NAN","NAN","NAN","NAN","NAN"],
    [1543941,"2026-03-07 12:30:00","44931","3.133","92.9","4.737","97.5","NAN","NAN","NAN","NAN","NAN"],
    [1543942,"2026-03-07 12:40:00","44932","3.3489999999999998","93.9","4.704","96.8","NAN","NAN","NAN","NAN","NAN"],
    [1543943,"2026-03-07 12:50:00","44933","3.1289999999999996","94.2","5.031","86.3","NAN","NAN","NAN","NAN","NAN"],
    [1543944,"2026-03-07 13:00:00","44934","2.8939999999999997","93.0","4.737","93.4","NAN","NAN","NAN","NAN","NAN"],
    [1543945,"2026-03-07 13:10:00","44935","3.1489999999999996","94.3","4.965","96.8","NAN","NAN","NAN","NAN","NAN"],
    [1543946,"2026-03-07 13:20:00","44936","3.715","95.6","5.194","99","NAN","NAN","NAN","NAN","NAN"],
    [1543947,"2026-03-07 13:30:00","44937","3.574","90.7","5.194","83.7","NAN","NAN","NAN","NAN","NAN"],
    [1543948,"2026-03-07 13:40:00","44938","3.4210000000000003","95.5","5.782","87.8","NAN","NAN","NAN","NAN","NAN"],
    [1543949,"2026-03-07 13:50:00","44939","3.387","100.2","6.141","94.2","NAN","NAN","NAN","NAN","NAN"],
    [1543950,"2026-03-07 14:00:00","44940","3.2060000000000004","113.3","5.161","125.5","NAN","NAN","NAN","NAN","NAN"],
    [1543951,"2026-03-07 14:10:00","44941","3.516","133.4","6.109","125","NAN","NAN","NAN","NAN","NAN"],
    [1543952,"2026-03-07 14:20:00","44942","3.747","138.0","5.913","129.3","NAN","NAN","NAN","NAN","NAN"],
    [1543953,"2026-03-07 14:30:00","44943","4.292","175.6","8.3","203.7","NAN","NAN","NAN","NAN","NAN"],
    [1543954,"2026-03-07 14:40:00","44944","4.9510000000000005","212.9","7.513","212.3","NAN","NAN","NAN","NAN","NAN"],
    [1543955,"2026-03-07 14:50:00","44945","4.335","215.9","7.285","217.8","NAN","NAN","NAN","NAN","NAN"],
    [1543956,"2026-03-07 15:00:00","44946","4.047","225.8","7.513","248","NAN","NAN","NAN","NAN","NAN"],
    [1543957,"2026-03-07 15:10:00","44947","3.861","231.3","7.089","217.5","NAN","NAN","NAN","NAN","NAN"],
    [1543958,"2026-03-07 15:20:00","44948","3.3489999999999998","246.4","5.978","239","NAN","NAN","NAN","NAN","NAN"],
    [1543959,"2026-03-07 15:30:00","44949","3.782","250.1","5.423","257","NAN","NAN","NAN","NAN","NAN"],
    [1543960,"2026-03-07 15:40:00","44950","1.935","235.0","4.639","252.8","NAN","NAN","NAN","NAN","NAN"],
    [1543961,"2026-03-07 15:50:00","44951","2.92","250.5","5.357","252.8","NAN","NAN","NAN","NAN","NAN"],
    [1543962,"2026-03-07 16:00:00","44952","3.182","252.4","4.9","254.9","NAN","NAN","NAN","NAN","NAN"],
    [1543963,"2026-03-07 16:10:00","44953","3.15","255.5","4.965","257.4","NAN","NAN","NAN","NAN","NAN"],
    [1543964,"2026-03-07 16:20:00","44954","2.6510000000000002","254.8","4.279","247.1","NAN","NAN","NAN","NAN","NAN"],
    [1543965,"2026-03-07 16:30:00","44955","2.472","252.6","3.822","255.1","NAN","NAN","NAN","NAN","NAN"],
    [1543966,"2026-03-07 16:40:00","44956","2.015","255.0","3.887","256.4","NAN","NAN","NAN","NAN","NAN"],
    [1543967,"2026-03-07 16:50:00","44957","2.254","254.3","3.691","254.6","NAN","NAN","NAN","NAN","NAN"],
    [1543968,"2026-03-07 17:00:00","44958","2.327","250.1","3.626","248","NAN","NAN","NAN","NAN","NAN"],
    [1543969,"2026-03-07 17:10:00","44959","1.445","262.7","2.842","260.1","NAN","NAN","NAN","NAN","NAN"],
    [1543970,"2026-03-07 17:20:00","44960","1.66","270.5","2.646","270.5","NAN","NAN","NAN","NAN","NAN"],
    [1543971,"2026-03-07 17:30:00","44961","1.115","275.3","2.189","276.1","NAN","NAN","NAN","NAN","NAN"],
    [1543972,"2026-03-07 17:40:00","44962","0.268","276.2","1.535","276.1","NAN","NAN","NAN","NAN","NAN"],
    [1543973,"2026-03-07 17:50:00","44963","0.414","276.3","1.47","276.2","NAN","NAN","NAN","NAN","NAN"],
    [1543974,"2026-03-07 18:00:00","44964","0.047","276.3","0.49","276.3","NAN","NAN","NAN","NAN","NAN"],
    [1543975,"2026-03-07 18:10:00","44965","0.193","276.3","0.719","276.3","NAN","NAN","NAN","NAN","NAN"],
    [1543976,"2026-03-07 18:20:00","44966","0.44299999999999995","276.1","1.241","276.2","NAN","NAN","NAN","NAN","NAN"],
    [1543977,"2026-03-07 18:30:00","44967","0.08199999999999999","275.9","0.686","275.8","NAN","NAN","NAN","NAN","NAN"],
    [1543978,"2026-03-07 18:40:00","44968","0.153","277.0","0.849","276.9","NAN","NAN","NAN","NAN","NAN"],
    [1543979,"2026-03-07 18:50:00","44969","0.32799999999999996","277.5","0.849","277.3","NAN","NAN","NAN","NAN","NAN"],
    [1543980,"2026-03-07 19:00:00","44970","0.0","0.0","0","0","NAN","NAN","NAN","NAN","NAN"],
    [1543981,"2026-03-07 19:10:00","44971","0.385","278.2","1.47","278.6","NAN","NAN","NAN","NAN","NAN"],
    [1543982,"2026-03-07 19:20:00","44972","0.285","278.8","1.241","278.8","NAN","NAN","NAN","NAN","NAN"],
    [1543983,"2026-03-07 19:30:00","44973","0.127","279.0","0.98","279.1","NAN","NAN","NAN","NAN","NAN"],
    [1543984,"2026-03-07 19:40:00","44974","0.76","281.3","1.503","279.3","NAN","NAN","NAN","NAN","NAN"],
    [1543985,"2026-03-07 19:50:00","44975","0.7040000000000001","284.4","1.601","283.9","NAN","NAN","NAN","NAN","NAN"],
    [1543986,"2026-03-07 20:00:00","44976","0.574","285.2","1.666","285.2","NAN","NAN","NAN","NAN","NAN"],
    [1543987,"2026-03-07 20:10:00","44977","0.713","284.6","1.503","282.9","NAN","NAN","NAN","NAN","NAN"],
    [1543988,"2026-03-07 20:20:00","44978","0.22899999999999998","280.8","1.143","281.7","NAN","NAN","NAN","NAN","NAN"],
    [1543989,"2026-03-07 20:30:00","44979","0.0","0.0","0","0","NAN","NAN","NAN","NAN","NAN"],
    [1543990,"2026-03-07 20:40:00","44980","0.095","290.6","1.013","299","NAN","NAN","NAN","NAN","NAN"],
    [1543991,"2026-03-07 20:50:00","44981","0.35700000000000004","344.2","2.352","354.3","NAN","NAN","NAN","NAN","NAN"],
    [1543992,"2026-03-07 21:00:00","44982","1.756","21.47","2.842","32.29","NAN","NAN","NAN","NAN","NAN"],
    [1543993,"2026-03-07 21:10:00","44983","1.7280000000000002","36.22","3.365","34.87","NAN","NAN","NAN","NAN","NAN"],
    [1543994,"2026-03-07 21:20:00","44984","1.929","38.53","3.691","39.76","NAN","NAN","NAN","NAN","NAN"],
    [1543995,"2026-03-07 21:30:00","44985","2.0180000000000002","38.38","4.116","48.53","NAN","NAN","NAN","NAN","NAN"],
    [1543996,"2026-03-07 21:40:00","44986","1.8530000000000002","39.05","3.267","33.66","NAN","NAN","NAN","NAN","NAN"],
    [1543997,"2026-03-07 21:50:00","44987","1.9709999999999999","37.73","3.887","40.73","NAN","NAN","NAN","NAN","NAN"],
    [1543998,"2026-03-07 22:00:00","44988","1.8030000000000002","40.94","3.038","40.89","NAN","NAN","NAN","NAN","NAN"],
    [1543999,"2026-03-07 22:10:00","44989","2.066","49.27","4.181","40.63","NAN","NAN","NAN","NAN","NAN"],
    [1544000,"2026-03-07 22:20:00","44990","1.579","53.81","3.267","59.59","NAN","NAN","NAN","NAN","NAN"],
    [1544001,"2026-03-07 22:30:00","44991","1.4709999999999999","42.84","3.267","44.45","NAN","NAN","NAN","NAN","NAN"],
    [1544002,"2026-03-07 22:40:00","44992","1.3159999999999998","38.64","2.319","39.03","NAN","NAN","NAN","NAN","NAN"],
    [1544003,"2026-03-07 22:50:00","44993","1.035","36.26","2.287","36.33","NAN","NAN","NAN","NAN","NAN"],
    [1544004,"2026-03-07 23:00:00","44994","0.7290000000000001","35.52","1.895","35.37","NAN","NAN","NAN","NAN","NAN"],
    [1544005,"2026-03-07 23:10:00","44995","0.136","35.31","1.143","35.37","NAN","NAN","NAN","NAN","NAN"],
    [1544006,"2026-03-07 23:20:00","44996","0.14400000000000002","33.72","0.621","34.01","NAN","NAN","NAN","NAN","NAN"],
    [1544007,"2026-03-07 23:30:00","44997","0.0","0.0","0","0","NAN","NAN","NAN","NAN","NAN"],
    [1544008,"2026-03-07 23:40:00","44998","0.0","0.0","0","0","NAN","NAN","NAN","NAN","NAN"],
    [1544009,"2026-03-07 23:50:00","44999","0.018000000000000002","32.59","0.294","32.6","NAN","NAN","NAN","NAN","NAN"],
    [1544010,"2026-03-08 00:00:00","45000","0.013999999999999999","31.94","0.392","31.91","NAN","NAN","NAN","NAN","NAN"],
    [1544011,"2026-03-08 00:10:00","45001","0.0","0.0","0","0","NAN","NAN","NAN","NAN","NAN"],
    [1544012,"2026-03-08 00:20:00","45002","0.0","0.0","0","0","NAN","NAN","NAN","NAN","NAN"],
    [1544013,"2026-03-08 00:30:00","45003","0.003","31.23","0.229","31.23","NAN","NAN","NAN","NAN","NAN"],
    [1544014,"2026-03-08 00:40:00","45004","0.0","0.0","0","0","NAN","NAN","NAN","NAN","NAN"],
    [1544015,"2026-03-08 00:50:00","45005","0.0","0.0","0","0","NAN","NAN","NAN","NAN","NAN"],
    [1544016,"2026-03-08 01:00:00","45006","0.001","31.04","0","0","NAN","NAN","NAN","NAN","NAN"],
    [1544017,"2026-03-08 01:10:00","45007","0.006999999999999999","30.98","0.359","30.94","NAN","NAN","NAN","NAN","NAN"],
    [1544018,"2026-03-08 01:20:00","45008","0.0","0.0","0","0","NAN","NAN","NAN","NAN","NAN"],
    [1544019,"2026-03-08 01:30:00","45009","0.0","0.0","0","0","NAN","NAN","NAN","NAN","NAN"],
    [1544020,"2026-03-08 01:40:00","45010","0.0","0.0","0","0","NAN","NAN","NAN","NAN","NAN"],
    [1544021,"2026-03-08 01:50:00","45011","0.0","0.0","0","0","NAN","NAN","NAN","NAN","NAN"],
    [1544022,"2026-03-08 02:00:00","45012","0.0","0.0","0","0","NAN","NAN","NAN","NAN","NAN"],
    [1544023,"2026-03-08 02:10:00","45013","0.0","0.0","0","0","NAN","NAN","NAN","NAN","NAN"],
    [1544024,"2026-03-08 02:20:00","45014","0.0","0.0","0","0","NAN","NAN","NAN","NAN","NAN"],
    [1544025,"2026-03-08 02:30:00","45015","0.032","30.66","0.653","30.66","NAN","NAN","NAN","NAN","NAN"],
    [1544026,"2026-03-08 02:40:00","45016","0.218","30.66","1.731","30.67","NAN","NAN","NAN","NAN","NAN"],
    [1544027,"2026-03-08 02:50:00","45017","0.42700000000000005","30.61","1.797","30.46","NAN","NAN","NAN","NAN","NAN"],
    [1544028,"2026-03-08 03:00:00","45018","0.976","30.22","2.123","30.37","NAN","NAN","NAN","NAN","NAN"],
    [1544029,"2026-03-08 03:10:00","45019","0.052000000000000005","30.18","0.49","30.18","NAN","NAN","NAN","NAN","NAN"],
    [1544030,"2026-03-08 03:20:00","45020","0.087","30.17","0.849","30.16","NAN","NAN","NAN","NAN","NAN"],
    [1544031,"2026-03-08 03:30:00","45021","0.20199999999999999","30.08","1.078","30.08","NAN","NAN","NAN","NAN","NAN"],
    [1544032,"2026-03-08 03:40:00","45022","0.0","30.08","0.033","30.08","NAN","NAN","NAN","NAN","NAN"],
    [1544033,"2026-03-08 03:50:00","45023","0.023","29.57","0.49","29.44","NAN","NAN","NAN","NAN","NAN"],
    [1544034,"2026-03-08 04:00:00","45024","0.03","29.19","0.588","29.21","NAN","NAN","NAN","NAN","NAN"],
    [1544035,"2026-03-08 04:10:00","45025","0.0","0.0","0","0","NAN","NAN","NAN","NAN","NAN"],
    [1544036,"2026-03-08 04:20:00","45026","0.0","0.0","0","0","NAN","NAN","NAN","NAN","NAN"],
    [1544037,"2026-03-08 04:30:00","45027","0.006999999999999999","29.12","0.261","29.12","NAN","NAN","NAN","NAN","NAN"],
    [1544038,"2026-03-08 04:40:00","45028","0.12","29.05","0.555","29.07","NAN","NAN","NAN","NAN","NAN"],
    [1544039,"2026-03-08 04:50:00","45029","0.0","0.0","0","0","NAN","NAN","NAN","NAN","NAN"],
    [1544040,"2026-03-08 05:00:00","45030","0.0","0.0","0","0","NAN","NAN","NAN","NAN","NAN"],
    [1544041,"2026-03-08 05:10:00","45031","0.0","0.0","0","0","NAN","NAN","NAN","NAN","NAN"],
    [1544042,"2026-03-08 05:20:00","45032","0.0","0.0","0","0","NAN","NAN","NAN","NAN","NAN"],
    [1544043,"2026-03-08 05:30:00","45033","0.0","0.0","0","0","NAN","NAN","NAN","NAN","NAN"],
    [1544044,"2026-03-08 05:40:00","45034","0.055999999999999994","28.98","1.078","28.97","NAN","NAN","NAN","NAN","NAN"],
    [1544045,"2026-03-08 05:50:00","45035","0.371","29.0","1.699","29","NAN","NAN","NAN","NAN","NAN"],
    [1544046,"2026-03-08 06:00:00","45036","0.498","29.41","1.372","33.06","NAN","NAN","NAN","NAN","NAN"],
    [1544047,"2026-03-08 06:10:00","45037","1.161","34.85","1.895","35.41","NAN","NAN","NAN","NAN","NAN"],
    [1544048,"2026-03-08 06:20:00","45038","1.255","32.46","2.352","32.02","NAN","NAN","NAN","NAN","NAN"],
    [1544049,"2026-03-08 06:30:00","45039","0.588","30.67","1.568","34.24","NAN","NAN","NAN","NAN","NAN"],
    [1544050,"2026-03-08 06:40:00","45040","0.207","29.66","1.111","29.81","NAN","NAN","NAN","NAN","NAN"],
    [1544051,"2026-03-08 06:50:00","45041","0.047","28.47","0.457","28.64","NAN","NAN","NAN","NAN","NAN"],
    [1544052,"2026-03-08 07:00:00","45042","0.013000000000000001","28.35","0.392","28.35","NAN","NAN","NAN","NAN","NAN"],
    [1544053,"2026-03-08 07:10:00","45043","0.0","0.0","0","0","NAN","NAN","NAN","NAN","NAN"],
    [1544054,"2026-03-08 07:20:00","45044","0.0","0.0","0","0","NAN","NAN","NAN","NAN","NAN"],
    [1544055,"2026-03-08 07:30:00","45045","0.0","0.0","0","0","NAN","NAN","NAN","NAN","NAN"],
    [1544056,"2026-03-08 07:40:00","45046","0.319","27.67","1.241","27.67","NAN","NAN","NAN","NAN","NAN"],
    [1544057,"2026-03-08 07:50:00","45047","0.308","27.67","1.209","27.67","NAN","NAN","NAN","NAN","NAN"],
    [1544058,"2026-03-08 08:00:00","45048","0.19399999999999998","27.53","0.947","27.58","NAN","NAN","NAN","NAN","NAN"],
    [1544059,"2026-03-08 08:10:00","45049","0.02","27.37","0.719","27.38","NAN","NAN","NAN","NAN","NAN"],
    [1544060,"2026-03-08 08:20:00","45050","0.0","0.0","0","0","NAN","NAN","NAN","NAN","NAN"],
    [1544061,"2026-03-08 08:30:00","45051","0.0","0.0","0","0","NAN","NAN","NAN","NAN","NAN"],
    [1544062,"2026-03-08 08:40:00","45052","0.318","27.29","1.601","27.29","NAN","NAN","NAN","NAN","NAN"],
    [1544063,"2026-03-08 08:50:00","45053","0.875","27.12","2.417","27","NAN","NAN","NAN","NAN","NAN"],
    [1544064,"2026-03-08 09:00:00","45054","1.5219999999999998","30.78","3.43","35.5","NAN","NAN","NAN","NAN","NAN"],
    [1544065,"2026-03-08 09:10:00","45055","2.093","33.34","3.397","33.61","NAN","NAN","NAN","NAN","NAN"],
    [1544066,"2026-03-08 09:20:00","45056","1.062","40.78","2.483","40.5","NAN","NAN","NAN","NAN","NAN"],
    [1544067,"2026-03-08 09:30:00","45057","0.629","49.58","3.071","49.45","NAN","NAN","NAN","NAN","NAN"],
    [1544068,"2026-03-08 09:40:00","45058","0.405","45.71","2.058","41.48","NAN","NAN","NAN","NAN","NAN"],
    [1544069,"2026-03-08 09:50:00","45059","0.948","46.33","2.319","37.84","NAN","NAN","NAN","NAN","NAN"],
    [1544070,"2026-03-08 10:00:00","45060","0.841","47.45","1.731","50.29","NAN","NAN","NAN","NAN","NAN"],
    [1544071,"2026-03-08 10:10:00","45061","0.977","44.91","2.352","52.31","NAN","NAN","NAN","NAN","NAN"],
    [1544072,"2026-03-08 10:20:00","45062","1.433","49.1","3.332","36.02","NAN","NAN","NAN","NAN","NAN"],
    [1544073,"2026-03-08 10:30:00","45063","2.8489999999999998","84.1","5.063","84.6","NAN","NAN","NAN","NAN","NAN"],
    [1544074,"2026-03-08 10:40:00","45064","3.04","88.0","5.063","88","NAN","NAN","NAN","NAN","NAN"],
    [1544075,"2026-03-08 10:50:00","45065","1.841","91.6","3.561","87.6","NAN","NAN","NAN","NAN","NAN"],
    [1544076,"2026-03-08 11:00:00","45066","1.837","84.7","3.985","60.13","NAN","NAN","NAN","NAN","NAN"],
    [1544077,"2026-03-08 11:10:00","45067","2.7030000000000003","84.4","4.377","68.09","NAN","NAN","NAN","NAN","NAN"],
    [1544078,"2026-03-08 11:20:00","45068","2.195","85.1","4.116","62.37","NAN","NAN","NAN","NAN","NAN"],
    [1544079,"2026-03-08 11:30:00","45069","2.9960000000000004","82.4","4.475","96.4","NAN","NAN","NAN","NAN","NAN"],
    [1544080,"2026-03-08 11:40:00","45070","2.472","87.2","4.116","95.9","NAN","NAN","NAN","NAN","NAN"],
    [1544081,"2026-03-08 11:50:00","45071","2.898","98.1","4.671","107","NAN","NAN","NAN","NAN","NAN"],
    [1544082,"2026-03-08 12:00:00","45072","2.863","101.4","4.279","100.9","NAN","NAN","NAN","NAN","NAN"],
    [1544083,"2026-03-08 12:10:00","45073","3.287","97.5","4.639","88.7","NAN","NAN","NAN","NAN","NAN"],
    [1544084,"2026-03-08 12:20:00","45074","3.036","90.1","5.325","68.24","NAN","NAN","NAN","NAN","NAN"],
    [1544085,"2026-03-08 12:30:00","45075","3.452","98.5","5.227","94.6","NAN","NAN","NAN","NAN","NAN"],
    [1544086,"2026-03-08 12:40:00","45076","3.469","89.7","5.978","93.7","NAN","NAN","NAN","NAN","NAN"],
    [1544087,"2026-03-08 12:50:00","45077","3.7569999999999997","89.4","5.684","86.4","NAN","NAN","NAN","NAN","NAN"],
    [1544088,"2026-03-08 13:00:00","45078","3.9330000000000003","92.6","5.847","90.9","NAN","NAN","NAN","NAN","NAN"],
    [1544089,"2026-03-08 13:10:00","45079","3.514","100.6","5.619","86.3","NAN","NAN","NAN","NAN","NAN"],
    [1544090,"2026-03-08 13:20:00","45080","3.9819999999999998","96.0","5.88","96.3","NAN","NAN","NAN","NAN","NAN"],
    [1544091,"2026-03-08 13:30:00","45081","3.595","85.0","5.978","85.4","NAN","NAN","NAN","NAN","NAN"],
    [1544092,"2026-03-08 13:40:00","45082","3.1910000000000003","89.8","5.096","109.8","NAN","NAN","NAN","NAN","NAN"],
    [1544093,"2026-03-08 13:50:00","45083","3.053","89.1","5.259","78.14","NAN","NAN","NAN","NAN","NAN"],
    [1544094,"2026-03-08 14:00:00","45084","3.221","80.3","4.965","98.3","NAN","NAN","NAN","NAN","NAN"],
    [1544095,"2026-03-08 14:10:00","45085","3.3339999999999996","82.7","5.325","90.8","NAN","NAN","NAN","NAN","NAN"],
    [1544096,"2026-03-08 14:20:00","45086","3.049","88.5","4.867","94.7","NAN","NAN","NAN","NAN","NAN"],
    [1544097,"2026-03-08 14:30:00","45087","2.574","86.3","4.704","102.9","NAN","NAN","NAN","NAN","NAN"],
    [1544098,"2026-03-08 14:40:00","45088","3.102","85.5","4.998","63.52","NAN","NAN","NAN","NAN","NAN"],
    [1544099,"2026-03-08 14:50:00","45089","3.003","89.0","4.671","82.1","NAN","NAN","NAN","NAN","NAN"],
    [1544100,"2026-03-08 15:00:00","45090","2.661","101.2","4.606","83.7","NAN","NAN","NAN","NAN","NAN"],
    [1544101,"2026-03-08 15:10:00","45091","2.8369999999999997","107.3","4.737","99","NAN","NAN","NAN","NAN","NAN"],
    [1544102,"2026-03-08 15:20:00","45092","2.32","97.7","3.887","85.9","NAN","NAN","NAN","NAN","NAN"],
    [1544103,"2026-03-08 15:30:00","45093","2.4090000000000003","118.7","3.789","113.4","NAN","NAN","NAN","NAN","NAN"],
    [1544104,"2026-03-08 15:40:00","45094","2.5669999999999997","120.1","3.495","139.7","NAN","NAN","NAN","NAN","NAN"],
    [1544105,"2026-03-08 15:50:00","45095","2.693","111.3","4.018","114.5","NAN","NAN","NAN","NAN","NAN"],
    [1544106,"2026-03-08 16:00:00","45096","2.081","117.0","3.267","115.1","NAN","NAN","NAN","NAN","NAN"],
    [1544107,"2026-03-08 16:10:00","45097","2.168","121.7","3.267","127.6","NAN","NAN","NAN","NAN","NAN"],
    [1544108,"2026-03-08 16:20:00","45098","2.355","125.9","3.691","108","NAN","NAN","NAN","NAN","NAN"],
    [1544109,"2026-03-08 16:30:00","45099","2.155","114.0","3.789","111.5","NAN","NAN","NAN","NAN","NAN"],
    [1544110,"2026-03-08 16:40:00","45100","2.173","118.0","3.397","108.7","NAN","NAN","NAN","NAN","NAN"],
    [1544111,"2026-03-08 16:50:00","45101","1.7819999999999998","121.3","2.842","109.9","NAN","NAN","NAN","NAN","NAN"],
    [1544112,"2026-03-08 17:00:00","45102","2.4090000000000003","114.3","3.561","115","NAN","NAN","NAN","NAN","NAN"],
    [1544113,"2026-03-08 17:10:00","45103","2.18","124.2","3.561","130.3","NAN","NAN","NAN","NAN","NAN"],
    [1544114,"2026-03-08 17:20:00","45104","2.2769999999999997","132.3","3.626","136.3","NAN","NAN","NAN","NAN","NAN"],
    [1544115,"2026-03-08 17:30:00","45105","2.1180000000000003","135.4","3.397","137.9","NAN","NAN","NAN","NAN","NAN"],
    [1544116,"2026-03-08 17:40:00","45106","2.468","136.0","3.43","132.1","NAN","NAN","NAN","NAN","NAN"],
    [1544117,"2026-03-08 17:50:00","45107","1.805","144.5","3.267","146.2","NAN","NAN","NAN","NAN","NAN"],
    [1544118,"2026-03-08 18:00:00","45108","1.767","142.8","2.809","140.9","NAN","NAN","NAN","NAN","NAN"],
    [1544119,"2026-03-08 18:10:00","45109","2.119","134.7","3.071","133","NAN","NAN","NAN","NAN","NAN"],
    [1544120,"2026-03-08 18:20:00","45110","1.909","142.1","3.561","147.7","NAN","NAN","NAN","NAN","NAN"],
    [1544121,"2026-03-08 18:30:00","45111","1.81","145.8","2.711","145.9","NAN","NAN","NAN","NAN","NAN"],
    [1544122,"2026-03-08 18:40:00","45112","1.7719999999999998","138.9","2.679","137.5","NAN","NAN","NAN","NAN","NAN"],
    [1544123,"2026-03-08 18:50:00","45113","2.06","138.2","3.005","135.3","NAN","NAN","NAN","NAN","NAN"],
    [1544124,"2026-03-08 19:00:00","45114","1.4609999999999999","134.3","2.483","140.6","NAN","NAN","NAN","NAN","NAN"],
    [1544125,"2026-03-08 19:10:00","45115","1.094","131.6","1.96","132.4","NAN","NAN","NAN","NAN","NAN"],
    [1544126,"2026-03-08 19:20:00","45116","1.11","133.2","1.731","132.3","NAN","NAN","NAN","NAN","NAN"],
    [1544127,"2026-03-08 19:30:00","45117","1.2409999999999999","138.2","1.993","132.2","NAN","NAN","NAN","NAN","NAN"],
    [1544128,"2026-03-08 19:40:00","45118","1.048","143.4","1.601","143.7","NAN","NAN","NAN","NAN","NAN"],
    [1544129,"2026-03-08 19:50:00","45119","0.5589999999999999","144.7","1.535","144.8","NAN","NAN","NAN","NAN","NAN"],
    [1544130,"2026-03-08 20:00:00","45120","0.36700000000000005","144.7","1.274","144.5","NAN","NAN","NAN","NAN","NAN"],
    [1544131,"2026-03-08 20:10:00","45121","0.382","144.8","1.47","144.8","NAN","NAN","NAN","NAN","NAN"],
    [1544132,"2026-03-08 20:20:00","45122","0.23199999999999998","144.7","0.915","144.7","NAN","NAN","NAN","NAN","NAN"],
    [1544133,"2026-03-08 20:30:00","45123","0.035","144.8","0.653","144.8","NAN","NAN","NAN","NAN","NAN"],
    [1544134,"2026-03-08 20:40:00","45124","0.0","0.0","0","0","NAN","NAN","NAN","NAN","NAN"],
    [1544135,"2026-03-08 20:50:00","45125","0.0","0.0","0","0","NAN","NAN","NAN","NAN","NAN"],
    [1544136,"2026-03-08 21:00:00","45126","0.0","0.0","0","0","NAN","NAN","NAN","NAN","NAN"],
    [1544137,"2026-03-08 21:10:00","45127","0.0","0.0","0","0","NAN","NAN","NAN","NAN","NAN"],
    [1544138,"2026-03-08 21:20:00","45128","0.08199999999999999","142.6","0.49","142.6","NAN","NAN","NAN","NAN","NAN"],
    [1544139,"2026-03-08 21:30:00","45129","0.0","0.0","0","0","NAN","NAN","NAN","NAN","NAN"],
    [1544140,"2026-03-08 21:40:00","45130","0.0","0.0","0","0","NAN","NAN","NAN","NAN","NAN"],
    [1544141,"2026-03-08 21:50:00","45131","0.0","0.0","0","0","NAN","NAN","NAN","NAN","NAN"],
    [1544142,"2026-03-08 22:00:00","45132","0.201","147.0","0.653","147.9","NAN","NAN","NAN","NAN","NAN"],
    [1544143,"2026-03-08 22:10:00","45133","0.585","149.0","1.176","150","NAN","NAN","NAN","NAN","NAN"],
    [1544144,"2026-03-08 22:20:00","45134","0.72","150.7","1.47","151.2","NAN","NAN","NAN","NAN","NAN"],
    [1544145,"2026-03-08 22:30:00","45135","0.428","151.8","1.339","151.6","NAN","NAN","NAN","NAN","NAN"],
    [1544146,"2026-03-08 22:40:00","45136","0.183","152.0","1.078","152","NAN","NAN","NAN","NAN","NAN"],
    [1544147,"2026-03-08 22:50:00","45137","0.099","152.0","0.719","152","NAN","NAN","NAN","NAN","NAN"],
    [1544148,"2026-03-08 23:00:00","45138","0.009000000000000001","152.0","0.229","152","NAN","NAN","NAN","NAN","NAN"],
    [1544149,"2026-03-08 23:10:00","45139","0.336","152.0","1.045","152","NAN","NAN","NAN","NAN","NAN"],
    [1544150,"2026-03-08 23:20:00","45140","0.433","152.1","0.98","152.1","NAN","NAN","NAN","NAN","NAN"],
    [1544151,"2026-03-08 23:30:00","45141","0.769","153.0","1.241","152.5","NAN","NAN","NAN","NAN","NAN"],
    [1544152,"2026-03-08 23:40:00","45142","0.215","153.8","0.588","153.8","NAN","NAN","NAN","NAN","NAN"],
    [1544153,"2026-03-08 23:50:00","45143","0.109","153.9","0.653","153.9","NAN","NAN","NAN","NAN","NAN"],
    [1544154,"2026-03-09 00:00:00","45144","0.0","0.0","0","0","NAN","NAN","NAN","NAN","NAN"],
    [1544155,"2026-03-09 00:10:00","45145","0.0","0.0","0","0","NAN","NAN","NAN","NAN","NAN"],
    [1544156,"2026-03-09 00:20:00","45146","0.036000000000000004","154.0","0.327","153.9","NAN","NAN","NAN","NAN","NAN"],
    [1544157,"2026-03-09 00:30:00","45147","0.322","154.0","0.947","154.1","NAN","NAN","NAN","NAN","NAN"],
    [1544158,"2026-03-09 00:40:00","45148","0.8440000000000001","154.6","1.666","154.6","NAN","NAN","NAN","NAN","NAN"],
    [1544159,"2026-03-09 00:50:00","45149","0.79","155.1","1.372","155.5","NAN","NAN","NAN","NAN","NAN"],
    [1544160,"2026-03-09 01:00:00","45150","0.486","155.7","1.078","155.8","NAN","NAN","NAN","NAN","NAN"],
    [1544161,"2026-03-09 01:10:00","45151","0.11","155.8","0.849","155.8","NAN","NAN","NAN","NAN","NAN"],
    [1544162,"2026-03-09 01:20:00","45152","0.44799999999999995","160.7","1.503","158.4","NAN","NAN","NAN","NAN","NAN"],
    [1544163,"2026-03-09 01:30:00","45153","0.040999999999999995","186.9","0.523","186.5","NAN","NAN","NAN","NAN","NAN"],
    [1544164,"2026-03-09 01:40:00","45154","0.044000000000000004","191.7","0.555","189.5","NAN","NAN","NAN","NAN","NAN"],
    [1544165,"2026-03-09 01:50:00","45155","0.011000000000000001","194.0","0.457","193.8","NAN","NAN","NAN","NAN","NAN"],
    [1544166,"2026-03-09 02:00:00","45156","0.0","0.0","0","0","NAN","NAN","NAN","NAN","NAN"],
    [1544167,"2026-03-09 02:10:00","45157","0.0","0.0","0","0","NAN","NAN","NAN","NAN","NAN"],
    [1544168,"2026-03-09 02:20:00","45158","0.0","0.0","0","0","NAN","NAN","NAN","NAN","NAN"],
    [1544169,"2026-03-09 02:30:00","45159","0.001","196.2","0.098","196.2","NAN","NAN","NAN","NAN","NAN"],
    [1544170,"2026-03-09 02:40:00","45160","0.005","196.8","0.327","196.8","NAN","NAN","NAN","NAN","NAN"],
    [1544171,"2026-03-09 02:50:00","45161","0.11800000000000001","214.7","0.915","217.1","NAN","NAN","NAN","NAN","NAN"],
    [1544172,"2026-03-09 03:00:00","45162","0.451","231.3","1.339","236.2","NAN","NAN","NAN","NAN","NAN"],
    [1544173,"2026-03-09 03:10:00","45163","1.276","248.3","2.907","272.2","NAN","NAN","NAN","NAN","NAN"],
    [1544174,"2026-03-09 03:20:00","45164","2.3","282.9","3.528","287.5","NAN","NAN","NAN","NAN","NAN"],
    [1544175,"2026-03-09 03:30:00","45165","2.298","281.0","3.659","273.5","NAN","NAN","NAN","NAN","NAN"],
    [1544176,"2026-03-09 03:40:00","45166","2.456","285.5","3.92","287.8","NAN","NAN","NAN","NAN","NAN"],
    [1544177,"2026-03-09 03:50:00","45167","1.993","286.4","3.463","276.9","NAN","NAN","NAN","NAN","NAN"],
    [1544178,"2026-03-09 04:00:00","45168","1.879","283.6","3.495","278","NAN","NAN","NAN","NAN","NAN"],
    [1544179,"2026-03-09 04:10:00","45169","1.716","287.5","3.332","286.4","NAN","NAN","NAN","NAN","NAN"],
    [1544180,"2026-03-09 04:20:00","45170","1.054","287.4","2.254","285.5","NAN","NAN","NAN","NAN","NAN"],
    [1544181,"2026-03-09 04:30:00","45171","0.8390000000000001","291.7","2.287","293.5","NAN","NAN","NAN","NAN","NAN"],
    [1544182,"2026-03-09 04:40:00","45172","0.674","291.8","2.581","289.8","NAN","NAN","NAN","NAN","NAN"],
    [1544183,"2026-03-09 04:50:00","45173","0.344","290.1","1.372","287.7","NAN","NAN","NAN","NAN","NAN"],
    [1544184,"2026-03-09 05:00:00","45174","0.73","298.4","1.535","298.4","NAN","NAN","NAN","NAN","NAN"],
    [1544185,"2026-03-09 05:10:00","45175","0.609","298.4","1.274","298.6","NAN","NAN","NAN","NAN","NAN"],
    [1544186,"2026-03-09 05:20:00","45176","1.075","295.2","1.666","294.7","NAN","NAN","NAN","NAN","NAN"],
    [1544187,"2026-03-09 05:30:00","45177","1.0070000000000001","288.9","1.829","288.7","NAN","NAN","NAN","NAN","NAN"],
    [1544188,"2026-03-09 05:40:00","45178","0.9990000000000001","287.2","2.515","285.5","NAN","NAN","NAN","NAN","NAN"],
    [1544189,"2026-03-09 05:50:00","45179","1.266","286.2","2.515","288.7","NAN","NAN","NAN","NAN","NAN"],
    [1544190,"2026-03-09 06:00:00","45180","1.7080000000000002","287.2","2.907","283.1","NAN","NAN","NAN","NAN","NAN"],
    [1544191,"2026-03-09 06:10:00","45181","1.4","285.9","2.711","286.2","NAN","NAN","NAN","NAN","NAN"],
    [1544192,"2026-03-09 06:20:00","45182","1.044","280.9","2.025","282","NAN","NAN","NAN","NAN","NAN"],
    [1544193,"2026-03-09 06:30:00","45183","1.133","281.6","2.156","277.5","NAN","NAN","NAN","NAN","NAN"],
    [1544194,"2026-03-09 06:40:00","45184","1.9880000000000002","276.9","3.005","276.5","NAN","NAN","NAN","NAN","NAN"],
    [1544195,"2026-03-09 06:50:00","45185","2.1319999999999997","283.0","3.92","279.2","NAN","NAN","NAN","NAN","NAN"],
    [1544196,"2026-03-09 07:00:00","45186","1.992","287.0","3.822","284","NAN","NAN","NAN","NAN","NAN"],
    [1544197,"2026-03-09 07:10:00","45187","1.1059999999999999","290.7","2.809","297.2","NAN","NAN","NAN","NAN","NAN"],
    [1544198,"2026-03-09 07:20:00","45188","1.526","286.8","3.136","282.7","NAN","NAN","NAN","NAN","NAN"],
    [1544199,"2026-03-09 07:30:00","45189","1.157","285.4","2.613","288.9","NAN","NAN","NAN","NAN","NAN"],
    [1544200,"2026-03-09 07:40:00","45190","1.788","291.1","2.777","288.7","NAN","NAN","NAN","NAN","NAN"],
    [1544201,"2026-03-09 07:50:00","45191","1.305","281.7","2.646","297.2","NAN","NAN","NAN","NAN","NAN"],
    [1544202,"2026-03-09 08:00:00","45192","1.77","286.0","3.593","294","NAN","NAN","NAN","NAN","NAN"],
    [1544203,"2026-03-09 08:10:00","45193","2.057","289.1","3.659","288.1","NAN","NAN","NAN","NAN","NAN"],
    [1544204,"2026-03-09 08:20:00","45194","1.5719999999999998","292.6","3.103","293.8","NAN","NAN","NAN","NAN","NAN"],
    [1544205,"2026-03-09 08:30:00","45195","1.26","287.2","2.189","294.3","NAN","NAN","NAN","NAN","NAN"],
    [1544206,"2026-03-09 08:40:00","45196","0.915","282.7","2.156","277.7","NAN","NAN","NAN","NAN","NAN"],
    [1544207,"2026-03-09 08:50:00","45197","0.065","279.7","0.817","279.7","NAN","NAN","NAN","NAN","NAN"],
    [1544208,"2026-03-09 09:00:00","45198","0.001","279.2","0.163","279.1","NAN","NAN","NAN","NAN","NAN"],
    [1544209,"2026-03-09 09:10:00","45199","0.8809999999999999","277.9","1.601","274.3","NAN","NAN","NAN","NAN","NAN"],
    [1544210,"2026-03-09 09:20:00","45200","0.659","272.2","1.699","272","NAN","NAN","NAN","NAN","NAN"],
    [1544211,"2026-03-09 09:30:00","45201","0.738","271.1","1.339","270.9","NAN","NAN","NAN","NAN","NAN"],
    [1544212,"2026-03-09 09:40:00","45202","0.306","270.5","1.209","270.6","NAN","NAN","NAN","NAN","NAN"],
    [1544213,"2026-03-09 09:50:00","45203","0.215","269.9","0.849","269.7","NAN","NAN","NAN","NAN","NAN"],
    [1544214,"2026-03-09 10:00:00","45204","0.612","269.4","1.209","269.3","NAN","NAN","NAN","NAN","NAN"],
    [1544215,"2026-03-09 10:10:00","45205","0.16","255.2","0.849","256.3","NAN","NAN","NAN","NAN","NAN"],
    [1544216,"2026-03-09 10:20:00","45206","0.772","203.5","2.123","253.7","NAN","NAN","NAN","NAN","NAN"],
    [1544217,"2026-03-09 10:30:00","45207","1.012","164.2","3.299","167.4","NAN","NAN","NAN","NAN","NAN"],
    [1544218,"2026-03-09 10:40:00","45208","2.738","144.8","4.606","152","NAN","NAN","NAN","NAN","NAN"],
    [1544219,"2026-03-09 10:50:00","45209","2.628","146.3","4.508","134.7","NAN","NAN","NAN","NAN","NAN"],
    [1544220,"2026-03-09 11:00:00","45210","2.181","177.9","4.116","182","NAN","NAN","NAN","NAN","NAN"],
    [1544221,"2026-03-09 11:10:00","45211","1.797","189.7","3.234","200.1","NAN","NAN","NAN","NAN","NAN"],
    [1544222,"2026-03-09 11:20:00","45212","2.447","198.9","3.953","215.3","NAN","NAN","NAN","NAN","NAN"],
    [1544223,"2026-03-09 11:30:00","45213","2.701","199.6","4.802","219.4","NAN","NAN","NAN","NAN","NAN"],
    [1544224,"2026-03-09 11:40:00","45214","2.316","189.5","4.704","210","NAN","NAN","NAN","NAN","NAN"],
    [1544225,"2026-03-09 11:50:00","45215","2.318","200.0","4.475","211.5","NAN","NAN","NAN","NAN","NAN"],
    [1544226,"2026-03-09 12:00:00","45216","2.847","182.5","5.096","170.9","NAN","NAN","NAN","NAN","NAN"],
    [1544227,"2026-03-09 12:10:00","45217","2.7680000000000002","184.3","4.671","166.5","NAN","NAN","NAN","NAN","NAN"],
    [1544228,"2026-03-09 12:20:00","45218","2.332","193.5","4.606","207.3","NAN","NAN","NAN","NAN","NAN"],
    [1544229,"2026-03-09 12:30:00","45219","3.2119999999999997","185.7","5.782","168.7","NAN","NAN","NAN","NAN","NAN"],
    [1544230,"2026-03-09 12:40:00","45220","3.115","201.2","5.292","214.4","NAN","NAN","NAN","NAN","NAN"],
    [1544231,"2026-03-09 12:50:00","45221","3.5669999999999997","188.1","5.586","213.5","NAN","NAN","NAN","NAN","NAN"],
    [1544232,"2026-03-09 13:00:00","45222","3.0980000000000003","183.5","5.521","218.3","NAN","NAN","NAN","NAN","NAN"],
    [1544233,"2026-03-09 13:10:00","45223","3.85","212.1","6.762","210.3","NAN","NAN","NAN","NAN","NAN"],
    [1544234,"2026-03-09 13:20:00","45224","3.327","186.4","6.827","168","NAN","NAN","NAN","NAN","NAN"],
    [1544235,"2026-03-09 13:30:00","45225","3.312","185.1","5.129","184.9","NAN","NAN","NAN","NAN","NAN"],
    [1544236,"2026-03-09 13:40:00","45226","3.0810000000000004","203.2","6.109","167.4","NAN","NAN","NAN","NAN","NAN"],
    [1544237,"2026-03-09 13:50:00","45227","3.2260000000000004","193.1","5.423","170","NAN","NAN","NAN","NAN","NAN"],
    [1544238,"2026-03-09 14:00:00","45228","3.502","183.9","6.109","168.8","NAN","NAN","NAN","NAN","NAN"],
    [1544239,"2026-03-09 14:10:00","45229","3.4","177.2","5.684","183.1","NAN","NAN","NAN","NAN","NAN"],
    [1544240,"2026-03-09 14:20:00","45230","2.799","191.8","4.965","171.3","NAN","NAN","NAN","NAN","NAN"],
    [1544241,"2026-03-09 14:30:00","45231","2.627","210.7","4.377","219.4","NAN","NAN","NAN","NAN","NAN"],
    [1544242,"2026-03-09 14:40:00","45232","2.476","211.7","4.737","164.3","NAN","NAN","NAN","NAN","NAN"],
    [1544243,"2026-03-09 14:50:00","45233","2.414","210.2","4.835","215.3","NAN","NAN","NAN","NAN","NAN"],
    [1544244,"2026-03-09 15:00:00","45234","2.99","202.2","5.259","214.6","NAN","NAN","NAN","NAN","NAN"],
    [1544245,"2026-03-09 15:10:00","45235","2.9539999999999997","215.8","5.325","220.1","NAN","NAN","NAN","NAN","NAN"],
    [1544246,"2026-03-09 15:20:00","45236","3.005","194.7","5.096","221.8","NAN","NAN","NAN","NAN","NAN"],
    [1544247,"2026-03-09 15:30:00","45237","3.415","208.0","5.39","222.8","NAN","NAN","NAN","NAN","NAN"],
    [1544248,"2026-03-09 15:40:00","45238","3.0980000000000003","214.4","5.161","207.2","NAN","NAN","NAN","NAN","NAN"],
    [1544249,"2026-03-09 15:50:00","45239","3.138","208.7","5.194","221","NAN","NAN","NAN","NAN","NAN"],
    [1544250,"2026-03-09 16:00:00","45240","3.82","216.9","6.011","207","NAN","NAN","NAN","NAN","NAN"],
    [1544251,"2026-03-09 16:10:00","45241","3.6710000000000003","218.2","5.815","208.1","NAN","NAN","NAN","NAN","NAN"],
    [1544252,"2026-03-09 16:20:00","45242","3.758","219.7","6.305","243.4","NAN","NAN","NAN","NAN","NAN"],
    [1544253,"2026-03-09 16:30:00","45243","3.4989999999999997","223.2","5.88","223.7","NAN","NAN","NAN","NAN","NAN"],
    [1544254,"2026-03-09 16:40:00","45244","2.98","218.4","5.749","213.7","NAN","NAN","NAN","NAN","NAN"],
    [1544255,"2026-03-09 16:50:00","45245","2.577","222.8","4.345","240.6","NAN","NAN","NAN","NAN","NAN"],
    [1544256,"2026-03-09 17:00:00","45246","2.59","209.7","4.279","218.7","NAN","NAN","NAN","NAN","NAN"],
    [1544257,"2026-03-09 17:10:00","45247","2.693","212.3","4.345","210.6","NAN","NAN","NAN","NAN","NAN"],
    [1544258,"2026-03-09 17:20:00","45248","2.423","212.1","4.639","221.6","NAN","NAN","NAN","NAN","NAN"],
    [1544259,"2026-03-09 17:30:00","45249","2.7569999999999997","207.7","4.247","203","NAN","NAN","NAN","NAN","NAN"],
    [1544260,"2026-03-09 17:40:00","45250","1.865","208.2","3.561","206.3","NAN","NAN","NAN","NAN","NAN"],
    [1544261,"2026-03-09 17:50:00","45251","2.048","205.2","3.201","204.8","NAN","NAN","NAN","NAN","NAN"],
    [1544262,"2026-03-09 18:00:00","45252","2.234","204.8","3.234","207.4","NAN","NAN","NAN","NAN","NAN"],
    [1544263,"2026-03-09 18:10:00","45253","1.926","206.0","2.809","207.8","NAN","NAN","NAN","NAN","NAN"],
    [1544264,"2026-03-09 18:20:00","45254","1.653","207.7","3.005","205.4","NAN","NAN","NAN","NAN","NAN"],
    [1544265,"2026-03-09 18:30:00","45255","1.511","213.4","2.842","211.3","NAN","NAN","NAN","NAN","NAN"],
    [1544266,"2026-03-09 18:40:00","45256","1.431","215.7","2.744","214.2","NAN","NAN","NAN","NAN","NAN"],
    [1544267,"2026-03-09 18:50:00","45257","0.945","219.5","2.254","220.4","NAN","NAN","NAN","NAN","NAN"],
    [1544268,"2026-03-09 19:00:00","45258","0.7190000000000001","222.6","2.123","222.8","NAN","NAN","NAN","NAN","NAN"],
    [1544269,"2026-03-09 19:10:00","45259","0.294","223.3","1.241","223.2","NAN","NAN","NAN","NAN","NAN"],
    [1544270,"2026-03-09 19:20:00","45260","0.11","223.4","0.523","223.3","NAN","NAN","NAN","NAN","NAN"],
    [1544271,"2026-03-09 19:30:00","45261","0.46299999999999997","223.5","1.437","223.5","NAN","NAN","NAN","NAN","NAN"],
    [1544272,"2026-03-09 19:40:00","45262","0.555","223.5","1.895","223.6","NAN","NAN","NAN","NAN","NAN"],
    [1544273,"2026-03-09 19:50:00","45263","0.6509999999999999","223.2","1.862","223.9","NAN","NAN","NAN","NAN","NAN"],
    [1544274,"2026-03-09 20:00:00","45264","0.769","224.0","1.568","223.9","NAN","NAN","NAN","NAN","NAN"],
    [1544275,"2026-03-09 20:10:00","45265","0.237","224.2","1.274","224.2","NAN","NAN","NAN","NAN","NAN"],
    [1544276,"2026-03-09 20:20:00","45266","0.0","0.0","0","0","NAN","NAN","NAN","NAN","NAN"],
    [1544277,"2026-03-09 20:30:00","45267","0.247","224.3","1.045","224.3","NAN","NAN","NAN","NAN","NAN"],
    [1544278,"2026-03-09 20:40:00","45268","0.621","224.4","1.078","224.4","NAN","NAN","NAN","NAN","NAN"],
    [1544279,"2026-03-09 20:50:00","45269","0.424","224.6","1.143","224.8","NAN","NAN","NAN","NAN","NAN"],
    [1544280,"2026-03-09 21:00:00","45270","0.6890000000000001","225.0","1.241","224.9","NAN","NAN","NAN","NAN","NAN"],
    [1544281,"2026-03-09 21:10:00","45271","0.191","225.1","0.98","225","NAN","NAN","NAN","NAN","NAN"],
    [1544282,"2026-03-09 21:20:00","45272","0.08","225.3","0.555","225.4","NAN","NAN","NAN","NAN","NAN"],
    [1544283,"2026-03-09 21:30:00","45273","0.0","0.0","0","0","NAN","NAN","NAN","NAN","NAN"],
    [1544284,"2026-03-09 21:40:00","45274","0.0","0.0","0","0","NAN","NAN","NAN","NAN","NAN"],
    [1544285,"2026-03-09 21:50:00","45275","0.0","0.0","0","0","NAN","NAN","NAN","NAN","NAN"],
    [1544286,"2026-03-09 22:00:00","45276","0.0","0.0","0","0","NAN","NAN","NAN","NAN","NAN"],
    [1544287,"2026-03-09 22:10:00","45277","0.013000000000000001","225.8","0.327","225.9","NAN","NAN","NAN","NAN","NAN"],
    [1544288,"2026-03-09 22:20:00","45278","0.0","0.0","0","0","NAN","NAN","NAN","NAN","NAN"],
    [1544289,"2026-03-09 22:30:00","45279","0.0","0.0","0","0","NAN","NAN","NAN","NAN","NAN"],
    [1544290,"2026-03-09 22:40:00","45280","0.037000000000000005","226.1","0.523","226","NAN","NAN","NAN","NAN","NAN"],
    [1544291,"2026-03-09 22:50:00","45281","0.405","226.3","1.045","226.3","NAN","NAN","NAN","NAN","NAN"],
    [1544292,"2026-03-09 23:00:00","45282","0.078","226.4","0.719","226.4","NAN","NAN","NAN","NAN","NAN"],
    [1544293,"2026-03-09 23:10:00","45283","0.024","226.3","0.359","226.3","NAN","NAN","NAN","NAN","NAN"],
    [1544294,"2026-03-09 23:20:00","45284","0.585","226.4","1.176","226.4","NAN","NAN","NAN","NAN","NAN"],
    [1544295,"2026-03-09 23:30:00","45285","0.45","226.4","1.143","226.5","NAN","NAN","NAN","NAN","NAN"],
    [1544296,"2026-03-09 23:40:00","45286","0.677","226.6","1.405","226.6","NAN","NAN","NAN","NAN","NAN"],
    [1544297,"2026-03-09 23:50:00","45287","0.7140000000000001","227.5","1.503","226.8","NAN","NAN","NAN","NAN","NAN"],
    [1544298,"2026-03-10 00:00:00","45288","0.486","229.2","1.47","230","NAN","NAN","NAN","NAN","NAN"],
    [1544299,"2026-03-10 00:10:00","45289","1.599","267.5","3.299","269.6","NAN","NAN","NAN","NAN","NAN"],
    [1544300,"2026-03-10 00:20:00","45290","0.684","279.8","1.47","279.9","NAN","NAN","NAN","NAN","NAN"],
    [1544301,"2026-03-10 00:30:00","45291","0.7340000000000001","279.6","1.503","279.8","NAN","NAN","NAN","NAN","NAN"],
    [1544302,"2026-03-10 00:40:00","45292","1.196","278.2","1.993","277.6","NAN","NAN","NAN","NAN","NAN"],
    [1544303,"2026-03-10 00:50:00","45293","0.9059999999999999","278.0","1.797","277.9","NAN","NAN","NAN","NAN","NAN"],
    [1544304,"2026-03-10 01:00:00","45294","1.008","280.0","1.797","280","NAN","NAN","NAN","NAN","NAN"],
    [1544305,"2026-03-10 01:10:00","45295","0.8540000000000001","280.2","1.731","280.1","NAN","NAN","NAN","NAN","NAN"],
    [1544306,"2026-03-10 01:20:00","45296","0.431","280.3","1.666","280.3","NAN","NAN","NAN","NAN","NAN"],
    [1544307,"2026-03-10 01:30:00","45297","0.662","279.9","1.764","280.1","NAN","NAN","NAN","NAN","NAN"],
    [1544308,"2026-03-10 01:40:00","45298","0.92","279.9","1.764","280","NAN","NAN","NAN","NAN","NAN"],
    [1544309,"2026-03-10 01:50:00","45299","0.46","280.2","1.405","280.2","NAN","NAN","NAN","NAN","NAN"],
    [1544310,"2026-03-10 02:00:00","45300","0.823","280.3","1.47","280.3","NAN","NAN","NAN","NAN","NAN"],
    [1544311,"2026-03-10 02:10:00","45301","1.218","278.1","1.797","277.2","NAN","NAN","NAN","NAN","NAN"],
    [1544312,"2026-03-10 02:20:00","45302","0.866","277.8","1.568","277.5","NAN","NAN","NAN","NAN","NAN"],
    [1544313,"2026-03-10 02:30:00","45303","0.893","277.0","1.895","276.7","NAN","NAN","NAN","NAN","NAN"],
    [1544314,"2026-03-10 02:40:00","45304","0.5820000000000001","277.3","1.176","276.8","NAN","NAN","NAN","NAN","NAN"],
    [1544315,"2026-03-10 02:50:00","45305","0.861","277.3","1.731","278.6","NAN","NAN","NAN","NAN","NAN"],
    [1544316,"2026-03-10 03:00:00","45306","1.3219999999999998","279.9","2.417","280.2","NAN","NAN","NAN","NAN","NAN"],
    [1544317,"2026-03-10 03:10:00","45307","1.236","280.0","1.895","280.8","NAN","NAN","NAN","NAN","NAN"],
    [1544318,"2026-03-10 03:20:00","45308","1.0759999999999998","280.9","2.189","280.8","NAN","NAN","NAN","NAN","NAN"],
    [1544319,"2026-03-10 03:30:00","45309","0.7559999999999999","281.4","2.221","281.3","NAN","NAN","NAN","NAN","NAN"],
    [1544320,"2026-03-10 03:40:00","45310","0.564","279.3","1.274","277.6","NAN","NAN","NAN","NAN","NAN"],
    [1544321,"2026-03-10 03:50:00","45311","0.993","279.6","1.797","277.6","NAN","NAN","NAN","NAN","NAN"],
    [1544322,"2026-03-10 04:00:00","45312","1.126","279.0","2.123","277.4","NAN","NAN","NAN","NAN","NAN"],
    [1544323,"2026-03-10 04:10:00","45313","1.159","279.0","2.45","281","NAN","NAN","NAN","NAN","NAN"],
    [1544324,"2026-03-10 04:20:00","45314","1.5530000000000002","280.1","2.875","280.3","NAN","NAN","NAN","NAN","NAN"],
    [1544325,"2026-03-10 04:30:00","45315","1.6159999999999999","281.0","2.679","277.6","NAN","NAN","NAN","NAN","NAN"],
    [1544326,"2026-03-10 04:40:00","45316","0.546","281.8","1.797","281.8","NAN","NAN","NAN","NAN","NAN"],
    [1544327,"2026-03-10 04:50:00","45317","0.595","282.1","1.372","282.1","NAN","NAN","NAN","NAN","NAN"],
    [1544328,"2026-03-10 05:00:00","45318","0.95","281.7","1.96","281.4","NAN","NAN","NAN","NAN","NAN"],
    [1544329,"2026-03-10 05:10:00","45319","1.0590000000000002","279.1","1.829","279.4","NAN","NAN","NAN","NAN","NAN"],
    [1544330,"2026-03-10 05:20:00","45320","1.567","279.5","2.646","279.5","NAN","NAN","NAN","NAN","NAN"],
    [1544331,"2026-03-10 05:30:00","45321","1.564","278.2","2.581","276.6","NAN","NAN","NAN","NAN","NAN"],
    [1544332,"2026-03-10 05:40:00","45322","1.6840000000000002","281.0","3.234","284.8","NAN","NAN","NAN","NAN","NAN"],
    [1544333,"2026-03-10 05:50:00","45323","1.27","287.5","3.038","282.1","NAN","NAN","NAN","NAN","NAN"],
    [1544334,"2026-03-10 06:00:00","45324","0.612","288.4","1.797","289.5","NAN","NAN","NAN","NAN","NAN"],
    [1544335,"2026-03-10 06:10:00","45325","0.499","289.3","1.895","289.6","NAN","NAN","NAN","NAN","NAN"],
    [1544336,"2026-03-10 06:20:00","45326","0.087","287.1","0.719","287.3","NAN","NAN","NAN","NAN","NAN"],
    [1544337,"2026-03-10 06:30:00","45327","0.375","286.4","1.47","285.3","NAN","NAN","NAN","NAN","NAN"],
    [1544338,"2026-03-10 06:40:00","45328","1.156","286.9","2.189","289.5","NAN","NAN","NAN","NAN","NAN"],
    [1544339,"2026-03-10 06:50:00","45329","1.185","284.9","2.156","289.3","NAN","NAN","NAN","NAN","NAN"],
    [1544340,"2026-03-10 07:00:00","45330","1.038","289.2","2.221","289.9","NAN","NAN","NAN","NAN","NAN"],
    [1544341,"2026-03-10 07:10:00","45331","1.405","290.5","2.319","291.4","NAN","NAN","NAN","NAN","NAN"],
    [1544342,"2026-03-10 07:20:00","45332","1.321","287.8","2.515","285.9","NAN","NAN","NAN","NAN","NAN"],
    [1544343,"2026-03-10 07:30:00","45333","1.254","285.0","2.287","281.3","NAN","NAN","NAN","NAN","NAN"],
    [1544344,"2026-03-10 07:40:00","45334","1.83","281.9","3.071","277.6","NAN","NAN","NAN","NAN","NAN"],
    [1544345,"2026-03-10 07:50:00","45335","1.662","288.7","2.842","289.4","NAN","NAN","NAN","NAN","NAN"],
    [1544346,"2026-03-10 08:00:00","45336","1.466","291.3","2.385","288","NAN","NAN","NAN","NAN","NAN"],
    [1544347,"2026-03-10 08:10:00","45337","1.7790000000000001","293.0","2.744","294.8","NAN","NAN","NAN","NAN","NAN"],
    [1544348,"2026-03-10 08:20:00","45338","1.645","293.6","2.385","287.7","NAN","NAN","NAN","NAN","NAN"],
    [1544349,"2026-03-10 08:30:00","45339","1.49","293.3","2.352","296.3","NAN","NAN","NAN","NAN","NAN"],
    [1544350,"2026-03-10 08:40:00","45340","1.5859999999999999","287.6","2.548","285.7","NAN","NAN","NAN","NAN","NAN"],
    [1544351,"2026-03-10 08:50:00","45341","0.968","293.3","2.254","295.5","NAN","NAN","NAN","NAN","NAN"],
    [1544352,"2026-03-10 09:00:00","45342","0.207","292.9","1.209","296.1","NAN","NAN","NAN","NAN","NAN"],
    [1544353,"2026-03-10 09:10:00","45343","0.08199999999999999","287.6","0.653","286.9","NAN","NAN","NAN","NAN","NAN"],
    [1544354,"2026-03-10 09:20:00","45344","0.611","292.2","1.699","295.2","NAN","NAN","NAN","NAN","NAN"],
    [1544355,"2026-03-10 09:30:00","45345","0.311","296.5","1.307","297.4","NAN","NAN","NAN","NAN","NAN"],
    [1544356,"2026-03-10 09:40:00","45346","0.2","284.5","1.535","283.3","NAN","NAN","NAN","NAN","NAN"],
    [1544357,"2026-03-10 09:50:00","45347","0.72","198.6","1.96","178.8","NAN","NAN","NAN","NAN","NAN"],
    [1544358,"2026-03-10 10:00:00","45348","0.7879999999999999","153.2","2.156","152","NAN","NAN","NAN","NAN","NAN"],
    [1544359,"2026-03-10 10:10:00","45349","1.003","148.8","1.993","149.5","NAN","NAN","NAN","NAN","NAN"],
    [1544360,"2026-03-10 10:20:00","45350","1.584","133.1","3.136","130.9","NAN","NAN","NAN","NAN","NAN"],
    [1544361,"2026-03-10 10:30:00","45351","1.9040000000000001","125.4","3.071","135.2","NAN","NAN","NAN","NAN","NAN"],
    [1544362,"2026-03-10 10:40:00","45352","2.137","124.3","3.626","118.6","NAN","NAN","NAN","NAN","NAN"],
    [1544363,"2026-03-10 10:50:00","45353","2.592","123.2","4.116","132.6","NAN","NAN","NAN","NAN","NAN"],
    [1544364,"2026-03-10 11:00:00","45354","2.699","128.2","3.953","135.4","NAN","NAN","NAN","NAN","NAN"],
    [1544365,"2026-03-10 11:10:00","45355","2.6319999999999997","117.6","3.985","118.2","NAN","NAN","NAN","NAN","NAN"],
    [1544366,"2026-03-10 11:20:00","45356","2.575","119.9","3.757","116.5","NAN","NAN","NAN","NAN","NAN"],
    [1544367,"2026-03-10 11:30:00","45357","2.835","120.7","4.443","136.3","NAN","NAN","NAN","NAN","NAN"],
    [1544368,"2026-03-10 11:40:00","45358","2.596","111.0","4.018","138","NAN","NAN","NAN","NAN","NAN"],
    [1544369,"2026-03-10 11:50:00","45359","2.617","107.6","3.887","107","NAN","NAN","NAN","NAN","NAN"],
    [1544370,"2026-03-10 12:00:00","45360","2.3209999999999997","112.1","3.691","96.6","NAN","NAN","NAN","NAN","NAN"],
    [1544371,"2026-03-10 12:10:00","45361","2.6180000000000003","118.2","3.953","114.6","NAN","NAN","NAN","NAN","NAN"],
    [1544372,"2026-03-10 12:20:00","45362","2.533","119.6","3.855","119.4","NAN","NAN","NAN","NAN","NAN"],
    [1544373,"2026-03-10 12:30:00","45363","2.844","128.4","4.443","134.3","NAN","NAN","NAN","NAN","NAN"],
    [1544374,"2026-03-10 12:40:00","45364","2.843","109.3","4.149","120.1","NAN","NAN","NAN","NAN","NAN"],
    [1544375,"2026-03-10 12:50:00","45365","2.153","103.2","4.116","99.4","NAN","NAN","NAN","NAN","NAN"],
    [1544376,"2026-03-10 13:00:00","45366","2.4619999999999997","97.0","4.345","88.3","NAN","NAN","NAN","NAN","NAN"],
    [1544377,"2026-03-10 13:10:00","45367","2.434","91.0","4.704","85.2","NAN","NAN","NAN","NAN","NAN"],
    [1544378,"2026-03-10 13:20:00","45368","2.31","87.1","3.724","115.3","NAN","NAN","NAN","NAN","NAN"],
    [1544379,"2026-03-10 13:30:00","45369","2.05","103.2","3.43","81.6","NAN","NAN","NAN","NAN","NAN"],
    [1544380,"2026-03-10 13:40:00","45370","2.251","109.1","4.149","93.4","NAN","NAN","NAN","NAN","NAN"],
    [1544381,"2026-03-10 13:50:00","45371","1.912","109.4","3.691","101.4","NAN","NAN","NAN","NAN","NAN"],
    [1544382,"2026-03-10 14:00:00","45372","2.323","90.0","4.704","67.3","NAN","NAN","NAN","NAN","NAN"],
    [1544383,"2026-03-10 14:10:00","45373","2.0269999999999997","82.5","4.181","89","NAN","NAN","NAN","NAN","NAN"],
    [1544384,"2026-03-10 14:20:00","45374","2.311","103.4","4.41","100","NAN","NAN","NAN","NAN","NAN"],
    [1544385,"2026-03-10 14:30:00","45375","2.483","95.8","3.724","101.5","NAN","NAN","NAN","NAN","NAN"],
    [1544386,"2026-03-10 14:40:00","45376","2.509","101.7","4.279","91.9","NAN","NAN","NAN","NAN","NAN"],
    [1544387,"2026-03-10 14:50:00","45377","2.761","122.7","4.377","137.9","NAN","NAN","NAN","NAN","NAN"],
    [1544388,"2026-03-10 15:00:00","45378","2.886","116.5","4.704","121.6","NAN","NAN","NAN","NAN","NAN"],
    [1544389,"2026-03-10 15:10:00","45379","3.014","110.0","4.41","115","NAN","NAN","NAN","NAN","NAN"],
    [1544390,"2026-03-10 15:20:00","45380","2.031","95.9","4.149","97.9","NAN","NAN","NAN","NAN","NAN"],
    [1544391,"2026-03-10 15:30:00","45381","2.6260000000000003","94.4","3.953","104.7","NAN","NAN","NAN","NAN","NAN"],
    [1544392,"2026-03-10 15:40:00","45382","2.526","97.6","4.214","97.7","NAN","NAN","NAN","NAN","NAN"],
    [1544393,"2026-03-10 15:50:00","45383","2.306","93.2","4.083","90.2","NAN","NAN","NAN","NAN","NAN"],
    [1544394,"2026-03-10 16:00:00","45384","1.97","91.2","3.332","83.9","NAN","NAN","NAN","NAN","NAN"],
    [1544395,"2026-03-10 16:10:00","45385","2.657","100.3","3.822","99","NAN","NAN","NAN","NAN","NAN"],
    [1544396,"2026-03-10 16:20:00","45386","2.859","107.3","4.018","114.4","NAN","NAN","NAN","NAN","NAN"],
    [1544397,"2026-03-10 16:30:00","45387","2.5639999999999996","97.8","4.214","85","NAN","NAN","NAN","NAN","NAN"],
    [1544398,"2026-03-10 16:40:00","45388","2.09","97.3","3.822","96.6","NAN","NAN","NAN","NAN","NAN"],
    [1544399,"2026-03-10 16:50:00","45389","2.6039999999999996","97.4","3.92","101.5","NAN","NAN","NAN","NAN","NAN"],
    [1544400,"2026-03-10 17:00:00","45390","2.025","105.8","3.332","84.2","NAN","NAN","NAN","NAN","NAN"],
    [1544401,"2026-03-10 17:10:00","45391","2.3480000000000003","99.1","3.593","99.6","NAN","NAN","NAN","NAN","NAN"],
    [1544402,"2026-03-10 17:20:00","45392","2.237","100.5","3.757","95.3","NAN","NAN","NAN","NAN","NAN"],
    [1544403,"2026-03-10 17:30:00","45393","2.5469999999999997","94.5","3.887","96.9","NAN","NAN","NAN","NAN","NAN"],
    [1544404,"2026-03-10 17:40:00","45394","2.1830000000000003","97.6","3.953","97.4","NAN","NAN","NAN","NAN","NAN"],
    [1544405,"2026-03-10 17:50:00","45395","2.095","93.5","3.659","83.1","NAN","NAN","NAN","NAN","NAN"],
    [1544406,"2026-03-10 18:00:00","45396","2.381","97.1","3.463","103.9","NAN","NAN","NAN","NAN","NAN"],
    [1544407,"2026-03-10 18:10:00","45397","2.032","100.1","3.724","101","NAN","NAN","NAN","NAN","NAN"],
    [1544408,"2026-03-10 18:20:00","45398","2.494","87.5","3.92","81.1","NAN","NAN","NAN","NAN","NAN"],
    [1544409,"2026-03-10 18:30:00","45399","2.158","90.5","4.149","92","NAN","NAN","NAN","NAN","NAN"],
    [1544410,"2026-03-10 18:40:00","45400","1.694","86.6","3.626","96.9","NAN","NAN","NAN","NAN","NAN"],
    [1544411,"2026-03-10 18:50:00","45401","2.009","89.7","3.724","91.5","NAN","NAN","NAN","NAN","NAN"],
    [1544412,"2026-03-10 19:00:00","45402","1.771","98.1","3.267","100.7","NAN","NAN","NAN","NAN","NAN"],
    [1544413,"2026-03-10 19:10:00","45403","2.088","95.4","3.593","86.5","NAN","NAN","NAN","NAN","NAN"],
    [1544414,"2026-03-10 19:20:00","45404","1.912","95.8","3.593","88.7","NAN","NAN","NAN","NAN","NAN"],
    [1544415,"2026-03-10 19:30:00","45405","1.784","97.8","3.332","96.4","NAN","NAN","NAN","NAN","NAN"],
    [1544416,"2026-03-10 19:40:00","45406","2.03","88.7","3.43","85.5","NAN","NAN","NAN","NAN","NAN"],
    [1544417,"2026-03-10 19:50:00","45407","2.278","92.4","3.561","88.3","NAN","NAN","NAN","NAN","NAN"],
    [1544418,"2026-03-10 20:00:00","45408","1.729","90.3","2.907","97.6","NAN","NAN","NAN","NAN","NAN"],
    [1544419,"2026-03-10 20:10:00","45409","1.66","71.89","3.071","59.16","NAN","NAN","NAN","NAN","NAN"],
    [1544420,"2026-03-10 20:20:00","45410","0.88","62.23","2.94","55.59","NAN","NAN","NAN","NAN","NAN"],
    [1544421,"2026-03-10 20:30:00","45411","1.382","62.38","2.744","65.83","NAN","NAN","NAN","NAN","NAN"],
    [1544422,"2026-03-10 20:40:00","45412","1.714","64.92","3.724","54.88","NAN","NAN","NAN","NAN","NAN"],
    [1544423,"2026-03-10 20:50:00","45413","1.746","57.4","3.495","62.88","NAN","NAN","NAN","NAN","NAN"],
    [1544424,"2026-03-10 21:00:00","45414","2.263","62.08","4.051","59.71","NAN","NAN","NAN","NAN","NAN"],
    [1544425,"2026-03-10 21:10:00","45415","1.939","60.04","4.802","62.45","NAN","NAN","NAN","NAN","NAN"],
    [1544426,"2026-03-10 21:20:00","45416","1.625","55.73","3.463","53.19","NAN","NAN","NAN","NAN","NAN"],
    [1544427,"2026-03-10 21:30:00","45417","1.796","57.52","3.169","61.22","NAN","NAN","NAN","NAN","NAN"],
    [1544428,"2026-03-10 21:40:00","45418","1.641","62.84","3.659","52.18","NAN","NAN","NAN","NAN","NAN"],
    [1544429,"2026-03-10 21:50:00","45419","1.0190000000000001","65.02","2.385","67.98","NAN","NAN","NAN","NAN","NAN"],
    [1544430,"2026-03-10 22:00:00","45420","1.392","57.61","3.528","49.41","NAN","NAN","NAN","NAN","NAN"],
    [1544431,"2026-03-10 22:10:00","45421","0.662","45.79","2.123","46.36","NAN","NAN","NAN","NAN","NAN"],
    [1544432,"2026-03-10 22:20:00","45422","0.14","45.26","1.078","45.27","NAN","NAN","NAN","NAN","NAN"],
    [1544433,"2026-03-10 22:30:00","45423","0.575","44.75","1.568","44.79","NAN","NAN","NAN","NAN","NAN"],
    [1544434,"2026-03-10 22:40:00","45424","0.379","43.8","1.535","43.73","NAN","NAN","NAN","NAN","NAN"],
    [1544435,"2026-03-10 22:50:00","45425","0.836","42.92","1.797","42.67","NAN","NAN","NAN","NAN","NAN"],
    [1544436,"2026-03-10 23:00:00","45426","0.73","42.39","1.535","42.39","NAN","NAN","NAN","NAN","NAN"],
    [1544437,"2026-03-10 23:10:00","45427","0.657","42.21","1.764","42.28","NAN","NAN","NAN","NAN","NAN"],
    [1544438,"2026-03-10 23:20:00","45428","0.057999999999999996","42.19","0.784","42.19","NAN","NAN","NAN","NAN","NAN"],
    [1544439,"2026-03-10 23:30:00","45429","0.004","42.19","0.261","42.19","NAN","NAN","NAN","NAN","NAN"],
    [1544440,"2026-03-10 23:40:00","45430","0.031","42.19","0.947","42.19","NAN","NAN","NAN","NAN","NAN"],
    [1544441,"2026-03-10 23:50:00","45431","0.006","42.19","0.261","42.19","NAN","NAN","NAN","NAN","NAN"],
    [1544442,"2026-03-11 00:00:00","45432","0.0","0.0","0","0","NAN","NAN","NAN","NAN","NAN"],
    [1544443,"2026-03-11 00:10:00","45433","0.0","0.0","0","0","NAN","NAN","NAN","NAN","NAN"],
    [1544444,"2026-03-11 00:20:00","45434","0.152","42.1","1.143","42.14","NAN","NAN","NAN","NAN","NAN"],
    [1544445,"2026-03-11 00:30:00","45435","0.062","42.1","1.013","42.1","NAN","NAN","NAN","NAN","NAN"],
    [1544446,"2026-03-11 00:40:00","45436","0.028999999999999998","42.1","0.882","42.1","NAN","NAN","NAN","NAN","NAN"],
    [1544447,"2026-03-11 00:50:00","45437","0.0","0.0","0","0","NAN","NAN","NAN","NAN","NAN"],
    [1544448,"2026-03-11 01:00:00","45438","0.01","42.1","0.229","42.1","NAN","NAN","NAN","NAN","NAN"],
    [1544449,"2026-03-11 01:10:00","45439","0.002","42.1","0.163","42.1","NAN","NAN","NAN","NAN","NAN"],
    [1544450,"2026-03-11 01:20:00","45440","0.0","0.0","0","0","NAN","NAN","NAN","NAN","NAN"],
    [1544451,"2026-03-11 01:30:00","45441","0.0","0.0","0","0","NAN","NAN","NAN","NAN","NAN"],
    [1544452,"2026-03-11 01:40:00","45442","0.006","41.82","0.294","41.82","NAN","NAN","NAN","NAN","NAN"],
    [1544453,"2026-03-11 01:50:00","45443","0.16399999999999998","41.82","0.523","41.82","NAN","NAN","NAN","NAN","NAN"],
    [1544454,"2026-03-11 02:00:00","45444","0.003","41.82","0.229","41.82","NAN","NAN","NAN","NAN","NAN"],
    [1544455,"2026-03-11 02:10:00","45445","0.16399999999999998","41.65","0.817","41.63","NAN","NAN","NAN","NAN","NAN"],
    [1544456,"2026-03-11 02:20:00","45446","0.139","41.36","0.947","41.15","NAN","NAN","NAN","NAN","NAN"],
    [1544457,"2026-03-11 02:30:00","45447","0.155","41.09","0.588","41.15","NAN","NAN","NAN","NAN","NAN"],
    [1544458,"2026-03-11 02:40:00","45448","0.46299999999999997","41.04","1.045","41.05","NAN","NAN","NAN","NAN","NAN"],
    [1544459,"2026-03-11 02:50:00","45449","0.48100000000000004","40.95","0.882","40.95","NAN","NAN","NAN","NAN","NAN"],
    [1544460,"2026-03-11 03:00:00","45450","0.077","40.84","0.588","40.86","NAN","NAN","NAN","NAN","NAN"],
    [1544461,"2026-03-11 03:10:00","45451","0.41100000000000003","40.76","0.98","40.76","NAN","NAN","NAN","NAN","NAN"],
    [1544462,"2026-03-11 03:20:00","45452","0.146","40.75","0.523","40.76","NAN","NAN","NAN","NAN","NAN"],
    [1544463,"2026-03-11 03:30:00","45453","0.168","40.62","0.686","40.57","NAN","NAN","NAN","NAN","NAN"],
    [1544464,"2026-03-11 03:40:00","45454","0.512","40.5","0.915","40.47","NAN","NAN","NAN","NAN","NAN"],
    [1544465,"2026-03-11 03:50:00","45455","0.424","38.92","1.176","39.7","NAN","NAN","NAN","NAN","NAN"],
    [1544466,"2026-03-11 04:00:00","45456","0.768","351.2","2.45","315.5","NAN","NAN","NAN","NAN","NAN"],
    [1544467,"2026-03-11 04:10:00","45457","0.899","311.7","1.797","311.7","NAN","NAN","NAN","NAN","NAN"],
    [1544468,"2026-03-11 04:20:00","45458","0.441","311.8","1.405","311.7","NAN","NAN","NAN","NAN","NAN"],
    [1544469,"2026-03-11 04:30:00","45459","0.639","311.8","1.274","311.7","NAN","NAN","NAN","NAN","NAN"],
    [1544470,"2026-03-11 04:40:00","45460","0.998","311.7","1.633","311.8","NAN","NAN","NAN","NAN","NAN"],
    [1544471,"2026-03-11 04:50:00","45461","0.589","311.7","1.241","311.8","NAN","NAN","NAN","NAN","NAN"],
    [1544472,"2026-03-11 05:00:00","45462","0.5660000000000001","311.7","1.339","311.7","NAN","NAN","NAN","NAN","NAN"],
    [1544473,"2026-03-11 05:10:00","45463","0.851","311.6","1.731","311.6","NAN","NAN","NAN","NAN","NAN"],
    [1544474,"2026-03-11 05:20:00","45464","0.652","311.4","1.568","311.4","NAN","NAN","NAN","NAN","NAN"],
    [1544475,"2026-03-11 05:30:00","45465","0.584","311.3","1.143","311.3","NAN","NAN","NAN","NAN","NAN"],
    [1544476,"2026-03-11 05:40:00","45466","0.833","311.0","1.47","311.1","NAN","NAN","NAN","NAN","NAN"],
    [1544477,"2026-03-11 05:50:00","45467","1.053","309.6","1.96","310.7","NAN","NAN","NAN","NAN","NAN"],
    [1544478,"2026-03-11 06:00:00","45468","0.342","308.7","1.503","308.7","NAN","NAN","NAN","NAN","NAN"],
    [1544479,"2026-03-11 06:10:00","45469","0.586","308.6","1.666","308.6","NAN","NAN","NAN","NAN","NAN"],
    [1544480,"2026-03-11 06:20:00","45470","0.49200000000000005","308.6","1.633","308.6","NAN","NAN","NAN","NAN","NAN"],
    [1544481,"2026-03-11 06:30:00","45471","0.556","308.6","1.372","308.4","NAN","NAN","NAN","NAN","NAN"],
    [1544482,"2026-03-11 06:40:00","45472","0.379","308.1","1.274","308.1","NAN","NAN","NAN","NAN","NAN"],
    [1544483,"2026-03-11 06:50:00","45473","0.521","306.3","1.633","304.4","NAN","NAN","NAN","NAN","NAN"],
    [1544484,"2026-03-11 07:00:00","45474","1.39","283.8","2.842","279.5","NAN","NAN","NAN","NAN","NAN"],
    [1544485,"2026-03-11 07:10:00","45475","1.6369999999999998","273.8","3.071","268.4","NAN","NAN","NAN","NAN","NAN"],
    [1544486,"2026-03-11 07:20:00","45476","2.033","282.7","3.332","287.9","NAN","NAN","NAN","NAN","NAN"],
    [1544487,"2026-03-11 07:30:00","45477","1.9180000000000001","289.9","3.005","291.1","NAN","NAN","NAN","NAN","NAN"],
    [1544488,"2026-03-11 07:40:00","45478","1.854","291.2","3.495","283.8","NAN","NAN","NAN","NAN","NAN"],
    [1544489,"2026-03-11 07:50:00","45479","1.7480000000000002","292.9","3.038","290.9","NAN","NAN","NAN","NAN","NAN"],
    [1544490,"2026-03-11 08:00:00","45480","1.7630000000000001","294.7","3.267","297","NAN","NAN","NAN","NAN","NAN"],
    [1544491,"2026-03-11 08:10:00","45481","1.913","290.5","3.201","294.3","NAN","NAN","NAN","NAN","NAN"],
    [1544492,"2026-03-11 08:20:00","45482","1.926","293.1","2.94","292","NAN","NAN","NAN","NAN","NAN"],
    [1544493,"2026-03-11 08:30:00","45483","1.8219999999999998","295.9","2.973","295.3","NAN","NAN","NAN","NAN","NAN"],
    [1544494,"2026-03-11 08:40:00","45484","1.976","292.5","3.005","291.7","NAN","NAN","NAN","NAN","NAN"],
    [1544495,"2026-03-11 08:50:00","45485","1.415","295.9","2.646","303.5","NAN","NAN","NAN","NAN","NAN"],
    [1544496,"2026-03-11 09:00:00","45486","1.453","292.8","2.613","296.5","NAN","NAN","NAN","NAN","NAN"],
    [1544497,"2026-03-11 09:10:00","45487","0.795","283.2","2.091","278.8","NAN","NAN","NAN","NAN","NAN"],
    [1544498,"2026-03-11 09:20:00","45488","1.3769999999999998","279.0","2.613","294.2","NAN","NAN","NAN","NAN","NAN"],
    [1544499,"2026-03-11 09:30:00","45489","1.611","274.5","2.417","271.1","NAN","NAN","NAN","NAN","NAN"],
    [1544500,"2026-03-11 09:40:00","45490","1.788","276.0","3.071","284.8","NAN","NAN","NAN","NAN","NAN"],
    [1544501,"2026-03-11 09:50:00","45491","1.9569999999999999","279.4","3.43","288.3","NAN","NAN","NAN","NAN","NAN"],
    [1544502,"2026-03-11 10:00:00","45492","2.046","244.3","3.887","212.5","NAN","NAN","NAN","NAN","NAN"],
    [1544503,"2026-03-11 10:10:00","45493","1.915","230.6","3.463","222","NAN","NAN","NAN","NAN","NAN"],
    [1544504,"2026-03-11 10:20:00","45494","2.2569999999999997","241.5","3.593","227.9","NAN","NAN","NAN","NAN","NAN"],
    [1544505,"2026-03-11 10:30:00","45495","2.079","230.2","3.953","223.2","NAN","NAN","NAN","NAN","NAN"],
    [1544506,"2026-03-11 10:40:00","45496","1.2109999999999999","259.9","2.973","261.9","NAN","NAN","NAN","NAN","NAN"],
    [1544507,"2026-03-11 10:50:00","45497","1.172","244.3","3.495","255.2","NAN","NAN","NAN","NAN","NAN"],
    [1544508,"2026-03-11 11:00:00","45498","1.4040000000000001","236.8","4.247","230.1","NAN","NAN","NAN","NAN","NAN"],
    [1544509,"2026-03-11 11:10:00","45499","2.506","220.0","4.769","200.8","NAN","NAN","NAN","NAN","NAN"],
    [1544510,"2026-03-11 11:20:00","45500","3.12","194.9","5.488","211.7","NAN","NAN","NAN","NAN","NAN"],
    [1544511,"2026-03-11 11:30:00","45501","3.551","208.8","5.553","213.2","NAN","NAN","NAN","NAN","NAN"],
    [1544512,"2026-03-11 11:40:00","45502","3.446","208.0","5.978","205.1","NAN","NAN","NAN","NAN","NAN"],
    [1544513,"2026-03-11 11:50:00","45503","3.2560000000000002","196.4","5.521","209.4","NAN","NAN","NAN","NAN","NAN"],
    [1544514,"2026-03-11 12:00:00","45504","4.485","204.8","7.121","213.7","NAN","NAN","NAN","NAN","NAN"],
    [1544515,"2026-03-11 12:10:00","45505","4.861000000000001","208.9","7.154","210.9","NAN","NAN","NAN","NAN","NAN"],
    [1544516,"2026-03-11 12:20:00","45506","4.501","209.1","6.991","225.8","NAN","NAN","NAN","NAN","NAN"],
    [1544517,"2026-03-11 12:30:00","45507","4.5489999999999995","204.9","7.415","206.4","NAN","NAN","NAN","NAN","NAN"],
    [1544518,"2026-03-11 12:40:00","45508","4.507","206.0","7.056","208.8","NAN","NAN","NAN","NAN","NAN"],
    [1544519,"2026-03-11 12:50:00","45509","4.666","209.5","6.958","214.7","NAN","NAN","NAN","NAN","NAN"],
    [1544520,"2026-03-11 13:00:00","45510","5.5520000000000005","210.3","7.677","211.1","NAN","NAN","NAN","NAN","NAN"],
    [1544521,"2026-03-11 13:10:00","45511","5.49","209.1","8.07","202.1","NAN","NAN","NAN","NAN","NAN"],
    [1544522,"2026-03-11 13:20:00","45512","4.274","216.4","7.056","206.9","NAN","NAN","NAN","NAN","NAN"],
    [1544523,"2026-03-11 13:30:00","45513","4.195","212.3","6.664","224.9","NAN","NAN","NAN","NAN","NAN"],
    [1544524,"2026-03-11 13:40:00","45514","4.261","212.6","6.435","214.2","NAN","NAN","NAN","NAN","NAN"],
    [1544525,"2026-03-11 13:50:00","45515","4.079","211.3","6.533","201.6","NAN","NAN","NAN","NAN","NAN"],
    [1544526,"2026-03-11 14:00:00","45516","4.513999999999999","212.6","7.023","209.8","NAN","NAN","NAN","NAN","NAN"],
    [1544527,"2026-03-11 14:10:00","45517","4.0569999999999995","221.6","6.991","209.3","NAN","NAN","NAN","NAN","NAN"],
    [1544528,"2026-03-11 14:20:00","45518","4.11","214.8","7.873","220.1","NAN","NAN","NAN","NAN","NAN"],
    [1544529,"2026-03-11 14:30:00","45519","4.107","208.3","6.958","214.3","NAN","NAN","NAN","NAN","NAN"],
    [1544530,"2026-03-11 14:40:00","45520","4.814","209.7","7.481","213.3","NAN","NAN","NAN","NAN","NAN"],
    [1544531,"2026-03-11 14:50:00","45521","4.425","207.7","6.893","209.8","NAN","NAN","NAN","NAN","NAN"],
    [1544532,"2026-03-11 15:00:00","45522","4.74","208.4","7.187","214","NAN","NAN","NAN","NAN","NAN"],
    [1544533,"2026-03-11 15:10:00","45523","3.6510000000000002","226.6","7.546","222.7","NAN","NAN","NAN","NAN","NAN"],
    [1544534,"2026-03-11 15:20:00","45524","4.664","221.9","8","217.2","NAN","NAN","NAN","NAN","NAN"],
    [1544535,"2026-03-11 15:30:00","45525","4.76","216.4","8.1","215.6","NAN","NAN","NAN","NAN","NAN"],
    [1544536,"2026-03-11 15:40:00","45526","5.396","210.1","8.33","211.4","NAN","NAN","NAN","NAN","NAN"],
    [1544537,"2026-03-11 15:50:00","45527","4.711","217.9","8.59","227.1","NAN","NAN","NAN","NAN","NAN"],
    [1544538,"2026-03-11 16:00:00","45528","4.658","222.9","8.4","207.3","NAN","NAN","NAN","NAN","NAN"],
    [1544539,"2026-03-11 16:10:00","45529","4.961","213.9","7.742","207.5","NAN","NAN","NAN","NAN","NAN"],
    [1544540,"2026-03-11 16:20:00","45530","3.892","212.7","6.925","229.8","NAN","NAN","NAN","NAN","NAN"],
    [1544541,"2026-03-11 16:30:00","45531","4.32","216.5","8.07","230.4","NAN","NAN","NAN","NAN","NAN"],
    [1544542,"2026-03-11 16:40:00","45532","3.872","220.5","7.317","219.5","NAN","NAN","NAN","NAN","NAN"],
    [1544543,"2026-03-11 16:50:00","45533","3.338","231.1","6.533","244.9","NAN","NAN","NAN","NAN","NAN"],
    [1544544,"2026-03-11 17:00:00","45534","3.57","229.6","6.305","239.9","NAN","NAN","NAN","NAN","NAN"],
    [1544545,"2026-03-11 17:10:00","45535","3.82","234.2","6.599","245.7","NAN","NAN","NAN","NAN","NAN"],
    [1544546,"2026-03-11 17:20:00","45536","3.642","238.4","7.252","265.4","NAN","NAN","NAN","NAN","NAN"],
    [1544547,"2026-03-11 17:30:00","45537","4.4030000000000005","243.3","7.481","251.3","NAN","NAN","NAN","NAN","NAN"],
    [1544548,"2026-03-11 17:40:00","45538","3.6830000000000003","248.1","6.729","249.2","NAN","NAN","NAN","NAN","NAN"],
    [1544549,"2026-03-11 17:50:00","45539","4.351","249.6","6.958","257.5","NAN","NAN","NAN","NAN","NAN"],
    [1544550,"2026-03-11 18:00:00","45540","4.402","250.8","6.827","268.3","NAN","NAN","NAN","NAN","NAN"],
    [1544551,"2026-03-11 18:10:00","45541","3.141","241.9","5.357","235.3","NAN","NAN","NAN","NAN","NAN"],
    [1544552,"2026-03-11 18:20:00","45542","2.8939999999999997","238.5","5.292","251.6","NAN","NAN","NAN","NAN","NAN"],
    [1544553,"2026-03-11 18:30:00","45543","3.3760000000000003","238.3","4.998","240.1","NAN","NAN","NAN","NAN","NAN"],
    [1544554,"2026-03-11 18:40:00","45544","2.5989999999999998","237.9","4.541","230.8","NAN","NAN","NAN","NAN","NAN"],
    [1544555,"2026-03-11 18:50:00","45545","2.8739999999999997","233.7","4.573","212.8","NAN","NAN","NAN","NAN","NAN"],
    [1544556,"2026-03-11 19:00:00","45546","3.4130000000000003","233.7","6.207","236.7","NAN","NAN","NAN","NAN","NAN"],
    [1544557,"2026-03-11 19:10:00","45547","3.109","245.6","5.455","260.7","NAN","NAN","NAN","NAN","NAN"],
    [1544558,"2026-03-11 19:20:00","45548","2.764","248.9","4.475","243.4","NAN","NAN","NAN","NAN","NAN"],
    [1544559,"2026-03-11 19:30:00","45549","2.217","251.6","3.691","245.5","NAN","NAN","NAN","NAN","NAN"],
    [1544560,"2026-03-11 19:40:00","45550","2.226","264.3","3.528","260.2","NAN","NAN","NAN","NAN","NAN"],
    [1544561,"2026-03-11 19:50:00","45551","2.238","255.9","3.887","248.8","NAN","NAN","NAN","NAN","NAN"],
    [1544562,"2026-03-11 20:00:00","45552","1.383","245.1","2.875","249.1","NAN","NAN","NAN","NAN","NAN"],
    [1544563,"2026-03-11 20:10:00","45553","1.15","248.6","2.809","245.8","NAN","NAN","NAN","NAN","NAN"],
    [1544564,"2026-03-11 20:20:00","45554","0.52","244.0","1.927","245.6","NAN","NAN","NAN","NAN","NAN"],
    [1544565,"2026-03-11 20:30:00","45555","1.214","243.0","2.515","247.9","NAN","NAN","NAN","NAN","NAN"],
    [1544566,"2026-03-11 20:40:00","45556","1.196","245.2","2.45","249","NAN","NAN","NAN","NAN","NAN"],
    [1544567,"2026-03-11 20:50:00","45557","1.483","241.3","2.907","241.6","NAN","NAN","NAN","NAN","NAN"],
    [1544568,"2026-03-11 21:00:00","45558","1.234","243.1","2.744","241.8","NAN","NAN","NAN","NAN","NAN"],
    [1544569,"2026-03-11 21:10:00","45559","1.3130000000000002","249.4","2.189","249.1","NAN","NAN","NAN","NAN","NAN"],
    [1544570,"2026-03-11 21:20:00","45560","1.4509999999999998","252.5","2.483","246.3","NAN","NAN","NAN","NAN","NAN"],
    [1544571,"2026-03-11 21:30:00","45561","1.431","258.6","2.352","259.5","NAN","NAN","NAN","NAN","NAN"],
    [1544572,"2026-03-11 21:40:00","45562","0.996","259.5","2.123","256.8","NAN","NAN","NAN","NAN","NAN"],
    [1544573,"2026-03-11 21:50:00","45563","1.725","252.6","2.973","253.4","NAN","NAN","NAN","NAN","NAN"],
    [1544574,"2026-03-11 22:00:00","45564","1.693","254.8","3.267","251.5","NAN","NAN","NAN","NAN","NAN"],
    [1544575,"2026-03-11 22:10:00","45565","0.835","259.2","1.503","259.6","NAN","NAN","NAN","NAN","NAN"],
    [1544576,"2026-03-11 22:20:00","45566","0.858","261.2","1.666","260.8","NAN","NAN","NAN","NAN","NAN"],
    [1544577,"2026-03-11 22:30:00","45567","0.11599999999999999","261.2","0.653","261.2","NAN","NAN","NAN","NAN","NAN"],
    [1544578,"2026-03-11 22:40:00","45568","0.37","261.4","1.797","261.5","NAN","NAN","NAN","NAN","NAN"],
    [1544579,"2026-03-11 22:50:00","45569","1.339","262.6","2.091","261.7","NAN","NAN","NAN","NAN","NAN"],
    [1544580,"2026-03-11 23:00:00","45570","0.813","263.3","1.666","263.2","NAN","NAN","NAN","NAN","NAN"],
    [1544581,"2026-03-11 23:10:00","45571","0.493","263.5","1.209","263.5","NAN","NAN","NAN","NAN","NAN"],
    [1544582,"2026-03-11 23:20:00","45572","0.027000000000000003","263.6","0.653","263.6","NAN","NAN","NAN","NAN","NAN"],
    [1544583,"2026-03-11 23:30:00","45573","0.6509999999999999","263.5","1.829","263.7","NAN","NAN","NAN","NAN","NAN"],
    [1544584,"2026-03-11 23:40:00","45574","0.155","264.4","1.633","264.9","NAN","NAN","NAN","NAN","NAN"],
    [1544585,"2026-03-11 23:50:00","45575","0.185","272.4","1.241","267.7","NAN","NAN","NAN","NAN","NAN"],
    [1544586,"2026-03-12 00:00:00","45576","0.011000000000000001","281.9","0.392","282.2","NAN","NAN","NAN","NAN","NAN"],
    [1544587,"2026-03-12 00:10:00","45577","0.0","0.0","0","0","NAN","NAN","NAN","NAN","NAN"],
    [1544588,"2026-03-12 00:20:00","45578","0.0","0.0","0","0","NAN","NAN","NAN","NAN","NAN"],
    [1544589,"2026-03-12 00:30:00","45579","0.017","285.8","0.425","285.5","NAN","NAN","NAN","NAN","NAN"],
    [1544590,"2026-03-12 00:40:00","45580","0.319","286.0","0.882","286","NAN","NAN","NAN","NAN","NAN"],
    [1544591,"2026-03-12 00:50:00","45581","0.015","286.0","0.588","286","NAN","NAN","NAN","NAN","NAN"],
    [1544592,"2026-03-12 01:00:00","45582","0.005","286.6","0.327","286.6","NAN","NAN","NAN","NAN","NAN"],
    [1544593,"2026-03-12 01:10:00","45583","0.17300000000000001","287.7","0.588","287.8","NAN","NAN","NAN","NAN","NAN"],
    [1544594,"2026-03-12 01:20:00","45584","0.055999999999999994","288.4","0.457","288.2","NAN","NAN","NAN","NAN","NAN"],
    [1544595,"2026-03-12 01:30:00","45585","0.0","0.0","0","0","NAN","NAN","NAN","NAN","NAN"],
    [1544596,"2026-03-12 01:40:00","45586","0.157","297.0","0.588","295.5","NAN","NAN","NAN","NAN","NAN"],
    [1544597,"2026-03-12 01:50:00","45587","0.475","299.4","1.078","299.3","NAN","NAN","NAN","NAN","NAN"],
    [1544598,"2026-03-12 02:00:00","45588","0.899","307.4","1.568","309.2","NAN","NAN","NAN","NAN","NAN"],
    [1544599,"2026-03-12 02:10:00","45589","1.36","305.8","2.156","300.3","NAN","NAN","NAN","NAN","NAN"],
    [1544600,"2026-03-12 02:20:00","45590","0.9179999999999999","298.0","2.189","299.9","NAN","NAN","NAN","NAN","NAN"],
    [1544601,"2026-03-12 02:30:00","45591","0.191","298.0","0.621","297.8","NAN","NAN","NAN","NAN","NAN"],
    [1544602,"2026-03-12 02:40:00","45592","0.32","305.9","0.915","304.8","NAN","NAN","NAN","NAN","NAN"],
    [1544603,"2026-03-12 02:50:00","45593","0.001","307.3","0.261","307.3","NAN","NAN","NAN","NAN","NAN"],
    [1544604,"2026-03-12 03:00:00","45594","0.13","303.4","1.111","302.5","NAN","NAN","NAN","NAN","NAN"],
    [1544605,"2026-03-12 03:10:00","45595","0.231","300.1","1.209","301.1","NAN","NAN","NAN","NAN","NAN"],
    [1544606,"2026-03-12 03:20:00","45596","0.715","300.0","1.372","299.4","NAN","NAN","NAN","NAN","NAN"],
    [1544607,"2026-03-12 03:30:00","45597","0.16","301.9","0.751","301.8","NAN","NAN","NAN","NAN","NAN"],
    [1544608,"2026-03-12 03:40:00","45598","0.003","303.4","0.196","303.3","NAN","NAN","NAN","NAN","NAN"],
    [1544609,"2026-03-12 03:50:00","45599","0.63","301.3","1.307","301.9","NAN","NAN","NAN","NAN","NAN"],
    [1544610,"2026-03-12 04:00:00","45600","1.2309999999999999","298.6","1.895","298.1","NAN","NAN","NAN","NAN","NAN"],
    [1544611,"2026-03-12 04:10:00","45601","0.475","297.7","1.241","297.7","NAN","NAN","NAN","NAN","NAN"],
    [1544612,"2026-03-12 04:20:00","45602","0.214","297.9","0.947","297.7","NAN","NAN","NAN","NAN","NAN"],
    [1544613,"2026-03-12 04:30:00","45603","0.42200000000000004","300.2","1.176","300.3","NAN","NAN","NAN","NAN","NAN"],
    [1544614,"2026-03-12 04:40:00","45604","0.016","302.1","0.425","302.2","NAN","NAN","NAN","NAN","NAN"],
    [1544615,"2026-03-12 04:50:00","45605","0.002","302.2","0.229","302","NAN","NAN","NAN","NAN","NAN"],
    [1544616,"2026-03-12 05:00:00","45606","0.011000000000000001","297.2","0.229","297.3","NAN","NAN","NAN","NAN","NAN"],
    [1544617,"2026-03-12 05:10:00","45607","0.358","297.1","1.241","297.1","NAN","NAN","NAN","NAN","NAN"],
    [1544618,"2026-03-12 05:20:00","45608","0.009000000000000001","297.0","0.327","297","NAN","NAN","NAN","NAN","NAN"],
    [1544619,"2026-03-12 05:30:00","45609","0.306","297.0","1.47","296.9","NAN","NAN","NAN","NAN","NAN"],
    [1544620,"2026-03-12 05:40:00","45610","0.845","296.9","1.993","296.6","NAN","NAN","NAN","NAN","NAN"],
    [1544621,"2026-03-12 05:50:00","45611","1.329","296.1","2.189","295.6","NAN","NAN","NAN","NAN","NAN"],
    [1544622,"2026-03-12 06:00:00","45612","1.099","295.6","2.189","299.3","NAN","NAN","NAN","NAN","NAN"],
    [1544623,"2026-03-12 06:10:00","45613","0.865","294.1","1.633","293.6","NAN","NAN","NAN","NAN","NAN"],
    [1544624,"2026-03-12 06:20:00","45614","1.198","292.1","2.45","291.2","NAN","NAN","NAN","NAN","NAN"],
    [1544625,"2026-03-12 06:30:00","45615","0.6509999999999999","290.1","1.731","289.7","NAN","NAN","NAN","NAN","NAN"],
    [1544626,"2026-03-12 06:40:00","45616","0.62","289.4","1.47","289.2","NAN","NAN","NAN","NAN","NAN"],
    [1544627,"2026-03-12 06:50:00","45617","1.183","288.9","2.025","288.9","NAN","NAN","NAN","NAN","NAN"],
    [1544628,"2026-03-12 07:00:00","45618","1.3359999999999999","288.6","2.417","290","NAN","NAN","NAN","NAN","NAN"],
    [1544629,"2026-03-12 07:10:00","45619","1.554","289.6","2.613","292.6","NAN","NAN","NAN","NAN","NAN"],
    [1544630,"2026-03-12 07:20:00","45620","0.902","287.7","2.091","288","NAN","NAN","NAN","NAN","NAN"],
    [1544631,"2026-03-12 07:30:00","45621","0.444","287.3","1.568","287.3","NAN","NAN","NAN","NAN","NAN"],
    [1544632,"2026-03-12 07:40:00","45622","0.35600000000000004","287.3","1.209","287.2","NAN","NAN","NAN","NAN","NAN"],
    [1544633,"2026-03-12 07:50:00","45623","0.365","287.0","1.241","287.1","NAN","NAN","NAN","NAN","NAN"],
    [1544634,"2026-03-12 08:00:00","45624","0.16","286.9","0.784","286.9","NAN","NAN","NAN","NAN","NAN"],
    [1544635,"2026-03-12 08:10:00","45625","0.467","286.6","1.535","286.6","NAN","NAN","NAN","NAN","NAN"],
    [1544636,"2026-03-12 08:20:00","45626","0.313","286.5","1.176","286.4","NAN","NAN","NAN","NAN","NAN"],
    [1544637,"2026-03-12 08:30:00","45627","0.8740000000000001","286.1","1.601","286.2","NAN","NAN","NAN","NAN","NAN"],
    [1544638,"2026-03-12 08:40:00","45628","1.411","287.9","2.189","285","NAN","NAN","NAN","NAN","NAN"],
    [1544639,"2026-03-12 08:50:00","45629","1.015","286.6","1.764","291.5","NAN","NAN","NAN","NAN","NAN"],
    [1544640,"2026-03-12 09:00:00","45630","0.895","284.4","2.319","282.7","NAN","NAN","NAN","NAN","NAN"],
    [1544641,"2026-03-12 09:10:00","45631","0.87","281.9","2.483","281.5","NAN","NAN","NAN","NAN","NAN"],
    [1544642,"2026-03-12 09:20:00","45632","1.149","276.7","2.679","276.2","NAN","NAN","NAN","NAN","NAN"],
    [1544643,"2026-03-12 09:30:00","45633","1.1320000000000001","270.5","2.515","270.8","NAN","NAN","NAN","NAN","NAN"],
    [1544644,"2026-03-12 09:40:00","45634","1.08","266.9","2.483","271","NAN","NAN","NAN","NAN","NAN"],
    [1544645,"2026-03-12 09:50:00","45635","1.053","259.8","2.515","261","NAN","NAN","NAN","NAN","NAN"],
    [1544646,"2026-03-12 10:00:00","45636","0.997","241.5","2.875","219.8","NAN","NAN","NAN","NAN","NAN"],
    [1544647,"2026-03-12 10:10:00","45637","1.776","233.7","3.92","176.3","NAN","NAN","NAN","NAN","NAN"],
    [1544648,"2026-03-12 10:20:00","45638","2.708","204.4","5.031","205","NAN","NAN","NAN","NAN","NAN"],
    [1544649,"2026-03-12 10:30:00","45639","2.548","199.9","4.443","182.4","NAN","NAN","NAN","NAN","NAN"],
    [1544650,"2026-03-12 10:40:00","45640","3.068","202.4","5.978","212.4","NAN","NAN","NAN","NAN","NAN"],
    [1544651,"2026-03-12 10:50:00","45641","3.0639999999999996","191.7","6.011","203.3","NAN","NAN","NAN","NAN","NAN"],
    [1544652,"2026-03-12 11:00:00","45642","3.405","200.4","5.749","219.1","NAN","NAN","NAN","NAN","NAN"],
    [1544653,"2026-03-12 11:10:00","45643","3.222","199.2","5.913","193.6","NAN","NAN","NAN","NAN","NAN"],
    [1544654,"2026-03-12 11:20:00","45644","3.053","183.8","6.272","169.7","NAN","NAN","NAN","NAN","NAN"],
    [1544655,"2026-03-12 11:30:00","45645","3.2110000000000003","196.7","7.121","225.8","NAN","NAN","NAN","NAN","NAN"],
    [1544656,"2026-03-12 11:40:00","45646","3.9539999999999997","182.5","7.481","180.9","NAN","NAN","NAN","NAN","NAN"],
    [1544657,"2026-03-12 11:50:00","45647","3.4360000000000004","191.6","6.37","195.2","NAN","NAN","NAN","NAN","NAN"],
    [1544658,"2026-03-12 12:00:00","45648","4.105","177.3","7.317","159.1","NAN","NAN","NAN","NAN","NAN"],
    [1544659,"2026-03-12 12:10:00","45649","4.2669999999999995","177.4","7.317","166.7","NAN","NAN","NAN","NAN","NAN"],
    [1544660,"2026-03-12 12:20:00","45650","4.08","174.8","6.664","173.9","NAN","NAN","NAN","NAN","NAN"],
    [1544661,"2026-03-12 12:30:00","45651","3.3489999999999998","182.4","5.88","175.7","NAN","NAN","NAN","NAN","NAN"],
    [1544662,"2026-03-12 12:40:00","45652","3.323","206.3","6.925","213","NAN","NAN","NAN","NAN","NAN"],
    [1544663,"2026-03-12 12:50:00","45653","3.4019999999999997","202.5","6.566","210.4","NAN","NAN","NAN","NAN","NAN"],
    [1544664,"2026-03-12 13:00:00","45654","2.9410000000000003","200.5","5.292","205.7","NAN","NAN","NAN","NAN","NAN"],
    [1544665,"2026-03-12 13:10:00","45655","3.457","178.9","5.847","162.8","NAN","NAN","NAN","NAN","NAN"],
    [1544666,"2026-03-12 13:20:00","45656","2.97","202.5","5.259","200.6","NAN","NAN","NAN","NAN","NAN"],
    [1544667,"2026-03-12 13:30:00","45657","3.235","177.9","5.227","159.6","NAN","NAN","NAN","NAN","NAN"],
    [1544668,"2026-03-12 13:40:00","45658","2.8360000000000003","179.2","4.998","176.7","NAN","NAN","NAN","NAN","NAN"],
    [1544669,"2026-03-12 13:50:00","45659","2.8989999999999996","180.0","5.717","169.2","NAN","NAN","NAN","NAN","NAN"],
    [1544670,"2026-03-12 14:00:00","45660","3.1489999999999996","189.2","5.292","182.6","NAN","NAN","NAN","NAN","NAN"],
    [1544671,"2026-03-12 14:10:00","45661","3.0469999999999997","183.3","5.913","217.2","NAN","NAN","NAN","NAN","NAN"],
    [1544672,"2026-03-12 14:20:00","45662","2.843","185.0","5.096","176.7","NAN","NAN","NAN","NAN","NAN"],
    [1544673,"2026-03-12 14:30:00","45663","3.452","178.2","6.566","175.5","NAN","NAN","NAN","NAN","NAN"],
    [1544674,"2026-03-12 14:40:00","45664","2.289","192.7","4.573","188.6","NAN","NAN","NAN","NAN","NAN"],
    [1544675,"2026-03-12 14:50:00","45665","3.3360000000000003","179.2","5.717","182.6","NAN","NAN","NAN","NAN","NAN"],
    [1544676,"2026-03-12 15:00:00","45666","2.937","201.4","5.357","231","NAN","NAN","NAN","NAN","NAN"],
    [1544677,"2026-03-12 15:10:00","45667","2.9130000000000003","208.7","4.671","210","NAN","NAN","NAN","NAN","NAN"],
    [1544678,"2026-03-12 15:20:00","45668","2.609","201.1","4.802","213.1","NAN","NAN","NAN","NAN","NAN"],
    [1544679,"2026-03-12 15:30:00","45669","2.9619999999999997","195.4","4.737","214.7","NAN","NAN","NAN","NAN","NAN"],
    [1544680,"2026-03-12 15:40:00","45670","2.9389999999999996","215.9","4.541","210.9","NAN","NAN","NAN","NAN","NAN"],
    [1544681,"2026-03-12 15:50:00","45671","2.394","218.8","4.279","204.3","NAN","NAN","NAN","NAN","NAN"],
    [1544682,"2026-03-12 16:00:00","45672","1.3559999999999999","212.2","3.038","237.8","NAN","NAN","NAN","NAN","NAN"],
    [1544683,"2026-03-12 16:10:00","45673","1.83","192.0","3.495","207.2","NAN","NAN","NAN","NAN","NAN"],
    [1544684,"2026-03-12 16:20:00","45674","1.646","195.7","3.234","207.7","NAN","NAN","NAN","NAN","NAN"],
    [1544685,"2026-03-12 16:30:00","45675","1.682","185.7","3.397","182","NAN","NAN","NAN","NAN","NAN"],
    [1544686,"2026-03-12 16:40:00","45676","2.26","184.6","3.561","205.9","NAN","NAN","NAN","NAN","NAN"],
    [1544687,"2026-03-12 16:50:00","45677","2.3080000000000003","210.6","4.181","212.9","NAN","NAN","NAN","NAN","NAN"],
    [1544688,"2026-03-12 17:00:00","45678","2.48","220.1","4.541","223.6","NAN","NAN","NAN","NAN","NAN"],
    [1544689,"2026-03-12 17:10:00","45679","2.807","218.5","5.063","220.1","NAN","NAN","NAN","NAN","NAN"],
    [1544690,"2026-03-12 17:20:00","45680","3.025","214.5","5.292","213.3","NAN","NAN","NAN","NAN","NAN"],
    [1544691,"2026-03-12 17:30:00","45681","3.4339999999999997","207.1","5.717","200.3","NAN","NAN","NAN","NAN","NAN"],
    [1544692,"2026-03-12 17:40:00","45682","3.1710000000000003","209.6","5.096","219.6","NAN","NAN","NAN","NAN","NAN"],
    [1544693,"2026-03-12 17:50:00","45683","2.7489999999999997","209.4","4.41","207.1","NAN","NAN","NAN","NAN","NAN"],
    [1544694,"2026-03-12 18:00:00","45684","2.5269999999999997","221.3","5.096","240.4","NAN","NAN","NAN","NAN","NAN"],
    [1544695,"2026-03-12 18:10:00","45685","2.324","236.8","4.9","241.4","NAN","NAN","NAN","NAN","NAN"],
    [1544696,"2026-03-12 18:20:00","45686","2.687","236.2","4.312","243.8","NAN","NAN","NAN","NAN","NAN"],
    [1544697,"2026-03-12 18:30:00","45687","2.5980000000000003","249.0","4.802","244.7","NAN","NAN","NAN","NAN","NAN"],
    [1544698,"2026-03-12 18:40:00","45688","2.56","249.3","5.096","241.7","NAN","NAN","NAN","NAN","NAN"],
    [1544699,"2026-03-12 18:50:00","45689","2.026","251.0","3.528","245.6","NAN","NAN","NAN","NAN","NAN"],
    [1544700,"2026-03-12 19:00:00","45690","1.685","253.0","2.907","253.4","NAN","NAN","NAN","NAN","NAN"],
    [1544701,"2026-03-12 19:10:00","45691","1.7209999999999999","248.0","2.907","247.9","NAN","NAN","NAN","NAN","NAN"],
    [1544702,"2026-03-12 19:20:00","45692","1.655","241.3","2.777","243","NAN","NAN","NAN","NAN","NAN"],
    [1544703,"2026-03-12 19:30:00","45693","1.2429999999999999","227.9","2.646","223.4","NAN","NAN","NAN","NAN","NAN"],
    [1544704,"2026-03-12 19:40:00","45694","1.515","228.0","3.071","226.9","NAN","NAN","NAN","NAN","NAN"],
    [1544705,"2026-03-12 19:50:00","45695","1.3869999999999998","237.1","3.528","243.4","NAN","NAN","NAN","NAN","NAN"],
    [1544706,"2026-03-12 20:00:00","45696","1.52","241.2","2.711","237.1","NAN","NAN","NAN","NAN","NAN"],
    [1544707,"2026-03-12 20:10:00","45697","1.6480000000000001","240.0","2.973","245.4","NAN","NAN","NAN","NAN","NAN"],
    [1544708,"2026-03-12 20:20:00","45698","1.297","231.7","2.581","230","NAN","NAN","NAN","NAN","NAN"],
    [1544709,"2026-03-12 20:30:00","45699","1.5290000000000001","238.6","2.385","240.1","NAN","NAN","NAN","NAN","NAN"],
    [1544710,"2026-03-12 20:40:00","45700","1.551","244.2","2.352","244.4","NAN","NAN","NAN","NAN","NAN"],
    [1544711,"2026-03-12 20:50:00","45701","1.46","244.4","2.613","245.6","NAN","NAN","NAN","NAN","NAN"],
    [1544712,"2026-03-12 21:00:00","45702","1.2919999999999998","239.0","2.875","237.4","NAN","NAN","NAN","NAN","NAN"],
    [1544713,"2026-03-12 21:10:00","45703","1.5230000000000001","244.4","2.809","243.8","NAN","NAN","NAN","NAN","NAN"],
    [1544714,"2026-03-12 21:20:00","45704","1.6159999999999999","247.9","2.581","248.2","NAN","NAN","NAN","NAN","NAN"],
    [1544715,"2026-03-12 21:30:00","45705","1.942","244.9","2.907","246.8","NAN","NAN","NAN","NAN","NAN"],
    [1544716,"2026-03-12 21:40:00","45706","1.3840000000000001","244.5","3.005","245.3","NAN","NAN","NAN","NAN","NAN"],
    [1544717,"2026-03-12 21:50:00","45707","0.96","251.0","2.156","249.8","NAN","NAN","NAN","NAN","NAN"],
    [1544718,"2026-03-12 22:00:00","45708","0.504","253.7","1.143","253.7","NAN","NAN","NAN","NAN","NAN"],
    [1544719,"2026-03-12 22:10:00","45709","0.594","253.7","0.915","253.7","NAN","NAN","NAN","NAN","NAN"],
    [1544720,"2026-03-12 22:20:00","45710","0.675","253.7","1.143","253.7","NAN","NAN","NAN","NAN","NAN"],
    [1544721,"2026-03-12 22:30:00","45711","0.0","0.0","0","0","NAN","NAN","NAN","NAN","NAN"],
    [1544722,"2026-03-12 22:40:00","45712","0.0","0.0","0","0","NAN","NAN","NAN","NAN","NAN"],
    [1544723,"2026-03-12 22:50:00","45713","0.129","253.7","0.523","253.7","NAN","NAN","NAN","NAN","NAN"],
    [1544724,"2026-03-12 23:00:00","45714","0.605","253.7","0.98","253.7","NAN","NAN","NAN","NAN","NAN"],
    [1544725,"2026-03-12 23:10:00","45715","0.203","253.7","1.013","253.7","NAN","NAN","NAN","NAN","NAN"],
    [1544726,"2026-03-12 23:20:00","45716","0.977","253.7","1.633","253.7","NAN","NAN","NAN","NAN","NAN"],
    [1544727,"2026-03-12 23:30:00","45717","0.9159999999999999","253.7","1.405","253.7","NAN","NAN","NAN","NAN","NAN"],
    [1544728,"2026-03-12 23:40:00","45718","0.657","253.7","1.307","253.8","NAN","NAN","NAN","NAN","NAN"],
    [1544729,"2026-03-12 23:50:00","45719","0.98","253.8","1.503","253.8","NAN","NAN","NAN","NAN","NAN"],
    [1544730,"2026-03-13 00:00:00","45720","0.214","253.7","1.045","253.8","NAN","NAN","NAN","NAN","NAN"],
    [1544731,"2026-03-13 00:10:00","45721","0.0","0.0","0","0","NAN","NAN","NAN","NAN","NAN"],
    [1544732,"2026-03-13 00:20:00","45722","0.247","253.7","0.947","253.8","NAN","NAN","NAN","NAN","NAN"],
    [1544733,"2026-03-13 00:30:00","45723","0.27899999999999997","253.8","1.111","253.8","NAN","NAN","NAN","NAN","NAN"],
    [1544734,"2026-03-13 00:40:00","45724","0.207","253.8","1.013","253.8","NAN","NAN","NAN","NAN","NAN"],
    [1544735,"2026-03-13 00:50:00","45725","0.746","253.8","1.47","253.8","NAN","NAN","NAN","NAN","NAN"],
    [1544736,"2026-03-13 01:00:00","45726","0.008","253.8","0.359","253.8","NAN","NAN","NAN","NAN","NAN"],
    [1544737,"2026-03-13 01:10:00","45727","0.29","253.7","0.915","253.8","NAN","NAN","NAN","NAN","NAN"],
    [1544738,"2026-03-13 01:20:00","45728","0.05","253.7","0.588","253.7","NAN","NAN","NAN","NAN","NAN"],
    [1544739,"2026-03-13 01:30:00","45729","0.201","253.7","0.751","253.7","NAN","NAN","NAN","NAN","NAN"],
    [1544740,"2026-03-13 01:40:00","45730","0.302","253.7","0.98","253.7","NAN","NAN","NAN","NAN","NAN"],
    [1544741,"2026-03-13 01:50:00","45731","0.5","253.8","1.111","253.8","NAN","NAN","NAN","NAN","NAN"],
    [1544742,"2026-03-13 02:00:00","45732","0.083","253.8","0.784","253.9","NAN","NAN","NAN","NAN","NAN"],
    [1544743,"2026-03-13 02:10:00","45733","0.02","253.8","0.392","253.8","NAN","NAN","NAN","NAN","NAN"],
    [1544744,"2026-03-13 02:20:00","45734","0.525","253.9","1.078","253.9","NAN","NAN","NAN","NAN","NAN"],
    [1544745,"2026-03-13 02:30:00","45735","0.485","253.9","0.98","253.9","NAN","NAN","NAN","NAN","NAN"],
    [1544746,"2026-03-13 02:40:00","45736","0.34299999999999997","253.9","1.339","254","NAN","NAN","NAN","NAN","NAN"],
    [1544747,"2026-03-13 02:50:00","45737","0.624","254.0","1.339","254","NAN","NAN","NAN","NAN","NAN"],
    [1544748,"2026-03-13 03:00:00","45738","0.382","254.0","1.437","254.1","NAN","NAN","NAN","NAN","NAN"],
    [1544749,"2026-03-13 03:10:00","45739","0.675","254.0","1.274","254","NAN","NAN","NAN","NAN","NAN"],
    [1544750,"2026-03-13 03:20:00","45740","0.5820000000000001","254.0","0.98","254","NAN","NAN","NAN","NAN","NAN"],
    [1544751,"2026-03-13 03:30:00","45741","0.34","254.0","1.045","254","NAN","NAN","NAN","NAN","NAN"],
    [1544752,"2026-03-13 03:40:00","45742","0.545","254.0","1.372","254.1","NAN","NAN","NAN","NAN","NAN"],
    [1544753,"2026-03-13 03:50:00","45743","0.537","254.3","1.96","254.3","NAN","NAN","NAN","NAN","NAN"],
    [1544754,"2026-03-13 04:00:00","45744","0.524","254.3","1.111","254.3","NAN","NAN","NAN","NAN","NAN"],
    [1544755,"2026-03-13 04:10:00","45745","0.627","254.2","1.307","254.2","NAN","NAN","NAN","NAN","NAN"],
    [1544756,"2026-03-13 04:20:00","45746","0.644","254.2","1.111","254.2","NAN","NAN","NAN","NAN","NAN"],
    [1544757,"2026-03-13 04:30:00","45747","0.5770000000000001","254.2","1.078","254.3","NAN","NAN","NAN","NAN","NAN"],
    [1544758,"2026-03-13 04:40:00","45748","0.54","254.3","1.633","254.4","NAN","NAN","NAN","NAN","NAN"],
    [1544759,"2026-03-13 04:50:00","45749","1.1159999999999999","254.5","1.797","254.4","NAN","NAN","NAN","NAN","NAN"],
    [1544760,"2026-03-13 05:00:00","45750","0.588","254.5","1.143","254.4","NAN","NAN","NAN","NAN","NAN"],
    [1544761,"2026-03-13 05:10:00","45751","0.335","254.5","1.111","254.5","NAN","NAN","NAN","NAN","NAN"],
    [1544762,"2026-03-13 05:20:00","45752","0.943","254.6","1.731","254.5","NAN","NAN","NAN","NAN","NAN"],
    [1544763,"2026-03-13 05:30:00","45753","0.9359999999999999","254.6","1.797","254.7","NAN","NAN","NAN","NAN","NAN"],
    [1544764,"2026-03-13 05:40:00","45754","0.623","254.7","1.339","254.7","NAN","NAN","NAN","NAN","NAN"],
    [1544765,"2026-03-13 05:50:00","45755","1.27","254.9","2.646","254.9","NAN","NAN","NAN","NAN","NAN"],
    [1544766,"2026-03-13 06:00:00","45756","0.8170000000000001","255.3","2.091","255.3","NAN","NAN","NAN","NAN","NAN"],
    [1544767,"2026-03-13 06:10:00","45757","0.17600000000000002","255.4","1.078","255.4","NAN","NAN","NAN","NAN","NAN"],
    [1544768,"2026-03-13 06:20:00","45758","0.009000000000000001","255.5","0.327","255.5","NAN","NAN","NAN","NAN","NAN"],
    [1544769,"2026-03-13 06:30:00","45759","0.001","255.5","0.196","255.5","NAN","NAN","NAN","NAN","NAN"],
    [1544770,"2026-03-13 06:40:00","45760","0.02","255.4","0.392","255.4","NAN","NAN","NAN","NAN","NAN"],
    [1544771,"2026-03-13 06:50:00","45761","0.061","255.5","0.588","255.5","NAN","NAN","NAN","NAN","NAN"],
    [1544772,"2026-03-13 07:00:00","45762","0.03","255.6","0.555","255.6","NAN","NAN","NAN","NAN","NAN"],
    [1544773,"2026-03-13 07:10:00","45763","0.527","255.7","1.209","255.7","NAN","NAN","NAN","NAN","NAN"],
    [1544774,"2026-03-13 07:20:00","45764","0.314","255.8","1.111","255.7","NAN","NAN","NAN","NAN","NAN"],
    [1544775,"2026-03-13 07:30:00","45765","0.042","255.8","0.719","255.9","NAN","NAN","NAN","NAN","NAN"],
    [1544776,"2026-03-13 07:40:00","45766","0.304","255.7","1.209","255.6","NAN","NAN","NAN","NAN","NAN"],
    [1544777,"2026-03-13 07:50:00","45767","0.325","255.6","1.176","255.6","NAN","NAN","NAN","NAN","NAN"],
    [1544778,"2026-03-13 08:00:00","45768","0.27899999999999997","255.6","0.882","255.5","NAN","NAN","NAN","NAN","NAN"],
    [1544779,"2026-03-13 08:10:00","45769","0.217","255.4","0.849","255.3","NAN","NAN","NAN","NAN","NAN"],
    [1544780,"2026-03-13 08:20:00","45770","0.047","255.4","0.653","255.5","NAN","NAN","NAN","NAN","NAN"],
    [1544781,"2026-03-13 08:30:00","45771","0.009000000000000001","255.4","0.49","255.4","NAN","NAN","NAN","NAN","NAN"],
    [1544782,"2026-03-13 08:40:00","45772","0.054000000000000006","255.7","0.947","255.7","NAN","NAN","NAN","NAN","NAN"],
    [1544783,"2026-03-13 08:50:00","45773","0.032","255.9","0.523","255.9","NAN","NAN","NAN","NAN","NAN"],
    [1544784,"2026-03-13 09:00:00","45774","0.354","256.3","1.535","256.6","NAN","NAN","NAN","NAN","NAN"],
    [1544785,"2026-03-13 09:10:00","45775","0.391","256.9","1.47","256.6","NAN","NAN","NAN","NAN","NAN"],
    [1544786,"2026-03-13 09:20:00","45776","0.457","258.9","1.829","259.2","NAN","NAN","NAN","NAN","NAN"],
    [1544787,"2026-03-13 09:30:00","45777","0.795","258.7","1.535","259.5","NAN","NAN","NAN","NAN","NAN"],
    [1544788,"2026-03-13 09:40:00","45778","0.294","257.3","1.405","250.9","NAN","NAN","NAN","NAN","NAN"],
    [1544789,"2026-03-13 09:50:00","45779","0.146","239.9","0.784","235.9","NAN","NAN","NAN","NAN","NAN"],
    [1544790,"2026-03-13 10:00:00","45780","0.27399999999999997","217.6","1.47","216.8","NAN","NAN","NAN","NAN","NAN"],
    [1544791,"2026-03-13 10:10:00","45781","0.7609999999999999","126.4","2.809","108.7","NAN","NAN","NAN","NAN","NAN"],
    [1544792,"2026-03-13 10:20:00","45782","1.834","102.9","3.005","96.8","NAN","NAN","NAN","NAN","NAN"],
    [1544793,"2026-03-13 10:30:00","45783","2.108","133.1","3.071","140.5","NAN","NAN","NAN","NAN","NAN"],
    [1544794,"2026-03-13 10:40:00","45784","1.89","117.4","2.973","118.1","NAN","NAN","NAN","NAN","NAN"],
    [1544795,"2026-03-13 10:50:00","45785","2.225","126.9","3.985","138.1","NAN","NAN","NAN","NAN","NAN"],
    [1544796,"2026-03-13 11:00:00","45786","2.293","137.9","3.757","139.3","NAN","NAN","NAN","NAN","NAN"],
    [1544797,"2026-03-13 11:10:00","45787","2.654","123.7","4.181","135","NAN","NAN","NAN","NAN","NAN"],
    [1544798,"2026-03-13 11:20:00","45788","2.4930000000000003","121.7","4.41","138.5","NAN","NAN","NAN","NAN","NAN"],
    [1544799,"2026-03-13 11:30:00","45789","2.745","142.8","4.41","147.9","NAN","NAN","NAN","NAN","NAN"],
    [1544800,"2026-03-13 11:40:00","45790","2.605","136.2","4.606","135.4","NAN","NAN","NAN","NAN","NAN"],
    [1544801,"2026-03-13 11:50:00","45791","3.029","140.7","4.573","145.1","NAN","NAN","NAN","NAN","NAN"],
    [1544802,"2026-03-13 12:00:00","45792","2.912","123.9","4.475","128.1","NAN","NAN","NAN","NAN","NAN"],
    [1544803,"2026-03-13 12:10:00","45793","3.197","130.0","4.737","125.5","NAN","NAN","NAN","NAN","NAN"],
    [1544804,"2026-03-13 12:20:00","45794","2.568","146.3","4.443","140.9","NAN","NAN","NAN","NAN","NAN"],
    [1544805,"2026-03-13 12:30:00","45795","3.2769999999999997","155.8","4.573","155","NAN","NAN","NAN","NAN","NAN"],
    [1544806,"2026-03-13 12:40:00","45796","2.737","166.0","4.508","160.5","NAN","NAN","NAN","NAN","NAN"],
    [1544807,"2026-03-13 12:50:00","45797","3.0589999999999997","181.0","4.965","154.5","NAN","NAN","NAN","NAN","NAN"],
    [1544808,"2026-03-13 13:00:00","45798","2.8089999999999997","191.8","5.586","210.4","NAN","NAN","NAN","NAN","NAN"],
    [1544809,"2026-03-13 13:10:00","45799","2.695","203.2","5.259","210.7","NAN","NAN","NAN","NAN","NAN"],
    [1544810,"2026-03-13 13:20:00","45800","2.483","185.8","4.737","176.8","NAN","NAN","NAN","NAN","NAN"],
    [1544811,"2026-03-13 13:30:00","45801","2.66","179.3","4.835","170.9","NAN","NAN","NAN","NAN","NAN"],
    [1544812,"2026-03-13 13:40:00","45802","2.506","179.3","4.214","172.7","NAN","NAN","NAN","NAN","NAN"],
    [1544813,"2026-03-13 13:50:00","45803","2.229","180.2","3.397","187.2","NAN","NAN","NAN","NAN","NAN"],
    [1544814,"2026-03-13 14:00:00","45804","2.895","170.4","4.867","161.9","NAN","NAN","NAN","NAN","NAN"],
    [1544815,"2026-03-13 14:10:00","45805","2.089","195.5","4.377","180.1","NAN","NAN","NAN","NAN","NAN"],
    [1544816,"2026-03-13 14:20:00","45806","2.767","198.2","5.129","222.2","NAN","NAN","NAN","NAN","NAN"],
    [1544817,"2026-03-13 14:30:00","45807","2.097","180.9","4.149","176.2","NAN","NAN","NAN","NAN","NAN"],
    [1544818,"2026-03-13 14:40:00","45808","2.5580000000000003","173.6","4.312","160.1","NAN","NAN","NAN","NAN","NAN"],
    [1544819,"2026-03-13 14:50:00","45809","2.245","181.3","4.737","180.4","NAN","NAN","NAN","NAN","NAN"],
    [1544820,"2026-03-13 15:00:00","45810","2.549","185.3","5.063","218.1","NAN","NAN","NAN","NAN","NAN"],
    [1544821,"2026-03-13 15:10:00","45811","2.845","193.1","5.194","172.8","NAN","NAN","NAN","NAN","NAN"],
    [1544822,"2026-03-13 15:20:00","45812","1.8940000000000001","195.1","4.083","215.5","NAN","NAN","NAN","NAN","NAN"],
    [1544823,"2026-03-13 15:30:00","45813","2.747","193.5","4.737","175","NAN","NAN","NAN","NAN","NAN"],
    [1544824,"2026-03-13 15:40:00","45814","2.3169999999999997","200.4","4.835","207.8","NAN","NAN","NAN","NAN","NAN"],
    [1544825,"2026-03-13 15:50:00","45815","2.603","177.0","4.312","181","NAN","NAN","NAN","NAN","NAN"],
    [1544826,"2026-03-13 16:00:00","45816","2.885","204.7","4.639","217.7","NAN","NAN","NAN","NAN","NAN"],
    [1544827,"2026-03-13 16:10:00","45817","3.162","208.5","5.096","206.9","NAN","NAN","NAN","NAN","NAN"],
    [1544828,"2026-03-13 16:20:00","45818","3.2569999999999997","213.4","6.239","198.7","NAN","NAN","NAN","NAN","NAN"],
    [1544829,"2026-03-13 16:30:00","45819","3.42","210.6","6.468","211","NAN","NAN","NAN","NAN","NAN"],
    [1544830,"2026-03-13 16:40:00","45820","3.833","215.4","7.546","219.4","NAN","NAN","NAN","NAN","NAN"],
    [1544831,"2026-03-13 16:50:00","45821","4.022","215.6","6.468","216.4","NAN","NAN","NAN","NAN","NAN"],
    [1544832,"2026-03-13 17:00:00","45822","4.98","207.3","6.991","205.3","NAN","NAN","NAN","NAN","NAN"],
    [1544833,"2026-03-13 17:10:00","45823","3.637","220.5","6.272","218","NAN","NAN","NAN","NAN","NAN"],
    [1544834,"2026-03-13 17:20:00","45824","4.552","207.4","6.501","209.2","NAN","NAN","NAN","NAN","NAN"],
    [1544835,"2026-03-13 17:30:00","45825","3.813","211.8","5.815","224.1","NAN","NAN","NAN","NAN","NAN"],
    [1544836,"2026-03-13 17:40:00","45826","3.6180000000000003","214.6","6.305","203.1","NAN","NAN","NAN","NAN","NAN"],
    [1544837,"2026-03-13 17:50:00","45827","3.0580000000000003","214.9","5.325","206.4","NAN","NAN","NAN","NAN","NAN"],
    [1544838,"2026-03-13 18:00:00","45828","2.161","217.7","4.573","208.7","NAN","NAN","NAN","NAN","NAN"],
    [1544839,"2026-03-13 18:10:00","45829","2.6660000000000004","213.4","5.586","211.8","NAN","NAN","NAN","NAN","NAN"],
    [1544840,"2026-03-13 18:20:00","45830","2.83","216.4","4.541","229.4","NAN","NAN","NAN","NAN","NAN"],
    [1544841,"2026-03-13 18:30:00","45831","3.0189999999999997","217.2","5.259","236","NAN","NAN","NAN","NAN","NAN"],
    [1544842,"2026-03-13 18:40:00","45832","2.7030000000000003","227.1","4.802","239.9","NAN","NAN","NAN","NAN","NAN"],
    [1544843,"2026-03-13 18:50:00","45833","2.733","230.3","5.259","220.2","NAN","NAN","NAN","NAN","NAN"],
    [1544844,"2026-03-13 19:00:00","45834","2.958","225.9","5.227","211.3","NAN","NAN","NAN","NAN","NAN"],
    [1544845,"2026-03-13 19:10:00","45835","2.638","226.3","5.619","237.5","NAN","NAN","NAN","NAN","NAN"],
    [1544846,"2026-03-13 19:20:00","45836","2.248","218.9","4.573","214.9","NAN","NAN","NAN","NAN","NAN"],
    [1544847,"2026-03-13 19:30:00","45837","3.0869999999999997","214.3","6.207","215.4","NAN","NAN","NAN","NAN","NAN"],
    [1544848,"2026-03-13 19:40:00","45838","2.003","223.4","4.769","216.9","NAN","NAN","NAN","NAN","NAN"],
    [1544849,"2026-03-13 19:50:00","45839","1.6869999999999998","223.8","4.051","219.3","NAN","NAN","NAN","NAN","NAN"],
    [1544850,"2026-03-13 20:00:00","45840","0.97","230.1","2.842","223","NAN","NAN","NAN","NAN","NAN"],
    [1544851,"2026-03-13 20:10:00","45841","1.3159999999999998","235.5","3.136","236","NAN","NAN","NAN","NAN","NAN"],
    [1544852,"2026-03-13 20:20:00","45842","2.099","235.7","3.463","231.7","NAN","NAN","NAN","NAN","NAN"],
    [1544853,"2026-03-13 20:30:00","45843","2.6039999999999996","229.9","4.704","231.1","NAN","NAN","NAN","NAN","NAN"],
    [1544854,"2026-03-13 20:40:00","45844","2.048","233.8","3.985","227.8","NAN","NAN","NAN","NAN","NAN"],
    [1544855,"2026-03-13 20:50:00","45845","2.8689999999999998","219.0","5.259","220.9","NAN","NAN","NAN","NAN","NAN"],
    [1544856,"2026-03-13 21:00:00","45846","2.821","225.1","5.227","218.5","NAN","NAN","NAN","NAN","NAN"],
    [1544857,"2026-03-13 21:10:00","45847","2.346","227.6","5.129","213.2","NAN","NAN","NAN","NAN","NAN"],
    [1544858,"2026-03-13 21:20:00","45848","2.178","230.5","4.083","246.5","NAN","NAN","NAN","NAN","NAN"],
    [1544859,"2026-03-13 21:30:00","45849","2.35","237.8","4.149","248.7","NAN","NAN","NAN","NAN","NAN"],
    [1544860,"2026-03-13 21:40:00","45850","3.0610000000000004","241.6","5.782","235.2","NAN","NAN","NAN","NAN","NAN"],
    [1544861,"2026-03-13 21:50:00","45851","3.611","237.4","6.141","238.7","NAN","NAN","NAN","NAN","NAN"],
    [1544862,"2026-03-13 22:00:00","45852","3.7969999999999997","238.8","6.991","236.2","NAN","NAN","NAN","NAN","NAN"],
    [1544863,"2026-03-13 22:10:00","45853","3.807","239.3","6.435","240.5","NAN","NAN","NAN","NAN","NAN"],
    [1544864,"2026-03-13 22:20:00","45854","4.282","245.6","7.775","255.8","NAN","NAN","NAN","NAN","NAN"],
    [1544865,"2026-03-13 22:30:00","45855","4.854","242.7","8.2","241.5","NAN","NAN","NAN","NAN","NAN"],
    [1544866,"2026-03-13 22:40:00","45856","4.334","242.2","6.991","244.5","NAN","NAN","NAN","NAN","NAN"],
    [1544867,"2026-03-13 22:50:00","45857","3.5389999999999997","247.4","5.945","240.4","NAN","NAN","NAN","NAN","NAN"],
    [1544868,"2026-03-13 23:00:00","45858","3.428","236.0","6.305","242.5","NAN","NAN","NAN","NAN","NAN"],
    [1544869,"2026-03-13 23:10:00","45859","3.674","246.7","6.272","245.4","NAN","NAN","NAN","NAN","NAN"],
    [1544870,"2026-03-13 23:20:00","45860","3.514","260.0","4.933","246.5","NAN","NAN","NAN","NAN","NAN"],
    [1544871,"2026-03-13 23:30:00","45861","2.877","264.0","4.573","254.5","NAN","NAN","NAN","NAN","NAN"],
    [1544872,"2026-03-13 23:40:00","45862","2.6489999999999996","263.6","4.802","250.8","NAN","NAN","NAN","NAN","NAN"],
    [1544873,"2026-03-13 23:50:00","45863","2.858","258.9","4.704","254.8","NAN","NAN","NAN","NAN","NAN"],
    [1544874,"2026-03-14 00:00:00","45864","1.705","266.7","3.593","270.6","NAN","NAN","NAN","NAN","NAN"],
    [1544875,"2026-03-14 00:10:00","45865","1.511","267.2","2.809","262.9","NAN","NAN","NAN","NAN","NAN"],
    [1544876,"2026-03-14 00:20:00","45866","1.494","267.6","2.744","269.8","NAN","NAN","NAN","NAN","NAN"],
    [1544877,"2026-03-14 00:30:00","45867","0.88","268.2","1.47","270.6","NAN","NAN","NAN","NAN","NAN"],
    [1544878,"2026-03-14 00:40:00","45868","0.376","266.1","1.307","266.4","NAN","NAN","NAN","NAN","NAN"],
    [1544879,"2026-03-14 00:50:00","45869","0.298","250.9","1.143","252.5","NAN","NAN","NAN","NAN","NAN"],
    [1544880,"2026-03-14 01:00:00","45870","1.236","221.2","5.357","209.4","NAN","NAN","NAN","NAN","NAN"],
    [1544881,"2026-03-14 01:10:00","45871","2.0869999999999997","208.7","5.129","209","NAN","NAN","NAN","NAN","NAN"],
    [1544882,"2026-03-14 01:20:00","45872","1.541","222.4","3.332","229.7","NAN","NAN","NAN","NAN","NAN"],
    [1544883,"2026-03-14 01:30:00","45873","1.5030000000000001","234.7","2.973","244.1","NAN","NAN","NAN","NAN","NAN"],
    [1544884,"2026-03-14 01:40:00","45874","2.347","253.1","3.593","262.8","NAN","NAN","NAN","NAN","NAN"],
    [1544885,"2026-03-14 01:50:00","45875","2.426","260.2","4.083","268.9","NAN","NAN","NAN","NAN","NAN"],
    [1544886,"2026-03-14 02:00:00","45876","2.5340000000000003","258.2","3.691","254.8","NAN","NAN","NAN","NAN","NAN"],
    [1544887,"2026-03-14 02:10:00","45877","2.8310000000000004","250.6","4.508","242.6","NAN","NAN","NAN","NAN","NAN"],
    [1544888,"2026-03-14 02:20:00","45878","2.434","250.1","4.214","251.8","NAN","NAN","NAN","NAN","NAN"],
    [1544889,"2026-03-14 02:30:00","45879","2.8539999999999996","251.6","4.769","251.2","NAN","NAN","NAN","NAN","NAN"],
    [1544890,"2026-03-14 02:40:00","45880","3.0410000000000004","250.1","4.769","255.4","NAN","NAN","NAN","NAN","NAN"],
    [1544891,"2026-03-14 02:50:00","45881","2.582","238.9","4.965","246.5","NAN","NAN","NAN","NAN","NAN"],
    [1544892,"2026-03-14 03:00:00","45882","2.4819999999999998","235.6","4.737","244.8","NAN","NAN","NAN","NAN","NAN"],
    [1544893,"2026-03-14 03:10:00","45883","2.799","244.0","4.867","233.3","NAN","NAN","NAN","NAN","NAN"],
    [1544894,"2026-03-14 03:20:00","45884","2.8110000000000004","242.3","4.737","241.8","NAN","NAN","NAN","NAN","NAN"],
    [1544895,"2026-03-14 03:30:00","45885","2.1069999999999998","252.6","3.365","256.3","NAN","NAN","NAN","NAN","NAN"],
    [1544896,"2026-03-14 03:40:00","45886","1.931","265.9","3.103","269.1","NAN","NAN","NAN","NAN","NAN"],
    [1544897,"2026-03-14 03:50:00","45887","1.797","262.0","2.483","261.1","NAN","NAN","NAN","NAN","NAN"],
    [1544898,"2026-03-14 04:00:00","45888","1.527","263.0","2.744","264.8","NAN","NAN","NAN","NAN","NAN"],
    [1544899,"2026-03-14 04:10:00","45889","1.508","267.9","2.711","269.4","NAN","NAN","NAN","NAN","NAN"],
    [1544900,"2026-03-14 04:20:00","45890","1.286","261.4","2.287","262.3","NAN","NAN","NAN","NAN","NAN"],
    [1544901,"2026-03-14 04:30:00","45891","1.801","254.8","2.417","256.4","NAN","NAN","NAN","NAN","NAN"],
    [1544902,"2026-03-14 04:40:00","45892","1.745","255.7","2.842","258","NAN","NAN","NAN","NAN","NAN"],
    [1544903,"2026-03-14 04:50:00","45893","1.851","251.0","2.613","250.1","NAN","NAN","NAN","NAN","NAN"],
    [1544904,"2026-03-14 05:00:00","45894","1.406","250.2","2.352","249.3","NAN","NAN","NAN","NAN","NAN"],
    [1544905,"2026-03-14 05:10:00","45895","1.3030000000000002","254.7","2.025","251.8","NAN","NAN","NAN","NAN","NAN"],
    [1544906,"2026-03-14 05:20:00","45896","1.4069999999999998","259.7","2.189","260.4","NAN","NAN","NAN","NAN","NAN"],
    [1544907,"2026-03-14 05:30:00","45897","1.4869999999999999","256.4","2.548","262.8","NAN","NAN","NAN","NAN","NAN"],
    [1544908,"2026-03-14 05:40:00","45898","1.36","259.5","2.221","261.5","NAN","NAN","NAN","NAN","NAN"],
    [1544909,"2026-03-14 05:50:00","45899","1.29","253.0","2.515","263.3","NAN","NAN","NAN","NAN","NAN"],
    [1544910,"2026-03-14 06:00:00","45900","1.879","258.2","3.887","241.9","NAN","NAN","NAN","NAN","NAN"],
    [1544911,"2026-03-14 06:10:00","45901","1.633","268.5","3.691","260.6","NAN","NAN","NAN","NAN","NAN"],
    [1544912,"2026-03-14 06:20:00","45902","0.509","273.3","1.535","273.3","NAN","NAN","NAN","NAN","NAN"],
    [1544913,"2026-03-14 06:30:00","45903","0.3","273.3","1.209","273.3","NAN","NAN","NAN","NAN","NAN"],
    [1544914,"2026-03-14 06:40:00","45904","0.349","273.3","1.307","273.3","NAN","NAN","NAN","NAN","NAN"],
    [1544915,"2026-03-14 06:50:00","45905","0.14","273.3","0.882","273.3","NAN","NAN","NAN","NAN","NAN"],
    [1544916,"2026-03-14 07:00:00","45906","0.057","273.9","0.555","273.4","NAN","NAN","NAN","NAN","NAN"],
    [1544917,"2026-03-14 07:10:00","45907","0.0","0.0","0","0","NAN","NAN","NAN","NAN","NAN"],
    [1544918,"2026-03-14 07:20:00","45908","0.067","274.9","0.817","274.9","NAN","NAN","NAN","NAN","NAN"],
    [1544919,"2026-03-14 07:30:00","45909","0.003","248.6","0.229","248.7","NAN","NAN","NAN","NAN","NAN"],
    [1544920,"2026-03-14 07:40:00","45910","0.0","0.0","0","0","NAN","NAN","NAN","NAN","NAN"],
    [1544921,"2026-03-14 07:50:00","45911","0.035","247.2","0.523","247.2","NAN","NAN","NAN","NAN","NAN"],
    [1544922,"2026-03-14 08:00:00","45912","1.966","76.34","3.691","84.2","NAN","NAN","NAN","NAN","NAN"],
    [1544923,"2026-03-14 08:10:00","45913","1.181","88.3","3.561","85.6","NAN","NAN","NAN","NAN","NAN"],
    [1544924,"2026-03-14 08:20:00","45914","1.463","81.0","3.332","89.3","NAN","NAN","NAN","NAN","NAN"],
    [1544925,"2026-03-14 08:30:00","45915","0.9690000000000001","84.0","2.058","85.8","NAN","NAN","NAN","NAN","NAN"],
    [1544926,"2026-03-14 08:40:00","45916","1.4269999999999998","83.0","2.45","78.18","NAN","NAN","NAN","NAN","NAN"],
    [1544927,"2026-03-14 08:50:00","45917","1.3130000000000002","90.5","2.711","94.1","NAN","NAN","NAN","NAN","NAN"],
    [1544928,"2026-03-14 09:00:00","45918","1.0290000000000001","97.0","3.103","97.2","NAN","NAN","NAN","NAN","NAN"],
    [1544929,"2026-03-14 09:10:00","45919","2.17","101.8","3.234","97.7","NAN","NAN","NAN","NAN","NAN"],
    [1544930,"2026-03-14 09:20:00","45920","1.4869999999999999","101.5","3.005","102.6","NAN","NAN","NAN","NAN","NAN"],
    [1544931,"2026-03-14 09:30:00","45921","0.861","100.0","2.025","95.7","NAN","NAN","NAN","NAN","NAN"],
    [1544932,"2026-03-14 09:40:00","45922","0.688","101.5","1.503","104","NAN","NAN","NAN","NAN","NAN"],
    [1544933,"2026-03-14 09:50:00","45923","1.172","107.3","2.123","108.4","NAN","NAN","NAN","NAN","NAN"],
    [1544934,"2026-03-14 10:00:00","45924","0.522","108.7","1.764","108.7","NAN","NAN","NAN","NAN","NAN"],
    [1544935,"2026-03-14 10:10:00","45925","0.6729999999999999","108.8","1.307","108.8","NAN","NAN","NAN","NAN","NAN"],
    [1544936,"2026-03-14 10:20:00","45926","1.125","105.2","1.797","103.2","NAN","NAN","NAN","NAN","NAN"],
    [1544937,"2026-03-14 10:30:00","45927","0.539","104.8","1.96","103.7","NAN","NAN","NAN","NAN","NAN"],
    [1544938,"2026-03-14 10:40:00","45928","0.084","132.5","2.091","129.1","NAN","NAN","NAN","NAN","NAN"],
    [1544939,"2026-03-14 10:50:00","45929","1.975","263.3","3.789","326.9","NAN","NAN","NAN","NAN","NAN"],
    [1544940,"2026-03-14 11:00:00","45930","3.6919999999999997","5.28","7.415","34.73","NAN","NAN","NAN","NAN","NAN"],
    [1544941,"2026-03-14 11:10:00","45931","3.102","56.97","7.023","47.39","NAN","NAN","NAN","NAN","NAN"],
    [1544942,"2026-03-14 11:20:00","45932","4.91","76.57","7.807","87.7","NAN","NAN","NAN","NAN","NAN"],
    [1544943,"2026-03-14 11:30:00","45933","4.474","91.7","7.056","84.7","NAN","NAN","NAN","NAN","NAN"],
    [1544944,"2026-03-14 11:40:00","45934","4.077","97.1","7.121","101.7","NAN","NAN","NAN","NAN","NAN"],
    [1544945,"2026-03-14 11:50:00","45935","3.972","93.4","7.056","85.6","NAN","NAN","NAN","NAN","NAN"],
    [1544946,"2026-03-14 12:00:00","45936","4.562","99.0","7.775","91.6","NAN","NAN","NAN","NAN","NAN"],
    [1544947,"2026-03-14 12:10:00","45937","4.501","95.6","7.481","102.4","NAN","NAN","NAN","NAN","NAN"],
    [1544948,"2026-03-14 12:20:00","45938","4.172","87.4","7.415","87.1","NAN","NAN","NAN","NAN","NAN"],
    [1544949,"2026-03-14 12:30:00","45939","4.209","91.3","7.383","70.32","NAN","NAN","NAN","NAN","NAN"],
    [1544950,"2026-03-14 12:40:00","45940","3.7960000000000003","98.4","7.285","101.2","NAN","NAN","NAN","NAN","NAN"],
    [1544951,"2026-03-14 12:50:00","45941","4.53","97.8","8.17","99.3","NAN","NAN","NAN","NAN","NAN"],
    [1544952,"2026-03-14 13:00:00","45942","4.034","95.4","6.795","119.5","NAN","NAN","NAN","NAN","NAN"],
    [1544953,"2026-03-14 13:10:00","45943","3.752","95.8","6.729","91.7","NAN","NAN","NAN","NAN","NAN"],
    [1544954,"2026-03-14 13:20:00","45944","3.733","95.2","6.109","98.2","NAN","NAN","NAN","NAN","NAN"],
    [1544955,"2026-03-14 13:30:00","45945","3.469","100.9","6.239","112.4","NAN","NAN","NAN","NAN","NAN"],
    [1544956,"2026-03-14 13:40:00","45946","4.25","117.1","6.501","123.5","NAN","NAN","NAN","NAN","NAN"],
    [1544957,"2026-03-14 13:50:00","45947","3.7560000000000002","111.9","6.599","97.7","NAN","NAN","NAN","NAN","NAN"],
    [1544958,"2026-03-14 14:00:00","45948","3.5","104.9","6.272","115","NAN","NAN","NAN","NAN","NAN"],
    [1544959,"2026-03-14 14:10:00","45949","3.239","109.6","5.88","119.6","NAN","NAN","NAN","NAN","NAN"],
    [1544960,"2026-03-14 14:20:00","45950","3.108","97.0","6.337","99.7","NAN","NAN","NAN","NAN","NAN"],
    [1544961,"2026-03-14 14:30:00","45951","3.467","77.1","6.239","65.96","NAN","NAN","NAN","NAN","NAN"],
    [1544962,"2026-03-14 14:40:00","45952","2.9760000000000004","78.64","5.423","118","NAN","NAN","NAN","NAN","NAN"],
    [1544963,"2026-03-14 14:50:00","45953","3.361","141.8","5.063","129.1","NAN","NAN","NAN","NAN","NAN"],
    [1544964,"2026-03-14 15:00:00","45954","4.138","130.6","6.893","141.9","NAN","NAN","NAN","NAN","NAN"],
    [1544965,"2026-03-14 15:10:00","45955","2.929","97.3","5.455","96.7","NAN","NAN","NAN","NAN","NAN"],
    [1544966,"2026-03-14 15:20:00","45956","3.463","104.3","5.619","126","NAN","NAN","NAN","NAN","NAN"],
    [1544967,"2026-03-14 15:30:00","45957","3.032","102.0","4.998","106.3","NAN","NAN","NAN","NAN","NAN"],
    [1544968,"2026-03-14 15:40:00","45958","3.388","100.5","5.651","105","NAN","NAN","NAN","NAN","NAN"],
    [1544969,"2026-03-14 15:50:00","45959","3.625","97.8","6.37","107.5","NAN","NAN","NAN","NAN","NAN"],
    [1544970,"2026-03-14 16:00:00","45960","3.312","98.4","5.749","101.8","NAN","NAN","NAN","NAN","NAN"],
    [1544971,"2026-03-14 16:10:00","45961","4.199","89.6","6.762","89.9","NAN","NAN","NAN","NAN","NAN"],
    [1544972,"2026-03-14 16:20:00","45962","4.41","87.1","7.611","87.7","NAN","NAN","NAN","NAN","NAN"],
    [1544973,"2026-03-14 16:30:00","45963","3.427","87.3","7.187","93.9","NAN","NAN","NAN","NAN","NAN"],
    [1544974,"2026-03-14 16:40:00","45964","2.733","85.8","6.011","86.1","NAN","NAN","NAN","NAN","NAN"],
    [1544975,"2026-03-14 16:50:00","45965","4.499","78.29","6.697","68.16","NAN","NAN","NAN","NAN","NAN"],
    [1544976,"2026-03-14 17:00:00","45966","4.779","87.1","7.35","80.4","NAN","NAN","NAN","NAN","NAN"],
    [1544977,"2026-03-14 17:10:00","45967","4.441","85.2","6.501","81.7","NAN","NAN","NAN","NAN","NAN"],
    [1544978,"2026-03-14 17:20:00","45968","4.003","94.3","6.86","97.2","NAN","NAN","NAN","NAN","NAN"],
    [1544979,"2026-03-14 17:30:00","45969","3.792","71.21","6.043","25.08","NAN","NAN","NAN","NAN","NAN"],
    [1544980,"2026-03-14 17:40:00","45970","3.214","42.7","5.619","10.79","NAN","NAN","NAN","NAN","NAN"],
    [1544981,"2026-03-14 17:50:00","45971","4.031000000000001","83.4","6.272","82.8","NAN","NAN","NAN","NAN","NAN"],
    [1544982,"2026-03-14 18:00:00","45972","1.776","97.2","4.018","76.1","NAN","NAN","NAN","NAN","NAN"],
    [1544983,"2026-03-14 18:10:00","45973","0.723","86.8","1.96","83.2","NAN","NAN","NAN","NAN","NAN"],
    [1544984,"2026-03-14 18:20:00","45974","0.16899999999999998","98.9","0.817","98.9","NAN","NAN","NAN","NAN","NAN"],
    [1544985,"2026-03-14 18:30:00","45975","0.193","100.3","0.817","100.5","NAN","NAN","NAN","NAN","NAN"],
    [1544986,"2026-03-14 18:40:00","45976","0.337","138.1","3.169","228","NAN","NAN","NAN","NAN","NAN"],
    [1544987,"2026-03-14 18:50:00","45977","0.6859999999999999","237.4","2.907","230.8","NAN","NAN","NAN","NAN","NAN"],
    [1544988,"2026-03-14 19:00:00","45978","2.1959999999999997","270.2","4.769","291.6","NAN","NAN","NAN","NAN","NAN"],
    [1544989,"2026-03-14 19:10:00","45979","2.329","323.7","5.031","326.4","NAN","NAN","NAN","NAN","NAN"],
    [1544990,"2026-03-14 19:20:00","45980","1.291","265.0","3.887","231.2","NAN","NAN","NAN","NAN","NAN"],
    [1544991,"2026-03-14 19:30:00","45981","4.026","251.5","5.847","251.7","NAN","NAN","NAN","NAN","NAN"],
    [1544992,"2026-03-14 19:40:00","45982","3.0989999999999998","269.1","5.684","277.5","NAN","NAN","NAN","NAN","NAN"],
    [1544993,"2026-03-14 19:50:00","45983","2.693","291.7","4.639","277.1","NAN","NAN","NAN","NAN","NAN"],
    [1544994,"2026-03-14 20:00:00","45984","2.333","297.2","4.051","292.9","NAN","NAN","NAN","NAN","NAN"],
    [1544995,"2026-03-14 20:10:00","45985","2.015","286.1","3.822","297.7","NAN","NAN","NAN","NAN","NAN"],
    [1544996,"2026-03-14 20:20:00","45986","0.703","279.8","1.731","278.8","NAN","NAN","NAN","NAN","NAN"],
    [1544997,"2026-03-14 20:30:00","45987","0.055999999999999994","282.9","0.915","281.1","NAN","NAN","NAN","NAN","NAN"],
    [1544998,"2026-03-14 20:40:00","45988","0.28800000000000003","285.3","1.078","285.4","NAN","NAN","NAN","NAN","NAN"],
    [1544999,"2026-03-14 20:50:00","45989","1.006","290.1","2.319","290.5","NAN","NAN","NAN","NAN","NAN"],
    [1545000,"2026-03-14 21:00:00","45990","0.627","292.7","1.797","292.8","NAN","NAN","NAN","NAN","NAN"],
    [1545001,"2026-03-14 21:10:00","45991","1.379","290.8","3.201","295.4","NAN","NAN","NAN","NAN","NAN"],
    [1545002,"2026-03-14 21:20:00","45992","1.95","297.4","3.267","295.4","NAN","NAN","NAN","NAN","NAN"],
    [1545003,"2026-03-14 21:30:00","45993","1.7169999999999999","293.6","2.679","298.2","NAN","NAN","NAN","NAN","NAN"],
    [1545004,"2026-03-14 21:40:00","45994","1.794","293.9","2.907","297.9","NAN","NAN","NAN","NAN","NAN"],
    [1545005,"2026-03-14 21:50:00","45995","1.4709999999999999","293.9","2.809","298.6","NAN","NAN","NAN","NAN","NAN"],
    [1545006,"2026-03-14 22:00:00","45996","1.632","289.5","2.94","287.8","NAN","NAN","NAN","NAN","NAN"],
    [1545007,"2026-03-14 22:10:00","45997","1.869","283.9","2.809","284.6","NAN","NAN","NAN","NAN","NAN"],
    [1545008,"2026-03-14 22:20:00","45998","2.465","285.7","3.822","277.4","NAN","NAN","NAN","NAN","NAN"],
    [1545009,"2026-03-14 22:30:00","45999","2.333","301.6","3.953","308.2","NAN","NAN","NAN","NAN","NAN"],
    [1545010,"2026-03-14 22:40:00","46000","1.9709999999999999","301.1","3.365","309.8","NAN","NAN","NAN","NAN","NAN"],
    [1545011,"2026-03-14 22:50:00","46001","2.115","306.2","3.136","307.9","NAN","NAN","NAN","NAN","NAN"],
    [1545012,"2026-03-14 23:00:00","46002","2.0140000000000002","304.0","3.43","304.6","NAN","NAN","NAN","NAN","NAN"],
    [1545013,"2026-03-14 23:10:00","46003","1.8969999999999998","302.4","2.679","298.7","NAN","NAN","NAN","NAN","NAN"],
    [1545014,"2026-03-14 23:20:00","46004","2.6719999999999997","316.4","5.063","319.3","NAN","NAN","NAN","NAN","NAN"],
    [1545015,"2026-03-14 23:30:00","46005","3.7569999999999997","327.1","5.88","332.7","NAN","NAN","NAN","NAN","NAN"],
    [1545016,"2026-03-14 23:40:00","46006","3.773","325.1","6.239","334.1","NAN","NAN","NAN","NAN","NAN"],
    [1545017,"2026-03-14 23:50:00","46007","3.968","326.4","6.664","327.9","NAN","NAN","NAN","NAN","NAN"],
    [1545018,"2026-03-15 00:00:00","46008","4.663","325.8","7.448","329.6","NAN","NAN","NAN","NAN","NAN"],
    [1545019,"2026-03-15 00:10:00","46009","4.909","327.6","7.383","326.2","NAN","NAN","NAN","NAN","NAN"],
    [1545020,"2026-03-15 00:20:00","46010","5.492999999999999","328.7","7.709","331.4","NAN","NAN","NAN","NAN","NAN"],
    [1545021,"2026-03-15 00:30:00","46011","5.154","330.0","7.415","326.7","NAN","NAN","NAN","NAN","NAN"],
    [1545022,"2026-03-15 00:40:00","46012","4.625","323.5","7.938","334","NAN","NAN","NAN","NAN","NAN"],
    [1545023,"2026-03-15 00:50:00","46013","4.669","324.2","7.611","336","NAN","NAN","NAN","NAN","NAN"],
    [1545024,"2026-03-15 01:00:00","46014","3.8939999999999997","336.0","7.611","336","NAN","NAN","NAN","NAN","NAN"],
    [1545025,"2026-03-15 01:10:00","46015","2.412","343.9","4.443","0.73","NAN","NAN","NAN","NAN","NAN"],
    [1545026,"2026-03-15 01:20:00","46016","2.9130000000000003","332.8","5.521","334.1","NAN","NAN","NAN","NAN","NAN"],
    [1545027,"2026-03-15 01:30:00","46017","0.614","333.9","4.083","333.3","NAN","NAN","NAN","NAN","NAN"],
    [1545028,"2026-03-15 01:40:00","46018","0.429","334.3","1.699","338.6","NAN","NAN","NAN","NAN","NAN"],
    [1545029,"2026-03-15 01:50:00","46019","0.363","337.2","2.025","339.2","NAN","NAN","NAN","NAN","NAN"],
    [1545030,"2026-03-15 02:00:00","46020","0.917","345.1","3.365","347.9","NAN","NAN","NAN","NAN","NAN"],
    [1545031,"2026-03-15 02:10:00","46021","2.714","348.7","4.181","334.2","NAN","NAN","NAN","NAN","NAN"],
    [1545032,"2026-03-15 02:20:00","46022","4.468","328.7","6.533","331.5","NAN","NAN","NAN","NAN","NAN"],
    [1545033,"2026-03-15 02:30:00","46023","4.13","324.5","6.109","327.7","NAN","NAN","NAN","NAN","NAN"],
    [1545034,"2026-03-15 02:40:00","46024","4.102","331.6","6.141","327.8","NAN","NAN","NAN","NAN","NAN"],
    [1545035,"2026-03-15 02:50:00","46025","3.142","324.3","4.769","332.4","NAN","NAN","NAN","NAN","NAN"],
    [1545036,"2026-03-15 03:00:00","46026","2.273","328.0","3.626","343.3","NAN","NAN","NAN","NAN","NAN"],
    [1545037,"2026-03-15 03:10:00","46027","0.627","320.4","1.274","320.3","NAN","NAN","NAN","NAN","NAN"],
    [1545038,"2026-03-15 03:20:00","46028","0.303","320.5","1.209","320.4","NAN","NAN","NAN","NAN","NAN"],
    [1545039,"2026-03-15 03:30:00","46029","0.316","334.2","2.123","340.5","NAN","NAN","NAN","NAN","NAN"],
    [1545040,"2026-03-15 03:40:00","46030","1.266","335.5","4.051","324.4","NAN","NAN","NAN","NAN","NAN"],
    [1545041,"2026-03-15 03:50:00","46031","1.507","327.6","2.548","326.7","NAN","NAN","NAN","NAN","NAN"],
    [1545042,"2026-03-15 04:00:00","46032","2.017","322.4","3.169","321.2","NAN","NAN","NAN","NAN","NAN"],
    [1545043,"2026-03-15 04:10:00","46033","2.263","313.5","3.691","309","NAN","NAN","NAN","NAN","NAN"],
    [1545044,"2026-03-15 04:20:00","46034","1.891","305.8","3.593","304.7","NAN","NAN","NAN","NAN","NAN"],
    [1545045,"2026-03-15 04:30:00","46035","2.168","309.6","3.855","312.6","NAN","NAN","NAN","NAN","NAN"],
    [1545046,"2026-03-15 04:40:00","46036","1.264","317.3","2.581","318.8","NAN","NAN","NAN","NAN","NAN"],
    [1545047,"2026-03-15 04:50:00","46037","0.062","318.0","0.751","318","NAN","NAN","NAN","NAN","NAN"],
    [1545048,"2026-03-15 05:00:00","46038","0.36","310.7","3.201","305.7","NAN","NAN","NAN","NAN","NAN"],
    [1545049,"2026-03-15 05:10:00","46039","2.738","299.6","4.867","299.4","NAN","NAN","NAN","NAN","NAN"],
    [1545050,"2026-03-15 05:20:00","46040","2.245","310.9","4.051","293.6","NAN","NAN","NAN","NAN","NAN"],
    [1545051,"2026-03-15 05:30:00","46041","2.25","309.8","4.149","305.9","NAN","NAN","NAN","NAN","NAN"],
    [1545052,"2026-03-15 05:40:00","46042","3.0210000000000004","311.6","4.998","316.6","NAN","NAN","NAN","NAN","NAN"],
    [1545053,"2026-03-15 05:50:00","46043","3.826","308.9","6.664","294.6","NAN","NAN","NAN","NAN","NAN"],
    [1545054,"2026-03-15 06:00:00","46044","5.255","308.8","8.04","296.4","NAN","NAN","NAN","NAN","NAN"],
    [1545055,"2026-03-15 06:10:00","46045","5.088","308.9","7.709","288.5","NAN","NAN","NAN","NAN","NAN"],
    [1545056,"2026-03-15 06:20:00","46046","4.588","307.1","8.56","298.2","NAN","NAN","NAN","NAN","NAN"],
    [1545057,"2026-03-15 06:30:00","46047","5.225","306.5","8.07","300.6","NAN","NAN","NAN","NAN","NAN"],
    [1545058,"2026-03-15 06:40:00","46048","5.295","303.5","8.49","305.8","NAN","NAN","NAN","NAN","NAN"],
    [1545059,"2026-03-15 06:50:00","46049","4.093","306.7","6.468","303.8","NAN","NAN","NAN","NAN","NAN"],
    [1545060,"2026-03-15 07:00:00","46050","5.3260000000000005","300.5","8.56","290.4","NAN","NAN","NAN","NAN","NAN"],
    [1545061,"2026-03-15 07:10:00","46051","5.502999999999999","299.6","8.46","303.5","NAN","NAN","NAN","NAN","NAN"],
    [1545062,"2026-03-15 07:20:00","46052","5.171","302.6","8.43","294.6","NAN","NAN","NAN","NAN","NAN"],
    [1545063,"2026-03-15 07:30:00","46053","4.993","304.2","8.3","303.7","NAN","NAN","NAN","NAN","NAN"],
    [1545064,"2026-03-15 07:40:00","46054","4.877","296.4","7.383","299.6","NAN","NAN","NAN","NAN","NAN"],
    [1545065,"2026-03-15 07:50:00","46055","4.495","298.0","7.677","302.1","NAN","NAN","NAN","NAN","NAN"],
    [1545066,"2026-03-15 08:00:00","46056","4.297","294.0","7.154","303.6","NAN","NAN","NAN","NAN","NAN"],
    [1545067,"2026-03-15 08:10:00","46057","5.138999999999999","301.0","8.53","295.2","NAN","NAN","NAN","NAN","NAN"],
    [1545068,"2026-03-15 08:20:00","46058","5.37","305.8","8.33","323.6","NAN","NAN","NAN","NAN","NAN"],
    [1545069,"2026-03-15 08:30:00","46059","4.426","310.1","7.513","296.4","NAN","NAN","NAN","NAN","NAN"],
    [1545070,"2026-03-15 08:40:00","46060","4.572","303.2","8.07","298.8","NAN","NAN","NAN","NAN","NAN"],
    [1545071,"2026-03-15 08:50:00","46061","4.253","294.3","6.893","287.4","NAN","NAN","NAN","NAN","NAN"],
    [1545072,"2026-03-15 09:00:00","46062","5.2010000000000005","305.6","8.36","298.9","NAN","NAN","NAN","NAN","NAN"],
    [1545073,"2026-03-15 09:10:00","46063","6.117000000000001","304.1","9.11","286.4","NAN","NAN","NAN","NAN","NAN"],
    [1545074,"2026-03-15 09:20:00","46064","5.7170000000000005","304.4","8.3","292.1","NAN","NAN","NAN","NAN","NAN"],
    [1545075,"2026-03-15 09:30:00","46065","5.12","305.7","8.53","287.8","NAN","NAN","NAN","NAN","NAN"],
    [1545076,"2026-03-15 09:40:00","46066","5.775","296.5","9.38","301.9","NAN","NAN","NAN","NAN","NAN"],
    [1545077,"2026-03-15 09:50:00","46067","6.2620000000000005","299.1","10.22","308.7","NAN","NAN","NAN","NAN","NAN"],
    [1545078,"2026-03-15 10:00:00","46068","5.231","306.2","9.08","297.6","NAN","NAN","NAN","NAN","NAN"],
    [1545079,"2026-03-15 10:10:00","46069","5.072","295.5","7.84","286.1","NAN","NAN","NAN","NAN","NAN"],
    [1545080,"2026-03-15 10:20:00","46070","5.4910000000000005","294.2","7.938","282.4","NAN","NAN","NAN","NAN","NAN"],
    [1545081,"2026-03-15 10:30:00","46071","5.769","302.2","8.85","304.6","NAN","NAN","NAN","NAN","NAN"],
    [1545082,"2026-03-15 10:40:00","46072","5.09","293.7","7.742","289.8","NAN","NAN","NAN","NAN","NAN"],
    [1545083,"2026-03-15 10:50:00","46073","5.096","292.4","8.17","270.6","NAN","NAN","NAN","NAN","NAN"],
    [1545084,"2026-03-15 11:00:00","46074","3.983","290.0","6.599","282.9","NAN","NAN","NAN","NAN","NAN"],
    [1545085,"2026-03-15 11:10:00","46075","3.742","286.8","7.187","318.1","NAN","NAN","NAN","NAN","NAN"],
    [1545086,"2026-03-15 11:20:00","46076","3.6430000000000002","284.5","6.762","282.6","NAN","NAN","NAN","NAN","NAN"],
    [1545087,"2026-03-15 11:30:00","46077","4.843","291.5","8.1","300.8","NAN","NAN","NAN","NAN","NAN"],
    [1545088,"2026-03-15 11:40:00","46078","4.383","303.0","6.991","305.8","NAN","NAN","NAN","NAN","NAN"],
    [1545089,"2026-03-15 11:50:00","46079","4.832","312.4","8.43","3.24","NAN","NAN","NAN","NAN","NAN"],
    [1545090,"2026-03-15 12:00:00","46080","3.495","341.7","6.958","325.9","NAN","NAN","NAN","NAN","NAN"],
    [1545091,"2026-03-15 12:10:00","46081","4.239","323.2","7.579","326.5","NAN","NAN","NAN","NAN","NAN"],
    [1545092,"2026-03-15 12:20:00","46082","4.192","344.8","7.089","339.8","NAN","NAN","NAN","NAN","NAN"],
    [1545093,"2026-03-15 12:30:00","46083","2.708","314.5","5.161","288.8","NAN","NAN","NAN","NAN","NAN"],
    [1545094,"2026-03-15 12:40:00","46084","3.636","346.5","5.978","336.8","NAN","NAN","NAN","NAN","NAN"],
    [1545095,"2026-03-15 12:50:00","46085","2.885","5.0489999999999995","6.664","341.4","NAN","NAN","NAN","NAN","NAN"],
    [1545096,"2026-03-15 13:00:00","46086","2.013","13.46","5.325","98.6","NAN","NAN","NAN","NAN","NAN"],
    [1545097,"2026-03-15 13:10:00","46087","1.729","81.9","5.259","19.18","NAN","NAN","NAN","NAN","NAN"],
    [1545098,"2026-03-15 13:20:00","46088","2.435","121.9","5.553","144","NAN","NAN","NAN","NAN","NAN"],
    [1545099,"2026-03-15 13:30:00","46089","3.9389999999999996","129.4","5.847","136.8","NAN","NAN","NAN","NAN","NAN"],
    [1545100,"2026-03-15 13:40:00","46090","4.137","135.6","6.272","137.3","NAN","NAN","NAN","NAN","NAN"],
    [1545101,"2026-03-15 13:50:00","46091","5.044","138.8","7.154","141.5","NAN","NAN","NAN","NAN","NAN"],
    [1545102,"2026-03-15 14:00:00","46092","4.205","145.0","6.141","161.9","NAN","NAN","NAN","NAN","NAN"],
    [1545103,"2026-03-15 14:10:00","46093","4.854","149.2","7.285","158.7","NAN","NAN","NAN","NAN","NAN"],
    [1545104,"2026-03-15 14:20:00","46094","4.687","151.4","7.089","164.4","NAN","NAN","NAN","NAN","NAN"],
    [1545105,"2026-03-15 14:30:00","46095","5.095","152.3","7.644","154.3","NAN","NAN","NAN","NAN","NAN"],
    [1545106,"2026-03-15 14:40:00","46096","4.36","142.5","6.305","119.6","NAN","NAN","NAN","NAN","NAN"],
    [1545107,"2026-03-15 14:50:00","46097","4.226","151.1","6.403","169.8","NAN","NAN","NAN","NAN","NAN"],
    [1545108,"2026-03-15 15:00:00","46098","4.768","161.4","7.677","155","NAN","NAN","NAN","NAN","NAN"],
    [1545109,"2026-03-15 15:10:00","46099","5.428","168.6","7.873","159.6","NAN","NAN","NAN","NAN","NAN"],
    [1545110,"2026-03-15 15:20:00","46100","4.474","169.0","7.285","171","NAN","NAN","NAN","NAN","NAN"],
    [1545111,"2026-03-15 15:30:00","46101","3.918","173.3","6.403","185.5","NAN","NAN","NAN","NAN","NAN"],
    [1545112,"2026-03-15 15:40:00","46102","3.8080000000000003","173.0","6.599","166.3","NAN","NAN","NAN","NAN","NAN"],
    [1545113,"2026-03-15 15:50:00","46103","3.7939999999999996","167.6","5.651","159","NAN","NAN","NAN","NAN","NAN"],
    [1545114,"2026-03-15 16:00:00","46104","4.671","165.6","6.893","165.3","NAN","NAN","NAN","NAN","NAN"],
    [1545115,"2026-03-15 16:10:00","46105","3.595","159.9","6.697","183.6","NAN","NAN","NAN","NAN","NAN"],
    [1545116,"2026-03-15 16:20:00","46106","3.5389999999999997","151.9","5.978","155.2","NAN","NAN","NAN","NAN","NAN"],
    [1545117,"2026-03-15 16:30:00","46107","3.659","151.4","5.782","152.5","NAN","NAN","NAN","NAN","NAN"],
    [1545118,"2026-03-15 16:40:00","46108","3.5589999999999997","158.4","6.043","167.5","NAN","NAN","NAN","NAN","NAN"],
    [1545119,"2026-03-15 16:50:00","46109","3.272","147.0","4.835","146.4","NAN","NAN","NAN","NAN","NAN"],
    [1545120,"2026-03-15 17:00:00","46110","3.302","141.3","5.292","142","NAN","NAN","NAN","NAN","NAN"],
    [1545121,"2026-03-15 17:10:00","46111","2.6460000000000004","142.0","3.953","156","NAN","NAN","NAN","NAN","NAN"],
    [1545122,"2026-03-15 17:20:00","46112","2.0909999999999997","148.6","4.573","145.4","NAN","NAN","NAN","NAN","NAN"],
    [1545123,"2026-03-15 17:30:00","46113","2.01","140.2","4.541","129.9","NAN","NAN","NAN","NAN","NAN"],
    [1545124,"2026-03-15 17:40:00","46114","1.57","157.6","2.744","160.9","NAN","NAN","NAN","NAN","NAN"],
    [1545125,"2026-03-15 17:50:00","46115","1.7619999999999998","148.2","3.136","162.4","NAN","NAN","NAN","NAN","NAN"],
    [1545126,"2026-03-15 18:00:00","46116","0.8440000000000001","144.4","2.352","142.2","NAN","NAN","NAN","NAN","NAN"],
    [1545127,"2026-03-15 18:10:00","46117","0.26","148.8","1.568","148.8","NAN","NAN","NAN","NAN","NAN"],
    [1545128,"2026-03-15 18:20:00","46118","0.07","150.1","1.209","149.4","NAN","NAN","NAN","NAN","NAN"],
    [1545129,"2026-03-15 18:30:00","46119","0.207","152.1","1.176","151.8","NAN","NAN","NAN","NAN","NAN"],
    [1545130,"2026-03-15 18:40:00","46120","0.095","159.1","1.241","155.3","NAN","NAN","NAN","NAN","NAN"],
    [1545131,"2026-03-15 18:50:00","46121","0.192","199.5","0.98","204","NAN","NAN","NAN","NAN","NAN"],
    [1545132,"2026-03-15 19:00:00","46122","0.10300000000000001","212.9","1.045","213.8","NAN","NAN","NAN","NAN","NAN"],
    [1545133,"2026-03-15 19:10:00","46123","0.978","227.7","2.352","239.4","NAN","NAN","NAN","NAN","NAN"],
    [1545134,"2026-03-15 19:20:00","46124","0.19399999999999998","240.5","1.47","240.4","NAN","NAN","NAN","NAN","NAN"],
    [1545135,"2026-03-15 19:30:00","46125","0.402","240.7","1.274","240.7","NAN","NAN","NAN","NAN","NAN"],
    [1545136,"2026-03-15 19:40:00","46126","0.055999999999999994","242.1","1.078","242.3","NAN","NAN","NAN","NAN","NAN"],
    [1545137,"2026-03-15 19:50:00","46127","0.267","244.7","1.372","242.5","NAN","NAN","NAN","NAN","NAN"],
    [1545138,"2026-03-15 20:00:00","46128","0.7759999999999999","255.7","1.633","258.3","NAN","NAN","NAN","NAN","NAN"],
    [1545139,"2026-03-15 20:10:00","46129","0.486","260.9","1.307","260.7","NAN","NAN","NAN","NAN","NAN"],
    [1545140,"2026-03-15 20:20:00","46130","0.139","261.5","1.241","261.5","NAN","NAN","NAN","NAN","NAN"],
    [1545141,"2026-03-15 20:30:00","46131","0.843","262.8","1.829","263.3","NAN","NAN","NAN","NAN","NAN"],
    [1545142,"2026-03-15 20:40:00","46132","0.857","265.4","2.221","265.2","NAN","NAN","NAN","NAN","NAN"],
    [1545143,"2026-03-15 20:50:00","46133","1.34","265.8","2.45","266.8","NAN","NAN","NAN","NAN","NAN"],
    [1545144,"2026-03-15 21:00:00","46134","1.757","266.2","3.136","266.9","NAN","NAN","NAN","NAN","NAN"],
    [1545145,"2026-03-15 21:10:00","46135","2.03","267.3","3.299","270.2","NAN","NAN","NAN","NAN","NAN"],
    [1545146,"2026-03-15 21:20:00","46136","1.865","272.2","3.463","274","NAN","NAN","NAN","NAN","NAN"],
    [1545147,"2026-03-15 21:30:00","46137","1.7109999999999999","283.1","3.201","282.6","NAN","NAN","NAN","NAN","NAN"],
    [1545148,"2026-03-15 21:40:00","46138","2.022","285.4","3.267","278.6","NAN","NAN","NAN","NAN","NAN"],
    [1545149,"2026-03-15 21:50:00","46139","2.305","279.4","3.953","273.4","NAN","NAN","NAN","NAN","NAN"],
    [1545150,"2026-03-15 22:00:00","46140","2.9530000000000003","287.9","4.933","284.6","NAN","NAN","NAN","NAN","NAN"],
    [1545151,"2026-03-15 22:10:00","46141","3.472","297.8","4.769","296.2","NAN","NAN","NAN","NAN","NAN"],
    [1545152,"2026-03-15 22:20:00","46142","2.318","304.8","3.92","300","NAN","NAN","NAN","NAN","NAN"],
    [1545153,"2026-03-15 22:30:00","46143","1.4409999999999998","294.9","2.646","297.4","NAN","NAN","NAN","NAN","NAN"],
    [1545154,"2026-03-15 22:40:00","46144","1.636","289.9","2.385","289.2","NAN","NAN","NAN","NAN","NAN"],
    [1545155,"2026-03-15 22:50:00","46145","1.776","290.2","2.679","292","NAN","NAN","NAN","NAN","NAN"],
    [1545156,"2026-03-15 23:00:00","46146","1.298","291.3","2.254","288.9","NAN","NAN","NAN","NAN","NAN"],
    [1545157,"2026-03-15 23:10:00","46147","1.3359999999999999","289.8","2.352","288.8","NAN","NAN","NAN","NAN","NAN"],
    [1545158,"2026-03-15 23:20:00","46148","2.053","292.2","4.247","288.7","NAN","NAN","NAN","NAN","NAN"],
    [1545159,"2026-03-15 23:30:00","46149","2.887","281.8","3.985","279.3","NAN","NAN","NAN","NAN","NAN"],
    [1545160,"2026-03-15 23:40:00","46150","2.105","280.9","3.789","288.3","NAN","NAN","NAN","NAN","NAN"],
    [1545161,"2026-03-15 23:50:00","46151","1.538","278.1","2.319","271.7","NAN","NAN","NAN","NAN","NAN"],
    [1545162,"2026-03-16 00:00:00","46152","1.905","277.5","2.679","281","NAN","NAN","NAN","NAN","NAN"],
    [1545163,"2026-03-16 00:10:00","46153","1.508","275.7","2.385","277.2","NAN","NAN","NAN","NAN","NAN"],
    [1545164,"2026-03-16 00:20:00","46154","1.5230000000000001","285.1","2.45","285.2","NAN","NAN","NAN","NAN","NAN"],
    [1545165,"2026-03-16 00:30:00","46155","1.808","287.2","2.875","282.1","NAN","NAN","NAN","NAN","NAN"],
    [1545166,"2026-03-16 00:40:00","46156","2.11","304.5","3.659","309.7","NAN","NAN","NAN","NAN","NAN"],
    [1545167,"2026-03-16 00:50:00","46157","1.4180000000000001","304.1","2.189","311","NAN","NAN","NAN","NAN","NAN"],
    [1545168,"2026-03-16 01:00:00","46158","2.415","322.9","4.345","328","NAN","NAN","NAN","NAN","NAN"],
    [1545169,"2026-03-16 01:10:00","46159","1.857","321.5","3.495","328.7","NAN","NAN","NAN","NAN","NAN"],
    [1545170,"2026-03-16 01:20:00","46160","2.4090000000000003","320.4","4.475","327.2","NAN","NAN","NAN","NAN","NAN"],
    [1545171,"2026-03-16 01:30:00","46161","3.286","324.1","5.161","334.2","NAN","NAN","NAN","NAN","NAN"],
    [1545172,"2026-03-16 01:40:00","46162","2.015","315.8","3.365","329.7","NAN","NAN","NAN","NAN","NAN"],
    [1545173,"2026-03-16 01:50:00","46163","2.04","315.6","4.083","304.1","NAN","NAN","NAN","NAN","NAN"],
    [1545174,"2026-03-16 02:00:00","46164","2.396","320.7","5.063","330.2","NAN","NAN","NAN","NAN","NAN"],
    [1545175,"2026-03-16 02:10:00","46165","3.466","323.8","5.586","331","NAN","NAN","NAN","NAN","NAN"],
    [1545176,"2026-03-16 02:20:00","46166","3.0660000000000003","308.0","6.305","306.8","NAN","NAN","NAN","NAN","NAN"],
    [1545177,"2026-03-16 02:30:00","46167","2.832","316.8","5.357","321","NAN","NAN","NAN","NAN","NAN"],
    [1545178,"2026-03-16 02:40:00","46168","2.279","314.1","4.181","303.3","NAN","NAN","NAN","NAN","NAN"],
    [1545179,"2026-03-16 02:50:00","46169","3.002","303.7","4.508","307.4","NAN","NAN","NAN","NAN","NAN"],
    [1545180,"2026-03-16 03:00:00","46170","2.568","296.2","5.782","308.4","NAN","NAN","NAN","NAN","NAN"],
    [1545181,"2026-03-16 03:10:00","46171","3.2560000000000002","308.4","5.815","323.9","NAN","NAN","NAN","NAN","NAN"],
    [1545182,"2026-03-16 03:20:00","46172","2.8139999999999996","311.9","5.455","316.7","NAN","NAN","NAN","NAN","NAN"],
    [1545183,"2026-03-16 03:30:00","46173","3.424","309.5","5.913","323.4","NAN","NAN","NAN","NAN","NAN"],
    [1545184,"2026-03-16 03:40:00","46174","3.8819999999999997","311.5","6.109","302.9","NAN","NAN","NAN","NAN","NAN"],
    [1545185,"2026-03-16 03:50:00","46175","3.529","313.8","6.533","310","NAN","NAN","NAN","NAN","NAN"],
    [1545186,"2026-03-16 04:00:00","46176","3.3369999999999997","312.4","6.827","311.6","NAN","NAN","NAN","NAN","NAN"],
    [1545187,"2026-03-16 04:10:00","46177","3.029","309.7","5.619","298.3","NAN","NAN","NAN","NAN","NAN"],
    [1545188,"2026-03-16 04:20:00","46178","3.0389999999999997","304.5","4.671","321.3","NAN","NAN","NAN","NAN","NAN"],
    [1545189,"2026-03-16 04:30:00","46179","2.775","300.2","4.933","287.9","NAN","NAN","NAN","NAN","NAN"],
    [1545190,"2026-03-16 04:40:00","46180","3.779","301.3","5.847","305","NAN","NAN","NAN","NAN","NAN"],
    [1545191,"2026-03-16 04:50:00","46181","3.782","315.7","6.762","314.3","NAN","NAN","NAN","NAN","NAN"],
    [1545192,"2026-03-16 05:00:00","46182","4.336","306.4","8.4","299.6","NAN","NAN","NAN","NAN","NAN"],
    [1545193,"2026-03-16 05:10:00","46183","4.704","302.8","7.611","300.3","NAN","NAN","NAN","NAN","NAN"],
    [1545194,"2026-03-16 05:20:00","46184","2.0469999999999997","309.0","4.867","298.2","NAN","NAN","NAN","NAN","NAN"],
    [1545195,"2026-03-16 05:30:00","46185","2.1590000000000003","297.2","5.161","289.3","NAN","NAN","NAN","NAN","NAN"],
    [1545196,"2026-03-16 05:40:00","46186","2.35","299.5","5.292","307.4","NAN","NAN","NAN","NAN","NAN"],
    [1545197,"2026-03-16 05:50:00","46187","2.906","292.9","5.553","280.6","NAN","NAN","NAN","NAN","NAN"],
    [1545198,"2026-03-16 06:00:00","46188","3.222","280.7","5.945","284.9","NAN","NAN","NAN","NAN","NAN"],
    [1545199,"2026-03-16 06:10:00","46189","3.8680000000000003","285.6","6.958","284.7","NAN","NAN","NAN","NAN","NAN"],
    [1545200,"2026-03-16 06:20:00","46190","4.356","292.8","7.187","300.1","NAN","NAN","NAN","NAN","NAN"],
    [1545201,"2026-03-16 06:30:00","46191","5.126","298.5","7.971","298.2","NAN","NAN","NAN","NAN","NAN"],
    [1545202,"2026-03-16 06:40:00","46192","4.15","293.9","6.37","298.7","NAN","NAN","NAN","NAN","NAN"],
    [1545203,"2026-03-16 06:50:00","46193","4.416","296.1","7.742","303","NAN","NAN","NAN","NAN","NAN"],
    [1545204,"2026-03-16 07:00:00","46194","4.455","296.8","6.631","289.7","NAN","NAN","NAN","NAN","NAN"],
    [1545205,"2026-03-16 07:10:00","46195","4.775","291.6","7.644","289.6","NAN","NAN","NAN","NAN","NAN"],
    [1545206,"2026-03-16 07:20:00","46196","5.65","294.8","8.62","285.7","NAN","NAN","NAN","NAN","NAN"],
    [1545207,"2026-03-16 07:30:00","46197","5.687","305.6","9.64","290.1","NAN","NAN","NAN","NAN","NAN"],
    [1545208,"2026-03-16 07:40:00","46198","4.565","292.1","7.383","287.7","NAN","NAN","NAN","NAN","NAN"],
    [1545209,"2026-03-16 07:50:00","46199","4.113","288.3","7.154","300.6","NAN","NAN","NAN","NAN","NAN"],
    [1545210,"2026-03-16 08:00:00","46200","5.0569999999999995","287.9","8.26","280.9","NAN","NAN","NAN","NAN","NAN"],
    [1545211,"2026-03-16 08:10:00","46201","5.8020000000000005","293.5","10.36","298.5","NAN","NAN","NAN","NAN","NAN"],
    [1545212,"2026-03-16 08:20:00","46202","5.3839999999999995","291.8","8.56","294.5","NAN","NAN","NAN","NAN","NAN"],
    [1545213,"2026-03-16 08:30:00","46203","5.611000000000001","295.1","9.11","295.7","NAN","NAN","NAN","NAN","NAN"],
    [1545214,"2026-03-16 08:40:00","46204","4.902","303.4","8.69","303.1","NAN","NAN","NAN","NAN","NAN"],
    [1545215,"2026-03-16 08:50:00","46205","4.16","294.4","6.501","293.9","NAN","NAN","NAN","NAN","NAN"],
    [1545216,"2026-03-16 09:00:00","46206","4.873","299.9","6.958","301.2","NAN","NAN","NAN","NAN","NAN"],
    [1545217,"2026-03-16 09:10:00","46207","4.131","298.5","6.631","289.7","NAN","NAN","NAN","NAN","NAN"],
    [1545218,"2026-03-16 09:20:00","46208","4.362","299.6","6.697","293.8","NAN","NAN","NAN","NAN","NAN"],
    [1545219,"2026-03-16 09:30:00","46209","4.099","303.8","7.056","305.7","NAN","NAN","NAN","NAN","NAN"],
    [1545220,"2026-03-16 09:40:00","46210","4.047","299.2","6.272","296.2","NAN","NAN","NAN","NAN","NAN"],
    [1545221,"2026-03-16 09:50:00","46211","4.145","293.1","6.762","293.8","NAN","NAN","NAN","NAN","NAN"],
    [1545222,"2026-03-16 10:00:00","46212","4.2860000000000005","299.0","6.599","302.8","NAN","NAN","NAN","NAN","NAN"],
    [1545223,"2026-03-16 10:10:00","46213","3.444","303.8","5.096","315.6","NAN","NAN","NAN","NAN","NAN"],
    [1545224,"2026-03-16 10:20:00","46214","3.888","299.0","6.925","292.6","NAN","NAN","NAN","NAN","NAN"],
    [1545225,"2026-03-16 10:30:00","46215","3.5860000000000003","300.8","5.847","281.9","NAN","NAN","NAN","NAN","NAN"],
    [1545226,"2026-03-16 10:40:00","46216","3.45","304.3","5.325","299","NAN","NAN","NAN","NAN","NAN"],
    [1545227,"2026-03-16 10:50:00","46217","2.965","307.5","5.063","318.8","NAN","NAN","NAN","NAN","NAN"],
    [1545228,"2026-03-16 11:00:00","46218","3.313","296.5","5.39","290.8","NAN","NAN","NAN","NAN","NAN"],
    [1545229,"2026-03-16 11:10:00","46219","3.4589999999999996","307.9","5.161","301.1","NAN","NAN","NAN","NAN","NAN"],
    [1545230,"2026-03-16 11:20:00","46220","3.798","302.4","5.88","303.7","NAN","NAN","NAN","NAN","NAN"],
    [1545231,"2026-03-16 11:30:00","46221","3.073","286.3","5.553","274.4","NAN","NAN","NAN","NAN","NAN"],
    [1545232,"2026-03-16 11:40:00","46222","2.364","294.5","4.312","298.3","NAN","NAN","NAN","NAN","NAN"],
    [1545233,"2026-03-16 11:50:00","46223","3.008","290.0","5.031","275","NAN","NAN","NAN","NAN","NAN"],
    [1545234,"2026-03-16 12:00:00","46224","2.2569999999999997","296.8","4.541","287.7","NAN","NAN","NAN","NAN","NAN"],
    [1545235,"2026-03-16 12:10:00","46225","0.637","269.7","3.43","284.5","NAN","NAN","NAN","NAN","NAN"],
    [1545236,"2026-03-16 12:20:00","46226","0.665","195.8","2.483","182.7","NAN","NAN","NAN","NAN","NAN"],
    [1545237,"2026-03-16 12:30:00","46227","0.71","179.2","2.679","171.2","NAN","NAN","NAN","NAN","NAN"],
    [1545238,"2026-03-16 12:40:00","46228","3.3080000000000003","230.5","5.945","264.5","NAN","NAN","NAN","NAN","NAN"],
    [1545239,"2026-03-16 12:50:00","46229","4.02","211.2","5.521","218.5","NAN","NAN","NAN","NAN","NAN"],
    [1545240,"2026-03-16 13:00:00","46230","2.928","193.8","5.194","170.2","NAN","NAN","NAN","NAN","NAN"],
    [1545241,"2026-03-16 13:10:00","46231","3.944","207.2","6.827","209.7","NAN","NAN","NAN","NAN","NAN"],
    [1545242,"2026-03-16 13:20:00","46232","4.26","204.5","6.305","205.4","NAN","NAN","NAN","NAN","NAN"],
    [1545243,"2026-03-16 13:30:00","46233","4.513","206.4","6.305","212.1","NAN","NAN","NAN","NAN","NAN"],
    [1545244,"2026-03-16 13:40:00","46234","4.144","206.7","6.239","203.6","NAN","NAN","NAN","NAN","NAN"],
    [1545245,"2026-03-16 13:50:00","46235","3.463","228.9","5.717","211.9","NAN","NAN","NAN","NAN","NAN"],
    [1545246,"2026-03-16 14:00:00","46236","4.4030000000000005","208.3","6.729","206.4","NAN","NAN","NAN","NAN","NAN"],
    [1545247,"2026-03-16 14:10:00","46237","4.061","211.9","6.207","211.9","NAN","NAN","NAN","NAN","NAN"],
    [1545248,"2026-03-16 14:20:00","46238","3.824","214.5","6.305","207.7","NAN","NAN","NAN","NAN","NAN"],
    [1545249,"2026-03-16 14:30:00","46239","3.657","219.0","6.207","203.3","NAN","NAN","NAN","NAN","NAN"],
    [1545250,"2026-03-16 14:40:00","46240","3.6239999999999997","213.1","6.599","211.6","NAN","NAN","NAN","NAN","NAN"],
    [1545251,"2026-03-16 14:50:00","46241","3.535","219.1","5.847","216.5","NAN","NAN","NAN","NAN","NAN"],
    [1545252,"2026-03-16 15:00:00","46242","3.588","227.0","5.88","234.7","NAN","NAN","NAN","NAN","NAN"],
    [1545253,"2026-03-16 15:10:00","46243","4.034","210.7","6.631","203","NAN","NAN","NAN","NAN","NAN"],
    [1545254,"2026-03-16 15:20:00","46244","4.033","210.0","6.272","207.6","NAN","NAN","NAN","NAN","NAN"],
    [1545255,"2026-03-16 15:30:00","46245","3.971","209.2","6.729","204.8","NAN","NAN","NAN","NAN","NAN"],
    [1545256,"2026-03-16 15:40:00","46246","3.839","231.0","6.958","217.3","NAN","NAN","NAN","NAN","NAN"],
    [1545257,"2026-03-16 15:50:00","46247","4.244","226.0","7.154","220.7","NAN","NAN","NAN","NAN","NAN"],
    [1545258,"2026-03-16 16:00:00","46248","3.6439999999999997","219.9","6.958","222.3","NAN","NAN","NAN","NAN","NAN"],
    [1545259,"2026-03-16 16:10:00","46249","3.844","214.7","6.599","222.4","NAN","NAN","NAN","NAN","NAN"],
    [1545260,"2026-03-16 16:20:00","46250","3.532","223.6","8.04","209.2","NAN","NAN","NAN","NAN","NAN"],
    [1545261,"2026-03-16 16:30:00","46251","3.9539999999999997","215.1","6.174","212.3","NAN","NAN","NAN","NAN","NAN"],
    [1545262,"2026-03-16 16:40:00","46252","3.673","221.7","6.533","211.7","NAN","NAN","NAN","NAN","NAN"],
    [1545263,"2026-03-16 16:50:00","46253","3.887","220.5","7.317","228.6","NAN","NAN","NAN","NAN","NAN"],
    [1545264,"2026-03-16 17:00:00","46254","2.4","226.9","4.443","220.9","NAN","NAN","NAN","NAN","NAN"],
    [1545265,"2026-03-16 17:10:00","46255","2.7539999999999996","224.5","4.867","234.2","NAN","NAN","NAN","NAN","NAN"],
    [1545266,"2026-03-16 17:20:00","46256","3.122","219.1","5.553","220.3","NAN","NAN","NAN","NAN","NAN"],
    [1545267,"2026-03-16 17:30:00","46257","3.136","224.0","6.305","244","NAN","NAN","NAN","NAN","NAN"],
    [1545268,"2026-03-16 17:40:00","46258","2.4290000000000003","225.8","4.345","224.6","NAN","NAN","NAN","NAN","NAN"],
    [1545269,"2026-03-16 17:50:00","46259","2.766","219.5","5.586","231.7","NAN","NAN","NAN","NAN","NAN"],
    [1545270,"2026-03-16 18:00:00","46260","2.352","228.8","4.835","238.5","NAN","NAN","NAN","NAN","NAN"],
    [1545271,"2026-03-16 18:10:00","46261","2.112","234.3","4.377","236","NAN","NAN","NAN","NAN","NAN"],
    [1545272,"2026-03-16 18:20:00","46262","3.057","236.7","5.031","236.7","NAN","NAN","NAN","NAN","NAN"],
    [1545273,"2026-03-16 18:30:00","46263","2.546","239.7","4.41","238.8","NAN","NAN","NAN","NAN","NAN"],
    [1545274,"2026-03-16 18:40:00","46264","2.995","239.2","5.096","236.9","NAN","NAN","NAN","NAN","NAN"],
    [1545275,"2026-03-16 18:50:00","46265","3.05","248.2","5.259","250.9","NAN","NAN","NAN","NAN","NAN"],
    [1545276,"2026-03-16 19:00:00","46266","2.71","245.1","4.671","248.2","NAN","NAN","NAN","NAN","NAN"],
    [1545277,"2026-03-16 19:10:00","46267","2.616","244.6","3.985","244.3","NAN","NAN","NAN","NAN","NAN"],
    [1545278,"2026-03-16 19:20:00","46268","2.229","247.4","3.561","244.5","NAN","NAN","NAN","NAN","NAN"],
    [1545279,"2026-03-16 19:30:00","46269","1.2819999999999998","244.2","3.071","234.3","NAN","NAN","NAN","NAN","NAN"],
    [1545280,"2026-03-16 19:40:00","46270","1.301","253.8","2.777","251","NAN","NAN","NAN","NAN","NAN"],
    [1545281,"2026-03-16 19:50:00","46271","1.393","257.9","2.875","260.4","NAN","NAN","NAN","NAN","NAN"],
    [1545282,"2026-03-16 20:00:00","46272","1.29","260.4","2.613","262.3","NAN","NAN","NAN","NAN","NAN"],
    [1545283,"2026-03-16 20:10:00","46273","1.311","258.4","2.385","260.5","NAN","NAN","NAN","NAN","NAN"],
    [1545284,"2026-03-16 20:20:00","46274","1.665","254.2","3.071","249.8","NAN","NAN","NAN","NAN","NAN"],
    [1545285,"2026-03-16 20:30:00","46275","1.4969999999999999","258.9","2.777","253.1","NAN","NAN","NAN","NAN","NAN"],
    [1545286,"2026-03-16 20:40:00","46276","1.54","258.7","2.287","257.8","NAN","NAN","NAN","NAN","NAN"],
    [1545287,"2026-03-16 20:50:00","46277","0.89","261.1","1.895","261.2","NAN","NAN","NAN","NAN","NAN"],
    [1545288,"2026-03-16 21:00:00","46278","1.996","252.7","3.495","252.9","NAN","NAN","NAN","NAN","NAN"],
    [1545289,"2026-03-16 21:10:00","46279","2.275","254.2","3.005","257.5","NAN","NAN","NAN","NAN","NAN"],
    [1545290,"2026-03-16 21:20:00","46280","1.8519999999999999","262.3","3.071","260.6","NAN","NAN","NAN","NAN","NAN"],
    [1545291,"2026-03-16 21:30:00","46281","1.209","262.4","2.483","261.9","NAN","NAN","NAN","NAN","NAN"],
    [1545292,"2026-03-16 21:40:00","46282","0.196","260.5","1.503","259.6","NAN","NAN","NAN","NAN","NAN"],
    [1545293,"2026-03-16 21:50:00","46283","1.541","259.7","2.189","262.1","NAN","NAN","NAN","NAN","NAN"],
    [1545294,"2026-03-16 22:00:00","46284","1.3980000000000001","255.9","2.254","257","NAN","NAN","NAN","NAN","NAN"],
    [1545295,"2026-03-16 22:10:00","46285","2.081","253.8","2.94","252.2","NAN","NAN","NAN","NAN","NAN"],
    [1545296,"2026-03-16 22:20:00","46286","1.886","251.1","3.561","250.7","NAN","NAN","NAN","NAN","NAN"],
    [1545297,"2026-03-16 22:30:00","46287","2.1959999999999997","258.8","3.691","267.2","NAN","NAN","NAN","NAN","NAN"],
    [1545298,"2026-03-16 22:40:00","46288","1.764","270.8","3.136","270.3","NAN","NAN","NAN","NAN","NAN"],
    [1545299,"2026-03-16 22:50:00","46289","1.699","257.6","2.842","255.7","NAN","NAN","NAN","NAN","NAN"],
    [1545300,"2026-03-16 23:00:00","46290","1.36","259.9","2.385","261.2","NAN","NAN","NAN","NAN","NAN"],
    [1545301,"2026-03-16 23:10:00","46291","1.355","258.5","2.254","257.8","NAN","NAN","NAN","NAN","NAN"],
    [1545302,"2026-03-16 23:20:00","46292","0.594","257.2","1.764","255.4","NAN","NAN","NAN","NAN","NAN"],
    [1545303,"2026-03-16 23:30:00","46293","0.031","263.3","0.523","263","NAN","NAN","NAN","NAN","NAN"],
    [1545304,"2026-03-16 23:40:00","46294","0.0","0.0","0","0","NAN","NAN","NAN","NAN","NAN"],
    [1545305,"2026-03-16 23:50:00","46295","0.0","0.0","0","0","NAN","NAN","NAN","NAN","NAN"],
    [1545306,"2026-03-17 00:00:00","46296","0.0","0.0","0","0","NAN","NAN","NAN","NAN","NAN"],
    [1545307,"2026-03-17 00:10:00","46297","0.0","0.0","0","0","NAN","NAN","NAN","NAN","NAN"],
    [1545308,"2026-03-17 00:20:00","46298","0.0","0.0","0","0","NAN","NAN","NAN","NAN","NAN"],
    [1545309,"2026-03-17 00:30:00","46299","0.0","0.0","0","0","NAN","NAN","NAN","NAN","NAN"],
    [1545310,"2026-03-17 00:40:00","46300","0.0","0.0","0","0","NAN","NAN","NAN","NAN","NAN"],
    [1545311,"2026-03-17 00:50:00","46301","0.948","266.1","1.568","266","NAN","NAN","NAN","NAN","NAN"],
    [1545312,"2026-03-17 01:00:00","46302","0.256","266.5","1.241","266.2","NAN","NAN","NAN","NAN","NAN"],
    [1545313,"2026-03-17 01:10:00","46303","0.604","266.3","1.143","266.3","NAN","NAN","NAN","NAN","NAN"],
    [1545314,"2026-03-17 01:20:00","46304","0.0","0.0","0","0","NAN","NAN","NAN","NAN","NAN"],
    [1545315,"2026-03-17 01:30:00","46305","0.258","266.8","0.947","267","NAN","NAN","NAN","NAN","NAN"],
    [1545316,"2026-03-17 01:40:00","46306","0.779","268.3","1.535","268.6","NAN","NAN","NAN","NAN","NAN"],
    [1545317,"2026-03-17 01:50:00","46307","0.614","269.0","1.339","269.3","NAN","NAN","NAN","NAN","NAN"],
    [1545318,"2026-03-17 02:00:00","46308","1.104","270.0","1.731","270.5","NAN","NAN","NAN","NAN","NAN"],
    [1545319,"2026-03-17 02:10:00","46309","0.654","270.9","1.503","270.8","NAN","NAN","NAN","NAN","NAN"],
    [1545320,"2026-03-17 02:20:00","46310","0.48100000000000004","271.1","1.045","271.1","NAN","NAN","NAN","NAN","NAN"],
    [1545321,"2026-03-17 02:30:00","46311","0.7290000000000001","271.4","1.405","271.3","NAN","NAN","NAN","NAN","NAN"],
    [1545322,"2026-03-17 02:40:00","46312","0.02","271.7","0.621","271.7","NAN","NAN","NAN","NAN","NAN"],
    [1545323,"2026-03-17 02:50:00","46313","0.0","0.0","0","0","NAN","NAN","NAN","NAN","NAN"],
    [1545324,"2026-03-17 03:00:00","46314","1.214","271.8","2.352","271.7","NAN","NAN","NAN","NAN","NAN"],
    [1545325,"2026-03-17 03:10:00","46315","1.463","273.5","2.319","275.4","NAN","NAN","NAN","NAN","NAN"],
    [1545326,"2026-03-17 03:20:00","46316","1.46","287.3","2.45","281.9","NAN","NAN","NAN","NAN","NAN"],
    [1545327,"2026-03-17 03:30:00","46317","1.6840000000000002","287.9","3.038","289.9","NAN","NAN","NAN","NAN","NAN"],
    [1545328,"2026-03-17 03:40:00","46318","1.696","282.2","2.809","281.7","NAN","NAN","NAN","NAN","NAN"],
    [1545329,"2026-03-17 03:50:00","46319","0.397","279.3","1.503","283.3","NAN","NAN","NAN","NAN","NAN"],
    [1545330,"2026-03-17 04:00:00","46320","0.315","282.8","0.915","283.4","NAN","NAN","NAN","NAN","NAN"],
    [1545331,"2026-03-17 04:10:00","46321","1.0390000000000001","282.1","1.666","278.7","NAN","NAN","NAN","NAN","NAN"],
    [1545332,"2026-03-17 04:20:00","46322","0.728","277.9","1.731","279","NAN","NAN","NAN","NAN","NAN"],
    [1545333,"2026-03-17 04:30:00","46323","0.595","281.0","1.47","277.2","NAN","NAN","NAN","NAN","NAN"],
    [1545334,"2026-03-17 04:40:00","46324","1.177","285.2","2.483","281.1","NAN","NAN","NAN","NAN","NAN"],
    [1545335,"2026-03-17 04:50:00","46325","0.649","286.7","1.699","288.6","NAN","NAN","NAN","NAN","NAN"],
    [1545336,"2026-03-17 05:00:00","46326","0.888","287.8","1.699","288.8","NAN","NAN","NAN","NAN","NAN"],
    [1545337,"2026-03-17 05:10:00","46327","0.307","289.2","1.176","289.2","NAN","NAN","NAN","NAN","NAN"],
    [1545338,"2026-03-17 05:20:00","46328","0.243","289.2","1.437","289.5","NAN","NAN","NAN","NAN","NAN"],
    [1545339,"2026-03-17 05:30:00","46329","0.63","289.2","1.405","289.7","NAN","NAN","NAN","NAN","NAN"],
    [1545340,"2026-03-17 05:40:00","46330","0.6779999999999999","287.4","1.47","289.1","NAN","NAN","NAN","NAN","NAN"],
    [1545341,"2026-03-17 05:50:00","46331","1.66","278.7","3.299","274.2","NAN","NAN","NAN","NAN","NAN"],
    [1545342,"2026-03-17 06:00:00","46332","1.258","281.2","2.156","273.5","NAN","NAN","NAN","NAN","NAN"],
    [1545343,"2026-03-17 06:10:00","46333","0.565","280.9","1.405","277.2","NAN","NAN","NAN","NAN","NAN"],
    [1545344,"2026-03-17 06:20:00","46334","0.657","286.1","1.47","286.2","NAN","NAN","NAN","NAN","NAN"],
    [1545345,"2026-03-17 06:30:00","46335","0.919","286.3","1.568","286.6","NAN","NAN","NAN","NAN","NAN"],
    [1545346,"2026-03-17 06:40:00","46336","0.76","286.9","1.731","287.1","NAN","NAN","NAN","NAN","NAN"],
    [1545347,"2026-03-17 06:50:00","46337","0.7759999999999999","287.2","2.025","287.3","NAN","NAN","NAN","NAN","NAN"],
    [1545348,"2026-03-17 07:00:00","46338","1.046","287.6","1.633","287.5","NAN","NAN","NAN","NAN","NAN"],
    [1545349,"2026-03-17 07:10:00","46339","0.201","287.2","1.111","287.5","NAN","NAN","NAN","NAN","NAN"],
    [1545350,"2026-03-17 07:20:00","46340","0.541","278.4","1.993","282.7","NAN","NAN","NAN","NAN","NAN"],
    [1545351,"2026-03-17 07:30:00","46341","1.218","275.2","3.038","273.4","NAN","NAN","NAN","NAN","NAN"],
    [1545352,"2026-03-17 07:40:00","46342","1.75","281.9","3.234","282.1","NAN","NAN","NAN","NAN","NAN"],
    [1545353,"2026-03-17 07:50:00","46343","2.156","287.9","3.136","289.1","NAN","NAN","NAN","NAN","NAN"],
    [1545354,"2026-03-17 08:00:00","46344","0.992","289.4","1.895","287.1","NAN","NAN","NAN","NAN","NAN"],
    [1545355,"2026-03-17 08:10:00","46345","0.643","284.0","1.633","279.3","NAN","NAN","NAN","NAN","NAN"],
    [1545356,"2026-03-17 08:20:00","46346","0.47200000000000003","278.7","1.797","278.4","NAN","NAN","NAN","NAN","NAN"],
    [1545357,"2026-03-17 08:30:00","46347","0.924","277.9","1.993","277.4","NAN","NAN","NAN","NAN","NAN"],
    [1545358,"2026-03-17 08:40:00","46348","0.32899999999999996","278.0","1.307","279.2","NAN","NAN","NAN","NAN","NAN"],
    [1545359,"2026-03-17 08:50:00","46349","0.001","278.2","0.229","278.1","NAN","NAN","NAN","NAN","NAN"],
    [1545360,"2026-03-17 09:00:00","46350","0.24100000000000002","293.0","1.437","295.8","NAN","NAN","NAN","NAN","NAN"],
    [1545361,"2026-03-17 09:10:00","46351","0.7190000000000001","297.8","1.829","299.4","NAN","NAN","NAN","NAN","NAN"],
    [1545362,"2026-03-17 09:20:00","46352","0.612","301.0","1.633","300.6","NAN","NAN","NAN","NAN","NAN"],
    [1545363,"2026-03-17 09:30:00","46353","1.526","303.5","2.156","310.1","NAN","NAN","NAN","NAN","NAN"],
    [1545364,"2026-03-17 09:40:00","46354","0.24","336.1","2.025","310.9","NAN","NAN","NAN","NAN","NAN"],
    [1545365,"2026-03-17 09:50:00","46355","0.138","34.27","1.437","67.14","NAN","NAN","NAN","NAN","NAN"],
    [1545366,"2026-03-17 10:00:00","46356","1.0659999999999998","82.6","2.45","86","NAN","NAN","NAN","NAN","NAN"],
    [1545367,"2026-03-17 10:10:00","46357","1.199","98.3","2.581","106.2","NAN","NAN","NAN","NAN","NAN"],
    [1545368,"2026-03-17 10:20:00","46358","1.8159999999999998","111.2","2.809","102.9","NAN","NAN","NAN","NAN","NAN"],
    [1545369,"2026-03-17 10:30:00","46359","2.037","104.0","3.201","99.5","NAN","NAN","NAN","NAN","NAN"],
    [1545370,"2026-03-17 10:40:00","46360","2.542","100.7","3.332","97.6","NAN","NAN","NAN","NAN","NAN"],
    [1545371,"2026-03-17 10:50:00","46361","2.119","102.0","3.005","103.4","NAN","NAN","NAN","NAN","NAN"],
    [1545372,"2026-03-17 11:00:00","46362","2.5639999999999996","99.6","3.267","104.8","NAN","NAN","NAN","NAN","NAN"],
    [1545373,"2026-03-17 11:10:00","46363","2.6239999999999997","97.9","3.463","91","NAN","NAN","NAN","NAN","NAN"],
    [1545374,"2026-03-17 11:20:00","46364","2.44","99.4","3.724","100.4","NAN","NAN","NAN","NAN","NAN"],
    [1545375,"2026-03-17 11:30:00","46365","2.685","100.2","4.116","92.1","NAN","NAN","NAN","NAN","NAN"],
    [1545376,"2026-03-17 11:40:00","46366","2.9419999999999997","99.2","3.822","102.2","NAN","NAN","NAN","NAN","NAN"],
    [1545377,"2026-03-17 11:50:00","46367","2.557","99.0","3.691","102.7","NAN","NAN","NAN","NAN","NAN"],
    [1545378,"2026-03-17 12:00:00","46368","2.583","97.3","3.528","98.6","NAN","NAN","NAN","NAN","NAN"],
    [1545379,"2026-03-17 12:10:00","46369","2.532","97.9","3.528","95.4","NAN","NAN","NAN","NAN","NAN"],
    [1545380,"2026-03-17 12:20:00","46370","2.17","99.4","3.038","104.7","NAN","NAN","NAN","NAN","NAN"],
    [1545381,"2026-03-17 12:30:00","46371","2.094","96.4","2.973","100.7","NAN","NAN","NAN","NAN","NAN"],
    [1545382,"2026-03-17 12:40:00","46372","1.945","99.4","2.842","96.6","NAN","NAN","NAN","NAN","NAN"],
    [1545383,"2026-03-17 12:50:00","46373","2.086","98.0","3.136","106.3","NAN","NAN","NAN","NAN","NAN"],
    [1545384,"2026-03-17 13:00:00","46374","2.355","96.9","3.953","88.4","NAN","NAN","NAN","NAN","NAN"],
    [1545385,"2026-03-17 13:10:00","46375","2.748","97.2","4.41","83.2","NAN","NAN","NAN","NAN","NAN"],
    [1545386,"2026-03-17 13:20:00","46376","2.491","96.9","3.724","99.5","NAN","NAN","NAN","NAN","NAN"],
    [1545387,"2026-03-17 13:30:00","46377","2.6510000000000002","99.8","3.855","97.6","NAN","NAN","NAN","NAN","NAN"],
    [1545388,"2026-03-17 13:40:00","46378","1.8969999999999998","112.5","3.528","127.2","NAN","NAN","NAN","NAN","NAN"],
    [1545389,"2026-03-17 13:50:00","46379","2.381","120.0","4.083","133.4","NAN","NAN","NAN","NAN","NAN"],
    [1545390,"2026-03-17 14:00:00","46380","2.289","119.8","3.593","106.4","NAN","NAN","NAN","NAN","NAN"],
    [1545391,"2026-03-17 14:10:00","46381","1.933","109.8","3.593","105.3","NAN","NAN","NAN","NAN","NAN"],
    [1545392,"2026-03-17 14:20:00","46382","2.318","118.2","3.463","129.8","NAN","NAN","NAN","NAN","NAN"],
    [1545393,"2026-03-17 14:30:00","46383","2.231","130.1","4.051","125.3","NAN","NAN","NAN","NAN","NAN"],
    [1545394,"2026-03-17 14:40:00","46384","2.208","136.2","3.495","148.7","NAN","NAN","NAN","NAN","NAN"],
    [1545395,"2026-03-17 14:50:00","46385","1.702","120.5","3.136","119.6","NAN","NAN","NAN","NAN","NAN"],
    [1545396,"2026-03-17 15:00:00","46386","2.064","108.9","3.463","111.4","NAN","NAN","NAN","NAN","NAN"],
    [1545397,"2026-03-17 15:10:00","46387","1.7080000000000002","105.3","3.038","95.9","NAN","NAN","NAN","NAN","NAN"],
    [1545398,"2026-03-17 15:20:00","46388","1.149","118.6","3.103","104.7","NAN","NAN","NAN","NAN","NAN"],
    [1545399,"2026-03-17 15:30:00","46389","1.4169999999999998","144.5","2.613","153.5","NAN","NAN","NAN","NAN","NAN"],
    [1545400,"2026-03-17 15:40:00","46390","1.7","159.2","3.626","151.8","NAN","NAN","NAN","NAN","NAN"],
    [1545401,"2026-03-17 15:50:00","46391","1.92","161.3","3.234","161.8","NAN","NAN","NAN","NAN","NAN"],
    [1545402,"2026-03-17 16:00:00","46392","1.548","162.4","2.809","166.2","NAN","NAN","NAN","NAN","NAN"],
    [1545403,"2026-03-17 16:10:00","46393","1.413","164.9","2.515","162.6","NAN","NAN","NAN","NAN","NAN"],
    [1545404,"2026-03-17 16:20:00","46394","2.059","168.7","3.169","165.8","NAN","NAN","NAN","NAN","NAN"],
    [1545405,"2026-03-17 16:30:00","46395","1.923","166.3","3.299","164.5","NAN","NAN","NAN","NAN","NAN"],
    [1545406,"2026-03-17 16:40:00","46396","1.716","169.3","2.875","172.8","NAN","NAN","NAN","NAN","NAN"],
    [1545407,"2026-03-17 16:50:00","46397","1.7","169.1","2.515","159.7","NAN","NAN","NAN","NAN","NAN"],
    [1545408,"2026-03-17 17:00:00","46398","1.5030000000000001","165.0","2.744","162.2","NAN","NAN","NAN","NAN","NAN"],
    [1545409,"2026-03-17 17:10:00","46399","1.168","172.4","2.581","172","NAN","NAN","NAN","NAN","NAN"],
    [1545410,"2026-03-17 17:20:00","46400","1.094","174.2","2.287","174.3","NAN","NAN","NAN","NAN","NAN"],
    [1545411,"2026-03-17 17:30:00","46401","0.6679999999999999","172.8","1.601","172.8","NAN","NAN","NAN","NAN","NAN"],
    [1545412,"2026-03-17 17:40:00","46402","0.9420000000000001","161.0","2.189","156.6","NAN","NAN","NAN","NAN","NAN"],
    [1545413,"2026-03-17 17:50:00","46403","1.294","153.6","2.385","152.9","NAN","NAN","NAN","NAN","NAN"],
    [1545414,"2026-03-17 18:00:00","46404","1.452","151.6","2.221","152.2","NAN","NAN","NAN","NAN","NAN"],
    [1545415,"2026-03-17 18:10:00","46405","0.8170000000000001","150.8","2.025","151.2","NAN","NAN","NAN","NAN","NAN"],
    [1545416,"2026-03-17 18:20:00","46406","0.578","150.7","1.797","150.8","NAN","NAN","NAN","NAN","NAN"],
    [1545417,"2026-03-17 18:30:00","46407","0.23399999999999999","150.7","1.143","150.7","NAN","NAN","NAN","NAN","NAN"],
    [1545418,"2026-03-17 18:40:00","46408","0.233","150.7","1.013","150.7","NAN","NAN","NAN","NAN","NAN"],
    [1545419,"2026-03-17 18:50:00","46409","0.41200000000000003","150.6","1.633","150.6","NAN","NAN","NAN","NAN","NAN"],
    [1545420,"2026-03-17 19:00:00","46410","0.27699999999999997","151.1","1.176","151.5","NAN","NAN","NAN","NAN","NAN"],
    [1545421,"2026-03-17 19:10:00","46411","0.09300000000000001","150.6","1.143","150.6","NAN","NAN","NAN","NAN","NAN"],
    [1545422,"2026-03-17 19:20:00","46412","0.297","150.6","1.633","150.6","NAN","NAN","NAN","NAN","NAN"],
    [1545423,"2026-03-17 19:30:00","46413","0.0","0.0","0","0","NAN","NAN","NAN","NAN","NAN"],
    [1545424,"2026-03-17 19:40:00","46414","0.0","0.0","0","0","NAN","NAN","NAN","NAN","NAN"],
    [1545425,"2026-03-17 19:50:00","46415","0.0","0.0","0","0","NAN","NAN","NAN","NAN","NAN"],
    [1545426,"2026-03-17 20:00:00","46416","0.0","0.0","0","0","NAN","NAN","NAN","NAN","NAN"],
    [1545427,"2026-03-17 20:10:00","46417","0.0","0.0","0","0","NAN","NAN","NAN","NAN","NAN"],
    [1545428,"2026-03-17 20:20:00","46418","0.0","0.0","0","0","NAN","NAN","NAN","NAN","NAN"],
    [1545429,"2026-03-17 20:30:00","46419","0.0","0.0","0","0","NAN","NAN","NAN","NAN","NAN"],
    [1545430,"2026-03-17 20:40:00","46420","0.001","150.4","0.196","150.4","NAN","NAN","NAN","NAN","NAN"],
    [1545431,"2026-03-17 20:50:00","46421","0.05","150.4","0.523","150.4","NAN","NAN","NAN","NAN","NAN"],
    [1545432,"2026-03-17 21:00:00","46422","0.0","0.0","0","0","NAN","NAN","NAN","NAN","NAN"],
    [1545433,"2026-03-17 21:10:00","46423","0.0","0.0","0","0","NAN","NAN","NAN","NAN","NAN"],
    [1545434,"2026-03-17 21:20:00","46424","0.006999999999999999","150.2","0.261","150.3","NAN","NAN","NAN","NAN","NAN"],
    [1545435,"2026-03-17 21:30:00","46425","0.0","150.2","0.033","150.2","NAN","NAN","NAN","NAN","NAN"],
    [1545436,"2026-03-17 21:40:00","46426","0.0","0.0","0","0","NAN","NAN","NAN","NAN","NAN"],
    [1545437,"2026-03-17 21:50:00","46427","0.0","0.0","0","0","NAN","NAN","NAN","NAN","NAN"],
    [1545438,"2026-03-17 22:00:00","46428","0.0","150.2","0.033","150.2","NAN","NAN","NAN","NAN","NAN"],
    [1545439,"2026-03-17 22:10:00","46429","0.0","0.0","0","0","NAN","NAN","NAN","NAN","NAN"],
    [1545440,"2026-03-17 22:20:00","46430","0.03","150.1","0.425","150.1","NAN","NAN","NAN","NAN","NAN"],
    [1545441,"2026-03-17 22:30:00","46431","0.0","0.0","0","0","NAN","NAN","NAN","NAN","NAN"],
    [1545442,"2026-03-17 22:40:00","46432","0.043","149.8","0.392","149.9","NAN","NAN","NAN","NAN","NAN"],
    [1545443,"2026-03-17 22:50:00","46433","0.025","149.8","0.425","149.8","NAN","NAN","NAN","NAN","NAN"],
    [1545444,"2026-03-17 23:00:00","46434","0.013999999999999999","149.7","0.457","149.7","NAN","NAN","NAN","NAN","NAN"],
    [1545445,"2026-03-17 23:10:00","46435","0.0","0.0","0","0","NAN","NAN","NAN","NAN","NAN"],
    [1545446,"2026-03-17 23:20:00","46436","0.002","149.7","0.261","149.7","NAN","NAN","NAN","NAN","NAN"],
    [1545447,"2026-03-17 23:30:00","46437","0.011000000000000001","153.6","0.294","153.7","NAN","NAN","NAN","NAN","NAN"],
    [1545448,"2026-03-17 23:40:00","46438","0.009000000000000001","171.1","0.392","171.1","NAN","NAN","NAN","NAN","NAN"],
    [1545449,"2026-03-17 23:50:00","46439","0.016","172.0","0.359","172.3","NAN","NAN","NAN","NAN","NAN"],
    [1545450,"2026-03-18 00:00:00","46440","0.008","172.4","0.294","172.3","NAN","NAN","NAN","NAN","NAN"],
    [1545451,"2026-03-18 00:10:00","46441","0.024","172.6","0.359","172.7","NAN","NAN","NAN","NAN","NAN"],
    [1545452,"2026-03-18 00:20:00","46442","0.005","172.7","0.196","172.7","NAN","NAN","NAN","NAN","NAN"],
    [1545453,"2026-03-18 00:30:00","46443","0.005","172.8","0.229","172.7","NAN","NAN","NAN","NAN","NAN"],
    [1545454,"2026-03-18 00:40:00","46444","0.001","173.1","0.163","173.1","NAN","NAN","NAN","NAN","NAN"],
    [1545455,"2026-03-18 00:50:00","46445","0.0","0.0","0","0","NAN","NAN","NAN","NAN","NAN"],
    [1545456,"2026-03-18 01:00:00","46446","0.0","0.0","0","0","NAN","NAN","NAN","NAN","NAN"],
    [1545457,"2026-03-18 01:10:00","46447","0.012","173.1","0.294","173.2","NAN","NAN","NAN","NAN","NAN"],
    [1545458,"2026-03-18 01:20:00","46448","0.023","173.3","0.49","173.2","NAN","NAN","NAN","NAN","NAN"],
    [1545459,"2026-03-18 01:30:00","46449","0.025","173.5","0.523","173.5","NAN","NAN","NAN","NAN","NAN"],
    [1545460,"2026-03-18 01:40:00","46450","0.053","173.5","0.49","173.6","NAN","NAN","NAN","NAN","NAN"],
    [1545461,"2026-03-18 01:50:00","46451","0.011000000000000001","173.6","0.294","173.6","NAN","NAN","NAN","NAN","NAN"],
    [1545462,"2026-03-18 02:00:00","46452","0.0","0.0","0","0","NAN","NAN","NAN","NAN","NAN"],
    [1545463,"2026-03-18 02:10:00","46453","0.0","0.0","0","0","NAN","NAN","NAN","NAN","NAN"],
    [1545464,"2026-03-18 02:20:00","46454","0.0","0.0","0","0","NAN","NAN","NAN","NAN","NAN"],
    [1545465,"2026-03-18 02:30:00","46455","0.0","0.0","0","0","NAN","NAN","NAN","NAN","NAN"],
    [1545466,"2026-03-18 02:40:00","46456","0.0","0.0","0","0","NAN","NAN","NAN","NAN","NAN"],
    [1545467,"2026-03-18 02:50:00","46457","0.0","0.0","0","0","NAN","NAN","NAN","NAN","NAN"],
    [1545468,"2026-03-18 03:00:00","46458","0.0","0.0","0","0","NAN","NAN","NAN","NAN","NAN"],
    [1545469,"2026-03-18 03:10:00","46459","0.009000000000000001","173.6","0.294","173.6","NAN","NAN","NAN","NAN","NAN"],
    [1545470,"2026-03-18 03:20:00","46460","0.0","0.0","0","0","NAN","NAN","NAN","NAN","NAN"],
    [1545471,"2026-03-18 03:30:00","46461","0.0","0.0","0","0","NAN","NAN","NAN","NAN","NAN"],
    [1545472,"2026-03-18 03:40:00","46462","0.0","0.0","0","0","NAN","NAN","NAN","NAN","NAN"],
    [1545473,"2026-03-18 03:50:00","46463","0.006","173.7","0.359","173.7","NAN","NAN","NAN","NAN","NAN"],
    [1545474,"2026-03-18 04:00:00","46464","0.001","173.7","0.131","173.7","NAN","NAN","NAN","NAN","NAN"],
    [1545475,"2026-03-18 04:10:00","46465","0.0","0.0","0","0","NAN","NAN","NAN","NAN","NAN"],
    [1545476,"2026-03-18 04:20:00","46466","0.268","174.1","0.947","173.9","NAN","NAN","NAN","NAN","NAN"],
    [1545477,"2026-03-18 04:30:00","46467","0.261","174.5","1.274","174.5","NAN","NAN","NAN","NAN","NAN"],
    [1545478,"2026-03-18 04:40:00","46468","0.006","174.5","0.261","174.4","NAN","NAN","NAN","NAN","NAN"],
    [1545479,"2026-03-18 04:50:00","46469","0.0","0.0","0","0","NAN","NAN","NAN","NAN","NAN"],
    [1545480,"2026-03-18 05:00:00","46470","0.0","0.0","0","0","NAN","NAN","NAN","NAN","NAN"],
    [1545481,"2026-03-18 05:10:00","46471","0.0","0.0","0","0","NAN","NAN","NAN","NAN","NAN"],
    [1545482,"2026-03-18 05:20:00","46472","0.0","0.0","0","0","NAN","NAN","NAN","NAN","NAN"],
    [1545483,"2026-03-18 05:30:00","46473","0.0","0.0","0","0","NAN","NAN","NAN","NAN","NAN"],
    [1545484,"2026-03-18 05:40:00","46474","0.005","175.2","0.261","175.2","NAN","NAN","NAN","NAN","NAN"],
    [1545485,"2026-03-18 05:50:00","46475","0.08199999999999999","175.9","0.653","176","NAN","NAN","NAN","NAN","NAN"],
    [1545486,"2026-03-18 06:00:00","46476","0.18600000000000003","176.1","0.947","176.1","NAN","NAN","NAN","NAN","NAN"],
    [1545487,"2026-03-18 06:10:00","46477","0.282","175.3","1.209","176.2","NAN","NAN","NAN","NAN","NAN"],
    [1545488,"2026-03-18 06:20:00","46478","0.217","170.1","1.176","174.1","NAN","NAN","NAN","NAN","NAN"],
    [1545489,"2026-03-18 06:30:00","46479","0.244","146.0","1.045","145.6","NAN","NAN","NAN","NAN","NAN"],
    [1545490,"2026-03-18 06:40:00","46480","0.14800000000000002","140.4","0.915","140.3","NAN","NAN","NAN","NAN","NAN"],
    [1545491,"2026-03-18 06:50:00","46481","0.679","58.2","2.646","49.88","NAN","NAN","NAN","NAN","NAN"],
    [1545492,"2026-03-18 07:00:00","46482","1.376","49.37","2.483","49.14","NAN","NAN","NAN","NAN","NAN"],
    [1545493,"2026-03-18 07:10:00","46483","0.26","49.01","1.601","48.99","NAN","NAN","NAN","NAN","NAN"],
    [1545494,"2026-03-18 07:20:00","46484","0.816","49.22","1.895","49.05","NAN","NAN","NAN","NAN","NAN"],
    [1545495,"2026-03-18 07:30:00","46485","0.92","50.18","1.993","48.99","NAN","NAN","NAN","NAN","NAN"],
    [1545496,"2026-03-18 07:40:00","46486","0.401","66.64","2.058","69.54","NAN","NAN","NAN","NAN","NAN"],
    [1545497,"2026-03-18 07:50:00","46487","1.023","52.85","2.156","48.86","NAN","NAN","NAN","NAN","NAN"],
    [1545498,"2026-03-18 08:00:00","46488","0.135","52.5","0.849","53.37","NAN","NAN","NAN","NAN","NAN"],
    [1545499,"2026-03-18 08:10:00","46489","0.177","54.36","1.143","54.13","NAN","NAN","NAN","NAN","NAN"],
    [1545500,"2026-03-18 08:20:00","46490","0.145","55.35","2.025","52.79","NAN","NAN","NAN","NAN","NAN"],
    [1545501,"2026-03-18 08:30:00","46491","0.912","65.09","2.319","67.94","NAN","NAN","NAN","NAN","NAN"],
    [1545502,"2026-03-18 08:40:00","46492","0.9","71.14","1.895","71.42","NAN","NAN","NAN","NAN","NAN"],
    [1545503,"2026-03-18 08:50:00","46493","1.015","87.7","2.777","89.7","NAN","NAN","NAN","NAN","NAN"],
    [1545504,"2026-03-18 09:00:00","46494","1.7069999999999999","103.4","3.169","118.5","NAN","NAN","NAN","NAN","NAN"],
    [1545505,"2026-03-18 09:10:00","46495","0.42","118.3","2.254","118","NAN","NAN","NAN","NAN","NAN"],
    [1545506,"2026-03-18 09:20:00","46496","0.1","112.2","0.915","111.8","NAN","NAN","NAN","NAN","NAN"],
    [1545507,"2026-03-18 09:30:00","46497","0.11599999999999999","97.5","1.862","97.9","NAN","NAN","NAN","NAN","NAN"],
    [1545508,"2026-03-18 09:40:00","46498","0.45","96.1","1.372","95.9","NAN","NAN","NAN","NAN","NAN"],
    [1545509,"2026-03-18 09:50:00","46499","1.159","94.4","2.319","93.9","NAN","NAN","NAN","NAN","NAN"],
    [1545510,"2026-03-18 10:00:00","46500","1.817","80.5","3.103","80.2","NAN","NAN","NAN","NAN","NAN"],
    [1545511,"2026-03-18 10:10:00","46501","1.102","74.73","2.515","70.77","NAN","NAN","NAN","NAN","NAN"],
    [1545512,"2026-03-18 10:20:00","46502","1.49","67.39","2.744","73.36","NAN","NAN","NAN","NAN","NAN"],
    [1545513,"2026-03-18 10:30:00","46503","1.8840000000000001","82.8","3.495","70.39","NAN","NAN","NAN","NAN","NAN"],
    [1545514,"2026-03-18 10:40:00","46504","2.7689999999999997","92.3","4.704","57.85","NAN","NAN","NAN","NAN","NAN"],
    [1545515,"2026-03-18 10:50:00","46505","2.363","94.3","4.312","122.1","NAN","NAN","NAN","NAN","NAN"],
    [1545516,"2026-03-18 11:00:00","46506","2.5989999999999998","99.9","4.116","111.6","NAN","NAN","NAN","NAN","NAN"],
    [1545517,"2026-03-18 11:10:00","46507","2.0540000000000003","94.0","4.181","92.5","NAN","NAN","NAN","NAN","NAN"],
    [1545518,"2026-03-18 11:20:00","46508","2.084","85.3","4.377","66.55","NAN","NAN","NAN","NAN","NAN"],
    [1545519,"2026-03-18 11:30:00","46509","2.299","80.8","4.377","82","NAN","NAN","NAN","NAN","NAN"],
    [1545520,"2026-03-18 11:40:00","46510","1.699","94.3","3.561","92.8","NAN","NAN","NAN","NAN","NAN"],
    [1545521,"2026-03-18 11:50:00","46511","2.3890000000000002","94.0","3.92","84.4","NAN","NAN","NAN","NAN","NAN"],
    [1545522,"2026-03-18 12:00:00","46512","2.5580000000000003","89.4","4.247","78.89","NAN","NAN","NAN","NAN","NAN"],
    [1545523,"2026-03-18 12:10:00","46513","3.05","95.0","4.671","91.5","NAN","NAN","NAN","NAN","NAN"],
    [1545524,"2026-03-18 12:20:00","46514","3.322","90.0","4.9","88.1","NAN","NAN","NAN","NAN","NAN"],
    [1545525,"2026-03-18 12:30:00","46515","2.948","98.9","4.965","97.3","NAN","NAN","NAN","NAN","NAN"],
    [1545526,"2026-03-18 12:40:00","46516","2.674","87.8","4.443","83.1","NAN","NAN","NAN","NAN","NAN"],
    [1545527,"2026-03-18 12:50:00","46517","3.108","92.7","4.671","105","NAN","NAN","NAN","NAN","NAN"],
    [1545528,"2026-03-18 13:00:00","46518","3.175","101.0","4.704","97.2","NAN","NAN","NAN","NAN","NAN"],
    [1545529,"2026-03-18 13:10:00","46519","3.531","97.4","5.031","94.2","NAN","NAN","NAN","NAN","NAN"],
    [1545530,"2026-03-18 13:20:00","46520","3.167","100.6","5.423","107.9","NAN","NAN","NAN","NAN","NAN"],
    [1545531,"2026-03-18 13:30:00","46521","3.522","105.0","6.076","101","NAN","NAN","NAN","NAN","NAN"],
    [1545532,"2026-03-18 13:40:00","46522","3.321","101.3","5.913","68.63","NAN","NAN","NAN","NAN","NAN"],
    [1545533,"2026-03-18 13:50:00","46523","3.042","84.9","6.141","86","NAN","NAN","NAN","NAN","NAN"],
    [1545534,"2026-03-18 14:00:00","46524","3.963","95.3","6.533","87.7","NAN","NAN","NAN","NAN","NAN"],
    [1545535,"2026-03-18 14:10:00","46525","3.887","86.8","6.305","101.7","NAN","NAN","NAN","NAN","NAN"],
    [1545536,"2026-03-18 14:20:00","46526","4.166","78.69","6.533","72.75","NAN","NAN","NAN","NAN","NAN"],
    [1545537,"2026-03-18 14:30:00","46527","3.9539999999999997","90.5","6.664","69.5","NAN","NAN","NAN","NAN","NAN"],
    [1545538,"2026-03-18 14:40:00","46528","4.203","83.7","7.252","84","NAN","NAN","NAN","NAN","NAN"],
    [1545539,"2026-03-18 14:50:00","46529","3.907","84.8","7.513","67.33","NAN","NAN","NAN","NAN","NAN"],
    [1545540,"2026-03-18 15:00:00","46530","3.77","80.3","6.762","65.63","NAN","NAN","NAN","NAN","NAN"],
    [1545541,"2026-03-18 15:10:00","46531","3.634","84.6","6.337","67.08","NAN","NAN","NAN","NAN","NAN"],
    [1545542,"2026-03-18 15:20:00","46532","3.6830000000000003","93.5","6.566","75.39","NAN","NAN","NAN","NAN","NAN"],
    [1545543,"2026-03-18 15:30:00","46533","4.218999999999999","95.4","7.252","95.1","NAN","NAN","NAN","NAN","NAN"],
    [1545544,"2026-03-18 15:40:00","46534","3.7239999999999998","96.7","6.501","104.7","NAN","NAN","NAN","NAN","NAN"],
    [1545545,"2026-03-18 15:50:00","46535","4.073","91.1","7.677","96.1","NAN","NAN","NAN","NAN","NAN"],
    [1545546,"2026-03-18 16:00:00","46536","4.413","94.1","7.35","87.9","NAN","NAN","NAN","NAN","NAN"],
    [1545547,"2026-03-18 16:10:00","46537","4.56","95.2","7.546","87.1","NAN","NAN","NAN","NAN","NAN"],
    [1545548,"2026-03-18 16:20:00","46538","4.079","90.2","8.13","79.65","NAN","NAN","NAN","NAN","NAN"],
    [1545549,"2026-03-18 16:30:00","46539","4.255","95.9","7.154","97.9","NAN","NAN","NAN","NAN","NAN"],
    [1545550,"2026-03-18 16:40:00","46540","3.3989999999999996","91.2","6.697","86.5","NAN","NAN","NAN","NAN","NAN"],
    [1545551,"2026-03-18 16:50:00","46541","4.648","87.8","8.79","100.1","NAN","NAN","NAN","NAN","NAN"],
    [1545552,"2026-03-18 17:00:00","46542","4.734","90.4","10.39","93.2","NAN","NAN","NAN","NAN","NAN"],
    [1545553,"2026-03-18 17:10:00","46543","4.106","88.7","8.92","92.7","NAN","NAN","NAN","NAN","NAN"],
    [1545554,"2026-03-18 17:20:00","46544","4.056","90.1","8.59","78.59","NAN","NAN","NAN","NAN","NAN"],
    [1545555,"2026-03-18 17:30:00","46545","4.85","88.4","9.9","69.95","NAN","NAN","NAN","NAN","NAN"],
    [1545556,"2026-03-18 17:40:00","46546","5.006","88.1","10.09","78.06","NAN","NAN","NAN","NAN","NAN"],
    [1545557,"2026-03-18 17:50:00","46547","4.5969999999999995","94.8","8.69","77.84","NAN","NAN","NAN","NAN","NAN"],
    [1545558,"2026-03-18 18:00:00","46548","4.394","88.0","9.15","76.37","NAN","NAN","NAN","NAN","NAN"],
    [1545559,"2026-03-18 18:10:00","46549","4.888","90.4","10.26","82","NAN","NAN","NAN","NAN","NAN"],
    [1545560,"2026-03-18 18:20:00","46550","4.574","82.5","8.95","94","NAN","NAN","NAN","NAN","NAN"],
    [1545561,"2026-03-18 18:30:00","46551","4.824","76.52","8.53","72.36","NAN","NAN","NAN","NAN","NAN"],
    [1545562,"2026-03-18 18:40:00","46552","4.728","78.55","8.07","70.9","NAN","NAN","NAN","NAN","NAN"],
    [1545563,"2026-03-18 18:50:00","46553","4.0760000000000005","77.64","7.84","68.59","NAN","NAN","NAN","NAN","NAN"],
    [1545564,"2026-03-18 19:00:00","46554","4.22","87.3","9.28","72.12","NAN","NAN","NAN","NAN","NAN"],
    [1545565,"2026-03-18 19:10:00","46555","4.271","86.7","7.938","100.6","NAN","NAN","NAN","NAN","NAN"],
    [1545566,"2026-03-18 19:20:00","46556","4.363","83.8","9.02","91.9","NAN","NAN","NAN","NAN","NAN"],
    [1545567,"2026-03-18 19:30:00","46557","3.986","81.2","7.383","72.1","NAN","NAN","NAN","NAN","NAN"],
    [1545568,"2026-03-18 19:40:00","46558","3.7489999999999997","84.2","7.415","69.13","NAN","NAN","NAN","NAN","NAN"],
    [1545569,"2026-03-18 19:50:00","46559","4.064","88.0","7.644","89.6","NAN","NAN","NAN","NAN","NAN"],
    [1545570,"2026-03-18 20:00:00","46560","5.74","94.8","9.87","83.2","NAN","NAN","NAN","NAN","NAN"],
    [1545571,"2026-03-18 20:10:00","46561","5.55","94.3","10.03","68.81","NAN","NAN","NAN","NAN","NAN"],
    [1545572,"2026-03-18 20:20:00","46562","5.337999999999999","96.0","9.38","99.9","NAN","NAN","NAN","NAN","NAN"],
    [1545573,"2026-03-18 20:30:00","46563","4.865","95.5","8.3","94.5","NAN","NAN","NAN","NAN","NAN"],
    [1545574,"2026-03-18 20:40:00","46564","4.909","90.6","11.07","85.6","NAN","NAN","NAN","NAN","NAN"],
    [1545575,"2026-03-18 20:50:00","46565","4.103","90.8","9.6","74","NAN","NAN","NAN","NAN","NAN"],
    [1545576,"2026-03-18 21:00:00","46566","4.512","91.2","8.4","89","NAN","NAN","NAN","NAN","NAN"],
    [1545577,"2026-03-18 21:10:00","46567","4.322","88.2","7.611","95","NAN","NAN","NAN","NAN","NAN"],
    [1545578,"2026-03-18 21:20:00","46568","4.603","85.5","8.69","75.95","NAN","NAN","NAN","NAN","NAN"],
    [1545579,"2026-03-18 21:30:00","46569","4.126","82.8","8.92","70.14","NAN","NAN","NAN","NAN","NAN"],
    [1545580,"2026-03-18 21:40:00","46570","4.288","83.5","8.53","84.7","NAN","NAN","NAN","NAN","NAN"],
    [1545581,"2026-03-18 21:50:00","46571","4.232","82.4","8.07","72.27","NAN","NAN","NAN","NAN","NAN"],
    [1545582,"2026-03-18 22:00:00","46572","4.95","85.9","8.79","94.1","NAN","NAN","NAN","NAN","NAN"],
    [1545583,"2026-03-18 22:10:00","46573","4.463","91.2","8.36","90","NAN","NAN","NAN","NAN","NAN"],
    [1545584,"2026-03-18 22:20:00","46574","3.802","91.5","7.219","94.3","NAN","NAN","NAN","NAN","NAN"],
    [1545585,"2026-03-18 22:30:00","46575","5.252999999999999","82.1","10.03","64.79","NAN","NAN","NAN","NAN","NAN"],
    [1545586,"2026-03-18 22:40:00","46576","4.349","88.8","7.873","82.6","NAN","NAN","NAN","NAN","NAN"],
    [1545587,"2026-03-18 22:50:00","46577","4.503","87.7","8.53","67.81","NAN","NAN","NAN","NAN","NAN"],
    [1545588,"2026-03-18 23:00:00","46578","4.787","91.2","8.62","92.5","NAN","NAN","NAN","NAN","NAN"],
    [1545589,"2026-03-18 23:10:00","46579","5.331","91.4","11.07","96.4","NAN","NAN","NAN","NAN","NAN"],
    [1545590,"2026-03-18 23:20:00","46580","5.372000000000001","95.6","10.26","87","NAN","NAN","NAN","NAN","NAN"],
    [1545591,"2026-03-18 23:30:00","46581","5.669","97.1","10.09","76.79","NAN","NAN","NAN","NAN","NAN"],
    [1545592,"2026-03-18 23:40:00","46582","4.579","94.5","8","94","NAN","NAN","NAN","NAN","NAN"],
    [1545593,"2026-03-18 23:50:00","46583","3.897","89.7","7.709","90","NAN","NAN","NAN","NAN","NAN"],
    [1545594,"2026-03-19 00:00:00","46584","4.371","89.1","7.579","94.5","NAN","NAN","NAN","NAN","NAN"],
    [1545595,"2026-03-19 00:10:00","46585","5.791","94.0","9.41","99.8","NAN","NAN","NAN","NAN","NAN"],
    [1545596,"2026-03-19 00:20:00","46586","4.829","94.0","9.64","83.2","NAN","NAN","NAN","NAN","NAN"],
    [1545597,"2026-03-19 00:30:00","46587","4.042","90.6","7.938","101.2","NAN","NAN","NAN","NAN","NAN"],
    [1545598,"2026-03-19 00:40:00","46588","3.9139999999999997","91.8","7.219","81.3","NAN","NAN","NAN","NAN","NAN"],
    [1545599,"2026-03-19 00:50:00","46589","4.0280000000000005","90.2","7.546","90.2","NAN","NAN","NAN","NAN","NAN"],
    [1545600,"2026-03-19 01:00:00","46590","3.928","79.66","7.513","65.04","NAN","NAN","NAN","NAN","NAN"],
    [1545601,"2026-03-19 01:10:00","46591","3.838","84.2","9.38","81.3","NAN","NAN","NAN","NAN","NAN"],
    [1545602,"2026-03-19 01:20:00","46592","3.958","86.4","7.219","80.5","NAN","NAN","NAN","NAN","NAN"],
    [1545603,"2026-03-19 01:30:00","46593","4.168","87.3","8.53","69.07","NAN","NAN","NAN","NAN","NAN"],
    [1545604,"2026-03-19 01:40:00","46594","3.8369999999999997","88.5","8.2","84","NAN","NAN","NAN","NAN","NAN"],
    [1545605,"2026-03-19 01:50:00","46595","3.877","89.0","7.513","94.3","NAN","NAN","NAN","NAN","NAN"],
    [1545606,"2026-03-19 02:00:00","46596","3.748","91.2","8.04","90.9","NAN","NAN","NAN","NAN","NAN"],
    [1545607,"2026-03-19 02:10:00","46597","3.741","89.4","7.611","99.6","NAN","NAN","NAN","NAN","NAN"],
    [1545608,"2026-03-19 02:20:00","46598","3.81","85.2","7.252","92.9","NAN","NAN","NAN","NAN","NAN"],
    [1545609,"2026-03-19 02:30:00","46599","3.417","92.1","6.631","99","NAN","NAN","NAN","NAN","NAN"],
    [1545610,"2026-03-19 02:40:00","46600","3.406","88.1","7.513","98","NAN","NAN","NAN","NAN","NAN"],
    [1545611,"2026-03-19 02:50:00","46601","3.863","87.1","6.991","85.7","NAN","NAN","NAN","NAN","NAN"],
    [1545612,"2026-03-19 03:00:00","46602","3.4160000000000004","88.8","7.644","88.8","NAN","NAN","NAN","NAN","NAN"],
    [1545613,"2026-03-19 03:10:00","46603","3.866","88.5","7.481","81.9","NAN","NAN","NAN","NAN","NAN"],
    [1545614,"2026-03-19 03:20:00","46604","3.41","86.1","6.599","96.3","NAN","NAN","NAN","NAN","NAN"],
    [1545615,"2026-03-19 03:30:00","46605","3.312","89.3","6.599","96.3","NAN","NAN","NAN","NAN","NAN"],
    [1545616,"2026-03-19 03:40:00","46606","4.448","70.4","7.873","63.56","NAN","NAN","NAN","NAN","NAN"],
    [1545617,"2026-03-19 03:50:00","46607","4.584","74.03","8.07","59.69","NAN","NAN","NAN","NAN","NAN"],
    [1545618,"2026-03-19 04:00:00","46608","5.093","72.94","8.3","59.23","NAN","NAN","NAN","NAN","NAN"],
    [1545619,"2026-03-19 04:10:00","46609","4.906000000000001","73.28","9.31","68.89","NAN","NAN","NAN","NAN","NAN"],
    [1545620,"2026-03-19 04:20:00","46610","5.505","69.6","9.18","63.1","NAN","NAN","NAN","NAN","NAN"],
    [1545621,"2026-03-19 04:30:00","46611","5.611000000000001","69.78","9.02","72.75","NAN","NAN","NAN","NAN","NAN"],
    [1545622,"2026-03-19 04:40:00","46612","4.628","74.67","7.187","62.11","NAN","NAN","NAN","NAN","NAN"],
    [1545623,"2026-03-19 04:50:00","46613","4.473","74.63","8.33","68.14","NAN","NAN","NAN","NAN","NAN"],
    [1545624,"2026-03-19 05:00:00","46614","3.4730000000000003","62.58","7.252","66.94","NAN","NAN","NAN","NAN","NAN"],
    [1545625,"2026-03-19 05:10:00","46615","4.111000000000001","58.51","8.23","72.54","NAN","NAN","NAN","NAN","NAN"],
    [1545626,"2026-03-19 05:20:00","46616","2.943","56.12","6.37","79.07","NAN","NAN","NAN","NAN","NAN"],
    [1545627,"2026-03-19 05:30:00","46617","3.75","54.79","7.121","43.47","NAN","NAN","NAN","NAN","NAN"],
    [1545628,"2026-03-19 05:40:00","46618","3.199","57.54","6.109","46.45","NAN","NAN","NAN","NAN","NAN"],
    [1545629,"2026-03-19 05:50:00","46619","2.903","57.11","5.031","76.78","NAN","NAN","NAN","NAN","NAN"],
    [1545630,"2026-03-19 06:00:00","46620","2.9789999999999996","55.8","5.913","75.79","NAN","NAN","NAN","NAN","NAN"],
    [1545631,"2026-03-19 06:10:00","46621","3.727","61.51","6.697","69.42","NAN","NAN","NAN","NAN","NAN"],
    [1545632,"2026-03-19 06:20:00","46622","2.6060000000000003","50.42","5.717","64.53","NAN","NAN","NAN","NAN","NAN"],
    [1545633,"2026-03-19 06:30:00","46623","2.505","43.95","4.933","40.72","NAN","NAN","NAN","NAN","NAN"],
    [1545634,"2026-03-19 06:40:00","46624","2.434","43.69","4.018","38.74","NAN","NAN","NAN","NAN","NAN"],
    [1545635,"2026-03-19 06:50:00","46625","2.238","44.2","4.377","29.47","NAN","NAN","NAN","NAN","NAN"],
    [1545636,"2026-03-19 07:00:00","46626","1.9040000000000001","51.86","4.181","63.83","NAN","NAN","NAN","NAN","NAN"],
    [1545637,"2026-03-19 07:10:00","46627","4.011","61.07","7.121","69.19","NAN","NAN","NAN","NAN","NAN"],
    [1545638,"2026-03-19 07:20:00","46628","3.9339999999999997","61.54","8","52.13","NAN","NAN","NAN","NAN","NAN"],
    [1545639,"2026-03-19 07:30:00","46629","3.8310000000000004","57.75","6.435","62.41","NAN","NAN","NAN","NAN","NAN"],
    [1545640,"2026-03-19 07:40:00","46630","3.642","66.6","6.991","54.43","NAN","NAN","NAN","NAN","NAN"],
    [1545641,"2026-03-19 07:50:00","46631","3.457","65.12","6.893","64.94","NAN","NAN","NAN","NAN","NAN"],
    [1545642,"2026-03-19 08:00:00","46632","4.199","66.22","7.056","66.23","NAN","NAN","NAN","NAN","NAN"],
    [1545643,"2026-03-19 08:10:00","46633","3.358","54.34","6.599","66.94","NAN","NAN","NAN","NAN","NAN"],
    [1545644,"2026-03-19 08:20:00","46634","3.43","50.67","6.795","36.97","NAN","NAN","NAN","NAN","NAN"],
    [1545645,"2026-03-19 08:30:00","46635","2.6430000000000002","57.15","5.553","39.17","NAN","NAN","NAN","NAN","NAN"],
    [1545646,"2026-03-19 08:40:00","46636","3.845","55.79","6.435","35.4","NAN","NAN","NAN","NAN","NAN"],
    [1545647,"2026-03-19 08:50:00","46637","2.94","68.19","5.749","55.35","NAN","NAN","NAN","NAN","NAN"],
    [1545648,"2026-03-19 09:00:00","46638","3.489","63.44","6.599","56.71","NAN","NAN","NAN","NAN","NAN"],
    [1545649,"2026-03-19 09:10:00","46639","4.048","63.26","7.546","56.4","NAN","NAN","NAN","NAN","NAN"],
    [1545650,"2026-03-19 09:20:00","46640","3.843","63.96","7.546","69.09","NAN","NAN","NAN","NAN","NAN"],
    [1545651,"2026-03-19 09:30:00","46641","4.164","63.22","8.13","68.77","NAN","NAN","NAN","NAN","NAN"],
    [1545652,"2026-03-19 09:40:00","46642","3.6060000000000003","63.67","7.775","64.68","NAN","NAN","NAN","NAN","NAN"],
    [1545653,"2026-03-19 09:50:00","46643","2.71","63.79","6.697","72.93","NAN","NAN","NAN","NAN","NAN"],
    [1545654,"2026-03-19 10:00:00","46644","3.1919999999999997","59.55","7.089","57.93","NAN","NAN","NAN","NAN","NAN"],
    [1545655,"2026-03-19 10:10:00","46645","2.77","77.28","5.194","56.3","NAN","NAN","NAN","NAN","NAN"],
    [1545656,"2026-03-19 10:20:00","46646","3.783","84.7","6.239","90.3","NAN","NAN","NAN","NAN","NAN"],
    [1545657,"2026-03-19 10:30:00","46647","2.481","70.98","6.272","52.95","NAN","NAN","NAN","NAN","NAN"],
    [1545658,"2026-03-19 10:40:00","46648","2.852","69.06","6.272","62.31","NAN","NAN","NAN","NAN","NAN"],
    [1545659,"2026-03-19 10:50:00","46649","2.483","77.06","6.239","101.1","NAN","NAN","NAN","NAN","NAN"],
    [1545660,"2026-03-19 11:00:00","46650","4.68","78.5","7.383","59.57","NAN","NAN","NAN","NAN","NAN"],
    [1545661,"2026-03-19 11:10:00","46651","4.274","85.4","7.252","68.23","NAN","NAN","NAN","NAN","NAN"],
    [1545662,"2026-03-19 11:20:00","46652","3.877","84.0","6.762","87.7","NAN","NAN","NAN","NAN","NAN"],
    [1545663,"2026-03-19 11:30:00","46653","2.674","72.33","6.305","12.09","NAN","NAN","NAN","NAN","NAN"],
    [1545664,"2026-03-19 11:40:00","46654","3.06","65.29","5.717","61.31","NAN","NAN","NAN","NAN","NAN"],
    [1545665,"2026-03-19 11:50:00","46655","2.7939999999999996","71.78","5.325","89.8","NAN","NAN","NAN","NAN","NAN"],
    [1545666,"2026-03-19 12:00:00","46656","3.406","85.9","5.684","86.1","NAN","NAN","NAN","NAN","NAN"],
    [1545667,"2026-03-19 12:10:00","46657","3.4339999999999997","88.4","5.815","86.8","NAN","NAN","NAN","NAN","NAN"],
    [1545668,"2026-03-19 12:20:00","46658","2.8760000000000003","84.6","6.893","64.82","NAN","NAN","NAN","NAN","NAN"],
    [1545669,"2026-03-19 12:30:00","46659","3.1189999999999998","80.3","5.423","96.1","NAN","NAN","NAN","NAN","NAN"],
    [1545670,"2026-03-19 12:40:00","46660","3.2060000000000004","61.21","6.566","61.41","NAN","NAN","NAN","NAN","NAN"],
    [1545671,"2026-03-19 12:50:00","46661","2.7910000000000004","68.41","5.815","68.73","NAN","NAN","NAN","NAN","NAN"],
    [1545672,"2026-03-19 13:00:00","46662","3.074","70.41","6.239","63.39","NAN","NAN","NAN","NAN","NAN"],
    [1545673,"2026-03-19 13:10:00","46663","3.612","86.2","5.847","51.98","NAN","NAN","NAN","NAN","NAN"],
    [1545674,"2026-03-19 13:20:00","46664","3.891","85.4","7.383","97.5","NAN","NAN","NAN","NAN","NAN"],
    [1545675,"2026-03-19 13:30:00","46665","4.084","87.2","7.056","93.2","NAN","NAN","NAN","NAN","NAN"],
    [1545676,"2026-03-19 13:40:00","46666","2.528","70.25","6.141","66.27","NAN","NAN","NAN","NAN","NAN"],
    [1545677,"2026-03-19 13:50:00","46667","2.824","69.35","5.88","49.14","NAN","NAN","NAN","NAN","NAN"],
    [1545678,"2026-03-19 14:00:00","46668","2.696","67.76","5.161","77.57","NAN","NAN","NAN","NAN","NAN"],
    [1545679,"2026-03-19 14:10:00","46669","2.465","62.19","4.704","66.04","NAN","NAN","NAN","NAN","NAN"],
    [1545680,"2026-03-19 14:20:00","46670","2.438","55.97","4.9","38.16","NAN","NAN","NAN","NAN","NAN"],
    [1545681,"2026-03-19 14:30:00","46671","3.013","65.17","5.684","65.67","NAN","NAN","NAN","NAN","NAN"],
    [1545682,"2026-03-19 14:40:00","46672","3.034","64.65","6.435","54.19","NAN","NAN","NAN","NAN","NAN"],
    [1545683,"2026-03-19 14:50:00","46673","2.812","57.5","6.011","56.72","NAN","NAN","NAN","NAN","NAN"],
    [1545684,"2026-03-19 15:00:00","46674","3.0780000000000003","62.58","6.305","56.99","NAN","NAN","NAN","NAN","NAN"],
    [1545685,"2026-03-19 15:10:00","46675","3.2969999999999997","55.22","6.011","57.36","NAN","NAN","NAN","NAN","NAN"],
    [1545686,"2026-03-19 15:20:00","46676","2.5860000000000003","59.73","5.488","40.21","NAN","NAN","NAN","NAN","NAN"],
    [1545687,"2026-03-19 15:30:00","46677","2.682","68.77","5.586","46.86","NAN","NAN","NAN","NAN","NAN"],
    [1545688,"2026-03-19 15:40:00","46678","2.767","58.55","4.802","65.49","NAN","NAN","NAN","NAN","NAN"],
    [1545689,"2026-03-19 15:50:00","46679","2.7","62.26","5.031","63.71","NAN","NAN","NAN","NAN","NAN"],
    [1545690,"2026-03-19 16:00:00","46680","2.519","56.87","5.749","68.37","NAN","NAN","NAN","NAN","NAN"],
    [1545691,"2026-03-19 16:10:00","46681","2.293","70.2","5.031","56.14","NAN","NAN","NAN","NAN","NAN"],
    [1545692,"2026-03-19 16:20:00","46682","2.935","60.24","5.619","50.49","NAN","NAN","NAN","NAN","NAN"],
    [1545693,"2026-03-19 16:30:00","46683","2.329","55.77","4.443","67.88","NAN","NAN","NAN","NAN","NAN"],
    [1545694,"2026-03-19 16:40:00","46684","1.8319999999999999","61.16","4.181","39.78","NAN","NAN","NAN","NAN","NAN"],
    [1545695,"2026-03-19 16:50:00","46685","2.305","55.78","4.998","52.4","NAN","NAN","NAN","NAN","NAN"],
    [1545696,"2026-03-19 17:00:00","46686","2.314","61.65","4.998","70.67","NAN","NAN","NAN","NAN","NAN"],
    [1545697,"2026-03-19 17:10:00","46687","2.076","73.34","4.965","74.84","NAN","NAN","NAN","NAN","NAN"],
    [1545698,"2026-03-19 17:20:00","46688","2.04","57.44","4.475","57.35","NAN","NAN","NAN","NAN","NAN"],
    [1545699,"2026-03-19 17:30:00","46689","2.191","72.94","4.443","83.4","NAN","NAN","NAN","NAN","NAN"],
    [1545700,"2026-03-19 17:40:00","46690","2.987","88.2","5.292","88.5","NAN","NAN","NAN","NAN","NAN"],
    [1545701,"2026-03-19 17:50:00","46691","2.988","84.0","5.259","86.5","NAN","NAN","NAN","NAN","NAN"],
    [1545702,"2026-03-19 18:00:00","46692","2.661","81.1","5.129","76.44","NAN","NAN","NAN","NAN","NAN"],
    [1545703,"2026-03-19 18:10:00","46693","2.269","81.3","3.757","82.7","NAN","NAN","NAN","NAN","NAN"],
    [1545704,"2026-03-19 18:20:00","46694","2.9","87.2","4.9","92","NAN","NAN","NAN","NAN","NAN"],
    [1545705,"2026-03-19 18:30:00","46695","2.475","85.3","4.606","94.8","NAN","NAN","NAN","NAN","NAN"],
    [1545706,"2026-03-19 18:40:00","46696","1.86","83.1","4.149","90.8","NAN","NAN","NAN","NAN","NAN"],
    [1545707,"2026-03-19 18:50:00","46697","2.7510000000000003","86.4","5.651","91.8","NAN","NAN","NAN","NAN","NAN"],
    [1545708,"2026-03-19 19:00:00","46698","1.177","83.1","3.299","60.73","NAN","NAN","NAN","NAN","NAN"],
    [1545709,"2026-03-19 19:10:00","46699","1.547","54.33","3.234","57.01","NAN","NAN","NAN","NAN","NAN"],
    [1545710,"2026-03-19 19:20:00","46700","1.482","55.64","3.43","52.62","NAN","NAN","NAN","NAN","NAN"],
    [1545711,"2026-03-19 19:30:00","46701","1.338","48.61","2.679","41.53","NAN","NAN","NAN","NAN","NAN"],
    [1545712,"2026-03-19 19:40:00","46702","1.008","47.32","2.058","51.46","NAN","NAN","NAN","NAN","NAN"],
    [1545713,"2026-03-19 19:50:00","46703","0.19699999999999998","42.01","1.143","41.81","NAN","NAN","NAN","NAN","NAN"],
    [1545714,"2026-03-19 20:00:00","46704","0.071","41.71","0.686","41.71","NAN","NAN","NAN","NAN","NAN"],
    [1545715,"2026-03-19 20:10:00","46705","0.016","41.63","0.457","41.62","NAN","NAN","NAN","NAN","NAN"],
    [1545716,"2026-03-19 20:20:00","46706","0.0","0.0","0","0","NAN","NAN","NAN","NAN","NAN"],
    [1545717,"2026-03-19 20:30:00","46707","0.0","0.0","0","0","NAN","NAN","NAN","NAN","NAN"],
    [1545718,"2026-03-19 20:40:00","46708","0.079","41.62","1.143","41.62","NAN","NAN","NAN","NAN","NAN"],
    [1545719,"2026-03-19 20:50:00","46709","0.36","41.6","1.209","41.62","NAN","NAN","NAN","NAN","NAN"],
    [1545720,"2026-03-19 21:00:00","46710","0.488","41.53","1.437","41.52","NAN","NAN","NAN","NAN","NAN"],
    [1545721,"2026-03-19 21:10:00","46711","0.45399999999999996","41.52","1.666","41.52","NAN","NAN","NAN","NAN","NAN"],
    [1545722,"2026-03-19 21:20:00","46712","0.479","41.51","1.731","41.52","NAN","NAN","NAN","NAN","NAN"],
    [1545723,"2026-03-19 21:30:00","46713","0.489","41.43","1.568","41.42","NAN","NAN","NAN","NAN","NAN"],
    [1545724,"2026-03-19 21:40:00","46714","0.052000000000000005","41.42","1.274","41.42","NAN","NAN","NAN","NAN","NAN"],
    [1545725,"2026-03-19 21:50:00","46715","0.175","41.42","0.719","41.42","NAN","NAN","NAN","NAN","NAN"],
    [1545726,"2026-03-19 22:00:00","46716","0.038","41.42","0.915","41.42","NAN","NAN","NAN","NAN","NAN"],
    [1545727,"2026-03-19 22:10:00","46717","0.462","41.42","1.437","41.42","NAN","NAN","NAN","NAN","NAN"],
    [1545728,"2026-03-19 22:20:00","46718","0.08","41.41","0.98","41.41","NAN","NAN","NAN","NAN","NAN"],
    [1545729,"2026-03-19 22:30:00","46719","0.5429999999999999","41.33","1.503","41.33","NAN","NAN","NAN","NAN","NAN"],
    [1545730,"2026-03-19 22:40:00","46720","0.313","41.33","1.307","41.33","NAN","NAN","NAN","NAN","NAN"],
    [1545731,"2026-03-19 22:50:00","46721","0.013999999999999999","41.33","0.294","41.33","NAN","NAN","NAN","NAN","NAN"],
    [1545732,"2026-03-19 23:00:00","46722","0.203","41.19","0.719","41.24","NAN","NAN","NAN","NAN","NAN"],
    [1545733,"2026-03-19 23:10:00","46723","0.054000000000000006","41.14","0.457","41.14","NAN","NAN","NAN","NAN","NAN"],
    [1545734,"2026-03-19 23:20:00","46724","0.0","0.0","0","0","NAN","NAN","NAN","NAN","NAN"],
    [1545735,"2026-03-19 23:30:00","46725","0.0","0.0","0","0","NAN","NAN","NAN","NAN","NAN"],
    [1545736,"2026-03-19 23:40:00","46726","0.0","0.0","0","0","NAN","NAN","NAN","NAN","NAN"],
    [1545737,"2026-03-19 23:50:00","46727","0.0","0.0","0","0","NAN","NAN","NAN","NAN","NAN"],
    [1545738,"2026-03-20 00:00:00","46728","0.01","41.15","0.294","41.15","NAN","NAN","NAN","NAN","NAN"],
    [1545739,"2026-03-20 00:10:00","46729","0.052000000000000005","41.15","0.751","41.15","NAN","NAN","NAN","NAN","NAN"],
    [1545740,"2026-03-20 00:20:00","46730","0.046","41.07","0.719","41.05","NAN","NAN","NAN","NAN","NAN"],
    [1545741,"2026-03-20 00:30:00","46731","0.511","40.78","0.849","40.76","NAN","NAN","NAN","NAN","NAN"],
    [1545742,"2026-03-20 00:40:00","46732","0.022000000000000002","40.47","0.49","40.47","NAN","NAN","NAN","NAN","NAN"],
    [1545743,"2026-03-20 00:50:00","46733","0.035","40.47","0.49","40.47","NAN","NAN","NAN","NAN","NAN"],
    [1545744,"2026-03-20 01:00:00","46734","0.0","0.0","0","0","NAN","NAN","NAN","NAN","NAN"],
    [1545745,"2026-03-20 01:10:00","46735","0.1","40.47","0.392","40.47","NAN","NAN","NAN","NAN","NAN"],
    [1545746,"2026-03-20 01:20:00","46736","0.32799999999999996","39.67","0.849","40.28","NAN","NAN","NAN","NAN","NAN"],
    [1545747,"2026-03-20 01:30:00","46737","0.474","35.14","0.915","37.17","NAN","NAN","NAN","NAN","NAN"],
    [1545748,"2026-03-20 01:40:00","46738","0.172","34.7","0.686","34.7","NAN","NAN","NAN","NAN","NAN"],
    [1545749,"2026-03-20 01:50:00","46739","0.057","34.7","0.882","34.7","NAN","NAN","NAN","NAN","NAN"],
    [1545750,"2026-03-20 02:00:00","46740","0.006","34.65","0.261","34.64","NAN","NAN","NAN","NAN","NAN"],
    [1545751,"2026-03-20 02:10:00","46741","0.0","0.0","0","0","NAN","NAN","NAN","NAN","NAN"],
    [1545752,"2026-03-20 02:20:00","46742","0.0","0.0","0","0","NAN","NAN","NAN","NAN","NAN"],
    [1545753,"2026-03-20 02:30:00","46743","0.046","34.62","0.653","34.6","NAN","NAN","NAN","NAN","NAN"],
    [1545754,"2026-03-20 02:40:00","46744","0.528","34.51","1.013","34.51","NAN","NAN","NAN","NAN","NAN"],
    [1545755,"2026-03-20 02:50:00","46745","0.166","34.41","1.078","34.41","NAN","NAN","NAN","NAN","NAN"],
    [1545756,"2026-03-20 03:00:00","46746","0.09300000000000001","22.72","0.915","34.03","NAN","NAN","NAN","NAN","NAN"],
    [1545757,"2026-03-20 03:10:00","46747","0.019","354.4","0.686","354.4","NAN","NAN","NAN","NAN","NAN"],
    [1545758,"2026-03-20 03:20:00","46748","0.015","354.3","0.49","354.2","NAN","NAN","NAN","NAN","NAN"],
    [1545759,"2026-03-20 03:30:00","46749","0.035","334.6","1.078","329.2","NAN","NAN","NAN","NAN","NAN"],
    [1545760,"2026-03-20 03:40:00","46750","0.43700000000000006","325.7","1.078","324.6","NAN","NAN","NAN","NAN","NAN"],
    [1545761,"2026-03-20 03:50:00","46751","1.208","307.9","2.973","295.8","NAN","NAN","NAN","NAN","NAN"],
    [1545762,"2026-03-20 04:00:00","46752","1.493","293.1","3.234","288.3","NAN","NAN","NAN","NAN","NAN"],
    [1545763,"2026-03-20 04:10:00","46753","0.742","295.4","1.927","293.8","NAN","NAN","NAN","NAN","NAN"],
    [1545764,"2026-03-20 04:20:00","46754","1.033","295.8","1.895","296.6","NAN","NAN","NAN","NAN","NAN"],
    [1545765,"2026-03-20 04:30:00","46755","0.924","292.4","1.699","291","NAN","NAN","NAN","NAN","NAN"],
    [1545766,"2026-03-20 04:40:00","46756","1.101","286.2","2.221","284.6","NAN","NAN","NAN","NAN","NAN"],
    [1545767,"2026-03-20 04:50:00","46757","1.013","284.4","2.025","284.4","NAN","NAN","NAN","NAN","NAN"],
    [1545768,"2026-03-20 05:00:00","46758","0.755","286.0","1.797","283.8","NAN","NAN","NAN","NAN","NAN"],
    [1545769,"2026-03-20 05:10:00","46759","0.469","288.0","1.568","289","NAN","NAN","NAN","NAN","NAN"],
    [1545770,"2026-03-20 05:20:00","46760","0.17800000000000002","289.7","0.98","289.6","NAN","NAN","NAN","NAN","NAN"],
    [1545771,"2026-03-20 05:30:00","46761","0.138","292.0","1.274","293","NAN","NAN","NAN","NAN","NAN"],
    [1545772,"2026-03-20 05:40:00","46762","0.7390000000000001","294.2","1.666","296","NAN","NAN","NAN","NAN","NAN"],
    [1545773,"2026-03-20 05:50:00","46763","0.9670000000000001","292.0","1.764","296.5","NAN","NAN","NAN","NAN","NAN"],
    [1545774,"2026-03-20 06:00:00","46764","0.374","287.4","1.241","286.3","NAN","NAN","NAN","NAN","NAN"],
    [1545775,"2026-03-20 06:10:00","46765","0.8340000000000001","284.4","2.483","277.8","NAN","NAN","NAN","NAN","NAN"],
    [1545776,"2026-03-20 06:20:00","46766","2.017","281.8","3.397","284.6","NAN","NAN","NAN","NAN","NAN"],
    [1545777,"2026-03-20 06:30:00","46767","1.985","286.3","4.149","291.3","NAN","NAN","NAN","NAN","NAN"],
    [1545778,"2026-03-20 06:40:00","46768","1.262","283.5","2.483","277.7","NAN","NAN","NAN","NAN","NAN"],
    [1545779,"2026-03-20 06:50:00","46769","1.841","282.8","3.005","279.8","NAN","NAN","NAN","NAN","NAN"],
    [1545780,"2026-03-20 07:00:00","46770","1.57","295.9","2.679","297.1","NAN","NAN","NAN","NAN","NAN"],
    [1545781,"2026-03-20 07:10:00","46771","1.496","297.7","2.842","300","NAN","NAN","NAN","NAN","NAN"],
    [1545782,"2026-03-20 07:20:00","46772","1.361","300.0","2.515","289.8","NAN","NAN","NAN","NAN","NAN"],
    [1545783,"2026-03-20 07:30:00","46773","1.053","300.5","1.927","302","NAN","NAN","NAN","NAN","NAN"],
    [1545784,"2026-03-20 07:40:00","46774","0.35600000000000004","300.7","1.241","302.1","NAN","NAN","NAN","NAN","NAN"],
    [1545785,"2026-03-20 07:50:00","46775","0.779","296.4","1.666","293","NAN","NAN","NAN","NAN","NAN"],
    [1545786,"2026-03-20 08:00:00","46776","0.722","291.2","1.96","289.5","NAN","NAN","NAN","NAN","NAN"],
    [1545787,"2026-03-20 08:10:00","46777","0.57","287.1","1.601","289.5","NAN","NAN","NAN","NAN","NAN"],
    [1545788,"2026-03-20 08:20:00","46778","0.048","287.1","0.947","287.7","NAN","NAN","NAN","NAN","NAN"],
    [1545789,"2026-03-20 08:30:00","46779","0.053","285.8","0.817","285.9","NAN","NAN","NAN","NAN","NAN"],
    [1545790,"2026-03-20 08:40:00","46780","0.0","0.0","0","0","NAN","NAN","NAN","NAN","NAN"],
    [1545791,"2026-03-20 08:50:00","46781","0.036000000000000004","311.4","0.621","297.1","NAN","NAN","NAN","NAN","NAN"],
    [1545792,"2026-03-20 09:00:00","46782","0.8690000000000001","18.52","3.789","113.6","NAN","NAN","NAN","NAN","NAN"],
    [1545793,"2026-03-20 09:10:00","46783","1.57","103.0","2.777","98.5","NAN","NAN","NAN","NAN","NAN"],
    [1545794,"2026-03-20 09:20:00","46784","1.567","99.7","2.875","93.9","NAN","NAN","NAN","NAN","NAN"],
    [1545795,"2026-03-20 09:30:00","46785","1.9469999999999998","96.9","3.659","96","NAN","NAN","NAN","NAN","NAN"],
    [1545796,"2026-03-20 09:40:00","46786","2.338","100.0","3.757","110.5","NAN","NAN","NAN","NAN","NAN"],
    [1545797,"2026-03-20 09:50:00","46787","2.3","97.2","3.463","92.7","NAN","NAN","NAN","NAN","NAN"],
    [1545798,"2026-03-20 10:00:00","46788","2.294","100.3","3.691","101.9","NAN","NAN","NAN","NAN","NAN"],
    [1545799,"2026-03-20 10:10:00","46789","1.93","94.7","3.528","77.24","NAN","NAN","NAN","NAN","NAN"],
    [1545800,"2026-03-20 10:20:00","46790","2.654","96.3","4.541","122.7","NAN","NAN","NAN","NAN","NAN"],
    [1545801,"2026-03-20 10:30:00","46791","2.076","95.2","3.561","95.6","NAN","NAN","NAN","NAN","NAN"],
    [1545802,"2026-03-20 10:40:00","46792","2.35","96.8","4.116","99.9","NAN","NAN","NAN","NAN","NAN"],
    [1545803,"2026-03-20 10:50:00","46793","2.42","105.0","4.345","102.7","NAN","NAN","NAN","NAN","NAN"],
    [1545804,"2026-03-20 11:00:00","46794","2.556","99.3","4.279","102.9","NAN","NAN","NAN","NAN","NAN"],
    [1545805,"2026-03-20 11:10:00","46795","2.72","79.54","4.247","82.7","NAN","NAN","NAN","NAN","NAN"],
    [1545806,"2026-03-20 11:20:00","46796","3.365","85.4","6.043","67.86","NAN","NAN","NAN","NAN","NAN"],
    [1545807,"2026-03-20 11:30:00","46797","2.9389999999999996","91.3","4.41","107.5","NAN","NAN","NAN","NAN","NAN"],
    [1545808,"2026-03-20 11:40:00","46798","3.0269999999999997","93.1","5.129","103.5","NAN","NAN","NAN","NAN","NAN"],
    [1545809,"2026-03-20 11:50:00","46799","3.358","97.1","5.227","99.4","NAN","NAN","NAN","NAN","NAN"],
    [1545810,"2026-03-20 12:00:00","46800","3.511","99.0","5.815","102.4","NAN","NAN","NAN","NAN","NAN"],
    [1545811,"2026-03-20 12:10:00","46801","2.998","98.9","4.998","112.6","NAN","NAN","NAN","NAN","NAN"],
    [1545812,"2026-03-20 12:20:00","46802","2.9330000000000003","91.7","5.521","85.5","NAN","NAN","NAN","NAN","NAN"],
    [1545813,"2026-03-20 12:30:00","46803","3.9939999999999998","91.8","6.501","104.5","NAN","NAN","NAN","NAN","NAN"],
    [1545814,"2026-03-20 12:40:00","46804","3.2739999999999996","95.7","6.664","90","NAN","NAN","NAN","NAN","NAN"],
    [1545815,"2026-03-20 12:50:00","46805","2.948","95.6","6.239","95.2","NAN","NAN","NAN","NAN","NAN"],
    [1545816,"2026-03-20 13:00:00","46806","2.661","85.1","4.541","72","NAN","NAN","NAN","NAN","NAN"],
    [1545817,"2026-03-20 13:10:00","46807","3.925","86.3","6.239","84.1","NAN","NAN","NAN","NAN","NAN"],
    [1545818,"2026-03-20 13:20:00","46808","3.2760000000000002","85.1","5.521","94.3","NAN","NAN","NAN","NAN","NAN"],
    [1545819,"2026-03-20 13:30:00","46809","3.218","82.7","5.945","85.8","NAN","NAN","NAN","NAN","NAN"],
    [1545820,"2026-03-20 13:40:00","46810","3.0660000000000003","84.8","5.227","89.5","NAN","NAN","NAN","NAN","NAN"],
    [1545821,"2026-03-20 13:50:00","46811","2.985","89.7","5.651","91.9","NAN","NAN","NAN","NAN","NAN"],
    [1545822,"2026-03-20 14:00:00","46812","3.2969999999999997","94.2","5.096","76.62","NAN","NAN","NAN","NAN","NAN"],
    [1545823,"2026-03-20 14:10:00","46813","3.265","92.9","5.423","76.53","NAN","NAN","NAN","NAN","NAN"],
    [1545824,"2026-03-20 14:20:00","46814","3.397","95.8","5.292","103.7","NAN","NAN","NAN","NAN","NAN"],
    [1545825,"2026-03-20 14:30:00","46815","3.205","100.8","5.227","103.8","NAN","NAN","NAN","NAN","NAN"],
    [1545826,"2026-03-20 14:40:00","46816","3.155","97.7","5.619","95.1","NAN","NAN","NAN","NAN","NAN"],
    [1545827,"2026-03-20 14:50:00","46817","3.017","99.7","5.521","111.7","NAN","NAN","NAN","NAN","NAN"],
    [1545828,"2026-03-20 15:00:00","46818","2.9610000000000003","95.8","5.161","103","NAN","NAN","NAN","NAN","NAN"],
    [1545829,"2026-03-20 15:10:00","46819","2.9610000000000003","83.6","4.965","65.85","NAN","NAN","NAN","NAN","NAN"],
    [1545830,"2026-03-20 15:20:00","46820","2.859","97.8","4.965","107.9","NAN","NAN","NAN","NAN","NAN"],
    [1545831,"2026-03-20 15:30:00","46821","2.9019999999999997","97.5","4.508","98.9","NAN","NAN","NAN","NAN","NAN"],
    [1545832,"2026-03-20 15:40:00","46822","3.0610000000000004","98.9","4.345","90.8","NAN","NAN","NAN","NAN","NAN"],
    [1545833,"2026-03-20 15:50:00","46823","2.844","98.6","4.279","96.2","NAN","NAN","NAN","NAN","NAN"],
    [1545834,"2026-03-20 16:00:00","46824","2.448","101.4","4.018","125.4","NAN","NAN","NAN","NAN","NAN"],
    [1545835,"2026-03-20 16:10:00","46825","2.72","91.5","4.247","86.3","NAN","NAN","NAN","NAN","NAN"],
    [1545836,"2026-03-20 16:20:00","46826","2.93","91.3","4.214","80.6","NAN","NAN","NAN","NAN","NAN"],
    [1545837,"2026-03-20 16:30:00","46827","2.487","95.0","4.116","81","NAN","NAN","NAN","NAN","NAN"],
    [1545838,"2026-03-20 16:40:00","46828","2.576","89.2","4.214","87.6","NAN","NAN","NAN","NAN","NAN"],
    [1545839,"2026-03-20 16:50:00","46829","2.437","103.5","4.181","95.7","NAN","NAN","NAN","NAN","NAN"],
    [1545840,"2026-03-20 17:00:00","46830","1.965","110.1","3.757","104.7","NAN","NAN","NAN","NAN","NAN"],
    [1545841,"2026-03-20 17:10:00","46831","1.9169999999999998","92.1","3.201","99.5","NAN","NAN","NAN","NAN","NAN"],
    [1545842,"2026-03-20 17:20:00","46832","1.999","99.5","3.397","96.1","NAN","NAN","NAN","NAN","NAN"],
    [1545843,"2026-03-20 17:30:00","46833","1.848","94.2","3.397","90.7","NAN","NAN","NAN","NAN","NAN"],
    [1545844,"2026-03-20 17:40:00","46834","1.805","93.7","3.267","90","NAN","NAN","NAN","NAN","NAN"],
    [1545845,"2026-03-20 17:50:00","46835","2.269","99.4","3.528","98.6","NAN","NAN","NAN","NAN","NAN"],
    [1545846,"2026-03-20 18:00:00","46836","1.995","95.7","3.365","90.5","NAN","NAN","NAN","NAN","NAN"],
    [1545847,"2026-03-20 18:10:00","46837","1.8559999999999999","95.3","3.103","94.3","NAN","NAN","NAN","NAN","NAN"],
    [1545848,"2026-03-20 18:20:00","46838","1.855","90.8","2.875","95.6","NAN","NAN","NAN","NAN","NAN"],
    [1545849,"2026-03-20 18:30:00","46839","1.386","90.9","2.515","94.1","NAN","NAN","NAN","NAN","NAN"],
    [1545850,"2026-03-20 18:40:00","46840","1.46","84.6","2.711","83.1","NAN","NAN","NAN","NAN","NAN"],
    [1545851,"2026-03-20 18:50:00","46841","1.275","83.2","2.548","86.4","NAN","NAN","NAN","NAN","NAN"],
    [1545852,"2026-03-20 19:00:00","46842","0.457","86.1","1.764","81.2","NAN","NAN","NAN","NAN","NAN"],
    [1545853,"2026-03-20 19:10:00","46843","0.7440000000000001","83.1","1.568","82.4","NAN","NAN","NAN","NAN","NAN"],
    [1545854,"2026-03-20 19:20:00","46844","1.2329999999999999","81.6","2.352","79.97","NAN","NAN","NAN","NAN","NAN"],
    [1545855,"2026-03-20 19:30:00","46845","1.591","73.83","2.613","75.9","NAN","NAN","NAN","NAN","NAN"],
    [1545856,"2026-03-20 19:40:00","46846","0.893","69.37","1.895","68.58","NAN","NAN","NAN","NAN","NAN"],
    [1545857,"2026-03-20 19:50:00","46847","0.754","71.2","2.189","71.93","NAN","NAN","NAN","NAN","NAN"],
    [1545858,"2026-03-20 20:00:00","46848","1.209","74.77","2.352","69.39","NAN","NAN","NAN","NAN","NAN"],
    [1545859,"2026-03-20 20:10:00","46849","1.042","76.23","1.993","76.88","NAN","NAN","NAN","NAN","NAN"],
    [1545860,"2026-03-20 20:20:00","46850","0.47600000000000003","78.65","1.307","78.37","NAN","NAN","NAN","NAN","NAN"],
    [1545861,"2026-03-20 20:30:00","46851","0.19399999999999998","72.2","0.849","68.96","NAN","NAN","NAN","NAN","NAN"],
    [1545862,"2026-03-20 20:40:00","46852","0.052000000000000005","68.58","1.078","68.58","NAN","NAN","NAN","NAN","NAN"],
    [1545863,"2026-03-20 20:50:00","46853","0.0","0.0","0","0","NAN","NAN","NAN","NAN","NAN"],
    [1545864,"2026-03-20 21:00:00","46854","0.0","0.0","0","0","NAN","NAN","NAN","NAN","NAN"],
    [1545865,"2026-03-20 21:10:00","46855","0.0","0.0","0","0","NAN","NAN","NAN","NAN","NAN"],
    [1545866,"2026-03-20 21:20:00","46856","0.006999999999999999","68.38","0.327","68.38","NAN","NAN","NAN","NAN","NAN"],
    [1545867,"2026-03-20 21:30:00","46857","0.0","0.0","0","0","NAN","NAN","NAN","NAN","NAN"],
    [1545868,"2026-03-20 21:40:00","46858","0.0","0.0","0","0","NAN","NAN","NAN","NAN","NAN"],
    [1545869,"2026-03-20 21:50:00","46859","0.38799999999999996","68.36","1.47","68.29","NAN","NAN","NAN","NAN","NAN"],
    [1545870,"2026-03-20 22:00:00","46860","0.782","68.15","1.47","68.29","NAN","NAN","NAN","NAN","NAN"],
    [1545871,"2026-03-20 22:10:00","46861","0.168","68.13","0.653","68.14","NAN","NAN","NAN","NAN","NAN"],
    [1545872,"2026-03-20 22:20:00","46862","0.062","68.17","0.588","68.12","NAN","NAN","NAN","NAN","NAN"],
    [1545873,"2026-03-20 22:30:00","46863","0.491","68.1","1.143","68.1","NAN","NAN","NAN","NAN","NAN"],
    [1545874,"2026-03-20 22:40:00","46864","0.456","68.09","1.241","68.09","NAN","NAN","NAN","NAN","NAN"],
    [1545875,"2026-03-20 22:50:00","46865","0.515","68.1","1.209","68.1","NAN","NAN","NAN","NAN","NAN"],
    [1545876,"2026-03-20 23:00:00","46866","1.153","67.88","1.633","68","NAN","NAN","NAN","NAN","NAN"],
    [1545877,"2026-03-20 23:10:00","46867","0.8959999999999999","67.22","1.535","67.16","NAN","NAN","NAN","NAN","NAN"],
    [1545878,"2026-03-20 23:20:00","46868","0.638","67.07","1.339","67.13","NAN","NAN","NAN","NAN","NAN"],
    [1545879,"2026-03-20 23:30:00","46869","0.47200000000000003","61.71","1.601","61.96","NAN","NAN","NAN","NAN","NAN"],
    [1545880,"2026-03-20 23:40:00","46870","0.214","61.58","0.98","61.55","NAN","NAN","NAN","NAN","NAN"],
    [1545881,"2026-03-20 23:50:00","46871","0.825","61.51","1.731","61.46","NAN","NAN","NAN","NAN","NAN"],
    [1545882,"2026-03-21 00:00:00","46872","0.851","61.46","1.568","61.46","NAN","NAN","NAN","NAN","NAN"],
    [1545883,"2026-03-21 00:10:00","46873","0.838","61.06","1.601","60.81","NAN","NAN","NAN","NAN","NAN"],
    [1545884,"2026-03-21 00:20:00","46874","0.86","60.75","1.503","60.69","NAN","NAN","NAN","NAN","NAN"],
    [1545885,"2026-03-21 00:30:00","46875","0.629","60.6","1.601","60.69","NAN","NAN","NAN","NAN","NAN"],
    [1545886,"2026-03-21 00:40:00","46876","0.9570000000000001","60.46","1.699","60.5","NAN","NAN","NAN","NAN","NAN"],
    [1545887,"2026-03-21 00:50:00","46877","0.69","59.82","1.568","59.82","NAN","NAN","NAN","NAN","NAN"],
    [1545888,"2026-03-21 01:00:00","46878","0.546","25.42","1.666","54.79","NAN","NAN","NAN","NAN","NAN"],
    [1545889,"2026-03-21 01:10:00","46879","1.048","314.5","2.287","294.5","NAN","NAN","NAN","NAN","NAN"],
    [1545890,"2026-03-21 01:20:00","46880","1.2919999999999998","293.6","2.744","293.8","NAN","NAN","NAN","NAN","NAN"],
    [1545891,"2026-03-21 01:30:00","46881","1.105","294.9","2.45","293.5","NAN","NAN","NAN","NAN","NAN"],
    [1545892,"2026-03-21 01:40:00","46882","1.079","293.5","1.797","293.3","NAN","NAN","NAN","NAN","NAN"],
    [1545893,"2026-03-21 01:50:00","46883","0.664","293.6","1.405","293.3","NAN","NAN","NAN","NAN","NAN"],
    [1545894,"2026-03-21 02:00:00","46884","0.857","294.2","2.058","292.9","NAN","NAN","NAN","NAN","NAN"],
    [1545895,"2026-03-21 02:10:00","46885","1.784","290.7","2.646","292.7","NAN","NAN","NAN","NAN","NAN"],
    [1545896,"2026-03-21 02:20:00","46886","2.144","282.2","3.038","281.6","NAN","NAN","NAN","NAN","NAN"],
    [1545897,"2026-03-21 02:30:00","46887","1.212","283.2","2.907","279.4","NAN","NAN","NAN","NAN","NAN"],
    [1545898,"2026-03-21 02:40:00","46888","1.1079999999999999","286.6","2.123","286.6","NAN","NAN","NAN","NAN","NAN"],
    [1545899,"2026-03-21 02:50:00","46889","1.818","282.2","2.646","288.4","NAN","NAN","NAN","NAN","NAN"],
    [1545900,"2026-03-21 03:00:00","46890","1.5190000000000001","281.6","2.417","277.1","NAN","NAN","NAN","NAN","NAN"],
    [1545901,"2026-03-21 03:10:00","46891","1.43","285.8","2.123","283.7","NAN","NAN","NAN","NAN","NAN"],
    [1545902,"2026-03-21 03:20:00","46892","0.9279999999999999","287.1","1.797","289.6","NAN","NAN","NAN","NAN","NAN"],
    [1545903,"2026-03-21 03:30:00","46893","0.524","285.9","1.764","289.8","NAN","NAN","NAN","NAN","NAN"],
    [1545904,"2026-03-21 03:40:00","46894","0.5710000000000001","287.3","1.666","289.8","NAN","NAN","NAN","NAN","NAN"],
    [1545905,"2026-03-21 03:50:00","46895","0.42100000000000004","285.0","1.666","284.8","NAN","NAN","NAN","NAN","NAN"],
    [1545906,"2026-03-21 04:00:00","46896","1.16","280.4","2.025","278.8","NAN","NAN","NAN","NAN","NAN"],
    [1545907,"2026-03-21 04:10:00","46897","0.752","284.5","1.927","280.7","NAN","NAN","NAN","NAN","NAN"],
    [1545908,"2026-03-21 04:20:00","46898","1.114","282.2","1.927","282.1","NAN","NAN","NAN","NAN","NAN"],
    [1545909,"2026-03-21 04:30:00","46899","1.6569999999999998","279.8","2.515","281.9","NAN","NAN","NAN","NAN","NAN"],
    [1545910,"2026-03-21 04:40:00","46900","1.5519999999999998","283.4","2.809","276.6","NAN","NAN","NAN","NAN","NAN"],
    [1545911,"2026-03-21 04:50:00","46901","1.781","281.0","2.809","280.8","NAN","NAN","NAN","NAN","NAN"],
    [1545912,"2026-03-21 05:00:00","46902","2.14","281.6","3.071","288.3","NAN","NAN","NAN","NAN","NAN"],
    [1545913,"2026-03-21 05:10:00","46903","2.255","280.1","3.495","277.5","NAN","NAN","NAN","NAN","NAN"],
    [1545914,"2026-03-21 05:20:00","46904","2.309","271.5","3.822","271","NAN","NAN","NAN","NAN","NAN"],
    [1545915,"2026-03-21 05:30:00","46905","1.415","272.6","2.483","276.7","NAN","NAN","NAN","NAN","NAN"],
    [1545916,"2026-03-21 05:40:00","46906","1.314","275.8","2.45","276.8","NAN","NAN","NAN","NAN","NAN"],
    [1545917,"2026-03-21 05:50:00","46907","1.179","277.7","2.385","278.2","NAN","NAN","NAN","NAN","NAN"],
    [1545918,"2026-03-21 06:00:00","46908","1.05","278.5","2.417","279.7","NAN","NAN","NAN","NAN","NAN"],
    [1545919,"2026-03-21 06:10:00","46909","1.3219999999999998","278.7","2.581","281.3","NAN","NAN","NAN","NAN","NAN"],
    [1545920,"2026-03-21 06:20:00","46910","1.564","280.2","2.875","277.7","NAN","NAN","NAN","NAN","NAN"],
    [1545921,"2026-03-21 06:30:00","46911","1.743","283.4","3.005","286","NAN","NAN","NAN","NAN","NAN"],
    [1545922,"2026-03-21 06:40:00","46912","1.95","284.2","3.365","281.4","NAN","NAN","NAN","NAN","NAN"],
    [1545923,"2026-03-21 06:50:00","46913","1.885","286.0","3.267","286.5","NAN","NAN","NAN","NAN","NAN"],
    [1545924,"2026-03-21 07:00:00","46914","2.065","284.0","3.659","284.9","NAN","NAN","NAN","NAN","NAN"],
    [1545925,"2026-03-21 07:10:00","46915","1.9080000000000001","283.1","3.267","288.5","NAN","NAN","NAN","NAN","NAN"],
    [1545926,"2026-03-21 07:20:00","46916","1.979","286.1","3.234","285.4","NAN","NAN","NAN","NAN","NAN"],
    [1545927,"2026-03-21 07:30:00","46917","1.5719999999999998","288.5","2.744","292.4","NAN","NAN","NAN","NAN","NAN"],
    [1545928,"2026-03-21 07:40:00","46918","1.9480000000000002","289.5","2.907","289.4","NAN","NAN","NAN","NAN","NAN"],
    [1545929,"2026-03-21 07:50:00","46919","1.743","281.6","2.777","286.8","NAN","NAN","NAN","NAN","NAN"],
    [1545930,"2026-03-21 08:00:00","46920","1.5630000000000002","288.2","2.711","293.2","NAN","NAN","NAN","NAN","NAN"],
    [1545931,"2026-03-21 08:10:00","46921","1.662","291.1","2.417","293.4","NAN","NAN","NAN","NAN","NAN"],
    [1545932,"2026-03-21 08:20:00","46922","1.466","290.2","2.123","293.5","NAN","NAN","NAN","NAN","NAN"],
    [1545933,"2026-03-21 08:30:00","46923","1.1840000000000002","288.9","1.895","293","NAN","NAN","NAN","NAN","NAN"],
    [1545934,"2026-03-21 08:40:00","46924","0.841","283.0","2.287","293.2","NAN","NAN","NAN","NAN","NAN"],
    [1545935,"2026-03-21 08:50:00","46925","1.063","283.4","2.189","279.6","NAN","NAN","NAN","NAN","NAN"],
    [1545936,"2026-03-21 09:00:00","46926","1.3880000000000001","275.8","2.254","278.7","NAN","NAN","NAN","NAN","NAN"],
    [1545937,"2026-03-21 09:10:00","46927","1.574","274.6","2.711","271.6","NAN","NAN","NAN","NAN","NAN"],
    [1545938,"2026-03-21 09:20:00","46928","1.284","273.7","2.319","272.2","NAN","NAN","NAN","NAN","NAN"],
    [1545939,"2026-03-21 09:30:00","46929","0.982","271.3","1.764","271.9","NAN","NAN","NAN","NAN","NAN"],
    [1545940,"2026-03-21 09:40:00","46930","0.6509999999999999","271.3","2.091","271","NAN","NAN","NAN","NAN","NAN"],
    [1545941,"2026-03-21 09:50:00","46931","0.0","0.0","0","0","NAN","NAN","NAN","NAN","NAN"],
    [1545942,"2026-03-21 10:00:00","46932","0.52","282.2","1.699","290.9","NAN","NAN","NAN","NAN","NAN"],
    [1545943,"2026-03-21 10:10:00","46933","1.4240000000000002","20.99","3.332","103.9","NAN","NAN","NAN","NAN","NAN"],
    [1545944,"2026-03-21 10:20:00","46934","2.338","110.5","3.397","112.4","NAN","NAN","NAN","NAN","NAN"],
    [1545945,"2026-03-21 10:30:00","46935","2.0980000000000003","114.6","3.169","112.2","NAN","NAN","NAN","NAN","NAN"],
    [1545946,"2026-03-21 10:40:00","46936","3.0189999999999997","134.8","4.214","143.6","NAN","NAN","NAN","NAN","NAN"],
    [1545947,"2026-03-21 10:50:00","46937","2.6639999999999997","130.8","4.181","124.4","NAN","NAN","NAN","NAN","NAN"],
    [1545948,"2026-03-21 11:00:00","46938","2.241","126.8","4.051","123.8","NAN","NAN","NAN","NAN","NAN"],
    [1545949,"2026-03-21 11:10:00","46939","2.474","125.7","4.181","128.8","NAN","NAN","NAN","NAN","NAN"],
    [1545950,"2026-03-21 11:20:00","46940","2.6910000000000003","154.0","3.92","137.2","NAN","NAN","NAN","NAN","NAN"],
    [1545951,"2026-03-21 11:30:00","46941","2.384","185.3","4.149","186.7","NAN","NAN","NAN","NAN","NAN"],
    [1545952,"2026-03-21 11:40:00","46942","3.157","188.1","5.325","194.7","NAN","NAN","NAN","NAN","NAN"],
    [1545953,"2026-03-21 11:50:00","46943","3.2489999999999997","179.7","5.292","171.3","NAN","NAN","NAN","NAN","NAN"],
    [1545954,"2026-03-21 12:00:00","46944","2.9610000000000003","189.3","5.292","210.8","NAN","NAN","NAN","NAN","NAN"],
    [1545955,"2026-03-21 12:10:00","46945","3.312","183.9","5.684","174.9","NAN","NAN","NAN","NAN","NAN"],
    [1545956,"2026-03-21 12:20:00","46946","3.638","190.8","5.847","170.3","NAN","NAN","NAN","NAN","NAN"],
    [1545957,"2026-03-21 12:30:00","46947","3.266","197.8","5.357","175.9","NAN","NAN","NAN","NAN","NAN"],
    [1545958,"2026-03-21 12:40:00","46948","2.9560000000000004","189.6","5.651","215","NAN","NAN","NAN","NAN","NAN"],
    [1545959,"2026-03-21 12:50:00","46949","2.7430000000000003","192.7","4.671","215.6","NAN","NAN","NAN","NAN","NAN"],
    [1545960,"2026-03-21 13:00:00","46950","3.332","209.7","5.455","209","NAN","NAN","NAN","NAN","NAN"],
    [1545961,"2026-03-21 13:10:00","46951","3.6430000000000002","210.3","5.88","209.2","NAN","NAN","NAN","NAN","NAN"],
    [1545962,"2026-03-21 13:20:00","46952","3.418","198.2","5.357","215.5","NAN","NAN","NAN","NAN","NAN"],
    [1545963,"2026-03-21 13:30:00","46953","3.5060000000000002","211.6","5.521","217.3","NAN","NAN","NAN","NAN","NAN"],
    [1545964,"2026-03-21 13:40:00","46954","3.074","207.9","5.129","219.9","NAN","NAN","NAN","NAN","NAN"],
    [1545965,"2026-03-21 13:50:00","46955","3.928","203.8","5.717","213.1","NAN","NAN","NAN","NAN","NAN"],
    [1545966,"2026-03-21 14:00:00","46956","3.036","182.9","6.207","166","NAN","NAN","NAN","NAN","NAN"],
    [1545967,"2026-03-21 14:10:00","46957","3.0589999999999997","198.6","5.586","211","NAN","NAN","NAN","NAN","NAN"],
    [1545968,"2026-03-21 14:20:00","46958","3.092","189.7","5.455","216.1","NAN","NAN","NAN","NAN","NAN"],
    [1545969,"2026-03-21 14:30:00","46959","3.725","193.4","5.717","210.4","NAN","NAN","NAN","NAN","NAN"],
    [1545970,"2026-03-21 14:40:00","46960","3.565","204.2","6.174","216.5","NAN","NAN","NAN","NAN","NAN"],
    [1545971,"2026-03-21 14:50:00","46961","2.908","191.9","6.109","215.7","NAN","NAN","NAN","NAN","NAN"],
    [1545972,"2026-03-21 15:00:00","46962","3.2319999999999998","209.5","5.684","204.5","NAN","NAN","NAN","NAN","NAN"],
    [1545973,"2026-03-21 15:10:00","46963","3.1319999999999997","202.0","5.88","240.3","NAN","NAN","NAN","NAN","NAN"],
    [1545974,"2026-03-21 15:20:00","46964","4.178","208.2","6.239","209.2","NAN","NAN","NAN","NAN","NAN"],
    [1545975,"2026-03-21 15:30:00","46965","3.319","211.3","5.684","200.5","NAN","NAN","NAN","NAN","NAN"],
    [1545976,"2026-03-21 15:40:00","46966","3.41","200.0","5.88","207.7","NAN","NAN","NAN","NAN","NAN"],
    [1545977,"2026-03-21 15:50:00","46967","3.312","212.9","5.717","209.8","NAN","NAN","NAN","NAN","NAN"],
    [1545978,"2026-03-21 16:00:00","46968","3.07","212.4","5.619","225.2","NAN","NAN","NAN","NAN","NAN"],
    [1545979,"2026-03-21 16:10:00","46969","3.616","210.8","5.684","238.4","NAN","NAN","NAN","NAN","NAN"],
    [1545980,"2026-03-21 16:20:00","46970","3.2880000000000003","208.4","5.651","204","NAN","NAN","NAN","NAN","NAN"],
    [1545981,"2026-03-21 16:30:00","46971","3.008","205.0","5.586","219.5","NAN","NAN","NAN","NAN","NAN"],
    [1545982,"2026-03-21 16:40:00","46972","3.345","215.2","5.292","208.7","NAN","NAN","NAN","NAN","NAN"],
    [1545983,"2026-03-21 16:50:00","46973","3.029","208.9","5.586","214.1","NAN","NAN","NAN","NAN","NAN"],
    [1545984,"2026-03-21 17:00:00","46974","3.0639999999999996","210.5","5.161","211.6","NAN","NAN","NAN","NAN","NAN"],
    [1545985,"2026-03-21 17:10:00","46975","3.028","219.9","5.096","213.5","NAN","NAN","NAN","NAN","NAN"],
    [1545986,"2026-03-21 17:20:00","46976","2.7230000000000003","214.8","4.475","212.7","NAN","NAN","NAN","NAN","NAN"],
    [1545987,"2026-03-21 17:30:00","46977","2.553","216.8","4.606","222","NAN","NAN","NAN","NAN","NAN"],
    [1545988,"2026-03-21 17:40:00","46978","2.28","232.2","4.312","233.4","NAN","NAN","NAN","NAN","NAN"],
    [1545989,"2026-03-21 17:50:00","46979","2.009","232.4","3.92","240.6","NAN","NAN","NAN","NAN","NAN"],
    [1545990,"2026-03-21 18:00:00","46980","1.551","231.4","3.887","237.1","NAN","NAN","NAN","NAN","NAN"],
    [1545991,"2026-03-21 18:10:00","46981","1.589","230.5","3.071","242.7","NAN","NAN","NAN","NAN","NAN"],
    [1545992,"2026-03-21 18:20:00","46982","1.358","231.9","2.45","233","NAN","NAN","NAN","NAN","NAN"],
    [1545993,"2026-03-21 18:30:00","46983","1.151","232.1","2.45","226.9","NAN","NAN","NAN","NAN","NAN"],
    [1545994,"2026-03-21 18:40:00","46984","1.4809999999999999","230.1","2.973","234.7","NAN","NAN","NAN","NAN","NAN"],
    [1545995,"2026-03-21 18:50:00","46985","0.961","230.4","2.352","229.8","NAN","NAN","NAN","NAN","NAN"],
    [1545996,"2026-03-21 19:00:00","46986","1.075","236.6","2.483","235.5","NAN","NAN","NAN","NAN","NAN"],
    [1545997,"2026-03-21 19:10:00","46987","0.49","237.5","1.535","233.6","NAN","NAN","NAN","NAN","NAN"],
    [1545998,"2026-03-21 19:20:00","46988","1.094","236.3","2.483","233.1","NAN","NAN","NAN","NAN","NAN"],
    [1545999,"2026-03-21 19:30:00","46989","0.8440000000000001","238.0","1.993","239.4","NAN","NAN","NAN","NAN","NAN"],
    [1546000,"2026-03-21 19:40:00","46990","1.296","239.9","2.287","240.3","NAN","NAN","NAN","NAN","NAN"],
    [1546001,"2026-03-21 19:50:00","46991","1.062","239.1","1.96","240.5","NAN","NAN","NAN","NAN","NAN"],
    [1546002,"2026-03-21 20:00:00","46992","1.379","241.2","2.417","241","NAN","NAN","NAN","NAN","NAN"],
    [1546003,"2026-03-21 20:10:00","46993","1.652","244.4","3.103","244.9","NAN","NAN","NAN","NAN","NAN"],
    [1546004,"2026-03-21 20:20:00","46994","0.8","245.4","1.535","245.4","NAN","NAN","NAN","NAN","NAN"],
    [1546005,"2026-03-21 20:30:00","46995","0.0","0.0","0","0","NAN","NAN","NAN","NAN","NAN"],
    [1546006,"2026-03-21 20:40:00","46996","0.489","245.4","1.437","245.5","NAN","NAN","NAN","NAN","NAN"],
    [1546007,"2026-03-21 20:50:00","46997","0.9940000000000001","245.5","1.96","245.6","NAN","NAN","NAN","NAN","NAN"],
    [1546008,"2026-03-21 21:00:00","46998","1.175","245.6","1.927","245.5","NAN","NAN","NAN","NAN","NAN"],
    [1546009,"2026-03-21 21:10:00","46999","0.375","245.5","1.176","245.5","NAN","NAN","NAN","NAN","NAN"],
    [1546010,"2026-03-21 21:20:00","47000","0.0","0.0","0","0","NAN","NAN","NAN","NAN","NAN"],
    [1546011,"2026-03-21 21:30:00","47001","0.0","0.0","0","0","NAN","NAN","NAN","NAN","NAN"],
    [1546012,"2026-03-21 21:40:00","47002","0.006999999999999999","245.6","0.327","245.5","NAN","NAN","NAN","NAN","NAN"],
    [1546013,"2026-03-21 21:50:00","47003","0.0","0.0","0","0","NAN","NAN","NAN","NAN","NAN"],
    [1546014,"2026-03-21 22:00:00","47004","0.0","0.0","0","0","NAN","NAN","NAN","NAN","NAN"],
    [1546015,"2026-03-21 22:10:00","47005","0.19399999999999998","245.6","0.784","245.6","NAN","NAN","NAN","NAN","NAN"],
    [1546016,"2026-03-21 22:20:00","47006","0.501","245.6","1.013","245.6","NAN","NAN","NAN","NAN","NAN"],
    [1546017,"2026-03-21 22:30:00","47007","0.45299999999999996","245.6","1.927","245.6","NAN","NAN","NAN","NAN","NAN"],
    [1546018,"2026-03-21 22:40:00","47008","0.655","245.6","1.47","245.6","NAN","NAN","NAN","NAN","NAN"],
    [1546019,"2026-03-21 22:50:00","47009","1.112","245.6","1.829","245.6","NAN","NAN","NAN","NAN","NAN"],
    [1546020,"2026-03-21 23:00:00","47010","0.945","245.7","1.568","245.7","NAN","NAN","NAN","NAN","NAN"],
    [1546021,"2026-03-21 23:10:00","47011","1.3030000000000002","245.7","2.025","245.7","NAN","NAN","NAN","NAN","NAN"],
    [1546022,"2026-03-21 23:20:00","47012","0.892","245.8","1.633","245.8","NAN","NAN","NAN","NAN","NAN"],
    [1546023,"2026-03-21 23:30:00","47013","0.7440000000000001","245.8","1.372","245.8","NAN","NAN","NAN","NAN","NAN"],
    [1546024,"2026-03-21 23:40:00","47014","0.93","245.9","1.601","245.9","NAN","NAN","NAN","NAN","NAN"],
    [1546025,"2026-03-21 23:50:00","47015","0.9259999999999999","246.1","1.829","246","NAN","NAN","NAN","NAN","NAN"],
    [1546026,"2026-03-22 00:00:00","47016","1.3090000000000002","259.2","2.189","254.3","NAN","NAN","NAN","NAN","NAN"],
    [1546027,"2026-03-22 00:10:00","47017","1.124","260.6","1.993","260.6","NAN","NAN","NAN","NAN","NAN"],
    [1546028,"2026-03-22 00:20:00","47018","1.405","260.7","2.352","260.8","NAN","NAN","NAN","NAN","NAN"],
    [1546029,"2026-03-22 00:30:00","47019","1.1340000000000001","261.1","2.189","261.3","NAN","NAN","NAN","NAN","NAN"],
    [1546030,"2026-03-22 00:40:00","47020","1.1840000000000002","263.8","2.417","266.6","NAN","NAN","NAN","NAN","NAN"],
    [1546031,"2026-03-22 00:50:00","47021","1.8159999999999998","278.9","2.842","279.8","NAN","NAN","NAN","NAN","NAN"],
    [1546032,"2026-03-22 01:00:00","47022","2.306","284.8","3.953","276.7","NAN","NAN","NAN","NAN","NAN"],
    [1546033,"2026-03-22 01:10:00","47023","2.424","288.2","3.724","288.9","NAN","NAN","NAN","NAN","NAN"],
    [1546034,"2026-03-22 01:20:00","47024","1.633","288.1","3.038","290.6","NAN","NAN","NAN","NAN","NAN"],
    [1546035,"2026-03-22 01:30:00","47025","1.6980000000000002","279.1","3.201","279","NAN","NAN","NAN","NAN","NAN"],
    [1546036,"2026-03-22 01:40:00","47026","1.655","282.6","2.744","278.8","NAN","NAN","NAN","NAN","NAN"],
    [1546037,"2026-03-22 01:50:00","47027","1.455","282.3","2.842","285.5","NAN","NAN","NAN","NAN","NAN"],
    [1546038,"2026-03-22 02:00:00","47028","1.431","280.1","2.352","276","NAN","NAN","NAN","NAN","NAN"],
    [1546039,"2026-03-22 02:10:00","47029","1.49","278.0","2.581","286.2","NAN","NAN","NAN","NAN","NAN"],
    [1546040,"2026-03-22 02:20:00","47030","1.492","279.7","2.385","285.3","NAN","NAN","NAN","NAN","NAN"],
    [1546041,"2026-03-22 02:30:00","47031","1.151","273.0","2.189","276.3","NAN","NAN","NAN","NAN","NAN"],
    [1546042,"2026-03-22 02:40:00","47032","1.246","270.0","2.221","270.8","NAN","NAN","NAN","NAN","NAN"],
    [1546043,"2026-03-22 02:50:00","47033","1.4880000000000002","264.7","2.581","262.9","NAN","NAN","NAN","NAN","NAN"],
    [1546044,"2026-03-22 03:00:00","47034","1.544","267.4","2.221","272.7","NAN","NAN","NAN","NAN","NAN"],
    [1546045,"2026-03-22 03:10:00","47035","1.5319999999999998","267.1","2.385","269.8","NAN","NAN","NAN","NAN","NAN"],
    [1546046,"2026-03-22 03:20:00","47036","1.212","265.2","1.993","268.6","NAN","NAN","NAN","NAN","NAN"],
    [1546047,"2026-03-22 03:30:00","47037","0.929","264.0","1.535","262.4","NAN","NAN","NAN","NAN","NAN"],
    [1546048,"2026-03-22 03:40:00","47038","1.284","263.4","2.319","266.8","NAN","NAN","NAN","NAN","NAN"],
    [1546049,"2026-03-22 03:50:00","47039","1.6909999999999998","265.5","2.907","261.8","NAN","NAN","NAN","NAN","NAN"],
    [1546050,"2026-03-22 04:00:00","47040","1.776","262.9","2.581","261.5","NAN","NAN","NAN","NAN","NAN"],
    [1546051,"2026-03-22 04:10:00","47041","1.27","268.4","2.254","271.4","NAN","NAN","NAN","NAN","NAN"],
    [1546052,"2026-03-22 04:20:00","47042","0.8079999999999999","270.2","1.895","264.6","NAN","NAN","NAN","NAN","NAN"],
    [1546053,"2026-03-22 04:30:00","47043","1.111","262.9","2.319","262.7","NAN","NAN","NAN","NAN","NAN"],
    [1546054,"2026-03-22 04:40:00","47044","1.3559999999999999","270.3","2.515","267.7","NAN","NAN","NAN","NAN","NAN"],
    [1546055,"2026-03-22 04:50:00","47045","0.9740000000000001","272.9","2.287","274.7","NAN","NAN","NAN","NAN","NAN"],
    [1546056,"2026-03-22 05:00:00","47046","1.6280000000000001","280.3","2.613","277.3","NAN","NAN","NAN","NAN","NAN"],
    [1546057,"2026-03-22 05:10:00","47047","1.72","279.5","2.907","279.3","NAN","NAN","NAN","NAN","NAN"],
    [1546058,"2026-03-22 05:20:00","47048","1.796","270.0","2.744","269.6","NAN","NAN","NAN","NAN","NAN"],
    [1546059,"2026-03-22 05:30:00","47049","2.653","272.4","3.626","275.4","NAN","NAN","NAN","NAN","NAN"],
    [1546060,"2026-03-22 05:40:00","47050","2.835","277.6","4.149","277.5","NAN","NAN","NAN","NAN","NAN"],
    [1546061,"2026-03-22 05:50:00","47051","2.358","274.9","3.691","283.2","NAN","NAN","NAN","NAN","NAN"],
    [1546062,"2026-03-22 06:00:00","47052","2.084","277.6","3.299","285.9","NAN","NAN","NAN","NAN","NAN"],
    [1546063,"2026-03-22 06:10:00","47053","2.1519999999999997","279.4","3.659","285.3","NAN","NAN","NAN","NAN","NAN"],
    [1546064,"2026-03-22 06:20:00","47054","1.903","280.4","3.103","284","NAN","NAN","NAN","NAN","NAN"],
    [1546065,"2026-03-22 06:30:00","47055","2.059","277.3","3.887","258.8","NAN","NAN","NAN","NAN","NAN"],
    [1546066,"2026-03-22 06:40:00","47056","1.7","285.6","3.985","286.7","NAN","NAN","NAN","NAN","NAN"],
    [1546067,"2026-03-22 06:50:00","47057","1.5530000000000002","276.3","2.417","280.6","NAN","NAN","NAN","NAN","NAN"],
    [1546068,"2026-03-22 07:00:00","47058","1.483","281.8","2.711","293.1","NAN","NAN","NAN","NAN","NAN"],
    [1546069,"2026-03-22 07:10:00","47059","1.57","277.4","2.548","280.1","NAN","NAN","NAN","NAN","NAN"],
    [1546070,"2026-03-22 07:20:00","47060","1.9469999999999998","272.8","3.201","271.1","NAN","NAN","NAN","NAN","NAN"],
    [1546071,"2026-03-22 07:30:00","47061","1.9269999999999998","268.9","3.201","269.3","NAN","NAN","NAN","NAN","NAN"],
    [1546072,"2026-03-22 07:40:00","47062","1.564","272.6","2.613","273.9","NAN","NAN","NAN","NAN","NAN"],
    [1546073,"2026-03-22 07:50:00","47063","1.011","272.0","2.515","267","NAN","NAN","NAN","NAN","NAN"],
    [1546074,"2026-03-22 08:00:00","47064","1.3940000000000001","275.8","2.613","281.2","NAN","NAN","NAN","NAN","NAN"],
    [1546075,"2026-03-22 08:10:00","47065","1.871","267.2","3.103","265.5","NAN","NAN","NAN","NAN","NAN"],
    [1546076,"2026-03-22 08:20:00","47066","2.363","266.2","3.463","263.7","NAN","NAN","NAN","NAN","NAN"],
    [1546077,"2026-03-22 08:30:00","47067","2.827","264.8","4.279","266.8","NAN","NAN","NAN","NAN","NAN"],
    [1546078,"2026-03-22 08:40:00","47068","3.07","266.8","4.737","261.8","NAN","NAN","NAN","NAN","NAN"],
    [1546079,"2026-03-22 08:50:00","47069","2.927","281.4","4.149","284.7","NAN","NAN","NAN","NAN","NAN"],
    [1546080,"2026-03-22 09:00:00","47070","2.4419999999999997","273.5","3.626","289","NAN","NAN","NAN","NAN","NAN"],
    [1546081,"2026-03-22 09:10:00","47071","2.41","261.7","3.822","279.3","NAN","NAN","NAN","NAN","NAN"],
    [1546082,"2026-03-22 09:20:00","47072","3.195","248.5","4.802","245.4","NAN","NAN","NAN","NAN","NAN"],
    [1546083,"2026-03-22 09:30:00","47073","3.4010000000000002","242.2","7.056","246.5","NAN","NAN","NAN","NAN","NAN"],
    [1546084,"2026-03-22 09:40:00","47074","4.4110000000000005","241.2","6.86","254.2","NAN","NAN","NAN","NAN","NAN"],
    [1546085,"2026-03-22 09:50:00","47075","4.982","222.2","7.84","220.8","NAN","NAN","NAN","NAN","NAN"],
    [1546086,"2026-03-22 10:00:00","47076","4.721","232.8","7.775","234.7","NAN","NAN","NAN","NAN","NAN"],
    [1546087,"2026-03-22 10:10:00","47077","3.6060000000000003","232.7","7.905","238.2","NAN","NAN","NAN","NAN","NAN"],
    [1546088,"2026-03-22 10:20:00","47078","3.968","225.6","7.285","206.7","NAN","NAN","NAN","NAN","NAN"],
    [1546089,"2026-03-22 10:30:00","47079","4.73","224.5","8.49","214.9","NAN","NAN","NAN","NAN","NAN"],
    [1546090,"2026-03-22 10:40:00","47080","5.14","216.4","8.36","206.7","NAN","NAN","NAN","NAN","NAN"],
    [1546091,"2026-03-22 10:50:00","47081","4.519","220.4","8.1","231.2","NAN","NAN","NAN","NAN","NAN"],
    [1546092,"2026-03-22 11:00:00","47082","4.343","224.0","7.807","232.6","NAN","NAN","NAN","NAN","NAN"],
    [1546093,"2026-03-22 11:10:00","47083","5.193","220.7","8.36","220.6","NAN","NAN","NAN","NAN","NAN"],
    [1546094,"2026-03-22 11:20:00","47084","5.263999999999999","219.6","10.16","217.6","NAN","NAN","NAN","NAN","NAN"],
    [1546095,"2026-03-22 11:30:00","47085","5.275","225.5","9.28","218.2","NAN","NAN","NAN","NAN","NAN"],
    [1546096,"2026-03-22 11:40:00","47086","5.042","226.4","8.85","213.4","NAN","NAN","NAN","NAN","NAN"],
    [1546097,"2026-03-22 11:50:00","47087","4.962","226.7","8.36","228.7","NAN","NAN","NAN","NAN","NAN"],
    [1546098,"2026-03-22 12:00:00","47088","5.52","222.9","8.75","223.5","NAN","NAN","NAN","NAN","NAN"],
    [1546099,"2026-03-22 12:10:00","47089","5.084","225.0","8.13","204.8","NAN","NAN","NAN","NAN","NAN"],
    [1546100,"2026-03-22 12:20:00","47090","5.601","213.2","8.26","205","NAN","NAN","NAN","NAN","NAN"],
    [1546101,"2026-03-22 12:30:00","47091","4.8839999999999995","220.9","8.04","221.1","NAN","NAN","NAN","NAN","NAN"],
    [1546102,"2026-03-22 12:40:00","47092","4.8180000000000005","223.9","8.36","219.4","NAN","NAN","NAN","NAN","NAN"],
    [1546103,"2026-03-22 12:50:00","47093","5.386","215.3","8.82","202.7","NAN","NAN","NAN","NAN","NAN"],
    [1546104,"2026-03-22 13:00:00","47094","5.601","216.8","9.15","209.9","NAN","NAN","NAN","NAN","NAN"],
    [1546105,"2026-03-22 13:10:00","47095","4.724","218.6","9.15","204.8","NAN","NAN","NAN","NAN","NAN"],
    [1546106,"2026-03-22 13:20:00","47096","4.912","219.2","8.4","212.6","NAN","NAN","NAN","NAN","NAN"],
    [1546107,"2026-03-22 13:30:00","47097","5.746","217.8","9.38","214","NAN","NAN","NAN","NAN","NAN"],
    [1546108,"2026-03-22 13:40:00","47098","5.697","223.1","8.85","221.2","NAN","NAN","NAN","NAN","NAN"],
    [1546109,"2026-03-22 13:50:00","47099","5.945","225.3","9.64","233","NAN","NAN","NAN","NAN","NAN"],
    [1546110,"2026-03-22 14:00:00","47100","5.914","211.9","9.44","213.5","NAN","NAN","NAN","NAN","NAN"],
    [1546111,"2026-03-22 14:10:00","47101","5.733","217.5","10.39","234.1","NAN","NAN","NAN","NAN","NAN"],
    [1546112,"2026-03-22 14:20:00","47102","4.324","219.8","8.56","219.9","NAN","NAN","NAN","NAN","NAN"],
    [1546113,"2026-03-22 14:30:00","47103","4.985","228.0","8.66","226.3","NAN","NAN","NAN","NAN","NAN"],
    [1546114,"2026-03-22 14:40:00","47104","4.825","221.4","8.82","226.1","NAN","NAN","NAN","NAN","NAN"],
    [1546115,"2026-03-22 14:50:00","47105","5.121","227.3","9.34","219.1","NAN","NAN","NAN","NAN","NAN"],
    [1546116,"2026-03-22 15:00:00","47106","5.446000000000001","221.5","10.06","214.3","NAN","NAN","NAN","NAN","NAN"],
    [1546117,"2026-03-22 15:10:00","47107","5.204","226.8","9.08","207.4","NAN","NAN","NAN","NAN","NAN"],
    [1546118,"2026-03-22 15:20:00","47108","5.431","226.2","9.38","216.3","NAN","NAN","NAN","NAN","NAN"],
    [1546119,"2026-03-22 15:30:00","47109","5.473","229.4","9.41","216.5","NAN","NAN","NAN","NAN","NAN"],
    [1546120,"2026-03-22 15:40:00","47110","5.499","222.8","9.15","227.3","NAN","NAN","NAN","NAN","NAN"],
    [1546121,"2026-03-22 15:50:00","47111","5.343","233.5","9.7","223.6","NAN","NAN","NAN","NAN","NAN"],
    [1546122,"2026-03-22 16:00:00","47112","5.609","238.4","8.66","250.8","NAN","NAN","NAN","NAN","NAN"],
    [1546123,"2026-03-22 16:10:00","47113","5.16","229.7","9.64","238.5","NAN","NAN","NAN","NAN","NAN"],
    [1546124,"2026-03-22 16:20:00","47114","4.773","224.2","9.18","213.8","NAN","NAN","NAN","NAN","NAN"],
    [1546125,"2026-03-22 16:30:00","47115","5.0489999999999995","226.4","8.1","234.8","NAN","NAN","NAN","NAN","NAN"],
    [1546126,"2026-03-22 16:40:00","47116","4.89","225.2","8.82","233.1","NAN","NAN","NAN","NAN","NAN"],
    [1546127,"2026-03-22 16:50:00","47117","4.945","231.3","9.11","220.5","NAN","NAN","NAN","NAN","NAN"],
    [1546128,"2026-03-22 17:00:00","47118","4.815","236.6","8.3","236","NAN","NAN","NAN","NAN","NAN"],
    [1546129,"2026-03-22 17:10:00","47119","4.435","239.2","7.611","249.6","NAN","NAN","NAN","NAN","NAN"],
    [1546130,"2026-03-22 17:20:00","47120","3.946","247.8","7.84","247.1","NAN","NAN","NAN","NAN","NAN"],
    [1546131,"2026-03-22 17:30:00","47121","3.498","246.6","7.252","257.1","NAN","NAN","NAN","NAN","NAN"],
    [1546132,"2026-03-22 17:40:00","47122","4.898","252.1","8.1","255.3","NAN","NAN","NAN","NAN","NAN"],
    [1546133,"2026-03-22 17:50:00","47123","4.06","249.2","6.729","266.4","NAN","NAN","NAN","NAN","NAN"],
    [1546134,"2026-03-22 18:00:00","47124","3.073","234.4","6.174","234.6","NAN","NAN","NAN","NAN","NAN"],
    [1546135,"2026-03-22 18:10:00","47125","2.718","236.1","6.435","255.8","NAN","NAN","NAN","NAN","NAN"],
    [1546136,"2026-03-22 18:20:00","47126","2.6430000000000002","233.9","5.455","234.8","NAN","NAN","NAN","NAN","NAN"],
    [1546137,"2026-03-22 18:30:00","47127","2.766","241.3","5.88","238.5","NAN","NAN","NAN","NAN","NAN"],
    [1546138,"2026-03-22 18:40:00","47128","3.161","240.6","5.815","234.5","NAN","NAN","NAN","NAN","NAN"],
    [1546139,"2026-03-22 18:50:00","47129","3.51","246.5","5.913","237.6","NAN","NAN","NAN","NAN","NAN"],
    [1546140,"2026-03-22 19:00:00","47130","2.6439999999999997","245.0","4.639","247.6","NAN","NAN","NAN","NAN","NAN"],
    [1546141,"2026-03-22 19:10:00","47131","2.039","236.6","4.41","238.5","NAN","NAN","NAN","NAN","NAN"],
    [1546142,"2026-03-22 19:20:00","47132","2.026","249.8","4.051","251.1","NAN","NAN","NAN","NAN","NAN"],
    [1546143,"2026-03-22 19:30:00","47133","1.656","239.2","3.103","237.6","NAN","NAN","NAN","NAN","NAN"],
    [1546144,"2026-03-22 19:40:00","47134","1.726","227.7","3.169","226.5","NAN","NAN","NAN","NAN","NAN"],
    [1546145,"2026-03-22 19:50:00","47135","1.876","236.4","2.809","229.7","NAN","NAN","NAN","NAN","NAN"],
    [1546146,"2026-03-22 20:00:00","47136","1.482","247.6","2.581","245","NAN","NAN","NAN","NAN","NAN"],
    [1546147,"2026-03-22 20:10:00","47137","0.046","248.5","0.817","248.5","NAN","NAN","NAN","NAN","NAN"],
    [1546148,"2026-03-22 20:20:00","47138","0.142","248.5","0.784","248.5","NAN","NAN","NAN","NAN","NAN"],
    [1546149,"2026-03-22 20:30:00","47139","0.28600000000000003","248.0","1.143","248.5","NAN","NAN","NAN","NAN","NAN"],
    [1546150,"2026-03-22 20:40:00","47140","0.285","247.1","1.111","245.8","NAN","NAN","NAN","NAN","NAN"],
    [1546151,"2026-03-22 20:50:00","47141","0.04","246.5","0.751","246.6","NAN","NAN","NAN","NAN","NAN"],
    [1546152,"2026-03-22 21:00:00","47142","0.0","0.0","0","0","NAN","NAN","NAN","NAN","NAN"],
    [1546153,"2026-03-22 21:10:00","47143","0.0","0.0","0","0","NAN","NAN","NAN","NAN","NAN"],
    [1546154,"2026-03-22 21:20:00","47144","0.0","0.0","0","0","NAN","NAN","NAN","NAN","NAN"],
    [1546155,"2026-03-22 21:30:00","47145","1.632","15.44","4.475","31.92","NAN","NAN","NAN","NAN","NAN"],
    [1546156,"2026-03-22 21:40:00","47146","2.853","36.86","4.737","37.43","NAN","NAN","NAN","NAN","NAN"],
    [1546157,"2026-03-22 21:50:00","47147","2.5469999999999997","42.95","4.541","44.33","NAN","NAN","NAN","NAN","NAN"],
    [1546158,"2026-03-22 22:00:00","47148","3.165","39.5","5.259","37.8","NAN","NAN","NAN","NAN","NAN"],
    [1546159,"2026-03-22 22:10:00","47149","2.478","50.92","4.933","39.64","NAN","NAN","NAN","NAN","NAN"],
    [1546160,"2026-03-22 22:20:00","47150","2.165","72.06","4.377","93.7","NAN","NAN","NAN","NAN","NAN"],
    [1546161,"2026-03-22 22:30:00","47151","2.522","80.4","3.887","74.2","NAN","NAN","NAN","NAN","NAN"],
    [1546162,"2026-03-22 22:40:00","47152","1.742","85.0","3.528","82.2","NAN","NAN","NAN","NAN","NAN"],
    [1546163,"2026-03-22 22:50:00","47153","1.2819999999999998","90.0","2.875","90.1","NAN","NAN","NAN","NAN","NAN"],
    [1546164,"2026-03-22 23:00:00","47154","1.135","89.4","2.744","90.8","NAN","NAN","NAN","NAN","NAN"],
    [1546165,"2026-03-22 23:10:00","47155","0.7290000000000001","90.9","1.699","90.9","NAN","NAN","NAN","NAN","NAN"],
    [1546166,"2026-03-22 23:20:00","47156","0.39399999999999996","90.9","1.895","90.9","NAN","NAN","NAN","NAN","NAN"],
    [1546167,"2026-03-22 23:30:00","47157","0.6779999999999999","91.0","1.503","91.1","NAN","NAN","NAN","NAN","NAN"],
    [1546168,"2026-03-22 23:40:00","47158","0.321","91.1","1.764","91.1","NAN","NAN","NAN","NAN","NAN"],
    [1546169,"2026-03-22 23:50:00","47159","0.0","0.0","0","0","NAN","NAN","NAN","NAN","NAN"],
    [1546170,"2026-03-23 00:00:00","47160","0.474","71.98","1.895","69.45","NAN","NAN","NAN","NAN","NAN"],
    [1546171,"2026-03-23 00:10:00","47161","1.848","58.39","3.365","49.31","NAN","NAN","NAN","NAN","NAN"],
    [1546172,"2026-03-23 00:20:00","47162","1.882","49.55","3.332","47.66","NAN","NAN","NAN","NAN","NAN"],
    [1546173,"2026-03-23 00:30:00","47163","2.38","46.01","3.855","43.56","NAN","NAN","NAN","NAN","NAN"],
    [1546174,"2026-03-23 00:40:00","47164","1.982","56.07","3.593","55.12","NAN","NAN","NAN","NAN","NAN"],
    [1546175,"2026-03-23 00:50:00","47165","2.2840000000000003","56.02","3.92","51.43","NAN","NAN","NAN","NAN","NAN"],
    [1546176,"2026-03-23 01:00:00","47166","1.545","51.05","3.463","40.86","NAN","NAN","NAN","NAN","NAN"],
    [1546177,"2026-03-23 01:10:00","47167","2.762","55.08","5.651","113.3","NAN","NAN","NAN","NAN","NAN"],
    [1546178,"2026-03-23 01:20:00","47168","3.637","81.8","6.925","80.2","NAN","NAN","NAN","NAN","NAN"],
    [1546179,"2026-03-23 01:30:00","47169","3.7939999999999996","78.83","7.252","82.3","NAN","NAN","NAN","NAN","NAN"],
    [1546180,"2026-03-23 01:40:00","47170","4.513","83.9","7.905","75.2","NAN","NAN","NAN","NAN","NAN"],
    [1546181,"2026-03-23 01:50:00","47171","5.144","86.7","8.62","83.7","NAN","NAN","NAN","NAN","NAN"],
    [1546182,"2026-03-23 02:00:00","47172","5.726","79.23","9.02","73.05","NAN","NAN","NAN","NAN","NAN"],
    [1546183,"2026-03-23 02:10:00","47173","5.926","81.2","9.67","76.76","NAN","NAN","NAN","NAN","NAN"],
    [1546184,"2026-03-23 02:20:00","47174","5.73","84.4","9.64","104","NAN","NAN","NAN","NAN","NAN"],
    [1546185,"2026-03-23 02:30:00","47175","4.567","83.1","8.62","89.6","NAN","NAN","NAN","NAN","NAN"],
    [1546186,"2026-03-23 02:40:00","47176","3.3680000000000003","61.79","6.827","39.77","NAN","NAN","NAN","NAN","NAN"],
    [1546187,"2026-03-23 02:50:00","47177","3.623","58.13","6.403","73.53","NAN","NAN","NAN","NAN","NAN"],
    [1546188,"2026-03-23 03:00:00","47178","4.0969999999999995","79.16","7.579","87.2","NAN","NAN","NAN","NAN","NAN"],
    [1546189,"2026-03-23 03:10:00","47179","4.084","83.4","7.121","93.6","NAN","NAN","NAN","NAN","NAN"],
    [1546190,"2026-03-23 03:20:00","47180","3.48","82.9","5.684","88.8","NAN","NAN","NAN","NAN","NAN"],
    [1546191,"2026-03-23 03:30:00","47181","3.367","80.6","5.945","82.3","NAN","NAN","NAN","NAN","NAN"],
    [1546192,"2026-03-23 03:40:00","47182","2.989","81.6","4.867","82.3","NAN","NAN","NAN","NAN","NAN"],
    [1546193,"2026-03-23 03:50:00","47183","1.984","83.2","3.593","93.9","NAN","NAN","NAN","NAN","NAN"],
    [1546194,"2026-03-23 04:00:00","47184","2.623","81.5","5.913","75.21","NAN","NAN","NAN","NAN","NAN"],
    [1546195,"2026-03-23 04:10:00","47185","3.7939999999999996","92.3","6.664","85.3","NAN","NAN","NAN","NAN","NAN"],
    [1546196,"2026-03-23 04:20:00","47186","3.2760000000000002","93.2","6.174","85.4","NAN","NAN","NAN","NAN","NAN"],
    [1546197,"2026-03-23 04:30:00","47187","3.4019999999999997","92.5","7.219","92","NAN","NAN","NAN","NAN","NAN"],
    [1546198,"2026-03-23 04:40:00","47188","4.265","92.6","7.905","86.8","NAN","NAN","NAN","NAN","NAN"],
    [1546199,"2026-03-23 04:50:00","47189","5.155","80.2","8.69","70.27","NAN","NAN","NAN","NAN","NAN"],
    [1546200,"2026-03-23 05:00:00","47190","4.407","82.3","8.04","75.09","NAN","NAN","NAN","NAN","NAN"],
    [1546201,"2026-03-23 05:10:00","47191","4.393","90.1","7.775","81.4","NAN","NAN","NAN","NAN","NAN"],
    [1546202,"2026-03-23 05:20:00","47192","5.025","85.7","8.1","96.6","NAN","NAN","NAN","NAN","NAN"],
    [1546203,"2026-03-23 05:30:00","47193","5.257999999999999","85.9","9.24","88.2","NAN","NAN","NAN","NAN","NAN"],
    [1546204,"2026-03-23 05:40:00","47194","6.053999999999999","81.3","9.38","94.2","NAN","NAN","NAN","NAN","NAN"],
    [1546205,"2026-03-23 05:50:00","47195","6.017","82.8","10.98","68.38","NAN","NAN","NAN","NAN","NAN"],
    [1546206,"2026-03-23 06:00:00","47196","6.239","80.5","9.73","81","NAN","NAN","NAN","NAN","NAN"],
    [1546207,"2026-03-23 06:10:00","47197","6.928","80.5","10.94","85.6","NAN","NAN","NAN","NAN","NAN"],
    [1546208,"2026-03-23 06:20:00","47198","5.522","88.4","9.08","81.5","NAN","NAN","NAN","NAN","NAN"],
    [1546209,"2026-03-23 06:30:00","47199","4.809","86.0","8.95","99","NAN","NAN","NAN","NAN","NAN"],
    [1546210,"2026-03-23 06:40:00","47200","5.577000000000001","87.5","9.67","100.3","NAN","NAN","NAN","NAN","NAN"],
    [1546211,"2026-03-23 06:50:00","47201","4.52","90.3","8.17","71.42","NAN","NAN","NAN","NAN","NAN"],
    [1546212,"2026-03-23 07:00:00","47202","4.917","91.2","8.04","91.5","NAN","NAN","NAN","NAN","NAN"],
    [1546213,"2026-03-23 07:10:00","47203","4.8069999999999995","85.7","7.807","80.1","NAN","NAN","NAN","NAN","NAN"],
    [1546214,"2026-03-23 07:20:00","47204","5.242999999999999","91.4","9.38","84.5","NAN","NAN","NAN","NAN","NAN"],
    [1546215,"2026-03-23 07:30:00","47205","4.357","81.9","8.23","73.34","NAN","NAN","NAN","NAN","NAN"],
    [1546216,"2026-03-23 07:40:00","47206","4.454","84.1","6.762","86.2","NAN","NAN","NAN","NAN","NAN"],
    [1546217,"2026-03-23 07:50:00","47207","3.763","85.2","6.795","90","NAN","NAN","NAN","NAN","NAN"],
    [1546218,"2026-03-23 08:00:00","47208","3.6430000000000002","86.4","6.501","88.1","NAN","NAN","NAN","NAN","NAN"],
    [1546219,"2026-03-23 08:10:00","47209","3.4939999999999998","86.4","6.109","92.3","NAN","NAN","NAN","NAN","NAN"],
    [1546220,"2026-03-23 08:20:00","47210","3.355","83.7","5.521","86.7","NAN","NAN","NAN","NAN","NAN"],
    [1546221,"2026-03-23 08:30:00","47211","3.4760000000000004","87.3","5.945","93.5","NAN","NAN","NAN","NAN","NAN"],
    [1546222,"2026-03-23 08:40:00","47212","3.386","87.8","5.749","72.78","NAN","NAN","NAN","NAN","NAN"],
    [1546223,"2026-03-23 08:50:00","47213","3.447","84.0","5.325","75.62","NAN","NAN","NAN","NAN","NAN"],
    [1546224,"2026-03-23 09:00:00","47214","3.411","85.8","5.455","99.4","NAN","NAN","NAN","NAN","NAN"],
    [1546225,"2026-03-23 09:10:00","47215","3.25","87.5","5.847","100.9","NAN","NAN","NAN","NAN","NAN"],
    [1546226,"2026-03-23 09:20:00","47216","3.123","84.5","5.194","89.9","NAN","NAN","NAN","NAN","NAN"],
    [1546227,"2026-03-23 09:30:00","47217","2.755","85.2","4.279","81.5","NAN","NAN","NAN","NAN","NAN"],
    [1546228,"2026-03-23 09:40:00","47218","3.181","89.3","4.867","88.3","NAN","NAN","NAN","NAN","NAN"],
    [1546229,"2026-03-23 09:50:00","47219","3.42","87.9","5.782","88.9","NAN","NAN","NAN","NAN","NAN"],
    [1546230,"2026-03-23 10:00:00","47220","3.458","95.2","5.586","82.9","NAN","NAN","NAN","NAN","NAN"],
    [1546231,"2026-03-23 10:10:00","47221","3.718","98.2","5.88","100.1","NAN","NAN","NAN","NAN","NAN"],
    [1546232,"2026-03-23 10:20:00","47222","3.609","97.8","6.272","102.8","NAN","NAN","NAN","NAN","NAN"],
    [1546233,"2026-03-23 10:30:00","47223","3.557","97.8","6.109","102.5","NAN","NAN","NAN","NAN","NAN"],
    [1546234,"2026-03-23 10:40:00","47224","3.285","90.4","5.096","72.05","NAN","NAN","NAN","NAN","NAN"],
    [1546235,"2026-03-23 10:50:00","47225","3.612","95.1","6.076","101.8","NAN","NAN","NAN","NAN","NAN"],
    [1546236,"2026-03-23 11:00:00","47226","3.241","89.1","5.684","86.7","NAN","NAN","NAN","NAN","NAN"],
    [1546237,"2026-03-23 11:10:00","47227","3.7739999999999996","104.5","5.978","101.6","NAN","NAN","NAN","NAN","NAN"],
    [1546238,"2026-03-23 11:20:00","47228","3.533","100.1","5.749","100.7","NAN","NAN","NAN","NAN","NAN"],
    [1546239,"2026-03-23 11:30:00","47229","3.803","88.4","5.815","88.3","NAN","NAN","NAN","NAN","NAN"],
    [1546240,"2026-03-23 11:40:00","47230","3.495","98.6","5.455","93.6","NAN","NAN","NAN","NAN","NAN"],
    [1546241,"2026-03-23 11:50:00","47231","3.287","102.3","5.031","120.7","NAN","NAN","NAN","NAN","NAN"],
    [1546242,"2026-03-23 12:00:00","47232","3.2110000000000003","96.1","5.521","84.5","NAN","NAN","NAN","NAN","NAN"],
    [1546243,"2026-03-23 12:10:00","47233","3.6660000000000004","93.4","5.978","77.58","NAN","NAN","NAN","NAN","NAN"],
    [1546244,"2026-03-23 12:20:00","47234","3.4019999999999997","94.0","6.141","104.7","NAN","NAN","NAN","NAN","NAN"],
    [1546245,"2026-03-23 12:30:00","47235","3.5669999999999997","98.7","6.337","99.9","NAN","NAN","NAN","NAN","NAN"],
    [1546246,"2026-03-23 12:40:00","47236","3.115","96.1","5.521","88.7","NAN","NAN","NAN","NAN","NAN"],
    [1546247,"2026-03-23 12:50:00","47237","3.51","102.2","6.37","103.5","NAN","NAN","NAN","NAN","NAN"],
    [1546248,"2026-03-23 13:00:00","47238","3.242","88.5","6.86","92.8","NAN","NAN","NAN","NAN","NAN"],
    [1546249,"2026-03-23 13:10:00","47239","3.498","85.7","5.978","100.9","NAN","NAN","NAN","NAN","NAN"],
    [1546250,"2026-03-23 13:20:00","47240","4.266","99.8","6.403","102.8","NAN","NAN","NAN","NAN","NAN"],
    [1546251,"2026-03-23 13:30:00","47241","4.093","120.5","6.533","107.1","NAN","NAN","NAN","NAN","NAN"],
    [1546252,"2026-03-23 13:40:00","47242","3.159","121.1","5.847","91.9","NAN","NAN","NAN","NAN","NAN"],
    [1546253,"2026-03-23 13:50:00","47243","2.926","116.7","6.109","115.2","NAN","NAN","NAN","NAN","NAN"],
    [1546254,"2026-03-23 14:00:00","47244","3.5389999999999997","115.5","5.292","105.2","NAN","NAN","NAN","NAN","NAN"],
    [1546255,"2026-03-23 14:10:00","47245","2.189","123.3","3.659","134","NAN","NAN","NAN","NAN","NAN"],
    [1546256,"2026-03-23 14:20:00","47246","2.656","122.2","4.867","135.9","NAN","NAN","NAN","NAN","NAN"],
    [1546257,"2026-03-23 14:30:00","47247","3.242","126.1","5.129","128.5","NAN","NAN","NAN","NAN","NAN"],
    [1546258,"2026-03-23 14:40:00","47248","3.552","137.7","5.063","137.9","NAN","NAN","NAN","NAN","NAN"],
    [1546259,"2026-03-23 14:50:00","47249","2.772","119.7","4.312","142.2","NAN","NAN","NAN","NAN","NAN"],
    [1546260,"2026-03-23 15:00:00","47250","2.363","127.0","3.757","137","NAN","NAN","NAN","NAN","NAN"],
    [1546261,"2026-03-23 15:10:00","47251","2.499","127.4","4.312","108.8","NAN","NAN","NAN","NAN","NAN"],
    [1546262,"2026-03-23 15:20:00","47252","2.58","125.1","3.953","108.8","NAN","NAN","NAN","NAN","NAN"],
    [1546263,"2026-03-23 15:30:00","47253","2.753","111.2","4.181","124.8","NAN","NAN","NAN","NAN","NAN"],
    [1546264,"2026-03-23 15:40:00","47254","3.117","99.6","4.671","79.19","NAN","NAN","NAN","NAN","NAN"],
    [1546265,"2026-03-23 15:50:00","47255","2.891","102.8","4.573","106.2","NAN","NAN","NAN","NAN","NAN"],
    [1546266,"2026-03-23 16:00:00","47256","3.03","96.2","4.704","91.5","NAN","NAN","NAN","NAN","NAN"],
    [1546267,"2026-03-23 16:10:00","47257","2.363","100.9","4.508","105.8","NAN","NAN","NAN","NAN","NAN"],
    [1546268,"2026-03-23 16:20:00","47258","2.426","101.6","4.116","101.5","NAN","NAN","NAN","NAN","NAN"],
    [1546269,"2026-03-23 16:30:00","47259","2.884","102.9","4.769","100.9","NAN","NAN","NAN","NAN","NAN"],
    [1546270,"2026-03-23 16:40:00","47260","2.272","92.6","3.724","82.9","NAN","NAN","NAN","NAN","NAN"],
    [1546271,"2026-03-23 16:50:00","47261","2.084","108.2","3.953","107.9","NAN","NAN","NAN","NAN","NAN"],
    [1546272,"2026-03-23 17:00:00","47262","2.173","84.9","4.116","87","NAN","NAN","NAN","NAN","NAN"],
    [1546273,"2026-03-23 17:10:00","47263","2.373","94.6","4.149","97.6","NAN","NAN","NAN","NAN","NAN"],
    [1546274,"2026-03-23 17:20:00","47264","1.9340000000000002","84.3","3.299","82.9","NAN","NAN","NAN","NAN","NAN"],
    [1546275,"2026-03-23 17:30:00","47265","1.713","79.95","2.973","79.97","NAN","NAN","NAN","NAN","NAN"],
    [1546276,"2026-03-23 17:40:00","47266","2.372","85.8","4.149","68.61","NAN","NAN","NAN","NAN","NAN"],
    [1546277,"2026-03-23 17:50:00","47267","2.533","98.5","4.312","105.6","NAN","NAN","NAN","NAN","NAN"],
    [1546278,"2026-03-23 18:00:00","47268","1.673","85.5","3.593","97.6","NAN","NAN","NAN","NAN","NAN"],
    [1546279,"2026-03-23 18:10:00","47269","1.693","97.0","3.659","103.5","NAN","NAN","NAN","NAN","NAN"],
    [1546280,"2026-03-23 18:20:00","47270","2.0669999999999997","96.3","3.757","100.1","NAN","NAN","NAN","NAN","NAN"],
    [1546281,"2026-03-23 18:30:00","47271","1.416","93.6","2.581","98.3","NAN","NAN","NAN","NAN","NAN"],
    [1546282,"2026-03-23 18:40:00","47272","1.681","94.8","2.94","90.6","NAN","NAN","NAN","NAN","NAN"],
    [1546283,"2026-03-23 18:50:00","47273","1.254","91.0","2.45","89.2","NAN","NAN","NAN","NAN","NAN"],
    [1546284,"2026-03-23 19:00:00","47274","1.012","94.4","2.254","89.2","NAN","NAN","NAN","NAN","NAN"],
    [1546285,"2026-03-23 19:10:00","47275","1.015","92.4","1.862","93.2","NAN","NAN","NAN","NAN","NAN"],
    [1546286,"2026-03-23 19:20:00","47276","0.65","99.4","1.47","99.5","NAN","NAN","NAN","NAN","NAN"],
    [1546287,"2026-03-23 19:30:00","47277","0.8420000000000001","100.1","2.156","97.2","NAN","NAN","NAN","NAN","NAN"],
    [1546288,"2026-03-23 19:40:00","47278","0.909","97.7","1.895","101.1","NAN","NAN","NAN","NAN","NAN"],
    [1546289,"2026-03-23 19:50:00","47279","0.248","96.6","0.915","96.4","NAN","NAN","NAN","NAN","NAN"],
    [1546290,"2026-03-23 20:00:00","47280","0.024","101.3","0.653","99.4","NAN","NAN","NAN","NAN","NAN"],
    [1546291,"2026-03-23 20:10:00","47281","0.0","0.0","0","0","NAN","NAN","NAN","NAN","NAN"],
    [1546292,"2026-03-23 20:20:00","47282","0.0","0.0","0","0","NAN","NAN","NAN","NAN","NAN"],
    [1546293,"2026-03-23 20:30:00","47283","0.0","0.0","0","0","NAN","NAN","NAN","NAN","NAN"],
    [1546294,"2026-03-23 20:40:00","47284","0.0","0.0","0","0","NAN","NAN","NAN","NAN","NAN"],
    [1546295,"2026-03-23 20:50:00","47285","0.001","104.9","0.065","105","NAN","NAN","NAN","NAN","NAN"],
    [1546296,"2026-03-23 21:00:00","47286","0.0","0.0","0","0","NAN","NAN","NAN","NAN","NAN"],
    [1546297,"2026-03-23 21:10:00","47287","0.132","105.1","0.621","105.1","NAN","NAN","NAN","NAN","NAN"],
    [1546298,"2026-03-23 21:20:00","47288","0.41600000000000004","105.3","1.078","105.4","NAN","NAN","NAN","NAN","NAN"],
    [1546299,"2026-03-23 21:30:00","47289","1.012","105.9","1.503","105.5","NAN","NAN","NAN","NAN","NAN"],
    [1546300,"2026-03-23 21:40:00","47290","1.1909999999999998","106.3","1.633","106.6","NAN","NAN","NAN","NAN","NAN"],
    [1546301,"2026-03-23 21:50:00","47291","0.095","106.5","0.686","106.6","NAN","NAN","NAN","NAN","NAN"],
    [1546302,"2026-03-23 22:00:00","47292","0.639","106.8","1.437","107","NAN","NAN","NAN","NAN","NAN"],
    [1546303,"2026-03-23 22:10:00","47293","0.493","101.5","1.535","101.1","NAN","NAN","NAN","NAN","NAN"],
    [1546304,"2026-03-23 22:20:00","47294","0.41700000000000004","92.4","1.078","92.4","NAN","NAN","NAN","NAN","NAN"],
    [1546305,"2026-03-23 22:30:00","47295","0.863","90.2","1.568","89.3","NAN","NAN","NAN","NAN","NAN"],
    [1546306,"2026-03-23 22:40:00","47296","0.6409999999999999","88.9","1.568","89","NAN","NAN","NAN","NAN","NAN"],
    [1546307,"2026-03-23 22:50:00","47297","0.56","88.6","1.764","88.4","NAN","NAN","NAN","NAN","NAN"],
    [1546308,"2026-03-23 23:00:00","47298","0.727","88.1","1.633","88.1","NAN","NAN","NAN","NAN","NAN"],
    [1546309,"2026-03-23 23:10:00","47299","0.746","88.1","1.372","88.1","NAN","NAN","NAN","NAN","NAN"],
    [1546310,"2026-03-23 23:20:00","47300","0.461","88.1","1.176","88.1","NAN","NAN","NAN","NAN","NAN"],
    [1546311,"2026-03-23 23:30:00","47301","0.7659999999999999","87.9","1.568","87.9","NAN","NAN","NAN","NAN","NAN"],
    [1546312,"2026-03-23 23:40:00","47302","0.9259999999999999","87.7","1.829","87.6","NAN","NAN","NAN","NAN","NAN"],
    [1546313,"2026-03-23 23:50:00","47303","0.16699999999999998","73.88","1.503","87.5","NAN","NAN","NAN","NAN","NAN"],
    [1546314,"2026-03-24 00:00:00","47304","0.006","7.727","0.49","7.556","NAN","NAN","NAN","NAN","NAN"],
    [1546315,"2026-03-24 00:10:00","47305","0.002","7.46","0.294","7.46","NAN","NAN","NAN","NAN","NAN"],
    [1546316,"2026-03-24 00:20:00","47306","0.004","7.284","0.261","7.275","NAN","NAN","NAN","NAN","NAN"],
    [1546317,"2026-03-24 00:30:00","47307","0.018000000000000002","6.9","0.621","6.738","NAN","NAN","NAN","NAN","NAN"],
    [1546318,"2026-03-24 00:40:00","47308","0.0","0.0","0","0","NAN","NAN","NAN","NAN","NAN"],
    [1546319,"2026-03-24 00:50:00","47309","0.002","6.7379999999999995","0.196","6.738","NAN","NAN","NAN","NAN","NAN"],
    [1546320,"2026-03-24 01:00:00","47310","0.016","6.69","0.588","6.69","NAN","NAN","NAN","NAN","NAN"],
    [1546321,"2026-03-24 01:10:00","47311","0.0","0.0","0","0","NAN","NAN","NAN","NAN","NAN"],
    [1546322,"2026-03-24 01:20:00","47312","0.0","0.0","0","0","NAN","NAN","NAN","NAN","NAN"],
    [1546323,"2026-03-24 01:30:00","47313","0.0","0.0","0","0","NAN","NAN","NAN","NAN","NAN"],
    [1546324,"2026-03-24 01:40:00","47314","0.0","0.0","0","0","NAN","NAN","NAN","NAN","NAN"],
    [1546325,"2026-03-24 01:50:00","47315","0.0","0.0","0","0","NAN","NAN","NAN","NAN","NAN"],
    [1546326,"2026-03-24 02:00:00","47316","0.0","0.0","0","0","NAN","NAN","NAN","NAN","NAN"],
    [1546327,"2026-03-24 02:10:00","47317","0.0","0.0","0","0","NAN","NAN","NAN","NAN","NAN"],
    [1546328,"2026-03-24 02:20:00","47318","0.0","0.0","0","0","NAN","NAN","NAN","NAN","NAN"],
    [1546329,"2026-03-24 02:30:00","47319","0.0","0.0","0","0","NAN","NAN","NAN","NAN","NAN"],
    [1546330,"2026-03-24 02:40:00","47320","0.0","0.0","0","0","NAN","NAN","NAN","NAN","NAN"],
    [1546331,"2026-03-24 02:50:00","47321","0.0","0.0","0","0","NAN","NAN","NAN","NAN","NAN"],
    [1546332,"2026-03-24 03:00:00","47322","0.001","0.674","0.196","0.674","NAN","NAN","NAN","NAN","NAN"],
    [1546333,"2026-03-24 03:10:00","47323","0.001","354.4","0.098","354.4","NAN","NAN","NAN","NAN","NAN"],
    [1546334,"2026-03-24 03:20:00","47324","0.076","342.9","0.621","339.3","NAN","NAN","NAN","NAN","NAN"],
    [1546335,"2026-03-24 03:30:00","47325","0.54","329.0","1.764","328.1","NAN","NAN","NAN","NAN","NAN"],
    [1546336,"2026-03-24 03:40:00","47326","0.9990000000000001","319.0","2.515","314.7","NAN","NAN","NAN","NAN","NAN"],
    [1546337,"2026-03-24 03:50:00","47327","1.5719999999999998","300.5","3.005","300.8","NAN","NAN","NAN","NAN","NAN"],
    [1546338,"2026-03-24 04:00:00","47328","1.53","282.6","2.45","281.3","NAN","NAN","NAN","NAN","NAN"],
    [1546339,"2026-03-24 04:10:00","47329","1.3630000000000002","280.5","2.091","280.3","NAN","NAN","NAN","NAN","NAN"],
    [1546340,"2026-03-24 04:20:00","47330","1.319","280.3","2.091","280.7","NAN","NAN","NAN","NAN","NAN"],
    [1546341,"2026-03-24 04:30:00","47331","1.365","280.7","2.189","280","NAN","NAN","NAN","NAN","NAN"],
    [1546342,"2026-03-24 04:40:00","47332","1.273","281.8","2.025","284.2","NAN","NAN","NAN","NAN","NAN"],
    [1546343,"2026-03-24 04:50:00","47333","1.631","280.6","2.809","285.5","NAN","NAN","NAN","NAN","NAN"],
    [1546344,"2026-03-24 05:00:00","47334","1.725","280.4","2.907","285.7","NAN","NAN","NAN","NAN","NAN"],
    [1546345,"2026-03-24 05:10:00","47335","2.1319999999999997","278.0","3.691","277.5","NAN","NAN","NAN","NAN","NAN"],
    [1546346,"2026-03-24 05:20:00","47336","2.1430000000000002","279.4","3.397","276.8","NAN","NAN","NAN","NAN","NAN"],
    [1546347,"2026-03-24 05:30:00","47337","2.963","282.4","4.377","276.7","NAN","NAN","NAN","NAN","NAN"],
    [1546348,"2026-03-24 05:40:00","47338","2.8960000000000004","287.4","4.639","297.3","NAN","NAN","NAN","NAN","NAN"],
    [1546349,"2026-03-24 05:50:00","47339","2.491","287.6","4.377","291.1","NAN","NAN","NAN","NAN","NAN"],
    [1546350,"2026-03-24 06:00:00","47340","2.425","289.2","4.149","288.3","NAN","NAN","NAN","NAN","NAN"],
    [1546351,"2026-03-24 06:10:00","47341","2.912","288.3","4.41","298.7","NAN","NAN","NAN","NAN","NAN"],
    [1546352,"2026-03-24 06:20:00","47342","2.291","286.3","4.312","291.5","NAN","NAN","NAN","NAN","NAN"],
    [1546353,"2026-03-24 06:30:00","47343","1.5230000000000001","299.2","3.169","309.2","NAN","NAN","NAN","NAN","NAN"],
    [1546354,"2026-03-24 06:40:00","47344","1.146","291.1","3.103","296.9","NAN","NAN","NAN","NAN","NAN"],
    [1546355,"2026-03-24 06:50:00","47345","0.598","294.4","1.862","296.9","NAN","NAN","NAN","NAN","NAN"],
    [1546356,"2026-03-24 07:00:00","47346","1.1159999999999999","296.3","2.025","290.5","NAN","NAN","NAN","NAN","NAN"],
    [1546357,"2026-03-24 07:10:00","47347","1.012","291.4","1.633","290.8","NAN","NAN","NAN","NAN","NAN"],
    [1546358,"2026-03-24 07:20:00","47348","1.045","289.7","1.601","289.1","NAN","NAN","NAN","NAN","NAN"],
    [1546359,"2026-03-24 07:30:00","47349","0.631","292.2","1.601","296.1","NAN","NAN","NAN","NAN","NAN"],
    [1546360,"2026-03-24 07:40:00","47350","0.637","290.1","1.535","288.9","NAN","NAN","NAN","NAN","NAN"],
    [1546361,"2026-03-24 07:50:00","47351","0.8290000000000001","288.9","2.254","288.4","NAN","NAN","NAN","NAN","NAN"],
    [1546362,"2026-03-24 08:00:00","47352","1.202","287.4","2.091","287.2","NAN","NAN","NAN","NAN","NAN"],
    [1546363,"2026-03-24 08:10:00","47353","2.1069999999999998","286.0","3.005","279.8","NAN","NAN","NAN","NAN","NAN"],
    [1546364,"2026-03-24 08:20:00","47354","1.796","297.5","3.038","295.8","NAN","NAN","NAN","NAN","NAN"],
    [1546365,"2026-03-24 08:30:00","47355","1.577","283.8","2.581","281.8","NAN","NAN","NAN","NAN","NAN"],
    [1546366,"2026-03-24 08:40:00","47356","1.814","275.3","2.875","274.4","NAN","NAN","NAN","NAN","NAN"],
    [1546367,"2026-03-24 08:50:00","47357","1.6980000000000002","279.6","3.169","276","NAN","NAN","NAN","NAN","NAN"],
    [1546368,"2026-03-24 09:00:00","47358","0.9940000000000001","272.5","2.058","274","NAN","NAN","NAN","NAN","NAN"],
    [1546369,"2026-03-24 09:10:00","47359","1.355","260.3","2.711","260.8","NAN","NAN","NAN","NAN","NAN"],
    [1546370,"2026-03-24 09:20:00","47360","1.188","262.6","2.515","258.3","NAN","NAN","NAN","NAN","NAN"],
    [1546371,"2026-03-24 09:30:00","47361","0.738","264.0","2.483","266.1","NAN","NAN","NAN","NAN","NAN"],
    [1546372,"2026-03-24 09:40:00","47362","0.124","257.3","1.339","257.4","NAN","NAN","NAN","NAN","NAN"],
    [1546373,"2026-03-24 09:50:00","47363","0.434","255.3","2.189","255","NAN","NAN","NAN","NAN","NAN"],
    [1546374,"2026-03-24 10:00:00","47364","1.0190000000000001","259.7","3.299","253","NAN","NAN","NAN","NAN","NAN"],
    [1546375,"2026-03-24 10:10:00","47365","0.627","223.7","2.94","193.8","NAN","NAN","NAN","NAN","NAN"],
    [1546376,"2026-03-24 10:20:00","47366","0.7959999999999999","198.1","2.679","197.5","NAN","NAN","NAN","NAN","NAN"],
    [1546377,"2026-03-24 10:30:00","47367","1.0659999999999998","199.9","4.247","215.2","NAN","NAN","NAN","NAN","NAN"],
    [1546378,"2026-03-24 10:40:00","47368","3.5789999999999997","205.2","5.325","209.1","NAN","NAN","NAN","NAN","NAN"],
    [1546379,"2026-03-24 10:50:00","47369","3.2460000000000004","178.8","5.357","166.3","NAN","NAN","NAN","NAN","NAN"],
    [1546380,"2026-03-24 11:00:00","47370","2.884","211.7","4.802","208.7","NAN","NAN","NAN","NAN","NAN"],
    [1546381,"2026-03-24 11:10:00","47371","3.45","205.8","5.39","208.1","NAN","NAN","NAN","NAN","NAN"],
    [1546382,"2026-03-24 11:20:00","47372","3.0810000000000004","205.9","5.619","215.2","NAN","NAN","NAN","NAN","NAN"],
    [1546383,"2026-03-24 11:30:00","47373","3.0989999999999998","206.1","5.88","209.9","NAN","NAN","NAN","NAN","NAN"],
    [1546384,"2026-03-24 11:40:00","47374","2.9010000000000002","213.8","4.965","217.7","NAN","NAN","NAN","NAN","NAN"],
    [1546385,"2026-03-24 11:50:00","47375","2.9160000000000004","208.0","5.259","208.6","NAN","NAN","NAN","NAN","NAN"],
    [1546386,"2026-03-24 12:00:00","47376","3.056","192.7","5.455","201.3","NAN","NAN","NAN","NAN","NAN"],
    [1546387,"2026-03-24 12:10:00","47377","2.835","199.3","5.488","212","NAN","NAN","NAN","NAN","NAN"],
    [1546388,"2026-03-24 12:20:00","47378","3.78","209.2","6.207","219.8","NAN","NAN","NAN","NAN","NAN"],
    [1546389,"2026-03-24 12:30:00","47379","3.8080000000000003","211.8","6.207","208.4","NAN","NAN","NAN","NAN","NAN"],
    [1546390,"2026-03-24 12:40:00","47380","3.847","197.9","6.043","202.8","NAN","NAN","NAN","NAN","NAN"],
    [1546391,"2026-03-24 12:50:00","47381","4.321000000000001","214.7","6.893","208","NAN","NAN","NAN","NAN","NAN"],
    [1546392,"2026-03-24 13:00:00","47382","4.0569999999999995","204.1","6.37","209.7","NAN","NAN","NAN","NAN","NAN"],
    [1546393,"2026-03-24 13:10:00","47383","3.573","204.1","6.141","207.4","NAN","NAN","NAN","NAN","NAN"],
    [1546394,"2026-03-24 13:20:00","47384","3.509","200.5","6.011","196.5","NAN","NAN","NAN","NAN","NAN"],
    [1546395,"2026-03-24 13:30:00","47385","4.531000000000001","205.4","7.121","205.7","NAN","NAN","NAN","NAN","NAN"],
    [1546396,"2026-03-24 13:40:00","47386","4.047","210.8","7.709","223.5","NAN","NAN","NAN","NAN","NAN"],
    [1546397,"2026-03-24 13:50:00","47387","4.953","211.4","7.873","206.9","NAN","NAN","NAN","NAN","NAN"],
    [1546398,"2026-03-24 14:00:00","47388","4.811","214.7","8.79","207.8","NAN","NAN","NAN","NAN","NAN"],
    [1546399,"2026-03-24 14:10:00","47389","5.138999999999999","209.9","8.33","201.4","NAN","NAN","NAN","NAN","NAN"],
    [1546400,"2026-03-24 14:20:00","47390","5.005","210.2","7.807","208.2","NAN","NAN","NAN","NAN","NAN"],
    [1546401,"2026-03-24 14:30:00","47391","5.2139999999999995","212.0","7.677","213.6","NAN","NAN","NAN","NAN","NAN"],
    [1546402,"2026-03-24 14:40:00","47392","4.7860000000000005","213.4","7.807","206.3","NAN","NAN","NAN","NAN","NAN"],
    [1546403,"2026-03-24 14:50:00","47393","5.109","208.8","8.04","209.6","NAN","NAN","NAN","NAN","NAN"],
    [1546404,"2026-03-24 15:00:00","47394","5.385","210.5","8.53","208.8","NAN","NAN","NAN","NAN","NAN"],
    [1546405,"2026-03-24 15:10:00","47395","5.2","211.1","8.89","206.9","NAN","NAN","NAN","NAN","NAN"],
    [1546406,"2026-03-24 15:20:00","47396","4.506","217.7","7.644","222.5","NAN","NAN","NAN","NAN","NAN"],
    [1546407,"2026-03-24 15:30:00","47397","5.175","215.8","8.3","208.9","NAN","NAN","NAN","NAN","NAN"],
    [1546408,"2026-03-24 15:40:00","47398","4.419","220.6","7.807","212.8","NAN","NAN","NAN","NAN","NAN"],
    [1546409,"2026-03-24 15:50:00","47399","4.651","217.8","9.21","223.1","NAN","NAN","NAN","NAN","NAN"],
    [1546410,"2026-03-24 16:00:00","47400","5.0089999999999995","227.2","8.98","241.9","NAN","NAN","NAN","NAN","NAN"],
    [1546411,"2026-03-24 16:10:00","47401","5.004","220.1","9.02","227.6","NAN","NAN","NAN","NAN","NAN"],
    [1546412,"2026-03-24 16:20:00","47402","4.8","222.8","9.02","217.3","NAN","NAN","NAN","NAN","NAN"],
    [1546413,"2026-03-24 16:30:00","47403","4.571000000000001","224.3","8.79","218.3","NAN","NAN","NAN","NAN","NAN"],
    [1546414,"2026-03-24 16:40:00","47404","4.308","225.7","8.59","224.1","NAN","NAN","NAN","NAN","NAN"],
    [1546415,"2026-03-24 16:50:00","47405","4.371","234.6","7.35","243.3","NAN","NAN","NAN","NAN","NAN"],
    [1546416,"2026-03-24 17:00:00","47406","3.889","236.4","7.775","222.7","NAN","NAN","NAN","NAN","NAN"],
    [1546417,"2026-03-24 17:10:00","47407","4.266","238.0","7.84","255.1","NAN","NAN","NAN","NAN","NAN"],
    [1546418,"2026-03-24 17:20:00","47408","3.555","242.8","7.154","250.9","NAN","NAN","NAN","NAN","NAN"],
    [1546419,"2026-03-24 17:30:00","47409","3.7910000000000004","235.3","6.631","239.3","NAN","NAN","NAN","NAN","NAN"],
    [1546420,"2026-03-24 17:40:00","47410","3.7939999999999996","229.1","6.664","211","NAN","NAN","NAN","NAN","NAN"],
    [1546421,"2026-03-24 17:50:00","47411","3.86","233.3","7.219","215.5","NAN","NAN","NAN","NAN","NAN"],
    [1546422,"2026-03-24 18:00:00","47412","3.8480000000000003","235.4","6.991","233.5","NAN","NAN","NAN","NAN","NAN"],
    [1546423,"2026-03-24 18:10:00","47413","3.611","232.7","6.631","236.5","NAN","NAN","NAN","NAN","NAN"],
    [1546424,"2026-03-24 18:20:00","47414","3.8","233.7","6.893","236.8","NAN","NAN","NAN","NAN","NAN"],
    [1546425,"2026-03-24 18:30:00","47415","3.7689999999999997","232.2","6.893","236.8","NAN","NAN","NAN","NAN","NAN"],
    [1546426,"2026-03-24 18:40:00","47416","3.2030000000000003","232.3","5.488","230.6","NAN","NAN","NAN","NAN","NAN"],
    [1546427,"2026-03-24 18:50:00","47417","2.592","233.8","5.423","241.8","NAN","NAN","NAN","NAN","NAN"],
    [1546428,"2026-03-24 19:00:00","47418","2.7510000000000003","240.5","6.141","234.6","NAN","NAN","NAN","NAN","NAN"],
    [1546429,"2026-03-24 19:10:00","47419","2.713","235.1","5.031","232.5","NAN","NAN","NAN","NAN","NAN"],
    [1546430,"2026-03-24 19:20:00","47420","2.97","236.2","5.586","232.4","NAN","NAN","NAN","NAN","NAN"],
    [1546431,"2026-03-24 19:30:00","47421","2.2769999999999997","233.4","4.933","233.7","NAN","NAN","NAN","NAN","NAN"],
    [1546432,"2026-03-24 19:40:00","47422","2.908","232.5","5.161","230.1","NAN","NAN","NAN","NAN","NAN"],
    [1546433,"2026-03-24 19:50:00","47423","2.6830000000000003","237.3","4.737","231.5","NAN","NAN","NAN","NAN","NAN"],
    [1546434,"2026-03-24 20:00:00","47424","2.7119999999999997","238.0","5.815","222.3","NAN","NAN","NAN","NAN","NAN"],
    [1546435,"2026-03-24 20:10:00","47425","2.6489999999999996","233.7","4.769","245.9","NAN","NAN","NAN","NAN","NAN"],
    [1546436,"2026-03-24 20:20:00","47426","2.443","235.9","4.965","234.7","NAN","NAN","NAN","NAN","NAN"],
    [1546437,"2026-03-24 20:30:00","47427","2.5180000000000002","236.9","4.769","243.9","NAN","NAN","NAN","NAN","NAN"],
    [1546438,"2026-03-24 20:40:00","47428","2.8310000000000004","237.0","4.606","235.7","NAN","NAN","NAN","NAN","NAN"],
    [1546439,"2026-03-24 20:50:00","47429","2.458","232.3","4.214","214.1","NAN","NAN","NAN","NAN","NAN"],
    [1546440,"2026-03-24 21:00:00","47430","2.322","239.3","3.659","228.2","NAN","NAN","NAN","NAN","NAN"],
    [1546441,"2026-03-24 21:10:00","47431","2.463","240.9","4.802","237.2","NAN","NAN","NAN","NAN","NAN"],
    [1546442,"2026-03-24 21:20:00","47432","2.3280000000000003","240.3","4.214","251.2","NAN","NAN","NAN","NAN","NAN"],
    [1546443,"2026-03-24 21:30:00","47433","2.802","244.5","5.096","253.7","NAN","NAN","NAN","NAN","NAN"],
    [1546444,"2026-03-24 21:40:00","47434","2.438","238.4","4.802","241.2","NAN","NAN","NAN","NAN","NAN"],
    [1546445,"2026-03-24 21:50:00","47435","2.0180000000000002","231.1","3.561","220.9","NAN","NAN","NAN","NAN","NAN"],
    [1546446,"2026-03-24 22:00:00","47436","2.383","232.0","4.508","226.9","NAN","NAN","NAN","NAN","NAN"],
    [1546447,"2026-03-24 22:10:00","47437","2.6260000000000003","235.5","5.129","226","NAN","NAN","NAN","NAN","NAN"],
    [1546448,"2026-03-24 22:20:00","47438","2.69","239.2","4.475","244.1","NAN","NAN","NAN","NAN","NAN"],
    [1546449,"2026-03-24 22:30:00","47439","2.7110000000000003","236.0","4.377","220.2","NAN","NAN","NAN","NAN","NAN"],
    [1546450,"2026-03-24 22:40:00","47440","1.9469999999999998","233.9","3.92","236.7","NAN","NAN","NAN","NAN","NAN"],
    [1546451,"2026-03-24 22:50:00","47441","2.574","237.9","4.933","233.1","NAN","NAN","NAN","NAN","NAN"],
    [1546452,"2026-03-24 23:00:00","47442","2.37","234.9","4.802","245.3","NAN","NAN","NAN","NAN","NAN"],
    [1546453,"2026-03-24 23:10:00","47443","2.645","234.0","4.737","239.1","NAN","NAN","NAN","NAN","NAN"],
    [1546454,"2026-03-24 23:20:00","47444","2.821","234.8","4.737","240.5","NAN","NAN","NAN","NAN","NAN"],
    [1546455,"2026-03-24 23:30:00","47445","2.6210000000000004","238.3","5.031","247.1","NAN","NAN","NAN","NAN","NAN"],
    [1546456,"2026-03-24 23:40:00","47446","2.8139999999999996","246.5","5.096","246.9","NAN","NAN","NAN","NAN","NAN"],
    [1546457,"2026-03-24 23:50:00","47447","3.108","252.0","4.769","240.3","NAN","NAN","NAN","NAN","NAN"],
    [1546458,"2026-03-25 00:00:00","47448","2.708","256.7","4.083","259.9","NAN","NAN","NAN","NAN","NAN"],
    [1546459,"2026-03-25 00:10:00","47449","1.584","263.7","2.581","263.1","NAN","NAN","NAN","NAN","NAN"],
    [1546460,"2026-03-25 00:20:00","47450","1.9240000000000002","252.2","3.136","247.8","NAN","NAN","NAN","NAN","NAN"],
    [1546461,"2026-03-25 00:30:00","47451","2.0","247.6","3.136","243.9","NAN","NAN","NAN","NAN","NAN"],
    [1546462,"2026-03-25 00:40:00","47452","2.178","244.0","3.43","236.3","NAN","NAN","NAN","NAN","NAN"],
    [1546463,"2026-03-25 00:50:00","47453","1.328","253.0","2.319","248.5","NAN","NAN","NAN","NAN","NAN"],
    [1546464,"2026-03-25 01:00:00","47454","1.133","252.4","1.829","254.3","NAN","NAN","NAN","NAN","NAN"],
    [1546465,"2026-03-25 01:10:00","47455","0.8640000000000001","252.5","1.339","252.8","NAN","NAN","NAN","NAN","NAN"],
    [1546466,"2026-03-25 01:20:00","47456","1.38","249.9","2.091","245","NAN","NAN","NAN","NAN","NAN"],
    [1546467,"2026-03-25 01:30:00","47457","1.795","247.0","2.711","247.1","NAN","NAN","NAN","NAN","NAN"],
    [1546468,"2026-03-25 01:40:00","47458","1.415","255.0","2.254","252","NAN","NAN","NAN","NAN","NAN"],
    [1546469,"2026-03-25 01:50:00","47459","1.409","251.0","2.385","248.3","NAN","NAN","NAN","NAN","NAN"],
    [1546470,"2026-03-25 02:00:00","47460","1.359","256.4","2.058","256.6","NAN","NAN","NAN","NAN","NAN"],
    [1546471,"2026-03-25 02:10:00","47461","0.883","257.1","1.535","257.2","NAN","NAN","NAN","NAN","NAN"],
    [1546472,"2026-03-25 02:20:00","47462","1.265","253.2","1.993","249.1","NAN","NAN","NAN","NAN","NAN"],
    [1546473,"2026-03-25 02:30:00","47463","1.255","246.5","2.613","244","NAN","NAN","NAN","NAN","NAN"],
    [1546474,"2026-03-25 02:40:00","47464","1.325","253.6","2.189","254.6","NAN","NAN","NAN","NAN","NAN"],
    [1546475,"2026-03-25 02:50:00","47465","1.3019999999999998","258.0","2.45","257.7","NAN","NAN","NAN","NAN","NAN"],
    [1546476,"2026-03-25 03:00:00","47466","0.9159999999999999","258.8","1.829","258.9","NAN","NAN","NAN","NAN","NAN"],
    [1546477,"2026-03-25 03:10:00","47467","0.7659999999999999","258.7","1.437","258.8","NAN","NAN","NAN","NAN","NAN"],
    [1546478,"2026-03-25 03:20:00","47468","1.298","258.3","2.613","259.1","NAN","NAN","NAN","NAN","NAN"],
    [1546479,"2026-03-25 03:30:00","47469","1.232","259.1","1.797","259.1","NAN","NAN","NAN","NAN","NAN"],
    [1546480,"2026-03-25 03:40:00","47470","1.194","257.0","2.025","257.3","NAN","NAN","NAN","NAN","NAN"],
    [1546481,"2026-03-25 03:50:00","47471","1.058","256.6","1.862","253.5","NAN","NAN","NAN","NAN","NAN"],
    [1546482,"2026-03-25 04:00:00","47472","0.713","259.1","1.699","259.2","NAN","NAN","NAN","NAN","NAN"],
    [1546483,"2026-03-25 04:10:00","47473","0.9470000000000001","259.6","1.829","259.5","NAN","NAN","NAN","NAN","NAN"],
    [1546484,"2026-03-25 04:20:00","47474","0.89","259.1","1.895","258.2","NAN","NAN","NAN","NAN","NAN"],
    [1546485,"2026-03-25 04:30:00","47475","1.445","255.0","2.417","251.5","NAN","NAN","NAN","NAN","NAN"],
    [1546486,"2026-03-25 04:40:00","47476","1.0290000000000001","259.1","2.058","257.8","NAN","NAN","NAN","NAN","NAN"],
    [1546487,"2026-03-25 04:50:00","47477","0.33299999999999996","260.0","1.209","260","NAN","NAN","NAN","NAN","NAN"],
    [1546488,"2026-03-25 05:00:00","47478","0.253","260.0","1.307","259.9","NAN","NAN","NAN","NAN","NAN"],
    [1546489,"2026-03-25 05:10:00","47479","0.882","255.6","2.548","249.6","NAN","NAN","NAN","NAN","NAN"],
    [1546490,"2026-03-25 05:20:00","47480","0.9670000000000001","257.6","2.352","259.9","NAN","NAN","NAN","NAN","NAN"],
    [1546491,"2026-03-25 05:30:00","47481","0.21899999999999997","259.3","1.078","260","NAN","NAN","NAN","NAN","NAN"],
    [1546492,"2026-03-25 05:40:00","47482","0.174","258.8","1.209","254.1","NAN","NAN","NAN","NAN","NAN"],
    [1546493,"2026-03-25 05:50:00","47483","1.1159999999999999","259.3","2.221","253.8","NAN","NAN","NAN","NAN","NAN"],
    [1546494,"2026-03-25 06:00:00","47484","1.2790000000000001","261.6","2.907","261.7","NAN","NAN","NAN","NAN","NAN"],
    [1546495,"2026-03-25 06:10:00","47485","1.2890000000000001","257.8","3.169","251.2","NAN","NAN","NAN","NAN","NAN"],
    [1546496,"2026-03-25 06:20:00","47486","1.28","258.9","2.352","261","NAN","NAN","NAN","NAN","NAN"],
    [1546497,"2026-03-25 06:30:00","47487","1.367","260.4","2.842","253.1","NAN","NAN","NAN","NAN","NAN"],
    [1546498,"2026-03-25 06:40:00","47488","1.911","264.4","3.038","263.9","NAN","NAN","NAN","NAN","NAN"],
    [1546499,"2026-03-25 06:50:00","47489","2.076","283.9","3.528","262.1","NAN","NAN","NAN","NAN","NAN"],
    [1546500,"2026-03-25 07:00:00","47490","1.925","283.0","3.593","276.7","NAN","NAN","NAN","NAN","NAN"],
    [1546501,"2026-03-25 07:10:00","47491","1.9369999999999998","281.1","3.299","276.6","NAN","NAN","NAN","NAN","NAN"],
    [1546502,"2026-03-25 07:20:00","47492","2.128","289.6","4.377","298.2","NAN","NAN","NAN","NAN","NAN"],
    [1546503,"2026-03-25 07:30:00","47493","1.8780000000000001","271.6","3.267","270.1","NAN","NAN","NAN","NAN","NAN"],
    [1546504,"2026-03-25 07:40:00","47494","1.89","271.9","3.365","278.6","NAN","NAN","NAN","NAN","NAN"],
    [1546505,"2026-03-25 07:50:00","47495","2.059","279.8","3.561","283.8","NAN","NAN","NAN","NAN","NAN"],
    [1546506,"2026-03-25 08:00:00","47496","2.148","276.1","3.495","280.3","NAN","NAN","NAN","NAN","NAN"],
    [1546507,"2026-03-25 08:10:00","47497","2.29","281.8","3.757","288.1","NAN","NAN","NAN","NAN","NAN"],
    [1546508,"2026-03-25 08:20:00","47498","2.611","284.9","3.887","294.5","NAN","NAN","NAN","NAN","NAN"],
    [1546509,"2026-03-25 08:30:00","47499","2.4859999999999998","279.5","4.051","292.6","NAN","NAN","NAN","NAN","NAN"],
    [1546510,"2026-03-25 08:40:00","47500","2.182","271.4","3.561","268.2","NAN","NAN","NAN","NAN","NAN"],
    [1546511,"2026-03-25 08:50:00","47501","2.099","266.9","3.92","248.7","NAN","NAN","NAN","NAN","NAN"],
    [1546512,"2026-03-25 09:00:00","47502","2.311","253.4","3.887","253.9","NAN","NAN","NAN","NAN","NAN"],
    [1546513,"2026-03-25 09:10:00","47503","2.783","240.6","4.867","258.8","NAN","NAN","NAN","NAN","NAN"],
    [1546514,"2026-03-25 09:20:00","47504","2.423","242.5","4.508","245.4","NAN","NAN","NAN","NAN","NAN"],
    [1546515,"2026-03-25 09:30:00","47505","1.5290000000000001","238.4","3.495","216.4","NAN","NAN","NAN","NAN","NAN"],
    [1546516,"2026-03-25 09:40:00","47506","2.845","224.5","5.488","207.2","NAN","NAN","NAN","NAN","NAN"],
    [1546517,"2026-03-25 09:50:00","47507","3.793","214.1","6.305","212","NAN","NAN","NAN","NAN","NAN"],
    [1546518,"2026-03-25 10:00:00","47508","4.215","220.3","6.435","217.7","NAN","NAN","NAN","NAN","NAN"],
    [1546519,"2026-03-25 10:10:00","47509","3.0260000000000002","234.1","5.684","208.8","NAN","NAN","NAN","NAN","NAN"],
    [1546520,"2026-03-25 10:20:00","47510","3.8360000000000003","223.5","6.403","226.5","NAN","NAN","NAN","NAN","NAN"],
    [1546521,"2026-03-25 10:30:00","47511","3.3689999999999998","229.7","6.011","207.3","NAN","NAN","NAN","NAN","NAN"],
    [1546522,"2026-03-25 10:40:00","47512","4.184","218.7","7.219","204.2","NAN","NAN","NAN","NAN","NAN"],
    [1546523,"2026-03-25 10:50:00","47513","4.647","217.3","7.252","229.1","NAN","NAN","NAN","NAN","NAN"],
    [1546524,"2026-03-25 11:00:00","47514","4.668","229.8","8.07","224","NAN","NAN","NAN","NAN","NAN"],
    [1546525,"2026-03-25 11:10:00","47515","4.538","224.0","9.05","228.2","NAN","NAN","NAN","NAN","NAN"],
    [1546526,"2026-03-25 11:20:00","47516","3.8930000000000002","224.2","8.1","218.9","NAN","NAN","NAN","NAN","NAN"],
    [1546527,"2026-03-25 11:30:00","47517","5.185","220.5","8.23","204.5","NAN","NAN","NAN","NAN","NAN"],
    [1546528,"2026-03-25 11:40:00","47518","4.9239999999999995","226.8","8.43","222.5","NAN","NAN","NAN","NAN","NAN"],
    [1546529,"2026-03-25 11:50:00","47519","5.176","229.0","8.53","231.8","NAN","NAN","NAN","NAN","NAN"],
    [1546530,"2026-03-25 12:00:00","47520","5.043","226.4","8.26","223.2","NAN","NAN","NAN","NAN","NAN"],
    [1546531,"2026-03-25 12:10:00","47521","4.898","233.5","8.4","229.2","NAN","NAN","NAN","NAN","NAN"],
    [1546532,"2026-03-25 12:20:00","47522","5.202000000000001","223.2","9.15","229","NAN","NAN","NAN","NAN","NAN"],
    [1546533,"2026-03-25 12:30:00","47523","4.418","228.6","8.43","219.7","NAN","NAN","NAN","NAN","NAN"],
    [1546534,"2026-03-25 12:40:00","47524","5.268","219.3","8.53","210.9","NAN","NAN","NAN","NAN","NAN"],
    [1546535,"2026-03-25 12:50:00","47525","5.367000000000001","225.3","8.92","223.6","NAN","NAN","NAN","NAN","NAN"],
    [1546536,"2026-03-25 13:00:00","47526","5.4110000000000005","217.2","8.62","204.2","NAN","NAN","NAN","NAN","NAN"],
    [1546537,"2026-03-25 13:10:00","47527","5.496","212.1","8.79","206.6","NAN","NAN","NAN","NAN","NAN"],
    [1546538,"2026-03-25 13:20:00","47528","5.535","212.3","9.77","223.2","NAN","NAN","NAN","NAN","NAN"],
    [1546539,"2026-03-25 13:30:00","47529","5.037","214.6","8.13","210.4","NAN","NAN","NAN","NAN","NAN"],
    [1546540,"2026-03-25 13:40:00","47530","5.1370000000000005","212.9","8.56","209.9","NAN","NAN","NAN","NAN","NAN"],
    [1546541,"2026-03-25 13:50:00","47531","5.165","214.9","8.53","204.8","NAN","NAN","NAN","NAN","NAN"],
    [1546542,"2026-03-25 14:00:00","47532","5.605","213.2","8.89","210","NAN","NAN","NAN","NAN","NAN"],
    [1546543,"2026-03-25 14:10:00","47533","4.797","227.5","8.98","220.3","NAN","NAN","NAN","NAN","NAN"],
    [1546544,"2026-03-25 14:20:00","47534","4.213","229.8","8.26","247.2","NAN","NAN","NAN","NAN","NAN"],
    [1546545,"2026-03-25 14:30:00","47535","5.08","225.6","9.41","230.1","NAN","NAN","NAN","NAN","NAN"],
    [1546546,"2026-03-25 14:40:00","47536","5.476","216.8","10.98","218.2","NAN","NAN","NAN","NAN","NAN"],
    [1546547,"2026-03-25 14:50:00","47537","6.035","216.7","9.54","209.3","NAN","NAN","NAN","NAN","NAN"],
    [1546548,"2026-03-25 15:00:00","47538","6.067","212.0","9.77","207","NAN","NAN","NAN","NAN","NAN"],
    [1546549,"2026-03-25 15:10:00","47539","5.361000000000001","215.5","8.98","208.6","NAN","NAN","NAN","NAN","NAN"],
    [1546550,"2026-03-25 15:20:00","47540","5.019","218.9","8.33","202.6","NAN","NAN","NAN","NAN","NAN"],
    [1546551,"2026-03-25 15:30:00","47541","5.315","223.0","9.51","214","NAN","NAN","NAN","NAN","NAN"],
    [1546552,"2026-03-25 15:40:00","47542","5.4239999999999995","229.1","9.18","227.5","NAN","NAN","NAN","NAN","NAN"],
    [1546553,"2026-03-25 15:50:00","47543","6.374","225.4","11.14","226.4","NAN","NAN","NAN","NAN","NAN"],
    [1546554,"2026-03-25 16:00:00","47544","5.718999999999999","225.0","10.32","219.5","NAN","NAN","NAN","NAN","NAN"],
    [1546555,"2026-03-25 16:10:00","47545","5.982","231.8","9.6","232.1","NAN","NAN","NAN","NAN","NAN"],
    [1546556,"2026-03-25 16:20:00","47546","5.1339999999999995","227.0","9.28","226.5","NAN","NAN","NAN","NAN","NAN"],
    [1546557,"2026-03-25 16:30:00","47547","5.736000000000001","228.6","9.24","217.5","NAN","NAN","NAN","NAN","NAN"],
    [1546558,"2026-03-25 16:40:00","47548","5.557","223.7","9.77","222.6","NAN","NAN","NAN","NAN","NAN"],
    [1546559,"2026-03-25 16:50:00","47549","5.02","217.6","9.08","220.4","NAN","NAN","NAN","NAN","NAN"],
    [1546560,"2026-03-25 17:00:00","47550","4.6080000000000005","218.0","7.644","222.3","NAN","NAN","NAN","NAN","NAN"],
    [1546561,"2026-03-25 17:10:00","47551","4.708","220.0","8.82","212.4","NAN","NAN","NAN","NAN","NAN"],
    [1546562,"2026-03-25 17:20:00","47552","4.8660000000000005","223.1","8.62","205.3","NAN","NAN","NAN","NAN","NAN"],
    [1546563,"2026-03-25 17:30:00","47553","4.546","227.9","8.23","226.9","NAN","NAN","NAN","NAN","NAN"],
    [1546564,"2026-03-25 17:40:00","47554","3.484","229.6","7.317","221","NAN","NAN","NAN","NAN","NAN"],
    [1546565,"2026-03-25 17:50:00","47555","3.26","223.5","6.599","221.4","NAN","NAN","NAN","NAN","NAN"],
    [1546566,"2026-03-25 18:00:00","47556","3.137","215.6","5.847","209.6","NAN","NAN","NAN","NAN","NAN"],
    [1546567,"2026-03-25 18:10:00","47557","4.011","213.7","6.827","210.7","NAN","NAN","NAN","NAN","NAN"],
    [1546568,"2026-03-25 18:20:00","47558","2.667","222.8","5.815","233.9","NAN","NAN","NAN","NAN","NAN"],
    [1546569,"2026-03-25 18:30:00","47559","1.916","233.3","4.312","247.4","NAN","NAN","NAN","NAN","NAN"],
    [1546570,"2026-03-25 18:40:00","47560","0.922","239.7","3.397","245.6","NAN","NAN","NAN","NAN","NAN"],
    [1546571,"2026-03-25 18:50:00","47561","1.199","226.2","2.744","217.9","NAN","NAN","NAN","NAN","NAN"],
    [1546572,"2026-03-25 19:00:00","47562","1.094","235.6","2.777","236.3","NAN","NAN","NAN","NAN","NAN"],
    [1546573,"2026-03-25 19:10:00","47563","0.977","239.6","2.319","239.9","NAN","NAN","NAN","NAN","NAN"],
    [1546574,"2026-03-25 19:20:00","47564","0.804","241.6","2.221","241.5","NAN","NAN","NAN","NAN","NAN"],
    [1546575,"2026-03-25 19:30:00","47565","0.975","242.2","2.025","242.5","NAN","NAN","NAN","NAN","NAN"],
    [1546576,"2026-03-25 19:40:00","47566","0.8029999999999999","242.8","2.058","242.9","NAN","NAN","NAN","NAN","NAN"],
    [1546577,"2026-03-25 19:50:00","47567","1.092","335.4","3.724","16.22","NAN","NAN","NAN","NAN","NAN"],
    [1546578,"2026-03-25 20:00:00","47568","1.584","2.639","2.548","2.735","NAN","NAN","NAN","NAN","NAN"],
    [1546579,"2026-03-25 20:10:00","47569","1.8880000000000001","8.97","4.867","9.9","NAN","NAN","NAN","NAN","NAN"],
    [1546580,"2026-03-25 20:20:00","47570","3.4339999999999997","36.35","6.109","43.35","NAN","NAN","NAN","NAN","NAN"],
    [1546581,"2026-03-25 20:30:00","47571","2.503","40.66","4.214","40.25","NAN","NAN","NAN","NAN","NAN"],
    [1546582,"2026-03-25 20:40:00","47572","2.6689999999999996","40.21","4.933","33.96","NAN","NAN","NAN","NAN","NAN"],
    [1546583,"2026-03-25 20:50:00","47573","2.289","41.71","5.586","31.01","NAN","NAN","NAN","NAN","NAN"],
    [1546584,"2026-03-25 21:00:00","47574","4.585","38.0","7.84","42.5","NAN","NAN","NAN","NAN","NAN"],
    [1546585,"2026-03-25 21:10:00","47575","5.038","39.29","7.742","34.04","NAN","NAN","NAN","NAN","NAN"],
    [1546586,"2026-03-25 21:20:00","47576","5.5360000000000005","39.03","8.72","40.64","NAN","NAN","NAN","NAN","NAN"],
    [1546587,"2026-03-25 21:30:00","47577","3.84","49.1","7.252","42.5","NAN","NAN","NAN","NAN","NAN"],
    [1546588,"2026-03-25 21:40:00","47578","3.387","57.99","6.893","61.01","NAN","NAN","NAN","NAN","NAN"],
    [1546589,"2026-03-25 21:50:00","47579","3.285","55.35","6.468","35.37","NAN","NAN","NAN","NAN","NAN"],
    [1546590,"2026-03-25 22:00:00","47580","3.693","48.0","6.011","46.02","NAN","NAN","NAN","NAN","NAN"],
    [1546591,"2026-03-25 22:10:00","47581","3.61","48.8","6.599","40.96","NAN","NAN","NAN","NAN","NAN"],
    [1546592,"2026-03-25 22:20:00","47582","3.937","41.55","5.913","45.98","NAN","NAN","NAN","NAN","NAN"],
    [1546593,"2026-03-25 22:30:00","47583","4.5360000000000005","38.76","6.86","29.37","NAN","NAN","NAN","NAN","NAN"],
    [1546594,"2026-03-25 22:40:00","47584","3.884","33.67","5.978","27.6","NAN","NAN","NAN","NAN","NAN"],
    [1546595,"2026-03-25 22:50:00","47585","3.4989999999999997","45.43","5.227","37.52","NAN","NAN","NAN","NAN","NAN"],
    [1546596,"2026-03-25 23:00:00","47586","3.255","28.04","4.965","49.03","NAN","NAN","NAN","NAN","NAN"],
    [1546597,"2026-03-25 23:10:00","47587","2.089","21.39","4.214","26.86","NAN","NAN","NAN","NAN","NAN"],
    [1546598,"2026-03-25 23:20:00","47588","1.071","29.86","3.332","34.67","NAN","NAN","NAN","NAN","NAN"],
    [1546599,"2026-03-25 23:30:00","47589","2.2969999999999997","357.5","6.076","304.4","NAN","NAN","NAN","NAN","NAN"],
    [1546600,"2026-03-25 23:40:00","47590","4.1930000000000005","328.6","6.664","332.8","NAN","NAN","NAN","NAN","NAN"],
    [1546601,"2026-03-25 23:50:00","47591","3.2969999999999997","339.9","6.599","330.6","NAN","NAN","NAN","NAN","NAN"],
    [1546602,"2026-03-26 00:00:00","47592","3.515","324.2","7.056","338.6","NAN","NAN","NAN","NAN","NAN"],
    [1546603,"2026-03-26 00:10:00","47593","4.559","326.1","7.905","337.3","NAN","NAN","NAN","NAN","NAN"],
    [1546604,"2026-03-26 00:20:00","47594","3.408","332.8","6.533","340.1","NAN","NAN","NAN","NAN","NAN"],
    [1546605,"2026-03-26 00:30:00","47595","2.546","321.6","5.553","316.1","NAN","NAN","NAN","NAN","NAN"],
    [1546606,"2026-03-26 00:40:00","47596","4.203","323.8","6.501","328.1","NAN","NAN","NAN","NAN","NAN"],
    [1546607,"2026-03-26 00:50:00","47597","4.713","324.0","8.23","324.4","NAN","NAN","NAN","NAN","NAN"],
    [1546608,"2026-03-26 01:00:00","47598","4.22","329.4","6.501","333.5","NAN","NAN","NAN","NAN","NAN"],
    [1546609,"2026-03-26 01:10:00","47599","3.8","326.6","6.305","332.4","NAN","NAN","NAN","NAN","NAN"],
    [1546610,"2026-03-26 01:20:00","47600","3.4789999999999996","328.1","5.39","331.5","NAN","NAN","NAN","NAN","NAN"],
    [1546611,"2026-03-26 01:30:00","47601","3.04","315.4","5.194","329","NAN","NAN","NAN","NAN","NAN"],
    [1546612,"2026-03-26 01:40:00","47602","2.425","316.7","5.782","316.6","NAN","NAN","NAN","NAN","NAN"],
    [1546613,"2026-03-26 01:50:00","47603","3.23","312.8","5.651","305.6","NAN","NAN","NAN","NAN","NAN"],
    [1546614,"2026-03-26 02:00:00","47604","4.0169999999999995","322.1","6.991","335.5","NAN","NAN","NAN","NAN","NAN"],
    [1546615,"2026-03-26 02:10:00","47605","4.0889999999999995","324.7","6.664","329.5","NAN","NAN","NAN","NAN","NAN"],
    [1546616,"2026-03-26 02:20:00","47606","3.661","320.0","6.958","319.1","NAN","NAN","NAN","NAN","NAN"],
    [1546617,"2026-03-26 02:30:00","47607","3.96","316.5","7.285","300.5","NAN","NAN","NAN","NAN","NAN"],
    [1546618,"2026-03-26 02:40:00","47608","4.093","307.8","7.219","297.7","NAN","NAN","NAN","NAN","NAN"],
    [1546619,"2026-03-26 02:50:00","47609","4.248","312.4","8.13","294","NAN","NAN","NAN","NAN","NAN"],
    [1546620,"2026-03-26 03:00:00","47610","3.929","306.8","6.109","303.7","NAN","NAN","NAN","NAN","NAN"],
    [1546621,"2026-03-26 03:10:00","47611","4.1080000000000005","306.6","6.272","295.1","NAN","NAN","NAN","NAN","NAN"],
    [1546622,"2026-03-26 03:20:00","47612","4.93","303.4","8.17","295","NAN","NAN","NAN","NAN","NAN"],
    [1546623,"2026-03-26 03:30:00","47613","4.346","305.7","6.729","306.5","NAN","NAN","NAN","NAN","NAN"],
    [1546624,"2026-03-26 03:40:00","47614","5.206","297.2","8.23","302.7","NAN","NAN","NAN","NAN","NAN"],
    [1546625,"2026-03-26 03:50:00","47615","4.571000000000001","298.1","7.317","301.7","NAN","NAN","NAN","NAN","NAN"],
    [1546626,"2026-03-26 04:00:00","47616","4.906000000000001","305.2","8.13","287.1","NAN","NAN","NAN","NAN","NAN"],
    [1546627,"2026-03-26 04:10:00","47617","4.0680000000000005","302.4","7.154","300.7","NAN","NAN","NAN","NAN","NAN"],
    [1546628,"2026-03-26 04:20:00","47618","3.398","299.9","5.325","287","NAN","NAN","NAN","NAN","NAN"],
    [1546629,"2026-03-26 04:30:00","47619","3.267","315.9","5.717","322.3","NAN","NAN","NAN","NAN","NAN"],
    [1546630,"2026-03-26 04:40:00","47620","3.968","317.5","7.415","310.1","NAN","NAN","NAN","NAN","NAN"],
    [1546631,"2026-03-26 04:50:00","47621","3.7969999999999997","307.8","6.86","311.3","NAN","NAN","NAN","NAN","NAN"],
    [1546632,"2026-03-26 05:00:00","47622","2.702","302.7","5.455","299.4","NAN","NAN","NAN","NAN","NAN"],
    [1546633,"2026-03-26 05:10:00","47623","2.158","304.0","3.92","296.9","NAN","NAN","NAN","NAN","NAN"],
    [1546634,"2026-03-26 05:20:00","47624","2.917","311.3","5.717","315.3","NAN","NAN","NAN","NAN","NAN"],
    [1546635,"2026-03-26 05:30:00","47625","3.088","307.6","5.259","308.8","NAN","NAN","NAN","NAN","NAN"],
    [1546636,"2026-03-26 05:40:00","47626","2.931","310.9","5.096","308.6","NAN","NAN","NAN","NAN","NAN"],
    [1546637,"2026-03-26 05:50:00","47627","3.412","313.7","5.521","321.8","NAN","NAN","NAN","NAN","NAN"],
    [1546638,"2026-03-26 06:00:00","47628","3.3360000000000003","311.7","5.488","314.4","NAN","NAN","NAN","NAN","NAN"],
    [1546639,"2026-03-26 06:10:00","47629","2.117","305.4","4.508","309.5","NAN","NAN","NAN","NAN","NAN"],
    [1546640,"2026-03-26 06:20:00","47630","2.258","309.5","4.41","313.8","NAN","NAN","NAN","NAN","NAN"],
    [1546641,"2026-03-26 06:30:00","47631","2.218","309.2","4.018","297.4","NAN","NAN","NAN","NAN","NAN"],
    [1546642,"2026-03-26 06:40:00","47632","2.82","320.6","4.998","320.5","NAN","NAN","NAN","NAN","NAN"],
    [1546643,"2026-03-26 06:50:00","47633","3.7310000000000003","333.5","6.076","332.2","NAN","NAN","NAN","NAN","NAN"],
    [1546644,"2026-03-26 07:00:00","47634","2.762","327.2","4.835","353.2","NAN","NAN","NAN","NAN","NAN"],
    [1546645,"2026-03-26 07:10:00","47635","1.253","286.7","3.757","268.4","NAN","NAN","NAN","NAN","NAN"],
    [1546646,"2026-03-26 07:20:00","47636","1.298","276.0","2.417","274.1","NAN","NAN","NAN","NAN","NAN"],
    [1546647,"2026-03-26 07:30:00","47637","0.856","289.2","2.156","289.2","NAN","NAN","NAN","NAN","NAN"],
    [1546648,"2026-03-26 07:40:00","47638","0.282","268.3","1.633","261.1","NAN","NAN","NAN","NAN","NAN"],
    [1546649,"2026-03-26 07:50:00","47639","0.7020000000000001","103.1","3.038","113.4","NAN","NAN","NAN","NAN","NAN"],
    [1546650,"2026-03-26 08:00:00","47640","1.768","66.79","4.116","96.9","NAN","NAN","NAN","NAN","NAN"],
    [1546651,"2026-03-26 08:10:00","47641","2.138","94.3","3.463","106.5","NAN","NAN","NAN","NAN","NAN"],
    [1546652,"2026-03-26 08:20:00","47642","2.295","119.0","3.822","124.8","NAN","NAN","NAN","NAN","NAN"],
    [1546653,"2026-03-26 08:30:00","47643","2.431","101.4","3.757","106.2","NAN","NAN","NAN","NAN","NAN"],
    [1546654,"2026-03-26 08:40:00","47644","1.7630000000000001","106.0","4.181","100.3","NAN","NAN","NAN","NAN","NAN"],
    [1546655,"2026-03-26 08:50:00","47645","1.5430000000000001","101.4","3.332","111.5","NAN","NAN","NAN","NAN","NAN"],
    [1546656,"2026-03-26 09:00:00","47646","2.1109999999999998","120.8","3.757","156","NAN","NAN","NAN","NAN","NAN"],
    [1546657,"2026-03-26 09:10:00","47647","2.315","147.2","3.626","162.9","NAN","NAN","NAN","NAN","NAN"],
    [1546658,"2026-03-26 09:20:00","47648","2.252","143.6","3.953","133.6","NAN","NAN","NAN","NAN","NAN"],
    [1546659,"2026-03-26 09:30:00","47649","2.1180000000000003","140.6","3.593","149","NAN","NAN","NAN","NAN","NAN"],
    [1546660,"2026-03-26 09:40:00","47650","1.429","147.9","3.757","145.4","NAN","NAN","NAN","NAN","NAN"],
    [1546661,"2026-03-26 09:50:00","47651","1.902","151.3","3.855","140.6","NAN","NAN","NAN","NAN","NAN"],
    [1546662,"2026-03-26 10:00:00","47652","2.22","162.8","3.659","173.6","NAN","NAN","NAN","NAN","NAN"],
    [1546663,"2026-03-26 10:10:00","47653","2.116","184.8","4.345","203.2","NAN","NAN","NAN","NAN","NAN"],
    [1546664,"2026-03-26 10:20:00","47654","2.353","197.0","4.998","156.5","NAN","NAN","NAN","NAN","NAN"],
    [1546665,"2026-03-26 10:30:00","47655","2.469","179.1","4.475","163.7","NAN","NAN","NAN","NAN","NAN"],
    [1546666,"2026-03-26 10:40:00","47656","2.782","174.0","4.737","171","NAN","NAN","NAN","NAN","NAN"],
    [1546667,"2026-03-26 10:50:00","47657","3.3689999999999998","161.5","5.782","161.2","NAN","NAN","NAN","NAN","NAN"],
    [1546668,"2026-03-26 11:00:00","47658","3.752","168.1","6.631","174.6","NAN","NAN","NAN","NAN","NAN"],
    [1546669,"2026-03-26 11:10:00","47659","3.695","164.3","5.521","154.4","NAN","NAN","NAN","NAN","NAN"],
    [1546670,"2026-03-26 11:20:00","47660","2.985","180.7","4.9","168.3","NAN","NAN","NAN","NAN","NAN"],
    [1546671,"2026-03-26 11:30:00","47661","2.254","213.5","5.194","223","NAN","NAN","NAN","NAN","NAN"],
    [1546672,"2026-03-26 11:40:00","47662","3.469","215.3","5.717","205.3","NAN","NAN","NAN","NAN","NAN"],
    [1546673,"2026-03-26 11:50:00","47663","3.377","201.2","5.847","204.2","NAN","NAN","NAN","NAN","NAN"],
    [1546674,"2026-03-26 12:00:00","47664","4.056","180.2","7.056","167.2","NAN","NAN","NAN","NAN","NAN"],
    [1546675,"2026-03-26 12:10:00","47665","4.071000000000001","197.9","7.35","218.6","NAN","NAN","NAN","NAN","NAN"],
    [1546676,"2026-03-26 12:20:00","47666","3.802","196.6","6.631","216.6","NAN","NAN","NAN","NAN","NAN"],
    [1546677,"2026-03-26 12:30:00","47667","3.713","195.4","7.252","210.3","NAN","NAN","NAN","NAN","NAN"],
    [1546678,"2026-03-26 12:40:00","47668","3.4939999999999998","198.3","6.729","215.9","NAN","NAN","NAN","NAN","NAN"],
    [1546679,"2026-03-26 12:50:00","47669","3.6860000000000004","191.8","7.807","180.3","NAN","NAN","NAN","NAN","NAN"],
    [1546680,"2026-03-26 13:00:00","47670","3.91","190.9","6.501","214.1","NAN","NAN","NAN","NAN","NAN"],
    [1546681,"2026-03-26 13:10:00","47671","5.255","202.1","8.17","215.7","NAN","NAN","NAN","NAN","NAN"],
    [1546682,"2026-03-26 13:20:00","47672","4.732","203.1","8","217.9","NAN","NAN","NAN","NAN","NAN"],
    [1546683,"2026-03-26 13:30:00","47673","4.912","206.8","7.775","208","NAN","NAN","NAN","NAN","NAN"],
    [1546684,"2026-03-26 13:40:00","47674","4.446000000000001","194.3","7.513","196.6","NAN","NAN","NAN","NAN","NAN"],
    [1546685,"2026-03-26 13:50:00","47675","4.425","185.3","7.415","177.3","NAN","NAN","NAN","NAN","NAN"],
    [1546686,"2026-03-26 14:00:00","47676","4.387","195.5","9.02","221.5","NAN","NAN","NAN","NAN","NAN"],
    [1546687,"2026-03-26 14:10:00","47677","3.4760000000000004","185.0","6.403","178.9","NAN","NAN","NAN","NAN","NAN"],
    [1546688,"2026-03-26 14:20:00","47678","3.7710000000000004","192.3","7.481","183.2","NAN","NAN","NAN","NAN","NAN"],
    [1546689,"2026-03-26 14:30:00","47679","3.9619999999999997","179.5","6.37","177.3","NAN","NAN","NAN","NAN","NAN"],
    [1546690,"2026-03-26 14:40:00","47680","4.556","175.6","8.1","164.6","NAN","NAN","NAN","NAN","NAN"],
    [1546691,"2026-03-26 14:50:00","47681","4.595","162.0","7.285","131.3","NAN","NAN","NAN","NAN","NAN"],
    [1546692,"2026-03-26 15:00:00","47682","4.646","149.7","7.383","148.2","NAN","NAN","NAN","NAN","NAN"],
    [1546693,"2026-03-26 15:10:00","47683","4.562","160.5","7.187","176.2","NAN","NAN","NAN","NAN","NAN"],
    [1546694,"2026-03-26 15:20:00","47684","4.921","149.8","7.677","152.1","NAN","NAN","NAN","NAN","NAN"],
    [1546695,"2026-03-26 15:30:00","47685","4.243","155.7","6.991","147.1","NAN","NAN","NAN","NAN","NAN"],
    [1546696,"2026-03-26 15:40:00","47686","3.951","145.7","6.011","130.8","NAN","NAN","NAN","NAN","NAN"],
    [1546697,"2026-03-26 15:50:00","47687","4.654","148.4","6.697","138.1","NAN","NAN","NAN","NAN","NAN"],
    [1546698,"2026-03-26 16:00:00","47688","3.909","143.0","6.991","143.6","NAN","NAN","NAN","NAN","NAN"],
    [1546699,"2026-03-26 16:10:00","47689","3.917","134.8","6.239","126","NAN","NAN","NAN","NAN","NAN"],
    [1546700,"2026-03-26 16:20:00","47690","4.401","132.1","6.305","138.3","NAN","NAN","NAN","NAN","NAN"],
    [1546701,"2026-03-26 16:30:00","47691","4.644","131.2","6.207","136.1","NAN","NAN","NAN","NAN","NAN"],
    [1546702,"2026-03-26 16:40:00","47692","4.823","134.5","7.35","133.6","NAN","NAN","NAN","NAN","NAN"],
    [1546703,"2026-03-26 16:50:00","47693","4.1160000000000005","127.2","6.893","137.8","NAN","NAN","NAN","NAN","NAN"],
    [1546704,"2026-03-26 17:00:00","47694","4.088","125.9","6.468","100.4","NAN","NAN","NAN","NAN","NAN"],
    [1546705,"2026-03-26 17:10:00","47695","3.792","125.6","5.717","121.5","NAN","NAN","NAN","NAN","NAN"],
    [1546706,"2026-03-26 17:20:00","47696","3.39","121.9","5.651","142","NAN","NAN","NAN","NAN","NAN"],
    [1546707,"2026-03-26 17:30:00","47697","3.6510000000000002","123.9","7.415","136.2","NAN","NAN","NAN","NAN","NAN"],
    [1546708,"2026-03-26 17:40:00","47698","3.86","129.7","6.076","129.5","NAN","NAN","NAN","NAN","NAN"],
    [1546709,"2026-03-26 17:50:00","47699","3.862","131.0","6.501","140.1","NAN","NAN","NAN","NAN","NAN"],
    [1546710,"2026-03-26 18:00:00","47700","3.883","131.1","6.174","135.1","NAN","NAN","NAN","NAN","NAN"],
    [1546711,"2026-03-26 18:10:00","47701","3.6060000000000003","129.6","6.109","136.1","NAN","NAN","NAN","NAN","NAN"],
    [1546712,"2026-03-26 18:20:00","47702","4.423","134.2","7.219","131.4","NAN","NAN","NAN","NAN","NAN"],
    [1546713,"2026-03-26 18:30:00","47703","4.311","132.9","6.501","136.5","NAN","NAN","NAN","NAN","NAN"],
    [1546714,"2026-03-26 18:40:00","47704","4.251","134.9","6.305","135.3","NAN","NAN","NAN","NAN","NAN"],
    [1546715,"2026-03-26 18:50:00","47705","3.9419999999999997","132.4","6.207","132.3","NAN","NAN","NAN","NAN","NAN"],
    [1546716,"2026-03-26 19:00:00","47706","4.59","131.8","6.991","126.8","NAN","NAN","NAN","NAN","NAN"],
    [1546717,"2026-03-26 19:10:00","47707","4.803","130.2","6.631","136.6","NAN","NAN","NAN","NAN","NAN"],
    [1546718,"2026-03-26 19:20:00","47708","3.926","139.8","6.86","146.1","NAN","NAN","NAN","NAN","NAN"],
    [1546719,"2026-03-26 19:30:00","47709","4.025","138.2","6.043","150.1","NAN","NAN","NAN","NAN","NAN"],
    [1546720,"2026-03-26 19:40:00","47710","3.765","139.8","5.945","131.7","NAN","NAN","NAN","NAN","NAN"],
    [1546721,"2026-03-26 19:50:00","47711","3.56","141.6","6.239","163.8","NAN","NAN","NAN","NAN","NAN"],
    [1546722,"2026-03-26 20:00:00","47712","3.1830000000000003","148.4","5.553","158.4","NAN","NAN","NAN","NAN","NAN"],
    [1546723,"2026-03-26 20:10:00","47713","3.35","149.6","6.435","149.1","NAN","NAN","NAN","NAN","NAN"],
    [1546724,"2026-03-26 20:20:00","47714","3.512","151.9","5.586","150.6","NAN","NAN","NAN","NAN","NAN"],
    [1546725,"2026-03-26 20:30:00","47715","3.49","149.1","5.913","141.2","NAN","NAN","NAN","NAN","NAN"],
    [1546726,"2026-03-26 20:40:00","47716","2.5069999999999997","155.6","5.39","151.8","NAN","NAN","NAN","NAN","NAN"],
    [1546727,"2026-03-26 20:50:00","47717","2.358","156.8","5.455","143.3","NAN","NAN","NAN","NAN","NAN"],
    [1546728,"2026-03-26 21:00:00","47718","2.7889999999999997","154.3","5.096","139.7","NAN","NAN","NAN","NAN","NAN"],
    [1546729,"2026-03-26 21:10:00","47719","3.423","148.1","5.325","160.2","NAN","NAN","NAN","NAN","NAN"],
    [1546730,"2026-03-26 21:20:00","47720","3.053","149.1","5.423","167.7","NAN","NAN","NAN","NAN","NAN"],
    [1546731,"2026-03-26 21:30:00","47721","3.135","148.3","6.403","152","NAN","NAN","NAN","NAN","NAN"],
    [1546732,"2026-03-26 21:40:00","47722","2.8810000000000002","140.1","4.965","128.3","NAN","NAN","NAN","NAN","NAN"],
    [1546733,"2026-03-26 21:50:00","47723","3.8930000000000002","149.2","6.599","138.1","NAN","NAN","NAN","NAN","NAN"],
    [1546734,"2026-03-26 22:00:00","47724","4.29","140.5","6.827","156.6","NAN","NAN","NAN","NAN","NAN"],
    [1546735,"2026-03-26 22:10:00","47725","4.166","140.5","8.4","158.2","NAN","NAN","NAN","NAN","NAN"],
    [1546736,"2026-03-26 22:20:00","47726","5.039","156.3","9.38","159.4","NAN","NAN","NAN","NAN","NAN"],
    [1546737,"2026-03-26 22:30:00","47727","4.699","156.2","8.4","136","NAN","NAN","NAN","NAN","NAN"],
    [1546738,"2026-03-26 22:40:00","47728","5.26","162.7","8.56","172.6","NAN","NAN","NAN","NAN","NAN"],
    [1546739,"2026-03-26 22:50:00","47729","3.833","165.3","7.285","166.4","NAN","NAN","NAN","NAN","NAN"],
    [1546740,"2026-03-26 23:00:00","47730","4.07","164.4","7.285","156.1","NAN","NAN","NAN","NAN","NAN"],
    [1546741,"2026-03-26 23:10:00","47731","4.721","165.0","9.28","177.9","NAN","NAN","NAN","NAN","NAN"],
    [1546742,"2026-03-26 23:20:00","47732","4.317","165.2","8.49","171.3","NAN","NAN","NAN","NAN","NAN"],
    [1546743,"2026-03-26 23:30:00","47733","4.779","162.2","8.62","144.4","NAN","NAN","NAN","NAN","NAN"],
    [1546744,"2026-03-26 23:40:00","47734","5.61","163.7","10.09","169.7","NAN","NAN","NAN","NAN","NAN"],
    [1546745,"2026-03-26 23:50:00","47735","5.349","166.1","8.07","161.1","NAN","NAN","NAN","NAN","NAN"],
    [1546746,"2026-03-27 00:00:00","47736","6.202000000000001","168.1","9.6","181.2","NAN","NAN","NAN","NAN","NAN"],
    [1546747,"2026-03-27 00:10:00","47737","5.8020000000000005","162.3","9.51","159.4","NAN","NAN","NAN","NAN","NAN"],
    [1546748,"2026-03-27 00:20:00","47738","4.842","159.5","8.92","145.3","NAN","NAN","NAN","NAN","NAN"],
    [1546749,"2026-03-27 00:30:00","47739","2.207","140.2","5.129","171.3","NAN","NAN","NAN","NAN","NAN"],
    [1546750,"2026-03-27 00:40:00","47740","0.49200000000000005","96.3","3.691","96.7","NAN","NAN","NAN","NAN","NAN"],
    [1546751,"2026-03-27 00:50:00","47741","0.529","87.4","2.417","81.1","NAN","NAN","NAN","NAN","NAN"],
    [1546752,"2026-03-27 01:00:00","47742","1.96","75.81","4.639","64.61","NAN","NAN","NAN","NAN","NAN"],
    [1546753,"2026-03-27 01:10:00","47743","1.064","83.7","2.94","76.76","NAN","NAN","NAN","NAN","NAN"],
    [1546754,"2026-03-27 01:20:00","47744","0.853","86.1","2.548","87","NAN","NAN","NAN","NAN","NAN"],
    [1546755,"2026-03-27 01:30:00","47745","0.17","78.88","1.601","79.56","NAN","NAN","NAN","NAN","NAN"],
    [1546756,"2026-03-27 01:40:00","47746","0.0","0.0","0","0","NAN","NAN","NAN","NAN","NAN"],
    [1546757,"2026-03-27 01:50:00","47747","0.33899999999999997","66.89","1.143","63.96","NAN","NAN","NAN","NAN","NAN"],
    [1546758,"2026-03-27 02:00:00","47748","1.633","337.1","4.051","301.4","NAN","NAN","NAN","NAN","NAN"],
    [1546759,"2026-03-27 02:10:00","47749","2.516","302.9","4.018","304.8","NAN","NAN","NAN","NAN","NAN"],
    [1546760,"2026-03-27 02:20:00","47750","2.795","310.2","5.945","303.3","NAN","NAN","NAN","NAN","NAN"],
    [1546761,"2026-03-27 02:30:00","47751","3.8280000000000003","312.7","7.056","312.1","NAN","NAN","NAN","NAN","NAN"],
    [1546762,"2026-03-27 02:40:00","47752","3.005","311.0","5.39","315.6","NAN","NAN","NAN","NAN","NAN"],
    [1546763,"2026-03-27 02:50:00","47753","2.7689999999999997","308.5","5.325","323.8","NAN","NAN","NAN","NAN","NAN"],
    [1546764,"2026-03-27 03:00:00","47754","3.469","312.0","6.501","312.9","NAN","NAN","NAN","NAN","NAN"],
    [1546765,"2026-03-27 03:10:00","47755","3.4","309.4","5.717","323.3","NAN","NAN","NAN","NAN","NAN"],
    [1546766,"2026-03-27 03:20:00","47756","3.3139999999999996","316.2","6.272","324.3","NAN","NAN","NAN","NAN","NAN"],
    [1546767,"2026-03-27 03:30:00","47757","2.3369999999999997","311.0","4.279","324.1","NAN","NAN","NAN","NAN","NAN"],
    [1546768,"2026-03-27 03:40:00","47758","2.274","306.8","3.43","313.9","NAN","NAN","NAN","NAN","NAN"],
    [1546769,"2026-03-27 03:50:00","47759","2.563","288.7","5.488","288","NAN","NAN","NAN","NAN","NAN"],
    [1546770,"2026-03-27 04:00:00","47760","3.2089999999999996","296.8","5.455","287","NAN","NAN","NAN","NAN","NAN"],
    [1546771,"2026-03-27 04:10:00","47761","3.688","309.9","6.305","330.9","NAN","NAN","NAN","NAN","NAN"],
    [1546772,"2026-03-27 04:20:00","47762","3.406","296.7","5.227","314","NAN","NAN","NAN","NAN","NAN"],
    [1546773,"2026-03-27 04:30:00","47763","3.05","303.0","5.357","299.1","NAN","NAN","NAN","NAN","NAN"],
    [1546774,"2026-03-27 04:40:00","47764","2.438","315.2","4.606","311","NAN","NAN","NAN","NAN","NAN"],
    [1546775,"2026-03-27 04:50:00","47765","3.0610000000000004","323.4","5.161","332.8","NAN","NAN","NAN","NAN","NAN"],
    [1546776,"2026-03-27 05:00:00","47766","3.577","320.6","5.913","316.1","NAN","NAN","NAN","NAN","NAN"],
    [1546777,"2026-03-27 05:10:00","47767","2.9739999999999998","311.0","5.129","327.7","NAN","NAN","NAN","NAN","NAN"],
    [1546778,"2026-03-27 05:20:00","47768","2.907","317.5","5.292","311.2","NAN","NAN","NAN","NAN","NAN"],
    [1546779,"2026-03-27 05:30:00","47769","4.614","329.4","6.86","329.3","NAN","NAN","NAN","NAN","NAN"],
    [1546780,"2026-03-27 05:40:00","47770","2.909","324.0","5.227","335.5","NAN","NAN","NAN","NAN","NAN"],
    [1546781,"2026-03-27 05:50:00","47771","2.971","314.0","5.782","323.8","NAN","NAN","NAN","NAN","NAN"],
    [1546782,"2026-03-27 06:00:00","47772","3.076","300.0","4.9","322","NAN","NAN","NAN","NAN","NAN"],
    [1546783,"2026-03-27 06:10:00","47773","3.266","315.4","5.815","314","NAN","NAN","NAN","NAN","NAN"],
    [1546784,"2026-03-27 06:20:00","47774","3.8280000000000003","321.6","6.599","329.1","NAN","NAN","NAN","NAN","NAN"],
    [1546785,"2026-03-27 06:30:00","47775","2.8289999999999997","318.4","6.207","313.9","NAN","NAN","NAN","NAN","NAN"],
    [1546786,"2026-03-27 06:40:00","47776","2.946","307.4","5.782","300.5","NAN","NAN","NAN","NAN","NAN"],
    [1546787,"2026-03-27 06:50:00","47777","2.763","307.3","4.737","312.2","NAN","NAN","NAN","NAN","NAN"],
    [1546788,"2026-03-27 07:00:00","47778","2.533","312.7","5.619","301.6","NAN","NAN","NAN","NAN","NAN"],
    [1546789,"2026-03-27 07:10:00","47779","2.8289999999999997","304.6","4.639","301.2","NAN","NAN","NAN","NAN","NAN"],
    [1546790,"2026-03-27 07:20:00","47780","3.572","302.6","5.913","297.2","NAN","NAN","NAN","NAN","NAN"],
    [1546791,"2026-03-27 07:30:00","47781","4.126","296.3","6.925","290.8","NAN","NAN","NAN","NAN","NAN"],
    [1546792,"2026-03-27 07:40:00","47782","3.446","295.9","6.076","304.6","NAN","NAN","NAN","NAN","NAN"],
    [1546793,"2026-03-27 07:50:00","47783","4.105","298.3","6.305","316.6","NAN","NAN","NAN","NAN","NAN"],
    [1546794,"2026-03-27 08:00:00","47784","4.562","297.4","6.925","306.4","NAN","NAN","NAN","NAN","NAN"],
    [1546795,"2026-03-27 08:10:00","47785","4.195","318.1","6.697","308.9","NAN","NAN","NAN","NAN","NAN"],
    [1546796,"2026-03-27 08:20:00","47786","3.5610000000000004","320.4","6.174","300.8","NAN","NAN","NAN","NAN","NAN"],
    [1546797,"2026-03-27 08:30:00","47787","3.641","328.9","6.141","330.7","NAN","NAN","NAN","NAN","NAN"],
    [1546798,"2026-03-27 08:40:00","47788","3.102","311.1","5.39","342.5","NAN","NAN","NAN","NAN","NAN"],
    [1546799,"2026-03-27 08:50:00","47789","3.343","302.6","5.749","303","NAN","NAN","NAN","NAN","NAN"],
    [1546800,"2026-03-27 09:00:00","47790","2.6069999999999998","322.3","4.965","331.9","NAN","NAN","NAN","NAN","NAN"],
    [1546801,"2026-03-27 09:10:00","47791","2.36","299.7","4.475","279.7","NAN","NAN","NAN","NAN","NAN"],
    [1546802,"2026-03-27 09:20:00","47792","1.6059999999999999","309.4","3.626","319.4","NAN","NAN","NAN","NAN","NAN"],
    [1546803,"2026-03-27 09:30:00","47793","0.564","317.3","2.091","318.8","NAN","NAN","NAN","NAN","NAN"],
    [1546804,"2026-03-27 09:40:00","47794","0.568","308.7","2.875","301.8","NAN","NAN","NAN","NAN","NAN"],
    [1546805,"2026-03-27 09:50:00","47795","0.252","296.2","1.927","294.9","NAN","NAN","NAN","NAN","NAN"],
    [1546806,"2026-03-27 10:00:00","47796","1.065","273.2","3.299","269","NAN","NAN","NAN","NAN","NAN"],
    [1546807,"2026-03-27 10:10:00","47797","1.8459999999999999","242.8","3.691","258.1","NAN","NAN","NAN","NAN","NAN"],
    [1546808,"2026-03-27 10:20:00","47798","1.5959999999999999","231.3","3.169","221.8","NAN","NAN","NAN","NAN","NAN"],
    [1546809,"2026-03-27 10:30:00","47799","2.219","217.6","5.815","224.7","NAN","NAN","NAN","NAN","NAN"],
    [1546810,"2026-03-27 10:40:00","47800","3.158","193.7","5.619","189.6","NAN","NAN","NAN","NAN","NAN"],
    [1546811,"2026-03-27 10:50:00","47801","3.134","185.4","5.913","184.6","NAN","NAN","NAN","NAN","NAN"],
    [1546812,"2026-03-27 11:00:00","47802","4.029","201.4","7.35","211.6","NAN","NAN","NAN","NAN","NAN"],
    [1546813,"2026-03-27 11:10:00","47803","4.095","196.6","6.762","218.2","NAN","NAN","NAN","NAN","NAN"],
    [1546814,"2026-03-27 11:20:00","47804","3.8810000000000002","204.1","6.697","215.9","NAN","NAN","NAN","NAN","NAN"],
    [1546815,"2026-03-27 11:30:00","47805","3.4589999999999996","198.0","6.991","209.9","NAN","NAN","NAN","NAN","NAN"],
    [1546816,"2026-03-27 11:40:00","47806","2.986","198.5","5.423","218.3","NAN","NAN","NAN","NAN","NAN"],
    [1546817,"2026-03-27 11:50:00","47807","2.9960000000000004","187.0","4.769","211.5","NAN","NAN","NAN","NAN","NAN"],
    [1546818,"2026-03-27 12:00:00","47808","2.798","194.6","5.259","174","NAN","NAN","NAN","NAN","NAN"],
    [1546819,"2026-03-27 12:10:00","47809","2.806","180.8","4.933","186.5","NAN","NAN","NAN","NAN","NAN"],
    [1546820,"2026-03-27 12:20:00","47810","3.423","184.6","7.187","166.4","NAN","NAN","NAN","NAN","NAN"],
    [1546821,"2026-03-27 12:30:00","47811","3.978","170.2","5.651","169.1","NAN","NAN","NAN","NAN","NAN"],
    [1546822,"2026-03-27 12:40:00","47812","3.278","180.7","5.847","181.8","NAN","NAN","NAN","NAN","NAN"],
    [1546823,"2026-03-27 12:50:00","47813","3.8169999999999997","204.0","6.403","227.7","NAN","NAN","NAN","NAN","NAN"],
    [1546824,"2026-03-27 13:00:00","47814","3.5839999999999996","171.1","7.187","168.8","NAN","NAN","NAN","NAN","NAN"],
    [1546825,"2026-03-27 13:10:00","47815","3.35","190.6","5.978","171.8","NAN","NAN","NAN","NAN","NAN"],
    [1546826,"2026-03-27 13:20:00","47816","3.6039999999999996","180.3","7.121","212.5","NAN","NAN","NAN","NAN","NAN"],
    [1546827,"2026-03-27 13:30:00","47817","3.4819999999999998","187.5","6.664","170.4","NAN","NAN","NAN","NAN","NAN"],
    [1546828,"2026-03-27 13:40:00","47818","3.008","190.8","6.566","191.1","NAN","NAN","NAN","NAN","NAN"],
    [1546829,"2026-03-27 13:50:00","47819","3.452","170.3","6.141","161.1","NAN","NAN","NAN","NAN","NAN"],
    [1546830,"2026-03-27 14:00:00","47820","3.773","171.9","7.056","159.3","NAN","NAN","NAN","NAN","NAN"],
    [1546831,"2026-03-27 14:10:00","47821","3.8710000000000004","161.3","6.174","162.6","NAN","NAN","NAN","NAN","NAN"],
    [1546832,"2026-03-27 14:20:00","47822","4.128","156.3","6.533","163.2","NAN","NAN","NAN","NAN","NAN"],
    [1546833,"2026-03-27 14:30:00","47823","4.577","158.4","6.664","172","NAN","NAN","NAN","NAN","NAN"],
    [1546834,"2026-03-27 14:40:00","47824","4.02","139.1","6.403","172.5","NAN","NAN","NAN","NAN","NAN"],
    [1546835,"2026-03-27 14:50:00","47825","3.863","172.7","6.207","178.7","NAN","NAN","NAN","NAN","NAN"],
    [1546836,"2026-03-27 15:00:00","47826","3.406","171.7","6.566","167","NAN","NAN","NAN","NAN","NAN"],
    [1546837,"2026-03-27 15:10:00","47827","4.506","161.7","7.219","147.7","NAN","NAN","NAN","NAN","NAN"],
    [1546838,"2026-03-27 15:20:00","47828","4.131","152.1","6.827","156.1","NAN","NAN","NAN","NAN","NAN"],
    [1546839,"2026-03-27 15:30:00","47829","4.112","150.0","6.207","145.5","NAN","NAN","NAN","NAN","NAN"],
    [1546840,"2026-03-27 15:40:00","47830","4.141","158.9","5.913","156.2","NAN","NAN","NAN","NAN","NAN"],
    [1546841,"2026-03-27 15:50:00","47831","4.189","150.3","6.795","135.3","NAN","NAN","NAN","NAN","NAN"],
    [1546842,"2026-03-27 16:00:00","47832","4.16","148.5","7.121","147.7","NAN","NAN","NAN","NAN","NAN"],
    [1546843,"2026-03-27 16:10:00","47833","3.6189999999999998","161.6","6.305","144.4","NAN","NAN","NAN","NAN","NAN"],
    [1546844,"2026-03-27 16:20:00","47834","4.033","161.2","6.305","166.5","NAN","NAN","NAN","NAN","NAN"],
    [1546845,"2026-03-27 16:30:00","47835","3.52","154.0","6.827","157.8","NAN","NAN","NAN","NAN","NAN"],
    [1546846,"2026-03-27 16:40:00","47836","4.035","159.3","6.076","162","NAN","NAN","NAN","NAN","NAN"],
    [1546847,"2026-03-27 16:50:00","47837","3.759","155.4","5.749","166.9","NAN","NAN","NAN","NAN","NAN"],
    [1546848,"2026-03-27 17:00:00","47838","3.4189999999999996","150.9","6.207","139.5","NAN","NAN","NAN","NAN","NAN"],
    [1546849,"2026-03-27 17:10:00","47839","3.2960000000000003","149.7","5.586","169.6","NAN","NAN","NAN","NAN","NAN"],
    [1546850,"2026-03-27 17:20:00","47840","3.1060000000000003","153.6","5.521","144.9","NAN","NAN","NAN","NAN","NAN"],
    [1546851,"2026-03-27 17:30:00","47841","3.2539999999999996","157.6","5.423","158.2","NAN","NAN","NAN","NAN","NAN"],
    [1546852,"2026-03-27 17:40:00","47842","3.023","156.2","4.541","158","NAN","NAN","NAN","NAN","NAN"],
    [1546853,"2026-03-27 17:50:00","47843","2.088","171.6","3.855","180.9","NAN","NAN","NAN","NAN","NAN"],
    [1546854,"2026-03-27 18:00:00","47844","2.37","176.3","4.149","170","NAN","NAN","NAN","NAN","NAN"],
    [1546855,"2026-03-27 18:10:00","47845","2.286","180.7","4.279","174.1","NAN","NAN","NAN","NAN","NAN"],
    [1546856,"2026-03-27 18:20:00","47846","1.808","181.1","3.397","156","NAN","NAN","NAN","NAN","NAN"],
    [1546857,"2026-03-27 18:30:00","47847","1.8630000000000002","195.3","3.724","184.2","NAN","NAN","NAN","NAN","NAN"],
    [1546858,"2026-03-27 18:40:00","47848","1.805","206.9","3.136","208","NAN","NAN","NAN","NAN","NAN"],
    [1546859,"2026-03-27 18:50:00","47849","1.641","211.7","2.744","211","NAN","NAN","NAN","NAN","NAN"],
    [1546860,"2026-03-27 19:00:00","47850","1.3619999999999999","219.9","2.777","218.9","NAN","NAN","NAN","NAN","NAN"],
    [1546861,"2026-03-27 19:10:00","47851","1.7819999999999998","218.7","3.234","212.4","NAN","NAN","NAN","NAN","NAN"],
    [1546862,"2026-03-27 19:20:00","47852","1.212","222.9","2.94","221.5","NAN","NAN","NAN","NAN","NAN"],
    [1546863,"2026-03-27 19:30:00","47853","1.32","225.4","3.136","243.9","NAN","NAN","NAN","NAN","NAN"],
    [1546864,"2026-03-27 19:40:00","47854","1.7009999999999998","234.3","3.234","239.5","NAN","NAN","NAN","NAN","NAN"],
    [1546865,"2026-03-27 19:50:00","47855","1.42","237.7","2.711","234.2","NAN","NAN","NAN","NAN","NAN"],
    [1546866,"2026-03-27 20:00:00","47856","1.3659999999999999","233.0","3.234","234.8","NAN","NAN","NAN","NAN","NAN"],
    [1546867,"2026-03-27 20:10:00","47857","1.423","236.4","2.711","242.1","NAN","NAN","NAN","NAN","NAN"],
    [1546868,"2026-03-27 20:20:00","47858","1.5919999999999999","228.9","3.495","218.8","NAN","NAN","NAN","NAN","NAN"],
    [1546869,"2026-03-27 20:30:00","47859","1.693","228.8","3.561","234","NAN","NAN","NAN","NAN","NAN"],
    [1546870,"2026-03-27 20:40:00","47860","1.818","233.5","4.051","235.4","NAN","NAN","NAN","NAN","NAN"],
    [1546871,"2026-03-27 20:50:00","47861","1.834","235.9","3.593","210.1","NAN","NAN","NAN","NAN","NAN"],
    [1546872,"2026-03-27 21:00:00","47862","2.049","241.3","3.855","219.1","NAN","NAN","NAN","NAN","NAN"],
    [1546873,"2026-03-27 21:10:00","47863","1.777","243.8","3.038","248.7","NAN","NAN","NAN","NAN","NAN"],
    [1546874,"2026-03-27 21:20:00","47864","2.331","248.1","3.691","248.9","NAN","NAN","NAN","NAN","NAN"],
    [1546875,"2026-03-27 21:30:00","47865","2.359","253.0","3.43","248.7","NAN","NAN","NAN","NAN","NAN"],
    [1546876,"2026-03-27 21:40:00","47866","1.554","254.0","2.679","248.2","NAN","NAN","NAN","NAN","NAN"],
    [1546877,"2026-03-27 21:50:00","47867","1.466","257.2","2.646","254.3","NAN","NAN","NAN","NAN","NAN"],
    [1546878,"2026-03-27 22:00:00","47868","1.128","260.0","1.829","260.1","NAN","NAN","NAN","NAN","NAN"],
    [1546879,"2026-03-27 22:10:00","47869","1.0290000000000001","260.1","2.025","260.2","NAN","NAN","NAN","NAN","NAN"],
    [1546880,"2026-03-27 22:20:00","47870","0.6609999999999999","260.1","1.405","260.1","NAN","NAN","NAN","NAN","NAN"],
    [1546881,"2026-03-27 22:30:00","47871","0.495","260.1","1.339","260.1","NAN","NAN","NAN","NAN","NAN"],
    [1546882,"2026-03-27 22:40:00","47872","0.9","260.1","2.058","260.2","NAN","NAN","NAN","NAN","NAN"],
    [1546883,"2026-03-27 22:50:00","47873","1.09","260.1","2.091","260.1","NAN","NAN","NAN","NAN","NAN"],
    [1546884,"2026-03-27 23:00:00","47874","0.5479999999999999","260.4","1.568","260.3","NAN","NAN","NAN","NAN","NAN"],
    [1546885,"2026-03-27 23:10:00","47875","0.696","260.4","1.764","260.5","NAN","NAN","NAN","NAN","NAN"],
    [1546886,"2026-03-27 23:20:00","47876","0.35100000000000003","260.5","1.666","260.5","NAN","NAN","NAN","NAN","NAN"],
    [1546887,"2026-03-27 23:30:00","47877","0.266","260.5","1.143","260.5","NAN","NAN","NAN","NAN","NAN"],
    [1546888,"2026-03-27 23:40:00","47878","0.885","260.6","1.666","260.7","NAN","NAN","NAN","NAN","NAN"],
    [1546889,"2026-03-27 23:50:00","47879","0.8809999999999999","260.6","1.927","260.7","NAN","NAN","NAN","NAN","NAN"],
    [1546890,"2026-03-28 00:00:00","47880","1.024","260.7","1.993","260.7","NAN","NAN","NAN","NAN","NAN"],
    [1546891,"2026-03-28 00:10:00","47881","1.057","260.9","2.025","260.9","NAN","NAN","NAN","NAN","NAN"],
    [1546892,"2026-03-28 00:20:00","47882","1.181","261.1","2.091","261.2","NAN","NAN","NAN","NAN","NAN"],
    [1546893,"2026-03-28 00:30:00","47883","0.654","261.2","1.535","261.2","NAN","NAN","NAN","NAN","NAN"],
    [1546894,"2026-03-28 00:40:00","47884","0.6629999999999999","261.2","2.254","261.2","NAN","NAN","NAN","NAN","NAN"],
    [1546895,"2026-03-28 00:50:00","47885","1.364","263.8","2.45","267.1","NAN","NAN","NAN","NAN","NAN"],
    [1546896,"2026-03-28 01:00:00","47886","1.5130000000000001","272.1","3.136","275","NAN","NAN","NAN","NAN","NAN"],
    [1546897,"2026-03-28 01:10:00","47887","1.4269999999999998","279.8","3.169","285","NAN","NAN","NAN","NAN","NAN"],
    [1546898,"2026-03-28 01:20:00","47888","0.878","283.6","2.45","281.4","NAN","NAN","NAN","NAN","NAN"],
    [1546899,"2026-03-28 01:30:00","47889","0.425","282.3","1.568","284","NAN","NAN","NAN","NAN","NAN"],
    [1546900,"2026-03-28 01:40:00","47890","0.7979999999999999","284.5","2.842","287.1","NAN","NAN","NAN","NAN","NAN"],
    [1546901,"2026-03-28 01:50:00","47891","0.42200000000000004","286.3","1.47","286.4","NAN","NAN","NAN","NAN","NAN"],
    [1546902,"2026-03-28 02:00:00","47892","0.377","287.0","1.143","287.1","NAN","NAN","NAN","NAN","NAN"],
    [1546903,"2026-03-28 02:10:00","47893","0.18600000000000003","286.5","1.274","283","NAN","NAN","NAN","NAN","NAN"],
    [1546904,"2026-03-28 02:20:00","47894","0.805","281.3","1.764","280.6","NAN","NAN","NAN","NAN","NAN"],
    [1546905,"2026-03-28 02:30:00","47895","0.591","283.0","1.372","282.7","NAN","NAN","NAN","NAN","NAN"],
    [1546906,"2026-03-28 02:40:00","47896","0.9390000000000001","287.0","2.156","287.2","NAN","NAN","NAN","NAN","NAN"],
    [1546907,"2026-03-28 02:50:00","47897","0.963","285.2","1.47","282.8","NAN","NAN","NAN","NAN","NAN"],
    [1546908,"2026-03-28 03:00:00","47898","0.96","286.3","1.633","287.2","NAN","NAN","NAN","NAN","NAN"],
    [1546909,"2026-03-28 03:10:00","47899","1.256","283.0","1.797","286.6","NAN","NAN","NAN","NAN","NAN"],
    [1546910,"2026-03-28 03:20:00","47900","1.449","286.6","2.123","287.2","NAN","NAN","NAN","NAN","NAN"],
    [1546911,"2026-03-28 03:30:00","47901","1.078","286.9","2.123","287.4","NAN","NAN","NAN","NAN","NAN"],
    [1546912,"2026-03-28 03:40:00","47902","0.188","287.0","0.98","286.3","NAN","NAN","NAN","NAN","NAN"],
    [1546913,"2026-03-28 03:50:00","47903","0.128","282.3","0.686","281.7","NAN","NAN","NAN","NAN","NAN"],
    [1546914,"2026-03-28 04:00:00","47904","0.609","279.1","1.405","279.1","NAN","NAN","NAN","NAN","NAN"],
    [1546915,"2026-03-28 04:10:00","47905","0.39299999999999996","277.6","1.013","277.8","NAN","NAN","NAN","NAN","NAN"],
    [1546916,"2026-03-28 04:20:00","47906","0.561","277.0","1.111","277","NAN","NAN","NAN","NAN","NAN"],
    [1546917,"2026-03-28 04:30:00","47907","1.7109999999999999","285.4","3.463","291.8","NAN","NAN","NAN","NAN","NAN"],
    [1546918,"2026-03-28 04:40:00","47908","1.9269999999999998","287.5","3.43","289.6","NAN","NAN","NAN","NAN","NAN"],
    [1546919,"2026-03-28 04:50:00","47909","1.131","284.1","1.895","285.9","NAN","NAN","NAN","NAN","NAN"],
    [1546920,"2026-03-28 05:00:00","47910","1.5959999999999999","289.4","2.613","292.6","NAN","NAN","NAN","NAN","NAN"],
    [1546921,"2026-03-28 05:10:00","47911","1.734","295.1","3.201","298.5","NAN","NAN","NAN","NAN","NAN"],
    [1546922,"2026-03-28 05:20:00","47912","1.827","294.3","3.332","307.1","NAN","NAN","NAN","NAN","NAN"],
    [1546923,"2026-03-28 05:30:00","47913","2.148","300.4","4.181","301.8","NAN","NAN","NAN","NAN","NAN"],
    [1546924,"2026-03-28 05:40:00","47914","2.419","299.3","3.757","297.4","NAN","NAN","NAN","NAN","NAN"],
    [1546925,"2026-03-28 05:50:00","47915","3.2","305.6","4.9","298.9","NAN","NAN","NAN","NAN","NAN"],
    [1546926,"2026-03-28 06:00:00","47916","2.674","301.9","4.312","311.9","NAN","NAN","NAN","NAN","NAN"],
    [1546927,"2026-03-28 06:10:00","47917","2.715","302.1","3.953","292.1","NAN","NAN","NAN","NAN","NAN"],
    [1546928,"2026-03-28 06:20:00","47918","3.471","301.3","5.161","302","NAN","NAN","NAN","NAN","NAN"],
    [1546929,"2026-03-28 06:30:00","47919","2.8539999999999996","304.6","5.39","303.7","NAN","NAN","NAN","NAN","NAN"],
    [1546930,"2026-03-28 06:40:00","47920","2.737","299.4","4.965","292.2","NAN","NAN","NAN","NAN","NAN"],
    [1546931,"2026-03-28 06:50:00","47921","2.9619999999999997","295.8","6.403","288.3","NAN","NAN","NAN","NAN","NAN"],
    [1546932,"2026-03-28 07:00:00","47922","4.061","294.5","7.121","290.8","NAN","NAN","NAN","NAN","NAN"],
    [1546933,"2026-03-28 07:10:00","47923","4.468999999999999","302.4","7.481","293.2","NAN","NAN","NAN","NAN","NAN"],
    [1546934,"2026-03-28 07:20:00","47924","3.588","304.5","6.435","319.3","NAN","NAN","NAN","NAN","NAN"],
    [1546935,"2026-03-28 07:30:00","47925","4.779","300.3","7.383","301.6","NAN","NAN","NAN","NAN","NAN"],
    [1546936,"2026-03-28 07:40:00","47926","5.438","302.1","8.72","311","NAN","NAN","NAN","NAN","NAN"],
    [1546937,"2026-03-28 07:50:00","47927","4.662","300.1","8.23","310.2","NAN","NAN","NAN","NAN","NAN"],
    [1546938,"2026-03-28 08:00:00","47928","3.545","303.1","5.488","286.2","NAN","NAN","NAN","NAN","NAN"],
    [1546939,"2026-03-28 08:10:00","47929","5.006","299.4","7.709","300.5","NAN","NAN","NAN","NAN","NAN"],
    [1546940,"2026-03-28 08:20:00","47930","4.84","298.3","7.252","307.9","NAN","NAN","NAN","NAN","NAN"],
    [1546941,"2026-03-28 08:30:00","47931","4.811","296.1","7.219","292.6","NAN","NAN","NAN","NAN","NAN"],
    [1546942,"2026-03-28 08:40:00","47932","4.298","297.9","6.37","286.8","NAN","NAN","NAN","NAN","NAN"],
    [1546943,"2026-03-28 08:50:00","47933","4.4910000000000005","298.1","7.383","298","NAN","NAN","NAN","NAN","NAN"],
    [1546944,"2026-03-28 09:00:00","47934","4.816","295.0","7.807","292.9","NAN","NAN","NAN","NAN","NAN"],
    [1546945,"2026-03-28 09:10:00","47935","4.2669999999999995","296.5","7.285","288.6","NAN","NAN","NAN","NAN","NAN"],
    [1546946,"2026-03-28 09:20:00","47936","3.985","289.4","6.533","284.3","NAN","NAN","NAN","NAN","NAN"],
    [1546947,"2026-03-28 09:30:00","47937","3.234","280.1","5.357","268.9","NAN","NAN","NAN","NAN","NAN"],
    [1546948,"2026-03-28 09:40:00","47938","4.113","288.1","6.011","266.5","NAN","NAN","NAN","NAN","NAN"],
    [1546949,"2026-03-28 09:50:00","47939","4.016","282.5","6.305","265.9","NAN","NAN","NAN","NAN","NAN"],
    [1546950,"2026-03-28 10:00:00","47940","4.382","290.6","6.305","283.8","NAN","NAN","NAN","NAN","NAN"],
    [1546951,"2026-03-28 10:10:00","47941","4.154","294.1","6.533","293.2","NAN","NAN","NAN","NAN","NAN"],
    [1546952,"2026-03-28 10:20:00","47942","2.952","300.0","5.194","284.7","NAN","NAN","NAN","NAN","NAN"],
    [1546953,"2026-03-28 10:30:00","47943","2.693","289.1","5.847","273.8","NAN","NAN","NAN","NAN","NAN"],
    [1546954,"2026-03-28 10:40:00","47944","2.82","287.6","4.769","255.7","NAN","NAN","NAN","NAN","NAN"],
    [1546955,"2026-03-28 10:50:00","47945","2.9210000000000003","255.4","5.292","255.5","NAN","NAN","NAN","NAN","NAN"],
    [1546956,"2026-03-28 11:00:00","47946","1.703","235.5","3.397","238.8","NAN","NAN","NAN","NAN","NAN"],
    [1546957,"2026-03-28 11:10:00","47947","2.645","240.7","4.835","262.1","NAN","NAN","NAN","NAN","NAN"],
    [1546958,"2026-03-28 11:20:00","47948","2.2359999999999998","229.4","4.671","208.1","NAN","NAN","NAN","NAN","NAN"],
    [1546959,"2026-03-28 11:30:00","47949","2.985","217.6","5.096","240.8","NAN","NAN","NAN","NAN","NAN"],
    [1546960,"2026-03-28 11:40:00","47950","2.5860000000000003","226.4","4.867","217.3","NAN","NAN","NAN","NAN","NAN"],
    [1546961,"2026-03-28 11:50:00","47951","2.805","219.9","5.619","210.3","NAN","NAN","NAN","NAN","NAN"],
    [1546962,"2026-03-28 12:00:00","47952","3.6010000000000004","219.5","5.455","227.8","NAN","NAN","NAN","NAN","NAN"],
    [1546963,"2026-03-28 12:10:00","47953","3.427","214.3","6.468","212.2","NAN","NAN","NAN","NAN","NAN"],
    [1546964,"2026-03-28 12:20:00","47954","2.82","236.2","5.194","226.6","NAN","NAN","NAN","NAN","NAN"],
    [1546965,"2026-03-28 12:30:00","47955","4.0","222.7","6.043","232.1","NAN","NAN","NAN","NAN","NAN"],
    [1546966,"2026-03-28 12:40:00","47956","4.354","225.1","6.958","238.6","NAN","NAN","NAN","NAN","NAN"],
    [1546967,"2026-03-28 12:50:00","47957","4.859","233.8","7.709","222.8","NAN","NAN","NAN","NAN","NAN"],
    [1546968,"2026-03-28 13:00:00","47958","4.409","235.7","7.219","227.7","NAN","NAN","NAN","NAN","NAN"],
    [1546969,"2026-03-28 13:10:00","47959","5.008","225.7","8.04","203.6","NAN","NAN","NAN","NAN","NAN"],
    [1546970,"2026-03-28 13:20:00","47960","4.952","220.8","8.53","228.6","NAN","NAN","NAN","NAN","NAN"],
    [1546971,"2026-03-28 13:30:00","47961","5.088","228.5","8.56","219.2","NAN","NAN","NAN","NAN","NAN"],
    [1546972,"2026-03-28 13:40:00","47962","5.398","225.0","9.6","225.2","NAN","NAN","NAN","NAN","NAN"],
    [1546973,"2026-03-28 13:50:00","47963","5.15","232.0","9.47","249.7","NAN","NAN","NAN","NAN","NAN"],
    [1546974,"2026-03-28 14:00:00","47964","4.82","238.2","8.13","242.7","NAN","NAN","NAN","NAN","NAN"],
    [1546975,"2026-03-28 14:10:00","47965","4.872","234.0","7.938","224","NAN","NAN","NAN","NAN","NAN"],
    [1546976,"2026-03-28 14:20:00","47966","4.868","234.1","8","229.7","NAN","NAN","NAN","NAN","NAN"],
    [1546977,"2026-03-28 14:30:00","47967","4.535","238.7","8.72","218.3","NAN","NAN","NAN","NAN","NAN"],
    [1546978,"2026-03-28 14:40:00","47968","5.025","238.0","8.2","247.5","NAN","NAN","NAN","NAN","NAN"],
    [1546979,"2026-03-28 14:50:00","47969","5.354","244.0","9.77","244.2","NAN","NAN","NAN","NAN","NAN"],
    [1546980,"2026-03-28 15:00:00","47970","5.207999999999999","229.9","8.62","224.4","NAN","NAN","NAN","NAN","NAN"],
    [1546981,"2026-03-28 15:10:00","47971","5.247000000000001","225.6","8.62","234.7","NAN","NAN","NAN","NAN","NAN"],
    [1546982,"2026-03-28 15:20:00","47972","5.195","224.6","8.56","213.1","NAN","NAN","NAN","NAN","NAN"],
    [1546983,"2026-03-28 15:30:00","47973","3.932","236.2","7.84","227.1","NAN","NAN","NAN","NAN","NAN"],
    [1546984,"2026-03-28 15:40:00","47974","4.532","227.2","7.873","218.9","NAN","NAN","NAN","NAN","NAN"],
    [1546985,"2026-03-28 15:50:00","47975","4.478","234.8","8.23","238.7","NAN","NAN","NAN","NAN","NAN"],
    [1546986,"2026-03-28 16:00:00","47976","3.653","236.2","7.35","214.7","NAN","NAN","NAN","NAN","NAN"],
    [1546987,"2026-03-28 16:10:00","47977","4.129","234.6","8.36","241.7","NAN","NAN","NAN","NAN","NAN"],
    [1546988,"2026-03-28 16:20:00","47978","4.559","244.3","8.36","241.7","NAN","NAN","NAN","NAN","NAN"],
    [1546989,"2026-03-28 16:30:00","47979","3.997","248.7","6.762","239.3","NAN","NAN","NAN","NAN","NAN"],
    [1546990,"2026-03-28 16:40:00","47980","4.149","247.1","6.991","250.9","NAN","NAN","NAN","NAN","NAN"],
    [1546991,"2026-03-28 16:50:00","47981","2.6430000000000002","240.9","4.443","242.4","NAN","NAN","NAN","NAN","NAN"],
    [1546992,"2026-03-28 17:00:00","47982","2.227","241.0","3.724","258.7","NAN","NAN","NAN","NAN","NAN"],
    [1546993,"2026-03-28 17:10:00","47983","2.592","264.2","4.377","256.5","NAN","NAN","NAN","NAN","NAN"],
    [1546994,"2026-03-28 17:20:00","47984","2.498","269.7","4.41","261.5","NAN","NAN","NAN","NAN","NAN"],
    [1546995,"2026-03-28 17:30:00","47985","2.8710000000000004","238.3","4.737","241","NAN","NAN","NAN","NAN","NAN"],
    [1546996,"2026-03-28 17:40:00","47986","3.2110000000000003","239.3","5.39","238.6","NAN","NAN","NAN","NAN","NAN"],
    [1546997,"2026-03-28 17:50:00","47987","3.2960000000000003","240.7","5.978","243.3","NAN","NAN","NAN","NAN","NAN"],
    [1546998,"2026-03-28 18:00:00","47988","3.0389999999999997","238.1","6.076","235.4","NAN","NAN","NAN","NAN","NAN"],
    [1546999,"2026-03-28 18:10:00","47989","3.68","245.7","5.978","253.9","NAN","NAN","NAN","NAN","NAN"],
    [1547000,"2026-03-28 18:20:00","47990","3.4819999999999998","250.6","5.39","249.4","NAN","NAN","NAN","NAN","NAN"],
    [1547001,"2026-03-28 18:30:00","47991","3.759","248.2","5.488","250.6","NAN","NAN","NAN","NAN","NAN"],
    [1547002,"2026-03-28 18:40:00","47992","3.4219999999999997","246.7","6.174","249.5","NAN","NAN","NAN","NAN","NAN"],
    [1547003,"2026-03-28 18:50:00","47993","3.943","252.0","6.174","249.5","NAN","NAN","NAN","NAN","NAN"],
    [1547004,"2026-03-28 19:00:00","47994","3.457","251.1","5.619","265.2","NAN","NAN","NAN","NAN","NAN"],
    [1547005,"2026-03-28 19:10:00","47995","3.5380000000000003","240.5","6.011","244.5","NAN","NAN","NAN","NAN","NAN"],
    [1547006,"2026-03-28 19:20:00","47996","3.2539999999999996","236.5","6.729","237.6","NAN","NAN","NAN","NAN","NAN"],
    [1547007,"2026-03-28 19:30:00","47997","2.693","234.7","5.39","233.9","NAN","NAN","NAN","NAN","NAN"],
    [1547008,"2026-03-28 19:40:00","47998","2.903","240.1","5.815","237.9","NAN","NAN","NAN","NAN","NAN"],
    [1547009,"2026-03-28 19:50:00","47999","1.8969999999999998","245.5","4.083","235.8","NAN","NAN","NAN","NAN","NAN"],
    [1547010,"2026-03-28 20:00:00","48000","1.7169999999999999","237.1","4.247","244","NAN","NAN","NAN","NAN","NAN"],
    [1547011,"2026-03-28 20:10:00","48001","1.819","234.0","3.92","216.5","NAN","NAN","NAN","NAN","NAN"],
    [1547012,"2026-03-28 20:20:00","48002","1.044","244.1","2.548","245.9","NAN","NAN","NAN","NAN","NAN"],
    [1547013,"2026-03-28 20:30:00","48003","0.319","246.3","1.993","246.5","NAN","NAN","NAN","NAN","NAN"],
    [1547014,"2026-03-28 20:40:00","48004","1.023","235.3","2.679","224.1","NAN","NAN","NAN","NAN","NAN"],
    [1547015,"2026-03-28 20:50:00","48005","0.163","227.6","1.111","230.6","NAN","NAN","NAN","NAN","NAN"],
    [1547016,"2026-03-28 21:00:00","48006","0.006999999999999999","222.1","0.359","222.1","NAN","NAN","NAN","NAN","NAN"],
    [1547017,"2026-03-28 21:10:00","48007","0.016","221.1","0.425","221","NAN","NAN","NAN","NAN","NAN"],
    [1547018,"2026-03-28 21:20:00","48008","0.027999999999999997","220.4","0.425","220","NAN","NAN","NAN","NAN","NAN"],
    [1547019,"2026-03-28 21:30:00","48009","0.17","211.8","1.372","201.7","NAN","NAN","NAN","NAN","NAN"],
    [1547020,"2026-03-28 21:40:00","48010","0.081","171.1","0.849","170.3","NAN","NAN","NAN","NAN","NAN"],
    [1547021,"2026-03-28 21:50:00","48011","0.41","165.9","1.372","166.4","NAN","NAN","NAN","NAN","NAN"],
    [1547022,"2026-03-28 22:00:00","48012","1.5490000000000002","158.4","3.103","143","NAN","NAN","NAN","NAN","NAN"],
    [1547023,"2026-03-28 22:10:00","48013","0.7509999999999999","142.5","2.254","142.6","NAN","NAN","NAN","NAN","NAN"],
    [1547024,"2026-03-28 22:20:00","48014","0.256","141.0","1.307","141.1","NAN","NAN","NAN","NAN","NAN"],
    [1547025,"2026-03-28 22:30:00","48015","0.47","137.7","2.221","136.2","NAN","NAN","NAN","NAN","NAN"],
    [1547026,"2026-03-28 22:40:00","48016","2.1630000000000003","94.2","4.116","82.1","NAN","NAN","NAN","NAN","NAN"],
    [1547027,"2026-03-28 22:50:00","48017","3.263","81.5","6.664","92.9","NAN","NAN","NAN","NAN","NAN"],
    [1547028,"2026-03-28 23:00:00","48018","4.302","81.6","7.775","64.39","NAN","NAN","NAN","NAN","NAN"],
    [1547029,"2026-03-28 23:10:00","48019","4.131","82.0","6.076","78.56","NAN","NAN","NAN","NAN","NAN"],
    [1547030,"2026-03-28 23:20:00","48020","2.948","96.3","5.194","85.3","NAN","NAN","NAN","NAN","NAN"],
    [1547031,"2026-03-28 23:30:00","48021","3.551","86.0","6.501","83.6","NAN","NAN","NAN","NAN","NAN"],
    [1547032,"2026-03-28 23:40:00","48022","3.19","88.5","5.749","92.2","NAN","NAN","NAN","NAN","NAN"],
    [1547033,"2026-03-28 23:50:00","48023","2.526","93.6","4.508","99","NAN","NAN","NAN","NAN","NAN"],
    [1547034,"2026-03-29 00:00:00","48024","1.705","96.9","3.365","101.6","NAN","NAN","NAN","NAN","NAN"],
    [1547035,"2026-03-29 00:10:00","48025","1.396","97.9","2.483","89.3","NAN","NAN","NAN","NAN","NAN"],
    [1547036,"2026-03-29 00:20:00","48026","2.033","102.8","3.626","98.7","NAN","NAN","NAN","NAN","NAN"],
    [1547037,"2026-03-29 00:30:00","48027","2.198","70.23","4.867","74.55","NAN","NAN","NAN","NAN","NAN"],
    [1547038,"2026-03-29 00:40:00","48028","2.176","84.8","4.9","100.4","NAN","NAN","NAN","NAN","NAN"],
    [1547039,"2026-03-29 00:50:00","48029","2.313","100.2","3.757","108.5","NAN","NAN","NAN","NAN","NAN"],
    [1547040,"2026-03-29 01:00:00","48030","3.187","114.7","6.076","137.5","NAN","NAN","NAN","NAN","NAN"],
    [1547041,"2026-03-29 01:10:00","48031","3.9019999999999997","114.0","7.481","80.9","NAN","NAN","NAN","NAN","NAN"],
    [1547042,"2026-03-29 01:20:00","48032","3.785","89.1","6.109","77.58","NAN","NAN","NAN","NAN","NAN"],
    [1547043,"2026-03-29 01:30:00","48033","3.813","88.7","6.141","92.6","NAN","NAN","NAN","NAN","NAN"],
    [1547044,"2026-03-29 01:40:00","48034","2.515","97.4","5.161","107","NAN","NAN","NAN","NAN","NAN"],
    [1547045,"2026-03-29 01:50:00","48035","0.794","102.8","2.744","100.8","NAN","NAN","NAN","NAN","NAN"],
    [1547046,"2026-03-29 02:00:00","48036","1.247","100.1","2.45","104.6","NAN","NAN","NAN","NAN","NAN"],
    [1547047,"2026-03-29 02:10:00","48037","1.445","105.3","2.515","105.3","NAN","NAN","NAN","NAN","NAN"],
    [1547048,"2026-03-29 02:20:00","48038","1.084","102.4","2.287","98.2","NAN","NAN","NAN","NAN","NAN"],
    [1547049,"2026-03-29 02:30:00","48039","0.32799999999999996","129.0","2.156","139.1","NAN","NAN","NAN","NAN","NAN"],
    [1547050,"2026-03-29 02:40:00","48040","0.048","118.2","0.621","118.5","NAN","NAN","NAN","NAN","NAN"],
    [1547051,"2026-03-29 02:50:00","48041","0.647","135.9","1.339","126.7","NAN","NAN","NAN","NAN","NAN"],
    [1547052,"2026-03-29 03:00:00","48042","1.107","150.3","2.613","151.6","NAN","NAN","NAN","NAN","NAN"],
    [1547053,"2026-03-29 03:10:00","48043","0.8420000000000001","154.5","2.189","151.7","NAN","NAN","NAN","NAN","NAN"],
    [1547054,"2026-03-29 03:20:00","48044","0.8079999999999999","266.6","3.005","271","NAN","NAN","NAN","NAN","NAN"],
    [1547055,"2026-03-29 03:30:00","48045","1.979","285.4","3.985","293.8","NAN","NAN","NAN","NAN","NAN"],
    [1547056,"2026-03-29 03:40:00","48046","2.122","268.2","3.887","274.3","NAN","NAN","NAN","NAN","NAN"],
    [1547057,"2026-03-29 03:50:00","48047","1.5590000000000002","286.4","3.495","278.1","NAN","NAN","NAN","NAN","NAN"],
    [1547058,"2026-03-29 04:00:00","48048","3.122","324.4","5.88","334.3","NAN","NAN","NAN","NAN","NAN"],
    [1547059,"2026-03-29 04:10:00","48049","3.063","319.6","5.39","327.1","NAN","NAN","NAN","NAN","NAN"],
    [1547060,"2026-03-29 04:20:00","48050","3.779","321.6","7.35","333.9","NAN","NAN","NAN","NAN","NAN"],
    [1547061,"2026-03-29 04:30:00","48051","2.79","307.0","4.769","300.1","NAN","NAN","NAN","NAN","NAN"],
    [1547062,"2026-03-29 04:40:00","48052","2.215","311.3","4.149","297.5","NAN","NAN","NAN","NAN","NAN"],
    [1547063,"2026-03-29 04:50:00","48053","3.843","314.2","7.089","315.2","NAN","NAN","NAN","NAN","NAN"],
    [1547064,"2026-03-29 05:00:00","48054","4.988","320.5","8.1","314.4","NAN","NAN","NAN","NAN","NAN"],
    [1547065,"2026-03-29 05:10:00","48055","4.149","322.8","7.971","324.7","NAN","NAN","NAN","NAN","NAN"],
    [1547066,"2026-03-29 05:20:00","48056","5.456","322.5","9.08","321.7","NAN","NAN","NAN","NAN","NAN"],
    [1547067,"2026-03-29 05:30:00","48057","4.173","318.4","7.481","333.1","NAN","NAN","NAN","NAN","NAN"],
    [1547068,"2026-03-29 05:40:00","48058","4.334","318.4","7.383","319.9","NAN","NAN","NAN","NAN","NAN"],
    [1547069,"2026-03-29 05:50:00","48059","3.193","322.3","5.684","318.9","NAN","NAN","NAN","NAN","NAN"],
    [1547070,"2026-03-29 06:00:00","48060","3.6069999999999998","330.5","6.011","331.3","NAN","NAN","NAN","NAN","NAN"],
    [1547071,"2026-03-29 06:10:00","48061","3.359","320.5","7.579","320.5","NAN","NAN","NAN","NAN","NAN"],
    [1547072,"2026-03-29 06:20:00","48062","3.3","318.6","6.501","326.1","NAN","NAN","NAN","NAN","NAN"],
    [1547073,"2026-03-29 06:30:00","48063","3.2760000000000002","318.6","5.521","327.5","NAN","NAN","NAN","NAN","NAN"],
    [1547074,"2026-03-29 06:40:00","48064","3.843","327.6","6.109","334.1","NAN","NAN","NAN","NAN","NAN"],
    [1547075,"2026-03-29 06:50:00","48065","2.465","353.2","4.573","0.754","NAN","NAN","NAN","NAN","NAN"],
    [1547076,"2026-03-29 07:00:00","48066","2.557","352.7","4.606","352.4","NAN","NAN","NAN","NAN","NAN"],
    [1547077,"2026-03-29 07:10:00","48067","2.701","335.2","4.933","324.5","NAN","NAN","NAN","NAN","NAN"],
    [1547078,"2026-03-29 07:20:00","48068","2.557","342.7","4.475","351.2","NAN","NAN","NAN","NAN","NAN"],
    [1547079,"2026-03-29 07:30:00","48069","2.334","330.0","4.051","323.6","NAN","NAN","NAN","NAN","NAN"],
    [1547080,"2026-03-29 07:40:00","48070","1.153","325.1","4.867","352.6","NAN","NAN","NAN","NAN","NAN"],
    [1547081,"2026-03-29 07:50:00","48071","0.589","318.1","2.058","317.3","NAN","NAN","NAN","NAN","NAN"],
    [1547082,"2026-03-29 08:00:00","48072","2.991","355.2","6.631","0.176","NAN","NAN","NAN","NAN","NAN"],
    [1547083,"2026-03-29 08:10:00","48073","3.425","342.9","7.219","318","NAN","NAN","NAN","NAN","NAN"],
    [1547084,"2026-03-29 08:20:00","48074","4.997","331.8","7.84","319.3","NAN","NAN","NAN","NAN","NAN"],
    [1547085,"2026-03-29 08:30:00","48075","5.992000000000001","336.2","9.6","330.7","NAN","NAN","NAN","NAN","NAN"],
    [1547086,"2026-03-29 08:40:00","48076","5.305","344.2","9.38","0.433","NAN","NAN","NAN","NAN","NAN"],
    [1547087,"2026-03-29 08:50:00","48077","4.518","353.9","8.4","344.7","NAN","NAN","NAN","NAN","NAN"],
    [1547088,"2026-03-29 09:00:00","48078","5.75","359.9","9.21","339.3","NAN","NAN","NAN","NAN","NAN"],
    [1547089,"2026-03-29 09:10:00","48079","5.251","347.2","9.34","11.93","NAN","NAN","NAN","NAN","NAN"],
    [1547090,"2026-03-29 09:20:00","48080","2.923","356.4","7.546","327.6","NAN","NAN","NAN","NAN","NAN"],
    [1547091,"2026-03-29 09:30:00","48081","4.32","334.4","7.546","327.6","NAN","NAN","NAN","NAN","NAN"],
    [1547092,"2026-03-29 09:40:00","48082","3.57","17.24","8.04","345.5","NAN","NAN","NAN","NAN","NAN"],
    [1547093,"2026-03-29 09:50:00","48083","4.026","23.34","9.38","338.6","NAN","NAN","NAN","NAN","NAN"],
    [1547094,"2026-03-29 10:00:00","48084","5.4670000000000005","326.8","10.26","329.7","NAN","NAN","NAN","NAN","NAN"],
    [1547095,"2026-03-29 10:10:00","48085","4.055","340.8","7.448","358.6","NAN","NAN","NAN","NAN","NAN"],
    [1547096,"2026-03-29 10:20:00","48086","3.487","342.8","6.729","299.1","NAN","NAN","NAN","NAN","NAN"],
    [1547097,"2026-03-29 10:30:00","48087","3.299","357.7","7.383","316.2","NAN","NAN","NAN","NAN","NAN"],
    [1547098,"2026-03-29 10:40:00","48088","3.303","21.16","6.958","28.5","NAN","NAN","NAN","NAN","NAN"],
    [1547099,"2026-03-29 10:50:00","48089","3.4160000000000004","0.768","7.709","33.78","NAN","NAN","NAN","NAN","NAN"],
    [1547100,"2026-03-29 11:00:00","48090","1.8419999999999999","7.729","4.214","11.02","NAN","NAN","NAN","NAN","NAN"],
    [1547101,"2026-03-29 11:10:00","48091","2.85","31.43","5.88","26.81","NAN","NAN","NAN","NAN","NAN"],
    [1547102,"2026-03-29 11:20:00","48092","3.534","52.94","6.403","69.28","NAN","NAN","NAN","NAN","NAN"],
    [1547103,"2026-03-29 11:30:00","48093","2.411","56.36","4.9","70.91","NAN","NAN","NAN","NAN","NAN"],
    [1547104,"2026-03-29 11:40:00","48094","3.675","131.4","6.305","153.2","NAN","NAN","NAN","NAN","NAN"],
    [1547105,"2026-03-29 11:50:00","48095","3.352","134.3","5.063","132.6","NAN","NAN","NAN","NAN","NAN"],
    [1547106,"2026-03-29 12:00:00","48096","4.281000000000001","133.3","6.272","130.1","NAN","NAN","NAN","NAN","NAN"],
    [1547107,"2026-03-29 12:10:00","48097","4.493","130.6","7.154","152.1","NAN","NAN","NAN","NAN","NAN"],
    [1547108,"2026-03-29 12:20:00","48098","4.816","134.6","7.154","133.2","NAN","NAN","NAN","NAN","NAN"],
    [1547109,"2026-03-29 12:30:00","48099","4.42","126.2","6.958","112.8","NAN","NAN","NAN","NAN","NAN"],
    [1547110,"2026-03-29 12:40:00","48100","3.8480000000000003","126.0","6.468","135","NAN","NAN","NAN","NAN","NAN"],
    [1547111,"2026-03-29 12:50:00","48101","3.1180000000000003","122.4","6.109","130.4","NAN","NAN","NAN","NAN","NAN"],
    [1547112,"2026-03-29 13:00:00","48102","4.262","136.6","6.664","140.2","NAN","NAN","NAN","NAN","NAN"],
    [1547113,"2026-03-29 13:10:00","48103","4.033","138.9","5.815","147","NAN","NAN","NAN","NAN","NAN"],
    [1547114,"2026-03-29 13:20:00","48104","3.2910000000000004","139.3","5.455","147","NAN","NAN","NAN","NAN","NAN"],
    [1547115,"2026-03-29 13:30:00","48105","3.205","137.6","4.802","135.8","NAN","NAN","NAN","NAN","NAN"],
    [1547116,"2026-03-29 13:40:00","48106","2.324","139.5","4.214","137.3","NAN","NAN","NAN","NAN","NAN"],
    [1547117,"2026-03-29 13:50:00","48107","1.128","130.1","3.103","125.3","NAN","NAN","NAN","NAN","NAN"],
    [1547118,"2026-03-29 14:00:00","48108","0.27399999999999997","96.8","1.209","97.1","NAN","NAN","NAN","NAN","NAN"],
    [1547119,"2026-03-29 14:10:00","48109","2.6710000000000003","320.4","8.46","336.3","NAN","NAN","NAN","NAN","NAN"],
    [1547120,"2026-03-29 14:20:00","48110","4.249","270.7","6.337","276.6","NAN","NAN","NAN","NAN","NAN"],
    [1547121,"2026-03-29 14:30:00","48111","3.299","253.5","6.403","259.4","NAN","NAN","NAN","NAN","NAN"],
    [1547122,"2026-03-29 14:40:00","48112","4.388999999999999","242.2","7.807","253.7","NAN","NAN","NAN","NAN","NAN"],
    [1547123,"2026-03-29 14:50:00","48113","3.4610000000000003","244.6","5.684","223.4","NAN","NAN","NAN","NAN","NAN"],
    [1547124,"2026-03-29 15:00:00","48114","3.0189999999999997","307.1","6.501","264.3","NAN","NAN","NAN","NAN","NAN"],
    [1547125,"2026-03-29 15:10:00","48115","3.1910000000000003","7.322","6.141","10.88","NAN","NAN","NAN","NAN","NAN"],
    [1547126,"2026-03-29 15:20:00","48116","2.946","61.58","6.86","31.26","NAN","NAN","NAN","NAN","NAN"],
    [1547127,"2026-03-29 15:30:00","48117","0.993","128.5","3.397","124.2","NAN","NAN","NAN","NAN","NAN"],
    [1547128,"2026-03-29 15:40:00","48118","2.512","171.7","4.867","200.5","NAN","NAN","NAN","NAN","NAN"],
    [1547129,"2026-03-29 15:50:00","48119","2.126","192.4","3.887","217","NAN","NAN","NAN","NAN","NAN"],
    [1547130,"2026-03-29 16:00:00","48120","2.9939999999999998","196.8","5.194","211.5","NAN","NAN","NAN","NAN","NAN"],
    [1547131,"2026-03-29 16:10:00","48121","3.8710000000000004","186.3","7.089","180","NAN","NAN","NAN","NAN","NAN"],
    [1547132,"2026-03-29 16:20:00","48122","2.576","190.8","4.704","188.4","NAN","NAN","NAN","NAN","NAN"],
    [1547133,"2026-03-29 16:30:00","48123","2.276","182.8","4.247","172.6","NAN","NAN","NAN","NAN","NAN"],
    [1547134,"2026-03-29 16:40:00","48124","2.577","168.5","4.835","166.3","NAN","NAN","NAN","NAN","NAN"],
    [1547135,"2026-03-29 16:50:00","48125","4.192","156.5","6.403","164.7","NAN","NAN","NAN","NAN","NAN"],
    [1547136,"2026-03-29 17:00:00","48126","3.8819999999999997","167.6","6.305","138","NAN","NAN","NAN","NAN","NAN"],
    [1547137,"2026-03-29 17:10:00","48127","2.912","182.7","5.129","172.4","NAN","NAN","NAN","NAN","NAN"],
    [1547138,"2026-03-29 17:20:00","48128","2.7289999999999996","181.1","5.227","176.7","NAN","NAN","NAN","NAN","NAN"],
    [1547139,"2026-03-29 17:30:00","48129","2.714","190.0","5.913","212","NAN","NAN","NAN","NAN","NAN"],
    [1547140,"2026-03-29 17:40:00","48130","3.1660000000000004","197.4","5.684","211.4","NAN","NAN","NAN","NAN","NAN"],
    [1547141,"2026-03-29 17:50:00","48131","2.465","181.7","4.639","194.8","NAN","NAN","NAN","NAN","NAN"],
    [1547142,"2026-03-29 18:00:00","48132","2.153","179.1","4.508","173.9","NAN","NAN","NAN","NAN","NAN"],
    [1547143,"2026-03-29 18:10:00","48133","1.661","189.1","3.626","195","NAN","NAN","NAN","NAN","NAN"],
    [1547144,"2026-03-29 18:20:00","48134","2.202","200.0","4.541","207.5","NAN","NAN","NAN","NAN","NAN"],
    [1547145,"2026-03-29 18:30:00","48135","2.344","214.4","4.835","215.2","NAN","NAN","NAN","NAN","NAN"],
    [1547146,"2026-03-29 18:40:00","48136","1.508","202.6","3.071","218.9","NAN","NAN","NAN","NAN","NAN"],
    [1547147,"2026-03-29 18:50:00","48137","1.57","201.3","3.495","215.1","NAN","NAN","NAN","NAN","NAN"],
    [1547148,"2026-03-29 19:00:00","48138","0.685","212.7","2.711","208.5","NAN","NAN","NAN","NAN","NAN"],
    [1547149,"2026-03-29 19:10:00","48139","0.016","215.3","0.425","215.3","NAN","NAN","NAN","NAN","NAN"],
    [1547150,"2026-03-29 19:20:00","48140","0.085","207.2","1.045","207.8","NAN","NAN","NAN","NAN","NAN"],
    [1547151,"2026-03-29 19:30:00","48141","0.0","206.3","0.065","206.4","NAN","NAN","NAN","NAN","NAN"],
    [1547152,"2026-03-29 19:40:00","48142","0.0","0.0","0","0","NAN","NAN","NAN","NAN","NAN"],
    [1547153,"2026-03-29 19:50:00","48143","0.0","0.0","0","0","NAN","NAN","NAN","NAN","NAN"],
    [1547154,"2026-03-29 20:00:00","48144","0.0","0.0","0","0","NAN","NAN","NAN","NAN","NAN"],
    [1547155,"2026-03-29 20:10:00","48145","0.214","215.4","1.437","215.5","NAN","NAN","NAN","NAN","NAN"],
    [1547156,"2026-03-29 20:20:00","48146","0.441","214.6","1.96","209.3","NAN","NAN","NAN","NAN","NAN"],
    [1547157,"2026-03-29 20:30:00","48147","0.18","215.6","1.503","215.5","NAN","NAN","NAN","NAN","NAN"],
    [1547158,"2026-03-29 20:40:00","48148","0.8370000000000001","216.0","1.699","216.1","NAN","NAN","NAN","NAN","NAN"],
    [1547159,"2026-03-29 20:50:00","48149","1.263","224.1","2.842","228.1","NAN","NAN","NAN","NAN","NAN"],
    [1547160,"2026-03-29 21:00:00","48150","0.485","229.7","1.633","229.7","NAN","NAN","NAN","NAN","NAN"],
    [1547161,"2026-03-29 21:10:00","48151","0.018000000000000002","229.7","0.49","229.7","NAN","NAN","NAN","NAN","NAN"],
    [1547162,"2026-03-29 21:20:00","48152","0.0","0.0","0","0","NAN","NAN","NAN","NAN","NAN"],
    [1547163,"2026-03-29 21:30:00","48153","0.099","229.8","1.307","229.9","NAN","NAN","NAN","NAN","NAN"],
    [1547164,"2026-03-29 21:40:00","48154","0.59","290.5","1.829","315.6","NAN","NAN","NAN","NAN","NAN"],
    [1547165,"2026-03-29 21:50:00","48155","0.09","315.6","0.915","315.6","NAN","NAN","NAN","NAN","NAN"],
    [1547166,"2026-03-29 22:00:00","48156","0.14800000000000002","315.6","0.784","315.6","NAN","NAN","NAN","NAN","NAN"],
    [1547167,"2026-03-29 22:10:00","48157","0.0","0.0","0","0","NAN","NAN","NAN","NAN","NAN"],
    [1547168,"2026-03-29 22:20:00","48158","0.0","0.0","0","0","NAN","NAN","NAN","NAN","NAN"],
    [1547169,"2026-03-29 22:30:00","48159","0.541","303.7","1.927","295","NAN","NAN","NAN","NAN","NAN"],
    [1547170,"2026-03-29 22:40:00","48160","0.503","294.4","1.339","294.2","NAN","NAN","NAN","NAN","NAN"],
    [1547171,"2026-03-29 22:50:00","48161","0.772","291.6","1.862","291.4","NAN","NAN","NAN","NAN","NAN"],
    [1547172,"2026-03-29 23:00:00","48162","0.304","291.3","1.47","291.3","NAN","NAN","NAN","NAN","NAN"],
    [1547173,"2026-03-29 23:10:00","48163","0.691","289.7","2.875","292.2","NAN","NAN","NAN","NAN","NAN"],
    [1547174,"2026-03-29 23:20:00","48164","1.692","294.3","2.875","295","NAN","NAN","NAN","NAN","NAN"],
    [1547175,"2026-03-29 23:30:00","48165","1.375","292.9","3.136","297.5","NAN","NAN","NAN","NAN","NAN"],
    [1547176,"2026-03-29 23:40:00","48166","2.043","299.7","3.659","302.2","NAN","NAN","NAN","NAN","NAN"],
    [1547177,"2026-03-29 23:50:00","48167","2.6489999999999996","304.9","4.541","312.2","NAN","NAN","NAN","NAN","NAN"],
    [1547178,"2026-03-30 00:00:00","48168","2.239","302.8","4.018","313.6","NAN","NAN","NAN","NAN","NAN"],
    [1547179,"2026-03-30 00:10:00","48169","2.47","308.0","4.737","314.5","NAN","NAN","NAN","NAN","NAN"],
    [1547180,"2026-03-30 00:20:00","48170","2.291","307.6","4.41","309.1","NAN","NAN","NAN","NAN","NAN"],
    [1547181,"2026-03-30 00:30:00","48171","2.218","307.7","3.789","313.3","NAN","NAN","NAN","NAN","NAN"],
    [1547182,"2026-03-30 00:40:00","48172","2.307","319.3","4.149","313.4","NAN","NAN","NAN","NAN","NAN"],
    [1547183,"2026-03-30 00:50:00","48173","2.201","326.8","3.332","326.3","NAN","NAN","NAN","NAN","NAN"],
    [1547184,"2026-03-30 01:00:00","48174","2.2680000000000002","320.2","4.345","323.4","NAN","NAN","NAN","NAN","NAN"],
    [1547185,"2026-03-30 01:10:00","48175","1.857","321.2","4.051","305.7","NAN","NAN","NAN","NAN","NAN"],
    [1547186,"2026-03-30 01:20:00","48176","1.413","323.1","2.711","326.6","NAN","NAN","NAN","NAN","NAN"],
    [1547187,"2026-03-30 01:30:00","48177","0.961","322.6","2.287","329.4","NAN","NAN","NAN","NAN","NAN"],
    [1547188,"2026-03-30 01:40:00","48178","2.0869999999999997","329.9","4.475","331.4","NAN","NAN","NAN","NAN","NAN"],
    [1547189,"2026-03-30 01:50:00","48179","2.32","322.7","4.279","335.3","NAN","NAN","NAN","NAN","NAN"],
    [1547190,"2026-03-30 02:00:00","48180","1.739","317.3","3.887","305.8","NAN","NAN","NAN","NAN","NAN"],
    [1547191,"2026-03-30 02:10:00","48181","1.765","313.6","3.463","311.1","NAN","NAN","NAN","NAN","NAN"],
    [1547192,"2026-03-30 02:20:00","48182","0.838","299.8","3.267","291.9","NAN","NAN","NAN","NAN","NAN"],
    [1547193,"2026-03-30 02:30:00","48183","1.329","295.4","3.822","287.2","NAN","NAN","NAN","NAN","NAN"],
    [1547194,"2026-03-30 02:40:00","48184","1.4369999999999998","294.2","2.548","293.3","NAN","NAN","NAN","NAN","NAN"],
    [1547195,"2026-03-30 02:50:00","48185","1.068","296.4","2.189","295.8","NAN","NAN","NAN","NAN","NAN"],
    [1547196,"2026-03-30 03:00:00","48186","1.901","306.9","4.051","309","NAN","NAN","NAN","NAN","NAN"],
    [1547197,"2026-03-30 03:10:00","48187","2.773","324.0","5.88","325.6","NAN","NAN","NAN","NAN","NAN"],
    [1547198,"2026-03-30 03:20:00","48188","2.438","319.8","4.737","327.7","NAN","NAN","NAN","NAN","NAN"],
    [1547199,"2026-03-30 03:30:00","48189","2.833","325.5","5.357","316.7","NAN","NAN","NAN","NAN","NAN"],
    [1547200,"2026-03-30 03:40:00","48190","2.613","319.4","4.9","301.1","NAN","NAN","NAN","NAN","NAN"],
    [1547201,"2026-03-30 03:50:00","48191","2.148","309.3","3.724","322.3","NAN","NAN","NAN","NAN","NAN"],
    [1547202,"2026-03-30 04:00:00","48192","2.766","317.9","6.468","321.5","NAN","NAN","NAN","NAN","NAN"],
    [1547203,"2026-03-30 04:10:00","48193","2.364","317.1","5.357","325","NAN","NAN","NAN","NAN","NAN"],
    [1547204,"2026-03-30 04:20:00","48194","1.7730000000000001","316.8","3.528","315.2","NAN","NAN","NAN","NAN","NAN"],
    [1547205,"2026-03-30 04:30:00","48195","2.052","320.4","4.279","324.8","NAN","NAN","NAN","NAN","NAN"],
    [1547206,"2026-03-30 04:40:00","48196","2.963","322.5","5.325","320.2","NAN","NAN","NAN","NAN","NAN"],
    [1547207,"2026-03-30 04:50:00","48197","2.065","313.9","4.214","323.8","NAN","NAN","NAN","NAN","NAN"],
    [1547208,"2026-03-30 05:00:00","48198","2.573","317.9","4.933","327.5","NAN","NAN","NAN","NAN","NAN"],
    [1547209,"2026-03-30 05:10:00","48199","2.366","319.1","4.671","331.1","NAN","NAN","NAN","NAN","NAN"],
    [1547210,"2026-03-30 05:20:00","48200","2.295","319.1","5.782","327.4","NAN","NAN","NAN","NAN","NAN"],
    [1547211,"2026-03-30 05:30:00","48201","3.6630000000000003","316.2","5.749","329","NAN","NAN","NAN","NAN","NAN"],
    [1547212,"2026-03-30 05:40:00","48202","3.7","315.1","5.815","316.7","NAN","NAN","NAN","NAN","NAN"],
    [1547213,"2026-03-30 05:50:00","48203","2.515","314.3","4.541","309","NAN","NAN","NAN","NAN","NAN"],
    [1547214,"2026-03-30 06:00:00","48204","2.8160000000000003","324.0","6.109","324.4","NAN","NAN","NAN","NAN","NAN"],
    [1547215,"2026-03-30 06:10:00","48205","2.309","320.5","4.639","324.7","NAN","NAN","NAN","NAN","NAN"],
    [1547216,"2026-03-30 06:20:00","48206","1.835","315.5","4.051","323.5","NAN","NAN","NAN","NAN","NAN"],
    [1547217,"2026-03-30 06:30:00","48207","2.467","307.4","4.541","302.8","NAN","NAN","NAN","NAN","NAN"],
    [1547218,"2026-03-30 06:40:00","48208","3.4130000000000003","305.7","5.913","320.3","NAN","NAN","NAN","NAN","NAN"],
    [1547219,"2026-03-30 06:50:00","48209","3.344","303.8","5.521","313.8","NAN","NAN","NAN","NAN","NAN"],
    [1547220,"2026-03-30 07:00:00","48210","3.409","296.8","5.521","297.9","NAN","NAN","NAN","NAN","NAN"],
    [1547221,"2026-03-30 07:10:00","48211","2.296","290.2","4.606","288.1","NAN","NAN","NAN","NAN","NAN"],
    [1547222,"2026-03-30 07:20:00","48212","3.013","287.6","5.455","287.3","NAN","NAN","NAN","NAN","NAN"],
    [1547223,"2026-03-30 07:30:00","48213","3.8339999999999996","299.8","7.056","308.9","NAN","NAN","NAN","NAN","NAN"],
    [1547224,"2026-03-30 07:40:00","48214","3.8760000000000003","302.8","6.893","300.1","NAN","NAN","NAN","NAN","NAN"],
    [1547225,"2026-03-30 07:50:00","48215","3.553","309.9","6.631","306.7","NAN","NAN","NAN","NAN","NAN"],
    [1547226,"2026-03-30 08:00:00","48216","3.826","307.6","6.795","297.9","NAN","NAN","NAN","NAN","NAN"],
    [1547227,"2026-03-30 08:10:00","48217","5.03","302.8","8.23","300.2","NAN","NAN","NAN","NAN","NAN"],
    [1547228,"2026-03-30 08:20:00","48218","4.769","301.7","7.807","311.6","NAN","NAN","NAN","NAN","NAN"],
    [1547229,"2026-03-30 08:30:00","48219","4.914","296.5","8.07","304.6","NAN","NAN","NAN","NAN","NAN"],
    [1547230,"2026-03-30 08:40:00","48220","4.15","297.8","6.925","308.3","NAN","NAN","NAN","NAN","NAN"],
    [1547231,"2026-03-30 08:50:00","48221","4.2860000000000005","293.3","6.697","311.8","NAN","NAN","NAN","NAN","NAN"],
    [1547232,"2026-03-30 09:00:00","48222","3.502","315.6","5.88","326","NAN","NAN","NAN","NAN","NAN"],
    [1547233,"2026-03-30 09:10:00","48223","2.998","309.6","5.978","284.4","NAN","NAN","NAN","NAN","NAN"],
    [1547234,"2026-03-30 09:20:00","48224","4.103","314.6","6.893","329.2","NAN","NAN","NAN","NAN","NAN"],
    [1547235,"2026-03-30 09:30:00","48225","3.8280000000000003","319.7","6.599","290.5","NAN","NAN","NAN","NAN","NAN"],
    [1547236,"2026-03-30 09:40:00","48226","3.1010000000000004","297.4","6.37","300.2","NAN","NAN","NAN","NAN","NAN"],
    [1547237,"2026-03-30 09:50:00","48227","3.3089999999999997","308.2","6.37","330.9","NAN","NAN","NAN","NAN","NAN"],
    [1547238,"2026-03-30 10:00:00","48228","3.47","292.8","6.076","276.7","NAN","NAN","NAN","NAN","NAN"],
    [1547239,"2026-03-30 10:10:00","48229","3.263","309.8","5.292","310.9","NAN","NAN","NAN","NAN","NAN"],
    [1547240,"2026-03-30 10:20:00","48230","2.7089999999999996","290.0","5.553","294.9","NAN","NAN","NAN","NAN","NAN"],
    [1547241,"2026-03-30 10:30:00","48231","2.484","275.4","4.573","267.3","NAN","NAN","NAN","NAN","NAN"],
    [1547242,"2026-03-30 10:40:00","48232","2.444","200.9","5.292","210","NAN","NAN","NAN","NAN","NAN"],
    [1547243,"2026-03-30 10:50:00","48233","2.675","185.9","5.227","166.4","NAN","NAN","NAN","NAN","NAN"],
    [1547244,"2026-03-30 11:00:00","48234","3.2889999999999997","210.7","5.521","212.6","NAN","NAN","NAN","NAN","NAN"],
    [1547245,"2026-03-30 11:10:00","48235","3.657","211.1","6.011","210.9","NAN","NAN","NAN","NAN","NAN"],
    [1547246,"2026-03-30 11:20:00","48236","3.552","210.4","5.129","209.9","NAN","NAN","NAN","NAN","NAN"],
    [1547247,"2026-03-30 11:30:00","48237","2.9810000000000003","212.7","4.9","203.4","NAN","NAN","NAN","NAN","NAN"],
    [1547248,"2026-03-30 11:40:00","48238","2.83","214.2","5.292","204.9","NAN","NAN","NAN","NAN","NAN"],
    [1547249,"2026-03-30 11:50:00","48239","1.739","210.2","4.377","204","NAN","NAN","NAN","NAN","NAN"],
    [1547250,"2026-03-30 12:00:00","48240","2.104","206.1","4.116","182.7","NAN","NAN","NAN","NAN","NAN"],
    [1547251,"2026-03-30 12:10:00","48241","2.668","203.8","5.913","199.6","NAN","NAN","NAN","NAN","NAN"],
    [1547252,"2026-03-30 12:20:00","48242","1.064","226.3","4.475","230.9","NAN","NAN","NAN","NAN","NAN"],
    [1547253,"2026-03-30 12:30:00","48243","1.9509999999999998","235.1","4.606","213.8","NAN","NAN","NAN","NAN","NAN"],
    [1547254,"2026-03-30 12:40:00","48244","2.1830000000000003","248.3","4.116","263","NAN","NAN","NAN","NAN","NAN"],
    [1547255,"2026-03-30 12:50:00","48245","2.228","233.1","4.508","222.1","NAN","NAN","NAN","NAN","NAN"],
    [1547256,"2026-03-30 13:00:00","48246","2.186","195.0","5.129","196.7","NAN","NAN","NAN","NAN","NAN"],
    [1547257,"2026-03-30 13:10:00","48247","2.161","229.2","5.553","219.6","NAN","NAN","NAN","NAN","NAN"],
    [1547258,"2026-03-30 13:20:00","48248","3.057","219.4","5.161","216.8","NAN","NAN","NAN","NAN","NAN"],
    [1547259,"2026-03-30 13:30:00","48249","2.306","213.7","4.475","209","NAN","NAN","NAN","NAN","NAN"],
    [1547260,"2026-03-30 13:40:00","48250","2.099","295.8","6.631","252.2","NAN","NAN","NAN","NAN","NAN"],
    [1547261,"2026-03-30 13:50:00","48251","3.4589999999999996","226.9","6.239","207.7","NAN","NAN","NAN","NAN","NAN"],
    [1547262,"2026-03-30 14:00:00","48252","3.778","217.1","6.697","212.4","NAN","NAN","NAN","NAN","NAN"],
    [1547263,"2026-03-30 14:10:00","48253","4.362","214.1","6.893","211.3","NAN","NAN","NAN","NAN","NAN"],
    [1547264,"2026-03-30 14:20:00","48254","4.864","219.1","7.905","223.8","NAN","NAN","NAN","NAN","NAN"],
    [1547265,"2026-03-30 14:30:00","48255","4.272","209.4","6.566","220.4","NAN","NAN","NAN","NAN","NAN"],
    [1547266,"2026-03-30 14:40:00","48256","4.812","216.7","7.383","220.7","NAN","NAN","NAN","NAN","NAN"],
    [1547267,"2026-03-30 14:50:00","48257","4.1739999999999995","225.3","8.33","224.8","NAN","NAN","NAN","NAN","NAN"],
    [1547268,"2026-03-30 15:00:00","48258","4.361000000000001","226.0","7.317","219.8","NAN","NAN","NAN","NAN","NAN"],
    [1547269,"2026-03-30 15:10:00","48259","4.4910000000000005","213.5","7.154","220.1","NAN","NAN","NAN","NAN","NAN"],
    [1547270,"2026-03-30 15:20:00","48260","3.3680000000000003","215.4","6.468","223.4","NAN","NAN","NAN","NAN","NAN"],
    [1547271,"2026-03-30 15:30:00","48261","4.402","218.0","8.04","216.1","NAN","NAN","NAN","NAN","NAN"],
    [1547272,"2026-03-30 15:40:00","48262","4.522","227.3","7.873","222.3","NAN","NAN","NAN","NAN","NAN"],
    [1547273,"2026-03-30 15:50:00","48263","4.709","225.1","8.04","225.3","NAN","NAN","NAN","NAN","NAN"],
    [1547274,"2026-03-30 16:00:00","48264","4.363","220.2","7.35","215.8","NAN","NAN","NAN","NAN","NAN"],
    [1547275,"2026-03-30 16:10:00","48265","4.243","212.9","7.089","208.8","NAN","NAN","NAN","NAN","NAN"],
    [1547276,"2026-03-30 16:20:00","48266","5.078","208.6","7.742","204.6","NAN","NAN","NAN","NAN","NAN"],
    [1547277,"2026-03-30 16:30:00","48267","3.843","215.1","6.925","219.9","NAN","NAN","NAN","NAN","NAN"],
    [1547278,"2026-03-30 16:40:00","48268","4.45","215.8","7.187","223","NAN","NAN","NAN","NAN","NAN"],
    [1547279,"2026-03-30 16:50:00","48269","3.306","223.1","6.37","253.6","NAN","NAN","NAN","NAN","NAN"],
    [1547280,"2026-03-30 17:00:00","48270","3.647","217.3","6.533","215","NAN","NAN","NAN","NAN","NAN"],
    [1547281,"2026-03-30 17:10:00","48271","3.878","214.9","6.403","221.3","NAN","NAN","NAN","NAN","NAN"],
    [1547282,"2026-03-30 17:20:00","48272","2.708","221.3","4.835","214.9","NAN","NAN","NAN","NAN","NAN"],
    [1547283,"2026-03-30 17:30:00","48273","2.384","222.1","4.933","217.8","NAN","NAN","NAN","NAN","NAN"],
    [1547284,"2026-03-30 17:40:00","48274","1.3630000000000002","217.2","3.005","210.7","NAN","NAN","NAN","NAN","NAN"],
    [1547285,"2026-03-30 17:50:00","48275","0.531","207.2","2.417","205.1","NAN","NAN","NAN","NAN","NAN"],
    [1547286,"2026-03-30 18:00:00","48276","1.043","202.6","3.822","198.9","NAN","NAN","NAN","NAN","NAN"],
    [1547287,"2026-03-30 18:10:00","48277","0.517","195.9","2.156","196.3","NAN","NAN","NAN","NAN","NAN"],
    [1547288,"2026-03-30 18:20:00","48278","0.439","195.7","1.241","195.8","NAN","NAN","NAN","NAN","NAN"],
    [1547289,"2026-03-30 18:30:00","48279","0.159","196.7","1.568","195.6","NAN","NAN","NAN","NAN","NAN"],
    [1547290,"2026-03-30 18:40:00","48280","0.02","196.9","0.392","195.7","NAN","NAN","NAN","NAN","NAN"],
    [1547291,"2026-03-30 18:50:00","48281","2.7089999999999996","301.2","5.88","299.9","NAN","NAN","NAN","NAN","NAN"],
    [1547292,"2026-03-30 19:00:00","48282","2.753","301.1","6.729","310.2","NAN","NAN","NAN","NAN","NAN"],
    [1547293,"2026-03-30 19:10:00","48283","1.9280000000000002","295.2","4.279","317.4","NAN","NAN","NAN","NAN","NAN"],
    [1547294,"2026-03-30 19:20:00","48284","0.96","284.9","3.201","296","NAN","NAN","NAN","NAN","NAN"],
    [1547295,"2026-03-30 19:30:00","48285","2.12","288.4","5.096","271","NAN","NAN","NAN","NAN","NAN"],
    [1547296,"2026-03-30 19:40:00","48286","2.035","274.4","5.129","316.2","NAN","NAN","NAN","NAN","NAN"],
    [1547297,"2026-03-30 19:50:00","48287","1.903","189.6","5.194","299.6","NAN","NAN","NAN","NAN","NAN"],
    [1547298,"2026-03-30 20:00:00","48288","1.214","150.5","2.45","144.3","NAN","NAN","NAN","NAN","NAN"],
    [1547299,"2026-03-30 20:10:00","48289","1.055","158.8","2.058","159.1","NAN","NAN","NAN","NAN","NAN"],
    [1547300,"2026-03-30 20:20:00","48290","1.4709999999999999","165.4","2.809","165","NAN","NAN","NAN","NAN","NAN"],
    [1547301,"2026-03-30 20:30:00","48291","1.067","153.2","4.541","14.45","NAN","NAN","NAN","NAN","NAN"],
    [1547302,"2026-03-30 20:40:00","48292","2.519","329.2","6.141","304.7","NAN","NAN","NAN","NAN","NAN"],
    [1547303,"2026-03-30 20:50:00","48293","4.431","316.9","8.53","321.3","NAN","NAN","NAN","NAN","NAN"],
    [1547304,"2026-03-30 21:00:00","48294","4.658","316.9","9.8","304.8","NAN","NAN","NAN","NAN","NAN"],
    [1547305,"2026-03-30 21:10:00","48295","3.997","320.2","7.285","332.6","NAN","NAN","NAN","NAN","NAN"],
    [1547306,"2026-03-30 21:20:00","48296","5.006","322.5","7.905","323.8","NAN","NAN","NAN","NAN","NAN"],
    [1547307,"2026-03-30 21:30:00","48297","4.253","331.7","7.121","335.5","NAN","NAN","NAN","NAN","NAN"],
    [1547308,"2026-03-30 21:40:00","48298","1.4469999999999998","345.9","3.561","316.7","NAN","NAN","NAN","NAN","NAN"],
    [1547309,"2026-03-30 21:50:00","48299","2.112","62.69","4.279","88.8","NAN","NAN","NAN","NAN","NAN"],
    [1547310,"2026-03-30 22:00:00","48300","1.805","83.5","3.855","88.3","NAN","NAN","NAN","NAN","NAN"],
    [1547311,"2026-03-30 22:10:00","48301","2.2319999999999998","91.5","4.214","89","NAN","NAN","NAN","NAN","NAN"],
    [1547312,"2026-03-30 22:20:00","48302","1.555","82.3","2.809","90.3","NAN","NAN","NAN","NAN","NAN"],
    [1547313,"2026-03-30 22:30:00","48303","1.305","77.61","3.038","89.7","NAN","NAN","NAN","NAN","NAN"],
    [1547314,"2026-03-30 22:40:00","48304","1.041","67.45","2.777","68.58","NAN","NAN","NAN","NAN","NAN"],
    [1547315,"2026-03-30 22:50:00","48305","0.506","66.05","1.601","66.56","NAN","NAN","NAN","NAN","NAN"],
    [1547316,"2026-03-30 23:00:00","48306","0.016","65.72","0.327","65.69","NAN","NAN","NAN","NAN","NAN"],
    [1547317,"2026-03-30 23:10:00","48307","1.008","63.72","2.907","58.99","NAN","NAN","NAN","NAN","NAN"],
    [1547318,"2026-03-30 23:20:00","48308","2.695","37.93","3.724","31.62","NAN","NAN","NAN","NAN","NAN"],
    [1547319,"2026-03-30 23:30:00","48309","2.254","37.19","3.626","41.69","NAN","NAN","NAN","NAN","NAN"],
    [1547320,"2026-03-30 23:40:00","48310","2.126","30.43","3.071","30.3","NAN","NAN","NAN","NAN","NAN"],
    [1547321,"2026-03-30 23:50:00","48311","2.063","31.32","3.267","25.39","NAN","NAN","NAN","NAN","NAN"],
    [1547322,"2026-03-31 00:00:00","48312","1.1740000000000002","24.27","3.267","25.39","NAN","NAN","NAN","NAN","NAN"],
    [1547323,"2026-03-31 00:10:00","48313","1.012","35.78","3.659","49.3","NAN","NAN","NAN","NAN","NAN"],
    [1547324,"2026-03-31 00:20:00","48314","1.081","47.69","3.169","40.09","NAN","NAN","NAN","NAN","NAN"],
    [1547325,"2026-03-31 00:30:00","48315","1.31","50.11","2.515","50.45","NAN","NAN","NAN","NAN","NAN"],
    [1547326,"2026-03-31 00:40:00","48316","1.8419999999999999","46.95","3.397","53.05","NAN","NAN","NAN","NAN","NAN"],
    [1547327,"2026-03-31 00:50:00","48317","1.4509999999999998","49.54","3.234","39.38","NAN","NAN","NAN","NAN","NAN"],
    [1547328,"2026-03-31 01:00:00","48318","1.6569999999999998","59.64","3.397","78.38","NAN","NAN","NAN","NAN","NAN"],
    [1547329,"2026-03-31 01:10:00","48319","1.186","70.35","3.234","76.94","NAN","NAN","NAN","NAN","NAN"],
    [1547330,"2026-03-31 01:20:00","48320","0.7909999999999999","60.6","3.887","75.02","NAN","NAN","NAN","NAN","NAN"],
    [1547331,"2026-03-31 01:30:00","48321","1.2930000000000001","67.81","2.483","66.82","NAN","NAN","NAN","NAN","NAN"],
    [1547332,"2026-03-31 01:40:00","48322","1.392","59.46","3.887","52.25","NAN","NAN","NAN","NAN","NAN"],
    [1547333,"2026-03-31 01:50:00","48323","0.937","56.38","2.973","51.48","NAN","NAN","NAN","NAN","NAN"],
    [1547334,"2026-03-31 02:00:00","48324","0.221","54.29","0.98","54.42","NAN","NAN","NAN","NAN","NAN"],
    [1547335,"2026-03-31 02:10:00","48325","0.0","0.0","0","0","NAN","NAN","NAN","NAN","NAN"],
    [1547336,"2026-03-31 02:20:00","48326","0.057","46.0","0.523","46.12","NAN","NAN","NAN","NAN","NAN"],
    [1547337,"2026-03-31 02:30:00","48327","0.26","56.27","1.372","67.43","NAN","NAN","NAN","NAN","NAN"],
    [1547338,"2026-03-31 02:40:00","48328","0.024","67.36","0.588","67.45","NAN","NAN","NAN","NAN","NAN"],
    [1547339,"2026-03-31 02:50:00","48329","0.073","62.75","0.882","65.15","NAN","NAN","NAN","NAN","NAN"],
    [1547340,"2026-03-31 03:00:00","48330","0.079","67.71","1.013","67.58","NAN","NAN","NAN","NAN","NAN"],
    [1547341,"2026-03-31 03:10:00","48331","0.48100000000000004","68.58","1.633","68.58","NAN","NAN","NAN","NAN","NAN"],
    [1547342,"2026-03-31 03:20:00","48332","0.653","66.2","1.274","62.7","NAN","NAN","NAN","NAN","NAN"],
    [1547343,"2026-03-31 03:30:00","48333","0.051","68.48","0.817","68.48","NAN","NAN","NAN","NAN","NAN"],
    [1547344,"2026-03-31 03:40:00","48334","0.102","54.47","0.555","53.66","NAN","NAN","NAN","NAN","NAN"],
    [1547345,"2026-03-31 03:50:00","48335","0.433","54.45","1.437","52.7","NAN","NAN","NAN","NAN","NAN"],
    [1547346,"2026-03-31 04:00:00","48336","0.838","65.96","1.568","62.23","NAN","NAN","NAN","NAN","NAN"],
    [1547347,"2026-03-31 04:10:00","48337","0.75","68.65","1.503","68.58","NAN","NAN","NAN","NAN","NAN"],
    [1547348,"2026-03-31 04:20:00","48338","0.11699999999999999","54.59","0.849","47.8","NAN","NAN","NAN","NAN","NAN"],
    [1547349,"2026-03-31 04:30:00","48339","0.044000000000000004","46.97","0.751","46.92","NAN","NAN","NAN","NAN","NAN"],
    [1547350,"2026-03-31 04:40:00","48340","0.0","0.0","0","0","NAN","NAN","NAN","NAN","NAN"],
    [1547351,"2026-03-31 04:50:00","48341","0.139","47.0","0.947","46.83","NAN","NAN","NAN","NAN","NAN"],
    [1547352,"2026-03-31 05:00:00","48342","0.517","46.02","1.045","45.87","NAN","NAN","NAN","NAN","NAN"],
    [1547353,"2026-03-31 05:10:00","48343","0.157","45.61","1.013","45.58","NAN","NAN","NAN","NAN","NAN"],
    [1547354,"2026-03-31 05:20:00","48344","0.292","45.23","1.045","45.19","NAN","NAN","NAN","NAN","NAN"],
    [1547355,"2026-03-31 05:30:00","48345","0.036000000000000004","43.49","0.653","43.23","NAN","NAN","NAN","NAN","NAN"],
    [1547356,"2026-03-31 05:40:00","48346","0.342","8.75","2.352","5.398","NAN","NAN","NAN","NAN","NAN"],
    [1547357,"2026-03-31 05:50:00","48347","1.225","4.157","2.189","4.387","NAN","NAN","NAN","NAN","NAN"],
    [1547358,"2026-03-31 06:00:00","48348","1.236","3.658","2.548","3.722","NAN","NAN","NAN","NAN","NAN"],
    [1547359,"2026-03-31 06:10:00","48349","0.6779999999999999","3.49","1.96","3.513","NAN","NAN","NAN","NAN","NAN"],
    [1547360,"2026-03-31 06:20:00","48350","0.7120000000000001","1.161","2.156","0.69","NAN","NAN","NAN","NAN","NAN"],
    [1547361,"2026-03-31 06:30:00","48351","0.526","0.7","1.307","0.714","NAN","NAN","NAN","NAN","NAN"],
    [1547362,"2026-03-31 06:40:00","48352","0.19","0.7","1.111","0.69","NAN","NAN","NAN","NAN","NAN"],
    [1547363,"2026-03-31 06:50:00","48353","0.023","0.705","0.49","0.698","NAN","NAN","NAN","NAN","NAN"],
    [1547364,"2026-03-31 07:00:00","48354","0.542","318.7","2.809","298.1","NAN","NAN","NAN","NAN","NAN"],
    [1547365,"2026-03-31 07:10:00","48355","2.64","292.2","3.92","292.6","NAN","NAN","NAN","NAN","NAN"],
    [1547366,"2026-03-31 07:20:00","48356","2.5869999999999997","285.4","4.345","296.2","NAN","NAN","NAN","NAN","NAN"],
    [1547367,"2026-03-31 07:30:00","48357","0.9329999999999999","279.0","2.973","283.2","NAN","NAN","NAN","NAN","NAN"],
    [1547368,"2026-03-31 07:40:00","48358","0.149","298.3","1.274","278.7","NAN","NAN","NAN","NAN","NAN"],
    [1547369,"2026-03-31 07:50:00","48359","0.846","338.7","2.483","332.3","NAN","NAN","NAN","NAN","NAN"],
    [1547370,"2026-03-31 08:00:00","48360","0.7829999999999999","31.8","4.214","52.51","NAN","NAN","NAN","NAN","NAN"],
    [1547371,"2026-03-31 08:10:00","48361","1.993","71.93","4.443","90.3","NAN","NAN","NAN","NAN","NAN"],
    [1547372,"2026-03-31 08:20:00","48362","2.083","59.26","4.443","35.59","NAN","NAN","NAN","NAN","NAN"],
    [1547373,"2026-03-31 08:30:00","48363","2.636","74.59","4.9","85.5","NAN","NAN","NAN","NAN","NAN"],
    [1547374,"2026-03-31 08:40:00","48364","2.2640000000000002","60.03","6.337","41.38","NAN","NAN","NAN","NAN","NAN"],
    [1547375,"2026-03-31 08:50:00","48365","3.998","82.9","6.762","79.32","NAN","NAN","NAN","NAN","NAN"],
    [1547376,"2026-03-31 09:00:00","48366","3.8989999999999996","82.2","6.991","94.5","NAN","NAN","NAN","NAN","NAN"],
    [1547377,"2026-03-31 09:10:00","48367","2.8139999999999996","67.9","6.599","81.3","NAN","NAN","NAN","NAN","NAN"],
    [1547378,"2026-03-31 09:20:00","48368","3.765","72.87","6.468","87.5","NAN","NAN","NAN","NAN","NAN"],
    [1547379,"2026-03-31 09:30:00","48369","3.862","64.25","7.187","69.47","NAN","NAN","NAN","NAN","NAN"],
    [1547380,"2026-03-31 09:40:00","48370","2.8960000000000004","86.7","5.847","67.81","NAN","NAN","NAN","NAN","NAN"],
    [1547381,"2026-03-31 09:50:00","48371","4.401","124.2","6.86","136.9","NAN","NAN","NAN","NAN","NAN"],
    [1547382,"2026-03-31 10:00:00","48372","4.312","145.1","6.566","126.4","NAN","NAN","NAN","NAN","NAN"],
    [1547383,"2026-03-31 10:10:00","48373","3.283","138.8","5.39","134.8","NAN","NAN","NAN","NAN","NAN"],
    [1547384,"2026-03-31 10:20:00","48374","4.523","140.5","6.403","155.9","NAN","NAN","NAN","NAN","NAN"],
    [1547385,"2026-03-31 10:30:00","48375","3.758","127.1","5.782","143.8","NAN","NAN","NAN","NAN","NAN"],
    [1547386,"2026-03-31 10:40:00","48376","3.1639999999999997","111.7","4.769","99.6","NAN","NAN","NAN","NAN","NAN"],
    [1547387,"2026-03-31 10:50:00","48377","3.3160000000000003","104.8","5.161","99","NAN","NAN","NAN","NAN","NAN"],
    [1547388,"2026-03-31 11:00:00","48378","3.3110000000000004","98.0","4.965","89.8","NAN","NAN","NAN","NAN","NAN"],
    [1547389,"2026-03-31 11:10:00","48379","2.6660000000000004","105.5","4.573","93.9","NAN","NAN","NAN","NAN","NAN"],
    [1547390,"2026-03-31 11:20:00","48380","2.654","105.3","4.279","103.1","NAN","NAN","NAN","NAN","NAN"],
    [1547391,"2026-03-31 11:30:00","48381","2.381","114.6","4.247","135.2","NAN","NAN","NAN","NAN","NAN"],
    [1547392,"2026-03-31 11:40:00","48382","2.522","126.1","4.345","133.9","NAN","NAN","NAN","NAN","NAN"],
    [1547393,"2026-03-31 11:50:00","48383","2.6460000000000004","109.7","4.279","99.7","NAN","NAN","NAN","NAN","NAN"],
    [1547394,"2026-03-31 12:00:00","48384","2.654","133.7","4.508","141","NAN","NAN","NAN","NAN","NAN"],
    [1547395,"2026-03-31 12:10:00","48385","3.261","135.9","5.194","137","NAN","NAN","NAN","NAN","NAN"],
    [1547396,"2026-03-31 12:20:00","48386","2.9019999999999997","145.4","4.9","165.2","NAN","NAN","NAN","NAN","NAN"],
    [1547397,"2026-03-31 12:30:00","48387","3.6830000000000003","154.9","5.945","171","NAN","NAN","NAN","NAN","NAN"],
    [1547398,"2026-03-31 12:40:00","48388","3.6439999999999997","155.6","5.945","161.9","NAN","NAN","NAN","NAN","NAN"],
    [1547399,"2026-03-31 12:50:00","48389","3.694","148.9","5.815","166.3","NAN","NAN","NAN","NAN","NAN"],
    [1547400,"2026-03-31 13:00:00","48390","4.127","143.8","6.729","138.8","NAN","NAN","NAN","NAN","NAN"],
    [1547401,"2026-03-31 13:10:00","48391","3.387","158.2","6.272","127.3","NAN","NAN","NAN","NAN","NAN"],
    [1547402,"2026-03-31 13:20:00","48392","3.284","172.7","6.207","161","NAN","NAN","NAN","NAN","NAN"],
    [1547403,"2026-03-31 13:30:00","48393","3.47","166.7","5.423","159","NAN","NAN","NAN","NAN","NAN"],
    [1547404,"2026-03-31 13:40:00","48394","2.773","202.2","5.063","227.9","NAN","NAN","NAN","NAN","NAN"],
    [1547405,"2026-03-31 13:50:00","48395","3.665","197.5","5.978","211.5","NAN","NAN","NAN","NAN","NAN"],
    [1547406,"2026-03-31 14:00:00","48396","3.1210000000000004","180.8","5.063","164.1","NAN","NAN","NAN","NAN","NAN"],
    [1547407,"2026-03-31 14:10:00","48397","3.6010000000000004","198.4","6.337","209.9","NAN","NAN","NAN","NAN","NAN"],
    [1547408,"2026-03-31 14:20:00","48398","3.5469999999999997","208.3","6.893","209.7","NAN","NAN","NAN","NAN","NAN"],
    [1547409,"2026-03-31 14:30:00","48399","3.7060000000000004","194.2","5.717","195.1","NAN","NAN","NAN","NAN","NAN"],
    [1547410,"2026-03-31 14:40:00","48400","3.2769999999999997","184.7","5.913","167.9","NAN","NAN","NAN","NAN","NAN"],
    [1547411,"2026-03-31 14:50:00","48401","3.094","193.4","7.089","173.6","NAN","NAN","NAN","NAN","NAN"],
    [1547412,"2026-03-31 15:00:00","48402","2.967","192.0","6.435","208.6","NAN","NAN","NAN","NAN","NAN"],
    [1547413,"2026-03-31 15:10:00","48403","3.5410000000000004","171.5","5.586","157.1","NAN","NAN","NAN","NAN","NAN"],
    [1547414,"2026-03-31 15:20:00","48404","3.1839999999999997","178.3","6.435","165.1","NAN","NAN","NAN","NAN","NAN"],
    [1547415,"2026-03-31 15:30:00","48405","3.042","203.9","5.978","220.8","NAN","NAN","NAN","NAN","NAN"],
    [1547416,"2026-03-31 15:40:00","48406","2.685","202.1","5.129","219.4","NAN","NAN","NAN","NAN","NAN"],
    [1547417,"2026-03-31 15:50:00","48407","2.987","203.2","5.717","219.2","NAN","NAN","NAN","NAN","NAN"],
    [1547418,"2026-03-31 16:00:00","48408","2.969","199.1","5.357","220.2","NAN","NAN","NAN","NAN","NAN"],
    [1547419,"2026-03-31 16:10:00","48409","3.156","184.7","4.867","221.2","NAN","NAN","NAN","NAN","NAN"],
    [1547420,"2026-03-31 16:20:00","48410","2.977","199.8","5.39","208","NAN","NAN","NAN","NAN","NAN"],
    [1547421,"2026-03-31 16:30:00","48411","2.7510000000000003","196.1","6.043","223.6","NAN","NAN","NAN","NAN","NAN"],
    [1547422,"2026-03-31 16:40:00","48412","2.728","189.8","5.194","214.6","NAN","NAN","NAN","NAN","NAN"],
    [1547423,"2026-03-31 16:50:00","48413","2.88","184.6","5.684","178.1","NAN","NAN","NAN","NAN","NAN"],
    [1547424,"2026-03-31 17:00:00","48414","2.8739999999999997","202.2","5.194","210.1","NAN","NAN","NAN","NAN","NAN"],
    [1547425,"2026-03-31 17:10:00","48415","2.915","195.4","4.933","213.6","NAN","NAN","NAN","NAN","NAN"],
    [1547426,"2026-03-31 17:20:00","48416","3.013","205.3","4.802","224.9","NAN","NAN","NAN","NAN","NAN"],
    [1547427,"2026-03-31 17:30:00","48417","2.299","193.1","4.508","206.5","NAN","NAN","NAN","NAN","NAN"],
    [1547428,"2026-03-31 17:40:00","48418","1.95","208.4","4.116","229.2","NAN","NAN","NAN","NAN","NAN"],
    [1547429,"2026-03-31 17:50:00","48419","2.104","236.0","4.051","237.9","NAN","NAN","NAN","NAN","NAN"],
    [1547430,"2026-03-31 18:00:00","48420","1.857","215.7","3.593","209.3","NAN","NAN","NAN","NAN","NAN"],
    [1547431,"2026-03-31 18:10:00","48421","2.09","219.6","3.332","212.4","NAN","NAN","NAN","NAN","NAN"],
    [1547432,"2026-03-31 18:20:00","48422","1.661","213.3","3.038","214.1","NAN","NAN","NAN","NAN","NAN"],
    [1547433,"2026-03-31 18:30:00","48423","2.316","209.8","3.528","205.3","NAN","NAN","NAN","NAN","NAN"],
    [1547434,"2026-03-31 18:40:00","48424","1.828","230.0","3.528","240.8","NAN","NAN","NAN","NAN","NAN"],
    [1547435,"2026-03-31 18:50:00","48425","1.3130000000000002","238.2","3.136","238.4","NAN","NAN","NAN","NAN","NAN"],
    [1547436,"2026-03-31 19:00:00","48426","1.433","240.2","2.483","241.1","NAN","NAN","NAN","NAN","NAN"],
    [1547437,"2026-03-31 19:10:00","48427","1.198","243.9","2.483","245","NAN","NAN","NAN","NAN","NAN"],
    [1547438,"2026-03-31 19:20:00","48428","1.65","245.2","3.071","245.1","NAN","NAN","NAN","NAN","NAN"],
    [1547439,"2026-03-31 19:30:00","48429","2.272","261.0","3.985","267","NAN","NAN","NAN","NAN","NAN"],
    [1547440,"2026-03-31 19:40:00","48430","1.881","268.6","3.103","261.9","NAN","NAN","NAN","NAN","NAN"],
    [1547441,"2026-03-31 19:50:00","48431","1.761","268.5","2.744","277.2","NAN","NAN","NAN","NAN","NAN"],
    [1547442,"2026-03-31 20:00:00","48432","1.806","266.8","3.071","267.3","NAN","NAN","NAN","NAN","NAN"],
    [1547443,"2026-03-31 20:10:00","48433","0.69","267.0","2.123","265.5","NAN","NAN","NAN","NAN","NAN"],
    [1547444,"2026-03-31 20:20:00","48434","1.013","276.2","2.352","276.6","NAN","NAN","NAN","NAN","NAN"],
    [1547445,"2026-03-31 20:30:00","48435","0.861","274.6","2.025","266.4","NAN","NAN","NAN","NAN","NAN"],
    [1547446,"2026-03-31 20:40:00","48436","1.5830000000000002","263.5","2.842","268.6","NAN","NAN","NAN","NAN","NAN"],
    [1547447,"2026-03-31 20:50:00","48437","1.403","267.7","3.169","260.3","NAN","NAN","NAN","NAN","NAN"],
    [1547448,"2026-03-31 21:00:00","48438","1.704","259.6","2.483","259.6","NAN","NAN","NAN","NAN","NAN"],
    [1547449,"2026-03-31 21:10:00","48439","1.3730000000000002","266.6","2.45","267","NAN","NAN","NAN","NAN","NAN"],
    [1547450,"2026-03-31 21:20:00","48440","2.008","273.5","3.169","275.6","NAN","NAN","NAN","NAN","NAN"],
    [1547451,"2026-03-31 21:30:00","48441","2.083","280.7","3.365","278.4","NAN","NAN","NAN","NAN","NAN"],
    [1547452,"2026-03-31 21:40:00","48442","1.985","276.9","3.005","284.1","NAN","NAN","NAN","NAN","NAN"],
    [1547453,"2026-03-31 21:50:00","48443","1.002","280.1","2.123","275.5","NAN","NAN","NAN","NAN","NAN"],
    [1547454,"2026-03-31 22:00:00","48444","0.635","279.8","1.764","276.5","NAN","NAN","NAN","NAN","NAN"],
    [1547455,"2026-03-31 22:10:00","48445","0.945","274.7","1.731","277.4","NAN","NAN","NAN","NAN","NAN"],
    [1547456,"2026-03-31 22:20:00","48446","1.0490000000000002","274.1","1.829","271.7","NAN","NAN","NAN","NAN","NAN"],
    [1547457,"2026-03-31 22:30:00","48447","0.124","276.1","0.98","275.6","NAN","NAN","NAN","NAN","NAN"],
    [1547458,"2026-03-31 22:40:00","48448","1.262","277.0","2.45","281.9","NAN","NAN","NAN","NAN","NAN"],
    [1547459,"2026-03-31 22:50:00","48449","0.9990000000000001","282.2","2.319","283.2","NAN","NAN","NAN","NAN","NAN"],
    [1547460,"2026-03-31 23:00:00","48450","0.026000000000000002","280.2","0.49","280.6","NAN","NAN","NAN","NAN","NAN"],
    [1547461,"2026-03-31 23:10:00","48451","0.0","0.0","0","0","NAN","NAN","NAN","NAN","NAN"],
    [1547462,"2026-03-31 23:20:00","48452","0.086","280.2","0.621","284.1","NAN","NAN","NAN","NAN","NAN"],
    [1547463,"2026-03-31 23:30:00","48453","1.003","278.8","1.895","284.1","NAN","NAN","NAN","NAN","NAN"],
    [1547464,"2026-03-31 23:40:00","48454","0.83","283.0","1.927","283.7","NAN","NAN","NAN","NAN","NAN"],
    [1547465,"2026-03-31 23:50:00","48455","1.109","277.8","1.731","274.2","NAN","NAN","NAN","NAN","NAN"],
    [1547466,"2026-04-01 00:00:00","48456","0.0","272.3","0.261","272.3","NAN","NAN","NAN","NAN","NAN"],
    [1547467,"2026-04-01 00:10:00","48457","0.004","272.2","0.523","271.7","NAN","NAN","NAN","NAN","NAN"],
    [1547468,"2026-04-01 00:20:00","48458","1.183","277.7","3.038","275.2","NAN","NAN","NAN","NAN","NAN"],
    [1547469,"2026-04-01 00:30:00","48459","0.081","279.8","0.915","281.8","NAN","NAN","NAN","NAN","NAN"],
    [1547470,"2026-04-01 00:40:00","48460","0.13699999999999998","284.3","0.817","284","NAN","NAN","NAN","NAN","NAN"],
    [1547471,"2026-04-01 00:50:00","48461","0.7559999999999999","279.2","1.699","274.2","NAN","NAN","NAN","NAN","NAN"],
    [1547472,"2026-04-01 01:00:00","48462","0.006999999999999999","284.5","0.261","284.5","NAN","NAN","NAN","NAN","NAN"],
    [1547473,"2026-04-01 01:10:00","48463","0.498","284.3","1.633","284.6","NAN","NAN","NAN","NAN","NAN"],
    [1547474,"2026-04-01 01:20:00","48464","1.111","272.1","2.875","263.7","NAN","NAN","NAN","NAN","NAN"],
    [1547475,"2026-04-01 01:30:00","48465","0.40399999999999997","275.1","1.339","271.3","NAN","NAN","NAN","NAN","NAN"],
    [1547476,"2026-04-01 01:40:00","48466","0.556","280.0","1.699","281.7","NAN","NAN","NAN","NAN","NAN"],
    [1547477,"2026-04-01 01:50:00","48467","0.021","276.9","0.457","281.7","NAN","NAN","NAN","NAN","NAN"],
    [1547478,"2026-04-01 02:00:00","48468","1.055","327.0","3.299","335.9","NAN","NAN","NAN","NAN","NAN"],
    [1547479,"2026-04-01 02:10:00","48469","0.868","308.9","2.352","314.4","NAN","NAN","NAN","NAN","NAN"],
    [1547480,"2026-04-01 02:20:00","48470","0.455","295.1","1.764","293.5","NAN","NAN","NAN","NAN","NAN"],
    [1547481,"2026-04-01 02:30:00","48471","1.382","334.2","3.691","0.762","NAN","NAN","NAN","NAN","NAN"],
    [1547482,"2026-04-01 02:40:00","48472","1.348","227.1","4.181","221.6","NAN","NAN","NAN","NAN","NAN"],
    [1547483,"2026-04-01 02:50:00","48473","2.211","293.2","4.247","323.5","NAN","NAN","NAN","NAN","NAN"],
    [1547484,"2026-04-01 03:00:00","48474","0.155","281.3","1.535","288","NAN","NAN","NAN","NAN","NAN"],
    [1547485,"2026-04-01 03:10:00","48475","1.598","285.6","2.483","297.6","NAN","NAN","NAN","NAN","NAN"],
    [1547486,"2026-04-01 03:20:00","48476","1.5490000000000002","276.7","2.907","272.4","NAN","NAN","NAN","NAN","NAN"],
    [1547487,"2026-04-01 03:30:00","48477","0.33899999999999997","285.4","1.895","280.6","NAN","NAN","NAN","NAN","NAN"],
    [1547488,"2026-04-01 03:40:00","48478","0.813","275.1","2.287","279.7","NAN","NAN","NAN","NAN","NAN"],
    [1547489,"2026-04-01 03:50:00","48479","0.8","275.5","2.319","272.2","NAN","NAN","NAN","NAN","NAN"],
    [1547490,"2026-04-01 04:00:00","48480","0.745","273.0","1.862","275.6","NAN","NAN","NAN","NAN","NAN"],
    [1547491,"2026-04-01 04:10:00","48481","0.008","272.1","0.523","272.1","NAN","NAN","NAN","NAN","NAN"],
    [1547492,"2026-04-01 04:20:00","48482","0.281","285.7","1.078","286.9","NAN","NAN","NAN","NAN","NAN"],
    [1547493,"2026-04-01 04:30:00","48483","0.40299999999999997","280.2","1.666","287.3","NAN","NAN","NAN","NAN","NAN"],
    [1547494,"2026-04-01 04:40:00","48484","0.0","0.0","0","0","NAN","NAN","NAN","NAN","NAN"],
    [1547495,"2026-04-01 04:50:00","48485","0.9329999999999999","273.9","2.123","275.8","NAN","NAN","NAN","NAN","NAN"],
    [1547496,"2026-04-01 05:00:00","48486","0.629","273.8","1.993","272.1","NAN","NAN","NAN","NAN","NAN"],
    [1547497,"2026-04-01 05:10:00","48487","1.092","274.2","2.581","277.9","NAN","NAN","NAN","NAN","NAN"],
    [1547498,"2026-04-01 05:20:00","48488","1.1320000000000001","281.5","2.515","283.8","NAN","NAN","NAN","NAN","NAN"],
    [1547499,"2026-04-01 05:30:00","48489","1.784","286.6","3.299","283.9","NAN","NAN","NAN","NAN","NAN"],
    [1547500,"2026-04-01 05:40:00","48490","2.498","269.7","4.279","250.3","NAN","NAN","NAN","NAN","NAN"],
    [1547501,"2026-04-01 05:50:00","48491","1.297","310.9","3.267","308.3","NAN","NAN","NAN","NAN","NAN"],
    [1547502,"2026-04-01 06:00:00","48492","1.203","281.6","2.581","274","NAN","NAN","NAN","NAN","NAN"],
    [1547503,"2026-04-01 06:10:00","48493","1.369","275.9","2.646","272","NAN","NAN","NAN","NAN","NAN"],
    [1547504,"2026-04-01 06:20:00","48494","1.107","272.3","2.123","272.7","NAN","NAN","NAN","NAN","NAN"],
    [1547505,"2026-04-01 06:30:00","48495","0.47700000000000004","272.8","1.405","271.7","NAN","NAN","NAN","NAN","NAN"],
    [1547506,"2026-04-01 06:40:00","48496","0.10400000000000001","271.5","0.98","271.5","NAN","NAN","NAN","NAN","NAN"],
    [1547507,"2026-04-01 06:50:00","48497","0.106","271.3","0.817","271.3","NAN","NAN","NAN","NAN","NAN"],
    [1547508,"2026-04-01 07:00:00","48498","0.159","270.7","1.045","270.4","NAN","NAN","NAN","NAN","NAN"],
    [1547509,"2026-04-01 07:10:00","48499","0.086","270.4","1.045","270.4","NAN","NAN","NAN","NAN","NAN"],
    [1547510,"2026-04-01 07:20:00","48500","0.106","270.2","0.784","270","NAN","NAN","NAN","NAN","NAN"],
    [1547511,"2026-04-01 07:30:00","48501","0.10400000000000001","269.9","0.947","269.9","NAN","NAN","NAN","NAN","NAN"],
    [1547512,"2026-04-01 07:40:00","48502","0.11199999999999999","269.9","0.849","269.9","NAN","NAN","NAN","NAN","NAN"],
    [1547513,"2026-04-01 07:50:00","48503","0.048","269.8","0.555","269.8","NAN","NAN","NAN","NAN","NAN"],
    [1547514,"2026-04-01 08:00:00","48504","0.016","269.8","0.359","269.8","NAN","NAN","NAN","NAN","NAN"],
    [1547515,"2026-04-01 08:10:00","48505","0.316","269.6","1.241","269.6","NAN","NAN","NAN","NAN","NAN"],
    [1547516,"2026-04-01 08:20:00","48506","0.465","269.3","1.176","269.5","NAN","NAN","NAN","NAN","NAN"],
    [1547517,"2026-04-01 08:30:00","48507","0.203","268.7","1.927","268.4","NAN","NAN","NAN","NAN","NAN"],
    [1547518,"2026-04-01 08:40:00","48508","1.35","240.5","3.724","226.8","NAN","NAN","NAN","NAN","NAN"],
    [1547519,"2026-04-01 08:50:00","48509","1.6159999999999999","200.0","3.626","190","NAN","NAN","NAN","NAN","NAN"],
    [1547520,"2026-04-01 09:00:00","48510","1.3980000000000001","191.6","3.43","177.5","NAN","NAN","NAN","NAN","NAN"],
    [1547521,"2026-04-01 09:10:00","48511","1.486","194.2","4.835","214.2","NAN","NAN","NAN","NAN","NAN"],
    [1547522,"2026-04-01 09:20:00","48512","2.725","174.3","5.488","164.8","NAN","NAN","NAN","NAN","NAN"],
    [1547523,"2026-04-01 09:30:00","48513","3.248","176.4","6.533","174.9","NAN","NAN","NAN","NAN","NAN"],
    [1547524,"2026-04-01 09:40:00","48514","3.1830000000000003","152.5","5.259","143","NAN","NAN","NAN","NAN","NAN"],
    [1547525,"2026-04-01 09:50:00","48515","3.009","177.4","5.194","158","NAN","NAN","NAN","NAN","NAN"],
    [1547526,"2026-04-01 10:00:00","48516","3.537","187.2","6.827","218","NAN","NAN","NAN","NAN","NAN"],
    [1547527,"2026-04-01 10:10:00","48517","3.488","182.8","5.684","157.6","NAN","NAN","NAN","NAN","NAN"],
    [1547528,"2026-04-01 10:20:00","48518","4.114","212.0","7.383","212","NAN","NAN","NAN","NAN","NAN"],
    [1547529,"2026-04-01 10:30:00","48519","3.985","202.1","6.697","211.7","NAN","NAN","NAN","NAN","NAN"],
    [1547530,"2026-04-01 10:40:00","48520","3.3369999999999997","203.4","6.468","213.4","NAN","NAN","NAN","NAN","NAN"],
    [1547531,"2026-04-01 10:50:00","48521","4.173","205.6","7.905","206.8","NAN","NAN","NAN","NAN","NAN"],
    [1547532,"2026-04-01 11:00:00","48522","3.852","199.0","6.795","221.5","NAN","NAN","NAN","NAN","NAN"],
    [1547533,"2026-04-01 11:10:00","48523","4.0089999999999995","205.4","6.697","208.9","NAN","NAN","NAN","NAN","NAN"],
    [1547534,"2026-04-01 11:20:00","48524","3.9130000000000003","203.6","8.17","206.3","NAN","NAN","NAN","NAN","NAN"],
    [1547535,"2026-04-01 11:30:00","48525","4.894","206.0","8.07","210.8","NAN","NAN","NAN","NAN","NAN"],
    [1547536,"2026-04-01 11:40:00","48526","4.747","206.8","7.742","210.4","NAN","NAN","NAN","NAN","NAN"],
    [1547537,"2026-04-01 11:50:00","48527","4.96","203.7","8.33","204","NAN","NAN","NAN","NAN","NAN"],
    [1547538,"2026-04-01 12:00:00","48528","4.163","192.4","7.154","208","NAN","NAN","NAN","NAN","NAN"],
    [1547539,"2026-04-01 12:10:00","48529","3.6719999999999997","193.1","6.795","197","NAN","NAN","NAN","NAN","NAN"],
    [1547540,"2026-04-01 12:20:00","48530","3.977","193.9","7.644","210.7","NAN","NAN","NAN","NAN","NAN"],
    [1547541,"2026-04-01 12:30:00","48531","3.0810000000000004","194.4","5.782","228.7","NAN","NAN","NAN","NAN","NAN"],
    [1547542,"2026-04-01 12:40:00","48532","3.6719999999999997","180.2","6.631","169.1","NAN","NAN","NAN","NAN","NAN"],
    [1547543,"2026-04-01 12:50:00","48533","3.525","199.1","6.566","212.5","NAN","NAN","NAN","NAN","NAN"],
    [1547544,"2026-04-01 13:00:00","48534","3.693","180.0","6.043","188.8","NAN","NAN","NAN","NAN","NAN"],
    [1547545,"2026-04-01 13:10:00","48535","3.654","194.3","6.141","195.6","NAN","NAN","NAN","NAN","NAN"],
    [1547546,"2026-04-01 13:20:00","48536","3.156","200.2","6.86","220.1","NAN","NAN","NAN","NAN","NAN"],
    [1547547,"2026-04-01 13:30:00","48537","3.431","201.4","6.239","211.3","NAN","NAN","NAN","NAN","NAN"],
    [1547548,"2026-04-01 13:40:00","48538","3.0069999999999997","206.8","6.435","206.7","NAN","NAN","NAN","NAN","NAN"],
    [1547549,"2026-04-01 13:50:00","48539","3.36","204.7","5.815","210.2","NAN","NAN","NAN","NAN","NAN"],
    [1547550,"2026-04-01 14:00:00","48540","3.3810000000000002","205.4","5.586","203.3","NAN","NAN","NAN","NAN","NAN"],
    [1547551,"2026-04-01 14:10:00","48541","3.647","208.7","6.403","212.1","NAN","NAN","NAN","NAN","NAN"],
    [1547552,"2026-04-01 14:20:00","48542","3.3360000000000003","194.3","5.978","166.5","NAN","NAN","NAN","NAN","NAN"],
    [1547553,"2026-04-01 14:30:00","48543","3.65","194.8","6.697","175.1","NAN","NAN","NAN","NAN","NAN"],
    [1547554,"2026-04-01 14:40:00","48544","3.8160000000000003","203.6","6.664","218","NAN","NAN","NAN","NAN","NAN"],
    [1547555,"2026-04-01 14:50:00","48545","4.156000000000001","207.9","6.533","212.6","NAN","NAN","NAN","NAN","NAN"],
    [1547556,"2026-04-01 15:00:00","48546","3.3960000000000004","201.9","6.141","213.8","NAN","NAN","NAN","NAN","NAN"],
    [1547557,"2026-04-01 15:10:00","48547","4.687","210.4","7.056","210.5","NAN","NAN","NAN","NAN","NAN"],
    [1547558,"2026-04-01 15:20:00","48548","4.657","209.3","7.187","216.4","NAN","NAN","NAN","NAN","NAN"],
    [1547559,"2026-04-01 15:30:00","48549","4.168","211.6","6.893","204.6","NAN","NAN","NAN","NAN","NAN"],
    [1547560,"2026-04-01 15:40:00","48550","4.311","211.4","7.154","222.9","NAN","NAN","NAN","NAN","NAN"],
    [1547561,"2026-04-01 15:50:00","48551","3.977","217.4","6.011","219.9","NAN","NAN","NAN","NAN","NAN"],
    [1547562,"2026-04-01 16:00:00","48552","3.341","218.2","6.109","222.4","NAN","NAN","NAN","NAN","NAN"],
    [1547563,"2026-04-01 16:10:00","48553","3.597","225.1","6.207","198.3","NAN","NAN","NAN","NAN","NAN"],
    [1547564,"2026-04-01 16:20:00","48554","3.148","222.6","6.239","222.1","NAN","NAN","NAN","NAN","NAN"],
    [1547565,"2026-04-01 16:30:00","48555","2.787","227.6","5.357","220.6","NAN","NAN","NAN","NAN","NAN"],
    [1547566,"2026-04-01 16:40:00","48556","2.846","230.9","5.096","235.7","NAN","NAN","NAN","NAN","NAN"],
    [1547567,"2026-04-01 16:50:00","48557","3.23","233.9","5.161","241","NAN","NAN","NAN","NAN","NAN"],
    [1547568,"2026-04-01 17:00:00","48558","2.8810000000000002","237.1","5.292","247.2","NAN","NAN","NAN","NAN","NAN"],
    [1547569,"2026-04-01 17:10:00","48559","3.367","235.8","5.847","237.4","NAN","NAN","NAN","NAN","NAN"],
    [1547570,"2026-04-01 17:20:00","48560","3.448","233.9","5.88","251.2","NAN","NAN","NAN","NAN","NAN"],
    [1547571,"2026-04-01 17:30:00","48561","3.318","234.5","7.089","229","NAN","NAN","NAN","NAN","NAN"],
    [1547572,"2026-04-01 17:40:00","48562","3.325","235.8","5.88","215.3","NAN","NAN","NAN","NAN","NAN"],
    [1547573,"2026-04-01 17:50:00","48563","3.417","233.5","6.468","218.6","NAN","NAN","NAN","NAN","NAN"],
    [1547574,"2026-04-01 18:00:00","48564","3.818","235.7","7.317","236.1","NAN","NAN","NAN","NAN","NAN"],
    [1547575,"2026-04-01 18:10:00","48565","3.395","234.8","6.076","243.6","NAN","NAN","NAN","NAN","NAN"],
    [1547576,"2026-04-01 18:20:00","48566","3.6189999999999998","237.5","6.631","249","NAN","NAN","NAN","NAN","NAN"],
    [1547577,"2026-04-01 18:30:00","48567","3.45","234.6","6.697","233.8","NAN","NAN","NAN","NAN","NAN"],
    [1547578,"2026-04-01 18:40:00","48568","4.623","233.7","7.677","236.4","NAN","NAN","NAN","NAN","NAN"],
    [1547579,"2026-04-01 18:50:00","48569","3.488","236.2","6.86","244.7","NAN","NAN","NAN","NAN","NAN"],
    [1547580,"2026-04-01 19:00:00","48570","3.495","226.4","5.88","240.6","NAN","NAN","NAN","NAN","NAN"],
    [1547581,"2026-04-01 19:10:00","48571","3.5980000000000003","236.3","6.533","205","NAN","NAN","NAN","NAN","NAN"],
    [1547582,"2026-04-01 19:20:00","48572","3.682","241.1","6.729","256.9","NAN","NAN","NAN","NAN","NAN"],
    [1547583,"2026-04-01 19:30:00","48573","3.023","236.1","6.403","224.6","NAN","NAN","NAN","NAN","NAN"],
    [1547584,"2026-04-01 19:40:00","48574","2.526","240.1","5.063","246.9","NAN","NAN","NAN","NAN","NAN"],
    [1547585,"2026-04-01 19:50:00","48575","3.362","242.1","6.631","238.2","NAN","NAN","NAN","NAN","NAN"],
    [1547586,"2026-04-01 20:00:00","48576","2.6710000000000003","236.8","5.455","240.4","NAN","NAN","NAN","NAN","NAN"],
    [1547587,"2026-04-01 20:10:00","48577","2.265","231.1","5.619","241.7","NAN","NAN","NAN","NAN","NAN"],
    [1547588,"2026-04-01 20:20:00","48578","2.609","230.2","4.639","244.6","NAN","NAN","NAN","NAN","NAN"],
    [1547589,"2026-04-01 20:30:00","48579","2.5660000000000003","222.7","4.867","220.1","NAN","NAN","NAN","NAN","NAN"],
    [1547590,"2026-04-01 20:40:00","48580","1.837","214.0","3.887","223.3","NAN","NAN","NAN","NAN","NAN"],
    [1547591,"2026-04-01 20:50:00","48581","1.594","208.3","3.724","207.3","NAN","NAN","NAN","NAN","NAN"],
    [1547592,"2026-04-01 21:00:00","48582","1.865","237.1","3.724","248.4","NAN","NAN","NAN","NAN","NAN"],
    [1547593,"2026-04-01 21:10:00","48583","2.045","228.2","3.757","220","NAN","NAN","NAN","NAN","NAN"],
    [1547594,"2026-04-01 21:20:00","48584","1.714","206.0","3.593","211.8","NAN","NAN","NAN","NAN","NAN"],
    [1547595,"2026-04-01 21:30:00","48585","1.8019999999999998","206.9","3.332","199.4","NAN","NAN","NAN","NAN","NAN"],
    [1547596,"2026-04-01 21:40:00","48586","1.3559999999999999","204.9","3.43","207.7","NAN","NAN","NAN","NAN","NAN"],
    [1547597,"2026-04-01 21:50:00","48587","1.953","213.3","3.463","216.4","NAN","NAN","NAN","NAN","NAN"],
    [1547598,"2026-04-01 22:00:00","48588","2.679","207.0","4.508","209","NAN","NAN","NAN","NAN","NAN"],
    [1547599,"2026-04-01 22:10:00","48589","2.915","207.1","4.475","207.7","NAN","NAN","NAN","NAN","NAN"],
    [1547600,"2026-04-01 22:20:00","48590","2.325","206.9","4.018","206.3","NAN","NAN","NAN","NAN","NAN"],
    [1547601,"2026-04-01 22:30:00","48591","2.2319999999999998","207.5","4.639","219.4","NAN","NAN","NAN","NAN","NAN"],
    [1547602,"2026-04-01 22:40:00","48592","1.7719999999999998","225.6","4.018","211.4","NAN","NAN","NAN","NAN","NAN"],
    [1547603,"2026-04-01 22:50:00","48593","1.486","231.2","2.581","222.3","NAN","NAN","NAN","NAN","NAN"],
    [1547604,"2026-04-01 23:00:00","48594","1.088","221.7","3.005","226.3","NAN","NAN","NAN","NAN","NAN"],
    [1547605,"2026-04-01 23:10:00","48595","2.1519999999999997","214.0","3.724","208.2","NAN","NAN","NAN","NAN","NAN"],
    [1547606,"2026-04-01 23:20:00","48596","2.285","210.0","3.593","212.6","NAN","NAN","NAN","NAN","NAN"],
    [1547607,"2026-04-01 23:30:00","48597","2.0340000000000003","209.7","3.234","211.2","NAN","NAN","NAN","NAN","NAN"],
    [1547608,"2026-04-01 23:40:00","48598","1.33","210.0","2.94","206.3","NAN","NAN","NAN","NAN","NAN"],
    [1547609,"2026-04-01 23:50:00","48599","2.145","212.3","3.561","215.6","NAN","NAN","NAN","NAN","NAN"],
    [1547610,"2026-04-02 00:00:00","48600","1.89","217.5","3.528","213.8","NAN","NAN","NAN","NAN","NAN"],
    [1547611,"2026-04-02 00:10:00","48601","1.8980000000000001","220.9","3.593","213.1","NAN","NAN","NAN","NAN","NAN"],
    [1547612,"2026-04-02 00:20:00","48602","1.8659999999999999","223.3","3.201","234.3","NAN","NAN","NAN","NAN","NAN"],
    [1547613,"2026-04-02 00:30:00","48603","1.814","232.5","3.593","236.5","NAN","NAN","NAN","NAN","NAN"],
    [1547614,"2026-04-02 00:40:00","48604","1.76","220.2","3.626","220.7","NAN","NAN","NAN","NAN","NAN"],
    [1547615,"2026-04-02 00:50:00","48605","2.122","213.0","3.397","212.7","NAN","NAN","NAN","NAN","NAN"],
    [1547616,"2026-04-02 01:00:00","48606","2.48","203.3","6.729","138.8","NAN","NAN","NAN","NAN","NAN"],
    [1547617,"2026-04-02 01:10:00","48607","3.4939999999999998","122.6","6.239","129.2","NAN","NAN","NAN","NAN","NAN"],
    [1547618,"2026-04-02 01:20:00","48608","3.475","113.9","6.305","139.4","NAN","NAN","NAN","NAN","NAN"],
    [1547619,"2026-04-02 01:30:00","48609","4.1339999999999995","98.5","6.272","103.9","NAN","NAN","NAN","NAN","NAN"],
    [1547620,"2026-04-02 01:40:00","48610","3.3369999999999997","93.1","5.455","95.4","NAN","NAN","NAN","NAN","NAN"],
    [1547621,"2026-04-02 01:50:00","48611","2.362","94.2","4.737","94.7","NAN","NAN","NAN","NAN","NAN"],
    [1547622,"2026-04-02 02:00:00","48612","2.5860000000000003","92.9","4.704","94.2","NAN","NAN","NAN","NAN","NAN"],
    [1547623,"2026-04-02 02:10:00","48613","1.625","83.5","2.907","103.7","NAN","NAN","NAN","NAN","NAN"],
    [1547624,"2026-04-02 02:20:00","48614","2.006","95.1","3.757","91.4","NAN","NAN","NAN","NAN","NAN"],
    [1547625,"2026-04-02 02:30:00","48615","2.302","95.0","4.541","91.9","NAN","NAN","NAN","NAN","NAN"],
    [1547626,"2026-04-02 02:40:00","48616","2.0909999999999997","78.52","3.463","71","NAN","NAN","NAN","NAN","NAN"],
    [1547627,"2026-04-02 02:50:00","48617","2.174","73.31","3.789","70.62","NAN","NAN","NAN","NAN","NAN"],
    [1547628,"2026-04-02 03:00:00","48618","1.361","82.5","2.45","85.5","NAN","NAN","NAN","NAN","NAN"],
    [1547629,"2026-04-02 03:10:00","48619","0.7829999999999999","75.73","2.091","74.84","NAN","NAN","NAN","NAN","NAN"],
    [1547630,"2026-04-02 03:20:00","48620","0.004","74.4","0.229","74.36","NAN","NAN","NAN","NAN","NAN"],
    [1547631,"2026-04-02 03:30:00","48621","0.648","61.36","1.666","65.53","NAN","NAN","NAN","NAN","NAN"],
    [1547632,"2026-04-02 03:40:00","48622","1.423","324.5","3.005","311.3","NAN","NAN","NAN","NAN","NAN"],
    [1547633,"2026-04-02 03:50:00","48623","1.599","308.2","2.907","308.2","NAN","NAN","NAN","NAN","NAN"],
    [1547634,"2026-04-02 04:00:00","48624","2.035","301.5","4.312","294.9","NAN","NAN","NAN","NAN","NAN"],
    [1547635,"2026-04-02 04:10:00","48625","1.952","290.2","4.345","296.5","NAN","NAN","NAN","NAN","NAN"],
    [1547636,"2026-04-02 04:20:00","48626","1.725","284.4","3.267","281.2","NAN","NAN","NAN","NAN","NAN"],
    [1547637,"2026-04-02 04:30:00","48627","1.436","288.3","2.907","290","NAN","NAN","NAN","NAN","NAN"],
    [1547638,"2026-04-02 04:40:00","48628","1.579","289.3","2.744","293.5","NAN","NAN","NAN","NAN","NAN"],
    [1547639,"2026-04-02 04:50:00","48629","1.061","290.1","2.123","296.7","NAN","NAN","NAN","NAN","NAN"],
    [1547640,"2026-04-02 05:00:00","48630","0.8859999999999999","281.8","2.123","281.3","NAN","NAN","NAN","NAN","NAN"],
    [1547641,"2026-04-02 05:10:00","48631","0.66","281.1","1.307","281","NAN","NAN","NAN","NAN","NAN"],
    [1547642,"2026-04-02 05:20:00","48632","0.7040000000000001","281.0","1.666","280.9","NAN","NAN","NAN","NAN","NAN"],
    [1547643,"2026-04-02 05:30:00","48633","0.937","280.8","1.96","280.8","NAN","NAN","NAN","NAN","NAN"],
    [1547644,"2026-04-02 05:40:00","48634","0.485","280.7","1.862","280.7","NAN","NAN","NAN","NAN","NAN"],
    [1547645,"2026-04-02 05:50:00","48635","0.35100000000000003","280.6","1.47","280.6","NAN","NAN","NAN","NAN","NAN"],
    [1547646,"2026-04-02 06:00:00","48636","0.259","280.7","1.111","280.7","NAN","NAN","NAN","NAN","NAN"],
    [1547647,"2026-04-02 06:10:00","48637","0.359","281.5","1.045","280.7","NAN","NAN","NAN","NAN","NAN"],
    [1547648,"2026-04-02 06:20:00","48638","0.39799999999999996","288.3","1.372","289.8","NAN","NAN","NAN","NAN","NAN"],
    [1547649,"2026-04-02 06:30:00","48639","0.08900000000000001","288.8","0.719","288.3","NAN","NAN","NAN","NAN","NAN"],
    [1547650,"2026-04-02 06:40:00","48640","0.42","287.2","1.307","283.1","NAN","NAN","NAN","NAN","NAN"],
    [1547651,"2026-04-02 06:50:00","48641","1.067","281.4","1.633","281","NAN","NAN","NAN","NAN","NAN"],
    [1547652,"2026-04-02 07:00:00","48642","1.258","281.7","2.058","280.8","NAN","NAN","NAN","NAN","NAN"],
    [1547653,"2026-04-02 07:10:00","48643","0.37","280.7","1.764","279.9","NAN","NAN","NAN","NAN","NAN"],
    [1547654,"2026-04-02 07:20:00","48644","0.5","279.3","2.417","281.9","NAN","NAN","NAN","NAN","NAN"],
    [1547655,"2026-04-02 07:30:00","48645","2.396","231.2","5.553","232.6","NAN","NAN","NAN","NAN","NAN"],
    [1547656,"2026-04-02 07:40:00","48646","3.5660000000000003","214.7","6.468","213.6","NAN","NAN","NAN","NAN","NAN"],
    [1547657,"2026-04-02 07:50:00","48647","3.2889999999999997","208.3","6.468","200.3","NAN","NAN","NAN","NAN","NAN"],
    [1547658,"2026-04-02 08:00:00","48648","3.3760000000000003","205.8","6.468","208.5","NAN","NAN","NAN","NAN","NAN"],
    [1547659,"2026-04-02 08:10:00","48649","3.739","206.8","5.749","214.2","NAN","NAN","NAN","NAN","NAN"],
    [1547660,"2026-04-02 08:20:00","48650","2.83","198.3","5.325","215.1","NAN","NAN","NAN","NAN","NAN"],
    [1547661,"2026-04-02 08:30:00","48651","2.424","215.2","4.671","218.7","NAN","NAN","NAN","NAN","NAN"],
    [1547662,"2026-04-02 08:40:00","48652","3.373","206.9","6.239","202.2","NAN","NAN","NAN","NAN","NAN"],
    [1547663,"2026-04-02 08:50:00","48653","3.1","201.6","6.533","181.9","NAN","NAN","NAN","NAN","NAN"],
    [1547664,"2026-04-02 09:00:00","48654","3.569","190.9","7.089","215","NAN","NAN","NAN","NAN","NAN"],
    [1547665,"2026-04-02 09:10:00","48655","3.0010000000000003","187.2","5.292","206.1","NAN","NAN","NAN","NAN","NAN"],
    [1547666,"2026-04-02 09:20:00","48656","3.7969999999999997","205.2","6.272","220.8","NAN","NAN","NAN","NAN","NAN"],
    [1547667,"2026-04-02 09:30:00","48657","4.022","222.3","7.644","236.3","NAN","NAN","NAN","NAN","NAN"],
    [1547668,"2026-04-02 09:40:00","48658","3.763","215.1","7.252","208.2","NAN","NAN","NAN","NAN","NAN"],
    [1547669,"2026-04-02 09:50:00","48659","3.319","197.6","5.749","207.2","NAN","NAN","NAN","NAN","NAN"],
    [1547670,"2026-04-02 10:00:00","48660","5.222","209.4","7.056","207.9","NAN","NAN","NAN","NAN","NAN"],
    [1547671,"2026-04-02 10:10:00","48661","4.279","217.8","7.513","225.2","NAN","NAN","NAN","NAN","NAN"],
    [1547672,"2026-04-02 10:20:00","48662","4.825","216.5","8.23","212.5","NAN","NAN","NAN","NAN","NAN"],
    [1547673,"2026-04-02 10:30:00","48663","4.441","235.4","7.252","243.5","NAN","NAN","NAN","NAN","NAN"],
    [1547674,"2026-04-02 10:40:00","48664","4.641","221.7","7.971","223.8","NAN","NAN","NAN","NAN","NAN"],
    [1547675,"2026-04-02 10:50:00","48665","4.76","225.4","8.82","216.4","NAN","NAN","NAN","NAN","NAN"],
    [1547676,"2026-04-02 11:00:00","48666","4.654","215.0","8.53","209.7","NAN","NAN","NAN","NAN","NAN"],
    [1547677,"2026-04-02 11:10:00","48667","4.795","215.7","9.08","210","NAN","NAN","NAN","NAN","NAN"],
    [1547678,"2026-04-02 11:20:00","48668","5.412999999999999","209.4","8.59","210.6","NAN","NAN","NAN","NAN","NAN"],
    [1547679,"2026-04-02 11:30:00","48669","5.308","209.8","7.677","209.6","NAN","NAN","NAN","NAN","NAN"],
    [1547680,"2026-04-02 11:40:00","48670","5.005","216.3","8.82","207.9","NAN","NAN","NAN","NAN","NAN"],
    [1547681,"2026-04-02 11:50:00","48671","4.166","215.6","6.958","247.4","NAN","NAN","NAN","NAN","NAN"],
    [1547682,"2026-04-02 12:00:00","48672","4.735","209.9","7.677","204","NAN","NAN","NAN","NAN","NAN"],
    [1547683,"2026-04-02 12:10:00","48673","4.44","216.7","7.579","210.2","NAN","NAN","NAN","NAN","NAN"],
    [1547684,"2026-04-02 12:20:00","48674","5.971","212.6","9.87","208.3","NAN","NAN","NAN","NAN","NAN"],
    [1547685,"2026-04-02 12:30:00","48675","5.817","212.4","8.89","210.7","NAN","NAN","NAN","NAN","NAN"],
    [1547686,"2026-04-02 12:40:00","48676","4.5889999999999995","226.5","8.26","221.4","NAN","NAN","NAN","NAN","NAN"],
    [1547687,"2026-04-02 12:50:00","48677","4.667","218.0","7.873","206.3","NAN","NAN","NAN","NAN","NAN"],
    [1547688,"2026-04-02 13:00:00","48678","4.821000000000001","213.4","7.252","204.1","NAN","NAN","NAN","NAN","NAN"],
    [1547689,"2026-04-02 13:10:00","48679","4.0280000000000005","225.0","6.827","222","NAN","NAN","NAN","NAN","NAN"],
    [1547690,"2026-04-02 13:20:00","48680","3.905","226.8","6.631","223.2","NAN","NAN","NAN","NAN","NAN"],
    [1547691,"2026-04-02 13:30:00","48681","3.687","222.3","7.023","218.7","NAN","NAN","NAN","NAN","NAN"],
    [1547692,"2026-04-02 13:40:00","48682","4.571000000000001","213.5","7.546","206.3","NAN","NAN","NAN","NAN","NAN"],
    [1547693,"2026-04-02 13:50:00","48683","3.4419999999999997","220.6","6.174","221.3","NAN","NAN","NAN","NAN","NAN"],
    [1547694,"2026-04-02 14:00:00","48684","2.801","225.4","5.031","227.5","NAN","NAN","NAN","NAN","NAN"],
    [1547695,"2026-04-02 14:10:00","48685","2.602","235.9","5.227","204.5","NAN","NAN","NAN","NAN","NAN"],
    [1547696,"2026-04-02 14:20:00","48686","2.379","282.3","6.762","309.8","NAN","NAN","NAN","NAN","NAN"],
    [1547697,"2026-04-02 14:30:00","48687","3.227","298.4","6.076","306.1","NAN","NAN","NAN","NAN","NAN"],
    [1547698,"2026-04-02 14:40:00","48688","3.304","314.8","5.129","322.4","NAN","NAN","NAN","NAN","NAN"],
    [1547699,"2026-04-02 14:50:00","48689","3.862","320.1","7.742","313.5","NAN","NAN","NAN","NAN","NAN"],
    [1547700,"2026-04-02 15:00:00","48690","3.403","304.7","5.586","298.7","NAN","NAN","NAN","NAN","NAN"],
    [1547701,"2026-04-02 15:10:00","48691","4.334","315.5","6.958","283.5","NAN","NAN","NAN","NAN","NAN"],
    [1547702,"2026-04-02 15:20:00","48692","3.767","329.0","6.501","307.8","NAN","NAN","NAN","NAN","NAN"],
    [1547703,"2026-04-02 15:30:00","48693","4.438","310.4","7.023","295.9","NAN","NAN","NAN","NAN","NAN"],
    [1547704,"2026-04-02 15:40:00","48694","4.501","299.2","9.21","296.9","NAN","NAN","NAN","NAN","NAN"],
    [1547705,"2026-04-02 15:50:00","48695","4.962","291.8","7.84","299.5","NAN","NAN","NAN","NAN","NAN"],
    [1547706,"2026-04-02 16:00:00","48696","4.697","304.9","8.36","328","NAN","NAN","NAN","NAN","NAN"],
    [1547707,"2026-04-02 16:10:00","48697","5.0489999999999995","320.4","9.47","299.9","NAN","NAN","NAN","NAN","NAN"],
    [1547708,"2026-04-02 16:20:00","48698","3.2680000000000002","21.23","6.272","36.45","NAN","NAN","NAN","NAN","NAN"],
    [1547709,"2026-04-02 16:30:00","48699","3.951","75.52","7.644","78.62","NAN","NAN","NAN","NAN","NAN"],
    [1547710,"2026-04-02 16:40:00","48700","5.0169999999999995","75.91","8.04","82","NAN","NAN","NAN","NAN","NAN"],
    [1547711,"2026-04-02 16:50:00","48701","5.51","77.54","8.23","65.91","NAN","NAN","NAN","NAN","NAN"],
    [1547712,"2026-04-02 17:00:00","48702","3.53","75.62","6.076","70.74","NAN","NAN","NAN","NAN","NAN"],
    [1547713,"2026-04-02 17:10:00","48703","3.112","64.67","6.435","50.85","NAN","NAN","NAN","NAN","NAN"],
    [1547714,"2026-04-02 17:20:00","48704","2.6060000000000003","62.02","5.978","75.13","NAN","NAN","NAN","NAN","NAN"],
    [1547715,"2026-04-02 17:30:00","48705","3.49","62.99","6.533","71.17","NAN","NAN","NAN","NAN","NAN"],
    [1547716,"2026-04-02 17:40:00","48706","2.559","62.5","5.913","58.79","NAN","NAN","NAN","NAN","NAN"],
    [1547717,"2026-04-02 17:50:00","48707","2.391","65.93","6.403","65.57","NAN","NAN","NAN","NAN","NAN"],
    [1547718,"2026-04-02 18:00:00","48708","2.673","59.2","5.259","78.13","NAN","NAN","NAN","NAN","NAN"],
    [1547719,"2026-04-02 18:10:00","48709","2.339","60.12","5.553","49.21","NAN","NAN","NAN","NAN","NAN"],
    [1547720,"2026-04-02 18:20:00","48710","2.397","58.17","5.586","65.61","NAN","NAN","NAN","NAN","NAN"],
    [1547721,"2026-04-02 18:30:00","48711","2.5839999999999996","50.01","5.292","42.31","NAN","NAN","NAN","NAN","NAN"],
    [1547722,"2026-04-02 18:40:00","48712","2.6","71.24","5.259","73.93","NAN","NAN","NAN","NAN","NAN"],
    [1547723,"2026-04-02 18:50:00","48713","3.8760000000000003","75.35","5.521","76.92","NAN","NAN","NAN","NAN","NAN"],
    [1547724,"2026-04-02 19:00:00","48714","4.013","74.65","5.521","78.95","NAN","NAN","NAN","NAN","NAN"],
    [1547725,"2026-04-02 19:10:00","48715","2.846","77.4","5.031","72.77","NAN","NAN","NAN","NAN","NAN"],
    [1547726,"2026-04-02 19:20:00","48716","1.058","73.95","4.214","65.28","NAN","NAN","NAN","NAN","NAN"],
    [1547727,"2026-04-02 19:30:00","48717","1.548","72.28","2.711","69.13","NAN","NAN","NAN","NAN","NAN"],
    [1547728,"2026-04-02 19:40:00","48718","1.67","76.09","2.907","75.62","NAN","NAN","NAN","NAN","NAN"],
    [1547729,"2026-04-02 19:50:00","48719","0.441","72.5","2.091","70.86","NAN","NAN","NAN","NAN","NAN"],
    [1547730,"2026-04-02 20:00:00","48720","0.687","69.59","1.862","72.01","NAN","NAN","NAN","NAN","NAN"],
    [1547731,"2026-04-02 20:10:00","48721","0.231","69.55","1.111","72.34","NAN","NAN","NAN","NAN","NAN"],
    [1547732,"2026-04-02 20:20:00","48722","1.0","66.14","2.091","69.7","NAN","NAN","NAN","NAN","NAN"],
    [1547733,"2026-04-02 20:30:00","48723","2.244","75.05","3.103","76.57","NAN","NAN","NAN","NAN","NAN"],
    [1547734,"2026-04-02 20:40:00","48724","0.602","69.42","2.515","74.37","NAN","NAN","NAN","NAN","NAN"],
    [1547735,"2026-04-02 20:50:00","48725","0.24","67.81","1.176","67.51","NAN","NAN","NAN","NAN","NAN"],
    [1547736,"2026-04-02 21:00:00","48726","0.341","65.87","1.47","65.59","NAN","NAN","NAN","NAN","NAN"],
    [1547737,"2026-04-02 21:10:00","48727","0.047","64.47","0.457","64.48","NAN","NAN","NAN","NAN","NAN"],
    [1547738,"2026-04-02 21:20:00","48728","0.024","64.45","0.359","64.44","NAN","NAN","NAN","NAN","NAN"],
    [1547739,"2026-04-02 21:30:00","48729","0.0","0.0","0","0","NAN","NAN","NAN","NAN","NAN"],
    [1547740,"2026-04-02 21:40:00","48730","0.0","0.0","0","0","NAN","NAN","NAN","NAN","NAN"],
    [1547741,"2026-04-02 21:50:00","48731","0.0","0.0","0","0","NAN","NAN","NAN","NAN","NAN"],
    [1547742,"2026-04-02 22:00:00","48732","0.0","0.0","0","0","NAN","NAN","NAN","NAN","NAN"],
    [1547743,"2026-04-02 22:10:00","48733","0.0","0.0","0","0","NAN","NAN","NAN","NAN","NAN"],
    [1547744,"2026-04-02 22:20:00","48734","0.33299999999999996","64.29","0.817","64.27","NAN","NAN","NAN","NAN","NAN"],
    [1547745,"2026-04-02 22:30:00","48735","0.535","64.22","0.98","64.25","NAN","NAN","NAN","NAN","NAN"],
    [1547746,"2026-04-02 22:40:00","48736","0.763","64.07","1.274","63.96","NAN","NAN","NAN","NAN","NAN"],
    [1547747,"2026-04-02 22:50:00","48737","0.24","63.95","1.111","63.94","NAN","NAN","NAN","NAN","NAN"],
    [1547748,"2026-04-02 23:00:00","48738","0.599","63.86","1.339","63.87","NAN","NAN","NAN","NAN","NAN"],
    [1547749,"2026-04-02 23:10:00","48739","0.8","63.35","1.372","63.38","NAN","NAN","NAN","NAN","NAN"],
    [1547750,"2026-04-02 23:20:00","48740","0.6829999999999999","63.2","1.372","63.19","NAN","NAN","NAN","NAN","NAN"],
    [1547751,"2026-04-02 23:30:00","48741","1.104","63.12","1.731","63.09","NAN","NAN","NAN","NAN","NAN"],
    [1547752,"2026-04-02 23:40:00","48742","1.02","62.98","1.601","63","NAN","NAN","NAN","NAN","NAN"],
    [1547753,"2026-04-02 23:50:00","48743","0.51","62.92","1.111","62.94","NAN","NAN","NAN","NAN","NAN"],
    [1547754,"2026-04-03 00:00:00","48744","0.026000000000000002","62.9","0.294","62.9","NAN","NAN","NAN","NAN","NAN"],
    [1547755,"2026-04-03 00:10:00","48745","0.35100000000000003","62.63","1.078","62.65","NAN","NAN","NAN","NAN","NAN"],
    [1547756,"2026-04-03 00:20:00","48746","0.287","62.47","0.817","62.32","NAN","NAN","NAN","NAN","NAN"],
    [1547757,"2026-04-03 00:30:00","48747","0.473","56.34","1.176","60.01","NAN","NAN","NAN","NAN","NAN"],
    [1547758,"2026-04-03 00:40:00","48748","0.08199999999999999","30.64","0.751","23.05","NAN","NAN","NAN","NAN","NAN"],
    [1547759,"2026-04-03 00:50:00","48749","0.012","22.79","0.294","22.76","NAN","NAN","NAN","NAN","NAN"],
    [1547760,"2026-04-03 01:00:00","48750","0.0","22.76","0.033","22.76","NAN","NAN","NAN","NAN","NAN"],
    [1547761,"2026-04-03 01:10:00","48751","0.006","22.39","0.261","22.47","NAN","NAN","NAN","NAN","NAN"],
    [1547762,"2026-04-03 01:20:00","48752","1.656","337.8","3.201","329.7","NAN","NAN","NAN","NAN","NAN"],
    [1547763,"2026-04-03 01:30:00","48753","1.699","313.5","3.103","313.4","NAN","NAN","NAN","NAN","NAN"],
    [1547764,"2026-04-03 01:40:00","48754","0.441","313.4","1.568","313.4","NAN","NAN","NAN","NAN","NAN"],
    [1547765,"2026-04-03 01:50:00","48755","0.0","0.0","0","0","NAN","NAN","NAN","NAN","NAN"],
    [1547766,"2026-04-03 02:00:00","48756","0.023","313.4","0.327","313.4","NAN","NAN","NAN","NAN","NAN"],
    [1547767,"2026-04-03 02:10:00","48757","0.004","313.3","0.196","313.3","NAN","NAN","NAN","NAN","NAN"],
    [1547768,"2026-04-03 02:20:00","48758","0.0","0.0","0","0","NAN","NAN","NAN","NAN","NAN"],
    [1547769,"2026-04-03 02:30:00","48759","0.0","0.0","0","0","NAN","NAN","NAN","NAN","NAN"],
    [1547770,"2026-04-03 02:40:00","48760","0.0","0.0","0","0","NAN","NAN","NAN","NAN","NAN"],
    [1547771,"2026-04-03 02:50:00","48761","0.364","313.3","1.405","313.3","NAN","NAN","NAN","NAN","NAN"],
    [1547772,"2026-04-03 03:00:00","48762","1.177","313.4","2.221","313.3","NAN","NAN","NAN","NAN","NAN"],
    [1547773,"2026-04-03 03:10:00","48763","0.57","314.5","1.96","313.3","NAN","NAN","NAN","NAN","NAN"],
    [1547774,"2026-04-03 03:20:00","48764","0.08","315.9","1.372","317.3","NAN","NAN","NAN","NAN","NAN"],
    [1547775,"2026-04-03 03:30:00","48765","1.642","314.3","2.842","316.2","NAN","NAN","NAN","NAN","NAN"],
    [1547776,"2026-04-03 03:40:00","48766","0.675","314.5","2.058","317.5","NAN","NAN","NAN","NAN","NAN"],
    [1547777,"2026-04-03 03:50:00","48767","0.027999999999999997","313.1","0.523","313.1","NAN","NAN","NAN","NAN","NAN"],
    [1547778,"2026-04-03 04:00:00","48768","0.955","313.4","2.581","314.3","NAN","NAN","NAN","NAN","NAN"],
    [1547779,"2026-04-03 04:10:00","48769","2.14","312.9","3.267","312.3","NAN","NAN","NAN","NAN","NAN"],
    [1547780,"2026-04-03 04:20:00","48770","2.339","310.9","3.822","305.7","NAN","NAN","NAN","NAN","NAN"],
    [1547781,"2026-04-03 04:30:00","48771","2.425","307.3","3.757","307.1","NAN","NAN","NAN","NAN","NAN"],
    [1547782,"2026-04-03 04:40:00","48772","1.9180000000000001","302.4","3.43","301.3","NAN","NAN","NAN","NAN","NAN"],
    [1547783,"2026-04-03 04:50:00","48773","2.7119999999999997","304.2","4.018","305.3","NAN","NAN","NAN","NAN","NAN"],
    [1547784,"2026-04-03 05:00:00","48774","3.075","309.0","4.443","306.4","NAN","NAN","NAN","NAN","NAN"],
    [1547785,"2026-04-03 05:10:00","48775","3.84","307.7","5.651","325.5","NAN","NAN","NAN","NAN","NAN"],
    [1547786,"2026-04-03 05:20:00","48776","3.5","309.4","6.076","311.1","NAN","NAN","NAN","NAN","NAN"],
    [1547787,"2026-04-03 05:30:00","48777","3.1189999999999998","312.8","5.717","323.1","NAN","NAN","NAN","NAN","NAN"],
    [1547788,"2026-04-03 05:40:00","48778","3.406","313.9","6.403","317.4","NAN","NAN","NAN","NAN","NAN"],
    [1547789,"2026-04-03 05:50:00","48779","4.178999999999999","314.1","6.86","321.4","NAN","NAN","NAN","NAN","NAN"],
    [1547790,"2026-04-03 06:00:00","48780","3.648","314.8","6.533","328.2","NAN","NAN","NAN","NAN","NAN"],
    [1547791,"2026-04-03 06:10:00","48781","3.1910000000000003","320.1","5.39","330.4","NAN","NAN","NAN","NAN","NAN"],
    [1547792,"2026-04-03 06:20:00","48782","2.84","321.7","4.769","343.5","NAN","NAN","NAN","NAN","NAN"],
    [1547793,"2026-04-03 06:30:00","48783","2.925","326.2","4.214","331.1","NAN","NAN","NAN","NAN","NAN"],
    [1547794,"2026-04-03 06:40:00","48784","2.275","318.7","3.953","332.6","NAN","NAN","NAN","NAN","NAN"],
    [1547795,"2026-04-03 06:50:00","48785","3.4419999999999997","316.3","5.847","317.7","NAN","NAN","NAN","NAN","NAN"],
    [1547796,"2026-04-03 07:00:00","48786","2.7560000000000002","309.0","4.933","313.4","NAN","NAN","NAN","NAN","NAN"],
    [1547797,"2026-04-03 07:10:00","48787","2.521","308.3","4.443","305.5","NAN","NAN","NAN","NAN","NAN"],
    [1547798,"2026-04-03 07:20:00","48788","1.7919999999999998","307.9","3.593","296.2","NAN","NAN","NAN","NAN","NAN"],
    [1547799,"2026-04-03 07:30:00","48789","2.522","303.5","3.659","294.6","NAN","NAN","NAN","NAN","NAN"],
    [1547800,"2026-04-03 07:40:00","48790","3.18","305.7","5.619","304.9","NAN","NAN","NAN","NAN","NAN"],
    [1547801,"2026-04-03 07:50:00","48791","2.977","300.9","4.835","294.3","NAN","NAN","NAN","NAN","NAN"],
    [1547802,"2026-04-03 08:00:00","48792","2.575","308.8","4.345","315.8","NAN","NAN","NAN","NAN","NAN"],
    [1547803,"2026-04-03 08:10:00","48793","2.217","309.3","3.887","327.5","NAN","NAN","NAN","NAN","NAN"],
    [1547804,"2026-04-03 08:20:00","48794","2.807","304.3","4.247","312.8","NAN","NAN","NAN","NAN","NAN"],
    [1547805,"2026-04-03 08:30:00","48795","2.21","297.9","3.724","301.4","NAN","NAN","NAN","NAN","NAN"],
    [1547806,"2026-04-03 08:40:00","48796","2.47","290.3","3.724","289.6","NAN","NAN","NAN","NAN","NAN"],
    [1547807,"2026-04-03 08:50:00","48797","1.641","290.2","2.94","300.4","NAN","NAN","NAN","NAN","NAN"],
    [1547808,"2026-04-03 09:00:00","48798","3.0660000000000003","296.0","4.998","293","NAN","NAN","NAN","NAN","NAN"],
    [1547809,"2026-04-03 09:10:00","48799","2.1069999999999998","303.2","3.691","299.5","NAN","NAN","NAN","NAN","NAN"],
    [1547810,"2026-04-03 09:20:00","48800","2.91","300.2","5.488","305.6","NAN","NAN","NAN","NAN","NAN"],
    [1547811,"2026-04-03 09:30:00","48801","3.214","305.2","5.978","311.1","NAN","NAN","NAN","NAN","NAN"],
    [1547812,"2026-04-03 09:40:00","48802","2.792","312.1","5.455","316.2","NAN","NAN","NAN","NAN","NAN"],
    [1547813,"2026-04-03 09:50:00","48803","1.794","278.1","3.953","260.6","NAN","NAN","NAN","NAN","NAN"],
    [1547814,"2026-04-03 10:00:00","48804","2.332","259.7","5.031","249.9","NAN","NAN","NAN","NAN","NAN"],
    [1547815,"2026-04-03 10:10:00","48805","2.351","212.3","4.835","210.6","NAN","NAN","NAN","NAN","NAN"],
    [1547816,"2026-04-03 10:20:00","48806","3.758","205.9","6.011","213.4","NAN","NAN","NAN","NAN","NAN"],
    [1547817,"2026-04-03 10:30:00","48807","3.237","207.0","5.031","206.4","NAN","NAN","NAN","NAN","NAN"],
    [1547818,"2026-04-03 10:40:00","48808","3.054","198.3","5.129","206","NAN","NAN","NAN","NAN","NAN"],
    [1547819,"2026-04-03 10:50:00","48809","3.6860000000000004","207.8","5.815","216.3","NAN","NAN","NAN","NAN","NAN"],
    [1547820,"2026-04-03 11:00:00","48810","4.17","206.7","6.337","209.1","NAN","NAN","NAN","NAN","NAN"],
    [1547821,"2026-04-03 11:10:00","48811","4.033","205.8","5.913","210.6","NAN","NAN","NAN","NAN","NAN"],
    [1547822,"2026-04-03 11:20:00","48812","3.701","201.3","5.749","178.7","NAN","NAN","NAN","NAN","NAN"],
    [1547823,"2026-04-03 11:30:00","48813","4.5","211.8","7.317","205.9","NAN","NAN","NAN","NAN","NAN"],
    [1547824,"2026-04-03 11:40:00","48814","3.735","216.8","6.043","228.6","NAN","NAN","NAN","NAN","NAN"],
    [1547825,"2026-04-03 11:50:00","48815","4.105","204.6","6.893","211.4","NAN","NAN","NAN","NAN","NAN"],
    [1547826,"2026-04-03 12:00:00","48816","3.2119999999999997","203.7","6.305","219.4","NAN","NAN","NAN","NAN","NAN"],
    [1547827,"2026-04-03 12:10:00","48817","3.49","197.1","6.174","168.3","NAN","NAN","NAN","NAN","NAN"],
    [1547828,"2026-04-03 12:20:00","48818","3.4410000000000003","210.4","6.109","206.5","NAN","NAN","NAN","NAN","NAN"],
    [1547829,"2026-04-03 12:30:00","48819","3.2889999999999997","193.6","5.717","226.6","NAN","NAN","NAN","NAN","NAN"],
    [1547830,"2026-04-03 12:40:00","48820","4.198","210.5","6.664","209.4","NAN","NAN","NAN","NAN","NAN"],
    [1547831,"2026-04-03 12:50:00","48821","4.321000000000001","215.3","6.86","209.8","NAN","NAN","NAN","NAN","NAN"],
    [1547832,"2026-04-03 13:00:00","48822","3.6839999999999997","209.5","6.076","234.5","NAN","NAN","NAN","NAN","NAN"],
    [1547833,"2026-04-03 13:10:00","48823","3.335","191.4","5.717","167.1","NAN","NAN","NAN","NAN","NAN"],
    [1547834,"2026-04-03 13:20:00","48824","3.863","210.2","6.631","209","NAN","NAN","NAN","NAN","NAN"],
    [1547835,"2026-04-03 13:30:00","48825","3.245","194.9","5.423","216.1","NAN","NAN","NAN","NAN","NAN"],
    [1547836,"2026-04-03 13:40:00","48826","3.532","197.0","5.945","214.2","NAN","NAN","NAN","NAN","NAN"],
    [1547837,"2026-04-03 13:50:00","48827","3.253","205.5","6.403","210.8","NAN","NAN","NAN","NAN","NAN"],
    [1547838,"2026-04-03 14:00:00","48828","3.992","204.6","6.697","218.8","NAN","NAN","NAN","NAN","NAN"],
    [1547839,"2026-04-03 14:10:00","48829","3.7110000000000003","183.7","7.285","173.5","NAN","NAN","NAN","NAN","NAN"],
    [1547840,"2026-04-03 14:20:00","48830","2.7289999999999996","193.1","5.357","175.2","NAN","NAN","NAN","NAN","NAN"],
    [1547841,"2026-04-03 14:30:00","48831","2.656","178.8","5.521","172.2","NAN","NAN","NAN","NAN","NAN"],
    [1547842,"2026-04-03 14:40:00","48832","3.8930000000000002","171.6","6.468","165.5","NAN","NAN","NAN","NAN","NAN"],
    [1547843,"2026-04-03 14:50:00","48833","3.87","171.6","5.815","167.5","NAN","NAN","NAN","NAN","NAN"],
    [1547844,"2026-04-03 15:00:00","48834","2.988","181.9","5.782","197.2","NAN","NAN","NAN","NAN","NAN"],
    [1547845,"2026-04-03 15:10:00","48835","3.77","174.2","6.435","188.3","NAN","NAN","NAN","NAN","NAN"],
    [1547846,"2026-04-03 15:20:00","48836","3.7569999999999997","171.9","6.305","174.3","NAN","NAN","NAN","NAN","NAN"],
    [1547847,"2026-04-03 15:30:00","48837","3.55","171.0","5.684","188.2","NAN","NAN","NAN","NAN","NAN"],
    [1547848,"2026-04-03 15:40:00","48838","3.411","167.7","5.619","173.7","NAN","NAN","NAN","NAN","NAN"],
    [1547849,"2026-04-03 15:50:00","48839","3.5580000000000003","160.0","5.782","140.1","NAN","NAN","NAN","NAN","NAN"],
    [1547850,"2026-04-03 16:00:00","48840","3.536","154.6","5.651","138.6","NAN","NAN","NAN","NAN","NAN"],
    [1547851,"2026-04-03 16:10:00","48841","3.6860000000000004","152.7","5.227","135.1","NAN","NAN","NAN","NAN","NAN"],
    [1547852,"2026-04-03 16:20:00","48842","3.449","142.5","5.651","143.1","NAN","NAN","NAN","NAN","NAN"],
    [1547853,"2026-04-03 16:30:00","48843","3.2510000000000003","158.8","6.043","148","NAN","NAN","NAN","NAN","NAN"],
    [1547854,"2026-04-03 16:40:00","48844","3.2880000000000003","157.9","4.9","150.2","NAN","NAN","NAN","NAN","NAN"],
    [1547855,"2026-04-03 16:50:00","48845","3.569","149.9","4.965","140.8","NAN","NAN","NAN","NAN","NAN"],
    [1547856,"2026-04-03 17:00:00","48846","3.3169999999999997","147.0","5.39","139.9","NAN","NAN","NAN","NAN","NAN"],
    [1547857,"2026-04-03 17:10:00","48847","3.048","156.4","4.835","128.4","NAN","NAN","NAN","NAN","NAN"],
    [1547858,"2026-04-03 17:20:00","48848","3.1310000000000002","158.7","4.867","163.6","NAN","NAN","NAN","NAN","NAN"],
    [1547859,"2026-04-03 17:30:00","48849","2.983","156.7","5.619","157.1","NAN","NAN","NAN","NAN","NAN"],
    [1547860,"2026-04-03 17:40:00","48850","3.509","165.9","4.933","169","NAN","NAN","NAN","NAN","NAN"],
    [1547861,"2026-04-03 17:50:00","48851","2.92","168.8","5.194","161.8","NAN","NAN","NAN","NAN","NAN"],
    [1547862,"2026-04-03 18:00:00","48852","2.475","167.7","4.508","156.9","NAN","NAN","NAN","NAN","NAN"],
    [1547863,"2026-04-03 18:10:00","48853","2.5140000000000002","172.4","4.377","169.8","NAN","NAN","NAN","NAN","NAN"],
    [1547864,"2026-04-03 18:20:00","48854","1.925","184.6","3.691","206.6","NAN","NAN","NAN","NAN","NAN"],
    [1547865,"2026-04-03 18:30:00","48855","2.94","208.8","5.031","207.4","NAN","NAN","NAN","NAN","NAN"],
    [1547866,"2026-04-03 18:40:00","48856","2.094","210.5","4.279","217.6","NAN","NAN","NAN","NAN","NAN"],
    [1547867,"2026-04-03 18:50:00","48857","2.245","208.4","4.247","209.7","NAN","NAN","NAN","NAN","NAN"],
    [1547868,"2026-04-03 19:00:00","48858","2.696","207.0","4.475","207.6","NAN","NAN","NAN","NAN","NAN"],
    [1547869,"2026-04-03 19:10:00","48859","2.6319999999999997","204.6","4.083","215.8","NAN","NAN","NAN","NAN","NAN"],
    [1547870,"2026-04-03 19:20:00","48860","2.907","205.3","4.9","215.5","NAN","NAN","NAN","NAN","NAN"],
    [1547871,"2026-04-03 19:30:00","48861","2.536","212.0","4.279","214.3","NAN","NAN","NAN","NAN","NAN"],
    [1547872,"2026-04-03 19:40:00","48862","2.306","211.8","4.116","209","NAN","NAN","NAN","NAN","NAN"],
    [1547873,"2026-04-03 19:50:00","48863","2.504","209.0","4.443","213.6","NAN","NAN","NAN","NAN","NAN"],
    [1547874,"2026-04-03 20:00:00","48864","2.595","211.0","4.149","208.5","NAN","NAN","NAN","NAN","NAN"],
    [1547875,"2026-04-03 20:10:00","48865","2.418","210.6","4.377","198.4","NAN","NAN","NAN","NAN","NAN"],
    [1547876,"2026-04-03 20:20:00","48866","2.509","213.8","3.593","220.1","NAN","NAN","NAN","NAN","NAN"],
    [1547877,"2026-04-03 20:30:00","48867","2.0580000000000003","211.8","3.43","209.8","NAN","NAN","NAN","NAN","NAN"],
    [1547878,"2026-04-03 20:40:00","48868","1.7930000000000001","217.5","3.397","212.4","NAN","NAN","NAN","NAN","NAN"],
    [1547879,"2026-04-03 20:50:00","48869","1.4340000000000002","219.3","3.299","211.6","NAN","NAN","NAN","NAN","NAN"],
    [1547880,"2026-04-03 21:00:00","48870","1.416","219.8","2.94","214","NAN","NAN","NAN","NAN","NAN"],
    [1547881,"2026-04-03 21:10:00","48871","1.485","217.0","3.397","209.4","NAN","NAN","NAN","NAN","NAN"],
    [1547882,"2026-04-03 21:20:00","48872","1.8330000000000002","209.9","3.005","219.8","NAN","NAN","NAN","NAN","NAN"],
    [1547883,"2026-04-03 21:30:00","48873","1.604","206.1","2.613","204.7","NAN","NAN","NAN","NAN","NAN"],
    [1547884,"2026-04-03 21:40:00","48874","2.024","208.8","3.071","215.1","NAN","NAN","NAN","NAN","NAN"],
    [1547885,"2026-04-03 21:50:00","48875","1.246","207.5","3.103","214.1","NAN","NAN","NAN","NAN","NAN"],
    [1547886,"2026-04-03 22:00:00","48876","1.446","205.2","2.515","207.5","NAN","NAN","NAN","NAN","NAN"],
    [1547887,"2026-04-03 22:10:00","48877","1.47","206.7","2.613","210.5","NAN","NAN","NAN","NAN","NAN"],
    [1547888,"2026-04-03 22:20:00","48878","0.915","215.3","2.352","219.9","NAN","NAN","NAN","NAN","NAN"],
    [1547889,"2026-04-03 22:30:00","48879","1.368","226.2","2.581","226.1","NAN","NAN","NAN","NAN","NAN"],
    [1547890,"2026-04-03 22:40:00","48880","0.9640000000000001","227.3","1.927","227.3","NAN","NAN","NAN","NAN","NAN"],
    [1547891,"2026-04-03 22:50:00","48881","0.8959999999999999","227.4","1.927","227.4","NAN","NAN","NAN","NAN","NAN"],
    [1547892,"2026-04-03 23:00:00","48882","0.053","227.7","0.588","227.7","NAN","NAN","NAN","NAN","NAN"],
    [1547893,"2026-04-03 23:10:00","48883","0.049","227.7","0.588","227.7","NAN","NAN","NAN","NAN","NAN"],
    [1547894,"2026-04-03 23:20:00","48884","0.209","227.7","1.143","227.7","NAN","NAN","NAN","NAN","NAN"],
    [1547895,"2026-04-03 23:30:00","48885","0.449","227.7","1.176","227.7","NAN","NAN","NAN","NAN","NAN"],
    [1547896,"2026-04-03 23:40:00","48886","0.7879999999999999","227.7","1.307","227.7","NAN","NAN","NAN","NAN","NAN"],
    [1547897,"2026-04-03 23:50:00","48887","1.198","231.6","2.254","232.7","NAN","NAN","NAN","NAN","NAN"],
    [1547898,"2026-04-04 00:00:00","48888","0.932","235.2","2.091","235.2","NAN","NAN","NAN","NAN","NAN"],
    [1547899,"2026-04-04 00:10:00","48889","0.9590000000000001","235.2","1.829","235.3","NAN","NAN","NAN","NAN","NAN"],
    [1547900,"2026-04-04 00:20:00","48890","0.639","235.3","1.797","235.3","NAN","NAN","NAN","NAN","NAN"],
    [1547901,"2026-04-04 00:30:00","48891","0.978","237.6","1.993","235.4","NAN","NAN","NAN","NAN","NAN"],
    [1547902,"2026-04-04 00:40:00","48892","1.339","245.1","2.515","247.7","NAN","NAN","NAN","NAN","NAN"],
    [1547903,"2026-04-04 00:50:00","48893","1.2229999999999999","247.8","2.221","247.8","NAN","NAN","NAN","NAN","NAN"],
    [1547904,"2026-04-04 01:00:00","48894","1.3840000000000001","252.1","3.005","275.6","NAN","NAN","NAN","NAN","NAN"],
    [1547905,"2026-04-04 01:10:00","48895","1.81","276.3","2.973","276.3","NAN","NAN","NAN","NAN","NAN"],
    [1547906,"2026-04-04 01:20:00","48896","1.9340000000000002","275.5","3.005","272.6","NAN","NAN","NAN","NAN","NAN"],
    [1547907,"2026-04-04 01:30:00","48897","1.808","274.0","2.809","269.6","NAN","NAN","NAN","NAN","NAN"],
    [1547908,"2026-04-04 01:40:00","48898","2.004","276.7","3.038","277","NAN","NAN","NAN","NAN","NAN"],
    [1547909,"2026-04-04 01:50:00","48899","1.453","275.8","2.45","277.2","NAN","NAN","NAN","NAN","NAN"],
    [1547910,"2026-04-04 02:00:00","48900","1.847","274.6","3.169","269.2","NAN","NAN","NAN","NAN","NAN"],
    [1547911,"2026-04-04 02:10:00","48901","1.375","277.6","2.679","278","NAN","NAN","NAN","NAN","NAN"],
    [1547912,"2026-04-04 02:20:00","48902","1.413","274.1","2.613","278.1","NAN","NAN","NAN","NAN","NAN"],
    [1547913,"2026-04-04 02:30:00","48903","1.2109999999999999","277.6","2.352","279.1","NAN","NAN","NAN","NAN","NAN"],
    [1547914,"2026-04-04 02:40:00","48904","0.179","279.2","1.307","279.3","NAN","NAN","NAN","NAN","NAN"],
    [1547915,"2026-04-04 02:50:00","48905","0.39799999999999996","275.4","1.47","272.3","NAN","NAN","NAN","NAN","NAN"],
    [1547916,"2026-04-04 03:00:00","48906","1.1909999999999998","270.3","1.764","272","NAN","NAN","NAN","NAN","NAN"],
    [1547917,"2026-04-04 03:10:00","48907","1.0759999999999998","272.6","2.189","274.5","NAN","NAN","NAN","NAN","NAN"],
    [1547918,"2026-04-04 03:20:00","48908","1.422","275.9","2.646","276.2","NAN","NAN","NAN","NAN","NAN"],
    [1547919,"2026-04-04 03:30:00","48909","0.371","274.6","1.568","268.9","NAN","NAN","NAN","NAN","NAN"],
    [1547920,"2026-04-04 03:40:00","48910","0.995","268.5","2.45","267.9","NAN","NAN","NAN","NAN","NAN"],
    [1547921,"2026-04-04 03:50:00","48911","0.591","268.6","1.339","267.8","NAN","NAN","NAN","NAN","NAN"],
    [1547922,"2026-04-04 04:00:00","48912","0.5489999999999999","268.3","1.862","267.9","NAN","NAN","NAN","NAN","NAN"],
    [1547923,"2026-04-04 04:10:00","48913","0.0","0.0","0","0","NAN","NAN","NAN","NAN","NAN"],
    [1547924,"2026-04-04 04:20:00","48914","0.0","0.0","0","0","NAN","NAN","NAN","NAN","NAN"],
    [1547925,"2026-04-04 04:30:00","48915","0.002","272.1","0.131","272.1","NAN","NAN","NAN","NAN","NAN"],
    [1547926,"2026-04-04 04:40:00","48916","0.205","269.5","0.817","267.7","NAN","NAN","NAN","NAN","NAN"],
    [1547927,"2026-04-04 04:50:00","48917","0.221","267.5","1.111","267.4","NAN","NAN","NAN","NAN","NAN"],
    [1547928,"2026-04-04 05:00:00","48918","0.431","267.4","1.111","267.4","NAN","NAN","NAN","NAN","NAN"],
    [1547929,"2026-04-04 05:10:00","48919","0.366","267.2","1.503","267.3","NAN","NAN","NAN","NAN","NAN"],
    [1547930,"2026-04-04 05:20:00","48920","0.053","266.7","0.751","266.6","NAN","NAN","NAN","NAN","NAN"],
    [1547931,"2026-04-04 05:30:00","48921","0.049","266.5","0.719","266.4","NAN","NAN","NAN","NAN","NAN"],
    [1547932,"2026-04-04 05:40:00","48922","0.0","0.0","0","0","NAN","NAN","NAN","NAN","NAN"],
    [1547933,"2026-04-04 05:50:00","48923","0.0","0.0","0","0","NAN","NAN","NAN","NAN","NAN"],
    [1547934,"2026-04-04 06:00:00","48924","0.243","266.8","0.784","266.8","NAN","NAN","NAN","NAN","NAN"],
    [1547935,"2026-04-04 06:10:00","48925","0.0","0.0","0","0","NAN","NAN","NAN","NAN","NAN"],
    [1547936,"2026-04-04 06:20:00","48926","0.067","274.6","0.555","273.9","NAN","NAN","NAN","NAN","NAN"],
    [1547937,"2026-04-04 06:30:00","48927","0.0","0.0","0","0","NAN","NAN","NAN","NAN","NAN"],
    [1547938,"2026-04-04 06:40:00","48928","0.13","278.2","0.621","278.2","NAN","NAN","NAN","NAN","NAN"],
    [1547939,"2026-04-04 06:50:00","48929","0.018000000000000002","277.8","0.457","278","NAN","NAN","NAN","NAN","NAN"],
    [1547940,"2026-04-04 07:00:00","48930","0.006","278.1","0.294","278.2","NAN","NAN","NAN","NAN","NAN"],
    [1547941,"2026-04-04 07:10:00","48931","0.0","0.0","0","0","NAN","NAN","NAN","NAN","NAN"],
    [1547942,"2026-04-04 07:20:00","48932","0.068","268.3","1.764","270.1","NAN","NAN","NAN","NAN","NAN"],
    [1547943,"2026-04-04 07:30:00","48933","1.0","272.6","1.96","266.7","NAN","NAN","NAN","NAN","NAN"],
    [1547944,"2026-04-04 07:40:00","48934","0.633","278.6","1.895","278.8","NAN","NAN","NAN","NAN","NAN"],
    [1547945,"2026-04-04 07:50:00","48935","0.011000000000000001","278.9","0.359","278.9","NAN","NAN","NAN","NAN","NAN"],
    [1547946,"2026-04-04 08:00:00","48936","0.218","266.2","1.143","265.3","NAN","NAN","NAN","NAN","NAN"],
    [1547947,"2026-04-04 08:10:00","48937","0.8190000000000001","253.8","1.633","251.3","NAN","NAN","NAN","NAN","NAN"],
    [1547948,"2026-04-04 08:20:00","48938","0.655","248.6","1.111","248.9","NAN","NAN","NAN","NAN","NAN"],
    [1547949,"2026-04-04 08:30:00","48939","1.014","207.7","2.417","141.1","NAN","NAN","NAN","NAN","NAN"],
    [1547950,"2026-04-04 08:40:00","48940","2.085","135.7","3.626","141.5","NAN","NAN","NAN","NAN","NAN"],
    [1547951,"2026-04-04 08:50:00","48941","1.1079999999999999","121.9","1.927","121.9","NAN","NAN","NAN","NAN","NAN"],
    [1547952,"2026-04-04 09:00:00","48942","1.28","122.5","2.025","122","NAN","NAN","NAN","NAN","NAN"],
    [1547953,"2026-04-04 09:10:00","48943","1.919","128.4","3.169","138.1","NAN","NAN","NAN","NAN","NAN"],
    [1547954,"2026-04-04 09:20:00","48944","1.758","129.0","3.005","140.7","NAN","NAN","NAN","NAN","NAN"],
    [1547955,"2026-04-04 09:30:00","48945","2.475","134.6","4.083","144.1","NAN","NAN","NAN","NAN","NAN"],
    [1547956,"2026-04-04 09:40:00","48946","2.785","143.1","3.855","147.1","NAN","NAN","NAN","NAN","NAN"],
    [1547957,"2026-04-04 09:50:00","48947","3.091","142.5","4.214","128.6","NAN","NAN","NAN","NAN","NAN"],
    [1547958,"2026-04-04 10:00:00","48948","2.63","156.5","4.671","264.5","NAN","NAN","NAN","NAN","NAN"],
    [1547959,"2026-04-04 10:10:00","48949","2.911","239.7","5.553","222.9","NAN","NAN","NAN","NAN","NAN"],
    [1547960,"2026-04-04 10:20:00","48950","3.7230000000000003","239.5","6.174","216.3","NAN","NAN","NAN","NAN","NAN"],
    [1547961,"2026-04-04 10:30:00","48951","3.577","226.9","6.076","213.9","NAN","NAN","NAN","NAN","NAN"],
    [1547962,"2026-04-04 10:40:00","48952","3.225","225.5","6.631","221.9","NAN","NAN","NAN","NAN","NAN"],
    [1547963,"2026-04-04 10:50:00","48953","3.7260000000000004","206.6","5.717","210.9","NAN","NAN","NAN","NAN","NAN"],
    [1547964,"2026-04-04 11:00:00","48954","3.5069999999999997","222.8","5.096","237.5","NAN","NAN","NAN","NAN","NAN"],
    [1547965,"2026-04-04 11:10:00","48955","3.5","220.7","5.913","208.5","NAN","NAN","NAN","NAN","NAN"],
    [1547966,"2026-04-04 11:20:00","48956","4.765","207.2","6.762","206","NAN","NAN","NAN","NAN","NAN"],
    [1547967,"2026-04-04 11:30:00","48957","3.625","211.1","6.37","207.2","NAN","NAN","NAN","NAN","NAN"],
    [1547968,"2026-04-04 11:40:00","48958","3.625","210.0","7.35","212.7","NAN","NAN","NAN","NAN","NAN"],
    [1547969,"2026-04-04 11:50:00","48959","3.543","210.9","5.357","226","NAN","NAN","NAN","NAN","NAN"],
    [1547970,"2026-04-04 12:00:00","48960","3.745","218.0","5.978","210.3","NAN","NAN","NAN","NAN","NAN"],
    [1547971,"2026-04-04 12:10:00","48961","2.7769999999999997","215.9","5.978","198.6","NAN","NAN","NAN","NAN","NAN"],
    [1547972,"2026-04-04 12:20:00","48962","2.728","192.7","5.031","168.9","NAN","NAN","NAN","NAN","NAN"],
    [1547973,"2026-04-04 12:30:00","48963","2.76","198.5","5.227","215.9","NAN","NAN","NAN","NAN","NAN"],
    [1547974,"2026-04-04 12:40:00","48964","2.5540000000000003","191.4","4.312","183.6","NAN","NAN","NAN","NAN","NAN"],
    [1547975,"2026-04-04 12:50:00","48965","3.633","199.0","6.207","214","NAN","NAN","NAN","NAN","NAN"],
    [1547976,"2026-04-04 13:00:00","48966","3.136","209.5","6.468","204.2","NAN","NAN","NAN","NAN","NAN"],
    [1547977,"2026-04-04 13:10:00","48967","3.0660000000000003","196.8","5.096","198.3","NAN","NAN","NAN","NAN","NAN"],
    [1547978,"2026-04-04 13:20:00","48968","2.737","204.9","4.639","198.6","NAN","NAN","NAN","NAN","NAN"],
    [1547979,"2026-04-04 13:30:00","48969","3.264","217.8","5.913","225","NAN","NAN","NAN","NAN","NAN"],
    [1547980,"2026-04-04 13:40:00","48970","3.7569999999999997","220.6","6.011","201.4","NAN","NAN","NAN","NAN","NAN"],
    [1547981,"2026-04-04 13:50:00","48971","3.987","217.1","6.403","222.4","NAN","NAN","NAN","NAN","NAN"],
    [1547982,"2026-04-04 14:00:00","48972","4.353","211.4","6.501","212.1","NAN","NAN","NAN","NAN","NAN"],
    [1547983,"2026-04-04 14:10:00","48973","4.0969999999999995","213.7","6.697","210.5","NAN","NAN","NAN","NAN","NAN"],
    [1547984,"2026-04-04 14:20:00","48974","3.742","217.5","6.893","203.1","NAN","NAN","NAN","NAN","NAN"],
    [1547985,"2026-04-04 14:30:00","48975","4.316","217.1","5.913","200.5","NAN","NAN","NAN","NAN","NAN"],
    [1547986,"2026-04-04 14:40:00","48976","4.41","210.5","6.991","205.1","NAN","NAN","NAN","NAN","NAN"],
    [1547987,"2026-04-04 14:50:00","48977","4.181","214.8","6.533","208.9","NAN","NAN","NAN","NAN","NAN"],
    [1547988,"2026-04-04 15:00:00","48978","3.647","218.8","5.488","216.2","NAN","NAN","NAN","NAN","NAN"],
    [1547989,"2026-04-04 15:10:00","48979","4.0","217.2","6.795","215.8","NAN","NAN","NAN","NAN","NAN"],
    [1547990,"2026-04-04 15:20:00","48980","4.6160000000000005","215.6","7.219","206.8","NAN","NAN","NAN","NAN","NAN"],
    [1547991,"2026-04-04 15:30:00","48981","4.166","211.6","7.121","213.4","NAN","NAN","NAN","NAN","NAN"],
    [1547992,"2026-04-04 15:40:00","48982","4.596","207.7","6.631","212.7","NAN","NAN","NAN","NAN","NAN"],
    [1547993,"2026-04-04 15:50:00","48983","4.137","215.9","7.252","202.9","NAN","NAN","NAN","NAN","NAN"],
    [1547994,"2026-04-04 16:00:00","48984","3.971","220.8","6.533","207.2","NAN","NAN","NAN","NAN","NAN"],
    [1547995,"2026-04-04 16:10:00","48985","3.997","222.4","6.697","197","NAN","NAN","NAN","NAN","NAN"],
    [1547996,"2026-04-04 16:20:00","48986","4.345","225.2","6.893","220.7","NAN","NAN","NAN","NAN","NAN"],
    [1547997,"2026-04-04 16:30:00","48987","3.924","225.8","6.207","226.1","NAN","NAN","NAN","NAN","NAN"],
    [1547998,"2026-04-04 16:40:00","48988","3.3739999999999997","225.6","5.292","214.9","NAN","NAN","NAN","NAN","NAN"],
    [1547999,"2026-04-04 16:50:00","48989","3.678","232.7","7.546","224.2","NAN","NAN","NAN","NAN","NAN"],
    [1548000,"2026-04-04 17:00:00","48990","3.342","230.5","6.043","226.3","NAN","NAN","NAN","NAN","NAN"],
    [1548001,"2026-04-04 17:10:00","48991","3.63","229.4","6.207","233.4","NAN","NAN","NAN","NAN","NAN"],
    [1548002,"2026-04-04 17:20:00","48992","3.391","236.9","5.978","222.7","NAN","NAN","NAN","NAN","NAN"],
    [1548003,"2026-04-04 17:30:00","48993","3.241","232.6","5.978","217.3","NAN","NAN","NAN","NAN","NAN"],
    [1548004,"2026-04-04 17:40:00","48994","3.2110000000000003","229.5","6.631","231.7","NAN","NAN","NAN","NAN","NAN"],
    [1548005,"2026-04-04 17:50:00","48995","2.952","230.4","5.586","233","NAN","NAN","NAN","NAN","NAN"],
    [1548006,"2026-04-04 18:00:00","48996","3.0869999999999997","231.0","5.684","238.6","NAN","NAN","NAN","NAN","NAN"],
    [1548007,"2026-04-04 18:10:00","48997","2.8369999999999997","238.5","5.586","258.7","NAN","NAN","NAN","NAN","NAN"],
    [1548008,"2026-04-04 18:20:00","48998","3.13","240.8","5.88","244.5","NAN","NAN","NAN","NAN","NAN"],
    [1548009,"2026-04-04 18:30:00","48999","2.875","232.4","5.488","225.6","NAN","NAN","NAN","NAN","NAN"],
    [1548010,"2026-04-04 18:40:00","49000","2.383","223.8","4.639","207.4","NAN","NAN","NAN","NAN","NAN"],
    [1548011,"2026-04-04 18:50:00","49001","2.783","223.1","4.769","221","NAN","NAN","NAN","NAN","NAN"],
    [1548012,"2026-04-04 19:00:00","49002","2.793","236.3","4.769","224.6","NAN","NAN","NAN","NAN","NAN"],
    [1548013,"2026-04-04 19:10:00","49003","2.5989999999999998","249.7","4.475","252.5","NAN","NAN","NAN","NAN","NAN"],
    [1548014,"2026-04-04 19:20:00","49004","2.4730000000000003","243.3","4.279","231.4","NAN","NAN","NAN","NAN","NAN"],
    [1548015,"2026-04-04 19:30:00","49005","2.1390000000000002","231.9","3.789","231.8","NAN","NAN","NAN","NAN","NAN"],
    [1548016,"2026-04-04 19:40:00","49006","1.787","227.7","2.94","244.8","NAN","NAN","NAN","NAN","NAN"],
    [1548017,"2026-04-04 19:50:00","49007","0.736","237.4","1.993","239.9","NAN","NAN","NAN","NAN","NAN"],
    [1548018,"2026-04-04 20:00:00","49008","0.196","242.5","1.078","242.7","NAN","NAN","NAN","NAN","NAN"],
    [1548019,"2026-04-04 20:10:00","49009","0.4","235.9","1.568","230.4","NAN","NAN","NAN","NAN","NAN"],
    [1548020,"2026-04-04 20:20:00","49010","0.917","236.8","1.895","230.2","NAN","NAN","NAN","NAN","NAN"],
    [1548021,"2026-04-04 20:30:00","49011","0.6759999999999999","240.5","1.47","239.7","NAN","NAN","NAN","NAN","NAN"],
    [1548022,"2026-04-04 20:40:00","49012","0.684","243.5","1.568","243.4","NAN","NAN","NAN","NAN","NAN"],
    [1548023,"2026-04-04 20:50:00","49013","0.956","244.9","1.797","244.1","NAN","NAN","NAN","NAN","NAN"],
    [1548024,"2026-04-04 21:00:00","49014","0.46","239.4","1.535","245.3","NAN","NAN","NAN","NAN","NAN"],
    [1548025,"2026-04-04 21:10:00","49015","0.68","243.5","1.699","245.5","NAN","NAN","NAN","NAN","NAN"],
    [1548026,"2026-04-04 21:20:00","49016","0.973","246.9","1.797","248","NAN","NAN","NAN","NAN","NAN"],
    [1548027,"2026-04-04 21:30:00","49017","1.537","248.7","2.254","248.8","NAN","NAN","NAN","NAN","NAN"],
    [1548028,"2026-04-04 21:40:00","49018","1.5130000000000001","242.0","3.136","249.9","NAN","NAN","NAN","NAN","NAN"],
    [1548029,"2026-04-04 21:50:00","49019","1.406","241.3","2.581","248.6","NAN","NAN","NAN","NAN","NAN"],
    [1548030,"2026-04-04 22:00:00","49020","1.5230000000000001","234.4","2.744","239","NAN","NAN","NAN","NAN","NAN"],
    [1548031,"2026-04-04 22:10:00","49021","1.433","240.7","3.071","247.5","NAN","NAN","NAN","NAN","NAN"],
    [1548032,"2026-04-04 22:20:00","49022","1.9340000000000002","244.5","3.234","246.5","NAN","NAN","NAN","NAN","NAN"],
    [1548033,"2026-04-04 22:30:00","49023","2.079","250.7","2.907","246.7","NAN","NAN","NAN","NAN","NAN"],
    [1548034,"2026-04-04 22:40:00","49024","2.017","249.0","2.842","246.6","NAN","NAN","NAN","NAN","NAN"],
    [1548035,"2026-04-04 22:50:00","49025","1.7209999999999999","252.2","3.103","252.9","NAN","NAN","NAN","NAN","NAN"],
    [1548036,"2026-04-04 23:00:00","49026","1.704","253.3","2.45","253","NAN","NAN","NAN","NAN","NAN"],
    [1548037,"2026-04-04 23:10:00","49027","1.6340000000000001","253.2","2.646","250.8","NAN","NAN","NAN","NAN","NAN"],
    [1548038,"2026-04-04 23:20:00","49028","1.784","254.4","3.071","255.3","NAN","NAN","NAN","NAN","NAN"],
    [1548039,"2026-04-04 23:30:00","49029","1.886","259.6","2.875","262","NAN","NAN","NAN","NAN","NAN"],
    [1548040,"2026-04-04 23:40:00","49030","2.278","263.1","3.724","266.2","NAN","NAN","NAN","NAN","NAN"],
    [1548041,"2026-04-04 23:50:00","49031","2.62","259.2","4.083","255.8","NAN","NAN","NAN","NAN","NAN"],
    [1548042,"2026-04-05 00:00:00","49032","2.8089999999999997","254.7","4.377","252.8","NAN","NAN","NAN","NAN","NAN"],
    [1548043,"2026-04-05 00:10:00","49033","2.259","259.6","3.822","266.8","NAN","NAN","NAN","NAN","NAN"],
    [1548044,"2026-04-05 00:20:00","49034","2.6919999999999997","259.0","3.985","261.5","NAN","NAN","NAN","NAN","NAN"],
    [1548045,"2026-04-05 00:30:00","49035","2.8689999999999998","259.5","4.377","257.4","NAN","NAN","NAN","NAN","NAN"],
    [1548046,"2026-04-05 00:40:00","49036","2.667","265.6","4.214","264","NAN","NAN","NAN","NAN","NAN"],
    [1548047,"2026-04-05 00:50:00","49037","2.639","267.3","4.149","261.6","NAN","NAN","NAN","NAN","NAN"],
    [1548048,"2026-04-05 01:00:00","49038","2.593","269.4","3.757","268.4","NAN","NAN","NAN","NAN","NAN"],
    [1548049,"2026-04-05 01:10:00","49039","1.913","270.6","3.332","273.5","NAN","NAN","NAN","NAN","NAN"],
    [1548050,"2026-04-05 01:20:00","49040","2.083","263.1","3.169","260.9","NAN","NAN","NAN","NAN","NAN"],
    [1548051,"2026-04-05 01:30:00","49041","2.1959999999999997","261.0","3.234","258","NAN","NAN","NAN","NAN","NAN"],
    [1548052,"2026-04-05 01:40:00","49042","1.946","260.9","2.973","258","NAN","NAN","NAN","NAN","NAN"],
    [1548053,"2026-04-05 01:50:00","49043","1.694","267.0","3.136","271.1","NAN","NAN","NAN","NAN","NAN"],
    [1548054,"2026-04-05 02:00:00","49044","1.97","267.8","3.365","272.8","NAN","NAN","NAN","NAN","NAN"],
    [1548055,"2026-04-05 02:10:00","49045","2.158","267.0","3.43","272.7","NAN","NAN","NAN","NAN","NAN"],
    [1548056,"2026-04-05 02:20:00","49046","2.15","268.4","3.561","270.9","NAN","NAN","NAN","NAN","NAN"],
    [1548057,"2026-04-05 02:30:00","49047","1.919","267.7","3.397","270.1","NAN","NAN","NAN","NAN","NAN"],
    [1548058,"2026-04-05 02:40:00","49048","1.9709999999999999","266.6","3.038","273.5","NAN","NAN","NAN","NAN","NAN"],
    [1548059,"2026-04-05 02:50:00","49049","2.061","269.4","3.267","273.8","NAN","NAN","NAN","NAN","NAN"],
    [1548060,"2026-04-05 03:00:00","49050","1.715","267.5","2.875","270.4","NAN","NAN","NAN","NAN","NAN"],
    [1548061,"2026-04-05 03:10:00","49051","1.916","260.9","3.103","258.5","NAN","NAN","NAN","NAN","NAN"],
    [1548062,"2026-04-05 03:20:00","49052","1.903","255.9","2.679","258.9","NAN","NAN","NAN","NAN","NAN"],
    [1548063,"2026-04-05 03:30:00","49053","1.984","257.1","3.038","264","NAN","NAN","NAN","NAN","NAN"],
    [1548064,"2026-04-05 03:40:00","49054","1.9140000000000001","255.1","2.809","253.4","NAN","NAN","NAN","NAN","NAN"],
    [1548065,"2026-04-05 03:50:00","49055","2.136","255.2","3.005","257.6","NAN","NAN","NAN","NAN","NAN"],
    [1548066,"2026-04-05 04:00:00","49056","1.8159999999999998","256.0","2.907","251.2","NAN","NAN","NAN","NAN","NAN"],
    [1548067,"2026-04-05 04:10:00","49057","1.624","252.8","2.417","252.3","NAN","NAN","NAN","NAN","NAN"],
    [1548068,"2026-04-05 04:20:00","49058","1.807","252.5","2.45","250","NAN","NAN","NAN","NAN","NAN"],
    [1548069,"2026-04-05 04:30:00","49059","1.801","252.2","2.548","249","NAN","NAN","NAN","NAN","NAN"],
    [1548070,"2026-04-05 04:40:00","49060","2.113","251.6","2.907","258.4","NAN","NAN","NAN","NAN","NAN"],
    [1548071,"2026-04-05 04:50:00","49061","1.9909999999999999","247.1","2.679","246","NAN","NAN","NAN","NAN","NAN"],
    [1548072,"2026-04-05 05:00:00","49062","2.234","248.0","3.136","254.3","NAN","NAN","NAN","NAN","NAN"],
    [1548073,"2026-04-05 05:10:00","49063","2.517","245.1","4.116","251.6","NAN","NAN","NAN","NAN","NAN"],
    [1548074,"2026-04-05 05:20:00","49064","2.47","253.1","3.985","251.8","NAN","NAN","NAN","NAN","NAN"],
    [1548075,"2026-04-05 05:30:00","49065","2.792","255.9","3.985","262.5","NAN","NAN","NAN","NAN","NAN"],
    [1548076,"2026-04-05 05:40:00","49066","2.661","255.8","3.985","253.3","NAN","NAN","NAN","NAN","NAN"],
    [1548077,"2026-04-05 05:50:00","49067","2.8760000000000003","260.3","4.704","267.9","NAN","NAN","NAN","NAN","NAN"],
    [1548078,"2026-04-05 06:00:00","49068","2.719","258.5","4.867","251.1","NAN","NAN","NAN","NAN","NAN"],
    [1548079,"2026-04-05 06:10:00","49069","2.5","258.6","3.953","272","NAN","NAN","NAN","NAN","NAN"],
    [1548080,"2026-04-05 06:20:00","49070","2.603","255.9","4.247","260","NAN","NAN","NAN","NAN","NAN"],
    [1548081,"2026-04-05 06:30:00","49071","2.515","268.4","4.541","277.8","NAN","NAN","NAN","NAN","NAN"],
    [1548082,"2026-04-05 06:40:00","49072","2.799","265.8","4.475","270.7","NAN","NAN","NAN","NAN","NAN"],
    [1548083,"2026-04-05 06:50:00","49073","2.541","264.0","4.149","263.6","NAN","NAN","NAN","NAN","NAN"],
    [1548084,"2026-04-05 07:00:00","49074","3.0","265.0","4.541","265.2","NAN","NAN","NAN","NAN","NAN"],
    [1548085,"2026-04-05 07:10:00","49075","2.53","264.6","4.018","272","NAN","NAN","NAN","NAN","NAN"],
    [1548086,"2026-04-05 07:20:00","49076","2.949","270.5","4.345","274.4","NAN","NAN","NAN","NAN","NAN"],
    [1548087,"2026-04-05 07:30:00","49077","2.155","271.6","3.365","276.7","NAN","NAN","NAN","NAN","NAN"],
    [1548088,"2026-04-05 07:40:00","49078","2.6310000000000002","266.6","4.083","267.4","NAN","NAN","NAN","NAN","NAN"],
    [1548089,"2026-04-05 07:50:00","49079","2.5639999999999996","262.8","3.593","274.9","NAN","NAN","NAN","NAN","NAN"],
    [1548090,"2026-04-05 08:00:00","49080","2.287","259.3","4.247","228.5","NAN","NAN","NAN","NAN","NAN"],
    [1548091,"2026-04-05 08:10:00","49081","2.6439999999999997","251.7","4.279","257.8","NAN","NAN","NAN","NAN","NAN"],
    [1548092,"2026-04-05 08:20:00","49082","2.887","247.3","4.214","258","NAN","NAN","NAN","NAN","NAN"],
    [1548093,"2026-04-05 08:30:00","49083","2.7560000000000002","252.2","4.345","252.3","NAN","NAN","NAN","NAN","NAN"],
    [1548094,"2026-04-05 08:40:00","49084","2.131","246.6","4.377","252.8","NAN","NAN","NAN","NAN","NAN"],
    [1548095,"2026-04-05 08:50:00","49085","2.787","228.4","4.606","211.9","NAN","NAN","NAN","NAN","NAN"],
    [1548096,"2026-04-05 09:00:00","49086","2.8569999999999998","229.9","4.769","218.8","NAN","NAN","NAN","NAN","NAN"],
    [1548097,"2026-04-05 09:10:00","49087","2.695","231.3","4.116","259.2","NAN","NAN","NAN","NAN","NAN"],
    [1548098,"2026-04-05 09:20:00","49088","2.6239999999999997","233.5","5.194","250.3","NAN","NAN","NAN","NAN","NAN"],
    [1548099,"2026-04-05 09:30:00","49089","3.0980000000000003","221.5","4.704","205.1","NAN","NAN","NAN","NAN","NAN"],
    [1548100,"2026-04-05 09:40:00","49090","2.803","221.0","5.292","235.2","NAN","NAN","NAN","NAN","NAN"],
    [1548101,"2026-04-05 09:50:00","49091","3.65","205.4","6.011","209.2","NAN","NAN","NAN","NAN","NAN"],
    [1548102,"2026-04-05 10:00:00","49092","3.574","219.0","5.488","202.4","NAN","NAN","NAN","NAN","NAN"],
    [1548103,"2026-04-05 10:10:00","49093","3.7510000000000003","217.6","5.913","230.4","NAN","NAN","NAN","NAN","NAN"],
    [1548104,"2026-04-05 10:20:00","49094","3.3989999999999996","212.2","5.259","206.8","NAN","NAN","NAN","NAN","NAN"],
    [1548105,"2026-04-05 10:30:00","49095","2.722","207.4","5.455","215.6","NAN","NAN","NAN","NAN","NAN"],
    [1548106,"2026-04-05 10:40:00","49096","3.429","204.2","6.272","211.5","NAN","NAN","NAN","NAN","NAN"],
    [1548107,"2026-04-05 10:50:00","49097","3.239","198.7","5.619","204","NAN","NAN","NAN","NAN","NAN"],
    [1548108,"2026-04-05 11:00:00","49098","3.525","197.0","5.325","211.3","NAN","NAN","NAN","NAN","NAN"],
    [1548109,"2026-04-05 11:10:00","49099","3.721","203.5","6.795","208.6","NAN","NAN","NAN","NAN","NAN"],
    [1548110,"2026-04-05 11:20:00","49100","3.616","207.0","6.468","226.7","NAN","NAN","NAN","NAN","NAN"],
    [1548111,"2026-04-05 11:30:00","49101","4.685","206.7","7.644","206.3","NAN","NAN","NAN","NAN","NAN"],
    [1548112,"2026-04-05 11:40:00","49102","4.265","204.4","7.415","215.7","NAN","NAN","NAN","NAN","NAN"],
    [1548113,"2026-04-05 11:50:00","49103","4.272","212.1","6.991","236.7","NAN","NAN","NAN","NAN","NAN"],
    [1548114,"2026-04-05 12:00:00","49104","4.846","212.8","7.513","201.9","NAN","NAN","NAN","NAN","NAN"],
    [1548115,"2026-04-05 12:10:00","49105","5.397","217.1","8.13","209.8","NAN","NAN","NAN","NAN","NAN"],
    [1548116,"2026-04-05 12:20:00","49106","5.2","211.7","7.709","202.6","NAN","NAN","NAN","NAN","NAN"],
    [1548117,"2026-04-05 12:30:00","49107","4.641","219.3","7.579","202.7","NAN","NAN","NAN","NAN","NAN"],
    [1548118,"2026-04-05 12:40:00","49108","5.287999999999999","225.8","8.3","211","NAN","NAN","NAN","NAN","NAN"],
    [1548119,"2026-04-05 12:50:00","49109","5.136","218.2","7.971","199","NAN","NAN","NAN","NAN","NAN"],
    [1548120,"2026-04-05 13:00:00","49110","5.019","221.3","8.04","216.8","NAN","NAN","NAN","NAN","NAN"],
    [1548121,"2026-04-05 13:10:00","49111","5.331","231.2","8.1","237.4","NAN","NAN","NAN","NAN","NAN"],
    [1548122,"2026-04-05 13:20:00","49112","4.968999999999999","222.5","8.36","202.4","NAN","NAN","NAN","NAN","NAN"],
    [1548123,"2026-04-05 13:30:00","49113","5.099","212.7","8.1","202.9","NAN","NAN","NAN","NAN","NAN"],
    [1548124,"2026-04-05 13:40:00","49114","4.787","213.8","8.17","210.6","NAN","NAN","NAN","NAN","NAN"],
    [1548125,"2026-04-05 13:50:00","49115","5.294","213.9","8.07","222.2","NAN","NAN","NAN","NAN","NAN"],
    [1548126,"2026-04-05 14:00:00","49116","5.055","216.2","7.938","217.1","NAN","NAN","NAN","NAN","NAN"],
    [1548127,"2026-04-05 14:10:00","49117","4.925","220.3","7.971","222.6","NAN","NAN","NAN","NAN","NAN"],
    [1548128,"2026-04-05 14:20:00","49118","4.625","223.3","8.07","226.4","NAN","NAN","NAN","NAN","NAN"],
    [1548129,"2026-04-05 14:30:00","49119","5.315","227.2","8.26","215.9","NAN","NAN","NAN","NAN","NAN"],
    [1548130,"2026-04-05 14:40:00","49120","5.041","224.4","8.17","222.9","NAN","NAN","NAN","NAN","NAN"],
    [1548131,"2026-04-05 14:50:00","49121","4.881","223.1","7.84","211.8","NAN","NAN","NAN","NAN","NAN"],
    [1548132,"2026-04-05 15:00:00","49122","5.21","222.5","8.2","206.9","NAN","NAN","NAN","NAN","NAN"],
    [1548133,"2026-04-05 15:10:00","49123","5.101","228.5","8.13","236.3","NAN","NAN","NAN","NAN","NAN"],
    [1548134,"2026-04-05 15:20:00","49124","4.363","220.6","7.938","193.6","NAN","NAN","NAN","NAN","NAN"],
    [1548135,"2026-04-05 15:30:00","49125","4.9","227.5","7.742","218.5","NAN","NAN","NAN","NAN","NAN"],
    [1548136,"2026-04-05 15:40:00","49126","4.666","226.0","7.611","244.3","NAN","NAN","NAN","NAN","NAN"],
    [1548137,"2026-04-05 15:50:00","49127","3.833","224.4","6.762","237.7","NAN","NAN","NAN","NAN","NAN"],
    [1548138,"2026-04-05 16:00:00","49128","5.273","232.0","9.15","220.1","NAN","NAN","NAN","NAN","NAN"],
    [1548139,"2026-04-05 16:10:00","49129","4.191","227.6","6.827","203.4","NAN","NAN","NAN","NAN","NAN"],
    [1548140,"2026-04-05 16:20:00","49130","4.47","224.4","7.84","218.9","NAN","NAN","NAN","NAN","NAN"],
    [1548141,"2026-04-05 16:30:00","49131","4.258","225.8","7.677","236.6","NAN","NAN","NAN","NAN","NAN"],
    [1548142,"2026-04-05 16:40:00","49132","4.3180000000000005","222.0","8.04","223.2","NAN","NAN","NAN","NAN","NAN"],
    [1548143,"2026-04-05 16:50:00","49133","4.558","221.0","8.4","225.5","NAN","NAN","NAN","NAN","NAN"],
    [1548144,"2026-04-05 17:00:00","49134","4.652","228.7","8.04","220.2","NAN","NAN","NAN","NAN","NAN"],
    [1548145,"2026-04-05 17:10:00","49135","4.215","229.2","7.023","230.5","NAN","NAN","NAN","NAN","NAN"],
    [1548146,"2026-04-05 17:20:00","49136","5.1080000000000005","229.7","8.3","238","NAN","NAN","NAN","NAN","NAN"],
    [1548147,"2026-04-05 17:30:00","49137","3.984","230.4","7.121","256.4","NAN","NAN","NAN","NAN","NAN"],
    [1548148,"2026-04-05 17:40:00","49138","4.13","228.9","6.468","224.2","NAN","NAN","NAN","NAN","NAN"],
    [1548149,"2026-04-05 17:50:00","49139","4.012","230.0","6.925","232","NAN","NAN","NAN","NAN","NAN"],
    [1548150,"2026-04-05 18:00:00","49140","3.5839999999999996","228.6","6.305","225.3","NAN","NAN","NAN","NAN","NAN"],
    [1548151,"2026-04-05 18:10:00","49141","3.45","224.6","5.782","219.4","NAN","NAN","NAN","NAN","NAN"],
    [1548152,"2026-04-05 18:20:00","49142","2.969","225.3","5.292","222.1","NAN","NAN","NAN","NAN","NAN"],
    [1548153,"2026-04-05 18:30:00","49143","3.502","222.5","6.468","224.5","NAN","NAN","NAN","NAN","NAN"],
    [1548154,"2026-04-05 18:40:00","49144","3.397","218.9","6.599","219.7","NAN","NAN","NAN","NAN","NAN"],
    [1548155,"2026-04-05 18:50:00","49145","3.5239999999999996","222.4","5.847","228.5","NAN","NAN","NAN","NAN","NAN"],
    [1548156,"2026-04-05 19:00:00","49146","3.36","230.2","6.109","224.3","NAN","NAN","NAN","NAN","NAN"],
    [1548157,"2026-04-05 19:10:00","49147","3.028","227.8","5.194","219.7","NAN","NAN","NAN","NAN","NAN"],
    [1548158,"2026-04-05 19:20:00","49148","2.825","229.2","4.671","221.6","NAN","NAN","NAN","NAN","NAN"],
    [1548159,"2026-04-05 19:30:00","49149","3.0869999999999997","221.5","4.9","217.2","NAN","NAN","NAN","NAN","NAN"],
    [1548160,"2026-04-05 19:40:00","49150","2.803","227.7","4.541","216.5","NAN","NAN","NAN","NAN","NAN"],
    [1548161,"2026-04-05 19:50:00","49151","3.1","223.0","5.357","225.1","NAN","NAN","NAN","NAN","NAN"],
    [1548162,"2026-04-05 20:00:00","49152","3.137","221.7","4.867","218.3","NAN","NAN","NAN","NAN","NAN"],
    [1548163,"2026-04-05 20:10:00","49153","2.875","222.8","4.9","218.6","NAN","NAN","NAN","NAN","NAN"],
    [1548164,"2026-04-05 20:20:00","49154","2.148","228.4","3.985","231.1","NAN","NAN","NAN","NAN","NAN"],
    [1548165,"2026-04-05 20:30:00","49155","1.7930000000000001","224.7","3.136","222.5","NAN","NAN","NAN","NAN","NAN"],
    [1548166,"2026-04-05 20:40:00","49156","2.406","228.4","4.606","232.7","NAN","NAN","NAN","NAN","NAN"],
    [1548167,"2026-04-05 20:50:00","49157","2.617","229.8","4.671","240","NAN","NAN","NAN","NAN","NAN"],
    [1548168,"2026-04-05 21:00:00","49158","2.394","234.4","5.357","230.9","NAN","NAN","NAN","NAN","NAN"],
    [1548169,"2026-04-05 21:10:00","49159","2.127","243.1","3.887","243.3","NAN","NAN","NAN","NAN","NAN"],
    [1548170,"2026-04-05 21:20:00","49160","2.369","240.2","4.312","251.2","NAN","NAN","NAN","NAN","NAN"],
    [1548171,"2026-04-05 21:30:00","49161","2.405","231.8","3.822","232.9","NAN","NAN","NAN","NAN","NAN"],
    [1548172,"2026-04-05 21:40:00","49162","2.239","230.9","4.116","237","NAN","NAN","NAN","NAN","NAN"],
    [1548173,"2026-04-05 21:50:00","49163","1.9069999999999998","237.8","3.463","237","NAN","NAN","NAN","NAN","NAN"],
    [1548174,"2026-04-05 22:00:00","49164","1.925","231.3","3.495","233","NAN","NAN","NAN","NAN","NAN"],
    [1548175,"2026-04-05 22:10:00","49165","1.96","237.3","3.495","240.9","NAN","NAN","NAN","NAN","NAN"],
    [1548176,"2026-04-05 22:20:00","49166","1.735","239.9","3.495","233.5","NAN","NAN","NAN","NAN","NAN"],
    [1548177,"2026-04-05 22:30:00","49167","1.8530000000000002","241.2","3.201","242.1","NAN","NAN","NAN","NAN","NAN"],
    [1548178,"2026-04-05 22:40:00","49168","2.035","237.5","3.169","239.3","NAN","NAN","NAN","NAN","NAN"],
    [1548179,"2026-04-05 22:50:00","49169","2.04","244.9","3.267","244.4","NAN","NAN","NAN","NAN","NAN"],
    [1548180,"2026-04-05 23:00:00","49170","0.976","245.7","1.993","245.7","NAN","NAN","NAN","NAN","NAN"],
    [1548181,"2026-04-05 23:10:00","49171","1.7180000000000002","245.7","2.613","245.8","NAN","NAN","NAN","NAN","NAN"],
    [1548182,"2026-04-05 23:20:00","49172","1.5490000000000002","245.7","2.45","245.7","NAN","NAN","NAN","NAN","NAN"],
    [1548183,"2026-04-05 23:30:00","49173","1.276","245.7","1.927","245.8","NAN","NAN","NAN","NAN","NAN"],
    [1548184,"2026-04-05 23:40:00","49174","1.278","245.7","2.221","245.7","NAN","NAN","NAN","NAN","NAN"],
    [1548185,"2026-04-05 23:50:00","49175","1.061","242.7","2.025","242.5","NAN","NAN","NAN","NAN","NAN"],
    [1548186,"2026-04-06 00:00:00","49176","1.1079999999999999","242.2","1.895","244.3","NAN","NAN","NAN","NAN","NAN"],
    [1548187,"2026-04-06 00:10:00","49177","0.342","237.5","1.927","236","NAN","NAN","NAN","NAN","NAN"],
    [1548188,"2026-04-06 00:20:00","49178","0.0","0.0","0","0","NAN","NAN","NAN","NAN","NAN"],
    [1548189,"2026-04-06 00:30:00","49179","0.0","0.0","0","0","NAN","NAN","NAN","NAN","NAN"],
    [1548190,"2026-04-06 00:40:00","49180","0.506","244.2","1.078","244.1","NAN","NAN","NAN","NAN","NAN"],
    [1548191,"2026-04-06 00:50:00","49181","0.419","244.4","1.143","244.4","NAN","NAN","NAN","NAN","NAN"],
    [1548192,"2026-04-06 01:00:00","49182","1.016","244.4","1.797","244.4","NAN","NAN","NAN","NAN","NAN"],
    [1548193,"2026-04-06 01:10:00","49183","1.079","242.9","1.764","243.5","NAN","NAN","NAN","NAN","NAN"],
    [1548194,"2026-04-06 01:20:00","49184","1.3","243.4","1.829","241.5","NAN","NAN","NAN","NAN","NAN"],
    [1548195,"2026-04-06 01:30:00","49185","0.617","244.7","1.372","244.8","NAN","NAN","NAN","NAN","NAN"],
    [1548196,"2026-04-06 01:40:00","49186","1.2229999999999999","242.1","2.025","243.1","NAN","NAN","NAN","NAN","NAN"],
    [1548197,"2026-04-06 01:50:00","49187","1.17","238.4","2.352","239.3","NAN","NAN","NAN","NAN","NAN"],
    [1548198,"2026-04-06 02:00:00","49188","1.117","235.9","2.417","235.4","NAN","NAN","NAN","NAN","NAN"],
    [1548199,"2026-04-06 02:10:00","49189","1.465","241.6","2.94","245.1","NAN","NAN","NAN","NAN","NAN"],
    [1548200,"2026-04-06 02:20:00","49190","1.81","245.0","2.613","245.5","NAN","NAN","NAN","NAN","NAN"],
    [1548201,"2026-04-06 02:30:00","49191","1.624","245.7","2.711","246.4","NAN","NAN","NAN","NAN","NAN"],
    [1548202,"2026-04-06 02:40:00","49192","1.696","246.0","2.646","246.3","NAN","NAN","NAN","NAN","NAN"],
    [1548203,"2026-04-06 02:50:00","49193","1.3559999999999999","246.6","2.45","246.6","NAN","NAN","NAN","NAN","NAN"],
    [1548204,"2026-04-06 03:00:00","49194","1.047","246.6","1.895","246.7","NAN","NAN","NAN","NAN","NAN"],
    [1548205,"2026-04-06 03:10:00","49195","1.0979999999999999","246.5","2.123","246.7","NAN","NAN","NAN","NAN","NAN"],
    [1548206,"2026-04-06 03:20:00","49196","1.0270000000000001","243.9","2.058","246.6","NAN","NAN","NAN","NAN","NAN"],
    [1548207,"2026-04-06 03:30:00","49197","1.4340000000000002","243.0","2.319","242.2","NAN","NAN","NAN","NAN","NAN"],
    [1548208,"2026-04-06 03:40:00","49198","1.735","244.3","2.679","246.5","NAN","NAN","NAN","NAN","NAN"],
    [1548209,"2026-04-06 03:50:00","49199","1.5759999999999998","246.9","2.613","247.7","NAN","NAN","NAN","NAN","NAN"],
    [1548210,"2026-04-06 04:00:00","49200","1.814","247.7","2.973","247.9","NAN","NAN","NAN","NAN","NAN"],
    [1548211,"2026-04-06 04:10:00","49201","1.486","248.0","2.483","248","NAN","NAN","NAN","NAN","NAN"],
    [1548212,"2026-04-06 04:20:00","49202","2.02","248.1","2.973","248.1","NAN","NAN","NAN","NAN","NAN"],
    [1548213,"2026-04-06 04:30:00","49203","1.8319999999999999","250.6","2.842","249.1","NAN","NAN","NAN","NAN","NAN"],
    [1548214,"2026-04-06 04:40:00","49204","2.045","252.2","3.103","253.2","NAN","NAN","NAN","NAN","NAN"],
    [1548215,"2026-04-06 04:50:00","49205","1.768","255.3","2.973","255.2","NAN","NAN","NAN","NAN","NAN"],
    [1548216,"2026-04-06 05:00:00","49206","1.828","254.7","3.103","254.8","NAN","NAN","NAN","NAN","NAN"],
    [1548217,"2026-04-06 05:10:00","49207","2.22","256.2","3.561","257.9","NAN","NAN","NAN","NAN","NAN"],
    [1548218,"2026-04-06 05:20:00","49208","2.1959999999999997","258.2","3.299","259.5","NAN","NAN","NAN","NAN","NAN"],
    [1548219,"2026-04-06 05:30:00","49209","1.864","259.0","2.94","257.6","NAN","NAN","NAN","NAN","NAN"],
    [1548220,"2026-04-06 05:40:00","49210","1.633","261.1","2.875","258.8","NAN","NAN","NAN","NAN","NAN"],
    [1548221,"2026-04-06 05:50:00","49211","1.578","259.2","2.646","262.4","NAN","NAN","NAN","NAN","NAN"],
    [1548222,"2026-04-06 06:00:00","49212","1.962","257.9","3.299","253.1","NAN","NAN","NAN","NAN","NAN"],
    [1548223,"2026-04-06 06:10:00","49213","2.05","257.0","3.038","256.4","NAN","NAN","NAN","NAN","NAN"],
    [1548224,"2026-04-06 06:20:00","49214","1.99","259.8","3.528","260.6","NAN","NAN","NAN","NAN","NAN"],
    [1548225,"2026-04-06 06:30:00","49215","2.314","257.9","3.463","249.5","NAN","NAN","NAN","NAN","NAN"],
    [1548226,"2026-04-06 06:40:00","49216","2.6","259.3","3.855","251.6","NAN","NAN","NAN","NAN","NAN"],
    [1548227,"2026-04-06 06:50:00","49217","2.65","262.5","4.051","255.7","NAN","NAN","NAN","NAN","NAN"],
    [1548228,"2026-04-06 07:00:00","49218","2.0869999999999997","265.6","2.842","264.6","NAN","NAN","NAN","NAN","NAN"],
    [1548229,"2026-04-06 07:10:00","49219","2.03","262.2","3.136","257","NAN","NAN","NAN","NAN","NAN"],
    [1548230,"2026-04-06 07:20:00","49220","1.88","255.2","2.875","254.8","NAN","NAN","NAN","NAN","NAN"],
    [1548231,"2026-04-06 07:30:00","49221","2.094","254.8","3.365","267","NAN","NAN","NAN","NAN","NAN"],
    [1548232,"2026-04-06 07:40:00","49222","1.79","255.9","3.038","265.1","NAN","NAN","NAN","NAN","NAN"],
    [1548233,"2026-04-06 07:50:00","49223","2.0380000000000003","261.2","3.365","248.9","NAN","NAN","NAN","NAN","NAN"],
    [1548234,"2026-04-06 08:00:00","49224","2.195","254.8","3.495","251.2","NAN","NAN","NAN","NAN","NAN"],
    [1548235,"2026-04-06 08:10:00","49225","1.348","254.7","3.005","268.3","NAN","NAN","NAN","NAN","NAN"],
    [1548236,"2026-04-06 08:20:00","49226","1.7180000000000002","249.8","3.038","243","NAN","NAN","NAN","NAN","NAN"],
    [1548237,"2026-04-06 08:30:00","49227","2.2880000000000003","245.3","4.116","264.8","NAN","NAN","NAN","NAN","NAN"],
    [1548238,"2026-04-06 08:40:00","49228","2.345","239.8","4.867","234.4","NAN","NAN","NAN","NAN","NAN"],
    [1548239,"2026-04-06 08:50:00","49229","3.5580000000000003","230.7","5.423","216.8","NAN","NAN","NAN","NAN","NAN"],
    [1548240,"2026-04-06 09:00:00","49230","3.4410000000000003","216.1","6.141","213.6","NAN","NAN","NAN","NAN","NAN"],
    [1548241,"2026-04-06 09:10:00","49231","3.6519999999999997","223.7","5.88","223.6","NAN","NAN","NAN","NAN","NAN"],
    [1548242,"2026-04-06 09:20:00","49232","3.1660000000000004","223.0","5.39","245.8","NAN","NAN","NAN","NAN","NAN"],
    [1548243,"2026-04-06 09:30:00","49233","3.661","226.5","5.749","211.4","NAN","NAN","NAN","NAN","NAN"],
    [1548244,"2026-04-06 09:40:00","49234","3.022","240.6","5.553","249","NAN","NAN","NAN","NAN","NAN"],
    [1548245,"2026-04-06 09:50:00","49235","3.281","228.6","5.227","249.8","NAN","NAN","NAN","NAN","NAN"],
    [1548246,"2026-04-06 10:00:00","49236","3.7110000000000003","215.4","5.782","208","NAN","NAN","NAN","NAN","NAN"],
    [1548247,"2026-04-06 10:10:00","49237","4.112","206.9","6.076","209.7","NAN","NAN","NAN","NAN","NAN"],
    [1548248,"2026-04-06 10:20:00","49238","5.0169999999999995","208.1","7.35","210.5","NAN","NAN","NAN","NAN","NAN"],
    [1548249,"2026-04-06 10:30:00","49239","4.888","209.6","7.709","208.6","NAN","NAN","NAN","NAN","NAN"],
    [1548250,"2026-04-06 10:40:00","49240","4.805","208.3","7.579","205","NAN","NAN","NAN","NAN","NAN"],
    [1548251,"2026-04-06 10:50:00","49241","4.941","206.3","7.644","212","NAN","NAN","NAN","NAN","NAN"],
    [1548252,"2026-04-06 11:00:00","49242","4.246","210.7","6.925","205.7","NAN","NAN","NAN","NAN","NAN"],
    [1548253,"2026-04-06 11:10:00","49243","4.689","207.3","6.958","205.4","NAN","NAN","NAN","NAN","NAN"],
    [1548254,"2026-04-06 11:20:00","49244","4.997","208.8","7.383","216.5","NAN","NAN","NAN","NAN","NAN"],
    [1548255,"2026-04-06 11:30:00","49245","5.301","213.4","7.905","210.8","NAN","NAN","NAN","NAN","NAN"],
    [1548256,"2026-04-06 11:40:00","49246","5.507999999999999","208.5","8.07","201.8","NAN","NAN","NAN","NAN","NAN"],
    [1548257,"2026-04-06 11:50:00","49247","5.268","212.5","8.36","209","NAN","NAN","NAN","NAN","NAN"],
    [1548258,"2026-04-06 12:00:00","49248","4.74","216.7","7.481","225.5","NAN","NAN","NAN","NAN","NAN"],
    [1548259,"2026-04-06 12:10:00","49249","4.933","216.5","8.07","206","NAN","NAN","NAN","NAN","NAN"],
    [1548260,"2026-04-06 12:20:00","49250","5.037","215.2","8.36","221.5","NAN","NAN","NAN","NAN","NAN"],
    [1548261,"2026-04-06 12:30:00","49251","5.728","207.1","8.3","211.1","NAN","NAN","NAN","NAN","NAN"],
    [1548262,"2026-04-06 12:40:00","49252","5.763999999999999","208.3","8.79","203.8","NAN","NAN","NAN","NAN","NAN"],
    [1548263,"2026-04-06 12:50:00","49253","4.989","212.7","7.807","216.8","NAN","NAN","NAN","NAN","NAN"],
    [1548264,"2026-04-06 13:00:00","49254","4.881","215.9","8.33","219.8","NAN","NAN","NAN","NAN","NAN"],
    [1548265,"2026-04-06 13:10:00","49255","5.803","212.2","8.13","201.2","NAN","NAN","NAN","NAN","NAN"],
    [1548266,"2026-04-06 13:20:00","49256","5.372000000000001","215.9","8.62","234.7","NAN","NAN","NAN","NAN","NAN"],
    [1548267,"2026-04-06 13:30:00","49257","4.84","221.4","8.89","236.5","NAN","NAN","NAN","NAN","NAN"],
    [1548268,"2026-04-06 13:40:00","49258","5.046","214.1","7.873","204.8","NAN","NAN","NAN","NAN","NAN"],
    [1548269,"2026-04-06 13:50:00","49259","5.21","207.8","8.04","212","NAN","NAN","NAN","NAN","NAN"],
    [1548270,"2026-04-06 14:00:00","49260","4.763999999999999","212.1","7.644","207.5","NAN","NAN","NAN","NAN","NAN"],
    [1548271,"2026-04-06 14:10:00","49261","3.718","216.1","6.729","225.2","NAN","NAN","NAN","NAN","NAN"],
    [1548272,"2026-04-06 14:20:00","49262","4.425","206.5","6.827","207.1","NAN","NAN","NAN","NAN","NAN"],
    [1548273,"2026-04-06 14:30:00","49263","4.74","214.1","7.056","210.6","NAN","NAN","NAN","NAN","NAN"],
    [1548274,"2026-04-06 14:40:00","49264","4.888999999999999","216.5","6.664","212","NAN","NAN","NAN","NAN","NAN"],
    [1548275,"2026-04-06 14:50:00","49265","4.926","209.0","7.481","217","NAN","NAN","NAN","NAN","NAN"],
    [1548276,"2026-04-06 15:00:00","49266","4.777","207.0","6.991","206","NAN","NAN","NAN","NAN","NAN"],
    [1548277,"2026-04-06 15:10:00","49267","4.605","211.7","6.566","204.5","NAN","NAN","NAN","NAN","NAN"],
    [1548278,"2026-04-06 15:20:00","49268","4.273","208.0","6.697","214.4","NAN","NAN","NAN","NAN","NAN"],
    [1548279,"2026-04-06 15:30:00","49269","4.5760000000000005","207.1","6.795","210.1","NAN","NAN","NAN","NAN","NAN"],
    [1548280,"2026-04-06 15:40:00","49270","4.242","207.2","6.109","220.9","NAN","NAN","NAN","NAN","NAN"],
    [1548281,"2026-04-06 15:50:00","49271","3.948","212.9","5.913","203.5","NAN","NAN","NAN","NAN","NAN"],
    [1548282,"2026-04-06 16:00:00","49272","4.098","205.6","6.272","211.1","NAN","NAN","NAN","NAN","NAN"],
    [1548283,"2026-04-06 16:10:00","49273","3.5269999999999997","204.3","6.043","212","NAN","NAN","NAN","NAN","NAN"],
    [1548284,"2026-04-06 16:20:00","49274","3.508","207.7","5.619","219.2","NAN","NAN","NAN","NAN","NAN"],
    [1548285,"2026-04-06 16:30:00","49275","3.6210000000000004","206.8","5.39","208.7","NAN","NAN","NAN","NAN","NAN"],
    [1548286,"2026-04-06 16:40:00","49276","3.6919999999999997","204.5","6.141","215.3","NAN","NAN","NAN","NAN","NAN"],
    [1548287,"2026-04-06 16:50:00","49277","3.668","211.4","5.521","202.5","NAN","NAN","NAN","NAN","NAN"],
    [1548288,"2026-04-06 17:00:00","49278","3.945","207.3","6.533","210.5","NAN","NAN","NAN","NAN","NAN"],
    [1548289,"2026-04-06 17:10:00","49279","4.035","207.4","6.403","206.3","NAN","NAN","NAN","NAN","NAN"],
    [1548290,"2026-04-06 17:20:00","49280","3.6910000000000003","210.8","5.553","205.5","NAN","NAN","NAN","NAN","NAN"],
    [1548291,"2026-04-06 17:30:00","49281","3.662","207.6","5.129","216.5","NAN","NAN","NAN","NAN","NAN"],
    [1548292,"2026-04-06 17:40:00","49282","3.39","207.1","4.9","211.5","NAN","NAN","NAN","NAN","NAN"],
    [1548293,"2026-04-06 17:50:00","49283","2.8739999999999997","211.0","4.867","204.1","NAN","NAN","NAN","NAN","NAN"],
    [1548294,"2026-04-06 18:00:00","49284","2.5669999999999997","209.1","3.985","200.3","NAN","NAN","NAN","NAN","NAN"],
    [1548295,"2026-04-06 18:10:00","49285","2.7439999999999998","209.6","4.41","207.1","NAN","NAN","NAN","NAN","NAN"],
    [1548296,"2026-04-06 18:20:00","49286","2.648","212.2","4.051","213","NAN","NAN","NAN","NAN","NAN"],
    [1548297,"2026-04-06 18:30:00","49287","2.526","215.5","3.985","224.1","NAN","NAN","NAN","NAN","NAN"],
    [1548298,"2026-04-06 18:40:00","49288","1.8459999999999999","214.0","3.071","211.9","NAN","NAN","NAN","NAN","NAN"],
    [1548299,"2026-04-06 18:50:00","49289","1.8259999999999998","215.8","3.267","211","NAN","NAN","NAN","NAN","NAN"],
    [1548300,"2026-04-06 19:00:00","49290","1.357","215.5","2.679","219","NAN","NAN","NAN","NAN","NAN"],
    [1548301,"2026-04-06 19:10:00","49291","1.568","213.4","2.548","210.8","NAN","NAN","NAN","NAN","NAN"],
    [1548302,"2026-04-06 19:20:00","49292","1.1740000000000002","220.6","2.875","218.6","NAN","NAN","NAN","NAN","NAN"],
    [1548303,"2026-04-06 19:30:00","49293","0.763","223.0","1.797","223.7","NAN","NAN","NAN","NAN","NAN"],
    [1548304,"2026-04-06 19:40:00","49294","1.028","224.1","2.221","224","NAN","NAN","NAN","NAN","NAN"],
    [1548305,"2026-04-06 19:50:00","49295","0.428","224.3","1.535","224.3","NAN","NAN","NAN","NAN","NAN"],
    [1548306,"2026-04-06 20:00:00","49296","0.586","224.4","1.503","224.4","NAN","NAN","NAN","NAN","NAN"],
    [1548307,"2026-04-06 20:10:00","49297","0.784","224.5","1.503","224.5","NAN","NAN","NAN","NAN","NAN"],
    [1548308,"2026-04-06 20:20:00","49298","0.187","224.5","1.013","224.5","NAN","NAN","NAN","NAN","NAN"],
    [1548309,"2026-04-06 20:30:00","49299","0.0","0.0","0","0","NAN","NAN","NAN","NAN","NAN"],
    [1548310,"2026-04-06 20:40:00","49300","0.0","0.0","0","0","NAN","NAN","NAN","NAN","NAN"],
    [1548311,"2026-04-06 20:50:00","49301","0.009000000000000001","224.4","0.327","224.4","NAN","NAN","NAN","NAN","NAN"],
    [1548312,"2026-04-06 21:00:00","49302","0.0","0.0","0","0","NAN","NAN","NAN","NAN","NAN"],
    [1548313,"2026-04-06 21:10:00","49303","0.0","0.0","0","0","NAN","NAN","NAN","NAN","NAN"],
    [1548314,"2026-04-06 21:20:00","49304","0.0","0.0","0","0","NAN","NAN","NAN","NAN","NAN"],
    [1548315,"2026-04-06 21:30:00","49305","0.0","0.0","0","0","NAN","NAN","NAN","NAN","NAN"],
    [1548316,"2026-04-06 21:40:00","49306","0.0","0.0","0","0","NAN","NAN","NAN","NAN","NAN"],
    [1548317,"2026-04-06 21:50:00","49307","0.0","0.0","0","0","NAN","NAN","NAN","NAN","NAN"],
    [1548318,"2026-04-06 22:00:00","49308","0.0","0.0","0","0","NAN","NAN","NAN","NAN","NAN"],
    [1548319,"2026-04-06 22:10:00","49309","0.0","0.0","0","0","NAN","NAN","NAN","NAN","NAN"],
    [1548320,"2026-04-06 22:20:00","49310","0.0","0.0","0","0","NAN","NAN","NAN","NAN","NAN"],
    [1548321,"2026-04-06 22:30:00","49311","0.0","0.0","0","0","NAN","NAN","NAN","NAN","NAN"],
    [1548322,"2026-04-06 22:40:00","49312","0.008","224.4","0.196","224.4","NAN","NAN","NAN","NAN","NAN"],
    [1548323,"2026-04-06 22:50:00","49313","0.0","0.0","0","0","NAN","NAN","NAN","NAN","NAN"],
    [1548324,"2026-04-06 23:00:00","49314","0.0","0.0","0","0","NAN","NAN","NAN","NAN","NAN"],
    [1548325,"2026-04-06 23:10:00","49315","0.0","0.0","0","0","NAN","NAN","NAN","NAN","NAN"],
    [1548326,"2026-04-06 23:20:00","49316","0.0","0.0","0","0","NAN","NAN","NAN","NAN","NAN"],
    [1548327,"2026-04-06 23:30:00","49317","0.0","0.0","0","0","NAN","NAN","NAN","NAN","NAN"],
    [1548328,"2026-04-06 23:40:00","49318","0.021","224.5","0.294","224.5","NAN","NAN","NAN","NAN","NAN"],
    [1548329,"2026-04-06 23:50:00","49319","0.102","224.5","0.686","224.5","NAN","NAN","NAN","NAN","NAN"],
    [1548330,"2026-04-07 00:00:00","49320","0.003","224.5","0.229","224.5","NAN","NAN","NAN","NAN","NAN"],
    [1548331,"2026-04-07 00:10:00","49321","0.003","224.6","0.229","224.6","NAN","NAN","NAN","NAN","NAN"],
    [1548332,"2026-04-07 00:20:00","49322","0.0","0.0","0","0","NAN","NAN","NAN","NAN","NAN"],
    [1548333,"2026-04-07 00:30:00","49323","0.008","224.5","0.229","224.5","NAN","NAN","NAN","NAN","NAN"],
    [1548334,"2026-04-07 00:40:00","49324","0.10800000000000001","224.6","0.523","224.6","NAN","NAN","NAN","NAN","NAN"],
    [1548335,"2026-04-07 00:50:00","49325","0.068","224.6","0.588","224.6","NAN","NAN","NAN","NAN","NAN"],
    [1548336,"2026-04-07 01:00:00","49326","0.044000000000000004","224.6","0.555","224.6","NAN","NAN","NAN","NAN","NAN"],
    [1548337,"2026-04-07 01:10:00","49327","0.032","224.6","0.392","224.6","NAN","NAN","NAN","NAN","NAN"],
    [1548338,"2026-04-07 01:20:00","49328","0.0","0.0","0","0","NAN","NAN","NAN","NAN","NAN"],
    [1548339,"2026-04-07 01:30:00","49329","0.012","224.6","0.327","224.6","NAN","NAN","NAN","NAN","NAN"],
    [1548340,"2026-04-07 01:40:00","49330","0.002","224.6","0.229","224.6","NAN","NAN","NAN","NAN","NAN"],
    [1548341,"2026-04-07 01:50:00","49331","0.008","224.7","0.261","224.7","NAN","NAN","NAN","NAN","NAN"],
    [1548342,"2026-04-07 02:00:00","49332","0.08199999999999999","224.8","0.523","224.8","NAN","NAN","NAN","NAN","NAN"],
    [1548343,"2026-04-07 02:10:00","49333","0.177","224.8","0.882","224.8","NAN","NAN","NAN","NAN","NAN"],
    [1548344,"2026-04-07 02:20:00","49334","0.32","225.0","1.111","225.3","NAN","NAN","NAN","NAN","NAN"],
    [1548345,"2026-04-07 02:30:00","49335","0.308","225.3","0.882","225.3","NAN","NAN","NAN","NAN","NAN"],
    [1548346,"2026-04-07 02:40:00","49336","0.036000000000000004","225.4","0.621","225.4","NAN","NAN","NAN","NAN","NAN"],
    [1548347,"2026-04-07 02:50:00","49337","0.0","0.0","0","0","NAN","NAN","NAN","NAN","NAN"],
    [1548348,"2026-04-07 03:00:00","49338","0.20199999999999999","225.3","0.719","225.4","NAN","NAN","NAN","NAN","NAN"],
    [1548349,"2026-04-07 03:10:00","49339","0.024","225.4","0.327","225.4","NAN","NAN","NAN","NAN","NAN"],
    [1548350,"2026-04-07 03:20:00","49340","0.48200000000000004","225.8","1.47","228.9","NAN","NAN","NAN","NAN","NAN"],
    [1548351,"2026-04-07 03:30:00","49341","1.175","247.7","2.091","244.8","NAN","NAN","NAN","NAN","NAN"],
    [1548352,"2026-04-07 03:40:00","49342","1.355","251.4","2.254","251.4","NAN","NAN","NAN","NAN","NAN"],
    [1548353,"2026-04-07 03:50:00","49343","0.769","251.6","1.927","251.6","NAN","NAN","NAN","NAN","NAN"],
    [1548354,"2026-04-07 04:00:00","49344","0.579","251.6","1.633","251.6","NAN","NAN","NAN","NAN","NAN"],
    [1548355,"2026-04-07 04:10:00","49345","0.8420000000000001","251.6","1.666","251.6","NAN","NAN","NAN","NAN","NAN"],
    [1548356,"2026-04-07 04:20:00","49346","0.42","251.6","1.405","251.6","NAN","NAN","NAN","NAN","NAN"],
    [1548357,"2026-04-07 04:30:00","49347","0.723","251.6","1.862","251.6","NAN","NAN","NAN","NAN","NAN"],
    [1548358,"2026-04-07 04:40:00","49348","0.937","251.7","1.895","251.7","NAN","NAN","NAN","NAN","NAN"],
    [1548359,"2026-04-07 04:50:00","49349","1.226","251.7","2.287","251.8","NAN","NAN","NAN","NAN","NAN"],
    [1548360,"2026-04-07 05:00:00","49350","1.254","251.8","2.058","251.7","NAN","NAN","NAN","NAN","NAN"],
    [1548361,"2026-04-07 05:10:00","49351","1.0170000000000001","251.8","1.601","251.8","NAN","NAN","NAN","NAN","NAN"],
    [1548362,"2026-04-07 05:20:00","49352","0.996","251.9","1.829","251.9","NAN","NAN","NAN","NAN","NAN"],
    [1548363,"2026-04-07 05:30:00","49353","0.365","251.8","1.307","251.8","NAN","NAN","NAN","NAN","NAN"],
    [1548364,"2026-04-07 05:40:00","49354","0.8909999999999999","251.8","1.47","251.8","NAN","NAN","NAN","NAN","NAN"],
    [1548365,"2026-04-07 05:50:00","49355","0.126","251.7","1.47","251.7","NAN","NAN","NAN","NAN","NAN"],
    [1548366,"2026-04-07 06:00:00","49356","0.11800000000000001","251.7","0.784","251.7","NAN","NAN","NAN","NAN","NAN"],
    [1548367,"2026-04-07 06:10:00","49357","0.306","251.7","1.405","251.7","NAN","NAN","NAN","NAN","NAN"],
    [1548368,"2026-04-07 06:20:00","49358","0.479","251.7","1.895","251.7","NAN","NAN","NAN","NAN","NAN"],
    [1548369,"2026-04-07 06:30:00","49359","0.255","251.7","0.947","251.7","NAN","NAN","NAN","NAN","NAN"],
    [1548370,"2026-04-07 06:40:00","49360","0.001","251.7","0.098","251.7","NAN","NAN","NAN","NAN","NAN"],
    [1548371,"2026-04-07 06:50:00","49361","0.0","251.7","0.033","251.7","NAN","NAN","NAN","NAN","NAN"],
    [1548372,"2026-04-07 07:00:00","49362","0.0","0.0","0","0","NAN","NAN","NAN","NAN","NAN"],
    [1548373,"2026-04-07 07:10:00","49363","0.0","0.0","0","0","NAN","NAN","NAN","NAN","NAN"],
    [1548374,"2026-04-07 07:20:00","49364","0.0","0.0","0","0","NAN","NAN","NAN","NAN","NAN"],
    [1548375,"2026-04-07 07:30:00","49365","0.267","250.7","1.013","251.1","NAN","NAN","NAN","NAN","NAN"],
    [1548376,"2026-04-07 07:40:00","49366","0.146","252.0","1.078","252.1","NAN","NAN","NAN","NAN","NAN"],
    [1548377,"2026-04-07 07:50:00","49367","0.507","251.8","1.568","252.2","NAN","NAN","NAN","NAN","NAN"],
    [1548378,"2026-04-07 08:00:00","49368","0.972","204.3","2.385","113.4","NAN","NAN","NAN","NAN","NAN"],
    [1548379,"2026-04-07 08:10:00","49369","1.797","111.2","2.973","107.6","NAN","NAN","NAN","NAN","NAN"],
    [1548380,"2026-04-07 08:20:00","49370","2.5980000000000003","86.4","3.659","77.01","NAN","NAN","NAN","NAN","NAN"],
    [1548381,"2026-04-07 08:30:00","49371","2.82","81.9","3.822","85.4","NAN","NAN","NAN","NAN","NAN"],
    [1548382,"2026-04-07 08:40:00","49372","2.8960000000000004","88.6","4.149","85.5","NAN","NAN","NAN","NAN","NAN"],
    [1548383,"2026-04-07 08:50:00","49373","2.8510000000000004","84.4","3.985","91.6","NAN","NAN","NAN","NAN","NAN"],
    [1548384,"2026-04-07 09:00:00","49374","2.898","83.4","4.083","83.7","NAN","NAN","NAN","NAN","NAN"],
    [1548385,"2026-04-07 09:10:00","49375","2.9139999999999997","84.5","3.953","85.8","NAN","NAN","NAN","NAN","NAN"],
    [1548386,"2026-04-07 09:20:00","49376","3.0180000000000002","83.5","4.377","83.2","NAN","NAN","NAN","NAN","NAN"],
    [1548387,"2026-04-07 09:30:00","49377","3.0839999999999996","76.42","4.475","68.96","NAN","NAN","NAN","NAN","NAN"],
    [1548388,"2026-04-07 09:40:00","49378","2.753","91.1","4.377","88.1","NAN","NAN","NAN","NAN","NAN"],
    [1548389,"2026-04-07 09:50:00","49379","2.947","85.3","4.737","83","NAN","NAN","NAN","NAN","NAN"],
    [1548390,"2026-04-07 10:00:00","49380","3.082","85.4","4.671","80.9","NAN","NAN","NAN","NAN","NAN"],
    [1548391,"2026-04-07 10:10:00","49381","2.681","82.9","4.639","74.52","NAN","NAN","NAN","NAN","NAN"],
    [1548392,"2026-04-07 10:20:00","49382","3.134","86.7","4.737","87.3","NAN","NAN","NAN","NAN","NAN"],
    [1548393,"2026-04-07 10:30:00","49383","3.102","90.5","4.671","86.8","NAN","NAN","NAN","NAN","NAN"],
    [1548394,"2026-04-07 10:40:00","49384","3.4","90.4","5.194","92.5","NAN","NAN","NAN","NAN","NAN"],
    [1548395,"2026-04-07 10:50:00","49385","3.531","94.0","5.063","94.4","NAN","NAN","NAN","NAN","NAN"],
    [1548396,"2026-04-07 11:00:00","49386","3.275","91.3","5.194","95.6","NAN","NAN","NAN","NAN","NAN"],
    [1548397,"2026-04-07 11:10:00","49387","3.137","86.2","5.063","88","NAN","NAN","NAN","NAN","NAN"],
    [1548398,"2026-04-07 11:20:00","49388","3.597","90.8","5.161","94.1","NAN","NAN","NAN","NAN","NAN"],
    [1548399,"2026-04-07 11:30:00","49389","2.888","90.6","4.769","102.6","NAN","NAN","NAN","NAN","NAN"],
    [1548400,"2026-04-07 11:40:00","49390","3.22","86.5","4.867","75.16","NAN","NAN","NAN","NAN","NAN"],
    [1548401,"2026-04-07 11:50:00","49391","2.9930000000000003","90.5","5.259","71.26","NAN","NAN","NAN","NAN","NAN"],
    [1548402,"2026-04-07 12:00:00","49392","3.18","98.1","5.063","92.2","NAN","NAN","NAN","NAN","NAN"],
    [1548403,"2026-04-07 12:10:00","49393","2.9","96.7","4.41","99.7","NAN","NAN","NAN","NAN","NAN"],
    [1548404,"2026-04-07 12:20:00","49394","2.697","98.3","5.031","95.2","NAN","NAN","NAN","NAN","NAN"],
    [1548405,"2026-04-07 12:30:00","49395","2.678","103.3","4.214","103.6","NAN","NAN","NAN","NAN","NAN"],
    [1548406,"2026-04-07 12:40:00","49396","2.862","92.0","4.41","102.9","NAN","NAN","NAN","NAN","NAN"],
    [1548407,"2026-04-07 12:50:00","49397","3.255","89.8","4.867","83.1","NAN","NAN","NAN","NAN","NAN"],
    [1548408,"2026-04-07 13:00:00","49398","3.255","91.5","4.769","95.5","NAN","NAN","NAN","NAN","NAN"],
    [1548409,"2026-04-07 13:10:00","49399","3.5610000000000004","93.0","5.063","86.7","NAN","NAN","NAN","NAN","NAN"],
    [1548410,"2026-04-07 13:20:00","49400","3.14","95.7","4.443","88.2","NAN","NAN","NAN","NAN","NAN"],
    [1548411,"2026-04-07 13:30:00","49401","3.2489999999999997","84.6","4.541","71.48","NAN","NAN","NAN","NAN","NAN"],
    [1548412,"2026-04-07 13:40:00","49402","3.588","75.99","4.965","69.32","NAN","NAN","NAN","NAN","NAN"],
    [1548413,"2026-04-07 13:50:00","49403","3.16","87.8","4.541","70.49","NAN","NAN","NAN","NAN","NAN"],
    [1548414,"2026-04-07 14:00:00","49404","3.185","82.4","5.031","92.2","NAN","NAN","NAN","NAN","NAN"],
    [1548415,"2026-04-07 14:10:00","49405","3.446","91.9","5.815","92.7","NAN","NAN","NAN","NAN","NAN"],
    [1548416,"2026-04-07 14:20:00","49406","3.448","81.0","5.161","87.8","NAN","NAN","NAN","NAN","NAN"],
    [1548417,"2026-04-07 14:30:00","49407","2.885","83.1","4.737","67.82","NAN","NAN","NAN","NAN","NAN"],
    [1548418,"2026-04-07 14:40:00","49408","3.208","102.0","4.769","102.9","NAN","NAN","NAN","NAN","NAN"],
    [1548419,"2026-04-07 14:50:00","49409","3.115","101.8","4.475","98.9","NAN","NAN","NAN","NAN","NAN"],
    [1548420,"2026-04-07 15:00:00","49410","3.195","96.2","4.606","96.9","NAN","NAN","NAN","NAN","NAN"],
    [1548421,"2026-04-07 15:10:00","49411","3.511","94.5","4.737","89.7","NAN","NAN","NAN","NAN","NAN"],
    [1548422,"2026-04-07 15:20:00","49412","3.326","91.4","4.769","90.3","NAN","NAN","NAN","NAN","NAN"],
    [1548423,"2026-04-07 15:30:00","49413","3.35","88.7","4.704","81.3","NAN","NAN","NAN","NAN","NAN"],
    [1548424,"2026-04-07 15:40:00","49414","2.978","94.8","4.181","92.1","NAN","NAN","NAN","NAN","NAN"],
    [1548425,"2026-04-07 15:50:00","49415","2.938","81.5","5.129","63.09","NAN","NAN","NAN","NAN","NAN"],
    [1548426,"2026-04-07 16:00:00","49416","3.135","74.42","4.704","69.51","NAN","NAN","NAN","NAN","NAN"],
    [1548427,"2026-04-07 16:10:00","49417","2.948","67.51","4.802","64.84","NAN","NAN","NAN","NAN","NAN"],
    [1548428,"2026-04-07 16:20:00","49418","2.86","66.58","4.573","66.17","NAN","NAN","NAN","NAN","NAN"],
    [1548429,"2026-04-07 16:30:00","49419","3.656","66.57","5.553","69.99","NAN","NAN","NAN","NAN","NAN"],
    [1548430,"2026-04-07 16:40:00","49420","3.5989999999999998","64.75","4.835","62.97","NAN","NAN","NAN","NAN","NAN"],
    [1548431,"2026-04-07 16:50:00","49421","3.577","69.75","5.063","69.32","NAN","NAN","NAN","NAN","NAN"],
    [1548432,"2026-04-07 17:00:00","49422","3.056","73.38","4.541","71.15","NAN","NAN","NAN","NAN","NAN"],
    [1548433,"2026-04-07 17:10:00","49423","2.951","65.01","4.051","72.88","NAN","NAN","NAN","NAN","NAN"],
    [1548434,"2026-04-07 17:20:00","49424","2.434","66.55","3.953","67.23","NAN","NAN","NAN","NAN","NAN"],
    [1548435,"2026-04-07 17:30:00","49425","2.955","68.95","4.508","70.51","NAN","NAN","NAN","NAN","NAN"],
    [1548436,"2026-04-07 17:40:00","49426","2.819","77.0","4.573","64.8","NAN","NAN","NAN","NAN","NAN"],
    [1548437,"2026-04-07 17:50:00","49427","2.271","80.5","3.985","75.29","NAN","NAN","NAN","NAN","NAN"],
    [1548438,"2026-04-07 18:00:00","49428","2.5340000000000003","74.18","4.083","76.47","NAN","NAN","NAN","NAN","NAN"],
    [1548439,"2026-04-07 18:10:00","49429","2.792","70.59","3.789","64.35","NAN","NAN","NAN","NAN","NAN"],
    [1548440,"2026-04-07 18:20:00","49430","2.019","74.32","3.724","72.56","NAN","NAN","NAN","NAN","NAN"],
    [1548441,"2026-04-07 18:30:00","49431","1.98","74.51","3.332","73.75","NAN","NAN","NAN","NAN","NAN"],
    [1548442,"2026-04-07 18:40:00","49432","2.594","70.73","3.626","66.5","NAN","NAN","NAN","NAN","NAN"],
    [1548443,"2026-04-07 18:50:00","49433","2.089","75.35","3.985","71.81","NAN","NAN","NAN","NAN","NAN"],
    [1548444,"2026-04-07 19:00:00","49434","2.064","74.46","3.887","69.65","NAN","NAN","NAN","NAN","NAN"],
    [1548445,"2026-04-07 19:10:00","49435","1.9380000000000002","73.93","3.659","73.11","NAN","NAN","NAN","NAN","NAN"],
    [1548446,"2026-04-07 19:20:00","49436","1.643","67.08","2.875","73.44","NAN","NAN","NAN","NAN","NAN"],
    [1548447,"2026-04-07 19:30:00","49437","1.3969999999999998","64.82","2.973","66.22","NAN","NAN","NAN","NAN","NAN"],
    [1548448,"2026-04-07 19:40:00","49438","1.805","68.86","2.842","67.46","NAN","NAN","NAN","NAN","NAN"],
    [1548449,"2026-04-07 19:50:00","49439","1.5030000000000001","68.12","2.646","69.18","NAN","NAN","NAN","NAN","NAN"],
    [1548450,"2026-04-07 20:00:00","49440","1.9240000000000002","69.63","3.43","65.31","NAN","NAN","NAN","NAN","NAN"],
    [1548451,"2026-04-07 20:10:00","49441","1.8880000000000001","70.98","3.169","68.7","NAN","NAN","NAN","NAN","NAN"],
    [1548452,"2026-04-07 20:20:00","49442","1.733","70.39","3.43","65.47","NAN","NAN","NAN","NAN","NAN"],
    [1548453,"2026-04-07 20:30:00","49443","1.795","66.22","3.397","59.82","NAN","NAN","NAN","NAN","NAN"],
    [1548454,"2026-04-07 20:40:00","49444","1.901","60.36","3.365","62.04","NAN","NAN","NAN","NAN","NAN"],
    [1548455,"2026-04-07 20:50:00","49445","2.094","55.1","3.495","50.84","NAN","NAN","NAN","NAN","NAN"],
    [1548456,"2026-04-07 21:00:00","49446","1.7169999999999999","56.45","3.365","56.52","NAN","NAN","NAN","NAN","NAN"],
    [1548457,"2026-04-07 21:10:00","49447","1.705","54.98","2.907","47.76","NAN","NAN","NAN","NAN","NAN"],
    [1548458,"2026-04-07 21:20:00","49448","2.12","59.91","3.691","64.6","NAN","NAN","NAN","NAN","NAN"],
    [1548459,"2026-04-07 21:30:00","49449","2.069","59.93","4.051","49.34","NAN","NAN","NAN","NAN","NAN"],
    [1548460,"2026-04-07 21:40:00","49450","1.995","57.25","4.083","58.44","NAN","NAN","NAN","NAN","NAN"],
    [1548461,"2026-04-07 21:50:00","49451","1.868","53.43","3.267","52.99","NAN","NAN","NAN","NAN","NAN"],
    [1548462,"2026-04-07 22:00:00","49452","2.008","58.88","4.279","62.66","NAN","NAN","NAN","NAN","NAN"],
    [1548463,"2026-04-07 22:10:00","49453","2.039","60.23","4.083","58.27","NAN","NAN","NAN","NAN","NAN"],
    [1548464,"2026-04-07 22:20:00","49454","1.751","57.61","3.397","65.45","NAN","NAN","NAN","NAN","NAN"],
    [1548465,"2026-04-07 22:30:00","49455","2.069","57.32","3.724","65.66","NAN","NAN","NAN","NAN","NAN"],
    [1548466,"2026-04-07 22:40:00","49456","2.245","53.15","4.41","61.98","NAN","NAN","NAN","NAN","NAN"],
    [1548467,"2026-04-07 22:50:00","49457","1.6280000000000001","50.3","3.789","57","NAN","NAN","NAN","NAN","NAN"],
    [1548468,"2026-04-07 23:00:00","49458","2.115","46.3","3.822","30.42","NAN","NAN","NAN","NAN","NAN"],
    [1548469,"2026-04-07 23:10:00","49459","2.513","46.67","4.41","50.51","NAN","NAN","NAN","NAN","NAN"],
    [1548470,"2026-04-07 23:20:00","49460","1.923","47.11","3.397","43.11","NAN","NAN","NAN","NAN","NAN"],
    [1548471,"2026-04-07 23:30:00","49461","1.6219999999999999","42.04","2.875","41.37","NAN","NAN","NAN","NAN","NAN"],
    [1548472,"2026-04-07 23:40:00","49462","1.056","41.75","1.895","41.12","NAN","NAN","NAN","NAN","NAN"],
    [1548473,"2026-04-07 23:50:00","49463","0.4","40.58","1.013","40.57","NAN","NAN","NAN","NAN","NAN"],
    [1548474,"2026-04-08 00:00:00","49464","0.9990000000000001","40.37","2.744","40.28","NAN","NAN","NAN","NAN","NAN"],
    [1548475,"2026-04-08 00:10:00","49465","0.583","40.28","1.699","40.28","NAN","NAN","NAN","NAN","NAN"],
    [1548476,"2026-04-08 00:20:00","49466","1.003","42.31","2.385","54.37","NAN","NAN","NAN","NAN","NAN"],
    [1548477,"2026-04-08 00:30:00","49467","1.6580000000000001","46.57","2.907","53.7","NAN","NAN","NAN","NAN","NAN"],
    [1548478,"2026-04-08 00:40:00","49468","1.733","45.78","3.005","40.63","NAN","NAN","NAN","NAN","NAN"],
    [1548479,"2026-04-08 00:50:00","49469","0.8809999999999999","48.88","1.862","50.52","NAN","NAN","NAN","NAN","NAN"],
    [1548480,"2026-04-08 01:00:00","49470","1.0290000000000001","41.08","1.829","38.23","NAN","NAN","NAN","NAN","NAN"],
    [1548481,"2026-04-08 01:10:00","49471","0.19399999999999998","38.09","1.405","38.13","NAN","NAN","NAN","NAN","NAN"],
    [1548482,"2026-04-08 01:20:00","49472","0.016","37.59","0.359","37.68","NAN","NAN","NAN","NAN","NAN"],
    [1548483,"2026-04-08 01:30:00","49473","0.0","0.0","0","0","NAN","NAN","NAN","NAN","NAN"],
    [1548484,"2026-04-08 01:40:00","49474","0.0","0.0","0","0","NAN","NAN","NAN","NAN","NAN"],
    [1548485,"2026-04-08 01:50:00","49475","0.0","0.0","0","0","NAN","NAN","NAN","NAN","NAN"],
    [1548486,"2026-04-08 02:00:00","49476","0.004","37.23","0.261","37.23","NAN","NAN","NAN","NAN","NAN"],
    [1548487,"2026-04-08 02:10:00","49477","0.036000000000000004","37.2","0.457","37.2","NAN","NAN","NAN","NAN","NAN"],
    [1548488,"2026-04-08 02:20:00","49478","0.22899999999999998","37.09","0.686","37.11","NAN","NAN","NAN","NAN","NAN"],
    [1548489,"2026-04-08 02:30:00","49479","0.027000000000000003","37.01","0.457","37.01","NAN","NAN","NAN","NAN","NAN"],
    [1548490,"2026-04-08 02:40:00","49480","0.084","37.01","0.555","37.01","NAN","NAN","NAN","NAN","NAN"],
    [1548491,"2026-04-08 02:50:00","49481","0.126","37.01","0.784","37.01","NAN","NAN","NAN","NAN","NAN"],
    [1548492,"2026-04-08 03:00:00","49482","0.0","0.0","0","0","NAN","NAN","NAN","NAN","NAN"],
    [1548493,"2026-04-08 03:10:00","49483","0.002","37.01","0.261","37.01","NAN","NAN","NAN","NAN","NAN"],
    [1548494,"2026-04-08 03:20:00","49484","0.344","36.93","1.013","36.83","NAN","NAN","NAN","NAN","NAN"],
    [1548495,"2026-04-08 03:30:00","49485","0.28600000000000003","36.7","1.013","36.82","NAN","NAN","NAN","NAN","NAN"],
    [1548496,"2026-04-08 03:40:00","49486","0.127","36.62","0.621","36.62","NAN","NAN","NAN","NAN","NAN"],
    [1548497,"2026-04-08 03:50:00","49487","0.013999999999999999","36.5","0.327","36.53","NAN","NAN","NAN","NAN","NAN"],
    [1548498,"2026-04-08 04:00:00","49488","0.0","36.43","0.065","36.43","NAN","NAN","NAN","NAN","NAN"],
    [1548499,"2026-04-08 04:10:00","49489","0.0","0.0","0","0","NAN","NAN","NAN","NAN","NAN"],
    [1548500,"2026-04-08 04:20:00","49490","0.0","0.0","0","0","NAN","NAN","NAN","NAN","NAN"],
    [1548501,"2026-04-08 04:30:00","49491","0.059000000000000004","36.43","0.555","36.43","NAN","NAN","NAN","NAN","NAN"],
    [1548502,"2026-04-08 04:40:00","49492","0.043","36.43","0.751","36.43","NAN","NAN","NAN","NAN","NAN"],
    [1548503,"2026-04-08 04:50:00","49493","0.098","36.43","0.588","36.43","NAN","NAN","NAN","NAN","NAN"],
    [1548504,"2026-04-08 05:00:00","49494","0.205","36.43","0.719","36.43","NAN","NAN","NAN","NAN","NAN"],
    [1548505,"2026-04-08 05:10:00","49495","0.187","36.43","0.686","36.43","NAN","NAN","NAN","NAN","NAN"],
    [1548506,"2026-04-08 05:20:00","49496","0.002","36.43","0.261","36.43","NAN","NAN","NAN","NAN","NAN"],
    [1548507,"2026-04-08 05:30:00","49497","0.395","36.43","1.045","36.43","NAN","NAN","NAN","NAN","NAN"],
    [1548508,"2026-04-08 05:40:00","49498","0.295","36.43","0.947","36.43","NAN","NAN","NAN","NAN","NAN"],
    [1548509,"2026-04-08 05:50:00","49499","0.096","36.43","0.588","36.43","NAN","NAN","NAN","NAN","NAN"],
    [1548510,"2026-04-08 06:00:00","49500","0.18899999999999997","36.43","0.817","36.43","NAN","NAN","NAN","NAN","NAN"],
    [1548511,"2026-04-08 06:10:00","49501","0.049","36.43","0.686","36.43","NAN","NAN","NAN","NAN","NAN"],
    [1548512,"2026-04-08 06:20:00","49502","0.273","36.38","0.817","36.36","NAN","NAN","NAN","NAN","NAN"],
    [1548513,"2026-04-08 06:30:00","49503","0.32299999999999995","36.43","0.817","36.43","NAN","NAN","NAN","NAN","NAN"],
    [1548514,"2026-04-08 06:40:00","49504","0.069","36.43","0.784","36.43","NAN","NAN","NAN","NAN","NAN"],
    [1548515,"2026-04-08 06:50:00","49505","0.9059999999999999","55.84","3.136","63.48","NAN","NAN","NAN","NAN","NAN"],
    [1548516,"2026-04-08 07:00:00","49506","2.496","80.2","4.083","85.1","NAN","NAN","NAN","NAN","NAN"],
    [1548517,"2026-04-08 07:10:00","49507","2.418","68.12","3.985","63.1","NAN","NAN","NAN","NAN","NAN"],
    [1548518,"2026-04-08 07:20:00","49508","2.5180000000000002","75.57","4.312","82","NAN","NAN","NAN","NAN","NAN"],
    [1548519,"2026-04-08 07:30:00","49509","2.9339999999999997","80.3","4.606","77.24","NAN","NAN","NAN","NAN","NAN"],
    [1548520,"2026-04-08 07:40:00","49510","2.5780000000000003","74.83","4.541","87.4","NAN","NAN","NAN","NAN","NAN"],
    [1548521,"2026-04-08 07:50:00","49511","2.86","81.7","4.214","88.6","NAN","NAN","NAN","NAN","NAN"],
    [1548522,"2026-04-08 08:00:00","49512","2.576","76.37","4.181","94.1","NAN","NAN","NAN","NAN","NAN"],
    [1548523,"2026-04-08 08:10:00","49513","2.8369999999999997","79.79","4.41","85.3","NAN","NAN","NAN","NAN","NAN"],
    [1548524,"2026-04-08 08:20:00","49514","2.738","80.5","4.279","85.9","NAN","NAN","NAN","NAN","NAN"],
    [1548525,"2026-04-08 08:30:00","49515","2.5980000000000003","82.6","4.541","84.7","NAN","NAN","NAN","NAN","NAN"],
    [1548526,"2026-04-08 08:40:00","49516","2.7689999999999997","88.1","5.292","89.7","NAN","NAN","NAN","NAN","NAN"],
    [1548527,"2026-04-08 08:50:00","49517","2.813","91.4","5.292","89.7","NAN","NAN","NAN","NAN","NAN"],
    [1548528,"2026-04-08 09:00:00","49518","3.0660000000000003","83.7","4.573","98.4","NAN","NAN","NAN","NAN","NAN"],
    [1548529,"2026-04-08 09:10:00","49519","3.155","80.9","4.867","67.03","NAN","NAN","NAN","NAN","NAN"],
    [1548530,"2026-04-08 09:20:00","49520","2.897","92.7","5.031","66.28","NAN","NAN","NAN","NAN","NAN"],
    [1548531,"2026-04-08 09:30:00","49521","3.475","76.45","5.586","70.38","NAN","NAN","NAN","NAN","NAN"],
    [1548532,"2026-04-08 09:40:00","49522","3.305","88.0","5.227","86.8","NAN","NAN","NAN","NAN","NAN"],
    [1548533,"2026-04-08 09:50:00","49523","3.799","86.1","5.455","85","NAN","NAN","NAN","NAN","NAN"],
    [1548534,"2026-04-08 10:00:00","49524","3.3789999999999996","82.7","5.259","70.68","NAN","NAN","NAN","NAN","NAN"],
    [1548535,"2026-04-08 10:10:00","49525","3.6910000000000003","78.36","5.978","63.89","NAN","NAN","NAN","NAN","NAN"],
    [1548536,"2026-04-08 10:20:00","49526","3.988","78.19","6.435","69.49","NAN","NAN","NAN","NAN","NAN"],
    [1548537,"2026-04-08 10:30:00","49527","4.205","75.66","6.305","83.6","NAN","NAN","NAN","NAN","NAN"],
    [1548538,"2026-04-08 10:40:00","49528","4.287","83.3","6.305","80.3","NAN","NAN","NAN","NAN","NAN"],
    [1548539,"2026-04-08 10:50:00","49529","3.5589999999999997","88.9","5.455","95.5","NAN","NAN","NAN","NAN","NAN"],
    [1548540,"2026-04-08 11:00:00","49530","3.822","89.6","5.619","91.3","NAN","NAN","NAN","NAN","NAN"],
    [1548541,"2026-04-08 11:10:00","49531","3.9019999999999997","93.6","6.599","87","NAN","NAN","NAN","NAN","NAN"],
    [1548542,"2026-04-08 11:20:00","49532","4.387","82.4","6.501","87.8","NAN","NAN","NAN","NAN","NAN"],
    [1548543,"2026-04-08 11:30:00","49533","4.03","86.0","6.305","73.12","NAN","NAN","NAN","NAN","NAN"],
    [1548544,"2026-04-08 11:40:00","49534","4.376","85.1","6.762","72.31","NAN","NAN","NAN","NAN","NAN"],
    [1548545,"2026-04-08 11:50:00","49535","4.458","88.5","6.958","91.1","NAN","NAN","NAN","NAN","NAN"],
    [1548546,"2026-04-08 12:00:00","49536","4.013","91.5","6.631","95.2","NAN","NAN","NAN","NAN","NAN"],
    [1548547,"2026-04-08 12:10:00","49537","4.678999999999999","78.7","7.252","72.14","NAN","NAN","NAN","NAN","NAN"],
    [1548548,"2026-04-08 12:20:00","49538","4.151","85.5","6.925","75.71","NAN","NAN","NAN","NAN","NAN"],
    [1548549,"2026-04-08 12:30:00","49539","4.619","91.9","6.599","87.6","NAN","NAN","NAN","NAN","NAN"],
    [1548550,"2026-04-08 12:40:00","49540","4.504","75.89","6.991","84.1","NAN","NAN","NAN","NAN","NAN"],
    [1548551,"2026-04-08 12:50:00","49541","3.608","89.5","5.553","94.4","NAN","NAN","NAN","NAN","NAN"],
    [1548552,"2026-04-08 13:00:00","49542","4.12","82.7","6.566","71.85","NAN","NAN","NAN","NAN","NAN"],
    [1548553,"2026-04-08 13:10:00","49543","3.6319999999999997","84.8","6.37","64.93","NAN","NAN","NAN","NAN","NAN"],
    [1548554,"2026-04-08 13:20:00","49544","3.805","85.1","5.815","82","NAN","NAN","NAN","NAN","NAN"],
    [1548555,"2026-04-08 13:30:00","49545","4.381","86.1","6.239","98","NAN","NAN","NAN","NAN","NAN"],
    [1548556,"2026-04-08 13:40:00","49546","4.544","86.9","6.925","71","NAN","NAN","NAN","NAN","NAN"],
    [1548557,"2026-04-08 13:50:00","49547","4.535","83.2","7.579","88.3","NAN","NAN","NAN","NAN","NAN"],
    [1548558,"2026-04-08 14:00:00","49548","4.468999999999999","80.4","6.631","73.4","NAN","NAN","NAN","NAN","NAN"],
    [1548559,"2026-04-08 14:10:00","49549","5.0489999999999995","75.2","6.762","71.73","NAN","NAN","NAN","NAN","NAN"],
    [1548560,"2026-04-08 14:20:00","49550","4.734","82.7","6.893","71.85","NAN","NAN","NAN","NAN","NAN"],
    [1548561,"2026-04-08 14:30:00","49551","4.91","80.1","7.252","70.44","NAN","NAN","NAN","NAN","NAN"],
    [1548562,"2026-04-08 14:40:00","49552","4.846","81.4","7.513","77.63","NAN","NAN","NAN","NAN","NAN"],
    [1548563,"2026-04-08 14:50:00","49553","4.734","89.8","6.86","100.1","NAN","NAN","NAN","NAN","NAN"],
    [1548564,"2026-04-08 15:00:00","49554","4.313","86.1","6.991","79.24","NAN","NAN","NAN","NAN","NAN"],
    [1548565,"2026-04-08 15:10:00","49555","4.373","86.3","8","90.2","NAN","NAN","NAN","NAN","NAN"],
    [1548566,"2026-04-08 15:20:00","49556","4.487","87.8","7.579","84.5","NAN","NAN","NAN","NAN","NAN"],
    [1548567,"2026-04-08 15:30:00","49557","4.397","90.9","7.121","78.46","NAN","NAN","NAN","NAN","NAN"],
    [1548568,"2026-04-08 15:40:00","49558","3.072","85.3","6.207","73.15","NAN","NAN","NAN","NAN","NAN"],
    [1548569,"2026-04-08 15:50:00","49559","3.675","83.3","6.174","80.9","NAN","NAN","NAN","NAN","NAN"],
    [1548570,"2026-04-08 16:00:00","49560","3.855","80.8","5.684","67.81","NAN","NAN","NAN","NAN","NAN"],
    [1548571,"2026-04-08 16:10:00","49561","2.952","88.9","5.063","72.7","NAN","NAN","NAN","NAN","NAN"],
    [1548572,"2026-04-08 16:20:00","49562","3.448","81.0","5.619","72.5","NAN","NAN","NAN","NAN","NAN"],
    [1548573,"2026-04-08 16:30:00","49563","3.201","102.8","4.933","98.6","NAN","NAN","NAN","NAN","NAN"],
    [1548574,"2026-04-08 16:40:00","49564","3.0260000000000002","98.0","4.802","99.2","NAN","NAN","NAN","NAN","NAN"],
    [1548575,"2026-04-08 16:50:00","49565","3.15","81.5","4.737","65.24","NAN","NAN","NAN","NAN","NAN"],
    [1548576,"2026-04-08 17:00:00","49566","2.966","76.35","5.031","74.27","NAN","NAN","NAN","NAN","NAN"],
    [1548577,"2026-04-08 17:10:00","49567","2.9930000000000003","82.4","4.998","64.45","NAN","NAN","NAN","NAN","NAN"],
    [1548578,"2026-04-08 17:20:00","49568","2.427","82.4","4.704","80.5","NAN","NAN","NAN","NAN","NAN"],
    [1548579,"2026-04-08 17:30:00","49569","2.293","84.5","3.495","75.51","NAN","NAN","NAN","NAN","NAN"],
    [1548580,"2026-04-08 17:40:00","49570","2.492","84.1","3.887","90.6","NAN","NAN","NAN","NAN","NAN"],
    [1548581,"2026-04-08 17:50:00","49571","2.898","83.9","4.377","82.1","NAN","NAN","NAN","NAN","NAN"],
    [1548582,"2026-04-08 18:00:00","49572","2.1719999999999997","97.4","3.659","67.42","NAN","NAN","NAN","NAN","NAN"],
    [1548583,"2026-04-08 18:10:00","49573","2.305","98.4","3.855","118.1","NAN","NAN","NAN","NAN","NAN"],
    [1548584,"2026-04-08 18:20:00","49574","2.241","82.5","3.789","77.05","NAN","NAN","NAN","NAN","NAN"],
    [1548585,"2026-04-08 18:30:00","49575","1.685","65.07","4.737","40.81","NAN","NAN","NAN","NAN","NAN"],
    [1548586,"2026-04-08 18:40:00","49576","2.549","74.01","3.953","76.22","NAN","NAN","NAN","NAN","NAN"],
    [1548587,"2026-04-08 18:50:00","49577","2.92","82.3","4.835","85.5","NAN","NAN","NAN","NAN","NAN"],
    [1548588,"2026-04-08 19:00:00","49578","2.2880000000000003","72.62","4.769","32.94","NAN","NAN","NAN","NAN","NAN"],
    [1548589,"2026-04-08 19:10:00","49579","2.064","76.37","4.573","74.28","NAN","NAN","NAN","NAN","NAN"],
    [1548590,"2026-04-08 19:20:00","49580","2.9619999999999997","80.3","4.639","92.9","NAN","NAN","NAN","NAN","NAN"],
    [1548591,"2026-04-08 19:30:00","49581","2.8939999999999997","83.8","4.639","74.65","NAN","NAN","NAN","NAN","NAN"],
    [1548592,"2026-04-08 19:40:00","49582","2.617","83.2","4.312","73.8","NAN","NAN","NAN","NAN","NAN"],
    [1548593,"2026-04-08 19:50:00","49583","2.262","85.9","4.083","78.66","NAN","NAN","NAN","NAN","NAN"],
    [1548594,"2026-04-08 20:00:00","49584","1.617","80.7","3.855","84.1","NAN","NAN","NAN","NAN","NAN"],
    [1548595,"2026-04-08 20:10:00","49585","1.469","81.2","2.907","85.1","NAN","NAN","NAN","NAN","NAN"],
    [1548596,"2026-04-08 20:20:00","49586","2.128","87.6","4.345","83.8","NAN","NAN","NAN","NAN","NAN"],
    [1548597,"2026-04-08 20:30:00","49587","2.835","80.4","4.345","72.38","NAN","NAN","NAN","NAN","NAN"],
    [1548598,"2026-04-08 20:40:00","49588","2.332","81.0","3.626","75.86","NAN","NAN","NAN","NAN","NAN"],
    [1548599,"2026-04-08 20:50:00","49589","1.325","73.87","3.005","72.91","NAN","NAN","NAN","NAN","NAN"],
    [1548600,"2026-04-08 21:00:00","49590","1.976","80.5","3.169","76.34","NAN","NAN","NAN","NAN","NAN"],
    [1548601,"2026-04-08 21:10:00","49591","1.36","78.2","2.94","89.2","NAN","NAN","NAN","NAN","NAN"],
    [1548602,"2026-04-08 21:20:00","49592","2.044","81.7","2.94","86.6","NAN","NAN","NAN","NAN","NAN"],
    [1548603,"2026-04-08 21:30:00","49593","1.973","80.7","3.103","80.7","NAN","NAN","NAN","NAN","NAN"],
    [1548604,"2026-04-08 21:40:00","49594","1.591","78.82","3.038","80.2","NAN","NAN","NAN","NAN","NAN"],
    [1548605,"2026-04-08 21:50:00","49595","0.715","77.41","1.96","82.9","NAN","NAN","NAN","NAN","NAN"],
    [1548606,"2026-04-08 22:00:00","49596","0.491","75.66","1.372","74.23","NAN","NAN","NAN","NAN","NAN"],
    [1548607,"2026-04-08 22:10:00","49597","0.248","79.87","0.98","78.03","NAN","NAN","NAN","NAN","NAN"],
    [1548608,"2026-04-08 22:20:00","49598","0.0","0.0","0","0","NAN","NAN","NAN","NAN","NAN"],
    [1548609,"2026-04-08 22:30:00","49599","0.0","0.0","0","0","NAN","NAN","NAN","NAN","NAN"],
    [1548610,"2026-04-08 22:40:00","49600","0.024","86.2","0.359","86.5","NAN","NAN","NAN","NAN","NAN"],
    [1548611,"2026-04-08 22:50:00","49601","0.45","86.4","0.947","86.4","NAN","NAN","NAN","NAN","NAN"],
    [1548612,"2026-04-08 23:00:00","49602","0.149","85.2","0.784","84.7","NAN","NAN","NAN","NAN","NAN"],
    [1548613,"2026-04-08 23:10:00","49603","0.0","0.0","0","0","NAN","NAN","NAN","NAN","NAN"],
    [1548614,"2026-04-08 23:20:00","49604","0.095","84.1","0.653","84.1","NAN","NAN","NAN","NAN","NAN"],
    [1548615,"2026-04-08 23:30:00","49605","0.18899999999999997","82.8","0.686","82.8","NAN","NAN","NAN","NAN","NAN"],
    [1548616,"2026-04-08 23:40:00","49606","0.0","0.0","0","0","NAN","NAN","NAN","NAN","NAN"],
    [1548617,"2026-04-08 23:50:00","49607","0.0","0.0","0","0","NAN","NAN","NAN","NAN","NAN"],
    [1548618,"2026-04-09 00:00:00","49608","0.0","0.0","0","0","NAN","NAN","NAN","NAN","NAN"],
    [1548619,"2026-04-09 00:10:00","49609","0.0","0.0","0","0","NAN","NAN","NAN","NAN","NAN"],
    [1548620,"2026-04-09 00:20:00","49610","0.0","0.0","0","0","NAN","NAN","NAN","NAN","NAN"],
    [1548621,"2026-04-09 00:30:00","49611","0.0","0.0","0","0","NAN","NAN","NAN","NAN","NAN"],
    [1548622,"2026-04-09 00:40:00","49612","0.001","89.4","0.196","89.4","NAN","NAN","NAN","NAN","NAN"],
    [1548623,"2026-04-09 00:50:00","49613","0.004","89.4","0.229","89.4","NAN","NAN","NAN","NAN","NAN"],
    [1548624,"2026-04-09 01:00:00","49614","0.0","0.0","0","0","NAN","NAN","NAN","NAN","NAN"],
    [1548625,"2026-04-09 01:10:00","49615","0.0","0.0","0","0","NAN","NAN","NAN","NAN","NAN"],
    [1548626,"2026-04-09 01:20:00","49616","0.0","0.0","0","0","NAN","NAN","NAN","NAN","NAN"],
    [1548627,"2026-04-09 01:30:00","49617","0.0","0.0","0","0","NAN","NAN","NAN","NAN","NAN"],
    [1548628,"2026-04-09 01:40:00","49618","0.0","0.0","0","0","NAN","NAN","NAN","NAN","NAN"],
    [1548629,"2026-04-09 01:50:00","49619","0.0","0.0","0","0","NAN","NAN","NAN","NAN","NAN"],
    [1548630,"2026-04-09 02:00:00","49620","0.185","86.2","1.013","85.9","NAN","NAN","NAN","NAN","NAN"],
    [1548631,"2026-04-09 02:10:00","49621","0.049","85.4","0.523","85.1","NAN","NAN","NAN","NAN","NAN"],
    [1548632,"2026-04-09 02:20:00","49622","0.0","0.0","0","0","NAN","NAN","NAN","NAN","NAN"],
    [1548633,"2026-04-09 02:30:00","49623","0.042","85.4","0.425","85.1","NAN","NAN","NAN","NAN","NAN"],
    [1548634,"2026-04-09 02:40:00","49624","0.006","87.6","0.327","87.6","NAN","NAN","NAN","NAN","NAN"],
    [1548635,"2026-04-09 02:50:00","49625","0.163","87.7","0.686","85","NAN","NAN","NAN","NAN","NAN"],
    [1548636,"2026-04-09 03:00:00","49626","0.018000000000000002","89.4","0.392","89.4","NAN","NAN","NAN","NAN","NAN"],
    [1548637,"2026-04-09 03:10:00","49627","0.0","0.0","0","0","NAN","NAN","NAN","NAN","NAN"],
    [1548638,"2026-04-09 03:20:00","49628","0.14800000000000002","84.5","1.176","84","NAN","NAN","NAN","NAN","NAN"],
    [1548639,"2026-04-09 03:30:00","49629","0.503","87.0","1.568","81.7","NAN","NAN","NAN","NAN","NAN"],
    [1548640,"2026-04-09 03:40:00","49630","0.003","89.6","0.163","89.6","NAN","NAN","NAN","NAN","NAN"],
    [1548641,"2026-04-09 03:50:00","49631","0.0","0.0","0","0","NAN","NAN","NAN","NAN","NAN"],
    [1548642,"2026-04-09 04:00:00","49632","0.0","0.0","0","0","NAN","NAN","NAN","NAN","NAN"],
    [1548643,"2026-04-09 04:10:00","49633","0.002","89.8","0.163","89.8","NAN","NAN","NAN","NAN","NAN"],
    [1548644,"2026-04-09 04:20:00","49634","1.031","89.4","2.287","90.3","NAN","NAN","NAN","NAN","NAN"],
    [1548645,"2026-04-09 04:30:00","49635","0.9159999999999999","70.76","2.352","72.17","NAN","NAN","NAN","NAN","NAN"],
    [1548646,"2026-04-09 04:40:00","49636","0.594","69.18","1.797","69.15","NAN","NAN","NAN","NAN","NAN"],
    [1548647,"2026-04-09 04:50:00","49637","0.8220000000000001","67.88","1.895","67.04","NAN","NAN","NAN","NAN","NAN"],
    [1548648,"2026-04-09 05:00:00","49638","0.62","65.7","1.568","65.98","NAN","NAN","NAN","NAN","NAN"],
    [1548649,"2026-04-09 05:10:00","49639","0.995","65.48","1.895","65.42","NAN","NAN","NAN","NAN","NAN"],
    [1548650,"2026-04-09 05:20:00","49640","0.787","64.82","1.927","64.82","NAN","NAN","NAN","NAN","NAN"],
    [1548651,"2026-04-09 05:30:00","49641","0.002","64.82","0.261","64.82","NAN","NAN","NAN","NAN","NAN"],
    [1548652,"2026-04-09 05:40:00","49642","0.0","0.0","0","0","NAN","NAN","NAN","NAN","NAN"],
    [1548653,"2026-04-09 05:50:00","49643","0.0","0.0","0","0","NAN","NAN","NAN","NAN","NAN"],
    [1548654,"2026-04-09 06:00:00","49644","0.001","64.82","0.131","64.82","NAN","NAN","NAN","NAN","NAN"],
    [1548655,"2026-04-09 06:10:00","49645","0.015","67.04","0.392","67.03","NAN","NAN","NAN","NAN","NAN"],
    [1548656,"2026-04-09 06:20:00","49646","0.067","67.24","0.653","67.23","NAN","NAN","NAN","NAN","NAN"],
    [1548657,"2026-04-09 06:30:00","49647","0.45899999999999996","67.95","1.176","68","NAN","NAN","NAN","NAN","NAN"],
    [1548658,"2026-04-09 06:40:00","49648","1.036","68.59","1.829","69.15","NAN","NAN","NAN","NAN","NAN"],
    [1548659,"2026-04-09 06:50:00","49649","0.698","69.35","1.633","69.05","NAN","NAN","NAN","NAN","NAN"],
    [1548660,"2026-04-09 07:00:00","49650","0.266","70.8","1.078","70.7","NAN","NAN","NAN","NAN","NAN"],
    [1548661,"2026-04-09 07:10:00","49651","0.938","71.3","1.699","71.67","NAN","NAN","NAN","NAN","NAN"],
    [1548662,"2026-04-09 07:20:00","49652","1.5590000000000002","71.5","2.809","65.49","NAN","NAN","NAN","NAN","NAN"],
    [1548663,"2026-04-09 07:30:00","49653","1.591","83.0","2.744","84.9","NAN","NAN","NAN","NAN","NAN"],
    [1548664,"2026-04-09 07:40:00","49654","0.653","84.6","1.699","85","NAN","NAN","NAN","NAN","NAN"],
    [1548665,"2026-04-09 07:50:00","49655","1.3230000000000002","83.7","2.221","77.34","NAN","NAN","NAN","NAN","NAN"],
    [1548666,"2026-04-09 08:00:00","49656","1.057","82.9","1.927","85.3","NAN","NAN","NAN","NAN","NAN"],
    [1548667,"2026-04-09 08:10:00","49657","0.598","78.86","1.797","75.9","NAN","NAN","NAN","NAN","NAN"],
    [1548668,"2026-04-09 08:20:00","49658","0.273","87.6","1.274","78.21","NAN","NAN","NAN","NAN","NAN"],
    [1548669,"2026-04-09 08:30:00","49659","0.765","88.2","1.568","88.2","NAN","NAN","NAN","NAN","NAN"],
    [1548670,"2026-04-09 08:40:00","49660","0.506","88.8","1.405","89","NAN","NAN","NAN","NAN","NAN"],
    [1548671,"2026-04-09 08:50:00","49661","0.825","89.2","1.633","89.5","NAN","NAN","NAN","NAN","NAN"],
    [1548672,"2026-04-09 09:00:00","49662","0.742","89.6","1.699","89.6","NAN","NAN","NAN","NAN","NAN"],
    [1548673,"2026-04-09 09:10:00","49663","1.21","89.9","2.091","90.1","NAN","NAN","NAN","NAN","NAN"],
    [1548674,"2026-04-09 09:20:00","49664","1.256","90.4","2.156","90.2","NAN","NAN","NAN","NAN","NAN"],
    [1548675,"2026-04-09 09:30:00","49665","1.7309999999999999","91.6","2.679","92.3","NAN","NAN","NAN","NAN","NAN"],
    [1548676,"2026-04-09 09:40:00","49666","1.8719999999999999","93.6","2.613","93.5","NAN","NAN","NAN","NAN","NAN"],
    [1548677,"2026-04-09 09:50:00","49667","1.7819999999999998","93.8","2.679","94.5","NAN","NAN","NAN","NAN","NAN"],
    [1548678,"2026-04-09 10:00:00","49668","1.4169999999999998","92.4","2.483","94.8","NAN","NAN","NAN","NAN","NAN"],
    [1548679,"2026-04-09 10:10:00","49669","1.516","94.6","2.45","95.9","NAN","NAN","NAN","NAN","NAN"],
    [1548680,"2026-04-09 10:20:00","49670","1.203","100.0","2.287","96.6","NAN","NAN","NAN","NAN","NAN"],
    [1548681,"2026-04-09 10:30:00","49671","1.6269999999999998","108.8","2.679","109.6","NAN","NAN","NAN","NAN","NAN"],
    [1548682,"2026-04-09 10:40:00","49672","2.146","123.0","3.332","118.9","NAN","NAN","NAN","NAN","NAN"],
    [1548683,"2026-04-09 10:50:00","49673","1.7109999999999999","140.2","3.691","149.5","NAN","NAN","NAN","NAN","NAN"],
    [1548684,"2026-04-09 11:00:00","49674","1.9169999999999998","190.0","3.463","196.4","NAN","NAN","NAN","NAN","NAN"],
    [1548685,"2026-04-09 11:10:00","49675","2.505","171.9","3.822","169.6","NAN","NAN","NAN","NAN","NAN"],
    [1548686,"2026-04-09 11:20:00","49676","2.407","166.6","3.757","173.2","NAN","NAN","NAN","NAN","NAN"],
    [1548687,"2026-04-09 11:30:00","49677","2.197","162.0","3.757","160.9","NAN","NAN","NAN","NAN","NAN"],
    [1548688,"2026-04-09 11:40:00","49678","2.394","165.7","3.626","154.5","NAN","NAN","NAN","NAN","NAN"],
    [1548689,"2026-04-09 11:50:00","49679","2.436","189.7","3.593","175.1","NAN","NAN","NAN","NAN","NAN"],
    [1548690,"2026-04-09 12:00:00","49680","2.153","196.7","4.247","168.6","NAN","NAN","NAN","NAN","NAN"],
    [1548691,"2026-04-09 12:10:00","49681","2.293","185.1","4.312","164.6","NAN","NAN","NAN","NAN","NAN"],
    [1548692,"2026-04-09 12:20:00","49682","1.925","195.6","3.397","211","NAN","NAN","NAN","NAN","NAN"],
    [1548693,"2026-04-09 12:30:00","49683","1.301","194.7","3.332","218.9","NAN","NAN","NAN","NAN","NAN"],
    [1548694,"2026-04-09 12:40:00","49684","1.486","177.2","3.691","154.1","NAN","NAN","NAN","NAN","NAN"],
    [1548695,"2026-04-09 12:50:00","49685","2.045","171.6","4.181","171.8","NAN","NAN","NAN","NAN","NAN"],
    [1548696,"2026-04-09 13:00:00","49686","2.349","197.4","3.691","202.9","NAN","NAN","NAN","NAN","NAN"],
    [1548697,"2026-04-09 13:10:00","49687","2.622","205.6","4.704","218.5","NAN","NAN","NAN","NAN","NAN"],
    [1548698,"2026-04-09 13:20:00","49688","2.464","210.1","4.051","216.8","NAN","NAN","NAN","NAN","NAN"],
    [1548699,"2026-04-09 13:30:00","49689","2.148","189.8","4.149","203.4","NAN","NAN","NAN","NAN","NAN"],
    [1548700,"2026-04-09 13:40:00","49690","2.5340000000000003","212.6","4.312","213","NAN","NAN","NAN","NAN","NAN"],
    [1548701,"2026-04-09 13:50:00","49691","2.7880000000000003","207.0","4.573","208.7","NAN","NAN","NAN","NAN","NAN"],
    [1548702,"2026-04-09 14:00:00","49692","1.9480000000000002","217.4","4.083","205.9","NAN","NAN","NAN","NAN","NAN"],
    [1548703,"2026-04-09 14:10:00","49693","2.8080000000000003","210.6","4.802","210.9","NAN","NAN","NAN","NAN","NAN"],
    [1548704,"2026-04-09 14:20:00","49694","2.9360000000000004","221.5","5.292","208.2","NAN","NAN","NAN","NAN","NAN"],
    [1548705,"2026-04-09 14:30:00","49695","3.463","214.8","6.207","207.8","NAN","NAN","NAN","NAN","NAN"],
    [1548706,"2026-04-09 14:40:00","49696","3.4589999999999996","204.4","5.161","208.4","NAN","NAN","NAN","NAN","NAN"],
    [1548707,"2026-04-09 14:50:00","49697","3.556","211.7","5.815","209.2","NAN","NAN","NAN","NAN","NAN"],
    [1548708,"2026-04-09 15:00:00","49698","4.011","206.9","6.043","198.5","NAN","NAN","NAN","NAN","NAN"],
    [1548709,"2026-04-09 15:10:00","49699","3.725","221.3","5.619","238.2","NAN","NAN","NAN","NAN","NAN"],
    [1548710,"2026-04-09 15:20:00","49700","3.801","207.5","6.239","204.9","NAN","NAN","NAN","NAN","NAN"],
    [1548711,"2026-04-09 15:30:00","49701","4.143","210.0","6.403","209.9","NAN","NAN","NAN","NAN","NAN"],
    [1548712,"2026-04-09 15:40:00","49702","4.022","212.9","6.272","206.2","NAN","NAN","NAN","NAN","NAN"],
    [1548713,"2026-04-09 15:50:00","49703","3.2539999999999996","218.0","5.945","206.2","NAN","NAN","NAN","NAN","NAN"],
    [1548714,"2026-04-09 16:00:00","49704","3.012","217.0","5.945","208.7","NAN","NAN","NAN","NAN","NAN"],
    [1548715,"2026-04-09 16:10:00","49705","3.0410000000000004","214.2","5.553","223.1","NAN","NAN","NAN","NAN","NAN"],
    [1548716,"2026-04-09 16:20:00","49706","2.8339999999999996","214.6","4.737","219.7","NAN","NAN","NAN","NAN","NAN"],
    [1548717,"2026-04-09 16:30:00","49707","2.222","239.5","4.671","251.4","NAN","NAN","NAN","NAN","NAN"],
    [1548718,"2026-04-09 16:40:00","49708","2.6060000000000003","220.3","4.083","217.5","NAN","NAN","NAN","NAN","NAN"],
    [1548719,"2026-04-09 16:50:00","49709","2.235","224.5","4.116","224.8","NAN","NAN","NAN","NAN","NAN"],
    [1548720,"2026-04-09 17:00:00","49710","2.043","229.5","3.757","223.8","NAN","NAN","NAN","NAN","NAN"],
    [1548721,"2026-04-09 17:10:00","49711","3.225","208.1","5.292","200.7","NAN","NAN","NAN","NAN","NAN"],
    [1548722,"2026-04-09 17:20:00","49712","1.893","216.7","4.214","208.9","NAN","NAN","NAN","NAN","NAN"],
    [1548723,"2026-04-09 17:30:00","49713","2.279","216.3","4.312","222.4","NAN","NAN","NAN","NAN","NAN"],
    [1548724,"2026-04-09 17:40:00","49714","2.199","221.1","4.083","229.3","NAN","NAN","NAN","NAN","NAN"],
    [1548725,"2026-04-09 17:50:00","49715","2.077","220.1","3.691","211.7","NAN","NAN","NAN","NAN","NAN"],
    [1548726,"2026-04-09 18:00:00","49716","2.254","218.0","4.377","205.8","NAN","NAN","NAN","NAN","NAN"],
    [1548727,"2026-04-09 18:10:00","49717","1.466","216.9","3.43","220.9","NAN","NAN","NAN","NAN","NAN"],
    [1548728,"2026-04-09 18:20:00","49718","1.4240000000000002","225.1","2.744","222.8","NAN","NAN","NAN","NAN","NAN"],
    [1548729,"2026-04-09 18:30:00","49719","1.263","221.7","2.809","229.1","NAN","NAN","NAN","NAN","NAN"],
    [1548730,"2026-04-09 18:40:00","49720","1.554","220.3","3.267","212.4","NAN","NAN","NAN","NAN","NAN"],
    [1548731,"2026-04-09 18:50:00","49721","1.171","221.3","2.581","218.4","NAN","NAN","NAN","NAN","NAN"],
    [1548732,"2026-04-09 19:00:00","49722","1.6780000000000002","232.3","3.201","235.1","NAN","NAN","NAN","NAN","NAN"],
    [1548733,"2026-04-09 19:10:00","49723","1.757","237.9","3.071","236.4","NAN","NAN","NAN","NAN","NAN"],
    [1548734,"2026-04-09 19:20:00","49724","1.402","239.8","2.352","239.9","NAN","NAN","NAN","NAN","NAN"],
    [1548735,"2026-04-09 19:30:00","49725","1.258","235.9","2.189","240.2","NAN","NAN","NAN","NAN","NAN"],
    [1548736,"2026-04-09 19:40:00","49726","1.107","240.6","2.221","240.9","NAN","NAN","NAN","NAN","NAN"],
    [1548737,"2026-04-09 19:50:00","49727","1.085","241.1","2.483","241.1","NAN","NAN","NAN","NAN","NAN"],
    [1548738,"2026-04-09 20:00:00","49728","1.4969999999999999","244.4","2.907","244.7","NAN","NAN","NAN","NAN","NAN"],
    [1548739,"2026-04-09 20:10:00","49729","0.8859999999999999","245.1","1.862","245.1","NAN","NAN","NAN","NAN","NAN"],
    [1548740,"2026-04-09 20:20:00","49730","0.785","236.9","1.764","245","NAN","NAN","NAN","NAN","NAN"],
    [1548741,"2026-04-09 20:30:00","49731","1.053","238.7","1.96","242","NAN","NAN","NAN","NAN","NAN"],
    [1548742,"2026-04-09 20:40:00","49732","1.87","224.5","2.94","227","NAN","NAN","NAN","NAN","NAN"],
    [1548743,"2026-04-09 20:50:00","49733","0.905","228.9","2.385","239.6","NAN","NAN","NAN","NAN","NAN"],
    [1548744,"2026-04-09 21:00:00","49734","1.249","240.7","2.646","240.7","NAN","NAN","NAN","NAN","NAN"],
    [1548745,"2026-04-09 21:10:00","49735","0.888","241.2","1.633","241","NAN","NAN","NAN","NAN","NAN"],
    [1548746,"2026-04-09 21:20:00","49736","0.259","241.3","1.176","241.4","NAN","NAN","NAN","NAN","NAN"],
    [1548747,"2026-04-09 21:30:00","49737","0.361","234.9","1.601","231.5","NAN","NAN","NAN","NAN","NAN"],
    [1548748,"2026-04-09 21:40:00","49738","0.32899999999999996","231.2","1.731","228.5","NAN","NAN","NAN","NAN","NAN"],
    [1548749,"2026-04-09 21:50:00","49739","1.044","237.0","2.385","241.5","NAN","NAN","NAN","NAN","NAN"],
    [1548750,"2026-04-09 22:00:00","49740","1.156","241.8","1.96","241.6","NAN","NAN","NAN","NAN","NAN"],
    [1548751,"2026-04-09 22:10:00","49741","1.374","240.3","2.483","242.1","NAN","NAN","NAN","NAN","NAN"],
    [1548752,"2026-04-09 22:20:00","49742","1.1740000000000002","240.9","2.515","242.4","NAN","NAN","NAN","NAN","NAN"],
    [1548753,"2026-04-09 22:30:00","49743","1.2819999999999998","243.3","2.287","243.4","NAN","NAN","NAN","NAN","NAN"],
    [1548754,"2026-04-09 22:40:00","49744","1.8780000000000001","244.3","2.907","245.2","NAN","NAN","NAN","NAN","NAN"],
    [1548755,"2026-04-09 22:50:00","49745","1.864","256.4","3.136","246.6","NAN","NAN","NAN","NAN","NAN"],
    [1548756,"2026-04-09 23:00:00","49746","1.385","259.1","2.123","259.4","NAN","NAN","NAN","NAN","NAN"],
    [1548757,"2026-04-09 23:10:00","49747","1.2309999999999999","259.5","2.254","259.6","NAN","NAN","NAN","NAN","NAN"],
    [1548758,"2026-04-09 23:20:00","49748","1.4869999999999999","260.3","2.646","260.1","NAN","NAN","NAN","NAN","NAN"],
    [1548759,"2026-04-09 23:30:00","49749","1.788","259.1","2.581","260.5","NAN","NAN","NAN","NAN","NAN"],
    [1548760,"2026-04-09 23:40:00","49750","1.425","253.9","2.613","254.3","NAN","NAN","NAN","NAN","NAN"],
    [1548761,"2026-04-09 23:50:00","49751","1.371","258.1","2.091","258.3","NAN","NAN","NAN","NAN","NAN"],
    [1548762,"2026-04-10 00:00:00","49752","1.125","258.1","1.699","260.2","NAN","NAN","NAN","NAN","NAN"],
    [1548763,"2026-04-10 00:10:00","49753","1.646","260.7","2.254","260.9","NAN","NAN","NAN","NAN","NAN"],
    [1548764,"2026-04-10 00:20:00","49754","1.4769999999999999","259.2","2.548","261","NAN","NAN","NAN","NAN","NAN"],
    [1548765,"2026-04-10 00:30:00","49755","1.531","260.7","2.777","261","NAN","NAN","NAN","NAN","NAN"],
    [1548766,"2026-04-10 00:40:00","49756","1.3969999999999998","262.1","2.319","262","NAN","NAN","NAN","NAN","NAN"],
    [1548767,"2026-04-10 00:50:00","49757","1.043","262.2","1.829","262.2","NAN","NAN","NAN","NAN","NAN"],
    [1548768,"2026-04-10 01:00:00","49758","1.166","260.0","2.156","262.2","NAN","NAN","NAN","NAN","NAN"],
    [1548769,"2026-04-10 01:10:00","49759","1.476","260.9","2.613","256.8","NAN","NAN","NAN","NAN","NAN"],
    [1548770,"2026-04-10 01:20:00","49760","1.515","261.9","2.45","262.7","NAN","NAN","NAN","NAN","NAN"],
    [1548771,"2026-04-10 01:30:00","49761","1.382","261.7","2.058","263","NAN","NAN","NAN","NAN","NAN"],
    [1548772,"2026-04-10 01:40:00","49762","1.751","262.8","2.842","261.3","NAN","NAN","NAN","NAN","NAN"],
    [1548773,"2026-04-10 01:50:00","49763","1.031","261.6","2.156","263.5","NAN","NAN","NAN","NAN","NAN"],
    [1548774,"2026-04-10 02:00:00","49764","1.133","259.7","2.091","261.3","NAN","NAN","NAN","NAN","NAN"],
    [1548775,"2026-04-10 02:10:00","49765","1.486","262.5","2.417","263.9","NAN","NAN","NAN","NAN","NAN"],
    [1548776,"2026-04-10 02:20:00","49766","1.665","259.8","2.613","259.6","NAN","NAN","NAN","NAN","NAN"],
    [1548777,"2026-04-10 02:30:00","49767","1.696","260.7","3.005","256.2","NAN","NAN","NAN","NAN","NAN"],
    [1548778,"2026-04-10 02:40:00","49768","1.78","259.5","2.973","264.5","NAN","NAN","NAN","NAN","NAN"],
    [1548779,"2026-04-10 02:50:00","49769","0.89","265.1","2.221","265","NAN","NAN","NAN","NAN","NAN"],
    [1548780,"2026-04-10 03:00:00","49770","0.191","265.1","1.045","265.1","NAN","NAN","NAN","NAN","NAN"],
    [1548781,"2026-04-10 03:10:00","49771","0.56","265.1","1.209","265.1","NAN","NAN","NAN","NAN","NAN"],
    [1548782,"2026-04-10 03:20:00","49772","0.134","265.1","1.078","265.1","NAN","NAN","NAN","NAN","NAN"],
    [1548783,"2026-04-10 03:30:00","49773","0.078","264.1","0.719","264","NAN","NAN","NAN","NAN","NAN"],
    [1548784,"2026-04-10 03:40:00","49774","0.055","265.2","0.686","265.2","NAN","NAN","NAN","NAN","NAN"],
    [1548785,"2026-04-10 03:50:00","49775","0.009000000000000001","265.2","0.229","265.2","NAN","NAN","NAN","NAN","NAN"],
    [1548786,"2026-04-10 04:00:00","49776","0.14","265.1","0.98","265.1","NAN","NAN","NAN","NAN","NAN"],
    [1548787,"2026-04-10 04:10:00","49777","0.075","265.2","0.849","265.2","NAN","NAN","NAN","NAN","NAN"],
    [1548788,"2026-04-10 04:20:00","49778","0.0","0.0","0","0","NAN","NAN","NAN","NAN","NAN"],
    [1548789,"2026-04-10 04:30:00","49779","0.02","261.4","0.719","260.4","NAN","NAN","NAN","NAN","NAN"],
    [1548790,"2026-04-10 04:40:00","49780","0.851","256.5","1.535","254.6","NAN","NAN","NAN","NAN","NAN"],
    [1548791,"2026-04-10 04:50:00","49781","1.2209999999999999","256.8","2.091","254.1","NAN","NAN","NAN","NAN","NAN"],
    [1548792,"2026-04-10 05:00:00","49782","0.19699999999999998","253.7","0.98","253.8","NAN","NAN","NAN","NAN","NAN"],
    [1548793,"2026-04-10 05:10:00","49783","0.45899999999999996","261.1","1.372","264.1","NAN","NAN","NAN","NAN","NAN"],
    [1548794,"2026-04-10 05:20:00","49784","0.066","264.7","0.915","261","NAN","NAN","NAN","NAN","NAN"],
    [1548795,"2026-04-10 05:30:00","49785","0.0","0.0","0","0","NAN","NAN","NAN","NAN","NAN"],
    [1548796,"2026-04-10 05:40:00","49786","0.239","265.1","0.784","265.1","NAN","NAN","NAN","NAN","NAN"],
    [1548797,"2026-04-10 05:50:00","49787","0.003","264.9","0.229","264.9","NAN","NAN","NAN","NAN","NAN"],
    [1548798,"2026-04-10 06:00:00","49788","0.0","0.0","0","0","NAN","NAN","NAN","NAN","NAN"],
    [1548799,"2026-04-10 06:10:00","49789","0.043","264.9","0.392","264.9","NAN","NAN","NAN","NAN","NAN"],
    [1548800,"2026-04-10 06:20:00","49790","0.0","0.0","0","0","NAN","NAN","NAN","NAN","NAN"],
    [1548801,"2026-04-10 06:30:00","49791","0.015","253.3","0.359","253.3","NAN","NAN","NAN","NAN","NAN"],
    [1548802,"2026-04-10 06:40:00","49792","0.134","252.6","0.621","252.5","NAN","NAN","NAN","NAN","NAN"],
    [1548803,"2026-04-10 06:50:00","49793","2.22","268.6","4.802","289","NAN","NAN","NAN","NAN","NAN"],
    [1548804,"2026-04-10 07:00:00","49794","3.603","284.2","6.207","284.8","NAN","NAN","NAN","NAN","NAN"],
    [1548805,"2026-04-10 07:10:00","49795","3.826","295.5","5.619","292.7","NAN","NAN","NAN","NAN","NAN"],
    [1548806,"2026-04-10 07:20:00","49796","3.4330000000000003","287.4","5.684","285.1","NAN","NAN","NAN","NAN","NAN"],
    [1548807,"2026-04-10 07:30:00","49797","3.782","281.6","5.488","277.5","NAN","NAN","NAN","NAN","NAN"],
    [1548808,"2026-04-10 07:40:00","49798","3.32","286.2","4.998","293.2","NAN","NAN","NAN","NAN","NAN"],
    [1548809,"2026-04-10 07:50:00","49799","2.767","279.0","4.671","274","NAN","NAN","NAN","NAN","NAN"],
    [1548810,"2026-04-10 08:00:00","49800","1.985","280.2","3.332","283.5","NAN","NAN","NAN","NAN","NAN"],
    [1548811,"2026-04-10 08:10:00","49801","2.035","275.0","3.071","280.5","NAN","NAN","NAN","NAN","NAN"],
    [1548812,"2026-04-10 08:20:00","49802","2.249","282.8","3.528","269.1","NAN","NAN","NAN","NAN","NAN"],
    [1548813,"2026-04-10 08:30:00","49803","2.259","280.6","4.051","272.6","NAN","NAN","NAN","NAN","NAN"],
    [1548814,"2026-04-10 08:40:00","49804","2.416","268.5","3.757","262.7","NAN","NAN","NAN","NAN","NAN"],
    [1548815,"2026-04-10 08:50:00","49805","1.449","248.6","3.136","249.5","NAN","NAN","NAN","NAN","NAN"],
    [1548816,"2026-04-10 09:00:00","49806","1.6269999999999998","246.1","3.038","255.8","NAN","NAN","NAN","NAN","NAN"],
    [1548817,"2026-04-10 09:10:00","49807","1.4269999999999998","230.7","3.365","223.4","NAN","NAN","NAN","NAN","NAN"],
    [1548818,"2026-04-10 09:20:00","49808","1.6280000000000001","219.6","3.005","211.8","NAN","NAN","NAN","NAN","NAN"],
    [1548819,"2026-04-10 09:30:00","49809","1.6219999999999999","218.4","2.973","220.8","NAN","NAN","NAN","NAN","NAN"],
    [1548820,"2026-04-10 09:40:00","49810","2.146","193.4","3.299","176.1","NAN","NAN","NAN","NAN","NAN"],
    [1548821,"2026-04-10 09:50:00","49811","1.785","192.9","3.103","203.2","NAN","NAN","NAN","NAN","NAN"],
    [1548822,"2026-04-10 10:00:00","49812","2.2880000000000003","177.2","3.659","189.4","NAN","NAN","NAN","NAN","NAN"],
    [1548823,"2026-04-10 10:10:00","49813","2.342","170.6","3.593","166.6","NAN","NAN","NAN","NAN","NAN"],
    [1548824,"2026-04-10 10:20:00","49814","2.609","170.1","3.691","177.3","NAN","NAN","NAN","NAN","NAN"],
    [1548825,"2026-04-10 10:30:00","49815","2.504","164.2","3.855","162","NAN","NAN","NAN","NAN","NAN"],
    [1548826,"2026-04-10 10:40:00","49816","2.193","169.3","3.561","168.2","NAN","NAN","NAN","NAN","NAN"],
    [1548827,"2026-04-10 10:50:00","49817","2.221","161.1","3.463","157.5","NAN","NAN","NAN","NAN","NAN"],
    [1548828,"2026-04-10 11:00:00","49818","1.824","168.3","3.201","169.3","NAN","NAN","NAN","NAN","NAN"],
    [1548829,"2026-04-10 11:10:00","49819","1.7590000000000001","177.5","3.561","174.2","NAN","NAN","NAN","NAN","NAN"],
    [1548830,"2026-04-10 11:20:00","49820","2.362","178.2","3.495","174.6","NAN","NAN","NAN","NAN","NAN"],
    [1548831,"2026-04-10 11:30:00","49821","2.081","184.9","4.345","167","NAN","NAN","NAN","NAN","NAN"],
    [1548832,"2026-04-10 11:40:00","49822","3.228","208.7","4.181","210","NAN","NAN","NAN","NAN","NAN"],
    [1548833,"2026-04-10 11:50:00","49823","2.778","195.7","5.161","207","NAN","NAN","NAN","NAN","NAN"],
    [1548834,"2026-04-10 12:00:00","49824","2.508","203.6","4.345","211","NAN","NAN","NAN","NAN","NAN"],
    [1548835,"2026-04-10 12:10:00","49825","2.503","221.6","4.867","231.3","NAN","NAN","NAN","NAN","NAN"],
    [1548836,"2026-04-10 12:20:00","49826","3.1460000000000004","215.6","5.553","250.3","NAN","NAN","NAN","NAN","NAN"],
    [1548837,"2026-04-10 12:30:00","49827","3.222","224.3","4.802","225","NAN","NAN","NAN","NAN","NAN"],
    [1548838,"2026-04-10 12:40:00","49828","2.617","218.8","4.475","211","NAN","NAN","NAN","NAN","NAN"],
    [1548839,"2026-04-10 12:50:00","49829","2.8369999999999997","227.0","4.933","206.7","NAN","NAN","NAN","NAN","NAN"],
    [1548840,"2026-04-10 13:00:00","49830","3.681","208.5","5.684","211.3","NAN","NAN","NAN","NAN","NAN"],
    [1548841,"2026-04-10 13:10:00","49831","3.553","214.2","5.684","211.2","NAN","NAN","NAN","NAN","NAN"],
    [1548842,"2026-04-10 13:20:00","49832","4.284","204.4","6.468","205.5","NAN","NAN","NAN","NAN","NAN"],
    [1548843,"2026-04-10 13:30:00","49833","4.277","211.5","6.729","200","NAN","NAN","NAN","NAN","NAN"],
    [1548844,"2026-04-10 13:40:00","49834","3.3939999999999997","220.5","6.272","202.6","NAN","NAN","NAN","NAN","NAN"],
    [1548845,"2026-04-10 13:50:00","49835","3.873","224.1","6.272","216.7","NAN","NAN","NAN","NAN","NAN"],
    [1548846,"2026-04-10 14:00:00","49836","3.9819999999999998","222.5","6.86","214.2","NAN","NAN","NAN","NAN","NAN"],
    [1548847,"2026-04-10 14:10:00","49837","4.156000000000001","220.1","7.513","217.4","NAN","NAN","NAN","NAN","NAN"],
    [1548848,"2026-04-10 14:20:00","49838","4.574","220.1","7.219","226.6","NAN","NAN","NAN","NAN","NAN"],
    [1548849,"2026-04-10 14:30:00","49839","4.781000000000001","212.2","7.677","209.3","NAN","NAN","NAN","NAN","NAN"],
    [1548850,"2026-04-10 14:40:00","49840","4.9510000000000005","205.6","7.644","203.4","NAN","NAN","NAN","NAN","NAN"],
    [1548851,"2026-04-10 14:50:00","49841","4.4830000000000005","224.0","7.35","234.1","NAN","NAN","NAN","NAN","NAN"],
    [1548852,"2026-04-10 15:00:00","49842","4.64","227.1","8.04","214","NAN","NAN","NAN","NAN","NAN"],
    [1548853,"2026-04-10 15:10:00","49843","4.562","225.8","7.121","225.6","NAN","NAN","NAN","NAN","NAN"],
    [1548854,"2026-04-10 15:20:00","49844","3.872","223.5","7.317","218.9","NAN","NAN","NAN","NAN","NAN"],
    [1548855,"2026-04-10 15:30:00","49845","4.383","225.5","7.187","224","NAN","NAN","NAN","NAN","NAN"],
    [1548856,"2026-04-10 15:40:00","49846","2.855","228.5","5.945","254.9","NAN","NAN","NAN","NAN","NAN"],
    [1548857,"2026-04-10 15:50:00","49847","3.569","226.7","6.468","224.6","NAN","NAN","NAN","NAN","NAN"],
    [1548858,"2026-04-10 16:00:00","49848","3.693","237.3","6.011","243.4","NAN","NAN","NAN","NAN","NAN"],
    [1548859,"2026-04-10 16:10:00","49849","3.573","213.1","6.272","220.7","NAN","NAN","NAN","NAN","NAN"],
    [1548860,"2026-04-10 16:20:00","49850","3.58","220.6","6.272","220.7","NAN","NAN","NAN","NAN","NAN"],
    [1548861,"2026-04-10 16:30:00","49851","3.7939999999999996","229.0","6.076","229.4","NAN","NAN","NAN","NAN","NAN"],
    [1548862,"2026-04-10 16:40:00","49852","3.655","217.9","6.305","220.8","NAN","NAN","NAN","NAN","NAN"],
    [1548863,"2026-04-10 16:50:00","49853","2.785","224.2","5.651","217","NAN","NAN","NAN","NAN","NAN"],
    [1548864,"2026-04-10 17:00:00","49854","3.122","222.3","6.697","215.1","NAN","NAN","NAN","NAN","NAN"],
    [1548865,"2026-04-10 17:10:00","49855","2.852","237.0","4.9","239.9","NAN","NAN","NAN","NAN","NAN"],
    [1548866,"2026-04-10 17:20:00","49856","3.41","248.4","6.468","253.1","NAN","NAN","NAN","NAN","NAN"],
    [1548867,"2026-04-10 17:30:00","49857","3.35","248.7","5.619","251","NAN","NAN","NAN","NAN","NAN"],
    [1548868,"2026-04-10 17:40:00","49858","3.7489999999999997","247.2","5.782","236.2","NAN","NAN","NAN","NAN","NAN"],
    [1548869,"2026-04-10 17:50:00","49859","3.3489999999999998","244.5","6.076","247.6","NAN","NAN","NAN","NAN","NAN"],
    [1548870,"2026-04-10 18:00:00","49860","3.135","246.4","4.9","243","NAN","NAN","NAN","NAN","NAN"],
    [1548871,"2026-04-10 18:10:00","49861","3.832","251.4","5.586","254.6","NAN","NAN","NAN","NAN","NAN"],
    [1548872,"2026-04-10 18:20:00","49862","3.696","251.4","5.292","246.7","NAN","NAN","NAN","NAN","NAN"],
    [1548873,"2026-04-10 18:30:00","49863","3.133","247.2","4.443","251.6","NAN","NAN","NAN","NAN","NAN"],
    [1548874,"2026-04-10 18:40:00","49864","2.072","244.5","3.985","241.8","NAN","NAN","NAN","NAN","NAN"],
    [1548875,"2026-04-10 18:50:00","49865","1.5830000000000002","236.5","2.973","237.4","NAN","NAN","NAN","NAN","NAN"],
    [1548876,"2026-04-10 19:00:00","49866","1.54","230.2","3.005","233","NAN","NAN","NAN","NAN","NAN"],
    [1548877,"2026-04-10 19:10:00","49867","1.9409999999999998","221.2","3.724","237.6","NAN","NAN","NAN","NAN","NAN"],
    [1548878,"2026-04-10 19:20:00","49868","1.702","223.0","2.646","213.7","NAN","NAN","NAN","NAN","NAN"],
    [1548879,"2026-04-10 19:30:00","49869","1.645","234.0","3.103","234.5","NAN","NAN","NAN","NAN","NAN"],
    [1548880,"2026-04-10 19:40:00","49870","1.6740000000000002","216.5","2.875","220.8","NAN","NAN","NAN","NAN","NAN"],
    [1548881,"2026-04-10 19:50:00","49871","1.117","224.6","2.123","213.5","NAN","NAN","NAN","NAN","NAN"],
    [1548882,"2026-04-10 20:00:00","49872","1.097","233.6","2.025","236.4","NAN","NAN","NAN","NAN","NAN"],
    [1548883,"2026-04-10 20:10:00","49873","1.8659999999999999","215.4","2.777","211.6","NAN","NAN","NAN","NAN","NAN"],
    [1548884,"2026-04-10 20:20:00","49874","1.9869999999999999","212.1","3.071","215.4","NAN","NAN","NAN","NAN","NAN"],
    [1548885,"2026-04-10 20:30:00","49875","1.4480000000000002","213.5","2.875","211.6","NAN","NAN","NAN","NAN","NAN"],
    [1548886,"2026-04-10 20:40:00","49876","2.2880000000000003","211.2","3.005","214.8","NAN","NAN","NAN","NAN","NAN"],
    [1548887,"2026-04-10 20:50:00","49877","2.05","211.3","2.907","216","NAN","NAN","NAN","NAN","NAN"],
    [1548888,"2026-04-10 21:00:00","49878","1.12","215.4","2.809","209.5","NAN","NAN","NAN","NAN","NAN"],
    [1548889,"2026-04-10 21:10:00","49879","1.646","214.4","3.071","218.5","NAN","NAN","NAN","NAN","NAN"],
    [1548890,"2026-04-10 21:20:00","49880","0.716","219.4","2.156","218.7","NAN","NAN","NAN","NAN","NAN"],
    [1548891,"2026-04-10 21:30:00","49881","0.963","213.7","2.287","212.3","NAN","NAN","NAN","NAN","NAN"],
    [1548892,"2026-04-10 21:40:00","49882","1.351","211.6","2.287","208.7","NAN","NAN","NAN","NAN","NAN"],
    [1548893,"2026-04-10 21:50:00","49883","0.7879999999999999","221.5","2.189","225.3","NAN","NAN","NAN","NAN","NAN"],
    [1548894,"2026-04-10 22:00:00","49884","0.273","226.2","1.405","226.6","NAN","NAN","NAN","NAN","NAN"],
    [1548895,"2026-04-10 22:10:00","49885","0.47700000000000004","216.6","2.189","209.5","NAN","NAN","NAN","NAN","NAN"],
    [1548896,"2026-04-10 22:20:00","49886","0.28","223.7","1.307","224.6","NAN","NAN","NAN","NAN","NAN"],
    [1548897,"2026-04-10 22:30:00","49887","0.14","227.1","0.882","227","NAN","NAN","NAN","NAN","NAN"],
    [1548898,"2026-04-10 22:40:00","49888","0.8190000000000001","227.2","1.829","227.7","NAN","NAN","NAN","NAN","NAN"],
    [1548899,"2026-04-10 22:50:00","49889","1.341","214.6","2.319","213.8","NAN","NAN","NAN","NAN","NAN"],
    [1548900,"2026-04-10 23:00:00","49890","1.465","233.3","3.103","242.3","NAN","NAN","NAN","NAN","NAN"],
    [1548901,"2026-04-10 23:10:00","49891","1.3780000000000001","242.7","2.483","242.4","NAN","NAN","NAN","NAN","NAN"],
    [1548902,"2026-04-10 23:20:00","49892","0.769","243.0","1.797","243","NAN","NAN","NAN","NAN","NAN"],
    [1548903,"2026-04-10 23:30:00","49893","0.485","243.0","1.829","243.1","NAN","NAN","NAN","NAN","NAN"],
    [1548904,"2026-04-10 23:40:00","49894","0.049","242.7","0.719","242.8","NAN","NAN","NAN","NAN","NAN"],
    [1548905,"2026-04-10 23:50:00","49895","0.5820000000000001","242.5","1.535","243.2","NAN","NAN","NAN","NAN","NAN"],
    [1548906,"2026-04-11 00:00:00","49896","0.315","241.0","1.274","242.7","NAN","NAN","NAN","NAN","NAN"],
    [1548907,"2026-04-11 00:10:00","49897","0.369","241.9","1.437","242.9","NAN","NAN","NAN","NAN","NAN"],
    [1548908,"2026-04-11 00:20:00","49898","1.463","243.4","2.483","243.3","NAN","NAN","NAN","NAN","NAN"],
    [1548909,"2026-04-11 00:30:00","49899","1.062","243.9","2.581","244","NAN","NAN","NAN","NAN","NAN"],
    [1548910,"2026-04-11 00:40:00","49900","0.19699999999999998","244.0","1.013","244","NAN","NAN","NAN","NAN","NAN"],
    [1548911,"2026-04-11 00:50:00","49901","0.004","244.0","0.261","244","NAN","NAN","NAN","NAN","NAN"],
    [1548912,"2026-04-11 01:00:00","49902","0.22899999999999998","244.0","1.405","244","NAN","NAN","NAN","NAN","NAN"],
    [1548913,"2026-04-11 01:10:00","49903","0.047","244.0","0.359","244","NAN","NAN","NAN","NAN","NAN"],
    [1548914,"2026-04-11 01:20:00","49904","0.16899999999999998","244.0","1.372","244","NAN","NAN","NAN","NAN","NAN"],
    [1548915,"2026-04-11 01:30:00","49905","0.65","243.8","1.437","244","NAN","NAN","NAN","NAN","NAN"],
    [1548916,"2026-04-11 01:40:00","49906","1.381","243.1","2.45","243.7","NAN","NAN","NAN","NAN","NAN"],
    [1548917,"2026-04-11 01:50:00","49907","0.9309999999999999","244.1","1.797","244.2","NAN","NAN","NAN","NAN","NAN"],
    [1548918,"2026-04-11 02:00:00","49908","1.063","244.4","1.829","244.5","NAN","NAN","NAN","NAN","NAN"],
    [1548919,"2026-04-11 02:10:00","49909","1.0759999999999998","244.8","1.96","244.9","NAN","NAN","NAN","NAN","NAN"],
    [1548920,"2026-04-11 02:20:00","49910","1.996","247.1","3.332","250.8","NAN","NAN","NAN","NAN","NAN"],
    [1548921,"2026-04-11 02:30:00","49911","2.261","260.2","3.887","284.1","NAN","NAN","NAN","NAN","NAN"],
    [1548922,"2026-04-11 02:40:00","49912","2.315","270.1","3.495","270.4","NAN","NAN","NAN","NAN","NAN"],
    [1548923,"2026-04-11 02:50:00","49913","2.334","267.5","3.855","270.1","NAN","NAN","NAN","NAN","NAN"],
    [1548924,"2026-04-11 03:00:00","49914","1.919","264.7","3.299","262.8","NAN","NAN","NAN","NAN","NAN"],
    [1548925,"2026-04-11 03:10:00","49915","1.621","264.0","2.809","263.6","NAN","NAN","NAN","NAN","NAN"],
    [1548926,"2026-04-11 03:20:00","49916","1.229","265.2","2.45","269.5","NAN","NAN","NAN","NAN","NAN"],
    [1548927,"2026-04-11 03:30:00","49917","1.761","260.4","2.711","259","NAN","NAN","NAN","NAN","NAN"],
    [1548928,"2026-04-11 03:40:00","49918","1.525","261.2","2.319","257.5","NAN","NAN","NAN","NAN","NAN"],
    [1548929,"2026-04-11 03:50:00","49919","1.517","260.6","2.385","257","NAN","NAN","NAN","NAN","NAN"],
    [1548930,"2026-04-11 04:00:00","49920","1.474","267.3","2.254","270","NAN","NAN","NAN","NAN","NAN"],
    [1548931,"2026-04-11 04:10:00","49921","1.9680000000000002","270.0","3.038","272.7","NAN","NAN","NAN","NAN","NAN"],
    [1548932,"2026-04-11 04:20:00","49922","1.9169999999999998","270.4","2.809","273.4","NAN","NAN","NAN","NAN","NAN"],
    [1548933,"2026-04-11 04:30:00","49923","1.557","268.0","2.515","274.2","NAN","NAN","NAN","NAN","NAN"],
    [1548934,"2026-04-11 04:40:00","49924","1.6580000000000001","265.3","2.744","260.5","NAN","NAN","NAN","NAN","NAN"],
    [1548935,"2026-04-11 04:50:00","49925","1.946","263.1","3.071","263.8","NAN","NAN","NAN","NAN","NAN"],
    [1548936,"2026-04-11 05:00:00","49926","2.244","267.3","3.397","271.6","NAN","NAN","NAN","NAN","NAN"],
    [1548937,"2026-04-11 05:10:00","49927","1.916","274.0","3.038","270.9","NAN","NAN","NAN","NAN","NAN"],
    [1548938,"2026-04-11 05:20:00","49928","1.97","270.7","3.038","274.6","NAN","NAN","NAN","NAN","NAN"],
    [1548939,"2026-04-11 05:30:00","49929","1.371","277.5","2.483","278.6","NAN","NAN","NAN","NAN","NAN"],
    [1548940,"2026-04-11 05:40:00","49930","1.5119999999999998","271.6","2.156","271.8","NAN","NAN","NAN","NAN","NAN"],
    [1548941,"2026-04-11 05:50:00","49931","1.508","270.0","2.352","277.4","NAN","NAN","NAN","NAN","NAN"],
    [1548942,"2026-04-11 06:00:00","49932","1.482","263.2","2.679","264.6","NAN","NAN","NAN","NAN","NAN"],
    [1548943,"2026-04-11 06:10:00","49933","1.6230000000000002","270.6","2.973","264.4","NAN","NAN","NAN","NAN","NAN"],
    [1548944,"2026-04-11 06:20:00","49934","2.395","282.1","3.724","284.9","NAN","NAN","NAN","NAN","NAN"],
    [1548945,"2026-04-11 06:30:00","49935","2.036","280.3","3.397","276.1","NAN","NAN","NAN","NAN","NAN"],
    [1548946,"2026-04-11 06:40:00","49936","1.845","285.2","3.397","285.1","NAN","NAN","NAN","NAN","NAN"],
    [1548947,"2026-04-11 06:50:00","49937","1.754","283.4","2.907","278","NAN","NAN","NAN","NAN","NAN"],
    [1548948,"2026-04-11 07:00:00","49938","1.8319999999999999","279.8","3.593","273.5","NAN","NAN","NAN","NAN","NAN"],
    [1548949,"2026-04-11 07:10:00","49939","2.2359999999999998","281.7","3.724","288.7","NAN","NAN","NAN","NAN","NAN"],
    [1548950,"2026-04-11 07:20:00","49940","2.617","283.1","4.018","282.8","NAN","NAN","NAN","NAN","NAN"],
    [1548951,"2026-04-11 07:30:00","49941","1.8130000000000002","272.3","3.626","279.8","NAN","NAN","NAN","NAN","NAN"],
    [1548952,"2026-04-11 07:40:00","49942","2.415","271.7","3.985","275.7","NAN","NAN","NAN","NAN","NAN"],
    [1548953,"2026-04-11 07:50:00","49943","2.838","274.4","4.443","281","NAN","NAN","NAN","NAN","NAN"],
    [1548954,"2026-04-11 08:00:00","49944","2.8689999999999998","280.6","5.129","288.1","NAN","NAN","NAN","NAN","NAN"],
    [1548955,"2026-04-11 08:10:00","49945","2.9339999999999997","274.6","4.475","273.2","NAN","NAN","NAN","NAN","NAN"],
    [1548956,"2026-04-11 08:20:00","49946","3.258","278.3","5.488","296.3","NAN","NAN","NAN","NAN","NAN"],
    [1548957,"2026-04-11 08:30:00","49947","2.78","278.0","4.704","293.8","NAN","NAN","NAN","NAN","NAN"],
    [1548958,"2026-04-11 08:40:00","49948","2.7560000000000002","270.0","4.639","269.2","NAN","NAN","NAN","NAN","NAN"],
    [1548959,"2026-04-11 08:50:00","49949","2.865","271.9","4.998","265.6","NAN","NAN","NAN","NAN","NAN"],
    [1548960,"2026-04-11 09:00:00","49950","2.8339999999999996","276.1","4.443","284.6","NAN","NAN","NAN","NAN","NAN"],
    [1548961,"2026-04-11 09:10:00","49951","2.254","267.7","3.887","266.2","NAN","NAN","NAN","NAN","NAN"],
    [1548962,"2026-04-11 09:20:00","49952","2.548","257.2","4.377","255.7","NAN","NAN","NAN","NAN","NAN"],
    [1548963,"2026-04-11 09:30:00","49953","2.269","249.0","4.247","248.9","NAN","NAN","NAN","NAN","NAN"],
    [1548964,"2026-04-11 09:40:00","49954","2.4659999999999997","243.3","4.018","239.6","NAN","NAN","NAN","NAN","NAN"],
    [1548965,"2026-04-11 09:50:00","49955","1.8769999999999998","237.0","3.299","243.6","NAN","NAN","NAN","NAN","NAN"],
    [1548966,"2026-04-11 10:00:00","49956","1.476","243.5","3.005","249.1","NAN","NAN","NAN","NAN","NAN"],
    [1548967,"2026-04-11 10:10:00","49957","2.261","237.7","3.593","249.9","NAN","NAN","NAN","NAN","NAN"],
    [1548968,"2026-04-11 10:20:00","49958","1.621","225.9","2.777","221.7","NAN","NAN","NAN","NAN","NAN"],
    [1548969,"2026-04-11 10:30:00","49959","1.18","224.1","2.646","223.4","NAN","NAN","NAN","NAN","NAN"],
    [1548970,"2026-04-11 10:40:00","49960","1.6219999999999999","221.7","3.071","215.7","NAN","NAN","NAN","NAN","NAN"],
    [1548971,"2026-04-11 10:50:00","49961","1.148","214.2","2.875","215.3","NAN","NAN","NAN","NAN","NAN"],
    [1548972,"2026-04-11 11:00:00","49962","1.0170000000000001","207.0","2.189","214.6","NAN","NAN","NAN","NAN","NAN"],
    [1548973,"2026-04-11 11:10:00","49963","1.716","194.9","3.071","176","NAN","NAN","NAN","NAN","NAN"],
    [1548974,"2026-04-11 11:20:00","49964","1.685","175.6","3.397","164.5","NAN","NAN","NAN","NAN","NAN"],
    [1548975,"2026-04-11 11:30:00","49965","1.936","171.1","3.397","162.7","NAN","NAN","NAN","NAN","NAN"],
    [1548976,"2026-04-11 11:40:00","49966","1.97","196.6","3.691","203","NAN","NAN","NAN","NAN","NAN"],
    [1548977,"2026-04-11 11:50:00","49967","2.271","204.6","3.43","207.4","NAN","NAN","NAN","NAN","NAN"],
    [1548978,"2026-04-11 12:00:00","49968","1.1840000000000002","197.7","2.809","189.1","NAN","NAN","NAN","NAN","NAN"],
    [1548979,"2026-04-11 12:10:00","49969","2.545","206.6","3.887","211.4","NAN","NAN","NAN","NAN","NAN"],
    [1548980,"2026-04-11 12:20:00","49970","1.609","193.5","3.332","201.4","NAN","NAN","NAN","NAN","NAN"],
    [1548981,"2026-04-11 12:30:00","49971","2.234","168.2","3.267","168.5","NAN","NAN","NAN","NAN","NAN"],
    [1548982,"2026-04-11 12:40:00","49972","1.4340000000000002","167.8","2.809","165.6","NAN","NAN","NAN","NAN","NAN"],
    [1548983,"2026-04-11 12:50:00","49973","1.149","183.1","2.156","184.1","NAN","NAN","NAN","NAN","NAN"],
    [1548984,"2026-04-11 13:00:00","49974","1.568","150.5","3.626","127.5","NAN","NAN","NAN","NAN","NAN"],
    [1548985,"2026-04-11 13:10:00","49975","3.188","139.0","4.737","129.1","NAN","NAN","NAN","NAN","NAN"],
    [1548986,"2026-04-11 13:20:00","49976","3.5239999999999996","165.6","5.357","167.3","NAN","NAN","NAN","NAN","NAN"],
    [1548987,"2026-04-11 13:30:00","49977","3.1630000000000003","137.4","4.377","136.3","NAN","NAN","NAN","NAN","NAN"],
    [1548988,"2026-04-11 13:40:00","49978","1.702","149.3","2.907","150.2","NAN","NAN","NAN","NAN","NAN"],
    [1548989,"2026-04-11 13:50:00","49979","2.395","123.3","3.593","135","NAN","NAN","NAN","NAN","NAN"],
    [1548990,"2026-04-11 14:00:00","49980","2.025","120.3","3.365","136.1","NAN","NAN","NAN","NAN","NAN"],
    [1548991,"2026-04-11 14:10:00","49981","2.202","133.1","3.822","134.7","NAN","NAN","NAN","NAN","NAN"],
    [1548992,"2026-04-11 14:20:00","49982","2.082","143.2","3.528","150.2","NAN","NAN","NAN","NAN","NAN"],
    [1548993,"2026-04-11 14:30:00","49983","2.82","136.0","4.9","137.9","NAN","NAN","NAN","NAN","NAN"],
    [1548994,"2026-04-11 14:40:00","49984","2.024","129.3","3.561","128.9","NAN","NAN","NAN","NAN","NAN"],
    [1548995,"2026-04-11 14:50:00","49985","1.262","123.5","2.221","129.2","NAN","NAN","NAN","NAN","NAN"],
    [1548996,"2026-04-11 15:00:00","49986","0.987","120.9","2.287","121.6","NAN","NAN","NAN","NAN","NAN"],
    [1548997,"2026-04-11 15:10:00","49987","0.953","111.8","2.287","107.5","NAN","NAN","NAN","NAN","NAN"],
    [1548998,"2026-04-11 15:20:00","49988","1.7619999999999998","98.7","2.907","101.9","NAN","NAN","NAN","NAN","NAN"],
    [1548999,"2026-04-11 15:30:00","49989","1.806","79.62","3.005","76.49","NAN","NAN","NAN","NAN","NAN"],
    [1549000,"2026-04-11 15:40:00","49990","2.2569999999999997","71.78","3.397","70.6","NAN","NAN","NAN","NAN","NAN"],
    [1549001,"2026-04-11 15:50:00","49991","2.1319999999999997","67.69","3.659","64.57","NAN","NAN","NAN","NAN","NAN"],
    [1549002,"2026-04-11 16:00:00","49992","2.03","70.29","3.561","62.77","NAN","NAN","NAN","NAN","NAN"],
    [1549003,"2026-04-11 16:10:00","49993","3.2489999999999997","67.58","5.063","71.04","NAN","NAN","NAN","NAN","NAN"],
    [1549004,"2026-04-11 16:20:00","49994","1.8130000000000002","83.4","3.92","83.5","NAN","NAN","NAN","NAN","NAN"],
    [1549005,"2026-04-11 16:30:00","49995","1.8119999999999998","79.67","3.92","67.28","NAN","NAN","NAN","NAN","NAN"],
    [1549006,"2026-04-11 16:40:00","49996","3.315","66.77","5.553","59.34","NAN","NAN","NAN","NAN","NAN"],
    [1549007,"2026-04-11 16:50:00","49997","4.107","66.09","6.239","64.86","NAN","NAN","NAN","NAN","NAN"],
    [1549008,"2026-04-11 17:00:00","49998","4.5169999999999995","62.54","7.219","65.28","NAN","NAN","NAN","NAN","NAN"],
    [1549009,"2026-04-11 17:10:00","49999","5.032","64.77","9.38","81.5","NAN","NAN","NAN","NAN","NAN"],
    [1549010,"2026-04-11 17:20:00","50000","4.487","77.73","8.66","67.61","NAN","NAN","NAN","NAN","NAN"],
    [1549011,"2026-04-11 17:30:00","50001","4.896","71.69","9.15","63.66","NAN","NAN","NAN","NAN","NAN"],
    [1549012,"2026-04-11 17:40:00","50002","5.02","68.62","8.85","70.99","NAN","NAN","NAN","NAN","NAN"],
    [1549013,"2026-04-11 17:50:00","50003","4.355","70.01","7.775","64.75","NAN","NAN","NAN","NAN","NAN"],
    [1549014,"2026-04-11 18:00:00","50004","4.1530000000000005","72.11","8.1","72.29","NAN","NAN","NAN","NAN","NAN"],
    [1549015,"2026-04-11 18:10:00","50005","4.002","68.1","7.513","72.36","NAN","NAN","NAN","NAN","NAN"],
    [1549016,"2026-04-11 18:20:00","50006","3.5789999999999997","63.89","7.677","61.47","NAN","NAN","NAN","NAN","NAN"],
    [1549017,"2026-04-11 18:30:00","50007","4.923","60.53","7.971","65.93","NAN","NAN","NAN","NAN","NAN"],
    [1549018,"2026-04-11 18:40:00","50008","4.7669999999999995","58.34","8.98","59.02","NAN","NAN","NAN","NAN","NAN"],
    [1549019,"2026-04-11 18:50:00","50009","4.97","57.25","9.18","48.74","NAN","NAN","NAN","NAN","NAN"],
    [1549020,"2026-04-11 19:00:00","50010","4.896","55.74","9.18","51.25","NAN","NAN","NAN","NAN","NAN"],
    [1549021,"2026-04-11 19:10:00","50011","5.428999999999999","51.3","8.85","65.28","NAN","NAN","NAN","NAN","NAN"],
    [1549022,"2026-04-11 19:20:00","50012","5.202999999999999","56.08","9.9","42.13","NAN","NAN","NAN","NAN","NAN"],
    [1549023,"2026-04-11 19:30:00","50013","5.8020000000000005","57.06","10.13","65.93","NAN","NAN","NAN","NAN","NAN"],
    [1549024,"2026-04-11 19:40:00","50014","5.406000000000001","56.58","9.54","50.98","NAN","NAN","NAN","NAN","NAN"],
    [1549025,"2026-04-11 19:50:00","50015","5.01","63.46","7.709","66.78","NAN","NAN","NAN","NAN","NAN"],
    [1549026,"2026-04-11 20:00:00","50016","4.6","67.35","9.24","70.53","NAN","NAN","NAN","NAN","NAN"],
    [1549027,"2026-04-11 20:10:00","50017","4.565","66.98","8.43","66.81","NAN","NAN","NAN","NAN","NAN"],
    [1549028,"2026-04-11 20:20:00","50018","4.718999999999999","63.03","8.1","62.86","NAN","NAN","NAN","NAN","NAN"],
    [1549029,"2026-04-11 20:30:00","50019","4.328","66.99","6.729","73.2","NAN","NAN","NAN","NAN","NAN"],
    [1549030,"2026-04-11 20:40:00","50020","4.3660000000000005","62.92","8.07","71.66","NAN","NAN","NAN","NAN","NAN"],
    [1549031,"2026-04-11 20:50:00","50021","3.641","56.44","7.448","45.62","NAN","NAN","NAN","NAN","NAN"],
    [1549032,"2026-04-11 21:00:00","50022","3.884","60.04","6.403","64.76","NAN","NAN","NAN","NAN","NAN"],
    [1549033,"2026-04-11 21:10:00","50023","4.913","65.88","7.971","59.34","NAN","NAN","NAN","NAN","NAN"],
    [1549034,"2026-04-11 21:20:00","50024","4.227","61.51","7.938","67.22","NAN","NAN","NAN","NAN","NAN"],
    [1549035,"2026-04-11 21:30:00","50025","3.734","64.12","6.86","64.57","NAN","NAN","NAN","NAN","NAN"],
    [1549036,"2026-04-11 21:40:00","50026","3.076","45.73","5.815","48.74","NAN","NAN","NAN","NAN","NAN"],
    [1549037,"2026-04-11 21:50:00","50027","2.975","52.25","6.174","58.86","NAN","NAN","NAN","NAN","NAN"],
    [1549038,"2026-04-11 22:00:00","50028","2.693","45.63","4.606","50.07","NAN","NAN","NAN","NAN","NAN"],
    [1549039,"2026-04-11 22:10:00","50029","2.889","48.28","5.259","25.67","NAN","NAN","NAN","NAN","NAN"],
    [1549040,"2026-04-11 22:20:00","50030","2.685","58.48","5.096","66.66","NAN","NAN","NAN","NAN","NAN"],
    [1549041,"2026-04-11 22:30:00","50031","3.009","56.34","5.815","62.21","NAN","NAN","NAN","NAN","NAN"],
    [1549042,"2026-04-11 22:40:00","50032","2.883","59.9","5.031","62.74","NAN","NAN","NAN","NAN","NAN"],
    [1549043,"2026-04-11 22:50:00","50033","2.617","46.05","4.639","47.87","NAN","NAN","NAN","NAN","NAN"],
    [1549044,"2026-04-11 23:00:00","50034","2.3609999999999998","53.35","4.116","54.46","NAN","NAN","NAN","NAN","NAN"],
    [1549045,"2026-04-11 23:10:00","50035","2.008","52.57","4.345","42.34","NAN","NAN","NAN","NAN","NAN"],
    [1549046,"2026-04-11 23:20:00","50036","2.032","60.92","3.43","63.63","NAN","NAN","NAN","NAN","NAN"],
    [1549047,"2026-04-11 23:30:00","50037","1.964","49.22","3.397","44.02","NAN","NAN","NAN","NAN","NAN"],
    [1549048,"2026-04-11 23:40:00","50038","1.715","48.84","3.626","43.11","NAN","NAN","NAN","NAN","NAN"],
    [1549049,"2026-04-11 23:50:00","50039","1.591","57.05","3.201","63.98","NAN","NAN","NAN","NAN","NAN"],
    [1549050,"2026-04-12 00:00:00","50040","1.104","65.2","2.254","62.87","NAN","NAN","NAN","NAN","NAN"],
    [1549051,"2026-04-12 00:10:00","50041","0.19","65.79","0.817","65.79","NAN","NAN","NAN","NAN","NAN"],
    [1549052,"2026-04-12 00:20:00","50042","0.424","65.67","1.568","65.77","NAN","NAN","NAN","NAN","NAN"],
    [1549053,"2026-04-12 00:30:00","50043","1.185","66.1","2.156","66.18","NAN","NAN","NAN","NAN","NAN"],
    [1549054,"2026-04-12 00:40:00","50044","0.521","67.85","1.405","67.52","NAN","NAN","NAN","NAN","NAN"],
    [1549055,"2026-04-12 00:50:00","50045","1.137","78.06","2.581","90.6","NAN","NAN","NAN","NAN","NAN"],
    [1549056,"2026-04-12 01:00:00","50046","0.968","87.3","2.744","85.5","NAN","NAN","NAN","NAN","NAN"],
    [1549057,"2026-04-12 01:10:00","50047","0.32899999999999996","84.6","1.731","84.5","NAN","NAN","NAN","NAN","NAN"],
    [1549058,"2026-04-12 01:20:00","50048","0.488","84.4","1.993","82.8","NAN","NAN","NAN","NAN","NAN"],
    [1549059,"2026-04-12 01:30:00","50049","0.475","84.2","1.339","85.9","NAN","NAN","NAN","NAN","NAN"],
    [1549060,"2026-04-12 01:40:00","50050","0.509","82.5","1.633","82.6","NAN","NAN","NAN","NAN","NAN"],
    [1549061,"2026-04-12 01:50:00","50051","1.348","74.93","2.875","79.52","NAN","NAN","NAN","NAN","NAN"],
    [1549062,"2026-04-12 02:00:00","50052","0.42200000000000004","70.5","2.123","70.51","NAN","NAN","NAN","NAN","NAN"],
    [1549063,"2026-04-12 02:10:00","50053","0.695","77.78","1.666","80.6","NAN","NAN","NAN","NAN","NAN"],
    [1549064,"2026-04-12 02:20:00","50054","0.821","83.1","1.633","85.6","NAN","NAN","NAN","NAN","NAN"],
    [1549065,"2026-04-12 02:30:00","50055","0.8640000000000001","85.5","1.895","79.87","NAN","NAN","NAN","NAN","NAN"],
    [1549066,"2026-04-12 02:40:00","50056","1.062","88.4","2.058","88.8","NAN","NAN","NAN","NAN","NAN"],
    [1549067,"2026-04-12 02:50:00","50057","0.76","88.2","1.895","89","NAN","NAN","NAN","NAN","NAN"],
    [1549068,"2026-04-12 03:00:00","50058","0.602","85.8","1.339","89.1","NAN","NAN","NAN","NAN","NAN"],
    [1549069,"2026-04-12 03:10:00","50059","0.648","89.5","1.797","89.5","NAN","NAN","NAN","NAN","NAN"],
    [1549070,"2026-04-12 03:20:00","50060","1.234","88.2","1.993","81.6","NAN","NAN","NAN","NAN","NAN"],
    [1549071,"2026-04-12 03:30:00","50061","0.975","77.57","2.123","77.74","NAN","NAN","NAN","NAN","NAN"],
    [1549072,"2026-04-12 03:40:00","50062","0.998","73.16","1.993","72.24","NAN","NAN","NAN","NAN","NAN"],
    [1549073,"2026-04-12 03:50:00","50063","0.19699999999999998","91.3","0.849","93.2","NAN","NAN","NAN","NAN","NAN"],
    [1549074,"2026-04-12 04:00:00","50064","0.795","91.8","2.025","92","NAN","NAN","NAN","NAN","NAN"],
    [1549075,"2026-04-12 04:10:00","50065","0.612","83.6","1.372","86.2","NAN","NAN","NAN","NAN","NAN"],
    [1549076,"2026-04-12 04:20:00","50066","0.917","84.5","1.601","82.6","NAN","NAN","NAN","NAN","NAN"],
    [1549077,"2026-04-12 04:30:00","50067","0.16899999999999998","87.0","1.045","83.7","NAN","NAN","NAN","NAN","NAN"],
    [1549078,"2026-04-12 04:40:00","50068","0.012","89.9","0.196","89.6","NAN","NAN","NAN","NAN","NAN"],
    [1549079,"2026-04-12 04:50:00","50069","0.11800000000000001","92.8","0.947","92.8","NAN","NAN","NAN","NAN","NAN"],
    [1549080,"2026-04-12 05:00:00","50070","0.804","93.8","2.025","93.8","NAN","NAN","NAN","NAN","NAN"],
    [1549081,"2026-04-12 05:10:00","50071","0.079","94.3","0.49","94.3","NAN","NAN","NAN","NAN","NAN"],
    [1549082,"2026-04-12 05:20:00","50072","0.526","94.8","1.699","95.2","NAN","NAN","NAN","NAN","NAN"],
    [1549083,"2026-04-12 05:30:00","50073","0.162","96.1","0.784","96.2","NAN","NAN","NAN","NAN","NAN"],
    [1549084,"2026-04-12 05:40:00","50074","0.37799999999999995","100.1","1.045","101.3","NAN","NAN","NAN","NAN","NAN"],
    [1549085,"2026-04-12 05:50:00","50075","0.17","103.1","1.274","103","NAN","NAN","NAN","NAN","NAN"],
    [1549086,"2026-04-12 06:00:00","50076","0.057","103.2","0.686","103.2","NAN","NAN","NAN","NAN","NAN"],
    [1549087,"2026-04-12 06:10:00","50077","0.282","103.2","1.176","103.2","NAN","NAN","NAN","NAN","NAN"],
    [1549088,"2026-04-12 06:20:00","50078","0.353","103.2","1.111","103.2","NAN","NAN","NAN","NAN","NAN"],
    [1549089,"2026-04-12 06:30:00","50079","0.212","103.1","1.176","103.1","NAN","NAN","NAN","NAN","NAN"],
    [1549090,"2026-04-12 06:40:00","50080","0.648","101.2","1.601","101.1","NAN","NAN","NAN","NAN","NAN"],
    [1549091,"2026-04-12 06:50:00","50081","0.187","99.5","0.751","99.6","NAN","NAN","NAN","NAN","NAN"],
    [1549092,"2026-04-12 07:00:00","50082","0.006999999999999999","99.4","0.359","99.4","NAN","NAN","NAN","NAN","NAN"],
    [1549093,"2026-04-12 07:10:00","50083","0.16699999999999998","103.6","0.849","103.7","NAN","NAN","NAN","NAN","NAN"],
    [1549094,"2026-04-12 07:20:00","50084","0.55","106.4","1.437","104","NAN","NAN","NAN","NAN","NAN"],
    [1549095,"2026-04-12 07:30:00","50085","0.025","108.6","0.49","108.6","NAN","NAN","NAN","NAN","NAN"],
    [1549096,"2026-04-12 07:40:00","50086","0.136","109.1","0.784","108.6","NAN","NAN","NAN","NAN","NAN"],
    [1549097,"2026-04-12 07:50:00","50087","0.044000000000000004","109.5","0.686","109.5","NAN","NAN","NAN","NAN","NAN"],
    [1549098,"2026-04-12 08:00:00","50088","0.335","109.6","2.417","109.7","NAN","NAN","NAN","NAN","NAN"],
    [1549099,"2026-04-12 08:10:00","50089","1.375","97.7","2.842","104.1","NAN","NAN","NAN","NAN","NAN"],
    [1549100,"2026-04-12 08:20:00","50090","1.883","337.8","4.247","321.4","NAN","NAN","NAN","NAN","NAN"],
    [1549101,"2026-04-12 08:30:00","50091","2.278","317.0","4.247","322.1","NAN","NAN","NAN","NAN","NAN"],
    [1549102,"2026-04-12 08:40:00","50092","3.313","325.5","4.9","327.4","NAN","NAN","NAN","NAN","NAN"],
    [1549103,"2026-04-12 08:50:00","50093","2.685","330.8","4.737","327.8","NAN","NAN","NAN","NAN","NAN"],
    [1549104,"2026-04-12 09:00:00","50094","2.85","348.2","5.129","341.1","NAN","NAN","NAN","NAN","NAN"],
    [1549105,"2026-04-12 09:10:00","50095","2.772","341.1","5.292","349.1","NAN","NAN","NAN","NAN","NAN"],
    [1549106,"2026-04-12 09:20:00","50096","1.365","341.0","3.561","340.8","NAN","NAN","NAN","NAN","NAN"],
    [1549107,"2026-04-12 09:30:00","50097","2.1630000000000003","8.69","4.279","156.8","NAN","NAN","NAN","NAN","NAN"],
    [1549108,"2026-04-12 09:40:00","50098","1.847","181.7","3.43","185.5","NAN","NAN","NAN","NAN","NAN"],
    [1549109,"2026-04-12 09:50:00","50099","1.436","197.3","2.94","194.2","NAN","NAN","NAN","NAN","NAN"],
    [1549110,"2026-04-12 10:00:00","50100","0.8220000000000001","202.4","2.744","202.7","NAN","NAN","NAN","NAN","NAN"],
    [1549111,"2026-04-12 10:10:00","50101","0.8420000000000001","202.3","2.777","203.8","NAN","NAN","NAN","NAN","NAN"],
    [1549112,"2026-04-12 10:20:00","50102","0.053","188.0","0.719","180.7","NAN","NAN","NAN","NAN","NAN"],
    [1549113,"2026-04-12 10:30:00","50103","0.49200000000000005","185.0","1.731","180.4","NAN","NAN","NAN","NAN","NAN"],
    [1549114,"2026-04-12 10:40:00","50104","0.171","204.8","1.111","204.2","NAN","NAN","NAN","NAN","NAN"],
    [1549115,"2026-04-12 10:50:00","50105","0.737","238.5","2.091","246.6","NAN","NAN","NAN","NAN","NAN"],
    [1549116,"2026-04-12 11:00:00","50106","0.163","249.0","1.633","249","NAN","NAN","NAN","NAN","NAN"],
    [1549117,"2026-04-12 11:10:00","50107","0.19","249.7","1.405","249.3","NAN","NAN","NAN","NAN","NAN"],
    [1549118,"2026-04-12 11:20:00","50108","0.161","250.6","1.339","250.6","NAN","NAN","NAN","NAN","NAN"],
    [1549119,"2026-04-12 11:30:00","50109","0.522","253.7","2.025","251.6","NAN","NAN","NAN","NAN","NAN"],
    [1549120,"2026-04-12 11:40:00","50110","3.0789999999999997","292.9","5.88","298.4","NAN","NAN","NAN","NAN","NAN"],
    [1549121,"2026-04-12 11:50:00","50111","3.775","316.7","5.553","312.7","NAN","NAN","NAN","NAN","NAN"],
    [1549122,"2026-04-12 12:00:00","50112","4.183","321.0","6.86","323.8","NAN","NAN","NAN","NAN","NAN"],
    [1549123,"2026-04-12 12:10:00","50113","4.053","311.6","6.762","323.5","NAN","NAN","NAN","NAN","NAN"],
    [1549124,"2026-04-12 12:20:00","50114","4.587","311.1","8.04","320.1","NAN","NAN","NAN","NAN","NAN"],
    [1549125,"2026-04-12 12:30:00","50115","4.32","302.1","6.958","287.7","NAN","NAN","NAN","NAN","NAN"],
    [1549126,"2026-04-12 12:40:00","50116","4.309","312.7","6.827","330.4","NAN","NAN","NAN","NAN","NAN"],
    [1549127,"2026-04-12 12:50:00","50117","4.023","314.6","7.579","315.4","NAN","NAN","NAN","NAN","NAN"],
    [1549128,"2026-04-12 13:00:00","50118","4.524","312.8","7.742","326.4","NAN","NAN","NAN","NAN","NAN"],
    [1549129,"2026-04-12 13:10:00","50119","4.489","307.4","7.775","298.1","NAN","NAN","NAN","NAN","NAN"],
    [1549130,"2026-04-12 13:20:00","50120","4.65","318.0","8.04","322.9","NAN","NAN","NAN","NAN","NAN"],
    [1549131,"2026-04-12 13:30:00","50121","3.908","313.3","6.272","325.1","NAN","NAN","NAN","NAN","NAN"],
    [1549132,"2026-04-12 13:40:00","50122","4.896","323.8","8.98","323.2","NAN","NAN","NAN","NAN","NAN"],
    [1549133,"2026-04-12 13:50:00","50123","4.4510000000000005","321.4","7.219","312.7","NAN","NAN","NAN","NAN","NAN"],
    [1549134,"2026-04-12 14:00:00","50124","4.3580000000000005","326.7","7.023","329.4","NAN","NAN","NAN","NAN","NAN"],
    [1549135,"2026-04-12 14:10:00","50125","3.845","313.4","6.272","315.3","NAN","NAN","NAN","NAN","NAN"],
    [1549136,"2026-04-12 14:20:00","50126","3.577","316.5","6.076","322.8","NAN","NAN","NAN","NAN","NAN"],
    [1549137,"2026-04-12 14:30:00","50127","4.376","311.9","6.827","304.2","NAN","NAN","NAN","NAN","NAN"],
    [1549138,"2026-04-12 14:40:00","50128","3.842","313.9","7.905","322","NAN","NAN","NAN","NAN","NAN"],
    [1549139,"2026-04-12 14:50:00","50129","4.8919999999999995","323.6","8.07","337.8","NAN","NAN","NAN","NAN","NAN"],
    [1549140,"2026-04-12 15:00:00","50130","4.279","321.5","6.795","339.8","NAN","NAN","NAN","NAN","NAN"],
    [1549141,"2026-04-12 15:10:00","50131","4.5089999999999995","318.7","7.481","318.1","NAN","NAN","NAN","NAN","NAN"],
    [1549142,"2026-04-12 15:20:00","50132","4.676","318.1","8.79","310.4","NAN","NAN","NAN","NAN","NAN"],
    [1549143,"2026-04-12 15:30:00","50133","4.721","319.6","7.448","329","NAN","NAN","NAN","NAN","NAN"],
    [1549144,"2026-04-12 15:40:00","50134","4.341","316.8","8.36","311.1","NAN","NAN","NAN","NAN","NAN"],
    [1549145,"2026-04-12 15:50:00","50135","3.805","313.2","7.089","314.8","NAN","NAN","NAN","NAN","NAN"],
    [1549146,"2026-04-12 16:00:00","50136","4.85","310.8","7.317","299.2","NAN","NAN","NAN","NAN","NAN"],
    [1549147,"2026-04-12 16:10:00","50137","4.301","314.4","7.644","316.7","NAN","NAN","NAN","NAN","NAN"],
    [1549148,"2026-04-12 16:20:00","50138","4.163","290.9","6.37","275.6","NAN","NAN","NAN","NAN","NAN"],
    [1549149,"2026-04-12 16:30:00","50139","4.0360000000000005","296.9","6.305","294.5","NAN","NAN","NAN","NAN","NAN"],
    [1549150,"2026-04-12 16:40:00","50140","3.821","300.6","5.684","308.5","NAN","NAN","NAN","NAN","NAN"],
    [1549151,"2026-04-12 16:50:00","50141","3.6189999999999998","311.2","5.521","297.2","NAN","NAN","NAN","NAN","NAN"],
    [1549152,"2026-04-12 17:00:00","50142","3.8789999999999996","301.4","5.913","308.3","NAN","NAN","NAN","NAN","NAN"],
    [1549153,"2026-04-12 17:10:00","50143","4.229","306.0","7.089","311.9","NAN","NAN","NAN","NAN","NAN"],
    [1549154,"2026-04-12 17:20:00","50144","4.829","317.2","7.677","315","NAN","NAN","NAN","NAN","NAN"],
    [1549155,"2026-04-12 17:30:00","50145","3.912","311.6","6.566","301.1","NAN","NAN","NAN","NAN","NAN"],
    [1549156,"2026-04-12 17:40:00","50146","4.121","309.8","7.089","311.4","NAN","NAN","NAN","NAN","NAN"],
    [1549157,"2026-04-12 17:50:00","50147","3.734","313.2","5.88","310.6","NAN","NAN","NAN","NAN","NAN"],
    [1549158,"2026-04-12 18:00:00","50148","3.765","310.4","6.076","317.3","NAN","NAN","NAN","NAN","NAN"],
    [1549159,"2026-04-12 18:10:00","50149","2.6519999999999997","307.6","5.455","312.2","NAN","NAN","NAN","NAN","NAN"],
    [1549160,"2026-04-12 18:20:00","50150","2.523","314.2","4.671","315.3","NAN","NAN","NAN","NAN","NAN"],
    [1549161,"2026-04-12 18:30:00","50151","3.395","323.4","5.423","314.7","NAN","NAN","NAN","NAN","NAN"],
    [1549162,"2026-04-12 18:40:00","50152","4.166","327.2","6.468","330.6","NAN","NAN","NAN","NAN","NAN"],
    [1549163,"2026-04-12 18:50:00","50153","3.3689999999999998","326.2","5.031","334","NAN","NAN","NAN","NAN","NAN"],
    [1549164,"2026-04-12 19:00:00","50154","2.205","319.6","3.757","325.2","NAN","NAN","NAN","NAN","NAN"],
    [1549165,"2026-04-12 19:10:00","50155","2.394","318.4","4.051","328.4","NAN","NAN","NAN","NAN","NAN"],
    [1549166,"2026-04-12 19:20:00","50156","2.066","317.1","3.299","318.4","NAN","NAN","NAN","NAN","NAN"],
    [1549167,"2026-04-12 19:30:00","50157","1.995","321.0","3.463","321.3","NAN","NAN","NAN","NAN","NAN"],
    [1549168,"2026-04-12 19:40:00","50158","1.712","318.2","3.332","324.6","NAN","NAN","NAN","NAN","NAN"],
    [1549169,"2026-04-12 19:50:00","50159","1.7630000000000001","319.8","3.299","310.8","NAN","NAN","NAN","NAN","NAN"],
    [1549170,"2026-04-12 20:00:00","50160","1.444","318.3","2.711","315.2","NAN","NAN","NAN","NAN","NAN"],
    [1549171,"2026-04-12 20:10:00","50161","1.39","311.1","2.907","309.5","NAN","NAN","NAN","NAN","NAN"],
    [1549172,"2026-04-12 20:20:00","50162","1.798","311.3","3.234","308.8","NAN","NAN","NAN","NAN","NAN"],
    [1549173,"2026-04-12 20:30:00","50163","2.642","306.6","3.855","305.5","NAN","NAN","NAN","NAN","NAN"],
    [1549174,"2026-04-12 20:40:00","50164","2.4659999999999997","308.0","4.312","302.5","NAN","NAN","NAN","NAN","NAN"],
    [1549175,"2026-04-12 20:50:00","50165","2.978","300.8","4.279","309.3","NAN","NAN","NAN","NAN","NAN"],
    [1549176,"2026-04-12 21:00:00","50166","3.127","302.2","4.802","304.3","NAN","NAN","NAN","NAN","NAN"],
    [1549177,"2026-04-12 21:10:00","50167","3.2030000000000003","307.4","5.357","312.6","NAN","NAN","NAN","NAN","NAN"],
    [1549178,"2026-04-12 21:20:00","50168","3.015","307.8","5.651","316.1","NAN","NAN","NAN","NAN","NAN"],
    [1549179,"2026-04-12 21:30:00","50169","3.072","310.9","5.913","321.9","NAN","NAN","NAN","NAN","NAN"],
    [1549180,"2026-04-12 21:40:00","50170","3.5269999999999997","309.9","5.847","302.3","NAN","NAN","NAN","NAN","NAN"],
    [1549181,"2026-04-12 21:50:00","50171","3.889","315.5","6.925","326.2","NAN","NAN","NAN","NAN","NAN"],
    [1549182,"2026-04-12 22:00:00","50172","3.7739999999999996","312.9","6.599","299","NAN","NAN","NAN","NAN","NAN"],
    [1549183,"2026-04-12 22:10:00","50173","2.958","309.8","5.978","300.7","NAN","NAN","NAN","NAN","NAN"],
    [1549184,"2026-04-12 22:20:00","50174","3.295","306.5","5.978","300.1","NAN","NAN","NAN","NAN","NAN"],
    [1549185,"2026-04-12 22:30:00","50175","4.395","302.4","7.023","293.7","NAN","NAN","NAN","NAN","NAN"],
    [1549186,"2026-04-12 22:40:00","50176","4.383","303.7","6.991","301.7","NAN","NAN","NAN","NAN","NAN"],
    [1549187,"2026-04-12 22:50:00","50177","3.417","307.4","6.043","305.4","NAN","NAN","NAN","NAN","NAN"],
    [1549188,"2026-04-12 23:00:00","50178","3.659","315.8","6.468","311.1","NAN","NAN","NAN","NAN","NAN"],
    [1549189,"2026-04-12 23:10:00","50179","3.014","320.2","6.141","334.5","NAN","NAN","NAN","NAN","NAN"],
    [1549190,"2026-04-12 23:20:00","50180","2.656","316.5","4.867","313.3","NAN","NAN","NAN","NAN","NAN"],
    [1549191,"2026-04-12 23:30:00","50181","3.2489999999999997","315.6","5.945","311.6","NAN","NAN","NAN","NAN","NAN"],
    [1549192,"2026-04-12 23:40:00","50182","3.472","308.7","6.435","310.8","NAN","NAN","NAN","NAN","NAN"],
    [1549193,"2026-04-12 23:50:00","50183","3.951","309.6","6.729","327.6","NAN","NAN","NAN","NAN","NAN"],
    [1549194,"2026-04-13 00:00:00","50184","4.247","313.1","7.971","317.1","NAN","NAN","NAN","NAN","NAN"],
    [1549195,"2026-04-13 00:10:00","50185","4.081","311.0","8.62","316.3","NAN","NAN","NAN","NAN","NAN"],
    [1549196,"2026-04-13 00:20:00","50186","3.9939999999999998","310.7","6.991","325.5","NAN","NAN","NAN","NAN","NAN"],
    [1549197,"2026-04-13 00:30:00","50187","3.536","311.5","6.86","300.9","NAN","NAN","NAN","NAN","NAN"],
    [1549198,"2026-04-13 00:40:00","50188","3.929","311.2","7.84","325.4","NAN","NAN","NAN","NAN","NAN"],
    [1549199,"2026-04-13 00:50:00","50189","4.5489999999999995","317.4","8","334.5","NAN","NAN","NAN","NAN","NAN"],
    [1549200,"2026-04-13 01:00:00","50190","3.9419999999999997","327.9","6.109","332.3","NAN","NAN","NAN","NAN","NAN"],
    [1549201,"2026-04-13 01:10:00","50191","4.397","323.5","6.729","328.5","NAN","NAN","NAN","NAN","NAN"],
    [1549202,"2026-04-13 01:20:00","50192","3.557","320.2","6.795","323.8","NAN","NAN","NAN","NAN","NAN"],
    [1549203,"2026-04-13 01:30:00","50193","3.417","315.7","6.403","317.4","NAN","NAN","NAN","NAN","NAN"],
    [1549204,"2026-04-13 01:40:00","50194","4.037","315.1","6.893","318.6","NAN","NAN","NAN","NAN","NAN"],
    [1549205,"2026-04-13 01:50:00","50195","4.1930000000000005","311.5","7.971","323.8","NAN","NAN","NAN","NAN","NAN"],
    [1549206,"2026-04-13 02:00:00","50196","4.265","308.5","7.056","287.2","NAN","NAN","NAN","NAN","NAN"],
    [1549207,"2026-04-13 02:10:00","50197","4.606","307.7","6.991","317.6","NAN","NAN","NAN","NAN","NAN"],
    [1549208,"2026-04-13 02:20:00","50198","3.529","312.2","5.978","325.1","NAN","NAN","NAN","NAN","NAN"],
    [1549209,"2026-04-13 02:30:00","50199","2.738","314.3","5.749","323.8","NAN","NAN","NAN","NAN","NAN"],
    [1549210,"2026-04-13 02:40:00","50200","3.41","314.5","6.337","301.1","NAN","NAN","NAN","NAN","NAN"],
    [1549211,"2026-04-13 02:50:00","50201","3.728","309.2","6.827","309.5","NAN","NAN","NAN","NAN","NAN"],
    [1549212,"2026-04-13 03:00:00","50202","3.585","304.1","6.958","305.7","NAN","NAN","NAN","NAN","NAN"],
    [1549213,"2026-04-13 03:10:00","50203","3.695","307.0","6.566","297.3","NAN","NAN","NAN","NAN","NAN"],
    [1549214,"2026-04-13 03:20:00","50204","3.657","309.5","7.709","311.4","NAN","NAN","NAN","NAN","NAN"],
    [1549215,"2026-04-13 03:30:00","50205","3.258","311.0","5.488","318.1","NAN","NAN","NAN","NAN","NAN"],
    [1549216,"2026-04-13 03:40:00","50206","2.693","320.5","4.9","335.6","NAN","NAN","NAN","NAN","NAN"],
    [1549217,"2026-04-13 03:50:00","50207","2.583","320.8","5.39","344.6","NAN","NAN","NAN","NAN","NAN"],
    [1549218,"2026-04-13 04:00:00","50208","2.884","319.4","4.965","310.2","NAN","NAN","NAN","NAN","NAN"],
    [1549219,"2026-04-13 04:10:00","50209","3.552","303.3","5.619","306.1","NAN","NAN","NAN","NAN","NAN"],
    [1549220,"2026-04-13 04:20:00","50210","3.5660000000000003","306.2","5.815","333.1","NAN","NAN","NAN","NAN","NAN"],
    [1549221,"2026-04-13 04:30:00","50211","3.679","308.4","6.925","315","NAN","NAN","NAN","NAN","NAN"],
    [1549222,"2026-04-13 04:40:00","50212","4.423","309.1","7.35","310.6","NAN","NAN","NAN","NAN","NAN"],
    [1549223,"2026-04-13 04:50:00","50213","3.109","312.1","6.468","337.6","NAN","NAN","NAN","NAN","NAN"],
    [1549224,"2026-04-13 05:00:00","50214","3.2489999999999997","323.3","5.782","329.9","NAN","NAN","NAN","NAN","NAN"],
    [1549225,"2026-04-13 05:10:00","50215","2.866","321.1","5.782","318.3","NAN","NAN","NAN","NAN","NAN"],
    [1549226,"2026-04-13 05:20:00","50216","3.572","322.0","6.207","325.8","NAN","NAN","NAN","NAN","NAN"],
    [1549227,"2026-04-13 05:30:00","50217","2.773","314.5","6.631","309.4","NAN","NAN","NAN","NAN","NAN"],
    [1549228,"2026-04-13 05:40:00","50218","2.785","310.2","4.9","304.1","NAN","NAN","NAN","NAN","NAN"],
    [1549229,"2026-04-13 05:50:00","50219","2.8760000000000003","312.1","5.357","298.6","NAN","NAN","NAN","NAN","NAN"],
    [1549230,"2026-04-13 06:00:00","50220","3.477","312.9","5.684","287","NAN","NAN","NAN","NAN","NAN"],
    [1549231,"2026-04-13 06:10:00","50221","3.451","303.7","6.272","293.3","NAN","NAN","NAN","NAN","NAN"],
    [1549232,"2026-04-13 06:20:00","50222","3.73","302.6","6.043","304.2","NAN","NAN","NAN","NAN","NAN"],
    [1549233,"2026-04-13 06:30:00","50223","4.141","305.1","6.664","296.5","NAN","NAN","NAN","NAN","NAN"],
    [1549234,"2026-04-13 06:40:00","50224","3.701","308.7","6.043","307.8","NAN","NAN","NAN","NAN","NAN"],
    [1549235,"2026-04-13 06:50:00","50225","3.135","308.5","6.762","286.8","NAN","NAN","NAN","NAN","NAN"],
    [1549236,"2026-04-13 07:00:00","50226","2.926","314.0","5.749","316.2","NAN","NAN","NAN","NAN","NAN"],
    [1549237,"2026-04-13 07:10:00","50227","2.997","308.2","5.161","290.3","NAN","NAN","NAN","NAN","NAN"],
    [1549238,"2026-04-13 07:20:00","50228","2.998","305.5","4.867","303.2","NAN","NAN","NAN","NAN","NAN"],
    [1549239,"2026-04-13 07:30:00","50229","2.8280000000000003","306.0","4.704","308","NAN","NAN","NAN","NAN","NAN"],
    [1549240,"2026-04-13 07:40:00","50230","2.536","303.2","4.214","310.1","NAN","NAN","NAN","NAN","NAN"],
    [1549241,"2026-04-13 07:50:00","50231","2.318","302.1","4.279","306.7","NAN","NAN","NAN","NAN","NAN"],
    [1549242,"2026-04-13 08:00:00","50232","2.7230000000000003","298.4","5.194","302.9","NAN","NAN","NAN","NAN","NAN"],
    [1549243,"2026-04-13 08:10:00","50233","2.8689999999999998","302.4","4.802","308.1","NAN","NAN","NAN","NAN","NAN"],
    [1549244,"2026-04-13 08:20:00","50234","2.785","298.7","4.541","312.1","NAN","NAN","NAN","NAN","NAN"],
    [1549245,"2026-04-13 08:30:00","50235","2.6919999999999997","294.6","4.345","297","NAN","NAN","NAN","NAN","NAN"],
    [1549246,"2026-04-13 08:40:00","50236","2.7910000000000004","286.7","5.129","284.8","NAN","NAN","NAN","NAN","NAN"],
    [1549247,"2026-04-13 08:50:00","50237","2.417","295.2","4.018","290.9","NAN","NAN","NAN","NAN","NAN"],
    [1549248,"2026-04-13 09:00:00","50238","2.931","296.7","5.194","329.9","NAN","NAN","NAN","NAN","NAN"],
    [1549249,"2026-04-13 09:10:00","50239","2.915","308.7","5.521","323.2","NAN","NAN","NAN","NAN","NAN"],
    [1549250,"2026-04-13 09:20:00","50240","2.725","307.0","4.377","303.9","NAN","NAN","NAN","NAN","NAN"],
    [1549251,"2026-04-13 09:30:00","50241","2.59","302.4","4.541","300","NAN","NAN","NAN","NAN","NAN"],
    [1549252,"2026-04-13 09:40:00","50242","1.3419999999999999","308.1","2.94","314.3","NAN","NAN","NAN","NAN","NAN"],
    [1549253,"2026-04-13 09:50:00","50243","2.582","296.4","4.051","288.3","NAN","NAN","NAN","NAN","NAN"],
    [1549254,"2026-04-13 10:00:00","50244","2.4819999999999998","290.6","4.083","292.4","NAN","NAN","NAN","NAN","NAN"],
    [1549255,"2026-04-13 10:10:00","50245","2.375","295.1","4.541","289.7","NAN","NAN","NAN","NAN","NAN"],
    [1549256,"2026-04-13 10:20:00","50246","1.7790000000000001","303.4","3.691","314.5","NAN","NAN","NAN","NAN","NAN"],
    [1549257,"2026-04-13 10:30:00","50247","3.2230000000000003","301.5","4.998","306.1","NAN","NAN","NAN","NAN","NAN"],
    [1549258,"2026-04-13 10:40:00","50248","2.793","290.9","5.325","286.1","NAN","NAN","NAN","NAN","NAN"],
    [1549259,"2026-04-13 10:50:00","50249","2.062","292.4","3.43","289.1","NAN","NAN","NAN","NAN","NAN"],
    [1549260,"2026-04-13 11:00:00","50250","1.805","289.1","3.43","285.1","NAN","NAN","NAN","NAN","NAN"],
    [1549261,"2026-04-13 11:10:00","50251","1.743","281.8","4.051","273.8","NAN","NAN","NAN","NAN","NAN"],
    [1549262,"2026-04-13 11:20:00","50252","2.227","255.6","4.214","211.1","NAN","NAN","NAN","NAN","NAN"],
    [1549263,"2026-04-13 11:30:00","50253","2.43","224.9","4.475","221.9","NAN","NAN","NAN","NAN","NAN"],
    [1549264,"2026-04-13 11:40:00","50254","2.7889999999999997","213.0","5.096","216","NAN","NAN","NAN","NAN","NAN"],
    [1549265,"2026-04-13 11:50:00","50255","4.478","211.8","5.945","206.5","NAN","NAN","NAN","NAN","NAN"],
    [1549266,"2026-04-13 12:00:00","50256","3.585","203.9","6.043","205.5","NAN","NAN","NAN","NAN","NAN"],
    [1549267,"2026-04-13 12:10:00","50257","3.75","206.8","6.925","208","NAN","NAN","NAN","NAN","NAN"],
    [1549268,"2026-04-13 12:20:00","50258","3.5439999999999996","198.6","5.945","206.3","NAN","NAN","NAN","NAN","NAN"],
    [1549269,"2026-04-13 12:30:00","50259","3.255","200.6","6.337","210.9","NAN","NAN","NAN","NAN","NAN"],
    [1549270,"2026-04-13 12:40:00","50260","3.574","198.0","6.37","217.9","NAN","NAN","NAN","NAN","NAN"],
    [1549271,"2026-04-13 12:50:00","50261","3.904","208.2","7.187","209.6","NAN","NAN","NAN","NAN","NAN"],
    [1549272,"2026-04-13 13:00:00","50262","3.255","209.3","6.109","210.1","NAN","NAN","NAN","NAN","NAN"],
    [1549273,"2026-04-13 13:10:00","50263","3.681","201.9","6.207","208.9","NAN","NAN","NAN","NAN","NAN"],
    [1549274,"2026-04-13 13:20:00","50264","4.312","213.7","6.795","209.2","NAN","NAN","NAN","NAN","NAN"],
    [1549275,"2026-04-13 13:30:00","50265","4.427","199.8","7.742","212.3","NAN","NAN","NAN","NAN","NAN"],
    [1549276,"2026-04-13 13:40:00","50266","4.232","205.1","7.056","213.3","NAN","NAN","NAN","NAN","NAN"],
    [1549277,"2026-04-13 13:50:00","50267","4.468","211.6","7.187","209","NAN","NAN","NAN","NAN","NAN"],
    [1549278,"2026-04-13 14:00:00","50268","3.998","206.9","7.546","216.1","NAN","NAN","NAN","NAN","NAN"],
    [1549279,"2026-04-13 14:10:00","50269","3.1910000000000003","198.9","6.664","215.1","NAN","NAN","NAN","NAN","NAN"],
    [1549280,"2026-04-13 14:20:00","50270","3.3280000000000003","191.9","6.109","212.5","NAN","NAN","NAN","NAN","NAN"],
    [1549281,"2026-04-13 14:30:00","50271","3.1830000000000003","178.1","5.488","187.5","NAN","NAN","NAN","NAN","NAN"],
    [1549282,"2026-04-13 14:40:00","50272","3.237","200.5","5.847","205.2","NAN","NAN","NAN","NAN","NAN"],
    [1549283,"2026-04-13 14:50:00","50273","3.425","181.1","5.945","169.8","NAN","NAN","NAN","NAN","NAN"],
    [1549284,"2026-04-13 15:00:00","50274","3.2960000000000003","186.1","5.978","163.5","NAN","NAN","NAN","NAN","NAN"],
    [1549285,"2026-04-13 15:10:00","50275","3.29","176.7","6.37","176.3","NAN","NAN","NAN","NAN","NAN"],
    [1549286,"2026-04-13 15:20:00","50276","2.9539999999999997","175.7","4.965","174.1","NAN","NAN","NAN","NAN","NAN"],
    [1549287,"2026-04-13 15:30:00","50277","2.613","188.4","4.9","181.1","NAN","NAN","NAN","NAN","NAN"],
    [1549288,"2026-04-13 15:40:00","50278","2.803","160.8","4.573","139.1","NAN","NAN","NAN","NAN","NAN"],
    [1549289,"2026-04-13 15:50:00","50279","3.05","158.2","4.541","167.2","NAN","NAN","NAN","NAN","NAN"],
    [1549290,"2026-04-13 16:00:00","50280","3.261","155.4","5.292","164.9","NAN","NAN","NAN","NAN","NAN"],
    [1549291,"2026-04-13 16:10:00","50281","2.44","149.5","4.181","151.3","NAN","NAN","NAN","NAN","NAN"],
    [1549292,"2026-04-13 16:20:00","50282","2.7319999999999998","146.6","4.214","157.2","NAN","NAN","NAN","NAN","NAN"],
    [1549293,"2026-04-13 16:30:00","50283","2.471","139.2","4.149","133.3","NAN","NAN","NAN","NAN","NAN"],
    [1549294,"2026-04-13 16:40:00","50284","2.585","129.5","4.018","150","NAN","NAN","NAN","NAN","NAN"],
    [1549295,"2026-04-13 16:50:00","50285","2.596","117.4","4.083","129.3","NAN","NAN","NAN","NAN","NAN"],
    [1549296,"2026-04-13 17:00:00","50286","2.206","109.4","3.659","115.2","NAN","NAN","NAN","NAN","NAN"],
    [1549297,"2026-04-13 17:10:00","50287","2.374","109.1","3.528","115.5","NAN","NAN","NAN","NAN","NAN"],
    [1549298,"2026-04-13 17:20:00","50288","2.412","106.4","4.508","99","NAN","NAN","NAN","NAN","NAN"],
    [1549299,"2026-04-13 17:30:00","50289","2.03","108.0","3.691","114.7","NAN","NAN","NAN","NAN","NAN"],
    [1549300,"2026-04-13 17:40:00","50290","2.35","111.6","3.789","110.3","NAN","NAN","NAN","NAN","NAN"],
    [1549301,"2026-04-13 17:50:00","50291","2.24","117.0","3.855","125.4","NAN","NAN","NAN","NAN","NAN"],
    [1549302,"2026-04-13 18:00:00","50292","1.811","114.9","3.495","116.6","NAN","NAN","NAN","NAN","NAN"],
    [1549303,"2026-04-13 18:10:00","50293","2.141","110.5","3.365","114.8","NAN","NAN","NAN","NAN","NAN"],
    [1549304,"2026-04-13 18:20:00","50294","1.944","103.6","3.103","98.9","NAN","NAN","NAN","NAN","NAN"],
    [1549305,"2026-04-13 18:30:00","50295","2.028","101.7","3.267","103.7","NAN","NAN","NAN","NAN","NAN"],
    [1549306,"2026-04-13 18:40:00","50296","2.0580000000000003","98.0","3.103","100.2","NAN","NAN","NAN","NAN","NAN"],
    [1549307,"2026-04-13 18:50:00","50297","1.75","97.7","2.842","95.1","NAN","NAN","NAN","NAN","NAN"],
    [1549308,"2026-04-13 19:00:00","50298","1.234","105.9","2.581","107","NAN","NAN","NAN","NAN","NAN"],
    [1549309,"2026-04-13 19:10:00","50299","1.531","108.7","2.483","108.9","NAN","NAN","NAN","NAN","NAN"],
    [1549310,"2026-04-13 19:20:00","50300","1.298","109.3","2.483","107.3","NAN","NAN","NAN","NAN","NAN"],
    [1549311,"2026-04-13 19:30:00","50301","1.531","114.6","2.548","116","NAN","NAN","NAN","NAN","NAN"],
    [1549312,"2026-04-13 19:40:00","50302","1.78","117.7","3.267","118.5","NAN","NAN","NAN","NAN","NAN"],
    [1549313,"2026-04-13 19:50:00","50303","2.475","125.8","3.985","133.9","NAN","NAN","NAN","NAN","NAN"],
    [1549314,"2026-04-13 20:00:00","50304","2.441","134.4","4.247","133.9","NAN","NAN","NAN","NAN","NAN"],
    [1549315,"2026-04-13 20:10:00","50305","2.471","136.1","3.822","129","NAN","NAN","NAN","NAN","NAN"],
    [1549316,"2026-04-13 20:20:00","50306","2.362","138.2","4.345","143.3","NAN","NAN","NAN","NAN","NAN"],
    [1549317,"2026-04-13 20:30:00","50307","2.2319999999999998","144.3","3.92","150.9","NAN","NAN","NAN","NAN","NAN"],
    [1549318,"2026-04-13 20:40:00","50308","2.6260000000000003","142.7","4.181","146.6","NAN","NAN","NAN","NAN","NAN"],
    [1549319,"2026-04-13 20:50:00","50309","2.235","141.3","4.214","142.4","NAN","NAN","NAN","NAN","NAN"],
    [1549320,"2026-04-13 21:00:00","50310","2.825","140.2","4.737","149.5","NAN","NAN","NAN","NAN","NAN"],
    [1549321,"2026-04-13 21:10:00","50311","2.417","141.6","4.116","146.3","NAN","NAN","NAN","NAN","NAN"],
    [1549322,"2026-04-13 21:20:00","50312","2.329","131.3","3.593","131.7","NAN","NAN","NAN","NAN","NAN"],
    [1549323,"2026-04-13 21:30:00","50313","2.0","135.2","3.659","128","NAN","NAN","NAN","NAN","NAN"],
    [1549324,"2026-04-13 21:40:00","50314","1.645","140.1","2.646","134.6","NAN","NAN","NAN","NAN","NAN"],
    [1549325,"2026-04-13 21:50:00","50315","1.715","142.4","3.201","144.2","NAN","NAN","NAN","NAN","NAN"],
    [1549326,"2026-04-13 22:00:00","50316","1.248","146.5","3.103","144.9","NAN","NAN","NAN","NAN","NAN"],
    [1549327,"2026-04-13 22:10:00","50317","0.8540000000000001","147.3","2.091","147.2","NAN","NAN","NAN","NAN","NAN"],
    [1549328,"2026-04-13 22:20:00","50318","1.163","147.3","2.417","147.5","NAN","NAN","NAN","NAN","NAN"],
    [1549329,"2026-04-13 22:30:00","50319","0.47100000000000003","147.5","1.731","147.6","NAN","NAN","NAN","NAN","NAN"],
    [1549330,"2026-04-13 22:40:00","50320","0.32299999999999995","147.6","1.666","147.5","NAN","NAN","NAN","NAN","NAN"],
    [1549331,"2026-04-13 22:50:00","50321","0.521","147.6","1.503","147.6","NAN","NAN","NAN","NAN","NAN"],
    [1549332,"2026-04-13 23:00:00","50322","0.451","147.8","2.385","147.9","NAN","NAN","NAN","NAN","NAN"],
    [1549333,"2026-04-13 23:10:00","50323","0.153","147.9","1.437","147.9","NAN","NAN","NAN","NAN","NAN"],
    [1549334,"2026-04-13 23:20:00","50324","0.276","148.0","1.405","148","NAN","NAN","NAN","NAN","NAN"],
    [1549335,"2026-04-13 23:30:00","50325","0.47200000000000003","148.0","1.699","148","NAN","NAN","NAN","NAN","NAN"],
    [1549336,"2026-04-13 23:40:00","50326","0.6409999999999999","148.2","2.189","148.2","NAN","NAN","NAN","NAN","NAN"],
    [1549337,"2026-04-13 23:50:00","50327","0.20600000000000002","148.3","0.98","148.3","NAN","NAN","NAN","NAN","NAN"],
    [1549338,"2026-04-14 00:00:00","50328","0.38299999999999995","148.3","1.307","148.3","NAN","NAN","NAN","NAN","NAN"],
    [1549339,"2026-04-14 00:10:00","50329","0.07200000000000001","148.3","0.653","148.3","NAN","NAN","NAN","NAN","NAN"],
    [1549340,"2026-04-14 00:20:00","50330","0.319","148.3","1.372","148.3","NAN","NAN","NAN","NAN","NAN"],
    [1549341,"2026-04-14 00:30:00","50331","0.882","148.4","1.568","148.4","NAN","NAN","NAN","NAN","NAN"],
    [1549342,"2026-04-14 00:40:00","50332","1.133","148.5","1.797","148.5","NAN","NAN","NAN","NAN","NAN"],
    [1549343,"2026-04-14 00:50:00","50333","0.9790000000000001","148.7","1.699","148.8","NAN","NAN","NAN","NAN","NAN"],
    [1549344,"2026-04-14 01:00:00","50334","0.611","149.4","1.405","149.6","NAN","NAN","NAN","NAN","NAN"],
    [1549345,"2026-04-14 01:10:00","50335","0.7509999999999999","150.0","1.47","149.8","NAN","NAN","NAN","NAN","NAN"],
    [1549346,"2026-04-14 01:20:00","50336","0.598","155.5","1.895","151.6","NAN","NAN","NAN","NAN","NAN"],
    [1549347,"2026-04-14 01:30:00","50337","0.882","158.5","1.568","158.9","NAN","NAN","NAN","NAN","NAN"],
    [1549348,"2026-04-14 01:40:00","50338","0.7","161.5","1.372","159.9","NAN","NAN","NAN","NAN","NAN"],
    [1549349,"2026-04-14 01:50:00","50339","0.565","162.3","1.111","162.3","NAN","NAN","NAN","NAN","NAN"],
    [1549350,"2026-04-14 02:00:00","50340","0.47700000000000004","162.7","1.241","162.9","NAN","NAN","NAN","NAN","NAN"],
    [1549351,"2026-04-14 02:10:00","50341","0.569","163.0","1.111","163","NAN","NAN","NAN","NAN","NAN"],
    [1549352,"2026-04-14 02:20:00","50342","0.515","163.2","0.98","163.1","NAN","NAN","NAN","NAN","NAN"],
    [1549353,"2026-04-14 02:30:00","50343","0.581","163.3","1.241","163.3","NAN","NAN","NAN","NAN","NAN"],
    [1549354,"2026-04-14 02:40:00","50344","0.23800000000000002","163.7","0.784","163.8","NAN","NAN","NAN","NAN","NAN"],
    [1549355,"2026-04-14 02:50:00","50345","0.348","163.8","0.882","163.8","NAN","NAN","NAN","NAN","NAN"],
    [1549356,"2026-04-14 03:00:00","50346","0.508","163.9","1.176","163.9","NAN","NAN","NAN","NAN","NAN"],
    [1549357,"2026-04-14 03:10:00","50347","0.74","164.3","1.666","164.6","NAN","NAN","NAN","NAN","NAN"],
    [1549358,"2026-04-14 03:20:00","50348","0.625","165.1","1.47","165.2","NAN","NAN","NAN","NAN","NAN"],
    [1549359,"2026-04-14 03:30:00","50349","1.25","201.8","3.626","298.4","NAN","NAN","NAN","NAN","NAN"],
    [1549360,"2026-04-14 03:40:00","50350","1.88","304.9","3.136","303.3","NAN","NAN","NAN","NAN","NAN"],
    [1549361,"2026-04-14 03:50:00","50351","2.069","307.1","3.626","304.7","NAN","NAN","NAN","NAN","NAN"],
    [1549362,"2026-04-14 04:00:00","50352","2.1069999999999998","308.7","3.495","302.9","NAN","NAN","NAN","NAN","NAN"],
    [1549363,"2026-04-14 04:10:00","50353","2.043","307.8","3.659","313.2","NAN","NAN","NAN","NAN","NAN"],
    [1549364,"2026-04-14 04:20:00","50354","1.92","302.0","3.365","300.7","NAN","NAN","NAN","NAN","NAN"],
    [1549365,"2026-04-14 04:30:00","50355","2.17","298.9","3.267","297","NAN","NAN","NAN","NAN","NAN"],
    [1549366,"2026-04-14 04:40:00","50356","2.097","298.2","4.018","296","NAN","NAN","NAN","NAN","NAN"],
    [1549367,"2026-04-14 04:50:00","50357","2.46","299.0","4.051","297.3","NAN","NAN","NAN","NAN","NAN"],
    [1549368,"2026-04-14 05:00:00","50358","2.759","299.7","3.953","296.6","NAN","NAN","NAN","NAN","NAN"],
    [1549369,"2026-04-14 05:10:00","50359","2.528","297.6","4.279","291","NAN","NAN","NAN","NAN","NAN"],
    [1549370,"2026-04-14 05:20:00","50360","2.843","300.1","4.9","312.8","NAN","NAN","NAN","NAN","NAN"],
    [1549371,"2026-04-14 05:30:00","50361","2.571","307.9","4.443","314.5","NAN","NAN","NAN","NAN","NAN"],
    [1549372,"2026-04-14 05:40:00","50362","2.56","297.4","4.345","300.9","NAN","NAN","NAN","NAN","NAN"],
    [1549373,"2026-04-14 05:50:00","50363","3.054","304.9","4.737","305.9","NAN","NAN","NAN","NAN","NAN"],
    [1549374,"2026-04-14 06:00:00","50364","2.425","303.9","4.181","305.8","NAN","NAN","NAN","NAN","NAN"],
    [1549375,"2026-04-14 06:10:00","50365","2.033","298.1","3.789","299.5","NAN","NAN","NAN","NAN","NAN"],
    [1549376,"2026-04-14 06:20:00","50366","2.073","296.9","3.267","298.8","NAN","NAN","NAN","NAN","NAN"],
    [1549377,"2026-04-14 06:30:00","50367","2.509","296.3","4.312","288.6","NAN","NAN","NAN","NAN","NAN"],
    [1549378,"2026-04-14 06:40:00","50368","2.9789999999999996","301.6","4.573","298.9","NAN","NAN","NAN","NAN","NAN"],
    [1549379,"2026-04-14 06:50:00","50369","2.803","297.7","4.345","301.7","NAN","NAN","NAN","NAN","NAN"],
    [1549380,"2026-04-14 07:00:00","50370","2.524","297.5","3.92","298.6","NAN","NAN","NAN","NAN","NAN"],
    [1549381,"2026-04-14 07:10:00","50371","2.414","305.7","4.051","293.1","NAN","NAN","NAN","NAN","NAN"],
    [1549382,"2026-04-14 07:20:00","50372","2.6","295.1","3.92","296.6","NAN","NAN","NAN","NAN","NAN"],
    [1549383,"2026-04-14 07:30:00","50373","2.537","296.2","4.018","288.4","NAN","NAN","NAN","NAN","NAN"],
    [1549384,"2026-04-14 07:40:00","50374","2.6910000000000003","295.3","4.345","290.6","NAN","NAN","NAN","NAN","NAN"],
    [1549385,"2026-04-14 07:50:00","50375","3.023","296.9","4.573","294.5","NAN","NAN","NAN","NAN","NAN"],
    [1549386,"2026-04-14 08:00:00","50376","2.924","300.5","4.377","295.2","NAN","NAN","NAN","NAN","NAN"],
    [1549387,"2026-04-14 08:10:00","50377","2.5580000000000003","301.8","3.92","313.6","NAN","NAN","NAN","NAN","NAN"],
    [1549388,"2026-04-14 08:20:00","50378","2.6260000000000003","296.6","3.855","290.9","NAN","NAN","NAN","NAN","NAN"],
    [1549389,"2026-04-14 08:30:00","50379","2.36","286.9","4.083","294","NAN","NAN","NAN","NAN","NAN"],
    [1549390,"2026-04-14 08:40:00","50380","1.827","293.1","3.332","297.2","NAN","NAN","NAN","NAN","NAN"],
    [1549391,"2026-04-14 08:50:00","50381","1.617","293.5","3.169","294","NAN","NAN","NAN","NAN","NAN"],
    [1549392,"2026-04-14 09:00:00","50382","1.177","280.7","3.169","275.2","NAN","NAN","NAN","NAN","NAN"],
    [1549393,"2026-04-14 09:10:00","50383","1.845","273.1","3.855","273.6","NAN","NAN","NAN","NAN","NAN"],
    [1549394,"2026-04-14 09:20:00","50384","1.2990000000000002","263.6","2.973","261.3","NAN","NAN","NAN","NAN","NAN"],
    [1549395,"2026-04-14 09:30:00","50385","1.266","265.4","3.332","275.9","NAN","NAN","NAN","NAN","NAN"],
    [1549396,"2026-04-14 09:40:00","50386","1.002","308.3","3.365","309.6","NAN","NAN","NAN","NAN","NAN"],
    [1549397,"2026-04-14 09:50:00","50387","1.518","279.8","3.724","276.3","NAN","NAN","NAN","NAN","NAN"],
    [1549398,"2026-04-14 10:00:00","50388","0.35200000000000004","266.1","1.339","272.6","NAN","NAN","NAN","NAN","NAN"],
    [1549399,"2026-04-14 10:10:00","50389","1.535","155.7","3.822","167.6","NAN","NAN","NAN","NAN","NAN"],
    [1549400,"2026-04-14 10:20:00","50390","1.237","225.9","4.181","267.6","NAN","NAN","NAN","NAN","NAN"],
    [1549401,"2026-04-14 10:30:00","50391","2.7039999999999997","157.4","4.671","135.8","NAN","NAN","NAN","NAN","NAN"],
    [1549402,"2026-04-14 10:40:00","50392","3.389","171.6","5.259","167.3","NAN","NAN","NAN","NAN","NAN"],
    [1549403,"2026-04-14 10:50:00","50393","3.699","176.5","6.631","164","NAN","NAN","NAN","NAN","NAN"],
    [1549404,"2026-04-14 11:00:00","50394","3.5589999999999997","175.7","5.749","182.9","NAN","NAN","NAN","NAN","NAN"],
    [1549405,"2026-04-14 11:10:00","50395","3.6630000000000003","172.8","6.468","171.6","NAN","NAN","NAN","NAN","NAN"],
    [1549406,"2026-04-14 11:20:00","50396","4.021","170.1","5.913","175.3","NAN","NAN","NAN","NAN","NAN"],
    [1549407,"2026-04-14 11:30:00","50397","3.365","188.1","6.076","177.1","NAN","NAN","NAN","NAN","NAN"],
    [1549408,"2026-04-14 11:40:00","50398","2.946","187.7","6.37","182.2","NAN","NAN","NAN","NAN","NAN"],
    [1549409,"2026-04-14 11:50:00","50399","4.045","177.6","6.239","186.1","NAN","NAN","NAN","NAN","NAN"],
    [1549410,"2026-04-14 12:00:00","50400","3.958","201.3","6.762","208.9","NAN","NAN","NAN","NAN","NAN"],
    [1549411,"2026-04-14 12:10:00","50401","4.07","197.5","6.762","210","NAN","NAN","NAN","NAN","NAN"],
    [1549412,"2026-04-14 12:20:00","50402","3.818","182.3","6.697","169.1","NAN","NAN","NAN","NAN","NAN"],
    [1549413,"2026-04-14 12:30:00","50403","4.27","188.2","7.677","169.8","NAN","NAN","NAN","NAN","NAN"],
    [1549414,"2026-04-14 12:40:00","50404","4.123","205.4","6.958","221.1","NAN","NAN","NAN","NAN","NAN"],
    [1549415,"2026-04-14 12:50:00","50405","4.369","194.4","7.775","189","NAN","NAN","NAN","NAN","NAN"],
    [1549416,"2026-04-14 13:00:00","50406","4.172","198.0","7.546","209","NAN","NAN","NAN","NAN","NAN"],
    [1549417,"2026-04-14 13:10:00","50407","4.829","207.8","7.905","206.9","NAN","NAN","NAN","NAN","NAN"],
    [1549418,"2026-04-14 13:20:00","50408","4.177","202.6","8.07","218.7","NAN","NAN","NAN","NAN","NAN"],
    [1549419,"2026-04-14 13:30:00","50409","4.115","198.7","7.35","216.4","NAN","NAN","NAN","NAN","NAN"],
    [1549420,"2026-04-14 13:40:00","50410","4.225","199.6","7.219","220.8","NAN","NAN","NAN","NAN","NAN"],
    [1549421,"2026-04-14 13:50:00","50411","4.102","203.6","7.383","205.4","NAN","NAN","NAN","NAN","NAN"],
    [1549422,"2026-04-14 14:00:00","50412","4.288","200.8","8.56","215.7","NAN","NAN","NAN","NAN","NAN"],
    [1549423,"2026-04-14 14:10:00","50413","4.4510000000000005","210.2","8.04","216.5","NAN","NAN","NAN","NAN","NAN"],
    [1549424,"2026-04-14 14:20:00","50414","4.3","194.4","7.383","217.1","NAN","NAN","NAN","NAN","NAN"],
    [1549425,"2026-04-14 14:30:00","50415","3.5189999999999997","201.1","7.121","208.9","NAN","NAN","NAN","NAN","NAN"],
    [1549426,"2026-04-14 14:40:00","50416","4.89","211.6","7.709","211.5","NAN","NAN","NAN","NAN","NAN"],
    [1549427,"2026-04-14 14:50:00","50417","4.378","192.6","7.415","217.1","NAN","NAN","NAN","NAN","NAN"],
    [1549428,"2026-04-14 15:00:00","50418","4.3919999999999995","205.7","8.1","209.2","NAN","NAN","NAN","NAN","NAN"],
    [1549429,"2026-04-14 15:10:00","50419","4.45","206.9","6.991","224.7","NAN","NAN","NAN","NAN","NAN"],
    [1549430,"2026-04-14 15:20:00","50420","4.131","203.8","7.154","208","NAN","NAN","NAN","NAN","NAN"],
    [1549431,"2026-04-14 15:30:00","50421","3.094","197.7","6.272","224.9","NAN","NAN","NAN","NAN","NAN"],
    [1549432,"2026-04-14 15:40:00","50422","4.115","211.2","6.925","208.4","NAN","NAN","NAN","NAN","NAN"],
    [1549433,"2026-04-14 15:50:00","50423","3.359","190.7","6.435","183.7","NAN","NAN","NAN","NAN","NAN"],
    [1549434,"2026-04-14 16:00:00","50424","3.8110000000000004","206.5","5.978","209.4","NAN","NAN","NAN","NAN","NAN"],
    [1549435,"2026-04-14 16:10:00","50425","3.24","188.0","5.847","170.1","NAN","NAN","NAN","NAN","NAN"],
    [1549436,"2026-04-14 16:20:00","50426","2.92","194.9","4.933","212.8","NAN","NAN","NAN","NAN","NAN"],
    [1549437,"2026-04-14 16:30:00","50427","3.298","195.4","5.488","170.1","NAN","NAN","NAN","NAN","NAN"],
    [1549438,"2026-04-14 16:40:00","50428","3.0589999999999997","204.0","6.174","235","NAN","NAN","NAN","NAN","NAN"],
    [1549439,"2026-04-14 16:50:00","50429","2.271","199.5","4.9","208.3","NAN","NAN","NAN","NAN","NAN"],
    [1549440,"2026-04-14 17:00:00","50430","3.68","209.2","5.194","206.3","NAN","NAN","NAN","NAN","NAN"],
    [1549441,"2026-04-14 17:10:00","50431","3.6260000000000003","213.2","5.619","223.7","NAN","NAN","NAN","NAN","NAN"],
    [1549442,"2026-04-14 17:20:00","50432","2.6889999999999996","209.5","4.573","215.5","NAN","NAN","NAN","NAN","NAN"],
    [1549443,"2026-04-14 17:30:00","50433","3.072","211.0","4.998","211.6","NAN","NAN","NAN","NAN","NAN"],
    [1549444,"2026-04-14 17:40:00","50434","2.895","205.6","4.345","226.8","NAN","NAN","NAN","NAN","NAN"],
    [1549445,"2026-04-14 17:50:00","50435","2.322","205.9","4.181","205.6","NAN","NAN","NAN","NAN","NAN"],
    [1549446,"2026-04-14 18:00:00","50436","2.201","222.8","3.626","233.3","NAN","NAN","NAN","NAN","NAN"],
    [1549447,"2026-04-14 18:10:00","50437","2.1719999999999997","214.4","3.855","216.8","NAN","NAN","NAN","NAN","NAN"],
    [1549448,"2026-04-14 18:20:00","50438","2.615","203.5","3.593","209.6","NAN","NAN","NAN","NAN","NAN"],
    [1549449,"2026-04-14 18:30:00","50439","1.744","203.6","2.842","203.3","NAN","NAN","NAN","NAN","NAN"],
    [1549450,"2026-04-14 18:40:00","50440","1.87","207.3","2.875","209.1","NAN","NAN","NAN","NAN","NAN"],
    [1549451,"2026-04-14 18:50:00","50441","1.5590000000000002","212.6","2.777","212.1","NAN","NAN","NAN","NAN","NAN"],
    [1549452,"2026-04-14 19:00:00","50442","1.5959999999999999","212.5","2.613","210.9","NAN","NAN","NAN","NAN","NAN"],
    [1549453,"2026-04-14 19:10:00","50443","1.091","215.9","2.091","218.9","NAN","NAN","NAN","NAN","NAN"],
    [1549454,"2026-04-14 19:20:00","50444","1.256","226.0","2.45","226.1","NAN","NAN","NAN","NAN","NAN"],
    [1549455,"2026-04-14 19:30:00","50445","2.072","241.6","3.397","240.9","NAN","NAN","NAN","NAN","NAN"],
    [1549456,"2026-04-14 19:40:00","50446","1.851","256.9","3.201","267.1","NAN","NAN","NAN","NAN","NAN"],
    [1549457,"2026-04-14 19:50:00","50447","1.794","266.9","3.201","268.7","NAN","NAN","NAN","NAN","NAN"],
    [1549458,"2026-04-14 20:00:00","50448","1.594","265.2","3.071","268.4","NAN","NAN","NAN","NAN","NAN"],
    [1549459,"2026-04-14 20:10:00","50449","1.669","267.3","2.679","269.2","NAN","NAN","NAN","NAN","NAN"],
    [1549460,"2026-04-14 20:20:00","50450","1.508","269.0","2.679","263.3","NAN","NAN","NAN","NAN","NAN"],
    [1549461,"2026-04-14 20:30:00","50451","1.7830000000000001","273.8","3.397","274","NAN","NAN","NAN","NAN","NAN"],
    [1549462,"2026-04-14 20:40:00","50452","1.198","273.9","2.581","273.8","NAN","NAN","NAN","NAN","NAN"],
    [1549463,"2026-04-14 20:50:00","50453","1.031","271.6","1.895","270.8","NAN","NAN","NAN","NAN","NAN"],
    [1549464,"2026-04-14 21:00:00","50454","0.985","267.3","1.829","266.4","NAN","NAN","NAN","NAN","NAN"],
    [1549465,"2026-04-14 21:10:00","50455","1.087","264.5","2.189","265.6","NAN","NAN","NAN","NAN","NAN"],
    [1549466,"2026-04-14 21:20:00","50456","1.6159999999999999","261.4","2.711","259","NAN","NAN","NAN","NAN","NAN"],
    [1549467,"2026-04-14 21:30:00","50457","1.732","258.8","2.679","258.5","NAN","NAN","NAN","NAN","NAN"],
    [1549468,"2026-04-14 21:40:00","50458","2.049","257.1","3.038","257.1","NAN","NAN","NAN","NAN","NAN"],
    [1549469,"2026-04-14 21:50:00","50459","1.588","257.8","2.777","255.8","NAN","NAN","NAN","NAN","NAN"],
    [1549470,"2026-04-14 22:00:00","50460","1.406","262.6","2.025","262.7","NAN","NAN","NAN","NAN","NAN"],
    [1549471,"2026-04-14 22:10:00","50461","1.318","262.7","1.862","264.1","NAN","NAN","NAN","NAN","NAN"],
    [1549472,"2026-04-14 22:20:00","50462","1.062","268.8","1.797","265.2","NAN","NAN","NAN","NAN","NAN"],
    [1549473,"2026-04-14 22:30:00","50463","1.179","271.5","2.156","273.5","NAN","NAN","NAN","NAN","NAN"],
    [1549474,"2026-04-14 22:40:00","50464","1.52","274.1","2.287","274","NAN","NAN","NAN","NAN","NAN"],
    [1549475,"2026-04-14 22:50:00","50465","1.464","275.2","2.091","275.9","NAN","NAN","NAN","NAN","NAN"],
    [1549476,"2026-04-14 23:00:00","50466","1.2570000000000001","276.1","2.091","276","NAN","NAN","NAN","NAN","NAN"],
    [1549477,"2026-04-14 23:10:00","50467","1.433","276.2","2.385","276.2","NAN","NAN","NAN","NAN","NAN"],
    [1549478,"2026-04-14 23:20:00","50468","1.032","276.3","1.829","275.8","NAN","NAN","NAN","NAN","NAN"],
    [1549479,"2026-04-14 23:30:00","50469","1.183","276.4","1.764","276.3","NAN","NAN","NAN","NAN","NAN"],
    [1549480,"2026-04-14 23:40:00","50470","1.162","276.5","1.797","276.8","NAN","NAN","NAN","NAN","NAN"],
    [1549481,"2026-04-14 23:50:00","50471","0.955","276.5","1.666","275.6","NAN","NAN","NAN","NAN","NAN"],
    [1549482,"2026-04-15 00:00:00","50472","0.905","276.9","1.666","276.9","NAN","NAN","NAN","NAN","NAN"],
    [1549483,"2026-04-15 00:10:00","50473","0.92","276.8","1.829","276.9","NAN","NAN","NAN","NAN","NAN"],
    [1549484,"2026-04-15 00:20:00","50474","0.5760000000000001","276.9","1.274","276.9","NAN","NAN","NAN","NAN","NAN"],
    [1549485,"2026-04-15 00:30:00","50475","0.523","276.7","1.209","276.9","NAN","NAN","NAN","NAN","NAN"],
    [1549486,"2026-04-15 00:40:00","50476","0.563","273.7","1.176","273.7","NAN","NAN","NAN","NAN","NAN"],
    [1549487,"2026-04-15 00:50:00","50477","0.97","271.0","1.601","270.8","NAN","NAN","NAN","NAN","NAN"],
    [1549488,"2026-04-15 01:00:00","50478","0.551","270.8","1.503","270","NAN","NAN","NAN","NAN","NAN"],
    [1549489,"2026-04-15 01:10:00","50479","0.318","269.9","1.209","269.7","NAN","NAN","NAN","NAN","NAN"],
    [1549490,"2026-04-15 01:20:00","50480","0.248","269.7","0.817","269.7","NAN","NAN","NAN","NAN","NAN"],
    [1549491,"2026-04-15 01:30:00","50481","0.436","269.7","0.849","269.7","NAN","NAN","NAN","NAN","NAN"],
    [1549492,"2026-04-15 01:40:00","50482","0.303","269.7","1.045","269.7","NAN","NAN","NAN","NAN","NAN"],
    [1549493,"2026-04-15 01:50:00","50483","0.43700000000000006","269.6","1.013","269.6","NAN","NAN","NAN","NAN","NAN"],
    [1549494,"2026-04-15 02:00:00","50484","0.47600000000000003","269.6","1.111","269.5","NAN","NAN","NAN","NAN","NAN"],
    [1549495,"2026-04-15 02:10:00","50485","0.628","269.8","1.209","269.9","NAN","NAN","NAN","NAN","NAN"],
    [1549496,"2026-04-15 02:20:00","50486","0.845","271.5","1.47","276","NAN","NAN","NAN","NAN","NAN"],
    [1549497,"2026-04-15 02:30:00","50487","1.374","273.5","2.254","270.4","NAN","NAN","NAN","NAN","NAN"],
    [1549498,"2026-04-15 02:40:00","50488","1.194","275.8","2.058","277","NAN","NAN","NAN","NAN","NAN"],
    [1549499,"2026-04-15 02:50:00","50489","1.11","276.5","1.764","277","NAN","NAN","NAN","NAN","NAN"],
    [1549500,"2026-04-15 03:00:00","50490","1.295","275.3","2.058","276.9","NAN","NAN","NAN","NAN","NAN"],
    [1549501,"2026-04-15 03:10:00","50491","1.0490000000000002","273.4","2.287","276.1","NAN","NAN","NAN","NAN","NAN"],
    [1549502,"2026-04-15 03:20:00","50492","0.9690000000000001","271.9","1.993","271.8","NAN","NAN","NAN","NAN","NAN"],
    [1549503,"2026-04-15 03:30:00","50493","1.12","273.1","2.581","277.3","NAN","NAN","NAN","NAN","NAN"],
    [1549504,"2026-04-15 03:40:00","50494","0.4","273.2","1.405","277.8","NAN","NAN","NAN","NAN","NAN"],
    [1549505,"2026-04-15 03:50:00","50495","0.628","274.0","1.895","271.1","NAN","NAN","NAN","NAN","NAN"],
    [1549506,"2026-04-15 04:00:00","50496","1.011","273.0","2.025","274.5","NAN","NAN","NAN","NAN","NAN"],
    [1549507,"2026-04-15 04:10:00","50497","1.7730000000000001","272.9","3.005","278.1","NAN","NAN","NAN","NAN","NAN"],
    [1549508,"2026-04-15 04:20:00","50498","1.177","276.0","2.744","277.8","NAN","NAN","NAN","NAN","NAN"],
    [1549509,"2026-04-15 04:30:00","50499","0.415","273.2","1.307","270.8","NAN","NAN","NAN","NAN","NAN"],
    [1549510,"2026-04-15 04:40:00","50500","1.9","279.6","3.005","285.2","NAN","NAN","NAN","NAN","NAN"],
    [1549511,"2026-04-15 04:50:00","50501","1.5830000000000002","280.4","2.744","278.7","NAN","NAN","NAN","NAN","NAN"],
    [1549512,"2026-04-15 05:00:00","50502","0.17","275.4","1.176","279.5","NAN","NAN","NAN","NAN","NAN"],
    [1549513,"2026-04-15 05:10:00","50503","0.722","275.9","1.895","276.6","NAN","NAN","NAN","NAN","NAN"],
    [1549514,"2026-04-15 05:20:00","50504","1.262","277.2","1.895","275.8","NAN","NAN","NAN","NAN","NAN"],
    [1549515,"2026-04-15 05:30:00","50505","1.455","276.6","2.417","279.6","NAN","NAN","NAN","NAN","NAN"],
    [1549516,"2026-04-15 05:40:00","50506","1.47","283.0","2.875","283.9","NAN","NAN","NAN","NAN","NAN"],
    [1549517,"2026-04-15 05:50:00","50507","0.9359999999999999","279.7","2.352","274","NAN","NAN","NAN","NAN","NAN"],
    [1549518,"2026-04-15 06:00:00","50508","1.3559999999999999","279.9","2.613","277.7","NAN","NAN","NAN","NAN","NAN"],
    [1549519,"2026-04-15 06:10:00","50509","1.47","281.9","2.875","282.5","NAN","NAN","NAN","NAN","NAN"],
    [1549520,"2026-04-15 06:20:00","50510","1.829","292.0","3.267","283.9","NAN","NAN","NAN","NAN","NAN"],
    [1549521,"2026-04-15 06:30:00","50511","2.0540000000000003","296.2","3.234","301.6","NAN","NAN","NAN","NAN","NAN"],
    [1549522,"2026-04-15 06:40:00","50512","1.4909999999999999","298.7","2.646","292.9","NAN","NAN","NAN","NAN","NAN"],
    [1549523,"2026-04-15 06:50:00","50513","1.857","291.6","3.561","291","NAN","NAN","NAN","NAN","NAN"],
    [1549524,"2026-04-15 07:00:00","50514","1.633","300.0","2.744","297.2","NAN","NAN","NAN","NAN","NAN"],
    [1549525,"2026-04-15 07:10:00","50515","1.673","289.9","3.005","287.8","NAN","NAN","NAN","NAN","NAN"],
    [1549526,"2026-04-15 07:20:00","50516","2.031","290.3","3.822","297.7","NAN","NAN","NAN","NAN","NAN"],
    [1549527,"2026-04-15 07:30:00","50517","2.1","289.8","4.377","300.5","NAN","NAN","NAN","NAN","NAN"],
    [1549528,"2026-04-15 07:40:00","50518","1.2429999999999999","294.8","2.189","299.5","NAN","NAN","NAN","NAN","NAN"],
    [1549529,"2026-04-15 07:50:00","50519","0.902","297.0","2.45","301.7","NAN","NAN","NAN","NAN","NAN"],
    [1549530,"2026-04-15 08:00:00","50520","1.037","298.2","2.679","302","NAN","NAN","NAN","NAN","NAN"],
    [1549531,"2026-04-15 08:10:00","50521","0.126","302.2","0.849","302.3","NAN","NAN","NAN","NAN","NAN"],
    [1549532,"2026-04-15 08:20:00","50522","0.973","309.8","2.45","313.7","NAN","NAN","NAN","NAN","NAN"],
    [1549533,"2026-04-15 08:30:00","50523","0.5670000000000001","358.8","1.601","332.1","NAN","NAN","NAN","NAN","NAN"],
    [1549534,"2026-04-15 08:40:00","50524","0.386","27.06","1.372","23.37","NAN","NAN","NAN","NAN","NAN"],
    [1549535,"2026-04-15 08:50:00","50525","1.456","60.92","3.005","62.84","NAN","NAN","NAN","NAN","NAN"],
    [1549536,"2026-04-15 09:00:00","50526","1.6480000000000001","76.16","2.842","79.96","NAN","NAN","NAN","NAN","NAN"],
    [1549537,"2026-04-15 09:10:00","50527","1.68","85.4","2.809","85.7","NAN","NAN","NAN","NAN","NAN"],
    [1549538,"2026-04-15 09:20:00","50528","2.246","91.1","3.299","85.8","NAN","NAN","NAN","NAN","NAN"],
    [1549539,"2026-04-15 09:30:00","50529","2.3609999999999998","93.9","3.593","97.1","NAN","NAN","NAN","NAN","NAN"],
    [1549540,"2026-04-15 09:40:00","50530","2.437","92.8","3.626","96.8","NAN","NAN","NAN","NAN","NAN"],
    [1549541,"2026-04-15 09:50:00","50531","2.697","95.6","4.116","85.8","NAN","NAN","NAN","NAN","NAN"],
    [1549542,"2026-04-15 10:00:00","50532","3.103","94.3","4.639","88.9","NAN","NAN","NAN","NAN","NAN"],
    [1549543,"2026-04-15 10:10:00","50533","2.909","103.1","4.312","103.6","NAN","NAN","NAN","NAN","NAN"],
    [1549544,"2026-04-15 10:20:00","50534","2.45","107.2","3.985","109.5","NAN","NAN","NAN","NAN","NAN"],
    [1549545,"2026-04-15 10:30:00","50535","2.8819999999999997","117.6","4.965","134","NAN","NAN","NAN","NAN","NAN"],
    [1549546,"2026-04-15 10:40:00","50536","3.2769999999999997","119.4","4.443","125.8","NAN","NAN","NAN","NAN","NAN"],
    [1549547,"2026-04-15 10:50:00","50537","3.5389999999999997","123.2","5.096","120","NAN","NAN","NAN","NAN","NAN"],
    [1549548,"2026-04-15 11:00:00","50538","2.843","120.1","4.541","128.6","NAN","NAN","NAN","NAN","NAN"],
    [1549549,"2026-04-15 11:10:00","50539","3.264","135.4","4.835","147.6","NAN","NAN","NAN","NAN","NAN"],
    [1549550,"2026-04-15 11:20:00","50540","3.028","130.1","4.769","141.9","NAN","NAN","NAN","NAN","NAN"],
    [1549551,"2026-04-15 11:30:00","50541","3.008","137.9","5.586","143.8","NAN","NAN","NAN","NAN","NAN"],
    [1549552,"2026-04-15 11:40:00","50542","2.725","139.8","4.083","137.6","NAN","NAN","NAN","NAN","NAN"],
    [1549553,"2026-04-15 11:50:00","50543","1.3730000000000002","146.5","3.169","165.5","NAN","NAN","NAN","NAN","NAN"],
    [1549554,"2026-04-15 12:00:00","50544","2.06","141.2","4.541","136.3","NAN","NAN","NAN","NAN","NAN"],
    [1549555,"2026-04-15 12:10:00","50545","2.057","145.6","3.561","136.8","NAN","NAN","NAN","NAN","NAN"],
    [1549556,"2026-04-15 12:20:00","50546","2.249","170.7","4.051","167.6","NAN","NAN","NAN","NAN","NAN"],
    [1549557,"2026-04-15 12:30:00","50547","2.512","182.5","5.031","184.2","NAN","NAN","NAN","NAN","NAN"],
    [1549558,"2026-04-15 12:40:00","50548","3.301","180.2","4.704","213.4","NAN","NAN","NAN","NAN","NAN"],
    [1549559,"2026-04-15 12:50:00","50549","2.8510000000000004","190.2","4.671","207.2","NAN","NAN","NAN","NAN","NAN"],
    [1549560,"2026-04-15 13:00:00","50550","3.1260000000000003","205.9","5.161","204.9","NAN","NAN","NAN","NAN","NAN"],
    [1549561,"2026-04-15 13:10:00","50551","2.852","193.5","5.031","173.6","NAN","NAN","NAN","NAN","NAN"],
    [1549562,"2026-04-15 13:20:00","50552","3.37","180.4","5.651","168.5","NAN","NAN","NAN","NAN","NAN"],
    [1549563,"2026-04-15 13:30:00","50553","2.805","200.8","5.913","230.1","NAN","NAN","NAN","NAN","NAN"],
    [1549564,"2026-04-15 13:40:00","50554","3.116","188.4","5.521","197.6","NAN","NAN","NAN","NAN","NAN"],
    [1549565,"2026-04-15 13:50:00","50555","2.824","178.4","4.933","154.6","NAN","NAN","NAN","NAN","NAN"],
    [1549566,"2026-04-15 14:00:00","50556","3.428","192.6","5.88","159","NAN","NAN","NAN","NAN","NAN"],
    [1549567,"2026-04-15 14:10:00","50557","3.155","185.6","5.39","166","NAN","NAN","NAN","NAN","NAN"],
    [1549568,"2026-04-15 14:20:00","50558","3.556","184.2","5.325","174.9","NAN","NAN","NAN","NAN","NAN"],
    [1549569,"2026-04-15 14:30:00","50559","2.908","187.2","4.671","173.3","NAN","NAN","NAN","NAN","NAN"],
    [1549570,"2026-04-15 14:40:00","50560","2.8360000000000003","187.3","4.704","187.6","NAN","NAN","NAN","NAN","NAN"],
    [1549571,"2026-04-15 14:50:00","50561","3.2539999999999996","184.7","5.357","177.8","NAN","NAN","NAN","NAN","NAN"],
    [1549572,"2026-04-15 15:00:00","50562","3.01","185.1","5.423","182.9","NAN","NAN","NAN","NAN","NAN"],
    [1549573,"2026-04-15 15:10:00","50563","2.9539999999999997","200.3","4.998","164.7","NAN","NAN","NAN","NAN","NAN"],
    [1549574,"2026-04-15 15:20:00","50564","3.074","196.2","4.998","214.5","NAN","NAN","NAN","NAN","NAN"],
    [1549575,"2026-04-15 15:30:00","50565","2.128","200.8","4.377","218.7","NAN","NAN","NAN","NAN","NAN"],
    [1549576,"2026-04-15 15:40:00","50566","2.822","195.4","4.508","188.2","NAN","NAN","NAN","NAN","NAN"],
    [1549577,"2026-04-15 15:50:00","50567","2.8280000000000003","175.3","4.181","178.6","NAN","NAN","NAN","NAN","NAN"],
    [1549578,"2026-04-15 16:00:00","50568","2.1630000000000003","198.2","4.737","172.8","NAN","NAN","NAN","NAN","NAN"],
    [1549579,"2026-04-15 16:10:00","50569","2.333","189.0","4.279","213.4","NAN","NAN","NAN","NAN","NAN"],
    [1549580,"2026-04-15 16:20:00","50570","2.793","173.8","4.737","181","NAN","NAN","NAN","NAN","NAN"],
    [1549581,"2026-04-15 16:30:00","50571","2.699","199.1","5.325","202","NAN","NAN","NAN","NAN","NAN"],
    [1549582,"2026-04-15 16:40:00","50572","3.3510000000000004","214.4","5.782","207.3","NAN","NAN","NAN","NAN","NAN"],
    [1549583,"2026-04-15 16:50:00","50573","3.373","207.2","5.259","212.1","NAN","NAN","NAN","NAN","NAN"],
    [1549584,"2026-04-15 17:00:00","50574","2.715","207.5","4.737","213.3","NAN","NAN","NAN","NAN","NAN"],
    [1549585,"2026-04-15 17:10:00","50575","3.3689999999999998","212.9","5.259","208.2","NAN","NAN","NAN","NAN","NAN"],
    [1549586,"2026-04-15 17:20:00","50576","3.753","209.0","6.141","210.8","NAN","NAN","NAN","NAN","NAN"],
    [1549587,"2026-04-15 17:30:00","50577","3.622","206.9","5.717","213.7","NAN","NAN","NAN","NAN","NAN"],
    [1549588,"2026-04-15 17:40:00","50578","4.059","207.7","6.174","208","NAN","NAN","NAN","NAN","NAN"],
    [1549589,"2026-04-15 17:50:00","50579","3.245","214.9","5.227","226.8","NAN","NAN","NAN","NAN","NAN"],
    [1549590,"2026-04-15 18:00:00","50580","3.236","209.3","5.619","211.3","NAN","NAN","NAN","NAN","NAN"],
    [1549591,"2026-04-15 18:10:00","50581","2.971","214.1","4.9","208.3","NAN","NAN","NAN","NAN","NAN"],
    [1549592,"2026-04-15 18:20:00","50582","3.2089999999999996","206.1","5.357","217","NAN","NAN","NAN","NAN","NAN"],
    [1549593,"2026-04-15 18:30:00","50583","3.6260000000000003","209.3","5.782","212.4","NAN","NAN","NAN","NAN","NAN"],
    [1549594,"2026-04-15 18:40:00","50584","3.2439999999999998","206.9","5.488","216.9","NAN","NAN","NAN","NAN","NAN"],
    [1549595,"2026-04-15 18:50:00","50585","3.318","205.0","5.194","211.5","NAN","NAN","NAN","NAN","NAN"],
    [1549596,"2026-04-15 19:00:00","50586","3.3339999999999996","205.1","4.802","213.7","NAN","NAN","NAN","NAN","NAN"],
    [1549597,"2026-04-15 19:10:00","50587","3.1439999999999997","206.1","4.835","210.1","NAN","NAN","NAN","NAN","NAN"],
    [1549598,"2026-04-15 19:20:00","50588","2.971","207.3","4.704","208.1","NAN","NAN","NAN","NAN","NAN"],
    [1549599,"2026-04-15 19:30:00","50589","2.861","208.7","4.377","207.8","NAN","NAN","NAN","NAN","NAN"],
    [1549600,"2026-04-15 19:40:00","50590","2.648","205.2","3.887","209.3","NAN","NAN","NAN","NAN","NAN"],
    [1549601,"2026-04-15 19:50:00","50591","2.88","208.8","4.541","209.2","NAN","NAN","NAN","NAN","NAN"],
    [1549602,"2026-04-15 20:00:00","50592","2.497","211.5","4.018","205.1","NAN","NAN","NAN","NAN","NAN"],
    [1549603,"2026-04-15 20:10:00","50593","2.1630000000000003","206.5","3.365","207","NAN","NAN","NAN","NAN","NAN"],
    [1549604,"2026-04-15 20:20:00","50594","2.066","209.9","3.397","219.8","NAN","NAN","NAN","NAN","NAN"],
    [1549605,"2026-04-15 20:30:00","50595","1.794","216.6","3.038","221.1","NAN","NAN","NAN","NAN","NAN"],
    [1549606,"2026-04-15 20:40:00","50596","1.273","226.1","2.45","232","NAN","NAN","NAN","NAN","NAN"],
    [1549607,"2026-04-15 20:50:00","50597","1.761","225.3","3.659","232.5","NAN","NAN","NAN","NAN","NAN"],
    [1549608,"2026-04-15 21:00:00","50598","1.693","231.0","3.463","234.9","NAN","NAN","NAN","NAN","NAN"],
    [1549609,"2026-04-15 21:10:00","50599","1.7630000000000001","227.9","3.332","238.3","NAN","NAN","NAN","NAN","NAN"],
    [1549610,"2026-04-15 21:20:00","50600","2.106","241.6","3.887","245.2","NAN","NAN","NAN","NAN","NAN"],
    [1549611,"2026-04-15 21:30:00","50601","2.475","247.0","3.789","246.8","NAN","NAN","NAN","NAN","NAN"],
    [1549612,"2026-04-15 21:40:00","50602","2.25","257.5","3.332","261.9","NAN","NAN","NAN","NAN","NAN"],
    [1549613,"2026-04-15 21:50:00","50603","1.905","266.4","3.038","270.5","NAN","NAN","NAN","NAN","NAN"],
    [1549614,"2026-04-15 22:00:00","50604","1.409","268.6","2.809","268.3","NAN","NAN","NAN","NAN","NAN"],
    [1549615,"2026-04-15 22:10:00","50605","1.558","268.8","2.613","267.4","NAN","NAN","NAN","NAN","NAN"],
    [1549616,"2026-04-15 22:20:00","50606","1.263","269.8","3.005","269","NAN","NAN","NAN","NAN","NAN"],
    [1549617,"2026-04-15 22:30:00","50607","1.52","268.1","2.221","270.5","NAN","NAN","NAN","NAN","NAN"],
    [1549618,"2026-04-15 22:40:00","50608","1.8319999999999999","264.5","2.679","266.8","NAN","NAN","NAN","NAN","NAN"],
    [1549619,"2026-04-15 22:50:00","50609","1.72","269.3","2.613","270.4","NAN","NAN","NAN","NAN","NAN"],
    [1549620,"2026-04-15 23:00:00","50610","1.465","270.5","2.483","271.5","NAN","NAN","NAN","NAN","NAN"],
    [1549621,"2026-04-15 23:10:00","50611","1.2409999999999999","266.7","2.352","265.3","NAN","NAN","NAN","NAN","NAN"],
    [1549622,"2026-04-15 23:20:00","50612","1.1","261.3","2.058","262.2","NAN","NAN","NAN","NAN","NAN"],
    [1549623,"2026-04-15 23:30:00","50613","1.01","260.4","2.385","259.9","NAN","NAN","NAN","NAN","NAN"],
    [1549624,"2026-04-15 23:40:00","50614","1.869","257.9","2.515","254.9","NAN","NAN","NAN","NAN","NAN"],
    [1549625,"2026-04-15 23:50:00","50615","1.536","267.1","2.679","270.8","NAN","NAN","NAN","NAN","NAN"],
    [1549626,"2026-04-16 00:00:00","50616","0.861","269.9","2.221","270.7","NAN","NAN","NAN","NAN","NAN"],
    [1549627,"2026-04-16 00:10:00","50617","0.746","271.3","1.535","270.5","NAN","NAN","NAN","NAN","NAN"],
    [1549628,"2026-04-16 00:20:00","50618","0.588","271.6","1.731","271.7","NAN","NAN","NAN","NAN","NAN"],
    [1549629,"2026-04-16 00:30:00","50619","0.897","270.9","1.601","271.6","NAN","NAN","NAN","NAN","NAN"],
    [1549630,"2026-04-16 00:40:00","50620","0.506","271.8","1.274","271.7","NAN","NAN","NAN","NAN","NAN"],
    [1549631,"2026-04-16 00:50:00","50621","0.336","271.8","1.307","271.8","NAN","NAN","NAN","NAN","NAN"],
    [1549632,"2026-04-16 01:00:00","50622","0.703","269.7","1.307","271.8","NAN","NAN","NAN","NAN","NAN"],
    [1549633,"2026-04-16 01:10:00","50623","0.8740000000000001","270.5","1.96","271.8","NAN","NAN","NAN","NAN","NAN"],
    [1549634,"2026-04-16 01:20:00","50624","1.189","269.5","1.96","266.6","NAN","NAN","NAN","NAN","NAN"],
    [1549635,"2026-04-16 01:30:00","50625","0.504","266.1","1.176","267.8","NAN","NAN","NAN","NAN","NAN"],
    [1549636,"2026-04-16 01:40:00","50626","0.409","271.8","0.98","271.8","NAN","NAN","NAN","NAN","NAN"],
    [1549637,"2026-04-16 01:50:00","50627","0.7070000000000001","271.8","1.568","271.9","NAN","NAN","NAN","NAN","NAN"],
    [1549638,"2026-04-16 02:00:00","50628","0.634","270.8","1.372","271.9","NAN","NAN","NAN","NAN","NAN"],
    [1549639,"2026-04-16 02:10:00","50629","0.174","266.5","0.653","266.6","NAN","NAN","NAN","NAN","NAN"],
    [1549640,"2026-04-16 02:20:00","50630","0.866","269.8","1.274","270.5","NAN","NAN","NAN","NAN","NAN"],
    [1549641,"2026-04-16 02:30:00","50631","0.56","271.4","1.372","267.1","NAN","NAN","NAN","NAN","NAN"],
    [1549642,"2026-04-16 02:40:00","50632","0.777","271.8","1.47","271.9","NAN","NAN","NAN","NAN","NAN"],
    [1549643,"2026-04-16 02:50:00","50633","0.772","272.0","1.568","272","NAN","NAN","NAN","NAN","NAN"],
    [1549644,"2026-04-16 03:00:00","50634","1.545","271.6","2.287","272.2","NAN","NAN","NAN","NAN","NAN"],
    [1549645,"2026-04-16 03:10:00","50635","1.21","272.9","2.221","272.3","NAN","NAN","NAN","NAN","NAN"],
    [1549646,"2026-04-16 03:20:00","50636","1.435","273.1","2.189","273.2","NAN","NAN","NAN","NAN","NAN"],
    [1549647,"2026-04-16 03:30:00","50637","1.354","271.2","2.352","269.4","NAN","NAN","NAN","NAN","NAN"],
    [1549648,"2026-04-16 03:40:00","50638","1.8880000000000001","271.7","3.136","272.1","NAN","NAN","NAN","NAN","NAN"],
    [1549649,"2026-04-16 03:50:00","50639","1.7730000000000001","274.2","2.711","275.9","NAN","NAN","NAN","NAN","NAN"],
    [1549650,"2026-04-16 04:00:00","50640","1.629","273.2","2.94","269.4","NAN","NAN","NAN","NAN","NAN"],
    [1549651,"2026-04-16 04:10:00","50641","2.31","282.5","4.018","285.5","NAN","NAN","NAN","NAN","NAN"],
    [1549652,"2026-04-16 04:20:00","50642","2.678","286.8","4.051","290.2","NAN","NAN","NAN","NAN","NAN"],
    [1549653,"2026-04-16 04:30:00","50643","1.5519999999999998","283.3","3.332","284.1","NAN","NAN","NAN","NAN","NAN"],
    [1549654,"2026-04-16 04:40:00","50644","1.584","284.9","2.842","288.4","NAN","NAN","NAN","NAN","NAN"],
    [1549655,"2026-04-16 04:50:00","50645","1.383","284.2","2.189","278.6","NAN","NAN","NAN","NAN","NAN"],
    [1549656,"2026-04-16 05:00:00","50646","1.641","284.0","2.94","285","NAN","NAN","NAN","NAN","NAN"],
    [1549657,"2026-04-16 05:10:00","50647","1.896","283.8","3.136","289.3","NAN","NAN","NAN","NAN","NAN"],
    [1549658,"2026-04-16 05:20:00","50648","1.694","279.5","3.103","279.8","NAN","NAN","NAN","NAN","NAN"],
    [1549659,"2026-04-16 05:30:00","50649","1.828","285.0","3.234","287.4","NAN","NAN","NAN","NAN","NAN"],
    [1549660,"2026-04-16 05:40:00","50650","1.787","286.5","3.005","285","NAN","NAN","NAN","NAN","NAN"],
    [1549661,"2026-04-16 05:50:00","50651","1.403","281.3","2.94","285.9","NAN","NAN","NAN","NAN","NAN"],
    [1549662,"2026-04-16 06:00:00","50652","1.953","285.9","4.149","294.3","NAN","NAN","NAN","NAN","NAN"],
    [1549663,"2026-04-16 06:10:00","50653","1.237","280.6","2.875","284.4","NAN","NAN","NAN","NAN","NAN"],
    [1549664,"2026-04-16 06:20:00","50654","1.4","277.8","2.809","277.1","NAN","NAN","NAN","NAN","NAN"],
    [1549665,"2026-04-16 06:30:00","50655","0.607","291.8","2.058","288.8","NAN","NAN","NAN","NAN","NAN"],
    [1549666,"2026-04-16 06:40:00","50656","1.702","283.3","3.299","276.7","NAN","NAN","NAN","NAN","NAN"],
    [1549667,"2026-04-16 06:50:00","50657","2.062","288.1","3.593","294","NAN","NAN","NAN","NAN","NAN"],
    [1549668,"2026-04-16 07:00:00","50658","1.796","286.2","2.875","288.4","NAN","NAN","NAN","NAN","NAN"],
    [1549669,"2026-04-16 07:10:00","50659","2.061","287.7","3.234","288.4","NAN","NAN","NAN","NAN","NAN"],
    [1549670,"2026-04-16 07:20:00","50660","1.119","282.9","2.352","283.1","NAN","NAN","NAN","NAN","NAN"],
    [1549671,"2026-04-16 07:30:00","50661","1.103","294.5","2.319","295.8","NAN","NAN","NAN","NAN","NAN"],
    [1549672,"2026-04-16 07:40:00","50662","0.311","296.1","1.143","296.2","NAN","NAN","NAN","NAN","NAN"],
    [1549673,"2026-04-16 07:50:00","50663","0.154","296.2","0.784","296.3","NAN","NAN","NAN","NAN","NAN"],
    [1549674,"2026-04-16 08:00:00","50664","0.758","296.7","1.274","296.9","NAN","NAN","NAN","NAN","NAN"],
    [1549675,"2026-04-16 08:10:00","50665","0.40700000000000003","297.0","0.915","296.9","NAN","NAN","NAN","NAN","NAN"],
    [1549676,"2026-04-16 08:20:00","50666","0.40299999999999997","297.4","1.045","297.6","NAN","NAN","NAN","NAN","NAN"],
    [1549677,"2026-04-16 08:30:00","50667","0.759","298.4","1.274","299.2","NAN","NAN","NAN","NAN","NAN"],
    [1549678,"2026-04-16 08:40:00","50668","0.757","300.5","1.535","301.5","NAN","NAN","NAN","NAN","NAN"],
    [1549679,"2026-04-16 08:50:00","50669","1.349","302.9","2.189","302.1","NAN","NAN","NAN","NAN","NAN"],
    [1549680,"2026-04-16 09:00:00","50670","1.449","292.0","2.091","301.7","NAN","NAN","NAN","NAN","NAN"],
    [1549681,"2026-04-16 09:10:00","50671","0.49700000000000005","215.3","1.993","159.6","NAN","NAN","NAN","NAN","NAN"],
    [1549682,"2026-04-16 09:20:00","50672","2.679","128.0","3.985","139.5","NAN","NAN","NAN","NAN","NAN"],
    [1549683,"2026-04-16 09:30:00","50673","2.36","136.2","3.659","150.3","NAN","NAN","NAN","NAN","NAN"],
    [1549684,"2026-04-16 09:40:00","50674","2.423","137.8","3.593","132.2","NAN","NAN","NAN","NAN","NAN"],
    [1549685,"2026-04-16 09:50:00","50675","2.258","134.2","3.561","128.7","NAN","NAN","NAN","NAN","NAN"],
    [1549686,"2026-04-16 10:00:00","50676","2.426","130.8","3.757","132.5","NAN","NAN","NAN","NAN","NAN"],
    [1549687,"2026-04-16 10:10:00","50677","2.271","119.1","3.397","123.6","NAN","NAN","NAN","NAN","NAN"],
    [1549688,"2026-04-16 10:20:00","50678","2.648","127.0","4.181","128.8","NAN","NAN","NAN","NAN","NAN"],
    [1549689,"2026-04-16 10:30:00","50679","2.843","110.9","4.051","103.7","NAN","NAN","NAN","NAN","NAN"],
    [1549690,"2026-04-16 10:40:00","50680","2.126","133.9","4.116","175.7","NAN","NAN","NAN","NAN","NAN"],
    [1549691,"2026-04-16 10:50:00","50681","2.1719999999999997","181.6","3.593","172.4","NAN","NAN","NAN","NAN","NAN"],
    [1549692,"2026-04-16 11:00:00","50682","2.45","182.0","4.116","162.5","NAN","NAN","NAN","NAN","NAN"],
    [1549693,"2026-04-16 11:10:00","50683","3.017","184.8","5.259","162.1","NAN","NAN","NAN","NAN","NAN"],
    [1549694,"2026-04-16 11:20:00","50684","3.333","201.4","5.651","212.9","NAN","NAN","NAN","NAN","NAN"],
    [1549695,"2026-04-16 11:30:00","50685","3.6039999999999996","201.4","5.913","213","NAN","NAN","NAN","NAN","NAN"],
    [1549696,"2026-04-16 11:40:00","50686","3.64","190.1","5.749","214.1","NAN","NAN","NAN","NAN","NAN"],
    [1549697,"2026-04-16 11:50:00","50687","3.252","193.2","5.357","209.5","NAN","NAN","NAN","NAN","NAN"],
    [1549698,"2026-04-16 12:00:00","50688","3.56","205.0","5.455","207.3","NAN","NAN","NAN","NAN","NAN"],
    [1549699,"2026-04-16 12:10:00","50689","3.26","218.9","5.782","234.2","NAN","NAN","NAN","NAN","NAN"],
    [1549700,"2026-04-16 12:20:00","50690","4.232","209.5","6.925","205.3","NAN","NAN","NAN","NAN","NAN"],
    [1549701,"2026-04-16 12:30:00","50691","3.056","202.6","5.455","206.3","NAN","NAN","NAN","NAN","NAN"],
    [1549702,"2026-04-16 12:40:00","50692","4.566","209.2","6.729","207","NAN","NAN","NAN","NAN","NAN"],
    [1549703,"2026-04-16 12:50:00","50693","4.322","218.0","7.219","202.6","NAN","NAN","NAN","NAN","NAN"],
    [1549704,"2026-04-16 13:00:00","50694","5.392","209.7","7.546","207.2","NAN","NAN","NAN","NAN","NAN"],
    [1549705,"2026-04-16 13:10:00","50695","4.445","222.9","7.611","209","NAN","NAN","NAN","NAN","NAN"],
    [1549706,"2026-04-16 13:20:00","50696","4.577","228.9","7.252","228.9","NAN","NAN","NAN","NAN","NAN"],
    [1549707,"2026-04-16 13:30:00","50697","4.61","229.5","7.579","236.7","NAN","NAN","NAN","NAN","NAN"],
    [1549708,"2026-04-16 13:40:00","50698","5.005","227.0","7.775","225.6","NAN","NAN","NAN","NAN","NAN"],
    [1549709,"2026-04-16 13:50:00","50699","4.916","240.3","7.709","236.2","NAN","NAN","NAN","NAN","NAN"],
    [1549710,"2026-04-16 14:00:00","50700","3.7260000000000004","236.2","6.435","233.5","NAN","NAN","NAN","NAN","NAN"],
    [1549711,"2026-04-16 14:10:00","50701","4.157","229.3","7.415","208.1","NAN","NAN","NAN","NAN","NAN"],
    [1549712,"2026-04-16 14:20:00","50702","4.468999999999999","231.0","8.49","238.7","NAN","NAN","NAN","NAN","NAN"],
    [1549713,"2026-04-16 14:30:00","50703","3.7739999999999996","228.3","6.697","228.7","NAN","NAN","NAN","NAN","NAN"],
    [1549714,"2026-04-16 14:40:00","50704","4.934","225.0","7.971","240.8","NAN","NAN","NAN","NAN","NAN"],
    [1549715,"2026-04-16 14:50:00","50705","5.742999999999999","210.4","8.59","208.3","NAN","NAN","NAN","NAN","NAN"],
    [1549716,"2026-04-16 15:00:00","50706","5.202999999999999","213.3","7.742","196.8","NAN","NAN","NAN","NAN","NAN"],
    [1549717,"2026-04-16 15:10:00","50707","4.6819999999999995","212.5","7.905","214.1","NAN","NAN","NAN","NAN","NAN"],
    [1549718,"2026-04-16 15:20:00","50708","4.539","213.8","7.84","206.4","NAN","NAN","NAN","NAN","NAN"],
    [1549719,"2026-04-16 15:30:00","50709","4.754","228.2","8","234.6","NAN","NAN","NAN","NAN","NAN"],
    [1549720,"2026-04-16 15:40:00","50710","4.3469999999999995","223.7","7.448","214.1","NAN","NAN","NAN","NAN","NAN"],
    [1549721,"2026-04-16 15:50:00","50711","4.247","224.2","7.742","222.3","NAN","NAN","NAN","NAN","NAN"],
    [1549722,"2026-04-16 16:00:00","50712","3.733","226.0","7.775","238.7","NAN","NAN","NAN","NAN","NAN"],
    [1549723,"2026-04-16 16:10:00","50713","3.84","220.4","7.089","213.4","NAN","NAN","NAN","NAN","NAN"],
    [1549724,"2026-04-16 16:20:00","50714","3.6060000000000003","230.4","6.468","244.8","NAN","NAN","NAN","NAN","NAN"],
    [1549725,"2026-04-16 16:30:00","50715","3.3489999999999998","223.3","5.847","237.4","NAN","NAN","NAN","NAN","NAN"],
    [1549726,"2026-04-16 16:40:00","50716","4.012","234.3","6.991","241.3","NAN","NAN","NAN","NAN","NAN"],
    [1549727,"2026-04-16 16:50:00","50717","4.751","243.7","8.23","259.7","NAN","NAN","NAN","NAN","NAN"],
    [1549728,"2026-04-16 17:00:00","50718","5.122000000000001","250.4","9.41","243.5","NAN","NAN","NAN","NAN","NAN"],
    [1549729,"2026-04-16 17:10:00","50719","4.643","247.0","7.873","254","NAN","NAN","NAN","NAN","NAN"],
    [1549730,"2026-04-16 17:20:00","50720","4.9030000000000005","243.2","8.1","255.1","NAN","NAN","NAN","NAN","NAN"],
    [1549731,"2026-04-16 17:30:00","50721","4.377","238.8","7.252","243.4","NAN","NAN","NAN","NAN","NAN"],
    [1549732,"2026-04-16 17:40:00","50722","3.9539999999999997","239.7","6.991","236.6","NAN","NAN","NAN","NAN","NAN"],
    [1549733,"2026-04-16 17:50:00","50723","3.733","240.4","6.697","238.4","NAN","NAN","NAN","NAN","NAN"],
    [1549734,"2026-04-16 18:00:00","50724","3.6439999999999997","233.0","6.566","254.8","NAN","NAN","NAN","NAN","NAN"],
    [1549735,"2026-04-16 18:10:00","50725","2.647","218.0","4.051","214.2","NAN","NAN","NAN","NAN","NAN"],
    [1549736,"2026-04-16 18:20:00","50726","2.932","207.4","4.279","200.3","NAN","NAN","NAN","NAN","NAN"],
    [1549737,"2026-04-16 18:30:00","50727","3.4010000000000002","205.0","4.965","205.5","NAN","NAN","NAN","NAN","NAN"],
    [1549738,"2026-04-16 18:40:00","50728","3.2310000000000003","207.5","4.9","210.6","NAN","NAN","NAN","NAN","NAN"],
    [1549739,"2026-04-16 18:50:00","50729","2.5869999999999997","220.8","3.822","222.9","NAN","NAN","NAN","NAN","NAN"],
    [1549740,"2026-04-16 19:00:00","50730","2.513","231.8","4.965","243.2","NAN","NAN","NAN","NAN","NAN"],
    [1549741,"2026-04-16 19:10:00","50731","2.719","232.1","5.227","232","NAN","NAN","NAN","NAN","NAN"],
    [1549742,"2026-04-16 19:20:00","50732","2.508","236.5","4.737","243.8","NAN","NAN","NAN","NAN","NAN"],
    [1549743,"2026-04-16 19:30:00","50733","2.165","219.9","3.332","215.6","NAN","NAN","NAN","NAN","NAN"],
    [1549744,"2026-04-16 19:40:00","50734","1.9509999999999998","228.8","3.528","223.7","NAN","NAN","NAN","NAN","NAN"],
    [1549745,"2026-04-16 19:50:00","50735","1.709","225.4","3.005","213.3","NAN","NAN","NAN","NAN","NAN"],
    [1549746,"2026-04-16 20:00:00","50736","2.248","214.8","3.561","210.1","NAN","NAN","NAN","NAN","NAN"],
    [1549747,"2026-04-16 20:10:00","50737","2.3609999999999998","218.8","3.659","223.9","NAN","NAN","NAN","NAN","NAN"],
    [1549748,"2026-04-16 20:20:00","50738","2.275","231.4","3.92","236.3","NAN","NAN","NAN","NAN","NAN"],
    [1549749,"2026-04-16 20:30:00","50739","2.5180000000000002","246.3","3.953","245.6","NAN","NAN","NAN","NAN","NAN"],
    [1549750,"2026-04-16 20:40:00","50740","1.535","247.5","3.005","247.9","NAN","NAN","NAN","NAN","NAN"],
    [1549751,"2026-04-16 20:50:00","50741","1.444","245.7","2.711","236.4","NAN","NAN","NAN","NAN","NAN"],
    [1549752,"2026-04-16 21:00:00","50742","1.33","235.6","2.45","236.6","NAN","NAN","NAN","NAN","NAN"],
    [1549753,"2026-04-16 21:10:00","50743","1.046","241.3","2.254","240.3","NAN","NAN","NAN","NAN","NAN"],
    [1549754,"2026-04-16 21:20:00","50744","0.617","246.4","1.699","247.3","NAN","NAN","NAN","NAN","NAN"],
    [1549755,"2026-04-16 21:30:00","50745","0.6629999999999999","245.2","1.993","247.2","NAN","NAN","NAN","NAN","NAN"],
    [1549756,"2026-04-16 21:40:00","50746","0.992","236.6","2.254","243.7","NAN","NAN","NAN","NAN","NAN"],
    [1549757,"2026-04-16 21:50:00","50747","1.3","239.6","2.385","244.2","NAN","NAN","NAN","NAN","NAN"],
    [1549758,"2026-04-16 22:00:00","50748","1.831","225.2","2.809","232","NAN","NAN","NAN","NAN","NAN"],
    [1549759,"2026-04-16 22:10:00","50749","1.273","233.8","2.548","239.7","NAN","NAN","NAN","NAN","NAN"],
    [1549760,"2026-04-16 22:20:00","50750","1.734","230.2","3.234","232.3","NAN","NAN","NAN","NAN","NAN"],
    [1549761,"2026-04-16 22:30:00","50751","1.814","238.2","3.267","239.1","NAN","NAN","NAN","NAN","NAN"],
    [1549762,"2026-04-16 22:40:00","50752","1.591","233.3","3.005","245.1","NAN","NAN","NAN","NAN","NAN"],
    [1549763,"2026-04-16 22:50:00","50753","2.3480000000000003","247.8","3.593","244.7","NAN","NAN","NAN","NAN","NAN"],
    [1549764,"2026-04-16 23:00:00","50754","1.9380000000000002","249.8","2.94","249.2","NAN","NAN","NAN","NAN","NAN"],
    [1549765,"2026-04-16 23:10:00","50755","1.905","252.5","2.711","251.8","NAN","NAN","NAN","NAN","NAN"],
    [1549766,"2026-04-16 23:20:00","50756","1.609","249.9","2.973","253.5","NAN","NAN","NAN","NAN","NAN"],
    [1549767,"2026-04-16 23:30:00","50757","1.819","252.1","2.711","248","NAN","NAN","NAN","NAN","NAN"],
    [1549768,"2026-04-16 23:40:00","50758","1.4969999999999999","253.1","2.352","254.1","NAN","NAN","NAN","NAN","NAN"],
    [1549769,"2026-04-16 23:50:00","50759","2.002","250.1","2.842","247.7","NAN","NAN","NAN","NAN","NAN"],
    [1549770,"2026-04-17 00:00:00","50760","1.861","247.0","2.515","248.8","NAN","NAN","NAN","NAN","NAN"],
    [1549771,"2026-04-17 00:10:00","50761","1.016","247.8","2.156","248.7","NAN","NAN","NAN","NAN","NAN"],
    [1549772,"2026-04-17 00:20:00","50762","1.97","249.5","2.907","253.6","NAN","NAN","NAN","NAN","NAN"],
    [1549773,"2026-04-17 00:30:00","50763","1.083","253.9","1.96","253.6","NAN","NAN","NAN","NAN","NAN"],
    [1549774,"2026-04-17 00:40:00","50764","1.137","251.5","2.483","245.6","NAN","NAN","NAN","NAN","NAN"],
    [1549775,"2026-04-17 00:50:00","50765","1.55","250.1","2.548","248.7","NAN","NAN","NAN","NAN","NAN"],
    [1549776,"2026-04-17 01:00:00","50766","1.419","250.4","2.091","252.3","NAN","NAN","NAN","NAN","NAN"],
    [1549777,"2026-04-17 01:10:00","50767","1.105","253.1","1.895","253.3","NAN","NAN","NAN","NAN","NAN"],
    [1549778,"2026-04-17 01:20:00","50768","0.691","253.1","1.47","249.4","NAN","NAN","NAN","NAN","NAN"],
    [1549779,"2026-04-17 01:30:00","50769","0.7759999999999999","253.3","1.339","253.4","NAN","NAN","NAN","NAN","NAN"],
    [1549780,"2026-04-17 01:40:00","50770","1.089","251.6","1.601","252","NAN","NAN","NAN","NAN","NAN"],
    [1549781,"2026-04-17 01:50:00","50771","0.877","252.1","1.731","253.4","NAN","NAN","NAN","NAN","NAN"],
    [1549782,"2026-04-17 02:00:00","50772","0.922","252.9","1.699","253.4","NAN","NAN","NAN","NAN","NAN"],
    [1549783,"2026-04-17 02:10:00","50773","0.856","251.6","1.307","247.6","NAN","NAN","NAN","NAN","NAN"],
    [1549784,"2026-04-17 02:20:00","50774","0.9620000000000001","253.6","1.633","253.7","NAN","NAN","NAN","NAN","NAN"],
    [1549785,"2026-04-17 02:30:00","50775","0.146","253.2","0.653","253.6","NAN","NAN","NAN","NAN","NAN"],
    [1549786,"2026-04-17 02:40:00","50776","0.125","253.8","1.013","253.8","NAN","NAN","NAN","NAN","NAN"],
    [1549787,"2026-04-17 02:50:00","50777","0.426","252.1","1.274","251.6","NAN","NAN","NAN","NAN","NAN"],
    [1549788,"2026-04-17 03:00:00","50778","0.649","252.1","1.274","249.4","NAN","NAN","NAN","NAN","NAN"],
    [1549789,"2026-04-17 03:10:00","50779","0.52","253.0","1.111","253.6","NAN","NAN","NAN","NAN","NAN"],
    [1549790,"2026-04-17 03:20:00","50780","0.322","251.5","1.143","253.6","NAN","NAN","NAN","NAN","NAN"],
    [1549791,"2026-04-17 03:30:00","50781","0.7559999999999999","253.0","1.274","253.3","NAN","NAN","NAN","NAN","NAN"],
    [1549792,"2026-04-17 03:40:00","50782","0.9990000000000001","253.6","1.535","253.7","NAN","NAN","NAN","NAN","NAN"],
    [1549793,"2026-04-17 03:50:00","50783","0.289","253.1","1.274","253.8","NAN","NAN","NAN","NAN","NAN"],
    [1549794,"2026-04-17 04:00:00","50784","0.8859999999999999","253.5","1.339","253.8","NAN","NAN","NAN","NAN","NAN"],
    [1549795,"2026-04-17 04:10:00","50785","1.444","253.4","2.581","253.2","NAN","NAN","NAN","NAN","NAN"],
    [1549796,"2026-04-17 04:20:00","50786","1.4669999999999999","255.3","2.973","255.3","NAN","NAN","NAN","NAN","NAN"],
    [1549797,"2026-04-17 04:30:00","50787","2.516","272.1","4.149","273.7","NAN","NAN","NAN","NAN","NAN"],
    [1549798,"2026-04-17 04:40:00","50788","2.42","285.7","3.659","289.5","NAN","NAN","NAN","NAN","NAN"],
    [1549799,"2026-04-17 04:50:00","50789","2.635","278.3","4.312","285.5","NAN","NAN","NAN","NAN","NAN"],
    [1549800,"2026-04-17 05:00:00","50790","2.9019999999999997","275.1","4.181","286.3","NAN","NAN","NAN","NAN","NAN"],
    [1549801,"2026-04-17 05:10:00","50791","2.678","273.5","4.018","279.5","NAN","NAN","NAN","NAN","NAN"],
    [1549802,"2026-04-17 05:20:00","50792","2.295","269.7","3.43","264","NAN","NAN","NAN","NAN","NAN"],
    [1549803,"2026-04-17 05:30:00","50793","2.085","272.9","3.43","267.2","NAN","NAN","NAN","NAN","NAN"],
    [1549804,"2026-04-17 05:40:00","50794","2.454","270.4","3.985","280.7","NAN","NAN","NAN","NAN","NAN"],
    [1549805,"2026-04-17 05:50:00","50795","2.455","277.5","4.051","287","NAN","NAN","NAN","NAN","NAN"],
    [1549806,"2026-04-17 06:00:00","50796","2.2640000000000002","272.0","3.855","277.4","NAN","NAN","NAN","NAN","NAN"],
    [1549807,"2026-04-17 06:10:00","50797","1.9969999999999999","268.2","3.463","276.5","NAN","NAN","NAN","NAN","NAN"],
    [1549808,"2026-04-17 06:20:00","50798","2.345","266.3","4.051","254.1","NAN","NAN","NAN","NAN","NAN"],
    [1549809,"2026-04-17 06:30:00","50799","2.439","265.7","4.181","278.1","NAN","NAN","NAN","NAN","NAN"],
    [1549810,"2026-04-17 06:40:00","50800","2.394","267.0","3.691","261.9","NAN","NAN","NAN","NAN","NAN"],
    [1549811,"2026-04-17 06:50:00","50801","2.529","264.4","4.802","267.9","NAN","NAN","NAN","NAN","NAN"],
    [1549812,"2026-04-17 07:00:00","50802","2.698","262.2","4.541","264.2","NAN","NAN","NAN","NAN","NAN"],
    [1549813,"2026-04-17 07:10:00","50803","3.235","260.7","5.945","268.7","NAN","NAN","NAN","NAN","NAN"],
    [1549814,"2026-04-17 07:20:00","50804","3.346","267.3","5.292","270.4","NAN","NAN","NAN","NAN","NAN"],
    [1549815,"2026-04-17 07:30:00","50805","3.68","266.9","5.521","267.6","NAN","NAN","NAN","NAN","NAN"],
    [1549816,"2026-04-17 07:40:00","50806","2.448","262.2","4.769","287.3","NAN","NAN","NAN","NAN","NAN"],
    [1549817,"2026-04-17 07:50:00","50807","3.1239999999999997","251.6","4.867","247.8","NAN","NAN","NAN","NAN","NAN"],
    [1549818,"2026-04-17 08:00:00","50808","2.322","256.7","4.051","251.2","NAN","NAN","NAN","NAN","NAN"],
    [1549819,"2026-04-17 08:10:00","50809","3.0639999999999996","245.9","4.443","248.1","NAN","NAN","NAN","NAN","NAN"],
    [1549820,"2026-04-17 08:20:00","50810","3.0180000000000002","246.1","4.769","241.1","NAN","NAN","NAN","NAN","NAN"],
    [1549821,"2026-04-17 08:30:00","50811","2.6719999999999997","250.3","4.083","243.6","NAN","NAN","NAN","NAN","NAN"],
    [1549822,"2026-04-17 08:40:00","50812","2.2569999999999997","239.1","3.92","236.6","NAN","NAN","NAN","NAN","NAN"],
    [1549823,"2026-04-17 08:50:00","50813","1.895","241.6","4.018","243.2","NAN","NAN","NAN","NAN","NAN"],
    [1549824,"2026-04-17 09:00:00","50814","1.8130000000000002","228.0","3.267","238.7","NAN","NAN","NAN","NAN","NAN"],
    [1549825,"2026-04-17 09:10:00","50815","1.725","219.1","3.495","213.4","NAN","NAN","NAN","NAN","NAN"],
    [1549826,"2026-04-17 09:20:00","50816","1.5130000000000001","232.8","2.94","228.6","NAN","NAN","NAN","NAN","NAN"],
    [1549827,"2026-04-17 09:30:00","50817","2.088","214.4","3.659","196.5","NAN","NAN","NAN","NAN","NAN"],
    [1549828,"2026-04-17 09:40:00","50818","2.185","208.0","3.92","169.8","NAN","NAN","NAN","NAN","NAN"],
    [1549829,"2026-04-17 09:50:00","50819","2.3169999999999997","189.5","4.279","206.8","NAN","NAN","NAN","NAN","NAN"],
    [1549830,"2026-04-17 10:00:00","50820","2.57","197.6","4.541","207.5","NAN","NAN","NAN","NAN","NAN"],
    [1549831,"2026-04-17 10:10:00","50821","2.484","202.4","4.606","216.4","NAN","NAN","NAN","NAN","NAN"],
    [1549832,"2026-04-17 10:20:00","50822","2.072","188.0","3.691","160.1","NAN","NAN","NAN","NAN","NAN"],
    [1549833,"2026-04-17 10:30:00","50823","1.935","195.2","3.397","193.8","NAN","NAN","NAN","NAN","NAN"],
    [1549834,"2026-04-17 10:40:00","50824","2.1590000000000003","177.9","3.528","167.9","NAN","NAN","NAN","NAN","NAN"],
    [1549835,"2026-04-17 10:50:00","50825","2.6439999999999997","207.2","4.181","205.1","NAN","NAN","NAN","NAN","NAN"],
    [1549836,"2026-04-17 11:00:00","50826","3.139","212.0","4.247","210.3","NAN","NAN","NAN","NAN","NAN"],
    [1549837,"2026-04-17 11:10:00","50827","3.16","206.8","4.541","206.6","NAN","NAN","NAN","NAN","NAN"],
    [1549838,"2026-04-17 11:20:00","50828","2.911","203.3","4.998","211.6","NAN","NAN","NAN","NAN","NAN"],
    [1549839,"2026-04-17 11:30:00","50829","2.6060000000000003","181.6","4.247","179.7","NAN","NAN","NAN","NAN","NAN"],
    [1549840,"2026-04-17 11:40:00","50830","2.906","186.1","4.737","173.8","NAN","NAN","NAN","NAN","NAN"],
    [1549841,"2026-04-17 11:50:00","50831","2.755","202.5","5.096","212","NAN","NAN","NAN","NAN","NAN"],
    [1549842,"2026-04-17 12:00:00","50832","3.005","177.7","4.671","181.3","NAN","NAN","NAN","NAN","NAN"],
    [1549843,"2026-04-17 12:10:00","50833","2.716","198.3","5.325","220.7","NAN","NAN","NAN","NAN","NAN"],
    [1549844,"2026-04-17 12:20:00","50834","3.234","213.8","4.508","207.2","NAN","NAN","NAN","NAN","NAN"],
    [1549845,"2026-04-17 12:30:00","50835","2.0980000000000003","200.0","4.345","215.7","NAN","NAN","NAN","NAN","NAN"],
    [1549846,"2026-04-17 12:40:00","50836","2.496","194.3","4.181","180.8","NAN","NAN","NAN","NAN","NAN"],
    [1549847,"2026-04-17 12:50:00","50837","2.7760000000000002","206.8","4.181","209.7","NAN","NAN","NAN","NAN","NAN"],
    [1549848,"2026-04-17 13:00:00","50838","2.91","192.5","4.279","165.9","NAN","NAN","NAN","NAN","NAN"],
    [1549849,"2026-04-17 13:10:00","50839","2.697","175.1","5.292","173.4","NAN","NAN","NAN","NAN","NAN"],
    [1549850,"2026-04-17 13:20:00","50840","2.73","175.7","4.41","159.9","NAN","NAN","NAN","NAN","NAN"],
    [1549851,"2026-04-17 13:30:00","50841","2.603","181.8","4.9","173.2","NAN","NAN","NAN","NAN","NAN"],
    [1549852,"2026-04-17 13:40:00","50842","2.615","202.3","4.475","185.1","NAN","NAN","NAN","NAN","NAN"],
    [1549853,"2026-04-17 13:50:00","50843","3.3569999999999998","168.3","5.031","165.4","NAN","NAN","NAN","NAN","NAN"],
    [1549854,"2026-04-17 14:00:00","50844","2.815","177.4","4.802","160.5","NAN","NAN","NAN","NAN","NAN"],
    [1549855,"2026-04-17 14:10:00","50845","2.57","192.2","5.129","157.3","NAN","NAN","NAN","NAN","NAN"],
    [1549856,"2026-04-17 14:20:00","50846","2.924","170.9","4.867","157.9","NAN","NAN","NAN","NAN","NAN"],
    [1549857,"2026-04-17 14:30:00","50847","3.14","168.1","4.769","165.9","NAN","NAN","NAN","NAN","NAN"],
    [1549858,"2026-04-17 14:40:00","50848","3.242","171.1","5.031","164.7","NAN","NAN","NAN","NAN","NAN"],
    [1549859,"2026-04-17 14:50:00","50849","3.076","186.6","4.965","213.8","NAN","NAN","NAN","NAN","NAN"],
    [1549860,"2026-04-17 15:00:00","50850","2.832","206.8","4.606","210.4","NAN","NAN","NAN","NAN","NAN"],
    [1549861,"2026-04-17 15:10:00","50851","3.215","209.5","4.835","213.3","NAN","NAN","NAN","NAN","NAN"],
    [1549862,"2026-04-17 15:20:00","50852","2.733","196.9","4.835","216.2","NAN","NAN","NAN","NAN","NAN"],
    [1549863,"2026-04-17 15:30:00","50853","3.105","186.5","4.671","212.3","NAN","NAN","NAN","NAN","NAN"],
    [1549864,"2026-04-17 15:40:00","50854","2.8789999999999996","188.5","4.802","174.5","NAN","NAN","NAN","NAN","NAN"],
    [1549865,"2026-04-17 15:50:00","50855","3.016","206.9","4.802","210.3","NAN","NAN","NAN","NAN","NAN"],
    [1549866,"2026-04-17 16:00:00","50856","3.085","201.1","5.488","216","NAN","NAN","NAN","NAN","NAN"],
    [1549867,"2026-04-17 16:10:00","50857","2.081","199.2","4.247","211.3","NAN","NAN","NAN","NAN","NAN"],
    [1549868,"2026-04-17 16:20:00","50858","2.1180000000000003","206.1","4.867","210.2","NAN","NAN","NAN","NAN","NAN"],
    [1549869,"2026-04-17 16:30:00","50859","2.464","205.0","4.312","234.6","NAN","NAN","NAN","NAN","NAN"],
    [1549870,"2026-04-17 16:40:00","50860","2.372","203.8","4.377","213.1","NAN","NAN","NAN","NAN","NAN"],
    [1549871,"2026-04-17 16:50:00","50861","2.465","193.1","4.508","173.8","NAN","NAN","NAN","NAN","NAN"],
    [1549872,"2026-04-17 17:00:00","50862","2.95","209.0","5.063","205","NAN","NAN","NAN","NAN","NAN"],
    [1549873,"2026-04-17 17:10:00","50863","2.573","220.1","4.541","208.6","NAN","NAN","NAN","NAN","NAN"],
    [1549874,"2026-04-17 17:20:00","50864","2.559","219.8","4.181","245.8","NAN","NAN","NAN","NAN","NAN"],
    [1549875,"2026-04-17 17:30:00","50865","2.592","219.3","4.279","216.2","NAN","NAN","NAN","NAN","NAN"],
    [1549876,"2026-04-17 17:40:00","50866","2.673","227.0","4.475","242.4","NAN","NAN","NAN","NAN","NAN"],
    [1549877,"2026-04-17 17:50:00","50867","2.6630000000000003","218.3","4.279","206.5","NAN","NAN","NAN","NAN","NAN"],
    [1549878,"2026-04-17 18:00:00","50868","2.7939999999999996","210.5","4.345","206.5","NAN","NAN","NAN","NAN","NAN"],
    [1549879,"2026-04-17 18:10:00","50869","2.634","212.6","4.41","218.6","NAN","NAN","NAN","NAN","NAN"],
    [1549880,"2026-04-17 18:20:00","50870","2.4459999999999997","230.6","4.671","219.9","NAN","NAN","NAN","NAN","NAN"],
    [1549881,"2026-04-17 18:30:00","50871","2.312","229.2","4.345","241.9","NAN","NAN","NAN","NAN","NAN"],
    [1549882,"2026-04-17 18:40:00","50872","1.801","223.4","3.626","227.3","NAN","NAN","NAN","NAN","NAN"],
    [1549883,"2026-04-17 18:50:00","50873","2.373","227.5","3.757","238.1","NAN","NAN","NAN","NAN","NAN"],
    [1549884,"2026-04-17 19:00:00","50874","2.1430000000000002","224.9","3.528","227.7","NAN","NAN","NAN","NAN","NAN"],
    [1549885,"2026-04-17 19:10:00","50875","2.443","221.8","3.757","217.6","NAN","NAN","NAN","NAN","NAN"],
    [1549886,"2026-04-17 19:20:00","50876","1.781","223.1","2.94","230.2","NAN","NAN","NAN","NAN","NAN"],
    [1549887,"2026-04-17 19:30:00","50877","1.693","233.4","3.561","240.1","NAN","NAN","NAN","NAN","NAN"],
    [1549888,"2026-04-17 19:40:00","50878","1.78","227.7","3.234","215.5","NAN","NAN","NAN","NAN","NAN"],
    [1549889,"2026-04-17 19:50:00","50879","1.714","219.1","2.875","212.7","NAN","NAN","NAN","NAN","NAN"],
    [1549890,"2026-04-17 20:00:00","50880","1.53","219.3","3.103","221.6","NAN","NAN","NAN","NAN","NAN"],
    [1549891,"2026-04-17 20:10:00","50881","1.4340000000000002","227.8","2.875","212.1","NAN","NAN","NAN","NAN","NAN"],
    [1549892,"2026-04-17 20:20:00","50882","1.367","228.0","3.038","214","NAN","NAN","NAN","NAN","NAN"],
    [1549893,"2026-04-17 20:30:00","50883","2.0180000000000002","245.0","3.397","256.3","NAN","NAN","NAN","NAN","NAN"],
    [1549894,"2026-04-17 20:40:00","50884","1.547","243.9","2.581","240.9","NAN","NAN","NAN","NAN","NAN"],
    [1549895,"2026-04-17 20:50:00","50885","1.511","249.5","2.548","239","NAN","NAN","NAN","NAN","NAN"],
    [1549896,"2026-04-17 21:00:00","50886","1.591","252.2","2.875","255.3","NAN","NAN","NAN","NAN","NAN"],
    [1549897,"2026-04-17 21:10:00","50887","1.806","253.4","2.45","253.1","NAN","NAN","NAN","NAN","NAN"],
    [1549898,"2026-04-17 21:20:00","50888","2.0980000000000003","252.3","3.071","252.4","NAN","NAN","NAN","NAN","NAN"],
    [1549899,"2026-04-17 21:30:00","50889","1.8359999999999999","248.0","2.744","247.4","NAN","NAN","NAN","NAN","NAN"],
    [1549900,"2026-04-17 21:40:00","50890","2.009","253.2","3.201","257.5","NAN","NAN","NAN","NAN","NAN"],
    [1549901,"2026-04-17 21:50:00","50891","2.324","253.0","3.201","253.2","NAN","NAN","NAN","NAN","NAN"],
    [1549902,"2026-04-17 22:00:00","50892","2.548","253.9","3.528","250.1","NAN","NAN","NAN","NAN","NAN"],
    [1549903,"2026-04-17 22:10:00","50893","2.5989999999999998","251.0","3.724","249.3","NAN","NAN","NAN","NAN","NAN"],
    [1549904,"2026-04-17 22:20:00","50894","2.676","253.2","4.181","245","NAN","NAN","NAN","NAN","NAN"],
    [1549905,"2026-04-17 22:30:00","50895","3.016","251.6","4.443","243.4","NAN","NAN","NAN","NAN","NAN"],
    [1549906,"2026-04-17 22:40:00","50896","1.7990000000000002","255.8","3.038","249.1","NAN","NAN","NAN","NAN","NAN"],
    [1549907,"2026-04-17 22:50:00","50897","1.453","259.0","2.091","261.3","NAN","NAN","NAN","NAN","NAN"],
    [1549908,"2026-04-17 23:00:00","50898","1.6909999999999998","255.3","2.613","248.9","NAN","NAN","NAN","NAN","NAN"],
    [1549909,"2026-04-17 23:10:00","50899","2.41","250.3","3.299","248.3","NAN","NAN","NAN","NAN","NAN"],
    [1549910,"2026-04-17 23:20:00","50900","1.922","255.6","3.038","255.3","NAN","NAN","NAN","NAN","NAN"],
    [1549911,"2026-04-17 23:30:00","50901","1.848","260.6","2.581","261.4","NAN","NAN","NAN","NAN","NAN"],
    [1549912,"2026-04-17 23:40:00","50902","2.191","252.2","3.299","259.7","NAN","NAN","NAN","NAN","NAN"],
    [1549913,"2026-04-17 23:50:00","50903","2.483","256.1","3.365","249.7","NAN","NAN","NAN","NAN","NAN"],
    [1549914,"2026-04-18 00:00:00","50904","1.7730000000000001","261.5","3.299","251.9","NAN","NAN","NAN","NAN","NAN"],
    [1549915,"2026-04-18 00:10:00","50905","1.295","265.1","2.123","265.7","NAN","NAN","NAN","NAN","NAN"],
    [1549916,"2026-04-18 00:20:00","50906","1.64","265.7","2.809","257.6","NAN","NAN","NAN","NAN","NAN"],
    [1549917,"2026-04-18 00:30:00","50907","1.906","263.5","3.299","266","NAN","NAN","NAN","NAN","NAN"],
    [1549918,"2026-04-18 00:40:00","50908","2.089","255.4","3.234","251.8","NAN","NAN","NAN","NAN","NAN"],
    [1549919,"2026-04-18 00:50:00","50909","1.9669999999999999","259.0","3.071","264","NAN","NAN","NAN","NAN","NAN"],
    [1549920,"2026-04-18 01:00:00","50910","2.367","266.5","3.887","265.2","NAN","NAN","NAN","NAN","NAN"],
    [1549921,"2026-04-18 01:10:00","50911","1.8719999999999999","269.0","3.005","263.9","NAN","NAN","NAN","NAN","NAN"],
    [1549922,"2026-04-18 01:20:00","50912","2.031","262.1","3.071","258","NAN","NAN","NAN","NAN","NAN"],
    [1549923,"2026-04-18 01:30:00","50913","2.168","261.3","3.299","257.9","NAN","NAN","NAN","NAN","NAN"],
    [1549924,"2026-04-18 01:40:00","50914","1.972","261.4","3.005","268.5","NAN","NAN","NAN","NAN","NAN"],
    [1549925,"2026-04-18 01:50:00","50915","1.944","260.2","3.005","267.6","NAN","NAN","NAN","NAN","NAN"],
    [1549926,"2026-04-18 02:00:00","50916","1.806","263.1","3.103","268.6","NAN","NAN","NAN","NAN","NAN"],
    [1549927,"2026-04-18 02:10:00","50917","0.9520000000000001","266.0","1.829","259.9","NAN","NAN","NAN","NAN","NAN"],
    [1549928,"2026-04-18 02:20:00","50918","0.614","268.5","1.307","269.5","NAN","NAN","NAN","NAN","NAN"],
    [1549929,"2026-04-18 02:30:00","50919","0.518","268.0","1.176","269.7","NAN","NAN","NAN","NAN","NAN"],
    [1549930,"2026-04-18 02:40:00","50920","0.625","269.4","1.307","267","NAN","NAN","NAN","NAN","NAN"],
    [1549931,"2026-04-18 02:50:00","50921","0.514","269.5","1.176","269.8","NAN","NAN","NAN","NAN","NAN"],
    [1549932,"2026-04-18 03:00:00","50922","0.486","269.8","1.274","269.8","NAN","NAN","NAN","NAN","NAN"],
    [1549933,"2026-04-18 03:10:00","50923","0.879","269.9","1.503","269.9","NAN","NAN","NAN","NAN","NAN"],
    [1549934,"2026-04-18 03:20:00","50924","0.344","270.0","1.209","270.1","NAN","NAN","NAN","NAN","NAN"],
    [1549935,"2026-04-18 03:30:00","50925","0.544","269.7","1.143","270.1","NAN","NAN","NAN","NAN","NAN"],
    [1549936,"2026-04-18 03:40:00","50926","0.812","270.1","1.143","270.1","NAN","NAN","NAN","NAN","NAN"],
    [1549937,"2026-04-18 03:50:00","50927","0.945","268.4","1.209","266.3","NAN","NAN","NAN","NAN","NAN"],
    [1549938,"2026-04-18 04:00:00","50928","0.93","266.5","1.339","267.7","NAN","NAN","NAN","NAN","NAN"],
    [1549939,"2026-04-18 04:10:00","50929","0.57","265.6","1.078","266","NAN","NAN","NAN","NAN","NAN"],
    [1549940,"2026-04-18 04:20:00","50930","0.226","269.8","1.045","270","NAN","NAN","NAN","NAN","NAN"],
    [1549941,"2026-04-18 04:30:00","50931","0.449","269.9","1.013","270.2","NAN","NAN","NAN","NAN","NAN"],
    [1549942,"2026-04-18 04:40:00","50932","0.406","269.8","1.013","270.1","NAN","NAN","NAN","NAN","NAN"],
    [1549943,"2026-04-18 04:50:00","50933","0.214","268.9","0.719","268.1","NAN","NAN","NAN","NAN","NAN"],
    [1549944,"2026-04-18 05:00:00","50934","0.003","267.6","0.229","267.7","NAN","NAN","NAN","NAN","NAN"],
    [1549945,"2026-04-18 05:10:00","50935","0.684","265.5","1.045","265.3","NAN","NAN","NAN","NAN","NAN"],
    [1549946,"2026-04-18 05:20:00","50936","0.63","267.8","1.307","270","NAN","NAN","NAN","NAN","NAN"],
    [1549947,"2026-04-18 05:30:00","50937","0.47100000000000003","270.0","1.633","270.3","NAN","NAN","NAN","NAN","NAN"],
    [1549948,"2026-04-18 05:40:00","50938","0.77","270.3","1.764","270.4","NAN","NAN","NAN","NAN","NAN"],
    [1549949,"2026-04-18 05:50:00","50939","0.743","269.5","2.123","270.3","NAN","NAN","NAN","NAN","NAN"],
    [1549950,"2026-04-18 06:00:00","50940","1.62","269.6","2.417","271.5","NAN","NAN","NAN","NAN","NAN"],
    [1549951,"2026-04-18 06:10:00","50941","2.138","278.4","3.789","284.2","NAN","NAN","NAN","NAN","NAN"],
    [1549952,"2026-04-18 06:20:00","50942","2.477","289.9","3.855","288.8","NAN","NAN","NAN","NAN","NAN"],
    [1549953,"2026-04-18 06:30:00","50943","2.655","284.3","3.953","282.2","NAN","NAN","NAN","NAN","NAN"],
    [1549954,"2026-04-18 06:40:00","50944","1.8359999999999999","285.8","3.626","290.4","NAN","NAN","NAN","NAN","NAN"],
    [1549955,"2026-04-18 06:50:00","50945","1.7630000000000001","275.7","2.875","274.1","NAN","NAN","NAN","NAN","NAN"],
    [1549956,"2026-04-18 07:00:00","50946","1.875","275.4","3.365","278.5","NAN","NAN","NAN","NAN","NAN"],
    [1549957,"2026-04-18 07:10:00","50947","2.494","271.9","4.312","273.8","NAN","NAN","NAN","NAN","NAN"],
    [1549958,"2026-04-18 07:20:00","50948","2.6","267.2","3.593","263.6","NAN","NAN","NAN","NAN","NAN"],
    [1549959,"2026-04-18 07:30:00","50949","2.052","263.8","3.234","266","NAN","NAN","NAN","NAN","NAN"],
    [1549960,"2026-04-18 07:40:00","50950","1.943","270.9","3.169","276.7","NAN","NAN","NAN","NAN","NAN"],
    [1549961,"2026-04-18 07:50:00","50951","1.097","265.3","2.319","264.2","NAN","NAN","NAN","NAN","NAN"],
    [1549962,"2026-04-18 08:00:00","50952","0.326","262.5","1.666","261.1","NAN","NAN","NAN","NAN","NAN"],
    [1549963,"2026-04-18 08:10:00","50953","0.091","261.1","1.045","259.8","NAN","NAN","NAN","NAN","NAN"],
    [1549964,"2026-04-18 08:20:00","50954","0.096","264.0","0.588","265.9","NAN","NAN","NAN","NAN","NAN"],
    [1549965,"2026-04-18 08:30:00","50955","0.37799999999999995","259.5","1.209","259.2","NAN","NAN","NAN","NAN","NAN"],
    [1549966,"2026-04-18 08:40:00","50956","0.375","259.3","0.98","265.5","NAN","NAN","NAN","NAN","NAN"],
    [1549967,"2026-04-18 08:50:00","50957","1.2670000000000001","280.3","1.993","281.6","NAN","NAN","NAN","NAN","NAN"],
    [1549968,"2026-04-18 09:00:00","50958","0.642","283.1","1.568","283.2","NAN","NAN","NAN","NAN","NAN"],
    [1549969,"2026-04-18 09:10:00","50959","1.2009999999999998","283.4","1.927","283.4","NAN","NAN","NAN","NAN","NAN"],
    [1549970,"2026-04-18 09:20:00","50960","0.785","271.1","1.437","283.3","NAN","NAN","NAN","NAN","NAN"],
    [1549971,"2026-04-18 09:30:00","50961","0.6970000000000001","235.3","2.744","172.3","NAN","NAN","NAN","NAN","NAN"],
    [1549972,"2026-04-18 09:40:00","50962","1.565","182.9","2.842","182.8","NAN","NAN","NAN","NAN","NAN"],
    [1549973,"2026-04-18 09:50:00","50963","1.57","181.4","2.842","172.3","NAN","NAN","NAN","NAN","NAN"],
    [1549974,"2026-04-18 10:00:00","50964","2.156","171.1","3.365","169.7","NAN","NAN","NAN","NAN","NAN"],
    [1549975,"2026-04-18 10:10:00","50965","2.2319999999999998","171.2","3.43","164.6","NAN","NAN","NAN","NAN","NAN"],
    [1549976,"2026-04-18 10:20:00","50966","2.313","169.4","3.332","176.9","NAN","NAN","NAN","NAN","NAN"],
    [1549977,"2026-04-18 10:30:00","50967","1.921","171.5","3.299","173.3","NAN","NAN","NAN","NAN","NAN"],
    [1549978,"2026-04-18 10:40:00","50968","2.077","171.6","3.071","162.1","NAN","NAN","NAN","NAN","NAN"],
    [1549979,"2026-04-18 10:50:00","50969","1.6969999999999998","174.3","2.679","179.3","NAN","NAN","NAN","NAN","NAN"],
    [1549980,"2026-04-18 11:00:00","50970","1.3869999999999998","173.0","2.515","182","NAN","NAN","NAN","NAN","NAN"],
    [1549981,"2026-04-18 11:10:00","50971","1.599","172.4","3.038","172","NAN","NAN","NAN","NAN","NAN"],
    [1549982,"2026-04-18 11:20:00","50972","2.114","163.2","4.051","159.9","NAN","NAN","NAN","NAN","NAN"],
    [1549983,"2026-04-18 11:30:00","50973","2.3819999999999997","158.0","3.985","167.9","NAN","NAN","NAN","NAN","NAN"],
    [1549984,"2026-04-18 11:40:00","50974","2.63","154.9","4.116","158.2","NAN","NAN","NAN","NAN","NAN"],
    [1549985,"2026-04-18 11:50:00","50975","2.6","161.3","3.985","167.3","NAN","NAN","NAN","NAN","NAN"],
    [1549986,"2026-04-18 12:00:00","50976","2.209","167.0","3.626","162.5","NAN","NAN","NAN","NAN","NAN"],
    [1549987,"2026-04-18 12:10:00","50977","2.676","162.1","3.887","157.4","NAN","NAN","NAN","NAN","NAN"],
    [1549988,"2026-04-18 12:20:00","50978","2.25","175.3","3.593","172.3","NAN","NAN","NAN","NAN","NAN"],
    [1549989,"2026-04-18 12:30:00","50979","2.345","175.4","4.149","166.8","NAN","NAN","NAN","NAN","NAN"],
    [1549990,"2026-04-18 12:40:00","50980","1.9409999999999998","204.9","3.528","210.6","NAN","NAN","NAN","NAN","NAN"],
    [1549991,"2026-04-18 12:50:00","50981","2.057","200.6","4.181","206.2","NAN","NAN","NAN","NAN","NAN"],
    [1549992,"2026-04-18 13:00:00","50982","2.688","174.4","4.116","175.1","NAN","NAN","NAN","NAN","NAN"],
    [1549993,"2026-04-18 13:10:00","50983","2.6","174.0","3.561","176.4","NAN","NAN","NAN","NAN","NAN"],
    [1549994,"2026-04-18 13:20:00","50984","2.362","178.3","3.887","183.1","NAN","NAN","NAN","NAN","NAN"],
    [1549995,"2026-04-18 13:30:00","50985","3.0860000000000003","168.0","4.541","169.3","NAN","NAN","NAN","NAN","NAN"],
    [1549996,"2026-04-18 13:40:00","50986","2.9539999999999997","169.9","4.639","164.9","NAN","NAN","NAN","NAN","NAN"],
    [1549997,"2026-04-18 13:50:00","50987","2.562","182.7","4.083","165.5","NAN","NAN","NAN","NAN","NAN"],
    [1549998,"2026-04-18 14:00:00","50988","2.545","185.1","4.149","191.3","NAN","NAN","NAN","NAN","NAN"],
    [1549999,"2026-04-18 14:10:00","50989","2.8110000000000004","173.0","4.508","167.9","NAN","NAN","NAN","NAN","NAN"],
    [1550000,"2026-04-18 14:20:00","50990","2.8810000000000002","176.9","4.606","165.3","NAN","NAN","NAN","NAN","NAN"],
    [1550001,"2026-04-18 14:30:00","50991","3.0869999999999997","180.3","4.769","164.3","NAN","NAN","NAN","NAN","NAN"],
    [1550002,"2026-04-18 14:40:00","50992","3.0","194.2","4.998","164","NAN","NAN","NAN","NAN","NAN"],
    [1550003,"2026-04-18 14:50:00","50993","2.971","212.0","5.292","211.3","NAN","NAN","NAN","NAN","NAN"],
    [1550004,"2026-04-18 15:00:00","50994","3.1430000000000002","215.3","5.161","205.3","NAN","NAN","NAN","NAN","NAN"],
    [1550005,"2026-04-18 15:10:00","50995","3.8280000000000003","211.0","5.259","205.4","NAN","NAN","NAN","NAN","NAN"],
    [1550006,"2026-04-18 15:20:00","50996","3.303","210.2","5.227","204.2","NAN","NAN","NAN","NAN","NAN"],
    [1550007,"2026-04-18 15:30:00","50997","3.3560000000000003","214.9","5.161","209.8","NAN","NAN","NAN","NAN","NAN"],
    [1550008,"2026-04-18 15:40:00","50998","2.827","225.5","5.096","226","NAN","NAN","NAN","NAN","NAN"],
    [1550009,"2026-04-18 15:50:00","50999","2.67","232.2","5.194","241.1","NAN","NAN","NAN","NAN","NAN"],
    [1550010,"2026-04-18 16:00:00","51000","2.923","240.8","5.031","235.6","NAN","NAN","NAN","NAN","NAN"],
    [1550011,"2026-04-18 16:10:00","51001","2.891","247.4","4.9","250.9","NAN","NAN","NAN","NAN","NAN"],
    [1550012,"2026-04-18 16:20:00","51002","3.0669999999999997","235.9","4.9","242.3","NAN","NAN","NAN","NAN","NAN"],
    [1550013,"2026-04-18 16:30:00","51003","3.262","224.4","5.782","242.9","NAN","NAN","NAN","NAN","NAN"],
    [1550014,"2026-04-18 16:40:00","51004","3.2560000000000002","221.5","5.521","232","NAN","NAN","NAN","NAN","NAN"],
    [1550015,"2026-04-18 16:50:00","51005","3.173","231.1","5.096","216.6","NAN","NAN","NAN","NAN","NAN"],
    [1550016,"2026-04-18 17:00:00","51006","3.094","226.2","5.063","214.6","NAN","NAN","NAN","NAN","NAN"],
    [1550017,"2026-04-18 17:10:00","51007","3.002","215.0","4.9","222.7","NAN","NAN","NAN","NAN","NAN"],
    [1550018,"2026-04-18 17:20:00","51008","3.4389999999999996","216.9","5.194","204.2","NAN","NAN","NAN","NAN","NAN"],
    [1550019,"2026-04-18 17:30:00","51009","3.054","222.7","5.749","218.7","NAN","NAN","NAN","NAN","NAN"],
    [1550020,"2026-04-18 17:40:00","51010","3.248","220.2","4.835","237.8","NAN","NAN","NAN","NAN","NAN"],
    [1550021,"2026-04-18 17:50:00","51011","2.95","222.7","4.867","226.6","NAN","NAN","NAN","NAN","NAN"],
    [1550022,"2026-04-18 18:00:00","51012","3.221","225.3","5.259","233.2","NAN","NAN","NAN","NAN","NAN"],
    [1550023,"2026-04-18 18:10:00","51013","2.81","227.9","5.259","237.3","NAN","NAN","NAN","NAN","NAN"],
    [1550024,"2026-04-18 18:20:00","51014","2.427","230.0","4.639","241.2","NAN","NAN","NAN","NAN","NAN"],
    [1550025,"2026-04-18 18:30:00","51015","2.481","225.5","4.345","238.2","NAN","NAN","NAN","NAN","NAN"],
    [1550026,"2026-04-18 18:40:00","51016","2.245","229.4","4.181","214.5","NAN","NAN","NAN","NAN","NAN"],
    [1550027,"2026-04-18 18:50:00","51017","2.428","239.9","3.822","245.5","NAN","NAN","NAN","NAN","NAN"],
    [1550028,"2026-04-18 19:00:00","51018","1.794","236.3","3.071","234","NAN","NAN","NAN","NAN","NAN"],
    [1550029,"2026-04-18 19:10:00","51019","1.262","234.7","2.352","230.6","NAN","NAN","NAN","NAN","NAN"],
    [1550030,"2026-04-18 19:20:00","51020","1.426","233.2","2.646","224.9","NAN","NAN","NAN","NAN","NAN"],
    [1550031,"2026-04-18 19:30:00","51021","1.6159999999999999","223.1","3.463","223.8","NAN","NAN","NAN","NAN","NAN"],
    [1550032,"2026-04-18 19:40:00","51022","2.3080000000000003","207.9","3.528","204.9","NAN","NAN","NAN","NAN","NAN"],
    [1550033,"2026-04-18 19:50:00","51023","2.932","208.7","4.214","210.8","NAN","NAN","NAN","NAN","NAN"],
    [1550034,"2026-04-18 20:00:00","51024","1.838","217.8","3.43","221.1","NAN","NAN","NAN","NAN","NAN"],
    [1550035,"2026-04-18 20:10:00","51025","1.82","233.3","3.169","239.8","NAN","NAN","NAN","NAN","NAN"],
    [1550036,"2026-04-18 20:20:00","51026","1.4580000000000002","239.4","3.234","240.5","NAN","NAN","NAN","NAN","NAN"],
    [1550037,"2026-04-18 20:30:00","51027","1.575","242.5","2.515","242.4","NAN","NAN","NAN","NAN","NAN"],
    [1550038,"2026-04-18 20:40:00","51028","1.6669999999999998","242.1","2.875","242.8","NAN","NAN","NAN","NAN","NAN"],
    [1550039,"2026-04-18 20:50:00","51029","1.609","243.0","2.744","243","NAN","NAN","NAN","NAN","NAN"],
    [1550040,"2026-04-18 21:00:00","51030","1.97","243.4","2.907","243.3","NAN","NAN","NAN","NAN","NAN"],
    [1550041,"2026-04-18 21:10:00","51031","1.4409999999999998","242.1","2.254","243.5","NAN","NAN","NAN","NAN","NAN"],
    [1550042,"2026-04-18 21:20:00","51032","1.55","243.7","2.581","243.7","NAN","NAN","NAN","NAN","NAN"],
    [1550043,"2026-04-18 21:30:00","51033","1.8559999999999999","243.9","2.548","243.9","NAN","NAN","NAN","NAN","NAN"],
    [1550044,"2026-04-18 21:40:00","51034","1.7080000000000002","243.8","2.613","244.1","NAN","NAN","NAN","NAN","NAN"],
    [1550045,"2026-04-18 21:50:00","51035","1.886","244.1","2.744","244.1","NAN","NAN","NAN","NAN","NAN"],
    [1550046,"2026-04-18 22:00:00","51036","1.7069999999999999","244.5","2.352","244.5","NAN","NAN","NAN","NAN","NAN"],
    [1550047,"2026-04-18 22:10:00","51037","1.848","245.0","2.515","244.9","NAN","NAN","NAN","NAN","NAN"],
    [1550048,"2026-04-18 22:20:00","51038","2.332","245.0","3.103","245.2","NAN","NAN","NAN","NAN","NAN"],
    [1550049,"2026-04-18 22:30:00","51039","2.077","246.1","3.005","246","NAN","NAN","NAN","NAN","NAN"],
    [1550050,"2026-04-18 22:40:00","51040","2.153","246.4","2.907","246.4","NAN","NAN","NAN","NAN","NAN"],
    [1550051,"2026-04-18 22:50:00","51041","2.149","246.1","3.495","246.6","NAN","NAN","NAN","NAN","NAN"],
    [1550052,"2026-04-18 23:00:00","51042","2.95","247.9","3.953","247.5","NAN","NAN","NAN","NAN","NAN"],
    [1550053,"2026-04-18 23:10:00","51043","2.782","251.3","3.985","249.3","NAN","NAN","NAN","NAN","NAN"],
    [1550054,"2026-04-18 23:20:00","51044","2.199","252.8","3.201","251.7","NAN","NAN","NAN","NAN","NAN"],
    [1550055,"2026-04-18 23:30:00","51045","2.29","255.5","3.169","257.8","NAN","NAN","NAN","NAN","NAN"],
    [1550056,"2026-04-18 23:40:00","51046","2.177","256.3","3.561","255.6","NAN","NAN","NAN","NAN","NAN"],
    [1550057,"2026-04-18 23:50:00","51047","2.158","258.7","3.201","256.7","NAN","NAN","NAN","NAN","NAN"],
    [1550058,"2026-04-19 00:00:00","51048","1.854","262.4","3.267","263.4","NAN","NAN","NAN","NAN","NAN"],
    [1550059,"2026-04-19 00:10:00","51049","1.865","262.8","3.267","260.3","NAN","NAN","NAN","NAN","NAN"],
    [1550060,"2026-04-19 00:20:00","51050","2.2119999999999997","260.1","3.463","260","NAN","NAN","NAN","NAN","NAN"],
    [1550061,"2026-04-19 00:30:00","51051","2.0580000000000003","264.5","3.201","256.7","NAN","NAN","NAN","NAN","NAN"],
    [1550062,"2026-04-19 00:40:00","51052","2.001","268.6","3.332","271.7","NAN","NAN","NAN","NAN","NAN"],
    [1550063,"2026-04-19 00:50:00","51053","2.233","266.1","3.724","263.5","NAN","NAN","NAN","NAN","NAN"],
    [1550064,"2026-04-19 01:00:00","51054","2.3480000000000003","261.8","3.659","256.1","NAN","NAN","NAN","NAN","NAN"],
    [1550065,"2026-04-19 01:10:00","51055","2.612","263.5","3.789","264.4","NAN","NAN","NAN","NAN","NAN"],
    [1550066,"2026-04-19 01:20:00","51056","2.1390000000000002","264.3","3.397","267.3","NAN","NAN","NAN","NAN","NAN"],
    [1550067,"2026-04-19 01:30:00","51057","2.306","263.8","3.332","268.6","NAN","NAN","NAN","NAN","NAN"],
    [1550068,"2026-04-19 01:40:00","51058","2.276","264.8","3.299","264.8","NAN","NAN","NAN","NAN","NAN"],
    [1550069,"2026-04-19 01:50:00","51059","2.639","268.2","4.116","265.8","NAN","NAN","NAN","NAN","NAN"],
    [1550070,"2026-04-19 02:00:00","51060","2.7060000000000004","271.6","3.985","268.8","NAN","NAN","NAN","NAN","NAN"],
    [1550071,"2026-04-19 02:10:00","51061","2.494","283.3","4.018","278.8","NAN","NAN","NAN","NAN","NAN"],
    [1550072,"2026-04-19 02:20:00","51062","2.262","286.0","3.495","281.4","NAN","NAN","NAN","NAN","NAN"],
    [1550073,"2026-04-19 02:30:00","51063","2.481","286.9","3.724","286.9","NAN","NAN","NAN","NAN","NAN"],
    [1550074,"2026-04-19 02:40:00","51064","2.535","289.3","4.116","290.3","NAN","NAN","NAN","NAN","NAN"],
    [1550075,"2026-04-19 02:50:00","51065","2.59","288.7","4.149","294.8","NAN","NAN","NAN","NAN","NAN"],
    [1550076,"2026-04-19 03:00:00","51066","1.45","287.9","2.646","284.9","NAN","NAN","NAN","NAN","NAN"],
    [1550077,"2026-04-19 03:10:00","51067","1.466","281.4","2.025","280.9","NAN","NAN","NAN","NAN","NAN"],
    [1550078,"2026-04-19 03:20:00","51068","1.973","278.3","2.907","276.5","NAN","NAN","NAN","NAN","NAN"],
    [1550079,"2026-04-19 03:30:00","51069","2.124","276.4","3.071","276.3","NAN","NAN","NAN","NAN","NAN"],
    [1550080,"2026-04-19 03:40:00","51070","2.113","281.5","3.397","276.2","NAN","NAN","NAN","NAN","NAN"],
    [1550081,"2026-04-19 03:50:00","51071","2.1590000000000003","279.7","3.234","281.2","NAN","NAN","NAN","NAN","NAN"],
    [1550082,"2026-04-19 04:00:00","51072","2.157","278.3","3.691","275.8","NAN","NAN","NAN","NAN","NAN"],
    [1550083,"2026-04-19 04:10:00","51073","1.064","284.0","2.94","287.1","NAN","NAN","NAN","NAN","NAN"],
    [1550084,"2026-04-19 04:20:00","51074","1.046","287.6","2.287","285.6","NAN","NAN","NAN","NAN","NAN"],
    [1550085,"2026-04-19 04:30:00","51075","1.454","288.7","2.548","290.8","NAN","NAN","NAN","NAN","NAN"],
    [1550086,"2026-04-19 04:40:00","51076","1.348","292.2","2.221","292.9","NAN","NAN","NAN","NAN","NAN"],
    [1550087,"2026-04-19 04:50:00","51077","1.071","293.0","2.156","294","NAN","NAN","NAN","NAN","NAN"],
    [1550088,"2026-04-19 05:00:00","51078","0.809","286.7","1.829","287.2","NAN","NAN","NAN","NAN","NAN"],
    [1550089,"2026-04-19 05:10:00","51079","1.34","282.8","2.156","280","NAN","NAN","NAN","NAN","NAN"],
    [1550090,"2026-04-19 05:20:00","51080","0.586","285.2","1.601","282.7","NAN","NAN","NAN","NAN","NAN"],
    [1550091,"2026-04-19 05:30:00","51081","0.0","0.0","0","0","NAN","NAN","NAN","NAN","NAN"],
    [1550092,"2026-04-19 05:40:00","51082","0.0","0.0","0","0","NAN","NAN","NAN","NAN","NAN"],
    [1550093,"2026-04-19 05:50:00","51083","0.008","285.3","0.294","285.3","NAN","NAN","NAN","NAN","NAN"],
    [1550094,"2026-04-19 06:00:00","51084","0.11800000000000001","276.4","0.621","275.7","NAN","NAN","NAN","NAN","NAN"],
    [1550095,"2026-04-19 06:10:00","51085","1.2429999999999999","274.1","2.254","273.4","NAN","NAN","NAN","NAN","NAN"],
    [1550096,"2026-04-19 06:20:00","51086","1.3130000000000002","274.4","2.548","279.3","NAN","NAN","NAN","NAN","NAN"],
    [1550097,"2026-04-19 06:30:00","51087","1.9169999999999998","273.0","2.809","272.2","NAN","NAN","NAN","NAN","NAN"],
    [1550098,"2026-04-19 06:40:00","51088","1.875","272.7","3.071","274.1","NAN","NAN","NAN","NAN","NAN"],
    [1550099,"2026-04-19 06:50:00","51089","2.44","282.8","4.508","286.1","NAN","NAN","NAN","NAN","NAN"],
    [1550100,"2026-04-19 07:00:00","51090","2.079","282.6","3.365","275.2","NAN","NAN","NAN","NAN","NAN"],
    [1550101,"2026-04-19 07:10:00","51091","2.352","278.2","3.855","277.8","NAN","NAN","NAN","NAN","NAN"],
    [1550102,"2026-04-19 07:20:00","51092","2.259","275.0","4.018","275.5","NAN","NAN","NAN","NAN","NAN"],
    [1550103,"2026-04-19 07:30:00","51093","2.839","273.7","4.671","272.6","NAN","NAN","NAN","NAN","NAN"],
    [1550104,"2026-04-19 07:40:00","51094","2.3680000000000003","273.3","4.671","274.9","NAN","NAN","NAN","NAN","NAN"],
    [1550105,"2026-04-19 07:50:00","51095","2.378","269.4","3.626","270.1","NAN","NAN","NAN","NAN","NAN"],
    [1550106,"2026-04-19 08:00:00","51096","1.9480000000000002","258.6","3.365","254","NAN","NAN","NAN","NAN","NAN"],
    [1550107,"2026-04-19 08:10:00","51097","1.4580000000000002","259.3","2.613","263.9","NAN","NAN","NAN","NAN","NAN"],
    [1550108,"2026-04-19 08:20:00","51098","1.9969999999999999","233.9","3.397","213.3","NAN","NAN","NAN","NAN","NAN"],
    [1550109,"2026-04-19 08:30:00","51099","2.292","250.7","3.626","259.2","NAN","NAN","NAN","NAN","NAN"],
    [1550110,"2026-04-19 08:40:00","51100","2.028","228.0","3.43","261.7","NAN","NAN","NAN","NAN","NAN"],
    [1550111,"2026-04-19 08:50:00","51101","2.325","222.8","4.279","252.1","NAN","NAN","NAN","NAN","NAN"],
    [1550112,"2026-04-19 09:00:00","51102","1.8019999999999998","210.5","2.973","211.2","NAN","NAN","NAN","NAN","NAN"],
    [1550113,"2026-04-19 09:10:00","51103","1.3769999999999998","206.7","3.136","200","NAN","NAN","NAN","NAN","NAN"],
    [1550114,"2026-04-19 09:20:00","51104","1.26","204.1","3.071","210.5","NAN","NAN","NAN","NAN","NAN"],
    [1550115,"2026-04-19 09:30:00","51105","1.975","183.1","3.822","213.5","NAN","NAN","NAN","NAN","NAN"],
    [1550116,"2026-04-19 09:40:00","51106","2.25","192.6","4.475","188.1","NAN","NAN","NAN","NAN","NAN"],
    [1550117,"2026-04-19 09:50:00","51107","2.448","192.4","4.149","212.3","NAN","NAN","NAN","NAN","NAN"],
    [1550118,"2026-04-19 10:00:00","51108","2.438","185.6","4.573","166.6","NAN","NAN","NAN","NAN","NAN"],
    [1550119,"2026-04-19 10:10:00","51109","3.2569999999999997","209.0","5.325","214.1","NAN","NAN","NAN","NAN","NAN"],
    [1550120,"2026-04-19 10:20:00","51110","2.735","209.7","5.194","216.5","NAN","NAN","NAN","NAN","NAN"],
    [1550121,"2026-04-19 10:30:00","51111","2.509","203.0","5.161","215.3","NAN","NAN","NAN","NAN","NAN"],
    [1550122,"2026-04-19 10:40:00","51112","2.193","204.4","4.018","204.5","NAN","NAN","NAN","NAN","NAN"],
    [1550123,"2026-04-19 10:50:00","51113","2.323","213.7","5.423","241.6","NAN","NAN","NAN","NAN","NAN"],
    [1550124,"2026-04-19 11:00:00","51114","3.319","211.5","5.455","213.8","NAN","NAN","NAN","NAN","NAN"],
    [1550125,"2026-04-19 11:10:00","51115","3.2939999999999996","218.2","6.272","220.7","NAN","NAN","NAN","NAN","NAN"],
    [1550126,"2026-04-19 11:20:00","51116","3.5610000000000004","210.6","5.913","205.6","NAN","NAN","NAN","NAN","NAN"],
    [1550127,"2026-04-19 11:30:00","51117","3.841","213.4","5.88","211.8","NAN","NAN","NAN","NAN","NAN"],
    [1550128,"2026-04-19 11:40:00","51118","3.862","217.1","6.239","212.7","NAN","NAN","NAN","NAN","NAN"],
    [1550129,"2026-04-19 11:50:00","51119","3.7430000000000003","219.4","6.207","230.7","NAN","NAN","NAN","NAN","NAN"],
    [1550130,"2026-04-19 12:00:00","51120","3.622","212.5","6.076","206.9","NAN","NAN","NAN","NAN","NAN"],
    [1550131,"2026-04-19 12:10:00","51121","4.0","217.0","6.958","208.3","NAN","NAN","NAN","NAN","NAN"],
    [1550132,"2026-04-19 12:20:00","51122","3.86","207.4","6.337","220.2","NAN","NAN","NAN","NAN","NAN"],
    [1550133,"2026-04-19 12:30:00","51123","3.603","204.6","6.337","207.5","NAN","NAN","NAN","NAN","NAN"],
    [1550134,"2026-04-19 12:40:00","51124","3.41","203.7","6.174","216.3","NAN","NAN","NAN","NAN","NAN"],
    [1550135,"2026-04-19 12:50:00","51125","3.255","183.8","5.488","181.2","NAN","NAN","NAN","NAN","NAN"],
    [1550136,"2026-04-19 13:00:00","51126","3.298","185.7","5.717","172.7","NAN","NAN","NAN","NAN","NAN"],
    [1550137,"2026-04-19 13:10:00","51127","3.301","201.8","5.847","204.1","NAN","NAN","NAN","NAN","NAN"],
    [1550138,"2026-04-19 13:20:00","51128","3.553","206.1","6.664","217.7","NAN","NAN","NAN","NAN","NAN"],
    [1550139,"2026-04-19 13:30:00","51129","4.157","218.2","6.468","202.4","NAN","NAN","NAN","NAN","NAN"],
    [1550140,"2026-04-19 13:40:00","51130","2.832","212.3","6.043","208.7","NAN","NAN","NAN","NAN","NAN"],
    [1550141,"2026-04-19 13:50:00","51131","3.279","206.0","6.337","209.8","NAN","NAN","NAN","NAN","NAN"],
    [1550142,"2026-04-19 14:00:00","51132","2.989","199.9","5.521","208.6","NAN","NAN","NAN","NAN","NAN"],
    [1550143,"2026-04-19 14:10:00","51133","3.002","189.8","5.782","180.9","NAN","NAN","NAN","NAN","NAN"],
    [1550144,"2026-04-19 14:20:00","51134","2.7289999999999996","181.8","5.325","170.2","NAN","NAN","NAN","NAN","NAN"],
    [1550145,"2026-04-19 14:30:00","51135","3.188","184.5","5.488","194","NAN","NAN","NAN","NAN","NAN"],
    [1550146,"2026-04-19 14:40:00","51136","2.898","200.8","6.043","217.6","NAN","NAN","NAN","NAN","NAN"],
    [1550147,"2026-04-19 14:50:00","51137","2.673","198.9","5.161","209.7","NAN","NAN","NAN","NAN","NAN"],
    [1550148,"2026-04-19 15:00:00","51138","3.4339999999999997","205.7","6.925","219.4","NAN","NAN","NAN","NAN","NAN"],
    [1550149,"2026-04-19 15:10:00","51139","3.625","210.2","6.435","222.4","NAN","NAN","NAN","NAN","NAN"],
    [1550150,"2026-04-19 15:20:00","51140","3.909","208.6","6.109","205.9","NAN","NAN","NAN","NAN","NAN"],
    [1550151,"2026-04-19 15:30:00","51141","3.605","212.0","5.423","210.8","NAN","NAN","NAN","NAN","NAN"],
    [1550152,"2026-04-19 15:40:00","51142","3.511","235.4","5.521","241.7","NAN","NAN","NAN","NAN","NAN"],
    [1550153,"2026-04-19 15:50:00","51143","2.69","223.1","5.161","206.8","NAN","NAN","NAN","NAN","NAN"],
    [1550154,"2026-04-19 16:00:00","51144","2.428","203.1","5.292","213.7","NAN","NAN","NAN","NAN","NAN"],
    [1550155,"2026-04-19 16:10:00","51145","2.92","211.6","5.194","213","NAN","NAN","NAN","NAN","NAN"],
    [1550156,"2026-04-19 16:20:00","51146","3.139","196.9","5.259","217.3","NAN","NAN","NAN","NAN","NAN"],
    [1550157,"2026-04-19 16:30:00","51147","2.759","213.0","5.129","224.2","NAN","NAN","NAN","NAN","NAN"],
    [1550158,"2026-04-19 16:40:00","51148","2.926","203.7","4.867","210.2","NAN","NAN","NAN","NAN","NAN"],
    [1550159,"2026-04-19 16:50:00","51149","2.375","192.9","4.475","167.7","NAN","NAN","NAN","NAN","NAN"],
    [1550160,"2026-04-19 17:00:00","51150","3.167","205.7","4.606","209.1","NAN","NAN","NAN","NAN","NAN"],
    [1550161,"2026-04-19 17:10:00","51151","2.658","211.9","4.573","215.8","NAN","NAN","NAN","NAN","NAN"],
    [1550162,"2026-04-19 17:20:00","51152","2.03","207.5","3.397","206.7","NAN","NAN","NAN","NAN","NAN"],
    [1550163,"2026-04-19 17:30:00","51153","1.865","205.0","3.332","206","NAN","NAN","NAN","NAN","NAN"],
    [1550164,"2026-04-19 17:40:00","51154","1.702","204.3","2.842","210.8","NAN","NAN","NAN","NAN","NAN"],
    [1550165,"2026-04-19 17:50:00","51155","1.7630000000000001","210.6","2.646","213.9","NAN","NAN","NAN","NAN","NAN"],
    [1550166,"2026-04-19 18:00:00","51156","2.076","209.7","3.887","213.5","NAN","NAN","NAN","NAN","NAN"],
    [1550167,"2026-04-19 18:10:00","51157","2.458","214.6","3.855","220.8","NAN","NAN","NAN","NAN","NAN"],
    [1550168,"2026-04-19 18:20:00","51158","2.4130000000000003","209.9","3.789","210.9","NAN","NAN","NAN","NAN","NAN"],
    [1550169,"2026-04-19 18:30:00","51159","1.931","208.2","3.071","218.6","NAN","NAN","NAN","NAN","NAN"],
    [1550170,"2026-04-19 18:40:00","51160","1.527","215.4","3.267","207.8","NAN","NAN","NAN","NAN","NAN"],
    [1550171,"2026-04-19 18:50:00","51161","2.03","210.5","2.711","209.8","NAN","NAN","NAN","NAN","NAN"],
    [1550172,"2026-04-19 19:00:00","51162","1.4780000000000002","209.5","2.744","205.7","NAN","NAN","NAN","NAN","NAN"],
    [1550173,"2026-04-19 19:10:00","51163","1.455","209.1","2.156","204.1","NAN","NAN","NAN","NAN","NAN"],
    [1550174,"2026-04-19 19:20:00","51164","1.5019999999999998","219.7","2.679","226.6","NAN","NAN","NAN","NAN","NAN"],
    [1550175,"2026-04-19 19:30:00","51165","1.5090000000000001","226.3","2.483","226.6","NAN","NAN","NAN","NAN","NAN"],
    [1550176,"2026-04-19 19:40:00","51166","1.034","228.7","2.091","229.3","NAN","NAN","NAN","NAN","NAN"],
    [1550177,"2026-04-19 19:50:00","51167","1.139","229.5","2.221","223.9","NAN","NAN","NAN","NAN","NAN"],
    [1550178,"2026-04-19 20:00:00","51168","1.044","228.9","2.091","223.4","NAN","NAN","NAN","NAN","NAN"],
    [1550179,"2026-04-19 20:10:00","51169","1.745","237.2","2.679","236.5","NAN","NAN","NAN","NAN","NAN"],
    [1550180,"2026-04-19 20:20:00","51170","1.723","238.8","3.103","239.1","NAN","NAN","NAN","NAN","NAN"],
    [1550181,"2026-04-19 20:30:00","51171","1.357","243.1","3.169","243.1","NAN","NAN","NAN","NAN","NAN"],
    [1550182,"2026-04-19 20:40:00","51172","0.696","243.4","1.307","243.4","NAN","NAN","NAN","NAN","NAN"],
    [1550183,"2026-04-19 20:50:00","51173","1.071","243.7","1.96","244","NAN","NAN","NAN","NAN","NAN"],
    [1550184,"2026-04-19 21:00:00","51174","1.235","245.4","2.156","244.9","NAN","NAN","NAN","NAN","NAN"],
    [1550185,"2026-04-19 21:10:00","51175","1.57","247.4","2.352","247.8","NAN","NAN","NAN","NAN","NAN"],
    [1550186,"2026-04-19 21:20:00","51176","1.911","263.5","2.907","274","NAN","NAN","NAN","NAN","NAN"],
    [1550187,"2026-04-19 21:30:00","51177","2.082","272.8","3.103","274.6","NAN","NAN","NAN","NAN","NAN"],
    [1550188,"2026-04-19 21:40:00","51178","2.461","260.6","3.659","263","NAN","NAN","NAN","NAN","NAN"],
    [1550189,"2026-04-19 21:50:00","51179","2.542","251.5","3.463","248.9","NAN","NAN","NAN","NAN","NAN"],
    [1550190,"2026-04-19 22:00:00","51180","2.254","255.2","3.43","249.4","NAN","NAN","NAN","NAN","NAN"],
    [1550191,"2026-04-19 22:10:00","51181","2.451","254.9","3.528","260.2","NAN","NAN","NAN","NAN","NAN"],
    [1550192,"2026-04-19 22:20:00","51182","2.401","237.8","3.953","252.8","NAN","NAN","NAN","NAN","NAN"],
    [1550193,"2026-04-19 22:30:00","51183","2.1390000000000002","247.7","4.214","265.3","NAN","NAN","NAN","NAN","NAN"],
    [1550194,"2026-04-19 22:40:00","51184","2.8510000000000004","270.7","5.161","257.9","NAN","NAN","NAN","NAN","NAN"],
    [1550195,"2026-04-19 22:50:00","51185","3.409","287.6","5.847","277.2","NAN","NAN","NAN","NAN","NAN"],
    [1550196,"2026-04-19 23:00:00","51186","3.142","260.7","5.129","251.9","NAN","NAN","NAN","NAN","NAN"],
    [1550197,"2026-04-19 23:10:00","51187","3.2289999999999996","251.2","4.41","253.7","NAN","NAN","NAN","NAN","NAN"],
    [1550198,"2026-04-19 23:20:00","51188","3.472","248.8","5.325","253.6","NAN","NAN","NAN","NAN","NAN"],
    [1550199,"2026-04-19 23:30:00","51189","3.301","247.7","4.998","255","NAN","NAN","NAN","NAN","NAN"],
    [1550200,"2026-04-19 23:40:00","51190","2.7689999999999997","245.8","4.867","247.3","NAN","NAN","NAN","NAN","NAN"],
    [1550201,"2026-04-19 23:50:00","51191","2.853","292.3","4.541","302.7","NAN","NAN","NAN","NAN","NAN"],
    [1550202,"2026-04-20 00:00:00","51192","2.551","286.6","4.41","279.2","NAN","NAN","NAN","NAN","NAN"],
    [1550203,"2026-04-20 00:10:00","51193","3.4739999999999998","259.4","5.129","257","NAN","NAN","NAN","NAN","NAN"],
    [1550204,"2026-04-20 00:20:00","51194","2.437","257.8","4.312","264.1","NAN","NAN","NAN","NAN","NAN"],
    [1550205,"2026-04-20 00:30:00","51195","2.616","247.7","3.985","251.6","NAN","NAN","NAN","NAN","NAN"],
    [1550206,"2026-04-20 00:40:00","51196","1.787","254.8","3.299","255.6","NAN","NAN","NAN","NAN","NAN"],
    [1550207,"2026-04-20 00:50:00","51197","1.4280000000000002","250.2","2.221","244.9","NAN","NAN","NAN","NAN","NAN"],
    [1550208,"2026-04-20 01:00:00","51198","0.9670000000000001","249.0","1.699","250.6","NAN","NAN","NAN","NAN","NAN"],
    [1550209,"2026-04-20 01:10:00","51199","0.732","245.3","1.535","249.2","NAN","NAN","NAN","NAN","NAN"],
    [1550210,"2026-04-20 01:20:00","51200","0.9590000000000001","241.4","1.797","238.5","NAN","NAN","NAN","NAN","NAN"],
    [1550211,"2026-04-20 01:30:00","51201","1.18","238.2","1.895","238.2","NAN","NAN","NAN","NAN","NAN"],
    [1550212,"2026-04-20 01:40:00","51202","0.502","239.5","1.699","239.5","NAN","NAN","NAN","NAN","NAN"],
    [1550213,"2026-04-20 01:50:00","51203","0.963","238.0","1.927","237.6","NAN","NAN","NAN","NAN","NAN"],
    [1550214,"2026-04-20 02:00:00","51204","1.618","236.8","2.777","234.1","NAN","NAN","NAN","NAN","NAN"],
    [1550215,"2026-04-20 02:10:00","51205","2.503","217.3","3.43","213.2","NAN","NAN","NAN","NAN","NAN"],
    [1550216,"2026-04-20 02:20:00","51206","1.3619999999999999","214.9","3.038","217.2","NAN","NAN","NAN","NAN","NAN"],
    [1550217,"2026-04-20 02:30:00","51207","0.905","218.3","2.254","212.9","NAN","NAN","NAN","NAN","NAN"],
    [1550218,"2026-04-20 02:40:00","51208","1.094","218.3","2.352","213.7","NAN","NAN","NAN","NAN","NAN"],
    [1550219,"2026-04-20 02:50:00","51209","0.897","220.9","2.287","224.2","NAN","NAN","NAN","NAN","NAN"],
    [1550220,"2026-04-20 03:00:00","51210","0.335","227.5","1.372","228.7","NAN","NAN","NAN","NAN","NAN"],
    [1550221,"2026-04-20 03:10:00","51211","0.9790000000000001","228.8","2.287","228.6","NAN","NAN","NAN","NAN","NAN"],
    [1550222,"2026-04-20 03:20:00","51212","0.513","230.2","1.666","230.7","NAN","NAN","NAN","NAN","NAN"],
    [1550223,"2026-04-20 03:30:00","51213","1.105","231.0","2.319","231.1","NAN","NAN","NAN","NAN","NAN"],
    [1550224,"2026-04-20 03:40:00","51214","0.262","231.8","1.503","232.1","NAN","NAN","NAN","NAN","NAN"],
    [1550225,"2026-04-20 03:50:00","51215","0.485","231.4","2.058","232.2","NAN","NAN","NAN","NAN","NAN"],
    [1550226,"2026-04-20 04:00:00","51216","0.5","233.3","1.666","233.5","NAN","NAN","NAN","NAN","NAN"],
    [1550227,"2026-04-20 04:10:00","51217","0.547","233.7","1.143","233.8","NAN","NAN","NAN","NAN","NAN"],
    [1550228,"2026-04-20 04:20:00","51218","0.8440000000000001","233.6","2.091","233.9","NAN","NAN","NAN","NAN","NAN"],
    [1550229,"2026-04-20 04:30:00","51219","0.601","234.0","1.274","233.5","NAN","NAN","NAN","NAN","NAN"],
    [1550230,"2026-04-20 04:40:00","51220","0.98","234.2","2.352","234.9","NAN","NAN","NAN","NAN","NAN"],
    [1550231,"2026-04-20 04:50:00","51221","1.963","239.3","3.038","234.5","NAN","NAN","NAN","NAN","NAN"],
    [1550232,"2026-04-20 05:00:00","51222","1.955","244.7","3.038","241.1","NAN","NAN","NAN","NAN","NAN"],
    [1550233,"2026-04-20 05:10:00","51223","1.5859999999999999","235.4","2.581","236.4","NAN","NAN","NAN","NAN","NAN"],
    [1550234,"2026-04-20 05:20:00","51224","1.867","244.5","3.071","247.6","NAN","NAN","NAN","NAN","NAN"],
    [1550235,"2026-04-20 05:30:00","51225","1.61","252.0","2.94","253.2","NAN","NAN","NAN","NAN","NAN"],
    [1550236,"2026-04-20 05:40:00","51226","0.912","253.2","2.646","250","NAN","NAN","NAN","NAN","NAN"],
    [1550237,"2026-04-20 05:50:00","51227","1.84","254.1","3.593","249.2","NAN","NAN","NAN","NAN","NAN"],
    [1550238,"2026-04-20 06:00:00","51228","1.758","258.2","3.397","253.2","NAN","NAN","NAN","NAN","NAN"],
    [1550239,"2026-04-20 06:10:00","51229","1.4080000000000001","264.8","2.483","266.6","NAN","NAN","NAN","NAN","NAN"],
    [1550240,"2026-04-20 06:20:00","51230","1.861","254.5","3.071","248.1","NAN","NAN","NAN","NAN","NAN"],
    [1550241,"2026-04-20 06:30:00","51231","1.591","249.1","3.136","261.2","NAN","NAN","NAN","NAN","NAN"],
    [1550242,"2026-04-20 06:40:00","51232","2.303","244.4","3.561","240.1","NAN","NAN","NAN","NAN","NAN"],
    [1550243,"2026-04-20 06:50:00","51233","2.585","243.4","3.626","246.7","NAN","NAN","NAN","NAN","NAN"],
    [1550244,"2026-04-20 07:00:00","51234","1.999","244.1","3.92","240.9","NAN","NAN","NAN","NAN","NAN"],
    [1550245,"2026-04-20 07:10:00","51235","2.17","252.9","3.691","256","NAN","NAN","NAN","NAN","NAN"],
    [1550246,"2026-04-20 07:20:00","51236","2.8160000000000003","246.6","4.247","242","NAN","NAN","NAN","NAN","NAN"],
    [1550247,"2026-04-20 07:30:00","51237","2.9389999999999996","246.2","5.031","257.5","NAN","NAN","NAN","NAN","NAN"],
    [1550248,"2026-04-20 07:40:00","51238","3.3710000000000004","245.9","5.423","257.3","NAN","NAN","NAN","NAN","NAN"],
    [1550249,"2026-04-20 07:50:00","51239","3.52","236.8","5.325","254.9","NAN","NAN","NAN","NAN","NAN"],
    [1550250,"2026-04-20 08:00:00","51240","3.758","253.8","5.978","253.7","NAN","NAN","NAN","NAN","NAN"],
    [1550251,"2026-04-20 08:10:00","51241","3.8169999999999997","248.0","5.553","253","NAN","NAN","NAN","NAN","NAN"],
    [1550252,"2026-04-20 08:20:00","51242","3.3710000000000004","237.4","5.586","236.9","NAN","NAN","NAN","NAN","NAN"],
    [1550253,"2026-04-20 08:30:00","51243","2.832","246.9","5.586","260.7","NAN","NAN","NAN","NAN","NAN"],
    [1550254,"2026-04-20 08:40:00","51244","2.58","243.3","4.933","256.2","NAN","NAN","NAN","NAN","NAN"],
    [1550255,"2026-04-20 08:50:00","51245","3.065","239.9","5.259","238.3","NAN","NAN","NAN","NAN","NAN"],
    [1550256,"2026-04-20 09:00:00","51246","3.577","242.2","6.729","253","NAN","NAN","NAN","NAN","NAN"],
    [1550257,"2026-04-20 09:10:00","51247","3.485","238.2","6.239","248.7","NAN","NAN","NAN","NAN","NAN"],
    [1550258,"2026-04-20 09:20:00","51248","3.577","220.5","6.043","203.6","NAN","NAN","NAN","NAN","NAN"],
    [1550259,"2026-04-20 09:30:00","51249","4.4510000000000005","210.8","6.566","208.2","NAN","NAN","NAN","NAN","NAN"],
    [1550260,"2026-04-20 09:40:00","51250","3.738","218.5","5.847","199.1","NAN","NAN","NAN","NAN","NAN"],
    [1550261,"2026-04-20 09:50:00","51251","4.412","207.2","6.435","212.3","NAN","NAN","NAN","NAN","NAN"],
    [1550262,"2026-04-20 10:00:00","51252","3.79","212.6","6.631","212.7","NAN","NAN","NAN","NAN","NAN"],
    [1550263,"2026-04-20 10:10:00","51253","3.758","212.2","6.141","211","NAN","NAN","NAN","NAN","NAN"],
    [1550264,"2026-04-20 10:20:00","51254","3.293","206.4","5.717","220.4","NAN","NAN","NAN","NAN","NAN"],
    [1550265,"2026-04-20 10:30:00","51255","4.361000000000001","208.6","6.925","210.8","NAN","NAN","NAN","NAN","NAN"],
    [1550266,"2026-04-20 10:40:00","51256","4.583","208.6","7.089","207.9","NAN","NAN","NAN","NAN","NAN"],
    [1550267,"2026-04-20 10:50:00","51257","4.5569999999999995","209.2","7.089","219.3","NAN","NAN","NAN","NAN","NAN"],
    [1550268,"2026-04-20 11:00:00","51258","5.092","207.6","7.677","210.2","NAN","NAN","NAN","NAN","NAN"],
    [1550269,"2026-04-20 11:10:00","51259","4.985","205.4","7.709","210","NAN","NAN","NAN","NAN","NAN"],
    [1550270,"2026-04-20 11:20:00","51260","5.051","210.5","8.59","214","NAN","NAN","NAN","NAN","NAN"],
    [1550271,"2026-04-20 11:30:00","51261","5.327999999999999","206.4","7.905","210.8","NAN","NAN","NAN","NAN","NAN"],
    [1550272,"2026-04-20 11:40:00","51262","5.0569999999999995","212.3","8.04","212.8","NAN","NAN","NAN","NAN","NAN"],
    [1550273,"2026-04-20 11:50:00","51263","5.461","212.3","8.23","205","NAN","NAN","NAN","NAN","NAN"],
    [1550274,"2026-04-20 12:00:00","51264","5.087","215.3","8.23","208.8","NAN","NAN","NAN","NAN","NAN"],
    [1550275,"2026-04-20 12:10:00","51265","5.26","216.3","8.62","218.6","NAN","NAN","NAN","NAN","NAN"],
    [1550276,"2026-04-20 12:20:00","51266","5.484","209.2","7.873","205.7","NAN","NAN","NAN","NAN","NAN"],
    [1550277,"2026-04-20 12:30:00","51267","5.2010000000000005","215.1","8.3","219.6","NAN","NAN","NAN","NAN","NAN"],
    [1550278,"2026-04-20 12:40:00","51268","4.883","220.6","7.644","208.2","NAN","NAN","NAN","NAN","NAN"],
    [1550279,"2026-04-20 12:50:00","51269","4.7589999999999995","218.1","7.252","217.5","NAN","NAN","NAN","NAN","NAN"],
    [1550280,"2026-04-20 13:00:00","51270","5.184","211.6","7.415","205.4","NAN","NAN","NAN","NAN","NAN"],
    [1550281,"2026-04-20 13:10:00","51271","4.87","216.2","7.905","232.8","NAN","NAN","NAN","NAN","NAN"],
    [1550282,"2026-04-20 13:20:00","51272","4.386","217.2","7.546","198.7","NAN","NAN","NAN","NAN","NAN"],
    [1550283,"2026-04-20 13:30:00","51273","4.343","223.7","8","209.1","NAN","NAN","NAN","NAN","NAN"],
    [1550284,"2026-04-20 13:40:00","51274","4.021","222.1","6.729","209.4","NAN","NAN","NAN","NAN","NAN"],
    [1550285,"2026-04-20 13:50:00","51275","3.866","231.2","7.775","224.6","NAN","NAN","NAN","NAN","NAN"],
    [1550286,"2026-04-20 14:00:00","51276","4.04","216.1","7.415","225.5","NAN","NAN","NAN","NAN","NAN"],
    [1550287,"2026-04-20 14:10:00","51277","4.508","218.4","7.481","203.8","NAN","NAN","NAN","NAN","NAN"],
    [1550288,"2026-04-20 14:20:00","51278","4.4110000000000005","216.1","7.644","206.5","NAN","NAN","NAN","NAN","NAN"],
    [1550289,"2026-04-20 14:30:00","51279","4.545","221.5","8","234.4","NAN","NAN","NAN","NAN","NAN"],
    [1550290,"2026-04-20 14:40:00","51280","5.053","224.3","8.53","226.1","NAN","NAN","NAN","NAN","NAN"],
    [1550291,"2026-04-20 14:50:00","51281","5.042","220.0","8.56","214.8","NAN","NAN","NAN","NAN","NAN"],
    [1550292,"2026-04-20 15:00:00","51282","4.593999999999999","216.2","7.971","230.4","NAN","NAN","NAN","NAN","NAN"],
    [1550293,"2026-04-20 15:10:00","51283","4.104","227.8","8.13","216","NAN","NAN","NAN","NAN","NAN"],
    [1550294,"2026-04-20 15:20:00","51284","4.76","225.4","7.84","218.1","NAN","NAN","NAN","NAN","NAN"],
    [1550295,"2026-04-20 15:30:00","51285","4.194","223.6","7.317","221.6","NAN","NAN","NAN","NAN","NAN"],
    [1550296,"2026-04-20 15:40:00","51286","3.912","219.4","7.317","221.1","NAN","NAN","NAN","NAN","NAN"],
    [1550297,"2026-04-20 15:50:00","51287","3.168","221.6","5.913","216.2","NAN","NAN","NAN","NAN","NAN"],
    [1550298,"2026-04-20 16:00:00","51288","3.502","220.3","6.109","226.5","NAN","NAN","NAN","NAN","NAN"],
    [1550299,"2026-04-20 16:10:00","51289","3.056","220.2","5.455","226.8","NAN","NAN","NAN","NAN","NAN"],
    [1550300,"2026-04-20 16:20:00","51290","2.609","207.6","4.443","201.2","NAN","NAN","NAN","NAN","NAN"],
    [1550301,"2026-04-20 16:30:00","51291","1.982","214.2","3.593","204.3","NAN","NAN","NAN","NAN","NAN"],
    [1550302,"2026-04-20 16:40:00","51292","1.6159999999999999","186.0","2.679","184.2","NAN","NAN","NAN","NAN","NAN"],
    [1550303,"2026-04-20 16:50:00","51293","2.585","174.9","4.475","163.2","NAN","NAN","NAN","NAN","NAN"],
    [1550304,"2026-04-20 17:00:00","51294","2.213","185.1","4.443","177.4","NAN","NAN","NAN","NAN","NAN"],
    [1550305,"2026-04-20 17:10:00","51295","2.2769999999999997","150.4","3.626","142.4","NAN","NAN","NAN","NAN","NAN"],
    [1550306,"2026-04-20 17:20:00","51296","3.7569999999999997","80.1","5.749","78.16","NAN","NAN","NAN","NAN","NAN"],
    [1550307,"2026-04-20 17:30:00","51297","3.3110000000000004","80.8","5.423","84.6","NAN","NAN","NAN","NAN","NAN"],
    [1550308,"2026-04-20 17:40:00","51298","1.786","94.5","3.071","95.1","NAN","NAN","NAN","NAN","NAN"],
    [1550309,"2026-04-20 17:50:00","51299","3.194","78.82","4.541","72.43","NAN","NAN","NAN","NAN","NAN"],
    [1550310,"2026-04-20 18:00:00","51300","2.383","101.7","3.985","81.7","NAN","NAN","NAN","NAN","NAN"],
    [1550311,"2026-04-20 18:10:00","51301","1.851","101.3","2.875","117.9","NAN","NAN","NAN","NAN","NAN"],
    [1550312,"2026-04-20 18:20:00","51302","1.84","107.8","3.463","110.7","NAN","NAN","NAN","NAN","NAN"],
    [1550313,"2026-04-20 18:30:00","51303","2.1319999999999997","121.6","3.005","124.2","NAN","NAN","NAN","NAN","NAN"],
    [1550314,"2026-04-20 18:40:00","51304","1.536","121.2","2.352","122.5","NAN","NAN","NAN","NAN","NAN"],
    [1550315,"2026-04-20 18:50:00","51305","1.6340000000000001","118.1","2.744","125.2","NAN","NAN","NAN","NAN","NAN"],
    [1550316,"2026-04-20 19:00:00","51306","2.425","137.6","3.691","157.4","NAN","NAN","NAN","NAN","NAN"],
    [1550317,"2026-04-20 19:10:00","51307","2.384","166.1","3.626","167.1","NAN","NAN","NAN","NAN","NAN"],
    [1550318,"2026-04-20 19:20:00","51308","1.3319999999999999","173.5","2.907","167.8","NAN","NAN","NAN","NAN","NAN"],
    [1550319,"2026-04-20 19:30:00","51309","0.9179999999999999","178.5","1.797","178.1","NAN","NAN","NAN","NAN","NAN"],
    [1550320,"2026-04-20 19:40:00","51310","1.043","209.0","2.907","221","NAN","NAN","NAN","NAN","NAN"],
    [1550321,"2026-04-20 19:50:00","51311","1.608","229.6","3.561","237.9","NAN","NAN","NAN","NAN","NAN"],
    [1550322,"2026-04-20 20:00:00","51312","1.165","238.7","2.091","238.4","NAN","NAN","NAN","NAN","NAN"],
    [1550323,"2026-04-20 20:10:00","51313","0.878","239.8","1.666","240.3","NAN","NAN","NAN","NAN","NAN"],
    [1550324,"2026-04-20 20:20:00","51314","1.443","244.0","2.483","245","NAN","NAN","NAN","NAN","NAN"],
    [1550325,"2026-04-20 20:30:00","51315","0.562","249.0","2.45","249","NAN","NAN","NAN","NAN","NAN"],
    [1550326,"2026-04-20 20:40:00","51316","0.075","250.3","0.523","250.3","NAN","NAN","NAN","NAN","NAN"],
    [1550327,"2026-04-20 20:50:00","51317","0.5479999999999999","250.5","1.437","250.5","NAN","NAN","NAN","NAN","NAN"],
    [1550328,"2026-04-20 21:00:00","51318","1.4480000000000002","258.0","2.973","265.3","NAN","NAN","NAN","NAN","NAN"],
    [1550329,"2026-04-20 21:10:00","51319","2.0340000000000003","268.5","3.43","268.2","NAN","NAN","NAN","NAN","NAN"],
    [1550330,"2026-04-20 21:20:00","51320","1.5759999999999998","275.7","2.875","273.6","NAN","NAN","NAN","NAN","NAN"],
    [1550331,"2026-04-20 21:30:00","51321","1.439","281.6","2.319","282.2","NAN","NAN","NAN","NAN","NAN"],
    [1550332,"2026-04-20 21:40:00","51322","1.6480000000000001","264.7","2.711","261.7","NAN","NAN","NAN","NAN","NAN"],
    [1550333,"2026-04-20 21:50:00","51323","1.879","267.0","2.94","257.6","NAN","NAN","NAN","NAN","NAN"],
    [1550334,"2026-04-20 22:00:00","51324","2.011","274.9","3.626","278.7","NAN","NAN","NAN","NAN","NAN"],
    [1550335,"2026-04-20 22:10:00","51325","2.733","271.5","3.757","277.5","NAN","NAN","NAN","NAN","NAN"],
    [1550336,"2026-04-20 22:20:00","51326","2.319","278.6","3.103","281.8","NAN","NAN","NAN","NAN","NAN"],
    [1550337,"2026-04-20 22:30:00","51327","2.026","271.6","3.267","273","NAN","NAN","NAN","NAN","NAN"],
    [1550338,"2026-04-20 22:40:00","51328","2.039","265.6","3.332","260.9","NAN","NAN","NAN","NAN","NAN"],
    [1550339,"2026-04-20 22:50:00","51329","2.2569999999999997","257.5","3.103","251.2","NAN","NAN","NAN","NAN","NAN"],
    [1550340,"2026-04-20 23:00:00","51330","2.827","246.4","3.757","247.1","NAN","NAN","NAN","NAN","NAN"],
    [1550341,"2026-04-20 23:10:00","51331","2.214","251.7","3.659","240.8","NAN","NAN","NAN","NAN","NAN"],
    [1550342,"2026-04-20 23:20:00","51332","1.8530000000000002","261.5","2.875","263","NAN","NAN","NAN","NAN","NAN"],
    [1550343,"2026-04-20 23:30:00","51333","1.8880000000000001","267.0","2.973","268.7","NAN","NAN","NAN","NAN","NAN"],
    [1550344,"2026-04-20 23:40:00","51334","1.761","271.0","2.842","271.3","NAN","NAN","NAN","NAN","NAN"],
    [1550345,"2026-04-20 23:50:00","51335","1.0290000000000001","272.3","2.123","272.2","NAN","NAN","NAN","NAN","NAN"],
    [1550346,"2026-04-21 00:00:00","51336","1.291","273.0","1.895","273.1","NAN","NAN","NAN","NAN","NAN"],
    [1550347,"2026-04-21 00:10:00","51337","1.4609999999999999","273.1","2.287","273.4","NAN","NAN","NAN","NAN","NAN"],
    [1550348,"2026-04-21 00:20:00","51338","1.32","273.2","2.058","273.6","NAN","NAN","NAN","NAN","NAN"],
    [1550349,"2026-04-21 00:30:00","51339","1.636","266.1","2.352","274.2","NAN","NAN","NAN","NAN","NAN"],
    [1550350,"2026-04-21 00:40:00","51340","1.835","258.9","2.875","255.5","NAN","NAN","NAN","NAN","NAN"],
    [1550351,"2026-04-21 00:50:00","51341","2.009","262.4","3.136","267.5","NAN","NAN","NAN","NAN","NAN"],
    [1550352,"2026-04-21 01:00:00","51342","1.973","271.2","3.071","267.3","NAN","NAN","NAN","NAN","NAN"],
    [1550353,"2026-04-21 01:10:00","51343","1.29","271.5","2.189","275.1","NAN","NAN","NAN","NAN","NAN"],
    [1550354,"2026-04-21 01:20:00","51344","1.432","265.9","2.189","269.6","NAN","NAN","NAN","NAN","NAN"],
    [1550355,"2026-04-21 01:30:00","51345","1.45","269.8","2.287","275.7","NAN","NAN","NAN","NAN","NAN"],
    [1550356,"2026-04-21 01:40:00","51346","1.949","274.9","3.234","277.3","NAN","NAN","NAN","NAN","NAN"],
    [1550357,"2026-04-21 01:50:00","51347","1.807","272.1","3.103","271.7","NAN","NAN","NAN","NAN","NAN"],
    [1550358,"2026-04-21 02:00:00","51348","1.524","266.9","2.417","267.8","NAN","NAN","NAN","NAN","NAN"],
    [1550359,"2026-04-21 02:10:00","51349","1.712","265.9","2.777","268.2","NAN","NAN","NAN","NAN","NAN"],
    [1550360,"2026-04-21 02:20:00","51350","1.624","276.1","2.515","269.2","NAN","NAN","NAN","NAN","NAN"],
    [1550361,"2026-04-21 02:30:00","51351","1.847","273.2","3.038","270.9","NAN","NAN","NAN","NAN","NAN"],
    [1550362,"2026-04-21 02:40:00","51352","1.624","274.3","2.156","281.8","NAN","NAN","NAN","NAN","NAN"],
    [1550363,"2026-04-21 02:50:00","51353","1.719","273.6","2.483","266.5","NAN","NAN","NAN","NAN","NAN"],
    [1550364,"2026-04-21 03:00:00","51354","1.788","273.4","2.777","282.5","NAN","NAN","NAN","NAN","NAN"],
    [1550365,"2026-04-21 03:10:00","51355","1.611","281.7","2.777","283.3","NAN","NAN","NAN","NAN","NAN"],
    [1550366,"2026-04-21 03:20:00","51356","1.396","275.6","2.548","284.9","NAN","NAN","NAN","NAN","NAN"],
    [1550367,"2026-04-21 03:30:00","51357","1.653","270.4","2.875","271.6","NAN","NAN","NAN","NAN","NAN"],
    [1550368,"2026-04-21 03:40:00","51358","1.739","278.9","2.809","280.5","NAN","NAN","NAN","NAN","NAN"],
    [1550369,"2026-04-21 03:50:00","51359","1.8030000000000002","273.7","3.038","269","NAN","NAN","NAN","NAN","NAN"],
    [1550370,"2026-04-21 04:00:00","51360","2.213","271.4","3.495","272.5","NAN","NAN","NAN","NAN","NAN"],
    [1550371,"2026-04-21 04:10:00","51361","1.944","265.7","3.038","273.2","NAN","NAN","NAN","NAN","NAN"],
    [1550372,"2026-04-21 04:20:00","51362","2.032","260.2","3.267","257.8","NAN","NAN","NAN","NAN","NAN"],
    [1550373,"2026-04-21 04:30:00","51363","2.553","256.0","3.953","252.7","NAN","NAN","NAN","NAN","NAN"],
    [1550374,"2026-04-21 04:40:00","51364","2.597","256.1","3.887","265.7","NAN","NAN","NAN","NAN","NAN"],
    [1550375,"2026-04-21 04:50:00","51365","2.3819999999999997","261.3","4.018","268","NAN","NAN","NAN","NAN","NAN"],
    [1550376,"2026-04-21 05:00:00","51366","2.7","262.9","4.9","267.2","NAN","NAN","NAN","NAN","NAN"],
    [1550377,"2026-04-21 05:10:00","51367","2.533","256.0","4.704","266.8","NAN","NAN","NAN","NAN","NAN"],
    [1550378,"2026-04-21 05:20:00","51368","2.32","253.2","3.561","249.1","NAN","NAN","NAN","NAN","NAN"],
    [1550379,"2026-04-21 05:30:00","51369","2.316","254.6","3.822","249.6","NAN","NAN","NAN","NAN","NAN"],
    [1550380,"2026-04-21 05:40:00","51370","2.339","260.6","4.377","252","NAN","NAN","NAN","NAN","NAN"],
    [1550381,"2026-04-21 05:50:00","51371","2.043","261.7","3.528","266.4","NAN","NAN","NAN","NAN","NAN"],
    [1550382,"2026-04-21 06:00:00","51372","2.4819999999999998","265.1","3.561","265.9","NAN","NAN","NAN","NAN","NAN"],
    [1550383,"2026-04-21 06:10:00","51373","2.079","267.4","3.365","272.8","NAN","NAN","NAN","NAN","NAN"],
    [1550384,"2026-04-21 06:20:00","51374","1.61","269.2","2.809","266.3","NAN","NAN","NAN","NAN","NAN"],
    [1550385,"2026-04-21 06:30:00","51375","1.339","272.7","2.548","273.5","NAN","NAN","NAN","NAN","NAN"],
    [1550386,"2026-04-21 06:40:00","51376","0.233","276.2","1.143","276.3","NAN","NAN","NAN","NAN","NAN"],
    [1550387,"2026-04-21 06:50:00","51377","0.059000000000000004","275.4","1.078","276.3","NAN","NAN","NAN","NAN","NAN"],
    [1550388,"2026-04-21 07:00:00","51378","0.145","258.4","0.588","258.7","NAN","NAN","NAN","NAN","NAN"],
    [1550389,"2026-04-21 07:10:00","51379","0.441","254.1","1.241","253.8","NAN","NAN","NAN","NAN","NAN"],
    [1550390,"2026-04-21 07:20:00","51380","0.364","252.4","1.013","252.4","NAN","NAN","NAN","NAN","NAN"],
    [1550391,"2026-04-21 07:30:00","51381","0.359","252.2","0.915","252.2","NAN","NAN","NAN","NAN","NAN"],
    [1550392,"2026-04-21 07:40:00","51382","0.32899999999999996","266.1","1.307","261.9","NAN","NAN","NAN","NAN","NAN"],
    [1550393,"2026-04-21 07:50:00","51383","0.29","258.7","1.111","258.8","NAN","NAN","NAN","NAN","NAN"],
    [1550394,"2026-04-21 08:00:00","51384","0.321","266.0","1.176","272.5","NAN","NAN","NAN","NAN","NAN"],
    [1550395,"2026-04-21 08:10:00","51385","0.897","268.8","1.993","280.6","NAN","NAN","NAN","NAN","NAN"],
    [1550396,"2026-04-21 08:20:00","51386","1.2109999999999999","258.8","2.417","278.8","NAN","NAN","NAN","NAN","NAN"],
    [1550397,"2026-04-21 08:30:00","51387","0.971","249.2","1.993","251.6","NAN","NAN","NAN","NAN","NAN"],
    [1550398,"2026-04-21 08:40:00","51388","0.725","237.7","1.829","235.8","NAN","NAN","NAN","NAN","NAN"],
    [1550399,"2026-04-21 08:50:00","51389","0.804","147.5","1.601","235.6","NAN","NAN","NAN","NAN","NAN"],
    [1550400,"2026-04-21 09:00:00","51390","1.8619999999999999","91.6","3.789","93.5","NAN","NAN","NAN","NAN","NAN"],
    [1550401,"2026-04-21 09:10:00","51391","2.185","83.2","3.691","72.53","NAN","NAN","NAN","NAN","NAN"],
    [1550402,"2026-04-21 09:20:00","51392","2.761","69.61","3.561","72.34","NAN","NAN","NAN","NAN","NAN"],
    [1550403,"2026-04-21 09:30:00","51393","2.721","88.0","4.018","70.14","NAN","NAN","NAN","NAN","NAN"],
    [1550404,"2026-04-21 09:40:00","51394","2.761","93.2","3.757","96.6","NAN","NAN","NAN","NAN","NAN"],
    [1550405,"2026-04-21 09:50:00","51395","2.13","104.8","3.495","94.1","NAN","NAN","NAN","NAN","NAN"],
    [1550406,"2026-04-21 10:00:00","51396","2.055","114.5","2.973","119.3","NAN","NAN","NAN","NAN","NAN"],
    [1550407,"2026-04-21 10:10:00","51397","1.6480000000000001","115.0","2.646","113.8","NAN","NAN","NAN","NAN","NAN"],
    [1550408,"2026-04-21 10:20:00","51398","1.781","104.2","3.005","93.2","NAN","NAN","NAN","NAN","NAN"],
    [1550409,"2026-04-21 10:30:00","51399","2.12","107.5","3.299","96.1","NAN","NAN","NAN","NAN","NAN"],
    [1550410,"2026-04-21 10:40:00","51400","1.807","108.8","3.103","104.8","NAN","NAN","NAN","NAN","NAN"],
    [1550411,"2026-04-21 10:50:00","51401","2.358","105.9","3.397","105.3","NAN","NAN","NAN","NAN","NAN"],
    [1550412,"2026-04-21 11:00:00","51402","2.332","111.3","3.659","113.2","NAN","NAN","NAN","NAN","NAN"],
    [1550413,"2026-04-21 11:10:00","51403","2.8489999999999998","115.3","4.083","126.8","NAN","NAN","NAN","NAN","NAN"],
    [1550414,"2026-04-21 11:20:00","51404","2.937","113.2","4.279","113","NAN","NAN","NAN","NAN","NAN"],
    [1550415,"2026-04-21 11:30:00","51405","3.135","111.3","4.541","115.1","NAN","NAN","NAN","NAN","NAN"],
    [1550416,"2026-04-21 11:40:00","51406","3.014","111.0","4.933","114.5","NAN","NAN","NAN","NAN","NAN"],
    [1550417,"2026-04-21 11:50:00","51407","3.096","113.0","4.704","104.2","NAN","NAN","NAN","NAN","NAN"],
    [1550418,"2026-04-21 12:00:00","51408","2.77","123.0","4.181","139","NAN","NAN","NAN","NAN","NAN"],
    [1550419,"2026-04-21 12:10:00","51409","2.82","138.9","4.312","141.6","NAN","NAN","NAN","NAN","NAN"],
    [1550420,"2026-04-21 12:20:00","51410","2.544","129.8","3.953","137.8","NAN","NAN","NAN","NAN","NAN"],
    [1550421,"2026-04-21 12:30:00","51411","2.676","116.8","4.181","107.6","NAN","NAN","NAN","NAN","NAN"],
    [1550422,"2026-04-21 12:40:00","51412","3.235","125.6","4.573","136.3","NAN","NAN","NAN","NAN","NAN"],
    [1550423,"2026-04-21 12:50:00","51413","3.484","130.2","5.194","135","NAN","NAN","NAN","NAN","NAN"],
    [1550424,"2026-04-21 13:00:00","51414","3.42","134.3","5.161","134.5","NAN","NAN","NAN","NAN","NAN"],
    [1550425,"2026-04-21 13:10:00","51415","3.233","127.3","4.998","136.8","NAN","NAN","NAN","NAN","NAN"],
    [1550426,"2026-04-21 13:20:00","51416","3.417","134.5","4.965","137.2","NAN","NAN","NAN","NAN","NAN"],
    [1550427,"2026-04-21 13:30:00","51417","3.6660000000000004","133.4","5.292","133.5","NAN","NAN","NAN","NAN","NAN"],
    [1550428,"2026-04-21 13:40:00","51418","3.612","129.2","4.965","136.9","NAN","NAN","NAN","NAN","NAN"],
    [1550429,"2026-04-21 13:50:00","51419","3.036","130.6","4.541","145.4","NAN","NAN","NAN","NAN","NAN"],
    [1550430,"2026-04-21 14:00:00","51420","2.8680000000000003","127.9","4.671","134.4","NAN","NAN","NAN","NAN","NAN"],
    [1550431,"2026-04-21 14:10:00","51421","2.84","117.4","4.312","113.2","NAN","NAN","NAN","NAN","NAN"],
    [1550432,"2026-04-21 14:20:00","51422","3.012","114.1","4.214","110.3","NAN","NAN","NAN","NAN","NAN"],
    [1550433,"2026-04-21 14:30:00","51423","3.1510000000000002","117.0","4.541","128.6","NAN","NAN","NAN","NAN","NAN"],
    [1550434,"2026-04-21 14:40:00","51424","2.747","126.5","4.443","128.4","NAN","NAN","NAN","NAN","NAN"],
    [1550435,"2026-04-21 14:50:00","51425","2.667","183.4","4.9","169.2","NAN","NAN","NAN","NAN","NAN"],
    [1550436,"2026-04-21 15:00:00","51426","3.123","179.6","5.88","180.1","NAN","NAN","NAN","NAN","NAN"],
    [1550437,"2026-04-21 15:10:00","51427","2.815","175.5","4.802","171.9","NAN","NAN","NAN","NAN","NAN"],
    [1550438,"2026-04-21 15:20:00","51428","2.501","179.8","5.129","178.6","NAN","NAN","NAN","NAN","NAN"],
    [1550439,"2026-04-21 15:30:00","51429","3.115","174.4","4.737","164.9","NAN","NAN","NAN","NAN","NAN"],
    [1550440,"2026-04-21 15:40:00","51430","2.6919999999999997","188.1","4.671","170.7","NAN","NAN","NAN","NAN","NAN"],
    [1550441,"2026-04-21 15:50:00","51431","3.377","205.0","5.194","213","NAN","NAN","NAN","NAN","NAN"],
    [1550442,"2026-04-21 16:00:00","51432","3.262","205.6","4.704","214.5","NAN","NAN","NAN","NAN","NAN"],
    [1550443,"2026-04-21 16:10:00","51433","2.767","207.2","4.443","209.4","NAN","NAN","NAN","NAN","NAN"],
    [1550444,"2026-04-21 16:20:00","51434","3.5780000000000003","210.4","5.586","210.8","NAN","NAN","NAN","NAN","NAN"],
    [1550445,"2026-04-21 16:30:00","51435","3.1689999999999996","207.7","5.39","209.3","NAN","NAN","NAN","NAN","NAN"],
    [1550446,"2026-04-21 16:40:00","51436","3.403","207.6","6.468","213","NAN","NAN","NAN","NAN","NAN"],
    [1550447,"2026-04-21 16:50:00","51437","3.639","206.9","5.651","210.7","NAN","NAN","NAN","NAN","NAN"],
    [1550448,"2026-04-21 17:00:00","51438","3.33","217.2","5.194","235.9","NAN","NAN","NAN","NAN","NAN"],
    [1550449,"2026-04-21 17:10:00","51439","2.6519999999999997","221.1","4.835","218.6","NAN","NAN","NAN","NAN","NAN"],
    [1550450,"2026-04-21 17:20:00","51440","3.377","211.1","5.031","215.5","NAN","NAN","NAN","NAN","NAN"],
    [1550451,"2026-04-21 17:30:00","51441","2.445","210.1","3.953","207.3","NAN","NAN","NAN","NAN","NAN"],
    [1550452,"2026-04-21 17:40:00","51442","2.253","226.0","3.92","231.9","NAN","NAN","NAN","NAN","NAN"],
    [1550453,"2026-04-21 17:50:00","51443","1.8940000000000001","229.2","3.757","238.8","NAN","NAN","NAN","NAN","NAN"],
    [1550454,"2026-04-21 18:00:00","51444","1.949","224.7","4.443","241.4","NAN","NAN","NAN","NAN","NAN"],
    [1550455,"2026-04-21 18:10:00","51445","1.8119999999999998","229.4","3.887","238.3","NAN","NAN","NAN","NAN","NAN"],
    [1550456,"2026-04-21 18:20:00","51446","1.569","224.6","3.267","217.5","NAN","NAN","NAN","NAN","NAN"],
    [1550457,"2026-04-21 18:30:00","51447","1.525","223.6","2.744","223.3","NAN","NAN","NAN","NAN","NAN"],
    [1550458,"2026-04-21 18:40:00","51448","1.048","215.8","2.385","212.8","NAN","NAN","NAN","NAN","NAN"],
    [1550459,"2026-04-21 18:50:00","51449","1.156","214.9","2.352","211.3","NAN","NAN","NAN","NAN","NAN"],
    [1550460,"2026-04-21 19:00:00","51450","1.311","210.2","2.94","209.1","NAN","NAN","NAN","NAN","NAN"],
    [1550461,"2026-04-21 19:10:00","51451","2.012","208.8","2.94","208.5","NAN","NAN","NAN","NAN","NAN"],
    [1550462,"2026-04-21 19:20:00","51452","1.465","209.7","2.809","210.7","NAN","NAN","NAN","NAN","NAN"],
    [1550463,"2026-04-21 19:30:00","51453","1.024","208.9","2.809","208.7","NAN","NAN","NAN","NAN","NAN"],
    [1550464,"2026-04-21 19:40:00","51454","1.37","211.7","2.483","207.8","NAN","NAN","NAN","NAN","NAN"],
    [1550465,"2026-04-21 19:50:00","51455","1.882","211.1","3.103","205.7","NAN","NAN","NAN","NAN","NAN"],
    [1550466,"2026-04-21 20:00:00","51456","1.858","210.8","2.875","204.8","NAN","NAN","NAN","NAN","NAN"],
    [1550467,"2026-04-21 20:10:00","51457","1.95","215.0","3.822","236.2","NAN","NAN","NAN","NAN","NAN"],
    [1550468,"2026-04-21 20:20:00","51458","2.045","228.1","3.332","230.5","NAN","NAN","NAN","NAN","NAN"],
    [1550469,"2026-04-21 20:30:00","51459","2.057","239.6","3.626","241.3","NAN","NAN","NAN","NAN","NAN"],
    [1550470,"2026-04-21 20:40:00","51460","2.246","235.8","3.855","243.9","NAN","NAN","NAN","NAN","NAN"],
    [1550471,"2026-04-21 20:50:00","51461","2.36","239.8","3.887","241.8","NAN","NAN","NAN","NAN","NAN"],
    [1550472,"2026-04-21 21:00:00","51462","2.214","239.0","3.92","244.8","NAN","NAN","NAN","NAN","NAN"],
    [1550473,"2026-04-21 21:10:00","51463","2.327","236.9","3.626","239","NAN","NAN","NAN","NAN","NAN"],
    [1550474,"2026-04-21 21:20:00","51464","2.188","239.4","3.626","239","NAN","NAN","NAN","NAN","NAN"],
    [1550475,"2026-04-21 21:30:00","51465","2.053","241.5","3.528","230.3","NAN","NAN","NAN","NAN","NAN"],
    [1550476,"2026-04-21 21:40:00","51466","2.1830000000000003","247.0","3.593","251.3","NAN","NAN","NAN","NAN","NAN"],
    [1550477,"2026-04-21 21:50:00","51467","2.463","238.8","3.659","246.4","NAN","NAN","NAN","NAN","NAN"],
    [1550478,"2026-04-21 22:00:00","51468","1.97","242.5","3.593","240.8","NAN","NAN","NAN","NAN","NAN"],
    [1550479,"2026-04-21 22:10:00","51469","2.313","255.1","4.051","249.1","NAN","NAN","NAN","NAN","NAN"],
    [1550480,"2026-04-21 22:20:00","51470","2.225","251.9","3.691","246.2","NAN","NAN","NAN","NAN","NAN"],
    [1550481,"2026-04-21 22:30:00","51471","1.726","251.5","3.299","252.7","NAN","NAN","NAN","NAN","NAN"],
    [1550482,"2026-04-21 22:40:00","51472","2.242","249.2","3.953","247.6","NAN","NAN","NAN","NAN","NAN"],
    [1550483,"2026-04-21 22:50:00","51473","2.63","250.5","4.214","252.5","NAN","NAN","NAN","NAN","NAN"],
    [1550484,"2026-04-21 23:00:00","51474","2.114","248.2","3.201","252.5","NAN","NAN","NAN","NAN","NAN"],
    [1550485,"2026-04-21 23:10:00","51475","2.485","247.7","3.528","247.2","NAN","NAN","NAN","NAN","NAN"],
    [1550486,"2026-04-21 23:20:00","51476","2.2319999999999998","247.2","3.724","244.1","NAN","NAN","NAN","NAN","NAN"],
    [1550487,"2026-04-21 23:30:00","51477","2.22","248.6","3.92","252.4","NAN","NAN","NAN","NAN","NAN"],
    [1550488,"2026-04-21 23:40:00","51478","2.4619999999999997","253.5","3.626","246.3","NAN","NAN","NAN","NAN","NAN"],
    [1550489,"2026-04-21 23:50:00","51479","2.6060000000000003","245.9","3.528","251.2","NAN","NAN","NAN","NAN","NAN"],
    [1550490,"2026-04-22 00:00:00","51480","2.622","248.4","3.724","248.2","NAN","NAN","NAN","NAN","NAN"],
    [1550491,"2026-04-22 00:10:00","51481","2.278","245.9","3.691","245.1","NAN","NAN","NAN","NAN","NAN"],
    [1550492,"2026-04-22 00:20:00","51482","2.65","251.2","3.593","255.7","NAN","NAN","NAN","NAN","NAN"],
    [1550493,"2026-04-22 00:30:00","51483","1.6869999999999998","260.7","2.744","261.4","NAN","NAN","NAN","NAN","NAN"],
    [1550494,"2026-04-22 00:40:00","51484","1.125","261.5","2.025","261.6","NAN","NAN","NAN","NAN","NAN"],
    [1550495,"2026-04-22 00:50:00","51485","2.029","256.7","2.907","248.4","NAN","NAN","NAN","NAN","NAN"],
    [1550496,"2026-04-22 01:00:00","51486","0.32299999999999995","261.5","1.829","261.5","NAN","NAN","NAN","NAN","NAN"],
    [1550497,"2026-04-22 01:10:00","51487","0.005","261.5","0.261","261.5","NAN","NAN","NAN","NAN","NAN"],
    [1550498,"2026-04-22 01:20:00","51488","0.026000000000000002","261.5","0.392","261.5","NAN","NAN","NAN","NAN","NAN"],
    [1550499,"2026-04-22 01:30:00","51489","0.212","261.6","1.013","261.6","NAN","NAN","NAN","NAN","NAN"],
    [1550500,"2026-04-22 01:40:00","51490","0.0","0.0","0","0","NAN","NAN","NAN","NAN","NAN"],
    [1550501,"2026-04-22 01:50:00","51491","0.237","260.6","1.045","259.7","NAN","NAN","NAN","NAN","NAN"],
    [1550502,"2026-04-22 02:00:00","51492","1.1059999999999999","259.3","1.764","258.1","NAN","NAN","NAN","NAN","NAN"],
    [1550503,"2026-04-22 02:10:00","51493","0.5870000000000001","248.3","1.209","250","NAN","NAN","NAN","NAN","NAN"],
    [1550504,"2026-04-22 02:20:00","51494","1.067","251.6","1.731","250.5","NAN","NAN","NAN","NAN","NAN"],
    [1550505,"2026-04-22 02:30:00","51495","0.721","249.7","1.143","250.6","NAN","NAN","NAN","NAN","NAN"],
    [1550506,"2026-04-22 02:40:00","51496","0.877","252.3","2.254","261.3","NAN","NAN","NAN","NAN","NAN"],
    [1550507,"2026-04-22 02:50:00","51497","1.126","258.8","1.96","261.3","NAN","NAN","NAN","NAN","NAN"],
    [1550508,"2026-04-22 03:00:00","51498","1.743","256.8","2.613","257.7","NAN","NAN","NAN","NAN","NAN"],
    [1550509,"2026-04-22 03:10:00","51499","1.65","260.0","2.94","259.7","NAN","NAN","NAN","NAN","NAN"],
    [1550510,"2026-04-22 03:20:00","51500","1.53","259.7","2.646","262.7","NAN","NAN","NAN","NAN","NAN"],
    [1550511,"2026-04-22 03:30:00","51501","1.8530000000000002","262.2","2.809","263","NAN","NAN","NAN","NAN","NAN"],
    [1550512,"2026-04-22 03:40:00","51502","1.581","265.0","2.581","266.3","NAN","NAN","NAN","NAN","NAN"],
    [1550513,"2026-04-22 03:50:00","51503","1.8780000000000001","262.3","2.907","267.4","NAN","NAN","NAN","NAN","NAN"],
    [1550514,"2026-04-22 04:00:00","51504","2.176","260.7","3.201","259.2","NAN","NAN","NAN","NAN","NAN"],
    [1550515,"2026-04-22 04:10:00","51505","2.76","265.9","3.822","268.5","NAN","NAN","NAN","NAN","NAN"],
    [1550516,"2026-04-22 04:20:00","51506","2.121","267.6","3.201","262.7","NAN","NAN","NAN","NAN","NAN"],
    [1550517,"2026-04-22 04:30:00","51507","1.9809999999999999","263.9","3.43","267.4","NAN","NAN","NAN","NAN","NAN"],
    [1550518,"2026-04-22 04:40:00","51508","2.069","266.7","3.528","266.9","NAN","NAN","NAN","NAN","NAN"],
    [1550519,"2026-04-22 04:50:00","51509","1.8840000000000001","261.8","3.169","253.9","NAN","NAN","NAN","NAN","NAN"],
    [1550520,"2026-04-22 05:00:00","51510","2.7710000000000004","255.9","4.508","249.7","NAN","NAN","NAN","NAN","NAN"],
    [1550521,"2026-04-22 05:10:00","51511","2.2119999999999997","256.3","3.495","251.8","NAN","NAN","NAN","NAN","NAN"],
    [1550522,"2026-04-22 05:20:00","51512","2.102","267.0","3.267","265.1","NAN","NAN","NAN","NAN","NAN"],
    [1550523,"2026-04-22 05:30:00","51513","1.5430000000000001","269.2","2.515","269.2","NAN","NAN","NAN","NAN","NAN"],
    [1550524,"2026-04-22 05:40:00","51514","1.879","269.0","2.809","270.1","NAN","NAN","NAN","NAN","NAN"],
    [1550525,"2026-04-22 05:50:00","51515","1.656","272.0","2.679","271.1","NAN","NAN","NAN","NAN","NAN"],
    [1550526,"2026-04-22 06:00:00","51516","1.0979999999999999","271.8","2.45","269.1","NAN","NAN","NAN","NAN","NAN"],
    [1550527,"2026-04-22 06:10:00","51517","0.24100000000000002","274.5","1.372","275","NAN","NAN","NAN","NAN","NAN"],
    [1550528,"2026-04-22 06:20:00","51518","0.508","267.8","1.372","269.5","NAN","NAN","NAN","NAN","NAN"],
    [1550529,"2026-04-22 06:30:00","51519","1.225","272.1","2.45","275.2","NAN","NAN","NAN","NAN","NAN"],
    [1550530,"2026-04-22 06:40:00","51520","1.167","272.1","2.287","271","NAN","NAN","NAN","NAN","NAN"],
    [1550531,"2026-04-22 06:50:00","51521","1.4409999999999998","270.9","2.091","273","NAN","NAN","NAN","NAN","NAN"],
    [1550532,"2026-04-22 07:00:00","51522","1.051","271.5","1.862","270.7","NAN","NAN","NAN","NAN","NAN"],
    [1550533,"2026-04-22 07:10:00","51523","0.885","265.6","2.025","266.3","NAN","NAN","NAN","NAN","NAN"],
    [1550534,"2026-04-22 07:20:00","51524","1.5030000000000001","269.9","2.123","271.7","NAN","NAN","NAN","NAN","NAN"],
    [1550535,"2026-04-22 07:30:00","51525","0.597","273.3","1.437","276.7","NAN","NAN","NAN","NAN","NAN"],
    [1550536,"2026-04-22 07:40:00","51526","0.863","268.1","1.895","264.9","NAN","NAN","NAN","NAN","NAN"],
    [1550537,"2026-04-22 07:50:00","51527","0.375","259.0","1.699","259.8","NAN","NAN","NAN","NAN","NAN"],
    [1550538,"2026-04-22 08:00:00","51528","0.016","258.3","0.294","258.4","NAN","NAN","NAN","NAN","NAN"],
    [1550539,"2026-04-22 08:10:00","51529","0.24","259.1","1.013","258.7","NAN","NAN","NAN","NAN","NAN"],
    [1550540,"2026-04-22 08:20:00","51530","0.179","256.6","0.817","256.6","NAN","NAN","NAN","NAN","NAN"],
    [1550541,"2026-04-22 08:30:00","51531","0.19","255.7","1.241","254.9","NAN","NAN","NAN","NAN","NAN"],
    [1550542,"2026-04-22 08:40:00","51532","0.11","254.8","1.307","254.1","NAN","NAN","NAN","NAN","NAN"],
    [1550543,"2026-04-22 08:50:00","51533","0.401","259.3","1.535","253.8","NAN","NAN","NAN","NAN","NAN"],
    [1550544,"2026-04-22 09:00:00","51534","0.615","275.7","2.94","301.2","NAN","NAN","NAN","NAN","NAN"],
    [1550545,"2026-04-22 09:10:00","51535","1.54","271.4","2.842","274.9","NAN","NAN","NAN","NAN","NAN"],
    [1550546,"2026-04-22 09:20:00","51536","0.792","170.7","2.777","268","NAN","NAN","NAN","NAN","NAN"],
    [1550547,"2026-04-22 09:30:00","51537","1.435","103.2","3.234","100","NAN","NAN","NAN","NAN","NAN"],
    [1550548,"2026-04-22 09:40:00","51538","2.141","186.3","4.181","174","NAN","NAN","NAN","NAN","NAN"],
    [1550549,"2026-04-22 09:50:00","51539","2.526","171.4","4.018","167.1","NAN","NAN","NAN","NAN","NAN"],
    [1550550,"2026-04-22 10:00:00","51540","2.226","184.7","3.267","201.7","NAN","NAN","NAN","NAN","NAN"],
    [1550551,"2026-04-22 10:10:00","51541","2.025","179.6","3.43","168","NAN","NAN","NAN","NAN","NAN"],
    [1550552,"2026-04-22 10:20:00","51542","2.6210000000000004","165.8","4.083","152.2","NAN","NAN","NAN","NAN","NAN"],
    [1550553,"2026-04-22 10:30:00","51543","2.765","153.3","4.443","126","NAN","NAN","NAN","NAN","NAN"],
    [1550554,"2026-04-22 10:40:00","51544","3.194","143.7","4.639","134.1","NAN","NAN","NAN","NAN","NAN"],
    [1550555,"2026-04-22 10:50:00","51545","2.872","133.2","4.443","128.1","NAN","NAN","NAN","NAN","NAN"],
    [1550556,"2026-04-22 11:00:00","51546","3.0269999999999997","138.9","4.737","141.6","NAN","NAN","NAN","NAN","NAN"],
    [1550557,"2026-04-22 11:10:00","51547","2.89","108.0","4.181","101.4","NAN","NAN","NAN","NAN","NAN"],
    [1550558,"2026-04-22 11:20:00","51548","2.7439999999999998","107.8","4.247","121.3","NAN","NAN","NAN","NAN","NAN"],
    [1550559,"2026-04-22 11:30:00","51549","2.6439999999999997","96.9","5.096","97.7","NAN","NAN","NAN","NAN","NAN"],
    [1550560,"2026-04-22 11:40:00","51550","3.116","97.3","5.227","102.6","NAN","NAN","NAN","NAN","NAN"],
    [1550561,"2026-04-22 11:50:00","51551","2.7460000000000004","91.1","5.847","93.9","NAN","NAN","NAN","NAN","NAN"],
    [1550562,"2026-04-22 12:00:00","51552","2.6039999999999996","89.6","5.161","66.16","NAN","NAN","NAN","NAN","NAN"],
    [1550563,"2026-04-22 12:10:00","51553","2.827","98.4","4.606","101.2","NAN","NAN","NAN","NAN","NAN"],
    [1550564,"2026-04-22 12:20:00","51554","3.335","104.7","5.292","99.6","NAN","NAN","NAN","NAN","NAN"],
    [1550565,"2026-04-22 12:30:00","51555","3.7739999999999996","100.4","5.717","93.5","NAN","NAN","NAN","NAN","NAN"],
    [1550566,"2026-04-22 12:40:00","51556","3.487","96.3","5.684","105.1","NAN","NAN","NAN","NAN","NAN"],
    [1550567,"2026-04-22 12:50:00","51557","3.533","95.4","6.337","97.3","NAN","NAN","NAN","NAN","NAN"],
    [1550568,"2026-04-22 13:00:00","51558","3.326","94.7","5.749","87.7","NAN","NAN","NAN","NAN","NAN"],
    [1550569,"2026-04-22 13:10:00","51559","3.008","101.0","4.998","112.9","NAN","NAN","NAN","NAN","NAN"],
    [1550570,"2026-04-22 13:20:00","51560","3.884","82.8","6.043","92.4","NAN","NAN","NAN","NAN","NAN"],
    [1550571,"2026-04-22 13:30:00","51561","3.8989999999999996","89.4","6.795","85","NAN","NAN","NAN","NAN","NAN"],
    [1550572,"2026-04-22 13:40:00","51562","3.4989999999999997","96.7","6.37","94.2","NAN","NAN","NAN","NAN","NAN"],
    [1550573,"2026-04-22 13:50:00","51563","3.8110000000000004","92.7","7.023","81.9","NAN","NAN","NAN","NAN","NAN"],
    [1550574,"2026-04-22 14:00:00","51564","4.425","90.5","6.925","88.4","NAN","NAN","NAN","NAN","NAN"],
    [1550575,"2026-04-22 14:10:00","51565","4.249","98.0","6.207","97.3","NAN","NAN","NAN","NAN","NAN"],
    [1550576,"2026-04-22 14:20:00","51566","4.343","101.1","6.011","106.1","NAN","NAN","NAN","NAN","NAN"],
    [1550577,"2026-04-22 14:30:00","51567","3.3689999999999998","90.4","5.978","101.3","NAN","NAN","NAN","NAN","NAN"],
    [1550578,"2026-04-22 14:40:00","51568","3.4330000000000003","92.0","5.455","80.8","NAN","NAN","NAN","NAN","NAN"],
    [1550579,"2026-04-22 14:50:00","51569","3.3680000000000003","101.5","5.521","118.7","NAN","NAN","NAN","NAN","NAN"],
    [1550580,"2026-04-22 15:00:00","51570","2.8110000000000004","87.5","5.129","85.8","NAN","NAN","NAN","NAN","NAN"],
    [1550581,"2026-04-22 15:10:00","51571","3.1260000000000003","97.0","5.259","85.6","NAN","NAN","NAN","NAN","NAN"],
    [1550582,"2026-04-22 15:20:00","51572","3.2680000000000002","100.9","5.063","105","NAN","NAN","NAN","NAN","NAN"],
    [1550583,"2026-04-22 15:30:00","51573","2.734","95.7","4.835","66.13","NAN","NAN","NAN","NAN","NAN"],
    [1550584,"2026-04-22 15:40:00","51574","3.123","80.5","5.194","67.45","NAN","NAN","NAN","NAN","NAN"],
    [1550585,"2026-04-22 15:50:00","51575","4.707","70.59","6.958","64.47","NAN","NAN","NAN","NAN","NAN"],
    [1550586,"2026-04-22 16:00:00","51576","5.025","68.85","7.677","61.91","NAN","NAN","NAN","NAN","NAN"],
    [1550587,"2026-04-22 16:10:00","51577","5.74","67.85","8.95","65.59","NAN","NAN","NAN","NAN","NAN"],
    [1550588,"2026-04-22 16:20:00","51578","6.321000000000001","66.67","8.62","67.34","NAN","NAN","NAN","NAN","NAN"],
    [1550589,"2026-04-22 16:30:00","51579","6.004","65.2","8.85","67.99","NAN","NAN","NAN","NAN","NAN"],
    [1550590,"2026-04-22 16:40:00","51580","5.409","66.8","9.11","67.35","NAN","NAN","NAN","NAN","NAN"],
    [1550591,"2026-04-22 16:50:00","51581","5.235","69.1","8.07","71.6","NAN","NAN","NAN","NAN","NAN"],
    [1550592,"2026-04-22 17:00:00","51582","5.012","62.79","7.938","63.12","NAN","NAN","NAN","NAN","NAN"],
    [1550593,"2026-04-22 17:10:00","51583","4.641","65.79","8.49","67.79","NAN","NAN","NAN","NAN","NAN"],
    [1550594,"2026-04-22 17:20:00","51584","3.929","72.56","7.611","58.15","NAN","NAN","NAN","NAN","NAN"],
    [1550595,"2026-04-22 17:30:00","51585","3.638","66.08","7.285","66.94","NAN","NAN","NAN","NAN","NAN"],
    [1550596,"2026-04-22 17:40:00","51586","2.6069999999999998","74.94","5.749","80.7","NAN","NAN","NAN","NAN","NAN"],
    [1550597,"2026-04-22 17:50:00","51587","2.56","72.21","4.181","74.48","NAN","NAN","NAN","NAN","NAN"],
    [1550598,"2026-04-22 18:00:00","51588","2.492","61.52","4.214","63.45","NAN","NAN","NAN","NAN","NAN"],
    [1550599,"2026-04-22 18:10:00","51589","2.7539999999999996","60.49","4.345","67.86","NAN","NAN","NAN","NAN","NAN"],
    [1550600,"2026-04-22 18:20:00","51590","2.9","78.6","5.096","77.34","NAN","NAN","NAN","NAN","NAN"],
    [1550601,"2026-04-22 18:30:00","51591","3.778","73.75","5.913","70.53","NAN","NAN","NAN","NAN","NAN"],
    [1550602,"2026-04-22 18:40:00","51592","2.957","61.85","4.475","58.11","NAN","NAN","NAN","NAN","NAN"],
    [1550603,"2026-04-22 18:50:00","51593","2.718","74.73","4.933","90.1","NAN","NAN","NAN","NAN","NAN"],
    [1550604,"2026-04-22 19:00:00","51594","4.63","72.26","7.35","64.22","NAN","NAN","NAN","NAN","NAN"],
    [1550605,"2026-04-22 19:10:00","51595","4.052","86.0","7.807","96.7","NAN","NAN","NAN","NAN","NAN"],
    [1550606,"2026-04-22 19:20:00","51596","5.16","94.1","10.19","89","NAN","NAN","NAN","NAN","NAN"],
    [1550607,"2026-04-22 19:30:00","51597","5.307","95.9","9.05","95.2","NAN","NAN","NAN","NAN","NAN"],
    [1550608,"2026-04-22 19:40:00","51598","4.111000000000001","87.6","8.62","95.2","NAN","NAN","NAN","NAN","NAN"],
    [1550609,"2026-04-22 19:50:00","51599","4.798","78.14","8.04","66.05","NAN","NAN","NAN","NAN","NAN"],
    [1550610,"2026-04-22 20:00:00","51600","6.778","72.55","11.69","67.24","NAN","NAN","NAN","NAN","NAN"],
    [1550611,"2026-04-22 20:10:00","51601","5.687","79.18","9.51","70.08","NAN","NAN","NAN","NAN","NAN"],
    [1550612,"2026-04-22 20:20:00","51602","6.099","76.58","10.26","77.62","NAN","NAN","NAN","NAN","NAN"],
    [1550613,"2026-04-22 20:30:00","51603","6.609","74.95","10.78","73.19","NAN","NAN","NAN","NAN","NAN"],
    [1550614,"2026-04-22 20:40:00","51604","5.521","77.46","9.8","73.62","NAN","NAN","NAN","NAN","NAN"],
    [1550615,"2026-04-22 20:50:00","51605","5.932","74.82","8.72","78.92","NAN","NAN","NAN","NAN","NAN"],
    [1550616,"2026-04-22 21:00:00","51606","5.726","77.4","9.87","73.75","NAN","NAN","NAN","NAN","NAN"],
    [1550617,"2026-04-22 21:10:00","51607","5.4510000000000005","79.99","8.72","64.67","NAN","NAN","NAN","NAN","NAN"],
    [1550618,"2026-04-22 21:20:00","51608","4.716","78.53","8.69","62.69","NAN","NAN","NAN","NAN","NAN"],
    [1550619,"2026-04-22 21:30:00","51609","5.053","75.47","8.53","82.6","NAN","NAN","NAN","NAN","NAN"],
    [1550620,"2026-04-22 21:40:00","51610","3.6719999999999997","77.27","7.579","68.22","NAN","NAN","NAN","NAN","NAN"],
    [1550621,"2026-04-22 21:50:00","51611","4.3260000000000005","80.2","7.971","71.5","NAN","NAN","NAN","NAN","NAN"],
    [1550622,"2026-04-22 22:00:00","51612","5.721","74.86","9.7","73.72","NAN","NAN","NAN","NAN","NAN"],
    [1550623,"2026-04-22 22:10:00","51613","5.722","75.25","9.8","67.13","NAN","NAN","NAN","NAN","NAN"],
    [1550624,"2026-04-22 22:20:00","51614","5.093","76.49","8.4","73.74","NAN","NAN","NAN","NAN","NAN"],
    [1550625,"2026-04-22 22:30:00","51615","5.051","76.33","7.84","62.68","NAN","NAN","NAN","NAN","NAN"],
    [1550626,"2026-04-22 22:40:00","51616","6.011","75.15","9.87","68.64","NAN","NAN","NAN","NAN","NAN"],
    [1550627,"2026-04-22 22:50:00","51617","7.231","72.72","10.45","59.2","NAN","NAN","NAN","NAN","NAN"],
    [1550628,"2026-04-22 23:00:00","51618","6.649","72.67","10.58","70.05","NAN","NAN","NAN","NAN","NAN"],
    [1550629,"2026-04-22 23:10:00","51619","6.3420000000000005","73.99","10.26","69.85","NAN","NAN","NAN","NAN","NAN"],
    [1550630,"2026-04-22 23:20:00","51620","6.553","75.14","11.47","68.56","NAN","NAN","NAN","NAN","NAN"],
    [1550631,"2026-04-22 23:30:00","51621","5.6129999999999995","71.21","9.64","71.89","NAN","NAN","NAN","NAN","NAN"],
    [1550632,"2026-04-22 23:40:00","51622","6.056","66.59","9.83","65.45","NAN","NAN","NAN","NAN","NAN"],
    [1550633,"2026-04-22 23:50:00","51623","5.31","66.64","9.64","56.78","NAN","NAN","NAN","NAN","NAN"],
    [1550634,"2026-04-23 00:00:00","51624","5.937","71.8","8.59","81.8","NAN","NAN","NAN","NAN","NAN"],
    [1550635,"2026-04-23 00:10:00","51625","5.314","77.03","8.98","65.57","NAN","NAN","NAN","NAN","NAN"],
    [1550636,"2026-04-23 00:20:00","51626","5.805","74.91","9.87","69.2","NAN","NAN","NAN","NAN","NAN"],
    [1550637,"2026-04-23 00:30:00","51627","5.73","76.56","10.29","75.54","NAN","NAN","NAN","NAN","NAN"],
    [1550638,"2026-04-23 00:40:00","51628","5.528","78.02","10.06","63.74","NAN","NAN","NAN","NAN","NAN"],
    [1550639,"2026-04-23 00:50:00","51629","4.667","75.75","8.82","68.88","NAN","NAN","NAN","NAN","NAN"],
    [1550640,"2026-04-23 01:00:00","51630","4.855","76.2","8.07","67.23","NAN","NAN","NAN","NAN","NAN"],
    [1550641,"2026-04-23 01:10:00","51631","5.77","75.04","10.45","66.11","NAN","NAN","NAN","NAN","NAN"],
    [1550642,"2026-04-23 01:20:00","51632","5.157","75.11","8.23","73.95","NAN","NAN","NAN","NAN","NAN"],
    [1550643,"2026-04-23 01:30:00","51633","5.2989999999999995","75.15","9.64","80.2","NAN","NAN","NAN","NAN","NAN"],
    [1550644,"2026-04-23 01:40:00","51634","4.841","78.91","8.49","73.37","NAN","NAN","NAN","NAN","NAN"],
    [1550645,"2026-04-23 01:50:00","51635","4.7860000000000005","80.7","9.51","89.4","NAN","NAN","NAN","NAN","NAN"],
    [1550646,"2026-04-23 02:00:00","51636","4.846","80.0","8.33","67.39","NAN","NAN","NAN","NAN","NAN"],
    [1550647,"2026-04-23 02:10:00","51637","5.8629999999999995","72.27","9.21","67.95","NAN","NAN","NAN","NAN","NAN"],
    [1550648,"2026-04-23 02:20:00","51638","5.327999999999999","74.71","9.11","86","NAN","NAN","NAN","NAN","NAN"],
    [1550649,"2026-04-23 02:30:00","51639","5.181","76.52","9.54","69.3","NAN","NAN","NAN","NAN","NAN"],
    [1550650,"2026-04-23 02:40:00","51640","4.515","80.6","8.82","64.59","NAN","NAN","NAN","NAN","NAN"],
    [1550651,"2026-04-23 02:50:00","51641","4.997","78.01","8.04","64.19","NAN","NAN","NAN","NAN","NAN"],
    [1550652,"2026-04-23 03:00:00","51642","4.263","76.62","7.579","75.46","NAN","NAN","NAN","NAN","NAN"],
    [1550653,"2026-04-23 03:10:00","51643","4.343","75.87","7.089","77","NAN","NAN","NAN","NAN","NAN"],
    [1550654,"2026-04-23 03:20:00","51644","4.3","75.98","7.513","64.19","NAN","NAN","NAN","NAN","NAN"],
    [1550655,"2026-04-23 03:30:00","51645","3.2539999999999996","81.3","5.88","73.18","NAN","NAN","NAN","NAN","NAN"],
    [1550656,"2026-04-23 03:40:00","51646","4.172","77.0","7.252","71.5","NAN","NAN","NAN","NAN","NAN"],
    [1550657,"2026-04-23 03:50:00","51647","5.052","75.28","8.59","62.16","NAN","NAN","NAN","NAN","NAN"],
    [1550658,"2026-04-23 04:00:00","51648","4.583","70.28","7.317","67.24","NAN","NAN","NAN","NAN","NAN"],
    [1550659,"2026-04-23 04:10:00","51649","5.083","60.81","8.82","69.65","NAN","NAN","NAN","NAN","NAN"],
    [1550660,"2026-04-23 04:20:00","51650","4.957","63.93","8.4","67.37","NAN","NAN","NAN","NAN","NAN"],
    [1550661,"2026-04-23 04:30:00","51651","3.772","59.48","7.121","62.12","NAN","NAN","NAN","NAN","NAN"],
    [1550662,"2026-04-23 04:40:00","51652","4.336","65.76","6.893","67.46","NAN","NAN","NAN","NAN","NAN"],
    [1550663,"2026-04-23 04:50:00","51653","5.537999999999999","68.16","9.31","67.35","NAN","NAN","NAN","NAN","NAN"],
    [1550664,"2026-04-23 05:00:00","51654","4.5680000000000005","69.26","6.991","65.4","NAN","NAN","NAN","NAN","NAN"],
    [1550665,"2026-04-23 05:10:00","51655","4.775","64.27","8.92","46.64","NAN","NAN","NAN","NAN","NAN"],
    [1550666,"2026-04-23 05:20:00","51656","5.472","56.08","9.67","48.35","NAN","NAN","NAN","NAN","NAN"],
    [1550667,"2026-04-23 05:30:00","51657","4.4110000000000005","58.64","8.07","61.81","NAN","NAN","NAN","NAN","NAN"],
    [1550668,"2026-04-23 05:40:00","51658","4.895","59.56","8.04","44.3","NAN","NAN","NAN","NAN","NAN"],
    [1550669,"2026-04-23 05:50:00","51659","3.825","58.67","8.17","60.46","NAN","NAN","NAN","NAN","NAN"],
    [1550670,"2026-04-23 06:00:00","51660","4.917","61.73","8","51.36","NAN","NAN","NAN","NAN","NAN"],
    [1550671,"2026-04-23 06:10:00","51661","4.114","58.39","6.86","63.79","NAN","NAN","NAN","NAN","NAN"],
    [1550672,"2026-04-23 06:20:00","51662","3.7289999999999996","58.84","7.187","49.47","NAN","NAN","NAN","NAN","NAN"],
    [1550673,"2026-04-23 06:30:00","51663","4.209","60.95","8.17","48.73","NAN","NAN","NAN","NAN","NAN"],
    [1550674,"2026-04-23 06:40:00","51664","4.565","66.06","7.383","69","NAN","NAN","NAN","NAN","NAN"],
    [1550675,"2026-04-23 06:50:00","51665","4.662","65.79","7.35","82.6","NAN","NAN","NAN","NAN","NAN"],
    [1550676,"2026-04-23 07:00:00","51666","4.712","69.93","8.53","77.45","NAN","NAN","NAN","NAN","NAN"],
    [1550677,"2026-04-23 07:10:00","51667","5.94","64.23","9.96","63.42","NAN","NAN","NAN","NAN","NAN"],
    [1550678,"2026-04-23 07:20:00","51668","6.188","65.1","9.64","64.67","NAN","NAN","NAN","NAN","NAN"],
    [1550679,"2026-04-23 07:30:00","51669","5.257000000000001","64.97","8.75","60.22","NAN","NAN","NAN","NAN","NAN"],
    [1550680,"2026-04-23 07:40:00","51670","6.277","66.31","9.54","67.41","NAN","NAN","NAN","NAN","NAN"],
    [1550681,"2026-04-23 07:50:00","51671","5.617999999999999","68.18","9.05","63.84","NAN","NAN","NAN","NAN","NAN"],
    [1550682,"2026-04-23 08:00:00","51672","5.88","68.34","9.73","65.49","NAN","NAN","NAN","NAN","NAN"],
    [1550683,"2026-04-23 08:10:00","51673","5.777","66.24","11.3","57.44","NAN","NAN","NAN","NAN","NAN"],
    [1550684,"2026-04-23 08:20:00","51674","5.836","65.37","10.09","50.08","NAN","NAN","NAN","NAN","NAN"],
    [1550685,"2026-04-23 08:30:00","51675","6.526","63.88","10.09","50.08","NAN","NAN","NAN","NAN","NAN"],
    [1550686,"2026-04-23 08:40:00","51676","6.315","62.72","10.36","66.54","NAN","NAN","NAN","NAN","NAN"],
    [1550687,"2026-04-23 08:50:00","51677","6.311","64.02","9.87","73.69","NAN","NAN","NAN","NAN","NAN"],
    [1550688,"2026-04-23 09:00:00","51678","5.796","64.08","10.09","78.34","NAN","NAN","NAN","NAN","NAN"],
    [1550689,"2026-04-23 09:10:00","51679","6.487","63.67","11.24","58.77","NAN","NAN","NAN","NAN","NAN"],
    [1550690,"2026-04-23 09:20:00","51680","5.989","64.08","9.47","81.3","NAN","NAN","NAN","NAN","NAN"],
    [1550691,"2026-04-23 09:30:00","51681","5.13","63.62","8.26","67.66","NAN","NAN","NAN","NAN","NAN"],
    [1550692,"2026-04-23 09:40:00","51682","5.153","66.24","7.775","62.33","NAN","NAN","NAN","NAN","NAN"],
    [1550693,"2026-04-23 09:50:00","51683","4.869","67.66","7.807","75.56","NAN","NAN","NAN","NAN","NAN"],
    [1550694,"2026-04-23 10:00:00","51684","5.346","70.31","9.34","81.8","NAN","NAN","NAN","NAN","NAN"],
    [1550695,"2026-04-23 10:10:00","51685","6.261","70.97","11.34","71.19","NAN","NAN","NAN","NAN","NAN"],
    [1550696,"2026-04-23 10:20:00","51686","5.723","72.05","8.85","70.08","NAN","NAN","NAN","NAN","NAN"],
    [1550697,"2026-04-23 10:30:00","51687","5.582999999999999","64.73","8.79","57.06","NAN","NAN","NAN","NAN","NAN"],
    [1550698,"2026-04-23 10:40:00","51688","5.853","72.47","9.8","74.08","NAN","NAN","NAN","NAN","NAN"],
    [1550699,"2026-04-23 10:50:00","51689","6.816","71.51","10.58","70.58","NAN","NAN","NAN","NAN","NAN"],
    [1550700,"2026-04-23 11:00:00","51690","6.5360000000000005","73.78","10.19","73.43","NAN","NAN","NAN","NAN","NAN"],
    [1550701,"2026-04-23 11:10:00","51691","5.916","74.28","9.54","69.93","NAN","NAN","NAN","NAN","NAN"],
    [1550702,"2026-04-23 11:20:00","51692","6.013","74.85","9.38","70.85","NAN","NAN","NAN","NAN","NAN"],
    [1550703,"2026-04-23 11:30:00","51693","4.874","82.3","8.66","64.73","NAN","NAN","NAN","NAN","NAN"],
    [1550704,"2026-04-23 11:40:00","51694","4.865","84.6","8.62","97","NAN","NAN","NAN","NAN","NAN"],
    [1550705,"2026-04-23 11:50:00","51695","4.688","88.2","8.33","100.9","NAN","NAN","NAN","NAN","NAN"],
    [1550706,"2026-04-23 12:00:00","51696","5.51","93.5","10.55","96.5","NAN","NAN","NAN","NAN","NAN"],
    [1550707,"2026-04-23 12:10:00","51697","5.051","91.9","9.9","97.3","NAN","NAN","NAN","NAN","NAN"],
    [1550708,"2026-04-23 12:20:00","51698","4.11","90.2","8.13","101.1","NAN","NAN","NAN","NAN","NAN"],
    [1550709,"2026-04-23 12:30:00","51699","4.926","80.2","8.85","80.1","NAN","NAN","NAN","NAN","NAN"],
    [1550710,"2026-04-23 12:40:00","51700","4.821000000000001","78.89","8.56","98.3","NAN","NAN","NAN","NAN","NAN"],
    [1550711,"2026-04-23 12:50:00","51701","5.428999999999999","74.58","8.53","70.17","NAN","NAN","NAN","NAN","NAN"],
    [1550712,"2026-04-23 13:00:00","51702","5.846","73.04","10","75.1","NAN","NAN","NAN","NAN","NAN"],
    [1550713,"2026-04-23 13:10:00","51703","5.965","72.3","9.57","65.15","NAN","NAN","NAN","NAN","NAN"],
    [1550714,"2026-04-23 13:20:00","51704","5.482","74.56","10.06","52.81","NAN","NAN","NAN","NAN","NAN"],
    [1550715,"2026-04-23 13:30:00","51705","5.281000000000001","73.55","9.28","72","NAN","NAN","NAN","NAN","NAN"],
    [1550716,"2026-04-23 13:40:00","51706","4.8839999999999995","75.55","8.92","66.43","NAN","NAN","NAN","NAN","NAN"],
    [1550717,"2026-04-23 13:50:00","51707","5.468999999999999","86.0","9.02","87.2","NAN","NAN","NAN","NAN","NAN"],
    [1550718,"2026-04-23 14:00:00","51708","5.754","69.31","9.67","65.88","NAN","NAN","NAN","NAN","NAN"],
    [1550719,"2026-04-23 14:10:00","51709","5.797999999999999","71.87","9.18","64.21","NAN","NAN","NAN","NAN","NAN"],
    [1550720,"2026-04-23 14:20:00","51710","5.676","68.83","9.9","64.87","NAN","NAN","NAN","NAN","NAN"],
    [1550721,"2026-04-23 14:30:00","51711","5.697","68.43","9.57","60.7","NAN","NAN","NAN","NAN","NAN"],
    [1550722,"2026-04-23 14:40:00","51712","5.023","62.77","8.53","65.99","NAN","NAN","NAN","NAN","NAN"],
    [1550723,"2026-04-23 14:50:00","51713","5.303","71.22","10.09","60.99","NAN","NAN","NAN","NAN","NAN"],
    [1550724,"2026-04-23 15:00:00","51714","5.382999999999999","70.71","9.31","65.98","NAN","NAN","NAN","NAN","NAN"],
    [1550725,"2026-04-23 15:10:00","51715","5.94","70.73","9.18","61.8","NAN","NAN","NAN","NAN","NAN"],
    [1550726,"2026-04-23 15:20:00","51716","5.746","69.15","9.38","70.64","NAN","NAN","NAN","NAN","NAN"],
    [1550727,"2026-04-23 15:30:00","51717","5.697","70.91","8.33","69.44","NAN","NAN","NAN","NAN","NAN"],
    [1550728,"2026-04-23 15:40:00","51718","5.291","67.41","8.82","73.18","NAN","NAN","NAN","NAN","NAN"],
    [1550729,"2026-04-23 15:50:00","51719","5.226","70.46","8.1","69.43","NAN","NAN","NAN","NAN","NAN"],
    [1550730,"2026-04-23 16:00:00","51720","5.619","73.7","9.83","75.61","NAN","NAN","NAN","NAN","NAN"],
    [1550731,"2026-04-23 16:10:00","51721","5.477","73.91","9.8","65.43","NAN","NAN","NAN","NAN","NAN"],
    [1550732,"2026-04-23 16:20:00","51722","5.934","72.65","10.62","86","NAN","NAN","NAN","NAN","NAN"],
    [1550733,"2026-04-23 16:30:00","51723","5.6160000000000005","73.67","9.31","70.72","NAN","NAN","NAN","NAN","NAN"],
    [1550734,"2026-04-23 16:40:00","51724","5.672000000000001","76.8","10.58","71.71","NAN","NAN","NAN","NAN","NAN"],
    [1550735,"2026-04-23 16:50:00","51725","5.257999999999999","75.33","8.75","84.1","NAN","NAN","NAN","NAN","NAN"],
    [1550736,"2026-04-23 17:00:00","51726","5.6129999999999995","77.75","9.34","68.33","NAN","NAN","NAN","NAN","NAN"],
    [1550737,"2026-04-23 17:10:00","51727","5.681","76.53","9.02","75.38","NAN","NAN","NAN","NAN","NAN"],
    [1550738,"2026-04-23 17:20:00","51728","5.662000000000001","76.69","9.08","77.12","NAN","NAN","NAN","NAN","NAN"],
    [1550739,"2026-04-23 17:30:00","51729","5.928","74.07","10.09","54.57","NAN","NAN","NAN","NAN","NAN"],
    [1550740,"2026-04-23 17:40:00","51730","5.672000000000001","76.23","9.87","81.6","NAN","NAN","NAN","NAN","NAN"],
    [1550741,"2026-04-23 17:50:00","51731","5.301","75.22","9.08","73.64","NAN","NAN","NAN","NAN","NAN"],
    [1550742,"2026-04-23 18:00:00","51732","5.255","73.12","10.16","59.44","NAN","NAN","NAN","NAN","NAN"],
    [1550743,"2026-04-23 18:10:00","51733","5.591","74.07","9.08","69.39","NAN","NAN","NAN","NAN","NAN"],
    [1550744,"2026-04-23 18:20:00","51734","5.36","73.82","8.33","65.54","NAN","NAN","NAN","NAN","NAN"],
    [1550745,"2026-04-23 18:30:00","51735","5.58","72.94","8.1","76.89","NAN","NAN","NAN","NAN","NAN"],
    [1550746,"2026-04-23 18:40:00","51736","5.468","73.05","8.82","67.78","NAN","NAN","NAN","NAN","NAN"],
    [1550747,"2026-04-23 18:50:00","51737","4.859","72.58","7.775","68.89","NAN","NAN","NAN","NAN","NAN"],
    [1550748,"2026-04-23 19:00:00","51738","4.852","74.37","7.938","74.49","NAN","NAN","NAN","NAN","NAN"],
    [1550749,"2026-04-23 19:10:00","51739","5.1979999999999995","73.06","8","94.3","NAN","NAN","NAN","NAN","NAN"],
    [1550750,"2026-04-23 19:20:00","51740","5.534","71.49","9.51","72.05","NAN","NAN","NAN","NAN","NAN"],
    [1550751,"2026-04-23 19:30:00","51741","4.869","69.33","7.905","75.57","NAN","NAN","NAN","NAN","NAN"],
    [1550752,"2026-04-23 19:40:00","51742","4.689","63.44","8.36","62.56","NAN","NAN","NAN","NAN","NAN"],
    [1550753,"2026-04-23 19:50:00","51743","4.026","67.14","7.285","85.6","NAN","NAN","NAN","NAN","NAN"],
    [1550754,"2026-04-23 20:00:00","51744","4.647","66.87","8.07","76.67","NAN","NAN","NAN","NAN","NAN"],
    [1550755,"2026-04-23 20:10:00","51745","4.067","63.29","7.056","60.88","NAN","NAN","NAN","NAN","NAN"],
    [1550756,"2026-04-23 20:20:00","51746","4.129","65.71","7.415","61.09","NAN","NAN","NAN","NAN","NAN"],
    [1550757,"2026-04-23 20:30:00","51747","4.04","65.28","6.729","72.19","NAN","NAN","NAN","NAN","NAN"],
    [1550758,"2026-04-23 20:40:00","51748","3.9939999999999998","64.09","7.35","67.24","NAN","NAN","NAN","NAN","NAN"],
    [1550759,"2026-04-23 20:50:00","51749","4.029","60.34","7.252","68.98","NAN","NAN","NAN","NAN","NAN"],
    [1550760,"2026-04-23 21:00:00","51750","3.412","64.5","6.305","65.71","NAN","NAN","NAN","NAN","NAN"],
    [1550761,"2026-04-23 21:10:00","51751","3.67","63.0","6.501","65.86","NAN","NAN","NAN","NAN","NAN"],
    [1550762,"2026-04-23 21:20:00","51752","2.8489999999999998","66.13","6.827","61.26","NAN","NAN","NAN","NAN","NAN"],
    [1550763,"2026-04-23 21:30:00","51753","2.767","58.23","4.867","58.4","NAN","NAN","NAN","NAN","NAN"],
    [1550764,"2026-04-23 21:40:00","51754","3.332","65.88","5.325","62.73","NAN","NAN","NAN","NAN","NAN"],
    [1550765,"2026-04-23 21:50:00","51755","2.559","66.28","5.39","67.2","NAN","NAN","NAN","NAN","NAN"],
    [1550766,"2026-04-23 22:00:00","51756","3.134","58.71","5.357","65.44","NAN","NAN","NAN","NAN","NAN"],
    [1550767,"2026-04-23 22:10:00","51757","2.5380000000000003","59.4","5.325","54.41","NAN","NAN","NAN","NAN","NAN"],
    [1550768,"2026-04-23 22:20:00","51758","3.225","60.43","4.965","69.64","NAN","NAN","NAN","NAN","NAN"],
    [1550769,"2026-04-23 22:30:00","51759","3.326","67.35","5.619","64.48","NAN","NAN","NAN","NAN","NAN"],
    [1550770,"2026-04-23 22:40:00","51760","2.931","68.13","5.096","68.32","NAN","NAN","NAN","NAN","NAN"],
    [1550771,"2026-04-23 22:50:00","51761","2.938","66.71","4.671","61.45","NAN","NAN","NAN","NAN","NAN"],
    [1550772,"2026-04-23 23:00:00","51762","3.103","69.17","5.031","66.91","NAN","NAN","NAN","NAN","NAN"],
    [1550773,"2026-04-23 23:10:00","51763","2.499","64.37","4.377","67.5","NAN","NAN","NAN","NAN","NAN"],
    [1550774,"2026-04-23 23:20:00","51764","2.681","65.32","4.214","66.83","NAN","NAN","NAN","NAN","NAN"],
    [1550775,"2026-04-23 23:30:00","51765","2.5789999999999997","64.74","4.443","73.39","NAN","NAN","NAN","NAN","NAN"],
    [1550776,"2026-04-23 23:40:00","51766","2.667","65.95","5.129","51.42","NAN","NAN","NAN","NAN","NAN"],
    [1550777,"2026-04-23 23:50:00","51767","2.605","61.69","4.802","70.47","NAN","NAN","NAN","NAN","NAN"],
    [1550778,"2026-04-24 00:00:00","51768","2.594","61.02","4.475","67.72","NAN","NAN","NAN","NAN","NAN"],
    [1550779,"2026-04-24 00:10:00","51769","2.351","61.81","4.508","53.81","NAN","NAN","NAN","NAN","NAN"],
    [1550780,"2026-04-24 00:20:00","51770","2.336","68.74","4.214","64.75","NAN","NAN","NAN","NAN","NAN"],
    [1550781,"2026-04-24 00:30:00","51771","2.5069999999999997","71.41","4.671","63.37","NAN","NAN","NAN","NAN","NAN"],
    [1550782,"2026-04-24 00:40:00","51772","2.103","72.56","3.495","69.23","NAN","NAN","NAN","NAN","NAN"],
    [1550783,"2026-04-24 00:50:00","51773","1.883","73.15","3.267","69.49","NAN","NAN","NAN","NAN","NAN"],
    [1550784,"2026-04-24 01:00:00","51774","2.214","75.7","3.789","70.98","NAN","NAN","NAN","NAN","NAN"],
    [1550785,"2026-04-24 01:10:00","51775","2.72","70.99","3.822","65.41","NAN","NAN","NAN","NAN","NAN"],
    [1550786,"2026-04-24 01:20:00","51776","2.6060000000000003","73.5","3.855","71.56","NAN","NAN","NAN","NAN","NAN"],
    [1550787,"2026-04-24 01:30:00","51777","1.817","70.14","2.94","74.9","NAN","NAN","NAN","NAN","NAN"],
    [1550788,"2026-04-24 01:40:00","51778","1.445","70.22","2.417","77.49","NAN","NAN","NAN","NAN","NAN"],
    [1550789,"2026-04-24 01:50:00","51779","1.46","71.37","2.417","72.95","NAN","NAN","NAN","NAN","NAN"],
    [1550790,"2026-04-24 02:00:00","51780","1.347","66.68","2.515","64.23","NAN","NAN","NAN","NAN","NAN"],
    [1550791,"2026-04-24 02:10:00","51781","1.097","72.51","2.287","80.7","NAN","NAN","NAN","NAN","NAN"],
    [1550792,"2026-04-24 02:20:00","51782","1.281","78.45","2.189","81.1","NAN","NAN","NAN","NAN","NAN"],
    [1550793,"2026-04-24 02:30:00","51783","1.1540000000000001","80.9","1.731","82.3","NAN","NAN","NAN","NAN","NAN"],
    [1550794,"2026-04-24 02:40:00","51784","0.8590000000000001","78.61","1.568","82.6","NAN","NAN","NAN","NAN","NAN"],
    [1550795,"2026-04-24 02:50:00","51785","0.35200000000000004","62.99","1.405","63","NAN","NAN","NAN","NAN","NAN"],
    [1550796,"2026-04-24 03:00:00","51786","0.7909999999999999","62.02","2.058","61.94","NAN","NAN","NAN","NAN","NAN"],
    [1550797,"2026-04-24 03:10:00","51787","0.271","61.92","1.372","61.88","NAN","NAN","NAN","NAN","NAN"],
    [1550798,"2026-04-24 03:20:00","51788","0.132","61.93","0.947","61.94","NAN","NAN","NAN","NAN","NAN"],
    [1550799,"2026-04-24 03:30:00","51789","0.342","61.6","0.915","61.36","NAN","NAN","NAN","NAN","NAN"],
    [1550800,"2026-04-24 03:40:00","51790","0.595","61.3","1.143","61.31","NAN","NAN","NAN","NAN","NAN"],
    [1550801,"2026-04-24 03:50:00","51791","0.9990000000000001","60.88","1.568","61.17","NAN","NAN","NAN","NAN","NAN"],
    [1550802,"2026-04-24 04:00:00","51792","0.68","59.84","1.535","59.82","NAN","NAN","NAN","NAN","NAN"],
    [1550803,"2026-04-24 04:10:00","51793","0.828","56.74","1.731","59.73","NAN","NAN","NAN","NAN","NAN"],
    [1550804,"2026-04-24 04:20:00","51794","0.05","350.9","0.686","350.8","NAN","NAN","NAN","NAN","NAN"],
    [1550805,"2026-04-24 04:30:00","51795","0.009000000000000001","350.9","0.327","350.9","NAN","NAN","NAN","NAN","NAN"],
    [1550806,"2026-04-24 04:40:00","51796","0.0","350.9","0.033","350.9","NAN","NAN","NAN","NAN","NAN"],
    [1550807,"2026-04-24 04:50:00","51797","0.0","350.8","0.033","350.8","NAN","NAN","NAN","NAN","NAN"],
    [1550808,"2026-04-24 05:00:00","51798","0.054000000000000006","350.5","0.49","350.6","NAN","NAN","NAN","NAN","NAN"],
    [1550809,"2026-04-24 05:10:00","51799","0.179","349.9","0.719","350","NAN","NAN","NAN","NAN","NAN"],
    [1550810,"2026-04-24 05:20:00","51800","0.017","349.8","0.425","349.8","NAN","NAN","NAN","NAN","NAN"],
    [1550811,"2026-04-24 05:30:00","51801","0.001","349.8","0.131","349.8","NAN","NAN","NAN","NAN","NAN"],
    [1550812,"2026-04-24 05:40:00","51802","0.006","349.8","0.229","349.8","NAN","NAN","NAN","NAN","NAN"],
    [1550813,"2026-04-24 05:50:00","51803","0.247","349.6","0.719","349.5","NAN","NAN","NAN","NAN","NAN"],
    [1550814,"2026-04-24 06:00:00","51804","0.6629999999999999","348.1","1.274","347.5","NAN","NAN","NAN","NAN","NAN"],
    [1550815,"2026-04-24 06:10:00","51805","0.267","344.7","1.209","347.3","NAN","NAN","NAN","NAN","NAN"],
    [1550816,"2026-04-24 06:20:00","51806","0.726","342.1","1.633","342.7","NAN","NAN","NAN","NAN","NAN"],
    [1550817,"2026-04-24 06:30:00","51807","0.32899999999999996","341.3","1.307","341.3","NAN","NAN","NAN","NAN","NAN"],
    [1550818,"2026-04-24 06:40:00","51808","0.032","341.2","0.294","341.3","NAN","NAN","NAN","NAN","NAN"],
    [1550819,"2026-04-24 06:50:00","51809","0.27","340.9","1.241","340.9","NAN","NAN","NAN","NAN","NAN"],
    [1550820,"2026-04-24 07:00:00","51810","0.11699999999999999","340.5","1.045","340.9","NAN","NAN","NAN","NAN","NAN"],
    [1550821,"2026-04-24 07:10:00","51811","0.166","338.3","1.013","338.2","NAN","NAN","NAN","NAN","NAN"],
    [1550822,"2026-04-24 07:20:00","51812","0.027999999999999997","338.4","0.523","338.2","NAN","NAN","NAN","NAN","NAN"],
    [1550823,"2026-04-24 07:30:00","51813","0.369","354.7","1.176","350.6","NAN","NAN","NAN","NAN","NAN"],
    [1550824,"2026-04-24 07:40:00","51814","0.511","57.95","1.274","82","NAN","NAN","NAN","NAN","NAN"],
    [1550825,"2026-04-24 07:50:00","51815","1.051","88.5","2.287","91.6","NAN","NAN","NAN","NAN","NAN"],
    [1550826,"2026-04-24 08:00:00","51816","1.192","97.5","2.45","99.7","NAN","NAN","NAN","NAN","NAN"],
    [1550827,"2026-04-24 08:10:00","51817","1.6369999999999998","99.7","3.299","98.7","NAN","NAN","NAN","NAN","NAN"],
    [1550828,"2026-04-24 08:20:00","51818","2.084","104.7","3.43","98.3","NAN","NAN","NAN","NAN","NAN"],
    [1550829,"2026-04-24 08:30:00","51819","1.9480000000000002","111.3","3.593","114.2","NAN","NAN","NAN","NAN","NAN"],
    [1550830,"2026-04-24 08:40:00","51820","2.405","111.3","3.887","114.2","NAN","NAN","NAN","NAN","NAN"],
    [1550831,"2026-04-24 08:50:00","51821","3.1519999999999997","103.5","4.671","104.9","NAN","NAN","NAN","NAN","NAN"],
    [1550832,"2026-04-24 09:00:00","51822","3.1889999999999996","100.5","4.965","85.7","NAN","NAN","NAN","NAN","NAN"],
    [1550833,"2026-04-24 09:10:00","51823","2.827","99.4","5.292","98.1","NAN","NAN","NAN","NAN","NAN"],
    [1550834,"2026-04-24 09:20:00","51824","3.048","110.7","5.161","111.3","NAN","NAN","NAN","NAN","NAN"],
    [1550835,"2026-04-24 09:30:00","51825","3.0380000000000003","106.3","5.063","155.8","NAN","NAN","NAN","NAN","NAN"],
    [1550836,"2026-04-24 09:40:00","51826","2.76","107.7","4.737","127.7","NAN","NAN","NAN","NAN","NAN"],
    [1550837,"2026-04-24 09:50:00","51827","3.0989999999999998","119.4","5.357","142.4","NAN","NAN","NAN","NAN","NAN"],
    [1550838,"2026-04-24 10:00:00","51828","3.03","112.7","5.553","105.8","NAN","NAN","NAN","NAN","NAN"],
    [1550839,"2026-04-24 10:10:00","51829","3.867","120.0","6.403","100.1","NAN","NAN","NAN","NAN","NAN"],
    [1550840,"2026-04-24 10:20:00","51830","3.54","120.0","6.011","136.1","NAN","NAN","NAN","NAN","NAN"],
    [1550841,"2026-04-24 10:30:00","51831","4.311","114.7","5.945","135.5","NAN","NAN","NAN","NAN","NAN"],
    [1550842,"2026-04-24 10:40:00","51832","3.2760000000000002","110.1","5.782","116.8","NAN","NAN","NAN","NAN","NAN"],
    [1550843,"2026-04-24 10:50:00","51833","3.437","117.1","5.521","128.8","NAN","NAN","NAN","NAN","NAN"],
    [1550844,"2026-04-24 11:00:00","51834","3.6189999999999998","106.0","6.272","102.1","NAN","NAN","NAN","NAN","NAN"],
    [1550845,"2026-04-24 11:10:00","51835","3.674","111.9","5.913","141.3","NAN","NAN","NAN","NAN","NAN"],
    [1550846,"2026-04-24 11:20:00","51836","3.85","115.8","5.651","141.9","NAN","NAN","NAN","NAN","NAN"],
    [1550847,"2026-04-24 11:30:00","51837","3.283","114.6","5.88","118.7","NAN","NAN","NAN","NAN","NAN"],
    [1550848,"2026-04-24 11:40:00","51838","3.511","119.5","5.749","138.2","NAN","NAN","NAN","NAN","NAN"],
    [1550849,"2026-04-24 11:50:00","51839","3.603","120.1","6.141","128.7","NAN","NAN","NAN","NAN","NAN"],
    [1550850,"2026-04-24 12:00:00","51840","3.998","116.8","5.717","112.2","NAN","NAN","NAN","NAN","NAN"],
    [1550851,"2026-04-24 12:10:00","51841","3.549","120.6","5.782","123.2","NAN","NAN","NAN","NAN","NAN"],
    [1550852,"2026-04-24 12:20:00","51842","3.322","127.2","5.423","125.4","NAN","NAN","NAN","NAN","NAN"],
    [1550853,"2026-04-24 12:30:00","51843","3.32","124.3","5.455","143.2","NAN","NAN","NAN","NAN","NAN"],
    [1550854,"2026-04-24 12:40:00","51844","3.907","134.2","5.913","128.7","NAN","NAN","NAN","NAN","NAN"],
    [1550855,"2026-04-24 12:50:00","51845","3.888","138.8","5.717","158.9","NAN","NAN","NAN","NAN","NAN"],
    [1550856,"2026-04-24 13:00:00","51846","3.975","135.7","6.272","148.3","NAN","NAN","NAN","NAN","NAN"],
    [1550857,"2026-04-24 13:10:00","51847","3.529","124.9","5.423","130.6","NAN","NAN","NAN","NAN","NAN"],
    [1550858,"2026-04-24 13:20:00","51848","3.385","142.8","5.619","138.4","NAN","NAN","NAN","NAN","NAN"],
    [1550859,"2026-04-24 13:30:00","51849","3.159","133.5","5.39","139.1","NAN","NAN","NAN","NAN","NAN"],
    [1550860,"2026-04-24 13:40:00","51850","3.4219999999999997","139.0","4.671","129.2","NAN","NAN","NAN","NAN","NAN"],
    [1550861,"2026-04-24 13:50:00","51851","2.9810000000000003","131.8","4.867","137.3","NAN","NAN","NAN","NAN","NAN"],
    [1550862,"2026-04-24 14:00:00","51852","2.539","140.7","3.822","134","NAN","NAN","NAN","NAN","NAN"],
    [1550863,"2026-04-24 14:10:00","51853","3.076","138.7","5.423","132.5","NAN","NAN","NAN","NAN","NAN"],
    [1550864,"2026-04-24 14:20:00","51854","2.984","134.9","4.769","134.1","NAN","NAN","NAN","NAN","NAN"],
    [1550865,"2026-04-24 14:30:00","51855","3.01","131.7","4.541","133.9","NAN","NAN","NAN","NAN","NAN"],
    [1550866,"2026-04-24 14:40:00","51856","2.708","130.7","4.279","163.6","NAN","NAN","NAN","NAN","NAN"],
    [1550867,"2026-04-24 14:50:00","51857","2.8480000000000003","126.5","4.606","130.8","NAN","NAN","NAN","NAN","NAN"],
    [1550868,"2026-04-24 15:00:00","51858","2.279","128.0","4.639","134.7","NAN","NAN","NAN","NAN","NAN"],
    [1550869,"2026-04-24 15:10:00","51859","2.596","126.0","4.541","136.5","NAN","NAN","NAN","NAN","NAN"],
    [1550870,"2026-04-24 15:20:00","51860","1.969","132.6","4.443","140.4","NAN","NAN","NAN","NAN","NAN"],
    [1550871,"2026-04-24 15:30:00","51861","2.301","136.6","4.051","150.6","NAN","NAN","NAN","NAN","NAN"],
    [1550872,"2026-04-24 15:40:00","51862","2.194","124.4","4.247","135.2","NAN","NAN","NAN","NAN","NAN"],
    [1550873,"2026-04-24 15:50:00","51863","2.5340000000000003","124.1","3.822","135.6","NAN","NAN","NAN","NAN","NAN"],
    [1550874,"2026-04-24 16:00:00","51864","2.715","123.7","3.953","122.5","NAN","NAN","NAN","NAN","NAN"],
    [1550875,"2026-04-24 16:10:00","51865","1.804","121.5","3.43","129.6","NAN","NAN","NAN","NAN","NAN"],
    [1550876,"2026-04-24 16:20:00","51866","2.1519999999999997","102.9","3.887","109.5","NAN","NAN","NAN","NAN","NAN"],
    [1550877,"2026-04-24 16:30:00","51867","2.349","107.2","3.691","113.1","NAN","NAN","NAN","NAN","NAN"],
    [1550878,"2026-04-24 16:40:00","51868","1.984","113.3","3.855","113.5","NAN","NAN","NAN","NAN","NAN"],
    [1550879,"2026-04-24 16:50:00","51869","2.026","114.5","3.43","105","NAN","NAN","NAN","NAN","NAN"],
    [1550880,"2026-04-24 17:00:00","51870","2.062","127.7","2.973","133.4","NAN","NAN","NAN","NAN","NAN"],
    [1550881,"2026-04-24 17:10:00","51871","2.2030000000000003","132.1","3.463","134.7","NAN","NAN","NAN","NAN","NAN"],
    [1550882,"2026-04-24 17:20:00","51872","1.921","123.9","3.528","131.5","NAN","NAN","NAN","NAN","NAN"],
    [1550883,"2026-04-24 17:30:00","51873","1.719","97.3","3.103","85.2","NAN","NAN","NAN","NAN","NAN"],
    [1550884,"2026-04-24 17:40:00","51874","1.2229999999999999","94.0","2.515","93.7","NAN","NAN","NAN","NAN","NAN"],
    [1550885,"2026-04-24 17:50:00","51875","1.696","110.8","2.907","115.9","NAN","NAN","NAN","NAN","NAN"],
    [1550886,"2026-04-24 18:00:00","51876","1.4569999999999999","107.0","2.483","111.2","NAN","NAN","NAN","NAN","NAN"],
    [1550887,"2026-04-24 18:10:00","51877","1.569","106.0","2.875","115.6","NAN","NAN","NAN","NAN","NAN"],
    [1550888,"2026-04-24 18:20:00","51878","1.294","117.1","2.254","117.4","NAN","NAN","NAN","NAN","NAN"],
    [1550889,"2026-04-24 18:30:00","51879","1.068","110.3","2.123","112.7","NAN","NAN","NAN","NAN","NAN"],
    [1550890,"2026-04-24 18:40:00","51880","0.9740000000000001","111.6","2.319","117.5","NAN","NAN","NAN","NAN","NAN"],
    [1550891,"2026-04-24 18:50:00","51881","0.7609999999999999","107.4","1.503","106.5","NAN","NAN","NAN","NAN","NAN"],
    [1550892,"2026-04-24 19:00:00","51882","0.72","110.0","1.993","117.1","NAN","NAN","NAN","NAN","NAN"],
    [1550893,"2026-04-24 19:10:00","51883","0.938","107.8","1.927","110.4","NAN","NAN","NAN","NAN","NAN"],
    [1550894,"2026-04-24 19:20:00","51884","0.815","100.4","1.503","100.3","NAN","NAN","NAN","NAN","NAN"],
    [1550895,"2026-04-24 19:30:00","51885","0.79","104.1","1.699","106.6","NAN","NAN","NAN","NAN","NAN"],
    [1550896,"2026-04-24 19:40:00","51886","0.8540000000000001","114.6","1.731","117","NAN","NAN","NAN","NAN","NAN"],
    [1550897,"2026-04-24 19:50:00","51887","0.843","111.2","1.895","112.8","NAN","NAN","NAN","NAN","NAN"],
    [1550898,"2026-04-24 20:00:00","51888","1.045","116.8","2.091","117.5","NAN","NAN","NAN","NAN","NAN"],
    [1550899,"2026-04-24 20:10:00","51889","1.16","117.9","1.862","117.8","NAN","NAN","NAN","NAN","NAN"],
    [1550900,"2026-04-24 20:20:00","51890","0.209","118.2","1.47","118.2","NAN","NAN","NAN","NAN","NAN"],
    [1550901,"2026-04-24 20:30:00","51891","0.139","118.2","0.751","118.2","NAN","NAN","NAN","NAN","NAN"],
    [1550902,"2026-04-24 20:40:00","51892","0.095","118.2","0.817","118.2","NAN","NAN","NAN","NAN","NAN"],
    [1550903,"2026-04-24 20:50:00","51893","0.8270000000000001","111.8","1.633","108.2","NAN","NAN","NAN","NAN","NAN"],
    [1550904,"2026-04-24 21:00:00","51894","1.037","114.8","1.731","117.8","NAN","NAN","NAN","NAN","NAN"],
    [1550905,"2026-04-24 21:10:00","51895","0.8009999999999999","115.2","1.927","113.8","NAN","NAN","NAN","NAN","NAN"],
    [1550906,"2026-04-24 21:20:00","51896","0.532","117.6","1.437","115.8","NAN","NAN","NAN","NAN","NAN"],
    [1550907,"2026-04-24 21:30:00","51897","1.003","116.2","1.731","112.6","NAN","NAN","NAN","NAN","NAN"],
    [1550908,"2026-04-24 21:40:00","51898","1.045","117.0","1.993","118.6","NAN","NAN","NAN","NAN","NAN"],
    [1550909,"2026-04-24 21:50:00","51899","1.0759999999999998","115.9","1.993","118.9","NAN","NAN","NAN","NAN","NAN"],
    [1550910,"2026-04-24 22:00:00","51900","0.49","112.7","1.372","117.7","NAN","NAN","NAN","NAN","NAN"],
    [1550911,"2026-04-24 22:10:00","51901","0.496","118.3","1.339","118.7","NAN","NAN","NAN","NAN","NAN"],
    [1550912,"2026-04-24 22:20:00","51902","0.191","118.9","0.751","118.9","NAN","NAN","NAN","NAN","NAN"],
    [1550913,"2026-04-24 22:30:00","51903","0.023","118.9","0.523","118.9","NAN","NAN","NAN","NAN","NAN"],
    [1550914,"2026-04-24 22:40:00","51904","0.086","118.9","0.588","118.9","NAN","NAN","NAN","NAN","NAN"],
    [1550915,"2026-04-24 22:50:00","51905","0.008","118.9","0.294","118.9","NAN","NAN","NAN","NAN","NAN"],
    [1550916,"2026-04-24 23:00:00","51906","0.0","0.0","0","0","NAN","NAN","NAN","NAN","NAN"],
    [1550917,"2026-04-24 23:10:00","51907","0.46","118.9","1.013","118.9","NAN","NAN","NAN","NAN","NAN"],
    [1550918,"2026-04-24 23:20:00","51908","0.99","119.0","1.405","119","NAN","NAN","NAN","NAN","NAN"],
    [1550919,"2026-04-24 23:30:00","51909","0.605","118.8","1.176","119","NAN","NAN","NAN","NAN","NAN"],
    [1550920,"2026-04-24 23:40:00","51910","0.44","113.0","0.882","109.9","NAN","NAN","NAN","NAN","NAN"],
    [1550921,"2026-04-24 23:50:00","51911","0.527","113.3","0.817","110.7","NAN","NAN","NAN","NAN","NAN"],
    [1550922,"2026-04-25 00:00:00","51912","0.8059999999999999","118.8","1.176","118.9","NAN","NAN","NAN","NAN","NAN"],
    [1550923,"2026-04-25 00:10:00","51913","0.667","108.9","1.176","109.3","NAN","NAN","NAN","NAN","NAN"],
    [1550924,"2026-04-25 00:20:00","51914","0.615","107.9","1.176","107.8","NAN","NAN","NAN","NAN","NAN"],
    [1550925,"2026-04-25 00:30:00","51915","0.40299999999999997","108.1","1.241","107.8","NAN","NAN","NAN","NAN","NAN"],
    [1550926,"2026-04-25 00:40:00","51916","0.196","107.8","0.555","107.8","NAN","NAN","NAN","NAN","NAN"],
    [1550927,"2026-04-25 00:50:00","51917","0.141","107.7","0.555","107.7","NAN","NAN","NAN","NAN","NAN"],
    [1550928,"2026-04-25 01:00:00","51918","0.196","107.9","0.588","107.7","NAN","NAN","NAN","NAN","NAN"],
    [1550929,"2026-04-25 01:10:00","51919","0.22899999999999998","107.8","0.686","107.7","NAN","NAN","NAN","NAN","NAN"],
    [1550930,"2026-04-25 01:20:00","51920","0.09","108.3","0.555","109.7","NAN","NAN","NAN","NAN","NAN"],
    [1550931,"2026-04-25 01:30:00","51921","0.493","116.9","0.882","118.4","NAN","NAN","NAN","NAN","NAN"],
    [1550932,"2026-04-25 01:40:00","51922","0.37799999999999995","118.8","1.372","119","NAN","NAN","NAN","NAN","NAN"],
    [1550933,"2026-04-25 01:50:00","51923","1.179","119.3","1.862","119.2","NAN","NAN","NAN","NAN","NAN"],
    [1550934,"2026-04-25 02:00:00","51924","0.46","119.4","1.307","119.4","NAN","NAN","NAN","NAN","NAN"],
    [1550935,"2026-04-25 02:10:00","51925","0.302","119.6","0.849","119.6","NAN","NAN","NAN","NAN","NAN"],
    [1550936,"2026-04-25 02:20:00","51926","0.47","119.7","0.98","119.7","NAN","NAN","NAN","NAN","NAN"],
    [1550937,"2026-04-25 02:30:00","51927","0.53","119.7","1.013","119.7","NAN","NAN","NAN","NAN","NAN"],
    [1550938,"2026-04-25 02:40:00","51928","0.461","119.7","0.882","119.7","NAN","NAN","NAN","NAN","NAN"],
    [1550939,"2026-04-25 02:50:00","51929","0.616","119.9","1.176","119.9","NAN","NAN","NAN","NAN","NAN"],
    [1550940,"2026-04-25 03:00:00","51930","0.585","119.9","1.274","119.9","NAN","NAN","NAN","NAN","NAN"],
    [1550941,"2026-04-25 03:10:00","51931","0.441","120.0","0.882","120","NAN","NAN","NAN","NAN","NAN"],
    [1550942,"2026-04-25 03:20:00","51932","0.40399999999999997","120.0","1.535","120","NAN","NAN","NAN","NAN","NAN"],
    [1550943,"2026-04-25 03:30:00","51933","0.628","120.0","1.601","120","NAN","NAN","NAN","NAN","NAN"],
    [1550944,"2026-04-25 03:40:00","51934","0.5770000000000001","120.0","1.045","120","NAN","NAN","NAN","NAN","NAN"],
    [1550945,"2026-04-25 03:50:00","51935","0.502","120.0","0.915","120","NAN","NAN","NAN","NAN","NAN"],
    [1550946,"2026-04-25 04:00:00","51936","0.58","119.9","1.47","119.9","NAN","NAN","NAN","NAN","NAN"],
    [1550947,"2026-04-25 04:10:00","51937","0.9309999999999999","118.0","1.927","108.4","NAN","NAN","NAN","NAN","NAN"],
    [1550948,"2026-04-25 04:20:00","51938","0.076","116.2","0.817","116.3","NAN","NAN","NAN","NAN","NAN"],
    [1550949,"2026-04-25 04:30:00","51939","0.0","0.0","0","0","NAN","NAN","NAN","NAN","NAN"],
    [1550950,"2026-04-25 04:40:00","51940","0.14400000000000002","112.8","0.882","112.5","NAN","NAN","NAN","NAN","NAN"],
    [1550951,"2026-04-25 04:50:00","51941","0.09300000000000001","112.0","0.653","112","NAN","NAN","NAN","NAN","NAN"],
    [1550952,"2026-04-25 05:00:00","51942","0.375","115.0","1.013","119.6","NAN","NAN","NAN","NAN","NAN"],
    [1550953,"2026-04-25 05:10:00","51943","0.348","115.4","1.078","119.8","NAN","NAN","NAN","NAN","NAN"],
    [1550954,"2026-04-25 05:20:00","51944","0.38799999999999996","118.9","0.784","119.6","NAN","NAN","NAN","NAN","NAN"],
    [1550955,"2026-04-25 05:30:00","51945","0.789","119.9","1.405","119.9","NAN","NAN","NAN","NAN","NAN"],
    [1550956,"2026-04-25 05:40:00","51946","1.048","120.2","1.666","120.3","NAN","NAN","NAN","NAN","NAN"],
    [1550957,"2026-04-25 05:50:00","51947","1.005","120.6","1.764","120.5","NAN","NAN","NAN","NAN","NAN"],
    [1550958,"2026-04-25 06:00:00","51948","0.6629999999999999","120.7","1.503","120.7","NAN","NAN","NAN","NAN","NAN"],
    [1550959,"2026-04-25 06:10:00","51949","0.365","120.7","0.98","120.7","NAN","NAN","NAN","NAN","NAN"],
    [1550960,"2026-04-25 06:20:00","51950","0.8420000000000001","120.7","1.568","120.7","NAN","NAN","NAN","NAN","NAN"],
    [1550961,"2026-04-25 06:30:00","51951","1.141","121.0","1.666","121.1","NAN","NAN","NAN","NAN","NAN"],
    [1550962,"2026-04-25 06:40:00","51952","0.772","121.2","1.601","121.4","NAN","NAN","NAN","NAN","NAN"],
    [1550963,"2026-04-25 06:50:00","51953","0.87","121.6","1.535","121.8","NAN","NAN","NAN","NAN","NAN"],
    [1550964,"2026-04-25 07:00:00","51954","0.9670000000000001","128.3","2.189","130.6","NAN","NAN","NAN","NAN","NAN"],
    [1550965,"2026-04-25 07:10:00","51955","0.9209999999999999","131.0","1.764","130.7","NAN","NAN","NAN","NAN","NAN"],
    [1550966,"2026-04-25 07:20:00","51956","0.772","131.4","1.601","131.3","NAN","NAN","NAN","NAN","NAN"],
    [1550967,"2026-04-25 07:30:00","51957","0.152","131.8","0.817","131.9","NAN","NAN","NAN","NAN","NAN"],
    [1550968,"2026-04-25 07:40:00","51958","0.455","131.9","1.797","131.9","NAN","NAN","NAN","NAN","NAN"],
    [1550969,"2026-04-25 07:50:00","51959","1.155","130.4","1.862","127.1","NAN","NAN","NAN","NAN","NAN"],
    [1550970,"2026-04-25 08:00:00","51960","1.3030000000000002","131.9","2.515","132.6","NAN","NAN","NAN","NAN","NAN"],
    [1550971,"2026-04-25 08:10:00","51961","1.768","118.4","3.005","111","NAN","NAN","NAN","NAN","NAN"],
    [1550972,"2026-04-25 08:20:00","51962","1.82","117.9","3.103","111.9","NAN","NAN","NAN","NAN","NAN"],
    [1550973,"2026-04-25 08:30:00","51963","2.041","115.0","3.071","120.6","NAN","NAN","NAN","NAN","NAN"],
    [1550974,"2026-04-25 08:40:00","51964","2.2640000000000002","107.5","3.463","113.9","NAN","NAN","NAN","NAN","NAN"],
    [1550975,"2026-04-25 08:50:00","51965","2.229","115.5","3.626","131","NAN","NAN","NAN","NAN","NAN"],
    [1550976,"2026-04-25 09:00:00","51966","2.655","124.4","4.018","131.5","NAN","NAN","NAN","NAN","NAN"],
    [1550977,"2026-04-25 09:10:00","51967","2.67","128.2","4.606","132.8","NAN","NAN","NAN","NAN","NAN"],
    [1550978,"2026-04-25 09:20:00","51968","2.741","133.0","4.573","121.6","NAN","NAN","NAN","NAN","NAN"],
    [1550979,"2026-04-25 09:30:00","51969","2.639","126.0","3.953","102.1","NAN","NAN","NAN","NAN","NAN"],
    [1550980,"2026-04-25 09:40:00","51970","2.681","111.9","4.083","110.9","NAN","NAN","NAN","NAN","NAN"],
    [1550981,"2026-04-25 09:50:00","51971","2.667","123.9","3.953","136","NAN","NAN","NAN","NAN","NAN"],
    [1550982,"2026-04-25 10:00:00","51972","3.0580000000000003","134.8","4.149","128.5","NAN","NAN","NAN","NAN","NAN"],
    [1550983,"2026-04-25 10:10:00","51973","3.1660000000000004","123.1","4.671","140.1","NAN","NAN","NAN","NAN","NAN"],
    [1550984,"2026-04-25 10:20:00","51974","2.943","122.2","4.116","134","NAN","NAN","NAN","NAN","NAN"],
    [1550985,"2026-04-25 10:30:00","51975","2.785","130.9","4.083","145.1","NAN","NAN","NAN","NAN","NAN"],
    [1550986,"2026-04-25 10:40:00","51976","2.213","131.6","4.149","139.7","NAN","NAN","NAN","NAN","NAN"],
    [1550987,"2026-04-25 10:50:00","51977","2.585","122.8","3.659","136.4","NAN","NAN","NAN","NAN","NAN"],
    [1550988,"2026-04-25 11:00:00","51978","2.081","125.1","3.626","127","NAN","NAN","NAN","NAN","NAN"],
    [1550989,"2026-04-25 11:10:00","51979","2.5980000000000003","127.3","4.312","134.2","NAN","NAN","NAN","NAN","NAN"],
    [1550990,"2026-04-25 11:20:00","51980","2.395","128.9","3.953","145.3","NAN","NAN","NAN","NAN","NAN"],
    [1550991,"2026-04-25 11:30:00","51981","2.593","135.2","4.312","136.7","NAN","NAN","NAN","NAN","NAN"],
    [1550992,"2026-04-25 11:40:00","51982","2.924","146.9","4.312","140.1","NAN","NAN","NAN","NAN","NAN"],
    [1550993,"2026-04-25 11:50:00","51983","2.85","157.0","4.312","146.8","NAN","NAN","NAN","NAN","NAN"],
    [1550994,"2026-04-25 12:00:00","51984","2.915","157.6","4.475","165.6","NAN","NAN","NAN","NAN","NAN"],
    [1550995,"2026-04-25 12:10:00","51985","2.5340000000000003","158.5","4.116","148","NAN","NAN","NAN","NAN","NAN"],
    [1550996,"2026-04-25 12:20:00","51986","2.8289999999999997","149.0","4.377","134.9","NAN","NAN","NAN","NAN","NAN"],
    [1550997,"2026-04-25 12:30:00","51987","3.58","145.1","5.031","138.2","NAN","NAN","NAN","NAN","NAN"],
    [1550998,"2026-04-25 12:40:00","51988","3.241","133.2","4.606","123.7","NAN","NAN","NAN","NAN","NAN"],
    [1550999,"2026-04-25 12:50:00","51989","3.2230000000000003","136.9","4.998","126.1","NAN","NAN","NAN","NAN","NAN"],
    [1551000,"2026-04-25 13:00:00","51990","3.4819999999999998","138.9","5.129","135.8","NAN","NAN","NAN","NAN","NAN"],
    [1551001,"2026-04-25 13:10:00","51991","3.3930000000000002","142.1","4.769","128","NAN","NAN","NAN","NAN","NAN"],
    [1551002,"2026-04-25 13:20:00","51992","3.2439999999999998","145.7","4.998","149.6","NAN","NAN","NAN","NAN","NAN"],
    [1551003,"2026-04-25 13:30:00","51993","3.616","147.9","5.194","137.5","NAN","NAN","NAN","NAN","NAN"],
    [1551004,"2026-04-25 13:40:00","51994","4.013","136.6","5.455","131.5","NAN","NAN","NAN","NAN","NAN"],
    [1551005,"2026-04-25 13:50:00","51995","3.403","157.8","4.835","177","NAN","NAN","NAN","NAN","NAN"],
    [1551006,"2026-04-25 14:00:00","51996","3.675","158.9","5.39","163.2","NAN","NAN","NAN","NAN","NAN"],
    [1551007,"2026-04-25 14:10:00","51997","3.097","162.7","4.508","164.5","NAN","NAN","NAN","NAN","NAN"],
    [1551008,"2026-04-25 14:20:00","51998","2.96","164.5","5.096","159.3","NAN","NAN","NAN","NAN","NAN"],
    [1551009,"2026-04-25 14:30:00","51999","2.4859999999999998","168.0","4.9","175","NAN","NAN","NAN","NAN","NAN"],
    [1551010,"2026-04-25 14:40:00","52000","2.725","169.5","4.573","157.4","NAN","NAN","NAN","NAN","NAN"],
    [1551011,"2026-04-25 14:50:00","52001","2.311","182.8","4.541","173","NAN","NAN","NAN","NAN","NAN"],
    [1551012,"2026-04-25 15:00:00","52002","2.536","169.8","4.247","171.3","NAN","NAN","NAN","NAN","NAN"],
    [1551013,"2026-04-25 15:10:00","52003","2.501","175.0","4.247","159.2","NAN","NAN","NAN","NAN","NAN"],
    [1551014,"2026-04-25 15:20:00","52004","2.314","198.6","3.953","185.2","NAN","NAN","NAN","NAN","NAN"],
    [1551015,"2026-04-25 15:30:00","52005","1.955","183.0","3.887","176.3","NAN","NAN","NAN","NAN","NAN"],
    [1551016,"2026-04-25 15:40:00","52006","2.1719999999999997","193.4","4.377","169.2","NAN","NAN","NAN","NAN","NAN"],
    [1551017,"2026-04-25 15:50:00","52007","2.218","184.1","4.181","208.5","NAN","NAN","NAN","NAN","NAN"],
    [1551018,"2026-04-25 16:00:00","52008","2.1790000000000003","179.1","4.214","199.1","NAN","NAN","NAN","NAN","NAN"],
    [1551019,"2026-04-25 16:10:00","52009","1.986","208.6","3.463","218.5","NAN","NAN","NAN","NAN","NAN"],
    [1551020,"2026-04-25 16:20:00","52010","2.372","186.7","4.443","174.4","NAN","NAN","NAN","NAN","NAN"],
    [1551021,"2026-04-25 16:30:00","52011","1.96","185.8","4.214","158.4","NAN","NAN","NAN","NAN","NAN"],
    [1551022,"2026-04-25 16:40:00","52012","2.005","206.9","3.822","209.3","NAN","NAN","NAN","NAN","NAN"],
    [1551023,"2026-04-25 16:50:00","52013","2.039","190.9","3.855","189.6","NAN","NAN","NAN","NAN","NAN"],
    [1551024,"2026-04-25 17:00:00","52014","1.9769999999999999","176.7","3.985","185.4","NAN","NAN","NAN","NAN","NAN"],
    [1551025,"2026-04-25 17:10:00","52015","1.849","207.9","3.822","207.1","NAN","NAN","NAN","NAN","NAN"],
    [1551026,"2026-04-25 17:20:00","52016","2.022","214.9","3.43","215.8","NAN","NAN","NAN","NAN","NAN"],
    [1551027,"2026-04-25 17:30:00","52017","2.046","215.8","3.495","220.2","NAN","NAN","NAN","NAN","NAN"],
    [1551028,"2026-04-25 17:40:00","52018","1.453","196.6","2.809","176.5","NAN","NAN","NAN","NAN","NAN"],
    [1551029,"2026-04-25 17:50:00","52019","1.624","198.5","2.777","202.8","NAN","NAN","NAN","NAN","NAN"],
    [1551030,"2026-04-25 18:00:00","52020","1.719","205.5","2.777","205","NAN","NAN","NAN","NAN","NAN"],
    [1551031,"2026-04-25 18:10:00","52021","1.7480000000000002","203.7","2.94","210.7","NAN","NAN","NAN","NAN","NAN"],
    [1551032,"2026-04-25 18:20:00","52022","2.0269999999999997","208.1","3.103","210.6","NAN","NAN","NAN","NAN","NAN"],
    [1551033,"2026-04-25 18:30:00","52023","2.01","207.4","3.136","210.8","NAN","NAN","NAN","NAN","NAN"],
    [1551034,"2026-04-25 18:40:00","52024","2.22","207.1","3.103","209.8","NAN","NAN","NAN","NAN","NAN"],
    [1551035,"2026-04-25 18:50:00","52025","2.136","207.3","3.169","212.2","NAN","NAN","NAN","NAN","NAN"],
    [1551036,"2026-04-25 19:00:00","52026","2.3080000000000003","209.2","3.299","212.9","NAN","NAN","NAN","NAN","NAN"],
    [1551037,"2026-04-25 19:10:00","52027","1.432","217.6","2.94","218","NAN","NAN","NAN","NAN","NAN"],
    [1551038,"2026-04-25 19:20:00","52028","1.614","215.7","2.744","218.4","NAN","NAN","NAN","NAN","NAN"],
    [1551039,"2026-04-25 19:30:00","52029","1.189","211.4","2.417","207.3","NAN","NAN","NAN","NAN","NAN"],
    [1551040,"2026-04-25 19:40:00","52030","1.829","208.6","3.169","204.6","NAN","NAN","NAN","NAN","NAN"],
    [1551041,"2026-04-25 19:50:00","52031","2.113","208.8","3.234","208.7","NAN","NAN","NAN","NAN","NAN"],
    [1551042,"2026-04-25 20:00:00","52032","1.561","212.4","2.581","208.1","NAN","NAN","NAN","NAN","NAN"],
    [1551043,"2026-04-25 20:10:00","52033","1.334","221.6","2.221","223.4","NAN","NAN","NAN","NAN","NAN"],
    [1551044,"2026-04-25 20:20:00","52034","1.254","215.3","2.45","211","NAN","NAN","NAN","NAN","NAN"],
    [1551045,"2026-04-25 20:30:00","52035","0.64","219.1","1.601","223.8","NAN","NAN","NAN","NAN","NAN"],
    [1551046,"2026-04-25 20:40:00","52036","0.649","214.4","2.156","210.5","NAN","NAN","NAN","NAN","NAN"],
    [1551047,"2026-04-25 20:50:00","52037","1.786","207.5","2.711","205","NAN","NAN","NAN","NAN","NAN"],
    [1551048,"2026-04-25 21:00:00","52038","1.058","211.9","2.646","207.8","NAN","NAN","NAN","NAN","NAN"],
    [1551049,"2026-04-25 21:10:00","52039","1.214","223.2","2.156","223.7","NAN","NAN","NAN","NAN","NAN"],
    [1551050,"2026-04-25 21:20:00","52040","1.338","226.6","2.287","226.3","NAN","NAN","NAN","NAN","NAN"],
    [1551051,"2026-04-25 21:30:00","52041","1.381","227.5","2.319","227.9","NAN","NAN","NAN","NAN","NAN"],
    [1551052,"2026-04-25 21:40:00","52042","1.2229999999999999","228.5","2.091","228.5","NAN","NAN","NAN","NAN","NAN"],
    [1551053,"2026-04-25 21:50:00","52043","1.138","228.6","1.895","228.9","NAN","NAN","NAN","NAN","NAN"],
    [1551054,"2026-04-25 22:00:00","52044","1.048","227.5","1.699","228.8","NAN","NAN","NAN","NAN","NAN"],
    [1551055,"2026-04-25 22:10:00","52045","1.5530000000000002","225.9","2.842","230.1","NAN","NAN","NAN","NAN","NAN"],
    [1551056,"2026-04-25 22:20:00","52046","1.324","231.3","2.515","231.3","NAN","NAN","NAN","NAN","NAN"],
    [1551057,"2026-04-25 22:30:00","52047","1.2429999999999999","228.5","2.287","231.8","NAN","NAN","NAN","NAN","NAN"],
    [1551058,"2026-04-25 22:40:00","52048","0.9329999999999999","226.7","1.927","219.3","NAN","NAN","NAN","NAN","NAN"],
    [1551059,"2026-04-25 22:50:00","52049","1.141","231.0","2.091","232.2","NAN","NAN","NAN","NAN","NAN"],
    [1551060,"2026-04-25 23:00:00","52050","1.095","232.0","2.352","232.8","NAN","NAN","NAN","NAN","NAN"],
    [1551061,"2026-04-25 23:10:00","52051","1.45","233.1","2.385","233.2","NAN","NAN","NAN","NAN","NAN"],
    [1551062,"2026-04-25 23:20:00","52052","1.68","234.2","2.483","234","NAN","NAN","NAN","NAN","NAN"],
    [1551063,"2026-04-25 23:30:00","52053","1.797","235.0","2.744","234.9","NAN","NAN","NAN","NAN","NAN"],
    [1551064,"2026-04-25 23:40:00","52054","1.521","235.6","2.875","235.3","NAN","NAN","NAN","NAN","NAN"],
    [1551065,"2026-04-25 23:50:00","52055","1.834","240.2","2.777","240.7","NAN","NAN","NAN","NAN","NAN"],
    [1551066,"2026-04-26 00:00:00","52056","1.6580000000000001","246.3","3.332","246.3","NAN","NAN","NAN","NAN","NAN"],
    [1551067,"2026-04-26 00:10:00","52057","0.294","246.5","1.307","246.5","NAN","NAN","NAN","NAN","NAN"],
    [1551068,"2026-04-26 00:20:00","52058","0.585","246.5","1.437","246.5","NAN","NAN","NAN","NAN","NAN"],
    [1551069,"2026-04-26 00:30:00","52059","0.205","246.5","0.882","246.5","NAN","NAN","NAN","NAN","NAN"],
    [1551070,"2026-04-26 00:40:00","52060","0.75","246.5","1.307","246.5","NAN","NAN","NAN","NAN","NAN"],
    [1551071,"2026-04-26 00:50:00","52061","0.907","246.5","1.568","246.5","NAN","NAN","NAN","NAN","NAN"],
    [1551072,"2026-04-26 01:00:00","52062","0.536","246.5","1.535","246.5","NAN","NAN","NAN","NAN","NAN"],
    [1551073,"2026-04-26 01:10:00","52063","0.491","246.4","0.98","246.5","NAN","NAN","NAN","NAN","NAN"],
    [1551074,"2026-04-26 01:20:00","52064","0.488","246.4","0.849","246.4","NAN","NAN","NAN","NAN","NAN"],
    [1551075,"2026-04-26 01:30:00","52065","0.20800000000000002","246.4","0.621","246.4","NAN","NAN","NAN","NAN","NAN"],
    [1551076,"2026-04-26 01:40:00","52066","0.0","0.0","0","0","NAN","NAN","NAN","NAN","NAN"],
    [1551077,"2026-04-26 01:50:00","52067","0.0","0.0","0","0","NAN","NAN","NAN","NAN","NAN"],
    [1551078,"2026-04-26 02:00:00","52068","0.012","246.4","0.261","246.4","NAN","NAN","NAN","NAN","NAN"],
    [1551079,"2026-04-26 02:10:00","52069","0.0","0.0","0","0","NAN","NAN","NAN","NAN","NAN"],
    [1551080,"2026-04-26 02:20:00","52070","0.0","0.0","0","0","NAN","NAN","NAN","NAN","NAN"],
    [1551081,"2026-04-26 02:30:00","52071","0.5529999999999999","201.3","3.071","72.91","NAN","NAN","NAN","NAN","NAN"],
    [1551082,"2026-04-26 02:40:00","52072","2.214","72.48","4.018","70.05","NAN","NAN","NAN","NAN","NAN"],
    [1551083,"2026-04-26 02:50:00","52073","2.917","72.38","5.651","73.84","NAN","NAN","NAN","NAN","NAN"],
    [1551084,"2026-04-26 03:00:00","52074","2.8080000000000003","71.46","4.769","67.77","NAN","NAN","NAN","NAN","NAN"],
    [1551085,"2026-04-26 03:10:00","52075","1.55","62.93","3.201","64.99","NAN","NAN","NAN","NAN","NAN"],
    [1551086,"2026-04-26 03:20:00","52076","1.516","58.53","2.711","58.28","NAN","NAN","NAN","NAN","NAN"],
    [1551087,"2026-04-26 03:30:00","52077","1.15","57.35","2.221","57.51","NAN","NAN","NAN","NAN","NAN"],
    [1551088,"2026-04-26 03:40:00","52078","0.722","56.07","2.123","56.55","NAN","NAN","NAN","NAN","NAN"],
    [1551089,"2026-04-26 03:50:00","52079","0.22","55.68","0.915","55.68","NAN","NAN","NAN","NAN","NAN"],
    [1551090,"2026-04-26 04:00:00","52080","0.20800000000000002","55.68","1.078","55.66","NAN","NAN","NAN","NAN","NAN"],
    [1551091,"2026-04-26 04:10:00","52081","0.295","55.68","1.111","55.68","NAN","NAN","NAN","NAN","NAN"],
    [1551092,"2026-04-26 04:20:00","52082","0.892","57.27","2.417","59.57","NAN","NAN","NAN","NAN","NAN"],
    [1551093,"2026-04-26 04:30:00","52083","0.978","55.68","2.123","55.27","NAN","NAN","NAN","NAN","NAN"],
    [1551094,"2026-04-26 04:40:00","52084","0.821","56.22","1.568","55.11","NAN","NAN","NAN","NAN","NAN"],
    [1551095,"2026-04-26 04:50:00","52085","0.426","59.48","1.405","55.2","NAN","NAN","NAN","NAN","NAN"],
    [1551096,"2026-04-26 05:00:00","52086","0.192","54.89","0.882","55.01","NAN","NAN","NAN","NAN","NAN"],
    [1551097,"2026-04-26 05:10:00","52087","0.45899999999999996","54.27","1.209","54.24","NAN","NAN","NAN","NAN","NAN"],
    [1551098,"2026-04-26 05:20:00","52088","0.564","53.86","1.503","53.95","NAN","NAN","NAN","NAN","NAN"],
    [1551099,"2026-04-26 05:30:00","52089","0.515","53.59","1.568","53.57","NAN","NAN","NAN","NAN","NAN"],
    [1551100,"2026-04-26 05:40:00","52090","0.354","53.57","1.372","53.57","NAN","NAN","NAN","NAN","NAN"],
    [1551101,"2026-04-26 05:50:00","52091","0.491","58.44","1.503","62.39","NAN","NAN","NAN","NAN","NAN"],
    [1551102,"2026-04-26 06:00:00","52092","0.544","56.9","1.47","57.52","NAN","NAN","NAN","NAN","NAN"],
    [1551103,"2026-04-26 06:10:00","52093","0.5529999999999999","61.48","1.405","63.74","NAN","NAN","NAN","NAN","NAN"],
    [1551104,"2026-04-26 06:20:00","52094","0.382","62.42","0.882","63.87","NAN","NAN","NAN","NAN","NAN"],
    [1551105,"2026-04-26 06:30:00","52095","0.251","63.94","0.98","64.35","NAN","NAN","NAN","NAN","NAN"],
    [1551106,"2026-04-26 06:40:00","52096","0.102","63.61","0.686","65.79","NAN","NAN","NAN","NAN","NAN"],
    [1551107,"2026-04-26 06:50:00","52097","0.057999999999999996","53.69","0.719","53.79","NAN","NAN","NAN","NAN","NAN"],
    [1551108,"2026-04-26 07:00:00","52098","0.41100000000000003","54.72","1.47","53.28","NAN","NAN","NAN","NAN","NAN"],
    [1551109,"2026-04-26 07:10:00","52099","0.079","60.33","0.98","52.89","NAN","NAN","NAN","NAN","NAN"],
    [1551110,"2026-04-26 07:20:00","52100","0.341","64.73","1.339","67.03","NAN","NAN","NAN","NAN","NAN"],
    [1551111,"2026-04-26 07:30:00","52101","0.44299999999999995","68.29","1.372","68.87","NAN","NAN","NAN","NAN","NAN"],
    [1551112,"2026-04-26 07:40:00","52102","1.156","72.66","2.319","75.61","NAN","NAN","NAN","NAN","NAN"],
    [1551113,"2026-04-26 07:50:00","52103","0.78","76.01","1.797","75.95","NAN","NAN","NAN","NAN","NAN"],
    [1551114,"2026-04-26 08:00:00","52104","0.5820000000000001","75.48","1.797","74.45","NAN","NAN","NAN","NAN","NAN"],
    [1551115,"2026-04-26 08:10:00","52105","0.8809999999999999","76.95","1.862","76.89","NAN","NAN","NAN","NAN","NAN"],
    [1551116,"2026-04-26 08:20:00","52106","0.89","78.88","1.829","78.5","NAN","NAN","NAN","NAN","NAN"],
    [1551117,"2026-04-26 08:30:00","52107","0.7290000000000001","80.2","1.666","79.97","NAN","NAN","NAN","NAN","NAN"],
    [1551118,"2026-04-26 08:40:00","52108","0.795","81.4","1.862","81.3","NAN","NAN","NAN","NAN","NAN"],
    [1551119,"2026-04-26 08:50:00","52109","1.202","84.9","2.352","85.6","NAN","NAN","NAN","NAN","NAN"],
    [1551120,"2026-04-26 09:00:00","52110","1.122","86.3","2.123","86.6","NAN","NAN","NAN","NAN","NAN"],
    [1551121,"2026-04-26 09:10:00","52111","1.262","87.5","2.581","88","NAN","NAN","NAN","NAN","NAN"],
    [1551122,"2026-04-26 09:20:00","52112","2.373","120.9","3.495","129.2","NAN","NAN","NAN","NAN","NAN"],
    [1551123,"2026-04-26 09:30:00","52113","2.6639999999999997","132.8","3.463","134","NAN","NAN","NAN","NAN","NAN"],
    [1551124,"2026-04-26 09:40:00","52114","2.366","123.5","3.593","136.8","NAN","NAN","NAN","NAN","NAN"],
    [1551125,"2026-04-26 09:50:00","52115","2.005","117.2","3.136","113.6","NAN","NAN","NAN","NAN","NAN"],
    [1551126,"2026-04-26 10:00:00","52116","1.925","121.5","2.907","112.1","NAN","NAN","NAN","NAN","NAN"],
    [1551127,"2026-04-26 10:10:00","52117","2.142","127.7","3.169","137.1","NAN","NAN","NAN","NAN","NAN"],
    [1551128,"2026-04-26 10:20:00","52118","2.127","118.9","3.201","132.5","NAN","NAN","NAN","NAN","NAN"],
    [1551129,"2026-04-26 10:30:00","52119","2.082","114.3","3.169","132.6","NAN","NAN","NAN","NAN","NAN"],
    [1551130,"2026-04-26 10:40:00","52120","2.168","111.3","2.744","121","NAN","NAN","NAN","NAN","NAN"],
    [1551131,"2026-04-26 10:50:00","52121","2.0780000000000003","112.9","3.267","105.4","NAN","NAN","NAN","NAN","NAN"],
    [1551132,"2026-04-26 11:00:00","52122","2.588","113.8","3.789","114.5","NAN","NAN","NAN","NAN","NAN"],
    [1551133,"2026-04-26 11:10:00","52123","2.772","132.6","4.149","134.1","NAN","NAN","NAN","NAN","NAN"],
    [1551134,"2026-04-26 11:20:00","52124","2.1","122.5","3.201","138.6","NAN","NAN","NAN","NAN","NAN"],
    [1551135,"2026-04-26 11:30:00","52125","1.946","110.3","3.071","103.3","NAN","NAN","NAN","NAN","NAN"],
    [1551136,"2026-04-26 11:40:00","52126","2.373","107.1","3.332","106","NAN","NAN","NAN","NAN","NAN"],
    [1551137,"2026-04-26 11:50:00","52127","2.1959999999999997","112.8","3.43","118.6","NAN","NAN","NAN","NAN","NAN"],
    [1551138,"2026-04-26 12:00:00","52128","2.326","119.3","3.822","110.6","NAN","NAN","NAN","NAN","NAN"],
    [1551139,"2026-04-26 12:10:00","52129","2.323","120.8","3.724","128.5","NAN","NAN","NAN","NAN","NAN"],
    [1551140,"2026-04-26 12:20:00","52130","2.613","136.0","4.312","154.1","NAN","NAN","NAN","NAN","NAN"],
    [1551141,"2026-04-26 12:30:00","52131","2.72","135.9","4.541","151.9","NAN","NAN","NAN","NAN","NAN"],
    [1551142,"2026-04-26 12:40:00","52132","2.483","135.2","4.083","122.2","NAN","NAN","NAN","NAN","NAN"],
    [1551143,"2026-04-26 12:50:00","52133","2.7039999999999997","145.2","4.41","140.1","NAN","NAN","NAN","NAN","NAN"],
    [1551144,"2026-04-26 13:00:00","52134","2.613","183.3","4.508","207","NAN","NAN","NAN","NAN","NAN"],
    [1551145,"2026-04-26 13:10:00","52135","2.875","186.2","4.933","168.8","NAN","NAN","NAN","NAN","NAN"],
    [1551146,"2026-04-26 13:20:00","52136","2.8510000000000004","195.4","4.541","210","NAN","NAN","NAN","NAN","NAN"],
    [1551147,"2026-04-26 13:30:00","52137","2.8760000000000003","190.4","5.129","163.7","NAN","NAN","NAN","NAN","NAN"],
    [1551148,"2026-04-26 13:40:00","52138","3.135","188.9","5.129","171.2","NAN","NAN","NAN","NAN","NAN"],
    [1551149,"2026-04-26 13:50:00","52139","2.532","202.9","4.737","219","NAN","NAN","NAN","NAN","NAN"],
    [1551150,"2026-04-26 14:00:00","52140","2.779","182.4","5.259","159.4","NAN","NAN","NAN","NAN","NAN"],
    [1551151,"2026-04-26 14:10:00","52141","2.57","200.9","4.9","211.6","NAN","NAN","NAN","NAN","NAN"],
    [1551152,"2026-04-26 14:20:00","52142","2.645","210.7","5.194","210.5","NAN","NAN","NAN","NAN","NAN"],
    [1551153,"2026-04-26 14:30:00","52143","2.441","213.2","5.096","221.9","NAN","NAN","NAN","NAN","NAN"],
    [1551154,"2026-04-26 14:40:00","52144","2.488","203.1","4.965","211.5","NAN","NAN","NAN","NAN","NAN"],
    [1551155,"2026-04-26 14:50:00","52145","2.7960000000000003","201.1","5.096","215.8","NAN","NAN","NAN","NAN","NAN"],
    [1551156,"2026-04-26 15:00:00","52146","2.5980000000000003","184.1","5.39","161","NAN","NAN","NAN","NAN","NAN"],
    [1551157,"2026-04-26 15:10:00","52147","2.258","206.4","4.312","238.3","NAN","NAN","NAN","NAN","NAN"],
    [1551158,"2026-04-26 15:20:00","52148","2.1319999999999997","194.7","4.312","215.1","NAN","NAN","NAN","NAN","NAN"],
    [1551159,"2026-04-26 15:30:00","52149","2.052","216.9","3.855","213","NAN","NAN","NAN","NAN","NAN"],
    [1551160,"2026-04-26 15:40:00","52150","2.051","233.0","3.691","229.8","NAN","NAN","NAN","NAN","NAN"],
    [1551161,"2026-04-26 15:50:00","52151","1.93","210.4","3.593","208.5","NAN","NAN","NAN","NAN","NAN"],
    [1551162,"2026-04-26 16:00:00","52152","2.218","184.4","4.116","162.1","NAN","NAN","NAN","NAN","NAN"],
    [1551163,"2026-04-26 16:10:00","52153","1.861","172.8","3.561","163.1","NAN","NAN","NAN","NAN","NAN"],
    [1551164,"2026-04-26 16:20:00","52154","1.6840000000000002","173.0","3.528","179.5","NAN","NAN","NAN","NAN","NAN"],
    [1551165,"2026-04-26 16:30:00","52155","1.564","177.8","3.332","175.6","NAN","NAN","NAN","NAN","NAN"],
    [1551166,"2026-04-26 16:40:00","52156","1.192","170.3","2.679","165.9","NAN","NAN","NAN","NAN","NAN"],
    [1551167,"2026-04-26 16:50:00","52157","1.044","188.8","2.319","195","NAN","NAN","NAN","NAN","NAN"],
    [1551168,"2026-04-26 17:00:00","52158","1.422","142.2","2.646","163.4","NAN","NAN","NAN","NAN","NAN"],
    [1551169,"2026-04-26 17:10:00","52159","1.5319999999999998","124.3","2.646","116.5","NAN","NAN","NAN","NAN","NAN"],
    [1551170,"2026-04-26 17:20:00","52160","1.716","113.7","2.809","123.7","NAN","NAN","NAN","NAN","NAN"],
    [1551171,"2026-04-26 17:30:00","52161","1.739","123.8","2.744","124.9","NAN","NAN","NAN","NAN","NAN"],
    [1551172,"2026-04-26 17:40:00","52162","2.501","140.8","3.463","156.5","NAN","NAN","NAN","NAN","NAN"],
    [1551173,"2026-04-26 17:50:00","52163","1.989","148.7","3.43","135.3","NAN","NAN","NAN","NAN","NAN"],
    [1551174,"2026-04-26 18:00:00","52164","1.922","155.5","2.907","148.9","NAN","NAN","NAN","NAN","NAN"],
    [1551175,"2026-04-26 18:10:00","52165","1.808","162.0","3.005","150.8","NAN","NAN","NAN","NAN","NAN"],
    [1551176,"2026-04-26 18:20:00","52166","0.9159999999999999","171.1","2.058","172.7","NAN","NAN","NAN","NAN","NAN"],
    [1551177,"2026-04-26 18:30:00","52167","1.186","172.0","2.189","166.7","NAN","NAN","NAN","NAN","NAN"],
    [1551178,"2026-04-26 18:40:00","52168","1.237","169.0","2.417","163.4","NAN","NAN","NAN","NAN","NAN"],
    [1551179,"2026-04-26 18:50:00","52169","1.113","172.6","2.679","173.2","NAN","NAN","NAN","NAN","NAN"],
    [1551180,"2026-04-26 19:00:00","52170","1.327","174.6","2.973","174.1","NAN","NAN","NAN","NAN","NAN"],
    [1551181,"2026-04-26 19:10:00","52171","1.4680000000000002","180.2","2.679","196.7","NAN","NAN","NAN","NAN","NAN"],
    [1551182,"2026-04-26 19:20:00","52172","2.45","202.9","3.593","203.7","NAN","NAN","NAN","NAN","NAN"],
    [1551183,"2026-04-26 19:30:00","52173","2.1519999999999997","208.3","3.659","207.3","NAN","NAN","NAN","NAN","NAN"],
    [1551184,"2026-04-26 19:40:00","52174","1.916","214.7","3.789","218.1","NAN","NAN","NAN","NAN","NAN"],
    [1551185,"2026-04-26 19:50:00","52175","1.629","229.2","3.397","228.6","NAN","NAN","NAN","NAN","NAN"],
    [1551186,"2026-04-26 20:00:00","52176","1.54","231.7","2.679","235","NAN","NAN","NAN","NAN","NAN"],
    [1551187,"2026-04-26 20:10:00","52177","1.9269999999999998","237.9","3.397","234.4","NAN","NAN","NAN","NAN","NAN"],
    [1551188,"2026-04-26 20:20:00","52178","2.026","241.0","2.907","241.5","NAN","NAN","NAN","NAN","NAN"],
    [1551189,"2026-04-26 20:30:00","52179","1.49","241.4","2.581","243.3","NAN","NAN","NAN","NAN","NAN"],
    [1551190,"2026-04-26 20:40:00","52180","1.415","224.6","2.417","220.7","NAN","NAN","NAN","NAN","NAN"],
    [1551191,"2026-04-26 20:50:00","52181","1.645","225.0","3.005","220.5","NAN","NAN","NAN","NAN","NAN"],
    [1551192,"2026-04-26 21:00:00","52182","1.416","220.5","2.319","217.4","NAN","NAN","NAN","NAN","NAN"],
    [1551193,"2026-04-26 21:10:00","52183","1.5930000000000002","221.8","3.626","217.7","NAN","NAN","NAN","NAN","NAN"],
    [1551194,"2026-04-26 21:20:00","52184","1.298","230.9","3.365","230.4","NAN","NAN","NAN","NAN","NAN"],
    [1551195,"2026-04-26 21:30:00","52185","1.646","226.9","3.43","233.8","NAN","NAN","NAN","NAN","NAN"],
    [1551196,"2026-04-26 21:40:00","52186","1.837","220.8","3.365","204.2","NAN","NAN","NAN","NAN","NAN"],
    [1551197,"2026-04-26 21:50:00","52187","2.149","245.9","3.234","248","NAN","NAN","NAN","NAN","NAN"],
    [1551198,"2026-04-26 22:00:00","52188","1.409","240.5","2.679","236","NAN","NAN","NAN","NAN","NAN"],
    [1551199,"2026-04-26 22:10:00","52189","1.555","233.1","3.299","220.2","NAN","NAN","NAN","NAN","NAN"],
    [1551200,"2026-04-26 22:20:00","52190","1.6","241.2","2.777","240.4","NAN","NAN","NAN","NAN","NAN"],
    [1551201,"2026-04-26 22:30:00","52191","2.099","251.1","3.267","250.6","NAN","NAN","NAN","NAN","NAN"],
    [1551202,"2026-04-26 22:40:00","52192","1.9369999999999998","249.6","3.005","257.1","NAN","NAN","NAN","NAN","NAN"],
    [1551203,"2026-04-26 22:50:00","52193","1.578","248.9","3.136","250.6","NAN","NAN","NAN","NAN","NAN"],
    [1551204,"2026-04-26 23:00:00","52194","1.824","251.6","2.842","255.6","NAN","NAN","NAN","NAN","NAN"],
    [1551205,"2026-04-26 23:10:00","52195","1.851","253.8","2.809","256.4","NAN","NAN","NAN","NAN","NAN"],
    [1551206,"2026-04-26 23:20:00","52196","1.379","243.1","2.711","242.6","NAN","NAN","NAN","NAN","NAN"],
    [1551207,"2026-04-26 23:30:00","52197","1.252","254.1","2.091","253.2","NAN","NAN","NAN","NAN","NAN"],
    [1551208,"2026-04-26 23:40:00","52198","1.218","250.2","2.025","250.6","NAN","NAN","NAN","NAN","NAN"],
    [1551209,"2026-04-26 23:50:00","52199","1.146","251.4","1.96","254.8","NAN","NAN","NAN","NAN","NAN"],
    [1551210,"2026-04-27 00:00:00","52200","1.09","253.8","1.699","254","NAN","NAN","NAN","NAN","NAN"],
    [1551211,"2026-04-27 00:10:00","52201","0.7809999999999999","253.8","1.241","255.4","NAN","NAN","NAN","NAN","NAN"],
    [1551212,"2026-04-27 00:20:00","52202","1.148","256.3","2.025","258.7","NAN","NAN","NAN","NAN","NAN"],
    [1551213,"2026-04-27 00:30:00","52203","0.94","258.6","1.862","259","NAN","NAN","NAN","NAN","NAN"],
    [1551214,"2026-04-27 00:40:00","52204","1.317","258.9","1.993","259.7","NAN","NAN","NAN","NAN","NAN"],
    [1551215,"2026-04-27 00:50:00","52205","1.061","257.5","1.699","259.8","NAN","NAN","NAN","NAN","NAN"],
    [1551216,"2026-04-27 01:00:00","52206","1.111","256.0","1.862","251.1","NAN","NAN","NAN","NAN","NAN"],
    [1551217,"2026-04-27 01:10:00","52207","1.143","250.8","1.764","252.3","NAN","NAN","NAN","NAN","NAN"],
    [1551218,"2026-04-27 01:20:00","52208","1.2930000000000001","251.4","2.025","253.5","NAN","NAN","NAN","NAN","NAN"],
    [1551219,"2026-04-27 01:30:00","52209","1.5090000000000001","252.0","2.156","248.6","NAN","NAN","NAN","NAN","NAN"],
    [1551220,"2026-04-27 01:40:00","52210","1.679","250.6","2.45","254.4","NAN","NAN","NAN","NAN","NAN"],
    [1551221,"2026-04-27 01:50:00","52211","1.7269999999999999","248.8","2.613","251.2","NAN","NAN","NAN","NAN","NAN"],
    [1551222,"2026-04-27 02:00:00","52212","2.189","263.6","3.855","262.4","NAN","NAN","NAN","NAN","NAN"],
    [1551223,"2026-04-27 02:10:00","52213","2.9010000000000002","267.9","4.41","272.8","NAN","NAN","NAN","NAN","NAN"],
    [1551224,"2026-04-27 02:20:00","52214","2.4090000000000003","265.7","4.312","267.1","NAN","NAN","NAN","NAN","NAN"],
    [1551225,"2026-04-27 02:30:00","52215","1.8519999999999999","267.2","2.646","274.6","NAN","NAN","NAN","NAN","NAN"],
    [1551226,"2026-04-27 02:40:00","52216","1.925","270.0","3.365","275.1","NAN","NAN","NAN","NAN","NAN"],
    [1551227,"2026-04-27 02:50:00","52217","1.3459999999999999","269.9","2.679","271.1","NAN","NAN","NAN","NAN","NAN"],
    [1551228,"2026-04-27 03:00:00","52218","1.162","275.1","2.254","275.5","NAN","NAN","NAN","NAN","NAN"],
    [1551229,"2026-04-27 03:10:00","52219","1.067","269.1","1.895","278.3","NAN","NAN","NAN","NAN","NAN"],
    [1551230,"2026-04-27 03:20:00","52220","0.58","258.5","1.601","258.7","NAN","NAN","NAN","NAN","NAN"],
    [1551231,"2026-04-27 03:30:00","52221","0.78","259.4","1.862","258.9","NAN","NAN","NAN","NAN","NAN"],
    [1551232,"2026-04-27 03:40:00","52222","1.16","261.6","2.058","257.8","NAN","NAN","NAN","NAN","NAN"],
    [1551233,"2026-04-27 03:50:00","52223","1.922","267.5","3.267","269.4","NAN","NAN","NAN","NAN","NAN"],
    [1551234,"2026-04-27 04:00:00","52224","1.7819999999999998","268.1","2.613","274.5","NAN","NAN","NAN","NAN","NAN"],
    [1551235,"2026-04-27 04:10:00","52225","1.64","268.9","2.417","257.6","NAN","NAN","NAN","NAN","NAN"],
    [1551236,"2026-04-27 04:20:00","52226","1.266","269.0","2.091","266.4","NAN","NAN","NAN","NAN","NAN"],
    [1551237,"2026-04-27 04:30:00","52227","1.204","263.7","2.744","260","NAN","NAN","NAN","NAN","NAN"],
    [1551238,"2026-04-27 04:40:00","52228","0.11199999999999999","257.5","1.013","257.2","NAN","NAN","NAN","NAN","NAN"],
    [1551239,"2026-04-27 04:50:00","52229","0.41600000000000004","261.0","1.078","258.6","NAN","NAN","NAN","NAN","NAN"],
    [1551240,"2026-04-27 05:00:00","52230","0.354","274.3","1.176","277.7","NAN","NAN","NAN","NAN","NAN"],
    [1551241,"2026-04-27 05:10:00","52231","0.406","278.3","1.143","278.4","NAN","NAN","NAN","NAN","NAN"],
    [1551242,"2026-04-27 05:20:00","52232","0.846","274.9","1.96","275","NAN","NAN","NAN","NAN","NAN"],
    [1551243,"2026-04-27 05:30:00","52233","0.953","273.9","1.731","272.6","NAN","NAN","NAN","NAN","NAN"],
    [1551244,"2026-04-27 05:40:00","52234","0.126","270.4","0.686","271.6","NAN","NAN","NAN","NAN","NAN"],
    [1551245,"2026-04-27 05:50:00","52235","0.0","0.0","0","0","NAN","NAN","NAN","NAN","NAN"],
    [1551246,"2026-04-27 06:00:00","52236","0.011000000000000001","268.0","0.359","268","NAN","NAN","NAN","NAN","NAN"],
    [1551247,"2026-04-27 06:10:00","52237","0.0","0.0","0","0","NAN","NAN","NAN","NAN","NAN"],
    [1551248,"2026-04-27 06:20:00","52238","0.019","278.0","0.523","278.2","NAN","NAN","NAN","NAN","NAN"],
    [1551249,"2026-04-27 06:30:00","52239","0.185","276.4","0.588","277.8","NAN","NAN","NAN","NAN","NAN"],
    [1551250,"2026-04-27 06:40:00","52240","0.028999999999999998","270.7","0.327","271.6","NAN","NAN","NAN","NAN","NAN"],
    [1551251,"2026-04-27 06:50:00","52241","0.133","257.1","0.882","257","NAN","NAN","NAN","NAN","NAN"],
    [1551252,"2026-04-27 07:00:00","52242","0.599","253.3","1.437","249.3","NAN","NAN","NAN","NAN","NAN"],
    [1551253,"2026-04-27 07:10:00","52243","0.5920000000000001","167.7","1.307","160.8","NAN","NAN","NAN","NAN","NAN"],
    [1551254,"2026-04-27 07:20:00","52244","0.46799999999999997","159.8","1.274","159.8","NAN","NAN","NAN","NAN","NAN"],
    [1551255,"2026-04-27 07:30:00","52245","0.086","156.3","0.555","156.5","NAN","NAN","NAN","NAN","NAN"],
    [1551256,"2026-04-27 07:40:00","52246","0.584","153.0","1.568","154","NAN","NAN","NAN","NAN","NAN"],
    [1551257,"2026-04-27 07:50:00","52247","1.203","136.3","2.417","131.1","NAN","NAN","NAN","NAN","NAN"],
    [1551258,"2026-04-27 08:00:00","52248","1.8659999999999999","122.0","3.234","118.7","NAN","NAN","NAN","NAN","NAN"],
    [1551259,"2026-04-27 08:10:00","52249","2.217","114.8","3.659","114.8","NAN","NAN","NAN","NAN","NAN"],
    [1551260,"2026-04-27 08:20:00","52250","2.464","119.0","4.312","104.8","NAN","NAN","NAN","NAN","NAN"],
    [1551261,"2026-04-27 08:30:00","52251","2.411","124.8","3.822","139.3","NAN","NAN","NAN","NAN","NAN"],
    [1551262,"2026-04-27 08:40:00","52252","2.2030000000000003","109.3","3.201","114.7","NAN","NAN","NAN","NAN","NAN"],
    [1551263,"2026-04-27 08:50:00","52253","2.541","89.7","4.247","73.52","NAN","NAN","NAN","NAN","NAN"],
    [1551264,"2026-04-27 09:00:00","52254","2.441","76.21","4.116","73.87","NAN","NAN","NAN","NAN","NAN"],
    [1551265,"2026-04-27 09:10:00","52255","2.758","79.68","4.149","87.6","NAN","NAN","NAN","NAN","NAN"],
    [1551266,"2026-04-27 09:20:00","52256","3.347","88.2","5.455","87.1","NAN","NAN","NAN","NAN","NAN"],
    [1551267,"2026-04-27 09:30:00","52257","3.16","90.8","4.606","96.1","NAN","NAN","NAN","NAN","NAN"],
    [1551268,"2026-04-27 09:40:00","52258","3.404","89.1","5.227","83","NAN","NAN","NAN","NAN","NAN"],
    [1551269,"2026-04-27 09:50:00","52259","3.022","91.3","5.031","96.5","NAN","NAN","NAN","NAN","NAN"],
    [1551270,"2026-04-27 10:00:00","52260","2.79","86.0","5.619","85.6","NAN","NAN","NAN","NAN","NAN"],
    [1551271,"2026-04-27 10:10:00","52261","3.38","87.3","5.096","93.2","NAN","NAN","NAN","NAN","NAN"],
    [1551272,"2026-04-27 10:20:00","52262","2.7769999999999997","89.7","4.998","81.5","NAN","NAN","NAN","NAN","NAN"],
    [1551273,"2026-04-27 10:30:00","52263","3.1189999999999998","89.2","4.737","97.2","NAN","NAN","NAN","NAN","NAN"],
    [1551274,"2026-04-27 10:40:00","52264","2.695","96.2","4.835","103.5","NAN","NAN","NAN","NAN","NAN"],
    [1551275,"2026-04-27 10:50:00","52265","2.82","96.8","4.083","98.2","NAN","NAN","NAN","NAN","NAN"],
    [1551276,"2026-04-27 11:00:00","52266","2.783","100.8","4.051","95.9","NAN","NAN","NAN","NAN","NAN"],
    [1551277,"2026-04-27 11:10:00","52267","2.551","88.8","3.985","93.4","NAN","NAN","NAN","NAN","NAN"],
    [1551278,"2026-04-27 11:20:00","52268","2.6839999999999997","87.2","3.757","91.8","NAN","NAN","NAN","NAN","NAN"],
    [1551279,"2026-04-27 11:30:00","52269","2.174","90.9","3.397","94.9","NAN","NAN","NAN","NAN","NAN"],
    [1551280,"2026-04-27 11:40:00","52270","2.542","93.7","3.561","87.6","NAN","NAN","NAN","NAN","NAN"],
    [1551281,"2026-04-27 11:50:00","52271","2.552","81.4","3.985","58.79","NAN","NAN","NAN","NAN","NAN"],
    [1551282,"2026-04-27 12:00:00","52272","2.6239999999999997","87.7","3.789","91","NAN","NAN","NAN","NAN","NAN"],
    [1551283,"2026-04-27 12:10:00","52273","2.8989999999999996","115.4","4.541","133.2","NAN","NAN","NAN","NAN","NAN"],
    [1551284,"2026-04-27 12:20:00","52274","2.594","123.2","3.953","117.3","NAN","NAN","NAN","NAN","NAN"],
    [1551285,"2026-04-27 12:30:00","52275","3.176","131.4","4.639","141.7","NAN","NAN","NAN","NAN","NAN"],
    [1551286,"2026-04-27 12:40:00","52276","2.903","127.3","4.606","135.8","NAN","NAN","NAN","NAN","NAN"],
    [1551287,"2026-04-27 12:50:00","52277","2.4819999999999998","129.5","4.181","138.9","NAN","NAN","NAN","NAN","NAN"],
    [1551288,"2026-04-27 13:00:00","52278","2.541","109.4","3.822","97","NAN","NAN","NAN","NAN","NAN"],
    [1551289,"2026-04-27 13:10:00","52279","2.141","129.6","3.92","95.9","NAN","NAN","NAN","NAN","NAN"],
    [1551290,"2026-04-27 13:20:00","52280","1.943","146.4","3.463","171","NAN","NAN","NAN","NAN","NAN"],
    [1551291,"2026-04-27 13:30:00","52281","2.028","181.4","4.508","187.5","NAN","NAN","NAN","NAN","NAN"],
    [1551292,"2026-04-27 13:40:00","52282","2.002","176.6","4.769","181.6","NAN","NAN","NAN","NAN","NAN"],
    [1551293,"2026-04-27 13:50:00","52283","2.917","184.7","5.161","162.2","NAN","NAN","NAN","NAN","NAN"],
    [1551294,"2026-04-27 14:00:00","52284","1.818","190.3","3.593","218.7","NAN","NAN","NAN","NAN","NAN"],
    [1551295,"2026-04-27 14:10:00","52285","1.5730000000000002","192.4","4.867","214.6","NAN","NAN","NAN","NAN","NAN"],
    [1551296,"2026-04-27 14:20:00","52286","2.376","175.1","4.149","156.2","NAN","NAN","NAN","NAN","NAN"],
    [1551297,"2026-04-27 14:30:00","52287","1.9780000000000002","188.2","3.332","178","NAN","NAN","NAN","NAN","NAN"],
    [1551298,"2026-04-27 14:40:00","52288","2.53","171.9","3.887","172.6","NAN","NAN","NAN","NAN","NAN"],
    [1551299,"2026-04-27 14:50:00","52289","2.167","185.2","3.887","180","NAN","NAN","NAN","NAN","NAN"],
    [1551300,"2026-04-27 15:00:00","52290","2.719","172.0","4.508","175.5","NAN","NAN","NAN","NAN","NAN"],
    [1551301,"2026-04-27 15:10:00","52291","2.5669999999999997","188.4","4.41","217.9","NAN","NAN","NAN","NAN","NAN"],
    [1551302,"2026-04-27 15:20:00","52292","2.551","172.9","4.802","174","NAN","NAN","NAN","NAN","NAN"],
    [1551303,"2026-04-27 15:30:00","52293","3.201","144.8","4.377","146","NAN","NAN","NAN","NAN","NAN"],
    [1551304,"2026-04-27 15:40:00","52294","2.9189999999999996","146.4","5.031","142","NAN","NAN","NAN","NAN","NAN"],
    [1551305,"2026-04-27 15:50:00","52295","2.521","177.0","4.737","213.6","NAN","NAN","NAN","NAN","NAN"],
    [1551306,"2026-04-27 16:00:00","52296","2.343","202.9","3.528","201.2","NAN","NAN","NAN","NAN","NAN"],
    [1551307,"2026-04-27 16:10:00","52297","2.468","202.9","4.639","213.7","NAN","NAN","NAN","NAN","NAN"],
    [1551308,"2026-04-27 16:20:00","52298","1.5630000000000002","167.8","3.757","154.9","NAN","NAN","NAN","NAN","NAN"],
    [1551309,"2026-04-27 16:30:00","52299","1.631","162.6","3.136","157.8","NAN","NAN","NAN","NAN","NAN"],
    [1551310,"2026-04-27 16:40:00","52300","2.307","160.6","3.724","175.7","NAN","NAN","NAN","NAN","NAN"],
    [1551311,"2026-04-27 16:50:00","52301","2.545","140.1","4.312","144.6","NAN","NAN","NAN","NAN","NAN"],
    [1551312,"2026-04-27 17:00:00","52302","2.187","141.1","4.083","133.4","NAN","NAN","NAN","NAN","NAN"],
    [1551313,"2026-04-27 17:10:00","52303","2.109","157.4","3.005","162.9","NAN","NAN","NAN","NAN","NAN"],
    [1551314,"2026-04-27 17:20:00","52304","2.105","133.1","3.724","136.7","NAN","NAN","NAN","NAN","NAN"],
    [1551315,"2026-04-27 17:30:00","52305","1.94","145.9","3.234","152.7","NAN","NAN","NAN","NAN","NAN"],
    [1551316,"2026-04-27 17:40:00","52306","1.594","151.1","2.581","151.6","NAN","NAN","NAN","NAN","NAN"],
    [1551317,"2026-04-27 17:50:00","52307","1.331","174.9","3.136","192.9","NAN","NAN","NAN","NAN","NAN"],
    [1551318,"2026-04-27 18:00:00","52308","1.6269999999999998","206.4","2.875","201.2","NAN","NAN","NAN","NAN","NAN"],
    [1551319,"2026-04-27 18:10:00","52309","2.025","223.0","3.593","224.9","NAN","NAN","NAN","NAN","NAN"],
    [1551320,"2026-04-27 18:20:00","52310","2.311","218.3","3.234","218.9","NAN","NAN","NAN","NAN","NAN"],
    [1551321,"2026-04-27 18:30:00","52311","2.233","215.0","3.659","210.3","NAN","NAN","NAN","NAN","NAN"],
    [1551322,"2026-04-27 18:40:00","52312","2.248","212.2","3.626","211.6","NAN","NAN","NAN","NAN","NAN"],
    [1551323,"2026-04-27 18:50:00","52313","2.097","212.8","3.659","205.4","NAN","NAN","NAN","NAN","NAN"],
    [1551324,"2026-04-27 19:00:00","52314","1.256","226.5","2.711","232.4","NAN","NAN","NAN","NAN","NAN"],
    [1551325,"2026-04-27 19:10:00","52315","1.145","220.0","2.254","220.7","NAN","NAN","NAN","NAN","NAN"],
    [1551326,"2026-04-27 19:20:00","52316","0.7","221.1","1.764","220.5","NAN","NAN","NAN","NAN","NAN"],
    [1551327,"2026-04-27 19:30:00","52317","0.452","216.6","1.339","217","NAN","NAN","NAN","NAN","NAN"],
    [1551328,"2026-04-27 19:40:00","52318","0.7809999999999999","214.2","1.535","214.5","NAN","NAN","NAN","NAN","NAN"],
    [1551329,"2026-04-27 19:50:00","52319","0.889","212.5","1.601","212.5","NAN","NAN","NAN","NAN","NAN"],
    [1551330,"2026-04-27 20:00:00","52320","0.321","211.6","1.176","210.8","NAN","NAN","NAN","NAN","NAN"],
    [1551331,"2026-04-27 20:10:00","52321","0.701","210.1","1.503","210.1","NAN","NAN","NAN","NAN","NAN"],
    [1551332,"2026-04-27 20:20:00","52322","0.467","209.8","1.241","209.8","NAN","NAN","NAN","NAN","NAN"],
    [1551333,"2026-04-27 20:30:00","52323","0.612","217.7","1.372","217.4","NAN","NAN","NAN","NAN","NAN"],
    [1551334,"2026-04-27 20:40:00","52324","0.036000000000000004","221.5","0.425","221.7","NAN","NAN","NAN","NAN","NAN"],
    [1551335,"2026-04-27 20:50:00","52325","0.524","226.1","1.176","225.6","NAN","NAN","NAN","NAN","NAN"],
    [1551336,"2026-04-27 21:00:00","52326","0.7909999999999999","230.2","1.764","231","NAN","NAN","NAN","NAN","NAN"],
    [1551337,"2026-04-27 21:10:00","52327","1.228","216.5","2.189","213.9","NAN","NAN","NAN","NAN","NAN"],
    [1551338,"2026-04-27 21:20:00","52328","0.84","226.5","1.895","223.6","NAN","NAN","NAN","NAN","NAN"],
    [1551339,"2026-04-27 21:30:00","52329","1.26","232.3","2.221","232.6","NAN","NAN","NAN","NAN","NAN"],
    [1551340,"2026-04-27 21:40:00","52330","1.101","224.6","2.091","231.5","NAN","NAN","NAN","NAN","NAN"],
    [1551341,"2026-04-27 21:50:00","52331","1.6469999999999998","216.7","2.646","211","NAN","NAN","NAN","NAN","NAN"],
    [1551342,"2026-04-27 22:00:00","52332","1.22","223.8","2.254","210.8","NAN","NAN","NAN","NAN","NAN"],
    [1551343,"2026-04-27 22:10:00","52333","1.248","233.7","2.679","240.5","NAN","NAN","NAN","NAN","NAN"],
    [1551344,"2026-04-27 22:20:00","52334","1.7469999999999999","241.0","2.417","241","NAN","NAN","NAN","NAN","NAN"],
    [1551345,"2026-04-27 22:30:00","52335","0.9590000000000001","241.4","1.96","241.3","NAN","NAN","NAN","NAN","NAN"],
    [1551346,"2026-04-27 22:40:00","52336","0.733","241.6","1.633","241.6","NAN","NAN","NAN","NAN","NAN"],
    [1551347,"2026-04-27 22:50:00","52337","0.231","241.7","0.915","241.7","NAN","NAN","NAN","NAN","NAN"],
    [1551348,"2026-04-27 23:00:00","52338","0.654","241.7","1.405","241.7","NAN","NAN","NAN","NAN","NAN"],
    [1551349,"2026-04-27 23:10:00","52339","1.401","241.7","2.581","241.9","NAN","NAN","NAN","NAN","NAN"],
    [1551350,"2026-04-27 23:20:00","52340","1.202","241.9","1.927","242","NAN","NAN","NAN","NAN","NAN"],
    [1551351,"2026-04-27 23:30:00","52341","1.3519999999999999","242.4","2.189","242.2","NAN","NAN","NAN","NAN","NAN"],
    [1551352,"2026-04-27 23:40:00","52342","1.258","243.8","2.581","247.6","NAN","NAN","NAN","NAN","NAN"],
    [1551353,"2026-04-27 23:50:00","52343","1.699","274.6","2.973","278.4","NAN","NAN","NAN","NAN","NAN"],
    [1551354,"2026-04-28 00:00:00","52344","2.235","272.7","3.659","272.9","NAN","NAN","NAN","NAN","NAN"],
    [1551355,"2026-04-28 00:10:00","52345","2.186","266.0","3.495","259.8","NAN","NAN","NAN","NAN","NAN"],
    [1551356,"2026-04-28 00:20:00","52346","2.615","255.4","3.495","259.5","NAN","NAN","NAN","NAN","NAN"],
    [1551357,"2026-04-28 00:30:00","52347","2.1830000000000003","261.4","3.855","268.3","NAN","NAN","NAN","NAN","NAN"],
    [1551358,"2026-04-28 00:40:00","52348","2.13","266.1","3.626","265.1","NAN","NAN","NAN","NAN","NAN"],
    [1551359,"2026-04-28 00:50:00","52349","1.548","272.3","2.973","269.6","NAN","NAN","NAN","NAN","NAN"],
    [1551360,"2026-04-28 01:00:00","52350","1.1159999999999999","275.1","2.091","277.1","NAN","NAN","NAN","NAN","NAN"],
    [1551361,"2026-04-28 01:10:00","52351","1.03","275.8","1.666","278.2","NAN","NAN","NAN","NAN","NAN"],
    [1551362,"2026-04-28 01:20:00","52352","0.853","278.3","1.47","278.4","NAN","NAN","NAN","NAN","NAN"],
    [1551363,"2026-04-28 01:30:00","52353","0.945","276.5","1.601","274.2","NAN","NAN","NAN","NAN","NAN"],
    [1551364,"2026-04-28 01:40:00","52354","1.045","273.7","1.764","277","NAN","NAN","NAN","NAN","NAN"],
    [1551365,"2026-04-28 01:50:00","52355","0.86","268.5","1.372","270.1","NAN","NAN","NAN","NAN","NAN"],
    [1551366,"2026-04-28 02:00:00","52356","1.08","265.6","1.666","265.5","NAN","NAN","NAN","NAN","NAN"],
    [1551367,"2026-04-28 02:10:00","52357","1.526","260.6","2.417","260.6","NAN","NAN","NAN","NAN","NAN"],
    [1551368,"2026-04-28 02:20:00","52358","1.29","264.1","2.842","269.5","NAN","NAN","NAN","NAN","NAN"],
    [1551369,"2026-04-28 02:30:00","52359","1.9040000000000001","264.6","2.744","261.3","NAN","NAN","NAN","NAN","NAN"],
    [1551370,"2026-04-28 02:40:00","52360","1.8359999999999999","261.6","3.201","261","NAN","NAN","NAN","NAN","NAN"],
    [1551371,"2026-04-28 02:50:00","52361","1.939","268.9","3.43","261.2","NAN","NAN","NAN","NAN","NAN"],
    [1551372,"2026-04-28 03:00:00","52362","2.114","268.7","3.463","276.5","NAN","NAN","NAN","NAN","NAN"],
    [1551373,"2026-04-28 03:10:00","52363","2.062","273.4","3.169","267.8","NAN","NAN","NAN","NAN","NAN"],
    [1551374,"2026-04-28 03:20:00","52364","2.181","271.1","3.593","266.6","NAN","NAN","NAN","NAN","NAN"],
    [1551375,"2026-04-28 03:30:00","52365","1.704","275.7","3.005","270.4","NAN","NAN","NAN","NAN","NAN"],
    [1551376,"2026-04-28 03:40:00","52366","1.003","274.1","2.254","271.3","NAN","NAN","NAN","NAN","NAN"],
    [1551377,"2026-04-28 03:50:00","52367","0.8740000000000001","277.3","1.731","271.8","NAN","NAN","NAN","NAN","NAN"],
    [1551378,"2026-04-28 04:00:00","52368","0.792","276.2","2.156","271.7","NAN","NAN","NAN","NAN","NAN"],
    [1551379,"2026-04-28 04:10:00","52369","0.414","280.8","1.274","280.9","NAN","NAN","NAN","NAN","NAN"],
    [1551380,"2026-04-28 04:20:00","52370","0.278","280.9","1.209","281.1","NAN","NAN","NAN","NAN","NAN"],
    [1551381,"2026-04-28 04:30:00","52371","0.08900000000000001","275.6","0.588","276","NAN","NAN","NAN","NAN","NAN"],
    [1551382,"2026-04-28 04:40:00","52372","0.20199999999999999","272.9","0.98","271.3","NAN","NAN","NAN","NAN","NAN"],
    [1551383,"2026-04-28 04:50:00","52373","0.621","273.1","1.437","271.2","NAN","NAN","NAN","NAN","NAN"],
    [1551384,"2026-04-28 05:00:00","52374","0.879","272.8","1.405","275.7","NAN","NAN","NAN","NAN","NAN"],
    [1551385,"2026-04-28 05:10:00","52375","0.532","268.5","1.209","270.9","NAN","NAN","NAN","NAN","NAN"],
    [1551386,"2026-04-28 05:20:00","52376","0.551","267.3","1.274","267.2","NAN","NAN","NAN","NAN","NAN"],
    [1551387,"2026-04-28 05:30:00","52377","0.7909999999999999","270.2","1.503","273.7","NAN","NAN","NAN","NAN","NAN"],
    [1551388,"2026-04-28 05:40:00","52378","0.698","271.1","1.535","269.2","NAN","NAN","NAN","NAN","NAN"],
    [1551389,"2026-04-28 05:50:00","52379","0.9520000000000001","268.6","1.829","269.9","NAN","NAN","NAN","NAN","NAN"],
    [1551390,"2026-04-28 06:00:00","52380","0.6809999999999999","270.5","1.372","267.4","NAN","NAN","NAN","NAN","NAN"],
    [1551391,"2026-04-28 06:10:00","52381","0.547","267.9","1.241","270.8","NAN","NAN","NAN","NAN","NAN"],
    [1551392,"2026-04-28 06:20:00","52382","0.37799999999999995","270.6","1.339","269.8","NAN","NAN","NAN","NAN","NAN"],
    [1551393,"2026-04-28 06:30:00","52383","0.10800000000000001","263.8","0.915","263.4","NAN","NAN","NAN","NAN","NAN"],
    [1551394,"2026-04-28 06:40:00","52384","0.019","263.3","0.392","263.3","NAN","NAN","NAN","NAN","NAN"],
    [1551395,"2026-04-28 06:50:00","52385","0.023","262.7","0.327","262.7","NAN","NAN","NAN","NAN","NAN"],
    [1551396,"2026-04-28 07:00:00","52386","0.009000000000000001","274.5","0.327","274.4","NAN","NAN","NAN","NAN","NAN"],
    [1551397,"2026-04-28 07:10:00","52387","0.08800000000000001","276.2","0.49","276.4","NAN","NAN","NAN","NAN","NAN"],
    [1551398,"2026-04-28 07:20:00","52388","0.122","265.4","0.653","263","NAN","NAN","NAN","NAN","NAN"],
    [1551399,"2026-04-28 07:30:00","52389","1.17","266.0","1.829","260.1","NAN","NAN","NAN","NAN","NAN"],
    [1551400,"2026-04-28 07:40:00","52390","1.14","281.4","2.711","289.4","NAN","NAN","NAN","NAN","NAN"],
    [1551401,"2026-04-28 07:50:00","52391","1.683","61.85","2.907","63.48","NAN","NAN","NAN","NAN","NAN"],
    [1551402,"2026-04-28 08:00:00","52392","1.355","67.45","3.234","68.2","NAN","NAN","NAN","NAN","NAN"],
    [1551403,"2026-04-28 08:10:00","52393","2.6910000000000003","90.1","3.789","87.7","NAN","NAN","NAN","NAN","NAN"],
    [1551404,"2026-04-28 08:20:00","52394","2.12","88.2","3.299","90.9","NAN","NAN","NAN","NAN","NAN"],
    [1551405,"2026-04-28 08:30:00","52395","2.1790000000000003","91.0","3.365","97.6","NAN","NAN","NAN","NAN","NAN"],
    [1551406,"2026-04-28 08:40:00","52396","1.893","94.1","3.267","101","NAN","NAN","NAN","NAN","NAN"],
    [1551407,"2026-04-28 08:50:00","52397","1.66","92.1","2.744","94.6","NAN","NAN","NAN","NAN","NAN"],
    [1551408,"2026-04-28 09:00:00","52398","1.7930000000000001","90.5","3.332","81.2","NAN","NAN","NAN","NAN","NAN"],
    [1551409,"2026-04-28 09:10:00","52399","2.239","107.6","2.907","105.5","NAN","NAN","NAN","NAN","NAN"],
    [1551410,"2026-04-28 09:20:00","52400","2.285","120.9","4.214","159.3","NAN","NAN","NAN","NAN","NAN"],
    [1551411,"2026-04-28 09:30:00","52401","2.64","127.8","3.789","132.5","NAN","NAN","NAN","NAN","NAN"],
    [1551412,"2026-04-28 09:40:00","52402","2.524","136.0","4.181","134.8","NAN","NAN","NAN","NAN","NAN"],
    [1551413,"2026-04-28 09:50:00","52403","2.795","147.2","4.541","150.6","NAN","NAN","NAN","NAN","NAN"],
    [1551414,"2026-04-28 10:00:00","52404","3.028","156.5","5.096","137.8","NAN","NAN","NAN","NAN","NAN"],
    [1551415,"2026-04-28 10:10:00","52405","2.522","167.1","4.573","160.4","NAN","NAN","NAN","NAN","NAN"],
    [1551416,"2026-04-28 10:20:00","52406","3.0469999999999997","163.0","4.41","167.7","NAN","NAN","NAN","NAN","NAN"],
    [1551417,"2026-04-28 10:30:00","52407","3.091","176.0","4.933","168.3","NAN","NAN","NAN","NAN","NAN"],
    [1551418,"2026-04-28 10:40:00","52408","2.8560000000000003","182.3","4.998","152.1","NAN","NAN","NAN","NAN","NAN"],
    [1551419,"2026-04-28 10:50:00","52409","2.5980000000000003","173.9","4.279","176.9","NAN","NAN","NAN","NAN","NAN"],
    [1551420,"2026-04-28 11:00:00","52410","1.936","187.5","4.802","176.4","NAN","NAN","NAN","NAN","NAN"],
    [1551421,"2026-04-28 11:10:00","52411","2.741","176.1","5.063","162.6","NAN","NAN","NAN","NAN","NAN"],
    [1551422,"2026-04-28 11:20:00","52412","2.9730000000000003","167.8","5.553","173.2","NAN","NAN","NAN","NAN","NAN"],
    [1551423,"2026-04-28 11:30:00","52413","2.7289999999999996","183.9","4.802","182.7","NAN","NAN","NAN","NAN","NAN"],
    [1551424,"2026-04-28 11:40:00","52414","2.229","185.6","4.508","178.3","NAN","NAN","NAN","NAN","NAN"],
    [1551425,"2026-04-28 11:50:00","52415","2.256","192.2","4.9","197.3","NAN","NAN","NAN","NAN","NAN"],
    [1551426,"2026-04-28 12:00:00","52416","2.404","179.1","5.292","169.1","NAN","NAN","NAN","NAN","NAN"],
    [1551427,"2026-04-28 12:10:00","52417","1.8230000000000002","179.8","4.279","170.3","NAN","NAN","NAN","NAN","NAN"],
    [1551428,"2026-04-28 12:20:00","52418","2.199","184.1","4.083","176","NAN","NAN","NAN","NAN","NAN"],
    [1551429,"2026-04-28 12:30:00","52419","1.848","172.2","3.789","164.8","NAN","NAN","NAN","NAN","NAN"],
    [1551430,"2026-04-28 12:40:00","52420","2.84","125.9","4.802","134.7","NAN","NAN","NAN","NAN","NAN"],
    [1551431,"2026-04-28 12:50:00","52421","3.259","121.7","4.704","123.2","NAN","NAN","NAN","NAN","NAN"],
    [1551432,"2026-04-28 13:00:00","52422","3.062","127.5","4.998","105.8","NAN","NAN","NAN","NAN","NAN"],
    [1551433,"2026-04-28 13:10:00","52423","2.998","122.0","4.802","111.2","NAN","NAN","NAN","NAN","NAN"],
    [1551434,"2026-04-28 13:20:00","52424","2.6830000000000003","134.1","4.345","151.4","NAN","NAN","NAN","NAN","NAN"],
    [1551435,"2026-04-28 13:30:00","52425","2.9589999999999996","123.1","4.508","115.7","NAN","NAN","NAN","NAN","NAN"],
    [1551436,"2026-04-28 13:40:00","52426","2.843","116.5","4.541","112.3","NAN","NAN","NAN","NAN","NAN"],
    [1551437,"2026-04-28 13:50:00","52427","2.7460000000000004","118.1","4.377","115","NAN","NAN","NAN","NAN","NAN"],
    [1551438,"2026-04-28 14:00:00","52428","2.434","119.8","4.018","123.2","NAN","NAN","NAN","NAN","NAN"],
    [1551439,"2026-04-28 14:10:00","52429","3.074","132.8","4.933","88.8","NAN","NAN","NAN","NAN","NAN"],
    [1551440,"2026-04-28 14:20:00","52430","3.102","147.5","4.867","139.5","NAN","NAN","NAN","NAN","NAN"],
    [1551441,"2026-04-28 14:30:00","52431","3.075","146.5","5.684","140.9","NAN","NAN","NAN","NAN","NAN"],
    [1551442,"2026-04-28 14:40:00","52432","2.6830000000000003","148.2","4.541","145.3","NAN","NAN","NAN","NAN","NAN"],
    [1551443,"2026-04-28 14:50:00","52433","3.0789999999999997","127.4","4.606","140.5","NAN","NAN","NAN","NAN","NAN"],
    [1551444,"2026-04-28 15:00:00","52434","3.4","131.6","5.292","123.8","NAN","NAN","NAN","NAN","NAN"],
    [1551445,"2026-04-28 15:10:00","52435","2.717","141.5","4.867","133.7","NAN","NAN","NAN","NAN","NAN"],
    [1551446,"2026-04-28 15:20:00","52436","2.625","144.7","4.247","137.3","NAN","NAN","NAN","NAN","NAN"],
    [1551447,"2026-04-28 15:30:00","52437","2.815","168.8","4.541","157","NAN","NAN","NAN","NAN","NAN"],
    [1551448,"2026-04-28 15:40:00","52438","3.5060000000000002","141.0","5.063","140.3","NAN","NAN","NAN","NAN","NAN"],
    [1551449,"2026-04-28 15:50:00","52439","3.1710000000000003","140.6","4.737","139.3","NAN","NAN","NAN","NAN","NAN"],
    [1551450,"2026-04-28 16:00:00","52440","3.1010000000000004","147.1","5.194","130.3","NAN","NAN","NAN","NAN","NAN"],
    [1551451,"2026-04-28 16:10:00","52441","3.843","130.2","5.259","128.6","NAN","NAN","NAN","NAN","NAN"],
    [1551452,"2026-04-28 16:20:00","52442","3.4410000000000003","141.1","5.227","144.4","NAN","NAN","NAN","NAN","NAN"],
    [1551453,"2026-04-28 16:30:00","52443","3.272","136.9","4.704","142.4","NAN","NAN","NAN","NAN","NAN"],
    [1551454,"2026-04-28 16:40:00","52444","3.056","154.8","4.769","131.9","NAN","NAN","NAN","NAN","NAN"],
    [1551455,"2026-04-28 16:50:00","52445","2.888","146.4","5.325","132.4","NAN","NAN","NAN","NAN","NAN"],
    [1551456,"2026-04-28 17:00:00","52446","2.222","139.0","3.887","135.8","NAN","NAN","NAN","NAN","NAN"],
    [1551457,"2026-04-28 17:10:00","52447","2.359","131.0","3.691","130.6","NAN","NAN","NAN","NAN","NAN"],
    [1551458,"2026-04-28 17:20:00","52448","2.117","129.5","3.365","127.9","NAN","NAN","NAN","NAN","NAN"],
    [1551459,"2026-04-28 17:30:00","52449","1.682","108.3","3.724","96.2","NAN","NAN","NAN","NAN","NAN"],
    [1551460,"2026-04-28 17:40:00","52450","2.129","114.1","3.038","107.6","NAN","NAN","NAN","NAN","NAN"],
    [1551461,"2026-04-28 17:50:00","52451","1.983","109.9","3.201","113","NAN","NAN","NAN","NAN","NAN"],
    [1551462,"2026-04-28 18:00:00","52452","2.057","112.0","2.973","119.2","NAN","NAN","NAN","NAN","NAN"],
    [1551463,"2026-04-28 18:10:00","52453","2.039","96.0","3.528","88.6","NAN","NAN","NAN","NAN","NAN"],
    [1551464,"2026-04-28 18:20:00","52454","2.471","92.6","3.757","85.9","NAN","NAN","NAN","NAN","NAN"],
    [1551465,"2026-04-28 18:30:00","52455","2.176","88.7","3.463","100.1","NAN","NAN","NAN","NAN","NAN"],
    [1551466,"2026-04-28 18:40:00","52456","2.178","80.5","3.626","69.2","NAN","NAN","NAN","NAN","NAN"],
    [1551467,"2026-04-28 18:50:00","52457","2.98","72.54","4.508","73.31","NAN","NAN","NAN","NAN","NAN"],
    [1551468,"2026-04-28 19:00:00","52458","2.755","68.35","4.933","67.88","NAN","NAN","NAN","NAN","NAN"],
    [1551469,"2026-04-28 19:10:00","52459","3.613","66.54","5.521","69.08","NAN","NAN","NAN","NAN","NAN"],
    [1551470,"2026-04-28 19:20:00","52460","3.133","64.34","4.802","66.1","NAN","NAN","NAN","NAN","NAN"],
    [1551471,"2026-04-28 19:30:00","52461","3.0260000000000002","64.47","4.671","63.16","NAN","NAN","NAN","NAN","NAN"],
    [1551472,"2026-04-28 19:40:00","52462","3.178","64.94","5.357","66.4","NAN","NAN","NAN","NAN","NAN"],
    [1551473,"2026-04-28 19:50:00","52463","3.512","68.17","5.553","71.93","NAN","NAN","NAN","NAN","NAN"],
    [1551474,"2026-04-28 20:00:00","52464","3.1910000000000003","68.65","4.835","65.53","NAN","NAN","NAN","NAN","NAN"],
    [1551475,"2026-04-28 20:10:00","52465","3.139","69.45","4.606","70.27","NAN","NAN","NAN","NAN","NAN"],
    [1551476,"2026-04-28 20:20:00","52466","2.475","70.6","5.129","68.29","NAN","NAN","NAN","NAN","NAN"],
    [1551477,"2026-04-28 20:30:00","52467","2.537","72.09","4.508","64.9","NAN","NAN","NAN","NAN","NAN"],
    [1551478,"2026-04-28 20:40:00","52468","2.142","74.1","4.018","63.03","NAN","NAN","NAN","NAN","NAN"],
    [1551479,"2026-04-28 20:50:00","52469","2.048","84.7","3.397","77.82","NAN","NAN","NAN","NAN","NAN"],
    [1551480,"2026-04-28 21:00:00","52470","2.512","93.7","4.769","86.1","NAN","NAN","NAN","NAN","NAN"],
    [1551481,"2026-04-28 21:10:00","52471","2.237","97.8","4.312","94.9","NAN","NAN","NAN","NAN","NAN"],
    [1551482,"2026-04-28 21:20:00","52472","2.295","91.8","4.312","93.9","NAN","NAN","NAN","NAN","NAN"],
    [1551483,"2026-04-28 21:30:00","52473","2.093","90.8","4.083","89.2","NAN","NAN","NAN","NAN","NAN"],
    [1551484,"2026-04-28 21:40:00","52474","2.441","92.2","3.757","93.7","NAN","NAN","NAN","NAN","NAN"],
    [1551485,"2026-04-28 21:50:00","52475","2.191","94.2","4.083","85.6","NAN","NAN","NAN","NAN","NAN"],
    [1551486,"2026-04-28 22:00:00","52476","1.916","94.8","3.528","75.06","NAN","NAN","NAN","NAN","NAN"],
    [1551487,"2026-04-28 22:10:00","52477","2.5810000000000004","96.3","4.345","87.7","NAN","NAN","NAN","NAN","NAN"],
    [1551488,"2026-04-28 22:20:00","52478","2.56","89.7","4.214","86.7","NAN","NAN","NAN","NAN","NAN"],
    [1551489,"2026-04-28 22:30:00","52479","2.585","90.1","4.475","101.7","NAN","NAN","NAN","NAN","NAN"],
    [1551490,"2026-04-28 22:40:00","52480","2.593","90.8","4.377","86.7","NAN","NAN","NAN","NAN","NAN"],
    [1551491,"2026-04-28 22:50:00","52481","2.4130000000000003","91.1","3.985","83.5","NAN","NAN","NAN","NAN","NAN"],
    [1551492,"2026-04-28 23:00:00","52482","2.4530000000000003","90.6","3.92","94.2","NAN","NAN","NAN","NAN","NAN"],
    [1551493,"2026-04-28 23:10:00","52483","2.287","92.0","4.933","97","NAN","NAN","NAN","NAN","NAN"],
    [1551494,"2026-04-28 23:20:00","52484","2.079","94.3","4.051","92.2","NAN","NAN","NAN","NAN","NAN"],
    [1551495,"2026-04-28 23:30:00","52485","2.403","84.5","3.724","82","NAN","NAN","NAN","NAN","NAN"],
    [1551496,"2026-04-28 23:40:00","52486","2.86","83.7","4.9","86.9","NAN","NAN","NAN","NAN","NAN"],
    [1551497,"2026-04-28 23:50:00","52487","3.23","79.96","5.847","80.2","NAN","NAN","NAN","NAN","NAN"],
    [1551498,"2026-04-29 00:00:00","52488","3.011","82.0","5.063","78.11","NAN","NAN","NAN","NAN","NAN"],
    [1551499,"2026-04-29 00:10:00","52489","2.049","84.4","3.397","81.1","NAN","NAN","NAN","NAN","NAN"],
    [1551500,"2026-04-29 00:20:00","52490","2.9789999999999996","80.2","4.704","71.24","NAN","NAN","NAN","NAN","NAN"],
    [1551501,"2026-04-29 00:30:00","52491","3.261","88.0","5.259","85.1","NAN","NAN","NAN","NAN","NAN"],
    [1551502,"2026-04-29 00:40:00","52492","2.997","86.8","5.194","92.5","NAN","NAN","NAN","NAN","NAN"],
    [1551503,"2026-04-29 00:50:00","52493","2.7960000000000003","87.1","5.129","88.2","NAN","NAN","NAN","NAN","NAN"],
    [1551504,"2026-04-29 01:00:00","52494","3.321","90.5","5.684","82.1","NAN","NAN","NAN","NAN","NAN"],
    [1551505,"2026-04-29 01:10:00","52495","3.1710000000000003","85.4","5.39","82.1","NAN","NAN","NAN","NAN","NAN"],
    [1551506,"2026-04-29 01:20:00","52496","3.431","81.7","5.325","79.68","NAN","NAN","NAN","NAN","NAN"],
    [1551507,"2026-04-29 01:30:00","52497","3.625","82.0","6.076","88.2","NAN","NAN","NAN","NAN","NAN"],
    [1551508,"2026-04-29 01:40:00","52498","2.997","87.5","4.769","96.6","NAN","NAN","NAN","NAN","NAN"],
    [1551509,"2026-04-29 01:50:00","52499","2.81","93.5","5.129","97.9","NAN","NAN","NAN","NAN","NAN"],
    [1551510,"2026-04-29 02:00:00","52500","2.775","90.3","4.606","82.9","NAN","NAN","NAN","NAN","NAN"],
    [1551511,"2026-04-29 02:10:00","52501","2.7060000000000004","90.6","4.835","85.8","NAN","NAN","NAN","NAN","NAN"],
    [1551512,"2026-04-29 02:20:00","52502","2.556","92.9","4.835","94","NAN","NAN","NAN","NAN","NAN"],
    [1551513,"2026-04-29 02:30:00","52503","2.9760000000000004","89.0","5.227","97.7","NAN","NAN","NAN","NAN","NAN"],
    [1551514,"2026-04-29 02:40:00","52504","3.0239999999999996","84.4","5.096","73.57","NAN","NAN","NAN","NAN","NAN"],
    [1551515,"2026-04-29 02:50:00","52505","3.907","80.2","6.795","87.3","NAN","NAN","NAN","NAN","NAN"],
    [1551516,"2026-04-29 03:00:00","52506","3.425","83.9","5.488","80.1","NAN","NAN","NAN","NAN","NAN"],
    [1551517,"2026-04-29 03:10:00","52507","2.911","84.9","5.553","87.4","NAN","NAN","NAN","NAN","NAN"],
    [1551518,"2026-04-29 03:20:00","52508","3.102","77.97","5.553","77.27","NAN","NAN","NAN","NAN","NAN"],
    [1551519,"2026-04-29 03:30:00","52509","3.156","82.5","5.978","70.53","NAN","NAN","NAN","NAN","NAN"],
    [1551520,"2026-04-29 03:40:00","52510","2.781","80.4","5.553","45.91","NAN","NAN","NAN","NAN","NAN"],
    [1551521,"2026-04-29 03:50:00","52511","2.43","62.1","5.096","54.3","NAN","NAN","NAN","NAN","NAN"],
    [1551522,"2026-04-29 04:00:00","52512","2.741","67.42","5.063","61.83","NAN","NAN","NAN","NAN","NAN"],
    [1551523,"2026-04-29 04:10:00","52513","2.3609999999999998","81.4","4.541","97.2","NAN","NAN","NAN","NAN","NAN"],
    [1551524,"2026-04-29 04:20:00","52514","2.985","80.1","7.187","89.8","NAN","NAN","NAN","NAN","NAN"],
    [1551525,"2026-04-29 04:30:00","52515","2.465","88.3","5.782","80.3","NAN","NAN","NAN","NAN","NAN"],
    [1551526,"2026-04-29 04:40:00","52516","3.1710000000000003","72.39","5.847","87","NAN","NAN","NAN","NAN","NAN"],
    [1551527,"2026-04-29 04:50:00","52517","3.2460000000000004","62.75","6.272","45.48","NAN","NAN","NAN","NAN","NAN"],
    [1551528,"2026-04-29 05:00:00","52518","2.967","73.77","6.86","54.19","NAN","NAN","NAN","NAN","NAN"],
    [1551529,"2026-04-29 05:10:00","52519","2.642","61.51","6.011","63.28","NAN","NAN","NAN","NAN","NAN"],
    [1551530,"2026-04-29 05:20:00","52520","2.269","63.42","5.815","58.66","NAN","NAN","NAN","NAN","NAN"],
    [1551531,"2026-04-29 05:30:00","52521","2.918","63.14","6.337","76.79","NAN","NAN","NAN","NAN","NAN"],
    [1551532,"2026-04-29 05:40:00","52522","3.055","61.9","6.239","39.17","NAN","NAN","NAN","NAN","NAN"],
    [1551533,"2026-04-29 05:50:00","52523","2.935","57.57","5.521","61.45","NAN","NAN","NAN","NAN","NAN"],
    [1551534,"2026-04-29 06:00:00","52524","3.362","62.59","6.337","38.05","NAN","NAN","NAN","NAN","NAN"],
    [1551535,"2026-04-29 06:10:00","52525","2.8569999999999998","81.4","5.88","100.2","NAN","NAN","NAN","NAN","NAN"],
    [1551536,"2026-04-29 06:20:00","52526","3.9730000000000003","87.7","6.37","86.7","NAN","NAN","NAN","NAN","NAN"],
    [1551537,"2026-04-29 06:30:00","52527","4.122","79.89","6.762","85.7","NAN","NAN","NAN","NAN","NAN"],
    [1551538,"2026-04-29 06:40:00","52528","3.6180000000000003","83.7","7.154","85.2","NAN","NAN","NAN","NAN","NAN"],
    [1551539,"2026-04-29 06:50:00","52529","4.217","84.5","6.631","92.3","NAN","NAN","NAN","NAN","NAN"],
    [1551540,"2026-04-29 07:00:00","52530","4.678","83.1","7.285","80.1","NAN","NAN","NAN","NAN","NAN"],
    [1551541,"2026-04-29 07:10:00","52531","4.796","78.44","8.33","70.79","NAN","NAN","NAN","NAN","NAN"],
    [1551542,"2026-04-29 07:20:00","52532","4.4430000000000005","80.7","7.121","89.7","NAN","NAN","NAN","NAN","NAN"],
    [1551543,"2026-04-29 07:30:00","52533","4.81","81.2","7.644","74.76","NAN","NAN","NAN","NAN","NAN"],
    [1551544,"2026-04-29 07:40:00","52534","4.912","82.1","7.84","82.9","NAN","NAN","NAN","NAN","NAN"],
    [1551545,"2026-04-29 07:50:00","52535","4.906000000000001","88.1","7.383","90","NAN","NAN","NAN","NAN","NAN"],
    [1551546,"2026-04-29 08:00:00","52536","4.78","83.5","8.53","85.4","NAN","NAN","NAN","NAN","NAN"],
    [1551547,"2026-04-29 08:10:00","52537","4.882","88.0","7.35","88.6","NAN","NAN","NAN","NAN","NAN"],
    [1551548,"2026-04-29 08:20:00","52538","4.68","88.4","7.709","92.6","NAN","NAN","NAN","NAN","NAN"],
    [1551549,"2026-04-29 08:30:00","52539","4.137","89.1","7.317","82","NAN","NAN","NAN","NAN","NAN"],
    [1551550,"2026-04-29 08:40:00","52540","4.672","91.2","8.95","88","NAN","NAN","NAN","NAN","NAN"],
    [1551551,"2026-04-29 08:50:00","52541","4.593","92.5","7.415","91.6","NAN","NAN","NAN","NAN","NAN"],
    [1551552,"2026-04-29 09:00:00","52542","4.2669999999999995","87.8","8.4","83.1","NAN","NAN","NAN","NAN","NAN"],
    [1551553,"2026-04-29 09:10:00","52543","4.853","92.8","8.33","89.3","NAN","NAN","NAN","NAN","NAN"],
    [1551554,"2026-04-29 09:20:00","52544","4.822","90.0","7.644","86.7","NAN","NAN","NAN","NAN","NAN"],
    [1551555,"2026-04-29 09:30:00","52545","4.584","94.4","8.33","72.94","NAN","NAN","NAN","NAN","NAN"],
    [1551556,"2026-04-29 09:40:00","52546","4.622","87.6","9.02","90.5","NAN","NAN","NAN","NAN","NAN"],
    [1551557,"2026-04-29 09:50:00","52547","3.662","102.2","5.88","83.1","NAN","NAN","NAN","NAN","NAN"],
    [1551558,"2026-04-29 10:00:00","52548","4.145","96.5","7.644","85.2","NAN","NAN","NAN","NAN","NAN"],
    [1551559,"2026-04-29 10:10:00","52549","4.615","96.4","7.383","89.1","NAN","NAN","NAN","NAN","NAN"],
    [1551560,"2026-04-29 10:20:00","52550","4.856","102.6","7.775","112.7","NAN","NAN","NAN","NAN","NAN"],
    [1551561,"2026-04-29 10:30:00","52551","4.486000000000001","109.0","8","116","NAN","NAN","NAN","NAN","NAN"],
    [1551562,"2026-04-29 10:40:00","52552","4.656000000000001","106.6","8.04","93.5","NAN","NAN","NAN","NAN","NAN"],
    [1551563,"2026-04-29 10:50:00","52553","4.09","102.2","6.664","97.7","NAN","NAN","NAN","NAN","NAN"],
    [1551564,"2026-04-29 11:00:00","52554","4.843999999999999","99.6","8.49","104.3","NAN","NAN","NAN","NAN","NAN"],
    [1551565,"2026-04-29 11:10:00","52555","4.4910000000000005","100.5","7.709","95.5","NAN","NAN","NAN","NAN","NAN"],
    [1551566,"2026-04-29 11:20:00","52556","4.188","99.5","7.513","106.7","NAN","NAN","NAN","NAN","NAN"],
    [1551567,"2026-04-29 11:30:00","52557","4.529","98.0","8.17","96.7","NAN","NAN","NAN","NAN","NAN"],
    [1551568,"2026-04-29 11:40:00","52558","4.49","89.8","8.23","97.5","NAN","NAN","NAN","NAN","NAN"],
    [1551569,"2026-04-29 11:50:00","52559","3.991","85.6","7.938","86.4","NAN","NAN","NAN","NAN","NAN"],
    [1551570,"2026-04-29 12:00:00","52560","4.137","78.74","7.056","92.5","NAN","NAN","NAN","NAN","NAN"],
    [1551571,"2026-04-29 12:10:00","52561","3.62","82.8","7.579","87.8","NAN","NAN","NAN","NAN","NAN"],
    [1551572,"2026-04-29 12:20:00","52562","3.26","73.63","7.317","94.7","NAN","NAN","NAN","NAN","NAN"],
    [1551573,"2026-04-29 12:30:00","52563","4.662","79.06","7.448","87.6","NAN","NAN","NAN","NAN","NAN"],
    [1551574,"2026-04-29 12:40:00","52564","5.52","87.6","8.33","77.6","NAN","NAN","NAN","NAN","NAN"],
    [1551575,"2026-04-29 12:50:00","52565","5.564","88.1","8.49","80.3","NAN","NAN","NAN","NAN","NAN"],
    [1551576,"2026-04-29 13:00:00","52566","4.1080000000000005","89.2","7.187","92.2","NAN","NAN","NAN","NAN","NAN"],
    [1551577,"2026-04-29 13:10:00","52567","4.678","90.8","7.448","79.86","NAN","NAN","NAN","NAN","NAN"],
    [1551578,"2026-04-29 13:20:00","52568","5.306","79.64","7.905","87.6","NAN","NAN","NAN","NAN","NAN"],
    [1551579,"2026-04-29 13:30:00","52569","4.669","84.2","7.415","87.8","NAN","NAN","NAN","NAN","NAN"],
    [1551580,"2026-04-29 13:40:00","52570","4.923","78.55","7.219","64.36","NAN","NAN","NAN","NAN","NAN"],
    [1551581,"2026-04-29 13:50:00","52571","4.42","75.9","6.729","86.5","NAN","NAN","NAN","NAN","NAN"],
    [1551582,"2026-04-29 14:00:00","52572","4.596","81.9","7.023","74.98","NAN","NAN","NAN","NAN","NAN"],
    [1551583,"2026-04-29 14:10:00","52573","4.355","75.72","7.219","73.94","NAN","NAN","NAN","NAN","NAN"],
    [1551584,"2026-04-29 14:20:00","52574","4.271","82.5","7.023","86.6","NAN","NAN","NAN","NAN","NAN"],
    [1551585,"2026-04-29 14:30:00","52575","5.078","84.4","8.04","85.8","NAN","NAN","NAN","NAN","NAN"],
    [1551586,"2026-04-29 14:40:00","52576","4.7410000000000005","85.4","7.285","95","NAN","NAN","NAN","NAN","NAN"],
    [1551587,"2026-04-29 14:50:00","52577","4.899","83.4","7.807","87.9","NAN","NAN","NAN","NAN","NAN"],
    [1551588,"2026-04-29 15:00:00","52578","4.496","86.1","7.121","81.6","NAN","NAN","NAN","NAN","NAN"],
    [1551589,"2026-04-29 15:10:00","52579","4.456","83.0","7.415","95.4","NAN","NAN","NAN","NAN","NAN"],
    [1551590,"2026-04-29 15:20:00","52580","5.022","85.6","7.121","85.5","NAN","NAN","NAN","NAN","NAN"],
    [1551591,"2026-04-29 15:30:00","52581","5.505","80.2","7.938","71.14","NAN","NAN","NAN","NAN","NAN"],
    [1551592,"2026-04-29 15:40:00","52582","4.71","86.3","8.2","97","NAN","NAN","NAN","NAN","NAN"],
    [1551593,"2026-04-29 15:50:00","52583","4.564","82.8","8.07","84.5","NAN","NAN","NAN","NAN","NAN"],
    [1551594,"2026-04-29 16:00:00","52584","4.803999999999999","84.6","7.938","74.14","NAN","NAN","NAN","NAN","NAN"],
    [1551595,"2026-04-29 16:10:00","52585","4.212","90.1","5.978","100.8","NAN","NAN","NAN","NAN","NAN"],
    [1551596,"2026-04-29 16:20:00","52586","4.431","85.9","7.187","91.2","NAN","NAN","NAN","NAN","NAN"],
    [1551597,"2026-04-29 16:30:00","52587","4.191","82.8","7.154","77.93","NAN","NAN","NAN","NAN","NAN"],
    [1551598,"2026-04-29 16:40:00","52588","3.8760000000000003","88.7","6.664","98.8","NAN","NAN","NAN","NAN","NAN"],
    [1551599,"2026-04-29 16:50:00","52589","4.19","86.7","7.611","101.2","NAN","NAN","NAN","NAN","NAN"],
    [1551600,"2026-04-29 17:00:00","52590","3.265","87.4","6.076","89.8","NAN","NAN","NAN","NAN","NAN"],
    [1551601,"2026-04-29 17:10:00","52591","2.967","83.4","5.815","85.3","NAN","NAN","NAN","NAN","NAN"],
    [1551602,"2026-04-29 17:20:00","52592","3.5260000000000002","88.1","5.978","91.2","NAN","NAN","NAN","NAN","NAN"],
    [1551603,"2026-04-29 17:30:00","52593","4.454","85.0","6.631","90.6","NAN","NAN","NAN","NAN","NAN"],
    [1551604,"2026-04-29 17:40:00","52594","4.037","84.1","6.435","82.9","NAN","NAN","NAN","NAN","NAN"],
    [1551605,"2026-04-29 17:50:00","52595","3.838","87.9","6.043","83.3","NAN","NAN","NAN","NAN","NAN"],
    [1551606,"2026-04-29 18:00:00","52596","3.577","87.1","6.599","94.3","NAN","NAN","NAN","NAN","NAN"],
    [1551607,"2026-04-29 18:10:00","52597","3.9789999999999996","83.9","6.174","79.02","NAN","NAN","NAN","NAN","NAN"],
    [1551608,"2026-04-29 18:20:00","52598","4.178","84.3","6.435","76.44","NAN","NAN","NAN","NAN","NAN"],
    [1551609,"2026-04-29 18:30:00","52599","2.5639999999999996","80.5","4.965","77.88","NAN","NAN","NAN","NAN","NAN"],
    [1551610,"2026-04-29 18:40:00","52600","2.925","82.9","4.737","83.9","NAN","NAN","NAN","NAN","NAN"],
    [1551611,"2026-04-29 18:50:00","52601","2.187","71.39","4.835","76.88","NAN","NAN","NAN","NAN","NAN"],
    [1551612,"2026-04-29 19:00:00","52602","2.3169999999999997","71.69","5.031","75.47","NAN","NAN","NAN","NAN","NAN"],
    [1551613,"2026-04-29 19:10:00","52603","2.3680000000000003","71.82","4.835","65.12","NAN","NAN","NAN","NAN","NAN"],
    [1551614,"2026-04-29 19:20:00","52604","2.42","74.84","4.9","79.56","NAN","NAN","NAN","NAN","NAN"],
    [1551615,"2026-04-29 19:30:00","52605","2.447","77.24","4.181","82.8","NAN","NAN","NAN","NAN","NAN"],
    [1551616,"2026-04-29 19:40:00","52606","2.7739999999999996","69.42","5.063","61.48","NAN","NAN","NAN","NAN","NAN"],
    [1551617,"2026-04-29 19:50:00","52607","3.082","79.79","4.933","71.15","NAN","NAN","NAN","NAN","NAN"],
    [1551618,"2026-04-29 20:00:00","52608","3.4010000000000002","79.93","5.88","74.24","NAN","NAN","NAN","NAN","NAN"],
    [1551619,"2026-04-29 20:10:00","52609","3.89","81.1","6.631","70.79","NAN","NAN","NAN","NAN","NAN"],
    [1551620,"2026-04-29 20:20:00","52610","3.458","78.77","6.599","80.2","NAN","NAN","NAN","NAN","NAN"],
    [1551621,"2026-04-29 20:30:00","52611","4.013999999999999","81.7","7.677","76.41","NAN","NAN","NAN","NAN","NAN"],
    [1551622,"2026-04-29 20:40:00","52612","4.205","81.5","7.023","81.2","NAN","NAN","NAN","NAN","NAN"],
    [1551623,"2026-04-29 20:50:00","52613","4.132","83.5","7.579","78.46","NAN","NAN","NAN","NAN","NAN"],
    [1551624,"2026-04-29 21:00:00","52614","4.084","80.9","6.533","84.2","NAN","NAN","NAN","NAN","NAN"],
    [1551625,"2026-04-29 21:10:00","52615","3.502","79.67","6.109","73.9","NAN","NAN","NAN","NAN","NAN"],
    [1551626,"2026-04-29 21:20:00","52616","3.6519999999999997","84.1","5.684","92.4","NAN","NAN","NAN","NAN","NAN"],
    [1551627,"2026-04-29 21:30:00","52617","3.708","83.0","5.521","77.68","NAN","NAN","NAN","NAN","NAN"],
    [1551628,"2026-04-29 21:40:00","52618","3.915","83.2","6.501","83.3","NAN","NAN","NAN","NAN","NAN"],
    [1551629,"2026-04-29 21:50:00","52619","4.029","82.5","6.533","85","NAN","NAN","NAN","NAN","NAN"],
    [1551630,"2026-04-29 22:00:00","52620","3.437","84.6","5.619","88.1","NAN","NAN","NAN","NAN","NAN"],
    [1551631,"2026-04-29 22:10:00","52621","3.0610000000000004","84.0","5.161","94.4","NAN","NAN","NAN","NAN","NAN"],
    [1551632,"2026-04-29 22:20:00","52622","4.056","85.3","6.239","85.4","NAN","NAN","NAN","NAN","NAN"],
    [1551633,"2026-04-29 22:30:00","52623","3.636","83.3","5.717","86.8","NAN","NAN","NAN","NAN","NAN"],
    [1551634,"2026-04-29 22:40:00","52624","3.168","85.2","5.39","79.63","NAN","NAN","NAN","NAN","NAN"],
    [1551635,"2026-04-29 22:50:00","52625","4.059","84.7","6.043","76.28","NAN","NAN","NAN","NAN","NAN"],
    [1551636,"2026-04-29 23:00:00","52626","3.845","81.9","6.076","87.2","NAN","NAN","NAN","NAN","NAN"],
    [1551637,"2026-04-29 23:10:00","52627","3.44","82.8","5.521","96.6","NAN","NAN","NAN","NAN","NAN"],
    [1551638,"2026-04-29 23:20:00","52628","3.145","79.65","5.553","90.9","NAN","NAN","NAN","NAN","NAN"],
    [1551639,"2026-04-29 23:30:00","52629","1.78","79.06","3.201","60.92","NAN","NAN","NAN","NAN","NAN"],
    [1551640,"2026-04-29 23:40:00","52630","2.096","87.8","4.835","85.4","NAN","NAN","NAN","NAN","NAN"],
    [1551641,"2026-04-29 23:50:00","52631","2.569","88.0","4.835","95.1","NAN","NAN","NAN","NAN","NAN"],
    [1551642,"2026-04-30 00:00:00","52632","2.234","56.58","5.031","54.83","NAN","NAN","NAN","NAN","NAN"],
    [1551643,"2026-04-30 00:10:00","52633","1.5659999999999998","69.64","3.953","65.08","NAN","NAN","NAN","NAN","NAN"],
    [1551644,"2026-04-30 00:20:00","52634","2.095","63.29","4.116","63.42","NAN","NAN","NAN","NAN","NAN"],
    [1551645,"2026-04-30 00:30:00","52635","1.632","56.14","3.659","58.15","NAN","NAN","NAN","NAN","NAN"],
    [1551646,"2026-04-30 00:40:00","52636","2.102","67.08","4.965","72.58","NAN","NAN","NAN","NAN","NAN"],
    [1551647,"2026-04-30 00:50:00","52637","1.6740000000000002","64.96","4.737","67.02","NAN","NAN","NAN","NAN","NAN"],
    [1551648,"2026-04-30 01:00:00","52638","2.568","62.87","4.867","56.57","NAN","NAN","NAN","NAN","NAN"],
    [1551649,"2026-04-30 01:10:00","52639","3.0210000000000004","59.38","5.194","58.8","NAN","NAN","NAN","NAN","NAN"],
    [1551650,"2026-04-30 01:20:00","52640","2.414","58.99","4.835","58.34","NAN","NAN","NAN","NAN","NAN"],
    [1551651,"2026-04-30 01:30:00","52641","2.546","43.49","4.345","40.26","NAN","NAN","NAN","NAN","NAN"],
    [1551652,"2026-04-30 01:40:00","52642","2.226","31.93","3.855","27.29","NAN","NAN","NAN","NAN","NAN"],
    [1551653,"2026-04-30 01:50:00","52643","2.01","33.66","3.43","30.43","NAN","NAN","NAN","NAN","NAN"],
    [1551654,"2026-04-30 02:00:00","52644","1.949","39.93","3.201","41.41","NAN","NAN","NAN","NAN","NAN"],
    [1551655,"2026-04-30 02:10:00","52645","1.5630000000000002","41.37","2.809","37.47","NAN","NAN","NAN","NAN","NAN"],
    [1551656,"2026-04-30 02:20:00","52646","1.7309999999999999","40.06","3.071","34.38","NAN","NAN","NAN","NAN","NAN"],
    [1551657,"2026-04-30 02:30:00","52647","1.304","47.15","2.254","43.72","NAN","NAN","NAN","NAN","NAN"],
    [1551658,"2026-04-30 02:40:00","52648","0.93","43.13","2.156","48.27","NAN","NAN","NAN","NAN","NAN"],
    [1551659,"2026-04-30 02:50:00","52649","1.161","35.59","1.96","31.55","NAN","NAN","NAN","NAN","NAN"],
    [1551660,"2026-04-30 03:00:00","52650","1.507","30.23","2.385","32.31","NAN","NAN","NAN","NAN","NAN"],
    [1551661,"2026-04-30 03:10:00","52651","1.237","25.82","2.548","25.62","NAN","NAN","NAN","NAN","NAN"],
    [1551662,"2026-04-30 03:20:00","52652","0.976","25.07","2.189","24.4","NAN","NAN","NAN","NAN","NAN"],
    [1551663,"2026-04-30 03:30:00","52653","1.0979999999999999","23.96","1.829","24.02","NAN","NAN","NAN","NAN","NAN"],
    [1551664,"2026-04-30 03:40:00","52654","0.7440000000000001","23.49","1.633","23.73","NAN","NAN","NAN","NAN","NAN"],
    [1551665,"2026-04-30 03:50:00","52655","0.303","23.24","1.437","23.34","NAN","NAN","NAN","NAN","NAN"],
    [1551666,"2026-04-30 04:00:00","52656","0.057","22.67","0.49","22.67","NAN","NAN","NAN","NAN","NAN"],
    [1551667,"2026-04-30 04:10:00","52657","0.141","22.06","0.555","22.17","NAN","NAN","NAN","NAN","NAN"],
    [1551668,"2026-04-30 04:20:00","52658","0.172","21.48","0.621","21.51","NAN","NAN","NAN","NAN","NAN"],
    [1551669,"2026-04-30 04:30:00","52659","0.204","19.76","0.719","19.16","NAN","NAN","NAN","NAN","NAN"],
    [1551670,"2026-04-30 04:40:00","52660","0.071","18.39","0.719","18.34","NAN","NAN","NAN","NAN","NAN"],
    [1551671,"2026-04-30 04:50:00","52661","0.013999999999999999","18.24","0.457","18.24","NAN","NAN","NAN","NAN","NAN"],
    [1551672,"2026-04-30 05:00:00","52662","0.001","18.14","0.163","18.14","NAN","NAN","NAN","NAN","NAN"],
    [1551673,"2026-04-30 05:10:00","52663","0.002","18.14","0.229","18.14","NAN","NAN","NAN","NAN","NAN"],
    [1551674,"2026-04-30 05:20:00","52664","0.0","18.14","0.098","18.14","NAN","NAN","NAN","NAN","NAN"],
    [1551675,"2026-04-30 05:30:00","52665","0.002","18.14","0.196","18.14","NAN","NAN","NAN","NAN","NAN"],
    [1551676,"2026-04-30 05:40:00","52666","0.003","18.14","0.196","18.14","NAN","NAN","NAN","NAN","NAN"],
    [1551677,"2026-04-30 05:50:00","52667","0.0","18.14","0.033","18.14","NAN","NAN","NAN","NAN","NAN"],
    [1551678,"2026-04-30 06:00:00","52668","0.0","0.0","0","0","NAN","NAN","NAN","NAN","NAN"],
    [1551679,"2026-04-30 06:10:00","52669","0.141","30.0","1.176","38.36","NAN","NAN","NAN","NAN","NAN"],
    [1551680,"2026-04-30 06:20:00","52670","0.794","45.6","1.699","50.32","NAN","NAN","NAN","NAN","NAN"],
    [1551681,"2026-04-30 06:30:00","52671","1.5659999999999998","73.69","2.777","73.61","NAN","NAN","NAN","NAN","NAN"],
    [1551682,"2026-04-30 06:40:00","52672","1.757","83.5","3.201","88.3","NAN","NAN","NAN","NAN","NAN"],
    [1551683,"2026-04-30 06:50:00","52673","1.841","85.6","3.626","86.7","NAN","NAN","NAN","NAN","NAN"],
    [1551684,"2026-04-30 07:00:00","52674","2.966","92.0","5.325","103","NAN","NAN","NAN","NAN","NAN"],
    [1551685,"2026-04-30 07:10:00","52675","2.972","92.2","4.639","90.5","NAN","NAN","NAN","NAN","NAN"],
    [1551686,"2026-04-30 07:20:00","52676","2.745","79.36","5.455","71.3","NAN","NAN","NAN","NAN","NAN"],
    [1551687,"2026-04-30 07:30:00","52677","2.017","60.86","4.671","66.26","NAN","NAN","NAN","NAN","NAN"],
    [1551688,"2026-04-30 07:40:00","52678","1.8419999999999999","75.67","3.659","41.71","NAN","NAN","NAN","NAN","NAN"],
    [1551689,"2026-04-30 07:50:00","52679","2.227","62.39","4.443","57.67","NAN","NAN","NAN","NAN","NAN"],
    [1551690,"2026-04-30 08:00:00","52680","1.6480000000000001","58.04","3.691","55.03","NAN","NAN","NAN","NAN","NAN"],
    [1551691,"2026-04-30 08:10:00","52681","2.14","79.46","4.279","96.8","NAN","NAN","NAN","NAN","NAN"],
    [1551692,"2026-04-30 08:20:00","52682","2.24","89.8","4.149","90.3","NAN","NAN","NAN","NAN","NAN"],
    [1551693,"2026-04-30 08:30:00","52683","2.858","88.6","4.312","81.2","NAN","NAN","NAN","NAN","NAN"],
    [1551694,"2026-04-30 08:40:00","52684","2.492","72.44","5.227","82.5","NAN","NAN","NAN","NAN","NAN"],
    [1551695,"2026-04-30 08:50:00","52685","2.314","79.58","4.181","75.19","NAN","NAN","NAN","NAN","NAN"],
    [1551696,"2026-04-30 09:00:00","52686","2.528","94.7","4.214","90.3","NAN","NAN","NAN","NAN","NAN"],
    [1551697,"2026-04-30 09:10:00","52687","2.573","93.8","4.769","90.9","NAN","NAN","NAN","NAN","NAN"],
    [1551698,"2026-04-30 09:20:00","52688","2.736","95.8","5.488","86.1","NAN","NAN","NAN","NAN","NAN"],
    [1551699,"2026-04-30 09:30:00","52689","3.4560000000000004","101.1","5.619","100.1","NAN","NAN","NAN","NAN","NAN"],
    [1551700,"2026-04-30 09:40:00","52690","3.877","98.8","6.729","89.7","NAN","NAN","NAN","NAN","NAN"],
    [1551701,"2026-04-30 09:50:00","52691","3.487","99.2","6.664","93.2","NAN","NAN","NAN","NAN","NAN"],
    [1551702,"2026-04-30 10:00:00","52692","3.0860000000000003","93.9","5.325","91.5","NAN","NAN","NAN","NAN","NAN"],
    [1551703,"2026-04-30 10:10:00","52693","3.585","93.6","5.325","99.2","NAN","NAN","NAN","NAN","NAN"],
    [1551704,"2026-04-30 10:20:00","52694","2.9139999999999997","88.6","5.129","101","NAN","NAN","NAN","NAN","NAN"],
    [1551705,"2026-04-30 10:30:00","52695","3.053","82.8","5.325","87.3","NAN","NAN","NAN","NAN","NAN"],
    [1551706,"2026-04-30 10:40:00","52696","2.612","73.77","5.227","37.39","NAN","NAN","NAN","NAN","NAN"],
    [1551707,"2026-04-30 10:50:00","52697","2.766","80.2","5.259","47.41","NAN","NAN","NAN","NAN","NAN"],
    [1551708,"2026-04-30 11:00:00","52698","3.5439999999999996","83.8","5.978","93.1","NAN","NAN","NAN","NAN","NAN"],
    [1551709,"2026-04-30 11:10:00","52699","3.903","79.72","6.403","79.95","NAN","NAN","NAN","NAN","NAN"],
    [1551710,"2026-04-30 11:20:00","52700","4.792","89.3","7.546","89.9","NAN","NAN","NAN","NAN","NAN"],
    [1551711,"2026-04-30 11:30:00","52701","3.363","85.3","5.749","99.5","NAN","NAN","NAN","NAN","NAN"],
    [1551712,"2026-04-30 11:40:00","52702","4.064","90.2","7.056","98.9","NAN","NAN","NAN","NAN","NAN"],
    [1551713,"2026-04-30 11:50:00","52703","4.758","81.7","6.86","85.6","NAN","NAN","NAN","NAN","NAN"],
    [1551714,"2026-04-30 12:00:00","52704","4.6930000000000005","85.8","7.775","81.4","NAN","NAN","NAN","NAN","NAN"],
    [1551715,"2026-04-30 12:10:00","52705","4.505","89.8","7.285","87.6","NAN","NAN","NAN","NAN","NAN"],
    [1551716,"2026-04-30 12:20:00","52706","5.231","84.8","8.4","93.7","NAN","NAN","NAN","NAN","NAN"],
    [1551717,"2026-04-30 12:30:00","52707","4.545","83.8","7.546","82.3","NAN","NAN","NAN","NAN","NAN"],
    [1551718,"2026-04-30 12:40:00","52708","4.327","84.4","6.827","91.8","NAN","NAN","NAN","NAN","NAN"],
    [1551719,"2026-04-30 12:50:00","52709","3.968","85.0","6.043","81","NAN","NAN","NAN","NAN","NAN"],
    [1551720,"2026-04-30 13:00:00","52710","3.66","84.4","7.415","91.5","NAN","NAN","NAN","NAN","NAN"],
    [1551721,"2026-04-30 13:10:00","52711","4.61","100.5","7.611","84.7","NAN","NAN","NAN","NAN","NAN"],
    [1551722,"2026-04-30 13:20:00","52712","5.077","96.3","7.579","88.7","NAN","NAN","NAN","NAN","NAN"],
    [1551723,"2026-04-30 13:30:00","52713","4.704","95.2","7.873","83.3","NAN","NAN","NAN","NAN","NAN"],
    [1551724,"2026-04-30 13:40:00","52714","4.495","90.6","7.709","89.2","NAN","NAN","NAN","NAN","NAN"],
    [1551725,"2026-04-30 13:50:00","52715","5.119","91.6","8.1","111.4","NAN","NAN","NAN","NAN","NAN"],
    [1551726,"2026-04-30 14:00:00","52716","4.908","86.7","8","92","NAN","NAN","NAN","NAN","NAN"],
    [1551727,"2026-04-30 14:10:00","52717","4.775","86.9","7.644","91.9","NAN","NAN","NAN","NAN","NAN"],
    [1551728,"2026-04-30 14:20:00","52718","4.489","81.9","6.566","86.9","NAN","NAN","NAN","NAN","NAN"],
    [1551729,"2026-04-30 14:30:00","52719","5.377000000000001","83.3","8.23","93.8","NAN","NAN","NAN","NAN","NAN"],
    [1551730,"2026-04-30 14:40:00","52720","5.341","79.53","9.47","80.7","NAN","NAN","NAN","NAN","NAN"],
    [1551731,"2026-04-30 14:50:00","52721","5.567","82.9","8.4","64.05","NAN","NAN","NAN","NAN","NAN"],
    [1551732,"2026-04-30 15:00:00","52722","5.857","86.2","9.08","99.5","NAN","NAN","NAN","NAN","NAN"],
    [1551733,"2026-04-30 15:10:00","52723","4.9830000000000005","84.9","7.807","90.3","NAN","NAN","NAN","NAN","NAN"],
    [1551734,"2026-04-30 15:20:00","52724","5.1370000000000005","80.3","7.219","80.5","NAN","NAN","NAN","NAN","NAN"],
    [1551735,"2026-04-30 15:30:00","52725","5.317","80.3","8.69","76.6","NAN","NAN","NAN","NAN","NAN"],
    [1551736,"2026-04-30 15:40:00","52726","5.078","79.09","8.13","79.68","NAN","NAN","NAN","NAN","NAN"],
    [1551737,"2026-04-30 15:50:00","52727","4.296","80.9","7.35","87.5","NAN","NAN","NAN","NAN","NAN"],
    [1551738,"2026-04-30 16:00:00","52728","4.824","81.5","7.513","89.9","NAN","NAN","NAN","NAN","NAN"],
    [1551739,"2026-04-30 16:10:00","52729","4.92","81.9","8","75.8","NAN","NAN","NAN","NAN","NAN"],
    [1551740,"2026-04-30 16:20:00","52730","4.925","85.4","7.154","92.9","NAN","NAN","NAN","NAN","NAN"],
    [1551741,"2026-04-30 16:30:00","52731","4.398","90.3","6.664","83","NAN","NAN","NAN","NAN","NAN"],
    [1551742,"2026-04-30 16:40:00","52732","4.151","88.2","6.305","91.8","NAN","NAN","NAN","NAN","NAN"],
    [1551743,"2026-04-30 16:50:00","52733","3.2680000000000002","87.4","5.39","79.54","NAN","NAN","NAN","NAN","NAN"],
    [1551744,"2026-04-30 17:00:00","52734","4.095","88.6","6.599","84.1","NAN","NAN","NAN","NAN","NAN"],
    [1551745,"2026-04-30 17:10:00","52735","3.819","87.3","6.729","94.2","NAN","NAN","NAN","NAN","NAN"],
    [1551746,"2026-04-30 17:20:00","52736","4.22","84.1","7.219","82.9","NAN","NAN","NAN","NAN","NAN"],
    [1551747,"2026-04-30 17:30:00","52737","4.577","79.29","6.958","74.66","NAN","NAN","NAN","NAN","NAN"],
    [1551748,"2026-04-30 17:40:00","52738","3.748","76.25","5.847","86.4","NAN","NAN","NAN","NAN","NAN"],
    [1551749,"2026-04-30 17:50:00","52739","3.236","85.4","5.488","84.3","NAN","NAN","NAN","NAN","NAN"],
    [1551750,"2026-04-30 18:00:00","52740","2.951","89.7","4.475","75.61","NAN","NAN","NAN","NAN","NAN"],
    [1551751,"2026-04-30 18:10:00","52741","3.234","91.4","5.129","96.7","NAN","NAN","NAN","NAN","NAN"],
    [1551752,"2026-04-30 18:20:00","52742","3.822","78.13","6.174","81.4","NAN","NAN","NAN","NAN","NAN"],
    [1551753,"2026-04-30 18:30:00","52743","3.778","81.5","6.795","101.1","NAN","NAN","NAN","NAN","NAN"],
    [1551754,"2026-04-30 18:40:00","52744","2.895","81.4","5.194","74.45","NAN","NAN","NAN","NAN","NAN"],
    [1551755,"2026-04-30 18:50:00","52745","2.674","74.03","6.043","49.55","NAN","NAN","NAN","NAN","NAN"],
    [1551756,"2026-04-30 19:00:00","52746","3.094","83.1","5.684","102.5","NAN","NAN","NAN","NAN","NAN"],
    [1551757,"2026-04-30 19:10:00","52747","4.27","89.0","7.252","94.1","NAN","NAN","NAN","NAN","NAN"],
    [1551758,"2026-04-30 19:20:00","52748","3.4989999999999997","86.7","5.586","91.5","NAN","NAN","NAN","NAN","NAN"],
    [1551759,"2026-04-30 19:30:00","52749","4.06","86.3","7.677","91.7","NAN","NAN","NAN","NAN","NAN"],
    [1551760,"2026-04-30 19:40:00","52750","5.422999999999999","84.9","9.24","91","NAN","NAN","NAN","NAN","NAN"],
    [1551761,"2026-04-30 19:50:00","52751","5.206","80.2","8.53","87.1","NAN","NAN","NAN","NAN","NAN"],
    [1551762,"2026-04-30 20:00:00","52752","4.541","83.9","6.925","86.9","NAN","NAN","NAN","NAN","NAN"],
    [1551763,"2026-04-30 20:10:00","52753","4.046","84.0","7.448","81.4","NAN","NAN","NAN","NAN","NAN"],
    [1551764,"2026-04-30 20:20:00","52754","4.7860000000000005","93.4","8.62","94.2","NAN","NAN","NAN","NAN","NAN"],
    [1551765,"2026-04-30 20:30:00","52755","5.257999999999999","91.7","10.32","96","NAN","NAN","NAN","NAN","NAN"],
    [1551766,"2026-04-30 20:40:00","52756","4.958","91.4","8.66","103.2","NAN","NAN","NAN","NAN","NAN"],
    [1551767,"2026-04-30 20:50:00","52757","4.813","93.1","7.742","95.6","NAN","NAN","NAN","NAN","NAN"],
    [1551768,"2026-04-30 21:00:00","52758","4.556","91.0","8.26","100.7","NAN","NAN","NAN","NAN","NAN"],
    [1551769,"2026-04-30 21:10:00","52759","5.18","90.2","9.15","83.1","NAN","NAN","NAN","NAN","NAN"],
    [1551770,"2026-04-30 21:20:00","52760","5.169","90.1","8.59","94","NAN","NAN","NAN","NAN","NAN"],
    [1551771,"2026-04-30 21:30:00","52761","5.224","88.4","9.11","79.89","NAN","NAN","NAN","NAN","NAN"],
    [1551772,"2026-04-30 21:40:00","52762","5.891","86.8","9.51","87.5","NAN","NAN","NAN","NAN","NAN"],
    [1551773,"2026-04-30 21:50:00","52763","5.398","85.3","9.77","84.7","NAN","NAN","NAN","NAN","NAN"],
    [1551774,"2026-04-30 22:00:00","52764","5.827000000000001","85.9","9.96","78.97","NAN","NAN","NAN","NAN","NAN"],
    [1551775,"2026-04-30 22:10:00","52765","5.577999999999999","84.8","8.79","101","NAN","NAN","NAN","NAN","NAN"],
    [1551776,"2026-04-30 22:20:00","52766","5.306","86.8","8.36","75.72","NAN","NAN","NAN","NAN","NAN"],
    [1551777,"2026-04-30 22:30:00","52767","5.29","89.3","8.85","79.92","NAN","NAN","NAN","NAN","NAN"],
    [1551778,"2026-04-30 22:40:00","52768","4.667","90.4","10.16","80.9","NAN","NAN","NAN","NAN","NAN"],
    [1551779,"2026-04-30 22:50:00","52769","4.768","92.5","8.33","81.6","NAN","NAN","NAN","NAN","NAN"],
    [1551780,"2026-04-30 23:00:00","52770","4.746","87.7","8.53","80.5","NAN","NAN","NAN","NAN","NAN"],
    [1551781,"2026-04-30 23:10:00","52771","4.881","89.4","9.87","86.7","NAN","NAN","NAN","NAN","NAN"],
    [1551782,"2026-04-30 23:20:00","52772","4.02","90.5","7.187","82.5","NAN","NAN","NAN","NAN","NAN"],
    [1551783,"2026-04-30 23:30:00","52773","4.442","89.6","8.66","79.69","NAN","NAN","NAN","NAN","NAN"],
    [1551784,"2026-04-30 23:40:00","52774","3.5869999999999997","93.0","6.272","90.7","NAN","NAN","NAN","NAN","NAN"],
    [1551785,"2026-04-30 23:50:00","52775","4.238","86.4","6.795","87.2","NAN","NAN","NAN","NAN","NAN"],
    [1551786,"2026-05-01 00:00:00","52776","4.853","85.6","7.873","83.4","NAN","NAN","NAN","NAN","NAN"],
    [1551787,"2026-05-01 00:10:00","52777","4.77","83.9","8.69","78.07","NAN","NAN","NAN","NAN","NAN"],
    [1551788,"2026-05-01 00:20:00","52778","5.185","79.63","10","80.1","NAN","NAN","NAN","NAN","NAN"],
    [1551789,"2026-05-01 00:30:00","52779","5.329","85.4","8.1","96.5","NAN","NAN","NAN","NAN","NAN"],
    [1551790,"2026-05-01 00:40:00","52780","4.857","86.5","7.285","86.2","NAN","NAN","NAN","NAN","NAN"],
    [1551791,"2026-05-01 00:50:00","52781","4.913","82.6","7.317","82.8","NAN","NAN","NAN","NAN","NAN"],
    [1551792,"2026-05-01 01:00:00","52782","5.459","82.8","9.05","91.8","NAN","NAN","NAN","NAN","NAN"],
    [1551793,"2026-05-01 01:10:00","52783","5.209","81.4","7.644","67.25","NAN","NAN","NAN","NAN","NAN"],
    [1551794,"2026-05-01 01:20:00","52784","5.252000000000001","79.33","7.971","85.9","NAN","NAN","NAN","NAN","NAN"],
    [1551795,"2026-05-01 01:30:00","52785","5.075","82.3","7.644","83.6","NAN","NAN","NAN","NAN","NAN"],
    [1551796,"2026-05-01 01:40:00","52786","4.742","86.5","7.383","93.4","NAN","NAN","NAN","NAN","NAN"],
    [1551797,"2026-05-01 01:50:00","52787","4.717","85.4","7.775","85.6","NAN","NAN","NAN","NAN","NAN"],
    [1551798,"2026-05-01 02:00:00","52788","3.668","88.6","6.174","85.1","NAN","NAN","NAN","NAN","NAN"],
    [1551799,"2026-05-01 02:10:00","52789","2.905","82.2","5.39","100.1","NAN","NAN","NAN","NAN","NAN"],
    [1551800,"2026-05-01 02:20:00","52790","3.783","88.7","6.043","90.1","NAN","NAN","NAN","NAN","NAN"],
    [1551801,"2026-05-01 02:30:00","52791","4.099","83.6","7.35","72.26","NAN","NAN","NAN","NAN","NAN"],
    [1551802,"2026-05-01 02:40:00","52792","3.861","64.53","8.43","63.3","NAN","NAN","NAN","NAN","NAN"],
    [1551803,"2026-05-01 02:50:00","52793","3.8169999999999997","68.11","6.435","65.72","NAN","NAN","NAN","NAN","NAN"],
    [1551804,"2026-05-01 03:00:00","52794","3.6860000000000004","68.39","6.631","81.1","NAN","NAN","NAN","NAN","NAN"],
    [1551805,"2026-05-01 03:10:00","52795","4.211","63.72","7.513","70.87","NAN","NAN","NAN","NAN","NAN"],
    [1551806,"2026-05-01 03:20:00","52796","3.31","69.73","6.501","77.53","NAN","NAN","NAN","NAN","NAN"],
    [1551807,"2026-05-01 03:30:00","52797","3.283","67.96","6.697","62.08","NAN","NAN","NAN","NAN","NAN"],
    [1551808,"2026-05-01 03:40:00","52798","4.383","62.47","7.971","70.03","NAN","NAN","NAN","NAN","NAN"],
    [1551809,"2026-05-01 03:50:00","52799","4.762","58.47","8.43","58.17","NAN","NAN","NAN","NAN","NAN"],
    [1551810,"2026-05-01 04:00:00","52800","4.795","61.11","7.383","66.39","NAN","NAN","NAN","NAN","NAN"],
    [1551811,"2026-05-01 04:10:00","52801","4.762","58.55","8.53","68.04","NAN","NAN","NAN","NAN","NAN"],
    [1551812,"2026-05-01 04:20:00","52802","4.2139999999999995","61.33","7.317","58.99","NAN","NAN","NAN","NAN","NAN"],
    [1551813,"2026-05-01 04:30:00","52803","3.2319999999999998","53.98","6.435","55.47","NAN","NAN","NAN","NAN","NAN"],
    [1551814,"2026-05-01 04:40:00","52804","2.576","41.66","4.802","33.59","NAN","NAN","NAN","NAN","NAN"],
    [1551815,"2026-05-01 04:50:00","52805","2.114","38.46","3.789","50.48","NAN","NAN","NAN","NAN","NAN"],
    [1551816,"2026-05-01 05:00:00","52806","2.565","36.73","4.214","28.01","NAN","NAN","NAN","NAN","NAN"],
    [1551817,"2026-05-01 05:10:00","52807","2.099","28.19","3.463","29.73","NAN","NAN","NAN","NAN","NAN"],
    [1551818,"2026-05-01 05:20:00","52808","1.676","19.44","2.842","19.78","NAN","NAN","NAN","NAN","NAN"],
    [1551819,"2026-05-01 05:30:00","52809","1.436","15.55","2.254","14.78","NAN","NAN","NAN","NAN","NAN"],
    [1551820,"2026-05-01 05:40:00","52810","1.615","16.21","3.038","20.17","NAN","NAN","NAN","NAN","NAN"],
    [1551821,"2026-05-01 05:50:00","52811","1.7369999999999999","13.67","2.777","15.64","NAN","NAN","NAN","NAN","NAN"],
    [1551822,"2026-05-01 06:00:00","52812","2.349","20.56","4.181","7.917","NAN","NAN","NAN","NAN","NAN"],
    [1551823,"2026-05-01 06:10:00","52813","2.411","33.76","4.312","37.6","NAN","NAN","NAN","NAN","NAN"],
    [1551824,"2026-05-01 06:20:00","52814","2.306","44.69","4.116","37.97","NAN","NAN","NAN","NAN","NAN"],
    [1551825,"2026-05-01 06:30:00","52815","3.011","47.01","5.031","43.78","NAN","NAN","NAN","NAN","NAN"],
    [1551826,"2026-05-01 06:40:00","52816","3.009","44.86","5.325","32.41","NAN","NAN","NAN","NAN","NAN"],
    [1551827,"2026-05-01 06:50:00","52817","2.5540000000000003","54.67","5.488","61.99","NAN","NAN","NAN","NAN","NAN"],
    [1551828,"2026-05-01 07:00:00","52818","3.0839999999999996","65.22","5.292","72.75","NAN","NAN","NAN","NAN","NAN"],
    [1551829,"2026-05-01 07:10:00","52819","3.6889999999999996","65.39","6.533","69.07","NAN","NAN","NAN","NAN","NAN"],
    [1551830,"2026-05-01 07:20:00","52820","4.736000000000001","61.13","8.26","64.42","NAN","NAN","NAN","NAN","NAN"],
    [1551831,"2026-05-01 07:30:00","52821","3.96","56.41","7.611","57.74","NAN","NAN","NAN","NAN","NAN"],
    [1551832,"2026-05-01 07:40:00","52822","4.463","66.33","7.219","65.39","NAN","NAN","NAN","NAN","NAN"],
    [1551833,"2026-05-01 07:50:00","52823","4.253","65.3","7.415","62.97","NAN","NAN","NAN","NAN","NAN"],
    [1551834,"2026-05-01 08:00:00","52824","3.542","72.56","7.089","77.99","NAN","NAN","NAN","NAN","NAN"],
    [1551835,"2026-05-01 08:10:00","52825","3.784","77.76","7.481","63.33","NAN","NAN","NAN","NAN","NAN"],
    [1551836,"2026-05-01 08:20:00","52826","4.296","73.73","7.513","73.36","NAN","NAN","NAN","NAN","NAN"],
    [1551837,"2026-05-01 08:30:00","52827","4.773","74.3","8.92","58.51","NAN","NAN","NAN","NAN","NAN"],
    [1551838,"2026-05-01 08:40:00","52828","4.705","74.06","8.4","54.39","NAN","NAN","NAN","NAN","NAN"],
    [1551839,"2026-05-01 08:50:00","52829","5.723","72.08","9.41","60.75","NAN","NAN","NAN","NAN","NAN"],
    [1551840,"2026-05-01 09:00:00","52830","5.239","74.91","8.49","65.99","NAN","NAN","NAN","NAN","NAN"],
    [1551841,"2026-05-01 09:10:00","52831","5.492999999999999","76.17","9.11","57.49","NAN","NAN","NAN","NAN","NAN"],
    [1551842,"2026-05-01 09:20:00","52832","5.315","73.87","10.42","68.76","NAN","NAN","NAN","NAN","NAN"],
    [1551843,"2026-05-01 09:30:00","52833","4.529","79.29","8.66","86.6","NAN","NAN","NAN","NAN","NAN"],
    [1551844,"2026-05-01 09:40:00","52834","4.251","86.2","7.317","103.9","NAN","NAN","NAN","NAN","NAN"],
    [1551845,"2026-05-01 09:50:00","52835","4.971","88.7","8.72","74.33","NAN","NAN","NAN","NAN","NAN"],
    [1551846,"2026-05-01 10:00:00","52836","4.059","83.8","8.33","93.3","NAN","NAN","NAN","NAN","NAN"],
    [1551847,"2026-05-01 10:10:00","52837","4.5360000000000005","88.5","8.59","90.8","NAN","NAN","NAN","NAN","NAN"],
    [1551848,"2026-05-01 10:20:00","52838","4.573","90.6","9.83","88.7","NAN","NAN","NAN","NAN","NAN"],
    [1551849,"2026-05-01 10:30:00","52839","5.529","90.5","10.62","92.2","NAN","NAN","NAN","NAN","NAN"],
    [1551850,"2026-05-01 10:40:00","52840","4.731","94.3","8.53","84.7","NAN","NAN","NAN","NAN","NAN"],
    [1551851,"2026-05-01 10:50:00","52841","5.0","92.4","8.56","91.6","NAN","NAN","NAN","NAN","NAN"],
    [1551852,"2026-05-01 11:00:00","52842","5.381","86.9","9.41","100.8","NAN","NAN","NAN","NAN","NAN"],
    [1551853,"2026-05-01 11:10:00","52843","5.38","86.0","9.02","70.38","NAN","NAN","NAN","NAN","NAN"],
    [1551854,"2026-05-01 11:20:00","52844","5.2010000000000005","77.07","9.83","55.62","NAN","NAN","NAN","NAN","NAN"],
    [1551855,"2026-05-01 11:30:00","52845","5.162000000000001","74.77","9.38","68.29","NAN","NAN","NAN","NAN","NAN"],
    [1551856,"2026-05-01 11:40:00","52846","4.822","81.3","8.85","69.26","NAN","NAN","NAN","NAN","NAN"],
    [1551857,"2026-05-01 11:50:00","52847","4.902","84.1","8.82","98","NAN","NAN","NAN","NAN","NAN"],
    [1551858,"2026-05-01 12:00:00","52848","5.855","88.1","10.19","97.5","NAN","NAN","NAN","NAN","NAN"],
    [1551859,"2026-05-01 12:10:00","52849","5.265","89.0","9.54","95.8","NAN","NAN","NAN","NAN","NAN"],
    [1551860,"2026-05-01 12:20:00","52850","4.81","89.2","8.43","92.9","NAN","NAN","NAN","NAN","NAN"],
    [1551861,"2026-05-01 12:30:00","52851","6.015","92.1","11.43","94.4","NAN","NAN","NAN","NAN","NAN"],
    [1551862,"2026-05-01 12:40:00","52852","4.699","90.2","9.34","91.4","NAN","NAN","NAN","NAN","NAN"],
    [1551863,"2026-05-01 12:50:00","52853","5.343","92.9","9.96","72.48","NAN","NAN","NAN","NAN","NAN"],
    [1551864,"2026-05-01 13:00:00","52854","6.027","91.6","10.16","97.5","NAN","NAN","NAN","NAN","NAN"],
    [1551865,"2026-05-01 13:10:00","52855","5.4270000000000005","91.7","9.38","84.8","NAN","NAN","NAN","NAN","NAN"],
    [1551866,"2026-05-01 13:20:00","52856","5.358","90.7","9.96","83.4","NAN","NAN","NAN","NAN","NAN"],
    [1551867,"2026-05-01 13:30:00","52857","4.902","93.0","9.47","90.6","NAN","NAN","NAN","NAN","NAN"],
    [1551868,"2026-05-01 13:40:00","52858","4.769","96.9","7.905","96.6","NAN","NAN","NAN","NAN","NAN"],
    [1551869,"2026-05-01 13:50:00","52859","4.875","93.7","8.92","99.4","NAN","NAN","NAN","NAN","NAN"],
    [1551870,"2026-05-01 14:00:00","52860","5.3870000000000005","92.3","8.56","97.8","NAN","NAN","NAN","NAN","NAN"],
    [1551871,"2026-05-01 14:10:00","52861","4.846","95.1","9.28","85.5","NAN","NAN","NAN","NAN","NAN"],
    [1551872,"2026-05-01 14:20:00","52862","5.004","92.1","8.89","90.3","NAN","NAN","NAN","NAN","NAN"],
    [1551873,"2026-05-01 14:30:00","52863","4.144","91.2","7.154","88.9","NAN","NAN","NAN","NAN","NAN"],
    [1551874,"2026-05-01 14:40:00","52864","4.58","87.0","8.36","92.4","NAN","NAN","NAN","NAN","NAN"],
    [1551875,"2026-05-01 14:50:00","52865","4.453","86.0","6.729","64.54","NAN","NAN","NAN","NAN","NAN"],
    [1551876,"2026-05-01 15:00:00","52866","4.205","70.1","7.579","70.83","NAN","NAN","NAN","NAN","NAN"],
    [1551877,"2026-05-01 15:10:00","52867","5.617999999999999","66.48","9.08","66.16","NAN","NAN","NAN","NAN","NAN"],
    [1551878,"2026-05-01 15:20:00","52868","5.162999999999999","75.17","7.644","57.04","NAN","NAN","NAN","NAN","NAN"],
    [1551879,"2026-05-01 15:30:00","52869","4.421","73.43","7.121","66.68","NAN","NAN","NAN","NAN","NAN"],
    [1551880,"2026-05-01 15:40:00","52870","4.208","73.9","7.383","67.33","NAN","NAN","NAN","NAN","NAN"],
    [1551881,"2026-05-01 15:50:00","52871","4.937","75.21","7.807","68.77","NAN","NAN","NAN","NAN","NAN"],
    [1551882,"2026-05-01 16:00:00","52872","5.141","69.17","8.62","63.54","NAN","NAN","NAN","NAN","NAN"],
    [1551883,"2026-05-01 16:10:00","52873","4.934","66.6","8.43","69.75","NAN","NAN","NAN","NAN","NAN"],
    [1551884,"2026-05-01 16:20:00","52874","4.981","67.15","7.905","73.71","NAN","NAN","NAN","NAN","NAN"],
    [1551885,"2026-05-01 16:30:00","52875","4.704","69.3","8.56","61.99","NAN","NAN","NAN","NAN","NAN"],
    [1551886,"2026-05-01 16:40:00","52876","4.747","69.73","7.219","61.75","NAN","NAN","NAN","NAN","NAN"],
    [1551887,"2026-05-01 16:50:00","52877","4.1419999999999995","69.73","7.611","58.76","NAN","NAN","NAN","NAN","NAN"],
    [1551888,"2026-05-01 17:00:00","52878","4.059","68.79","7.513","69.57","NAN","NAN","NAN","NAN","NAN"],
    [1551889,"2026-05-01 17:10:00","52879","4.037","72.58","6.991","80.8","NAN","NAN","NAN","NAN","NAN"],
    [1551890,"2026-05-01 17:20:00","52880","4.055","73.47","6.501","74.79","NAN","NAN","NAN","NAN","NAN"],
    [1551891,"2026-05-01 17:30:00","52881","3.859","69.98","6.795","67.55","NAN","NAN","NAN","NAN","NAN"],
    [1551892,"2026-05-01 17:40:00","52882","3.872","69.84","6.337","76.79","NAN","NAN","NAN","NAN","NAN"],
    [1551893,"2026-05-01 17:50:00","52883","3.665","67.79","6.011","61.43","NAN","NAN","NAN","NAN","NAN"],
    [1551894,"2026-05-01 18:00:00","52884","3.437","63.53","6.141","62.5","NAN","NAN","NAN","NAN","NAN"],
    [1551895,"2026-05-01 18:10:00","52885","3.301","71.17","5.521","62.74","NAN","NAN","NAN","NAN","NAN"],
    [1551896,"2026-05-01 18:20:00","52886","2.76","87.7","5.553","84.5","NAN","NAN","NAN","NAN","NAN"],
    [1551897,"2026-05-01 18:30:00","52887","2.888","86.7","6.566","75.38","NAN","NAN","NAN","NAN","NAN"],
    [1551898,"2026-05-01 18:40:00","52888","2.738","91.1","5.096","96.3","NAN","NAN","NAN","NAN","NAN"],
    [1551899,"2026-05-01 18:50:00","52889","3.8360000000000003","101.0","5.945","100.8","NAN","NAN","NAN","NAN","NAN"],
    [1551900,"2026-05-01 19:00:00","52890","3.036","100.4","5.717","102.9","NAN","NAN","NAN","NAN","NAN"],
    [1551901,"2026-05-01 19:10:00","52891","3.0869999999999997","99.6","5.684","99.7","NAN","NAN","NAN","NAN","NAN"],
    [1551902,"2026-05-01 19:20:00","52892","2.8689999999999998","96.3","5.194","95.2","NAN","NAN","NAN","NAN","NAN"],
    [1551903,"2026-05-01 19:30:00","52893","3.1630000000000003","95.4","5.586","99.6","NAN","NAN","NAN","NAN","NAN"],
    [1551904,"2026-05-01 19:40:00","52894","2.7939999999999996","94.1","4.867","91.1","NAN","NAN","NAN","NAN","NAN"],
    [1551905,"2026-05-01 19:50:00","52895","3.105","93.1","5.488","105.9","NAN","NAN","NAN","NAN","NAN"],
    [1551906,"2026-05-01 20:00:00","52896","2.605","83.6","5.031","92","NAN","NAN","NAN","NAN","NAN"],
    [1551907,"2026-05-01 20:10:00","52897","2.565","90.2","4.345","82.4","NAN","NAN","NAN","NAN","NAN"],
    [1551908,"2026-05-01 20:20:00","52898","2.617","88.2","5.031","78.75","NAN","NAN","NAN","NAN","NAN"],
    [1551909,"2026-05-01 20:30:00","52899","2.668","89.1","5.031","94.5","NAN","NAN","NAN","NAN","NAN"],
    [1551910,"2026-05-01 20:40:00","52900","2.6519999999999997","82.2","4.606","71.36","NAN","NAN","NAN","NAN","NAN"],
    [1551911,"2026-05-01 20:50:00","52901","2.957","74.36","5.194","61.12","NAN","NAN","NAN","NAN","NAN"],
    [1551912,"2026-05-01 21:00:00","52902","2.367","87.6","5.553","98","NAN","NAN","NAN","NAN","NAN"],
    [1551913,"2026-05-01 21:10:00","52903","2.944","86.8","4.573","95.3","NAN","NAN","NAN","NAN","NAN"],
    [1551914,"2026-05-01 21:20:00","52904","2.3209999999999997","81.5","4.475","90.3","NAN","NAN","NAN","NAN","NAN"],
    [1551915,"2026-05-01 21:30:00","52905","2.241","77.2","4.377","92.5","NAN","NAN","NAN","NAN","NAN"],
    [1551916,"2026-05-01 21:40:00","52906","2.521","71.23","5.325","73.59","NAN","NAN","NAN","NAN","NAN"],
    [1551917,"2026-05-01 21:50:00","52907","3.0039999999999996","69.78","4.671","65.95","NAN","NAN","NAN","NAN","NAN"],
    [1551918,"2026-05-01 22:00:00","52908","2.568","64.68","4.802","72.74","NAN","NAN","NAN","NAN","NAN"],
    [1551919,"2026-05-01 22:10:00","52909","2.9939999999999998","65.13","5.488","65.26","NAN","NAN","NAN","NAN","NAN"],
    [1551920,"2026-05-01 22:20:00","52910","2.67","67.16","4.247","74.37","NAN","NAN","NAN","NAN","NAN"],
    [1551921,"2026-05-01 22:30:00","52911","2.918","69.82","5.423","66.36","NAN","NAN","NAN","NAN","NAN"],
    [1551922,"2026-05-01 22:40:00","52912","3.443","71.66","5.553","74.36","NAN","NAN","NAN","NAN","NAN"],
    [1551923,"2026-05-01 22:50:00","52913","2.633","77.56","4.835","70.21","NAN","NAN","NAN","NAN","NAN"],
    [1551924,"2026-05-01 23:00:00","52914","2.137","77.08","3.953","77.93","NAN","NAN","NAN","NAN","NAN"],
    [1551925,"2026-05-01 23:10:00","52915","2.853","66.92","4.377","67.19","NAN","NAN","NAN","NAN","NAN"],
    [1551926,"2026-05-01 23:20:00","52916","2.97","64.53","5.129","60.05","NAN","NAN","NAN","NAN","NAN"],
    [1551927,"2026-05-01 23:30:00","52917","2.6710000000000003","69.87","4.377","64.7","NAN","NAN","NAN","NAN","NAN"],
    [1551928,"2026-05-01 23:40:00","52918","2.699","74.93","5.031","66.42","NAN","NAN","NAN","NAN","NAN"],
    [1551929,"2026-05-01 23:50:00","52919","2.716","72.23","5.161","61.27","NAN","NAN","NAN","NAN","NAN"],
    [1551930,"2026-05-02 00:00:00","52920","2.496","72.66","4.704","71.39","NAN","NAN","NAN","NAN","NAN"],
    [1551931,"2026-05-02 00:10:00","52921","2.667","70.95","4.606","72.22","NAN","NAN","NAN","NAN","NAN"],
    [1551932,"2026-05-02 00:20:00","52922","2.145","71.95","4.083","70.03","NAN","NAN","NAN","NAN","NAN"],
    [1551933,"2026-05-02 00:30:00","52923","2.699","67.86","5.096","60.34","NAN","NAN","NAN","NAN","NAN"],
    [1551934,"2026-05-02 00:40:00","52924","3.236","72.07","5.259","74.38","NAN","NAN","NAN","NAN","NAN"],
    [1551935,"2026-05-02 00:50:00","52925","2.803","71.46","4.9","67.96","NAN","NAN","NAN","NAN","NAN"],
    [1551936,"2026-05-02 01:00:00","52926","3.7910000000000004","69.69","5.945","66.11","NAN","NAN","NAN","NAN","NAN"],
    [1551937,"2026-05-02 01:10:00","52927","3.24","70.43","6.599","58.94","NAN","NAN","NAN","NAN","NAN"],
    [1551938,"2026-05-02 01:20:00","52928","3.647","70.0","5.782","63.88","NAN","NAN","NAN","NAN","NAN"],
    [1551939,"2026-05-02 01:30:00","52929","3.3569999999999998","70.62","5.423","74.32","NAN","NAN","NAN","NAN","NAN"],
    [1551940,"2026-05-02 01:40:00","52930","3.472","68.2","5.717","74.27","NAN","NAN","NAN","NAN","NAN"],
    [1551941,"2026-05-02 01:50:00","52931","2.457","69.76","4.508","64.37","NAN","NAN","NAN","NAN","NAN"],
    [1551942,"2026-05-02 02:00:00","52932","2.842","69.33","4.965","78.58","NAN","NAN","NAN","NAN","NAN"],
    [1551943,"2026-05-02 02:10:00","52933","3.616","69.84","5.521","62.88","NAN","NAN","NAN","NAN","NAN"],
    [1551944,"2026-05-02 02:20:00","52934","3.662","67.17","5.913","65.58","NAN","NAN","NAN","NAN","NAN"],
    [1551945,"2026-05-02 02:30:00","52935","3.2119999999999997","67.5","5.423","77.15","NAN","NAN","NAN","NAN","NAN"],
    [1551946,"2026-05-02 02:40:00","52936","3.457","68.65","5.357","67.48","NAN","NAN","NAN","NAN","NAN"],
    [1551947,"2026-05-02 02:50:00","52937","3.242","68.95","5.847","67.91","NAN","NAN","NAN","NAN","NAN"],
    [1551948,"2026-05-02 03:00:00","52938","3.3560000000000003","69.58","6.043","66.31","NAN","NAN","NAN","NAN","NAN"],
    [1551949,"2026-05-02 03:10:00","52939","3.525","71.36","6.305","68.77","NAN","NAN","NAN","NAN","NAN"],
    [1551950,"2026-05-02 03:20:00","52940","3.7230000000000003","68.29","6.435","64.14","NAN","NAN","NAN","NAN","NAN"],
    [1551951,"2026-05-02 03:30:00","52941","3.6710000000000003","70.0","5.847","76.72","NAN","NAN","NAN","NAN","NAN"],
    [1551952,"2026-05-02 03:40:00","52942","3.114","71.26","5.194","60.36","NAN","NAN","NAN","NAN","NAN"],
    [1551953,"2026-05-02 03:50:00","52943","2.9989999999999997","69.3","5.259","66.48","NAN","NAN","NAN","NAN","NAN"],
    [1551954,"2026-05-02 04:00:00","52944","3.258","68.33","5.488","67.07","NAN","NAN","NAN","NAN","NAN"],
    [1551955,"2026-05-02 04:10:00","52945","2.623","70.53","4.377","69.94","NAN","NAN","NAN","NAN","NAN"],
    [1551956,"2026-05-02 04:20:00","52946","2.918","68.71","5.227","62.01","NAN","NAN","NAN","NAN","NAN"],
    [1551957,"2026-05-02 04:30:00","52947","2.845","67.25","5.292","59.32","NAN","NAN","NAN","NAN","NAN"],
    [1551958,"2026-05-02 04:40:00","52948","2.938","70.72","4.737","68.14","NAN","NAN","NAN","NAN","NAN"],
    [1551959,"2026-05-02 04:50:00","52949","2.867","69.32","4.671","61.76","NAN","NAN","NAN","NAN","NAN"],
    [1551960,"2026-05-02 05:00:00","52950","3.325","66.22","5.619","60.85","NAN","NAN","NAN","NAN","NAN"],
    [1551961,"2026-05-02 05:10:00","52951","3.5260000000000002","68.53","6.435","63.6","NAN","NAN","NAN","NAN","NAN"],
    [1551962,"2026-05-02 05:20:00","52952","3.2430000000000003","68.1","5.194","69.01","NAN","NAN","NAN","NAN","NAN"],
    [1551963,"2026-05-02 05:30:00","52953","2.842","71.95","5.553","81.7","NAN","NAN","NAN","NAN","NAN"],
    [1551964,"2026-05-02 05:40:00","52954","3.339","73.08","5.651","71.85","NAN","NAN","NAN","NAN","NAN"],
    [1551965,"2026-05-02 05:50:00","52955","2.987","67.35","5.129","60.89","NAN","NAN","NAN","NAN","NAN"],
    [1551966,"2026-05-02 06:00:00","52956","2.7119999999999997","66.56","4.835","67.88","NAN","NAN","NAN","NAN","NAN"],
    [1551967,"2026-05-02 06:10:00","52957","2.499","73.51","4.41","75.29","NAN","NAN","NAN","NAN","NAN"],
    [1551968,"2026-05-02 06:20:00","52958","3.298","69.62","5.129","73.47","NAN","NAN","NAN","NAN","NAN"],
    [1551969,"2026-05-02 06:30:00","52959","2.832","70.93","5.259","64.11","NAN","NAN","NAN","NAN","NAN"],
    [1551970,"2026-05-02 06:40:00","52960","2.456","68.1","4.9","73.76","NAN","NAN","NAN","NAN","NAN"],
    [1551971,"2026-05-02 06:50:00","52961","2.344","68.84","4.41","65.95","NAN","NAN","NAN","NAN","NAN"],
    [1551972,"2026-05-02 07:00:00","52962","2.535","68.31","4.312","75.02","NAN","NAN","NAN","NAN","NAN"],
    [1551973,"2026-05-02 07:10:00","52963","2.8689999999999998","70.96","4.671","82.7","NAN","NAN","NAN","NAN","NAN"],
    [1551974,"2026-05-02 07:20:00","52964","2.415","72.39","3.985","79.87","NAN","NAN","NAN","NAN","NAN"],
    [1551975,"2026-05-02 07:30:00","52965","2.589","72.51","4.9","70.44","NAN","NAN","NAN","NAN","NAN"],
    [1551976,"2026-05-02 07:40:00","52966","2.943","70.7","4.737","62.39","NAN","NAN","NAN","NAN","NAN"],
    [1551977,"2026-05-02 07:50:00","52967","2.1109999999999998","56.48","3.855","62.52","NAN","NAN","NAN","NAN","NAN"],
    [1551978,"2026-05-02 08:00:00","52968","2.204","59.92","4.083","65.09","NAN","NAN","NAN","NAN","NAN"],
    [1551979,"2026-05-02 08:10:00","52969","2.39","66.5","4.149","65.94","NAN","NAN","NAN","NAN","NAN"],
    [1551980,"2026-05-02 08:20:00","52970","2.67","68.76","4.149","76.58","NAN","NAN","NAN","NAN","NAN"],
    [1551981,"2026-05-02 08:30:00","52971","2.2119999999999997","60.61","3.985","70.96","NAN","NAN","NAN","NAN","NAN"],
    [1551982,"2026-05-02 08:40:00","52972","2.798","47.96","4.443","39.07","NAN","NAN","NAN","NAN","NAN"],
    [1551983,"2026-05-02 08:50:00","52973","2.662","60.81","4.279","62.18","NAN","NAN","NAN","NAN","NAN"],
    [1551984,"2026-05-02 09:00:00","52974","2.287","57.43","4.051","59.86","NAN","NAN","NAN","NAN","NAN"],
    [1551985,"2026-05-02 09:10:00","52975","2.5810000000000004","64.34","4.214","57.06","NAN","NAN","NAN","NAN","NAN"],
    [1551986,"2026-05-02 09:20:00","52976","2.98","68.04","5.031","78.13","NAN","NAN","NAN","NAN","NAN"],
    [1551987,"2026-05-02 09:30:00","52977","3.267","68.56","4.933","65.44","NAN","NAN","NAN","NAN","NAN"],
    [1551988,"2026-05-02 09:40:00","52978","3.306","71.73","4.769","66.5","NAN","NAN","NAN","NAN","NAN"],
    [1551989,"2026-05-02 09:50:00","52979","2.7680000000000002","76.67","4.835","73.98","NAN","NAN","NAN","NAN","NAN"],
    [1551990,"2026-05-02 10:00:00","52980","3.4610000000000003","71.72","5.063","70.89","NAN","NAN","NAN","NAN","NAN"],
    [1551991,"2026-05-02 10:10:00","52981","3.077","71.01","5.194","64.19","NAN","NAN","NAN","NAN","NAN"],
    [1551992,"2026-05-02 10:20:00","52982","2.778","89.5","5.096","93.1","NAN","NAN","NAN","NAN","NAN"],
    [1551993,"2026-05-02 10:30:00","52983","2.824","88.8","4.443","92","NAN","NAN","NAN","NAN","NAN"],
    [1551994,"2026-05-02 10:40:00","52984","3.103","97.6","5.292","93.5","NAN","NAN","NAN","NAN","NAN"],
    [1551995,"2026-05-02 10:50:00","52985","3.207","99.5","5.325","101.9","NAN","NAN","NAN","NAN","NAN"],
    [1551996,"2026-05-02 11:00:00","52986","3.847","102.3","6.141","100.2","NAN","NAN","NAN","NAN","NAN"],
    [1551997,"2026-05-02 11:10:00","52987","3.8960000000000004","97.4","6.37","93.1","NAN","NAN","NAN","NAN","NAN"],
    [1551998,"2026-05-02 11:20:00","52988","4.1160000000000005","100.8","6.468","101.6","NAN","NAN","NAN","NAN","NAN"],
    [1551999,"2026-05-02 11:30:00","52989","3.7","95.1","6.109","94.5","NAN","NAN","NAN","NAN","NAN"],
    [1552000,"2026-05-02 11:40:00","52990","3.733","94.8","5.815","100.8","NAN","NAN","NAN","NAN","NAN"],
    [1552001,"2026-05-02 11:50:00","52991","3.715","89.7","6.239","67.41","NAN","NAN","NAN","NAN","NAN"],
    [1552002,"2026-05-02 12:00:00","52992","3.4560000000000004","90.6","5.717","86.6","NAN","NAN","NAN","NAN","NAN"],
    [1552003,"2026-05-02 12:10:00","52993","2.885","93.6","5.292","96.7","NAN","NAN","NAN","NAN","NAN"],
    [1552004,"2026-05-02 12:20:00","52994","3.142","98.5","5.031","96.1","NAN","NAN","NAN","NAN","NAN"],
    [1552005,"2026-05-02 12:30:00","52995","3.345","100.5","5.553","91.8","NAN","NAN","NAN","NAN","NAN"],
    [1552006,"2026-05-02 12:40:00","52996","2.983","98.3","4.769","78.53","NAN","NAN","NAN","NAN","NAN"],
    [1552007,"2026-05-02 12:50:00","52997","3.0060000000000002","97.0","5.521","89.6","NAN","NAN","NAN","NAN","NAN"],
    [1552008,"2026-05-02 13:00:00","52998","3.3930000000000002","102.0","5.717","87.1","NAN","NAN","NAN","NAN","NAN"],
    [1552009,"2026-05-02 13:10:00","52999","3.34","111.7","5.129","124.9","NAN","NAN","NAN","NAN","NAN"],
    [1552010,"2026-05-02 13:20:00","53000","3.36","106.9","5.586","87.5","NAN","NAN","NAN","NAN","NAN"],
    [1552011,"2026-05-02 13:30:00","53001","3.4330000000000003","107.9","4.998","88.1","NAN","NAN","NAN","NAN","NAN"],
    [1552012,"2026-05-02 13:40:00","53002","3.075","101.6","5.096","82.6","NAN","NAN","NAN","NAN","NAN"],
    [1552013,"2026-05-02 13:50:00","53003","2.907","100.0","5.161","96.3","NAN","NAN","NAN","NAN","NAN"],
    [1552014,"2026-05-02 14:00:00","53004","2.717","95.2","4.639","91.8","NAN","NAN","NAN","NAN","NAN"],
    [1552015,"2026-05-02 14:10:00","53005","3.102","87.1","5.096","86.4","NAN","NAN","NAN","NAN","NAN"],
    [1552016,"2026-05-02 14:20:00","53006","3.045","91.7","5.553","89.7","NAN","NAN","NAN","NAN","NAN"],
    [1552017,"2026-05-02 14:30:00","53007","2.4090000000000003","97.7","4.312","70.04","NAN","NAN","NAN","NAN","NAN"],
    [1552018,"2026-05-02 14:40:00","53008","2.9730000000000003","98.1","5.194","91.3","NAN","NAN","NAN","NAN","NAN"],
    [1552019,"2026-05-02 14:50:00","53009","2.65","103.3","4.345","119","NAN","NAN","NAN","NAN","NAN"],
    [1552020,"2026-05-02 15:00:00","53010","3.085","105.9","4.933","80.2","NAN","NAN","NAN","NAN","NAN"],
    [1552021,"2026-05-02 15:10:00","53011","2.7310000000000003","96.2","4.933","92.9","NAN","NAN","NAN","NAN","NAN"],
    [1552022,"2026-05-02 15:20:00","53012","3.015","98.7","4.835","99.5","NAN","NAN","NAN","NAN","NAN"],
    [1552023,"2026-05-02 15:30:00","53013","3.037","99.5","5.194","94.1","NAN","NAN","NAN","NAN","NAN"],
    [1552024,"2026-05-02 15:40:00","53014","2.9389999999999996","97.0","4.475","98","NAN","NAN","NAN","NAN","NAN"],
    [1552025,"2026-05-02 15:50:00","53015","2.497","91.1","3.985","67.91","NAN","NAN","NAN","NAN","NAN"],
    [1552026,"2026-05-02 16:00:00","53016","2.488","81.5","3.953","83.5","NAN","NAN","NAN","NAN","NAN"],
    [1552027,"2026-05-02 16:10:00","53017","2.541","97.2","4.051","108.7","NAN","NAN","NAN","NAN","NAN"],
    [1552028,"2026-05-02 16:20:00","53018","2.638","87.7","4.443","67.61","NAN","NAN","NAN","NAN","NAN"],
    [1552029,"2026-05-02 16:30:00","53019","2.8","92.8","4.573","96.6","NAN","NAN","NAN","NAN","NAN"],
    [1552030,"2026-05-02 16:40:00","53020","2.59","89.9","4.312","97.3","NAN","NAN","NAN","NAN","NAN"],
    [1552031,"2026-05-02 16:50:00","53021","2.242","85.7","3.626","75.22","NAN","NAN","NAN","NAN","NAN"],
    [1552032,"2026-05-02 17:00:00","53022","2.9610000000000003","95.5","4.639","83.8","NAN","NAN","NAN","NAN","NAN"],
    [1552033,"2026-05-02 17:10:00","53023","2.7710000000000004","94.6","4.345","98.6","NAN","NAN","NAN","NAN","NAN"],
    [1552034,"2026-05-02 17:20:00","53024","2.653","86.4","4.639","86.2","NAN","NAN","NAN","NAN","NAN"],
    [1552035,"2026-05-02 17:30:00","53025","2.63","81.8","4.965","59.53","NAN","NAN","NAN","NAN","NAN"],
    [1552036,"2026-05-02 17:40:00","53026","2.739","70.43","5.063","63.64","NAN","NAN","NAN","NAN","NAN"],
    [1552037,"2026-05-02 17:50:00","53027","2.285","81.0","4.312","62.24","NAN","NAN","NAN","NAN","NAN"],
    [1552038,"2026-05-02 18:00:00","53028","2.502","73.55","4.671","64.31","NAN","NAN","NAN","NAN","NAN"],
    [1552039,"2026-05-02 18:10:00","53029","2.12","58.57","4.116","62.81","NAN","NAN","NAN","NAN","NAN"],
    [1552040,"2026-05-02 18:20:00","53030","2.002","60.85","3.136","63.67","NAN","NAN","NAN","NAN","NAN"],
    [1552041,"2026-05-02 18:30:00","53031","2.661","67.26","4.508","67.61","NAN","NAN","NAN","NAN","NAN"],
    [1552042,"2026-05-02 18:40:00","53032","2.234","72.98","3.887","58.73","NAN","NAN","NAN","NAN","NAN"],
    [1552043,"2026-05-02 18:50:00","53033","1.7480000000000002","70.03","3.267","67.33","NAN","NAN","NAN","NAN","NAN"],
    [1552044,"2026-05-02 19:00:00","53034","2.245","77.32","4.345","69.76","NAN","NAN","NAN","NAN","NAN"],
    [1552045,"2026-05-02 19:10:00","53035","2.445","74.07","4.345","65.93","NAN","NAN","NAN","NAN","NAN"],
    [1552046,"2026-05-02 19:20:00","53036","2.7880000000000003","67.07","4.835","66.41","NAN","NAN","NAN","NAN","NAN"],
    [1552047,"2026-05-02 19:30:00","53037","3.0639999999999996","60.02","5.292","73.37","NAN","NAN","NAN","NAN","NAN"],
    [1552048,"2026-05-02 19:40:00","53038","2.8089999999999997","63.09","4.41","74.74","NAN","NAN","NAN","NAN","NAN"],
    [1552049,"2026-05-02 19:50:00","53039","2.427","63.25","4.116","63.18","NAN","NAN","NAN","NAN","NAN"],
    [1552050,"2026-05-02 20:00:00","53040","2.39","67.65","4.279","64.51","NAN","NAN","NAN","NAN","NAN"],
    [1552051,"2026-05-02 20:10:00","53041","2.51","72.47","4.312","72.33","NAN","NAN","NAN","NAN","NAN"],
    [1552052,"2026-05-02 20:20:00","53042","2.991","65.69","4.965","61.01","NAN","NAN","NAN","NAN","NAN"],
    [1552053,"2026-05-02 20:30:00","53043","2.67","66.98","4.443","71.85","NAN","NAN","NAN","NAN","NAN"],
    [1552054,"2026-05-02 20:40:00","53044","2.3680000000000003","65.9","4.018","70.32","NAN","NAN","NAN","NAN","NAN"],
    [1552055,"2026-05-02 20:50:00","53045","2.302","66.13","3.822","64.38","NAN","NAN","NAN","NAN","NAN"],
    [1552056,"2026-05-02 21:00:00","53046","2.7960000000000003","67.58","5.227","69.78","NAN","NAN","NAN","NAN","NAN"],
    [1552057,"2026-05-02 21:10:00","53047","3.12","69.26","5.455","74.49","NAN","NAN","NAN","NAN","NAN"],
    [1552058,"2026-05-02 21:20:00","53048","3.658","69.12","5.259","69","NAN","NAN","NAN","NAN","NAN"],
    [1552059,"2026-05-02 21:30:00","53049","2.533","73.36","4.737","76.84","NAN","NAN","NAN","NAN","NAN"],
    [1552060,"2026-05-02 21:40:00","53050","3.139","71.74","5.161","76.09","NAN","NAN","NAN","NAN","NAN"],
    [1552061,"2026-05-02 21:50:00","53051","2.905","68.84","5.651","63.38","NAN","NAN","NAN","NAN","NAN"],
    [1552062,"2026-05-02 22:00:00","53052","2.292","74.22","4.704","66.07","NAN","NAN","NAN","NAN","NAN"],
    [1552063,"2026-05-02 22:10:00","53053","2.738","74.68","4.9","76.57","NAN","NAN","NAN","NAN","NAN"],
    [1552064,"2026-05-02 22:20:00","53054","2.439","78.28","4.475","66.98","NAN","NAN","NAN","NAN","NAN"],
    [1552065,"2026-05-02 22:30:00","53055","1.99","82.7","4.149","71.16","NAN","NAN","NAN","NAN","NAN"],
    [1552066,"2026-05-02 22:40:00","53056","1.8030000000000002","82.2","3.593","87.6","NAN","NAN","NAN","NAN","NAN"],
    [1552067,"2026-05-02 22:50:00","53057","1.9580000000000002","100.0","3.43","100.4","NAN","NAN","NAN","NAN","NAN"],
    [1552068,"2026-05-02 23:00:00","53058","1.895","113.4","3.626","128","NAN","NAN","NAN","NAN","NAN"],
    [1552069,"2026-05-02 23:10:00","53059","1.864","127.1","3.038","120.5","NAN","NAN","NAN","NAN","NAN"],
    [1552070,"2026-05-02 23:20:00","53060","1.89","122.4","3.365","123.8","NAN","NAN","NAN","NAN","NAN"],
    [1552071,"2026-05-02 23:30:00","53061","2.207","117.2","3.691","99.8","NAN","NAN","NAN","NAN","NAN"],
    [1552072,"2026-05-02 23:40:00","53062","1.662","114.8","3.136","112.5","NAN","NAN","NAN","NAN","NAN"],
    [1552073,"2026-05-02 23:50:00","53063","1.854","117.2","3.071","118.6","NAN","NAN","NAN","NAN","NAN"],
    [1552074,"2026-05-03 00:00:00","53064","1.49","112.9","2.842","110.5","NAN","NAN","NAN","NAN","NAN"],
    [1552075,"2026-05-03 00:10:00","53065","1.4509999999999998","110.5","2.613","105.1","NAN","NAN","NAN","NAN","NAN"],
    [1552076,"2026-05-03 00:20:00","53066","1.6219999999999999","105.7","2.711","103.3","NAN","NAN","NAN","NAN","NAN"],
    [1552077,"2026-05-03 00:30:00","53067","1.6030000000000002","101.6","2.45","102.3","NAN","NAN","NAN","NAN","NAN"],
    [1552078,"2026-05-03 00:40:00","53068","1.258","106.8","2.352","106.8","NAN","NAN","NAN","NAN","NAN"],
    [1552079,"2026-05-03 00:50:00","53069","1.364","98.6","2.254","97.3","NAN","NAN","NAN","NAN","NAN"],
    [1552080,"2026-05-03 01:00:00","53070","1.3969999999999998","115.1","2.613","117.7","NAN","NAN","NAN","NAN","NAN"],
    [1552081,"2026-05-03 01:10:00","53071","1.085","110.1","1.927","107.4","NAN","NAN","NAN","NAN","NAN"],
    [1552082,"2026-05-03 01:20:00","53072","1.354","108.9","2.613","113.8","NAN","NAN","NAN","NAN","NAN"],
    [1552083,"2026-05-03 01:30:00","53073","1.68","112.8","2.94","114.4","NAN","NAN","NAN","NAN","NAN"],
    [1552084,"2026-05-03 01:40:00","53074","2.222","116.4","3.92","113","NAN","NAN","NAN","NAN","NAN"],
    [1552085,"2026-05-03 01:50:00","53075","2.164","130.8","3.528","126.7","NAN","NAN","NAN","NAN","NAN"],
    [1552086,"2026-05-03 02:00:00","53076","1.5630000000000002","125.8","2.744","118.6","NAN","NAN","NAN","NAN","NAN"],
    [1552087,"2026-05-03 02:10:00","53077","1.601","120.8","2.744","112.1","NAN","NAN","NAN","NAN","NAN"],
    [1552088,"2026-05-03 02:20:00","53078","1.694","129.6","2.94","132.3","NAN","NAN","NAN","NAN","NAN"],
    [1552089,"2026-05-03 02:30:00","53079","1.6030000000000002","125.2","3.103","132.7","NAN","NAN","NAN","NAN","NAN"],
    [1552090,"2026-05-03 02:40:00","53080","1.7","131.8","2.907","117.2","NAN","NAN","NAN","NAN","NAN"],
    [1552091,"2026-05-03 02:50:00","53081","1.903","109.3","3.724","98.1","NAN","NAN","NAN","NAN","NAN"],
    [1552092,"2026-05-03 03:00:00","53082","1.78","102.1","3.038","98.6","NAN","NAN","NAN","NAN","NAN"],
    [1552093,"2026-05-03 03:10:00","53083","1.84","97.7","3.463","97.4","NAN","NAN","NAN","NAN","NAN"],
    [1552094,"2026-05-03 03:20:00","53084","1.798","94.7","2.711","100.7","NAN","NAN","NAN","NAN","NAN"],
    [1552095,"2026-05-03 03:30:00","53085","1.574","102.0","2.94","114.6","NAN","NAN","NAN","NAN","NAN"],
    [1552096,"2026-05-03 03:40:00","53086","1.959","101.2","3.463","95.6","NAN","NAN","NAN","NAN","NAN"],
    [1552097,"2026-05-03 03:50:00","53087","2.056","99.3","3.038","95.6","NAN","NAN","NAN","NAN","NAN"],
    [1552098,"2026-05-03 04:00:00","53088","1.964","97.4","3.136","98.5","NAN","NAN","NAN","NAN","NAN"],
    [1552099,"2026-05-03 04:10:00","53089","1.7109999999999999","98.7","3.071","105.5","NAN","NAN","NAN","NAN","NAN"],
    [1552100,"2026-05-03 04:20:00","53090","1.9709999999999999","91.0","3.201","94.5","NAN","NAN","NAN","NAN","NAN"],
    [1552101,"2026-05-03 04:30:00","53091","1.9480000000000002","94.1","3.071","95.4","NAN","NAN","NAN","NAN","NAN"],
    [1552102,"2026-05-03 04:40:00","53092","1.68","89.7","3.234","85.1","NAN","NAN","NAN","NAN","NAN"],
    [1552103,"2026-05-03 04:50:00","53093","2.144","88.9","3.593","87.4","NAN","NAN","NAN","NAN","NAN"],
    [1552104,"2026-05-03 05:00:00","53094","1.899","91.9","3.659","86.9","NAN","NAN","NAN","NAN","NAN"],
    [1552105,"2026-05-03 05:10:00","53095","2.0909999999999997","91.9","3.985","87.7","NAN","NAN","NAN","NAN","NAN"],
    [1552106,"2026-05-03 05:20:00","53096","1.626","92.7","3.299","97.8","NAN","NAN","NAN","NAN","NAN"],
    [1552107,"2026-05-03 05:30:00","53097","1.804","97.6","3.169","102.1","NAN","NAN","NAN","NAN","NAN"],
    [1552108,"2026-05-03 05:40:00","53098","1.932","96.0","3.528","84.3","NAN","NAN","NAN","NAN","NAN"],
    [1552109,"2026-05-03 05:50:00","53099","2.572","90.4","4.116","81.6","NAN","NAN","NAN","NAN","NAN"],
    [1552110,"2026-05-03 06:00:00","53100","2.4330000000000003","88.6","3.953","86.2","NAN","NAN","NAN","NAN","NAN"],
    [1552111,"2026-05-03 06:10:00","53101","2.406","91.9","3.855","93.7","NAN","NAN","NAN","NAN","NAN"],
    [1552112,"2026-05-03 06:20:00","53102","2.271","86.0","3.953","73.51","NAN","NAN","NAN","NAN","NAN"],
    [1552113,"2026-05-03 06:30:00","53103","2.16","83.3","4.606","83.9","NAN","NAN","NAN","NAN","NAN"],
    [1552114,"2026-05-03 06:40:00","53104","2.737","81.4","4.9","87","NAN","NAN","NAN","NAN","NAN"],
    [1552115,"2026-05-03 06:50:00","53105","2.4659999999999997","94.3","5.194","102.8","NAN","NAN","NAN","NAN","NAN"],
    [1552116,"2026-05-03 07:00:00","53106","2.752","81.4","5.357","70.45","NAN","NAN","NAN","NAN","NAN"],
    [1552117,"2026-05-03 07:10:00","53107","3.386","79.02","4.867","87","NAN","NAN","NAN","NAN","NAN"],
    [1552118,"2026-05-03 07:20:00","53108","2.4619999999999997","83.8","4.247","74.21","NAN","NAN","NAN","NAN","NAN"],
    [1552119,"2026-05-03 07:30:00","53109","2.888","83.4","4.933","76.2","NAN","NAN","NAN","NAN","NAN"],
    [1552120,"2026-05-03 07:40:00","53110","3.19","89.9","5.031","88.1","NAN","NAN","NAN","NAN","NAN"],
    [1552121,"2026-05-03 07:50:00","53111","2.995","88.5","5.749","86.4","NAN","NAN","NAN","NAN","NAN"],
    [1552122,"2026-05-03 08:00:00","53112","2.864","101.6","4.769","99.4","NAN","NAN","NAN","NAN","NAN"],
    [1552123,"2026-05-03 08:10:00","53113","2.385","100.4","4.475","97.4","NAN","NAN","NAN","NAN","NAN"],
    [1552124,"2026-05-03 08:20:00","53114","2.1","102.9","3.822","104.3","NAN","NAN","NAN","NAN","NAN"],
    [1552125,"2026-05-03 08:30:00","53115","2.282","98.9","3.626","109.5","NAN","NAN","NAN","NAN","NAN"],
    [1552126,"2026-05-03 08:40:00","53116","2.358","95.5","4.116","90.6","NAN","NAN","NAN","NAN","NAN"],
    [1552127,"2026-05-03 08:50:00","53117","2.6060000000000003","104.8","4.247","95.3","NAN","NAN","NAN","NAN","NAN"],
    [1552128,"2026-05-03 09:00:00","53118","2.3040000000000003","96.9","4.639","93","NAN","NAN","NAN","NAN","NAN"],
    [1552129,"2026-05-03 09:10:00","53119","2.639","92.5","4.279","108.2","NAN","NAN","NAN","NAN","NAN"],
    [1552130,"2026-05-03 09:20:00","53120","2.267","104.0","4.247","99.4","NAN","NAN","NAN","NAN","NAN"],
    [1552131,"2026-05-03 09:30:00","53121","2.331","109.1","4.247","140.3","NAN","NAN","NAN","NAN","NAN"],
    [1552132,"2026-05-03 09:40:00","53122","2.872","112.0","4.737","100.6","NAN","NAN","NAN","NAN","NAN"],
    [1552133,"2026-05-03 09:50:00","53123","3.2769999999999997","99.8","4.769","100.6","NAN","NAN","NAN","NAN","NAN"],
    [1552134,"2026-05-03 10:00:00","53124","2.637","101.4","4.018","73.13","NAN","NAN","NAN","NAN","NAN"],
    [1552135,"2026-05-03 10:10:00","53125","2.403","101.3","3.822","84.7","NAN","NAN","NAN","NAN","NAN"],
    [1552136,"2026-05-03 10:20:00","53126","2.532","93.1","4.737","77.91","NAN","NAN","NAN","NAN","NAN"],
    [1552137,"2026-05-03 10:30:00","53127","2.798","94.4","4.802","108.8","NAN","NAN","NAN","NAN","NAN"],
    [1552138,"2026-05-03 10:40:00","53128","2.4419999999999997","93.6","4.312","74.66","NAN","NAN","NAN","NAN","NAN"],
    [1552139,"2026-05-03 10:50:00","53129","3.11","87.1","4.965","78.87","NAN","NAN","NAN","NAN","NAN"],
    [1552140,"2026-05-03 11:00:00","53130","3.358","102.0","4.867","95.6","NAN","NAN","NAN","NAN","NAN"],
    [1552141,"2026-05-03 11:10:00","53131","3.365","90.6","5.423","83.7","NAN","NAN","NAN","NAN","NAN"],
    [1552142,"2026-05-03 11:20:00","53132","2.563","100.9","4.508","101.3","NAN","NAN","NAN","NAN","NAN"],
    [1552143,"2026-05-03 11:30:00","53133","2.717","98.3","5.259","74.13","NAN","NAN","NAN","NAN","NAN"],
    [1552144,"2026-05-03 11:40:00","53134","3.228","87.2","5.161","85.7","NAN","NAN","NAN","NAN","NAN"],
    [1552145,"2026-05-03 11:50:00","53135","3.779","93.9","5.586","85","NAN","NAN","NAN","NAN","NAN"],
    [1552146,"2026-05-03 12:00:00","53136","3.094","94.0","5.129","96.9","NAN","NAN","NAN","NAN","NAN"],
    [1552147,"2026-05-03 12:10:00","53137","3.725","98.6","6.011","103.9","NAN","NAN","NAN","NAN","NAN"],
    [1552148,"2026-05-03 12:20:00","53138","3.093","97.8","5.161","115","NAN","NAN","NAN","NAN","NAN"],
    [1552149,"2026-05-03 12:30:00","53139","2.539","102.1","4.541","98.1","NAN","NAN","NAN","NAN","NAN"],
    [1552150,"2026-05-03 12:40:00","53140","2.225","98.8","3.985","82.4","NAN","NAN","NAN","NAN","NAN"],
    [1552151,"2026-05-03 12:50:00","53141","2.668","90.7","4.475","90.4","NAN","NAN","NAN","NAN","NAN"],
    [1552152,"2026-05-03 13:00:00","53142","2.617","100.3","4.606","124.9","NAN","NAN","NAN","NAN","NAN"],
    [1552153,"2026-05-03 13:10:00","53143","2.844","106.3","4.083","114.1","NAN","NAN","NAN","NAN","NAN"],
    [1552154,"2026-05-03 13:20:00","53144","2.915","93.9","5.227","79.11","NAN","NAN","NAN","NAN","NAN"],
    [1552155,"2026-05-03 13:30:00","53145","2.783","92.6","4.737","91.1","NAN","NAN","NAN","NAN","NAN"],
    [1552156,"2026-05-03 13:40:00","53146","2.476","85.0","4.573","64.46","NAN","NAN","NAN","NAN","NAN"],
    [1552157,"2026-05-03 13:50:00","53147","2.6","87.7","4.835","65.6","NAN","NAN","NAN","NAN","NAN"],
    [1552158,"2026-05-03 14:00:00","53148","3.238","85.7","5.129","95.5","NAN","NAN","NAN","NAN","NAN"],
    [1552159,"2026-05-03 14:10:00","53149","3.42","79.16","6.403","61.51","NAN","NAN","NAN","NAN","NAN"],
    [1552160,"2026-05-03 14:20:00","53150","3.235","98.0","6.011","93.9","NAN","NAN","NAN","NAN","NAN"],
    [1552161,"2026-05-03 14:30:00","53151","2.948","106.7","4.475","98.6","NAN","NAN","NAN","NAN","NAN"],
    [1552162,"2026-05-03 14:40:00","53152","3.237","105.5","4.802","109.6","NAN","NAN","NAN","NAN","NAN"],
    [1552163,"2026-05-03 14:50:00","53153","3.6510000000000002","116.0","5.847","106.1","NAN","NAN","NAN","NAN","NAN"],
    [1552164,"2026-05-03 15:00:00","53154","3.98","111.0","6.468","116.7","NAN","NAN","NAN","NAN","NAN"],
    [1552165,"2026-05-03 15:10:00","53155","3.438","113.6","5.357","110.2","NAN","NAN","NAN","NAN","NAN"],
    [1552166,"2026-05-03 15:20:00","53156","3.412","113.9","5.357","126.4","NAN","NAN","NAN","NAN","NAN"],
    [1552167,"2026-05-03 15:30:00","53157","3.287","112.2","5.325","105.6","NAN","NAN","NAN","NAN","NAN"],
    [1552168,"2026-05-03 15:40:00","53158","2.752","107.9","4.802","123.7","NAN","NAN","NAN","NAN","NAN"],
    [1552169,"2026-05-03 15:50:00","53159","2.53","111.9","4.149","117.6","NAN","NAN","NAN","NAN","NAN"],
    [1552170,"2026-05-03 16:00:00","53160","2.407","105.0","4.181","117.1","NAN","NAN","NAN","NAN","NAN"],
    [1552171,"2026-05-03 16:10:00","53161","2.508","94.6","4.965","88.8","NAN","NAN","NAN","NAN","NAN"],
    [1552172,"2026-05-03 16:20:00","53162","3.0180000000000002","92.2","5.096","89","NAN","NAN","NAN","NAN","NAN"],
    [1552173,"2026-05-03 16:30:00","53163","2.515","93.1","4.443","91.4","NAN","NAN","NAN","NAN","NAN"],
    [1552174,"2026-05-03 16:40:00","53164","2.687","91.9","5.096","99.4","NAN","NAN","NAN","NAN","NAN"],
    [1552175,"2026-05-03 16:50:00","53165","3.2089999999999996","91.5","6.109","78.81","NAN","NAN","NAN","NAN","NAN"],
    [1552176,"2026-05-03 17:00:00","53166","3.342","91.3","6.109","89.7","NAN","NAN","NAN","NAN","NAN"],
    [1552177,"2026-05-03 17:10:00","53167","3.267","82.3","4.998","94.1","NAN","NAN","NAN","NAN","NAN"],
    [1552178,"2026-05-03 17:20:00","53168","2.9160000000000004","68.07","5.455","59.52","NAN","NAN","NAN","NAN","NAN"],
    [1552179,"2026-05-03 17:30:00","53169","2.695","65.27","5.488","68.39","NAN","NAN","NAN","NAN","NAN"],
    [1552180,"2026-05-03 17:40:00","53170","2.333","63.05","4.541","55.78","NAN","NAN","NAN","NAN","NAN"],
    [1552181,"2026-05-03 17:50:00","53171","2.2","55.26","3.724","72.2","NAN","NAN","NAN","NAN","NAN"],
    [1552182,"2026-05-03 18:00:00","53172","1.9480000000000002","64.0","3.495","66.78","NAN","NAN","NAN","NAN","NAN"],
    [1552183,"2026-05-03 18:10:00","53173","1.99","62.34","3.365","62.77","NAN","NAN","NAN","NAN","NAN"],
    [1552184,"2026-05-03 18:20:00","53174","1.6340000000000001","68.48","3.267","66.05","NAN","NAN","NAN","NAN","NAN"],
    [1552185,"2026-05-03 18:30:00","53175","1.609","54.0","3.005","57.19","NAN","NAN","NAN","NAN","NAN"],
    [1552186,"2026-05-03 18:40:00","53176","2.2119999999999997","62.51","3.953","63.75","NAN","NAN","NAN","NAN","NAN"],
    [1552187,"2026-05-03 18:50:00","53177","2.627","65.29","4.149","59.95","NAN","NAN","NAN","NAN","NAN"],
    [1552188,"2026-05-03 19:00:00","53178","2.662","67.21","4.083","66.29","NAN","NAN","NAN","NAN","NAN"],
    [1552189,"2026-05-03 19:10:00","53179","2.282","65.23","3.789","68.87","NAN","NAN","NAN","NAN","NAN"],
    [1552190,"2026-05-03 19:20:00","53180","1.952","54.56","3.528","53.26","NAN","NAN","NAN","NAN","NAN"],
    [1552191,"2026-05-03 19:30:00","53181","1.952","49.22","3.626","56.65","NAN","NAN","NAN","NAN","NAN"],
    [1552192,"2026-05-03 19:40:00","53182","1.4080000000000001","54.53","2.842","60","NAN","NAN","NAN","NAN","NAN"],
    [1552193,"2026-05-03 19:50:00","53183","1.5830000000000002","52.26","3.332","40.92","NAN","NAN","NAN","NAN","NAN"],
    [1552194,"2026-05-03 20:00:00","53184","1.995","51.26","4.835","53.79","NAN","NAN","NAN","NAN","NAN"],
    [1552195,"2026-05-03 20:10:00","53185","2.037","66.29","3.463","66.7","NAN","NAN","NAN","NAN","NAN"],
    [1552196,"2026-05-03 20:20:00","53186","1.604","56.8","3.103","49.57","NAN","NAN","NAN","NAN","NAN"],
    [1552197,"2026-05-03 20:30:00","53187","1.305","43.54","2.515","41.71","NAN","NAN","NAN","NAN","NAN"],
    [1552198,"2026-05-03 20:40:00","53188","0.9570000000000001","41.77","2.319","43.17","NAN","NAN","NAN","NAN","NAN"],
    [1552199,"2026-05-03 20:50:00","53189","1.351","50.98","2.613","57.29","NAN","NAN","NAN","NAN","NAN"],
    [1552200,"2026-05-03 21:00:00","53190","1.054","42.7","2.385","40.43","NAN","NAN","NAN","NAN","NAN"],
    [1552201,"2026-05-03 21:10:00","53191","1.69","40.85","2.94","40.73","NAN","NAN","NAN","NAN","NAN"],
    [1552202,"2026-05-03 21:20:00","53192","1.385","49.09","2.744","39.87","NAN","NAN","NAN","NAN","NAN"],
    [1552203,"2026-05-03 21:30:00","53193","1.656","44.13","3.038","45.83","NAN","NAN","NAN","NAN","NAN"],
    [1552204,"2026-05-03 21:40:00","53194","1.9480000000000002","41.71","3.626","50.83","NAN","NAN","NAN","NAN","NAN"],
    [1552205,"2026-05-03 21:50:00","53195","2.033","42.08","3.724","39.26","NAN","NAN","NAN","NAN","NAN"],
    [1552206,"2026-05-03 22:00:00","53196","1.317","48.73","2.548","52.21","NAN","NAN","NAN","NAN","NAN"],
    [1552207,"2026-05-03 22:10:00","53197","1.672","42.15","3.038","34.41","NAN","NAN","NAN","NAN","NAN"],
    [1552208,"2026-05-03 22:20:00","53198","0.782","33.95","2.417","34.41","NAN","NAN","NAN","NAN","NAN"],
    [1552209,"2026-05-03 22:30:00","53199","1.295","31.96","2.417","32.58","NAN","NAN","NAN","NAN","NAN"],
    [1552210,"2026-05-03 22:40:00","53200","1.546","25.69","2.515","20.9","NAN","NAN","NAN","NAN","NAN"],
    [1552211,"2026-05-03 22:50:00","53201","1.557","20.96","2.287","20.58","NAN","NAN","NAN","NAN","NAN"],
    [1552212,"2026-05-03 23:00:00","53202","1.44","25.38","2.123","24.66","NAN","NAN","NAN","NAN","NAN"],
    [1552213,"2026-05-03 23:10:00","53203","1.34","23.71","2.548","20.66","NAN","NAN","NAN","NAN","NAN"],
    [1552214,"2026-05-03 23:20:00","53204","1.228","27.19","2.156","27.96","NAN","NAN","NAN","NAN","NAN"],
    [1552215,"2026-05-03 23:30:00","53205","1.34","29.43","2.417","27.31","NAN","NAN","NAN","NAN","NAN"],
    [1552216,"2026-05-03 23:40:00","53206","2.0140000000000002","34.73","2.94","35.52","NAN","NAN","NAN","NAN","NAN"],
    [1552217,"2026-05-03 23:50:00","53207","1.444","36.96","2.777","32.13","NAN","NAN","NAN","NAN","NAN"],
    [1552218,"2026-05-04 00:00:00","53208","0.74","37.97","1.503","39.87","NAN","NAN","NAN","NAN","NAN"],
    [1552219,"2026-05-04 00:10:00","53209","0.634","28.35","1.601","35.28","NAN","NAN","NAN","NAN","NAN"],
    [1552220,"2026-05-04 00:20:00","53210","1.2919999999999998","20.19","2.646","19.59","NAN","NAN","NAN","NAN","NAN"],
    [1552221,"2026-05-04 00:30:00","53211","1.085","21.32","1.764","24.5","NAN","NAN","NAN","NAN","NAN"],
    [1552222,"2026-05-04 00:40:00","53212","1.02","18.48","2.254","18.63","NAN","NAN","NAN","NAN","NAN"],
    [1552223,"2026-05-04 00:50:00","53213","1.2409999999999999","17.53","2.287","17.57","NAN","NAN","NAN","NAN","NAN"],
    [1552224,"2026-05-04 01:00:00","53214","1.193","17.36","1.927","17.18","NAN","NAN","NAN","NAN","NAN"],
    [1552225,"2026-05-04 01:10:00","53215","1.124","14.73","2.189","12.56","NAN","NAN","NAN","NAN","NAN"],
    [1552226,"2026-05-04 01:20:00","53216","1.06","12.15","1.993","11.99","NAN","NAN","NAN","NAN","NAN"],
    [1552227,"2026-05-04 01:30:00","53217","1.2890000000000001","12.14","2.123","12.08","NAN","NAN","NAN","NAN","NAN"],
    [1552228,"2026-05-04 01:40:00","53218","0.7040000000000001","12.15","1.503","11.98","NAN","NAN","NAN","NAN","NAN"],
    [1552229,"2026-05-04 01:50:00","53219","0.684","13.95","1.176","13.61","NAN","NAN","NAN","NAN","NAN"],
    [1552230,"2026-05-04 02:00:00","53220","0.027000000000000003","14.33","0.653","14.39","NAN","NAN","NAN","NAN","NAN"],
    [1552231,"2026-05-04 02:10:00","53221","0.10400000000000001","11.71","0.523","11.6","NAN","NAN","NAN","NAN","NAN"],
    [1552232,"2026-05-04 02:20:00","53222","0.012","11.4","0.359","11.41","NAN","NAN","NAN","NAN","NAN"],
    [1552233,"2026-05-04 02:30:00","53223","0.006999999999999999","10.83","0.229","10.83","NAN","NAN","NAN","NAN","NAN"],
    [1552234,"2026-05-04 02:40:00","53224","0.015","10.83","0.294","10.83","NAN","NAN","NAN","NAN","NAN"],
    [1552235,"2026-05-04 02:50:00","53225","0.004","10.48","0.229","10.47","NAN","NAN","NAN","NAN","NAN"],
    [1552236,"2026-05-04 03:00:00","53226","0.024","9.95","0.425","9.76","NAN","NAN","NAN","NAN","NAN"],
    [1552237,"2026-05-04 03:10:00","53227","0.165","351.7","1.045","348.3","NAN","NAN","NAN","NAN","NAN"],
    [1552238,"2026-05-04 03:20:00","53228","0.18899999999999997","347.6","0.817","347.9","NAN","NAN","NAN","NAN","NAN"],
    [1552239,"2026-05-04 03:30:00","53229","0.002","347.1","0.196","347.1","NAN","NAN","NAN","NAN","NAN"],
    [1552240,"2026-05-04 03:40:00","53230","0.0","0.0","0","0","NAN","NAN","NAN","NAN","NAN"],
    [1552241,"2026-05-04 03:50:00","53231","0.0","0.0","0","0","NAN","NAN","NAN","NAN","NAN"],
    [1552242,"2026-05-04 04:00:00","53232","0.0","0.0","0","0","NAN","NAN","NAN","NAN","NAN"],
    [1552243,"2026-05-04 04:10:00","53233","0.016","347.1","0.457","347.1","NAN","NAN","NAN","NAN","NAN"],
    [1552244,"2026-05-04 04:20:00","53234","0.045","347.1","0.915","347.1","NAN","NAN","NAN","NAN","NAN"],
    [1552245,"2026-05-04 04:30:00","53235","0.085","347.1","0.882","347.1","NAN","NAN","NAN","NAN","NAN"],
    [1552246,"2026-05-04 04:40:00","53236","0.301","347.0","0.849","347.1","NAN","NAN","NAN","NAN","NAN"],
    [1552247,"2026-05-04 04:50:00","53237","0.18","346.9","1.013","346.9","NAN","NAN","NAN","NAN","NAN"],
    [1552248,"2026-05-04 05:00:00","53238","0.10300000000000001","346.5","0.653","346.8","NAN","NAN","NAN","NAN","NAN"],
    [1552249,"2026-05-04 05:10:00","53239","0.132","343.5","0.817","342.7","NAN","NAN","NAN","NAN","NAN"],
    [1552250,"2026-05-04 05:20:00","53240","0.579","341.3","1.862","341.8","NAN","NAN","NAN","NAN","NAN"],
    [1552251,"2026-05-04 05:30:00","53241","0.374","339.4","1.176","339.6","NAN","NAN","NAN","NAN","NAN"],
    [1552252,"2026-05-04 05:40:00","53242","0.263","339.2","1.209","339.2","NAN","NAN","NAN","NAN","NAN"],
    [1552253,"2026-05-04 05:50:00","53243","0.32799999999999996","339.2","1.143","339.2","NAN","NAN","NAN","NAN","NAN"],
    [1552254,"2026-05-04 06:00:00","53244","0.113","339.2","0.523","339.2","NAN","NAN","NAN","NAN","NAN"],
    [1552255,"2026-05-04 06:10:00","53245","0.040999999999999995","339.2","0.392","339.2","NAN","NAN","NAN","NAN","NAN"],
    [1552256,"2026-05-04 06:20:00","53246","0.145","339.2","0.719","339.1","NAN","NAN","NAN","NAN","NAN"],
    [1552257,"2026-05-04 06:30:00","53247","0.7020000000000001","339.1","1.405","339","NAN","NAN","NAN","NAN","NAN"],
    [1552258,"2026-05-04 06:40:00","53248","0.787","338.8","1.829","338.8","NAN","NAN","NAN","NAN","NAN"],
    [1552259,"2026-05-04 06:50:00","53249","0.851","337.6","2.352","340.4","NAN","NAN","NAN","NAN","NAN"],
    [1552260,"2026-05-04 07:00:00","53250","0.242","333.9","1.633","334.6","NAN","NAN","NAN","NAN","NAN"],
    [1552261,"2026-05-04 07:10:00","53251","0.349","333.0","1.862","336.4","NAN","NAN","NAN","NAN","NAN"],
    [1552262,"2026-05-04 07:20:00","53252","0.295","331.1","1.339","331.8","NAN","NAN","NAN","NAN","NAN"],
    [1552263,"2026-05-04 07:30:00","53253","0.627","328.0","1.666","333.7","NAN","NAN","NAN","NAN","NAN"],
    [1552264,"2026-05-04 07:40:00","53254","0.21","323.6","1.503","333.6","NAN","NAN","NAN","NAN","NAN"],
    [1552265,"2026-05-04 07:50:00","53255","1.099","308.5","2.483","295.9","NAN","NAN","NAN","NAN","NAN"],
    [1552266,"2026-05-04 08:00:00","53256","0.735","294.2","2.091","293","NAN","NAN","NAN","NAN","NAN"],
    [1552267,"2026-05-04 08:10:00","53257","0.8959999999999999","283.6","2.319","286.7","NAN","NAN","NAN","NAN","NAN"],
    [1552268,"2026-05-04 08:20:00","53258","0.29100000000000004","286.3","2.025","273.9","NAN","NAN","NAN","NAN","NAN"],
    [1552269,"2026-05-04 08:30:00","53259","0.462","232.4","1.503","205.8","NAN","NAN","NAN","NAN","NAN"],
    [1552270,"2026-05-04 08:40:00","53260","1.787","170.9","3.561","158.4","NAN","NAN","NAN","NAN","NAN"],
    [1552271,"2026-05-04 08:50:00","53261","1.1520000000000001","185.1","4.867","224.8","NAN","NAN","NAN","NAN","NAN"],
    [1552272,"2026-05-04 09:00:00","53262","1.8969999999999998","173.4","3.267","189.5","NAN","NAN","NAN","NAN","NAN"],
    [1552273,"2026-05-04 09:10:00","53263","2.3819999999999997","153.2","3.593","154.7","NAN","NAN","NAN","NAN","NAN"],
    [1552274,"2026-05-04 09:20:00","53264","2.335","162.3","5.357","152.9","NAN","NAN","NAN","NAN","NAN"],
    [1552275,"2026-05-04 09:30:00","53265","2.293","190.2","6.207","150.8","NAN","NAN","NAN","NAN","NAN"],
    [1552276,"2026-05-04 09:40:00","53266","3.6060000000000003","173.8","5.39","180.6","NAN","NAN","NAN","NAN","NAN"],
    [1552277,"2026-05-04 09:50:00","53267","3.17","181.1","5.423","167.1","NAN","NAN","NAN","NAN","NAN"],
    [1552278,"2026-05-04 10:00:00","53268","3.1710000000000003","185.4","6.239","170.7","NAN","NAN","NAN","NAN","NAN"],
    [1552279,"2026-05-04 10:10:00","53269","3.0069999999999997","191.2","5.39","186.1","NAN","NAN","NAN","NAN","NAN"],
    [1552280,"2026-05-04 10:20:00","53270","2.812","203.6","4.639","220.3","NAN","NAN","NAN","NAN","NAN"],
    [1552281,"2026-05-04 10:30:00","53271","3.272","206.6","5.161","207.3","NAN","NAN","NAN","NAN","NAN"],
    [1552282,"2026-05-04 10:40:00","53272","2.9410000000000003","208.9","5.194","210.5","NAN","NAN","NAN","NAN","NAN"],
    [1552283,"2026-05-04 10:50:00","53273","2.859","196.0","4.867","213.8","NAN","NAN","NAN","NAN","NAN"],
    [1552284,"2026-05-04 11:00:00","53274","2.345","173.3","4.508","175.1","NAN","NAN","NAN","NAN","NAN"],
    [1552285,"2026-05-04 11:10:00","53275","3.1189999999999998","175.5","5.292","190.6","NAN","NAN","NAN","NAN","NAN"],
    [1552286,"2026-05-04 11:20:00","53276","3.017","170.4","4.998","163.5","NAN","NAN","NAN","NAN","NAN"],
    [1552287,"2026-05-04 11:30:00","53277","3.1289999999999996","175.4","5.488","170.5","NAN","NAN","NAN","NAN","NAN"],
    [1552288,"2026-05-04 11:40:00","53278","2.4","186.5","4.671","170.6","NAN","NAN","NAN","NAN","NAN"],
    [1552289,"2026-05-04 11:50:00","53279","3.4160000000000004","203.0","6.239","214.8","NAN","NAN","NAN","NAN","NAN"],
    [1552290,"2026-05-04 12:00:00","53280","3.2439999999999998","204.8","5.651","215.9","NAN","NAN","NAN","NAN","NAN"],
    [1552291,"2026-05-04 12:10:00","53281","2.9189999999999996","218.1","4.737","215.8","NAN","NAN","NAN","NAN","NAN"],
    [1552292,"2026-05-04 12:20:00","53282","2.594","225.3","5.325","223.5","NAN","NAN","NAN","NAN","NAN"],
    [1552293,"2026-05-04 12:30:00","53283","3.2510000000000003","214.6","5.619","203.7","NAN","NAN","NAN","NAN","NAN"],
    [1552294,"2026-05-04 12:40:00","53284","3.0660000000000003","212.0","4.867","215.9","NAN","NAN","NAN","NAN","NAN"],
    [1552295,"2026-05-04 12:50:00","53285","2.926","209.3","4.443","207.5","NAN","NAN","NAN","NAN","NAN"],
    [1552296,"2026-05-04 13:00:00","53286","2.228","217.0","4.41","214.1","NAN","NAN","NAN","NAN","NAN"],
    [1552297,"2026-05-04 13:10:00","53287","3.065","213.2","5.129","206.3","NAN","NAN","NAN","NAN","NAN"],
    [1552298,"2026-05-04 13:20:00","53288","3.1239999999999997","214.2","5.553","213.6","NAN","NAN","NAN","NAN","NAN"],
    [1552299,"2026-05-04 13:30:00","53289","3.062","221.4","5.031","191.2","NAN","NAN","NAN","NAN","NAN"],
    [1552300,"2026-05-04 13:40:00","53290","3.178","219.3","4.835","237","NAN","NAN","NAN","NAN","NAN"],
    [1552301,"2026-05-04 13:50:00","53291","2.2119999999999997","210.4","3.561","218.2","NAN","NAN","NAN","NAN","NAN"],
    [1552302,"2026-05-04 14:00:00","53292","1.232","218.9","2.973","238.3","NAN","NAN","NAN","NAN","NAN"],
    [1552303,"2026-05-04 14:10:00","53293","1.876","216.7","2.94","212.3","NAN","NAN","NAN","NAN","NAN"],
    [1552304,"2026-05-04 14:20:00","53294","1.351","197.0","2.777","181.3","NAN","NAN","NAN","NAN","NAN"],
    [1552305,"2026-05-04 14:30:00","53295","1.919","195.0","3.691","175.1","NAN","NAN","NAN","NAN","NAN"],
    [1552306,"2026-05-04 14:40:00","53296","2.378","211.4","3.92","211.8","NAN","NAN","NAN","NAN","NAN"],
    [1552307,"2026-05-04 14:50:00","53297","1.6269999999999998","223.9","3.463","253.9","NAN","NAN","NAN","NAN","NAN"],
    [1552308,"2026-05-04 15:00:00","53298","2.175","250.7","3.463","250.2","NAN","NAN","NAN","NAN","NAN"],
    [1552309,"2026-05-04 15:10:00","53299","2.082","259.3","3.659","265.5","NAN","NAN","NAN","NAN","NAN"],
    [1552310,"2026-05-04 15:20:00","53300","0.9690000000000001","262.5","2.809","267.9","NAN","NAN","NAN","NAN","NAN"],
    [1552311,"2026-05-04 15:30:00","53301","0.7659999999999999","268.8","2.45","270.5","NAN","NAN","NAN","NAN","NAN"],
    [1552312,"2026-05-04 15:40:00","53302","0.594","251.9","2.221","249.2","NAN","NAN","NAN","NAN","NAN"],
    [1552313,"2026-05-04 15:50:00","53303","0.877","248.0","1.895","247.9","NAN","NAN","NAN","NAN","NAN"],
    [1552314,"2026-05-04 16:00:00","53304","1.239","257.1","2.45","263","NAN","NAN","NAN","NAN","NAN"],
    [1552315,"2026-05-04 16:10:00","53305","0.358","248.2","2.287","256.1","NAN","NAN","NAN","NAN","NAN"],
    [1552316,"2026-05-04 16:20:00","53306","0.084","246.0","0.621","246.1","NAN","NAN","NAN","NAN","NAN"],
    [1552317,"2026-05-04 16:30:00","53307","0.02","245.5","0.425","245.7","NAN","NAN","NAN","NAN","NAN"],
    [1552318,"2026-05-04 16:40:00","53308","0.001","244.9","0.196","244.9","NAN","NAN","NAN","NAN","NAN"],
    [1552319,"2026-05-04 16:50:00","53309","0.341","244.4","1.339","244.3","NAN","NAN","NAN","NAN","NAN"],
    [1552320,"2026-05-04 17:00:00","53310","0.003","244.3","0.294","244.3","NAN","NAN","NAN","NAN","NAN"],
    [1552321,"2026-05-04 17:10:00","53311","0.005","246.0","0.261","246","NAN","NAN","NAN","NAN","NAN"],
    [1552322,"2026-05-04 17:20:00","53312","0.682","241.7","1.829","241.6","NAN","NAN","NAN","NAN","NAN"],
    [1552323,"2026-05-04 17:30:00","53313","0.843","239.1","1.764","238.9","NAN","NAN","NAN","NAN","NAN"],
    [1552324,"2026-05-04 17:40:00","53314","1.053","240.4","1.895","240.9","NAN","NAN","NAN","NAN","NAN"],
    [1552325,"2026-05-04 17:50:00","53315","1.327","243.1","2.515","241.4","NAN","NAN","NAN","NAN","NAN"],
    [1552326,"2026-05-04 18:00:00","53316","1.308","241.3","2.613","247.8","NAN","NAN","NAN","NAN","NAN"],
    [1552327,"2026-05-04 18:10:00","53317","0.6409999999999999","239.2","1.601","245.3","NAN","NAN","NAN","NAN","NAN"],
    [1552328,"2026-05-04 18:20:00","53318","1.3","234.0","2.417","233","NAN","NAN","NAN","NAN","NAN"],
    [1552329,"2026-05-04 18:30:00","53319","1.919","228.0","2.875","220.3","NAN","NAN","NAN","NAN","NAN"],
    [1552330,"2026-05-04 18:40:00","53320","1.3730000000000002","225.2","2.809","224.7","NAN","NAN","NAN","NAN","NAN"],
    [1552331,"2026-05-04 18:50:00","53321","1.58","224.7","2.581","229.5","NAN","NAN","NAN","NAN","NAN"],
    [1552332,"2026-05-04 19:00:00","53322","1.6019999999999999","232.2","3.103","240.1","NAN","NAN","NAN","NAN","NAN"],
    [1552333,"2026-05-04 19:10:00","53323","1.755","242.1","3.136","241.7","NAN","NAN","NAN","NAN","NAN"],
    [1552334,"2026-05-04 19:20:00","53324","2.752","251.3","4.965","251.6","NAN","NAN","NAN","NAN","NAN"],
    [1552335,"2026-05-04 19:30:00","53325","2.927","248.3","4.737","244.2","NAN","NAN","NAN","NAN","NAN"],
    [1552336,"2026-05-04 19:40:00","53326","2.1959999999999997","237.3","3.561","238.5","NAN","NAN","NAN","NAN","NAN"],
    [1552337,"2026-05-04 19:50:00","53327","2.635","254.8","4.377","256.8","NAN","NAN","NAN","NAN","NAN"],
    [1552338,"2026-05-04 20:00:00","53328","2.867","261.2","5.357","252.7","NAN","NAN","NAN","NAN","NAN"],
    [1552339,"2026-05-04 20:10:00","53329","1.5430000000000001","284.4","2.973","285.6","NAN","NAN","NAN","NAN","NAN"],
    [1552340,"2026-05-04 20:20:00","53330","2.369","298.1","6.272","328.2","NAN","NAN","NAN","NAN","NAN"],
    [1552341,"2026-05-04 20:30:00","53331","3.5789999999999997","321.2","7.089","319.9","NAN","NAN","NAN","NAN","NAN"],
    [1552342,"2026-05-04 20:40:00","53332","2.88","321.8","5.488","300.9","NAN","NAN","NAN","NAN","NAN"],
    [1552343,"2026-05-04 20:50:00","53333","2.6710000000000003","324.7","4.9","320.7","NAN","NAN","NAN","NAN","NAN"],
    [1552344,"2026-05-04 21:00:00","53334","2.18","296.2","3.789","276.4","NAN","NAN","NAN","NAN","NAN"],
    [1552345,"2026-05-04 21:10:00","53335","0.905","275.3","3.724","271.3","NAN","NAN","NAN","NAN","NAN"],
    [1552346,"2026-05-04 21:20:00","53336","0.11900000000000001","272.8","0.784","275.8","NAN","NAN","NAN","NAN","NAN"],
    [1552347,"2026-05-04 21:30:00","53337","2.025","270.3","3.495","269.9","NAN","NAN","NAN","NAN","NAN"],
    [1552348,"2026-05-04 21:40:00","53338","1.9140000000000001","267.8","3.299","269.3","NAN","NAN","NAN","NAN","NAN"],
    [1552349,"2026-05-04 21:50:00","53339","1.598","272.7","2.809","269.5","NAN","NAN","NAN","NAN","NAN"],
    [1552350,"2026-05-04 22:00:00","53340","1.902","267.2","2.744","271.2","NAN","NAN","NAN","NAN","NAN"],
    [1552351,"2026-05-04 22:10:00","53341","2.037","267.9","2.973","274.9","NAN","NAN","NAN","NAN","NAN"],
    [1552352,"2026-05-04 22:20:00","53342","2.1069999999999998","272.3","3.234","271.5","NAN","NAN","NAN","NAN","NAN"],
    [1552353,"2026-05-04 22:30:00","53343","1.744","274.4","3.005","277.9","NAN","NAN","NAN","NAN","NAN"],
    [1552354,"2026-05-04 22:40:00","53344","1.7209999999999999","276.4","3.495","281.9","NAN","NAN","NAN","NAN","NAN"],
    [1552355,"2026-05-04 22:50:00","53345","2.296","282.6","3.561","279.2","NAN","NAN","NAN","NAN","NAN"],
    [1552356,"2026-05-04 23:00:00","53346","2.218","286.4","3.267","285.2","NAN","NAN","NAN","NAN","NAN"],
    [1552357,"2026-05-04 23:10:00","53347","2.226","296.2","3.822","300.3","NAN","NAN","NAN","NAN","NAN"],
    [1552358,"2026-05-04 23:20:00","53348","1.995","289.1","2.842","282.8","NAN","NAN","NAN","NAN","NAN"],
    [1552359,"2026-05-04 23:30:00","53349","1.818","286.8","3.136","284.5","NAN","NAN","NAN","NAN","NAN"],
    [1552360,"2026-05-04 23:40:00","53350","1.619","294.5","2.548","300.3","NAN","NAN","NAN","NAN","NAN"],
    [1552361,"2026-05-04 23:50:00","53351","1.5619999999999998","301.9","2.385","303.1","NAN","NAN","NAN","NAN","NAN"],
    [1552362,"2026-05-05 00:00:00","53352","1.003","303.9","2.156","303.7","NAN","NAN","NAN","NAN","NAN"],
    [1552363,"2026-05-05 00:10:00","53353","0.8220000000000001","304.0","1.764","304.1","NAN","NAN","NAN","NAN","NAN"],
    [1552364,"2026-05-05 00:20:00","53354","1.4709999999999999","305.8","2.973","318.7","NAN","NAN","NAN","NAN","NAN"],
    [1552365,"2026-05-05 00:30:00","53355","2.05","325.2","3.887","328","NAN","NAN","NAN","NAN","NAN"],
    [1552366,"2026-05-05 00:40:00","53356","1.34","321.6","2.483","329.1","NAN","NAN","NAN","NAN","NAN"],
    [1552367,"2026-05-05 00:50:00","53357","1.433","318.3","2.679","326.2","NAN","NAN","NAN","NAN","NAN"],
    [1552368,"2026-05-05 01:00:00","53358","1.9969999999999999","304.8","2.907","301","NAN","NAN","NAN","NAN","NAN"],
    [1552369,"2026-05-05 01:10:00","53359","1.9669999999999999","299.7","3.201","300","NAN","NAN","NAN","NAN","NAN"],
    [1552370,"2026-05-05 01:20:00","53360","1.462","298.6","2.319","298.7","NAN","NAN","NAN","NAN","NAN"],
    [1552371,"2026-05-05 01:30:00","53361","2.235","300.3","4.312","297.3","NAN","NAN","NAN","NAN","NAN"],
    [1552372,"2026-05-05 01:40:00","53362","2.9810000000000003","300.8","5.031","300.2","NAN","NAN","NAN","NAN","NAN"],
    [1552373,"2026-05-05 01:50:00","53363","2.7230000000000003","296.7","4.41","305.3","NAN","NAN","NAN","NAN","NAN"],
    [1552374,"2026-05-05 02:00:00","53364","2.8360000000000003","305.8","5.292","295.6","NAN","NAN","NAN","NAN","NAN"],
    [1552375,"2026-05-05 02:10:00","53365","2.8539999999999996","305.7","5.39","314.2","NAN","NAN","NAN","NAN","NAN"],
    [1552376,"2026-05-05 02:20:00","53366","2.838","303.3","4.41","301.7","NAN","NAN","NAN","NAN","NAN"],
    [1552377,"2026-05-05 02:30:00","53367","3.341","303.1","5.423","304.3","NAN","NAN","NAN","NAN","NAN"],
    [1552378,"2026-05-05 02:40:00","53368","2.8989999999999996","304.8","4.9","304.3","NAN","NAN","NAN","NAN","NAN"],
    [1552379,"2026-05-05 02:50:00","53369","3.198","302.5","4.9","314.4","NAN","NAN","NAN","NAN","NAN"],
    [1552380,"2026-05-05 03:00:00","53370","2.4819999999999998","301.3","4.279","307.8","NAN","NAN","NAN","NAN","NAN"],
    [1552381,"2026-05-05 03:10:00","53371","2.201","292.2","4.671","324","NAN","NAN","NAN","NAN","NAN"],
    [1552382,"2026-05-05 03:20:00","53372","2.445","294.6","3.822","311.1","NAN","NAN","NAN","NAN","NAN"],
    [1552383,"2026-05-05 03:30:00","53373","2.081","292.0","3.528","277.9","NAN","NAN","NAN","NAN","NAN"],
    [1552384,"2026-05-05 03:40:00","53374","1.959","293.1","3.985","301.2","NAN","NAN","NAN","NAN","NAN"],
    [1552385,"2026-05-05 03:50:00","53375","2.773","308.5","4.965","315.2","NAN","NAN","NAN","NAN","NAN"],
    [1552386,"2026-05-05 04:00:00","53376","3.386","311.6","5.847","305.8","NAN","NAN","NAN","NAN","NAN"],
    [1552387,"2026-05-05 04:10:00","53377","3.2089999999999996","304.9","5.259","311.6","NAN","NAN","NAN","NAN","NAN"],
    [1552388,"2026-05-05 04:20:00","53378","2.968","292.8","4.835","308","NAN","NAN","NAN","NAN","NAN"],
    [1552389,"2026-05-05 04:30:00","53379","2.55","286.7","4.247","291.1","NAN","NAN","NAN","NAN","NAN"],
    [1552390,"2026-05-05 04:40:00","53380","1.8880000000000001","281.2","3.953","285.5","NAN","NAN","NAN","NAN","NAN"],
    [1552391,"2026-05-05 04:50:00","53381","1.895","283.3","3.593","290.1","NAN","NAN","NAN","NAN","NAN"],
    [1552392,"2026-05-05 05:00:00","53382","1.232","294.3","2.581","290.7","NAN","NAN","NAN","NAN","NAN"],
    [1552393,"2026-05-05 05:10:00","53383","1.179","302.2","2.679","303.4","NAN","NAN","NAN","NAN","NAN"],
    [1552394,"2026-05-05 05:20:00","53384","0.935","306.6","1.895","307.5","NAN","NAN","NAN","NAN","NAN"],
    [1552395,"2026-05-05 05:30:00","53385","1.72","294.8","3.593","288.4","NAN","NAN","NAN","NAN","NAN"],
    [1552396,"2026-05-05 05:40:00","53386","2.576","292.4","4.508","302.7","NAN","NAN","NAN","NAN","NAN"],
    [1552397,"2026-05-05 05:50:00","53387","3.242","303.8","6.468","296.9","NAN","NAN","NAN","NAN","NAN"],
    [1552398,"2026-05-05 06:00:00","53388","3.4210000000000003","306.8","5.749","303.4","NAN","NAN","NAN","NAN","NAN"],
    [1552399,"2026-05-05 06:10:00","53389","3.458","306.8","5.684","328.4","NAN","NAN","NAN","NAN","NAN"],
    [1552400,"2026-05-05 06:20:00","53390","3.7569999999999997","303.2","6.011","303.7","NAN","NAN","NAN","NAN","NAN"],
    [1552401,"2026-05-05 06:30:00","53391","3.739","299.0","5.815","308.6","NAN","NAN","NAN","NAN","NAN"],
    [1552402,"2026-05-05 06:40:00","53392","3.5639999999999996","293.9","5.749","292.6","NAN","NAN","NAN","NAN","NAN"],
    [1552403,"2026-05-05 06:50:00","53393","3.431","297.0","5.586","306.5","NAN","NAN","NAN","NAN","NAN"],
    [1552404,"2026-05-05 07:00:00","53394","3.4389999999999996","301.3","6.141","308.3","NAN","NAN","NAN","NAN","NAN"],
    [1552405,"2026-05-05 07:10:00","53395","3.091","299.7","5.194","295","NAN","NAN","NAN","NAN","NAN"],
    [1552406,"2026-05-05 07:20:00","53396","3.043","295.6","4.639","294.4","NAN","NAN","NAN","NAN","NAN"],
    [1552407,"2026-05-05 07:30:00","53397","2.529","293.7","4.018","282.4","NAN","NAN","NAN","NAN","NAN"],
    [1552408,"2026-05-05 07:40:00","53398","2.217","299.6","3.234","292.4","NAN","NAN","NAN","NAN","NAN"],
    [1552409,"2026-05-05 07:50:00","53399","0.608","304.8","2.189","299.4","NAN","NAN","NAN","NAN","NAN"],
    [1552410,"2026-05-05 08:00:00","53400","1.161","292.9","2.319","286.7","NAN","NAN","NAN","NAN","NAN"],
    [1552411,"2026-05-05 08:10:00","53401","0.711","11.09","2.254","284.4","NAN","NAN","NAN","NAN","NAN"],
    [1552412,"2026-05-05 08:20:00","53402","2.323","297.2","5.847","283.5","NAN","NAN","NAN","NAN","NAN"],
    [1552413,"2026-05-05 08:30:00","53403","3.563","304.4","5.913","305.7","NAN","NAN","NAN","NAN","NAN"],
    [1552414,"2026-05-05 08:40:00","53404","3.46","324.3","5.292","333","NAN","NAN","NAN","NAN","NAN"],
    [1552415,"2026-05-05 08:50:00","53405","2.7489999999999997","6.7379999999999995","4.704","0.193","NAN","NAN","NAN","NAN","NAN"],
    [1552416,"2026-05-05 09:00:00","53406","1.7630000000000001","2.5860000000000003","4.083","3.674","NAN","NAN","NAN","NAN","NAN"],
    [1552417,"2026-05-05 09:10:00","53407","1.198","21.69","3.071","342.9","NAN","NAN","NAN","NAN","NAN"],
    [1552418,"2026-05-05 09:20:00","53408","1.12","34.86","2.646","32.49","NAN","NAN","NAN","NAN","NAN"],
    [1552419,"2026-05-05 09:30:00","53409","0.84","94.2","2.352","136","NAN","NAN","NAN","NAN","NAN"],
    [1552420,"2026-05-05 09:40:00","53410","1.9069999999999998","159.3","4.279","152.1","NAN","NAN","NAN","NAN","NAN"],
    [1552421,"2026-05-05 09:50:00","53411","0.7809999999999999","215.5","3.005","198.4","NAN","NAN","NAN","NAN","NAN"],
    [1552422,"2026-05-05 10:00:00","53412","0.511","276.1","2.515","264.2","NAN","NAN","NAN","NAN","NAN"],
    [1552423,"2026-05-05 10:10:00","53413","0.349","271.5","1.437","281.5","NAN","NAN","NAN","NAN","NAN"],
    [1552424,"2026-05-05 10:20:00","53414","0.903","265.4","2.058","284.6","NAN","NAN","NAN","NAN","NAN"],
    [1552425,"2026-05-05 10:30:00","53415","1.225","121.2","2.189","111.6","NAN","NAN","NAN","NAN","NAN"],
    [1552426,"2026-05-05 10:40:00","53416","2.468","107.8","3.887","99.3","NAN","NAN","NAN","NAN","NAN"],
    [1552427,"2026-05-05 10:50:00","53417","2.4330000000000003","112.2","3.593","114","NAN","NAN","NAN","NAN","NAN"],
    [1552428,"2026-05-05 11:00:00","53418","1.923","104.8","2.842","102.8","NAN","NAN","NAN","NAN","NAN"],
    [1552429,"2026-05-05 11:10:00","53419","1.776","101.7","2.777","96.4","NAN","NAN","NAN","NAN","NAN"],
    [1552430,"2026-05-05 11:20:00","53420","2.262","104.6","3.43","107.4","NAN","NAN","NAN","NAN","NAN"],
    [1552431,"2026-05-05 11:30:00","53421","1.785","96.6","2.842","97","NAN","NAN","NAN","NAN","NAN"],
    [1552432,"2026-05-05 11:40:00","53422","2.386","102.9","3.724","111.9","NAN","NAN","NAN","NAN","NAN"],
    [1552433,"2026-05-05 11:50:00","53423","3.1","122.8","4.835","111.4","NAN","NAN","NAN","NAN","NAN"],
    [1552434,"2026-05-05 12:00:00","53424","3.181","118.2","4.671","129.2","NAN","NAN","NAN","NAN","NAN"],
    [1552435,"2026-05-05 12:10:00","53425","3.094","131.2","5.161","159.3","NAN","NAN","NAN","NAN","NAN"],
    [1552436,"2026-05-05 12:20:00","53426","2.782","108.1","4.671","109","NAN","NAN","NAN","NAN","NAN"],
    [1552437,"2026-05-05 12:30:00","53427","2.347","115.9","4.083","110.8","NAN","NAN","NAN","NAN","NAN"],
    [1552438,"2026-05-05 12:40:00","53428","2.208","134.5","4.41","151","NAN","NAN","NAN","NAN","NAN"],
    [1552439,"2026-05-05 12:50:00","53429","2.642","122.9","3.953","109.7","NAN","NAN","NAN","NAN","NAN"],
    [1552440,"2026-05-05 13:00:00","53430","3.2969999999999997","132.2","5.782","134.9","NAN","NAN","NAN","NAN","NAN"],
    [1552441,"2026-05-05 13:10:00","53431","3.855","137.0","6.337","135.3","NAN","NAN","NAN","NAN","NAN"],
    [1552442,"2026-05-05 13:20:00","53432","3.5860000000000003","146.0","5.455","163.1","NAN","NAN","NAN","NAN","NAN"],
    [1552443,"2026-05-05 13:30:00","53433","3.529","130.7","5.88","135","NAN","NAN","NAN","NAN","NAN"],
    [1552444,"2026-05-05 13:40:00","53434","3.5010000000000003","128.6","5.423","141","NAN","NAN","NAN","NAN","NAN"],
    [1552445,"2026-05-05 13:50:00","53435","3.028","135.9","5.651","164.9","NAN","NAN","NAN","NAN","NAN"],
    [1552446,"2026-05-05 14:00:00","53436","3.2710000000000004","132.9","4.9","130.5","NAN","NAN","NAN","NAN","NAN"],
    [1552447,"2026-05-05 14:10:00","53437","3.785","133.1","5.325","136.9","NAN","NAN","NAN","NAN","NAN"],
    [1552448,"2026-05-05 14:20:00","53438","3.2489999999999997","123.8","5.423","137.3","NAN","NAN","NAN","NAN","NAN"],
    [1552449,"2026-05-05 14:30:00","53439","3.1239999999999997","122.0","4.933","137.9","NAN","NAN","NAN","NAN","NAN"],
    [1552450,"2026-05-05 14:40:00","53440","2.889","123.8","4.671","106.7","NAN","NAN","NAN","NAN","NAN"],
    [1552451,"2026-05-05 14:50:00","53441","2.8710000000000004","110.5","5.031","102.9","NAN","NAN","NAN","NAN","NAN"],
    [1552452,"2026-05-05 15:00:00","53442","2.98","129.6","4.998","148.1","NAN","NAN","NAN","NAN","NAN"],
    [1552453,"2026-05-05 15:10:00","53443","2.582","134.3","5.031","126.6","NAN","NAN","NAN","NAN","NAN"],
    [1552454,"2026-05-05 15:20:00","53444","2.843","128.0","4.671","131.2","NAN","NAN","NAN","NAN","NAN"],
    [1552455,"2026-05-05 15:30:00","53445","2.181","140.3","3.822","168.1","NAN","NAN","NAN","NAN","NAN"],
    [1552456,"2026-05-05 15:40:00","53446","2.537","134.5","4.541","133.7","NAN","NAN","NAN","NAN","NAN"],
    [1552457,"2026-05-05 15:50:00","53447","1.632","120.7","3.267","138.6","NAN","NAN","NAN","NAN","NAN"],
    [1552458,"2026-05-05 16:00:00","53448","2.116","122.0","3.43","102.2","NAN","NAN","NAN","NAN","NAN"],
    [1552459,"2026-05-05 16:10:00","53449","2.444","120.7","3.659","115.9","NAN","NAN","NAN","NAN","NAN"],
    [1552460,"2026-05-05 16:20:00","53450","2.519","131.3","3.855","128.8","NAN","NAN","NAN","NAN","NAN"],
    [1552461,"2026-05-05 16:30:00","53451","1.569","152.3","4.41","152.1","NAN","NAN","NAN","NAN","NAN"],
    [1552462,"2026-05-05 16:40:00","53452","1.23","230.0","3.038","234.6","NAN","NAN","NAN","NAN","NAN"],
    [1552463,"2026-05-05 16:50:00","53453","1.097","216.2","2.842","231.8","NAN","NAN","NAN","NAN","NAN"],
    [1552464,"2026-05-05 17:00:00","53454","1.8090000000000002","230.0","3.528","203","NAN","NAN","NAN","NAN","NAN"],
    [1552465,"2026-05-05 17:10:00","53455","0.494","270.7","3.071","278.3","NAN","NAN","NAN","NAN","NAN"],
    [1552466,"2026-05-05 17:20:00","53456","0.715","269.3","3.365","257.4","NAN","NAN","NAN","NAN","NAN"],
    [1552467,"2026-05-05 17:30:00","53457","0.5820000000000001","246.6","2.646","89.3","NAN","NAN","NAN","NAN","NAN"],
    [1552468,"2026-05-05 17:40:00","53458","0.7020000000000001","24.02","3.169","7.556","NAN","NAN","NAN","NAN","NAN"],
    [1552469,"2026-05-05 17:50:00","53459","1.882","85.7","3.822","97.4","NAN","NAN","NAN","NAN","NAN"],
    [1552470,"2026-05-05 18:00:00","53460","1.858","119.4","2.744","118.9","NAN","NAN","NAN","NAN","NAN"],
    [1552471,"2026-05-05 18:10:00","53461","1.38","130.8","2.809","144.3","NAN","NAN","NAN","NAN","NAN"],
    [1552472,"2026-05-05 18:20:00","53462","2.286","150.9","3.43","158","NAN","NAN","NAN","NAN","NAN"],
    [1552473,"2026-05-05 18:30:00","53463","1.974","148.8","3.136","152.7","NAN","NAN","NAN","NAN","NAN"],
    [1552474,"2026-05-05 18:40:00","53464","1.683","154.2","2.581","146.3","NAN","NAN","NAN","NAN","NAN"],
    [1552475,"2026-05-05 18:50:00","53465","1.9169999999999998","160.2","3.005","162.2","NAN","NAN","NAN","NAN","NAN"],
    [1552476,"2026-05-05 19:00:00","53466","1.263","167.5","2.875","167.2","NAN","NAN","NAN","NAN","NAN"],
    [1552477,"2026-05-05 19:10:00","53467","1.043","169.8","2.189","171.5","NAN","NAN","NAN","NAN","NAN"],
    [1552478,"2026-05-05 19:20:00","53468","0.113","173.7","0.784","175","NAN","NAN","NAN","NAN","NAN"],
    [1552479,"2026-05-05 19:30:00","53469","0.201","175.0","1.405","175","NAN","NAN","NAN","NAN","NAN"],
    [1552480,"2026-05-05 19:40:00","53470","0.31","181.0","1.535","175","NAN","NAN","NAN","NAN","NAN"],
    [1552481,"2026-05-05 19:50:00","53471","2.0869999999999997","276.4","3.626","289","NAN","NAN","NAN","NAN","NAN"],
    [1552482,"2026-05-05 20:00:00","53472","2.187","312.6","3.953","298.3","NAN","NAN","NAN","NAN","NAN"],
    [1552483,"2026-05-05 20:10:00","53473","0.562","328.6","1.666","326.5","NAN","NAN","NAN","NAN","NAN"],
    [1552484,"2026-05-05 20:20:00","53474","0.39","328.4","1.307","330","NAN","NAN","NAN","NAN","NAN"],
    [1552485,"2026-05-05 20:30:00","53475","0.9129999999999999","308.7","1.699","295.7","NAN","NAN","NAN","NAN","NAN"],
    [1552486,"2026-05-05 20:40:00","53476","0.866","293.2","1.862","294.5","NAN","NAN","NAN","NAN","NAN"],
    [1552487,"2026-05-05 20:50:00","53477","0.485","291.9","1.47","291.9","NAN","NAN","NAN","NAN","NAN"],
    [1552488,"2026-05-05 21:00:00","53478","1.5630000000000002","289.6","2.809","288.5","NAN","NAN","NAN","NAN","NAN"],
    [1552489,"2026-05-05 21:10:00","53479","2.201","279.1","3.463","276.4","NAN","NAN","NAN","NAN","NAN"],
    [1552490,"2026-05-05 21:20:00","53480","0.872","267.0","2.744","268.2","NAN","NAN","NAN","NAN","NAN"],
    [1552491,"2026-05-05 21:30:00","53481","1.395","269.1","2.123","263","NAN","NAN","NAN","NAN","NAN"],
    [1552492,"2026-05-05 21:40:00","53482","1.8","283.6","3.463","291.3","NAN","NAN","NAN","NAN","NAN"],
    [1552493,"2026-05-05 21:50:00","53483","1.9909999999999999","295.7","3.038","294.3","NAN","NAN","NAN","NAN","NAN"],
    [1552494,"2026-05-05 22:00:00","53484","1.9040000000000001","316.0","2.94","307.2","NAN","NAN","NAN","NAN","NAN"],
    [1552495,"2026-05-05 22:10:00","53485","0.9840000000000001","316.0","1.829","320.8","NAN","NAN","NAN","NAN","NAN"],
    [1552496,"2026-05-05 22:20:00","53486","1.058","309.2","2.809","307.1","NAN","NAN","NAN","NAN","NAN"],
    [1552497,"2026-05-05 22:30:00","53487","1.9580000000000002","313.6","3.495","309.1","NAN","NAN","NAN","NAN","NAN"],
    [1552498,"2026-05-05 22:40:00","53488","1.8019999999999998","319.3","2.94","322.4","NAN","NAN","NAN","NAN","NAN"],
    [1552499,"2026-05-05 22:50:00","53489","1.354","317.0","2.385","321.3","NAN","NAN","NAN","NAN","NAN"],
    [1552500,"2026-05-05 23:00:00","53490","0.364","318.5","1.307","319.2","NAN","NAN","NAN","NAN","NAN"],
    [1552501,"2026-05-05 23:10:00","53491","0.0","0.0","0","0","NAN","NAN","NAN","NAN","NAN"],
    [1552502,"2026-05-05 23:20:00","53492","0.0","0.0","0","0","NAN","NAN","NAN","NAN","NAN"],
    [1552503,"2026-05-05 23:30:00","53493","0.271","321.4","0.849","318.8","NAN","NAN","NAN","NAN","NAN"],
    [1552504,"2026-05-05 23:40:00","53494","0.41100000000000003","322.6","1.013","323.2","NAN","NAN","NAN","NAN","NAN"],
    [1552505,"2026-05-05 23:50:00","53495","0.746","310.7","1.895","301.5","NAN","NAN","NAN","NAN","NAN"],
    [1552506,"2026-05-06 00:00:00","53496","1.071","298.4","2.319","299.1","NAN","NAN","NAN","NAN","NAN"],
    [1552507,"2026-05-06 00:10:00","53497","0.214","297.8","1.013","297.8","NAN","NAN","NAN","NAN","NAN"],
    [1552508,"2026-05-06 00:20:00","53498","0.341","297.8","0.98","297.8","NAN","NAN","NAN","NAN","NAN"],
    [1552509,"2026-05-06 00:30:00","53499","0.086","299.3","0.849","299.2","NAN","NAN","NAN","NAN","NAN"],
    [1552510,"2026-05-06 00:40:00","53500","1.146","297.5","1.829","297","NAN","NAN","NAN","NAN","NAN"],
    [1552511,"2026-05-06 00:50:00","53501","1.226","298.0","1.96","296.8","NAN","NAN","NAN","NAN","NAN"],
    [1552512,"2026-05-06 01:00:00","53502","0.85","298.2","1.862","296.7","NAN","NAN","NAN","NAN","NAN"],
    [1552513,"2026-05-06 01:10:00","53503","1.344","297.1","2.025","296.6","NAN","NAN","NAN","NAN","NAN"],
    [1552514,"2026-05-06 01:20:00","53504","0.813","297.4","1.535","296.1","NAN","NAN","NAN","NAN","NAN"],
    [1552515,"2026-05-06 01:30:00","53505","0.5579999999999999","295.9","1.601","295.3","NAN","NAN","NAN","NAN","NAN"],
    [1552516,"2026-05-06 01:40:00","53506","0.42100000000000004","295.3","1.699","295.4","NAN","NAN","NAN","NAN","NAN"],
    [1552517,"2026-05-06 01:50:00","53507","0.8759999999999999","296.0","2.025","300.8","NAN","NAN","NAN","NAN","NAN"],
    [1552518,"2026-05-06 02:00:00","53508","1.126","293.9","3.299","299","NAN","NAN","NAN","NAN","NAN"],
    [1552519,"2026-05-06 02:10:00","53509","2.2880000000000003","284.2","3.985","287.3","NAN","NAN","NAN","NAN","NAN"],
    [1552520,"2026-05-06 02:20:00","53510","1.459","286.0","2.581","290.7","NAN","NAN","NAN","NAN","NAN"],
    [1552521,"2026-05-06 02:30:00","53511","1.06","292.4","2.025","292.3","NAN","NAN","NAN","NAN","NAN"],
    [1552522,"2026-05-06 02:40:00","53512","1.097","295.7","2.156","295.9","NAN","NAN","NAN","NAN","NAN"],
    [1552523,"2026-05-06 02:50:00","53513","0.792","297.5","2.189","297.5","NAN","NAN","NAN","NAN","NAN"],
    [1552524,"2026-05-06 03:00:00","53514","1.379","298.9","2.907","302.4","NAN","NAN","NAN","NAN","NAN"],
    [1552525,"2026-05-06 03:10:00","53515","2.802","305.6","4.639","307.5","NAN","NAN","NAN","NAN","NAN"],
    [1552526,"2026-05-06 03:20:00","53516","2.9939999999999998","298.9","4.377","298.6","NAN","NAN","NAN","NAN","NAN"],
    [1552527,"2026-05-06 03:30:00","53517","2.641","308.0","3.691","302.7","NAN","NAN","NAN","NAN","NAN"],
    [1552528,"2026-05-06 03:40:00","53518","2.109","300.3","3.463","298.5","NAN","NAN","NAN","NAN","NAN"],
    [1552529,"2026-05-06 03:50:00","53519","2.405","289.4","4.018","282.8","NAN","NAN","NAN","NAN","NAN"],
    [1552530,"2026-05-06 04:00:00","53520","2.311","288.5","3.691","289.7","NAN","NAN","NAN","NAN","NAN"],
    [1552531,"2026-05-06 04:10:00","53521","2.229","287.9","3.855","286.4","NAN","NAN","NAN","NAN","NAN"],
    [1552532,"2026-05-06 04:20:00","53522","2.3169999999999997","293.1","3.724","292.8","NAN","NAN","NAN","NAN","NAN"],
    [1552533,"2026-05-06 04:30:00","53523","2.495","292.7","3.855","294.6","NAN","NAN","NAN","NAN","NAN"],
    [1552534,"2026-05-06 04:40:00","53524","2.154","294.5","3.528","289.6","NAN","NAN","NAN","NAN","NAN"],
    [1552535,"2026-05-06 04:50:00","53525","2.562","290.9","3.822","288.4","NAN","NAN","NAN","NAN","NAN"],
    [1552536,"2026-05-06 05:00:00","53526","2.6319999999999997","287.8","4.312","287.8","NAN","NAN","NAN","NAN","NAN"],
    [1552537,"2026-05-06 05:10:00","53527","2.0340000000000003","270.7","3.724","275.9","NAN","NAN","NAN","NAN","NAN"],
    [1552538,"2026-05-06 05:20:00","53528","1.73","264.0","2.679","263.3","NAN","NAN","NAN","NAN","NAN"],
    [1552539,"2026-05-06 05:30:00","53529","1.51","266.3","2.287","262.7","NAN","NAN","NAN","NAN","NAN"],
    [1552540,"2026-05-06 05:40:00","53530","1.555","273.1","2.091","271.2","NAN","NAN","NAN","NAN","NAN"],
    [1552541,"2026-05-06 05:50:00","53531","1.4469999999999998","287.0","2.45","290.5","NAN","NAN","NAN","NAN","NAN"],
    [1552542,"2026-05-06 06:00:00","53532","1.7069999999999999","289.3","2.744","291.5","NAN","NAN","NAN","NAN","NAN"],
    [1552543,"2026-05-06 06:10:00","53533","1.953","293.0","3.136","302.2","NAN","NAN","NAN","NAN","NAN"],
    [1552544,"2026-05-06 06:20:00","53534","1.379","292.9","2.842","297.1","NAN","NAN","NAN","NAN","NAN"],
    [1552545,"2026-05-06 06:30:00","53535","2.589","308.8","4.083","315.8","NAN","NAN","NAN","NAN","NAN"],
    [1552546,"2026-05-06 06:40:00","53536","2.6310000000000002","309.6","4.9","309.8","NAN","NAN","NAN","NAN","NAN"],
    [1552547,"2026-05-06 06:50:00","53537","2.0669999999999997","308.9","4.573","299.8","NAN","NAN","NAN","NAN","NAN"],
    [1552548,"2026-05-06 07:00:00","53538","2.501","303.2","4.867","295.1","NAN","NAN","NAN","NAN","NAN"],
    [1552549,"2026-05-06 07:10:00","53539","2.176","314.5","4.835","285.6","NAN","NAN","NAN","NAN","NAN"],
    [1552550,"2026-05-06 07:20:00","53540","1.6340000000000001","309.8","3.561","296","NAN","NAN","NAN","NAN","NAN"],
    [1552551,"2026-05-06 07:30:00","53541","2.244","305.5","4.181","274.2","NAN","NAN","NAN","NAN","NAN"],
    [1552552,"2026-05-06 07:40:00","53542","3.0810000000000004","286.4","5.031","278.8","NAN","NAN","NAN","NAN","NAN"],
    [1552553,"2026-05-06 07:50:00","53543","3.1839999999999997","277.7","5.292","257.1","NAN","NAN","NAN","NAN","NAN"],
    [1552554,"2026-05-06 08:00:00","53544","3.298","269.3","4.835","274.3","NAN","NAN","NAN","NAN","NAN"],
    [1552555,"2026-05-06 08:10:00","53545","3.512","260.3","6.533","239","NAN","NAN","NAN","NAN","NAN"],
    [1552556,"2026-05-06 08:20:00","53546","3.509","277.9","5.325","254","NAN","NAN","NAN","NAN","NAN"],
    [1552557,"2026-05-06 08:30:00","53547","3.877","265.3","6.827","267.9","NAN","NAN","NAN","NAN","NAN"],
    [1552558,"2026-05-06 08:40:00","53548","3.012","277.0","5.684","298.7","NAN","NAN","NAN","NAN","NAN"],
    [1552559,"2026-05-06 08:50:00","53549","3.676","301.2","5.651","287.9","NAN","NAN","NAN","NAN","NAN"],
    [1552560,"2026-05-06 09:00:00","53550","3.827","317.4","6.043","323.4","NAN","NAN","NAN","NAN","NAN"],
    [1552561,"2026-05-06 09:10:00","53551","4.274","313.4","6.501","324.5","NAN","NAN","NAN","NAN","NAN"],
    [1552562,"2026-05-06 09:20:00","53552","2.8169999999999997","312.9","5.455","305.4","NAN","NAN","NAN","NAN","NAN"],
    [1552563,"2026-05-06 09:30:00","53553","1.97","298.5","4.965","307.9","NAN","NAN","NAN","NAN","NAN"],
    [1552564,"2026-05-06 09:40:00","53554","1.4169999999999998","289.0","3.822","272.8","NAN","NAN","NAN","NAN","NAN"],
    [1552565,"2026-05-06 09:50:00","53555","0.612","290.9","2.842","295.7","NAN","NAN","NAN","NAN","NAN"],
    [1552566,"2026-05-06 10:00:00","53556","2.379","242.3","4.247","218.2","NAN","NAN","NAN","NAN","NAN"],
    [1552567,"2026-05-06 10:10:00","53557","1.3","202.8","3.528","203","NAN","NAN","NAN","NAN","NAN"],
    [1552568,"2026-05-06 10:20:00","53558","3.2739999999999996","160.7","7.546","130.2","NAN","NAN","NAN","NAN","NAN"],
    [1552569,"2026-05-06 10:30:00","53559","3.707","158.5","6.174","162.1","NAN","NAN","NAN","NAN","NAN"],
    [1552570,"2026-05-06 10:40:00","53560","3.716","161.4","6.109","149.3","NAN","NAN","NAN","NAN","NAN"],
    [1552571,"2026-05-06 10:50:00","53561","3.6180000000000003","159.7","5.619","154.6","NAN","NAN","NAN","NAN","NAN"],
    [1552572,"2026-05-06 11:00:00","53562","3.8139999999999996","149.4","5.651","160.7","NAN","NAN","NAN","NAN","NAN"],
    [1552573,"2026-05-06 11:10:00","53563","3.759","156.0","5.782","122.3","NAN","NAN","NAN","NAN","NAN"],
    [1552574,"2026-05-06 11:20:00","53564","3.5069999999999997","169.6","5.651","168.9","NAN","NAN","NAN","NAN","NAN"],
    [1552575,"2026-05-06 11:30:00","53565","2.7119999999999997","189.7","5.325","177.7","NAN","NAN","NAN","NAN","NAN"],
    [1552576,"2026-05-06 11:40:00","53566","3.335","198.3","5.39","221.4","NAN","NAN","NAN","NAN","NAN"],
    [1552577,"2026-05-06 11:50:00","53567","3.407","186.6","5.423","173.8","NAN","NAN","NAN","NAN","NAN"],
    [1552578,"2026-05-06 12:00:00","53568","3.3680000000000003","183.5","6.305","159.8","NAN","NAN","NAN","NAN","NAN"],
    [1552579,"2026-05-06 12:10:00","53569","3.467","197.1","7.317","164.5","NAN","NAN","NAN","NAN","NAN"],
    [1552580,"2026-05-06 12:20:00","53570","3.62","189.1","6.795","213.7","NAN","NAN","NAN","NAN","NAN"],
    [1552581,"2026-05-06 12:30:00","53571","3.52","188.7","6.468","182.3","NAN","NAN","NAN","NAN","NAN"],
    [1552582,"2026-05-06 12:40:00","53572","3.4589999999999996","201.7","5.651","214.8","NAN","NAN","NAN","NAN","NAN"],
    [1552583,"2026-05-06 12:50:00","53573","3.78","193.7","6.305","175.2","NAN","NAN","NAN","NAN","NAN"],
    [1552584,"2026-05-06 13:00:00","53574","3.779","198.9","6.468","169","NAN","NAN","NAN","NAN","NAN"],
    [1552585,"2026-05-06 13:10:00","53575","3.5389999999999997","179.6","6.599","172.7","NAN","NAN","NAN","NAN","NAN"],
    [1552586,"2026-05-06 13:20:00","53576","3.0","185.1","5.684","174.5","NAN","NAN","NAN","NAN","NAN"],
    [1552587,"2026-05-06 13:30:00","53577","4.046","193.1","6.762","178.7","NAN","NAN","NAN","NAN","NAN"],
    [1552588,"2026-05-06 13:40:00","53578","3.763","190.3","5.88","207.3","NAN","NAN","NAN","NAN","NAN"],
    [1552589,"2026-05-06 13:50:00","53579","3.657","201.5","6.468","212","NAN","NAN","NAN","NAN","NAN"],
    [1552590,"2026-05-06 14:00:00","53580","3.615","194.1","6.468","171.8","NAN","NAN","NAN","NAN","NAN"],
    [1552591,"2026-05-06 14:10:00","53581","3.838","187.4","7.187","214.8","NAN","NAN","NAN","NAN","NAN"],
    [1552592,"2026-05-06 14:20:00","53582","4.052","182.6","6.533","169.2","NAN","NAN","NAN","NAN","NAN"],
    [1552593,"2026-05-06 14:30:00","53583","4.361000000000001","205.0","7.938","214","NAN","NAN","NAN","NAN","NAN"],
    [1552594,"2026-05-06 14:40:00","53584","4.79","205.3","7.35","213.6","NAN","NAN","NAN","NAN","NAN"],
    [1552595,"2026-05-06 14:50:00","53585","4.188","192.1","6.991","213.7","NAN","NAN","NAN","NAN","NAN"],
    [1552596,"2026-05-06 15:00:00","53586","3.9339999999999997","179.8","6.631","152.7","NAN","NAN","NAN","NAN","NAN"],
    [1552597,"2026-05-06 15:10:00","53587","3.5610000000000004","184.9","6.566","181.9","NAN","NAN","NAN","NAN","NAN"],
    [1552598,"2026-05-06 15:20:00","53588","3.577","192.1","7.121","213.9","NAN","NAN","NAN","NAN","NAN"],
    [1552599,"2026-05-06 15:30:00","53589","3.45","187.0","5.684","181","NAN","NAN","NAN","NAN","NAN"],
    [1552600,"2026-05-06 15:40:00","53590","3.178","199.2","6.435","183.2","NAN","NAN","NAN","NAN","NAN"],
    [1552601,"2026-05-06 15:50:00","53591","3.8689999999999998","172.4","6.37","179","NAN","NAN","NAN","NAN","NAN"],
    [1552602,"2026-05-06 16:00:00","53592","3.3280000000000003","185.1","5.913","185.5","NAN","NAN","NAN","NAN","NAN"],
    [1552603,"2026-05-06 16:10:00","53593","2.753","188.3","4.345","166.2","NAN","NAN","NAN","NAN","NAN"],
    [1552604,"2026-05-06 16:20:00","53594","2.923","200.8","5.357","213","NAN","NAN","NAN","NAN","NAN"],
    [1552605,"2026-05-06 16:30:00","53595","2.395","188.9","5.423","210.6","NAN","NAN","NAN","NAN","NAN"],
    [1552606,"2026-05-06 16:40:00","53596","2.9989999999999997","168.8","5.259","161.2","NAN","NAN","NAN","NAN","NAN"],
    [1552607,"2026-05-06 16:50:00","53597","2.519","180.7","4.018","211.1","NAN","NAN","NAN","NAN","NAN"],
    [1552608,"2026-05-06 17:00:00","53598","2.056","181.7","4.345","174","NAN","NAN","NAN","NAN","NAN"],
    [1552609,"2026-05-06 17:10:00","53599","2.053","181.3","3.757","183.1","NAN","NAN","NAN","NAN","NAN"],
    [1552610,"2026-05-06 17:20:00","53600","2.628","184.9","4.769","187.9","NAN","NAN","NAN","NAN","NAN"],
    [1552611,"2026-05-06 17:30:00","53601","1.881","189.8","3.855","180","NAN","NAN","NAN","NAN","NAN"],
    [1552612,"2026-05-06 17:40:00","53602","2.375","198.2","4.345","221.4","NAN","NAN","NAN","NAN","NAN"],
    [1552613,"2026-05-06 17:50:00","53603","2.877","176.1","4.541","160.9","NAN","NAN","NAN","NAN","NAN"],
    [1552614,"2026-05-06 18:00:00","53604","2.055","177.9","3.659","152","NAN","NAN","NAN","NAN","NAN"],
    [1552615,"2026-05-06 18:10:00","53605","2.187","174.4","3.855","170.4","NAN","NAN","NAN","NAN","NAN"],
    [1552616,"2026-05-06 18:20:00","53606","2.135","169.4","3.724","154.3","NAN","NAN","NAN","NAN","NAN"],
    [1552617,"2026-05-06 18:30:00","53607","2.488","168.3","3.887","160.1","NAN","NAN","NAN","NAN","NAN"],
    [1552618,"2026-05-06 18:40:00","53608","1.41","170.0","2.287","162.7","NAN","NAN","NAN","NAN","NAN"],
    [1552619,"2026-05-06 18:50:00","53609","1.3090000000000002","179.9","2.385","183.8","NAN","NAN","NAN","NAN","NAN"],
    [1552620,"2026-05-06 19:00:00","53610","1.19","170.5","2.45","153.5","NAN","NAN","NAN","NAN","NAN"],
    [1552621,"2026-05-06 19:10:00","53611","1.324","173.7","2.221","174.9","NAN","NAN","NAN","NAN","NAN"],
    [1552622,"2026-05-06 19:20:00","53612","1.5119999999999998","167.0","2.352","166.7","NAN","NAN","NAN","NAN","NAN"],
    [1552623,"2026-05-06 19:30:00","53613","0.648","168.5","1.437","162.7","NAN","NAN","NAN","NAN","NAN"],
    [1552624,"2026-05-06 19:40:00","53614","0.762","170.6","1.503","169.6","NAN","NAN","NAN","NAN","NAN"],
    [1552625,"2026-05-06 19:50:00","53615","0.705","174.8","1.437","175.3","NAN","NAN","NAN","NAN","NAN"],
    [1552626,"2026-05-06 20:00:00","53616","0.35200000000000004","172.1","1.601","172.2","NAN","NAN","NAN","NAN","NAN"],
    [1552627,"2026-05-06 20:10:00","53617","0.21100000000000002","171.7","0.849","171.7","NAN","NAN","NAN","NAN","NAN"],
    [1552628,"2026-05-06 20:20:00","53618","0.27899999999999997","174.3","0.882","174.6","NAN","NAN","NAN","NAN","NAN"],
    [1552629,"2026-05-06 20:30:00","53619","0.171","174.3","0.817","174.6","NAN","NAN","NAN","NAN","NAN"],
    [1552630,"2026-05-06 20:40:00","53620","0.068","174.2","0.849","174.1","NAN","NAN","NAN","NAN","NAN"],
    [1552631,"2026-05-06 20:50:00","53621","0.024","174.1","0.49","174.1","NAN","NAN","NAN","NAN","NAN"],
    [1552632,"2026-05-06 21:00:00","53622","0.02","173.9","0.327","173.8","NAN","NAN","NAN","NAN","NAN"],
    [1552633,"2026-05-06 21:10:00","53623","0.034","174.7","0.425","174.8","NAN","NAN","NAN","NAN","NAN"],
    [1552634,"2026-05-06 21:20:00","53624","0.002","178.4","0.163","178.1","NAN","NAN","NAN","NAN","NAN"],
    [1552635,"2026-05-06 21:30:00","53625","0.201","178.7","0.621","178.7","NAN","NAN","NAN","NAN","NAN"],
    [1552636,"2026-05-06 21:40:00","53626","0.152","180.6","0.555","179.8","NAN","NAN","NAN","NAN","NAN"],
    [1552637,"2026-05-06 21:50:00","53627","0.17800000000000002","181.2","0.653","181.2","NAN","NAN","NAN","NAN","NAN"],
    [1552638,"2026-05-06 22:00:00","53628","0.026000000000000002","181.3","0.294","181.3","NAN","NAN","NAN","NAN","NAN"],
    [1552639,"2026-05-06 22:10:00","53629","0.064","181.3","0.621","181.3","NAN","NAN","NAN","NAN","NAN"],
    [1552640,"2026-05-06 22:20:00","53630","0.054000000000000006","181.4","0.392","181.4","NAN","NAN","NAN","NAN","NAN"],
    [1552641,"2026-05-06 22:30:00","53631","0.03","181.5","0.425","181.5","NAN","NAN","NAN","NAN","NAN"],
    [1552642,"2026-05-06 22:40:00","53632","0.0","0.0","0","0","NAN","NAN","NAN","NAN","NAN"],
    [1552643,"2026-05-06 22:50:00","53633","0.01","181.6","0.261","181.6","NAN","NAN","NAN","NAN","NAN"],
    [1552644,"2026-05-06 23:00:00","53634","0.035","181.6","0.425","181.6","NAN","NAN","NAN","NAN","NAN"],
    [1552645,"2026-05-06 23:10:00","53635","0.0","0.0","0","0","NAN","NAN","NAN","NAN","NAN"],
    [1552646,"2026-05-06 23:20:00","53636","0.0","0.0","0","0","NAN","NAN","NAN","NAN","NAN"],
    [1552647,"2026-05-06 23:30:00","53637","0.462","181.5","1.307","181.8","NAN","NAN","NAN","NAN","NAN"],
    [1552648,"2026-05-06 23:40:00","53638","0.41200000000000003","179.4","1.862","181.4","NAN","NAN","NAN","NAN","NAN"],
    [1552649,"2026-05-06 23:50:00","53639","0.868","155.0","1.895","174.3","NAN","NAN","NAN","NAN","NAN"],
    [1552650,"2026-05-07 00:00:00","53640","2.8160000000000003","57.19","5.292","65.23","NAN","NAN","NAN","NAN","NAN"],
    [1552651,"2026-05-07 00:10:00","53641","3.133","61.35","5.553","82.1","NAN","NAN","NAN","NAN","NAN"],
    [1552652,"2026-05-07 00:20:00","53642","2.852","55.2","5.749","43.6","NAN","NAN","NAN","NAN","NAN"],
    [1552653,"2026-05-07 00:30:00","53643","3.805","57.69","7.121","69.33","NAN","NAN","NAN","NAN","NAN"],
    [1552654,"2026-05-07 00:40:00","53644","3.508","59.18","6.403","69.86","NAN","NAN","NAN","NAN","NAN"],
    [1552655,"2026-05-07 00:50:00","53645","3.262","63.45","5.815","68","NAN","NAN","NAN","NAN","NAN"],
    [1552656,"2026-05-07 01:00:00","53646","3.863","69.93","5.749","74.61","NAN","NAN","NAN","NAN","NAN"],
    [1552657,"2026-05-07 01:10:00","53647","3.055","69.08","4.965","57.83","NAN","NAN","NAN","NAN","NAN"],
    [1552658,"2026-05-07 01:20:00","53648","2.7739999999999996","66.88","5.063","70.36","NAN","NAN","NAN","NAN","NAN"],
    [1552659,"2026-05-07 01:30:00","53649","2.912","66.91","5.455","66.34","NAN","NAN","NAN","NAN","NAN"],
    [1552660,"2026-05-07 01:40:00","53650","2.477","55.85","4.9","57.27","NAN","NAN","NAN","NAN","NAN"],
    [1552661,"2026-05-07 01:50:00","53651","2.593","51.95","4.9","54.66","NAN","NAN","NAN","NAN","NAN"],
    [1552662,"2026-05-07 02:00:00","53652","2.372","50.17","4.998","46.25","NAN","NAN","NAN","NAN","NAN"],
    [1552663,"2026-05-07 02:10:00","53653","2.0709999999999997","58.72","4.345","47.87","NAN","NAN","NAN","NAN","NAN"],
    [1552664,"2026-05-07 02:20:00","53654","2.114","54.95","4.247","65.5","NAN","NAN","NAN","NAN","NAN"],
    [1552665,"2026-05-07 02:30:00","53655","2.241","38.46","3.855","33.16","NAN","NAN","NAN","NAN","NAN"],
    [1552666,"2026-05-07 02:40:00","53656","1.4280000000000002","36.72","2.777","33.32","NAN","NAN","NAN","NAN","NAN"],
    [1552667,"2026-05-07 02:50:00","53657","1.34","37.65","2.809","33.35","NAN","NAN","NAN","NAN","NAN"],
    [1552668,"2026-05-07 03:00:00","53658","1.4169999999999998","36.01","2.679","44.1","NAN","NAN","NAN","NAN","NAN"],
    [1552669,"2026-05-07 03:10:00","53659","1.14","40.21","2.842","47.21","NAN","NAN","NAN","NAN","NAN"],
    [1552670,"2026-05-07 03:20:00","53660","1.023","36.99","2.973","37.31","NAN","NAN","NAN","NAN","NAN"],
    [1552671,"2026-05-07 03:30:00","53661","0.465","33.2","1.568","32.41","NAN","NAN","NAN","NAN","NAN"],
    [1552672,"2026-05-07 03:40:00","53662","0.0","32.29","0.033","32.29","NAN","NAN","NAN","NAN","NAN"],
    [1552673,"2026-05-07 03:50:00","53663","0.0","0.0","0","0","NAN","NAN","NAN","NAN","NAN"],
    [1552674,"2026-05-07 04:00:00","53664","0.083","31.99","1.111","31.95","NAN","NAN","NAN","NAN","NAN"],
    [1552675,"2026-05-07 04:10:00","53665","0.145","31.97","1.241","31.91","NAN","NAN","NAN","NAN","NAN"],
    [1552676,"2026-05-07 04:20:00","53666","0.345","32.45","1.47","32.94","NAN","NAN","NAN","NAN","NAN"],
    [1552677,"2026-05-07 04:30:00","53667","0.55","35.08","2.189","47.94","NAN","NAN","NAN","NAN","NAN"],
    [1552678,"2026-05-07 04:40:00","53668","1.115","35.6","2.613","33.91","NAN","NAN","NAN","NAN","NAN"],
    [1552679,"2026-05-07 04:50:00","53669","1.7719999999999998","42.8","3.103","37.52","NAN","NAN","NAN","NAN","NAN"],
    [1552680,"2026-05-07 05:00:00","53670","1.203","35.49","2.581","50.29","NAN","NAN","NAN","NAN","NAN"],
    [1552681,"2026-05-07 05:10:00","53671","0.836","34.19","2.025","36.19","NAN","NAN","NAN","NAN","NAN"],
    [1552682,"2026-05-07 05:20:00","53672","0.024","31.62","0.555","31.62","NAN","NAN","NAN","NAN","NAN"],
    [1552683,"2026-05-07 05:30:00","53673","0.040999999999999995","31.34","0.425","31.52","NAN","NAN","NAN","NAN","NAN"],
    [1552684,"2026-05-07 05:40:00","53674","0.244","30.5","0.784","29.98","NAN","NAN","NAN","NAN","NAN"],
    [1552685,"2026-05-07 05:50:00","53675","0.429","29.37","1.078","29.41","NAN","NAN","NAN","NAN","NAN"],
    [1552686,"2026-05-07 06:00:00","53676","0.073","28.83","0.817","28.83","NAN","NAN","NAN","NAN","NAN"],
    [1552687,"2026-05-07 06:10:00","53677","0.46799999999999997","28.77","1.601","28.83","NAN","NAN","NAN","NAN","NAN"],
    [1552688,"2026-05-07 06:20:00","53678","0.127","28.68","0.784","28.64","NAN","NAN","NAN","NAN","NAN"],
    [1552689,"2026-05-07 06:30:00","53679","0.655","41.35","2.777","49.54","NAN","NAN","NAN","NAN","NAN"],
    [1552690,"2026-05-07 06:40:00","53680","1.3980000000000001","52.02","2.973","53.47","NAN","NAN","NAN","NAN","NAN"],
    [1552691,"2026-05-07 06:50:00","53681","2.046","58.15","3.528","58.76","NAN","NAN","NAN","NAN","NAN"],
    [1552692,"2026-05-07 07:00:00","53682","2.029","51.86","3.528","34.43","NAN","NAN","NAN","NAN","NAN"],
    [1552693,"2026-05-07 07:10:00","53683","1.926","52.63","3.855","41.86","NAN","NAN","NAN","NAN","NAN"],
    [1552694,"2026-05-07 07:20:00","53684","2.463","62.63","4.769","58.96","NAN","NAN","NAN","NAN","NAN"],
    [1552695,"2026-05-07 07:30:00","53685","2.5069999999999997","62.12","4.639","63.09","NAN","NAN","NAN","NAN","NAN"],
    [1552696,"2026-05-07 07:40:00","53686","2.574","62.75","5.553","74.8","NAN","NAN","NAN","NAN","NAN"],
    [1552697,"2026-05-07 07:50:00","53687","3.125","70.04","5.684","51.92","NAN","NAN","NAN","NAN","NAN"],
    [1552698,"2026-05-07 08:00:00","53688","3.638","85.0","6.109","62.33","NAN","NAN","NAN","NAN","NAN"],
    [1552699,"2026-05-07 08:10:00","53689","2.602","90.0","5.651","101.8","NAN","NAN","NAN","NAN","NAN"],
    [1552700,"2026-05-07 08:20:00","53690","3.3360000000000003","103.0","5.521","95.7","NAN","NAN","NAN","NAN","NAN"],
    [1552701,"2026-05-07 08:30:00","53691","3.464","101.4","5.847","93.4","NAN","NAN","NAN","NAN","NAN"],
    [1552702,"2026-05-07 08:40:00","53692","3.804","97.1","5.717","100.6","NAN","NAN","NAN","NAN","NAN"],
    [1552703,"2026-05-07 08:50:00","53693","3.92","100.3","6.501","114.8","NAN","NAN","NAN","NAN","NAN"],
    [1552704,"2026-05-07 09:00:00","53694","3.62","98.6","7.154","90.8","NAN","NAN","NAN","NAN","NAN"],
    [1552705,"2026-05-07 09:10:00","53695","3.611","91.6","6.239","93.8","NAN","NAN","NAN","NAN","NAN"],
    [1552706,"2026-05-07 09:20:00","53696","3.565","97.0","5.815","126.9","NAN","NAN","NAN","NAN","NAN"],
    [1552707,"2026-05-07 09:30:00","53697","3.425","97.9","6.207","95.9","NAN","NAN","NAN","NAN","NAN"],
    [1552708,"2026-05-07 09:40:00","53698","3.678","94.3","5.978","77.44","NAN","NAN","NAN","NAN","NAN"],
    [1552709,"2026-05-07 09:50:00","53699","3.252","100.6","5.553","105.2","NAN","NAN","NAN","NAN","NAN"],
    [1552710,"2026-05-07 10:00:00","53700","3.4560000000000004","102.6","5.945","86.4","NAN","NAN","NAN","NAN","NAN"],
    [1552711,"2026-05-07 10:10:00","53701","3.6630000000000003","100.0","5.717","99.1","NAN","NAN","NAN","NAN","NAN"],
    [1552712,"2026-05-07 10:20:00","53702","3.6519999999999997","96.7","6.533","76.15","NAN","NAN","NAN","NAN","NAN"],
    [1552713,"2026-05-07 10:30:00","53703","3.6180000000000003","103.4","6.272","89.4","NAN","NAN","NAN","NAN","NAN"],
    [1552714,"2026-05-07 10:40:00","53704","3.753","90.3","6.174","86","NAN","NAN","NAN","NAN","NAN"],
    [1552715,"2026-05-07 10:50:00","53705","3.897","95.2","6.011","99","NAN","NAN","NAN","NAN","NAN"],
    [1552716,"2026-05-07 11:00:00","53706","3.7319999999999998","104.7","6.827","105.1","NAN","NAN","NAN","NAN","NAN"],
    [1552717,"2026-05-07 11:10:00","53707","3.392","101.4","5.815","92.2","NAN","NAN","NAN","NAN","NAN"],
    [1552718,"2026-05-07 11:20:00","53708","3.875","101.3","6.076","98","NAN","NAN","NAN","NAN","NAN"],
    [1552719,"2026-05-07 11:30:00","53709","3.667","113.2","5.684","125.3","NAN","NAN","NAN","NAN","NAN"],
    [1552720,"2026-05-07 11:40:00","53710","3.8789999999999996","113.9","6.141","113.3","NAN","NAN","NAN","NAN","NAN"],
    [1552721,"2026-05-07 11:50:00","53711","3.91","125.1","5.945","105.4","NAN","NAN","NAN","NAN","NAN"],
    [1552722,"2026-05-07 12:00:00","53712","3.25","123.5","5.913","135.2","NAN","NAN","NAN","NAN","NAN"],
    [1552723,"2026-05-07 12:10:00","53713","3.9730000000000003","121.6","5.945","109.6","NAN","NAN","NAN","NAN","NAN"],
    [1552724,"2026-05-07 12:20:00","53714","3.839","116.9","6.86","114.7","NAN","NAN","NAN","NAN","NAN"],
    [1552725,"2026-05-07 12:30:00","53715","4.169","119.3","5.815","116.2","NAN","NAN","NAN","NAN","NAN"],
    [1552726,"2026-05-07 12:40:00","53716","4.223","122.5","6.403","118.4","NAN","NAN","NAN","NAN","NAN"],
    [1552727,"2026-05-07 12:50:00","53717","3.85","113.5","6.011","116.7","NAN","NAN","NAN","NAN","NAN"],
    [1552728,"2026-05-07 13:00:00","53718","4.144","121.1","6.076","122.6","NAN","NAN","NAN","NAN","NAN"],
    [1552729,"2026-05-07 13:10:00","53719","3.0789999999999997","121.5","5.945","142.6","NAN","NAN","NAN","NAN","NAN"],
    [1552730,"2026-05-07 13:20:00","53720","3.266","112.2","6.305","95","NAN","NAN","NAN","NAN","NAN"],
    [1552731,"2026-05-07 13:30:00","53721","3.8930000000000002","104.5","5.651","91.6","NAN","NAN","NAN","NAN","NAN"],
    [1552732,"2026-05-07 13:40:00","53722","3.807","105.8","5.978","111","NAN","NAN","NAN","NAN","NAN"],
    [1552733,"2026-05-07 13:50:00","53723","3.301","101.3","5.749","94.3","NAN","NAN","NAN","NAN","NAN"],
    [1552734,"2026-05-07 14:00:00","53724","3.34","91.1","5.325","90.6","NAN","NAN","NAN","NAN","NAN"],
    [1552735,"2026-05-07 14:10:00","53725","3.2430000000000003","101.0","4.933","95.4","NAN","NAN","NAN","NAN","NAN"],
    [1552736,"2026-05-07 14:20:00","53726","2.6460000000000004","92.2","5.357","120.2","NAN","NAN","NAN","NAN","NAN"],
    [1552737,"2026-05-07 14:30:00","53727","2.7569999999999997","95.1","5.194","98.4","NAN","NAN","NAN","NAN","NAN"],
    [1552738,"2026-05-07 14:40:00","53728","2.927","93.5","5.161","82","NAN","NAN","NAN","NAN","NAN"],
    [1552739,"2026-05-07 14:50:00","53729","3.303","92.0","5.325","98.5","NAN","NAN","NAN","NAN","NAN"],
    [1552740,"2026-05-07 15:00:00","53730","3.15","97.6","5.063","96.5","NAN","NAN","NAN","NAN","NAN"],
    [1552741,"2026-05-07 15:10:00","53731","2.9739999999999998","110.0","5.651","105.4","NAN","NAN","NAN","NAN","NAN"],
    [1552742,"2026-05-07 15:20:00","53732","3.661","119.6","5.749","131.7","NAN","NAN","NAN","NAN","NAN"],
    [1552743,"2026-05-07 15:30:00","53733","2.9760000000000004","100.3","5.325","90.7","NAN","NAN","NAN","NAN","NAN"],
    [1552744,"2026-05-07 15:40:00","53734","3.2910000000000004","94.0","5.129","81.2","NAN","NAN","NAN","NAN","NAN"],
    [1552745,"2026-05-07 15:50:00","53735","3.0069999999999997","91.5","5.325","87.8","NAN","NAN","NAN","NAN","NAN"],
    [1552746,"2026-05-07 16:00:00","53736","3.218","100.2","4.965","98.9","NAN","NAN","NAN","NAN","NAN"],
    [1552747,"2026-05-07 16:10:00","53737","3.0010000000000003","95.3","5.227","99.4","NAN","NAN","NAN","NAN","NAN"],
    [1552748,"2026-05-07 16:20:00","53738","3.0380000000000003","95.7","5.717","73.13","NAN","NAN","NAN","NAN","NAN"],
    [1552749,"2026-05-07 16:30:00","53739","3.049","97.5","5.129","83.9","NAN","NAN","NAN","NAN","NAN"],
    [1552750,"2026-05-07 16:40:00","53740","2.923","92.9","4.835","81.7","NAN","NAN","NAN","NAN","NAN"],
    [1552751,"2026-05-07 16:50:00","53741","2.983","95.4","4.704","103.8","NAN","NAN","NAN","NAN","NAN"],
    [1552752,"2026-05-07 17:00:00","53742","3.034","96.3","4.508","91.7","NAN","NAN","NAN","NAN","NAN"],
    [1552753,"2026-05-07 17:10:00","53743","2.991","98.4","4.998","93.6","NAN","NAN","NAN","NAN","NAN"],
    [1552754,"2026-05-07 17:20:00","53744","2.524","99.3","4.573","101.5","NAN","NAN","NAN","NAN","NAN"],
    [1552755,"2026-05-07 17:30:00","53745","2.505","90.1","4.377","102.5","NAN","NAN","NAN","NAN","NAN"],
    [1552756,"2026-05-07 17:40:00","53746","3.0639999999999996","65.05","5.031","66.71","NAN","NAN","NAN","NAN","NAN"],
    [1552757,"2026-05-07 17:50:00","53747","2.6310000000000002","66.74","4.769","69.6","NAN","NAN","NAN","NAN","NAN"],
    [1552758,"2026-05-07 18:00:00","53748","2.358","78.39","4.443","65.81","NAN","NAN","NAN","NAN","NAN"],
    [1552759,"2026-05-07 18:10:00","53749","1.9609999999999999","92.4","4.475","78.74","NAN","NAN","NAN","NAN","NAN"],
    [1552760,"2026-05-07 18:20:00","53750","2.687","97.8","4.671","103.8","NAN","NAN","NAN","NAN","NAN"],
    [1552761,"2026-05-07 18:30:00","53751","2.1430000000000002","97.6","3.528","98","NAN","NAN","NAN","NAN","NAN"],
    [1552762,"2026-05-07 18:40:00","53752","2.2119999999999997","97.3","3.789","100.7","NAN","NAN","NAN","NAN","NAN"],
    [1552763,"2026-05-07 18:50:00","53753","2.1319999999999997","99.3","3.822","103.4","NAN","NAN","NAN","NAN","NAN"],
    [1552764,"2026-05-07 19:00:00","53754","2.53","65.78","4.704","64.44","NAN","NAN","NAN","NAN","NAN"],
    [1552765,"2026-05-07 19:10:00","53755","2.333","59.35","3.985","61.61","NAN","NAN","NAN","NAN","NAN"],
    [1552766,"2026-05-07 19:20:00","53756","2.1830000000000003","67.46","3.92","66.53","NAN","NAN","NAN","NAN","NAN"],
    [1552767,"2026-05-07 19:30:00","53757","1.821","75.51","3.201","74.69","NAN","NAN","NAN","NAN","NAN"],
    [1552768,"2026-05-07 19:40:00","53758","1.8259999999999998","75.04","3.038","68.07","NAN","NAN","NAN","NAN","NAN"],
    [1552769,"2026-05-07 19:50:00","53759","1.986","61.3","3.92","65.08","NAN","NAN","NAN","NAN","NAN"],
    [1552770,"2026-05-07 20:00:00","53760","1.7919999999999998","56.77","3.234","58.54","NAN","NAN","NAN","NAN","NAN"],
    [1552771,"2026-05-07 20:10:00","53761","1.9480000000000002","62.16","3.528","70.09","NAN","NAN","NAN","NAN","NAN"],
    [1552772,"2026-05-07 20:20:00","53762","1.828","64.65","3.267","67.43","NAN","NAN","NAN","NAN","NAN"],
    [1552773,"2026-05-07 20:30:00","53763","1.155","65.08","2.417","54.65","NAN","NAN","NAN","NAN","NAN"],
    [1552774,"2026-05-07 20:40:00","53764","1.554","74.96","2.711","79.63","NAN","NAN","NAN","NAN","NAN"],
    [1552775,"2026-05-07 20:50:00","53765","1.8319999999999999","83.4","3.136","85.7","NAN","NAN","NAN","NAN","NAN"],
    [1552776,"2026-05-07 21:00:00","53766","1.6340000000000001","67.88","3.169","93","NAN","NAN","NAN","NAN","NAN"],
    [1552777,"2026-05-07 21:10:00","53767","1.235","90.4","2.646","84.8","NAN","NAN","NAN","NAN","NAN"],
    [1552778,"2026-05-07 21:20:00","53768","1.385","93.1","2.515","91.2","NAN","NAN","NAN","NAN","NAN"],
    [1552779,"2026-05-07 21:30:00","53769","1.212","96.0","2.319","90.4","NAN","NAN","NAN","NAN","NAN"],
    [1552780,"2026-05-07 21:40:00","53770","1.335","96.9","2.744","93.7","NAN","NAN","NAN","NAN","NAN"],
    [1552781,"2026-05-07 21:50:00","53771","0.9329999999999999","93.7","2.352","98.7","NAN","NAN","NAN","NAN","NAN"],
    [1552782,"2026-05-07 22:00:00","53772","0.8590000000000001","75.82","2.123","75.42","NAN","NAN","NAN","NAN","NAN"],
    [1552783,"2026-05-07 22:10:00","53773","0.855","72.35","1.862","66.66","NAN","NAN","NAN","NAN","NAN"],
    [1552784,"2026-05-07 22:20:00","53774","1.643","50.52","2.94","42.88","NAN","NAN","NAN","NAN","NAN"],
    [1552785,"2026-05-07 22:30:00","53775","1.123","45.78","2.385","45.26","NAN","NAN","NAN","NAN","NAN"],
    [1552786,"2026-05-07 22:40:00","53776","0.9940000000000001","49.73","2.352","50.85","NAN","NAN","NAN","NAN","NAN"],
    [1552787,"2026-05-07 22:50:00","53777","0.748","47.22","1.797","44.07","NAN","NAN","NAN","NAN","NAN"],
    [1552788,"2026-05-07 23:00:00","53778","0.733","53.97","1.633","56.16","NAN","NAN","NAN","NAN","NAN"],
    [1552789,"2026-05-07 23:10:00","53779","0.68","59.26","1.503","58.96","NAN","NAN","NAN","NAN","NAN"],
    [1552790,"2026-05-07 23:20:00","53780","0.518","61.04","1.274","60.69","NAN","NAN","NAN","NAN","NAN"],
    [1552791,"2026-05-07 23:30:00","53781","0.38799999999999996","61.99","1.568","61.55","NAN","NAN","NAN","NAN","NAN"],
    [1552792,"2026-05-07 23:40:00","53782","0.20199999999999999","62.67","1.078","62.71","NAN","NAN","NAN","NAN","NAN"],
    [1552793,"2026-05-07 23:50:00","53783","0.073","50.78","0.719","58.09","NAN","NAN","NAN","NAN","NAN"],
    [1552794,"2026-05-08 00:00:00","53784","0.024","41.53","0.359","41.53","NAN","NAN","NAN","NAN","NAN"],
    [1552795,"2026-05-08 00:10:00","53785","0.043","40.82","0.49","40.76","NAN","NAN","NAN","NAN","NAN"],
    [1552796,"2026-05-08 00:20:00","53786","0.092","26.2","0.457","40.48","NAN","NAN","NAN","NAN","NAN"],
    [1552797,"2026-05-08 00:30:00","53787","0.059000000000000004","4.73","0.588","4.476","NAN","NAN","NAN","NAN","NAN"],
    [1552798,"2026-05-08 00:40:00","53788","0.32899999999999996","1.661","0.686","1.644","NAN","NAN","NAN","NAN","NAN"],
    [1552799,"2026-05-08 00:50:00","53789","0.16899999999999998","0.243","0.686","0.313","NAN","NAN","NAN","NAN","NAN"],
    [1552800,"2026-05-08 01:00:00","53790","0.0","0.0","0","0","NAN","NAN","NAN","NAN","NAN"],
    [1552801,"2026-05-08 01:10:00","53791","0.001","0.188","0.131","0.184","NAN","NAN","NAN","NAN","NAN"],
    [1552802,"2026-05-08 01:20:00","53792","0.013999999999999999","355.1","0.261","354.2","NAN","NAN","NAN","NAN","NAN"],
    [1552803,"2026-05-08 01:30:00","53793","0.001","354.5","0.098","354.5","NAN","NAN","NAN","NAN","NAN"],
    [1552804,"2026-05-08 01:40:00","53794","0.0","0.0","0","0","NAN","NAN","NAN","NAN","NAN"],
    [1552805,"2026-05-08 01:50:00","53795","0.035","352.2","0.686","352.3","NAN","NAN","NAN","NAN","NAN"],
    [1552806,"2026-05-08 02:00:00","53796","0.034","348.6","0.49","349.4","NAN","NAN","NAN","NAN","NAN"],
    [1552807,"2026-05-08 02:10:00","53797","0.053","347.4","0.621","347.6","NAN","NAN","NAN","NAN","NAN"],
    [1552808,"2026-05-08 02:20:00","53798","0.073","347.0","0.588","347.1","NAN","NAN","NAN","NAN","NAN"],
    [1552809,"2026-05-08 02:30:00","53799","0.107","346.6","0.686","346.8","NAN","NAN","NAN","NAN","NAN"],
    [1552810,"2026-05-08 02:40:00","53800","0.133","345.4","0.751","345.8","NAN","NAN","NAN","NAN","NAN"],
    [1552811,"2026-05-08 02:50:00","53801","0.474","337.3","1.764","336.6","NAN","NAN","NAN","NAN","NAN"],
    [1552812,"2026-05-08 03:00:00","53802","0.547","330.8","1.339","328.8","NAN","NAN","NAN","NAN","NAN"],
    [1552813,"2026-05-08 03:10:00","53803","1.068","323.2","2.091","315.4","NAN","NAN","NAN","NAN","NAN"],
    [1552814,"2026-05-08 03:20:00","53804","0.8370000000000001","312.7","2.091","312.6","NAN","NAN","NAN","NAN","NAN"],
    [1552815,"2026-05-08 03:30:00","53805","0.26899999999999996","312.5","1.405","312.4","NAN","NAN","NAN","NAN","NAN"],
    [1552816,"2026-05-08 03:40:00","53806","0.7879999999999999","312.2","1.731","312","NAN","NAN","NAN","NAN","NAN"],
    [1552817,"2026-05-08 03:50:00","53807","0.366","311.9","1.731","312","NAN","NAN","NAN","NAN","NAN"],
    [1552818,"2026-05-08 04:00:00","53808","1.587","303.0","2.679","299.7","NAN","NAN","NAN","NAN","NAN"],
    [1552819,"2026-05-08 04:10:00","53809","1.391","298.0","2.842","297.6","NAN","NAN","NAN","NAN","NAN"],
    [1552820,"2026-05-08 04:20:00","53810","1.8619999999999999","295.4","3.005","296.4","NAN","NAN","NAN","NAN","NAN"],
    [1552821,"2026-05-08 04:30:00","53811","1.176","291.5","2.319","293.4","NAN","NAN","NAN","NAN","NAN"],
    [1552822,"2026-05-08 04:40:00","53812","1.104","287.2","2.091","286.7","NAN","NAN","NAN","NAN","NAN"],
    [1552823,"2026-05-08 04:50:00","53813","1.186","285.0","2.613","284.9","NAN","NAN","NAN","NAN","NAN"],
    [1552824,"2026-05-08 05:00:00","53814","1.219","283.4","1.993","282.9","NAN","NAN","NAN","NAN","NAN"],
    [1552825,"2026-05-08 05:10:00","53815","1.579","281.1","2.417","281.1","NAN","NAN","NAN","NAN","NAN"],
    [1552826,"2026-05-08 05:20:00","53816","1.344","284.8","2.679","285.1","NAN","NAN","NAN","NAN","NAN"],
    [1552827,"2026-05-08 05:30:00","53817","0.6829999999999999","281.4","1.405","280","NAN","NAN","NAN","NAN","NAN"],
    [1552828,"2026-05-08 05:40:00","53818","0.426","287.9","1.47","284.8","NAN","NAN","NAN","NAN","NAN"],
    [1552829,"2026-05-08 05:50:00","53819","0.9129999999999999","297.2","1.731","298.6","NAN","NAN","NAN","NAN","NAN"],
    [1552830,"2026-05-08 06:00:00","53820","0.536","292.8","1.797","291.1","NAN","NAN","NAN","NAN","NAN"],
    [1552831,"2026-05-08 06:10:00","53821","0.728","291.5","1.568","299.8","NAN","NAN","NAN","NAN","NAN"],
    [1552832,"2026-05-08 06:20:00","53822","0.943","296.6","1.764","296.6","NAN","NAN","NAN","NAN","NAN"],
    [1552833,"2026-05-08 06:30:00","53823","0.935","297.4","1.862","299.9","NAN","NAN","NAN","NAN","NAN"],
    [1552834,"2026-05-08 06:40:00","53824","0.8759999999999999","292.8","1.568","289.4","NAN","NAN","NAN","NAN","NAN"],
    [1552835,"2026-05-08 06:50:00","53825","0.847","293.7","1.993","282.1","NAN","NAN","NAN","NAN","NAN"],
    [1552836,"2026-05-08 07:00:00","53826","1.129","279.3","1.862","278.7","NAN","NAN","NAN","NAN","NAN"],
    [1552837,"2026-05-08 07:10:00","53827","0.723","280.3","1.666","278.2","NAN","NAN","NAN","NAN","NAN"],
    [1552838,"2026-05-08 07:20:00","53828","0.066","287.1","0.751","286.5","NAN","NAN","NAN","NAN","NAN"],
    [1552839,"2026-05-08 07:30:00","53829","0.09","277.9","0.555","277.8","NAN","NAN","NAN","NAN","NAN"],
    [1552840,"2026-05-08 07:40:00","53830","0.853","318.3","2.189","306.5","NAN","NAN","NAN","NAN","NAN"],
    [1552841,"2026-05-08 07:50:00","53831","1.22","83.0","2.646","86","NAN","NAN","NAN","NAN","NAN"],
    [1552842,"2026-05-08 08:00:00","53832","1.604","99.9","2.777","108.1","NAN","NAN","NAN","NAN","NAN"],
    [1552843,"2026-05-08 08:10:00","53833","1.517","96.6","3.299","100","NAN","NAN","NAN","NAN","NAN"],
    [1552844,"2026-05-08 08:20:00","53834","1.955","96.8","2.973","90.4","NAN","NAN","NAN","NAN","NAN"],
    [1552845,"2026-05-08 08:30:00","53835","1.685","86.2","2.907","82.2","NAN","NAN","NAN","NAN","NAN"],
    [1552846,"2026-05-08 08:40:00","53836","1.992","85.5","2.875","87.8","NAN","NAN","NAN","NAN","NAN"],
    [1552847,"2026-05-08 08:50:00","53837","1.4569999999999999","93.0","2.744","84","NAN","NAN","NAN","NAN","NAN"],
    [1552848,"2026-05-08 09:00:00","53838","1.511","100.1","3.397","92.1","NAN","NAN","NAN","NAN","NAN"],
    [1552849,"2026-05-08 09:10:00","53839","1.891","117.9","3.267","132.9","NAN","NAN","NAN","NAN","NAN"],
    [1552850,"2026-05-08 09:20:00","53840","1.835","123.3","3.299","108.4","NAN","NAN","NAN","NAN","NAN"],
    [1552851,"2026-05-08 09:30:00","53841","1.463","111.2","3.071","114.8","NAN","NAN","NAN","NAN","NAN"],
    [1552852,"2026-05-08 09:40:00","53842","1.8780000000000001","113.6","3.887","92.1","NAN","NAN","NAN","NAN","NAN"],
    [1552853,"2026-05-08 09:50:00","53843","2.229","130.2","3.463","135.9","NAN","NAN","NAN","NAN","NAN"],
    [1552854,"2026-05-08 10:00:00","53844","1.6440000000000001","115.7","3.789","98","NAN","NAN","NAN","NAN","NAN"],
    [1552855,"2026-05-08 10:10:00","53845","2.694","79.59","3.985","69.32","NAN","NAN","NAN","NAN","NAN"],
    [1552856,"2026-05-08 10:20:00","53846","2.36","75.14","4.247","72.2","NAN","NAN","NAN","NAN","NAN"],
    [1552857,"2026-05-08 10:30:00","53847","2.233","89.7","3.92","76.67","NAN","NAN","NAN","NAN","NAN"],
    [1552858,"2026-05-08 10:40:00","53848","2.682","91.1","4.083","94.2","NAN","NAN","NAN","NAN","NAN"],
    [1552859,"2026-05-08 10:50:00","53849","2.812","125.5","4.214","128.1","NAN","NAN","NAN","NAN","NAN"],
    [1552860,"2026-05-08 11:00:00","53850","2.322","135.1","4.247","144","NAN","NAN","NAN","NAN","NAN"],
    [1552861,"2026-05-08 11:10:00","53851","2.27","125.6","3.528","146.5","NAN","NAN","NAN","NAN","NAN"],
    [1552862,"2026-05-08 11:20:00","53852","2.4130000000000003","143.7","4.051","155.5","NAN","NAN","NAN","NAN","NAN"],
    [1552863,"2026-05-08 11:30:00","53853","1.992","114.3","3.495","97.4","NAN","NAN","NAN","NAN","NAN"],
    [1552864,"2026-05-08 11:40:00","53854","2.117","121.6","4.149","130.1","NAN","NAN","NAN","NAN","NAN"],
    [1552865,"2026-05-08 11:50:00","53855","2.5469999999999997","131.6","4.214","157.6","NAN","NAN","NAN","NAN","NAN"],
    [1552866,"2026-05-08 12:00:00","53856","2.155","122.6","4.181","142.3","NAN","NAN","NAN","NAN","NAN"],
    [1552867,"2026-05-08 12:10:00","53857","2.261","129.2","4.377","156.1","NAN","NAN","NAN","NAN","NAN"],
    [1552868,"2026-05-08 12:20:00","53858","1.7530000000000001","127.1","4.345","103.9","NAN","NAN","NAN","NAN","NAN"],
    [1552869,"2026-05-08 12:30:00","53859","2.873","109.2","4.704","90","NAN","NAN","NAN","NAN","NAN"],
    [1552870,"2026-05-08 12:40:00","53860","2.421","120.0","4.737","105","NAN","NAN","NAN","NAN","NAN"],
    [1552871,"2026-05-08 12:50:00","53861","3.1660000000000004","136.2","5.063","147.6","NAN","NAN","NAN","NAN","NAN"],
    [1552872,"2026-05-08 13:00:00","53862","2.519","158.4","4.704","159","NAN","NAN","NAN","NAN","NAN"],
    [1552873,"2026-05-08 13:10:00","53863","1.335","146.0","3.463","159.1","NAN","NAN","NAN","NAN","NAN"],
    [1552874,"2026-05-08 13:20:00","53864","1.436","111.5","3.071","98.8","NAN","NAN","NAN","NAN","NAN"],
    [1552875,"2026-05-08 13:30:00","53865","2.181","89.9","4.149","92.7","NAN","NAN","NAN","NAN","NAN"],
    [1552876,"2026-05-08 13:40:00","53866","2.7710000000000004","118.8","4.769","125.3","NAN","NAN","NAN","NAN","NAN"],
    [1552877,"2026-05-08 13:50:00","53867","2.576","110.7","4.41","127.4","NAN","NAN","NAN","NAN","NAN"],
    [1552878,"2026-05-08 14:00:00","53868","3.055","115.8","4.867","123.7","NAN","NAN","NAN","NAN","NAN"],
    [1552879,"2026-05-08 14:10:00","53869","3.267","118.7","4.9","109","NAN","NAN","NAN","NAN","NAN"],
    [1552880,"2026-05-08 14:20:00","53870","3.194","109.5","5.357","113.2","NAN","NAN","NAN","NAN","NAN"],
    [1552881,"2026-05-08 14:30:00","53871","3.14","121.9","5.227","136.3","NAN","NAN","NAN","NAN","NAN"],
    [1552882,"2026-05-08 14:40:00","53872","3.285","117.0","4.998","117.4","NAN","NAN","NAN","NAN","NAN"],
    [1552883,"2026-05-08 14:50:00","53873","2.736","111.0","4.149","125.8","NAN","NAN","NAN","NAN","NAN"],
    [1552884,"2026-05-08 15:00:00","53874","2.699","122.4","4.181","109","NAN","NAN","NAN","NAN","NAN"],
    [1552885,"2026-05-08 15:10:00","53875","3.0269999999999997","128.4","4.933","133","NAN","NAN","NAN","NAN","NAN"],
    [1552886,"2026-05-08 15:20:00","53876","3.003","130.3","4.933","123.9","NAN","NAN","NAN","NAN","NAN"],
    [1552887,"2026-05-08 15:30:00","53877","3.237","135.1","5.161","147.2","NAN","NAN","NAN","NAN","NAN"],
    [1552888,"2026-05-08 15:40:00","53878","3.125","133.8","4.965","136.8","NAN","NAN","NAN","NAN","NAN"],
    [1552889,"2026-05-08 15:50:00","53879","3.27","130.4","5.292","143.8","NAN","NAN","NAN","NAN","NAN"],
    [1552890,"2026-05-08 16:00:00","53880","3.67","136.0","5.455","136.4","NAN","NAN","NAN","NAN","NAN"],
    [1552891,"2026-05-08 16:10:00","53881","3.259","124.3","5.325","142","NAN","NAN","NAN","NAN","NAN"],
    [1552892,"2026-05-08 16:20:00","53882","3.582","133.1","5.978","142.2","NAN","NAN","NAN","NAN","NAN"],
    [1552893,"2026-05-08 16:30:00","53883","3.2230000000000003","137.3","4.835","139.9","NAN","NAN","NAN","NAN","NAN"],
    [1552894,"2026-05-08 16:40:00","53884","3.3160000000000003","136.6","4.704","134.2","NAN","NAN","NAN","NAN","NAN"],
    [1552895,"2026-05-08 16:50:00","53885","2.8539999999999996","126.1","4.149","112.7","NAN","NAN","NAN","NAN","NAN"],
    [1552896,"2026-05-08 17:00:00","53886","2.733","145.2","4.41","146.1","NAN","NAN","NAN","NAN","NAN"],
    [1552897,"2026-05-08 17:10:00","53887","2.476","127.8","3.659","136.2","NAN","NAN","NAN","NAN","NAN"],
    [1552898,"2026-05-08 17:20:00","53888","1.892","133.6","3.299","139.2","NAN","NAN","NAN","NAN","NAN"],
    [1552899,"2026-05-08 17:30:00","53889","2.347","126.4","3.822","141.5","NAN","NAN","NAN","NAN","NAN"],
    [1552900,"2026-05-08 17:40:00","53890","1.6669999999999998","107.7","3.103","127.6","NAN","NAN","NAN","NAN","NAN"],
    [1552901,"2026-05-08 17:50:00","53891","1.4980000000000002","127.8","2.581","128.3","NAN","NAN","NAN","NAN","NAN"],
    [1552902,"2026-05-08 18:00:00","53892","1.7819999999999998","116.3","3.169","104.4","NAN","NAN","NAN","NAN","NAN"],
    [1552903,"2026-05-08 18:10:00","53893","1.087","127.2","2.091","130.1","NAN","NAN","NAN","NAN","NAN"],
    [1552904,"2026-05-08 18:20:00","53894","1.018","120.0","1.829","124.5","NAN","NAN","NAN","NAN","NAN"],
    [1552905,"2026-05-08 18:30:00","53895","0.97","118.4","1.503","118.3","NAN","NAN","NAN","NAN","NAN"],
    [1552906,"2026-05-08 18:40:00","53896","0.5579999999999999","117.7","1.372","117.9","NAN","NAN","NAN","NAN","NAN"],
    [1552907,"2026-05-08 18:50:00","53897","1.155","117.6","1.862","118.4","NAN","NAN","NAN","NAN","NAN"],
    [1552908,"2026-05-08 19:00:00","53898","1.693","123.0","2.646","130.2","NAN","NAN","NAN","NAN","NAN"],
    [1552909,"2026-05-08 19:10:00","53899","1.7719999999999998","118.4","2.45","116.5","NAN","NAN","NAN","NAN","NAN"],
    [1552910,"2026-05-08 19:20:00","53900","1.749","114.1","2.679","114.6","NAN","NAN","NAN","NAN","NAN"],
    [1552911,"2026-05-08 19:30:00","53901","1.608","118.4","2.973","118","NAN","NAN","NAN","NAN","NAN"],
    [1552912,"2026-05-08 19:40:00","53902","1.916","107.3","3.267","101.8","NAN","NAN","NAN","NAN","NAN"],
    [1552913,"2026-05-08 19:50:00","53903","2.267","96.9","3.789","84.7","NAN","NAN","NAN","NAN","NAN"],
    [1552914,"2026-05-08 20:00:00","53904","2.222","93.4","3.626","90.6","NAN","NAN","NAN","NAN","NAN"],
    [1552915,"2026-05-08 20:10:00","53905","2.037","93.9","3.43","97.3","NAN","NAN","NAN","NAN","NAN"],
    [1552916,"2026-05-08 20:20:00","53906","1.591","90.7","2.842","86.8","NAN","NAN","NAN","NAN","NAN"],
    [1552917,"2026-05-08 20:30:00","53907","1.7590000000000001","108.4","3.005","121.4","NAN","NAN","NAN","NAN","NAN"],
    [1552918,"2026-05-08 20:40:00","53908","1.754","110.3","2.973","123.9","NAN","NAN","NAN","NAN","NAN"],
    [1552919,"2026-05-08 20:50:00","53909","1.385","105.1","2.711","102.1","NAN","NAN","NAN","NAN","NAN"],
    [1552920,"2026-05-08 21:00:00","53910","0.636","100.7","2.123","100.5","NAN","NAN","NAN","NAN","NAN"],
    [1552921,"2026-05-08 21:10:00","53911","1.473","100.6","2.711","99.8","NAN","NAN","NAN","NAN","NAN"],
    [1552922,"2026-05-08 21:20:00","53912","1.4809999999999999","104.8","2.777","97.9","NAN","NAN","NAN","NAN","NAN"],
    [1552923,"2026-05-08 21:30:00","53913","1.8","97.5","3.92","95","NAN","NAN","NAN","NAN","NAN"],
    [1552924,"2026-05-08 21:40:00","53914","2.296","89.8","3.659","92.2","NAN","NAN","NAN","NAN","NAN"],
    [1552925,"2026-05-08 21:50:00","53915","2.127","92.0","3.855","97","NAN","NAN","NAN","NAN","NAN"],
    [1552926,"2026-05-08 22:00:00","53916","2.137","94.5","3.528","95.3","NAN","NAN","NAN","NAN","NAN"],
    [1552927,"2026-05-08 22:10:00","53917","2.0","96.3","3.789","85","NAN","NAN","NAN","NAN","NAN"],
    [1552928,"2026-05-08 22:20:00","53918","1.881","94.8","3.332","86.4","NAN","NAN","NAN","NAN","NAN"],
    [1552929,"2026-05-08 22:30:00","53919","1.911","95.9","3.528","103","NAN","NAN","NAN","NAN","NAN"],
    [1552930,"2026-05-08 22:40:00","53920","2.102","111.1","3.593","113.9","NAN","NAN","NAN","NAN","NAN"],
    [1552931,"2026-05-08 22:50:00","53921","2.126","105.5","3.757","108.7","NAN","NAN","NAN","NAN","NAN"],
    [1552932,"2026-05-08 23:00:00","53922","1.844","108.6","3.332","112.5","NAN","NAN","NAN","NAN","NAN"],
    [1552933,"2026-05-08 23:10:00","53923","1.6869999999999998","103.5","3.332","96.7","NAN","NAN","NAN","NAN","NAN"],
    [1552934,"2026-05-08 23:20:00","53924","2.1630000000000003","93.2","3.691","82.7","NAN","NAN","NAN","NAN","NAN"],
    [1552935,"2026-05-08 23:30:00","53925","2.256","87.6","3.593","77.8","NAN","NAN","NAN","NAN","NAN"],
    [1552936,"2026-05-08 23:40:00","53926","2.137","87.9","3.593","84.2","NAN","NAN","NAN","NAN","NAN"],
    [1552937,"2026-05-08 23:50:00","53927","1.665","89.4","3.267","82.7","NAN","NAN","NAN","NAN","NAN"],
    [1552938,"2026-05-09 00:00:00","53928","2.1109999999999998","88.7","3.365","85.8","NAN","NAN","NAN","NAN","NAN"],
    [1552939,"2026-05-09 00:10:00","53929","2.1390000000000002","85.2","3.365","94","NAN","NAN","NAN","NAN","NAN"],
    [1552940,"2026-05-09 00:20:00","53930","2.597","90.2","4.083","93.2","NAN","NAN","NAN","NAN","NAN"],
    [1552941,"2026-05-09 00:30:00","53931","2.376","90.9","3.528","89.5","NAN","NAN","NAN","NAN","NAN"],
    [1552942,"2026-05-09 00:40:00","53932","1.982","89.9","3.136","85","NAN","NAN","NAN","NAN","NAN"],
    [1552943,"2026-05-09 00:50:00","53933","1.358","101.2","2.483","89.5","NAN","NAN","NAN","NAN","NAN"],
    [1552944,"2026-05-09 01:00:00","53934","1.9340000000000002","105.7","3.299","106.6","NAN","NAN","NAN","NAN","NAN"],
    [1552945,"2026-05-09 01:10:00","53935","2.075","116.3","3.234","117.5","NAN","NAN","NAN","NAN","NAN"],
    [1552946,"2026-05-09 01:20:00","53936","2.032","122.6","3.201","127.7","NAN","NAN","NAN","NAN","NAN"],
    [1552947,"2026-05-09 01:30:00","53937","1.9409999999999998","116.6","3.397","93.1","NAN","NAN","NAN","NAN","NAN"],
    [1552948,"2026-05-09 01:40:00","53938","2.1959999999999997","101.9","3.495","96.8","NAN","NAN","NAN","NAN","NAN"],
    [1552949,"2026-05-09 01:50:00","53939","1.899","89.7","3.136","92.4","NAN","NAN","NAN","NAN","NAN"],
    [1552950,"2026-05-09 02:00:00","53940","1.9180000000000001","86.4","2.777","83.7","NAN","NAN","NAN","NAN","NAN"],
    [1552951,"2026-05-09 02:10:00","53941","1.942","91.9","3.593","97.8","NAN","NAN","NAN","NAN","NAN"],
    [1552952,"2026-05-09 02:20:00","53942","2.23","95.3","3.691","99.8","NAN","NAN","NAN","NAN","NAN"],
    [1552953,"2026-05-09 02:30:00","53943","2.03","83.9","3.691","88.4","NAN","NAN","NAN","NAN","NAN"],
    [1552954,"2026-05-09 02:40:00","53944","1.801","52.75","3.201","51.16","NAN","NAN","NAN","NAN","NAN"],
    [1552955,"2026-05-09 02:50:00","53945","1.62","48.84","2.842","50.58","NAN","NAN","NAN","NAN","NAN"],
    [1552956,"2026-05-09 03:00:00","53946","1.345","44.76","2.352","44.81","NAN","NAN","NAN","NAN","NAN"],
    [1552957,"2026-05-09 03:10:00","53947","1.369","58.88","2.45","61.78","NAN","NAN","NAN","NAN","NAN"],
    [1552958,"2026-05-09 03:20:00","53948","1.92","69.69","2.711","71.24","NAN","NAN","NAN","NAN","NAN"],
    [1552959,"2026-05-09 03:30:00","53949","1.349","79.57","2.94","76.35","NAN","NAN","NAN","NAN","NAN"],
    [1552960,"2026-05-09 03:40:00","53950","1.511","85.2","2.907","76.22","NAN","NAN","NAN","NAN","NAN"],
    [1552961,"2026-05-09 03:50:00","53951","1.6119999999999999","82.9","2.646","89.4","NAN","NAN","NAN","NAN","NAN"],
    [1552962,"2026-05-09 04:00:00","53952","0.905","77.64","2.842","82.8","NAN","NAN","NAN","NAN","NAN"],
    [1552963,"2026-05-09 04:10:00","53953","1.666","90.5","2.809","88.4","NAN","NAN","NAN","NAN","NAN"],
    [1552964,"2026-05-09 04:20:00","53954","1.844","92.5","3.789","82.6","NAN","NAN","NAN","NAN","NAN"],
    [1552965,"2026-05-09 04:30:00","53955","2.066","100.7","3.495","105.1","NAN","NAN","NAN","NAN","NAN"],
    [1552966,"2026-05-09 04:40:00","53956","2.728","96.2","4.051","88.2","NAN","NAN","NAN","NAN","NAN"],
    [1552967,"2026-05-09 04:50:00","53957","2.029","98.4","4.018","87.5","NAN","NAN","NAN","NAN","NAN"],
    [1552968,"2026-05-09 05:00:00","53958","2.662","89.1","4.051","84","NAN","NAN","NAN","NAN","NAN"],
    [1552969,"2026-05-09 05:10:00","53959","1.5959999999999999","84.3","3.463","84.7","NAN","NAN","NAN","NAN","NAN"],
    [1552970,"2026-05-09 05:20:00","53960","2.463","81.5","4.018","90.7","NAN","NAN","NAN","NAN","NAN"],
    [1552971,"2026-05-09 05:30:00","53961","3.1069999999999998","80.4","4.9","72.36","NAN","NAN","NAN","NAN","NAN"],
    [1552972,"2026-05-09 05:40:00","53962","2.61","82.3","4.279","81.9","NAN","NAN","NAN","NAN","NAN"],
    [1552973,"2026-05-09 05:50:00","53963","2.044","80.5","5.553","97.1","NAN","NAN","NAN","NAN","NAN"],
    [1552974,"2026-05-09 06:00:00","53964","2.653","80.3","5.292","99.4","NAN","NAN","NAN","NAN","NAN"],
    [1552975,"2026-05-09 06:10:00","53965","1.963","87.2","3.855","86","NAN","NAN","NAN","NAN","NAN"],
    [1552976,"2026-05-09 06:20:00","53966","1.464","77.16","3.43","89","NAN","NAN","NAN","NAN","NAN"],
    [1552977,"2026-05-09 06:30:00","53967","3.014","94.9","4.802","103.1","NAN","NAN","NAN","NAN","NAN"],
    [1552978,"2026-05-09 06:40:00","53968","2.5069999999999997","88.0","4.835","98.6","NAN","NAN","NAN","NAN","NAN"],
    [1552979,"2026-05-09 06:50:00","53969","2.822","91.7","5.063","90.1","NAN","NAN","NAN","NAN","NAN"],
    [1552980,"2026-05-09 07:00:00","53970","3.179","83.6","5.096","67.98","NAN","NAN","NAN","NAN","NAN"],
    [1552981,"2026-05-09 07:10:00","53971","3.182","89.2","5.292","86.6","NAN","NAN","NAN","NAN","NAN"],
    [1552982,"2026-05-09 07:20:00","53972","3.5189999999999997","80.5","5.913","97","NAN","NAN","NAN","NAN","NAN"],
    [1552983,"2026-05-09 07:30:00","53973","3.595","86.7","6.141","71.35","NAN","NAN","NAN","NAN","NAN"],
    [1552984,"2026-05-09 07:40:00","53974","3.7319999999999998","86.0","5.815","98.3","NAN","NAN","NAN","NAN","NAN"],
    [1552985,"2026-05-09 07:50:00","53975","3.611","84.7","6.599","96.6","NAN","NAN","NAN","NAN","NAN"],
    [1552986,"2026-05-09 08:00:00","53976","4.132","95.0","6.729","98.2","NAN","NAN","NAN","NAN","NAN"],
    [1552987,"2026-05-09 08:10:00","53977","4.579","88.2","7.219","99.8","NAN","NAN","NAN","NAN","NAN"],
    [1552988,"2026-05-09 08:20:00","53978","4.195","91.5","8","89.6","NAN","NAN","NAN","NAN","NAN"],
    [1552989,"2026-05-09 08:30:00","53979","4.074","83.0","6.337","97.8","NAN","NAN","NAN","NAN","NAN"],
    [1552990,"2026-05-09 08:40:00","53980","3.9539999999999997","79.45","7.383","82","NAN","NAN","NAN","NAN","NAN"],
    [1552991,"2026-05-09 08:50:00","53981","3.384","75.9","6.305","79.04","NAN","NAN","NAN","NAN","NAN"],
    [1552992,"2026-05-09 09:00:00","53982","3.2289999999999996","80.4","6.925","79.99","NAN","NAN","NAN","NAN","NAN"],
    [1552993,"2026-05-09 09:10:00","53983","3.591","81.9","6.337","80.6","NAN","NAN","NAN","NAN","NAN"],
    [1552994,"2026-05-09 09:20:00","53984","3.438","81.2","6.795","73.86","NAN","NAN","NAN","NAN","NAN"],
    [1552995,"2026-05-09 09:30:00","53985","3.912","83.1","7.219","95.9","NAN","NAN","NAN","NAN","NAN"],
    [1552996,"2026-05-09 09:40:00","53986","3.733","86.4","7.285","74.31","NAN","NAN","NAN","NAN","NAN"],
    [1552997,"2026-05-09 09:50:00","53987","3.89","82.8","7.513","68.31","NAN","NAN","NAN","NAN","NAN"],
    [1552998,"2026-05-09 10:00:00","53988","4.72","80.2","7.252","82.7","NAN","NAN","NAN","NAN","NAN"],
    [1552999,"2026-05-09 10:10:00","53989","4.367","79.79","6.631","72.41","NAN","NAN","NAN","NAN","NAN"],
    [1553000,"2026-05-09 10:20:00","53990","3.929","86.8","6.501","74.81","NAN","NAN","NAN","NAN","NAN"],
    [1553001,"2026-05-09 10:30:00","53991","4.031000000000001","86.7","7.415","80.7","NAN","NAN","NAN","NAN","NAN"],
    [1553002,"2026-05-09 10:40:00","53992","4.319","84.3","6.925","89.5","NAN","NAN","NAN","NAN","NAN"],
    [1553003,"2026-05-09 10:50:00","53993","4.734","75.74","7.383","75.45","NAN","NAN","NAN","NAN","NAN"],
    [1553004,"2026-05-09 11:00:00","53994","4.41","79.08","6.664","80.2","NAN","NAN","NAN","NAN","NAN"],
    [1553005,"2026-05-09 11:10:00","53995","4.0089999999999995","82.3","6.631","86.9","NAN","NAN","NAN","NAN","NAN"],
    [1553006,"2026-05-09 11:20:00","53996","4.495","82.5","8.26","72.04","NAN","NAN","NAN","NAN","NAN"],
    [1553007,"2026-05-09 11:30:00","53997","3.773","78.19","8.2","75.9","NAN","NAN","NAN","NAN","NAN"],
    [1553008,"2026-05-09 11:40:00","53998","1.743","65.0","4.541","66.75","NAN","NAN","NAN","NAN","NAN"],
    [1553009,"2026-05-09 11:50:00","53999","3.133","82.3","6.599","95.5","NAN","NAN","NAN","NAN","NAN"],
    [1553010,"2026-05-09 12:00:00","54000","3.267","78.55","7.056","93.5","NAN","NAN","NAN","NAN","NAN"],
    [1553011,"2026-05-09 12:10:00","54001","5.245","82.7","8.36","96.8","NAN","NAN","NAN","NAN","NAN"],
    [1553012,"2026-05-09 12:20:00","54002","4.511","83.3","8.17","81","NAN","NAN","NAN","NAN","NAN"],
    [1553013,"2026-05-09 12:30:00","54003","5.407","85.3","10.13","78.09","NAN","NAN","NAN","NAN","NAN"],
    [1553014,"2026-05-09 12:40:00","54004","3.9589999999999996","75.72","9.47","64.71","NAN","NAN","NAN","NAN","NAN"],
    [1553015,"2026-05-09 12:50:00","54005","3.2310000000000003","70.41","8.92","52.26","NAN","NAN","NAN","NAN","NAN"],
    [1553016,"2026-05-09 13:00:00","54006","2.525","65.61","6.403","57.58","NAN","NAN","NAN","NAN","NAN"],
    [1553017,"2026-05-09 13:10:00","54007","2.248","75.8","4.867","63.97","NAN","NAN","NAN","NAN","NAN"],
    [1553018,"2026-05-09 13:20:00","54008","2.168","82.9","5.455","102.4","NAN","NAN","NAN","NAN","NAN"],
    [1553019,"2026-05-09 13:30:00","54009","2.883","82.0","5.292","68.42","NAN","NAN","NAN","NAN","NAN"],
    [1553020,"2026-05-09 13:40:00","54010","2.276","92.8","3.953","104","NAN","NAN","NAN","NAN","NAN"],
    [1553021,"2026-05-09 13:50:00","54011","3.179","85.7","6.827","93.5","NAN","NAN","NAN","NAN","NAN"],
    [1553022,"2026-05-09 14:00:00","54012","4.365","93.4","7.317","95.3","NAN","NAN","NAN","NAN","NAN"],
    [1553023,"2026-05-09 14:10:00","54013","5.232","88.8","11.2","89.4","NAN","NAN","NAN","NAN","NAN"],
    [1553024,"2026-05-09 14:20:00","54014","7.665","78.97","12.77","77.38","NAN","NAN","NAN","NAN","NAN"],
    [1553025,"2026-05-09 14:30:00","54015","8.02","79.67","12.77","84.6","NAN","NAN","NAN","NAN","NAN"],
    [1553026,"2026-05-09 14:40:00","54016","4.871","80.1","10.13","78.55","NAN","NAN","NAN","NAN","NAN"],
    [1553027,"2026-05-09 14:50:00","54017","4.513999999999999","55.83","10.71","61.1","NAN","NAN","NAN","NAN","NAN"],
    [1553028,"2026-05-09 15:00:00","54018","3.0589999999999997","74.03","6.795","44.72","NAN","NAN","NAN","NAN","NAN"],
    [1553029,"2026-05-09 15:10:00","54019","2.847","100.3","5.488","97.2","NAN","NAN","NAN","NAN","NAN"],
    [1553030,"2026-05-09 15:20:00","54020","2.435","107.6","5.39","103.8","NAN","NAN","NAN","NAN","NAN"],
    [1553031,"2026-05-09 15:30:00","54021","2.4330000000000003","108.6","4.083","93.3","NAN","NAN","NAN","NAN","NAN"],
    [1553032,"2026-05-09 15:40:00","54022","2.3890000000000002","87.6","5.227","82.8","NAN","NAN","NAN","NAN","NAN"],
    [1553033,"2026-05-09 15:50:00","54023","2.6060000000000003","89.0","4.443","93.2","NAN","NAN","NAN","NAN","NAN"],
    [1553034,"2026-05-09 16:00:00","54024","1.9909999999999999","84.4","3.626","88.7","NAN","NAN","NAN","NAN","NAN"],
    [1553035,"2026-05-09 16:10:00","54025","3.108","80.5","4.769","82.7","NAN","NAN","NAN","NAN","NAN"],
    [1553036,"2026-05-09 16:20:00","54026","2.9189999999999996","77.59","5.619","69.19","NAN","NAN","NAN","NAN","NAN"],
    [1553037,"2026-05-09 16:30:00","54027","2.7560000000000002","48.15","5.096","38.42","NAN","NAN","NAN","NAN","NAN"],
    [1553038,"2026-05-09 16:40:00","54028","3.6630000000000003","35.67","5.749","54.52","NAN","NAN","NAN","NAN","NAN"],
    [1553039,"2026-05-09 16:50:00","54029","4.956","45.2","8.46","43.65","NAN","NAN","NAN","NAN","NAN"],
    [1553040,"2026-05-09 17:00:00","54030","4.085","40.71","7.056","41.98","NAN","NAN","NAN","NAN","NAN"],
    [1553041,"2026-05-09 17:10:00","54031","3.937","47.46","7.709","37.03","NAN","NAN","NAN","NAN","NAN"],
    [1553042,"2026-05-09 17:20:00","54032","3.167","60.89","5.423","51.74","NAN","NAN","NAN","NAN","NAN"],
    [1553043,"2026-05-09 17:30:00","54033","2.503","50.04","5.684","40.68","NAN","NAN","NAN","NAN","NAN"],
    [1553044,"2026-05-09 17:40:00","54034","2.717","81.2","4.41","87.8","NAN","NAN","NAN","NAN","NAN"],
    [1553045,"2026-05-09 17:50:00","54035","2.2840000000000003","74.35","3.691","92.7","NAN","NAN","NAN","NAN","NAN"],
    [1553046,"2026-05-09 18:00:00","54036","2.099","52.4","4.083","62.52","NAN","NAN","NAN","NAN","NAN"],
    [1553047,"2026-05-09 18:10:00","54037","2.146","61.81","4.312","68.61","NAN","NAN","NAN","NAN","NAN"],
    [1553048,"2026-05-09 18:20:00","54038","1.274","53.07","2.352","45.77","NAN","NAN","NAN","NAN","NAN"],
    [1553049,"2026-05-09 18:30:00","54039","0.534","47.67","1.47","50.58","NAN","NAN","NAN","NAN","NAN"],
    [1553050,"2026-05-09 18:40:00","54040","0.368","50.4","1.307","49.72","NAN","NAN","NAN","NAN","NAN"],
    [1553051,"2026-05-09 18:50:00","54041","0.0","0.0","0","0","NAN","NAN","NAN","NAN","NAN"],
    [1553052,"2026-05-09 19:00:00","54042","0.001","45.58","0.163","45.58","NAN","NAN","NAN","NAN","NAN"],
    [1553053,"2026-05-09 19:10:00","54043","0.0","0.0","0","0","NAN","NAN","NAN","NAN","NAN"],
    [1553054,"2026-05-09 19:20:00","54044","0.0","0.0","0","0","NAN","NAN","NAN","NAN","NAN"],
    [1553055,"2026-05-09 19:30:00","54045","0.002","45.38","0.163","45.38","NAN","NAN","NAN","NAN","NAN"],
    [1553056,"2026-05-09 19:40:00","54046","0.024","44.62","0.359","44.42","NAN","NAN","NAN","NAN","NAN"],
    [1553057,"2026-05-09 19:50:00","54047","0.11699999999999999","43.93","0.621","43.71","NAN","NAN","NAN","NAN","NAN"],
    [1553058,"2026-05-09 20:00:00","54048","0.07","43.11","0.523","43.33","NAN","NAN","NAN","NAN","NAN"],
    [1553059,"2026-05-09 20:10:00","54049","0.036000000000000004","42.76","0.49","42.69","NAN","NAN","NAN","NAN","NAN"],
    [1553060,"2026-05-09 20:20:00","54050","0.44799999999999995","41.76","1.143","39.96","NAN","NAN","NAN","NAN","NAN"],
    [1553061,"2026-05-09 20:30:00","54051","0.391","34.94","0.947","33.64","NAN","NAN","NAN","NAN","NAN"],
    [1553062,"2026-05-09 20:40:00","54052","0.215","341.8","1.078","340.2","NAN","NAN","NAN","NAN","NAN"],
    [1553063,"2026-05-09 20:50:00","54053","0.33299999999999996","334.3","1.209","328.6","NAN","NAN","NAN","NAN","NAN"],
    [1553064,"2026-05-09 21:00:00","54054","0.603","324.5","1.764","320.7","NAN","NAN","NAN","NAN","NAN"],
    [1553065,"2026-05-09 21:10:00","54055","0.39799999999999996","319.0","1.111","317.6","NAN","NAN","NAN","NAN","NAN"],
    [1553066,"2026-05-09 21:20:00","54056","0.341","317.1","1.078","317.2","NAN","NAN","NAN","NAN","NAN"],
    [1553067,"2026-05-09 21:30:00","54057","0.217","316.8","0.751","316.8","NAN","NAN","NAN","NAN","NAN"],
    [1553068,"2026-05-09 21:40:00","54058","0.261","316.4","1.274","316.1","NAN","NAN","NAN","NAN","NAN"],
    [1553069,"2026-05-09 21:50:00","54059","0.77","314.8","1.241","315.1","NAN","NAN","NAN","NAN","NAN"],
    [1553070,"2026-05-09 22:00:00","54060","0.816","313.8","1.405","313.5","NAN","NAN","NAN","NAN","NAN"],
    [1553071,"2026-05-09 22:10:00","54061","0.7240000000000001","312.9","1.405","313","NAN","NAN","NAN","NAN","NAN"],
    [1553072,"2026-05-09 22:20:00","54062","0.72","312.1","1.47","311.9","NAN","NAN","NAN","NAN","NAN"],
    [1553073,"2026-05-09 22:30:00","54063","0.733","311.6","1.503","311.5","NAN","NAN","NAN","NAN","NAN"],
    [1553074,"2026-05-09 22:40:00","54064","0.568","311.4","1.405","311.4","NAN","NAN","NAN","NAN","NAN"],
    [1553075,"2026-05-09 22:50:00","54065","0.828","310.8","1.405","310.9","NAN","NAN","NAN","NAN","NAN"],
    [1553076,"2026-05-09 23:00:00","54066","0.7959999999999999","308.1","1.568","305.8","NAN","NAN","NAN","NAN","NAN"],
    [1553077,"2026-05-09 23:10:00","54067","1.995","277.9","3.397","276.5","NAN","NAN","NAN","NAN","NAN"],
    [1553078,"2026-05-09 23:20:00","54068","2.165","276.6","3.365","275.4","NAN","NAN","NAN","NAN","NAN"],
    [1553079,"2026-05-09 23:30:00","54069","1.8869999999999998","282.0","2.973","284.4","NAN","NAN","NAN","NAN","NAN"],
    [1553080,"2026-05-09 23:40:00","54070","1.7080000000000002","285.2","2.777","285.7","NAN","NAN","NAN","NAN","NAN"],
    [1553081,"2026-05-09 23:50:00","54071","1.444","281.2","1.96","276.5","NAN","NAN","NAN","NAN","NAN"],
    [1553082,"2026-05-10 00:00:00","54072","1.247","286.6","1.895","286.8","NAN","NAN","NAN","NAN","NAN"],
    [1553083,"2026-05-10 00:10:00","54073","0.825","287.0","1.764","286.8","NAN","NAN","NAN","NAN","NAN"],
    [1553084,"2026-05-10 00:20:00","54074","0.414","287.0","0.849","287","NAN","NAN","NAN","NAN","NAN"],
    [1553085,"2026-05-10 00:30:00","54075","0.295","287.0","0.882","287","NAN","NAN","NAN","NAN","NAN"],
    [1553086,"2026-05-10 00:40:00","54076","0.35100000000000003","287.0","1.045","287.1","NAN","NAN","NAN","NAN","NAN"],
    [1553087,"2026-05-10 00:50:00","54077","0.6559999999999999","287.0","0.98","287","NAN","NAN","NAN","NAN","NAN"],
    [1553088,"2026-05-10 01:00:00","54078","0.871","283.7","1.307","280.4","NAN","NAN","NAN","NAN","NAN"],
    [1553089,"2026-05-10 01:10:00","54079","1.206","278.3","1.699","277.4","NAN","NAN","NAN","NAN","NAN"],
    [1553090,"2026-05-10 01:20:00","54080","1.186","276.1","1.927","276.1","NAN","NAN","NAN","NAN","NAN"],
    [1553091,"2026-05-10 01:30:00","54081","1.125","273.9","2.156","275","NAN","NAN","NAN","NAN","NAN"],
    [1553092,"2026-05-10 01:40:00","54082","1.535","273.1","2.417","272","NAN","NAN","NAN","NAN","NAN"],
    [1553093,"2026-05-10 01:50:00","54083","1.649","269.8","2.352","268.3","NAN","NAN","NAN","NAN","NAN"],
    [1553094,"2026-05-10 02:00:00","54084","2.064","265.3","3.855","264.8","NAN","NAN","NAN","NAN","NAN"],
    [1553095,"2026-05-10 02:10:00","54085","2.15","264.0","3.593","262.6","NAN","NAN","NAN","NAN","NAN"],
    [1553096,"2026-05-10 02:20:00","54086","1.7890000000000001","271.8","3.071","278.4","NAN","NAN","NAN","NAN","NAN"],
    [1553097,"2026-05-10 02:30:00","54087","1.423","278.9","2.842","279.1","NAN","NAN","NAN","NAN","NAN"],
    [1553098,"2026-05-10 02:40:00","54088","1.172","276.4","1.993","275.1","NAN","NAN","NAN","NAN","NAN"],
    [1553099,"2026-05-10 02:50:00","54089","1.099","277.2","1.764","280.3","NAN","NAN","NAN","NAN","NAN"],
    [1553100,"2026-05-10 03:00:00","54090","1.2429999999999999","279.3","1.927","279.8","NAN","NAN","NAN","NAN","NAN"],
    [1553101,"2026-05-10 03:10:00","54091","1.3090000000000002","279.9","2.221","281.1","NAN","NAN","NAN","NAN","NAN"],
    [1553102,"2026-05-10 03:20:00","54092","1.7930000000000001","282.0","2.777","282.3","NAN","NAN","NAN","NAN","NAN"],
    [1553103,"2026-05-10 03:30:00","54093","1.7380000000000002","282.4","2.483","282.4","NAN","NAN","NAN","NAN","NAN"],
    [1553104,"2026-05-10 03:40:00","54094","1.788","281.9","2.842","282.9","NAN","NAN","NAN","NAN","NAN"],
    [1553105,"2026-05-10 03:50:00","54095","1.879","283.0","2.907","283.4","NAN","NAN","NAN","NAN","NAN"],
    [1553106,"2026-05-10 04:00:00","54096","2.186","286.9","3.43","287.8","NAN","NAN","NAN","NAN","NAN"],
    [1553107,"2026-05-10 04:10:00","54097","1.8530000000000002","285.3","2.777","289.7","NAN","NAN","NAN","NAN","NAN"],
    [1553108,"2026-05-10 04:20:00","54098","1.5219999999999998","283.1","2.515","288.7","NAN","NAN","NAN","NAN","NAN"],
    [1553109,"2026-05-10 04:30:00","54099","1.065","287.1","1.829","284.6","NAN","NAN","NAN","NAN","NAN"],
    [1553110,"2026-05-10 04:40:00","54100","0.621","282.5","1.176","286.6","NAN","NAN","NAN","NAN","NAN"],
    [1553111,"2026-05-10 04:50:00","54101","0.79","278.4","1.405","278.6","NAN","NAN","NAN","NAN","NAN"],
    [1553112,"2026-05-10 05:00:00","54102","1.004","278.9","1.568","281.5","NAN","NAN","NAN","NAN","NAN"],
    [1553113,"2026-05-10 05:10:00","54103","1.101","278.7","1.601","278","NAN","NAN","NAN","NAN","NAN"],
    [1553114,"2026-05-10 05:20:00","54104","1.127","284.5","1.633","287.6","NAN","NAN","NAN","NAN","NAN"],
    [1553115,"2026-05-10 05:30:00","54105","1.433","276.8","2.221","274.5","NAN","NAN","NAN","NAN","NAN"],
    [1553116,"2026-05-10 05:40:00","54106","1.237","283.2","2.221","282.6","NAN","NAN","NAN","NAN","NAN"],
    [1553117,"2026-05-10 05:50:00","54107","1.351","280.4","2.123","273.5","NAN","NAN","NAN","NAN","NAN"],
    [1553118,"2026-05-10 06:00:00","54108","2.095","271.1","3.169","273.1","NAN","NAN","NAN","NAN","NAN"],
    [1553119,"2026-05-10 06:10:00","54109","2.008","274.8","3.071","274.6","NAN","NAN","NAN","NAN","NAN"],
    [1553120,"2026-05-10 06:20:00","54110","2.2880000000000003","279.9","3.397","281.9","NAN","NAN","NAN","NAN","NAN"],
    [1553121,"2026-05-10 06:30:00","54111","2.392","280.6","4.345","285.2","NAN","NAN","NAN","NAN","NAN"],
    [1553122,"2026-05-10 06:40:00","54112","2.187","272.1","3.528","279.7","NAN","NAN","NAN","NAN","NAN"],
    [1553123,"2026-05-10 06:50:00","54113","2.685","277.3","4.508","289.5","NAN","NAN","NAN","NAN","NAN"],
    [1553124,"2026-05-10 07:00:00","54114","2.821","275.5","5.031","270","NAN","NAN","NAN","NAN","NAN"],
    [1553125,"2026-05-10 07:10:00","54115","3.04","274.0","5.292","265.2","NAN","NAN","NAN","NAN","NAN"],
    [1553126,"2026-05-10 07:20:00","54116","3.1260000000000003","282.1","5.031","278.6","NAN","NAN","NAN","NAN","NAN"],
    [1553127,"2026-05-10 07:30:00","54117","3.09","276.8","4.704","283.4","NAN","NAN","NAN","NAN","NAN"],
    [1553128,"2026-05-10 07:40:00","54118","3.205","271.9","4.508","267.7","NAN","NAN","NAN","NAN","NAN"],
    [1553129,"2026-05-10 07:50:00","54119","2.7969999999999997","267.5","4.737","249.4","NAN","NAN","NAN","NAN","NAN"],
    [1553130,"2026-05-10 08:00:00","54120","4.235","255.1","7.35","245.2","NAN","NAN","NAN","NAN","NAN"],
    [1553131,"2026-05-10 08:10:00","54121","5.635","245.2","9.02","244.5","NAN","NAN","NAN","NAN","NAN"],
    [1553132,"2026-05-10 08:20:00","54122","4.612","246.0","8.2","254.3","NAN","NAN","NAN","NAN","NAN"],
    [1553133,"2026-05-10 08:30:00","54123","4.925","246.8","7.873","241.1","NAN","NAN","NAN","NAN","NAN"],
    [1553134,"2026-05-10 08:40:00","54124","5.334","248.8","8.26","247.5","NAN","NAN","NAN","NAN","NAN"],
    [1553135,"2026-05-10 08:50:00","54125","4.846","241.7","8.56","251.3","NAN","NAN","NAN","NAN","NAN"],
    [1553136,"2026-05-10 09:00:00","54126","5.558","234.1","9.05","218.7","NAN","NAN","NAN","NAN","NAN"],
    [1553137,"2026-05-10 09:10:00","54127","5.318","230.9","9.47","241","NAN","NAN","NAN","NAN","NAN"],
    [1553138,"2026-05-10 09:20:00","54128","5.05","227.5","9.31","219.3","NAN","NAN","NAN","NAN","NAN"],
    [1553139,"2026-05-10 09:30:00","54129","5.186","236.1","10.13","232.1","NAN","NAN","NAN","NAN","NAN"],
    [1553140,"2026-05-10 09:40:00","54130","5.292000000000001","236.6","8.62","254.4","NAN","NAN","NAN","NAN","NAN"],
    [1553141,"2026-05-10 09:50:00","54131","5.51","241.1","9.77","254.9","NAN","NAN","NAN","NAN","NAN"],
    [1553142,"2026-05-10 10:00:00","54132","5.624","234.7","9.51","256.2","NAN","NAN","NAN","NAN","NAN"],
    [1553143,"2026-05-10 10:10:00","54133","6.08","232.5","9.54","259.2","NAN","NAN","NAN","NAN","NAN"],
    [1553144,"2026-05-10 10:20:00","54134","6.14","231.5","10.19","219.8","NAN","NAN","NAN","NAN","NAN"],
    [1553145,"2026-05-10 10:30:00","54135","5.098","227.4","9.38","238.7","NAN","NAN","NAN","NAN","NAN"],
    [1553146,"2026-05-10 10:40:00","54136","5.2829999999999995","221.9","8.95","239.1","NAN","NAN","NAN","NAN","NAN"],
    [1553147,"2026-05-10 10:50:00","54137","5.684","225.1","9.77","219.7","NAN","NAN","NAN","NAN","NAN"],
    [1553148,"2026-05-10 11:00:00","54138","5.834","221.6","9.18","225","NAN","NAN","NAN","NAN","NAN"],
    [1553149,"2026-05-10 11:10:00","54139","5.537000000000001","218.6","9.83","207.1","NAN","NAN","NAN","NAN","NAN"],
    [1553150,"2026-05-10 11:20:00","54140","5.608","222.0","9.57","225.5","NAN","NAN","NAN","NAN","NAN"],
    [1553151,"2026-05-10 11:30:00","54141","6.432","226.7","10","220.7","NAN","NAN","NAN","NAN","NAN"],
    [1553152,"2026-05-10 11:40:00","54142","5.752999999999999","229.7","9.18","232.5","NAN","NAN","NAN","NAN","NAN"],
    [1553153,"2026-05-10 11:50:00","54143","5.129","217.7","8.69","200.7","NAN","NAN","NAN","NAN","NAN"],
    [1553154,"2026-05-10 12:00:00","54144","5.212000000000001","224.0","9.57","236.4","NAN","NAN","NAN","NAN","NAN"],
    [1553155,"2026-05-10 12:10:00","54145","5.766","233.0","9.96","238","NAN","NAN","NAN","NAN","NAN"],
    [1553156,"2026-05-10 12:20:00","54146","5.437","227.5","10","241","NAN","NAN","NAN","NAN","NAN"],
    [1553157,"2026-05-10 12:30:00","54147","5.9879999999999995","218.7","9.64","225.4","NAN","NAN","NAN","NAN","NAN"],
    [1553158,"2026-05-10 12:40:00","54148","5.604","224.8","8.69","214.2","NAN","NAN","NAN","NAN","NAN"],
    [1553159,"2026-05-10 12:50:00","54149","5.266","231.4","9.7","225.5","NAN","NAN","NAN","NAN","NAN"],
    [1553160,"2026-05-10 13:00:00","54150","4.9030000000000005","229.7","8.56","257.3","NAN","NAN","NAN","NAN","NAN"],
    [1553161,"2026-05-10 13:10:00","54151","5.619","226.7","8.72","219.7","NAN","NAN","NAN","NAN","NAN"],
    [1553162,"2026-05-10 13:20:00","54152","5.249","210.9","8.72","203.1","NAN","NAN","NAN","NAN","NAN"],
    [1553163,"2026-05-10 13:30:00","54153","5.362","214.8","9.08","206.6","NAN","NAN","NAN","NAN","NAN"],
    [1553164,"2026-05-10 13:40:00","54154","5.346","220.9","9.64","219.6","NAN","NAN","NAN","NAN","NAN"],
    [1553165,"2026-05-10 13:50:00","54155","5.541","229.7","9.6","220","NAN","NAN","NAN","NAN","NAN"],
    [1553166,"2026-05-10 14:00:00","54156","5.662999999999999","226.2","8.98","228.7","NAN","NAN","NAN","NAN","NAN"],
    [1553167,"2026-05-10 14:10:00","54157","5.934","218.9","9.18","220.2","NAN","NAN","NAN","NAN","NAN"],
    [1553168,"2026-05-10 14:20:00","54158","5.229","223.1","8.62","225.6","NAN","NAN","NAN","NAN","NAN"],
    [1553169,"2026-05-10 14:30:00","54159","5.321000000000001","223.1","9.18","221.8","NAN","NAN","NAN","NAN","NAN"],
    [1553170,"2026-05-10 14:40:00","54160","4.978","224.4","9.18","228.6","NAN","NAN","NAN","NAN","NAN"],
    [1553171,"2026-05-10 14:50:00","54161","4.913","227.7","10.16","233.8","NAN","NAN","NAN","NAN","NAN"],
    [1553172,"2026-05-10 15:00:00","54162","5.82","220.0","10.22","215.8","NAN","NAN","NAN","NAN","NAN"],
    [1553173,"2026-05-10 15:10:00","54163","5.955","230.7","11.14","213","NAN","NAN","NAN","NAN","NAN"],
    [1553174,"2026-05-10 15:20:00","54164","4.678999999999999","227.7","7.905","248.7","NAN","NAN","NAN","NAN","NAN"],
    [1553175,"2026-05-10 15:30:00","54165","5.903","233.6","9.31","228.4","NAN","NAN","NAN","NAN","NAN"],
    [1553176,"2026-05-10 15:40:00","54166","4.0","238.2","7.219","263.1","NAN","NAN","NAN","NAN","NAN"],
    [1553177,"2026-05-10 15:50:00","54167","4.801","221.7","9.24","235.4","NAN","NAN","NAN","NAN","NAN"],
    [1553178,"2026-05-10 16:00:00","54168","5.732","226.1","10.39","215.1","NAN","NAN","NAN","NAN","NAN"],
    [1553179,"2026-05-10 16:10:00","54169","5.706","229.5","9.7","225.4","NAN","NAN","NAN","NAN","NAN"],
    [1553180,"2026-05-10 16:20:00","54170","5.251","231.9","9.44","238.4","NAN","NAN","NAN","NAN","NAN"],
    [1553181,"2026-05-10 16:30:00","54171","4.881","229.5","8.23","234.2","NAN","NAN","NAN","NAN","NAN"],
    [1553182,"2026-05-10 16:40:00","54172","4.727","228.5","9.47","236.5","NAN","NAN","NAN","NAN","NAN"],
    [1553183,"2026-05-10 16:50:00","54173","5.05","230.6","8.92","218.4","NAN","NAN","NAN","NAN","NAN"],
    [1553184,"2026-05-10 17:00:00","54174","4.393","232.9","8.98","249","NAN","NAN","NAN","NAN","NAN"],
    [1553185,"2026-05-10 17:10:00","54175","5.278","240.0","8.95","225.2","NAN","NAN","NAN","NAN","NAN"],
    [1553186,"2026-05-10 17:20:00","54176","5.044","248.9","8.53","255","NAN","NAN","NAN","NAN","NAN"],
    [1553187,"2026-05-10 17:30:00","54177","4.736000000000001","249.6","7.807","242.2","NAN","NAN","NAN","NAN","NAN"],
    [1553188,"2026-05-10 17:40:00","54178","5.242999999999999","242.1","8.62","238.8","NAN","NAN","NAN","NAN","NAN"],
    [1553189,"2026-05-10 17:50:00","54179","4.35","237.0","7.023","259.8","NAN","NAN","NAN","NAN","NAN"],
    [1553190,"2026-05-10 18:00:00","54180","5.2620000000000005","238.2","10.03","229.7","NAN","NAN","NAN","NAN","NAN"],
    [1553191,"2026-05-10 18:10:00","54181","5.662999999999999","247.9","9.41","249.8","NAN","NAN","NAN","NAN","NAN"],
    [1553192,"2026-05-10 18:20:00","54182","5.266","248.4","8.59","253.9","NAN","NAN","NAN","NAN","NAN"],
    [1553193,"2026-05-10 18:30:00","54183","4.297","244.7","7.709","268.2","NAN","NAN","NAN","NAN","NAN"],
    [1553194,"2026-05-10 18:40:00","54184","5.167999999999999","248.2","8.36","240.3","NAN","NAN","NAN","NAN","NAN"],
    [1553195,"2026-05-10 18:50:00","54185","5.117","246.1","8.89","237.3","NAN","NAN","NAN","NAN","NAN"],
    [1553196,"2026-05-10 19:00:00","54186","5.08","247.7","8.26","244.6","NAN","NAN","NAN","NAN","NAN"],
    [1553197,"2026-05-10 19:10:00","54187","4.9030000000000005","248.2","8.95","238.3","NAN","NAN","NAN","NAN","NAN"],
    [1553198,"2026-05-10 19:20:00","54188","4.454","247.3","7.089","247.9","NAN","NAN","NAN","NAN","NAN"],
    [1553199,"2026-05-10 19:30:00","54189","4.022","252.8","5.978","249.1","NAN","NAN","NAN","NAN","NAN"],
    [1553200,"2026-05-10 19:40:00","54190","4.099","251.1","6.207","253.7","NAN","NAN","NAN","NAN","NAN"],
    [1553201,"2026-05-10 19:50:00","54191","3.721","256.0","6.533","251","NAN","NAN","NAN","NAN","NAN"],
    [1553202,"2026-05-10 20:00:00","54192","3.552","258.2","6.174","260.9","NAN","NAN","NAN","NAN","NAN"],
    [1553203,"2026-05-10 20:10:00","54193","3.177","263.8","5.488","271.5","NAN","NAN","NAN","NAN","NAN"],
    [1553204,"2026-05-10 20:20:00","54194","3.8280000000000003","257.8","6.599","264.3","NAN","NAN","NAN","NAN","NAN"],
    [1553205,"2026-05-10 20:30:00","54195","3.0839999999999996","276.4","5.063","274.5","NAN","NAN","NAN","NAN","NAN"],
    [1553206,"2026-05-10 20:40:00","54196","2.8360000000000003","281.4","4.802","273.4","NAN","NAN","NAN","NAN","NAN"],
    [1553207,"2026-05-10 20:50:00","54197","3.569","272.1","5.423","275.3","NAN","NAN","NAN","NAN","NAN"],
    [1553208,"2026-05-10 21:00:00","54198","3.7489999999999997","279.9","6.533","279.7","NAN","NAN","NAN","NAN","NAN"],
    [1553209,"2026-05-10 21:10:00","54199","3.884","276.7","5.717","261.3","NAN","NAN","NAN","NAN","NAN"],
    [1553210,"2026-05-10 21:20:00","54200","4.274","299.0","7.448","315.8","NAN","NAN","NAN","NAN","NAN"],
    [1553211,"2026-05-10 21:30:00","54201","5.002","303.1","8.46","324.7","NAN","NAN","NAN","NAN","NAN"],
    [1553212,"2026-05-10 21:40:00","54202","5.377000000000001","305.6","9.24","316.6","NAN","NAN","NAN","NAN","NAN"],
    [1553213,"2026-05-10 21:50:00","54203","4.285","301.8","7.089","299.2","NAN","NAN","NAN","NAN","NAN"],
    [1553214,"2026-05-10 22:00:00","54204","4.141","307.0","7.84","313.7","NAN","NAN","NAN","NAN","NAN"],
    [1553215,"2026-05-10 22:10:00","54205","3.718","309.9","6.664","323.2","NAN","NAN","NAN","NAN","NAN"],
    [1553216,"2026-05-10 22:20:00","54206","3.8160000000000003","326.9","6.533","331.9","NAN","NAN","NAN","NAN","NAN"],
    [1553217,"2026-05-10 22:30:00","54207","3.8569999999999998","323.0","6.337","305.1","NAN","NAN","NAN","NAN","NAN"],
    [1553218,"2026-05-10 22:40:00","54208","2.8080000000000003","314.5","5.325","316.9","NAN","NAN","NAN","NAN","NAN"],
    [1553219,"2026-05-10 22:50:00","54209","2.661","306.1","4.051","306.2","NAN","NAN","NAN","NAN","NAN"],
    [1553220,"2026-05-10 23:00:00","54210","1.2670000000000001","292.8","2.744","299.9","NAN","NAN","NAN","NAN","NAN"],
    [1553221,"2026-05-10 23:10:00","54211","1.406","285.2","3.038","278.3","NAN","NAN","NAN","NAN","NAN"],
    [1553222,"2026-05-10 23:20:00","54212","2.227","271.6","3.985","272.7","NAN","NAN","NAN","NAN","NAN"],
    [1553223,"2026-05-10 23:30:00","54213","2.46","281.8","4.573","278.9","NAN","NAN","NAN","NAN","NAN"],
    [1553224,"2026-05-10 23:40:00","54214","2.75","285.9","5.129","294.2","NAN","NAN","NAN","NAN","NAN"],
    [1553225,"2026-05-10 23:50:00","54215","2.556","261.6","4.475","263.7","NAN","NAN","NAN","NAN","NAN"],
    [1553226,"2026-05-11 00:00:00","54216","3.2430000000000003","245.1","5.357","245.1","NAN","NAN","NAN","NAN","NAN"],
    [1553227,"2026-05-11 00:10:00","54217","3.116","245.2","5.063","260.7","NAN","NAN","NAN","NAN","NAN"],
    [1553228,"2026-05-11 00:20:00","54218","2.639","246.5","3.92","257.7","NAN","NAN","NAN","NAN","NAN"],
    [1553229,"2026-05-11 00:30:00","54219","2.11","223.2","3.724","220.5","NAN","NAN","NAN","NAN","NAN"],
    [1553230,"2026-05-11 00:40:00","54220","2.572","229.9","4.247","244.2","NAN","NAN","NAN","NAN","NAN"],
    [1553231,"2026-05-11 00:50:00","54221","2.415","244.3","3.561","252.8","NAN","NAN","NAN","NAN","NAN"],
    [1553232,"2026-05-11 01:00:00","54222","1.9169999999999998","247.1","3.365","251.4","NAN","NAN","NAN","NAN","NAN"],
    [1553233,"2026-05-11 01:10:00","54223","1.544","236.3","2.875","238.6","NAN","NAN","NAN","NAN","NAN"],
    [1553234,"2026-05-11 01:20:00","54224","1.015","237.8","2.025","234.9","NAN","NAN","NAN","NAN","NAN"],
    [1553235,"2026-05-11 01:30:00","54225","0.653","238.0","1.568","240","NAN","NAN","NAN","NAN","NAN"],
    [1553236,"2026-05-11 01:40:00","54226","1.395","230.9","2.091","226.7","NAN","NAN","NAN","NAN","NAN"],
    [1553237,"2026-05-11 01:50:00","54227","1.3230000000000002","226.1","2.254","225.3","NAN","NAN","NAN","NAN","NAN"],
    [1553238,"2026-05-11 02:00:00","54228","1.26","232.8","2.221","234.4","NAN","NAN","NAN","NAN","NAN"],
    [1553239,"2026-05-11 02:10:00","54229","0.725","237.7","1.699","237.8","NAN","NAN","NAN","NAN","NAN"],
    [1553240,"2026-05-11 02:20:00","54230","0.603","245.3","1.797","250.2","NAN","NAN","NAN","NAN","NAN"],
    [1553241,"2026-05-11 02:30:00","54231","1.8659999999999999","280.3","3.724","286.2","NAN","NAN","NAN","NAN","NAN"],
    [1553242,"2026-05-11 02:40:00","54232","1.4809999999999999","291.1","2.483","290","NAN","NAN","NAN","NAN","NAN"],
    [1553243,"2026-05-11 02:50:00","54233","1.17","296.8","2.091","293.9","NAN","NAN","NAN","NAN","NAN"],
    [1553244,"2026-05-11 03:00:00","54234","1.33","295.7","2.221","299.3","NAN","NAN","NAN","NAN","NAN"],
    [1553245,"2026-05-11 03:10:00","54235","1.665","295.7","2.842","298.1","NAN","NAN","NAN","NAN","NAN"],
    [1553246,"2026-05-11 03:20:00","54236","1.3330000000000002","287.1","2.189","288","NAN","NAN","NAN","NAN","NAN"],
    [1553247,"2026-05-11 03:30:00","54237","1.169","285.7","2.45","285.7","NAN","NAN","NAN","NAN","NAN"],
    [1553248,"2026-05-11 03:40:00","54238","1.186","282.3","2.091","280.8","NAN","NAN","NAN","NAN","NAN"],
    [1553249,"2026-05-11 03:50:00","54239","1.314","274.3","2.777","267.5","NAN","NAN","NAN","NAN","NAN"],
    [1553250,"2026-05-11 04:00:00","54240","1.571","265.4","2.613","263.9","NAN","NAN","NAN","NAN","NAN"],
    [1553251,"2026-05-11 04:10:00","54241","1.7630000000000001","264.2","2.809","268.5","NAN","NAN","NAN","NAN","NAN"],
    [1553252,"2026-05-11 04:20:00","54242","1.589","268.0","2.581","271.2","NAN","NAN","NAN","NAN","NAN"],
    [1553253,"2026-05-11 04:30:00","54243","1.4869999999999999","276.3","3.169","274.6","NAN","NAN","NAN","NAN","NAN"],
    [1553254,"2026-05-11 04:40:00","54244","0.905","279.0","2.058","281","NAN","NAN","NAN","NAN","NAN"],
    [1553255,"2026-05-11 04:50:00","54245","1.3869999999999998","279.5","2.613","281","NAN","NAN","NAN","NAN","NAN"],
    [1553256,"2026-05-11 05:00:00","54246","1.218","282.0","2.254","283.2","NAN","NAN","NAN","NAN","NAN"],
    [1553257,"2026-05-11 05:10:00","54247","1.347","284.5","2.319","285.2","NAN","NAN","NAN","NAN","NAN"],
    [1553258,"2026-05-11 05:20:00","54248","1.308","278.5","2.515","283.7","NAN","NAN","NAN","NAN","NAN"],
    [1553259,"2026-05-11 05:30:00","54249","1.097","273.2","2.091","274.7","NAN","NAN","NAN","NAN","NAN"],
    [1553260,"2026-05-11 05:40:00","54250","1.083","270.6","1.96","269.9","NAN","NAN","NAN","NAN","NAN"],
    [1553261,"2026-05-11 05:50:00","54251","0.865","281.0","2.091","278.8","NAN","NAN","NAN","NAN","NAN"],
    [1553262,"2026-05-11 06:00:00","54252","0.813","288.0","1.862","289.8","NAN","NAN","NAN","NAN","NAN"],
    [1553263,"2026-05-11 06:10:00","54253","0.757","290.2","1.927","291","NAN","NAN","NAN","NAN","NAN"],
    [1553264,"2026-05-11 06:20:00","54254","0.6709999999999999","291.7","1.96","292.5","NAN","NAN","NAN","NAN","NAN"],
    [1553265,"2026-05-11 06:30:00","54255","0.5489999999999999","293.1","1.241","292.8","NAN","NAN","NAN","NAN","NAN"],
    [1553266,"2026-05-11 06:40:00","54256","1.1740000000000002","292.8","2.287","294.6","NAN","NAN","NAN","NAN","NAN"],
    [1553267,"2026-05-11 06:50:00","54257","1.8780000000000001","297.5","2.973","301.4","NAN","NAN","NAN","NAN","NAN"],
    [1553268,"2026-05-11 07:00:00","54258","2.043","304.2","4.214","297.8","NAN","NAN","NAN","NAN","NAN"],
    [1553269,"2026-05-11 07:10:00","54259","2.708","263.0","4.541","244.1","NAN","NAN","NAN","NAN","NAN"],
    [1553270,"2026-05-11 07:20:00","54260","2.2159999999999997","270.5","3.169","271.4","NAN","NAN","NAN","NAN","NAN"],
    [1553271,"2026-05-11 07:30:00","54261","1.462","277.6","4.181","269.9","NAN","NAN","NAN","NAN","NAN"],
    [1553272,"2026-05-11 07:40:00","54262","1.659","278.6","3.169","273.7","NAN","NAN","NAN","NAN","NAN"],
    [1553273,"2026-05-11 07:50:00","54263","1.641","279.8","3.463","268.5","NAN","NAN","NAN","NAN","NAN"],
    [1553274,"2026-05-11 08:00:00","54264","0.9159999999999999","282.8","2.613","270.1","NAN","NAN","NAN","NAN","NAN"],
    [1553275,"2026-05-11 08:10:00","54265","0.807","289.1","2.189","288.8","NAN","NAN","NAN","NAN","NAN"],
    [1553276,"2026-05-11 08:20:00","54266","1.043","265.4","3.397","253.2","NAN","NAN","NAN","NAN","NAN"],
    [1553277,"2026-05-11 08:30:00","54267","0.45399999999999996","225.7","2.483","230.4","NAN","NAN","NAN","NAN","NAN"],
    [1553278,"2026-05-11 08:40:00","54268","1.038","250.5","3.071","279.6","NAN","NAN","NAN","NAN","NAN"],
    [1553279,"2026-05-11 08:50:00","54269","2.5540000000000003","303.8","4.279","311.8","NAN","NAN","NAN","NAN","NAN"],
    [1553280,"2026-05-11 09:00:00","54270","2.5989999999999998","292.8","4.41","270","NAN","NAN","NAN","NAN","NAN"],
    [1553281,"2026-05-11 09:10:00","54271","2.144","282.4","3.985","269","NAN","NAN","NAN","NAN","NAN"],
    [1553282,"2026-05-11 09:20:00","54272","1.7209999999999999","290.6","3.561","280.9","NAN","NAN","NAN","NAN","NAN"],
    [1553283,"2026-05-11 09:30:00","54273","2.121","310.7","5.096","326","NAN","NAN","NAN","NAN","NAN"],
    [1553284,"2026-05-11 09:40:00","54274","0.983","279.2","3.201","295.2","NAN","NAN","NAN","NAN","NAN"],
    [1553285,"2026-05-11 09:50:00","54275","1.5130000000000001","238.5","3.397","211.8","NAN","NAN","NAN","NAN","NAN"],
    [1553286,"2026-05-11 10:00:00","54276","1.776","209.3","3.169","208.4","NAN","NAN","NAN","NAN","NAN"],
    [1553287,"2026-05-11 10:10:00","54277","1.679","229.1","3.855","213.9","NAN","NAN","NAN","NAN","NAN"],
    [1553288,"2026-05-11 10:20:00","54278","2.838","208.2","6.697","5.053","NAN","NAN","NAN","NAN","NAN"],
    [1553289,"2026-05-11 10:30:00","54279","3.208","280.9","7.219","4.476","NAN","NAN","NAN","NAN","NAN"],
    [1553290,"2026-05-11 10:40:00","54280","3.716","306.9","7.317","296.2","NAN","NAN","NAN","NAN","NAN"],
    [1553291,"2026-05-11 10:50:00","54281","3.8989999999999996","292.7","7.023","287.4","NAN","NAN","NAN","NAN","NAN"],
    [1553292,"2026-05-11 11:00:00","54282","4.475","309.2","7.056","329.4","NAN","NAN","NAN","NAN","NAN"],
    [1553293,"2026-05-11 11:10:00","54283","2.1109999999999998","307.9","4.933","327.9","NAN","NAN","NAN","NAN","NAN"],
    [1553294,"2026-05-11 11:20:00","54284","2.84","247.7","5.129","266.9","NAN","NAN","NAN","NAN","NAN"],
    [1553295,"2026-05-11 11:30:00","54285","4.74","224.7","9.41","205.7","NAN","NAN","NAN","NAN","NAN"],
    [1553296,"2026-05-11 11:40:00","54286","5.42","215.7","8.66","212.3","NAN","NAN","NAN","NAN","NAN"],
    [1553297,"2026-05-11 11:50:00","54287","4.878","220.9","8.36","202.9","NAN","NAN","NAN","NAN","NAN"],
    [1553298,"2026-05-11 12:00:00","54288","4.794","217.0","8.13","209.5","NAN","NAN","NAN","NAN","NAN"],
    [1553299,"2026-05-11 12:10:00","54289","5.817","213.3","8.95","210.9","NAN","NAN","NAN","NAN","NAN"],
    [1553300,"2026-05-11 12:20:00","54290","5.662999999999999","208.8","8.89","207.9","NAN","NAN","NAN","NAN","NAN"],
    [1553301,"2026-05-11 12:30:00","54291","4.16","199.7","7.611","213","NAN","NAN","NAN","NAN","NAN"],
    [1553302,"2026-05-11 12:40:00","54292","4.784","224.6","8.13","242","NAN","NAN","NAN","NAN","NAN"],
    [1553303,"2026-05-11 12:50:00","54293","5.542999999999999","228.4","9.38","241.6","NAN","NAN","NAN","NAN","NAN"],
    [1553304,"2026-05-11 13:00:00","54294","5.686","217.7","9.28","223.1","NAN","NAN","NAN","NAN","NAN"],
    [1553305,"2026-05-11 13:10:00","54295","5.37","228.6","9.87","241.1","NAN","NAN","NAN","NAN","NAN"],
    [1553306,"2026-05-11 13:20:00","54296","5.3870000000000005","223.4","9.51","215.5","NAN","NAN","NAN","NAN","NAN"],
    [1553307,"2026-05-11 13:30:00","54297","5.193","223.8","9.11","221.2","NAN","NAN","NAN","NAN","NAN"],
    [1553308,"2026-05-11 13:40:00","54298","5.596","224.6","9.54","220","NAN","NAN","NAN","NAN","NAN"],
    [1553309,"2026-05-11 13:50:00","54299","5.367000000000001","226.9","10.29","215.4","NAN","NAN","NAN","NAN","NAN"],
    [1553310,"2026-05-11 14:00:00","54300","5.47","227.7","9.9","202.9","NAN","NAN","NAN","NAN","NAN"],
    [1553311,"2026-05-11 14:10:00","54301","6.058","226.3","10.42","219","NAN","NAN","NAN","NAN","NAN"],
    [1553312,"2026-05-11 14:20:00","54302","6.077000000000001","233.0","11.04","222.4","NAN","NAN","NAN","NAN","NAN"],
    [1553313,"2026-05-11 14:30:00","54303","6.742000000000001","234.5","11.86","233","NAN","NAN","NAN","NAN","NAN"],
    [1553314,"2026-05-11 14:40:00","54304","6.44","231.8","10.85","234.7","NAN","NAN","NAN","NAN","NAN"],
    [1553315,"2026-05-11 14:50:00","54305","5.994","211.6","9.83","223.8","NAN","NAN","NAN","NAN","NAN"],
    [1553316,"2026-05-11 15:00:00","54306","5.4879999999999995","225.4","10.13","243.1","NAN","NAN","NAN","NAN","NAN"],
    [1553317,"2026-05-11 15:10:00","54307","6.141","231.1","11.79","235.6","NAN","NAN","NAN","NAN","NAN"],
    [1553318,"2026-05-11 15:20:00","54308","6.882000000000001","229.7","12.05","220.6","NAN","NAN","NAN","NAN","NAN"],
    [1553319,"2026-05-11 15:30:00","54309","6.362","233.9","11.66","240.3","NAN","NAN","NAN","NAN","NAN"],
    [1553320,"2026-05-11 15:40:00","54310","7.249","224.3","12.48","216.4","NAN","NAN","NAN","NAN","NAN"],
    [1553321,"2026-05-11 15:50:00","54311","7.016","223.4","12.12","222.2","NAN","NAN","NAN","NAN","NAN"],
    [1553322,"2026-05-11 16:00:00","54312","6.247999999999999","230.6","11.86","209.4","NAN","NAN","NAN","NAN","NAN"],
    [1553323,"2026-05-11 16:10:00","54313","6.8389999999999995","228.6","13.98","226","NAN","NAN","NAN","NAN","NAN"],
    [1553324,"2026-05-11 16:20:00","54314","5.726","225.3","9.87","228.7","NAN","NAN","NAN","NAN","NAN"],
    [1553325,"2026-05-11 16:30:00","54315","5.539","235.3","11.83","238.2","NAN","NAN","NAN","NAN","NAN"],
    [1553326,"2026-05-11 16:40:00","54316","6.511","227.5","11.34","229.6","NAN","NAN","NAN","NAN","NAN"],
    [1553327,"2026-05-11 16:50:00","54317","5.978","230.7","10.39","227.1","NAN","NAN","NAN","NAN","NAN"],
    [1553328,"2026-05-11 17:00:00","54318","6.37","235.4","11.01","246.9","NAN","NAN","NAN","NAN","NAN"],
    [1553329,"2026-05-11 17:10:00","54319","6.263","241.0","11.73","242.7","NAN","NAN","NAN","NAN","NAN"],
    [1553330,"2026-05-11 17:20:00","54320","6.46","244.2","10.55","246.4","NAN","NAN","NAN","NAN","NAN"],
    [1553331,"2026-05-11 17:30:00","54321","6.501","242.0","11.76","235.8","NAN","NAN","NAN","NAN","NAN"],
    [1553332,"2026-05-11 17:40:00","54322","6.515","241.5","11.96","239.8","NAN","NAN","NAN","NAN","NAN"],
    [1553333,"2026-05-11 17:50:00","54323","5.63","239.0","10.39","248.6","NAN","NAN","NAN","NAN","NAN"],
    [1553334,"2026-05-11 18:00:00","54324","5.568","237.9","10.49","246.2","NAN","NAN","NAN","NAN","NAN"],
    [1553335,"2026-05-11 18:10:00","54325","5.797999999999999","242.4","10.91","245.7","NAN","NAN","NAN","NAN","NAN"],
    [1553336,"2026-05-11 18:20:00","54326","5.443","244.1","8.33","243.1","NAN","NAN","NAN","NAN","NAN"],
    [1553337,"2026-05-11 18:30:00","54327","5.1339999999999995","235.0","9.02","223.6","NAN","NAN","NAN","NAN","NAN"],
    [1553338,"2026-05-11 18:40:00","54328","4.248","234.5","7.84","225.6","NAN","NAN","NAN","NAN","NAN"],
    [1553339,"2026-05-11 18:50:00","54329","3.888","233.4","7.448","220.8","NAN","NAN","NAN","NAN","NAN"],
    [1553340,"2026-05-11 19:00:00","54330","3.158","246.6","5.815","255.8","NAN","NAN","NAN","NAN","NAN"],
    [1553341,"2026-05-11 19:10:00","54331","2.324","250.2","5.031","247.2","NAN","NAN","NAN","NAN","NAN"],
    [1553342,"2026-05-11 19:20:00","54332","3.002","249.6","5.227","248.9","NAN","NAN","NAN","NAN","NAN"],
    [1553343,"2026-05-11 19:30:00","54333","2.825","252.8","6.011","251.4","NAN","NAN","NAN","NAN","NAN"],
    [1553344,"2026-05-11 19:40:00","54334","3.037","256.5","5.684","254.6","NAN","NAN","NAN","NAN","NAN"],
    [1553345,"2026-05-11 19:50:00","54335","2.81","258.0","4.639","257.1","NAN","NAN","NAN","NAN","NAN"],
    [1553346,"2026-05-11 20:00:00","54336","2.978","257.4","6.239","273","NAN","NAN","NAN","NAN","NAN"],
    [1553347,"2026-05-11 20:10:00","54337","2.9530000000000003","263.6","6.599","260.9","NAN","NAN","NAN","NAN","NAN"],
    [1553348,"2026-05-11 20:20:00","54338","3.2710000000000004","261.1","5.913","258.4","NAN","NAN","NAN","NAN","NAN"],
    [1553349,"2026-05-11 20:30:00","54339","3.02","248.5","5.553","230","NAN","NAN","NAN","NAN","NAN"],
    [1553350,"2026-05-11 20:40:00","54340","2.685","228.7","4.933","234.7","NAN","NAN","NAN","NAN","NAN"],
    [1553351,"2026-05-11 20:50:00","54341","2.69","230.5","4.867","224","NAN","NAN","NAN","NAN","NAN"],
    [1553352,"2026-05-11 21:00:00","54342","2.6919999999999997","241.2","4.508","239.8","NAN","NAN","NAN","NAN","NAN"],
    [1553353,"2026-05-11 21:10:00","54343","2.4090000000000003","235.7","3.659","249.4","NAN","NAN","NAN","NAN","NAN"],
    [1553354,"2026-05-11 21:20:00","54344","1.8719999999999999","222.6","3.43","221.5","NAN","NAN","NAN","NAN","NAN"],
    [1553355,"2026-05-11 21:30:00","54345","1.088","215.3","2.842","216.6","NAN","NAN","NAN","NAN","NAN"],
    [1553356,"2026-05-11 21:40:00","54346","0.43799999999999994","224.9","2.189","233","NAN","NAN","NAN","NAN","NAN"],
    [1553357,"2026-05-11 21:50:00","54347","0.33","236.3","1.503","236.1","NAN","NAN","NAN","NAN","NAN"],
    [1553358,"2026-05-11 22:00:00","54348","0.9079999999999999","237.7","1.829","237.4","NAN","NAN","NAN","NAN","NAN"],
    [1553359,"2026-05-11 22:10:00","54349","0.5529999999999999","238.3","2.515","238.2","NAN","NAN","NAN","NAN","NAN"],
    [1553360,"2026-05-11 22:20:00","54350","0.18899999999999997","238.4","0.882","238.5","NAN","NAN","NAN","NAN","NAN"],
    [1553361,"2026-05-11 22:30:00","54351","0.747","238.8","1.829","238.6","NAN","NAN","NAN","NAN","NAN"],
    [1553362,"2026-05-11 22:40:00","54352","0.361","237.9","1.633","238.8","NAN","NAN","NAN","NAN","NAN"],
    [1553363,"2026-05-11 22:50:00","54353","1.136","215.3","2.058","217.4","NAN","NAN","NAN","NAN","NAN"],
    [1553364,"2026-05-11 23:00:00","54354","0.272","130.3","0.817","132.3","NAN","NAN","NAN","NAN","NAN"],
    [1553365,"2026-05-11 23:10:00","54355","0.91","106.4","2.417","102.5","NAN","NAN","NAN","NAN","NAN"],
    [1553366,"2026-05-11 23:20:00","54356","1.1079999999999999","90.3","2.352","90.1","NAN","NAN","NAN","NAN","NAN"],
    [1553367,"2026-05-11 23:30:00","54357","0.505","90.0","1.372","90","NAN","NAN","NAN","NAN","NAN"],
    [1553368,"2026-05-11 23:40:00","54358","0.414","90.0","1.176","90","NAN","NAN","NAN","NAN","NAN"],
    [1553369,"2026-05-11 23:50:00","54359","0.802","90.0","1.47","90","NAN","NAN","NAN","NAN","NAN"],
    [1553370,"2026-05-12 00:00:00","54360","0.726","90.1","1.829","90.1","NAN","NAN","NAN","NAN","NAN"],
    [1553371,"2026-05-12 00:10:00","54361","1.015","90.1","1.993","90","NAN","NAN","NAN","NAN","NAN"],
    [1553372,"2026-05-12 00:20:00","54362","1.34","89.7","2.189","89.9","NAN","NAN","NAN","NAN","NAN"],
    [1553373,"2026-05-12 00:30:00","54363","0.828","89.6","1.797","89.6","NAN","NAN","NAN","NAN","NAN"],
    [1553374,"2026-05-12 00:40:00","54364","0.396","89.5","1.535","89.5","NAN","NAN","NAN","NAN","NAN"],
    [1553375,"2026-05-12 00:50:00","54365","0.024","89.5","0.49","89.5","NAN","NAN","NAN","NAN","NAN"],
    [1553376,"2026-05-12 01:00:00","54366","0.008","89.5","0.229","89.5","NAN","NAN","NAN","NAN","NAN"],
    [1553377,"2026-05-12 01:10:00","54367","0.0","0.0","0","0","NAN","NAN","NAN","NAN","NAN"],
    [1553378,"2026-05-12 01:20:00","54368","0.0","0.0","0","0","NAN","NAN","NAN","NAN","NAN"],
    [1553379,"2026-05-12 01:30:00","54369","0.07400000000000001","89.4","0.621","89.3","NAN","NAN","NAN","NAN","NAN"],
    [1553380,"2026-05-12 01:40:00","54370","0.493","89.4","1.143","89.4","NAN","NAN","NAN","NAN","NAN"],
    [1553381,"2026-05-12 01:50:00","54371","0.031","89.4","0.49","89.4","NAN","NAN","NAN","NAN","NAN"],
    [1553382,"2026-05-12 02:00:00","54372","0.0","0.0","0","0","NAN","NAN","NAN","NAN","NAN"],
    [1553383,"2026-05-12 02:10:00","54373","0.597","91.7","1.111","92.4","NAN","NAN","NAN","NAN","NAN"],
    [1553384,"2026-05-12 02:20:00","54374","0.71","96.3","1.307","104.5","NAN","NAN","NAN","NAN","NAN"],
    [1553385,"2026-05-12 02:30:00","54375","1.145","108.5","1.829","111","NAN","NAN","NAN","NAN","NAN"],
    [1553386,"2026-05-12 02:40:00","54376","1.53","112.7","2.385","112.2","NAN","NAN","NAN","NAN","NAN"],
    [1553387,"2026-05-12 02:50:00","54377","0.92","113.4","2.058","113.4","NAN","NAN","NAN","NAN","NAN"],
    [1553388,"2026-05-12 03:00:00","54378","0.98","113.4","1.535","113.4","NAN","NAN","NAN","NAN","NAN"],
    [1553389,"2026-05-12 03:10:00","54379","1.117","105.6","2.156","113.5","NAN","NAN","NAN","NAN","NAN"],
    [1553390,"2026-05-12 03:20:00","54380","0.38299999999999995","92.7","1.274","92.8","NAN","NAN","NAN","NAN","NAN"],
    [1553391,"2026-05-12 03:30:00","54381","0.129","95.4","0.882","95.9","NAN","NAN","NAN","NAN","NAN"],
    [1553392,"2026-05-12 03:40:00","54382","0.19399999999999998","95.3","0.686","94.6","NAN","NAN","NAN","NAN","NAN"],
    [1553393,"2026-05-12 03:50:00","54383","0.125","94.2","0.719","93.8","NAN","NAN","NAN","NAN","NAN"],
    [1553394,"2026-05-12 04:00:00","54384","0.778","93.2","1.405","101.2","NAN","NAN","NAN","NAN","NAN"],
    [1553395,"2026-05-12 04:10:00","54385","0.848","112.8","1.633","113.4","NAN","NAN","NAN","NAN","NAN"],
    [1553396,"2026-05-12 04:20:00","54386","0.8859999999999999","106.3","2.189","113.6","NAN","NAN","NAN","NAN","NAN"],
    [1553397,"2026-05-12 04:30:00","54387","0.612","101.1","1.372","93.1","NAN","NAN","NAN","NAN","NAN"],
    [1553398,"2026-05-12 04:40:00","54388","1.2209999999999999","103.9","1.731","113","NAN","NAN","NAN","NAN","NAN"],
    [1553399,"2026-05-12 04:50:00","54389","0.44799999999999995","96.5","1.405","92.5","NAN","NAN","NAN","NAN","NAN"],
    [1553400,"2026-05-12 05:00:00","54390","1.143","106.9","2.025","113.4","NAN","NAN","NAN","NAN","NAN"],
    [1553401,"2026-05-12 05:10:00","54391","1.597","114.3","2.287","114.2","NAN","NAN","NAN","NAN","NAN"],
    [1553402,"2026-05-12 05:20:00","54392","1.217","115.1","1.829","115.2","NAN","NAN","NAN","NAN","NAN"],
    [1553403,"2026-05-12 05:30:00","54393","1.255","115.6","2.058","115.4","NAN","NAN","NAN","NAN","NAN"],
    [1553404,"2026-05-12 05:40:00","54394","1.186","116.1","1.927","116.2","NAN","NAN","NAN","NAN","NAN"],
    [1553405,"2026-05-12 05:50:00","54395","0.865","116.3","1.47","116.3","NAN","NAN","NAN","NAN","NAN"],
    [1553406,"2026-05-12 06:00:00","54396","0.652","116.4","1.731","116.4","NAN","NAN","NAN","NAN","NAN"],
    [1553407,"2026-05-12 06:10:00","54397","0.971","114.0","1.797","116.6","NAN","NAN","NAN","NAN","NAN"],
    [1553408,"2026-05-12 06:20:00","54398","0.9390000000000001","95.9","1.666","95.1","NAN","NAN","NAN","NAN","NAN"],
    [1553409,"2026-05-12 06:30:00","54399","0.41100000000000003","93.4","1.405","93.5","NAN","NAN","NAN","NAN","NAN"],
    [1553410,"2026-05-12 06:40:00","54400","0.879","95.5","1.797","92","NAN","NAN","NAN","NAN","NAN"],
    [1553411,"2026-05-12 06:50:00","54401","0.9520000000000001","90.8","1.535","91.3","NAN","NAN","NAN","NAN","NAN"],
    [1553412,"2026-05-12 07:00:00","54402","0.594","86.8","1.111","89.9","NAN","NAN","NAN","NAN","NAN"],
    [1553413,"2026-05-12 07:10:00","54403","0.316","66.73","1.731","49.22","NAN","NAN","NAN","NAN","NAN"],
    [1553414,"2026-05-12 07:20:00","54404","1.671","32.39","2.875","32.87","NAN","NAN","NAN","NAN","NAN"],
    [1553415,"2026-05-12 07:30:00","54405","2.138","21.41","3.561","59.79","NAN","NAN","NAN","NAN","NAN"],
    [1553416,"2026-05-12 07:40:00","54406","2.43","63.97","3.659","67.49","NAN","NAN","NAN","NAN","NAN"],
    [1553417,"2026-05-12 07:50:00","54407","2.801","60.01","4.312","64.47","NAN","NAN","NAN","NAN","NAN"],
    [1553418,"2026-05-12 08:00:00","54408","3.076","70.79","4.051","68.23","NAN","NAN","NAN","NAN","NAN"],
    [1553419,"2026-05-12 08:10:00","54409","3.5669999999999997","70.88","4.508","77.6","NAN","NAN","NAN","NAN","NAN"],
    [1553420,"2026-05-12 08:20:00","54410","4.691","67.31","5.749","67.04","NAN","NAN","NAN","NAN","NAN"],
    [1553421,"2026-05-12 08:30:00","54411","4.803999999999999","66.11","6.207","64.73","NAN","NAN","NAN","NAN","NAN"],
    [1553422,"2026-05-12 08:40:00","54412","4.612","65.87","6.076","60.25","NAN","NAN","NAN","NAN","NAN"],
    [1553423,"2026-05-12 08:50:00","54413","4.854","70.51","6.337","70.44","NAN","NAN","NAN","NAN","NAN"],
    [1553424,"2026-05-12 09:00:00","54414","4.114","72.09","5.88","68.53","NAN","NAN","NAN","NAN","NAN"],
    [1553425,"2026-05-12 09:10:00","54415","4.3580000000000005","71.01","6.435","64.19","NAN","NAN","NAN","NAN","NAN"],
    [1553426,"2026-05-12 09:20:00","54416","4.006","71.07","5.945","67.92","NAN","NAN","NAN","NAN","NAN"],
    [1553427,"2026-05-12 09:30:00","54417","3.466","99.6","5.847","101.3","NAN","NAN","NAN","NAN","NAN"],
    [1553428,"2026-05-12 09:40:00","54418","3.259","97.8","5.161","101.5","NAN","NAN","NAN","NAN","NAN"],
    [1553429,"2026-05-12 09:50:00","54419","3.5639999999999996","99.5","6.076","87.5","NAN","NAN","NAN","NAN","NAN"],
    [1553430,"2026-05-12 10:00:00","54420","4.195","99.8","5.88","90.7","NAN","NAN","NAN","NAN","NAN"],
    [1553431,"2026-05-12 10:10:00","54421","3.949","98.8","5.488","95.3","NAN","NAN","NAN","NAN","NAN"],
    [1553432,"2026-05-12 10:20:00","54422","3.2460000000000004","91.7","5.39","80","NAN","NAN","NAN","NAN","NAN"],
    [1553433,"2026-05-12 10:30:00","54423","4.013","69.19","5.815","68.49","NAN","NAN","NAN","NAN","NAN"],
    [1553434,"2026-05-12 10:40:00","54424","3.551","65.03","5.651","66.71","NAN","NAN","NAN","NAN","NAN"],
    [1553435,"2026-05-12 10:50:00","54425","3.3480000000000003","74.15","5.031","63.25","NAN","NAN","NAN","NAN","NAN"],
    [1553436,"2026-05-12 11:00:00","54426","3.431","79.37","5.357","57.46","NAN","NAN","NAN","NAN","NAN"],
    [1553437,"2026-05-12 11:10:00","54427","3.096","91.0","5.521","91.6","NAN","NAN","NAN","NAN","NAN"],
    [1553438,"2026-05-12 11:20:00","54428","3.695","100.8","5.88","101","NAN","NAN","NAN","NAN","NAN"],
    [1553439,"2026-05-12 11:30:00","54429","3.576","109.6","5.684","84.2","NAN","NAN","NAN","NAN","NAN"],
    [1553440,"2026-05-12 11:40:00","54430","3.1010000000000004","105.0","5.749","89.1","NAN","NAN","NAN","NAN","NAN"],
    [1553441,"2026-05-12 11:50:00","54431","4.4639999999999995","115.6","6.599","112.2","NAN","NAN","NAN","NAN","NAN"],
    [1553442,"2026-05-12 12:00:00","54432","4.306","119.7","6.305","105.5","NAN","NAN","NAN","NAN","NAN"],
    [1553443,"2026-05-12 12:10:00","54433","4.236000000000001","111.5","7.154","109.6","NAN","NAN","NAN","NAN","NAN"],
    [1553444,"2026-05-12 12:20:00","54434","4.997","109.6","7.579","105","NAN","NAN","NAN","NAN","NAN"],
    [1553445,"2026-05-12 12:30:00","54435","4.747","110.8","7.807","128.9","NAN","NAN","NAN","NAN","NAN"],
    [1553446,"2026-05-12 12:40:00","54436","5.129","108.6","7.938","116.5","NAN","NAN","NAN","NAN","NAN"],
    [1553447,"2026-05-12 12:50:00","54437","4.282","98.9","7.056","98","NAN","NAN","NAN","NAN","NAN"],
    [1553448,"2026-05-12 13:00:00","54438","4.746","99.8","8","99","NAN","NAN","NAN","NAN","NAN"],
    [1553449,"2026-05-12 13:10:00","54439","3.859","101.2","7.252","97.5","NAN","NAN","NAN","NAN","NAN"],
    [1553450,"2026-05-12 13:20:00","54440","4.051","100.2","6.468","95","NAN","NAN","NAN","NAN","NAN"],
    [1553451,"2026-05-12 13:30:00","54441","3.395","100.2","5.586","97.6","NAN","NAN","NAN","NAN","NAN"],
    [1553452,"2026-05-12 13:40:00","54442","3.4339999999999997","116.9","6.305","111.2","NAN","NAN","NAN","NAN","NAN"],
    [1553453,"2026-05-12 13:50:00","54443","3.898","128.6","6.37","123.4","NAN","NAN","NAN","NAN","NAN"],
    [1553454,"2026-05-12 14:00:00","54444","3.937","124.8","5.913","132.7","NAN","NAN","NAN","NAN","NAN"],
    [1553455,"2026-05-12 14:10:00","54445","3.595","108.0","5.39","118.3","NAN","NAN","NAN","NAN","NAN"],
    [1553456,"2026-05-12 14:20:00","54446","3.043","103.0","5.292","94","NAN","NAN","NAN","NAN","NAN"],
    [1553457,"2026-05-12 14:30:00","54447","3.395","106.4","5.913","109.5","NAN","NAN","NAN","NAN","NAN"],
    [1553458,"2026-05-12 14:40:00","54448","3.252","98.6","5.651","91.3","NAN","NAN","NAN","NAN","NAN"],
    [1553459,"2026-05-12 14:50:00","54449","3.6630000000000003","97.1","6.795","91.5","NAN","NAN","NAN","NAN","NAN"],
    [1553460,"2026-05-12 15:00:00","54450","3.27","90.3","6.011","120.1","NAN","NAN","NAN","NAN","NAN"],
    [1553461,"2026-05-12 15:10:00","54451","3.697","113.1","5.684","111.6","NAN","NAN","NAN","NAN","NAN"],
    [1553462,"2026-05-12 15:20:00","54452","3.801","110.6","5.847","117.3","NAN","NAN","NAN","NAN","NAN"],
    [1553463,"2026-05-12 15:30:00","54453","3.065","114.4","5.259","113.4","NAN","NAN","NAN","NAN","NAN"],
    [1553464,"2026-05-12 15:40:00","54454","2.6489999999999996","116.8","4.541","116.6","NAN","NAN","NAN","NAN","NAN"],
    [1553465,"2026-05-12 15:50:00","54455","2.8510000000000004","62.98","7.481","359.6","NAN","NAN","NAN","NAN","NAN"],
    [1553466,"2026-05-12 16:00:00","54456","2.2319999999999998","334.6","8.85","326.5","NAN","NAN","NAN","NAN","NAN"],
    [1553467,"2026-05-12 16:10:00","54457","2.603","9.4","4.737","10.22","NAN","NAN","NAN","NAN","NAN"],
    [1553468,"2026-05-12 16:20:00","54458","2.089","14.72","4.737","13.82","NAN","NAN","NAN","NAN","NAN"],
    [1553469,"2026-05-12 16:30:00","54459","0.47100000000000003","27.31","3.397","120.4","NAN","NAN","NAN","NAN","NAN"],
    [1553470,"2026-05-12 16:40:00","54460","3.31","113.7","6.043","137.3","NAN","NAN","NAN","NAN","NAN"],
    [1553471,"2026-05-12 16:50:00","54461","2.9819999999999998","81.4","5.129","69.95","NAN","NAN","NAN","NAN","NAN"],
    [1553472,"2026-05-12 17:00:00","54462","3.135","61.58","5.847","72.18","NAN","NAN","NAN","NAN","NAN"],
    [1553473,"2026-05-12 17:10:00","54463","1.784","42.54","3.234","44.2","NAN","NAN","NAN","NAN","NAN"],
    [1553474,"2026-05-12 17:20:00","54464","1.5230000000000001","29.81","3.038","32.65","NAN","NAN","NAN","NAN","NAN"],
    [1553475,"2026-05-12 17:30:00","54465","0.935","26.42","2.352","29.25","NAN","NAN","NAN","NAN","NAN"],
    [1553476,"2026-05-12 17:40:00","54466","0.258","27.88","1.503","24.59","NAN","NAN","NAN","NAN","NAN"],
    [1553477,"2026-05-12 17:50:00","54467","1.272","51.56","2.417","51.9","NAN","NAN","NAN","NAN","NAN"],
    [1553478,"2026-05-12 18:00:00","54468","1.8840000000000001","91.8","4.149","86.9","NAN","NAN","NAN","NAN","NAN"],
    [1553479,"2026-05-12 18:10:00","54469","2.605","99.5","4.639","87.4","NAN","NAN","NAN","NAN","NAN"],
    [1553480,"2026-05-12 18:20:00","54470","1.909","90.0","4.312","86.6","NAN","NAN","NAN","NAN","NAN"],
    [1553481,"2026-05-12 18:30:00","54471","2.783","71.42","5.357","67.61","NAN","NAN","NAN","NAN","NAN"],
    [1553482,"2026-05-12 18:40:00","54472","2.082","55.95","4.377","63.17","NAN","NAN","NAN","NAN","NAN"],
    [1553483,"2026-05-12 18:50:00","54473","2.7769999999999997","56.89","4.312","71.16","NAN","NAN","NAN","NAN","NAN"],
    [1553484,"2026-05-12 19:00:00","54474","1.876","11.42","3.953","354.5","NAN","NAN","NAN","NAN","NAN"],
    [1553485,"2026-05-12 19:10:00","54475","1.8119999999999998","54.31","2.973","53.37","NAN","NAN","NAN","NAN","NAN"],
    [1553486,"2026-05-12 19:20:00","54476","0.809","60.01","1.895","59.66","NAN","NAN","NAN","NAN","NAN"],
    [1553487,"2026-05-12 19:30:00","54477","0.021","60.78","0.294","60.78","NAN","NAN","NAN","NAN","NAN"],
    [1553488,"2026-05-12 19:40:00","54478","0.107","60.88","0.719","60.88","NAN","NAN","NAN","NAN","NAN"],
    [1553489,"2026-05-12 19:50:00","54479","0.0","0.0","0","0","NAN","NAN","NAN","NAN","NAN"],
    [1553490,"2026-05-12 20:00:00","54480","0.591","62.26","1.993","62.47","NAN","NAN","NAN","NAN","NAN"],
    [1553491,"2026-05-12 20:10:00","54481","0.441","66.73","1.535","67.01","NAN","NAN","NAN","NAN","NAN"],
    [1553492,"2026-05-12 20:20:00","54482","0.396","58.25","1.601","54.08","NAN","NAN","NAN","NAN","NAN"],
    [1553493,"2026-05-12 20:30:00","54483","1.005","136.9","2.417","212.1","NAN","NAN","NAN","NAN","NAN"],
    [1553494,"2026-05-12 20:40:00","54484","1.058","221.6","2.189","219.3","NAN","NAN","NAN","NAN","NAN"],
    [1553495,"2026-05-12 20:50:00","54485","1.435","228.6","2.777","235.8","NAN","NAN","NAN","NAN","NAN"],
    [1553496,"2026-05-12 21:00:00","54486","1.111","236.9","2.613","235.8","NAN","NAN","NAN","NAN","NAN"],
    [1553497,"2026-05-12 21:10:00","54487","0.085","237.5","0.751","237.5","NAN","NAN","NAN","NAN","NAN"],
    [1553498,"2026-05-12 21:20:00","54488","0.10800000000000001","237.6","0.49","237.6","NAN","NAN","NAN","NAN","NAN"],
    [1553499,"2026-05-12 21:30:00","54489","0.297","237.6","0.98","237.6","NAN","NAN","NAN","NAN","NAN"],
    [1553500,"2026-05-12 21:40:00","54490","0.14800000000000002","237.6","0.719","237.6","NAN","NAN","NAN","NAN","NAN"],
    [1553501,"2026-05-12 21:50:00","54491","0.591","237.7","1.209","237.7","NAN","NAN","NAN","NAN","NAN"],
    [1553502,"2026-05-12 22:00:00","54492","0.221","237.7","1.045","237.7","NAN","NAN","NAN","NAN","NAN"],
    [1553503,"2026-05-12 22:10:00","54493","0.08800000000000001","237.7","0.555","237.7","NAN","NAN","NAN","NAN","NAN"],
    [1553504,"2026-05-12 22:20:00","54494","0.001","237.7","0.196","237.7","NAN","NAN","NAN","NAN","NAN"],
    [1553505,"2026-05-12 22:30:00","54495","0.0","0.0","0","0","NAN","NAN","NAN","NAN","NAN"],
    [1553506,"2026-05-12 22:40:00","54496","0.478","234.6","0.947","231.1","NAN","NAN","NAN","NAN","NAN"],
    [1553507,"2026-05-12 22:50:00","54497","0.687","232.3","1.535","237.1","NAN","NAN","NAN","NAN","NAN"],
    [1553508,"2026-05-12 23:00:00","54498","0.8809999999999999","238.0","1.829","237.9","NAN","NAN","NAN","NAN","NAN"],
    [1553509,"2026-05-12 23:10:00","54499","0.27399999999999997","162.4","2.091","210.2","NAN","NAN","NAN","NAN","NAN"],
    [1553510,"2026-05-12 23:20:00","54500","0.10099999999999999","125.3","0.784","125.3","NAN","NAN","NAN","NAN","NAN"],
    [1553511,"2026-05-12 23:30:00","54501","0.037000000000000005","125.3","0.751","125.3","NAN","NAN","NAN","NAN","NAN"],
    [1553512,"2026-05-12 23:40:00","54502","0.001","125.2","0.098","125.2","NAN","NAN","NAN","NAN","NAN"],
    [1553513,"2026-05-12 23:50:00","54503","0.062","125.1","0.425","125.1","NAN","NAN","NAN","NAN","NAN"],
    [1553514,"2026-05-13 00:00:00","54504","0.019","125.1","0.523","125.1","NAN","NAN","NAN","NAN","NAN"],
    [1553515,"2026-05-13 00:10:00","54505","0.377","124.6","1.535","124.1","NAN","NAN","NAN","NAN","NAN"],
    [1553516,"2026-05-13 00:20:00","54506","1.171","116.2","2.123","111.9","NAN","NAN","NAN","NAN","NAN"],
    [1553517,"2026-05-13 00:30:00","54507","1.683","97.6","3.136","94.5","NAN","NAN","NAN","NAN","NAN"],
    [1553518,"2026-05-13 00:40:00","54508","1.355","74.3","2.646","69.39","NAN","NAN","NAN","NAN","NAN"],
    [1553519,"2026-05-13 00:50:00","54509","1.1159999999999999","65.57","2.058","65.41","NAN","NAN","NAN","NAN","NAN"],
    [1553520,"2026-05-13 01:00:00","54510","0.626","65.42","1.274","64.92","NAN","NAN","NAN","NAN","NAN"],
    [1553521,"2026-05-13 01:10:00","54511","0.06","67.58","0.784","67.91","NAN","NAN","NAN","NAN","NAN"],
    [1553522,"2026-05-13 01:20:00","54512","0.081","65.19","0.523","65.12","NAN","NAN","NAN","NAN","NAN"],
    [1553523,"2026-05-13 01:30:00","54513","0.069","64.89","0.98","64.83","NAN","NAN","NAN","NAN","NAN"],
    [1553524,"2026-05-13 01:40:00","54514","0.728","64.19","1.339","64.06","NAN","NAN","NAN","NAN","NAN"],
    [1553525,"2026-05-13 01:50:00","54515","0.396","63.94","0.849","63.67","NAN","NAN","NAN","NAN","NAN"],
    [1553526,"2026-05-13 02:00:00","54516","0.6890000000000001","50.82","1.405","59.6","NAN","NAN","NAN","NAN","NAN"],
    [1553527,"2026-05-13 02:10:00","54517","0.33799999999999997","26.84","0.882","30.37","NAN","NAN","NAN","NAN","NAN"],
    [1553528,"2026-05-13 02:20:00","54518","1.8259999999999998","305.2","3.136","294.1","NAN","NAN","NAN","NAN","NAN"],
    [1553529,"2026-05-13 02:30:00","54519","2.2159999999999997","301.7","3.463","300.3","NAN","NAN","NAN","NAN","NAN"],
    [1553530,"2026-05-13 02:40:00","54520","1.9880000000000002","303.0","2.973","304.3","NAN","NAN","NAN","NAN","NAN"],
    [1553531,"2026-05-13 02:50:00","54521","1.632","307.5","2.842","312.6","NAN","NAN","NAN","NAN","NAN"],
    [1553532,"2026-05-13 03:00:00","54522","1.536","308.4","2.646","310.7","NAN","NAN","NAN","NAN","NAN"],
    [1553533,"2026-05-13 03:10:00","54523","1.511","298.9","2.581","299.6","NAN","NAN","NAN","NAN","NAN"],
    [1553534,"2026-05-13 03:20:00","54524","1.3159999999999998","294.1","2.483","301.7","NAN","NAN","NAN","NAN","NAN"],
    [1553535,"2026-05-13 03:30:00","54525","1.4409999999999998","292.0","2.254","291.2","NAN","NAN","NAN","NAN","NAN"],
    [1553536,"2026-05-13 03:40:00","54526","1.3519999999999999","295.6","2.352","291.3","NAN","NAN","NAN","NAN","NAN"],
    [1553537,"2026-05-13 03:50:00","54527","1.954","299.4","3.561","301","NAN","NAN","NAN","NAN","NAN"],
    [1553538,"2026-05-13 04:00:00","54528","2.551","311.7","4.933","290.6","NAN","NAN","NAN","NAN","NAN"],
    [1553539,"2026-05-13 04:10:00","54529","3.51","312.4","5.161","327.4","NAN","NAN","NAN","NAN","NAN"],
    [1553540,"2026-05-13 04:20:00","54530","2.8","308.9","4.541","307.9","NAN","NAN","NAN","NAN","NAN"],
    [1553541,"2026-05-13 04:30:00","54531","2.8739999999999997","310.8","5.945","337.2","NAN","NAN","NAN","NAN","NAN"],
    [1553542,"2026-05-13 04:40:00","54532","3.389","310.4","6.141","303","NAN","NAN","NAN","NAN","NAN"],
    [1553543,"2026-05-13 04:50:00","54533","3.16","313.1","7.807","322","NAN","NAN","NAN","NAN","NAN"],
    [1553544,"2026-05-13 05:00:00","54534","4.407","315.5","7.513","307.7","NAN","NAN","NAN","NAN","NAN"],
    [1553545,"2026-05-13 05:10:00","54535","4.128","317.4","7.677","299.4","NAN","NAN","NAN","NAN","NAN"],
    [1553546,"2026-05-13 05:20:00","54536","3.388","307.2","7.383","320.5","NAN","NAN","NAN","NAN","NAN"],
    [1553547,"2026-05-13 05:30:00","54537","3.948","306.3","8.85","320.5","NAN","NAN","NAN","NAN","NAN"],
    [1553548,"2026-05-13 05:40:00","54538","3.784","309.8","7.252","308","NAN","NAN","NAN","NAN","NAN"],
    [1553549,"2026-05-13 05:50:00","54539","3.5410000000000004","305.2","6.305","293.6","NAN","NAN","NAN","NAN","NAN"],
    [1553550,"2026-05-13 06:00:00","54540","4.321000000000001","311.0","7.677","314.9","NAN","NAN","NAN","NAN","NAN"],
    [1553551,"2026-05-13 06:10:00","54541","4.359","311.9","8.43","297.6","NAN","NAN","NAN","NAN","NAN"],
    [1553552,"2026-05-13 06:20:00","54542","4.444","309.4","8.13","298.5","NAN","NAN","NAN","NAN","NAN"],
    [1553553,"2026-05-13 06:30:00","54543","2.2569999999999997","305.7","4.247","302.6","NAN","NAN","NAN","NAN","NAN"],
    [1553554,"2026-05-13 06:40:00","54544","2.255","311.4","4.41","320.8","NAN","NAN","NAN","NAN","NAN"],
    [1553555,"2026-05-13 06:50:00","54545","3.8789999999999996","309.8","6.109","317.9","NAN","NAN","NAN","NAN","NAN"],
    [1553556,"2026-05-13 07:00:00","54546","3.91","310.0","6.207","310.6","NAN","NAN","NAN","NAN","NAN"],
    [1553557,"2026-05-13 07:10:00","54547","4.42","315.1","7.742","324.6","NAN","NAN","NAN","NAN","NAN"],
    [1553558,"2026-05-13 07:20:00","54548","4.2410000000000005","314.9","6.729","319.5","NAN","NAN","NAN","NAN","NAN"],
    [1553559,"2026-05-13 07:30:00","54549","3.389","304.3","5.945","296.5","NAN","NAN","NAN","NAN","NAN"],
    [1553560,"2026-05-13 07:40:00","54550","3.517","297.8","6.468","294.2","NAN","NAN","NAN","NAN","NAN"],
    [1553561,"2026-05-13 07:50:00","54551","3.947","294.7","6.403","304","NAN","NAN","NAN","NAN","NAN"],
    [1553562,"2026-05-13 08:00:00","54552","3.4330000000000003","299.6","5.455","302.1","NAN","NAN","NAN","NAN","NAN"],
    [1553563,"2026-05-13 08:10:00","54553","3.633","305.2","5.978","299.6","NAN","NAN","NAN","NAN","NAN"],
    [1553564,"2026-05-13 08:20:00","54554","3.4930000000000003","291.9","5.847","295.8","NAN","NAN","NAN","NAN","NAN"],
    [1553565,"2026-05-13 08:30:00","54555","3.452","294.0","5.651","309","NAN","NAN","NAN","NAN","NAN"],
    [1553566,"2026-05-13 08:40:00","54556","2.4219999999999997","304.3","5.194","273.7","NAN","NAN","NAN","NAN","NAN"],
    [1553567,"2026-05-13 08:50:00","54557","3.142","291.5","5.39","299.5","NAN","NAN","NAN","NAN","NAN"],
    [1553568,"2026-05-13 09:00:00","54558","2.431","302.7","4.149","307.6","NAN","NAN","NAN","NAN","NAN"],
    [1553569,"2026-05-13 09:10:00","54559","1.56","305.3","3.887","315.5","NAN","NAN","NAN","NAN","NAN"],
    [1553570,"2026-05-13 09:20:00","54560","2.271","274.5","4.41","271.3","NAN","NAN","NAN","NAN","NAN"],
    [1553571,"2026-05-13 09:30:00","54561","2.795","287.1","5.227","292.2","NAN","NAN","NAN","NAN","NAN"],
    [1553572,"2026-05-13 09:40:00","54562","1.653","302.7","4.279","309.3","NAN","NAN","NAN","NAN","NAN"],
    [1553573,"2026-05-13 09:50:00","54563","2.687","293.0","5.717","299","NAN","NAN","NAN","NAN","NAN"],
    [1553574,"2026-05-13 10:00:00","54564","2.302","312.3","4.671","318.1","NAN","NAN","NAN","NAN","NAN"],
    [1553575,"2026-05-13 10:10:00","54565","1.6340000000000001","307.1","4.933","286.4","NAN","NAN","NAN","NAN","NAN"],
    [1553576,"2026-05-13 10:20:00","54566","1.83","284.1","4.802","294.5","NAN","NAN","NAN","NAN","NAN"],
    [1553577,"2026-05-13 10:30:00","54567","1.115","292.9","3.593","283.7","NAN","NAN","NAN","NAN","NAN"],
    [1553578,"2026-05-13 10:40:00","54568","0.8190000000000001","191.1","3.789","172.1","NAN","NAN","NAN","NAN","NAN"],
    [1553579,"2026-05-13 10:50:00","54569","2.12","278.1","3.855","288.9","NAN","NAN","NAN","NAN","NAN"],
    [1553580,"2026-05-13 11:00:00","54570","1.2209999999999999","233.4","3.299","205.1","NAN","NAN","NAN","NAN","NAN"],
    [1553581,"2026-05-13 11:10:00","54571","1.903","209.8","4.769","223.4","NAN","NAN","NAN","NAN","NAN"],
    [1553582,"2026-05-13 11:20:00","54572","2.76","203.5","5.292","206.4","NAN","NAN","NAN","NAN","NAN"],
    [1553583,"2026-05-13 11:30:00","54573","2.147","163.6","4.508","146.7","NAN","NAN","NAN","NAN","NAN"],
    [1553584,"2026-05-13 11:40:00","54574","1.837","177.3","4.9","162.1","NAN","NAN","NAN","NAN","NAN"],
    [1553585,"2026-05-13 11:50:00","54575","3.2689999999999997","163.6","5.651","154.8","NAN","NAN","NAN","NAN","NAN"],
    [1553586,"2026-05-13 12:00:00","54576","2.63","195.9","4.737","216.3","NAN","NAN","NAN","NAN","NAN"],
    [1553587,"2026-05-13 12:10:00","54577","2.698","181.0","4.9","170.1","NAN","NAN","NAN","NAN","NAN"],
    [1553588,"2026-05-13 12:20:00","54578","3.326","182.6","6.762","168.7","NAN","NAN","NAN","NAN","NAN"],
    [1553589,"2026-05-13 12:30:00","54579","3.6439999999999997","193.5","6.37","229.1","NAN","NAN","NAN","NAN","NAN"],
    [1553590,"2026-05-13 12:40:00","54580","3.508","201.7","6.043","224.8","NAN","NAN","NAN","NAN","NAN"],
    [1553591,"2026-05-13 12:50:00","54581","3.3989999999999996","202.1","5.619","215","NAN","NAN","NAN","NAN","NAN"],
    [1553592,"2026-05-13 13:00:00","54582","2.5469999999999997","202.4","5.161","206.4","NAN","NAN","NAN","NAN","NAN"],
    [1553593,"2026-05-13 13:10:00","54583","2.8","208.1","5.292","211.9","NAN","NAN","NAN","NAN","NAN"],
    [1553594,"2026-05-13 13:20:00","54584","2.92","200.6","5.978","166.7","NAN","NAN","NAN","NAN","NAN"],
    [1553595,"2026-05-13 13:30:00","54585","3.363","209.7","6.599","212.7","NAN","NAN","NAN","NAN","NAN"],
    [1553596,"2026-05-13 13:40:00","54586","2.932","196.2","5.945","206.9","NAN","NAN","NAN","NAN","NAN"],
    [1553597,"2026-05-13 13:50:00","54587","2.825","195.5","4.998","188.5","NAN","NAN","NAN","NAN","NAN"],
    [1553598,"2026-05-13 14:00:00","54588","3.417","175.4","6.86","160.8","NAN","NAN","NAN","NAN","NAN"],
    [1553599,"2026-05-13 14:10:00","54589","3.1060000000000003","190.2","6.043","211.2","NAN","NAN","NAN","NAN","NAN"],
    [1553600,"2026-05-13 14:20:00","54590","3.498","211.1","6.501","198","NAN","NAN","NAN","NAN","NAN"],
    [1553601,"2026-05-13 14:30:00","54591","3.237","210.8","5.455","212.6","NAN","NAN","NAN","NAN","NAN"],
    [1553602,"2026-05-13 14:40:00","54592","3.468","208.7","5.88","209.4","NAN","NAN","NAN","NAN","NAN"],
    [1553603,"2026-05-13 14:50:00","54593","3.612","179.2","6.925","197.7","NAN","NAN","NAN","NAN","NAN"],
    [1553604,"2026-05-13 15:00:00","54594","2.8110000000000004","201.1","5.553","205.1","NAN","NAN","NAN","NAN","NAN"],
    [1553605,"2026-05-13 15:10:00","54595","3.37","191.8","6.305","183.4","NAN","NAN","NAN","NAN","NAN"],
    [1553606,"2026-05-13 15:20:00","54596","3.435","184.6","6.599","162.4","NAN","NAN","NAN","NAN","NAN"],
    [1553607,"2026-05-13 15:30:00","54597","3.411","173.6","5.096","159.3","NAN","NAN","NAN","NAN","NAN"],
    [1553608,"2026-05-13 15:40:00","54598","2.7760000000000002","171.4","4.965","149.2","NAN","NAN","NAN","NAN","NAN"],
    [1553609,"2026-05-13 15:50:00","54599","3.5669999999999997","160.7","5.619","153.9","NAN","NAN","NAN","NAN","NAN"],
    [1553610,"2026-05-13 16:00:00","54600","3.7039999999999997","162.0","5.39","158.9","NAN","NAN","NAN","NAN","NAN"],
    [1553611,"2026-05-13 16:10:00","54601","3.225","132.7","5.553","127.6","NAN","NAN","NAN","NAN","NAN"],
    [1553612,"2026-05-13 16:20:00","54602","3.795","131.2","5.357","136.6","NAN","NAN","NAN","NAN","NAN"],
    [1553613,"2026-05-13 16:30:00","54603","2.8280000000000003","122.7","4.639","133.4","NAN","NAN","NAN","NAN","NAN"],
    [1553614,"2026-05-13 16:40:00","54604","2.648","123.8","3.985","134.7","NAN","NAN","NAN","NAN","NAN"],
    [1553615,"2026-05-13 16:50:00","54605","2.519","115.3","3.789","127.1","NAN","NAN","NAN","NAN","NAN"],
    [1553616,"2026-05-13 17:00:00","54606","2.355","111.1","3.561","126.6","NAN","NAN","NAN","NAN","NAN"],
    [1553617,"2026-05-13 17:10:00","54607","2.193","106.5","4.083","98.4","NAN","NAN","NAN","NAN","NAN"],
    [1553618,"2026-05-13 17:20:00","54608","2.53","95.1","4.737","79.54","NAN","NAN","NAN","NAN","NAN"],
    [1553619,"2026-05-13 17:30:00","54609","2.7569999999999997","99.4","4.508","97.9","NAN","NAN","NAN","NAN","NAN"],
    [1553620,"2026-05-13 17:40:00","54610","3.2960000000000003","91.8","5.063","90.3","NAN","NAN","NAN","NAN","NAN"],
    [1553621,"2026-05-13 17:50:00","54611","3.264","89.0","5.619","85.5","NAN","NAN","NAN","NAN","NAN"],
    [1553622,"2026-05-13 18:00:00","54612","2.658","93.0","5.227","95.6","NAN","NAN","NAN","NAN","NAN"],
    [1553623,"2026-05-13 18:10:00","54613","3.7960000000000003","91.1","6.011","91.2","NAN","NAN","NAN","NAN","NAN"],
    [1553624,"2026-05-13 18:20:00","54614","3.279","90.8","5.259","89.5","NAN","NAN","NAN","NAN","NAN"],
    [1553625,"2026-05-13 18:30:00","54615","3.141","90.3","5.945","82.6","NAN","NAN","NAN","NAN","NAN"],
    [1553626,"2026-05-13 18:40:00","54616","3.2430000000000003","94.4","6.043","90.5","NAN","NAN","NAN","NAN","NAN"],
    [1553627,"2026-05-13 18:50:00","54617","3.366","77.29","6.174","72.83","NAN","NAN","NAN","NAN","NAN"],
    [1553628,"2026-05-13 19:00:00","54618","5.182","70.39","7.513","70.12","NAN","NAN","NAN","NAN","NAN"],
    [1553629,"2026-05-13 19:10:00","54619","4.1160000000000005","71.24","6.893","73.22","NAN","NAN","NAN","NAN","NAN"],
    [1553630,"2026-05-13 19:20:00","54620","4.317","72.14","7.154","73.66","NAN","NAN","NAN","NAN","NAN"],
    [1553631,"2026-05-13 19:30:00","54621","4.0969999999999995","66.34","6.403","67.96","NAN","NAN","NAN","NAN","NAN"],
    [1553632,"2026-05-13 19:40:00","54622","4.361000000000001","66.02","6.403","66.3","NAN","NAN","NAN","NAN","NAN"],
    [1553633,"2026-05-13 19:50:00","54623","3.159","51.65","5.978","41.82","NAN","NAN","NAN","NAN","NAN"],
    [1553634,"2026-05-13 20:00:00","54624","3.3760000000000003","49.77","5.423","42.31","NAN","NAN","NAN","NAN","NAN"],
    [1553635,"2026-05-13 20:10:00","54625","2.855","46.6","4.965","50.34","NAN","NAN","NAN","NAN","NAN"],
    [1553636,"2026-05-13 20:20:00","54626","3.051","54.1","5.161","39.95","NAN","NAN","NAN","NAN","NAN"],
    [1553637,"2026-05-13 20:30:00","54627","3.154","44.39","5.521","40.93","NAN","NAN","NAN","NAN","NAN"],
    [1553638,"2026-05-13 20:40:00","54628","3.1710000000000003","36.37","4.998","29.34","NAN","NAN","NAN","NAN","NAN"],
    [1553639,"2026-05-13 20:50:00","54629","2.121","47.57","4.41","29.24","NAN","NAN","NAN","NAN","NAN"],
    [1553640,"2026-05-13 21:00:00","54630","2.001","45.47","3.626","43.22","NAN","NAN","NAN","NAN","NAN"],
    [1553641,"2026-05-13 21:10:00","54631","2.506","20.59","4.149","18.72","NAN","NAN","NAN","NAN","NAN"],
    [1553642,"2026-05-13 21:20:00","54632","2.46","24.95","4.508","24.46","NAN","NAN","NAN","NAN","NAN"],
    [1553643,"2026-05-13 21:30:00","54633","2.088","26.08","4.018","28.51","NAN","NAN","NAN","NAN","NAN"],
    [1553644,"2026-05-13 21:40:00","54634","1.969","37.44","3.397","42.24","NAN","NAN","NAN","NAN","NAN"],
    [1553645,"2026-05-13 21:50:00","54635","1.3130000000000002","26.96","2.058","29.21","NAN","NAN","NAN","NAN","NAN"],
    [1553646,"2026-05-13 22:00:00","54636","1.247","25.02","2.352","23.66","NAN","NAN","NAN","NAN","NAN"],
    [1553647,"2026-05-13 22:10:00","54637","1.198","23.69","1.96","22.81","NAN","NAN","NAN","NAN","NAN"],
    [1553648,"2026-05-13 22:20:00","54638","1.261","31.73","2.221","33.63","NAN","NAN","NAN","NAN","NAN"],
    [1553649,"2026-05-13 22:30:00","54639","1.175","37.77","2.254","36.72","NAN","NAN","NAN","NAN","NAN"],
    [1553650,"2026-05-13 22:40:00","54640","0.897","38.6","1.764","40.67","NAN","NAN","NAN","NAN","NAN"],
    [1553651,"2026-05-13 22:50:00","54641","0.09","41.67","0.915","41.15","NAN","NAN","NAN","NAN","NAN"],
    [1553652,"2026-05-13 23:00:00","54642","0.027999999999999997","42.58","0.555","42.59","NAN","NAN","NAN","NAN","NAN"],
    [1553653,"2026-05-13 23:10:00","54643","0.05","42.82","0.49","42.84","NAN","NAN","NAN","NAN","NAN"],
    [1553654,"2026-05-13 23:20:00","54644","0.8540000000000001","43.42","1.535","43.65","NAN","NAN","NAN","NAN","NAN"],
    [1553655,"2026-05-13 23:30:00","54645","0.406","43.9","1.307","43.94","NAN","NAN","NAN","NAN","NAN"],
    [1553656,"2026-05-13 23:40:00","54646","0.053","43.91","0.686","43.9","NAN","NAN","NAN","NAN","NAN"],
    [1553657,"2026-05-13 23:50:00","54647","0.006999999999999999","39.42","0.261","39.49","NAN","NAN","NAN","NAN","NAN"],
    [1553658,"2026-05-14 00:00:00","54648","0.275","20.32","0.947","20.2","NAN","NAN","NAN","NAN","NAN"],
    [1553659,"2026-05-14 00:10:00","54649","0.022000000000000002","0.888","0.392","2.286","NAN","NAN","NAN","NAN","NAN"],
    [1553660,"2026-05-14 00:20:00","54650","0.055","354.3","0.621","349.8","NAN","NAN","NAN","NAN","NAN"],
    [1553661,"2026-05-14 00:30:00","54651","0.273","354.1","1.045","354.1","NAN","NAN","NAN","NAN","NAN"],
    [1553662,"2026-05-14 00:40:00","54652","0.009000000000000001","354.0","0.294","354","NAN","NAN","NAN","NAN","NAN"],
    [1553663,"2026-05-14 00:50:00","54653","0.004","354.0","0.196","354","NAN","NAN","NAN","NAN","NAN"],
    [1553664,"2026-05-14 01:00:00","54654","0.023","354.0","0.621","354","NAN","NAN","NAN","NAN","NAN"],
    [1553665,"2026-05-14 01:10:00","54655","0.055999999999999994","354.0","0.915","354","NAN","NAN","NAN","NAN","NAN"],
    [1553666,"2026-05-14 01:20:00","54656","0.054000000000000006","340.0","0.523","338.2","NAN","NAN","NAN","NAN","NAN"],
    [1553667,"2026-05-14 01:30:00","54657","0.032","338.1","0.457","338","NAN","NAN","NAN","NAN","NAN"],
    [1553668,"2026-05-14 01:40:00","54658","0.23600000000000002","338.1","1.209","338.1","NAN","NAN","NAN","NAN","NAN"],
    [1553669,"2026-05-14 01:50:00","54659","0.008","338.1","0.392","338.1","NAN","NAN","NAN","NAN","NAN"],
    [1553670,"2026-05-14 02:00:00","54660","0.0","0.0","0","0","NAN","NAN","NAN","NAN","NAN"],
    [1553671,"2026-05-14 02:10:00","54661","0.0","338.0","0.065","338","NAN","NAN","NAN","NAN","NAN"],
    [1553672,"2026-05-14 02:20:00","54662","0.049","338.0","0.817","337.9","NAN","NAN","NAN","NAN","NAN"],
    [1553673,"2026-05-14 02:30:00","54663","0.158","337.9","0.719","337.8","NAN","NAN","NAN","NAN","NAN"],
    [1553674,"2026-05-14 02:40:00","54664","0.698","336.9","2.025","337.5","NAN","NAN","NAN","NAN","NAN"],
    [1553675,"2026-05-14 02:50:00","54665","1.6740000000000002","310.3","3.299","300.4","NAN","NAN","NAN","NAN","NAN"],
    [1553676,"2026-05-14 03:00:00","54666","1.8940000000000001","301.1","3.299","295.1","NAN","NAN","NAN","NAN","NAN"],
    [1553677,"2026-05-14 03:10:00","54667","2.529","295.3","3.626","297.4","NAN","NAN","NAN","NAN","NAN"],
    [1553678,"2026-05-14 03:20:00","54668","2.207","295.0","3.92","295.7","NAN","NAN","NAN","NAN","NAN"],
    [1553679,"2026-05-14 03:30:00","54669","2.142","304.0","3.757","301.8","NAN","NAN","NAN","NAN","NAN"],
    [1553680,"2026-05-14 03:40:00","54670","1.801","308.0","3.43","311","NAN","NAN","NAN","NAN","NAN"],
    [1553681,"2026-05-14 03:50:00","54671","1.4240000000000002","305.7","2.711","303.3","NAN","NAN","NAN","NAN","NAN"],
    [1553682,"2026-05-14 04:00:00","54672","1.5330000000000001","310.6","2.515","312.7","NAN","NAN","NAN","NAN","NAN"],
    [1553683,"2026-05-14 04:10:00","54673","1.713","313.6","3.528","315.5","NAN","NAN","NAN","NAN","NAN"],
    [1553684,"2026-05-14 04:20:00","54674","3.074","320.2","5.651","298.9","NAN","NAN","NAN","NAN","NAN"],
    [1553685,"2026-05-14 04:30:00","54675","2.7060000000000004","304.8","4.704","318.8","NAN","NAN","NAN","NAN","NAN"],
    [1553686,"2026-05-14 04:40:00","54676","1.838","301.9","4.573","286.6","NAN","NAN","NAN","NAN","NAN"],
    [1553687,"2026-05-14 04:50:00","54677","2.084","295.4","4.214","293.8","NAN","NAN","NAN","NAN","NAN"],
    [1553688,"2026-05-14 05:00:00","54678","1.121","291.5","2.809","300.1","NAN","NAN","NAN","NAN","NAN"],
    [1553689,"2026-05-14 05:10:00","54679","0.878","288.1","2.025","294.3","NAN","NAN","NAN","NAN","NAN"],
    [1553690,"2026-05-14 05:20:00","54680","1.796","299.5","3.332","310.3","NAN","NAN","NAN","NAN","NAN"],
    [1553691,"2026-05-14 05:30:00","54681","1.5719999999999998","308.0","3.005","308.1","NAN","NAN","NAN","NAN","NAN"],
    [1553692,"2026-05-14 05:40:00","54682","2.883","297.0","6.468","293.9","NAN","NAN","NAN","NAN","NAN"],
    [1553693,"2026-05-14 05:50:00","54683","2.3609999999999998","301.2","3.953","287.2","NAN","NAN","NAN","NAN","NAN"],
    [1553694,"2026-05-14 06:00:00","54684","2.285","301.5","4.247","290.1","NAN","NAN","NAN","NAN","NAN"],
    [1553695,"2026-05-14 06:10:00","54685","3.217","298.6","5.161","293.1","NAN","NAN","NAN","NAN","NAN"],
    [1553696,"2026-05-14 06:20:00","54686","2.5669999999999997","301.0","4.671","315.1","NAN","NAN","NAN","NAN","NAN"],
    [1553697,"2026-05-14 06:30:00","54687","3.7710000000000004","305.4","6.403","293.6","NAN","NAN","NAN","NAN","NAN"],
    [1553698,"2026-05-14 06:40:00","54688","4.102","298.6","8.23","293.3","NAN","NAN","NAN","NAN","NAN"],
    [1553699,"2026-05-14 06:50:00","54689","4.027","298.9","7.415","302.1","NAN","NAN","NAN","NAN","NAN"],
    [1553700,"2026-05-14 07:00:00","54690","3.8689999999999998","294.4","6.86","301.3","NAN","NAN","NAN","NAN","NAN"],
    [1553701,"2026-05-14 07:10:00","54691","4.013999999999999","315.4","6.403","289.4","NAN","NAN","NAN","NAN","NAN"],
    [1553702,"2026-05-14 07:20:00","54692","2.888","311.3","6.533","289.9","NAN","NAN","NAN","NAN","NAN"],
    [1553703,"2026-05-14 07:30:00","54693","4.053","291.0","6.958","295.9","NAN","NAN","NAN","NAN","NAN"],
    [1553704,"2026-05-14 07:40:00","54694","3.514","291.8","5.978","299","NAN","NAN","NAN","NAN","NAN"],
    [1553705,"2026-05-14 07:50:00","54695","4.794","293.7","8.3","298.9","NAN","NAN","NAN","NAN","NAN"],
    [1553706,"2026-05-14 08:00:00","54696","4.709","306.4","7.481","291.1","NAN","NAN","NAN","NAN","NAN"],
    [1553707,"2026-05-14 08:10:00","54697","4.052","298.1","7.023","299.3","NAN","NAN","NAN","NAN","NAN"],
    [1553708,"2026-05-14 08:20:00","54698","3.556","316.9","5.782","341.5","NAN","NAN","NAN","NAN","NAN"],
    [1553709,"2026-05-14 08:30:00","54699","2.4290000000000003","291.4","5.096","294.4","NAN","NAN","NAN","NAN","NAN"],
    [1553710,"2026-05-14 08:40:00","54700","2.043","289.2","4.835","275","NAN","NAN","NAN","NAN","NAN"],
    [1553711,"2026-05-14 08:50:00","54701","2.676","307.1","6.664","324.1","NAN","NAN","NAN","NAN","NAN"],
    [1553712,"2026-05-14 09:00:00","54702","4.704","320.7","7.742","325.4","NAN","NAN","NAN","NAN","NAN"],
    [1553713,"2026-05-14 09:10:00","54703","3.468","295.3","8.46","322.4","NAN","NAN","NAN","NAN","NAN"],
    [1553714,"2026-05-14 09:20:00","54704","2.9619999999999997","319.3","6.435","323.9","NAN","NAN","NAN","NAN","NAN"],
    [1553715,"2026-05-14 09:30:00","54705","1.976","299.4","6.305","327.9","NAN","NAN","NAN","NAN","NAN"],
    [1553716,"2026-05-14 09:40:00","54706","1.5590000000000002","257.5","4.279","290.8","NAN","NAN","NAN","NAN","NAN"],
    [1553717,"2026-05-14 09:50:00","54707","0.81","195.3","4.345","203.3","NAN","NAN","NAN","NAN","NAN"],
    [1553718,"2026-05-14 10:00:00","54708","1.58","4.474","4.214","13.46","NAN","NAN","NAN","NAN","NAN"],
    [1553719,"2026-05-14 10:10:00","54709","1.749","312.5","3.561","315.4","NAN","NAN","NAN","NAN","NAN"],
    [1553720,"2026-05-14 10:20:00","54710","0.818","307.9","4.083","329.5","NAN","NAN","NAN","NAN","NAN"],
    [1553721,"2026-05-14 10:30:00","54711","2.459","310.2","5.161","344.9","NAN","NAN","NAN","NAN","NAN"],
    [1553722,"2026-05-14 10:40:00","54712","1.925","304.2","4.9","247.2","NAN","NAN","NAN","NAN","NAN"],
    [1553723,"2026-05-14 10:50:00","54713","3.333","201.8","5.619","201.1","NAN","NAN","NAN","NAN","NAN"],
    [1553724,"2026-05-14 11:00:00","54714","2.6310000000000002","163.7","4.737","174","NAN","NAN","NAN","NAN","NAN"],
    [1553725,"2026-05-14 11:10:00","54715","2.237","169.4","4.867","161.9","NAN","NAN","NAN","NAN","NAN"],
    [1553726,"2026-05-14 11:20:00","54716","2.511","237.1","8.43","289.2","NAN","NAN","NAN","NAN","NAN"],
    [1553727,"2026-05-14 11:30:00","54717","5.667000000000001","281.3","9.87","287.8","NAN","NAN","NAN","NAN","NAN"],
    [1553728,"2026-05-14 11:40:00","54718","4.486000000000001","292.1","7.285","297.4","NAN","NAN","NAN","NAN","NAN"],
    [1553729,"2026-05-14 11:50:00","54719","4.75","309.8","8.3","306.5","NAN","NAN","NAN","NAN","NAN"],
    [1553730,"2026-05-14 12:00:00","54720","5.515","306.5","9.18","302.6","NAN","NAN","NAN","NAN","NAN"],
    [1553731,"2026-05-14 12:10:00","54721","5.376","288.9","8.72","299.3","NAN","NAN","NAN","NAN","NAN"],
    [1553732,"2026-05-14 12:20:00","54722","5.351","308.6","9.15","325.1","NAN","NAN","NAN","NAN","NAN"],
    [1553733,"2026-05-14 12:30:00","54723","5.224","294.7","9.83","310.5","NAN","NAN","NAN","NAN","NAN"],
    [1553734,"2026-05-14 12:40:00","54724","7.175","281.2","11.66","278.6","NAN","NAN","NAN","NAN","NAN"],
    [1553735,"2026-05-14 12:50:00","54725","5.879","269.8","10.36","252.3","NAN","NAN","NAN","NAN","NAN"],
    [1553736,"2026-05-14 13:00:00","54726","4.651","291.0","7.644","293.1","NAN","NAN","NAN","NAN","NAN"],
    [1553737,"2026-05-14 13:10:00","54727","5.309","274.2","11.3","259.8","NAN","NAN","NAN","NAN","NAN"],
    [1553738,"2026-05-14 13:20:00","54728","6.608","273.3","11.99","251.9","NAN","NAN","NAN","NAN","NAN"],
    [1553739,"2026-05-14 13:30:00","54729","6.1579999999999995","279.8","11.96","269.9","NAN","NAN","NAN","NAN","NAN"],
    [1553740,"2026-05-14 13:40:00","54730","7.31","270.9","11.07","264.5","NAN","NAN","NAN","NAN","NAN"],
    [1553741,"2026-05-14 13:50:00","54731","6.854","268.3","11.4","286.4","NAN","NAN","NAN","NAN","NAN"],
    [1553742,"2026-05-14 14:00:00","54732","6.547000000000001","276.1","12.22","275.7","NAN","NAN","NAN","NAN","NAN"],
    [1553743,"2026-05-14 14:10:00","54733","5.0489999999999995","280.1","9.41","290.6","NAN","NAN","NAN","NAN","NAN"],
    [1553744,"2026-05-14 14:20:00","54734","5.747999999999999","280.6","10.09","270.9","NAN","NAN","NAN","NAN","NAN"],
    [1553745,"2026-05-14 14:30:00","54735","6.042999999999999","287.9","9.02","275.8","NAN","NAN","NAN","NAN","NAN"],
    [1553746,"2026-05-14 14:40:00","54736","5.936","297.5","10.45","301","NAN","NAN","NAN","NAN","NAN"],
    [1553747,"2026-05-14 14:50:00","54737","5.787999999999999","295.0","9.54","304.5","NAN","NAN","NAN","NAN","NAN"],
    [1553748,"2026-05-14 15:00:00","54738","6.02","292.0","10.88","282.6","NAN","NAN","NAN","NAN","NAN"],
    [1553749,"2026-05-14 15:10:00","54739","6.2379999999999995","294.1","10.26","291.1","NAN","NAN","NAN","NAN","NAN"],
    [1553750,"2026-05-14 15:20:00","54740","5.367999999999999","305.0","11.01","294.9","NAN","NAN","NAN","NAN","NAN"],
    [1553751,"2026-05-14 15:30:00","54741","7.468","299.6","12.28","301.6","NAN","NAN","NAN","NAN","NAN"],
    [1553752,"2026-05-14 15:40:00","54742","7.681","300.3","13.49","303.2","NAN","NAN","NAN","NAN","NAN"],
    [1553753,"2026-05-14 15:50:00","54743","7.002999999999999","296.5","12.15","310.8","NAN","NAN","NAN","NAN","NAN"],
    [1553754,"2026-05-14 16:00:00","54744","7.11","279.5","12.09","272.4","NAN","NAN","NAN","NAN","NAN"],
    [1553755,"2026-05-14 16:10:00","54745","6.916","296.9","11.6","302.8","NAN","NAN","NAN","NAN","NAN"],
    [1553756,"2026-05-14 16:20:00","54746","5.716","291.5","9.67","326.4","NAN","NAN","NAN","NAN","NAN"],
    [1553757,"2026-05-14 16:30:00","54747","6.307","313.7","11.66","324.2","NAN","NAN","NAN","NAN","NAN"],
    [1553758,"2026-05-14 16:40:00","54748","6.392","289.9","10.98","288.9","NAN","NAN","NAN","NAN","NAN"],
    [1553759,"2026-05-14 16:50:00","54749","5.756","283.5","9.51","284.8","NAN","NAN","NAN","NAN","NAN"],
    [1553760,"2026-05-14 17:00:00","54750","5.807","318.7","9.9","319.8","NAN","NAN","NAN","NAN","NAN"],
    [1553761,"2026-05-14 17:10:00","54751","6.046","308.5","10.85","294.3","NAN","NAN","NAN","NAN","NAN"],
    [1553762,"2026-05-14 17:20:00","54752","5.691","314.2","10.09","309.4","NAN","NAN","NAN","NAN","NAN"],
    [1553763,"2026-05-14 17:30:00","54753","5.865","299.8","10.22","292.7","NAN","NAN","NAN","NAN","NAN"],
    [1553764,"2026-05-14 17:40:00","54754","5.118","294.3","8.92","292.5","NAN","NAN","NAN","NAN","NAN"],
    [1553765,"2026-05-14 17:50:00","54755","4.859","300.1","8.17","275.9","NAN","NAN","NAN","NAN","NAN"],
    [1553766,"2026-05-14 18:00:00","54756","3.551","310.2","7.285","312.8","NAN","NAN","NAN","NAN","NAN"],
    [1553767,"2026-05-14 18:10:00","54757","2.65","321.0","5.259","335.8","NAN","NAN","NAN","NAN","NAN"],
    [1553768,"2026-05-14 18:20:00","54758","2.227","306.9","5.423","330.3","NAN","NAN","NAN","NAN","NAN"],
    [1553769,"2026-05-14 18:30:00","54759","3.102","26.09","6.958","33.99","NAN","NAN","NAN","NAN","NAN"],
    [1553770,"2026-05-14 18:40:00","54760","2.5","78.25","5.292","92.5","NAN","NAN","NAN","NAN","NAN"],
    [1553771,"2026-05-14 18:50:00","54761","3.557","81.0","7.154","70.14","NAN","NAN","NAN","NAN","NAN"],
    [1553772,"2026-05-14 19:00:00","54762","4.231","91.8","7.775","76.52","NAN","NAN","NAN","NAN","NAN"],
    [1553773,"2026-05-14 19:10:00","54763","3.485","81.4","8.07","69.7","NAN","NAN","NAN","NAN","NAN"],
    [1553774,"2026-05-14 19:20:00","54764","3.575","70.66","7.448","62.72","NAN","NAN","NAN","NAN","NAN"],
    [1553775,"2026-05-14 19:30:00","54765","4.105","69.73","7.252","56.66","NAN","NAN","NAN","NAN","NAN"],
    [1553776,"2026-05-14 19:40:00","54766","4.36","73.14","6.533","73.31","NAN","NAN","NAN","NAN","NAN"],
    [1553777,"2026-05-14 19:50:00","54767","4.531000000000001","77.5","7.677","70.47","NAN","NAN","NAN","NAN","NAN"],
    [1553778,"2026-05-14 20:00:00","54768","3.905","84.9","7.905","89.9","NAN","NAN","NAN","NAN","NAN"],
    [1553779,"2026-05-14 20:10:00","54769","4.2780000000000005","80.2","7.775","66.94","NAN","NAN","NAN","NAN","NAN"],
    [1553780,"2026-05-14 20:20:00","54770","3.8960000000000004","85.2","7.742","66.31","NAN","NAN","NAN","NAN","NAN"],
    [1553781,"2026-05-14 20:30:00","54771","3.377","87.2","6.239","82.6","NAN","NAN","NAN","NAN","NAN"],
    [1553782,"2026-05-14 20:40:00","54772","3.2569999999999997","90.9","7.317","96.4","NAN","NAN","NAN","NAN","NAN"],
    [1553783,"2026-05-14 20:50:00","54773","3.505","86.4","6.305","86.9","NAN","NAN","NAN","NAN","NAN"],
    [1553784,"2026-05-14 21:00:00","54774","3.5189999999999997","86.8","5.978","65.8","NAN","NAN","NAN","NAN","NAN"],
    [1553785,"2026-05-14 21:10:00","54775","3.592","84.4","7.285","65.96","NAN","NAN","NAN","NAN","NAN"],
    [1553786,"2026-05-14 21:20:00","54776","3.668","85.9","7.285","65.96","NAN","NAN","NAN","NAN","NAN"],
    [1553787,"2026-05-14 21:30:00","54777","3.165","99.5","5.913","101.2","NAN","NAN","NAN","NAN","NAN"],
    [1553788,"2026-05-14 21:40:00","54778","2.6639999999999997","96.2","5.945","100.9","NAN","NAN","NAN","NAN","NAN"],
    [1553789,"2026-05-14 21:50:00","54779","2.735","98.9","6.435","95.2","NAN","NAN","NAN","NAN","NAN"],
    [1553790,"2026-05-14 22:00:00","54780","2.951","92.9","6.272","90.5","NAN","NAN","NAN","NAN","NAN"],
    [1553791,"2026-05-14 22:10:00","54781","2.845","87.9","5.096","85.9","NAN","NAN","NAN","NAN","NAN"],
    [1553792,"2026-05-14 22:20:00","54782","2.8089999999999997","85.4","5.227","92.6","NAN","NAN","NAN","NAN","NAN"],
    [1553793,"2026-05-14 22:30:00","54783","3.2060000000000004","71.49","5.88","69.48","NAN","NAN","NAN","NAN","NAN"],
    [1553794,"2026-05-14 22:40:00","54784","2.986","78.71","5.88","69.64","NAN","NAN","NAN","NAN","NAN"],
    [1553795,"2026-05-14 22:50:00","54785","2.944","67.82","5.847","68.24","NAN","NAN","NAN","NAN","NAN"],
    [1553796,"2026-05-14 23:00:00","54786","3.8930000000000002","70.6","5.782","67.17","NAN","NAN","NAN","NAN","NAN"],
    [1553797,"2026-05-14 23:10:00","54787","3.4360000000000004","71.19","5.717","65.92","NAN","NAN","NAN","NAN","NAN"],
    [1553798,"2026-05-14 23:20:00","54788","2.8360000000000003","72.82","4.671","72.09","NAN","NAN","NAN","NAN","NAN"],
    [1553799,"2026-05-14 23:30:00","54789","2.371","74.71","4.312","67.67","NAN","NAN","NAN","NAN","NAN"],
    [1553800,"2026-05-14 23:40:00","54790","2.456","67.65","4.573","59.05","NAN","NAN","NAN","NAN","NAN"],
    [1553801,"2026-05-14 23:50:00","54791","1.261","73.41","2.646","72.53","NAN","NAN","NAN","NAN","NAN"],
    [1553802,"2026-05-15 00:00:00","54792","1.054","64.73","3.038","68.13","NAN","NAN","NAN","NAN","NAN"],
    [1553803,"2026-05-15 00:10:00","54793","0.8270000000000001","80.6","2.515","77.95","NAN","NAN","NAN","NAN","NAN"],
    [1553804,"2026-05-15 00:20:00","54794","0.376","65.68","1.601","63.01","NAN","NAN","NAN","NAN","NAN"],
    [1553805,"2026-05-15 00:30:00","54795","0.57","60.31","1.797","59.77","NAN","NAN","NAN","NAN","NAN"],
    [1553806,"2026-05-15 00:40:00","54796","0.313","58.98","1.895","59.24","NAN","NAN","NAN","NAN","NAN"],
    [1553807,"2026-05-15 00:50:00","54797","0.282","74.49","1.699","81.3","NAN","NAN","NAN","NAN","NAN"],
    [1553808,"2026-05-15 01:00:00","54798","1.2819999999999998","84.0","2.842","84.2","NAN","NAN","NAN","NAN","NAN"],
    [1553809,"2026-05-15 01:10:00","54799","1.15","85.3","2.94","85","NAN","NAN","NAN","NAN","NAN"],
    [1553810,"2026-05-15 01:20:00","54800","0.605","86.2","1.601","86.2","NAN","NAN","NAN","NAN","NAN"],
    [1553811,"2026-05-15 01:30:00","54801","0.065","86.3","0.751","86.3","NAN","NAN","NAN","NAN","NAN"],
    [1553812,"2026-05-15 01:40:00","54802","0.0","0.0","0","0","NAN","NAN","NAN","NAN","NAN"],
    [1553813,"2026-05-15 01:50:00","54803","0.008","86.4","0.261","86.4","NAN","NAN","NAN","NAN","NAN"],
    [1553814,"2026-05-15 02:00:00","54804","0.425","83.5","2.058","83.2","NAN","NAN","NAN","NAN","NAN"],
    [1553815,"2026-05-15 02:10:00","54805","0.768","61.99","2.254","76.03","NAN","NAN","NAN","NAN","NAN"],
    [1553816,"2026-05-15 02:20:00","54806","1.868","320.2","4.9","306.6","NAN","NAN","NAN","NAN","NAN"],
    [1553817,"2026-05-15 02:30:00","54807","2.9330000000000003","287.1","5.488","277.7","NAN","NAN","NAN","NAN","NAN"],
    [1553818,"2026-05-15 02:40:00","54808","4.181","290.9","7.971","343.4","NAN","NAN","NAN","NAN","NAN"],
    [1553819,"2026-05-15 02:50:00","54809","5.586","327.5","9.08","328.4","NAN","NAN","NAN","NAN","NAN"],
    [1553820,"2026-05-15 03:00:00","54810","5.096","328.9","8","333.3","NAN","NAN","NAN","NAN","NAN"],
    [1553821,"2026-05-15 03:10:00","54811","5.002","329.8","8.17","329.4","NAN","NAN","NAN","NAN","NAN"],
    [1553822,"2026-05-15 03:20:00","54812","4.758","326.6","8.07","321.7","NAN","NAN","NAN","NAN","NAN"],
    [1553823,"2026-05-15 03:30:00","54813","4.776","326.6","7.383","333.2","NAN","NAN","NAN","NAN","NAN"],
    [1553824,"2026-05-15 03:40:00","54814","4.506","325.5","7.35","307.2","NAN","NAN","NAN","NAN","NAN"],
    [1553825,"2026-05-15 03:50:00","54815","4.529","323.1","7.971","326.5","NAN","NAN","NAN","NAN","NAN"],
    [1553826,"2026-05-15 04:00:00","54816","4.994","315.5","8.4","315.5","NAN","NAN","NAN","NAN","NAN"],
    [1553827,"2026-05-15 04:10:00","54817","4.4510000000000005","320.6","9.15","304","NAN","NAN","NAN","NAN","NAN"],
    [1553828,"2026-05-15 04:20:00","54818","3.057","329.1","5.455","339.9","NAN","NAN","NAN","NAN","NAN"],
    [1553829,"2026-05-15 04:30:00","54819","3.639","338.4","5.847","324.3","NAN","NAN","NAN","NAN","NAN"],
    [1553830,"2026-05-15 04:40:00","54820","3.341","336.5","7.056","326.7","NAN","NAN","NAN","NAN","NAN"],
    [1553831,"2026-05-15 04:50:00","54821","2.944","332.1","6.239","322.5","NAN","NAN","NAN","NAN","NAN"],
    [1553832,"2026-05-15 05:00:00","54822","3.16","331.8","5.815","331.5","NAN","NAN","NAN","NAN","NAN"],
    [1553833,"2026-05-15 05:10:00","54823","3.5610000000000004","329.9","6.272","328.4","NAN","NAN","NAN","NAN","NAN"],
    [1553834,"2026-05-15 05:20:00","54824","4.374","325.3","8.13","332.5","NAN","NAN","NAN","NAN","NAN"],
    [1553835,"2026-05-15 05:30:00","54825","3.543","321.0","6.141","320.4","NAN","NAN","NAN","NAN","NAN"],
    [1553836,"2026-05-15 05:40:00","54826","3.1289999999999996","325.2","5.194","330.6","NAN","NAN","NAN","NAN","NAN"],
    [1553837,"2026-05-15 05:50:00","54827","2.443","334.7","4.802","318.5","NAN","NAN","NAN","NAN","NAN"],
    [1553838,"2026-05-15 06:00:00","54828","2.492","345.9","5.227","4.283","NAN","NAN","NAN","NAN","NAN"],
    [1553839,"2026-05-15 06:10:00","54829","2.634","324.3","4.181","332","NAN","NAN","NAN","NAN","NAN"],
    [1553840,"2026-05-15 06:20:00","54830","3.972","320.4","6.795","292.2","NAN","NAN","NAN","NAN","NAN"],
    [1553841,"2026-05-15 06:30:00","54831","3.197","326.6","6.762","347.6","NAN","NAN","NAN","NAN","NAN"],
    [1553842,"2026-05-15 06:40:00","54832","3.241","333.1","5.521","329.8","NAN","NAN","NAN","NAN","NAN"],
    [1553843,"2026-05-15 06:50:00","54833","2.449","332.2","5.031","327.5","NAN","NAN","NAN","NAN","NAN"],
    [1553844,"2026-05-15 07:00:00","54834","4.223","327.5","6.501","338.7","NAN","NAN","NAN","NAN","NAN"],
    [1553845,"2026-05-15 07:10:00","54835","4.196000000000001","324.1","7.611","325.9","NAN","NAN","NAN","NAN","NAN"],
    [1553846,"2026-05-15 07:20:00","54836","3.503","327.5","6.533","322.5","NAN","NAN","NAN","NAN","NAN"],
    [1553847,"2026-05-15 07:30:00","54837","2.583","328.9","4.9","328.7","NAN","NAN","NAN","NAN","NAN"],
    [1553848,"2026-05-15 07:40:00","54838","1.96","321.3","3.724","310.2","NAN","NAN","NAN","NAN","NAN"],
    [1553849,"2026-05-15 07:50:00","54839","1.6969999999999998","315.0","3.267","311.6","NAN","NAN","NAN","NAN","NAN"],
    [1553850,"2026-05-15 08:00:00","54840","1.974","299.3","3.691","307.2","NAN","NAN","NAN","NAN","NAN"],
    [1553851,"2026-05-15 08:10:00","54841","2.184","314.9","3.92","302","NAN","NAN","NAN","NAN","NAN"],
    [1553852,"2026-05-15 08:20:00","54842","2.343","327.1","4.214","337.8","NAN","NAN","NAN","NAN","NAN"],
    [1553853,"2026-05-15 08:30:00","54843","1.788","318.1","3.234","321.9","NAN","NAN","NAN","NAN","NAN"],
    [1553854,"2026-05-15 08:40:00","54844","0.945","305.8","2.189","303","NAN","NAN","NAN","NAN","NAN"],
    [1553855,"2026-05-15 08:50:00","54845","1.5819999999999999","304.9","2.973","302.1","NAN","NAN","NAN","NAN","NAN"],
    [1553856,"2026-05-15 09:00:00","54846","1.6230000000000002","305.9","2.94","307.5","NAN","NAN","NAN","NAN","NAN"],
    [1553857,"2026-05-15 09:10:00","54847","1.2429999999999999","308.3","2.581","298","NAN","NAN","NAN","NAN","NAN"],
    [1553858,"2026-05-15 09:20:00","54848","0.452","307.3","1.96","312","NAN","NAN","NAN","NAN","NAN"],
    [1553859,"2026-05-15 09:30:00","54849","0.591","298.1","2.123","299.9","NAN","NAN","NAN","NAN","NAN"],
    [1553860,"2026-05-15 09:40:00","54850","0.6990000000000001","310.2","2.156","316.7","NAN","NAN","NAN","NAN","NAN"],
    [1553861,"2026-05-15 09:50:00","54851","1.254","306.0","2.613","317.9","NAN","NAN","NAN","NAN","NAN"],
    [1553862,"2026-05-15 10:00:00","54852","0.706","296.3","2.221","298.6","NAN","NAN","NAN","NAN","NAN"],
    [1553863,"2026-05-15 10:10:00","54853","1.61","284.1","3.659","279.1","NAN","NAN","NAN","NAN","NAN"],
    [1553864,"2026-05-15 10:20:00","54854","1.649","283.3","3.136","287.5","NAN","NAN","NAN","NAN","NAN"],
    [1553865,"2026-05-15 10:30:00","54855","2.833","275.2","4.671","289.9","NAN","NAN","NAN","NAN","NAN"],
    [1553866,"2026-05-15 10:40:00","54856","2.252","272.6","4.802","270.8","NAN","NAN","NAN","NAN","NAN"],
    [1553867,"2026-05-15 10:50:00","54857","2.103","257.0","4.541","274","NAN","NAN","NAN","NAN","NAN"],
    [1553868,"2026-05-15 11:00:00","54858","2.977","282.3","5.815","264.5","NAN","NAN","NAN","NAN","NAN"],
    [1553869,"2026-05-15 11:10:00","54859","3.0260000000000002","300.3","5.259","266.7","NAN","NAN","NAN","NAN","NAN"],
    [1553870,"2026-05-15 11:20:00","54860","2.805","301.6","4.639","297.6","NAN","NAN","NAN","NAN","NAN"],
    [1553871,"2026-05-15 11:30:00","54861","1.922","312.9","4.345","329.7","NAN","NAN","NAN","NAN","NAN"],
    [1553872,"2026-05-15 11:40:00","54862","2.188","311.1","4.312","315.3","NAN","NAN","NAN","NAN","NAN"],
    [1553873,"2026-05-15 11:50:00","54863","2.089","307.3","4.149","319.2","NAN","NAN","NAN","NAN","NAN"],
    [1553874,"2026-05-15 12:00:00","54864","1.8619999999999999","266.3","4.671","226.3","NAN","NAN","NAN","NAN","NAN"],
    [1553875,"2026-05-15 12:10:00","54865","1.886","242.2","4.279","254.1","NAN","NAN","NAN","NAN","NAN"],
    [1553876,"2026-05-15 12:20:00","54866","1.9409999999999998","197.9","4.606","149.9","NAN","NAN","NAN","NAN","NAN"],
    [1553877,"2026-05-15 12:30:00","54867","3.161","202.5","7.644","207.1","NAN","NAN","NAN","NAN","NAN"],
    [1553878,"2026-05-15 12:40:00","54868","3.69","203.4","5.815","219.1","NAN","NAN","NAN","NAN","NAN"],
    [1553879,"2026-05-15 12:50:00","54869","3.53","209.2","6.174","212.2","NAN","NAN","NAN","NAN","NAN"],
    [1553880,"2026-05-15 13:00:00","54870","3.238","191.2","5.815","158.6","NAN","NAN","NAN","NAN","NAN"],
    [1553881,"2026-05-15 13:10:00","54871","3.7","204.9","7.448","206.9","NAN","NAN","NAN","NAN","NAN"],
    [1553882,"2026-05-15 13:20:00","54872","2.9219999999999997","205.3","6.501","199.8","NAN","NAN","NAN","NAN","NAN"],
    [1553883,"2026-05-15 13:30:00","54873","4.1930000000000005","224.4","6.37","242.1","NAN","NAN","NAN","NAN","NAN"],
    [1553884,"2026-05-15 13:40:00","54874","3.938","203.6","6.925","211","NAN","NAN","NAN","NAN","NAN"],
    [1553885,"2026-05-15 13:50:00","54875","3.998","201.8","7.579","216.8","NAN","NAN","NAN","NAN","NAN"],
    [1553886,"2026-05-15 14:00:00","54876","3.128","188.8","6.827","222.9","NAN","NAN","NAN","NAN","NAN"],
    [1553887,"2026-05-15 14:10:00","54877","4.022","207.4","8.13","215.6","NAN","NAN","NAN","NAN","NAN"],
    [1553888,"2026-05-15 14:20:00","54878","3.9810000000000003","208.7","6.697","214.9","NAN","NAN","NAN","NAN","NAN"],
    [1553889,"2026-05-15 14:30:00","54879","3.0210000000000004","201.5","6.501","188.2","NAN","NAN","NAN","NAN","NAN"],
    [1553890,"2026-05-15 14:40:00","54880","3.615","207.4","5.847","219.4","NAN","NAN","NAN","NAN","NAN"],
    [1553891,"2026-05-15 14:50:00","54881","3.3539999999999996","228.8","5.782","238.1","NAN","NAN","NAN","NAN","NAN"],
    [1553892,"2026-05-15 15:00:00","54882","4.503","265.4","7.415","288.5","NAN","NAN","NAN","NAN","NAN"],
    [1553893,"2026-05-15 15:10:00","54883","3.597","211.8","7.219","171.6","NAN","NAN","NAN","NAN","NAN"],
    [1553894,"2026-05-15 15:20:00","54884","3.602","173.4","6.86","156.1","NAN","NAN","NAN","NAN","NAN"],
    [1553895,"2026-05-15 15:30:00","54885","2.5140000000000002","207.1","4.704","230.6","NAN","NAN","NAN","NAN","NAN"],
    [1553896,"2026-05-15 15:40:00","54886","2.2569999999999997","188.3","6.043","168.8","NAN","NAN","NAN","NAN","NAN"],
    [1553897,"2026-05-15 15:50:00","54887","1.736","167.9","3.561","179.8","NAN","NAN","NAN","NAN","NAN"],
    [1553898,"2026-05-15 16:00:00","54888","2.9010000000000002","68.37","6.109","63.52","NAN","NAN","NAN","NAN","NAN"],
    [1553899,"2026-05-15 16:10:00","54889","4.904","88.1","9.51","82.2","NAN","NAN","NAN","NAN","NAN"],
    [1553900,"2026-05-15 16:20:00","54890","4.913","99.1","8.2","105.6","NAN","NAN","NAN","NAN","NAN"],
    [1553901,"2026-05-15 16:30:00","54891","3.705","94.4","7.644","98.1","NAN","NAN","NAN","NAN","NAN"],
    [1553902,"2026-05-15 16:40:00","54892","4.615","92.1","7.775","91.7","NAN","NAN","NAN","NAN","NAN"],
    [1553903,"2026-05-15 16:50:00","54893","4.262","102.7","7.056","112.3","NAN","NAN","NAN","NAN","NAN"],
    [1553904,"2026-05-15 17:00:00","54894","3.225","100.5","6.337","100.4","NAN","NAN","NAN","NAN","NAN"],
    [1553905,"2026-05-15 17:10:00","54895","2.9189999999999996","92.1","5.129","96.2","NAN","NAN","NAN","NAN","NAN"],
    [1553906,"2026-05-15 17:20:00","54896","3.016","97.6","5.129","106","NAN","NAN","NAN","NAN","NAN"],
    [1553907,"2026-05-15 17:30:00","54897","2.9389999999999996","104.9","5.161","111.6","NAN","NAN","NAN","NAN","NAN"],
    [1553908,"2026-05-15 17:40:00","54898","3.156","107.9","5.227","99.2","NAN","NAN","NAN","NAN","NAN"],
    [1553909,"2026-05-15 17:50:00","54899","3.017","116.1","5.259","122","NAN","NAN","NAN","NAN","NAN"],
    [1553910,"2026-05-15 18:00:00","54900","2.535","120.5","4.443","114.7","NAN","NAN","NAN","NAN","NAN"],
    [1553911,"2026-05-15 18:10:00","54901","2.3609999999999998","120.2","4.116","128.2","NAN","NAN","NAN","NAN","NAN"],
    [1553912,"2026-05-15 18:20:00","54902","2.375","118.5","3.822","113.7","NAN","NAN","NAN","NAN","NAN"],
    [1553913,"2026-05-15 18:30:00","54903","2.5639999999999996","117.6","3.953","123.8","NAN","NAN","NAN","NAN","NAN"],
    [1553914,"2026-05-15 18:40:00","54904","1.9369999999999998","115.6","3.103","131.8","NAN","NAN","NAN","NAN","NAN"],
    [1553915,"2026-05-15 18:50:00","54905","2.295","122.6","4.083","133.9","NAN","NAN","NAN","NAN","NAN"],
    [1553916,"2026-05-15 19:00:00","54906","2.153","120.6","3.593","129.1","NAN","NAN","NAN","NAN","NAN"],
    [1553917,"2026-05-15 19:10:00","54907","2.31","124.3","3.561","124.3","NAN","NAN","NAN","NAN","NAN"],
    [1553918,"2026-05-15 19:20:00","54908","2.676","132.3","4.639","133.1","NAN","NAN","NAN","NAN","NAN"],
    [1553919,"2026-05-15 19:30:00","54909","1.8019999999999998","125.3","2.94","128.7","NAN","NAN","NAN","NAN","NAN"],
    [1553920,"2026-05-15 19:40:00","54910","1.886","125.5","3.038","128.6","NAN","NAN","NAN","NAN","NAN"],
    [1553921,"2026-05-15 19:50:00","54911","1.4680000000000002","126.0","2.777","136.8","NAN","NAN","NAN","NAN","NAN"],
    [1553922,"2026-05-15 20:00:00","54912","1.341","135.1","2.581","135.2","NAN","NAN","NAN","NAN","NAN"],
    [1553923,"2026-05-15 20:10:00","54913","1.545","140.3","2.94","140.5","NAN","NAN","NAN","NAN","NAN"],
    [1553924,"2026-05-15 20:20:00","54914","1.744","139.2","3.855","133.5","NAN","NAN","NAN","NAN","NAN"],
    [1553925,"2026-05-15 20:30:00","54915","2.253","141.6","3.397","141","NAN","NAN","NAN","NAN","NAN"],
    [1553926,"2026-05-15 20:40:00","54916","3.353","163.8","5.357","166.5","NAN","NAN","NAN","NAN","NAN"],
    [1553927,"2026-05-15 20:50:00","54917","2.418","165.1","3.724","167.1","NAN","NAN","NAN","NAN","NAN"],
    [1553928,"2026-05-15 21:00:00","54918","2.028","167.2","3.659","160.9","NAN","NAN","NAN","NAN","NAN"],
    [1553929,"2026-05-15 21:10:00","54919","2.363","163.9","3.887","168.7","NAN","NAN","NAN","NAN","NAN"],
    [1553930,"2026-05-15 21:20:00","54920","1.9509999999999998","168.3","3.887","168.7","NAN","NAN","NAN","NAN","NAN"],
    [1553931,"2026-05-15 21:30:00","54921","1.633","173.8","2.646","175.9","NAN","NAN","NAN","NAN","NAN"],
    [1553932,"2026-05-15 21:40:00","54922","1.807","170.2","3.332","168.6","NAN","NAN","NAN","NAN","NAN"],
    [1553933,"2026-05-15 21:50:00","54923","1.032","174.3","1.895","173.3","NAN","NAN","NAN","NAN","NAN"],
    [1553934,"2026-05-15 22:00:00","54924","0.5670000000000001","176.8","1.731","177.5","NAN","NAN","NAN","NAN","NAN"],
    [1553935,"2026-05-15 22:10:00","54925","0.11","177.6","0.817","177.6","NAN","NAN","NAN","NAN","NAN"],
    [1553936,"2026-05-15 22:20:00","54926","0.203","177.7","0.98","177.7","NAN","NAN","NAN","NAN","NAN"],
    [1553937,"2026-05-15 22:30:00","54927","0.002","177.6","0.229","177.6","NAN","NAN","NAN","NAN","NAN"],
    [1553938,"2026-05-15 22:40:00","54928","0.043","177.7","0.327","177.7","NAN","NAN","NAN","NAN","NAN"],
    [1553939,"2026-05-15 22:50:00","54929","0.006999999999999999","177.8","0.392","177.8","NAN","NAN","NAN","NAN","NAN"],
    [1553940,"2026-05-15 23:00:00","54930","0.19899999999999998","174.9","1.013","173.9","NAN","NAN","NAN","NAN","NAN"],
    [1553941,"2026-05-15 23:10:00","54931","0.163","175.7","1.143","173.5","NAN","NAN","NAN","NAN","NAN"],
    [1553942,"2026-05-15 23:20:00","54932","0.21100000000000002","183.0","1.143","179.8","NAN","NAN","NAN","NAN","NAN"],
    [1553943,"2026-05-15 23:30:00","54933","0.519","186.5","1.111","187.2","NAN","NAN","NAN","NAN","NAN"],
    [1553944,"2026-05-15 23:40:00","54934","0.335","187.5","1.013","187.7","NAN","NAN","NAN","NAN","NAN"],
    [1553945,"2026-05-15 23:50:00","54935","0.09","187.8","0.915","187.8","NAN","NAN","NAN","NAN","NAN"],
    [1553946,"2026-05-16 00:00:00","54936","0.516","187.9","1.862","188","NAN","NAN","NAN","NAN","NAN"],
    [1553947,"2026-05-16 00:10:00","54937","0.512","188.0","1.503","188","NAN","NAN","NAN","NAN","NAN"],
    [1553948,"2026-05-16 00:20:00","54938","0.778","188.2","1.797","188.3","NAN","NAN","NAN","NAN","NAN"],
    [1553949,"2026-05-16 00:30:00","54939","0.494","206.7","1.829","237.6","NAN","NAN","NAN","NAN","NAN"],
    [1553950,"2026-05-16 00:40:00","54940","0.43200000000000005","237.8","1.503","237.8","NAN","NAN","NAN","NAN","NAN"],
    [1553951,"2026-05-16 00:50:00","54941","0.024","237.8","0.392","237.8","NAN","NAN","NAN","NAN","NAN"],
    [1553952,"2026-05-16 01:00:00","54942","0.147","237.8","0.49","237.8","NAN","NAN","NAN","NAN","NAN"],
    [1553953,"2026-05-16 01:10:00","54943","0.23600000000000002","237.9","0.947","237.9","NAN","NAN","NAN","NAN","NAN"],
    [1553954,"2026-05-16 01:20:00","54944","0.563","238.3","1.568","238.5","NAN","NAN","NAN","NAN","NAN"],
    [1553955,"2026-05-16 01:30:00","54945","0.74","238.9","1.731","238.9","NAN","NAN","NAN","NAN","NAN"],
    [1553956,"2026-05-16 01:40:00","54946","0.526","239.5","1.503","239.3","NAN","NAN","NAN","NAN","NAN"],
    [1553957,"2026-05-16 01:50:00","54947","0.43","258.0","2.94","311.8","NAN","NAN","NAN","NAN","NAN"],
    [1553958,"2026-05-16 02:00:00","54948","2.602","320.9","5.129","319.8","NAN","NAN","NAN","NAN","NAN"],
    [1553959,"2026-05-16 02:10:00","54949","2.949","316.8","6.011","310.9","NAN","NAN","NAN","NAN","NAN"],
    [1553960,"2026-05-16 02:20:00","54950","3.338","317.8","6.141","331.8","NAN","NAN","NAN","NAN","NAN"],
    [1553961,"2026-05-16 02:30:00","54951","3.95","316.1","7.709","322.9","NAN","NAN","NAN","NAN","NAN"],
    [1553962,"2026-05-16 02:40:00","54952","3.824","314.0","6.599","316.9","NAN","NAN","NAN","NAN","NAN"],
    [1553963,"2026-05-16 02:50:00","54953","4.753","316.5","7.709","328.3","NAN","NAN","NAN","NAN","NAN"],
    [1553964,"2026-05-16 03:00:00","54954","4.226","316.5","6.893","334.2","NAN","NAN","NAN","NAN","NAN"],
    [1553965,"2026-05-16 03:10:00","54955","4.691","316.5","8.82","318.2","NAN","NAN","NAN","NAN","NAN"],
    [1553966,"2026-05-16 03:20:00","54956","4.442","311.5","7.807","315.2","NAN","NAN","NAN","NAN","NAN"],
    [1553967,"2026-05-16 03:30:00","54957","3.511","314.1","6.109","325.8","NAN","NAN","NAN","NAN","NAN"],
    [1553968,"2026-05-16 03:40:00","54958","5.167999999999999","315.4","9.08","319.6","NAN","NAN","NAN","NAN","NAN"],
    [1553969,"2026-05-16 03:50:00","54959","4.303999999999999","315.2","8.75","307.2","NAN","NAN","NAN","NAN","NAN"],
    [1553970,"2026-05-16 04:00:00","54960","3.786","311.7","6.991","316","NAN","NAN","NAN","NAN","NAN"],
    [1553971,"2026-05-16 04:10:00","54961","4.5489999999999995","303.8","7.448","305.2","NAN","NAN","NAN","NAN","NAN"],
    [1553972,"2026-05-16 04:20:00","54962","2.178","286.9","3.985","303.9","NAN","NAN","NAN","NAN","NAN"],
    [1553973,"2026-05-16 04:30:00","54963","1.54","295.1","3.136","283.1","NAN","NAN","NAN","NAN","NAN"],
    [1553974,"2026-05-16 04:40:00","54964","2.2880000000000003","270.6","3.528","264.2","NAN","NAN","NAN","NAN","NAN"],
    [1553975,"2026-05-16 04:50:00","54965","2.622","261.8","4.181","268.4","NAN","NAN","NAN","NAN","NAN"],
    [1553976,"2026-05-16 05:00:00","54966","2.6","270.3","4.541","267.8","NAN","NAN","NAN","NAN","NAN"],
    [1553977,"2026-05-16 05:10:00","54967","3.391","279.9","6.337","293.9","NAN","NAN","NAN","NAN","NAN"],
    [1553978,"2026-05-16 05:20:00","54968","3.3810000000000002","290.3","6.337","293.9","NAN","NAN","NAN","NAN","NAN"],
    [1553979,"2026-05-16 05:30:00","54969","3.318","294.3","5.488","283","NAN","NAN","NAN","NAN","NAN"],
    [1553980,"2026-05-16 05:40:00","54970","4.754","292.5","8.23","297.6","NAN","NAN","NAN","NAN","NAN"],
    [1553981,"2026-05-16 05:50:00","54971","5.006","292.4","7.35","299.2","NAN","NAN","NAN","NAN","NAN"],
    [1553982,"2026-05-16 06:00:00","54972","4.928","293.0","7.513","291.2","NAN","NAN","NAN","NAN","NAN"],
    [1553983,"2026-05-16 06:10:00","54973","4.088","307.4","6.664","324.9","NAN","NAN","NAN","NAN","NAN"],
    [1553984,"2026-05-16 06:20:00","54974","3.463","313.3","6.141","330.5","NAN","NAN","NAN","NAN","NAN"],
    [1553985,"2026-05-16 06:30:00","54975","3.733","317.2","6.076","325.3","NAN","NAN","NAN","NAN","NAN"],
    [1553986,"2026-05-16 06:40:00","54976","3.0410000000000004","316.6","6.043","320.8","NAN","NAN","NAN","NAN","NAN"],
    [1553987,"2026-05-16 06:50:00","54977","3.947","318.0","6.533","320.9","NAN","NAN","NAN","NAN","NAN"],
    [1553988,"2026-05-16 07:00:00","54978","4.53","293.9","7.383","294.2","NAN","NAN","NAN","NAN","NAN"],
    [1553989,"2026-05-16 07:10:00","54979","4.541","301.6","6.501","301.2","NAN","NAN","NAN","NAN","NAN"],
    [1553990,"2026-05-16 07:20:00","54980","3.636","301.6","5.782","304","NAN","NAN","NAN","NAN","NAN"],
    [1553991,"2026-05-16 07:30:00","54981","3.923","307.7","5.717","310.2","NAN","NAN","NAN","NAN","NAN"],
    [1553992,"2026-05-16 07:40:00","54982","3.638","302.5","5.357","307.6","NAN","NAN","NAN","NAN","NAN"],
    [1553993,"2026-05-16 07:50:00","54983","3.344","307.8","6.501","291.1","NAN","NAN","NAN","NAN","NAN"],
    [1553994,"2026-05-16 08:00:00","54984","3.255","318.3","5.325","325","NAN","NAN","NAN","NAN","NAN"],
    [1553995,"2026-05-16 08:10:00","54985","3.634","318.3","5.39","322.3","NAN","NAN","NAN","NAN","NAN"],
    [1553996,"2026-05-16 08:20:00","54986","4.265","326.2","6.697","326.1","NAN","NAN","NAN","NAN","NAN"],
    [1553997,"2026-05-16 08:30:00","54987","3.145","314.5","5.684","316.7","NAN","NAN","NAN","NAN","NAN"],
    [1553998,"2026-05-16 08:40:00","54988","2.525","309.2","4.867","330.1","NAN","NAN","NAN","NAN","NAN"],
    [1553999,"2026-05-16 08:50:00","54989","2.7760000000000002","298.8","4.312","296.4","NAN","NAN","NAN","NAN","NAN"],
    [1554000,"2026-05-16 09:00:00","54990","3.127","296.4","4.737","305.5","NAN","NAN","NAN","NAN","NAN"],
    [1554001,"2026-05-16 09:10:00","54991","1.8659999999999999","343.3","3.822","334.1","NAN","NAN","NAN","NAN","NAN"],
    [1554002,"2026-05-16 09:20:00","54992","1.247","9.52","4.116","5.503","NAN","NAN","NAN","NAN","NAN"],
    [1554003,"2026-05-16 09:30:00","54993","0.436","45.87","2.156","66.5","NAN","NAN","NAN","NAN","NAN"],
    [1554004,"2026-05-16 09:40:00","54994","3.306","110.9","5.357","112.4","NAN","NAN","NAN","NAN","NAN"],
    [1554005,"2026-05-16 09:50:00","54995","4.289","137.5","6.37","135.9","NAN","NAN","NAN","NAN","NAN"],
    [1554006,"2026-05-16 10:00:00","54996","3.884","148.3","5.521","170.1","NAN","NAN","NAN","NAN","NAN"],
    [1554007,"2026-05-16 10:10:00","54997","3.4589999999999996","140.5","4.965","142.5","NAN","NAN","NAN","NAN","NAN"],
    [1554008,"2026-05-16 10:20:00","54998","3.767","138.6","5.39","130.2","NAN","NAN","NAN","NAN","NAN"],
    [1554009,"2026-05-16 10:30:00","54999","3.341","142.6","5.717","132.9","NAN","NAN","NAN","NAN","NAN"],
    [1554010,"2026-05-16 10:40:00","55000","3.846","127.9","5.815","143.3","NAN","NAN","NAN","NAN","NAN"],
    [1554011,"2026-05-16 10:50:00","55001","2.5980000000000003","145.7","4.802","148.7","NAN","NAN","NAN","NAN","NAN"],
    [1554012,"2026-05-16 11:00:00","55002","2.4930000000000003","142.2","4.377","112.8","NAN","NAN","NAN","NAN","NAN"],
    [1554013,"2026-05-16 11:10:00","55003","3.852","151.8","5.815","162.2","NAN","NAN","NAN","NAN","NAN"],
    [1554014,"2026-05-16 11:20:00","55004","3.2060000000000004","164.5","5.782","162.7","NAN","NAN","NAN","NAN","NAN"],
    [1554015,"2026-05-16 11:30:00","55005","3.591","145.5","5.553","135.5","NAN","NAN","NAN","NAN","NAN"],
    [1554016,"2026-05-16 11:40:00","55006","2.6889999999999996","164.6","4.998","158.4","NAN","NAN","NAN","NAN","NAN"],
    [1554017,"2026-05-16 11:50:00","55007","2.585","183.9","5.063","216.1","NAN","NAN","NAN","NAN","NAN"],
    [1554018,"2026-05-16 12:00:00","55008","2.5789999999999997","189.5","4.573","203.4","NAN","NAN","NAN","NAN","NAN"],
    [1554019,"2026-05-16 12:10:00","55009","3.011","174.4","5.455","157.1","NAN","NAN","NAN","NAN","NAN"],
    [1554020,"2026-05-16 12:20:00","55010","2.533","180.8","5.945","173.7","NAN","NAN","NAN","NAN","NAN"],
    [1554021,"2026-05-16 12:30:00","55011","3.305","177.5","5.913","176.2","NAN","NAN","NAN","NAN","NAN"],
    [1554022,"2026-05-16 12:40:00","55012","2.975","187.2","5.749","175","NAN","NAN","NAN","NAN","NAN"],
    [1554023,"2026-05-16 12:50:00","55013","3.237","200.1","6.664","207.2","NAN","NAN","NAN","NAN","NAN"],
    [1554024,"2026-05-16 13:00:00","55014","3.6310000000000002","192.2","5.945","167.6","NAN","NAN","NAN","NAN","NAN"],
    [1554025,"2026-05-16 13:10:00","55015","3.18","186.4","6.958","165.2","NAN","NAN","NAN","NAN","NAN"],
    [1554026,"2026-05-16 13:20:00","55016","3.69","180.2","6.697","200.9","NAN","NAN","NAN","NAN","NAN"],
    [1554027,"2026-05-16 13:30:00","55017","3.7539999999999996","186.3","6.501","213.4","NAN","NAN","NAN","NAN","NAN"],
    [1554028,"2026-05-16 13:40:00","55018","3.385","196.0","5.847","224.5","NAN","NAN","NAN","NAN","NAN"],
    [1554029,"2026-05-16 13:50:00","55019","3.373","178.3","5.945","151.9","NAN","NAN","NAN","NAN","NAN"],
    [1554030,"2026-05-16 14:00:00","55020","2.805","191.2","5.063","197.8","NAN","NAN","NAN","NAN","NAN"],
    [1554031,"2026-05-16 14:10:00","55021","2.904","180.8","5.749","141.8","NAN","NAN","NAN","NAN","NAN"],
    [1554032,"2026-05-16 14:20:00","55022","4.055","160.3","6.337","158.7","NAN","NAN","NAN","NAN","NAN"],
    [1554033,"2026-05-16 14:30:00","55023","3.4019999999999997","156.6","6.076","137.3","NAN","NAN","NAN","NAN","NAN"],
    [1554034,"2026-05-16 14:40:00","55024","3.72","156.3","6.501","154.6","NAN","NAN","NAN","NAN","NAN"],
    [1554035,"2026-05-16 14:50:00","55025","4.275","141.2","6.272","151.8","NAN","NAN","NAN","NAN","NAN"],
    [1554036,"2026-05-16 15:00:00","55026","4.363","159.1","6.305","165.3","NAN","NAN","NAN","NAN","NAN"],
    [1554037,"2026-05-16 15:10:00","55027","3.781","156.5","6.762","164.5","NAN","NAN","NAN","NAN","NAN"],
    [1554038,"2026-05-16 15:20:00","55028","3.3510000000000004","157.4","6.011","162.2","NAN","NAN","NAN","NAN","NAN"],
    [1554039,"2026-05-16 15:30:00","55029","3.88","156.9","6.468","138.2","NAN","NAN","NAN","NAN","NAN"],
    [1554040,"2026-05-16 15:40:00","55030","3.068","159.0","5.325","163.8","NAN","NAN","NAN","NAN","NAN"],
    [1554041,"2026-05-16 15:50:00","55031","3.7880000000000003","152.7","5.586","154.1","NAN","NAN","NAN","NAN","NAN"],
    [1554042,"2026-05-16 16:00:00","55032","3.147","135.5","5.815","131.4","NAN","NAN","NAN","NAN","NAN"],
    [1554043,"2026-05-16 16:10:00","55033","3.5860000000000003","136.9","5.651","175.4","NAN","NAN","NAN","NAN","NAN"],
    [1554044,"2026-05-16 16:20:00","55034","3.0580000000000003","155.1","5.488","130.9","NAN","NAN","NAN","NAN","NAN"],
    [1554045,"2026-05-16 16:30:00","55035","3.003","137.1","4.312","135.1","NAN","NAN","NAN","NAN","NAN"],
    [1554046,"2026-05-16 16:40:00","55036","2.928","140.5","4.541","148.9","NAN","NAN","NAN","NAN","NAN"],
    [1554047,"2026-05-16 16:50:00","55037","2.614","159.9","4.541","130.2","NAN","NAN","NAN","NAN","NAN"],
    [1554048,"2026-05-16 17:00:00","55038","2.8169999999999997","133.3","4.443","145.1","NAN","NAN","NAN","NAN","NAN"],
    [1554049,"2026-05-16 17:10:00","55039","2.795","127.4","4.345","140.6","NAN","NAN","NAN","NAN","NAN"],
    [1554050,"2026-05-16 17:20:00","55040","2.546","112.1","4.443","115","NAN","NAN","NAN","NAN","NAN"],
    [1554051,"2026-05-16 17:30:00","55041","2.249","104.6","4.247","101.3","NAN","NAN","NAN","NAN","NAN"],
    [1554052,"2026-05-16 17:40:00","55042","2.399","121.6","4.279","127.6","NAN","NAN","NAN","NAN","NAN"],
    [1554053,"2026-05-16 17:50:00","55043","2.878","109.1","4.671","142.9","NAN","NAN","NAN","NAN","NAN"],
    [1554054,"2026-05-16 18:00:00","55044","2.785","106.5","4.377","104.1","NAN","NAN","NAN","NAN","NAN"],
    [1554055,"2026-05-16 18:10:00","55045","2.696","94.7","4.051","101.1","NAN","NAN","NAN","NAN","NAN"],
    [1554056,"2026-05-16 18:20:00","55046","2.725","97.7","4.443","92.4","NAN","NAN","NAN","NAN","NAN"],
    [1554057,"2026-05-16 18:30:00","55047","3.089","97.8","4.737","89","NAN","NAN","NAN","NAN","NAN"],
    [1554058,"2026-05-16 18:40:00","55048","3.0639999999999996","100.5","5.292","85.4","NAN","NAN","NAN","NAN","NAN"],
    [1554059,"2026-05-16 18:50:00","55049","3.135","97.0","4.835","97.8","NAN","NAN","NAN","NAN","NAN"],
    [1554060,"2026-05-16 19:00:00","55050","2.572","102.1","4.9","90.3","NAN","NAN","NAN","NAN","NAN"],
    [1554061,"2026-05-16 19:10:00","55051","1.929","106.2","3.561","101.9","NAN","NAN","NAN","NAN","NAN"],
    [1554062,"2026-05-16 19:20:00","55052","1.972","101.0","3.136","88.8","NAN","NAN","NAN","NAN","NAN"],
    [1554063,"2026-05-16 19:30:00","55053","2.415","96.4","3.953","102.6","NAN","NAN","NAN","NAN","NAN"],
    [1554064,"2026-05-16 19:40:00","55054","2.138","101.0","3.593","90","NAN","NAN","NAN","NAN","NAN"],
    [1554065,"2026-05-16 19:50:00","55055","2.199","108.5","3.528","119.7","NAN","NAN","NAN","NAN","NAN"],
    [1554066,"2026-05-16 20:00:00","55056","1.733","109.3","3.463","98.5","NAN","NAN","NAN","NAN","NAN"],
    [1554067,"2026-05-16 20:10:00","55057","1.858","118.1","3.43","121.2","NAN","NAN","NAN","NAN","NAN"],
    [1554068,"2026-05-16 20:20:00","55058","1.767","111.2","3.593","101.3","NAN","NAN","NAN","NAN","NAN"],
    [1554069,"2026-05-16 20:30:00","55059","1.7890000000000001","123.3","2.809","126.8","NAN","NAN","NAN","NAN","NAN"],
    [1554070,"2026-05-16 20:40:00","55060","1.969","126.9","3.724","128.6","NAN","NAN","NAN","NAN","NAN"],
    [1554071,"2026-05-16 20:50:00","55061","2.157","128.5","3.201","128.8","NAN","NAN","NAN","NAN","NAN"],
    [1554072,"2026-05-16 21:00:00","55062","1.923","131.1","3.038","127","NAN","NAN","NAN","NAN","NAN"],
    [1554073,"2026-05-16 21:10:00","55063","2.282","130.9","3.724","134.6","NAN","NAN","NAN","NAN","NAN"],
    [1554074,"2026-05-16 21:20:00","55064","2.1180000000000003","135.8","3.757","128.2","NAN","NAN","NAN","NAN","NAN"],
    [1554075,"2026-05-16 21:30:00","55065","2.204","149.4","3.593","154.3","NAN","NAN","NAN","NAN","NAN"],
    [1554076,"2026-05-16 21:40:00","55066","1.75","148.1","2.777","154.4","NAN","NAN","NAN","NAN","NAN"],
    [1554077,"2026-05-16 21:50:00","55067","2.064","153.8","3.201","155.4","NAN","NAN","NAN","NAN","NAN"],
    [1554078,"2026-05-16 22:00:00","55068","1.68","157.1","2.744","158","NAN","NAN","NAN","NAN","NAN"],
    [1554079,"2026-05-16 22:10:00","55069","2.553","164.5","4.018","152.9","NAN","NAN","NAN","NAN","NAN"],
    [1554080,"2026-05-16 22:20:00","55070","2.6719999999999997","158.9","4.018","158.1","NAN","NAN","NAN","NAN","NAN"],
    [1554081,"2026-05-16 22:30:00","55071","2.742","160.5","5.096","164.1","NAN","NAN","NAN","NAN","NAN"],
    [1554082,"2026-05-16 22:40:00","55072","2.076","157.7","4.312","147.3","NAN","NAN","NAN","NAN","NAN"],
    [1554083,"2026-05-16 22:50:00","55073","1.806","163.7","3.038","169.6","NAN","NAN","NAN","NAN","NAN"],
    [1554084,"2026-05-16 23:00:00","55074","1.954","165.0","3.757","154.5","NAN","NAN","NAN","NAN","NAN"],
    [1554085,"2026-05-16 23:10:00","55075","2.273","165.8","3.822","171.4","NAN","NAN","NAN","NAN","NAN"],
    [1554086,"2026-05-16 23:20:00","55076","2.076","167.5","3.659","168.6","NAN","NAN","NAN","NAN","NAN"],
    [1554087,"2026-05-16 23:30:00","55077","1.901","174.3","3.397","171.6","NAN","NAN","NAN","NAN","NAN"],
    [1554088,"2026-05-16 23:40:00","55078","1.7719999999999998","168.1","3.267","172.6","NAN","NAN","NAN","NAN","NAN"],
    [1554089,"2026-05-16 23:50:00","55079","1.4509999999999998","176.1","2.613","176.4","NAN","NAN","NAN","NAN","NAN"],
    [1554090,"2026-05-17 00:00:00","55080","2.2969999999999997","168.2","3.92","159.1","NAN","NAN","NAN","NAN","NAN"],
    [1554091,"2026-05-17 00:10:00","55081","1.581","176.1","3.136","175","NAN","NAN","NAN","NAN","NAN"],
    [1554092,"2026-05-17 00:20:00","55082","1.4909999999999999","172.3","2.385","175.8","NAN","NAN","NAN","NAN","NAN"],
    [1554093,"2026-05-17 00:30:00","55083","1.37","159.0","2.744","156.9","NAN","NAN","NAN","NAN","NAN"],
    [1554094,"2026-05-17 00:40:00","55084","1.246","166.5","2.058","165.4","NAN","NAN","NAN","NAN","NAN"],
    [1554095,"2026-05-17 00:50:00","55085","0.8320000000000001","168.6","1.731","167.9","NAN","NAN","NAN","NAN","NAN"],
    [1554096,"2026-05-17 01:00:00","55086","0.261","170.9","1.339","169.2","NAN","NAN","NAN","NAN","NAN"],
    [1554097,"2026-05-17 01:10:00","55087","0.084","173.3","0.555","173.3","NAN","NAN","NAN","NAN","NAN"],
    [1554098,"2026-05-17 01:20:00","55088","0.402","172.2","1.339","171.5","NAN","NAN","NAN","NAN","NAN"],
    [1554099,"2026-05-17 01:30:00","55089","0.24600000000000002","171.5","0.915","170.9","NAN","NAN","NAN","NAN","NAN"],
    [1554100,"2026-05-17 01:40:00","55090","0.21600000000000003","171.6","0.686","170.9","NAN","NAN","NAN","NAN","NAN"],
    [1554101,"2026-05-17 01:50:00","55091","0.583","164.0","1.503","157.7","NAN","NAN","NAN","NAN","NAN"],
    [1554102,"2026-05-17 02:00:00","55092","0.8140000000000001","156.9","1.503","158.7","NAN","NAN","NAN","NAN","NAN"],
    [1554103,"2026-05-17 02:10:00","55093","0.614","155.5","1.241","155.4","NAN","NAN","NAN","NAN","NAN"],
    [1554104,"2026-05-17 02:20:00","55094","0.32","155.4","1.078","155.6","NAN","NAN","NAN","NAN","NAN"],
    [1554105,"2026-05-17 02:30:00","55095","0.644","157.7","1.176","159.6","NAN","NAN","NAN","NAN","NAN"],
    [1554106,"2026-05-17 02:40:00","55096","0.584","160.6","1.209","160.6","NAN","NAN","NAN","NAN","NAN"],
    [1554107,"2026-05-17 02:50:00","55097","0.121","160.9","1.078","160.9","NAN","NAN","NAN","NAN","NAN"],
    [1554108,"2026-05-17 03:00:00","55098","0.256","162.0","0.915","162.4","NAN","NAN","NAN","NAN","NAN"],
    [1554109,"2026-05-17 03:10:00","55099","0.45899999999999996","166.2","0.849","164.8","NAN","NAN","NAN","NAN","NAN"],
    [1554110,"2026-05-17 03:20:00","55100","0.073","173.6","0.719","173.3","NAN","NAN","NAN","NAN","NAN"],
    [1554111,"2026-05-17 03:30:00","55101","0.142","174.4","0.686","174.4","NAN","NAN","NAN","NAN","NAN"],
    [1554112,"2026-05-17 03:40:00","55102","0.07","174.5","0.653","174.5","NAN","NAN","NAN","NAN","NAN"],
    [1554113,"2026-05-17 03:50:00","55103","0.09","174.5","0.817","174.5","NAN","NAN","NAN","NAN","NAN"],
    [1554114,"2026-05-17 04:00:00","55104","0.003","174.5","0.294","174.5","NAN","NAN","NAN","NAN","NAN"],
    [1554115,"2026-05-17 04:10:00","55105","0.077","174.6","0.588","174.7","NAN","NAN","NAN","NAN","NAN"],
    [1554116,"2026-05-17 04:20:00","55106","0.003","174.7","0.163","174.7","NAN","NAN","NAN","NAN","NAN"],
    [1554117,"2026-05-17 04:30:00","55107","0.02","173.9","0.49","173.5","NAN","NAN","NAN","NAN","NAN"],
    [1554118,"2026-05-17 04:40:00","55108","0.147","164.5","0.98","170.4","NAN","NAN","NAN","NAN","NAN"],
    [1554119,"2026-05-17 04:50:00","55109","0.379","155.2","1.013","155.1","NAN","NAN","NAN","NAN","NAN"],
    [1554120,"2026-05-17 05:00:00","55110","0.905","154.9","1.503","155","NAN","NAN","NAN","NAN","NAN"],
    [1554121,"2026-05-17 05:10:00","55111","0.599","153.7","1.241","153.3","NAN","NAN","NAN","NAN","NAN"],
    [1554122,"2026-05-17 05:20:00","55112","0.6609999999999999","140.4","1.568","138.5","NAN","NAN","NAN","NAN","NAN"],
    [1554123,"2026-05-17 05:30:00","55113","0.39399999999999996","134.7","1.47","134.9","NAN","NAN","NAN","NAN","NAN"],
    [1554124,"2026-05-17 05:40:00","55114","0.455","114.9","2.45","72.3","NAN","NAN","NAN","NAN","NAN"],
    [1554125,"2026-05-17 05:50:00","55115","1.7930000000000001","47.13","3.626","39.84","NAN","NAN","NAN","NAN","NAN"],
    [1554126,"2026-05-17 06:00:00","55116","2.64","45.74","4.214","55.47","NAN","NAN","NAN","NAN","NAN"],
    [1554127,"2026-05-17 06:10:00","55117","1.9880000000000002","42.47","3.887","43.62","NAN","NAN","NAN","NAN","NAN"],
    [1554128,"2026-05-17 06:20:00","55118","2.855","42.69","4.998","42.73","NAN","NAN","NAN","NAN","NAN"],
    [1554129,"2026-05-17 06:30:00","55119","2.535","49.8","4.443","36.5","NAN","NAN","NAN","NAN","NAN"],
    [1554130,"2026-05-17 06:40:00","55120","1.93","43.3","4.018","25.57","NAN","NAN","NAN","NAN","NAN"],
    [1554131,"2026-05-17 06:50:00","55121","2.373","70.28","5.782","66.08","NAN","NAN","NAN","NAN","NAN"],
    [1554132,"2026-05-17 07:00:00","55122","2.576","77.83","5.488","96.2","NAN","NAN","NAN","NAN","NAN"],
    [1554133,"2026-05-17 07:10:00","55123","3.15","81.8","5.782","92","NAN","NAN","NAN","NAN","NAN"],
    [1554134,"2026-05-17 07:20:00","55124","3.7760000000000002","86.0","6.435","94.6","NAN","NAN","NAN","NAN","NAN"],
    [1554135,"2026-05-17 07:30:00","55125","2.963","69.41","5.063","68.09","NAN","NAN","NAN","NAN","NAN"],
    [1554136,"2026-05-17 07:40:00","55126","2.878","63.59","5.161","60.5","NAN","NAN","NAN","NAN","NAN"],
    [1554137,"2026-05-17 07:50:00","55127","2.2359999999999998","69.06","4.41","58.94","NAN","NAN","NAN","NAN","NAN"],
    [1554138,"2026-05-17 08:00:00","55128","3.096","87.6","4.769","99.6","NAN","NAN","NAN","NAN","NAN"],
    [1554139,"2026-05-17 08:10:00","55129","3.1489999999999996","82.3","5.292","89.5","NAN","NAN","NAN","NAN","NAN"],
    [1554140,"2026-05-17 08:20:00","55130","3.472","86.5","4.933","73.04","NAN","NAN","NAN","NAN","NAN"],
    [1554141,"2026-05-17 08:30:00","55131","3.266","98.5","5.488","97","NAN","NAN","NAN","NAN","NAN"],
    [1554142,"2026-05-17 08:40:00","55132","3.62","98.0","5.651","95.6","NAN","NAN","NAN","NAN","NAN"],
    [1554143,"2026-05-17 08:50:00","55133","3.483","97.2","5.521","95.7","NAN","NAN","NAN","NAN","NAN"],
    [1554144,"2026-05-17 09:00:00","55134","3.9189999999999996","95.4","5.978","98.9","NAN","NAN","NAN","NAN","NAN"],
    [1554145,"2026-05-17 09:10:00","55135","4.086","95.3","6.37","87.3","NAN","NAN","NAN","NAN","NAN"],
    [1554146,"2026-05-17 09:20:00","55136","3.252","101.5","5.259","103.7","NAN","NAN","NAN","NAN","NAN"],
    [1554147,"2026-05-17 09:30:00","55137","3.4819999999999998","91.4","5.847","88.5","NAN","NAN","NAN","NAN","NAN"],
    [1554148,"2026-05-17 09:40:00","55138","3.909","95.7","6.893","87.1","NAN","NAN","NAN","NAN","NAN"],
    [1554149,"2026-05-17 09:50:00","55139","3.515","99.9","6.141","103.3","NAN","NAN","NAN","NAN","NAN"],
    [1554150,"2026-05-17 10:00:00","55140","3.463","92.9","6.141","92","NAN","NAN","NAN","NAN","NAN"],
    [1554151,"2026-05-17 10:10:00","55141","3.948","97.5","6.011","88.1","NAN","NAN","NAN","NAN","NAN"],
    [1554152,"2026-05-17 10:20:00","55142","4.026","90.6","6.566","83.8","NAN","NAN","NAN","NAN","NAN"],
    [1554153,"2026-05-17 10:30:00","55143","3.8489999999999998","95.1","6.337","93.6","NAN","NAN","NAN","NAN","NAN"],
    [1554154,"2026-05-17 10:40:00","55144","3.612","98.7","6.631","87.3","NAN","NAN","NAN","NAN","NAN"],
    [1554155,"2026-05-17 10:50:00","55145","3.748","89.5","5.815","81.5","NAN","NAN","NAN","NAN","NAN"],
    [1554156,"2026-05-17 11:00:00","55146","3.161","92.5","5.586","81.1","NAN","NAN","NAN","NAN","NAN"],
    [1554157,"2026-05-17 11:10:00","55147","3.042","100.3","5.194","104.3","NAN","NAN","NAN","NAN","NAN"],
    [1554158,"2026-05-17 11:20:00","55148","3.9410000000000003","96.9","6.076","97.4","NAN","NAN","NAN","NAN","NAN"],
    [1554159,"2026-05-17 11:30:00","55149","3.636","104.1","6.043","122.1","NAN","NAN","NAN","NAN","NAN"],
    [1554160,"2026-05-17 11:40:00","55150","3.698","100.3","5.684","112.9","NAN","NAN","NAN","NAN","NAN"],
    [1554161,"2026-05-17 11:50:00","55151","3.9810000000000003","94.9","6.337","102.7","NAN","NAN","NAN","NAN","NAN"],
    [1554162,"2026-05-17 12:00:00","55152","3.05","87.7","6.174","88.6","NAN","NAN","NAN","NAN","NAN"],
    [1554163,"2026-05-17 12:10:00","55153","3.8339999999999996","89.8","6.305","77.52","NAN","NAN","NAN","NAN","NAN"],
    [1554164,"2026-05-17 12:20:00","55154","3.625","90.8","6.337","100.8","NAN","NAN","NAN","NAN","NAN"],
    [1554165,"2026-05-17 12:30:00","55155","3.38","101.1","5.749","94.6","NAN","NAN","NAN","NAN","NAN"],
    [1554166,"2026-05-17 12:40:00","55156","3.3","102.6","5.39","109.7","NAN","NAN","NAN","NAN","NAN"],
    [1554167,"2026-05-17 12:50:00","55157","3.553","103.5","5.913","93.5","NAN","NAN","NAN","NAN","NAN"],
    [1554168,"2026-05-17 13:00:00","55158","3.1460000000000004","106.4","5.161","110.9","NAN","NAN","NAN","NAN","NAN"],
    [1554169,"2026-05-17 13:10:00","55159","3.355","92.8","5.423","83.5","NAN","NAN","NAN","NAN","NAN"],
    [1554170,"2026-05-17 13:20:00","55160","3.237","96.8","5.455","87.4","NAN","NAN","NAN","NAN","NAN"],
    [1554171,"2026-05-17 13:30:00","55161","2.78","100.0","4.671","93.2","NAN","NAN","NAN","NAN","NAN"],
    [1554172,"2026-05-17 13:40:00","55162","2.7430000000000003","121.7","4.835","124.4","NAN","NAN","NAN","NAN","NAN"],
    [1554173,"2026-05-17 13:50:00","55163","2.648","113.4","4.933","127.3","NAN","NAN","NAN","NAN","NAN"],
    [1554174,"2026-05-17 14:00:00","55164","2.792","123.4","5.096","132.1","NAN","NAN","NAN","NAN","NAN"],
    [1554175,"2026-05-17 14:10:00","55165","2.782","161.8","4.802","187.1","NAN","NAN","NAN","NAN","NAN"],
    [1554176,"2026-05-17 14:20:00","55166","3.6189999999999998","172.8","5.39","157.4","NAN","NAN","NAN","NAN","NAN"],
    [1554177,"2026-05-17 14:30:00","55167","2.945","188.8","5.161","221.8","NAN","NAN","NAN","NAN","NAN"],
    [1554178,"2026-05-17 14:40:00","55168","3.516","192.1","5.749","206.5","NAN","NAN","NAN","NAN","NAN"],
    [1554179,"2026-05-17 14:50:00","55169","3.062","183.8","5.455","163.8","NAN","NAN","NAN","NAN","NAN"],
    [1554180,"2026-05-17 15:00:00","55170","3.6839999999999997","192.8","5.847","170.4","NAN","NAN","NAN","NAN","NAN"],
    [1554181,"2026-05-17 15:10:00","55171","4.231","211.1","6.664","220.5","NAN","NAN","NAN","NAN","NAN"],
    [1554182,"2026-05-17 15:20:00","55172","4.058","208.3","6.697","208.5","NAN","NAN","NAN","NAN","NAN"],
    [1554183,"2026-05-17 15:30:00","55173","4.415","211.8","7.481","200.8","NAN","NAN","NAN","NAN","NAN"],
    [1554184,"2026-05-17 15:40:00","55174","4.24","214.1","6.86","211.2","NAN","NAN","NAN","NAN","NAN"],
    [1554185,"2026-05-17 15:50:00","55175","4.303","227.3","8.2","216.3","NAN","NAN","NAN","NAN","NAN"],
    [1554186,"2026-05-17 16:00:00","55176","4.349","216.7","7.775","199.6","NAN","NAN","NAN","NAN","NAN"],
    [1554187,"2026-05-17 16:10:00","55177","4.879","214.2","7.383","198.5","NAN","NAN","NAN","NAN","NAN"],
    [1554188,"2026-05-17 16:20:00","55178","4.939","223.2","8.75","238.3","NAN","NAN","NAN","NAN","NAN"],
    [1554189,"2026-05-17 16:30:00","55179","4.879","215.9","8.66","203.5","NAN","NAN","NAN","NAN","NAN"],
    [1554190,"2026-05-17 16:40:00","55180","5.837999999999999","211.5","8.82","211.1","NAN","NAN","NAN","NAN","NAN"],
    [1554191,"2026-05-17 16:50:00","55181","4.677","221.1","8.56","219.7","NAN","NAN","NAN","NAN","NAN"],
    [1554192,"2026-05-17 17:00:00","55182","5.438","218.7","9.47","242.7","NAN","NAN","NAN","NAN","NAN"],
    [1554193,"2026-05-17 17:10:00","55183","5.412999999999999","221.7","8.82","220.5","NAN","NAN","NAN","NAN","NAN"],
    [1554194,"2026-05-17 17:20:00","55184","5.255","216.7","8.33","211.2","NAN","NAN","NAN","NAN","NAN"],
    [1554195,"2026-05-17 17:30:00","55185","4.409","232.1","7.807","209.7","NAN","NAN","NAN","NAN","NAN"],
    [1554196,"2026-05-17 17:40:00","55186","4.641","238.4","8.3","255.3","NAN","NAN","NAN","NAN","NAN"],
    [1554197,"2026-05-17 17:50:00","55187","4.33","229.5","6.729","226.1","NAN","NAN","NAN","NAN","NAN"],
    [1554198,"2026-05-17 18:00:00","55188","3.2569999999999997","228.5","6.729","204.3","NAN","NAN","NAN","NAN","NAN"],
    [1554199,"2026-05-17 18:10:00","55189","4.103","237.7","7.219","213.9","NAN","NAN","NAN","NAN","NAN"],
    [1554200,"2026-05-17 18:20:00","55190","3.1439999999999997","234.9","5.684","209.8","NAN","NAN","NAN","NAN","NAN"],
    [1554201,"2026-05-17 18:30:00","55191","3.568","232.5","6.403","245.4","NAN","NAN","NAN","NAN","NAN"],
    [1554202,"2026-05-17 18:40:00","55192","3.907","248.8","6.207","244.4","NAN","NAN","NAN","NAN","NAN"],
    [1554203,"2026-05-17 18:50:00","55193","2.8689999999999998","244.9","4.443","247.4","NAN","NAN","NAN","NAN","NAN"],
    [1554204,"2026-05-17 19:00:00","55194","2.73","244.2","4.573","248.9","NAN","NAN","NAN","NAN","NAN"],
    [1554205,"2026-05-17 19:10:00","55195","2.718","252.2","4.41","253.3","NAN","NAN","NAN","NAN","NAN"],
    [1554206,"2026-05-17 19:20:00","55196","2.826","249.2","4.671","252.6","NAN","NAN","NAN","NAN","NAN"],
    [1554207,"2026-05-17 19:30:00","55197","3.137","256.4","4.769","254.7","NAN","NAN","NAN","NAN","NAN"],
    [1554208,"2026-05-17 19:40:00","55198","2.55","260.8","4.606","250.4","NAN","NAN","NAN","NAN","NAN"],
    [1554209,"2026-05-17 19:50:00","55199","2.376","268.1","3.953","275.8","NAN","NAN","NAN","NAN","NAN"],
    [1554210,"2026-05-17 20:00:00","55200","2.19","251.9","3.169","250.2","NAN","NAN","NAN","NAN","NAN"],
    [1554211,"2026-05-17 20:10:00","55201","1.766","261.8","2.711","266.6","NAN","NAN","NAN","NAN","NAN"],
    [1554212,"2026-05-17 20:20:00","55202","1.739","256.1","2.744","250.7","NAN","NAN","NAN","NAN","NAN"],
    [1554213,"2026-05-17 20:30:00","55203","2.332","251.5","3.332","247.4","NAN","NAN","NAN","NAN","NAN"],
    [1554214,"2026-05-17 20:40:00","55204","1.882","248.1","2.907","252.7","NAN","NAN","NAN","NAN","NAN"],
    [1554215,"2026-05-17 20:50:00","55205","1.847","249.3","2.581","245.8","NAN","NAN","NAN","NAN","NAN"],
    [1554216,"2026-05-17 21:00:00","55206","1.722","249.4","2.809","252.8","NAN","NAN","NAN","NAN","NAN"],
    [1554217,"2026-05-17 21:10:00","55207","1.355","252.6","2.025","250.9","NAN","NAN","NAN","NAN","NAN"],
    [1554218,"2026-05-17 21:20:00","55208","0.7140000000000001","252.9","1.601","252.7","NAN","NAN","NAN","NAN","NAN"],
    [1554219,"2026-05-17 21:30:00","55209","0.242","254.0","0.882","254","NAN","NAN","NAN","NAN","NAN"],
    [1554220,"2026-05-17 21:40:00","55210","0.637","260.6","1.666","264.8","NAN","NAN","NAN","NAN","NAN"],
    [1554221,"2026-05-17 21:50:00","55211","0.6579999999999999","267.8","1.241","267.3","NAN","NAN","NAN","NAN","NAN"],
    [1554222,"2026-05-17 22:00:00","55212","0.35200000000000004","269.0","1.209","268.9","NAN","NAN","NAN","NAN","NAN"],
    [1554223,"2026-05-17 22:10:00","55213","0.077","269.2","0.555","269.2","NAN","NAN","NAN","NAN","NAN"],
    [1554224,"2026-05-17 22:20:00","55214","0.172","269.3","0.947","269.3","NAN","NAN","NAN","NAN","NAN"],
    [1554225,"2026-05-17 22:30:00","55215","0.45799999999999996","269.3","1.045","269.3","NAN","NAN","NAN","NAN","NAN"],
    [1554226,"2026-05-17 22:40:00","55216","1.077","268.7","1.731","268.7","NAN","NAN","NAN","NAN","NAN"],
    [1554227,"2026-05-17 22:50:00","55217","1.065","268.2","1.731","269.3","NAN","NAN","NAN","NAN","NAN"],
    [1554228,"2026-05-17 23:00:00","55218","1.314","268.8","2.385","270","NAN","NAN","NAN","NAN","NAN"],
    [1554229,"2026-05-17 23:10:00","55219","1.055","270.0","1.633","270.4","NAN","NAN","NAN","NAN","NAN"],
    [1554230,"2026-05-17 23:20:00","55220","0.828","270.6","1.829","270.6","NAN","NAN","NAN","NAN","NAN"],
    [1554231,"2026-05-17 23:30:00","55221","0.963","270.9","1.633","270.8","NAN","NAN","NAN","NAN","NAN"],
    [1554232,"2026-05-17 23:40:00","55222","0.47700000000000004","270.9","0.98","270.9","NAN","NAN","NAN","NAN","NAN"],
    [1554233,"2026-05-17 23:50:00","55223","0.065","270.9","0.849","270.9","NAN","NAN","NAN","NAN","NAN"],
    [1554234,"2026-05-18 00:00:00","55224","0.038","270.9","0.457","270.9","NAN","NAN","NAN","NAN","NAN"],
    [1554235,"2026-05-18 00:10:00","55225","0.516","270.9","0.98","270.9","NAN","NAN","NAN","NAN","NAN"],
    [1554236,"2026-05-18 00:20:00","55226","0.835","270.9","1.372","270.9","NAN","NAN","NAN","NAN","NAN"],
    [1554237,"2026-05-18 00:30:00","55227","1.133","270.7","1.535","270.9","NAN","NAN","NAN","NAN","NAN"],
    [1554238,"2026-05-18 00:40:00","55228","0.893","270.8","1.535","270.9","NAN","NAN","NAN","NAN","NAN"],
    [1554239,"2026-05-18 00:50:00","55229","0.27899999999999997","268.9","0.849","268.6","NAN","NAN","NAN","NAN","NAN"],
    [1554240,"2026-05-18 01:00:00","55230","0.753","270.5","1.633","271.1","NAN","NAN","NAN","NAN","NAN"],
    [1554241,"2026-05-18 01:10:00","55231","0.495","270.9","1.405","271.2","NAN","NAN","NAN","NAN","NAN"],
    [1554242,"2026-05-18 01:20:00","55232","0.41100000000000003","268.4","0.849","267.8","NAN","NAN","NAN","NAN","NAN"],
    [1554243,"2026-05-18 01:30:00","55233","0.036000000000000004","267.9","0.621","268.2","NAN","NAN","NAN","NAN","NAN"],
    [1554244,"2026-05-18 01:40:00","55234","0.012","271.2","0.359","271.2","NAN","NAN","NAN","NAN","NAN"],
    [1554245,"2026-05-18 01:50:00","55235","0.016","268.9","0.261","271.2","NAN","NAN","NAN","NAN","NAN"],
    [1554246,"2026-05-18 02:00:00","55236","0.003","267.6","0.261","267.6","NAN","NAN","NAN","NAN","NAN"],
    [1554247,"2026-05-18 02:10:00","55237","0.13","268.5","0.555","267.3","NAN","NAN","NAN","NAN","NAN"],
    [1554248,"2026-05-18 02:20:00","55238","0.126","271.0","0.751","271.1","NAN","NAN","NAN","NAN","NAN"],
    [1554249,"2026-05-18 02:30:00","55239","0.7020000000000001","269.6","1.568","270.2","NAN","NAN","NAN","NAN","NAN"],
    [1554250,"2026-05-18 02:40:00","55240","0.8490000000000001","270.7","1.437","271.2","NAN","NAN","NAN","NAN","NAN"],
    [1554251,"2026-05-18 02:50:00","55241","0.12300000000000001","271.2","0.882","271.2","NAN","NAN","NAN","NAN","NAN"],
    [1554252,"2026-05-18 03:00:00","55242","0.6990000000000001","271.3","1.372","271.4","NAN","NAN","NAN","NAN","NAN"],
    [1554253,"2026-05-18 03:10:00","55243","0.655","271.4","1.568","271.5","NAN","NAN","NAN","NAN","NAN"],
    [1554254,"2026-05-18 03:20:00","55244","1.327","271.8","2.091","271.6","NAN","NAN","NAN","NAN","NAN"],
    [1554255,"2026-05-18 03:30:00","55245","0.534","272.1","1.699","272.1","NAN","NAN","NAN","NAN","NAN"],
    [1554256,"2026-05-18 03:40:00","55246","0.643","272.2","1.209","272.2","NAN","NAN","NAN","NAN","NAN"],
    [1554257,"2026-05-18 03:50:00","55247","0.364","272.2","1.437","272.2","NAN","NAN","NAN","NAN","NAN"],
    [1554258,"2026-05-18 04:00:00","55248","0.242","272.2","0.98","272.2","NAN","NAN","NAN","NAN","NAN"],
    [1554259,"2026-05-18 04:10:00","55249","0.314","272.1","1.013","272.2","NAN","NAN","NAN","NAN","NAN"],
    [1554260,"2026-05-18 04:20:00","55250","0.131","269.7","0.882","271.8","NAN","NAN","NAN","NAN","NAN"],
    [1554261,"2026-05-18 04:30:00","55251","1.325","270.2","2.973","272.2","NAN","NAN","NAN","NAN","NAN"],
    [1554262,"2026-05-18 04:40:00","55252","1.575","271.3","2.581","266.8","NAN","NAN","NAN","NAN","NAN"],
    [1554263,"2026-05-18 04:50:00","55253","1.55","276.2","2.679","273.7","NAN","NAN","NAN","NAN","NAN"],
    [1554264,"2026-05-18 05:00:00","55254","1.301","272.4","2.515","276.4","NAN","NAN","NAN","NAN","NAN"],
    [1554265,"2026-05-18 05:10:00","55255","1.214","274.2","2.515","276.6","NAN","NAN","NAN","NAN","NAN"],
    [1554266,"2026-05-18 05:20:00","55256","0.812","273.0","1.862","268.8","NAN","NAN","NAN","NAN","NAN"],
    [1554267,"2026-05-18 05:30:00","55257","1.125","271.2","2.058","275.6","NAN","NAN","NAN","NAN","NAN"],
    [1554268,"2026-05-18 05:40:00","55258","1.47","268.8","3.169","268.9","NAN","NAN","NAN","NAN","NAN"],
    [1554269,"2026-05-18 05:50:00","55259","2.352","272.1","3.561","276.5","NAN","NAN","NAN","NAN","NAN"],
    [1554270,"2026-05-18 06:00:00","55260","2.237","285.5","4.377","298","NAN","NAN","NAN","NAN","NAN"],
    [1554271,"2026-05-18 06:10:00","55261","2.415","300.5","4.051","301.6","NAN","NAN","NAN","NAN","NAN"],
    [1554272,"2026-05-18 06:20:00","55262","2.445","300.1","4.051","300.3","NAN","NAN","NAN","NAN","NAN"],
    [1554273,"2026-05-18 06:30:00","55263","2.274","296.9","3.92","302.4","NAN","NAN","NAN","NAN","NAN"],
    [1554274,"2026-05-18 06:40:00","55264","1.857","303.7","3.169","308","NAN","NAN","NAN","NAN","NAN"],
    [1554275,"2026-05-18 06:50:00","55265","2.33","300.6","3.691","306.5","NAN","NAN","NAN","NAN","NAN"],
    [1554276,"2026-05-18 07:00:00","55266","1.611","293.4","2.613","288","NAN","NAN","NAN","NAN","NAN"],
    [1554277,"2026-05-18 07:10:00","55267","0.8140000000000001","294.8","2.483","298.1","NAN","NAN","NAN","NAN","NAN"],
    [1554278,"2026-05-18 07:20:00","55268","0.963","295.0","2.025","290.6","NAN","NAN","NAN","NAN","NAN"],
    [1554279,"2026-05-18 07:30:00","55269","0.215","296.9","0.882","301.3","NAN","NAN","NAN","NAN","NAN"],
    [1554280,"2026-05-18 07:40:00","55270","0.205","283.2","1.143","248.7","NAN","NAN","NAN","NAN","NAN"],
    [1554281,"2026-05-18 07:50:00","55271","1.024","246.8","2.319","246.5","NAN","NAN","NAN","NAN","NAN"],
    [1554282,"2026-05-18 08:00:00","55272","1.758","223.0","2.907","229.6","NAN","NAN","NAN","NAN","NAN"],
    [1554283,"2026-05-18 08:10:00","55273","0.995","218.8","2.45","222.2","NAN","NAN","NAN","NAN","NAN"],
    [1554284,"2026-05-18 08:20:00","55274","2.084","188.2","4.279","167.6","NAN","NAN","NAN","NAN","NAN"],
    [1554285,"2026-05-18 08:30:00","55275","1.7630000000000001","189.1","4.443","173.7","NAN","NAN","NAN","NAN","NAN"],
    [1554286,"2026-05-18 08:40:00","55276","2.559","172.7","4.573","160.4","NAN","NAN","NAN","NAN","NAN"],
    [1554287,"2026-05-18 08:50:00","55277","2.908","181.9","5.717","156.6","NAN","NAN","NAN","NAN","NAN"],
    [1554288,"2026-05-18 09:00:00","55278","3.573","173.2","6.076","179.5","NAN","NAN","NAN","NAN","NAN"],
    [1554289,"2026-05-18 09:10:00","55279","2.992","179.7","5.945","171.7","NAN","NAN","NAN","NAN","NAN"],
    [1554290,"2026-05-18 09:20:00","55280","3.3510000000000004","183.8","5.978","167.2","NAN","NAN","NAN","NAN","NAN"],
    [1554291,"2026-05-18 09:30:00","55281","3.01","179.3","5.553","178.3","NAN","NAN","NAN","NAN","NAN"],
    [1554292,"2026-05-18 09:40:00","55282","2.7289999999999996","198.3","6.599","216.8","NAN","NAN","NAN","NAN","NAN"],
    [1554293,"2026-05-18 09:50:00","55283","2.8339999999999996","192.4","5.978","180.1","NAN","NAN","NAN","NAN","NAN"],
    [1554294,"2026-05-18 10:00:00","55284","3.1660000000000004","177.2","5.521","180.9","NAN","NAN","NAN","NAN","NAN"],
    [1554295,"2026-05-18 10:10:00","55285","3.389","208.4","5.455","223.9","NAN","NAN","NAN","NAN","NAN"],
    [1554296,"2026-05-18 10:20:00","55286","3.247","187.3","6.207","208.4","NAN","NAN","NAN","NAN","NAN"],
    [1554297,"2026-05-18 10:30:00","55287","2.7310000000000003","184.6","6.109","157.3","NAN","NAN","NAN","NAN","NAN"],
    [1554298,"2026-05-18 10:40:00","55288","3.34","197.3","5.586","206.5","NAN","NAN","NAN","NAN","NAN"],
    [1554299,"2026-05-18 10:50:00","55289","2.824","203.2","5.161","213.1","NAN","NAN","NAN","NAN","NAN"],
    [1554300,"2026-05-18 11:00:00","55290","2.819","201.1","4.933","208.3","NAN","NAN","NAN","NAN","NAN"],
    [1554301,"2026-05-18 11:10:00","55291","2.7060000000000004","177.2","4.704","197.1","NAN","NAN","NAN","NAN","NAN"],
    [1554302,"2026-05-18 11:20:00","55292","3.13","209.3","5.129","209.7","NAN","NAN","NAN","NAN","NAN"],
    [1554303,"2026-05-18 11:30:00","55293","2.4859999999999998","217.4","4.475","200.5","NAN","NAN","NAN","NAN","NAN"],
    [1554304,"2026-05-18 11:40:00","55294","2.1069999999999998","203.7","3.626","200.2","NAN","NAN","NAN","NAN","NAN"],
    [1554305,"2026-05-18 11:50:00","55295","2.197","212.0","4.149","211.6","NAN","NAN","NAN","NAN","NAN"],
    [1554306,"2026-05-18 12:00:00","55296","1.776","192.2","3.593","169.4","NAN","NAN","NAN","NAN","NAN"],
    [1554307,"2026-05-18 12:10:00","55297","2.355","193.1","4.639","214.1","NAN","NAN","NAN","NAN","NAN"],
    [1554308,"2026-05-18 12:20:00","55298","3.116","204.9","5.749","213.7","NAN","NAN","NAN","NAN","NAN"],
    [1554309,"2026-05-18 12:30:00","55299","3.201","209.1","5.619","211","NAN","NAN","NAN","NAN","NAN"],
    [1554310,"2026-05-18 12:40:00","55300","2.998","194.0","5.227","208.9","NAN","NAN","NAN","NAN","NAN"],
    [1554311,"2026-05-18 12:50:00","55301","2.667","184.9","4.377","160.1","NAN","NAN","NAN","NAN","NAN"],
    [1554312,"2026-05-18 13:00:00","55302","2.8289999999999997","197.8","4.933","167.6","NAN","NAN","NAN","NAN","NAN"],
    [1554313,"2026-05-18 13:10:00","55303","2.7889999999999997","207.8","5.227","215.7","NAN","NAN","NAN","NAN","NAN"],
    [1554314,"2026-05-18 13:20:00","55304","3.384","208.1","5.455","213.2","NAN","NAN","NAN","NAN","NAN"],
    [1554315,"2026-05-18 13:30:00","55305","3.036","232.3","4.737","202","NAN","NAN","NAN","NAN","NAN"],
    [1554316,"2026-05-18 13:40:00","55306","1.043","246.3","3.659","239.3","NAN","NAN","NAN","NAN","NAN"],
    [1554317,"2026-05-18 13:50:00","55307","1.645","224.1","5.325","163.9","NAN","NAN","NAN","NAN","NAN"],
    [1554318,"2026-05-18 14:00:00","55308","3.128","190.8","6.566","168","NAN","NAN","NAN","NAN","NAN"],
    [1554319,"2026-05-18 14:10:00","55309","2.571","211.6","5.717","218.3","NAN","NAN","NAN","NAN","NAN"],
    [1554320,"2026-05-18 14:20:00","55310","3.0469999999999997","197.3","5.325","228.6","NAN","NAN","NAN","NAN","NAN"],
    [1554321,"2026-05-18 14:30:00","55311","3.641","201.4","7.252","222","NAN","NAN","NAN","NAN","NAN"],
    [1554322,"2026-05-18 14:40:00","55312","3.522","204.4","6.729","209.4","NAN","NAN","NAN","NAN","NAN"],
    [1554323,"2026-05-18 14:50:00","55313","3.5810000000000004","212.6","5.717","215.7","NAN","NAN","NAN","NAN","NAN"],
    [1554324,"2026-05-18 15:00:00","55314","3.051","222.6","5.749","225.2","NAN","NAN","NAN","NAN","NAN"],
    [1554325,"2026-05-18 15:10:00","55315","4.081","213.2","6.403","213.5","NAN","NAN","NAN","NAN","NAN"],
    [1554326,"2026-05-18 15:20:00","55316","3.492","206.5","6.37","211.9","NAN","NAN","NAN","NAN","NAN"],
    [1554327,"2026-05-18 15:30:00","55317","3.571","201.1","7.481","215.3","NAN","NAN","NAN","NAN","NAN"],
    [1554328,"2026-05-18 15:40:00","55318","4.236000000000001","208.8","6.664","210.3","NAN","NAN","NAN","NAN","NAN"],
    [1554329,"2026-05-18 15:50:00","55319","3.221","204.5","6.729","217.2","NAN","NAN","NAN","NAN","NAN"],
    [1554330,"2026-05-18 16:00:00","55320","3.805","205.7","6.86","207.1","NAN","NAN","NAN","NAN","NAN"],
    [1554331,"2026-05-18 16:10:00","55321","3.465","211.6","5.619","207.5","NAN","NAN","NAN","NAN","NAN"],
    [1554332,"2026-05-18 16:20:00","55322","3.0869999999999997","190.1","4.998","217","NAN","NAN","NAN","NAN","NAN"],
    [1554333,"2026-05-18 16:30:00","55323","2.8489999999999998","177.5","5.423","165","NAN","NAN","NAN","NAN","NAN"],
    [1554334,"2026-05-18 16:40:00","55324","1.931","195.1","3.626","216.4","NAN","NAN","NAN","NAN","NAN"],
    [1554335,"2026-05-18 16:50:00","55325","2.883","206.7","5.031","208.8","NAN","NAN","NAN","NAN","NAN"],
    [1554336,"2026-05-18 17:00:00","55326","2.079","210.1","4.149","205.2","NAN","NAN","NAN","NAN","NAN"],
    [1554337,"2026-05-18 17:10:00","55327","2.3680000000000003","205.4","4.018","201.2","NAN","NAN","NAN","NAN","NAN"],
    [1554338,"2026-05-18 17:20:00","55328","2.4859999999999998","206.8","4.475","212.2","NAN","NAN","NAN","NAN","NAN"],
    [1554339,"2026-05-18 17:30:00","55329","2.688","218.8","4.9","227.5","NAN","NAN","NAN","NAN","NAN"],
    [1554340,"2026-05-18 17:40:00","55330","3.002","225.7","4.639","216.2","NAN","NAN","NAN","NAN","NAN"],
    [1554341,"2026-05-18 17:50:00","55331","2.184","216.7","4.149","211.4","NAN","NAN","NAN","NAN","NAN"],
    [1554342,"2026-05-18 18:00:00","55332","1.919","224.2","3.463","240.5","NAN","NAN","NAN","NAN","NAN"],
    [1554343,"2026-05-18 18:10:00","55333","2.082","211.9","3.985","205.2","NAN","NAN","NAN","NAN","NAN"],
    [1554344,"2026-05-18 18:20:00","55334","2.055","218.1","3.855","221.7","NAN","NAN","NAN","NAN","NAN"],
    [1554345,"2026-05-18 18:30:00","55335","2.122","231.9","3.757","227.5","NAN","NAN","NAN","NAN","NAN"],
    [1554346,"2026-05-18 18:40:00","55336","1.932","212.8","3.463","207.2","NAN","NAN","NAN","NAN","NAN"],
    [1554347,"2026-05-18 18:50:00","55337","1.4709999999999999","225.0","3.757","221.6","NAN","NAN","NAN","NAN","NAN"],
    [1554348,"2026-05-18 19:00:00","55338","1.2930000000000001","233.8","3.299","219.3","NAN","NAN","NAN","NAN","NAN"],
    [1554349,"2026-05-18 19:10:00","55339","1.275","224.8","3.103","216.8","NAN","NAN","NAN","NAN","NAN"],
    [1554350,"2026-05-18 19:20:00","55340","2.15","213.4","3.593","205.2","NAN","NAN","NAN","NAN","NAN"],
    [1554351,"2026-05-18 19:30:00","55341","1.9069999999999998","209.2","3.528","213.9","NAN","NAN","NAN","NAN","NAN"],
    [1554352,"2026-05-18 19:40:00","55342","1.857","206.5","2.907","206.9","NAN","NAN","NAN","NAN","NAN"],
    [1554353,"2026-05-18 19:50:00","55343","1.485","214.1","2.548","211.6","NAN","NAN","NAN","NAN","NAN"],
    [1554354,"2026-05-18 20:00:00","55344","1.315","224.3","3.267","226.4","NAN","NAN","NAN","NAN","NAN"],
    [1554355,"2026-05-18 20:10:00","55345","0.99","225.5","2.352","219.5","NAN","NAN","NAN","NAN","NAN"],
    [1554356,"2026-05-18 20:20:00","55346","0.98","230.1","1.993","233.8","NAN","NAN","NAN","NAN","NAN"],
    [1554357,"2026-05-18 20:30:00","55347","0.9490000000000001","223.1","1.895","219","NAN","NAN","NAN","NAN","NAN"],
    [1554358,"2026-05-18 20:40:00","55348","1.757","212.4","2.613","210","NAN","NAN","NAN","NAN","NAN"],
    [1554359,"2026-05-18 20:50:00","55349","1.945","205.8","3.43","202.5","NAN","NAN","NAN","NAN","NAN"],
    [1554360,"2026-05-18 21:00:00","55350","2.255","203.7","3.626","198.9","NAN","NAN","NAN","NAN","NAN"],
    [1554361,"2026-05-18 21:10:00","55351","2.426","207.1","3.528","206.3","NAN","NAN","NAN","NAN","NAN"],
    [1554362,"2026-05-18 21:20:00","55352","2.28","207.3","3.724","208.4","NAN","NAN","NAN","NAN","NAN"],
    [1554363,"2026-05-18 21:30:00","55353","2.336","207.9","3.626","206.7","NAN","NAN","NAN","NAN","NAN"],
    [1554364,"2026-05-18 21:40:00","55354","2.141","209.3","3.43","213.6","NAN","NAN","NAN","NAN","NAN"],
    [1554365,"2026-05-18 21:50:00","55355","1.9909999999999999","204.7","3.005","207.5","NAN","NAN","NAN","NAN","NAN"],
    [1554366,"2026-05-18 22:00:00","55356","2.021","205.2","3.136","211.8","NAN","NAN","NAN","NAN","NAN"],
    [1554367,"2026-05-18 22:10:00","55357","2.106","204.4","3.626","210.9","NAN","NAN","NAN","NAN","NAN"],
    [1554368,"2026-05-18 22:20:00","55358","1.795","202.1","2.711","210.6","NAN","NAN","NAN","NAN","NAN"],
    [1554369,"2026-05-18 22:30:00","55359","1.344","198.5","2.45","203.3","NAN","NAN","NAN","NAN","NAN"],
    [1554370,"2026-05-18 22:40:00","55360","1.6119999999999999","204.8","2.515","202.1","NAN","NAN","NAN","NAN","NAN"],
    [1554371,"2026-05-18 22:50:00","55361","1.5119999999999998","203.8","2.352","207.9","NAN","NAN","NAN","NAN","NAN"],
    [1554372,"2026-05-18 23:00:00","55362","1.331","202.5","2.091","200","NAN","NAN","NAN","NAN","NAN"],
    [1554373,"2026-05-18 23:10:00","55363","1.385","202.6","2.025","202","NAN","NAN","NAN","NAN","NAN"],
    [1554374,"2026-05-18 23:20:00","55364","1.222","205.8","2.45","199.7","NAN","NAN","NAN","NAN","NAN"],
    [1554375,"2026-05-18 23:30:00","55365","1.285","203.7","2.123","210.1","NAN","NAN","NAN","NAN","NAN"],
    [1554376,"2026-05-18 23:40:00","55366","0.49700000000000005","209.8","1.274","209.8","NAN","NAN","NAN","NAN","NAN"],
    [1554377,"2026-05-18 23:50:00","55367","0.758","215.2","1.764","213.8","NAN","NAN","NAN","NAN","NAN"],
    [1554378,"2026-05-19 00:00:00","55368","0.0","0.0","0","0","NAN","NAN","NAN","NAN","NAN"],
    [1554379,"2026-05-19 00:10:00","55369","0.0","0.0","0","0","NAN","NAN","NAN","NAN","NAN"],
    [1554380,"2026-05-19 00:20:00","55370","0.001","215.9","0.098","215.9","NAN","NAN","NAN","NAN","NAN"],
    [1554381,"2026-05-19 00:30:00","55371","0.0","0.0","0","0","NAN","NAN","NAN","NAN","NAN"],
    [1554382,"2026-05-19 00:40:00","55372","0.0","0.0","0","0","NAN","NAN","NAN","NAN","NAN"],
    [1554383,"2026-05-19 00:50:00","55373","0.0","0.0","0","0","NAN","NAN","NAN","NAN","NAN"],
    [1554384,"2026-05-19 01:00:00","55374","0.0","0.0","0","0","NAN","NAN","NAN","NAN","NAN"],
    [1554385,"2026-05-19 01:10:00","55375","0.0","0.0","0","0","NAN","NAN","NAN","NAN","NAN"],
    [1554386,"2026-05-19 01:20:00","55376","0.027999999999999997","215.9","0.425","215.9","NAN","NAN","NAN","NAN","NAN"],
    [1554387,"2026-05-19 01:30:00","55377","0.019","215.9","0.49","215.9","NAN","NAN","NAN","NAN","NAN"],
    [1554388,"2026-05-19 01:40:00","55378","0.0","0.0","0","0","NAN","NAN","NAN","NAN","NAN"],
    [1554389,"2026-05-19 01:50:00","55379","0.017","216.0","0.261","216","NAN","NAN","NAN","NAN","NAN"],
    [1554390,"2026-05-19 02:00:00","55380","0.001","216.0","0.131","216","NAN","NAN","NAN","NAN","NAN"],
    [1554391,"2026-05-19 02:10:00","55381","0.0","0.0","0","0","NAN","NAN","NAN","NAN","NAN"],
    [1554392,"2026-05-19 02:20:00","55382","0.0","0.0","0","0","NAN","NAN","NAN","NAN","NAN"],
    [1554393,"2026-05-19 02:30:00","55383","0.027999999999999997","216.0","0.359","216","NAN","NAN","NAN","NAN","NAN"],
    [1554394,"2026-05-19 02:40:00","55384","0.004","216.0","0.196","216","NAN","NAN","NAN","NAN","NAN"],
    [1554395,"2026-05-19 02:50:00","55385","0.049","216.2","0.425","216.2","NAN","NAN","NAN","NAN","NAN"],
    [1554396,"2026-05-19 03:00:00","55386","0.006","216.2","0.327","216.2","NAN","NAN","NAN","NAN","NAN"],
    [1554397,"2026-05-19 03:10:00","55387","0.075","216.4","0.49","216.4","NAN","NAN","NAN","NAN","NAN"],
    [1554398,"2026-05-19 03:20:00","55388","0.006999999999999999","216.5","0.261","216.4","NAN","NAN","NAN","NAN","NAN"],
    [1554399,"2026-05-19 03:30:00","55389","0.0","0.0","0","0","NAN","NAN","NAN","NAN","NAN"],
    [1554400,"2026-05-19 03:40:00","55390","0.0","216.6","0.033","216.6","NAN","NAN","NAN","NAN","NAN"],
    [1554401,"2026-05-19 03:50:00","55391","0.001","216.6","0.098","216.6","NAN","NAN","NAN","NAN","NAN"],
    [1554402,"2026-05-19 04:00:00","55392","0.001","216.6","0.033","216.6","NAN","NAN","NAN","NAN","NAN"],
    [1554403,"2026-05-19 04:10:00","55393","0.006999999999999999","216.6","0.359","216.6","NAN","NAN","NAN","NAN","NAN"],
    [1554404,"2026-05-19 04:20:00","55394","0.002","216.6","0.196","216.6","NAN","NAN","NAN","NAN","NAN"],
    [1554405,"2026-05-19 04:30:00","55395","0.0","0.0","0","0","NAN","NAN","NAN","NAN","NAN"],
    [1554406,"2026-05-19 04:40:00","55396","0.023","216.8","0.49","216.8","NAN","NAN","NAN","NAN","NAN"],
    [1554407,"2026-05-19 04:50:00","55397","0.021","216.9","0.719","216.9","NAN","NAN","NAN","NAN","NAN"],
    [1554408,"2026-05-19 05:00:00","55398","0.001","217.2","0.098","217.3","NAN","NAN","NAN","NAN","NAN"],
    [1554409,"2026-05-19 05:10:00","55399","0.0","0.0","0","0","NAN","NAN","NAN","NAN","NAN"],
    [1554410,"2026-05-19 05:20:00","55400","0.095","218.1","0.915","218.1","NAN","NAN","NAN","NAN","NAN"],
    [1554411,"2026-05-19 05:30:00","55401","0.11199999999999999","218.2","1.045","218.2","NAN","NAN","NAN","NAN","NAN"],
    [1554412,"2026-05-19 05:40:00","55402","0.055999999999999994","218.2","0.555","218.2","NAN","NAN","NAN","NAN","NAN"],
    [1554413,"2026-05-19 05:50:00","55403","0.013999999999999999","218.3","0.425","218.4","NAN","NAN","NAN","NAN","NAN"],
    [1554414,"2026-05-19 06:00:00","55404","0.004","218.4","0.457","218.4","NAN","NAN","NAN","NAN","NAN"],
    [1554415,"2026-05-19 06:10:00","55405","0.002","218.5","0.196","218.5","NAN","NAN","NAN","NAN","NAN"],
    [1554416,"2026-05-19 06:20:00","55406","0.015","218.7","0.294","218.6","NAN","NAN","NAN","NAN","NAN"],
    [1554417,"2026-05-19 06:30:00","55407","0.0","0.0","0","0","NAN","NAN","NAN","NAN","NAN"],
    [1554418,"2026-05-19 06:40:00","55408","0.027000000000000003","219.9","0.392","219.6","NAN","NAN","NAN","NAN","NAN"],
    [1554419,"2026-05-19 06:50:00","55409","0.003","220.2","0.163","220.2","NAN","NAN","NAN","NAN","NAN"],
    [1554420,"2026-05-19 07:00:00","55410","0.0","0.0","0","0","NAN","NAN","NAN","NAN","NAN"],
    [1554421,"2026-05-19 07:10:00","55411","0.0","0.0","0","0","NAN","NAN","NAN","NAN","NAN"],
    [1554422,"2026-05-19 07:20:00","55412","0.092","218.9","0.784","218.6","NAN","NAN","NAN","NAN","NAN"],
    [1554423,"2026-05-19 07:30:00","55413","0.748","222.4","2.091","222.6","NAN","NAN","NAN","NAN","NAN"],
    [1554424,"2026-05-19 07:40:00","55414","1.3559999999999999","213.2","2.907","213.8","NAN","NAN","NAN","NAN","NAN"],
    [1554425,"2026-05-19 07:50:00","55415","1.335","203.8","2.711","221.6","NAN","NAN","NAN","NAN","NAN"],
    [1554426,"2026-05-19 08:00:00","55416","1.224","183.3","2.515","183.6","NAN","NAN","NAN","NAN","NAN"],
    [1554427,"2026-05-19 08:10:00","55417","0.377","184.4","2.385","183.1","NAN","NAN","NAN","NAN","NAN"],
    [1554428,"2026-05-19 08:20:00","55418","0.8440000000000001","183.8","2.287","182.3","NAN","NAN","NAN","NAN","NAN"],
    [1554429,"2026-05-19 08:30:00","55419","1.7990000000000002","152.7","3.136","145.8","NAN","NAN","NAN","NAN","NAN"],
    [1554430,"2026-05-19 08:40:00","55420","2.4219999999999997","140.1","3.985","137.3","NAN","NAN","NAN","NAN","NAN"],
    [1554431,"2026-05-19 08:50:00","55421","2.721","144.0","3.887","151.7","NAN","NAN","NAN","NAN","NAN"],
    [1554432,"2026-05-19 09:00:00","55422","2.344","133.4","3.724","123","NAN","NAN","NAN","NAN","NAN"],
    [1554433,"2026-05-19 09:10:00","55423","2.095","141.2","3.626","152.2","NAN","NAN","NAN","NAN","NAN"],
    [1554434,"2026-05-19 09:20:00","55424","2.3409999999999997","142.2","3.92","133.2","NAN","NAN","NAN","NAN","NAN"],
    [1554435,"2026-05-19 09:30:00","55425","2.8680000000000003","161.8","4.933","160.2","NAN","NAN","NAN","NAN","NAN"],
    [1554436,"2026-05-19 09:40:00","55426","2.747","174.3","4.312","166.2","NAN","NAN","NAN","NAN","NAN"],
    [1554437,"2026-05-19 09:50:00","55427","2.461","182.1","4.247","187","NAN","NAN","NAN","NAN","NAN"],
    [1554438,"2026-05-19 10:00:00","55428","2.7969999999999997","185.6","5.161","188.1","NAN","NAN","NAN","NAN","NAN"],
    [1554439,"2026-05-19 10:10:00","55429","2.987","175.5","5.913","185.6","NAN","NAN","NAN","NAN","NAN"],
    [1554440,"2026-05-19 10:20:00","55430","2.946","173.2","5.586","163.5","NAN","NAN","NAN","NAN","NAN"],
    [1554441,"2026-05-19 10:30:00","55431","3.09","180.9","5.129","158.8","NAN","NAN","NAN","NAN","NAN"],
    [1554442,"2026-05-19 10:40:00","55432","3.082","187.3","6.468","176.4","NAN","NAN","NAN","NAN","NAN"],
    [1554443,"2026-05-19 10:50:00","55433","2.748","201.0","4.639","197.6","NAN","NAN","NAN","NAN","NAN"],
    [1554444,"2026-05-19 11:00:00","55434","3.301","204.3","4.933","199.4","NAN","NAN","NAN","NAN","NAN"],
    [1554445,"2026-05-19 11:10:00","55435","2.479","185.6","4.279","186.3","NAN","NAN","NAN","NAN","NAN"],
    [1554446,"2026-05-19 11:20:00","55436","2.609","197.2","4.181","177.1","NAN","NAN","NAN","NAN","NAN"],
    [1554447,"2026-05-19 11:30:00","55437","2.627","188.2","4.312","185.7","NAN","NAN","NAN","NAN","NAN"],
    [1554448,"2026-05-19 11:40:00","55438","2.699","186.0","4.345","177.1","NAN","NAN","NAN","NAN","NAN"],
    [1554449,"2026-05-19 11:50:00","55439","3.0980000000000003","192.7","5.749","163.7","NAN","NAN","NAN","NAN","NAN"],
    [1554450,"2026-05-19 12:00:00","55440","2.842","194.9","5.227","183.2","NAN","NAN","NAN","NAN","NAN"],
    [1554451,"2026-05-19 12:10:00","55441","2.532","186.7","4.541","182","NAN","NAN","NAN","NAN","NAN"],
    [1554452,"2026-05-19 12:20:00","55442","3.234","197.0","5.651","189.5","NAN","NAN","NAN","NAN","NAN"],
    [1554453,"2026-05-19 12:30:00","55443","2.701","177.0","5.325","170.5","NAN","NAN","NAN","NAN","NAN"],
    [1554454,"2026-05-19 12:40:00","55444","2.924","186.0","5.227","163.1","NAN","NAN","NAN","NAN","NAN"],
    [1554455,"2026-05-19 12:50:00","55445","2.69","192.6","4.835","189","NAN","NAN","NAN","NAN","NAN"],
    [1554456,"2026-05-19 13:00:00","55446","3.048","202.5","5.357","187.8","NAN","NAN","NAN","NAN","NAN"],
    [1554457,"2026-05-19 13:10:00","55447","2.903","199.5","4.965","183.8","NAN","NAN","NAN","NAN","NAN"],
    [1554458,"2026-05-19 13:20:00","55448","2.532","195.4","4.214","168.8","NAN","NAN","NAN","NAN","NAN"],
    [1554459,"2026-05-19 13:30:00","55449","2.6519999999999997","192.9","5.063","198.3","NAN","NAN","NAN","NAN","NAN"],
    [1554460,"2026-05-19 13:40:00","55450","2.523","200.0","4.606","173.2","NAN","NAN","NAN","NAN","NAN"],
    [1554461,"2026-05-19 13:50:00","55451","2.926","196.8","5.325","185.6","NAN","NAN","NAN","NAN","NAN"],
    [1554462,"2026-05-19 14:00:00","55452","3.0580000000000003","201.9","4.9","223","NAN","NAN","NAN","NAN","NAN"],
    [1554463,"2026-05-19 14:10:00","55453","3.57","187.1","5.945","172.4","NAN","NAN","NAN","NAN","NAN"],
    [1554464,"2026-05-19 14:20:00","55454","3.239","203.1","6.762","176.5","NAN","NAN","NAN","NAN","NAN"],
    [1554465,"2026-05-19 14:30:00","55455","3.242","192.9","5.423","177","NAN","NAN","NAN","NAN","NAN"],
    [1554466,"2026-05-19 14:40:00","55456","2.8539999999999996","198.9","5.227","226.7","NAN","NAN","NAN","NAN","NAN"],
    [1554467,"2026-05-19 14:50:00","55457","2.917","186.7","5.945","173.5","NAN","NAN","NAN","NAN","NAN"],
    [1554468,"2026-05-19 15:00:00","55458","3.3480000000000003","207.4","5.553","221","NAN","NAN","NAN","NAN","NAN"],
    [1554469,"2026-05-19 15:10:00","55459","3.323","213.6","6.435","234.7","NAN","NAN","NAN","NAN","NAN"],
    [1554470,"2026-05-19 15:20:00","55460","3.088","213.4","6.174","212.1","NAN","NAN","NAN","NAN","NAN"],
    [1554471,"2026-05-19 15:30:00","55461","3.238","214.8","5.521","240.3","NAN","NAN","NAN","NAN","NAN"],
    [1554472,"2026-05-19 15:40:00","55462","3.362","202.1","6.109","220.2","NAN","NAN","NAN","NAN","NAN"],
    [1554473,"2026-05-19 15:50:00","55463","2.71","202.2","4.671","213.2","NAN","NAN","NAN","NAN","NAN"],
    [1554474,"2026-05-19 16:00:00","55464","3.117","174.1","4.998","161.7","NAN","NAN","NAN","NAN","NAN"],
    [1554475,"2026-05-19 16:10:00","55465","2.783","215.0","5.194","212","NAN","NAN","NAN","NAN","NAN"],
    [1554476,"2026-05-19 16:20:00","55466","2.528","211.0","4.835","210.5","NAN","NAN","NAN","NAN","NAN"],
    [1554477,"2026-05-19 16:30:00","55467","3.1260000000000003","172.4","5.455","177.7","NAN","NAN","NAN","NAN","NAN"],
    [1554478,"2026-05-19 16:40:00","55468","3.241","199.8","5.88","209","NAN","NAN","NAN","NAN","NAN"],
    [1554479,"2026-05-19 16:50:00","55469","2.69","213.4","5.684","213.7","NAN","NAN","NAN","NAN","NAN"],
    [1554480,"2026-05-19 17:00:00","55470","2.8569999999999998","184.8","5.651","152.8","NAN","NAN","NAN","NAN","NAN"],
    [1554481,"2026-05-19 17:10:00","55471","2.714","191.0","4.9","195.1","NAN","NAN","NAN","NAN","NAN"],
    [1554482,"2026-05-19 17:20:00","55472","2.346","188.4","4.508","209.1","NAN","NAN","NAN","NAN","NAN"],
    [1554483,"2026-05-19 17:30:00","55473","2.62","200.0","4.606","211.7","NAN","NAN","NAN","NAN","NAN"],
    [1554484,"2026-05-19 17:40:00","55474","2.909","205.5","4.149","208.8","NAN","NAN","NAN","NAN","NAN"],
    [1554485,"2026-05-19 17:50:00","55475","2.445","203.3","4.377","209.4","NAN","NAN","NAN","NAN","NAN"],
    [1554486,"2026-05-19 18:00:00","55476","2.591","191.2","3.855","206.7","NAN","NAN","NAN","NAN","NAN"],
    [1554487,"2026-05-19 18:10:00","55477","1.4140000000000001","184.9","3.071","179.8","NAN","NAN","NAN","NAN","NAN"],
    [1554488,"2026-05-19 18:20:00","55478","2.015","186.0","3.463","177.8","NAN","NAN","NAN","NAN","NAN"],
    [1554489,"2026-05-19 18:30:00","55479","1.432","197.2","3.626","181.1","NAN","NAN","NAN","NAN","NAN"],
    [1554490,"2026-05-19 18:40:00","55480","1.656","181.8","3.691","181.3","NAN","NAN","NAN","NAN","NAN"],
    [1554491,"2026-05-19 18:50:00","55481","1.1179999999999999","192.7","3.299","170.3","NAN","NAN","NAN","NAN","NAN"],
    [1554492,"2026-05-19 19:00:00","55482","1.3559999999999999","183.9","2.973","169.9","NAN","NAN","NAN","NAN","NAN"],
    [1554493,"2026-05-19 19:10:00","55483","1.72","187.6","3.234","185.4","NAN","NAN","NAN","NAN","NAN"],
    [1554494,"2026-05-19 19:20:00","55484","1.413","182.2","2.581","175.9","NAN","NAN","NAN","NAN","NAN"],
    [1554495,"2026-05-19 19:30:00","55485","1.021","181.3","2.091","188","NAN","NAN","NAN","NAN","NAN"],
    [1554496,"2026-05-19 19:40:00","55486","1.446","176.6","2.646","167.5","NAN","NAN","NAN","NAN","NAN"],
    [1554497,"2026-05-19 19:50:00","55487","1.758","166.5","2.646","166","NAN","NAN","NAN","NAN","NAN"],
    [1554498,"2026-05-19 20:00:00","55488","1.3419999999999999","164.4","2.417","164.6","NAN","NAN","NAN","NAN","NAN"],
    [1554499,"2026-05-19 20:10:00","55489","0.732","161.4","1.437","161.3","NAN","NAN","NAN","NAN","NAN"],
    [1554500,"2026-05-19 20:20:00","55490","0.8029999999999999","158.5","1.927","158.5","NAN","NAN","NAN","NAN","NAN"],
    [1554501,"2026-05-19 20:30:00","55491","0.8320000000000001","156.5","1.829","155.5","NAN","NAN","NAN","NAN","NAN"],
    [1554502,"2026-05-19 20:40:00","55492","0.5589999999999999","154.9","1.307","154.8","NAN","NAN","NAN","NAN","NAN"],
    [1554503,"2026-05-19 20:50:00","55493","0.609","154.3","1.731","154.3","NAN","NAN","NAN","NAN","NAN"],
    [1554504,"2026-05-19 21:00:00","55494","0.348","151.2","1.078","150.3","NAN","NAN","NAN","NAN","NAN"],
    [1554505,"2026-05-19 21:10:00","55495","0.568","149.1","1.829","148.9","NAN","NAN","NAN","NAN","NAN"],
    [1554506,"2026-05-19 21:20:00","55496","0.159","148.4","0.849","148.6","NAN","NAN","NAN","NAN","NAN"],
    [1554507,"2026-05-19 21:30:00","55497","0.255","146.7","1.013","146.7","NAN","NAN","NAN","NAN","NAN"],
    [1554508,"2026-05-19 21:40:00","55498","0.22699999999999998","145.6","0.98","145.5","NAN","NAN","NAN","NAN","NAN"],
    [1554509,"2026-05-19 21:50:00","55499","0.365","144.8","1.47","144.4","NAN","NAN","NAN","NAN","NAN"],
    [1554510,"2026-05-19 22:00:00","55500","0.425","144.4","1.241","144.4","NAN","NAN","NAN","NAN","NAN"],
    [1554511,"2026-05-19 22:10:00","55501","0.017","144.3","0.392","144.3","NAN","NAN","NAN","NAN","NAN"],
    [1554512,"2026-05-19 22:20:00","55502","0.004","144.1","0.196","144.1","NAN","NAN","NAN","NAN","NAN"],
    [1554513,"2026-05-19 22:30:00","55503","0.0","144.1","0.098","144.1","NAN","NAN","NAN","NAN","NAN"],
    [1554514,"2026-05-19 22:40:00","55504","0.006999999999999999","144.1","0.229","144.1","NAN","NAN","NAN","NAN","NAN"],
    [1554515,"2026-05-19 22:50:00","55505","0.0","0.0","0","0","NAN","NAN","NAN","NAN","NAN"],
    [1554516,"2026-05-19 23:00:00","55506","0.0","0.0","0","0","NAN","NAN","NAN","NAN","NAN"],
    [1554517,"2026-05-19 23:10:00","55507","0.0","0.0","0","0","NAN","NAN","NAN","NAN","NAN"],
    [1554518,"2026-05-19 23:20:00","55508","0.0","0.0","0","0","NAN","NAN","NAN","NAN","NAN"],
    [1554519,"2026-05-19 23:30:00","55509","0.0","0.0","0","0","NAN","NAN","NAN","NAN","NAN"],
    [1554520,"2026-05-19 23:40:00","55510","0.037000000000000005","143.9","0.425","143.9","NAN","NAN","NAN","NAN","NAN"],
    [1554521,"2026-05-19 23:50:00","55511","0.018000000000000002","143.9","0.327","143.9","NAN","NAN","NAN","NAN","NAN"],
    [1554522,"2026-05-20 00:00:00","55512","0.0","0.0","0","0","NAN","NAN","NAN","NAN","NAN"],
    [1554523,"2026-05-20 00:10:00","55513","0.0","0.0","0","0","NAN","NAN","NAN","NAN","NAN"],
    [1554524,"2026-05-20 00:20:00","55514","0.113","154.8","0.621","156.5","NAN","NAN","NAN","NAN","NAN"],
    [1554525,"2026-05-20 00:30:00","55515","0.07400000000000001","159.3","0.457","158","NAN","NAN","NAN","NAN","NAN"],
    [1554526,"2026-05-20 00:40:00","55516","0.16899999999999998","162.8","0.555","162.6","NAN","NAN","NAN","NAN","NAN"],
    [1554527,"2026-05-20 00:50:00","55517","0.109","164.5","0.49","164.5","NAN","NAN","NAN","NAN","NAN"],
    [1554528,"2026-05-20 01:00:00","55518","0.43200000000000005","165.0","1.176","164.9","NAN","NAN","NAN","NAN","NAN"],
    [1554529,"2026-05-20 01:10:00","55519","0.7070000000000001","166.4","1.339","166.6","NAN","NAN","NAN","NAN","NAN"],
    [1554530,"2026-05-20 01:20:00","55520","0.313","166.7","0.98","166.7","NAN","NAN","NAN","NAN","NAN"],
    [1554531,"2026-05-20 01:30:00","55521","0.003","166.7","0.229","166.7","NAN","NAN","NAN","NAN","NAN"],
    [1554532,"2026-05-20 01:40:00","55522","0.004","166.9","0.229","166.9","NAN","NAN","NAN","NAN","NAN"],
    [1554533,"2026-05-20 01:50:00","55523","0.018000000000000002","168.1","0.261","167.7","NAN","NAN","NAN","NAN","NAN"],
    [1554534,"2026-05-20 02:00:00","55524","0.008","169.1","0.261","169.1","NAN","NAN","NAN","NAN","NAN"],
    [1554535,"2026-05-20 02:10:00","55525","0.0","169.2","0.033","169.2","NAN","NAN","NAN","NAN","NAN"],
    [1554536,"2026-05-20 02:20:00","55526","0.005","169.2","0.261","169.2","NAN","NAN","NAN","NAN","NAN"],
    [1554537,"2026-05-20 02:30:00","55527","0.302","169.2","0.751","169.2","NAN","NAN","NAN","NAN","NAN"],
    [1554538,"2026-05-20 02:40:00","55528","0.0","0.0","0","0","NAN","NAN","NAN","NAN","NAN"],
    [1554539,"2026-05-20 02:50:00","55529","0.0","0.0","0","0","NAN","NAN","NAN","NAN","NAN"],
    [1554540,"2026-05-20 03:00:00","55530","0.095","169.2","0.555","169.2","NAN","NAN","NAN","NAN","NAN"],
    [1554541,"2026-05-20 03:10:00","55531","0.046","169.1","0.588","169.2","NAN","NAN","NAN","NAN","NAN"],
    [1554542,"2026-05-20 03:20:00","55532","0.0","0.0","0","0","NAN","NAN","NAN","NAN","NAN"],
    [1554543,"2026-05-20 03:30:00","55533","0.0","0.0","0","0","NAN","NAN","NAN","NAN","NAN"],
    [1554544,"2026-05-20 03:40:00","55534","0.042","169.3","0.588","169.4","NAN","NAN","NAN","NAN","NAN"],
    [1554545,"2026-05-20 03:50:00","55535","0.37200000000000005","170.1","0.784","169.8","NAN","NAN","NAN","NAN","NAN"],
    [1554546,"2026-05-20 04:00:00","55536","0.233","171.7","0.653","171.4","NAN","NAN","NAN","NAN","NAN"],
    [1554547,"2026-05-20 04:10:00","55537","0.21","172.3","0.849","172.3","NAN","NAN","NAN","NAN","NAN"],
    [1554548,"2026-05-20 04:20:00","55538","0.10800000000000001","172.5","0.784","172.4","NAN","NAN","NAN","NAN","NAN"],
    [1554549,"2026-05-20 04:30:00","55539","0.01","172.7","0.359","172.7","NAN","NAN","NAN","NAN","NAN"],
    [1554550,"2026-05-20 04:40:00","55540","0.0","0.0","0","0","NAN","NAN","NAN","NAN","NAN"],
    [1554551,"2026-05-20 04:50:00","55541","0.0","0.0","0","0","NAN","NAN","NAN","NAN","NAN"],
    [1554552,"2026-05-20 05:00:00","55542","0.0","172.7","0.065","172.7","NAN","NAN","NAN","NAN","NAN"],
    [1554553,"2026-05-20 05:10:00","55543","0.01","172.8","0.261","172.7","NAN","NAN","NAN","NAN","NAN"],
    [1554554,"2026-05-20 05:20:00","55544","0.155","173.4","0.588","173.1","NAN","NAN","NAN","NAN","NAN"],
    [1554555,"2026-05-20 05:30:00","55545","0.12300000000000001","174.3","0.588","174.1","NAN","NAN","NAN","NAN","NAN"],
    [1554556,"2026-05-20 05:40:00","55546","0.147","174.7","0.621","174.7","NAN","NAN","NAN","NAN","NAN"],
    [1554557,"2026-05-20 05:50:00","55547","0.035","174.7","0.457","174.7","NAN","NAN","NAN","NAN","NAN"],
    [1554558,"2026-05-20 06:00:00","55548","0.003","174.6","0.229","174.6","NAN","NAN","NAN","NAN","NAN"],
    [1554559,"2026-05-20 06:10:00","55549","0.094","170.7","0.686","170.4","NAN","NAN","NAN","NAN","NAN"],
    [1554560,"2026-05-20 06:20:00","55550","0.018000000000000002","167.1","0.425","168.6","NAN","NAN","NAN","NAN","NAN"],
    [1554561,"2026-05-20 06:30:00","55551","0.016","164.6","0.392","164.7","NAN","NAN","NAN","NAN","NAN"],
    [1554562,"2026-05-20 06:40:00","55552","0.126","174.2","0.784","174.5","NAN","NAN","NAN","NAN","NAN"],
    [1554563,"2026-05-20 06:50:00","55553","0.073","165.9","0.457","174.5","NAN","NAN","NAN","NAN","NAN"],
    [1554564,"2026-05-20 07:00:00","55554","0.374","153.3","1.405","147.3","NAN","NAN","NAN","NAN","NAN"],
    [1554565,"2026-05-20 07:10:00","55555","1.2819999999999998","124.4","2.548","116.6","NAN","NAN","NAN","NAN","NAN"],
    [1554566,"2026-05-20 07:20:00","55556","1.0070000000000001","113.3","2.091","113.1","NAN","NAN","NAN","NAN","NAN"],
    [1554567,"2026-05-20 07:30:00","55557","0.226","111.9","0.817","111.9","NAN","NAN","NAN","NAN","NAN"],
    [1554568,"2026-05-20 07:40:00","55558","1.127","116.5","2.287","124.9","NAN","NAN","NAN","NAN","NAN"],
    [1554569,"2026-05-20 07:50:00","55559","1.008","111.8","1.993","110.7","NAN","NAN","NAN","NAN","NAN"],
    [1554570,"2026-05-20 08:00:00","55560","1.3659999999999999","120.2","2.287","123.6","NAN","NAN","NAN","NAN","NAN"],
    [1554571,"2026-05-20 08:10:00","55561","1.527","119.1","2.254","123.6","NAN","NAN","NAN","NAN","NAN"],
    [1554572,"2026-05-20 08:20:00","55562","1.48","118.4","2.711","117.7","NAN","NAN","NAN","NAN","NAN"],
    [1554573,"2026-05-20 08:30:00","55563","1.534","122.1","2.385","126.7","NAN","NAN","NAN","NAN","NAN"],
    [1554574,"2026-05-20 08:40:00","55564","1.588","115.0","2.385","108.2","NAN","NAN","NAN","NAN","NAN"],
    [1554575,"2026-05-20 08:50:00","55565","1.264","109.3","2.319","115.6","NAN","NAN","NAN","NAN","NAN"],
    [1554576,"2026-05-20 09:00:00","55566","1.794","91.2","3.463","86.4","NAN","NAN","NAN","NAN","NAN"],
    [1554577,"2026-05-20 09:10:00","55567","1.375","101.8","2.744","110.2","NAN","NAN","NAN","NAN","NAN"],
    [1554578,"2026-05-20 09:20:00","55568","1.815","115.2","3.169","124.6","NAN","NAN","NAN","NAN","NAN"],
    [1554579,"2026-05-20 09:30:00","55569","1.4669999999999999","109.1","3.103","100.7","NAN","NAN","NAN","NAN","NAN"],
    [1554580,"2026-05-20 09:40:00","55570","2.0669999999999997","90.0","3.659","102","NAN","NAN","NAN","NAN","NAN"],
    [1554581,"2026-05-20 09:50:00","55571","1.5630000000000002","95.7","3.332","84.2","NAN","NAN","NAN","NAN","NAN"],
    [1554582,"2026-05-20 10:00:00","55572","1.649","102.2","3.43","109.1","NAN","NAN","NAN","NAN","NAN"],
    [1554583,"2026-05-20 10:10:00","55573","2.04","118.9","3.593","135.7","NAN","NAN","NAN","NAN","NAN"],
    [1554584,"2026-05-20 10:20:00","55574","1.837","117.7","3.789","133.4","NAN","NAN","NAN","NAN","NAN"],
    [1554585,"2026-05-20 10:30:00","55575","1.983","101.7","3.92","99.8","NAN","NAN","NAN","NAN","NAN"],
    [1554586,"2026-05-20 10:40:00","55576","1.575","107.7","3.071","104.8","NAN","NAN","NAN","NAN","NAN"],
    [1554587,"2026-05-20 10:50:00","55577","1.446","121.5","3.397","131.1","NAN","NAN","NAN","NAN","NAN"],
    [1554588,"2026-05-20 11:00:00","55578","1.6840000000000002","123.4","3.332","116.9","NAN","NAN","NAN","NAN","NAN"],
    [1554589,"2026-05-20 11:10:00","55579","1.768","129.9","3.365","133","NAN","NAN","NAN","NAN","NAN"],
    [1554590,"2026-05-20 11:20:00","55580","1.913","142.0","3.299","142.5","NAN","NAN","NAN","NAN","NAN"],
    [1554591,"2026-05-20 11:30:00","55581","2.056","132.5","3.495","133.2","NAN","NAN","NAN","NAN","NAN"],
    [1554592,"2026-05-20 11:40:00","55582","2.055","129.3","4.573","143.4","NAN","NAN","NAN","NAN","NAN"],
    [1554593,"2026-05-20 11:50:00","55583","3.0780000000000003","149.9","4.965","158.8","NAN","NAN","NAN","NAN","NAN"],
    [1554594,"2026-05-20 12:00:00","55584","2.226","135.4","3.724","133.5","NAN","NAN","NAN","NAN","NAN"],
    [1554595,"2026-05-20 12:10:00","55585","2.278","134.2","4.9","136.9","NAN","NAN","NAN","NAN","NAN"],
    [1554596,"2026-05-20 12:20:00","55586","2.647","130.3","5.161","140.7","NAN","NAN","NAN","NAN","NAN"],
    [1554597,"2026-05-20 12:30:00","55587","2.721","135.4","4.965","128.5","NAN","NAN","NAN","NAN","NAN"],
    [1554598,"2026-05-20 12:40:00","55588","2.394","138.6","4.247","143.5","NAN","NAN","NAN","NAN","NAN"],
    [1554599,"2026-05-20 12:50:00","55589","2.9619999999999997","137.8","4.704","138.5","NAN","NAN","NAN","NAN","NAN"],
    [1554600,"2026-05-20 13:00:00","55590","3.248","153.1","5.259","163.6","NAN","NAN","NAN","NAN","NAN"],
    [1554601,"2026-05-20 13:10:00","55591","3.128","151.8","5.553","140.4","NAN","NAN","NAN","NAN","NAN"],
    [1554602,"2026-05-20 13:20:00","55592","2.117","144.8","4.312","160.1","NAN","NAN","NAN","NAN","NAN"],
    [1554603,"2026-05-20 13:30:00","55593","2.2230000000000003","110.7","4.214","107.4","NAN","NAN","NAN","NAN","NAN"],
    [1554604,"2026-05-20 13:40:00","55594","2.2840000000000003","127.0","4.573","91.2","NAN","NAN","NAN","NAN","NAN"],
    [1554605,"2026-05-20 13:50:00","55595","2.93","136.4","5.031","140.5","NAN","NAN","NAN","NAN","NAN"],
    [1554606,"2026-05-20 14:00:00","55596","2.282","128.1","4.018","139.6","NAN","NAN","NAN","NAN","NAN"],
    [1554607,"2026-05-20 14:10:00","55597","2.815","112.9","4.541","88.6","NAN","NAN","NAN","NAN","NAN"],
    [1554608,"2026-05-20 14:20:00","55598","2.542","140.3","4.247","146.3","NAN","NAN","NAN","NAN","NAN"],
    [1554609,"2026-05-20 14:30:00","55599","2.49","130.8","5.129","89.8","NAN","NAN","NAN","NAN","NAN"],
    [1554610,"2026-05-20 14:40:00","55600","2.8169999999999997","121.9","4.965","136.4","NAN","NAN","NAN","NAN","NAN"],
    [1554611,"2026-05-20 14:50:00","55601","2.412","115.7","4.377","137.8","NAN","NAN","NAN","NAN","NAN"],
    [1554612,"2026-05-20 15:00:00","55602","2.316","101.2","3.855","95.4","NAN","NAN","NAN","NAN","NAN"],
    [1554613,"2026-05-20 15:10:00","55603","1.92","115.2","3.822","105.2","NAN","NAN","NAN","NAN","NAN"],
    [1554614,"2026-05-20 15:20:00","55604","2.0340000000000003","111.8","3.561","103.2","NAN","NAN","NAN","NAN","NAN"],
    [1554615,"2026-05-20 15:30:00","55605","1.9569999999999999","117.6","3.659","132.4","NAN","NAN","NAN","NAN","NAN"],
    [1554616,"2026-05-20 15:40:00","55606","1.983","94.0","3.626","70.77","NAN","NAN","NAN","NAN","NAN"],
    [1554617,"2026-05-20 15:50:00","55607","1.9809999999999999","110.9","3.495","116.4","NAN","NAN","NAN","NAN","NAN"],
    [1554618,"2026-05-20 16:00:00","55608","2.057","113.5","3.365","101.2","NAN","NAN","NAN","NAN","NAN"],
    [1554619,"2026-05-20 16:10:00","55609","1.9880000000000002","110.7","2.907","111.4","NAN","NAN","NAN","NAN","NAN"],
    [1554620,"2026-05-20 16:20:00","55610","1.901","109.5","2.581","103.1","NAN","NAN","NAN","NAN","NAN"],
    [1554621,"2026-05-20 16:30:00","55611","1.8840000000000001","109.9","2.875","105","NAN","NAN","NAN","NAN","NAN"],
    [1554622,"2026-05-20 16:40:00","55612","1.589","123.6","2.875","129.4","NAN","NAN","NAN","NAN","NAN"],
    [1554623,"2026-05-20 16:50:00","55613","1.548","119.8","2.515","105.4","NAN","NAN","NAN","NAN","NAN"],
    [1554624,"2026-05-20 17:00:00","55614","1.669","107.2","3.038","104.4","NAN","NAN","NAN","NAN","NAN"],
    [1554625,"2026-05-20 17:10:00","55615","1.775","107.7","3.332","100.6","NAN","NAN","NAN","NAN","NAN"],
    [1554626,"2026-05-20 17:20:00","55616","2.318","103.2","3.626","101.1","NAN","NAN","NAN","NAN","NAN"],
    [1554627,"2026-05-20 17:30:00","55617","2.6830000000000003","89.7","4.181","85.8","NAN","NAN","NAN","NAN","NAN"],
    [1554628,"2026-05-20 17:40:00","55618","1.7919999999999998","95.6","3.103","97.8","NAN","NAN","NAN","NAN","NAN"],
    [1554629,"2026-05-20 17:50:00","55619","2.199","99.7","3.822","94.6","NAN","NAN","NAN","NAN","NAN"],
    [1554630,"2026-05-20 18:00:00","55620","2.283","97.0","4.083","101.2","NAN","NAN","NAN","NAN","NAN"],
    [1554631,"2026-05-20 18:10:00","55621","2.184","100.9","3.267","88.7","NAN","NAN","NAN","NAN","NAN"],
    [1554632,"2026-05-20 18:20:00","55622","1.59","95.1","2.842","94","NAN","NAN","NAN","NAN","NAN"],
    [1554633,"2026-05-20 18:30:00","55623","1.716","106.2","2.809","110.3","NAN","NAN","NAN","NAN","NAN"],
    [1554634,"2026-05-20 18:40:00","55624","1.089","88.1","1.993","85.8","NAN","NAN","NAN","NAN","NAN"],
    [1554635,"2026-05-20 18:50:00","55625","1.5490000000000002","84.3","2.385","83.4","NAN","NAN","NAN","NAN","NAN"],
    [1554636,"2026-05-20 19:00:00","55626","0.988","83.7","2.058","83.1","NAN","NAN","NAN","NAN","NAN"],
    [1554637,"2026-05-20 19:10:00","55627","1.5519999999999998","82.5","2.287","81.9","NAN","NAN","NAN","NAN","NAN"],
    [1554638,"2026-05-20 19:20:00","55628","1.386","81.6","2.123","81.7","NAN","NAN","NAN","NAN","NAN"],
    [1554639,"2026-05-20 19:30:00","55629","0.6809999999999999","81.6","1.405","81.6","NAN","NAN","NAN","NAN","NAN"],
    [1554640,"2026-05-20 19:40:00","55630","0.475","81.7","1.078","81.7","NAN","NAN","NAN","NAN","NAN"],
    [1554641,"2026-05-20 19:50:00","55631","0.24","81.7","0.915","81.7","NAN","NAN","NAN","NAN","NAN"],
    [1554642,"2026-05-20 20:00:00","55632","0.22699999999999998","81.7","0.947","81.7","NAN","NAN","NAN","NAN","NAN"],
    [1554643,"2026-05-20 20:10:00","55633","0.195","81.7","0.817","81.7","NAN","NAN","NAN","NAN","NAN"],
    [1554644,"2026-05-20 20:20:00","55634","0.006","81.7","0.261","81.7","NAN","NAN","NAN","NAN","NAN"],
    [1554645,"2026-05-20 20:30:00","55635","0.037000000000000005","81.7","0.425","81.7","NAN","NAN","NAN","NAN","NAN"],
    [1554646,"2026-05-20 20:40:00","55636","0.0","81.7","0.065","81.7","NAN","NAN","NAN","NAN","NAN"],
    [1554647,"2026-05-20 20:50:00","55637","0.0","0.0","0","0","NAN","NAN","NAN","NAN","NAN"],
    [1554648,"2026-05-20 21:00:00","55638","0.0","0.0","0","0","NAN","NAN","NAN","NAN","NAN"],
    [1554649,"2026-05-20 21:10:00","55639","0.397","81.7","0.915","81.7","NAN","NAN","NAN","NAN","NAN"],
    [1554650,"2026-05-20 21:20:00","55640","0.8009999999999999","81.7","1.241","81.7","NAN","NAN","NAN","NAN","NAN"],
    [1554651,"2026-05-20 21:30:00","55641","0.92","81.7","1.568","81.7","NAN","NAN","NAN","NAN","NAN"],
    [1554652,"2026-05-20 21:40:00","55642","0.47200000000000003","81.6","1.078","81.7","NAN","NAN","NAN","NAN","NAN"],
    [1554653,"2026-05-20 21:50:00","55643","0.857","81.5","1.339","81.5","NAN","NAN","NAN","NAN","NAN"],
    [1554654,"2026-05-20 22:00:00","55644","1.073","81.4","1.699","81.4","NAN","NAN","NAN","NAN","NAN"],
    [1554655,"2026-05-20 22:10:00","55645","1.1059999999999999","84.1","1.764","81.3","NAN","NAN","NAN","NAN","NAN"],
    [1554656,"2026-05-20 22:20:00","55646","0.988","81.4","1.601","81.3","NAN","NAN","NAN","NAN","NAN"],
    [1554657,"2026-05-20 22:30:00","55647","0.526","81.4","1.045","81.4","NAN","NAN","NAN","NAN","NAN"],
    [1554658,"2026-05-20 22:40:00","55648","0.88","81.2","1.535","81.2","NAN","NAN","NAN","NAN","NAN"],
    [1554659,"2026-05-20 22:50:00","55649","0.637","81.2","1.372","81.2","NAN","NAN","NAN","NAN","NAN"],
    [1554660,"2026-05-20 23:00:00","55650","0.59","81.2","0.98","81.2","NAN","NAN","NAN","NAN","NAN"],
    [1554661,"2026-05-20 23:10:00","55651","0.45299999999999996","81.2","0.784","81.2","NAN","NAN","NAN","NAN","NAN"],
    [1554662,"2026-05-20 23:20:00","55652","0.727","81.2","1.143","81.2","NAN","NAN","NAN","NAN","NAN"],
    [1554663,"2026-05-20 23:30:00","55653","0.9790000000000001","82.4","1.535","81.2","NAN","NAN","NAN","NAN","NAN"],
    [1554664,"2026-05-20 23:40:00","55654","1.163","83.1","1.829","81.1","NAN","NAN","NAN","NAN","NAN"],
    [1554665,"2026-05-20 23:50:00","55655","1.494","81.7","2.613","79.56","NAN","NAN","NAN","NAN","NAN"],
    [1554666,"2026-05-21 00:00:00","55656","1.5","76.62","2.483","77.73","NAN","NAN","NAN","NAN","NAN"],
    [1554667,"2026-05-21 00:10:00","55657","1.278","75.52","2.189","75.4","NAN","NAN","NAN","NAN","NAN"],
    [1554668,"2026-05-21 00:20:00","55658","1.5130000000000001","90.2","2.254","78.5","NAN","NAN","NAN","NAN","NAN"],
    [1554669,"2026-05-21 00:30:00","55659","1.607","102.5","2.613","99.7","NAN","NAN","NAN","NAN","NAN"],
    [1554670,"2026-05-21 00:40:00","55660","1.517","106.4","2.581","109.5","NAN","NAN","NAN","NAN","NAN"],
    [1554671,"2026-05-21 00:50:00","55661","1.064","180.6","2.45","111.8","NAN","NAN","NAN","NAN","NAN"],
    [1554672,"2026-05-21 01:00:00","55662","1.287","245.2","2.319","246.3","NAN","NAN","NAN","NAN","NAN"],
    [1554673,"2026-05-21 01:10:00","55663","1.1059999999999999","247.9","1.993","247.8","NAN","NAN","NAN","NAN","NAN"],
    [1554674,"2026-05-21 01:20:00","55664","1.641","248.4","2.483","248.1","NAN","NAN","NAN","NAN","NAN"],
    [1554675,"2026-05-21 01:30:00","55665","1.255","249.9","2.156","249.9","NAN","NAN","NAN","NAN","NAN"],
    [1554676,"2026-05-21 01:40:00","55666","1.365","252.3","2.548","251.1","NAN","NAN","NAN","NAN","NAN"],
    [1554677,"2026-05-21 01:50:00","55667","1.123","255.9","2.221","255.4","NAN","NAN","NAN","NAN","NAN"],
    [1554678,"2026-05-21 02:00:00","55668","1.33","257.6","2.221","256.8","NAN","NAN","NAN","NAN","NAN"],
    [1554679,"2026-05-21 02:10:00","55669","1.034","261.5","2.581","261.6","NAN","NAN","NAN","NAN","NAN"],
    [1554680,"2026-05-21 02:20:00","55670","1.26","261.7","1.993","261.7","NAN","NAN","NAN","NAN","NAN"],
    [1554681,"2026-05-21 02:30:00","55671","1.294","262.3","2.058","262.1","NAN","NAN","NAN","NAN","NAN"],
    [1554682,"2026-05-21 02:40:00","55672","0.779","262.4","1.633","262.4","NAN","NAN","NAN","NAN","NAN"],
    [1554683,"2026-05-21 02:50:00","55673","0.368","262.5","1.339","262.5","NAN","NAN","NAN","NAN","NAN"],
    [1554684,"2026-05-21 03:00:00","55674","0.484","262.6","1.143","262.5","NAN","NAN","NAN","NAN","NAN"],
    [1554685,"2026-05-21 03:10:00","55675","0.7040000000000001","262.7","1.437","262.6","NAN","NAN","NAN","NAN","NAN"],
    [1554686,"2026-05-21 03:20:00","55676","0.35600000000000004","262.7","0.947","262.7","NAN","NAN","NAN","NAN","NAN"],
    [1554687,"2026-05-21 03:30:00","55677","0.183","262.7","0.686","262.7","NAN","NAN","NAN","NAN","NAN"],
    [1554688,"2026-05-21 03:40:00","55678","0.025","262.7","0.523","262.7","NAN","NAN","NAN","NAN","NAN"],
    [1554689,"2026-05-21 03:50:00","55679","0.08800000000000001","262.7","0.588","262.7","NAN","NAN","NAN","NAN","NAN"],
    [1554690,"2026-05-21 04:00:00","55680","0.075","262.7","0.686","262.6","NAN","NAN","NAN","NAN","NAN"],
    [1554691,"2026-05-21 04:10:00","55681","0.63","262.7","1.339","262.7","NAN","NAN","NAN","NAN","NAN"],
    [1554692,"2026-05-21 04:20:00","55682","0.726","262.8","1.633","262.9","NAN","NAN","NAN","NAN","NAN"],
    [1554693,"2026-05-21 04:30:00","55683","0.934","263.0","1.699","263","NAN","NAN","NAN","NAN","NAN"],
    [1554694,"2026-05-21 04:40:00","55684","0.992","263.2","1.699","263.1","NAN","NAN","NAN","NAN","NAN"],
    [1554695,"2026-05-21 04:50:00","55685","0.7040000000000001","263.4","1.372","263.3","NAN","NAN","NAN","NAN","NAN"],
    [1554696,"2026-05-21 05:00:00","55686","0.888","263.6","1.797","263.6","NAN","NAN","NAN","NAN","NAN"],
    [1554697,"2026-05-21 05:10:00","55687","0.325","263.7","1.503","263.8","NAN","NAN","NAN","NAN","NAN"],
    [1554698,"2026-05-21 05:20:00","55688","0.0","0.0","0","0","NAN","NAN","NAN","NAN","NAN"],
    [1554699,"2026-05-21 05:30:00","55689","0.035","263.6","0.98","263.6","NAN","NAN","NAN","NAN","NAN"],
    [1554700,"2026-05-21 05:40:00","55690","1.183","263.8","2.091","264","NAN","NAN","NAN","NAN","NAN"],
    [1554701,"2026-05-21 05:50:00","55691","1.2790000000000001","269.8","3.071","274.1","NAN","NAN","NAN","NAN","NAN"],
    [1554702,"2026-05-21 06:00:00","55692","1.676","282.2","2.907","280.1","NAN","NAN","NAN","NAN","NAN"],
    [1554703,"2026-05-21 06:10:00","55693","1.5819999999999999","292.2","2.907","289.2","NAN","NAN","NAN","NAN","NAN"],
    [1554704,"2026-05-21 06:20:00","55694","0.273","295.6","1.503","295.6","NAN","NAN","NAN","NAN","NAN"],
    [1554705,"2026-05-21 06:30:00","55695","0.044000000000000004","296.0","0.49","295.9","NAN","NAN","NAN","NAN","NAN"],
    [1554706,"2026-05-21 06:40:00","55696","0.134","290.8","0.784","290.4","NAN","NAN","NAN","NAN","NAN"],
    [1554707,"2026-05-21 06:50:00","55697","0.992","294.7","1.731","296.4","NAN","NAN","NAN","NAN","NAN"],
    [1554708,"2026-05-21 07:00:00","55698","1.234","288.7","1.96","297.1","NAN","NAN","NAN","NAN","NAN"],
    [1554709,"2026-05-21 07:10:00","55699","0.758","276.5","1.633","277.3","NAN","NAN","NAN","NAN","NAN"],
    [1554710,"2026-05-21 07:20:00","55700","1.032","275.1","1.731","274.8","NAN","NAN","NAN","NAN","NAN"],
    [1554711,"2026-05-21 07:30:00","55701","0.753","274.6","1.437","274.6","NAN","NAN","NAN","NAN","NAN"],
    [1554712,"2026-05-21 07:40:00","55702","1.301","275.0","2.287","297","NAN","NAN","NAN","NAN","NAN"],
    [1554713,"2026-05-21 07:50:00","55703","1.3319999999999999","54.72","2.45","73.75","NAN","NAN","NAN","NAN","NAN"],
    [1554714,"2026-05-21 08:00:00","55704","1.3090000000000002","80.2","2.581","70.59","NAN","NAN","NAN","NAN","NAN"],
    [1554715,"2026-05-21 08:10:00","55705","1.909","78.84","3.593","78.99","NAN","NAN","NAN","NAN","NAN"],
    [1554716,"2026-05-21 08:20:00","55706","2.5780000000000003","88.2","3.953","94.3","NAN","NAN","NAN","NAN","NAN"],
    [1554717,"2026-05-21 08:30:00","55707","2.885","88.6","4.377","83.8","NAN","NAN","NAN","NAN","NAN"],
    [1554718,"2026-05-21 08:40:00","55708","2.0709999999999997","86.0","3.626","81.8","NAN","NAN","NAN","NAN","NAN"],
    [1554719,"2026-05-21 08:50:00","55709","1.922","80.5","3.365","92.9","NAN","NAN","NAN","NAN","NAN"],
    [1554720,"2026-05-21 09:00:00","55710","1.899","80.0","3.397","85.7","NAN","NAN","NAN","NAN","NAN"],
    [1554721,"2026-05-21 09:10:00","55711","1.926","83.9","3.169","92.7","NAN","NAN","NAN","NAN","NAN"],
    [1554722,"2026-05-21 09:20:00","55712","2.674","83.5","4.051","84","NAN","NAN","NAN","NAN","NAN"],
    [1554723,"2026-05-21 09:30:00","55713","2.802","97.5","4.214","100.6","NAN","NAN","NAN","NAN","NAN"],
    [1554724,"2026-05-21 09:40:00","55714","2.6689999999999996","97.1","4.933","97.2","NAN","NAN","NAN","NAN","NAN"],
    [1554725,"2026-05-21 09:50:00","55715","2.705","101.1","5.292","97.6","NAN","NAN","NAN","NAN","NAN"],
    [1554726,"2026-05-21 10:00:00","55716","2.9589999999999996","109.4","4.965","121.5","NAN","NAN","NAN","NAN","NAN"],
    [1554727,"2026-05-21 10:10:00","55717","3.0069999999999997","110.8","4.541","104.2","NAN","NAN","NAN","NAN","NAN"],
    [1554728,"2026-05-21 10:20:00","55718","2.59","117.7","4.377","133.9","NAN","NAN","NAN","NAN","NAN"],
    [1554729,"2026-05-21 10:30:00","55719","2.862","122.5","5.031","120.6","NAN","NAN","NAN","NAN","NAN"],
    [1554730,"2026-05-21 10:40:00","55720","3.159","121.0","4.475","116.3","NAN","NAN","NAN","NAN","NAN"],
    [1554731,"2026-05-21 10:50:00","55721","3.057","109.0","4.671","106.5","NAN","NAN","NAN","NAN","NAN"],
    [1554732,"2026-05-21 11:00:00","55722","2.971","108.8","4.737","103.6","NAN","NAN","NAN","NAN","NAN"],
    [1554733,"2026-05-21 11:10:00","55723","2.708","108.3","4.279","99.2","NAN","NAN","NAN","NAN","NAN"],
    [1554734,"2026-05-21 11:20:00","55724","2.915","105.2","4.573","85.8","NAN","NAN","NAN","NAN","NAN"],
    [1554735,"2026-05-21 11:30:00","55725","2.9730000000000003","120.0","4.508","104.6","NAN","NAN","NAN","NAN","NAN"],
    [1554736,"2026-05-21 11:40:00","55726","2.748","134.2","4.704","134","NAN","NAN","NAN","NAN","NAN"],
    [1554737,"2026-05-21 11:50:00","55727","3.387","137.8","5.227","139","NAN","NAN","NAN","NAN","NAN"],
    [1554738,"2026-05-21 12:00:00","55728","3.574","142.5","5.488","135.8","NAN","NAN","NAN","NAN","NAN"],
    [1554739,"2026-05-21 12:10:00","55729","3.41","130.9","4.965","133.3","NAN","NAN","NAN","NAN","NAN"],
    [1554740,"2026-05-21 12:20:00","55730","3.137","129.0","5.717","136.8","NAN","NAN","NAN","NAN","NAN"],
    [1554741,"2026-05-21 12:30:00","55731","3.4139999999999997","116.9","5.259","119.9","NAN","NAN","NAN","NAN","NAN"],
    [1554742,"2026-05-21 12:40:00","55732","3.247","129.5","4.998","145.9","NAN","NAN","NAN","NAN","NAN"],
    [1554743,"2026-05-21 12:50:00","55733","3.335","140.5","5.521","133.4","NAN","NAN","NAN","NAN","NAN"],
    [1554744,"2026-05-21 13:00:00","55734","2.94","146.1","4.802","168.4","NAN","NAN","NAN","NAN","NAN"],
    [1554745,"2026-05-21 13:10:00","55735","2.9339999999999997","135.6","4.704","124.9","NAN","NAN","NAN","NAN","NAN"],
    [1554746,"2026-05-21 13:20:00","55736","3.015","151.7","4.867","146.6","NAN","NAN","NAN","NAN","NAN"],
    [1554747,"2026-05-21 13:30:00","55737","3.34","131.5","5.782","170.2","NAN","NAN","NAN","NAN","NAN"],
    [1554748,"2026-05-21 13:40:00","55738","2.85","139.4","4.737","145.6","NAN","NAN","NAN","NAN","NAN"],
    [1554749,"2026-05-21 13:50:00","55739","3.2230000000000003","134.5","5.227","156.3","NAN","NAN","NAN","NAN","NAN"],
    [1554750,"2026-05-21 14:00:00","55740","3.909","143.1","5.423","141.2","NAN","NAN","NAN","NAN","NAN"],
    [1554751,"2026-05-21 14:10:00","55741","3.5980000000000003","144.4","5.194","136.1","NAN","NAN","NAN","NAN","NAN"],
    [1554752,"2026-05-21 14:20:00","55742","3.687","141.5","6.207","125.2","NAN","NAN","NAN","NAN","NAN"],
    [1554753,"2026-05-21 14:30:00","55743","3.455","155.2","5.521","141.9","NAN","NAN","NAN","NAN","NAN"],
    [1554754,"2026-05-21 14:40:00","55744","3.6430000000000002","148.8","5.684","153.3","NAN","NAN","NAN","NAN","NAN"],
    [1554755,"2026-05-21 14:50:00","55745","3.0269999999999997","175.6","5.325","174.9","NAN","NAN","NAN","NAN","NAN"],
    [1554756,"2026-05-21 15:00:00","55746","3.2969999999999997","177.2","5.913","157","NAN","NAN","NAN","NAN","NAN"],
    [1554757,"2026-05-21 15:10:00","55747","3.65","177.5","5.357","169.5","NAN","NAN","NAN","NAN","NAN"],
    [1554758,"2026-05-21 15:20:00","55748","3.94","166.9","5.521","165.2","NAN","NAN","NAN","NAN","NAN"],
    [1554759,"2026-05-21 15:30:00","55749","3.0180000000000002","195.9","4.541","210.7","NAN","NAN","NAN","NAN","NAN"],
    [1554760,"2026-05-21 15:40:00","55750","3.239","196.8","5.357","217.3","NAN","NAN","NAN","NAN","NAN"],
    [1554761,"2026-05-21 15:50:00","55751","3.1439999999999997","192.9","5.553","217.2","NAN","NAN","NAN","NAN","NAN"],
    [1554762,"2026-05-21 16:00:00","55752","3.155","201.1","5.292","216.9","NAN","NAN","NAN","NAN","NAN"],
    [1554763,"2026-05-21 16:10:00","55753","3.2110000000000003","195.5","5.717","202.9","NAN","NAN","NAN","NAN","NAN"],
    [1554764,"2026-05-21 16:20:00","55754","3.514","207.3","5.913","210.4","NAN","NAN","NAN","NAN","NAN"],
    [1554765,"2026-05-21 16:30:00","55755","3.1660000000000004","207.6","5.521","202.2","NAN","NAN","NAN","NAN","NAN"],
    [1554766,"2026-05-21 16:40:00","55756","2.4090000000000003","207.5","4.9","194.4","NAN","NAN","NAN","NAN","NAN"],
    [1554767,"2026-05-21 16:50:00","55757","3.3560000000000003","205.0","5.945","203.1","NAN","NAN","NAN","NAN","NAN"],
    [1554768,"2026-05-21 17:00:00","55758","3.295","215.6","5.455","228.5","NAN","NAN","NAN","NAN","NAN"],
    [1554769,"2026-05-21 17:10:00","55759","3.765","210.8","6.076","199.5","NAN","NAN","NAN","NAN","NAN"],
    [1554770,"2026-05-21 17:20:00","55760","3.032","205.5","6.207","208","NAN","NAN","NAN","NAN","NAN"],
    [1554771,"2026-05-21 17:30:00","55761","3.3","210.7","5.847","210","NAN","NAN","NAN","NAN","NAN"],
    [1554772,"2026-05-21 17:40:00","55762","3.4730000000000003","210.2","5.684","201.2","NAN","NAN","NAN","NAN","NAN"],
    [1554773,"2026-05-21 17:50:00","55763","3.074","209.4","5.39","222.7","NAN","NAN","NAN","NAN","NAN"],
    [1554774,"2026-05-21 18:00:00","55764","3.321","211.8","5.619","217.3","NAN","NAN","NAN","NAN","NAN"],
    [1554775,"2026-05-21 18:10:00","55765","3.5189999999999997","210.6","5.488","210.3","NAN","NAN","NAN","NAN","NAN"],
    [1554776,"2026-05-21 18:20:00","55766","3.529","211.4","5.292","205.5","NAN","NAN","NAN","NAN","NAN"],
    [1554777,"2026-05-21 18:30:00","55767","3.378","206.5","4.933","198.6","NAN","NAN","NAN","NAN","NAN"],
    [1554778,"2026-05-21 18:40:00","55768","3.4219999999999997","205.2","4.867","204","NAN","NAN","NAN","NAN","NAN"],
    [1554779,"2026-05-21 18:50:00","55769","2.804","210.0","5.096","214.5","NAN","NAN","NAN","NAN","NAN"],
    [1554780,"2026-05-21 19:00:00","55770","2.803","208.5","4.149","207.6","NAN","NAN","NAN","NAN","NAN"],
    [1554781,"2026-05-21 19:10:00","55771","2.572","204.5","4.214","207.2","NAN","NAN","NAN","NAN","NAN"],
    [1554782,"2026-05-21 19:20:00","55772","2.846","206.3","4.083","215.6","NAN","NAN","NAN","NAN","NAN"],
    [1554783,"2026-05-21 19:30:00","55773","2.065","207.1","3.332","207.4","NAN","NAN","NAN","NAN","NAN"],
    [1554784,"2026-05-21 19:40:00","55774","1.932","205.2","3.038","206","NAN","NAN","NAN","NAN","NAN"],
    [1554785,"2026-05-21 19:50:00","55775","1.153","208.6","2.319","204.2","NAN","NAN","NAN","NAN","NAN"],
    [1554786,"2026-05-21 20:00:00","55776","0.21899999999999997","219.6","1.176","218.3","NAN","NAN","NAN","NAN","NAN"],
    [1554787,"2026-05-21 20:10:00","55777","1.339","209.7","2.875","208.1","NAN","NAN","NAN","NAN","NAN"],
    [1554788,"2026-05-21 20:20:00","55778","0.823","207.3","2.058","203.4","NAN","NAN","NAN","NAN","NAN"],
    [1554789,"2026-05-21 20:30:00","55779","0.905","206.3","1.731","204.3","NAN","NAN","NAN","NAN","NAN"],
    [1554790,"2026-05-21 20:40:00","55780","1.139","201.0","2.189","203.2","NAN","NAN","NAN","NAN","NAN"],
    [1554791,"2026-05-21 20:50:00","55781","1.083","202.5","2.189","206.7","NAN","NAN","NAN","NAN","NAN"],
    [1554792,"2026-05-21 21:00:00","55782","1.037","208.4","2.123","205.8","NAN","NAN","NAN","NAN","NAN"],
    [1554793,"2026-05-21 21:10:00","55783","0.893","203.4","1.666","202.2","NAN","NAN","NAN","NAN","NAN"],
    [1554794,"2026-05-21 21:20:00","55784","1.008","207.0","1.862","206.4","NAN","NAN","NAN","NAN","NAN"],
    [1554795,"2026-05-21 21:30:00","55785","1.146","212.4","2.025","212.8","NAN","NAN","NAN","NAN","NAN"],
    [1554796,"2026-05-21 21:40:00","55786","0.6829999999999999","219.4","1.568","221","NAN","NAN","NAN","NAN","NAN"],
    [1554797,"2026-05-21 21:50:00","55787","1.334","227.3","2.515","230.4","NAN","NAN","NAN","NAN","NAN"],
    [1554798,"2026-05-21 22:00:00","55788","1.254","235.4","2.287","236.1","NAN","NAN","NAN","NAN","NAN"],
    [1554799,"2026-05-21 22:10:00","55789","1.73","242.4","2.646","239.7","NAN","NAN","NAN","NAN","NAN"],
    [1554800,"2026-05-21 22:20:00","55790","1.9969999999999999","249.4","2.875","252.7","NAN","NAN","NAN","NAN","NAN"],
    [1554801,"2026-05-21 22:30:00","55791","1.817","250.6","2.809","250.3","NAN","NAN","NAN","NAN","NAN"],
    [1554802,"2026-05-21 22:40:00","55792","2.491","252.5","3.528","252.1","NAN","NAN","NAN","NAN","NAN"],
    [1554803,"2026-05-21 22:50:00","55793","2.283","250.8","3.169","254.9","NAN","NAN","NAN","NAN","NAN"],
    [1554804,"2026-05-21 23:00:00","55794","2.377","248.3","3.463","247.9","NAN","NAN","NAN","NAN","NAN"],
    [1554805,"2026-05-21 23:10:00","55795","2.009","248.9","3.136","255","NAN","NAN","NAN","NAN","NAN"],
    [1554806,"2026-05-21 23:20:00","55796","2.392","248.9","3.659","247","NAN","NAN","NAN","NAN","NAN"],
    [1554807,"2026-05-21 23:30:00","55797","1.4509999999999998","256.3","2.45","244.5","NAN","NAN","NAN","NAN","NAN"],
    [1554808,"2026-05-21 23:40:00","55798","1.04","257.7","1.699","257.8","NAN","NAN","NAN","NAN","NAN"],
    [1554809,"2026-05-21 23:50:00","55799","1.123","258.4","2.385","258.9","NAN","NAN","NAN","NAN","NAN"],
    [1554810,"2026-05-22 00:00:00","55800","1.551","260.3","2.744","258.8","NAN","NAN","NAN","NAN","NAN"],
    [1554811,"2026-05-22 00:10:00","55801","1.5619999999999998","262.2","2.777","262.7","NAN","NAN","NAN","NAN","NAN"],
    [1554812,"2026-05-22 00:20:00","55802","1.5330000000000001","257.5","2.679","262.7","NAN","NAN","NAN","NAN","NAN"],
    [1554813,"2026-05-22 00:30:00","55803","1.7309999999999999","261.0","2.973","264","NAN","NAN","NAN","NAN","NAN"],
    [1554814,"2026-05-22 00:40:00","55804","1.935","264.2","3.365","267","NAN","NAN","NAN","NAN","NAN"],
    [1554815,"2026-05-22 00:50:00","55805","1.724","266.9","2.809","266.3","NAN","NAN","NAN","NAN","NAN"],
    [1554816,"2026-05-22 01:00:00","55806","1.6740000000000002","270.2","2.417","271.6","NAN","NAN","NAN","NAN","NAN"],
    [1554817,"2026-05-22 01:10:00","55807","1.581","268.3","2.613","266.5","NAN","NAN","NAN","NAN","NAN"],
    [1554818,"2026-05-22 01:20:00","55808","1.577","269.7","2.581","272.4","NAN","NAN","NAN","NAN","NAN"],
    [1554819,"2026-05-22 01:30:00","55809","1.528","265.1","2.221","260.8","NAN","NAN","NAN","NAN","NAN"],
    [1554820,"2026-05-22 01:40:00","55810","1.153","267.3","2.156","268.3","NAN","NAN","NAN","NAN","NAN"],
    [1554821,"2026-05-22 01:50:00","55811","1.364","259.7","1.895","260.1","NAN","NAN","NAN","NAN","NAN"],
    [1554822,"2026-05-22 02:00:00","55812","1.534","258.4","2.352","257.9","NAN","NAN","NAN","NAN","NAN"],
    [1554823,"2026-05-22 02:10:00","55813","1.7309999999999999","255.9","2.646","256.4","NAN","NAN","NAN","NAN","NAN"],
    [1554824,"2026-05-22 02:20:00","55814","1.3530000000000002","266.7","2.319","266","NAN","NAN","NAN","NAN","NAN"],
    [1554825,"2026-05-22 02:30:00","55815","1.364","263.1","2.123","262.5","NAN","NAN","NAN","NAN","NAN"],
    [1554826,"2026-05-22 02:40:00","55816","1.545","267.0","2.809","272.2","NAN","NAN","NAN","NAN","NAN"],
    [1554827,"2026-05-22 02:50:00","55817","1.876","268.1","2.875","273.7","NAN","NAN","NAN","NAN","NAN"],
    [1554828,"2026-05-22 03:00:00","55818","1.614","270.7","2.646","275","NAN","NAN","NAN","NAN","NAN"],
    [1554829,"2026-05-22 03:10:00","55819","1.439","262.8","2.156","260.3","NAN","NAN","NAN","NAN","NAN"],
    [1554830,"2026-05-22 03:20:00","55820","1.761","262.4","2.777","260.6","NAN","NAN","NAN","NAN","NAN"],
    [1554831,"2026-05-22 03:30:00","55821","1.9909999999999999","267.5","2.973","268.4","NAN","NAN","NAN","NAN","NAN"],
    [1554832,"2026-05-22 03:40:00","55822","2.104","270.2","3.201","276.3","NAN","NAN","NAN","NAN","NAN"],
    [1554833,"2026-05-22 03:50:00","55823","1.8359999999999999","268.1","3.103","277.7","NAN","NAN","NAN","NAN","NAN"],
    [1554834,"2026-05-22 04:00:00","55824","1.716","266.5","2.94","272.3","NAN","NAN","NAN","NAN","NAN"],
    [1554835,"2026-05-22 04:10:00","55825","1.9769999999999999","261.9","3.593","262.6","NAN","NAN","NAN","NAN","NAN"],
    [1554836,"2026-05-22 04:20:00","55826","2.204","260.6","3.463","262.6","NAN","NAN","NAN","NAN","NAN"],
    [1554837,"2026-05-22 04:30:00","55827","2.144","260.5","3.267","263.8","NAN","NAN","NAN","NAN","NAN"],
    [1554838,"2026-05-22 04:40:00","55828","2.1959999999999997","264.5","3.365","271.2","NAN","NAN","NAN","NAN","NAN"],
    [1554839,"2026-05-22 04:50:00","55829","1.882","262.6","2.907","253.3","NAN","NAN","NAN","NAN","NAN"],
    [1554840,"2026-05-22 05:00:00","55830","1.9380000000000002","266.8","3.201","272.5","NAN","NAN","NAN","NAN","NAN"],
    [1554841,"2026-05-22 05:10:00","55831","1.659","272.3","3.234","271.3","NAN","NAN","NAN","NAN","NAN"],
    [1554842,"2026-05-22 05:20:00","55832","0.183","277.7","1.633","277.5","NAN","NAN","NAN","NAN","NAN"],
    [1554843,"2026-05-22 05:30:00","55833","0.365","272.9","1.209","255.6","NAN","NAN","NAN","NAN","NAN"],
    [1554844,"2026-05-22 05:40:00","55834","0.342","252.7","1.209","253.6","NAN","NAN","NAN","NAN","NAN"],
    [1554845,"2026-05-22 05:50:00","55835","0.265","251.8","1.013","251.8","NAN","NAN","NAN","NAN","NAN"],
    [1554846,"2026-05-22 06:00:00","55836","0.46399999999999997","251.7","1.731","251.5","NAN","NAN","NAN","NAN","NAN"],
    [1554847,"2026-05-22 06:10:00","55837","0.307","207.5","1.993","251.3","NAN","NAN","NAN","NAN","NAN"],
    [1554848,"2026-05-22 06:20:00","55838","0.19","194.5","1.045","195.9","NAN","NAN","NAN","NAN","NAN"],
    [1554849,"2026-05-22 06:30:00","55839","0.258","193.0","0.98","193.2","NAN","NAN","NAN","NAN","NAN"],
    [1554850,"2026-05-22 06:40:00","55840","0.175","192.1","1.176","192.1","NAN","NAN","NAN","NAN","NAN"],
    [1554851,"2026-05-22 06:50:00","55841","0.134","187.5","1.209","190.2","NAN","NAN","NAN","NAN","NAN"],
    [1554852,"2026-05-22 07:00:00","55842","0.125","150.7","2.385","76.22","NAN","NAN","NAN","NAN","NAN"],
    [1554853,"2026-05-22 07:10:00","55843","2.167","91.2","4.149","92.4","NAN","NAN","NAN","NAN","NAN"],
    [1554854,"2026-05-22 07:20:00","55844","2.745","89.9","4.018","89.9","NAN","NAN","NAN","NAN","NAN"],
    [1554855,"2026-05-22 07:30:00","55845","1.86","89.7","3.201","96.4","NAN","NAN","NAN","NAN","NAN"],
    [1554856,"2026-05-22 07:40:00","55846","1.679","91.6","3.593","88.7","NAN","NAN","NAN","NAN","NAN"],
    [1554857,"2026-05-22 07:50:00","55847","2.627","86.8","4.737","88.6","NAN","NAN","NAN","NAN","NAN"],
    [1554858,"2026-05-22 08:00:00","55848","2.753","87.6","4.867","86.6","NAN","NAN","NAN","NAN","NAN"],
    [1554859,"2026-05-22 08:10:00","55849","3.082","89.2","4.573","86.6","NAN","NAN","NAN","NAN","NAN"],
    [1554860,"2026-05-22 08:20:00","55850","3.332","89.3","4.998","89","NAN","NAN","NAN","NAN","NAN"],
    [1554861,"2026-05-22 08:30:00","55851","3.031","89.6","4.671","84.8","NAN","NAN","NAN","NAN","NAN"],
    [1554862,"2026-05-22 08:40:00","55852","2.907","90.2","4.312","77.75","NAN","NAN","NAN","NAN","NAN"],
    [1554863,"2026-05-22 08:50:00","55853","3.3739999999999997","83.6","5.455","88.8","NAN","NAN","NAN","NAN","NAN"],
    [1554864,"2026-05-22 09:00:00","55854","3.3960000000000004","88.8","5.031","89.3","NAN","NAN","NAN","NAN","NAN"],
    [1554865,"2026-05-22 09:10:00","55855","3.233","82.2","4.508","97.5","NAN","NAN","NAN","NAN","NAN"],
    [1554866,"2026-05-22 09:20:00","55856","2.385","90.2","4.181","103.1","NAN","NAN","NAN","NAN","NAN"],
    [1554867,"2026-05-22 09:30:00","55857","2.654","92.5","3.92","97.8","NAN","NAN","NAN","NAN","NAN"],
    [1554868,"2026-05-22 09:40:00","55858","2.7230000000000003","86.7","4.116","83.6","NAN","NAN","NAN","NAN","NAN"],
    [1554869,"2026-05-22 09:50:00","55859","2.602","78.77","4.051","82.8","NAN","NAN","NAN","NAN","NAN"],
    [1554870,"2026-05-22 10:00:00","55860","2.224","87.1","3.659","92","NAN","NAN","NAN","NAN","NAN"],
    [1554871,"2026-05-22 10:10:00","55861","2.319","84.3","3.463","88.3","NAN","NAN","NAN","NAN","NAN"],
    [1554872,"2026-05-22 10:20:00","55862","2.412","86.8","3.593","94.2","NAN","NAN","NAN","NAN","NAN"],
    [1554873,"2026-05-22 10:30:00","55863","2.45","98.4","3.822","99.4","NAN","NAN","NAN","NAN","NAN"],
    [1554874,"2026-05-22 10:40:00","55864","2.333","99.0","3.528","90.5","NAN","NAN","NAN","NAN","NAN"],
    [1554875,"2026-05-22 10:50:00","55865","2.39","92.3","3.593","99.6","NAN","NAN","NAN","NAN","NAN"],
    [1554876,"2026-05-22 11:00:00","55866","2.237","90.9","3.789","79.96","NAN","NAN","NAN","NAN","NAN"],
    [1554877,"2026-05-22 11:10:00","55867","2.209","88.4","3.397","104.2","NAN","NAN","NAN","NAN","NAN"],
    [1554878,"2026-05-22 11:20:00","55868","2.282","85.4","3.495","85.7","NAN","NAN","NAN","NAN","NAN"],
    [1554879,"2026-05-22 11:30:00","55869","2.073","90.8","3.234","95.3","NAN","NAN","NAN","NAN","NAN"],
    [1554880,"2026-05-22 11:40:00","55870","2.116","101.6","3.038","92.1","NAN","NAN","NAN","NAN","NAN"],
    [1554881,"2026-05-22 11:50:00","55871","2.12","97.9","3.267","84.8","NAN","NAN","NAN","NAN","NAN"],
    [1554882,"2026-05-22 12:00:00","55872","2.108","96.6","3.201","85.7","NAN","NAN","NAN","NAN","NAN"],
    [1554883,"2026-05-22 12:10:00","55873","1.9","87.5","3.397","82.5","NAN","NAN","NAN","NAN","NAN"],
    [1554884,"2026-05-22 12:20:00","55874","1.797","97.8","2.842","91.1","NAN","NAN","NAN","NAN","NAN"],
    [1554885,"2026-05-22 12:30:00","55875","1.7369999999999999","89.7","2.777","81.1","NAN","NAN","NAN","NAN","NAN"],
    [1554886,"2026-05-22 12:40:00","55876","2.052","89.1","3.43","91.5","NAN","NAN","NAN","NAN","NAN"],
    [1554887,"2026-05-22 12:50:00","55877","1.944","92.2","3.169","102.2","NAN","NAN","NAN","NAN","NAN"],
    [1554888,"2026-05-22 13:00:00","55878","2.185","100.6","3.234","88.2","NAN","NAN","NAN","NAN","NAN"],
    [1554889,"2026-05-22 13:10:00","55879","2.537","111.7","3.887","122","NAN","NAN","NAN","NAN","NAN"],
    [1554890,"2026-05-22 13:20:00","55880","2.191","104.9","3.299","94.1","NAN","NAN","NAN","NAN","NAN"],
    [1554891,"2026-05-22 13:30:00","55881","2.539","94.2","3.789","89.4","NAN","NAN","NAN","NAN","NAN"],
    [1554892,"2026-05-22 13:40:00","55882","2.475","94.1","3.985","87.9","NAN","NAN","NAN","NAN","NAN"],
    [1554893,"2026-05-22 13:50:00","55883","2.247","99.0","3.887","95.1","NAN","NAN","NAN","NAN","NAN"],
    [1554894,"2026-05-22 14:00:00","55884","2.668","93.1","3.953","91.8","NAN","NAN","NAN","NAN","NAN"],
    [1554895,"2026-05-22 14:10:00","55885","2.582","101.8","3.887","89","NAN","NAN","NAN","NAN","NAN"],
    [1554896,"2026-05-22 14:20:00","55886","2.6039999999999996","95.0","3.789","97","NAN","NAN","NAN","NAN","NAN"],
    [1554897,"2026-05-22 14:30:00","55887","2.315","101.6","3.495","100.8","NAN","NAN","NAN","NAN","NAN"],
    [1554898,"2026-05-22 14:40:00","55888","2.6460000000000004","89.7","4.312","82.9","NAN","NAN","NAN","NAN","NAN"],
    [1554899,"2026-05-22 14:50:00","55889","2.492","88.7","3.92","96.6","NAN","NAN","NAN","NAN","NAN"],
    [1554900,"2026-05-22 15:00:00","55890","2.367","91.2","3.757","86.1","NAN","NAN","NAN","NAN","NAN"],
    [1554901,"2026-05-22 15:10:00","55891","2.061","90.7","3.299","87.8","NAN","NAN","NAN","NAN","NAN"],
    [1554902,"2026-05-22 15:20:00","55892","2.174","110.2","4.018","139.1","NAN","NAN","NAN","NAN","NAN"],
    [1554903,"2026-05-22 15:30:00","55893","2.263","108.6","3.463","115.4","NAN","NAN","NAN","NAN","NAN"],
    [1554904,"2026-05-22 15:40:00","55894","2.2230000000000003","129.9","4.312","128.7","NAN","NAN","NAN","NAN","NAN"],
    [1554905,"2026-05-22 15:50:00","55895","2.156","130.4","3.953","134.1","NAN","NAN","NAN","NAN","NAN"],
    [1554906,"2026-05-22 16:00:00","55896","2.563","115.4","3.724","111.1","NAN","NAN","NAN","NAN","NAN"],
    [1554907,"2026-05-22 16:10:00","55897","2.48","120.1","3.887","134.9","NAN","NAN","NAN","NAN","NAN"],
    [1554908,"2026-05-22 16:20:00","55898","2.5380000000000003","121.6","4.279","118.2","NAN","NAN","NAN","NAN","NAN"],
    [1554909,"2026-05-22 16:30:00","55899","2.977","109.0","4.051","102.8","NAN","NAN","NAN","NAN","NAN"],
    [1554910,"2026-05-22 16:40:00","55900","2.611","112.4","3.855","117","NAN","NAN","NAN","NAN","NAN"],
    [1554911,"2026-05-22 16:50:00","55901","2.6439999999999997","113.1","4.214","113.9","NAN","NAN","NAN","NAN","NAN"],
    [1554912,"2026-05-22 17:00:00","55902","2.29","113.7","3.43","112.6","NAN","NAN","NAN","NAN","NAN"],
    [1554913,"2026-05-22 17:10:00","55903","2.401","110.0","4.475","99.1","NAN","NAN","NAN","NAN","NAN"],
    [1554914,"2026-05-22 17:20:00","55904","2.465","107.4","3.495","97.2","NAN","NAN","NAN","NAN","NAN"],
    [1554915,"2026-05-22 17:30:00","55905","2.041","120.3","3.724","139.4","NAN","NAN","NAN","NAN","NAN"],
    [1554916,"2026-05-22 17:40:00","55906","2.176","123.6","3.887","132.8","NAN","NAN","NAN","NAN","NAN"],
    [1554917,"2026-05-22 17:50:00","55907","2.3819999999999997","114.9","3.724","128.4","NAN","NAN","NAN","NAN","NAN"],
    [1554918,"2026-05-22 18:00:00","55908","2.221","112.0","3.169","115.7","NAN","NAN","NAN","NAN","NAN"],
    [1554919,"2026-05-22 18:10:00","55909","2.23","112.2","3.201","115.5","NAN","NAN","NAN","NAN","NAN"],
    [1554920,"2026-05-22 18:20:00","55910","2.319","113.2","3.397","120.5","NAN","NAN","NAN","NAN","NAN"],
    [1554921,"2026-05-22 18:30:00","55911","2.002","112.3","3.169","120.9","NAN","NAN","NAN","NAN","NAN"],
    [1554922,"2026-05-22 18:40:00","55912","1.955","97.7","3.103","95.7","NAN","NAN","NAN","NAN","NAN"],
    [1554923,"2026-05-22 18:50:00","55913","1.776","96.3","2.581","98.1","NAN","NAN","NAN","NAN","NAN"],
    [1554924,"2026-05-22 19:00:00","55914","1.514","94.2","2.515","89.8","NAN","NAN","NAN","NAN","NAN"],
    [1554925,"2026-05-22 19:10:00","55915","1.7109999999999999","95.6","2.973","95.5","NAN","NAN","NAN","NAN","NAN"],
    [1554926,"2026-05-22 19:20:00","55916","1.371","94.3","2.319","94.7","NAN","NAN","NAN","NAN","NAN"],
    [1554927,"2026-05-22 19:30:00","55917","1.109","97.9","1.96","100.7","NAN","NAN","NAN","NAN","NAN"],
    [1554928,"2026-05-22 19:40:00","55918","1.0490000000000002","94.3","1.764","89.8","NAN","NAN","NAN","NAN","NAN"],
    [1554929,"2026-05-22 19:50:00","55919","0.927","92.4","1.405","95.7","NAN","NAN","NAN","NAN","NAN"],
    [1554930,"2026-05-22 20:00:00","55920","1.101","89.6","1.503","89.7","NAN","NAN","NAN","NAN","NAN"],
    [1554931,"2026-05-22 20:10:00","55921","1.159","89.2","1.731","89.2","NAN","NAN","NAN","NAN","NAN"],
    [1554932,"2026-05-22 20:20:00","55922","1.101","89.5","1.829","90.5","NAN","NAN","NAN","NAN","NAN"],
    [1554933,"2026-05-22 20:30:00","55923","0.907","89.1","1.503","88.8","NAN","NAN","NAN","NAN","NAN"],
    [1554934,"2026-05-22 20:40:00","55924","0.8059999999999999","88.9","1.307","88.7","NAN","NAN","NAN","NAN","NAN"],
    [1554935,"2026-05-22 20:50:00","55925","0.708","89.1","1.339","88.8","NAN","NAN","NAN","NAN","NAN"],
    [1554936,"2026-05-22 21:00:00","55926","0.721","88.9","1.209","88.7","NAN","NAN","NAN","NAN","NAN"],
    [1554937,"2026-05-22 21:10:00","55927","0.578","88.6","1.209","88.7","NAN","NAN","NAN","NAN","NAN"],
    [1554938,"2026-05-22 21:20:00","55928","0.27699999999999997","88.6","0.817","88.6","NAN","NAN","NAN","NAN","NAN"],
    [1554939,"2026-05-22 21:30:00","55929","0.001","88.7","0.098","88.7","NAN","NAN","NAN","NAN","NAN"],
    [1554940,"2026-05-22 21:40:00","55930","0.011000000000000001","89.9","0.261","92.3","NAN","NAN","NAN","NAN","NAN"],
    [1554941,"2026-05-22 21:50:00","55931","0.539","89.1","1.339","88.6","NAN","NAN","NAN","NAN","NAN"],
    [1554942,"2026-05-22 22:00:00","55932","0.775","89.8","1.405","94.6","NAN","NAN","NAN","NAN","NAN"],
    [1554943,"2026-05-22 22:10:00","55933","0.887","91.0","1.601","89.4","NAN","NAN","NAN","NAN","NAN"],
    [1554944,"2026-05-22 22:20:00","55934","1.266","97.3","1.797","88.7","NAN","NAN","NAN","NAN","NAN"],
    [1554945,"2026-05-22 22:30:00","55935","0.93","88.2","1.437","88.3","NAN","NAN","NAN","NAN","NAN"],
    [1554946,"2026-05-22 22:40:00","55936","0.9390000000000001","87.5","1.96","87.5","NAN","NAN","NAN","NAN","NAN"],
    [1554947,"2026-05-22 22:50:00","55937","0.629","87.2","1.503","87.3","NAN","NAN","NAN","NAN","NAN"],
    [1554948,"2026-05-22 23:00:00","55938","0.48200000000000004","90.8","1.274","91.8","NAN","NAN","NAN","NAN","NAN"],
    [1554949,"2026-05-22 23:10:00","55939","0.6409999999999999","96.4","1.47","97.9","NAN","NAN","NAN","NAN","NAN"],
    [1554950,"2026-05-22 23:20:00","55940","0.858","101.1","1.47","101.6","NAN","NAN","NAN","NAN","NAN"],
    [1554951,"2026-05-22 23:30:00","55941","0.9359999999999999","103.2","1.535","103.3","NAN","NAN","NAN","NAN","NAN"],
    [1554952,"2026-05-22 23:40:00","55942","1.123","104.2","1.666","104.5","NAN","NAN","NAN","NAN","NAN"],
    [1554953,"2026-05-22 23:50:00","55943","1.4040000000000001","105.0","2.515","105.7","NAN","NAN","NAN","NAN","NAN"],
    [1554954,"2026-05-23 00:00:00","55944","1.317","108.6","2.254","107.4","NAN","NAN","NAN","NAN","NAN"],
    [1554955,"2026-05-23 00:10:00","55945","1.028","109.6","1.862","109.4","NAN","NAN","NAN","NAN","NAN"],
    [1554956,"2026-05-23 00:20:00","55946","1.037","110.3","1.895","110","NAN","NAN","NAN","NAN","NAN"],
    [1554957,"2026-05-23 00:30:00","55947","0.75","110.4","1.274","110.5","NAN","NAN","NAN","NAN","NAN"],
    [1554958,"2026-05-23 00:40:00","55948","0.503","109.9","1.078","108.1","NAN","NAN","NAN","NAN","NAN"],
    [1554959,"2026-05-23 00:50:00","55949","0.755","110.5","1.274","110.5","NAN","NAN","NAN","NAN","NAN"],
    [1554960,"2026-05-23 01:00:00","55950","0.444","110.5","1.013","110.5","NAN","NAN","NAN","NAN","NAN"],
    [1554961,"2026-05-23 01:10:00","55951","0.08900000000000001","110.5","0.49","110.5","NAN","NAN","NAN","NAN","NAN"],
    [1554962,"2026-05-23 01:20:00","55952","0.155","110.5","0.555","110.5","NAN","NAN","NAN","NAN","NAN"],
    [1554963,"2026-05-23 01:30:00","55953","0.001","110.5","0.065","110.5","NAN","NAN","NAN","NAN","NAN"],
    [1554964,"2026-05-23 01:40:00","55954","0.0","0.0","0","0","NAN","NAN","NAN","NAN","NAN"],
    [1554965,"2026-05-23 01:50:00","55955","0.0","110.5","0.033","110.5","NAN","NAN","NAN","NAN","NAN"],
    [1554966,"2026-05-23 02:00:00","55956","0.0","0.0","0","0","NAN","NAN","NAN","NAN","NAN"],
    [1554967,"2026-05-23 02:10:00","55957","0.0","0.0","0","0","NAN","NAN","NAN","NAN","NAN"],
    [1554968,"2026-05-23 02:20:00","55958","0.015","110.5","0.327","110.5","NAN","NAN","NAN","NAN","NAN"],
    [1554969,"2026-05-23 02:30:00","55959","0.35600000000000004","110.5","0.719","110.5","NAN","NAN","NAN","NAN","NAN"],
    [1554970,"2026-05-23 02:40:00","55960","0.588","110.6","1.143","110.6","NAN","NAN","NAN","NAN","NAN"],
    [1554971,"2026-05-23 02:50:00","55961","0.38","110.6","0.882","110.6","NAN","NAN","NAN","NAN","NAN"],
    [1554972,"2026-05-23 03:00:00","55962","0.059000000000000004","110.6","0.653","110.5","NAN","NAN","NAN","NAN","NAN"],
    [1554973,"2026-05-23 03:10:00","55963","0.355","110.5","0.882","110.6","NAN","NAN","NAN","NAN","NAN"],
    [1554974,"2026-05-23 03:20:00","55964","0.9159999999999999","110.6","1.274","110.6","NAN","NAN","NAN","NAN","NAN"],
    [1554975,"2026-05-23 03:30:00","55965","0.787","110.3","1.307","110.7","NAN","NAN","NAN","NAN","NAN"],
    [1554976,"2026-05-23 03:40:00","55966","0.6509999999999999","110.0","1.437","110.5","NAN","NAN","NAN","NAN","NAN"],
    [1554977,"2026-05-23 03:50:00","55967","0.452","109.6","0.947","107.9","NAN","NAN","NAN","NAN","NAN"],
    [1554978,"2026-05-23 04:00:00","55968","0.344","110.3","0.98","110.6","NAN","NAN","NAN","NAN","NAN"],
    [1554979,"2026-05-23 04:10:00","55969","0.306","110.6","1.045","110.6","NAN","NAN","NAN","NAN","NAN"],
    [1554980,"2026-05-23 04:20:00","55970","0.08199999999999999","110.5","0.588","110.6","NAN","NAN","NAN","NAN","NAN"],
    [1554981,"2026-05-23 04:30:00","55971","0.062","110.3","0.425","110.4","NAN","NAN","NAN","NAN","NAN"],
    [1554982,"2026-05-23 04:40:00","55972","0.364","110.2","0.751","110.6","NAN","NAN","NAN","NAN","NAN"],
    [1554983,"2026-05-23 04:50:00","55973","0.344","110.5","0.686","110.6","NAN","NAN","NAN","NAN","NAN"],
    [1554984,"2026-05-23 05:00:00","55974","0.027000000000000003","110.5","0.49","110.5","NAN","NAN","NAN","NAN","NAN"],
    [1554985,"2026-05-23 05:10:00","55975","0.18600000000000003","110.5","0.653","110.5","NAN","NAN","NAN","NAN","NAN"],
    [1554986,"2026-05-23 05:20:00","55976","0.069","110.5","0.588","110.5","NAN","NAN","NAN","NAN","NAN"],
    [1554987,"2026-05-23 05:30:00","55977","0.0","0.0","0","0","NAN","NAN","NAN","NAN","NAN"],
    [1554988,"2026-05-23 05:40:00","55978","0.7020000000000001","110.3","1.405","110.5","NAN","NAN","NAN","NAN","NAN"],
    [1554989,"2026-05-23 05:50:00","55979","0.92","110.6","1.437","110.6","NAN","NAN","NAN","NAN","NAN"],
    [1554990,"2026-05-23 06:00:00","55980","0.853","110.7","1.437","110.7","NAN","NAN","NAN","NAN","NAN"],
    [1554991,"2026-05-23 06:10:00","55981","0.364","110.7","1.241","110.7","NAN","NAN","NAN","NAN","NAN"],
    [1554992,"2026-05-23 06:20:00","55982","0.332","108.3","0.947","107.3","NAN","NAN","NAN","NAN","NAN"],
    [1554993,"2026-05-23 06:30:00","55983","0.28300000000000003","110.3","1.013","110.8","NAN","NAN","NAN","NAN","NAN"],
    [1554994,"2026-05-23 06:40:00","55984","0.183","110.2","0.98","110.9","NAN","NAN","NAN","NAN","NAN"],
    [1554995,"2026-05-23 06:50:00","55985","0.124","106.6","0.817","106.2","NAN","NAN","NAN","NAN","NAN"],
    [1554996,"2026-05-23 07:00:00","55986","0.4","109.6","1.143","105.3","NAN","NAN","NAN","NAN","NAN"],
    [1554997,"2026-05-23 07:10:00","55987","0.019","111.5","0.359","111.5","NAN","NAN","NAN","NAN","NAN"],
    [1554998,"2026-05-23 07:20:00","55988","0.804","111.3","2.123","111.7","NAN","NAN","NAN","NAN","NAN"],
    [1554999,"2026-05-23 07:30:00","55989","1.228","107.2","2.025","100.1","NAN","NAN","NAN","NAN","NAN"],
    [1555000,"2026-05-23 07:40:00","55990","1.455","94.5","2.417","92","NAN","NAN","NAN","NAN","NAN"],
    [1555001,"2026-05-23 07:50:00","55991","2.024","86.1","2.809","83.1","NAN","NAN","NAN","NAN","NAN"],
    [1555002,"2026-05-23 08:00:00","55992","2.2030000000000003","82.9","2.842","83","NAN","NAN","NAN","NAN","NAN"],
    [1555003,"2026-05-23 08:10:00","55993","2.346","83.2","3.495","80.8","NAN","NAN","NAN","NAN","NAN"],
    [1555004,"2026-05-23 08:20:00","55994","2.503","79.34","4.606","92.4","NAN","NAN","NAN","NAN","NAN"],
    [1555005,"2026-05-23 08:30:00","55995","3.03","84.9","4.965","91.1","NAN","NAN","NAN","NAN","NAN"],
    [1555006,"2026-05-23 08:40:00","55996","3.885","86.3","5.194","91.5","NAN","NAN","NAN","NAN","NAN"],
    [1555007,"2026-05-23 08:50:00","55997","3.92","79.46","5.227","84","NAN","NAN","NAN","NAN","NAN"],
    [1555008,"2026-05-23 09:00:00","55998","3.465","79.8","4.573","89.5","NAN","NAN","NAN","NAN","NAN"],
    [1555009,"2026-05-23 09:10:00","55999","2.965","84.1","4.9","83","NAN","NAN","NAN","NAN","NAN"],
    [1555010,"2026-05-23 09:20:00","56000","3.1","87.2","4.541","92.6","NAN","NAN","NAN","NAN","NAN"],
    [1555011,"2026-05-23 09:30:00","56001","3.1839999999999997","86.2","4.508","92.9","NAN","NAN","NAN","NAN","NAN"],
    [1555012,"2026-05-23 09:40:00","56002","3.266","100.0","5.161","105.1","NAN","NAN","NAN","NAN","NAN"],
    [1555013,"2026-05-23 09:50:00","56003","3.532","94.0","5.096","86.3","NAN","NAN","NAN","NAN","NAN"],
    [1555014,"2026-05-23 10:00:00","56004","3.158","94.6","4.933","86.8","NAN","NAN","NAN","NAN","NAN"],
    [1555015,"2026-05-23 10:10:00","56005","3.012","98.5","4.606","88.2","NAN","NAN","NAN","NAN","NAN"],
    [1555016,"2026-05-23 10:20:00","56006","3.015","99.4","4.704","93.8","NAN","NAN","NAN","NAN","NAN"],
    [1555017,"2026-05-23 10:30:00","56007","3.39","108.5","4.639","104.9","NAN","NAN","NAN","NAN","NAN"],
    [1555018,"2026-05-23 10:40:00","56008","3.437","106.2","4.965","104.1","NAN","NAN","NAN","NAN","NAN"],
    [1555019,"2026-05-23 10:50:00","56009","3.1260000000000003","106.7","5.423","115.3","NAN","NAN","NAN","NAN","NAN"],
    [1555020,"2026-05-23 11:00:00","56010","3.34","105.2","4.965","110","NAN","NAN","NAN","NAN","NAN"],
    [1555021,"2026-05-23 11:10:00","56011","3.498","124.6","5.455","135.6","NAN","NAN","NAN","NAN","NAN"],
    [1555022,"2026-05-23 11:20:00","56012","3.3139999999999996","118.1","4.671","118.9","NAN","NAN","NAN","NAN","NAN"],
    [1555023,"2026-05-23 11:30:00","56013","3.4389999999999996","116.7","4.867","118.9","NAN","NAN","NAN","NAN","NAN"],
    [1555024,"2026-05-23 11:40:00","56014","3.475","108.6","4.835","106.5","NAN","NAN","NAN","NAN","NAN"],
    [1555025,"2026-05-23 11:50:00","56015","2.865","113.1","4.965","117","NAN","NAN","NAN","NAN","NAN"],
    [1555026,"2026-05-23 12:00:00","56016","3.411","127.2","5.455","131.4","NAN","NAN","NAN","NAN","NAN"],
    [1555027,"2026-05-23 12:10:00","56017","3.4810000000000003","127.2","4.933","133.1","NAN","NAN","NAN","NAN","NAN"],
    [1555028,"2026-05-23 12:20:00","56018","3.6260000000000003","130.9","5.129","137.3","NAN","NAN","NAN","NAN","NAN"],
    [1555029,"2026-05-23 12:30:00","56019","4.468","133.4","5.553","138.6","NAN","NAN","NAN","NAN","NAN"],
    [1555030,"2026-05-23 12:40:00","56020","3.818","134.4","5.684","138.7","NAN","NAN","NAN","NAN","NAN"],
    [1555031,"2026-05-23 12:50:00","56021","3.71","129.4","4.998","129.7","NAN","NAN","NAN","NAN","NAN"],
    [1555032,"2026-05-23 13:00:00","56022","3.888","133.7","5.227","133.8","NAN","NAN","NAN","NAN","NAN"],
    [1555033,"2026-05-23 13:10:00","56023","4.1","128.5","5.553","132.5","NAN","NAN","NAN","NAN","NAN"],
    [1555034,"2026-05-23 13:20:00","56024","3.87","125.4","5.161","129.1","NAN","NAN","NAN","NAN","NAN"],
    [1555035,"2026-05-23 13:30:00","56025","3.681","127.1","5.096","129.5","NAN","NAN","NAN","NAN","NAN"],
    [1555036,"2026-05-23 13:40:00","56026","3.693","132.6","4.965","140.1","NAN","NAN","NAN","NAN","NAN"],
    [1555037,"2026-05-23 13:50:00","56027","3.242","120.6","5.749","144.5","NAN","NAN","NAN","NAN","NAN"],
    [1555038,"2026-05-23 14:00:00","56028","3.3080000000000003","114.9","5.031","129.7","NAN","NAN","NAN","NAN","NAN"],
    [1555039,"2026-05-23 14:10:00","56029","3.295","108.0","5.129","98.4","NAN","NAN","NAN","NAN","NAN"],
    [1555040,"2026-05-23 14:20:00","56030","3.0","118.8","4.279","105.9","NAN","NAN","NAN","NAN","NAN"],
    [1555041,"2026-05-23 14:30:00","56031","3.017","114.0","4.769","119.6","NAN","NAN","NAN","NAN","NAN"],
    [1555042,"2026-05-23 14:40:00","56032","3.1","115.7","5.455","142.2","NAN","NAN","NAN","NAN","NAN"],
    [1555043,"2026-05-23 14:50:00","56033","2.844","117.7","4.214","103.3","NAN","NAN","NAN","NAN","NAN"],
    [1555044,"2026-05-23 15:00:00","56034","2.647","117.1","4.312","104.1","NAN","NAN","NAN","NAN","NAN"],
    [1555045,"2026-05-23 15:10:00","56035","3.051","119.8","4.835","103.4","NAN","NAN","NAN","NAN","NAN"],
    [1555046,"2026-05-23 15:20:00","56036","3.222","120.1","5.096","140.3","NAN","NAN","NAN","NAN","NAN"],
    [1555047,"2026-05-23 15:30:00","56037","2.98","128.0","4.541","112.4","NAN","NAN","NAN","NAN","NAN"],
    [1555048,"2026-05-23 15:40:00","56038","3.09","123.1","4.639","128","NAN","NAN","NAN","NAN","NAN"],
    [1555049,"2026-05-23 15:50:00","56039","3.181","114.1","4.769","111.6","NAN","NAN","NAN","NAN","NAN"],
    [1555050,"2026-05-23 16:00:00","56040","2.872","129.2","4.312","139.1","NAN","NAN","NAN","NAN","NAN"],
    [1555051,"2026-05-23 16:10:00","56041","2.394","145.7","3.789","133.7","NAN","NAN","NAN","NAN","NAN"],
    [1555052,"2026-05-23 16:20:00","56042","2.406","152.9","3.757","163.7","NAN","NAN","NAN","NAN","NAN"],
    [1555053,"2026-05-23 16:30:00","56043","2.345","144.9","4.541","128.7","NAN","NAN","NAN","NAN","NAN"],
    [1555054,"2026-05-23 16:40:00","56044","2.35","159.4","3.855","172.7","NAN","NAN","NAN","NAN","NAN"],
    [1555055,"2026-05-23 16:50:00","56045","2.733","164.1","3.691","159.3","NAN","NAN","NAN","NAN","NAN"],
    [1555056,"2026-05-23 17:00:00","56046","2.636","167.7","3.724","166.7","NAN","NAN","NAN","NAN","NAN"],
    [1555057,"2026-05-23 17:10:00","56047","2.592","152.2","3.626","140.7","NAN","NAN","NAN","NAN","NAN"],
    [1555058,"2026-05-23 17:20:00","56048","2.8","133.5","3.92","128.1","NAN","NAN","NAN","NAN","NAN"],
    [1555059,"2026-05-23 17:30:00","56049","2.5810000000000004","143.5","4.279","134.9","NAN","NAN","NAN","NAN","NAN"],
    [1555060,"2026-05-23 17:40:00","56050","2.67","162.7","3.561","167.8","NAN","NAN","NAN","NAN","NAN"],
    [1555061,"2026-05-23 17:50:00","56051","2.438","163.4","3.561","164.3","NAN","NAN","NAN","NAN","NAN"],
    [1555062,"2026-05-23 18:00:00","56052","2.3480000000000003","162.8","3.43","165.1","NAN","NAN","NAN","NAN","NAN"],
    [1555063,"2026-05-23 18:10:00","56053","2.1319999999999997","148.4","3.234","164.3","NAN","NAN","NAN","NAN","NAN"],
    [1555064,"2026-05-23 18:20:00","56054","1.8459999999999999","136.7","2.809","137.2","NAN","NAN","NAN","NAN","NAN"],
    [1555065,"2026-05-23 18:30:00","56055","1.374","130.9","2.744","134","NAN","NAN","NAN","NAN","NAN"],
    [1555066,"2026-05-23 18:40:00","56056","1.985","128.3","2.973","133.4","NAN","NAN","NAN","NAN","NAN"],
    [1555067,"2026-05-23 18:50:00","56057","1.6969999999999998","131.8","2.744","132.9","NAN","NAN","NAN","NAN","NAN"],
    [1555068,"2026-05-23 19:00:00","56058","1.483","139.9","2.319","139.8","NAN","NAN","NAN","NAN","NAN"],
    [1555069,"2026-05-23 19:10:00","56059","1.5930000000000002","146.9","2.483","148.1","NAN","NAN","NAN","NAN","NAN"],
    [1555070,"2026-05-23 19:20:00","56060","0.807","149.7","2.025","149.3","NAN","NAN","NAN","NAN","NAN"],
    [1555071,"2026-05-23 19:30:00","56061","0.252","158.0","0.882","162.3","NAN","NAN","NAN","NAN","NAN"],
    [1555072,"2026-05-23 19:40:00","56062","0.184","169.8","1.47","173","NAN","NAN","NAN","NAN","NAN"],
    [1555073,"2026-05-23 19:50:00","56063","0.327","187.3","1.241","188.5","NAN","NAN","NAN","NAN","NAN"],
    [1555074,"2026-05-23 20:00:00","56064","0.784","181.8","1.862","179.2","NAN","NAN","NAN","NAN","NAN"],
    [1555075,"2026-05-23 20:10:00","56065","0.6459999999999999","185.9","1.47","187.4","NAN","NAN","NAN","NAN","NAN"],
    [1555076,"2026-05-23 20:20:00","56066","0.846","185.3","1.699","189.7","NAN","NAN","NAN","NAN","NAN"],
    [1555077,"2026-05-23 20:30:00","56067","0.888","182.6","1.535","179.6","NAN","NAN","NAN","NAN","NAN"],
    [1555078,"2026-05-23 20:40:00","56068","0.861","185.9","1.731","184.6","NAN","NAN","NAN","NAN","NAN"],
    [1555079,"2026-05-23 20:50:00","56069","0.853","187.7","1.96","190.8","NAN","NAN","NAN","NAN","NAN"],
    [1555080,"2026-05-23 21:00:00","56070","0.9670000000000001","190.7","1.96","191.7","NAN","NAN","NAN","NAN","NAN"],
    [1555081,"2026-05-23 21:10:00","56071","0.773","189.5","1.568","192.5","NAN","NAN","NAN","NAN","NAN"],
    [1555082,"2026-05-23 21:20:00","56072","1.0170000000000001","192.8","1.862","192.6","NAN","NAN","NAN","NAN","NAN"],
    [1555083,"2026-05-23 21:30:00","56073","0.629","194.4","1.437","194.7","NAN","NAN","NAN","NAN","NAN"],
    [1555084,"2026-05-23 21:40:00","56074","0.348","195.9","1.209","195","NAN","NAN","NAN","NAN","NAN"],
    [1555085,"2026-05-23 21:50:00","56075","0.366","202.8","1.568","205","NAN","NAN","NAN","NAN","NAN"],
    [1555086,"2026-05-23 22:00:00","56076","0.526","208.5","1.731","210.2","NAN","NAN","NAN","NAN","NAN"],
    [1555087,"2026-05-23 22:10:00","56077","0.616","211.9","1.601","211.2","NAN","NAN","NAN","NAN","NAN"],
    [1555088,"2026-05-23 22:20:00","56078","0.35200000000000004","212.8","1.535","213.1","NAN","NAN","NAN","NAN","NAN"],
    [1555089,"2026-05-23 22:30:00","56079","0.335","213.4","1.143","213.8","NAN","NAN","NAN","NAN","NAN"],
    [1555090,"2026-05-23 22:40:00","56080","0.591","214.6","1.535","214.6","NAN","NAN","NAN","NAN","NAN"],
    [1555091,"2026-05-23 22:50:00","56081","0.46299999999999997","215.2","1.013","215.2","NAN","NAN","NAN","NAN","NAN"],
    [1555092,"2026-05-23 23:00:00","56082","0.152","215.3","0.686","215.4","NAN","NAN","NAN","NAN","NAN"],
    [1555093,"2026-05-23 23:10:00","56083","0.175","215.5","0.621","215.5","NAN","NAN","NAN","NAN","NAN"],
    [1555094,"2026-05-23 23:20:00","56084","0.243","215.6","0.751","215.6","NAN","NAN","NAN","NAN","NAN"],
    [1555095,"2026-05-23 23:30:00","56085","0.027999999999999997","215.6","0.327","215.6","NAN","NAN","NAN","NAN","NAN"],
    [1555096,"2026-05-23 23:40:00","56086","0.027999999999999997","215.6","0.294","215.6","NAN","NAN","NAN","NAN","NAN"],
    [1555097,"2026-05-23 23:50:00","56087","0.233","215.7","0.817","215.7","NAN","NAN","NAN","NAN","NAN"],
    [1555098,"2026-05-24 00:00:00","56088","0.622","216.1","1.47","216.4","NAN","NAN","NAN","NAN","NAN"],
    [1555099,"2026-05-24 00:10:00","56089","0.433","216.7","1.013","216.8","NAN","NAN","NAN","NAN","NAN"],
    [1555100,"2026-05-24 00:20:00","56090","0.562","217.0","1.176","216.9","NAN","NAN","NAN","NAN","NAN"],
    [1555101,"2026-05-24 00:30:00","56091","0.359","217.4","0.947","217.4","NAN","NAN","NAN","NAN","NAN"],
    [1555102,"2026-05-24 00:40:00","56092","0.381","217.6","1.045","217.6","NAN","NAN","NAN","NAN","NAN"],
    [1555103,"2026-05-24 00:50:00","56093","0.53","217.7","1.241","217.7","NAN","NAN","NAN","NAN","NAN"],
    [1555104,"2026-05-24 01:00:00","56094","0.29","218.0","0.882","217.8","NAN","NAN","NAN","NAN","NAN"],
    [1555105,"2026-05-24 01:10:00","56095","0.217","218.6","1.176","218.7","NAN","NAN","NAN","NAN","NAN"],
    [1555106,"2026-05-24 01:20:00","56096","0.718","218.9","1.633","219.4","NAN","NAN","NAN","NAN","NAN"],
    [1555107,"2026-05-24 01:30:00","56097","0.512","219.9","1.405","219.4","NAN","NAN","NAN","NAN","NAN"],
    [1555108,"2026-05-24 01:40:00","56098","0.617","225.3","1.633","221.9","NAN","NAN","NAN","NAN","NAN"],
    [1555109,"2026-05-24 01:50:00","56099","0.293","226.3","1.176","226.4","NAN","NAN","NAN","NAN","NAN"],
    [1555110,"2026-05-24 02:00:00","56100","0.782","234.4","1.47","229.7","NAN","NAN","NAN","NAN","NAN"],
    [1555111,"2026-05-24 02:10:00","56101","0.8320000000000001","237.1","1.731","237.4","NAN","NAN","NAN","NAN","NAN"],
    [1555112,"2026-05-24 02:20:00","56102","0.8690000000000001","238.1","1.797","238.7","NAN","NAN","NAN","NAN","NAN"],
    [1555113,"2026-05-24 02:30:00","56103","0.813","239.4","2.025","239.3","NAN","NAN","NAN","NAN","NAN"],
    [1555114,"2026-05-24 02:40:00","56104","0.619","239.5","1.143","239.5","NAN","NAN","NAN","NAN","NAN"],
    [1555115,"2026-05-24 02:50:00","56105","0.669","239.5","1.372","239.5","NAN","NAN","NAN","NAN","NAN"],
    [1555116,"2026-05-24 03:00:00","56106","0.35700000000000004","239.6","1.045","239.6","NAN","NAN","NAN","NAN","NAN"],
    [1555117,"2026-05-24 03:10:00","56107","0.41700000000000004","239.6","1.013","239.7","NAN","NAN","NAN","NAN","NAN"],
    [1555118,"2026-05-24 03:20:00","56108","0.267","239.7","0.849","239.7","NAN","NAN","NAN","NAN","NAN"],
    [1555119,"2026-05-24 03:30:00","56109","0.134","239.7","0.784","239.7","NAN","NAN","NAN","NAN","NAN"],
    [1555120,"2026-05-24 03:40:00","56110","0.402","239.8","0.882","239.8","NAN","NAN","NAN","NAN","NAN"],
    [1555121,"2026-05-24 03:50:00","56111","0.085","239.9","0.523","239.8","NAN","NAN","NAN","NAN","NAN"],
    [1555122,"2026-05-24 04:00:00","56112","0.147","239.9","0.49","239.9","NAN","NAN","NAN","NAN","NAN"],
    [1555123,"2026-05-24 04:10:00","56113","0.313","239.9","0.849","240","NAN","NAN","NAN","NAN","NAN"],
    [1555124,"2026-05-24 04:20:00","56114","0.201","240.0","0.784","240.1","NAN","NAN","NAN","NAN","NAN"],
    [1555125,"2026-05-24 04:30:00","56115","0.47100000000000003","240.2","1.143","240.2","NAN","NAN","NAN","NAN","NAN"],
    [1555126,"2026-05-24 04:40:00","56116","0.017","240.1","0.392","240.1","NAN","NAN","NAN","NAN","NAN"],
    [1555127,"2026-05-24 04:50:00","56117","0.085","240.1","0.588","240.1","NAN","NAN","NAN","NAN","NAN"],
    [1555128,"2026-05-24 05:00:00","56118","0.142","240.1","0.621","240.1","NAN","NAN","NAN","NAN","NAN"],
    [1555129,"2026-05-24 05:10:00","56119","0.7909999999999999","240.4","1.241","240.3","NAN","NAN","NAN","NAN","NAN"],
    [1555130,"2026-05-24 05:20:00","56120","0.532","240.7","1.405","240.8","NAN","NAN","NAN","NAN","NAN"],
    [1555131,"2026-05-24 05:30:00","56121","0.755","241.0","1.372","241","NAN","NAN","NAN","NAN","NAN"],
    [1555132,"2026-05-24 05:40:00","56122","0.561","241.3","1.241","241.2","NAN","NAN","NAN","NAN","NAN"],
    [1555133,"2026-05-24 05:50:00","56123","0.016","241.7","0.327","241.6","NAN","NAN","NAN","NAN","NAN"],
    [1555134,"2026-05-24 06:00:00","56124","0.054000000000000006","242.2","0.457","242","NAN","NAN","NAN","NAN","NAN"],
    [1555135,"2026-05-24 06:10:00","56125","0.076","242.8","0.588","242.5","NAN","NAN","NAN","NAN","NAN"],
    [1555136,"2026-05-24 06:20:00","56126","0.575","243.2","1.927","243.4","NAN","NAN","NAN","NAN","NAN"],
    [1555137,"2026-05-24 06:30:00","56127","0.616","243.7","1.437","243.7","NAN","NAN","NAN","NAN","NAN"],
    [1555138,"2026-05-24 06:40:00","56128","0.272","243.9","1.307","244","NAN","NAN","NAN","NAN","NAN"],
    [1555139,"2026-05-24 06:50:00","56129","0.455","244.1","1.535","244.1","NAN","NAN","NAN","NAN","NAN"],
    [1555140,"2026-05-24 07:00:00","56130","0.833","245.0","1.797","245.4","NAN","NAN","NAN","NAN","NAN"],
    [1555141,"2026-05-24 07:10:00","56131","0.304","245.9","1.339","245.5","NAN","NAN","NAN","NAN","NAN"],
    [1555142,"2026-05-24 07:20:00","56132","0.29100000000000004","246.3","1.013","246.3","NAN","NAN","NAN","NAN","NAN"],
    [1555143,"2026-05-24 07:30:00","56133","0.387","246.4","1.209","246.4","NAN","NAN","NAN","NAN","NAN"],
    [1555144,"2026-05-24 07:40:00","56134","0.057","243.5","0.947","243.4","NAN","NAN","NAN","NAN","NAN"],
    [1555145,"2026-05-24 07:50:00","56135","0.111","236.3","0.653","235","NAN","NAN","NAN","NAN","NAN"],
    [1555146,"2026-05-24 08:00:00","56136","1.06","146.6","1.993","145.7","NAN","NAN","NAN","NAN","NAN"],
    [1555147,"2026-05-24 08:10:00","56137","1.775","130.3","2.581","120.8","NAN","NAN","NAN","NAN","NAN"],
    [1555148,"2026-05-24 08:20:00","56138","2.117","116.8","2.94","116.1","NAN","NAN","NAN","NAN","NAN"],
    [1555149,"2026-05-24 08:30:00","56139","1.943","116.4","3.038","115.9","NAN","NAN","NAN","NAN","NAN"],
    [1555150,"2026-05-24 08:40:00","56140","2.1","120.2","3.397","117.1","NAN","NAN","NAN","NAN","NAN"],
    [1555151,"2026-05-24 08:50:00","56141","2.1109999999999998","114.6","3.169","115.6","NAN","NAN","NAN","NAN","NAN"],
    [1555152,"2026-05-24 09:00:00","56142","2.096","115.7","3.071","106.8","NAN","NAN","NAN","NAN","NAN"],
    [1555153,"2026-05-24 09:10:00","56143","2.655","107.1","3.92","101","NAN","NAN","NAN","NAN","NAN"],
    [1555154,"2026-05-24 09:20:00","56144","2.3209999999999997","115.3","3.92","116","NAN","NAN","NAN","NAN","NAN"],
    [1555155,"2026-05-24 09:30:00","56145","2.354","117.9","3.887","118.4","NAN","NAN","NAN","NAN","NAN"],
    [1555156,"2026-05-24 09:40:00","56146","2.476","123.2","3.887","125.1","NAN","NAN","NAN","NAN","NAN"],
    [1555157,"2026-05-24 09:50:00","56147","2.085","123.8","3.397","126.7","NAN","NAN","NAN","NAN","NAN"],
    [1555158,"2026-05-24 10:00:00","56148","1.955","129.5","3.397","130.8","NAN","NAN","NAN","NAN","NAN"],
    [1555159,"2026-05-24 10:10:00","56149","2.095","118.9","3.332","115.9","NAN","NAN","NAN","NAN","NAN"],
    [1555160,"2026-05-24 10:20:00","56150","2.323","117.1","3.332","121","NAN","NAN","NAN","NAN","NAN"],
    [1555161,"2026-05-24 10:30:00","56151","2.411","111.2","3.463","108.6","NAN","NAN","NAN","NAN","NAN"],
    [1555162,"2026-05-24 10:40:00","56152","2.325","107.9","3.463","100","NAN","NAN","NAN","NAN","NAN"],
    [1555163,"2026-05-24 10:50:00","56153","2.948","100.5","3.985","99.9","NAN","NAN","NAN","NAN","NAN"],
    [1555164,"2026-05-24 11:00:00","56154","2.151","106.0","3.659","107.8","NAN","NAN","NAN","NAN","NAN"],
    [1555165,"2026-05-24 11:10:00","56155","2.044","129.5","3.495","127.4","NAN","NAN","NAN","NAN","NAN"],
    [1555166,"2026-05-24 11:20:00","56156","1.825","141.7","2.809","147.2","NAN","NAN","NAN","NAN","NAN"],
    [1555167,"2026-05-24 11:30:00","56157","2.069","158.6","3.397","162","NAN","NAN","NAN","NAN","NAN"],
    [1555168,"2026-05-24 11:40:00","56158","1.89","176.1","3.495","172.1","NAN","NAN","NAN","NAN","NAN"],
    [1555169,"2026-05-24 11:50:00","56159","2.104","163.2","4.181","159.2","NAN","NAN","NAN","NAN","NAN"],
    [1555170,"2026-05-24 12:00:00","56160","1.8259999999999998","179.2","4.018","149.8","NAN","NAN","NAN","NAN","NAN"],
    [1555171,"2026-05-24 12:10:00","56161","2.005","162.0","3.887","164.2","NAN","NAN","NAN","NAN","NAN"],
    [1555172,"2026-05-24 12:20:00","56162","2.45","151.2","4.508","159.9","NAN","NAN","NAN","NAN","NAN"],
    [1555173,"2026-05-24 12:30:00","56163","2.2","165.9","4.214","149.6","NAN","NAN","NAN","NAN","NAN"],
    [1555174,"2026-05-24 12:40:00","56164","1.969","179.6","4.606","179.1","NAN","NAN","NAN","NAN","NAN"],
    [1555175,"2026-05-24 12:50:00","56165","2.06","165.0","3.92","164.1","NAN","NAN","NAN","NAN","NAN"],
    [1555176,"2026-05-24 13:00:00","56166","2.511","149.2","4.214","157","NAN","NAN","NAN","NAN","NAN"],
    [1555177,"2026-05-24 13:10:00","56167","2.707","177.6","4.443","223.8","NAN","NAN","NAN","NAN","NAN"],
    [1555178,"2026-05-24 13:20:00","56168","1.876","202.6","3.659","207","NAN","NAN","NAN","NAN","NAN"],
    [1555179,"2026-05-24 13:30:00","56169","2.273","158.1","3.887","169.3","NAN","NAN","NAN","NAN","NAN"],
    [1555180,"2026-05-24 13:40:00","56170","1.994","182.7","3.953","181.1","NAN","NAN","NAN","NAN","NAN"],
    [1555181,"2026-05-24 13:50:00","56171","2.5340000000000003","171.6","3.659","173.5","NAN","NAN","NAN","NAN","NAN"],
    [1555182,"2026-05-24 14:00:00","56172","2.613","155.6","4.312","172.8","NAN","NAN","NAN","NAN","NAN"],
    [1555183,"2026-05-24 14:10:00","56173","2.699","160.9","4.639","160.7","NAN","NAN","NAN","NAN","NAN"],
    [1555184,"2026-05-24 14:20:00","56174","2.347","182.6","4.247","167.9","NAN","NAN","NAN","NAN","NAN"],
    [1555185,"2026-05-24 14:30:00","56175","2.344","180.9","4.149","158.2","NAN","NAN","NAN","NAN","NAN"],
    [1555186,"2026-05-24 14:40:00","56176","2.5180000000000002","168.0","4.541","197.4","NAN","NAN","NAN","NAN","NAN"],
    [1555187,"2026-05-24 14:50:00","56177","2.397","176.2","4.149","154.3","NAN","NAN","NAN","NAN","NAN"],
    [1555188,"2026-05-24 15:00:00","56178","2.255","171.8","3.757","173.3","NAN","NAN","NAN","NAN","NAN"],
    [1555189,"2026-05-24 15:10:00","56179","2.24","173.2","3.789","159.4","NAN","NAN","NAN","NAN","NAN"],
    [1555190,"2026-05-24 15:20:00","56180","2.023","215.0","3.332","222.2","NAN","NAN","NAN","NAN","NAN"],
    [1555191,"2026-05-24 15:30:00","56181","1.902","210.6","3.789","213.2","NAN","NAN","NAN","NAN","NAN"],
    [1555192,"2026-05-24 15:40:00","56182","2.24","168.0","4.149","162.9","NAN","NAN","NAN","NAN","NAN"],
    [1555193,"2026-05-24 15:50:00","56183","2.78","166.7","4.443","174","NAN","NAN","NAN","NAN","NAN"],
    [1555194,"2026-05-24 16:00:00","56184","2.334","169.4","4.051","166.1","NAN","NAN","NAN","NAN","NAN"],
    [1555195,"2026-05-24 16:10:00","56185","2.5469999999999997","199.7","3.397","217.5","NAN","NAN","NAN","NAN","NAN"],
    [1555196,"2026-05-24 16:20:00","56186","1.8090000000000002","194.9","3.528","217.1","NAN","NAN","NAN","NAN","NAN"],
    [1555197,"2026-05-24 16:30:00","56187","1.9669999999999999","199.2","3.789","207.3","NAN","NAN","NAN","NAN","NAN"],
    [1555198,"2026-05-24 16:40:00","56188","2.259","213.0","3.267","217","NAN","NAN","NAN","NAN","NAN"],
    [1555199,"2026-05-24 16:50:00","56189","1.517","204.9","3.103","210.2","NAN","NAN","NAN","NAN","NAN"],
    [1555200,"2026-05-24 17:00:00","56190","1.591","193.0","2.809","180.2","NAN","NAN","NAN","NAN","NAN"],
    [1555201,"2026-05-24 17:10:00","56191","1.643","213.4","2.907","216.1","NAN","NAN","NAN","NAN","NAN"],
    [1555202,"2026-05-24 17:20:00","56192","1.141","200.6","2.319","209.1","NAN","NAN","NAN","NAN","NAN"],
    [1555203,"2026-05-24 17:30:00","56193","1.558","191.4","2.842","176.6","NAN","NAN","NAN","NAN","NAN"],
    [1555204,"2026-05-24 17:40:00","56194","1.452","175.3","2.711","177.8","NAN","NAN","NAN","NAN","NAN"],
    [1555205,"2026-05-24 17:50:00","56195","1.186","187.9","2.417","189.5","NAN","NAN","NAN","NAN","NAN"],
    [1555206,"2026-05-24 18:00:00","56196","1.213","175.9","2.058","171.9","NAN","NAN","NAN","NAN","NAN"],
    [1555207,"2026-05-24 18:10:00","56197","1.482","179.8","2.319","174.1","NAN","NAN","NAN","NAN","NAN"],
    [1555208,"2026-05-24 18:20:00","56198","1.335","177.9","2.319","167.7","NAN","NAN","NAN","NAN","NAN"],
    [1555209,"2026-05-24 18:30:00","56199","1.2690000000000001","193.7","2.156","195.4","NAN","NAN","NAN","NAN","NAN"],
    [1555210,"2026-05-24 18:40:00","56200","1.357","205.7","2.483","211.1","NAN","NAN","NAN","NAN","NAN"],
    [1555211,"2026-05-24 18:50:00","56201","1.6440000000000001","209.7","2.581","205.8","NAN","NAN","NAN","NAN","NAN"],
    [1555212,"2026-05-24 19:00:00","56202","1.4509999999999998","213.9","2.319","208.1","NAN","NAN","NAN","NAN","NAN"],
    [1555213,"2026-05-24 19:10:00","56203","1.032","219.7","2.287","218.7","NAN","NAN","NAN","NAN","NAN"],
    [1555214,"2026-05-24 19:20:00","56204","1.043","221.9","1.862","213.3","NAN","NAN","NAN","NAN","NAN"],
    [1555215,"2026-05-24 19:30:00","56205","0.9940000000000001","228.5","2.058","228.1","NAN","NAN","NAN","NAN","NAN"],
    [1555216,"2026-05-24 19:40:00","56206","0.77","229.7","1.568","230","NAN","NAN","NAN","NAN","NAN"],
    [1555217,"2026-05-24 19:50:00","56207","1.085","230.5","1.633","230.8","NAN","NAN","NAN","NAN","NAN"],
    [1555218,"2026-05-24 20:00:00","56208","1.012","231.4","1.797","231.4","NAN","NAN","NAN","NAN","NAN"],
    [1555219,"2026-05-24 20:10:00","56209","0.648","231.6","1.241","231.6","NAN","NAN","NAN","NAN","NAN"],
    [1555220,"2026-05-24 20:20:00","56210","0.79","231.6","1.764","232.2","NAN","NAN","NAN","NAN","NAN"],
    [1555221,"2026-05-24 20:30:00","56211","0.631","229.1","1.307","225","NAN","NAN","NAN","NAN","NAN"],
    [1555222,"2026-05-24 20:40:00","56212","0.754","232.6","1.47","233","NAN","NAN","NAN","NAN","NAN"],
    [1555223,"2026-05-24 20:50:00","56213","0.858","226.4","1.601","219.9","NAN","NAN","NAN","NAN","NAN"],
    [1555224,"2026-05-24 21:00:00","56214","1.188","216.3","1.862","214.4","NAN","NAN","NAN","NAN","NAN"],
    [1555225,"2026-05-24 21:10:00","56215","0.826","212.8","1.927","213.1","NAN","NAN","NAN","NAN","NAN"],
    [1555226,"2026-05-24 21:20:00","56216","0.43700000000000006","212.5","1.176","212.6","NAN","NAN","NAN","NAN","NAN"],
    [1555227,"2026-05-24 21:30:00","56217","0.273","215.9","0.849","212.5","NAN","NAN","NAN","NAN","NAN"],
    [1555228,"2026-05-24 21:40:00","56218","0.46799999999999997","225.5","1.143","223.7","NAN","NAN","NAN","NAN","NAN"],
    [1555229,"2026-05-24 21:50:00","56219","0.053","230.0","0.621","230.1","NAN","NAN","NAN","NAN","NAN"],
    [1555230,"2026-05-24 22:00:00","56220","0.162","230.3","0.719","230.3","NAN","NAN","NAN","NAN","NAN"],
    [1555231,"2026-05-24 22:10:00","56221","0.19899999999999998","230.4","0.686","230.4","NAN","NAN","NAN","NAN","NAN"],
    [1555232,"2026-05-24 22:20:00","56222","0.131","230.3","0.751","230.4","NAN","NAN","NAN","NAN","NAN"],
    [1555233,"2026-05-24 22:30:00","56223","0.248","230.7","0.817","230.4","NAN","NAN","NAN","NAN","NAN"],
    [1555234,"2026-05-24 22:40:00","56224","0.263","231.5","0.817","231.5","NAN","NAN","NAN","NAN","NAN"],
    [1555235,"2026-05-24 22:50:00","56225","0.002","229.3","0.196","229.3","NAN","NAN","NAN","NAN","NAN"],
    [1555236,"2026-05-24 23:00:00","56226","0.011000000000000001","229.2","0.359","229.2","NAN","NAN","NAN","NAN","NAN"],
    [1555237,"2026-05-24 23:10:00","56227","0.002","229.2","0.163","229.2","NAN","NAN","NAN","NAN","NAN"],
    [1555238,"2026-05-24 23:20:00","56228","0.057","231.7","0.327","231.7","NAN","NAN","NAN","NAN","NAN"],
    [1555239,"2026-05-24 23:30:00","56229","0.033","232.0","0.327","231.9","NAN","NAN","NAN","NAN","NAN"],
    [1555240,"2026-05-24 23:40:00","56230","0.188","232.2","0.653","232.1","NAN","NAN","NAN","NAN","NAN"],
    [1555241,"2026-05-24 23:50:00","56231","0.009000000000000001","232.2","0.425","232.2","NAN","NAN","NAN","NAN","NAN"],
    [1555242,"2026-05-25 00:00:00","56232","0.005","232.2","0.261","232.2","NAN","NAN","NAN","NAN","NAN"],
    [1555243,"2026-05-25 00:10:00","56233","0.016","232.3","0.261","232.2","NAN","NAN","NAN","NAN","NAN"],
    [1555244,"2026-05-25 00:20:00","56234","0.055","232.3","0.392","232.3","NAN","NAN","NAN","NAN","NAN"],
    [1555245,"2026-05-25 00:30:00","56235","0.059000000000000004","232.3","0.392","232.3","NAN","NAN","NAN","NAN","NAN"],
    [1555246,"2026-05-25 00:40:00","56236","0.004","232.3","0.196","232.3","NAN","NAN","NAN","NAN","NAN"],
    [1555247,"2026-05-25 00:50:00","56237","0.0","0.0","0","0","NAN","NAN","NAN","NAN","NAN"],
    [1555248,"2026-05-25 01:00:00","56238","0.0","0.0","0","0","NAN","NAN","NAN","NAN","NAN"],
    [1555249,"2026-05-25 01:10:00","56239","0.036000000000000004","232.3","0.457","232.4","NAN","NAN","NAN","NAN","NAN"],
    [1555250,"2026-05-25 01:20:00","56240","0.17300000000000001","232.4","0.751","232.4","NAN","NAN","NAN","NAN","NAN"],
    [1555251,"2026-05-25 01:30:00","56241","0.0","0.0","0","0","NAN","NAN","NAN","NAN","NAN"],
    [1555252,"2026-05-25 01:40:00","56242","0.005","232.4","0.261","232.4","NAN","NAN","NAN","NAN","NAN"],
    [1555253,"2026-05-25 01:50:00","56243","0.045","232.4","0.425","232.5","NAN","NAN","NAN","NAN","NAN"],
    [1555254,"2026-05-25 02:00:00","56244","0.003","232.4","0.229","232.4","NAN","NAN","NAN","NAN","NAN"],
    [1555255,"2026-05-25 02:10:00","56245","0.0","0.0","0","0","NAN","NAN","NAN","NAN","NAN"],
    [1555256,"2026-05-25 02:20:00","56246","0.004","232.5","0.196","232.5","NAN","NAN","NAN","NAN","NAN"],
    [1555257,"2026-05-25 02:30:00","56247","0.0","0.0","0","0","NAN","NAN","NAN","NAN","NAN"],
    [1555258,"2026-05-25 02:40:00","56248","0.006999999999999999","232.5","0.359","232.5","NAN","NAN","NAN","NAN","NAN"],
    [1555259,"2026-05-25 02:50:00","56249","0.0","0.0","0","0","NAN","NAN","NAN","NAN","NAN"],
    [1555260,"2026-05-25 03:00:00","56250","0.033","232.5","0.621","232.5","NAN","NAN","NAN","NAN","NAN"],
    [1555261,"2026-05-25 03:10:00","56251","0.18100000000000002","232.7","0.849","232.6","NAN","NAN","NAN","NAN","NAN"],
    [1555262,"2026-05-25 03:20:00","56252","0.0","0.0","0","0","NAN","NAN","NAN","NAN","NAN"],
    [1555263,"2026-05-25 03:30:00","56253","0.0","0.0","0","0","NAN","NAN","NAN","NAN","NAN"],
    [1555264,"2026-05-25 03:40:00","56254","0.004","232.7","0.229","232.7","NAN","NAN","NAN","NAN","NAN"],
    [1555265,"2026-05-25 03:50:00","56255","0.005","232.8","0.229","232.8","NAN","NAN","NAN","NAN","NAN"],
    [1555266,"2026-05-25 04:00:00","56256","0.324","233.0","1.045","233","NAN","NAN","NAN","NAN","NAN"],
    [1555267,"2026-05-25 04:10:00","56257","0.21899999999999997","233.0","1.013","233","NAN","NAN","NAN","NAN","NAN"],
    [1555268,"2026-05-25 04:20:00","56258","0.102","233.1","0.882","233.1","NAN","NAN","NAN","NAN","NAN"],
    [1555269,"2026-05-25 04:30:00","56259","0.048","233.2","0.49","233.2","NAN","NAN","NAN","NAN","NAN"],
    [1555270,"2026-05-25 04:40:00","56260","0.10800000000000001","233.3","0.588","233.3","NAN","NAN","NAN","NAN","NAN"],
    [1555271,"2026-05-25 04:50:00","56261","0.039","233.3","0.392","233.3","NAN","NAN","NAN","NAN","NAN"],
    [1555272,"2026-05-25 05:00:00","56262","0.001","233.2","0.098","233.3","NAN","NAN","NAN","NAN","NAN"],
    [1555273,"2026-05-25 05:10:00","56263","0.225","233.3","0.817","233.3","NAN","NAN","NAN","NAN","NAN"],
    [1555274,"2026-05-25 05:20:00","56264","0.141","233.6","0.588","233.4","NAN","NAN","NAN","NAN","NAN"],
    [1555275,"2026-05-25 05:30:00","56265","0.055","233.7","0.49","233.8","NAN","NAN","NAN","NAN","NAN"],
    [1555276,"2026-05-25 05:40:00","56266","0.013000000000000001","233.7","0.327","233.7","NAN","NAN","NAN","NAN","NAN"],
    [1555277,"2026-05-25 05:50:00","56267","0.002","233.7","0.163","233.7","NAN","NAN","NAN","NAN","NAN"],
    [1555278,"2026-05-25 06:00:00","56268","0.002","233.7","0.196","233.7","NAN","NAN","NAN","NAN","NAN"],
    [1555279,"2026-05-25 06:10:00","56269","0.009000000000000001","233.7","0.49","233.7","NAN","NAN","NAN","NAN","NAN"],
    [1555280,"2026-05-25 06:20:00","56270","0.037000000000000005","233.7","0.817","233.7","NAN","NAN","NAN","NAN","NAN"],
    [1555281,"2026-05-25 06:30:00","56271","1.506","90.1","3.038","66.27","NAN","NAN","NAN","NAN","NAN"],
    [1555282,"2026-05-25 06:40:00","56272","1.952","69.44","3.071","66.38","NAN","NAN","NAN","NAN","NAN"],
    [1555283,"2026-05-25 06:50:00","56273","2.15","68.76","3.43","71.28","NAN","NAN","NAN","NAN","NAN"],
    [1555284,"2026-05-25 07:00:00","56274","2.081","69.23","3.267","65.37","NAN","NAN","NAN","NAN","NAN"],
    [1555285,"2026-05-25 07:10:00","56275","2.202","74.33","3.626","71.57","NAN","NAN","NAN","NAN","NAN"],
    [1555286,"2026-05-25 07:20:00","56276","2.68","67.4","3.855","73.59","NAN","NAN","NAN","NAN","NAN"],
    [1555287,"2026-05-25 07:30:00","56277","2.685","68.13","4.181","65.39","NAN","NAN","NAN","NAN","NAN"],
    [1555288,"2026-05-25 07:40:00","56278","2.645","66.82","4.279","66.94","NAN","NAN","NAN","NAN","NAN"],
    [1555289,"2026-05-25 07:50:00","56279","2.094","67.98","3.299","62.15","NAN","NAN","NAN","NAN","NAN"],
    [1555290,"2026-05-25 08:00:00","56280","2.0980000000000003","71.94","3.855","71.79","NAN","NAN","NAN","NAN","NAN"],
    [1555291,"2026-05-25 08:10:00","56281","2.471","72.47","3.855","64.13","NAN","NAN","NAN","NAN","NAN"],
    [1555292,"2026-05-25 08:20:00","56282","2.352","69.45","3.593","67.5","NAN","NAN","NAN","NAN","NAN"],
    [1555293,"2026-05-25 08:30:00","56283","2.964","66.36","3.953","68","NAN","NAN","NAN","NAN","NAN"],
    [1555294,"2026-05-25 08:40:00","56284","2.255","65.86","3.528","70.04","NAN","NAN","NAN","NAN","NAN"],
    [1555295,"2026-05-25 08:50:00","56285","2.36","64.54","3.43","72.03","NAN","NAN","NAN","NAN","NAN"],
    [1555296,"2026-05-25 09:00:00","56286","2.104","66.24","3.136","69.17","NAN","NAN","NAN","NAN","NAN"],
    [1555297,"2026-05-25 09:10:00","56287","1.6569999999999998","65.68","2.907","64.31","NAN","NAN","NAN","NAN","NAN"],
    [1555298,"2026-05-25 09:20:00","56288","1.9","67.4","3.234","62.58","NAN","NAN","NAN","NAN","NAN"],
    [1555299,"2026-05-25 09:30:00","56289","1.8769999999999998","74.72","3.005","67.55","NAN","NAN","NAN","NAN","NAN"],
    [1555300,"2026-05-25 09:40:00","56290","2.12","71.7","3.43","68.64","NAN","NAN","NAN","NAN","NAN"],
    [1555301,"2026-05-25 09:50:00","56291","2.04","88.9","4.214","66.65","NAN","NAN","NAN","NAN","NAN"],
    [1555302,"2026-05-25 10:00:00","56292","2.846","87.8","4.704","100.8","NAN","NAN","NAN","NAN","NAN"],
    [1555303,"2026-05-25 10:10:00","56293","2.803","101.5","4.998","88.5","NAN","NAN","NAN","NAN","NAN"],
    [1555304,"2026-05-25 10:20:00","56294","3.235","99.3","5.194","96.9","NAN","NAN","NAN","NAN","NAN"],
    [1555305,"2026-05-25 10:30:00","56295","3.2460000000000004","95.9","5.455","94.8","NAN","NAN","NAN","NAN","NAN"],
    [1555306,"2026-05-25 10:40:00","56296","2.548","93.3","4.312","112.3","NAN","NAN","NAN","NAN","NAN"],
    [1555307,"2026-05-25 10:50:00","56297","2.995","97.4","5.586","98.8","NAN","NAN","NAN","NAN","NAN"],
    [1555308,"2026-05-25 11:00:00","56298","3.029","107.6","4.867","97.4","NAN","NAN","NAN","NAN","NAN"],
    [1555309,"2026-05-25 11:10:00","56299","3.1439999999999997","102.7","4.933","91.5","NAN","NAN","NAN","NAN","NAN"],
    [1555310,"2026-05-25 11:20:00","56300","2.6919999999999997","102.8","4.704","74.32","NAN","NAN","NAN","NAN","NAN"],
    [1555311,"2026-05-25 11:30:00","56301","3.378","87.5","4.802","88.1","NAN","NAN","NAN","NAN","NAN"],
    [1555312,"2026-05-25 11:40:00","56302","3.2230000000000003","78.23","5.357","65.42","NAN","NAN","NAN","NAN","NAN"],
    [1555313,"2026-05-25 11:50:00","56303","3.312","80.2","5.227","75.82","NAN","NAN","NAN","NAN","NAN"],
    [1555314,"2026-05-25 12:00:00","56304","2.78","83.2","5.031","57.28","NAN","NAN","NAN","NAN","NAN"],
    [1555315,"2026-05-25 12:10:00","56305","2.923","104.2","4.769","99.8","NAN","NAN","NAN","NAN","NAN"],
    [1555316,"2026-05-25 12:20:00","56306","2.8760000000000003","96.2","5.031","92.4","NAN","NAN","NAN","NAN","NAN"],
    [1555317,"2026-05-25 12:30:00","56307","2.815","96.3","4.377","98.5","NAN","NAN","NAN","NAN","NAN"],
    [1555318,"2026-05-25 12:40:00","56308","2.6689999999999996","100.5","4.377","101","NAN","NAN","NAN","NAN","NAN"],
    [1555319,"2026-05-25 12:50:00","56309","2.414","104.6","4.475","120.5","NAN","NAN","NAN","NAN","NAN"],
    [1555320,"2026-05-25 13:00:00","56310","2.6010000000000004","99.2","4.671","94.3","NAN","NAN","NAN","NAN","NAN"],
    [1555321,"2026-05-25 13:10:00","56311","3.303","80.7","5.488","84","NAN","NAN","NAN","NAN","NAN"],
    [1555322,"2026-05-25 13:20:00","56312","2.985","86.7","4.9","86.7","NAN","NAN","NAN","NAN","NAN"],
    [1555323,"2026-05-25 13:30:00","56313","3.023","83.0","4.9","94","NAN","NAN","NAN","NAN","NAN"],
    [1555324,"2026-05-25 13:40:00","56314","3.036","77.44","4.802","67.8","NAN","NAN","NAN","NAN","NAN"],
    [1555325,"2026-05-25 13:50:00","56315","2.864","80.4","4.671","100.3","NAN","NAN","NAN","NAN","NAN"],
    [1555326,"2026-05-25 14:00:00","56316","2.658","92.7","4.214","96.9","NAN","NAN","NAN","NAN","NAN"],
    [1555327,"2026-05-25 14:10:00","56317","2.6260000000000003","95.1","4.181","84.9","NAN","NAN","NAN","NAN","NAN"],
    [1555328,"2026-05-25 14:20:00","56318","2.412","93.3","3.953","96.8","NAN","NAN","NAN","NAN","NAN"],
    [1555329,"2026-05-25 14:30:00","56319","2.615","92.2","4.083","77.89","NAN","NAN","NAN","NAN","NAN"],
    [1555330,"2026-05-25 14:40:00","56320","2.386","98.8","4.345","101","NAN","NAN","NAN","NAN","NAN"],
    [1555331,"2026-05-25 14:50:00","56321","2.254","95.0","3.528","95.1","NAN","NAN","NAN","NAN","NAN"],
    [1555332,"2026-05-25 15:00:00","56322","2.044","97.2","3.43","88.6","NAN","NAN","NAN","NAN","NAN"],
    [1555333,"2026-05-25 15:10:00","56323","2.396","98.2","3.985","96.1","NAN","NAN","NAN","NAN","NAN"],
    [1555334,"2026-05-25 15:20:00","56324","2.524","89.3","4.051","92.3","NAN","NAN","NAN","NAN","NAN"],
    [1555335,"2026-05-25 15:30:00","56325","2.404","99.9","3.822","98.2","NAN","NAN","NAN","NAN","NAN"],
    [1555336,"2026-05-25 15:40:00","56326","2.3409999999999997","98.5","4.051","95.1","NAN","NAN","NAN","NAN","NAN"],
    [1555337,"2026-05-25 15:50:00","56327","2.374","105.3","3.691","100.1","NAN","NAN","NAN","NAN","NAN"],
    [1555338,"2026-05-25 16:00:00","56328","2.52","90.5","4.051","81.8","NAN","NAN","NAN","NAN","NAN"],
    [1555339,"2026-05-25 16:10:00","56329","2.266","92.8","3.822","93.5","NAN","NAN","NAN","NAN","NAN"],
    [1555340,"2026-05-25 16:20:00","56330","2.2230000000000003","97.4","4.051","102.1","NAN","NAN","NAN","NAN","NAN"],
    [1555341,"2026-05-25 16:30:00","56331","2.085","95.1","3.593","89.5","NAN","NAN","NAN","NAN","NAN"],
    [1555342,"2026-05-25 16:40:00","56332","2.106","98.8","3.789","98.5","NAN","NAN","NAN","NAN","NAN"],
    [1555343,"2026-05-25 16:50:00","56333","2.4930000000000003","94.1","4.214","95.6","NAN","NAN","NAN","NAN","NAN"],
    [1555344,"2026-05-25 17:00:00","56334","2.387","92.5","3.724","99.5","NAN","NAN","NAN","NAN","NAN"],
    [1555345,"2026-05-25 17:10:00","56335","1.618","86.8","3.234","71.91","NAN","NAN","NAN","NAN","NAN"],
    [1555346,"2026-05-25 17:20:00","56336","1.327","105.2","2.515","89.7","NAN","NAN","NAN","NAN","NAN"],
    [1555347,"2026-05-25 17:30:00","56337","0.866","98.3","1.895","99.2","NAN","NAN","NAN","NAN","NAN"],
    [1555348,"2026-05-25 17:40:00","56338","1.4680000000000002","84.0","2.483","67.29","NAN","NAN","NAN","NAN","NAN"],
    [1555349,"2026-05-25 17:50:00","56339","1.6540000000000001","68.39","2.777","60.96","NAN","NAN","NAN","NAN","NAN"],
    [1555350,"2026-05-25 18:00:00","56340","0.897","101.2","1.993","102.6","NAN","NAN","NAN","NAN","NAN"],
    [1555351,"2026-05-25 18:10:00","56341","0.6759999999999999","111.7","1.797","111.8","NAN","NAN","NAN","NAN","NAN"],
    [1555352,"2026-05-25 18:20:00","56342","1.367","106.0","1.993","108.7","NAN","NAN","NAN","NAN","NAN"],
    [1555353,"2026-05-25 18:30:00","56343","0.846","105.1","1.829","108.5","NAN","NAN","NAN","NAN","NAN"],
    [1555354,"2026-05-25 18:40:00","56344","0.9590000000000001","107.3","2.025","111.8","NAN","NAN","NAN","NAN","NAN"],
    [1555355,"2026-05-25 18:50:00","56345","1.079","113.0","2.156","112.6","NAN","NAN","NAN","NAN","NAN"],
    [1555356,"2026-05-25 19:00:00","56346","0.147","115.4","0.523","115.3","NAN","NAN","NAN","NAN","NAN"],
    [1555357,"2026-05-25 19:10:00","56347","0.19699999999999998","115.1","1.045","115.3","NAN","NAN","NAN","NAN","NAN"],
    [1555358,"2026-05-25 19:20:00","56348","0.053","113.4","0.719","112.1","NAN","NAN","NAN","NAN","NAN"],
    [1555359,"2026-05-25 19:30:00","56349","0.011000000000000001","115.6","0.229","115.6","NAN","NAN","NAN","NAN","NAN"],
    [1555360,"2026-05-25 19:40:00","56350","0.038","115.7","0.49","115.7","NAN","NAN","NAN","NAN","NAN"],
    [1555361,"2026-05-25 19:50:00","56351","0.11800000000000001","115.8","0.719","115.8","NAN","NAN","NAN","NAN","NAN"],
    [1555362,"2026-05-25 20:00:00","56352","0.5870000000000001","116.0","1.372","116","NAN","NAN","NAN","NAN","NAN"],
    [1555363,"2026-05-25 20:10:00","56353","0.847","112.8","1.535","109.8","NAN","NAN","NAN","NAN","NAN"],
    [1555364,"2026-05-25 20:20:00","56354","0.8370000000000001","114.1","1.437","115.2","NAN","NAN","NAN","NAN","NAN"],
    [1555365,"2026-05-25 20:30:00","56355","0.885","115.9","1.535","115.7","NAN","NAN","NAN","NAN","NAN"],
    [1555366,"2026-05-25 20:40:00","56356","0.52","116.3","1.111","116.2","NAN","NAN","NAN","NAN","NAN"],
    [1555367,"2026-05-25 20:50:00","56357","0.396","116.3","1.013","116.3","NAN","NAN","NAN","NAN","NAN"],
    [1555368,"2026-05-25 21:00:00","56358","0.429","116.2","1.176","116.3","NAN","NAN","NAN","NAN","NAN"],
    [1555369,"2026-05-25 21:10:00","56359","0.129","115.1","0.621","115.7","NAN","NAN","NAN","NAN","NAN"],
    [1555370,"2026-05-25 21:20:00","56360","0.019","116.5","0.261","116.5","NAN","NAN","NAN","NAN","NAN"],
    [1555371,"2026-05-25 21:30:00","56361","0.5","116.9","1.47","116.7","NAN","NAN","NAN","NAN","NAN"],
    [1555372,"2026-05-25 21:40:00","56362","0.759","117.5","1.437","117.1","NAN","NAN","NAN","NAN","NAN"],
    [1555373,"2026-05-25 21:50:00","56363","0.311","131.6","1.176","128","NAN","NAN","NAN","NAN","NAN"],
    [1555374,"2026-05-25 22:00:00","56364","0.228","138.7","0.588","138.5","NAN","NAN","NAN","NAN","NAN"],
    [1555375,"2026-05-25 22:10:00","56365","0.09699999999999999","139.3","0.588","139.1","NAN","NAN","NAN","NAN","NAN"],
    [1555376,"2026-05-25 22:20:00","56366","0.135","141.2","0.621","140.4","NAN","NAN","NAN","NAN","NAN"],
    [1555377,"2026-05-25 22:30:00","56367","0.14400000000000002","145.9","0.751","146.1","NAN","NAN","NAN","NAN","NAN"],
    [1555378,"2026-05-25 22:40:00","56368","0.153","183.4","1.013","195.3","NAN","NAN","NAN","NAN","NAN"],
    [1555379,"2026-05-25 22:50:00","56369","1.288","218.0","2.483","225.8","NAN","NAN","NAN","NAN","NAN"],
    [1555380,"2026-05-25 23:00:00","56370","1.6469999999999998","238.7","2.287","237.5","NAN","NAN","NAN","NAN","NAN"],
    [1555381,"2026-05-25 23:10:00","56371","1.3769999999999998","240.0","2.287","240.3","NAN","NAN","NAN","NAN","NAN"],
    [1555382,"2026-05-25 23:20:00","56372","1.2309999999999999","241.8","2.123","241.5","NAN","NAN","NAN","NAN","NAN"],
    [1555383,"2026-05-25 23:30:00","56373","0.594","242.2","1.143","242.1","NAN","NAN","NAN","NAN","NAN"],
    [1555384,"2026-05-25 23:40:00","56374","0.816","242.7","1.633","243.6","NAN","NAN","NAN","NAN","NAN"],
    [1555385,"2026-05-25 23:50:00","56375","1.6480000000000001","252.2","2.548","256.6","NAN","NAN","NAN","NAN","NAN"],
    [1555386,"2026-05-26 00:00:00","56376","1.52","262.3","2.254","261","NAN","NAN","NAN","NAN","NAN"],
    [1555387,"2026-05-26 00:10:00","56377","1.5419999999999998","266.7","2.319","267.4","NAN","NAN","NAN","NAN","NAN"],
    [1555388,"2026-05-26 00:20:00","56378","0.963","267.4","1.862","268","NAN","NAN","NAN","NAN","NAN"],
    [1555389,"2026-05-26 00:30:00","56379","0.42700000000000005","266.2","1.209","268.3","NAN","NAN","NAN","NAN","NAN"],
    [1555390,"2026-05-26 00:40:00","56380","0.597","267.2","1.111","268","NAN","NAN","NAN","NAN","NAN"],
    [1555391,"2026-05-26 00:50:00","56381","0.4","268.2","0.915","268.3","NAN","NAN","NAN","NAN","NAN"],
    [1555392,"2026-05-26 01:00:00","56382","0.442","268.2","0.98","268.3","NAN","NAN","NAN","NAN","NAN"],
    [1555393,"2026-05-26 01:10:00","56383","0.47","268.2","0.784","268.2","NAN","NAN","NAN","NAN","NAN"],
    [1555394,"2026-05-26 01:20:00","56384","0.528","268.3","1.307","268.4","NAN","NAN","NAN","NAN","NAN"],
    [1555395,"2026-05-26 01:30:00","56385","1.1909999999999998","268.7","2.091","268.7","NAN","NAN","NAN","NAN","NAN"],
    [1555396,"2026-05-26 01:40:00","56386","1.21","269.2","1.764","269","NAN","NAN","NAN","NAN","NAN"],
    [1555397,"2026-05-26 01:50:00","56387","1.246","269.8","2.058","269.8","NAN","NAN","NAN","NAN","NAN"],
    [1555398,"2026-05-26 02:00:00","56388","1.2919999999999998","270.3","2.091","270.3","NAN","NAN","NAN","NAN","NAN"],
    [1555399,"2026-05-26 02:10:00","56389","1.54","270.8","2.221","271.6","NAN","NAN","NAN","NAN","NAN"],
    [1555400,"2026-05-26 02:20:00","56390","1.6780000000000002","271.7","2.254","272.2","NAN","NAN","NAN","NAN","NAN"],
    [1555401,"2026-05-26 02:30:00","56391","1.456","271.9","2.679","270.1","NAN","NAN","NAN","NAN","NAN"],
    [1555402,"2026-05-26 02:40:00","56392","1.27","272.9","2.613","267.1","NAN","NAN","NAN","NAN","NAN"],
    [1555403,"2026-05-26 02:50:00","56393","1.253","274.5","2.123","275.3","NAN","NAN","NAN","NAN","NAN"],
    [1555404,"2026-05-26 03:00:00","56394","1.2990000000000002","276.0","2.189","275.7","NAN","NAN","NAN","NAN","NAN"],
    [1555405,"2026-05-26 03:10:00","56395","1.568","275.5","2.189","274.8","NAN","NAN","NAN","NAN","NAN"],
    [1555406,"2026-05-26 03:20:00","56396","1.358","276.3","2.254","276.6","NAN","NAN","NAN","NAN","NAN"],
    [1555407,"2026-05-26 03:30:00","56397","0.902","277.6","1.993","278.4","NAN","NAN","NAN","NAN","NAN"],
    [1555408,"2026-05-26 03:40:00","56398","0.523","276.9","1.339","278.6","NAN","NAN","NAN","NAN","NAN"],
    [1555409,"2026-05-26 03:50:00","56399","0.478","277.9","1.111","278.3","NAN","NAN","NAN","NAN","NAN"],
    [1555410,"2026-05-26 04:00:00","56400","0.426","278.3","0.98","278.5","NAN","NAN","NAN","NAN","NAN"],
    [1555411,"2026-05-26 04:10:00","56401","1.111","276.5","1.764","270.6","NAN","NAN","NAN","NAN","NAN"],
    [1555412,"2026-05-26 04:20:00","56402","1.599","278.2","2.646","281.9","NAN","NAN","NAN","NAN","NAN"],
    [1555413,"2026-05-26 04:30:00","56403","1.3119999999999998","282.2","2.385","283.5","NAN","NAN","NAN","NAN","NAN"],
    [1555414,"2026-05-26 04:40:00","56404","0.9940000000000001","283.6","2.319","285.2","NAN","NAN","NAN","NAN","NAN"],
    [1555415,"2026-05-26 04:50:00","56405","0.444","284.7","1.829","285.5","NAN","NAN","NAN","NAN","NAN"],
    [1555416,"2026-05-26 05:00:00","56406","0.48100000000000004","284.8","1.47","286","NAN","NAN","NAN","NAN","NAN"],
    [1555417,"2026-05-26 05:10:00","56407","1.393","273.6","2.123","282","NAN","NAN","NAN","NAN","NAN"],
    [1555418,"2026-05-26 05:20:00","56408","1.784","275.2","2.679","280.7","NAN","NAN","NAN","NAN","NAN"],
    [1555419,"2026-05-26 05:30:00","56409","1.465","278.6","2.483","270.1","NAN","NAN","NAN","NAN","NAN"],
    [1555420,"2026-05-26 05:40:00","56410","1.597","279.2","2.646","285.1","NAN","NAN","NAN","NAN","NAN"],
    [1555421,"2026-05-26 05:50:00","56411","1.906","280.9","2.875","288.3","NAN","NAN","NAN","NAN","NAN"],
    [1555422,"2026-05-26 06:00:00","56412","2.208","279.0","3.561","268.5","NAN","NAN","NAN","NAN","NAN"],
    [1555423,"2026-05-26 06:10:00","56413","2.279","291.9","3.789","289.8","NAN","NAN","NAN","NAN","NAN"],
    [1555424,"2026-05-26 06:20:00","56414","1.8230000000000002","291.9","3.071","288.5","NAN","NAN","NAN","NAN","NAN"],
    [1555425,"2026-05-26 06:30:00","56415","1.7209999999999999","287.7","2.711","277.4","NAN","NAN","NAN","NAN","NAN"],
    [1555426,"2026-05-26 06:40:00","56416","2.046","283.3","3.071","292.8","NAN","NAN","NAN","NAN","NAN"],
    [1555427,"2026-05-26 06:50:00","56417","1.5019999999999998","281.1","2.711","273.1","NAN","NAN","NAN","NAN","NAN"],
    [1555428,"2026-05-26 07:00:00","56418","1.011","281.0","2.515","282.3","NAN","NAN","NAN","NAN","NAN"],
    [1555429,"2026-05-26 07:10:00","56419","0.486","279.2","1.437","272","NAN","NAN","NAN","NAN","NAN"],
    [1555430,"2026-05-26 07:20:00","56420","0.18899999999999997","292.2","0.915","291.6","NAN","NAN","NAN","NAN","NAN"],
    [1555431,"2026-05-26 07:30:00","56421","0.015","290.8","0.621","290.3","NAN","NAN","NAN","NAN","NAN"],
    [1555432,"2026-05-26 07:40:00","56422","0.011000000000000001","272.1","0.425","271.9","NAN","NAN","NAN","NAN","NAN"],
    [1555433,"2026-05-26 07:50:00","56423","0.21","273.5","0.817","275.3","NAN","NAN","NAN","NAN","NAN"],
    [1555434,"2026-05-26 08:00:00","56424","0.17","249.4","1.274","217.4","NAN","NAN","NAN","NAN","NAN"],
    [1555435,"2026-05-26 08:10:00","56425","0.603","223.6","1.993","225.4","NAN","NAN","NAN","NAN","NAN"],
    [1555436,"2026-05-26 08:20:00","56426","0.322","208.6","1.307","197.2","NAN","NAN","NAN","NAN","NAN"],
    [1555437,"2026-05-26 08:30:00","56427","0.953","174.4","2.777","142.4","NAN","NAN","NAN","NAN","NAN"],
    [1555438,"2026-05-26 08:40:00","56428","1.94","138.1","3.201","133.2","NAN","NAN","NAN","NAN","NAN"],
    [1555439,"2026-05-26 08:50:00","56429","2.303","118.3","3.43","95.6","NAN","NAN","NAN","NAN","NAN"],
    [1555440,"2026-05-26 09:00:00","56430","2.239","170.6","4.051","108.9","NAN","NAN","NAN","NAN","NAN"],
    [1555441,"2026-05-26 09:10:00","56431","2.819","183.5","4.573","169.2","NAN","NAN","NAN","NAN","NAN"],
    [1555442,"2026-05-26 09:20:00","56432","2.372","187.7","4.018","169.5","NAN","NAN","NAN","NAN","NAN"],
    [1555443,"2026-05-26 09:30:00","56433","2.8089999999999997","188.8","4.737","215.9","NAN","NAN","NAN","NAN","NAN"],
    [1555444,"2026-05-26 09:40:00","56434","3.077","174.4","4.508","167.2","NAN","NAN","NAN","NAN","NAN"],
    [1555445,"2026-05-26 09:50:00","56435","2.947","185.3","4.639","176","NAN","NAN","NAN","NAN","NAN"],
    [1555446,"2026-05-26 10:00:00","56436","2.931","181.0","4.737","167.8","NAN","NAN","NAN","NAN","NAN"],
    [1555447,"2026-05-26 10:10:00","56437","2.858","198.2","4.867","216","NAN","NAN","NAN","NAN","NAN"],
    [1555448,"2026-05-26 10:20:00","56438","2.8080000000000003","198.7","5.063","211.6","NAN","NAN","NAN","NAN","NAN"],
    [1555449,"2026-05-26 10:30:00","56439","2.903","182.9","4.802","181.9","NAN","NAN","NAN","NAN","NAN"],
    [1555450,"2026-05-26 10:40:00","56440","2.821","191.8","4.769","218.9","NAN","NAN","NAN","NAN","NAN"],
    [1555451,"2026-05-26 10:50:00","56441","3.178","187.0","4.965","173.9","NAN","NAN","NAN","NAN","NAN"],
    [1555452,"2026-05-26 11:00:00","56442","2.662","192.5","5.031","173","NAN","NAN","NAN","NAN","NAN"],
    [1555453,"2026-05-26 11:10:00","56443","2.9989999999999997","198.9","4.965","211","NAN","NAN","NAN","NAN","NAN"],
    [1555454,"2026-05-26 11:20:00","56444","3.115","194.7","4.639","213.2","NAN","NAN","NAN","NAN","NAN"],
    [1555455,"2026-05-26 11:30:00","56445","3.123","181.2","4.965","173.4","NAN","NAN","NAN","NAN","NAN"],
    [1555456,"2026-05-26 11:40:00","56446","2.86","194.4","5.292","210.8","NAN","NAN","NAN","NAN","NAN"],
    [1555457,"2026-05-26 11:50:00","56447","2.883","193.6","5.161","209.4","NAN","NAN","NAN","NAN","NAN"],
    [1555458,"2026-05-26 12:00:00","56448","3.4819999999999998","182.3","5.717","154.3","NAN","NAN","NAN","NAN","NAN"],
    [1555459,"2026-05-26 12:10:00","56449","2.7880000000000003","192.1","5.031","216","NAN","NAN","NAN","NAN","NAN"],
    [1555460,"2026-05-26 12:20:00","56450","2.9560000000000004","184.8","5.031","166.8","NAN","NAN","NAN","NAN","NAN"],
    [1555461,"2026-05-26 12:30:00","56451","3.158","201.4","5.063","205.8","NAN","NAN","NAN","NAN","NAN"],
    [1555462,"2026-05-26 12:40:00","56452","3.966","207.6","6.043","204.7","NAN","NAN","NAN","NAN","NAN"],
    [1555463,"2026-05-26 12:50:00","56453","3.835","222.4","5.325","207.8","NAN","NAN","NAN","NAN","NAN"],
    [1555464,"2026-05-26 13:00:00","56454","3.522","214.7","6.043","200.2","NAN","NAN","NAN","NAN","NAN"],
    [1555465,"2026-05-26 13:10:00","56455","3.6839999999999997","204.0","5.684","207.6","NAN","NAN","NAN","NAN","NAN"],
    [1555466,"2026-05-26 13:20:00","56456","3.657","206.1","5.847","218.3","NAN","NAN","NAN","NAN","NAN"],
    [1555467,"2026-05-26 13:30:00","56457","3.9789999999999996","206.1","6.076","206.1","NAN","NAN","NAN","NAN","NAN"],
    [1555468,"2026-05-26 13:40:00","56458","4.285","210.0","5.945","214.8","NAN","NAN","NAN","NAN","NAN"],
    [1555469,"2026-05-26 13:50:00","56459","3.303","213.8","5.619","210.9","NAN","NAN","NAN","NAN","NAN"],
    [1555470,"2026-05-26 14:00:00","56460","3.635","211.2","6.566","215.3","NAN","NAN","NAN","NAN","NAN"],
    [1555471,"2026-05-26 14:10:00","56461","4.031000000000001","206.1","5.815","216.9","NAN","NAN","NAN","NAN","NAN"],
    [1555472,"2026-05-26 14:20:00","56462","4.013999999999999","209.6","5.782","206.8","NAN","NAN","NAN","NAN","NAN"],
    [1555473,"2026-05-26 14:30:00","56463","4.038","220.9","6.109","213.4","NAN","NAN","NAN","NAN","NAN"],
    [1555474,"2026-05-26 14:40:00","56464","3.3339999999999996","227.5","5.619","243.9","NAN","NAN","NAN","NAN","NAN"],
    [1555475,"2026-05-26 14:50:00","56465","2.74","209.7","5.325","220","NAN","NAN","NAN","NAN","NAN"],
    [1555476,"2026-05-26 15:00:00","56466","3.661","211.9","6.533","204.3","NAN","NAN","NAN","NAN","NAN"],
    [1555477,"2026-05-26 15:10:00","56467","3.898","219.5","5.88","254.5","NAN","NAN","NAN","NAN","NAN"],
    [1555478,"2026-05-26 15:20:00","56468","3.4810000000000003","220.6","5.292","226.5","NAN","NAN","NAN","NAN","NAN"],
    [1555479,"2026-05-26 15:30:00","56469","3.787","216.4","5.815","210.2","NAN","NAN","NAN","NAN","NAN"],
    [1555480,"2026-05-26 15:40:00","56470","4.322","214.3","6.827","221","NAN","NAN","NAN","NAN","NAN"],
    [1555481,"2026-05-26 15:50:00","56471","2.9389999999999996","217.2","6.403","205.8","NAN","NAN","NAN","NAN","NAN"],
    [1555482,"2026-05-26 16:00:00","56472","3.3289999999999997","213.7","5.651","220.4","NAN","NAN","NAN","NAN","NAN"],
    [1555483,"2026-05-26 16:10:00","56473","2.838","210.1","4.998","216.5","NAN","NAN","NAN","NAN","NAN"],
    [1555484,"2026-05-26 16:20:00","56474","3.3569999999999998","214.1","6.468","209.4","NAN","NAN","NAN","NAN","NAN"],
    [1555485,"2026-05-26 16:30:00","56475","2.478","221.2","4.181","201.8","NAN","NAN","NAN","NAN","NAN"],
    [1555486,"2026-05-26 16:40:00","56476","3.074","217.2","5.357","214.6","NAN","NAN","NAN","NAN","NAN"],
    [1555487,"2026-05-26 16:50:00","56477","3.9389999999999996","210.3","5.847","204.1","NAN","NAN","NAN","NAN","NAN"],
    [1555488,"2026-05-26 17:00:00","56478","3.844","215.1","6.076","205.5","NAN","NAN","NAN","NAN","NAN"],
    [1555489,"2026-05-26 17:10:00","56479","2.613","215.5","4.867","210.8","NAN","NAN","NAN","NAN","NAN"],
    [1555490,"2026-05-26 17:20:00","56480","2.49","207.4","4.279","211.5","NAN","NAN","NAN","NAN","NAN"],
    [1555491,"2026-05-26 17:30:00","56481","2.563","209.3","4.606","214.8","NAN","NAN","NAN","NAN","NAN"],
    [1555492,"2026-05-26 17:40:00","56482","2.5069999999999997","206.2","4.41","228.4","NAN","NAN","NAN","NAN","NAN"],
    [1555493,"2026-05-26 17:50:00","56483","2.92","207.3","4.606","213.9","NAN","NAN","NAN","NAN","NAN"],
    [1555494,"2026-05-26 18:00:00","56484","3.301","212.3","5.259","213.7","NAN","NAN","NAN","NAN","NAN"],
    [1555495,"2026-05-26 18:10:00","56485","3.0610000000000004","211.2","4.965","208.4","NAN","NAN","NAN","NAN","NAN"],
    [1555496,"2026-05-26 18:20:00","56486","3.1060000000000003","205.9","5.129","206","NAN","NAN","NAN","NAN","NAN"],
    [1555497,"2026-05-26 18:30:00","56487","3.0180000000000002","207.2","4.671","213.5","NAN","NAN","NAN","NAN","NAN"],
    [1555498,"2026-05-26 18:40:00","56488","3.2560000000000002","208.9","4.737","204.7","NAN","NAN","NAN","NAN","NAN"],
    [1555499,"2026-05-26 18:50:00","56489","3.014","211.7","4.541","212.5","NAN","NAN","NAN","NAN","NAN"],
    [1555500,"2026-05-26 19:00:00","56490","3.014","209.1","4.9","208.4","NAN","NAN","NAN","NAN","NAN"],
    [1555501,"2026-05-26 19:10:00","56491","2.559","211.3","3.985","221.8","NAN","NAN","NAN","NAN","NAN"],
    [1555502,"2026-05-26 19:20:00","56492","2.61","213.3","4.149","205","NAN","NAN","NAN","NAN","NAN"],
    [1555503,"2026-05-26 19:30:00","56493","2.659","209.1","4.41","207","NAN","NAN","NAN","NAN","NAN"],
    [1555504,"2026-05-26 19:40:00","56494","2.573","210.8","3.92","209","NAN","NAN","NAN","NAN","NAN"],
    [1555505,"2026-05-26 19:50:00","56495","2.22","212.9","3.953","204.8","NAN","NAN","NAN","NAN","NAN"],
    [1555506,"2026-05-26 20:00:00","56496","2.329","208.2","3.855","200.9","NAN","NAN","NAN","NAN","NAN"],
    [1555507,"2026-05-26 20:10:00","56497","2.597","206.8","3.887","203","NAN","NAN","NAN","NAN","NAN"],
    [1555508,"2026-05-26 20:20:00","56498","2.5860000000000003","211.4","3.953","204.5","NAN","NAN","NAN","NAN","NAN"],
    [1555509,"2026-05-26 20:30:00","56499","2.785","217.8","4.018","222.9","NAN","NAN","NAN","NAN","NAN"],
    [1555510,"2026-05-26 20:40:00","56500","2.3","213.9","3.495","211.3","NAN","NAN","NAN","NAN","NAN"],
    [1555511,"2026-05-26 20:50:00","56501","2.349","218.8","4.247","226","NAN","NAN","NAN","NAN","NAN"],
    [1555512,"2026-05-26 21:00:00","56502","1.818","223.0","3.561","219.9","NAN","NAN","NAN","NAN","NAN"],
    [1555513,"2026-05-26 21:10:00","56503","1.7009999999999998","233.4","3.267","246","NAN","NAN","NAN","NAN","NAN"],
    [1555514,"2026-05-26 21:20:00","56504","1.595","234.6","3.365","245.2","NAN","NAN","NAN","NAN","NAN"],
    [1555515,"2026-05-26 21:30:00","56505","1.689","228.9","3.201","213.8","NAN","NAN","NAN","NAN","NAN"],
    [1555516,"2026-05-26 21:40:00","56506","1.6340000000000001","241.3","2.94","244.5","NAN","NAN","NAN","NAN","NAN"],
    [1555517,"2026-05-26 21:50:00","56507","1.7409999999999999","246.3","3.495","248.5","NAN","NAN","NAN","NAN","NAN"],
    [1555518,"2026-05-26 22:00:00","56508","1.578","246.0","2.711","249.3","NAN","NAN","NAN","NAN","NAN"],
    [1555519,"2026-05-26 22:10:00","56509","1.7819999999999998","251.1","3.071","251.2","NAN","NAN","NAN","NAN","NAN"],
    [1555520,"2026-05-26 22:20:00","56510","1.709","249.9","2.711","254.2","NAN","NAN","NAN","NAN","NAN"],
    [1555521,"2026-05-26 22:30:00","56511","1.982","252.9","3.005","249.9","NAN","NAN","NAN","NAN","NAN"],
    [1555522,"2026-05-26 22:40:00","56512","2.201","249.8","3.659","249.7","NAN","NAN","NAN","NAN","NAN"],
    [1555523,"2026-05-26 22:50:00","56513","2.099","252.0","3.103","249.1","NAN","NAN","NAN","NAN","NAN"],
    [1555524,"2026-05-26 23:00:00","56514","2.484","251.7","3.463","247.6","NAN","NAN","NAN","NAN","NAN"],
    [1555525,"2026-05-26 23:10:00","56515","2.475","248.0","3.397","249","NAN","NAN","NAN","NAN","NAN"],
    [1555526,"2026-05-26 23:20:00","56516","2.3930000000000002","250.2","3.43","245.5","NAN","NAN","NAN","NAN","NAN"],
    [1555527,"2026-05-26 23:30:00","56517","2.22","252.5","3.495","247.8","NAN","NAN","NAN","NAN","NAN"],
    [1555528,"2026-05-26 23:40:00","56518","1.9609999999999999","252.0","2.94","251.1","NAN","NAN","NAN","NAN","NAN"],
    [1555529,"2026-05-26 23:50:00","56519","1.3780000000000001","254.2","2.483","254.5","NAN","NAN","NAN","NAN","NAN"],
    [1555530,"2026-05-27 00:00:00","56520","1.48","258.6","2.319","258.7","NAN","NAN","NAN","NAN","NAN"],
    [1555531,"2026-05-27 00:10:00","56521","1.178","259.0","1.797","258.8","NAN","NAN","NAN","NAN","NAN"],
    [1555532,"2026-05-27 00:20:00","56522","1.171","259.0","2.319","259.6","NAN","NAN","NAN","NAN","NAN"],
    [1555533,"2026-05-27 00:30:00","56523","1.6980000000000002","253.8","2.287","256.5","NAN","NAN","NAN","NAN","NAN"],
    [1555534,"2026-05-27 00:40:00","56524","1.7309999999999999","259.2","2.352","255.4","NAN","NAN","NAN","NAN","NAN"],
    [1555535,"2026-05-27 00:50:00","56525","1.6980000000000002","259.9","2.973","258.7","NAN","NAN","NAN","NAN","NAN"],
    [1555536,"2026-05-27 01:00:00","56526","1.4709999999999999","257.9","1.96","261.2","NAN","NAN","NAN","NAN","NAN"],
    [1555537,"2026-05-27 01:10:00","56527","1.12","254.4","1.927","257","NAN","NAN","NAN","NAN","NAN"],
    [1555538,"2026-05-27 01:20:00","56528","1.117","251.8","1.568","251.6","NAN","NAN","NAN","NAN","NAN"],
    [1555539,"2026-05-27 01:30:00","56529","0.97","250.0","1.503","249.1","NAN","NAN","NAN","NAN","NAN"],
    [1555540,"2026-05-27 01:40:00","56530","0.996","252.5","1.797","255.1","NAN","NAN","NAN","NAN","NAN"],
    [1555541,"2026-05-27 01:50:00","56531","0.988","250.6","1.437","249.5","NAN","NAN","NAN","NAN","NAN"],
    [1555542,"2026-05-27 02:00:00","56532","1.4580000000000002","248.0","2.189","247","NAN","NAN","NAN","NAN","NAN"],
    [1555543,"2026-05-27 02:10:00","56533","1.207","257.9","2.091","256.6","NAN","NAN","NAN","NAN","NAN"],
    [1555544,"2026-05-27 02:20:00","56534","1.288","262.3","1.96","261.6","NAN","NAN","NAN","NAN","NAN"],
    [1555545,"2026-05-27 02:30:00","56535","1.131","261.0","1.764","262.5","NAN","NAN","NAN","NAN","NAN"],
    [1555546,"2026-05-27 02:40:00","56536","1.149","254.2","1.993","262","NAN","NAN","NAN","NAN","NAN"],
    [1555547,"2026-05-27 02:50:00","56537","1.393","256.4","2.352","256","NAN","NAN","NAN","NAN","NAN"],
    [1555548,"2026-05-27 03:00:00","56538","1.2670000000000001","259.5","1.797","253.4","NAN","NAN","NAN","NAN","NAN"],
    [1555549,"2026-05-27 03:10:00","56539","1.295","255.3","1.927","261.3","NAN","NAN","NAN","NAN","NAN"],
    [1555550,"2026-05-27 03:20:00","56540","1.617","261.1","2.417","256.5","NAN","NAN","NAN","NAN","NAN"],
    [1555551,"2026-05-27 03:30:00","56541","1.508","260.3","2.515","262","NAN","NAN","NAN","NAN","NAN"],
    [1555552,"2026-05-27 03:40:00","56542","1.6980000000000002","260.6","2.581","264.3","NAN","NAN","NAN","NAN","NAN"],
    [1555553,"2026-05-27 03:50:00","56543","1.67","264.4","2.711","265.9","NAN","NAN","NAN","NAN","NAN"],
    [1555554,"2026-05-27 04:00:00","56544","1.295","265.0","2.287","266.2","NAN","NAN","NAN","NAN","NAN"],
    [1555555,"2026-05-27 04:10:00","56545","1.6969999999999998","261.4","3.005","254.7","NAN","NAN","NAN","NAN","NAN"],
    [1555556,"2026-05-27 04:20:00","56546","1.821","264.9","3.103","270.7","NAN","NAN","NAN","NAN","NAN"],
    [1555557,"2026-05-27 04:30:00","56547","1.98","266.2","3.234","266.8","NAN","NAN","NAN","NAN","NAN"],
    [1555558,"2026-05-27 04:40:00","56548","1.976","267.9","3.234","277.1","NAN","NAN","NAN","NAN","NAN"],
    [1555559,"2026-05-27 04:50:00","56549","1.8419999999999999","269.2","2.777","268.4","NAN","NAN","NAN","NAN","NAN"],
    [1555560,"2026-05-27 05:00:00","56550","1.929","269.0","3.299","273.1","NAN","NAN","NAN","NAN","NAN"],
    [1555561,"2026-05-27 05:10:00","56551","2.309","273.8","3.299","271.8","NAN","NAN","NAN","NAN","NAN"],
    [1555562,"2026-05-27 05:20:00","56552","2.209","276.6","3.561","280.9","NAN","NAN","NAN","NAN","NAN"],
    [1555563,"2026-05-27 05:30:00","56553","2.441","273.6","3.626","272.4","NAN","NAN","NAN","NAN","NAN"],
    [1555564,"2026-05-27 05:40:00","56554","1.9669999999999999","271.1","3.201","266.2","NAN","NAN","NAN","NAN","NAN"],
    [1555565,"2026-05-27 05:50:00","56555","2.156","271.6","3.234","280.4","NAN","NAN","NAN","NAN","NAN"],
    [1555566,"2026-05-27 06:00:00","56556","2.311","273.5","3.43","271.1","NAN","NAN","NAN","NAN","NAN"],
    [1555567,"2026-05-27 06:10:00","56557","1.8969999999999998","268.9","2.973","265.9","NAN","NAN","NAN","NAN","NAN"],
    [1555568,"2026-05-27 06:20:00","56558","2.016","275.0","3.43","271.1","NAN","NAN","NAN","NAN","NAN"],
    [1555569,"2026-05-27 06:30:00","56559","1.871","272.4","3.463","267.6","NAN","NAN","NAN","NAN","NAN"],
    [1555570,"2026-05-27 06:40:00","56560","1.8940000000000001","278.1","2.875","276.1","NAN","NAN","NAN","NAN","NAN"],
    [1555571,"2026-05-27 06:50:00","56561","2.2680000000000002","277.2","3.43","287.8","NAN","NAN","NAN","NAN","NAN"],
    [1555572,"2026-05-27 07:00:00","56562","2.451","275.3","4.116","279.6","NAN","NAN","NAN","NAN","NAN"],
    [1555573,"2026-05-27 07:10:00","56563","2.186","276.2","3.561","272.5","NAN","NAN","NAN","NAN","NAN"],
    [1555574,"2026-05-27 07:20:00","56564","2.572","276.9","4.083","274.3","NAN","NAN","NAN","NAN","NAN"],
    [1555575,"2026-05-27 07:30:00","56565","2.083","265.9","3.789","254.8","NAN","NAN","NAN","NAN","NAN"],
    [1555576,"2026-05-27 07:40:00","56566","1.946","247.4","3.495","249","NAN","NAN","NAN","NAN","NAN"],
    [1555577,"2026-05-27 07:50:00","56567","2.406","247.5","4.671","271.6","NAN","NAN","NAN","NAN","NAN"],
    [1555578,"2026-05-27 08:00:00","56568","2.021","266.9","3.299","287.5","NAN","NAN","NAN","NAN","NAN"],
    [1555579,"2026-05-27 08:10:00","56569","2.506","243.5","3.626","258.6","NAN","NAN","NAN","NAN","NAN"],
    [1555580,"2026-05-27 08:20:00","56570","2.353","245.3","4.835","263.2","NAN","NAN","NAN","NAN","NAN"],
    [1555581,"2026-05-27 08:30:00","56571","2.727","233.8","4.769","215.6","NAN","NAN","NAN","NAN","NAN"],
    [1555582,"2026-05-27 08:40:00","56572","3.972","234.0","5.913","225.4","NAN","NAN","NAN","NAN","NAN"],
    [1555583,"2026-05-27 08:50:00","56573","3.965","227.0","6.043","223.6","NAN","NAN","NAN","NAN","NAN"],
    [1555584,"2026-05-27 09:00:00","56574","3.5","236.3","5.88","242.7","NAN","NAN","NAN","NAN","NAN"],
    [1555585,"2026-05-27 09:10:00","56575","3.7680000000000002","232.9","6.207","220.9","NAN","NAN","NAN","NAN","NAN"],
    [1555586,"2026-05-27 09:20:00","56576","3.4730000000000003","237.3","7.285","236.3","NAN","NAN","NAN","NAN","NAN"],
    [1555587,"2026-05-27 09:30:00","56577","3.417","227.9","6.141","236.8","NAN","NAN","NAN","NAN","NAN"],
    [1555588,"2026-05-27 09:40:00","56578","3.696","231.5","6.501","227.8","NAN","NAN","NAN","NAN","NAN"],
    [1555589,"2026-05-27 09:50:00","56579","4.285","235.3","7.219","221","NAN","NAN","NAN","NAN","NAN"],
    [1555590,"2026-05-27 10:00:00","56580","4.434","235.1","7.644","242.9","NAN","NAN","NAN","NAN","NAN"],
    [1555591,"2026-05-27 10:10:00","56581","5.296","229.1","8.72","221.3","NAN","NAN","NAN","NAN","NAN"],
    [1555592,"2026-05-27 10:20:00","56582","4.939","230.5","8","220.3","NAN","NAN","NAN","NAN","NAN"],
    [1555593,"2026-05-27 10:30:00","56583","4.25","229.5","7.579","232.4","NAN","NAN","NAN","NAN","NAN"],
    [1555594,"2026-05-27 10:40:00","56584","4.7860000000000005","230.4","8.17","229.4","NAN","NAN","NAN","NAN","NAN"],
    [1555595,"2026-05-27 10:50:00","56585","4.372","226.7","8.13","219.8","NAN","NAN","NAN","NAN","NAN"],
    [1555596,"2026-05-27 11:00:00","56586","5.276","230.6","9.08","228.6","NAN","NAN","NAN","NAN","NAN"],
    [1555597,"2026-05-27 11:10:00","56587","4.445","230.9","7.742","237.6","NAN","NAN","NAN","NAN","NAN"],
    [1555598,"2026-05-27 11:20:00","56588","4.768","222.0","8.4","220.1","NAN","NAN","NAN","NAN","NAN"],
    [1555599,"2026-05-27 11:30:00","56589","5.575","220.7","8.95","215.1","NAN","NAN","NAN","NAN","NAN"],
    [1555600,"2026-05-27 11:40:00","56590","4.848","219.6","9.02","220.2","NAN","NAN","NAN","NAN","NAN"],
    [1555601,"2026-05-27 11:50:00","56591","5.489","220.4","8.98","233.5","NAN","NAN","NAN","NAN","NAN"],
    [1555602,"2026-05-27 12:00:00","56592","4.956","220.1","9.24","208.3","NAN","NAN","NAN","NAN","NAN"],
    [1555603,"2026-05-27 12:10:00","56593","5.428999999999999","221.4","8.85","216.8","NAN","NAN","NAN","NAN","NAN"],
    [1555604,"2026-05-27 12:20:00","56594","5.542000000000001","212.4","8.82","207.7","NAN","NAN","NAN","NAN","NAN"],
    [1555605,"2026-05-27 12:30:00","56595","4.968999999999999","216.3","8.36","208.1","NAN","NAN","NAN","NAN","NAN"],
    [1555606,"2026-05-27 12:40:00","56596","5.4670000000000005","211.2","8.98","212.4","NAN","NAN","NAN","NAN","NAN"],
    [1555607,"2026-05-27 12:50:00","56597","5.12","227.4","9.54","218","NAN","NAN","NAN","NAN","NAN"],
    [1555608,"2026-05-27 13:00:00","56598","5.609","225.6","9.96","234.3","NAN","NAN","NAN","NAN","NAN"],
    [1555609,"2026-05-27 13:10:00","56599","5.542000000000001","228.5","9.67","213.2","NAN","NAN","NAN","NAN","NAN"],
    [1555610,"2026-05-27 13:20:00","56600","5.247000000000001","228.6","8.79","216.1","NAN","NAN","NAN","NAN","NAN"],
    [1555611,"2026-05-27 13:30:00","56601","5.812","225.9","10.13","238.9","NAN","NAN","NAN","NAN","NAN"],
    [1555612,"2026-05-27 13:40:00","56602","5.855","228.7","9.31","224.4","NAN","NAN","NAN","NAN","NAN"],
    [1555613,"2026-05-27 13:50:00","56603","5.2989999999999995","225.3","10","246.9","NAN","NAN","NAN","NAN","NAN"],
    [1555614,"2026-05-27 14:00:00","56604","4.98","219.1","8.4","223","NAN","NAN","NAN","NAN","NAN"],
    [1555615,"2026-05-27 14:10:00","56605","4.735","224.9","8.56","208.6","NAN","NAN","NAN","NAN","NAN"],
    [1555616,"2026-05-27 14:20:00","56606","4.456","227.1","8.17","254.4","NAN","NAN","NAN","NAN","NAN"],
    [1555617,"2026-05-27 14:30:00","56607","5.784","224.1","9.31","213.5","NAN","NAN","NAN","NAN","NAN"],
    [1555618,"2026-05-27 14:40:00","56608","5.412999999999999","230.7","9.64","222.7","NAN","NAN","NAN","NAN","NAN"],
    [1555619,"2026-05-27 14:50:00","56609","5.547999999999999","220.5","10.13","219","NAN","NAN","NAN","NAN","NAN"],
    [1555620,"2026-05-27 15:00:00","56610","4.853","228.7","9.31","211.1","NAN","NAN","NAN","NAN","NAN"],
    [1555621,"2026-05-27 15:10:00","56611","6.23","227.3","9.8","223.3","NAN","NAN","NAN","NAN","NAN"],
    [1555622,"2026-05-27 15:20:00","56612","6.067","221.9","10.06","216.4","NAN","NAN","NAN","NAN","NAN"],
    [1555623,"2026-05-27 15:30:00","56613","6.317","224.2","10.16","223.3","NAN","NAN","NAN","NAN","NAN"],
    [1555624,"2026-05-27 15:40:00","56614","5.872000000000001","223.3","8.98","215.3","NAN","NAN","NAN","NAN","NAN"],
    [1555625,"2026-05-27 15:50:00","56615","5.404","221.6","9.05","216","NAN","NAN","NAN","NAN","NAN"],
    [1555626,"2026-05-27 16:00:00","56616","5.023","222.3","8.85","232.4","NAN","NAN","NAN","NAN","NAN"],
    [1555627,"2026-05-27 16:10:00","56617","5.5760000000000005","229.7","9.41","215.3","NAN","NAN","NAN","NAN","NAN"],
    [1555628,"2026-05-27 16:20:00","56618","4.129","222.9","8.53","226.6","NAN","NAN","NAN","NAN","NAN"],
    [1555629,"2026-05-27 16:30:00","56619","5.043","220.8","8.62","211.5","NAN","NAN","NAN","NAN","NAN"],
    [1555630,"2026-05-27 16:40:00","56620","4.922","219.7","8.59","210.9","NAN","NAN","NAN","NAN","NAN"],
    [1555631,"2026-05-27 16:50:00","56621","4.713","227.2","8.33","243.5","NAN","NAN","NAN","NAN","NAN"],
    [1555632,"2026-05-27 17:00:00","56622","4.622","224.9","8.59","229.9","NAN","NAN","NAN","NAN","NAN"],
    [1555633,"2026-05-27 17:10:00","56623","4.6530000000000005","227.5","8.3","242.7","NAN","NAN","NAN","NAN","NAN"],
    [1555634,"2026-05-27 17:20:00","56624","4.6419999999999995","227.1","8.04","218.3","NAN","NAN","NAN","NAN","NAN"],
    [1555635,"2026-05-27 17:30:00","56625","4.627","226.8","8.13","218.1","NAN","NAN","NAN","NAN","NAN"],
    [1555636,"2026-05-27 17:40:00","56626","4.699","229.3","8.3","222.5","NAN","NAN","NAN","NAN","NAN"],
    [1555637,"2026-05-27 17:50:00","56627","4.606","228.1","8.4","223","NAN","NAN","NAN","NAN","NAN"],
    [1555638,"2026-05-27 18:00:00","56628","3.7739999999999996","228.6","6.501","218.3","NAN","NAN","NAN","NAN","NAN"],
    [1555639,"2026-05-27 18:10:00","56629","3.846","229.2","7.317","242.7","NAN","NAN","NAN","NAN","NAN"],
    [1555640,"2026-05-27 18:20:00","56630","3.464","237.0","6.762","221.9","NAN","NAN","NAN","NAN","NAN"],
    [1555641,"2026-05-27 18:30:00","56631","3.7110000000000003","229.6","6.533","241","NAN","NAN","NAN","NAN","NAN"],
    [1555642,"2026-05-27 18:40:00","56632","3.435","231.4","6.174","253.2","NAN","NAN","NAN","NAN","NAN"],
    [1555643,"2026-05-27 18:50:00","56633","3.342","236.6","6.697","237.7","NAN","NAN","NAN","NAN","NAN"],
    [1555644,"2026-05-27 19:00:00","56634","2.762","239.6","5.063","234","NAN","NAN","NAN","NAN","NAN"],
    [1555645,"2026-05-27 19:10:00","56635","2.822","232.6","5.161","217.8","NAN","NAN","NAN","NAN","NAN"],
    [1555646,"2026-05-27 19:20:00","56636","3.137","236.2","5.423","251.3","NAN","NAN","NAN","NAN","NAN"],
    [1555647,"2026-05-27 19:30:00","56637","2.6319999999999997","233.2","4.769","240.4","NAN","NAN","NAN","NAN","NAN"],
    [1555648,"2026-05-27 19:40:00","56638","2.735","237.0","5.913","236.7","NAN","NAN","NAN","NAN","NAN"],
    [1555649,"2026-05-27 19:50:00","56639","3.214","240.1","5.357","235.7","NAN","NAN","NAN","NAN","NAN"],
    [1555650,"2026-05-27 20:00:00","56640","2.806","237.6","5.455","252.5","NAN","NAN","NAN","NAN","NAN"],
    [1555651,"2026-05-27 20:10:00","56641","2.892","238.5","4.965","235.3","NAN","NAN","NAN","NAN","NAN"],
    [1555652,"2026-05-27 20:20:00","56642","2.6510000000000002","240.5","4.737","218.3","NAN","NAN","NAN","NAN","NAN"],
    [1555653,"2026-05-27 20:30:00","56643","2.77","252.8","4.312","239.2","NAN","NAN","NAN","NAN","NAN"],
    [1555654,"2026-05-27 20:40:00","56644","2.483","250.8","3.92","255.5","NAN","NAN","NAN","NAN","NAN"],
    [1555655,"2026-05-27 20:50:00","56645","2.84","244.4","5.39","240.6","NAN","NAN","NAN","NAN","NAN"],
    [1555656,"2026-05-27 21:00:00","56646","2.7439999999999998","245.1","4.965","248.2","NAN","NAN","NAN","NAN","NAN"],
    [1555657,"2026-05-27 21:10:00","56647","2.539","248.4","4.181","237.1","NAN","NAN","NAN","NAN","NAN"],
    [1555658,"2026-05-27 21:20:00","56648","2.249","246.0","4.018","238.4","NAN","NAN","NAN","NAN","NAN"],
    [1555659,"2026-05-27 21:30:00","56649","2.11","249.6","3.561","234.6","NAN","NAN","NAN","NAN","NAN"],
    [1555660,"2026-05-27 21:40:00","56650","1.9240000000000002","253.2","2.842","253","NAN","NAN","NAN","NAN","NAN"],
    [1555661,"2026-05-27 21:50:00","56651","1.922","248.0","3.234","253.1","NAN","NAN","NAN","NAN","NAN"],
    [1555662,"2026-05-27 22:00:00","56652","2.254","242.5","3.92","234.6","NAN","NAN","NAN","NAN","NAN"],
    [1555663,"2026-05-27 22:10:00","56653","2.052","240.3","3.887","244.1","NAN","NAN","NAN","NAN","NAN"],
    [1555664,"2026-05-27 22:20:00","56654","2.093","233.9","3.822","238.2","NAN","NAN","NAN","NAN","NAN"],
    [1555665,"2026-05-27 22:30:00","56655","2.5789999999999997","240.9","4.181","232.6","NAN","NAN","NAN","NAN","NAN"],
    [1555666,"2026-05-27 22:40:00","56656","1.965","242.8","3.659","253.1","NAN","NAN","NAN","NAN","NAN"],
    [1555667,"2026-05-27 22:50:00","56657","2.251","248.5","3.332","246.9","NAN","NAN","NAN","NAN","NAN"],
    [1555668,"2026-05-27 23:00:00","56658","2.2030000000000003","247.0","3.659","247.8","NAN","NAN","NAN","NAN","NAN"],
    [1555669,"2026-05-27 23:10:00","56659","1.804","238.3","3.299","230.9","NAN","NAN","NAN","NAN","NAN"],
    [1555670,"2026-05-27 23:20:00","56660","1.9509999999999998","238.7","3.561","246.4","NAN","NAN","NAN","NAN","NAN"],
    [1555671,"2026-05-27 23:30:00","56661","2.7289999999999996","246.2","3.985","247.6","NAN","NAN","NAN","NAN","NAN"],
    [1555672,"2026-05-27 23:40:00","56662","2.9360000000000004","250.5","4.018","251.9","NAN","NAN","NAN","NAN","NAN"],
    [1555673,"2026-05-27 23:50:00","56663","2.302","255.5","3.659","255","NAN","NAN","NAN","NAN","NAN"],
    [1555674,"2026-05-28 00:00:00","56664","2.044","261.8","3.43","264.4","NAN","NAN","NAN","NAN","NAN"],
    [1555675,"2026-05-28 00:10:00","56665","1.9669999999999999","264.2","3.201","256","NAN","NAN","NAN","NAN","NAN"],
    [1555676,"2026-05-28 00:20:00","56666","1.5859999999999999","261.4","2.613","263.3","NAN","NAN","NAN","NAN","NAN"],
    [1555677,"2026-05-28 00:30:00","56667","1.325","252.9","1.993","252.5","NAN","NAN","NAN","NAN","NAN"],
    [1555678,"2026-05-28 00:40:00","56668","1.105","247.8","2.287","246.5","NAN","NAN","NAN","NAN","NAN"],
    [1555679,"2026-05-28 00:50:00","56669","1.839","234.6","3.365","233.7","NAN","NAN","NAN","NAN","NAN"],
    [1555680,"2026-05-28 01:00:00","56670","2.659","242.4","3.724","238.8","NAN","NAN","NAN","NAN","NAN"],
    [1555681,"2026-05-28 01:10:00","56671","2.173","246.9","3.136","253","NAN","NAN","NAN","NAN","NAN"],
    [1555682,"2026-05-28 01:20:00","56672","1.926","252.6","2.777","254.5","NAN","NAN","NAN","NAN","NAN"],
    [1555683,"2026-05-28 01:30:00","56673","1.829","246.1","2.646","242.2","NAN","NAN","NAN","NAN","NAN"],
    [1555684,"2026-05-28 01:40:00","56674","1.724","253.7","3.136","258.1","NAN","NAN","NAN","NAN","NAN"],
    [1555685,"2026-05-28 01:50:00","56675","1.868","258.0","2.907","260.4","NAN","NAN","NAN","NAN","NAN"],
    [1555686,"2026-05-28 02:00:00","56676","1.942","258.6","3.463","264","NAN","NAN","NAN","NAN","NAN"],
    [1555687,"2026-05-28 02:10:00","56677","1.91","256.6","3.038","263.2","NAN","NAN","NAN","NAN","NAN"],
    [1555688,"2026-05-28 02:20:00","56678","2.043","255.7","2.94","256.9","NAN","NAN","NAN","NAN","NAN"],
    [1555689,"2026-05-28 02:30:00","56679","1.966","252.6","3.169","260.5","NAN","NAN","NAN","NAN","NAN"],
    [1555690,"2026-05-28 02:40:00","56680","2.524","259.5","3.822","250.9","NAN","NAN","NAN","NAN","NAN"],
    [1555691,"2026-05-28 02:50:00","56681","2.392","269.2","4.149","264.6","NAN","NAN","NAN","NAN","NAN"],
    [1555692,"2026-05-28 03:00:00","56682","2.657","260.8","4.443","250.6","NAN","NAN","NAN","NAN","NAN"],
    [1555693,"2026-05-28 03:10:00","56683","2.926","263.2","4.279","251.9","NAN","NAN","NAN","NAN","NAN"],
    [1555694,"2026-05-28 03:20:00","56684","3.1430000000000002","268.5","4.475","265.8","NAN","NAN","NAN","NAN","NAN"],
    [1555695,"2026-05-28 03:30:00","56685","3.185","269.3","5.161","273","NAN","NAN","NAN","NAN","NAN"],
    [1555696,"2026-05-28 03:40:00","56686","2.957","268.2","4.737","269","NAN","NAN","NAN","NAN","NAN"],
    [1555697,"2026-05-28 03:50:00","56687","2.7889999999999997","264.8","4.149","261.1","NAN","NAN","NAN","NAN","NAN"],
    [1555698,"2026-05-28 04:00:00","56688","3.498","260.6","5.096","260.3","NAN","NAN","NAN","NAN","NAN"],
    [1555699,"2026-05-28 04:10:00","56689","3.502","261.6","5.031","256.7","NAN","NAN","NAN","NAN","NAN"],
    [1555700,"2026-05-28 04:20:00","56690","2.778","262.3","4.671","253.3","NAN","NAN","NAN","NAN","NAN"],
    [1555701,"2026-05-28 04:30:00","56691","2.7289999999999996","270.4","3.985","271.5","NAN","NAN","NAN","NAN","NAN"],
    [1555702,"2026-05-28 04:40:00","56692","2.983","267.2","5.096","266.9","NAN","NAN","NAN","NAN","NAN"],
    [1555703,"2026-05-28 04:50:00","56693","2.435","274.4","4.051","277.7","NAN","NAN","NAN","NAN","NAN"],
    [1555704,"2026-05-28 05:00:00","56694","1.956","278.9","3.789","272.4","NAN","NAN","NAN","NAN","NAN"],
    [1555705,"2026-05-28 05:10:00","56695","1.916","276.3","3.103","285","NAN","NAN","NAN","NAN","NAN"],
    [1555706,"2026-05-28 05:20:00","56696","2.2230000000000003","269.2","4.018","268.8","NAN","NAN","NAN","NAN","NAN"],
    [1555707,"2026-05-28 05:30:00","56697","1.87","271.6","2.907","267.7","NAN","NAN","NAN","NAN","NAN"],
    [1555708,"2026-05-28 05:40:00","56698","1.993","267.6","3.365","268.5","NAN","NAN","NAN","NAN","NAN"],
    [1555709,"2026-05-28 05:50:00","56699","2.426","269.5","3.953","262.7","NAN","NAN","NAN","NAN","NAN"],
    [1555710,"2026-05-28 06:00:00","56700","3.029","265.4","4.965","271.7","NAN","NAN","NAN","NAN","NAN"],
    [1555711,"2026-05-28 06:10:00","56701","3.52","260.6","5.325","266.4","NAN","NAN","NAN","NAN","NAN"],
    [1555712,"2026-05-28 06:20:00","56702","3.3169999999999997","268.3","5.586","273.1","NAN","NAN","NAN","NAN","NAN"],
    [1555713,"2026-05-28 06:30:00","56703","3.341","269.1","5.39","269.3","NAN","NAN","NAN","NAN","NAN"],
    [1555714,"2026-05-28 06:40:00","56704","3.885","263.8","6.043","252.4","NAN","NAN","NAN","NAN","NAN"],
    [1555715,"2026-05-28 06:50:00","56705","3.341","257.1","5.847","266.1","NAN","NAN","NAN","NAN","NAN"],
    [1555716,"2026-05-28 07:00:00","56706","2.391","259.6","4.541","249.4","NAN","NAN","NAN","NAN","NAN"],
    [1555717,"2026-05-28 07:10:00","56707","2.7680000000000002","254.7","4.769","256","NAN","NAN","NAN","NAN","NAN"],
    [1555718,"2026-05-28 07:20:00","56708","2.484","264.1","4.279","277.4","NAN","NAN","NAN","NAN","NAN"],
    [1555719,"2026-05-28 07:30:00","56709","2.543","263.5","4.606","250.6","NAN","NAN","NAN","NAN","NAN"],
    [1555720,"2026-05-28 07:40:00","56710","2.536","266.8","4.247","279.5","NAN","NAN","NAN","NAN","NAN"],
    [1555721,"2026-05-28 07:50:00","56711","2.872","259.5","4.835","239.7","NAN","NAN","NAN","NAN","NAN"],
    [1555722,"2026-05-28 08:00:00","56712","2.842","264.5","4.835","288.3","NAN","NAN","NAN","NAN","NAN"],
    [1555723,"2026-05-28 08:10:00","56713","2.9760000000000004","267.3","5.194","272.6","NAN","NAN","NAN","NAN","NAN"],
    [1555724,"2026-05-28 08:20:00","56714","2.568","267.4","4.443","276.1","NAN","NAN","NAN","NAN","NAN"],
    [1555725,"2026-05-28 08:30:00","56715","2.454","221.0","4.214","214.1","NAN","NAN","NAN","NAN","NAN"],
    [1555726,"2026-05-28 08:40:00","56716","2.762","210.5","4.475","211.2","NAN","NAN","NAN","NAN","NAN"],
    [1555727,"2026-05-28 08:50:00","56717","3.2089999999999996","209.0","5.063","200.7","NAN","NAN","NAN","NAN","NAN"],
    [1555728,"2026-05-28 09:00:00","56718","3.05","236.5","5.129","239.6","NAN","NAN","NAN","NAN","NAN"],
    [1555729,"2026-05-28 09:10:00","56719","3.281","220.3","5.357","219.2","NAN","NAN","NAN","NAN","NAN"],
    [1555730,"2026-05-28 09:20:00","56720","3.427","228.6","5.717","229.3","NAN","NAN","NAN","NAN","NAN"],
    [1555731,"2026-05-28 09:30:00","56721","3.056","236.5","5.978","218.8","NAN","NAN","NAN","NAN","NAN"],
    [1555732,"2026-05-28 09:40:00","56722","3.525","230.5","5.815","219.1","NAN","NAN","NAN","NAN","NAN"],
    [1555733,"2026-05-28 09:50:00","56723","3.483","221.4","5.651","223.4","NAN","NAN","NAN","NAN","NAN"],
    [1555734,"2026-05-28 10:00:00","56724","3.844","215.4","6.435","203.2","NAN","NAN","NAN","NAN","NAN"],
    [1555735,"2026-05-28 10:10:00","56725","4.371","220.6","6.468","211.9","NAN","NAN","NAN","NAN","NAN"],
    [1555736,"2026-05-28 10:20:00","56726","4.184","221.4","7.187","220.9","NAN","NAN","NAN","NAN","NAN"],
    [1555737,"2026-05-28 10:30:00","56727","4.175","236.9","6.239","235.3","NAN","NAN","NAN","NAN","NAN"],
    [1555738,"2026-05-28 10:40:00","56728","4.039","234.8","6.468","245.7","NAN","NAN","NAN","NAN","NAN"],
    [1555739,"2026-05-28 10:50:00","56729","4.333","232.5","6.762","224.3","NAN","NAN","NAN","NAN","NAN"],
    [1555740,"2026-05-28 11:00:00","56730","4.029","234.8","6.827","239.3","NAN","NAN","NAN","NAN","NAN"],
    [1555741,"2026-05-28 11:10:00","56731","3.497","219.4","5.978","216.9","NAN","NAN","NAN","NAN","NAN"],
    [1555742,"2026-05-28 11:20:00","56732","3.3960000000000004","231.3","5.717","222.8","NAN","NAN","NAN","NAN","NAN"],
    [1555743,"2026-05-28 11:30:00","56733","3.5989999999999998","230.6","6.925","215.6","NAN","NAN","NAN","NAN","NAN"],
    [1555744,"2026-05-28 11:40:00","56734","4.48","223.8","7.579","216.6","NAN","NAN","NAN","NAN","NAN"],
    [1555745,"2026-05-28 11:50:00","56735","4.785","234.7","7.285","237.1","NAN","NAN","NAN","NAN","NAN"],
    [1555746,"2026-05-28 12:00:00","56736","4.289","223.2","6.86","220.9","NAN","NAN","NAN","NAN","NAN"],
    [1555747,"2026-05-28 12:10:00","56737","4.3180000000000005","217.2","6.86","224.8","NAN","NAN","NAN","NAN","NAN"],
    [1555748,"2026-05-28 12:20:00","56738","3.8569999999999998","226.0","7.513","223.2","NAN","NAN","NAN","NAN","NAN"],
    [1555749,"2026-05-28 12:30:00","56739","4.294","242.4","7.154","247.9","NAN","NAN","NAN","NAN","NAN"],
    [1555750,"2026-05-28 12:40:00","56740","4.325","237.7","7.971","260.3","NAN","NAN","NAN","NAN","NAN"],
    [1555751,"2026-05-28 12:50:00","56741","4.58","223.2","7.35","225.8","NAN","NAN","NAN","NAN","NAN"],
    [1555752,"2026-05-28 13:00:00","56742","4.311","225.0","7.742","223.6","NAN","NAN","NAN","NAN","NAN"],
    [1555753,"2026-05-28 13:10:00","56743","4.829","215.7","7.513","223.8","NAN","NAN","NAN","NAN","NAN"],
    [1555754,"2026-05-28 13:20:00","56744","5.689","223.6","8.59","233.6","NAN","NAN","NAN","NAN","NAN"],
    [1555755,"2026-05-28 13:30:00","56745","4.579","227.2","7.546","235.8","NAN","NAN","NAN","NAN","NAN"],
    [1555756,"2026-05-28 13:40:00","56746","4.996","241.1","8.62","262.2","NAN","NAN","NAN","NAN","NAN"],
    [1555757,"2026-05-28 13:50:00","56747","4.657","240.9","7.938","242.9","NAN","NAN","NAN","NAN","NAN"],
    [1555758,"2026-05-28 14:00:00","56748","4.846","233.4","8","217.2","NAN","NAN","NAN","NAN","NAN"],
    [1555759,"2026-05-28 14:10:00","56749","4.59","236.3","7.938","259","NAN","NAN","NAN","NAN","NAN"],
    [1555760,"2026-05-28 14:20:00","56750","5.268","232.4","9.02","238.1","NAN","NAN","NAN","NAN","NAN"],
    [1555761,"2026-05-28 14:30:00","56751","4.293","231.2","7.807","212","NAN","NAN","NAN","NAN","NAN"],
    [1555762,"2026-05-28 14:40:00","56752","4.171","226.6","7.644","224.6","NAN","NAN","NAN","NAN","NAN"],
    [1555763,"2026-05-28 14:50:00","56753","4.156000000000001","215.4","6.925","235.9","NAN","NAN","NAN","NAN","NAN"],
    [1555764,"2026-05-28 15:00:00","56754","4.402","227.0","7.481","222","NAN","NAN","NAN","NAN","NAN"],
    [1555765,"2026-05-28 15:10:00","56755","4.9","224.4","8.26","204.9","NAN","NAN","NAN","NAN","NAN"],
    [1555766,"2026-05-28 15:20:00","56756","4.686","224.1","8.36","215.6","NAN","NAN","NAN","NAN","NAN"],
    [1555767,"2026-05-28 15:30:00","56757","4.6419999999999995","234.6","7.709","231.5","NAN","NAN","NAN","NAN","NAN"],
    [1555768,"2026-05-28 15:40:00","56758","4.439","227.7","9.08","214.5","NAN","NAN","NAN","NAN","NAN"],
    [1555769,"2026-05-28 15:50:00","56759","4.736000000000001","228.8","7.775","219.4","NAN","NAN","NAN","NAN","NAN"],
    [1555770,"2026-05-28 16:00:00","56760","4.715","223.9","8.62","239.3","NAN","NAN","NAN","NAN","NAN"],
    [1555771,"2026-05-28 16:10:00","56761","4.798","223.6","8.98","223.2","NAN","NAN","NAN","NAN","NAN"],
    [1555772,"2026-05-28 16:20:00","56762","4.311","232.7","8.49","235.8","NAN","NAN","NAN","NAN","NAN"],
    [1555773,"2026-05-28 16:30:00","56763","5.154","221.4","8.79","214.6","NAN","NAN","NAN","NAN","NAN"],
    [1555774,"2026-05-28 16:40:00","56764","5.079","226.0","9.51","230.2","NAN","NAN","NAN","NAN","NAN"],
    [1555775,"2026-05-28 16:50:00","56765","4.446000000000001","231.7","8.43","234.4","NAN","NAN","NAN","NAN","NAN"],
    [1555776,"2026-05-28 17:00:00","56766","3.9589999999999996","228.1","7.611","231.4","NAN","NAN","NAN","NAN","NAN"],
    [1555777,"2026-05-28 17:10:00","56767","4.083","227.0","7.285","234.4","NAN","NAN","NAN","NAN","NAN"],
    [1555778,"2026-05-28 17:20:00","56768","3.931","224.7","6.631","217.7","NAN","NAN","NAN","NAN","NAN"],
    [1555779,"2026-05-28 17:30:00","56769","4.729","220.3","7.546","225","NAN","NAN","NAN","NAN","NAN"],
    [1555780,"2026-05-28 17:40:00","56770","4.475","221.0","7.317","208.5","NAN","NAN","NAN","NAN","NAN"],
    [1555781,"2026-05-28 17:50:00","56771","4.374","219.9","7.644","215.4","NAN","NAN","NAN","NAN","NAN"],
    [1555782,"2026-05-28 18:00:00","56772","4.553999999999999","221.3","8.26","221.7","NAN","NAN","NAN","NAN","NAN"],
    [1555783,"2026-05-28 18:10:00","56773","4.093","227.7","7.546","225.4","NAN","NAN","NAN","NAN","NAN"],
    [1555784,"2026-05-28 18:20:00","56774","3.958","222.6","7.089","225.3","NAN","NAN","NAN","NAN","NAN"],
    [1555785,"2026-05-28 18:30:00","56775","3.7110000000000003","224.3","6.337","216.5","NAN","NAN","NAN","NAN","NAN"],
    [1555786,"2026-05-28 18:40:00","56776","4.3580000000000005","226.1","7.448","221.3","NAN","NAN","NAN","NAN","NAN"],
    [1555787,"2026-05-28 18:50:00","56777","3.965","224.1","6.697","236.9","NAN","NAN","NAN","NAN","NAN"],
    [1555788,"2026-05-28 19:00:00","56778","3.385","225.2","6.762","219.7","NAN","NAN","NAN","NAN","NAN"],
    [1555789,"2026-05-28 19:10:00","56779","4.539","225.8","7.611","217.4","NAN","NAN","NAN","NAN","NAN"],
    [1555790,"2026-05-28 19:20:00","56780","4.1530000000000005","224.7","7.513","217.9","NAN","NAN","NAN","NAN","NAN"],
    [1555791,"2026-05-28 19:30:00","56781","3.2539999999999996","233.7","6.468","223","NAN","NAN","NAN","NAN","NAN"],
    [1555792,"2026-05-28 19:40:00","56782","2.753","248.7","5.096","260.1","NAN","NAN","NAN","NAN","NAN"],
    [1555793,"2026-05-28 19:50:00","56783","2.022","242.7","4.606","247.8","NAN","NAN","NAN","NAN","NAN"],
    [1555794,"2026-05-28 20:00:00","56784","1.9969999999999999","234.7","4.41","252.9","NAN","NAN","NAN","NAN","NAN"],
    [1555795,"2026-05-28 20:10:00","56785","3.2910000000000004","254.0","5.651","250.9","NAN","NAN","NAN","NAN","NAN"],
    [1555796,"2026-05-28 20:20:00","56786","2.577","254.3","3.92","257","NAN","NAN","NAN","NAN","NAN"],
    [1555797,"2026-05-28 20:30:00","56787","2.423","255.1","4.116","253.4","NAN","NAN","NAN","NAN","NAN"],
    [1555798,"2026-05-28 20:40:00","56788","2.795","250.3","4.051","255","NAN","NAN","NAN","NAN","NAN"],
    [1555799,"2026-05-28 20:50:00","56789","2.228","253.6","3.691","248.3","NAN","NAN","NAN","NAN","NAN"],
    [1555800,"2026-05-28 21:00:00","56790","2.311","256.4","3.332","254.9","NAN","NAN","NAN","NAN","NAN"],
    [1555801,"2026-05-28 21:10:00","56791","2.6430000000000002","250.7","3.789","255.8","NAN","NAN","NAN","NAN","NAN"],
    [1555802,"2026-05-28 21:20:00","56792","2.417","248.4","3.953","250.1","NAN","NAN","NAN","NAN","NAN"],
    [1555803,"2026-05-28 21:30:00","56793","2.031","252.1","3.561","261.2","NAN","NAN","NAN","NAN","NAN"],
    [1555804,"2026-05-28 21:40:00","56794","2.239","261.1","3.985","261.8","NAN","NAN","NAN","NAN","NAN"],
    [1555805,"2026-05-28 21:50:00","56795","2.385","259.7","3.593","251.2","NAN","NAN","NAN","NAN","NAN"],
    [1555806,"2026-05-28 22:00:00","56796","2.154","254.5","3.43","247.9","NAN","NAN","NAN","NAN","NAN"],
    [1555807,"2026-05-28 22:10:00","56797","1.64","262.2","2.907","252.6","NAN","NAN","NAN","NAN","NAN"],
    [1555808,"2026-05-28 22:20:00","56798","2.063","259.6","2.842","262","NAN","NAN","NAN","NAN","NAN"],
    [1555809,"2026-05-28 22:30:00","56799","2.6060000000000003","250.9","4.018","246.2","NAN","NAN","NAN","NAN","NAN"],
    [1555810,"2026-05-28 22:40:00","56800","2.824","252.8","4.018","241.5","NAN","NAN","NAN","NAN","NAN"],
    [1555811,"2026-05-28 22:50:00","56801","2.79","250.8","4.377","259.4","NAN","NAN","NAN","NAN","NAN"],
    [1555812,"2026-05-28 23:00:00","56802","3.707","250.2","5.292","248.6","NAN","NAN","NAN","NAN","NAN"],
    [1555813,"2026-05-28 23:10:00","56803","3.33","246.9","4.769","245.5","NAN","NAN","NAN","NAN","NAN"],
    [1555814,"2026-05-28 23:20:00","56804","3.065","247.4","4.933","236.6","NAN","NAN","NAN","NAN","NAN"],
    [1555815,"2026-05-28 23:30:00","56805","2.673","247.5","3.789","259.6","NAN","NAN","NAN","NAN","NAN"],
    [1555816,"2026-05-28 23:40:00","56806","1.871","246.6","2.94","252.9","NAN","NAN","NAN","NAN","NAN"],
    [1555817,"2026-05-28 23:50:00","56807","1.7790000000000001","245.1","2.875","253.3","NAN","NAN","NAN","NAN","NAN"],
    [1555818,"2026-05-29 00:00:00","56808","2.164","240.9","3.43","237.6","NAN","NAN","NAN","NAN","NAN"],
    [1555819,"2026-05-29 00:10:00","56809","2.5839999999999996","249.3","3.822","251.1","NAN","NAN","NAN","NAN","NAN"],
    [1555820,"2026-05-29 00:20:00","56810","2.3819999999999997","248.9","3.691","248.2","NAN","NAN","NAN","NAN","NAN"],
    [1555821,"2026-05-29 00:30:00","56811","2.623","247.7","3.626","244.5","NAN","NAN","NAN","NAN","NAN"],
    [1555822,"2026-05-29 00:40:00","56812","2.575","248.7","3.626","246.5","NAN","NAN","NAN","NAN","NAN"],
    [1555823,"2026-05-29 00:50:00","56813","2.372","249.0","3.43","245.8","NAN","NAN","NAN","NAN","NAN"],
    [1555824,"2026-05-29 01:00:00","56814","2.155","250.8","3.234","247.2","NAN","NAN","NAN","NAN","NAN"],
    [1555825,"2026-05-29 01:10:00","56815","1.814","251.1","2.515","242.6","NAN","NAN","NAN","NAN","NAN"],
    [1555826,"2026-05-29 01:20:00","56816","1.892","256.8","2.679","262.9","NAN","NAN","NAN","NAN","NAN"],
    [1555827,"2026-05-29 01:30:00","56817","1.6119999999999999","258.2","3.038","257.1","NAN","NAN","NAN","NAN","NAN"],
    [1555828,"2026-05-29 01:40:00","56818","1.52","258.7","2.515","262.3","NAN","NAN","NAN","NAN","NAN"],
    [1555829,"2026-05-29 01:50:00","56819","1.249","263.4","1.993","262.1","NAN","NAN","NAN","NAN","NAN"],
    [1555830,"2026-05-29 02:00:00","56820","1.33","264.5","2.385","264.5","NAN","NAN","NAN","NAN","NAN"],
    [1555831,"2026-05-29 02:10:00","56821","0.866","264.8","1.797","264.8","NAN","NAN","NAN","NAN","NAN"],
    [1555832,"2026-05-29 02:20:00","56822","1.162","265.6","2.417","266","NAN","NAN","NAN","NAN","NAN"],
    [1555833,"2026-05-29 02:30:00","56823","0.872","267.2","1.731","267.2","NAN","NAN","NAN","NAN","NAN"],
    [1555834,"2026-05-29 02:40:00","56824","0.113","267.2","1.176","267.2","NAN","NAN","NAN","NAN","NAN"],
    [1555835,"2026-05-29 02:50:00","56825","0.262","267.2","0.882","267.1","NAN","NAN","NAN","NAN","NAN"],
    [1555836,"2026-05-29 03:00:00","56826","0.625","267.2","1.535","267.2","NAN","NAN","NAN","NAN","NAN"],
    [1555837,"2026-05-29 03:10:00","56827","1.053","267.3","2.221","268.4","NAN","NAN","NAN","NAN","NAN"],
    [1555838,"2026-05-29 03:20:00","56828","1.4769999999999999","268.4","2.189","268.3","NAN","NAN","NAN","NAN","NAN"],
    [1555839,"2026-05-29 03:30:00","56829","1.474","268.6","2.123","268.6","NAN","NAN","NAN","NAN","NAN"],
    [1555840,"2026-05-29 03:40:00","56830","1.139","268.7","1.699","268.8","NAN","NAN","NAN","NAN","NAN"],
    [1555841,"2026-05-29 03:50:00","56831","0.9840000000000001","267.0","1.535","268.3","NAN","NAN","NAN","NAN","NAN"],
    [1555842,"2026-05-29 04:00:00","56832","1.126","268.3","1.666","264.4","NAN","NAN","NAN","NAN","NAN"],
    [1555843,"2026-05-29 04:10:00","56833","1.3719999999999999","268.8","2.123","269.1","NAN","NAN","NAN","NAN","NAN"],
    [1555844,"2026-05-29 04:20:00","56834","1.1320000000000001","271.6","1.96","271.9","NAN","NAN","NAN","NAN","NAN"],
    [1555845,"2026-05-29 04:30:00","56835","0.895","271.2","1.47","271.9","NAN","NAN","NAN","NAN","NAN"],
    [1555846,"2026-05-29 04:40:00","56836","0.254","271.5","1.339","271.9","NAN","NAN","NAN","NAN","NAN"],
    [1555847,"2026-05-29 04:50:00","56837","0.015","271.9","0.359","271.9","NAN","NAN","NAN","NAN","NAN"],
    [1555848,"2026-05-29 05:00:00","56838","0.033","272.0","0.653","272","NAN","NAN","NAN","NAN","NAN"],
    [1555849,"2026-05-29 05:10:00","56839","0.67","272.1","1.895","272.3","NAN","NAN","NAN","NAN","NAN"],
    [1555850,"2026-05-29 05:20:00","56840","0.02","266.0","0.653","272.4","NAN","NAN","NAN","NAN","NAN"],
    [1555851,"2026-05-29 05:30:00","56841","0.081","253.3","0.719","241.8","NAN","NAN","NAN","NAN","NAN"],
    [1555852,"2026-05-29 05:40:00","56842","0.006","215.2","0.261","214.9","NAN","NAN","NAN","NAN","NAN"],
    [1555853,"2026-05-29 05:50:00","56843","0.0","0.0","0","0","NAN","NAN","NAN","NAN","NAN"],
    [1555854,"2026-05-29 06:00:00","56844","0.037000000000000005","212.4","0.555","212.5","NAN","NAN","NAN","NAN","NAN"],
    [1555855,"2026-05-29 06:10:00","56845","0.03","212.5","0.49","212.5","NAN","NAN","NAN","NAN","NAN"],
    [1555856,"2026-05-29 06:20:00","56846","0.053","212.4","0.784","212.4","NAN","NAN","NAN","NAN","NAN"],
    [1555857,"2026-05-29 06:30:00","56847","0.113","220.6","0.817","212.8","NAN","NAN","NAN","NAN","NAN"],
    [1555858,"2026-05-29 06:40:00","56848","0.078","225.0","0.817","223.6","NAN","NAN","NAN","NAN","NAN"],
    [1555859,"2026-05-29 06:50:00","56849","0.12","226.8","0.817","226.7","NAN","NAN","NAN","NAN","NAN"],
    [1555860,"2026-05-29 07:00:00","56850","0.0","0.0","0","0","NAN","NAN","NAN","NAN","NAN"],
    [1555861,"2026-05-29 07:10:00","56851","0.0","217.4","0.033","218.6","NAN","NAN","NAN","NAN","NAN"],
    [1555862,"2026-05-29 07:20:00","56852","0.0","0.0","0","0","NAN","NAN","NAN","NAN","NAN"],
    [1555863,"2026-05-29 07:30:00","56853","0.075","183.7","0.882","183.6","NAN","NAN","NAN","NAN","NAN"],
    [1555864,"2026-05-29 07:40:00","56854","0.067","180.6","0.523","180.2","NAN","NAN","NAN","NAN","NAN"],
    [1555865,"2026-05-29 07:50:00","56855","0.524","177.0","2.025","177.6","NAN","NAN","NAN","NAN","NAN"],
    [1555866,"2026-05-29 08:00:00","56856","0.701","162.2","1.731","165.2","NAN","NAN","NAN","NAN","NAN"],
    [1555867,"2026-05-29 08:10:00","56857","1.001","152.2","1.862","147.2","NAN","NAN","NAN","NAN","NAN"],
    [1555868,"2026-05-29 08:20:00","56858","1.123","145.7","2.221","145.2","NAN","NAN","NAN","NAN","NAN"],
    [1555869,"2026-05-29 08:30:00","56859","1.465","143.5","2.515","140.8","NAN","NAN","NAN","NAN","NAN"],
    [1555870,"2026-05-29 08:40:00","56860","1.431","130.3","2.711","138.3","NAN","NAN","NAN","NAN","NAN"],
    [1555871,"2026-05-29 08:50:00","56861","1.651","127.9","2.385","126.8","NAN","NAN","NAN","NAN","NAN"],
    [1555872,"2026-05-29 09:00:00","56862","1.865","123.1","2.581","124.7","NAN","NAN","NAN","NAN","NAN"],
    [1555873,"2026-05-29 09:10:00","56863","1.6980000000000002","117.8","2.581","118.5","NAN","NAN","NAN","NAN","NAN"],
    [1555874,"2026-05-29 09:20:00","56864","1.746","114.6","2.679","118.6","NAN","NAN","NAN","NAN","NAN"],
    [1555875,"2026-05-29 09:30:00","56865","1.483","112.4","2.287","111.9","NAN","NAN","NAN","NAN","NAN"],
    [1555876,"2026-05-29 09:40:00","56866","2.025","109.0","3.005","105.3","NAN","NAN","NAN","NAN","NAN"],
    [1555877,"2026-05-29 09:50:00","56867","1.595","108.7","2.679","115.3","NAN","NAN","NAN","NAN","NAN"],
    [1555878,"2026-05-29 10:00:00","56868","1.854","107.2","2.646","107.1","NAN","NAN","NAN","NAN","NAN"],
    [1555879,"2026-05-29 10:10:00","56869","1.916","153.5","3.659","166.9","NAN","NAN","NAN","NAN","NAN"],
    [1555880,"2026-05-29 10:20:00","56870","1.6840000000000002","159.8","4.345","155.3","NAN","NAN","NAN","NAN","NAN"],
    [1555881,"2026-05-29 10:30:00","56871","1.9409999999999998","172.5","3.855","155","NAN","NAN","NAN","NAN","NAN"],
    [1555882,"2026-05-29 10:40:00","56872","2.481","178.3","4.573","171.1","NAN","NAN","NAN","NAN","NAN"],
    [1555883,"2026-05-29 10:50:00","56873","2.59","162.9","4.475","165","NAN","NAN","NAN","NAN","NAN"],
    [1555884,"2026-05-29 11:00:00","56874","2.603","167.6","4.737","159.9","NAN","NAN","NAN","NAN","NAN"],
    [1555885,"2026-05-29 11:10:00","56875","3.0410000000000004","157.1","5.031","164.6","NAN","NAN","NAN","NAN","NAN"],
    [1555886,"2026-05-29 11:20:00","56876","3.3139999999999996","155.8","5.325","139.6","NAN","NAN","NAN","NAN","NAN"],
    [1555887,"2026-05-29 11:30:00","56877","2.819","165.8","4.279","158.5","NAN","NAN","NAN","NAN","NAN"],
    [1555888,"2026-05-29 11:40:00","56878","2.7489999999999997","170.5","4.541","162.1","NAN","NAN","NAN","NAN","NAN"],
    [1555889,"2026-05-29 11:50:00","56879","2.639","163.1","5.194","160.1","NAN","NAN","NAN","NAN","NAN"],
    [1555890,"2026-05-29 12:00:00","56880","2.349","169.6","4.377","173.7","NAN","NAN","NAN","NAN","NAN"],
    [1555891,"2026-05-29 12:10:00","56881","2.7680000000000002","170.3","4.475","164.4","NAN","NAN","NAN","NAN","NAN"],
    [1555892,"2026-05-29 12:20:00","56882","2.677","175.4","4.018","183.9","NAN","NAN","NAN","NAN","NAN"],
    [1555893,"2026-05-29 12:30:00","56883","2.533","173.9","3.92","174.1","NAN","NAN","NAN","NAN","NAN"],
    [1555894,"2026-05-29 12:40:00","56884","2.024","181.7","4.247","179.1","NAN","NAN","NAN","NAN","NAN"],
    [1555895,"2026-05-29 12:50:00","56885","2.739","179.1","4.671","158.8","NAN","NAN","NAN","NAN","NAN"],
    [1555896,"2026-05-29 13:00:00","56886","2.787","162.3","4.312","146.3","NAN","NAN","NAN","NAN","NAN"],
    [1555897,"2026-05-29 13:10:00","56887","3.405","158.1","4.867","138.1","NAN","NAN","NAN","NAN","NAN"],
    [1555898,"2026-05-29 13:20:00","56888","2.687","151.5","4.377","155","NAN","NAN","NAN","NAN","NAN"],
    [1555899,"2026-05-29 13:30:00","56889","3.273","108.1","4.933","100.6","NAN","NAN","NAN","NAN","NAN"],
    [1555900,"2026-05-29 13:40:00","56890","3.2030000000000003","108.8","5.488","82.4","NAN","NAN","NAN","NAN","NAN"],
    [1555901,"2026-05-29 13:50:00","56891","4.481","92.2","6.566","91.7","NAN","NAN","NAN","NAN","NAN"],
    [1555902,"2026-05-29 14:00:00","56892","4.665","95.6","6.37","86.1","NAN","NAN","NAN","NAN","NAN"],
    [1555903,"2026-05-29 14:10:00","56893","5.062","103.7","6.501","99.5","NAN","NAN","NAN","NAN","NAN"],
    [1555904,"2026-05-29 14:20:00","56894","4.246","97.7","6.435","89.6","NAN","NAN","NAN","NAN","NAN"],
    [1555905,"2026-05-29 14:30:00","56895","4.386","95.7","6.37","101.4","NAN","NAN","NAN","NAN","NAN"],
    [1555906,"2026-05-29 14:40:00","56896","4.003","94.8","6.566","72.48","NAN","NAN","NAN","NAN","NAN"],
    [1555907,"2026-05-29 14:50:00","56897","5.225","94.7","7.807","105.8","NAN","NAN","NAN","NAN","NAN"],
    [1555908,"2026-05-29 15:00:00","56898","4.815","101.1","7.056","89.8","NAN","NAN","NAN","NAN","NAN"],
    [1555909,"2026-05-29 15:10:00","56899","5.172000000000001","94.3","7.611","95.4","NAN","NAN","NAN","NAN","NAN"],
    [1555910,"2026-05-29 15:20:00","56900","4.631","95.1","6.991","89.1","NAN","NAN","NAN","NAN","NAN"],
    [1555911,"2026-05-29 15:30:00","56901","4.263","96.1","6.239","94.1","NAN","NAN","NAN","NAN","NAN"],
    [1555912,"2026-05-29 15:40:00","56902","3.423","94.7","5.423","83.1","NAN","NAN","NAN","NAN","NAN"],
    [1555913,"2026-05-29 15:50:00","56903","3.1519999999999997","94.1","6.076","97.1","NAN","NAN","NAN","NAN","NAN"],
    [1555914,"2026-05-29 16:00:00","56904","3.156","83.7","5.521","81.4","NAN","NAN","NAN","NAN","NAN"],
    [1555915,"2026-05-29 16:10:00","56905","3.051","99.6","5.031","97.8","NAN","NAN","NAN","NAN","NAN"],
    [1555916,"2026-05-29 16:20:00","56906","2.752","94.4","4.116","71.07","NAN","NAN","NAN","NAN","NAN"],
    [1555917,"2026-05-29 16:30:00","56907","2.408","82.8","3.887","85.5","NAN","NAN","NAN","NAN","NAN"],
    [1555918,"2026-05-29 16:40:00","56908","1.7209999999999999","80.6","3.267","84.5","NAN","NAN","NAN","NAN","NAN"],
    [1555919,"2026-05-29 16:50:00","56909","1.6469999999999998","111.7","3.332","126.8","NAN","NAN","NAN","NAN","NAN"],
    [1555920,"2026-05-29 17:00:00","56910","1.368","106.9","2.711","96","NAN","NAN","NAN","NAN","NAN"],
    [1555921,"2026-05-29 17:10:00","56911","1.285","89.1","2.254","89.6","NAN","NAN","NAN","NAN","NAN"],
    [1555922,"2026-05-29 17:20:00","56912","1.558","76.43","3.005","65.11","NAN","NAN","NAN","NAN","NAN"],
    [1555923,"2026-05-29 17:30:00","56913","1.36","72.57","3.365","82.5","NAN","NAN","NAN","NAN","NAN"],
    [1555924,"2026-05-29 17:40:00","56914","1.169","67.59","2.711","83.6","NAN","NAN","NAN","NAN","NAN"],
    [1555925,"2026-05-29 17:50:00","56915","2.2969999999999997","87.7","3.397","82.5","NAN","NAN","NAN","NAN","NAN"],
    [1555926,"2026-05-29 18:00:00","56916","1.876","56.62","3.365","39.61","NAN","NAN","NAN","NAN","NAN"],
    [1555927,"2026-05-29 18:10:00","56917","1.996","58.28","3.691","60.33","NAN","NAN","NAN","NAN","NAN"],
    [1555928,"2026-05-29 18:20:00","56918","1.9380000000000002","75.4","3.659","86.8","NAN","NAN","NAN","NAN","NAN"],
    [1555929,"2026-05-29 18:30:00","56919","2.006","78.15","3.234","78.06","NAN","NAN","NAN","NAN","NAN"],
    [1555930,"2026-05-29 18:40:00","56920","2.044","85.3","3.855","86.8","NAN","NAN","NAN","NAN","NAN"],
    [1555931,"2026-05-29 18:50:00","56921","1.685","88.5","2.875","88.6","NAN","NAN","NAN","NAN","NAN"],
    [1555932,"2026-05-29 19:00:00","56922","1.886","87.0","3.626","89.9","NAN","NAN","NAN","NAN","NAN"],
    [1555933,"2026-05-29 19:10:00","56923","2.7769999999999997","79.97","4.116","92.9","NAN","NAN","NAN","NAN","NAN"],
    [1555934,"2026-05-29 19:20:00","56924","1.551","77.71","2.875","67.71","NAN","NAN","NAN","NAN","NAN"],
    [1555935,"2026-05-29 19:30:00","56925","1.869","76.09","3.267","63.74","NAN","NAN","NAN","NAN","NAN"],
    [1555936,"2026-05-29 19:40:00","56926","2.022","81.4","3.332","81.5","NAN","NAN","NAN","NAN","NAN"],
    [1555937,"2026-05-29 19:50:00","56927","2.602","72.9","3.593","68.93","NAN","NAN","NAN","NAN","NAN"],
    [1555938,"2026-05-29 20:00:00","56928","2.535","78.84","3.626","87.5","NAN","NAN","NAN","NAN","NAN"],
    [1555939,"2026-05-29 20:10:00","56929","1.349","88.6","2.548","86.5","NAN","NAN","NAN","NAN","NAN"],
    [1555940,"2026-05-29 20:20:00","56930","1.6130000000000002","75.5","2.809","73.36","NAN","NAN","NAN","NAN","NAN"],
    [1555941,"2026-05-29 20:30:00","56931","2.207","70.2","3.365","74.32","NAN","NAN","NAN","NAN","NAN"],
    [1555942,"2026-05-29 20:40:00","56932","1.932","65.34","3.299","69.32","NAN","NAN","NAN","NAN","NAN"],
    [1555943,"2026-05-29 20:50:00","56933","2.246","67.58","3.169","63.51","NAN","NAN","NAN","NAN","NAN"],
    [1555944,"2026-05-29 21:00:00","56934","2.074","74.14","3.201","70.08","NAN","NAN","NAN","NAN","NAN"],
    [1555945,"2026-05-29 21:10:00","56935","1.338","72.15","2.417","71.25","NAN","NAN","NAN","NAN","NAN"],
    [1555946,"2026-05-29 21:20:00","56936","1.5530000000000002","73.05","2.613","72.25","NAN","NAN","NAN","NAN","NAN"],
    [1555947,"2026-05-29 21:30:00","56937","1.405","77.08","1.993","71.01","NAN","NAN","NAN","NAN","NAN"],
    [1555948,"2026-05-29 21:40:00","56938","0.98","62.33","1.993","57.32","NAN","NAN","NAN","NAN","NAN"],
    [1555949,"2026-05-29 21:50:00","56939","1.088","61.91","2.058","63.6","NAN","NAN","NAN","NAN","NAN"],
    [1555950,"2026-05-29 22:00:00","56940","0.8109999999999999","60.46","1.666","57.32","NAN","NAN","NAN","NAN","NAN"],
    [1555951,"2026-05-29 22:10:00","56941","0.981","64.57","2.352","60.78","NAN","NAN","NAN","NAN","NAN"],
    [1555952,"2026-05-29 22:20:00","56942","0.545","64.57","1.307","63.79","NAN","NAN","NAN","NAN","NAN"],
    [1555953,"2026-05-29 22:30:00","56943","0.242","66.31","0.849","67.42","NAN","NAN","NAN","NAN","NAN"],
    [1555954,"2026-05-29 22:40:00","56944","0.235","68.38","0.784","68.24","NAN","NAN","NAN","NAN","NAN"],
    [1555955,"2026-05-29 22:50:00","56945","0.287","76.12","0.947","77.05","NAN","NAN","NAN","NAN","NAN"],
    [1555956,"2026-05-29 23:00:00","56946","0.586","79.71","1.405","81.4","NAN","NAN","NAN","NAN","NAN"],
    [1555957,"2026-05-29 23:10:00","56947","0.45299999999999996","81.3","1.437","81.4","NAN","NAN","NAN","NAN","NAN"],
    [1555958,"2026-05-29 23:20:00","56948","0.5670000000000001","81.8","1.111","82.1","NAN","NAN","NAN","NAN","NAN"],
    [1555959,"2026-05-29 23:30:00","56949","0.564","82.5","1.307","82.5","NAN","NAN","NAN","NAN","NAN"],
    [1555960,"2026-05-29 23:40:00","56950","1.1320000000000001","79.91","1.993","78.26","NAN","NAN","NAN","NAN","NAN"],
    [1555961,"2026-05-29 23:50:00","56951","0.9079999999999999","79.37","1.699","76.85","NAN","NAN","NAN","NAN","NAN"],
    [1555962,"2026-05-30 00:00:00","56952","1.218","79.83","1.764","82.2","NAN","NAN","NAN","NAN","NAN"],
    [1555963,"2026-05-30 00:10:00","56953","1.038","80.2","1.503","82.2","NAN","NAN","NAN","NAN","NAN"],
    [1555964,"2026-05-30 00:20:00","56954","0.368","76.26","0.947","76.37","NAN","NAN","NAN","NAN","NAN"],
    [1555965,"2026-05-30 00:30:00","56955","0.514","76.82","1.47","75.75","NAN","NAN","NAN","NAN","NAN"],
    [1555966,"2026-05-30 00:40:00","56956","0.8029999999999999","76.8","1.47","75.41","NAN","NAN","NAN","NAN","NAN"],
    [1555967,"2026-05-30 00:50:00","56957","0.898","76.5","1.339","75.6","NAN","NAN","NAN","NAN","NAN"],
    [1555968,"2026-05-30 01:00:00","56958","0.797","76.44","1.437","76.5","NAN","NAN","NAN","NAN","NAN"],
    [1555969,"2026-05-30 01:10:00","56959","0.061","76.18","0.49","75.41","NAN","NAN","NAN","NAN","NAN"],
    [1555970,"2026-05-30 01:20:00","56960","0.062","74.86","0.425","74.84","NAN","NAN","NAN","NAN","NAN"],
    [1555971,"2026-05-30 01:30:00","56961","0.013000000000000001","77.29","0.457","78.49","NAN","NAN","NAN","NAN","NAN"],
    [1555972,"2026-05-30 01:40:00","56962","0.222","81.4","1.307","78.49","NAN","NAN","NAN","NAN","NAN"],
    [1555973,"2026-05-30 01:50:00","56963","0.37799999999999995","81.3","1.274","80.9","NAN","NAN","NAN","NAN","NAN"],
    [1555974,"2026-05-30 02:00:00","56964","0.506","78.76","1.274","77.54","NAN","NAN","NAN","NAN","NAN"],
    [1555975,"2026-05-30 02:10:00","56965","0.051","77.1","0.686","76.48","NAN","NAN","NAN","NAN","NAN"],
    [1555976,"2026-05-30 02:20:00","56966","0.003","75.12","0.229","75.12","NAN","NAN","NAN","NAN","NAN"],
    [1555977,"2026-05-30 02:30:00","56967","0.28300000000000003","74.8","0.686","74.84","NAN","NAN","NAN","NAN","NAN"],
    [1555978,"2026-05-30 02:40:00","56968","0.408","73.87","0.849","74.16","NAN","NAN","NAN","NAN","NAN"],
    [1555979,"2026-05-30 02:50:00","56969","0.382","78.08","0.882","82.2","NAN","NAN","NAN","NAN","NAN"],
    [1555980,"2026-05-30 03:00:00","56970","0.381","78.06","0.98","73.78","NAN","NAN","NAN","NAN","NAN"],
    [1555981,"2026-05-30 03:10:00","56971","0.6459999999999999","76.03","1.143","73.39","NAN","NAN","NAN","NAN","NAN"],
    [1555982,"2026-05-30 03:20:00","56972","0.39799999999999996","79.26","1.078","72.72","NAN","NAN","NAN","NAN","NAN"],
    [1555983,"2026-05-30 03:30:00","56973","0.126","82.7","0.555","82.7","NAN","NAN","NAN","NAN","NAN"],
    [1555984,"2026-05-30 03:40:00","56974","0.10400000000000001","82.7","0.425","82.7","NAN","NAN","NAN","NAN","NAN"],
    [1555985,"2026-05-30 03:50:00","56975","0.0","0.0","0","0","NAN","NAN","NAN","NAN","NAN"],
    [1555986,"2026-05-30 04:00:00","56976","0.204","83.1","0.719","83.1","NAN","NAN","NAN","NAN","NAN"],
    [1555987,"2026-05-30 04:10:00","56977","0.466","83.2","0.915","83.3","NAN","NAN","NAN","NAN","NAN"],
    [1555988,"2026-05-30 04:20:00","56978","0.62","83.4","1.503","83.7","NAN","NAN","NAN","NAN","NAN"],
    [1555989,"2026-05-30 04:30:00","56979","0.259","83.7","0.915","83.7","NAN","NAN","NAN","NAN","NAN"],
    [1555990,"2026-05-30 04:40:00","56980","0.154","83.8","1.013","83.8","NAN","NAN","NAN","NAN","NAN"],
    [1555991,"2026-05-30 04:50:00","56981","0.21100000000000002","83.9","0.915","83.9","NAN","NAN","NAN","NAN","NAN"],
    [1555992,"2026-05-30 05:00:00","56982","0.542","83.6","1.274","83.9","NAN","NAN","NAN","NAN","NAN"],
    [1555993,"2026-05-30 05:10:00","56983","1.266","82.0","2.417","84.3","NAN","NAN","NAN","NAN","NAN"],
    [1555994,"2026-05-30 05:20:00","56984","0.6579999999999999","84.4","1.797","84.9","NAN","NAN","NAN","NAN","NAN"],
    [1555995,"2026-05-30 05:30:00","56985","1.1740000000000002","83.3","2.319","72.94","NAN","NAN","NAN","NAN","NAN"],
    [1555996,"2026-05-30 05:40:00","56986","1.255","76.59","2.613","70.4","NAN","NAN","NAN","NAN","NAN"],
    [1555997,"2026-05-30 05:50:00","56987","1.3030000000000002","68.33","2.221","69.26","NAN","NAN","NAN","NAN","NAN"],
    [1555998,"2026-05-30 06:00:00","56988","1.492","68.78","2.254","65.82","NAN","NAN","NAN","NAN","NAN"],
    [1555999,"2026-05-30 06:10:00","56989","1.859","71.71","2.842","72.84","NAN","NAN","NAN","NAN","NAN"],
    [1556000,"2026-05-30 06:20:00","56990","1.9380000000000002","71.2","2.907","71.21","NAN","NAN","NAN","NAN","NAN"],
    [1556001,"2026-05-30 06:30:00","56991","2.25","67.97","3.169","67.35","NAN","NAN","NAN","NAN","NAN"],
    [1556002,"2026-05-30 06:40:00","56992","2.516","70.24","3.365","67.97","NAN","NAN","NAN","NAN","NAN"],
    [1556003,"2026-05-30 06:50:00","56993","2.1719999999999997","68.49","3.365","69.64","NAN","NAN","NAN","NAN","NAN"],
    [1556004,"2026-05-30 07:00:00","56994","1.646","65.18","3.071","56.74","NAN","NAN","NAN","NAN","NAN"],
    [1556005,"2026-05-30 07:10:00","56995","1.963","71.46","3.724","64.01","NAN","NAN","NAN","NAN","NAN"],
    [1556006,"2026-05-30 07:20:00","56996","2.0709999999999997","69.17","3.005","71.23","NAN","NAN","NAN","NAN","NAN"],
    [1556007,"2026-05-30 07:30:00","56997","1.614","73.86","2.385","76.27","NAN","NAN","NAN","NAN","NAN"],
    [1556008,"2026-05-30 07:40:00","56998","2.004","75.86","3.103","67.44","NAN","NAN","NAN","NAN","NAN"],
    [1556009,"2026-05-30 07:50:00","56999","2.323","90.4","3.463","89.9","NAN","NAN","NAN","NAN","NAN"],
    [1556010,"2026-05-30 08:00:00","57000","1.814","95.1","2.809","89.8","NAN","NAN","NAN","NAN","NAN"],
    [1556011,"2026-05-30 08:10:00","57001","2.367","94.6","3.365","95.9","NAN","NAN","NAN","NAN","NAN"],
    [1556012,"2026-05-30 08:20:00","57002","2.1959999999999997","98.2","3.789","92","NAN","NAN","NAN","NAN","NAN"],
    [1556013,"2026-05-30 08:30:00","57003","2.58","95.9","3.887","99.8","NAN","NAN","NAN","NAN","NAN"],
    [1556014,"2026-05-30 08:40:00","57004","2.765","98.6","4.377","95.5","NAN","NAN","NAN","NAN","NAN"],
    [1556015,"2026-05-30 08:50:00","57005","2.425","105.1","4.345","120.6","NAN","NAN","NAN","NAN","NAN"],
    [1556016,"2026-05-30 09:00:00","57006","2.5660000000000003","115.5","4.508","118.3","NAN","NAN","NAN","NAN","NAN"],
    [1556017,"2026-05-30 09:10:00","57007","2.575","116.0","3.953","117.4","NAN","NAN","NAN","NAN","NAN"],
    [1556018,"2026-05-30 09:20:00","57008","2.625","112.5","4.181","111.1","NAN","NAN","NAN","NAN","NAN"],
    [1556019,"2026-05-30 09:30:00","57009","2.605","110.0","4.41","90.3","NAN","NAN","NAN","NAN","NAN"],
    [1556020,"2026-05-30 09:40:00","57010","2.9619999999999997","115.9","4.541","133.3","NAN","NAN","NAN","NAN","NAN"],
    [1556021,"2026-05-30 09:50:00","57011","2.7060000000000004","104.5","4.279","106.7","NAN","NAN","NAN","NAN","NAN"],
    [1556022,"2026-05-30 10:00:00","57012","3.014","110.5","4.541","114.3","NAN","NAN","NAN","NAN","NAN"],
    [1556023,"2026-05-30 10:10:00","57013","3.264","110.3","4.639","119.2","NAN","NAN","NAN","NAN","NAN"],
    [1556024,"2026-05-30 10:20:00","57014","3.042","105.9","4.247","100.2","NAN","NAN","NAN","NAN","NAN"],
    [1556025,"2026-05-30 10:30:00","57015","2.948","111.1","4.279","100.7","NAN","NAN","NAN","NAN","NAN"],
    [1556026,"2026-05-30 10:40:00","57016","2.838","113.5","4.998","127.3","NAN","NAN","NAN","NAN","NAN"],
    [1556027,"2026-05-30 10:50:00","57017","3.12","122.1","4.345","113.7","NAN","NAN","NAN","NAN","NAN"],
    [1556028,"2026-05-30 11:00:00","57018","3.298","124.0","4.573","132.6","NAN","NAN","NAN","NAN","NAN"],
    [1556029,"2026-05-30 11:10:00","57019","2.793","111.8","4.083","131.9","NAN","NAN","NAN","NAN","NAN"],
    [1556030,"2026-05-30 11:20:00","57020","3.372","107.2","4.508","115.2","NAN","NAN","NAN","NAN","NAN"],
    [1556031,"2026-05-30 11:30:00","57021","3.7310000000000003","110.1","5.063","114.6","NAN","NAN","NAN","NAN","NAN"],
    [1556032,"2026-05-30 11:40:00","57022","3.372","112.5","4.9","110.1","NAN","NAN","NAN","NAN","NAN"],
    [1556033,"2026-05-30 11:50:00","57023","2.907","115.2","4.541","111.2","NAN","NAN","NAN","NAN","NAN"],
    [1556034,"2026-05-30 12:00:00","57024","3.005","114.5","4.606","122.9","NAN","NAN","NAN","NAN","NAN"],
    [1556035,"2026-05-30 12:10:00","57025","2.967","98.4","4.835","90","NAN","NAN","NAN","NAN","NAN"],
    [1556036,"2026-05-30 12:20:00","57026","2.7769999999999997","106.2","4.377","123.3","NAN","NAN","NAN","NAN","NAN"],
    [1556037,"2026-05-30 12:30:00","57027","2.925","92.3","4.377","87.9","NAN","NAN","NAN","NAN","NAN"],
    [1556038,"2026-05-30 12:40:00","57028","2.714","94.5","4.802","100.8","NAN","NAN","NAN","NAN","NAN"],
    [1556039,"2026-05-30 12:50:00","57029","3.14","95.5","4.671","92.1","NAN","NAN","NAN","NAN","NAN"],
    [1556040,"2026-05-30 13:00:00","57030","3.03","94.4","4.737","105","NAN","NAN","NAN","NAN","NAN"],
    [1556041,"2026-05-30 13:10:00","57031","2.4019999999999997","106.9","3.985","112.6","NAN","NAN","NAN","NAN","NAN"],
    [1556042,"2026-05-30 13:20:00","57032","2.8110000000000004","111.9","4.475","137","NAN","NAN","NAN","NAN","NAN"],
    [1556043,"2026-05-30 13:30:00","57033","2.736","106.4","4.475","100.2","NAN","NAN","NAN","NAN","NAN"],
    [1556044,"2026-05-30 13:40:00","57034","2.7969999999999997","105.5","4.737","102","NAN","NAN","NAN","NAN","NAN"],
    [1556045,"2026-05-30 13:50:00","57035","2.71","113.0","4.116","130.8","NAN","NAN","NAN","NAN","NAN"],
    [1556046,"2026-05-30 14:00:00","57036","2.792","118.3","5.259","122.6","NAN","NAN","NAN","NAN","NAN"],
    [1556047,"2026-05-30 14:10:00","57037","2.818","105.9","4.639","98.2","NAN","NAN","NAN","NAN","NAN"],
    [1556048,"2026-05-30 14:20:00","57038","2.6","92.0","4.671","102.3","NAN","NAN","NAN","NAN","NAN"],
    [1556049,"2026-05-30 14:30:00","57039","2.714","99.9","4.051","99.7","NAN","NAN","NAN","NAN","NAN"],
    [1556050,"2026-05-30 14:40:00","57040","2.7739999999999996","109.1","4.312","114.9","NAN","NAN","NAN","NAN","NAN"],
    [1556051,"2026-05-30 14:50:00","57041","2.8569999999999998","107.9","4.051","100.9","NAN","NAN","NAN","NAN","NAN"],
    [1556052,"2026-05-30 15:00:00","57042","2.6","105.7","4.116","99.3","NAN","NAN","NAN","NAN","NAN"],
    [1556053,"2026-05-30 15:10:00","57043","2.9589999999999996","104.8","5.031","107.3","NAN","NAN","NAN","NAN","NAN"],
    [1556054,"2026-05-30 15:20:00","57044","2.701","99.5","4.573","97.5","NAN","NAN","NAN","NAN","NAN"],
    [1556055,"2026-05-30 15:30:00","57045","2.536","93.9","4.051","100","NAN","NAN","NAN","NAN","NAN"],
    [1556056,"2026-05-30 15:40:00","57046","2.366","80.3","4.312","64.41","NAN","NAN","NAN","NAN","NAN"],
    [1556057,"2026-05-30 15:50:00","57047","2.843","81.9","4.214","63.32","NAN","NAN","NAN","NAN","NAN"],
    [1556058,"2026-05-30 16:00:00","57048","2.457","108.8","3.659","122.1","NAN","NAN","NAN","NAN","NAN"],
    [1556059,"2026-05-30 16:10:00","57049","2.872","105.0","4.116","109.4","NAN","NAN","NAN","NAN","NAN"],
    [1556060,"2026-05-30 16:20:00","57050","2.081","95.7","3.822","101.1","NAN","NAN","NAN","NAN","NAN"],
    [1556061,"2026-05-30 16:30:00","57051","1.776","95.6","2.94","95.8","NAN","NAN","NAN","NAN","NAN"],
    [1556062,"2026-05-30 16:40:00","57052","2.19","107.5","3.43","113.3","NAN","NAN","NAN","NAN","NAN"],
    [1556063,"2026-05-30 16:50:00","57053","2.219","103.2","3.43","111.9","NAN","NAN","NAN","NAN","NAN"],
    [1556064,"2026-05-30 17:00:00","57054","1.9709999999999999","103.9","3.593","111.8","NAN","NAN","NAN","NAN","NAN"],
    [1556065,"2026-05-30 17:10:00","57055","2.025","87.9","3.332","93.4","NAN","NAN","NAN","NAN","NAN"],
    [1556066,"2026-05-30 17:20:00","57056","1.7719999999999998","79.54","3.299","69.79","NAN","NAN","NAN","NAN","NAN"],
    [1556067,"2026-05-30 17:30:00","57057","2.309","69.52","3.365","72.69","NAN","NAN","NAN","NAN","NAN"],
    [1556068,"2026-05-30 17:40:00","57058","1.795","65.6","3.038","67.24","NAN","NAN","NAN","NAN","NAN"],
    [1556069,"2026-05-30 17:50:00","57059","1.7280000000000002","71.97","2.711","67.61","NAN","NAN","NAN","NAN","NAN"],
    [1556070,"2026-05-30 18:00:00","57060","2.094","76.94","2.973","64.8","NAN","NAN","NAN","NAN","NAN"],
    [1556071,"2026-05-30 18:10:00","57061","1.829","67.49","2.646","66.12","NAN","NAN","NAN","NAN","NAN"],
    [1556072,"2026-05-30 18:20:00","57062","1.53","64.5","2.417","69.12","NAN","NAN","NAN","NAN","NAN"],
    [1556073,"2026-05-30 18:30:00","57063","2.005","65.69","2.777","66.07","NAN","NAN","NAN","NAN","NAN"],
    [1556074,"2026-05-30 18:40:00","57064","1.609","63.47","2.548","61.07","NAN","NAN","NAN","NAN","NAN"],
    [1556075,"2026-05-30 18:50:00","57065","0.978","65.19","1.895","70.5","NAN","NAN","NAN","NAN","NAN"],
    [1556076,"2026-05-30 19:00:00","57066","0.349","65.32","0.882","66.11","NAN","NAN","NAN","NAN","NAN"],
    [1556077,"2026-05-30 19:10:00","57067","0.17","67.73","0.555","64.86","NAN","NAN","NAN","NAN","NAN"],
    [1556078,"2026-05-30 19:20:00","57068","0.6759999999999999","66.28","1.535","66.46","NAN","NAN","NAN","NAN","NAN"],
    [1556079,"2026-05-30 19:30:00","57069","0.5579999999999999","72.47","1.568","70.98","NAN","NAN","NAN","NAN","NAN"],
    [1556080,"2026-05-30 19:40:00","57070","0.265","79.81","0.784","82.8","NAN","NAN","NAN","NAN","NAN"],
    [1556081,"2026-05-30 19:50:00","57071","0.27","85.0","1.143","84.5","NAN","NAN","NAN","NAN","NAN"],
    [1556082,"2026-05-30 20:00:00","57072","0.0","0.0","0","0","NAN","NAN","NAN","NAN","NAN"],
    [1556083,"2026-05-30 20:10:00","57073","0.013999999999999999","85.4","0.327","85.5","NAN","NAN","NAN","NAN","NAN"],
    [1556084,"2026-05-30 20:20:00","57074","0.001","85.5","0.196","85.5","NAN","NAN","NAN","NAN","NAN"],
    [1556085,"2026-05-30 20:30:00","57075","0.0","0.0","0","0","NAN","NAN","NAN","NAN","NAN"],
    [1556086,"2026-05-30 20:40:00","57076","0.0","0.0","0","0","NAN","NAN","NAN","NAN","NAN"],
    [1556087,"2026-05-30 20:50:00","57077","0.105","85.7","1.045","85.7","NAN","NAN","NAN","NAN","NAN"],
    [1556088,"2026-05-30 21:00:00","57078","0.741","86.7","1.633","85.9","NAN","NAN","NAN","NAN","NAN"],
    [1556089,"2026-05-30 21:10:00","57079","0.215","141.6","1.078","132.4","NAN","NAN","NAN","NAN","NAN"],
    [1556090,"2026-05-30 21:20:00","57080","1.318","205.1","2.515","205.6","NAN","NAN","NAN","NAN","NAN"],
    [1556091,"2026-05-30 21:30:00","57081","1.43","205.3","2.254","208.6","NAN","NAN","NAN","NAN","NAN"],
    [1556092,"2026-05-30 21:40:00","57082","0.604","199.9","1.372","204.2","NAN","NAN","NAN","NAN","NAN"],
    [1556093,"2026-05-30 21:50:00","57083","0.995","202.6","2.091","203.6","NAN","NAN","NAN","NAN","NAN"],
    [1556094,"2026-05-30 22:00:00","57084","1.28","203.4","2.221","207","NAN","NAN","NAN","NAN","NAN"],
    [1556095,"2026-05-30 22:10:00","57085","0.722","199.1","1.568","201.2","NAN","NAN","NAN","NAN","NAN"],
    [1556096,"2026-05-30 22:20:00","57086","0.44299999999999995","207.3","1.503","208.6","NAN","NAN","NAN","NAN","NAN"],
    [1556097,"2026-05-30 22:30:00","57087","0.701","208.4","1.666","207.9","NAN","NAN","NAN","NAN","NAN"],
    [1556098,"2026-05-30 22:40:00","57088","0.14800000000000002","210.4","1.535","207.8","NAN","NAN","NAN","NAN","NAN"],
    [1556099,"2026-05-30 22:50:00","57089","0.17","209.3","0.686","210.8","NAN","NAN","NAN","NAN","NAN"],
    [1556100,"2026-05-30 23:00:00","57090","0.07400000000000001","211.2","0.98","211.2","NAN","NAN","NAN","NAN","NAN"],
    [1556101,"2026-05-30 23:10:00","57091","0.008","211.5","0.229","211.5","NAN","NAN","NAN","NAN","NAN"],
    [1556102,"2026-05-30 23:20:00","57092","0.10800000000000001","211.9","0.653","211.9","NAN","NAN","NAN","NAN","NAN"],
    [1556103,"2026-05-30 23:30:00","57093","0.413","212.3","0.849","212","NAN","NAN","NAN","NAN","NAN"],
    [1556104,"2026-05-30 23:40:00","57094","0.0","0.0","0","0","NAN","NAN","NAN","NAN","NAN"],
    [1556105,"2026-05-30 23:50:00","57095","0.0","0.0","0","0","NAN","NAN","NAN","NAN","NAN"],
    [1556106,"2026-05-31 00:00:00","57096","0.0","0.0","0","0","NAN","NAN","NAN","NAN","NAN"],
    [1556107,"2026-05-31 00:10:00","57097","0.0","0.0","0","0","NAN","NAN","NAN","NAN","NAN"],
    [1556108,"2026-05-31 00:20:00","57098","0.132","212.7","0.751","212.8","NAN","NAN","NAN","NAN","NAN"],
    [1556109,"2026-05-31 00:30:00","57099","0.679","212.9","1.405","212.9","NAN","NAN","NAN","NAN","NAN"],
    [1556110,"2026-05-31 00:40:00","57100","0.152","213.0","0.751","213","NAN","NAN","NAN","NAN","NAN"],
    [1556111,"2026-05-31 00:50:00","57101","0.621","213.2","1.274","213.6","NAN","NAN","NAN","NAN","NAN"],
    [1556112,"2026-05-31 01:00:00","57102","0.583","214.6","1.307","213.7","NAN","NAN","NAN","NAN","NAN"],
    [1556113,"2026-05-31 01:10:00","57103","0.8540000000000001","215.9","1.47","216.1","NAN","NAN","NAN","NAN","NAN"],
    [1556114,"2026-05-31 01:20:00","57104","0.23199999999999998","217.0","0.784","217","NAN","NAN","NAN","NAN","NAN"],
    [1556115,"2026-05-31 01:30:00","57105","0.009000000000000001","217.0","0.229","217","NAN","NAN","NAN","NAN","NAN"],
    [1556116,"2026-05-31 01:40:00","57106","0.34299999999999997","217.0","0.915","217","NAN","NAN","NAN","NAN","NAN"],
    [1556117,"2026-05-31 01:50:00","57107","0.586","217.0","1.111","217.2","NAN","NAN","NAN","NAN","NAN"],
    [1556118,"2026-05-31 02:00:00","57108","0.7440000000000001","217.3","1.372","217.3","NAN","NAN","NAN","NAN","NAN"],
    [1556119,"2026-05-31 02:10:00","57109","0.312","217.5","0.751","217.6","NAN","NAN","NAN","NAN","NAN"],
    [1556120,"2026-05-31 02:20:00","57110","0.45399999999999996","218.7","1.274","219.4","NAN","NAN","NAN","NAN","NAN"],
    [1556121,"2026-05-31 02:30:00","57111","0.772","227.8","1.895","229","NAN","NAN","NAN","NAN","NAN"],
    [1556122,"2026-05-31 02:40:00","57112","1.122","238.5","2.221","232.2","NAN","NAN","NAN","NAN","NAN"],
    [1556123,"2026-05-31 02:50:00","57113","1.034","243.0","1.764","242.2","NAN","NAN","NAN","NAN","NAN"],
    [1556124,"2026-05-31 03:00:00","57114","1.2770000000000001","250.5","2.809","257.5","NAN","NAN","NAN","NAN","NAN"],
    [1556125,"2026-05-31 03:10:00","57115","1.6340000000000001","261.8","2.613","259.5","NAN","NAN","NAN","NAN","NAN"],
    [1556126,"2026-05-31 03:20:00","57116","1.508","264.2","2.613","263.9","NAN","NAN","NAN","NAN","NAN"],
    [1556127,"2026-05-31 03:30:00","57117","1.361","263.1","2.417","260.8","NAN","NAN","NAN","NAN","NAN"],
    [1556128,"2026-05-31 03:40:00","57118","1.247","264.2","2.45","264.7","NAN","NAN","NAN","NAN","NAN"],
    [1556129,"2026-05-31 03:50:00","57119","1.1909999999999998","265.6","2.287","265.7","NAN","NAN","NAN","NAN","NAN"],
    [1556130,"2026-05-31 04:00:00","57120","1.129","266.1","1.797","266","NAN","NAN","NAN","NAN","NAN"],
    [1556131,"2026-05-31 04:10:00","57121","0.976","266.2","2.058","266.2","NAN","NAN","NAN","NAN","NAN"],
    [1556132,"2026-05-31 04:20:00","57122","0.36200000000000004","266.2","1.731","266.2","NAN","NAN","NAN","NAN","NAN"],
    [1556133,"2026-05-31 04:30:00","57123","0.06","266.2","0.555","266.2","NAN","NAN","NAN","NAN","NAN"],
    [1556134,"2026-05-31 04:40:00","57124","0.857","266.2","1.96","266.3","NAN","NAN","NAN","NAN","NAN"],
    [1556135,"2026-05-31 04:50:00","57125","0.7879999999999999","264.6","1.699","261.3","NAN","NAN","NAN","NAN","NAN"],
    [1556136,"2026-05-31 05:00:00","57126","0.484","266.1","1.241","266","NAN","NAN","NAN","NAN","NAN"],
    [1556137,"2026-05-31 05:10:00","57127","0.028999999999999998","265.2","0.359","266","NAN","NAN","NAN","NAN","NAN"],
    [1556138,"2026-05-31 05:20:00","57128","0.0","0.0","0","0","NAN","NAN","NAN","NAN","NAN"],
    [1556139,"2026-05-31 05:30:00","57129","0.0","0.0","0","0","NAN","NAN","NAN","NAN","NAN"],
    [1556140,"2026-05-31 05:40:00","57130","0.006999999999999999","263.0","0.327","262.2","NAN","NAN","NAN","NAN","NAN"],
    [1556141,"2026-05-31 05:50:00","57131","0.145","264.9","1.339","266.6","NAN","NAN","NAN","NAN","NAN"],
    [1556142,"2026-05-31 06:00:00","57132","0.409","266.7","1.339","266.9","NAN","NAN","NAN","NAN","NAN"],
    [1556143,"2026-05-31 06:10:00","57133","0.368","265.7","1.405","260.1","NAN","NAN","NAN","NAN","NAN"],
    [1556144,"2026-05-31 06:20:00","57134","1.102","260.4","1.731","268.5","NAN","NAN","NAN","NAN","NAN"],
    [1556145,"2026-05-31 06:30:00","57135","0.946","254.6","1.895","267.6","NAN","NAN","NAN","NAN","NAN"],
    [1556146,"2026-05-31 06:40:00","57136","0.6409999999999999","268.2","1.437","269.4","NAN","NAN","NAN","NAN","NAN"],
    [1556147,"2026-05-31 06:50:00","57137","0.91","150.0","1.993","245","NAN","NAN","NAN","NAN","NAN"],
    [1556148,"2026-05-31 07:00:00","57138","0.9129999999999999","121.3","1.96","122","NAN","NAN","NAN","NAN","NAN"],
    [1556149,"2026-05-31 07:10:00","57139","1.209","109.9","2.254","108.6","NAN","NAN","NAN","NAN","NAN"],
    [1556150,"2026-05-31 07:20:00","57140","1.1079999999999999","104.8","1.993","104.1","NAN","NAN","NAN","NAN","NAN"],
    [1556151,"2026-05-31 07:30:00","57141","1.3869999999999998","96.8","2.123","94.9","NAN","NAN","NAN","NAN","NAN"],
    [1556152,"2026-05-31 07:40:00","57142","1.508","91.9","2.123","93.1","NAN","NAN","NAN","NAN","NAN"],
    [1556153,"2026-05-31 07:50:00","57143","1.443","87.7","2.189","91.2","NAN","NAN","NAN","NAN","NAN"],
    [1556154,"2026-05-31 08:00:00","57144","1.7380000000000002","85.2","2.581","84.3","NAN","NAN","NAN","NAN","NAN"],
    [1556155,"2026-05-31 08:10:00","57145","2.0069999999999997","80.9","3.169","72.56","NAN","NAN","NAN","NAN","NAN"],
    [1556156,"2026-05-31 08:20:00","57146","2.23","95.7","3.234","92.6","NAN","NAN","NAN","NAN","NAN"],
    [1556157,"2026-05-31 08:30:00","57147","2.1830000000000003","97.3","3.234","93.1","NAN","NAN","NAN","NAN","NAN"],
    [1556158,"2026-05-31 08:40:00","57148","2.154","98.5","3.528","88.6","NAN","NAN","NAN","NAN","NAN"],
    [1556159,"2026-05-31 08:50:00","57149","2.0140000000000002","103.0","3.136","100.7","NAN","NAN","NAN","NAN","NAN"],
    [1556160,"2026-05-31 09:00:00","57150","2.416","110.2","3.985","95.9","NAN","NAN","NAN","NAN","NAN"],
    [1556161,"2026-05-31 09:10:00","57151","2.188","111.4","3.626","113.4","NAN","NAN","NAN","NAN","NAN"],
    [1556162,"2026-05-31 09:20:00","57152","2.785","117.8","4.214","118.1","NAN","NAN","NAN","NAN","NAN"],
    [1556163,"2026-05-31 09:30:00","57153","2.845","100.1","4.051","101.1","NAN","NAN","NAN","NAN","NAN"],
    [1556164,"2026-05-31 09:40:00","57154","3.0580000000000003","123.1","5.488","146.3","NAN","NAN","NAN","NAN","NAN"],
    [1556165,"2026-05-31 09:50:00","57155","3.2689999999999997","131.3","5.194","135.5","NAN","NAN","NAN","NAN","NAN"],
    [1556166,"2026-05-31 10:00:00","57156","3.557","130.4","4.867","129.4","NAN","NAN","NAN","NAN","NAN"],
    [1556167,"2026-05-31 10:10:00","57157","3.0639999999999996","135.7","4.508","135.2","NAN","NAN","NAN","NAN","NAN"],
    [1556168,"2026-05-31 10:20:00","57158","2.9589999999999996","136.8","4.639","135.4","NAN","NAN","NAN","NAN","NAN"],
    [1556169,"2026-05-31 10:30:00","57159","2.826","125.0","4.214","107.6","NAN","NAN","NAN","NAN","NAN"],
    [1556170,"2026-05-31 10:40:00","57160","2.898","121.7","4.149","132.2","NAN","NAN","NAN","NAN","NAN"],
    [1556171,"2026-05-31 10:50:00","57161","2.727","115.0","4.116","103.9","NAN","NAN","NAN","NAN","NAN"],
    [1556172,"2026-05-31 11:00:00","57162","2.6010000000000004","125.5","4.149","136.4","NAN","NAN","NAN","NAN","NAN"],
    [1556173,"2026-05-31 11:10:00","57163","2.978","130.4","4.965","140.7","NAN","NAN","NAN","NAN","NAN"],
    [1556174,"2026-05-31 11:20:00","57164","3.2230000000000003","130.4","4.541","135.5","NAN","NAN","NAN","NAN","NAN"],
    [1556175,"2026-05-31 11:30:00","57165","3.036","158.0","4.606","137.7","NAN","NAN","NAN","NAN","NAN"],
    [1556176,"2026-05-31 11:40:00","57166","3.406","144.7","4.933","142","NAN","NAN","NAN","NAN","NAN"],
    [1556177,"2026-05-31 11:50:00","57167","3.358","147.6","4.802","138","NAN","NAN","NAN","NAN","NAN"],
    [1556178,"2026-05-31 12:00:00","57168","3.2110000000000003","156.5","4.802","159.6","NAN","NAN","NAN","NAN","NAN"],
    [1556179,"2026-05-31 12:10:00","57169","3.472","163.7","5.39","168.2","NAN","NAN","NAN","NAN","NAN"],
    [1556180,"2026-05-31 12:20:00","57170","2.9160000000000004","162.9","4.965","160.6","NAN","NAN","NAN","NAN","NAN"],
    [1556181,"2026-05-31 12:30:00","57171","3.043","148.5","5.586","139.9","NAN","NAN","NAN","NAN","NAN"],
    [1556182,"2026-05-31 12:40:00","57172","3.5439999999999996","154.0","5.292","136.9","NAN","NAN","NAN","NAN","NAN"],
    [1556183,"2026-05-31 12:50:00","57173","3.4410000000000003","163.5","5.096","161.6","NAN","NAN","NAN","NAN","NAN"],
    [1556184,"2026-05-31 13:00:00","57174","3.217","152.9","5.88","130.8","NAN","NAN","NAN","NAN","NAN"],
    [1556185,"2026-05-31 13:10:00","57175","3.716","150.3","5.815","131.4","NAN","NAN","NAN","NAN","NAN"],
    [1556186,"2026-05-31 13:20:00","57176","3.5660000000000003","153.9","5.815","131.4","NAN","NAN","NAN","NAN","NAN"],
    [1556187,"2026-05-31 13:30:00","57177","3.2689999999999997","151.4","4.737","163","NAN","NAN","NAN","NAN","NAN"],
    [1556188,"2026-05-31 13:40:00","57178","4.17","140.1","6.076","142.6","NAN","NAN","NAN","NAN","NAN"],
    [1556189,"2026-05-31 13:50:00","57179","3.609","139.9","5.913","126.1","NAN","NAN","NAN","NAN","NAN"],
    [1556190,"2026-05-31 14:00:00","57180","3.8989999999999996","132.2","5.749","120.7","NAN","NAN","NAN","NAN","NAN"],
    [1556191,"2026-05-31 14:10:00","57181","3.387","146.1","5.88","149.4","NAN","NAN","NAN","NAN","NAN"],
    [1556192,"2026-05-31 14:20:00","57182","3.392","143.8","5.096","131.3","NAN","NAN","NAN","NAN","NAN"],
    [1556193,"2026-05-31 14:30:00","57183","3.742","136.9","5.031","125.3","NAN","NAN","NAN","NAN","NAN"],
    [1556194,"2026-05-31 14:40:00","57184","3.892","138.9","5.553","135.9","NAN","NAN","NAN","NAN","NAN"],
    [1556195,"2026-05-31 14:50:00","57185","3.455","154.6","5.619","167","NAN","NAN","NAN","NAN","NAN"],
    [1556196,"2026-05-31 15:00:00","57186","2.9419999999999997","160.0","4.704","125","NAN","NAN","NAN","NAN","NAN"],
    [1556197,"2026-05-31 15:10:00","57187","2.9589999999999996","162.0","5.259","130.4","NAN","NAN","NAN","NAN","NAN"],
    [1556198,"2026-05-31 15:20:00","57188","3.073","149.5","5.096","143","NAN","NAN","NAN","NAN","NAN"],
    [1556199,"2026-05-31 15:30:00","57189","2.932","145.2","4.41","156.4","NAN","NAN","NAN","NAN","NAN"],
    [1556200,"2026-05-31 15:40:00","57190","2.7560000000000002","148.3","4.606","161.4","NAN","NAN","NAN","NAN","NAN"],
    [1556201,"2026-05-31 15:50:00","57191","2.6719999999999997","129.7","4.312","111.4","NAN","NAN","NAN","NAN","NAN"],
    [1556202,"2026-05-31 16:00:00","57192","3.1010000000000004","156.7","5.39","156.9","NAN","NAN","NAN","NAN","NAN"],
    [1556203,"2026-05-31 16:10:00","57193","2.1790000000000003","187.6","4.018","194.5","NAN","NAN","NAN","NAN","NAN"],
    [1556204,"2026-05-31 16:20:00","57194","2.6","210.2","4.377","218.4","NAN","NAN","NAN","NAN","NAN"],
    [1556205,"2026-05-31 16:30:00","57195","2.049","187.0","4.051","182.8","NAN","NAN","NAN","NAN","NAN"],
    [1556206,"2026-05-31 16:40:00","57196","1.7990000000000002","189.1","3.234","190.3","NAN","NAN","NAN","NAN","NAN"],
    [1556207,"2026-05-31 16:50:00","57197","2.227","211.0","3.691","240.3","NAN","NAN","NAN","NAN","NAN"],
    [1556208,"2026-05-31 17:00:00","57198","2.694","202.8","4.541","227.1","NAN","NAN","NAN","NAN","NAN"],
    [1556209,"2026-05-31 17:10:00","57199","2.064","216.6","3.626","227.3","NAN","NAN","NAN","NAN","NAN"],
    [1556210,"2026-05-31 17:20:00","57200","2.503","213.0","3.757","208.5","NAN","NAN","NAN","NAN","NAN"],
    [1556211,"2026-05-31 17:30:00","57201","2.205","202.4","4.083","210.1","NAN","NAN","NAN","NAN","NAN"],
    [1556212,"2026-05-31 17:40:00","57202","2.114","207.4","3.463","212.5","NAN","NAN","NAN","NAN","NAN"],
    [1556213,"2026-05-31 17:50:00","57203","1.944","207.1","3.267","203.6","NAN","NAN","NAN","NAN","NAN"],
    [1556214,"2026-05-31 18:00:00","57204","1.8359999999999999","187.8","3.495","183.6","NAN","NAN","NAN","NAN","NAN"],
    [1556215,"2026-05-31 18:10:00","57205","1.6480000000000001","196.2","3.005","182.2","NAN","NAN","NAN","NAN","NAN"],
    [1556216,"2026-05-31 18:20:00","57206","1.8","205.0","3.267","207","NAN","NAN","NAN","NAN","NAN"],
    [1556217,"2026-05-31 18:30:00","57207","1.3530000000000002","197.8","2.613","206.1","NAN","NAN","NAN","NAN","NAN"],
    [1556218,"2026-05-31 18:40:00","57208","1.8359999999999999","200.9","3.365","208.9","NAN","NAN","NAN","NAN","NAN"],
    [1556219,"2026-05-31 18:50:00","57209","2.073","205.9","3.365","203.1","NAN","NAN","NAN","NAN","NAN"],
    [1556220,"2026-05-31 19:00:00","57210","1.966","207.9","2.809","216.7","NAN","NAN","NAN","NAN","NAN"],
    [1556221,"2026-05-31 19:10:00","57211","1.663","207.6","2.744","208.4","NAN","NAN","NAN","NAN","NAN"],
    [1556222,"2026-05-31 19:20:00","57212","1.709","203.8","2.744","200.7","NAN","NAN","NAN","NAN","NAN"],
    [1556223,"2026-05-31 19:30:00","57213","0.7090000000000001","204.1","1.993","203","NAN","NAN","NAN","NAN","NAN"],
    [1556224,"2026-05-31 19:40:00","57214","0.753","192.0","1.797","190","NAN","NAN","NAN","NAN","NAN"],
    [1556225,"2026-05-31 19:50:00","57215","0.94","192.9","1.829","189.4","NAN","NAN","NAN","NAN","NAN"],
    [1556226,"2026-05-31 20:00:00","57216","0.9620000000000001","203.3","1.895","208","NAN","NAN","NAN","NAN","NAN"],
    [1556227,"2026-05-31 20:10:00","57217","1.57","208.9","2.875","208.4","NAN","NAN","NAN","NAN","NAN"],
    [1556228,"2026-05-31 20:20:00","57218","0.396","202.5","1.013","201.8","NAN","NAN","NAN","NAN","NAN"],
    [1556229,"2026-05-31 20:30:00","57219","1.536","189.3","2.417","185.2","NAN","NAN","NAN","NAN","NAN"],
    [1556230,"2026-05-31 20:40:00","57220","0.852","183.7","2.221","188.4","NAN","NAN","NAN","NAN","NAN"],
    [1556231,"2026-05-31 20:50:00","57221","0.765","180.6","2.123","179.2","NAN","NAN","NAN","NAN","NAN"],
    [1556232,"2026-05-31 21:00:00","57222","0.49200000000000005","178.8","2.156","179","NAN","NAN","NAN","NAN","NAN"],
    [1556233,"2026-05-31 21:10:00","57223","0.8390000000000001","165.4","1.699","162.6","NAN","NAN","NAN","NAN","NAN"],
    [1556234,"2026-05-31 21:20:00","57224","1.788","149.8","2.646","142.2","NAN","NAN","NAN","NAN","NAN"],
    [1556235,"2026-05-31 21:30:00","57225","1.531","148.9","2.45","157.6","NAN","NAN","NAN","NAN","NAN"],
    [1556236,"2026-05-31 21:40:00","57226","1.056","134.6","2.025","131.9","NAN","NAN","NAN","NAN","NAN"],
    [1556237,"2026-05-31 21:50:00","57227","0.902","131.1","1.47","131.1","NAN","NAN","NAN","NAN","NAN"],
    [1556238,"2026-05-31 22:00:00","57228","0.732","131.8","1.568","134.7","NAN","NAN","NAN","NAN","NAN"],
    [1556239,"2026-05-31 22:10:00","57229","1.0490000000000002","137.6","1.764","142","NAN","NAN","NAN","NAN","NAN"],
    [1556240,"2026-05-31 22:20:00","57230","0.615","137.4","1.405","136.1","NAN","NAN","NAN","NAN","NAN"],
    [1556241,"2026-05-31 22:30:00","57231","0.498","135.1","1.045","135.2","NAN","NAN","NAN","NAN","NAN"],
    [1556242,"2026-05-31 22:40:00","57232","0.667","142.5","1.241","143.9","NAN","NAN","NAN","NAN","NAN"],
    [1556243,"2026-05-31 22:50:00","57233","0.648","146.1","1.372","145.5","NAN","NAN","NAN","NAN","NAN"],
    [1556244,"2026-05-31 23:00:00","57234","0.945","149.7","1.633","149.8","NAN","NAN","NAN","NAN","NAN"],
    [1556245,"2026-05-31 23:10:00","57235","0.171","156.4","1.339","158.8","NAN","NAN","NAN","NAN","NAN"],
    [1556246,"2026-05-31 23:20:00","57236","0.633","160.3","1.47","160.2","NAN","NAN","NAN","NAN","NAN"],
    [1556247,"2026-05-31 23:30:00","57237","0.19","160.6","0.784","160.5","NAN","NAN","NAN","NAN","NAN"],
    [1556248,"2026-05-31 23:40:00","57238","0.261","160.6","0.751","160.6","NAN","NAN","NAN","NAN","NAN"],
    [1556249,"2026-05-31 23:50:00","57239","0.335","160.6","0.849","160.6","NAN","NAN","NAN","NAN","NAN"],
    [1556250,"2026-06-01 00:00:00","57240","0.207","160.5","0.817","160.6","NAN","NAN","NAN","NAN","NAN"],
    [1556251,"2026-06-01 00:10:00","57241","0.48700000000000004","159.2","1.013","155.4","NAN","NAN","NAN","NAN","NAN"],
    [1556252,"2026-06-01 00:20:00","57242","0.3","141.6","0.98","155.1","NAN","NAN","NAN","NAN","NAN"],
    [1556253,"2026-06-01 00:30:00","57243","0.073","133.3","0.555","133.8","NAN","NAN","NAN","NAN","NAN"],
    [1556254,"2026-06-01 00:40:00","57244","0.001","132.6","0.163","132.6","NAN","NAN","NAN","NAN","NAN"],
    [1556255,"2026-06-01 00:50:00","57245","0.055","132.1","0.392","131.9","NAN","NAN","NAN","NAN","NAN"],
    [1556256,"2026-06-01 01:00:00","57246","0.257","124.3","1.176","118.8","NAN","NAN","NAN","NAN","NAN"],
    [1556257,"2026-06-01 01:10:00","57247","0.9640000000000001","108.6","1.535","107","NAN","NAN","NAN","NAN","NAN"],
    [1556258,"2026-06-01 01:20:00","57248","1.493","98.5","2.515","86.7","NAN","NAN","NAN","NAN","NAN"],
    [1556259,"2026-06-01 01:30:00","57249","2.191","73.53","3.495","81.1","NAN","NAN","NAN","NAN","NAN"],
    [1556260,"2026-06-01 01:40:00","57250","2.333","65.38","4.051","63.73","NAN","NAN","NAN","NAN","NAN"],
    [1556261,"2026-06-01 01:50:00","57251","1.521","60.16","2.548","68.42","NAN","NAN","NAN","NAN","NAN"],
    [1556262,"2026-06-01 02:00:00","57252","1.402","64.38","2.744","69.28","NAN","NAN","NAN","NAN","NAN"],
    [1556263,"2026-06-01 02:10:00","57253","1.2690000000000001","66.87","3.038","51.48","NAN","NAN","NAN","NAN","NAN"],
    [1556264,"2026-06-01 02:20:00","57254","1.952","66.41","4.018","40.26","NAN","NAN","NAN","NAN","NAN"],
    [1556265,"2026-06-01 02:30:00","57255","1.835","79.62","5.357","73.27","NAN","NAN","NAN","NAN","NAN"],
    [1556266,"2026-06-01 02:40:00","57256","2.434","69.4","4.704","56","NAN","NAN","NAN","NAN","NAN"],
    [1556267,"2026-06-01 02:50:00","57257","2.156","65.78","3.985","58.95","NAN","NAN","NAN","NAN","NAN"],
    [1556268,"2026-06-01 03:00:00","57258","1.851","56.94","3.528","28.41","NAN","NAN","NAN","NAN","NAN"],
    [1556269,"2026-06-01 03:10:00","57259","2.1390000000000002","58.89","4.345","65.88","NAN","NAN","NAN","NAN","NAN"],
    [1556270,"2026-06-01 03:20:00","57260","2.2430000000000003","75.83","3.953","63.2","NAN","NAN","NAN","NAN","NAN"],
    [1556271,"2026-06-01 03:30:00","57261","2.7230000000000003","89.5","5.161","87.5","NAN","NAN","NAN","NAN","NAN"],
    [1556272,"2026-06-01 03:40:00","57262","3.214","92.5","4.9","88.7","NAN","NAN","NAN","NAN","NAN"],
    [1556273,"2026-06-01 03:50:00","57263","2.986","90.9","4.671","94","NAN","NAN","NAN","NAN","NAN"],
    [1556274,"2026-06-01 04:00:00","57264","2.924","87.7","5.031","68.61","NAN","NAN","NAN","NAN","NAN"],
    [1556275,"2026-06-01 04:10:00","57265","2.489","76.41","6.109","102.5","NAN","NAN","NAN","NAN","NAN"],
    [1556276,"2026-06-01 04:20:00","57266","2.109","60.63","3.887","62.57","NAN","NAN","NAN","NAN","NAN"],
    [1556277,"2026-06-01 04:30:00","57267","1.3330000000000002","65.57","3.038","50.25","NAN","NAN","NAN","NAN","NAN"],
    [1556278,"2026-06-01 04:40:00","57268","1.538","80.2","2.94","87.6","NAN","NAN","NAN","NAN","NAN"],
    [1556279,"2026-06-01 04:50:00","57269","2.209","77.57","3.626","77.98","NAN","NAN","NAN","NAN","NAN"],
    [1556280,"2026-06-01 05:00:00","57270","1.965","86.4","3.169","68.64","NAN","NAN","NAN","NAN","NAN"],
    [1556281,"2026-06-01 05:10:00","57271","1.527","88.3","3.103","93.3","NAN","NAN","NAN","NAN","NAN"],
    [1556282,"2026-06-01 05:20:00","57272","1.6119999999999999","88.6","2.777","91.8","NAN","NAN","NAN","NAN","NAN"],
    [1556283,"2026-06-01 05:30:00","57273","1.7990000000000002","90.9","3.071","93.9","NAN","NAN","NAN","NAN","NAN"],
    [1556284,"2026-06-01 05:40:00","57274","1.8730000000000002","92.4","3.528","90.4","NAN","NAN","NAN","NAN","NAN"],
    [1556285,"2026-06-01 05:50:00","57275","2.13","88.7","3.169","84.5","NAN","NAN","NAN","NAN","NAN"],
    [1556286,"2026-06-01 06:00:00","57276","1.7369999999999999","89.6","3.299","95.7","NAN","NAN","NAN","NAN","NAN"],
    [1556287,"2026-06-01 06:10:00","57277","2.112","90.4","3.561","95.1","NAN","NAN","NAN","NAN","NAN"],
    [1556288,"2026-06-01 06:20:00","57278","2.003","83.5","3.463","88.9","NAN","NAN","NAN","NAN","NAN"],
    [1556289,"2026-06-01 06:30:00","57279","1.828","91.3","3.005","87.4","NAN","NAN","NAN","NAN","NAN"],
    [1556290,"2026-06-01 06:40:00","57280","2.063","91.3","3.495","81.4","NAN","NAN","NAN","NAN","NAN"],
    [1556291,"2026-06-01 06:50:00","57281","1.746","77.37","3.234","72.91","NAN","NAN","NAN","NAN","NAN"],
    [1556292,"2026-06-01 07:00:00","57282","1.9869999999999999","78.05","3.071","71.58","NAN","NAN","NAN","NAN","NAN"],
    [1556293,"2026-06-01 07:10:00","57283","1.2930000000000001","99.5","2.679","111.9","NAN","NAN","NAN","NAN","NAN"],
    [1556294,"2026-06-01 07:20:00","57284","1.871","104.4","2.842","94.7","NAN","NAN","NAN","NAN","NAN"],
    [1556295,"2026-06-01 07:30:00","57285","1.7630000000000001","115.1","2.842","117.5","NAN","NAN","NAN","NAN","NAN"],
    [1556296,"2026-06-01 07:40:00","57286","1.791","121.5","3.038","128.3","NAN","NAN","NAN","NAN","NAN"],
    [1556297,"2026-06-01 07:50:00","57287","2.377","127.2","3.789","135","NAN","NAN","NAN","NAN","NAN"],
    [1556298,"2026-06-01 08:00:00","57288","2.6210000000000004","151.4","3.953","172.6","NAN","NAN","NAN","NAN","NAN"],
    [1556299,"2026-06-01 08:10:00","57289","2.6260000000000003","144.6","4.606","163","NAN","NAN","NAN","NAN","NAN"],
    [1556300,"2026-06-01 08:20:00","57290","2.892","168.5","5.488","153.8","NAN","NAN","NAN","NAN","NAN"],
    [1556301,"2026-06-01 08:30:00","57291","3.1","132.8","5.161","137.1","NAN","NAN","NAN","NAN","NAN"],
    [1556302,"2026-06-01 08:40:00","57292","3.1010000000000004","142.0","5.488","152.7","NAN","NAN","NAN","NAN","NAN"],
    [1556303,"2026-06-01 08:50:00","57293","2.715","169.7","4.737","173.3","NAN","NAN","NAN","NAN","NAN"],
    [1556304,"2026-06-01 09:00:00","57294","2.52","196.5","4.606","213.1","NAN","NAN","NAN","NAN","NAN"],
    [1556305,"2026-06-01 09:10:00","57295","2.7260000000000004","200.9","5.455","151.4","NAN","NAN","NAN","NAN","NAN"],
    [1556306,"2026-06-01 09:20:00","57296","2.576","189.0","6.043","165.3","NAN","NAN","NAN","NAN","NAN"],
    [1556307,"2026-06-01 09:30:00","57297","3.072","183.1","5.521","186.8","NAN","NAN","NAN","NAN","NAN"],
    [1556308,"2026-06-01 09:40:00","57298","3.0660000000000003","211.3","6.631","249.8","NAN","NAN","NAN","NAN","NAN"],
    [1556309,"2026-06-01 09:50:00","57299","3.6460000000000004","187.6","6.403","167.1","NAN","NAN","NAN","NAN","NAN"],
    [1556310,"2026-06-01 10:00:00","57300","3.315","182.9","5.749","160.4","NAN","NAN","NAN","NAN","NAN"],
    [1556311,"2026-06-01 10:10:00","57301","3.049","206.4","6.109","160.7","NAN","NAN","NAN","NAN","NAN"],
    [1556312,"2026-06-01 10:20:00","57302","2.715","188.3","5.488","220.2","NAN","NAN","NAN","NAN","NAN"],
    [1556313,"2026-06-01 10:30:00","57303","3.159","185.1","5.619","187.3","NAN","NAN","NAN","NAN","NAN"],
    [1556314,"2026-06-01 10:40:00","57304","3.5660000000000003","196.3","6.337","171.5","NAN","NAN","NAN","NAN","NAN"],
    [1556315,"2026-06-01 10:50:00","57305","3.62","204.9","6.697","181.2","NAN","NAN","NAN","NAN","NAN"],
    [1556316,"2026-06-01 11:00:00","57306","2.7489999999999997","199.5","5.194","209.3","NAN","NAN","NAN","NAN","NAN"],
    [1556317,"2026-06-01 11:10:00","57307","4.059","198.8","6.076","174.8","NAN","NAN","NAN","NAN","NAN"],
    [1556318,"2026-06-01 11:20:00","57308","3.7539999999999996","206.8","7.056","215.2","NAN","NAN","NAN","NAN","NAN"],
    [1556319,"2026-06-01 11:30:00","57309","3.9139999999999997","197.4","6.043","214.9","NAN","NAN","NAN","NAN","NAN"],
    [1556320,"2026-06-01 11:40:00","57310","4.5569999999999995","205.4","7.35","229.8","NAN","NAN","NAN","NAN","NAN"],
    [1556321,"2026-06-01 11:50:00","57311","3.926","198.1","6.925","214.5","NAN","NAN","NAN","NAN","NAN"],
    [1556322,"2026-06-01 12:00:00","57312","4.002","200.7","7.677","223.3","NAN","NAN","NAN","NAN","NAN"],
    [1556323,"2026-06-01 12:10:00","57313","4.033","197.3","6.795","180.2","NAN","NAN","NAN","NAN","NAN"],
    [1556324,"2026-06-01 12:20:00","57314","4.28","195.5","7.121","159.6","NAN","NAN","NAN","NAN","NAN"],
    [1556325,"2026-06-01 12:30:00","57315","4.271","200.2","7.383","211.2","NAN","NAN","NAN","NAN","NAN"],
    [1556326,"2026-06-01 12:40:00","57316","3.623","202.5","6.599","227.9","NAN","NAN","NAN","NAN","NAN"],
    [1556327,"2026-06-01 12:50:00","57317","4.546","207.9","9.31","215.6","NAN","NAN","NAN","NAN","NAN"],
    [1556328,"2026-06-01 13:00:00","57318","4.206","208.8","6.86","227.9","NAN","NAN","NAN","NAN","NAN"],
    [1556329,"2026-06-01 13:10:00","57319","4.021","197.5","8.36","209","NAN","NAN","NAN","NAN","NAN"],
    [1556330,"2026-06-01 13:20:00","57320","5.127000000000001","208.8","8.17","231.3","NAN","NAN","NAN","NAN","NAN"],
    [1556331,"2026-06-01 13:30:00","57321","5.297000000000001","216.7","8.36","219.7","NAN","NAN","NAN","NAN","NAN"],
    [1556332,"2026-06-01 13:40:00","57322","4.781000000000001","214.4","7.546","216.5","NAN","NAN","NAN","NAN","NAN"],
    [1556333,"2026-06-01 13:50:00","57323","4.981","203.4","8.1","210.8","NAN","NAN","NAN","NAN","NAN"],
    [1556334,"2026-06-01 14:00:00","57324","4.012","208.4","7.219","238.8","NAN","NAN","NAN","NAN","NAN"],
    [1556335,"2026-06-01 14:10:00","57325","4.186","205.7","6.729","207.8","NAN","NAN","NAN","NAN","NAN"],
    [1556336,"2026-06-01 14:20:00","57326","3.484","199.5","6.37","226.6","NAN","NAN","NAN","NAN","NAN"],
    [1556337,"2026-06-01 14:30:00","57327","3.532","201.8","7.415","216.7","NAN","NAN","NAN","NAN","NAN"],
    [1556338,"2026-06-01 14:40:00","57328","3.6060000000000003","201.8","6.729","211","NAN","NAN","NAN","NAN","NAN"],
    [1556339,"2026-06-01 14:50:00","57329","3.752","197.1","7.219","209.8","NAN","NAN","NAN","NAN","NAN"],
    [1556340,"2026-06-01 15:00:00","57330","3.7119999999999997","201.8","6.239","229.8","NAN","NAN","NAN","NAN","NAN"],
    [1556341,"2026-06-01 15:10:00","57331","4.03","206.7","7.905","210.7","NAN","NAN","NAN","NAN","NAN"],
    [1556342,"2026-06-01 15:20:00","57332","4.52","209.0","7.579","214.1","NAN","NAN","NAN","NAN","NAN"],
    [1556343,"2026-06-01 15:30:00","57333","4.777","206.5","7.513","214.3","NAN","NAN","NAN","NAN","NAN"],
    [1556344,"2026-06-01 15:40:00","57334","3.918","206.7","6.566","210.2","NAN","NAN","NAN","NAN","NAN"],
    [1556345,"2026-06-01 15:50:00","57335","3.793","208.4","7.481","218.5","NAN","NAN","NAN","NAN","NAN"],
    [1556346,"2026-06-01 16:00:00","57336","3.755","204.1","6.174","222.8","NAN","NAN","NAN","NAN","NAN"],
    [1556347,"2026-06-01 16:10:00","57337","3.778","203.4","6.435","201.2","NAN","NAN","NAN","NAN","NAN"],
    [1556348,"2026-06-01 16:20:00","57338","3.4219999999999997","200.6","7.219","175.8","NAN","NAN","NAN","NAN","NAN"],
    [1556349,"2026-06-01 16:30:00","57339","2.833","195.9","5.357","194.7","NAN","NAN","NAN","NAN","NAN"],
    [1556350,"2026-06-01 16:40:00","57340","3.679","216.1","6.729","224.7","NAN","NAN","NAN","NAN","NAN"],
    [1556351,"2026-06-01 16:50:00","57341","3.5869999999999997","210.2","6.925","226","NAN","NAN","NAN","NAN","NAN"],
    [1556352,"2026-06-01 17:00:00","57342","3.562","201.3","6.076","169.9","NAN","NAN","NAN","NAN","NAN"],
    [1556353,"2026-06-01 17:10:00","57343","2.915","196.9","5.88","214.1","NAN","NAN","NAN","NAN","NAN"],
    [1556354,"2026-06-01 17:20:00","57344","3.489","227.5","6.141","251.6","NAN","NAN","NAN","NAN","NAN"],
    [1556355,"2026-06-01 17:30:00","57345","2.971","209.5","6.37","217.2","NAN","NAN","NAN","NAN","NAN"],
    [1556356,"2026-06-01 17:40:00","57346","3.537","221.6","5.945","229.9","NAN","NAN","NAN","NAN","NAN"],
    [1556357,"2026-06-01 17:50:00","57347","3.562","214.5","5.88","198.9","NAN","NAN","NAN","NAN","NAN"],
    [1556358,"2026-06-01 18:00:00","57348","3.7710000000000004","222.9","6.762","216.2","NAN","NAN","NAN","NAN","NAN"],
    [1556359,"2026-06-01 18:10:00","57349","3.213","219.1","6.043","249.4","NAN","NAN","NAN","NAN","NAN"],
    [1556360,"2026-06-01 18:20:00","57350","3.613","222.0","5.913","233.9","NAN","NAN","NAN","NAN","NAN"],
    [1556361,"2026-06-01 18:30:00","57351","2.9810000000000003","218.3","5.292","241.8","NAN","NAN","NAN","NAN","NAN"],
    [1556362,"2026-06-01 18:40:00","57352","2.1180000000000003","213.9","4.573","205.2","NAN","NAN","NAN","NAN","NAN"],
    [1556363,"2026-06-01 18:50:00","57353","2.738","213.5","4.737","205.2","NAN","NAN","NAN","NAN","NAN"],
    [1556364,"2026-06-01 19:00:00","57354","2.821","208.7","4.737","218.5","NAN","NAN","NAN","NAN","NAN"],
    [1556365,"2026-06-01 19:10:00","57355","2.835","209.8","4.639","203.9","NAN","NAN","NAN","NAN","NAN"],
    [1556366,"2026-06-01 19:20:00","57356","2.508","208.1","4.083","206.8","NAN","NAN","NAN","NAN","NAN"],
    [1556367,"2026-06-01 19:30:00","57357","2.447","214.5","4.312","210.3","NAN","NAN","NAN","NAN","NAN"],
    [1556368,"2026-06-01 19:40:00","57358","2.563","215.5","4.933","215.7","NAN","NAN","NAN","NAN","NAN"],
    [1556369,"2026-06-01 19:50:00","57359","2.59","207.3","3.92","220.2","NAN","NAN","NAN","NAN","NAN"],
    [1556370,"2026-06-01 20:00:00","57360","2.276","209.1","3.887","216.9","NAN","NAN","NAN","NAN","NAN"],
    [1556371,"2026-06-01 20:10:00","57361","2.465","216.6","3.789","222.4","NAN","NAN","NAN","NAN","NAN"],
    [1556372,"2026-06-01 20:20:00","57362","2.414","213.8","4.051","206.5","NAN","NAN","NAN","NAN","NAN"],
    [1556373,"2026-06-01 20:30:00","57363","2.181","210.0","3.267","204.7","NAN","NAN","NAN","NAN","NAN"],
    [1556374,"2026-06-01 20:40:00","57364","2.627","207.5","3.953","219.9","NAN","NAN","NAN","NAN","NAN"],
    [1556375,"2026-06-01 20:50:00","57365","2.075","212.6","3.365","225.5","NAN","NAN","NAN","NAN","NAN"],
    [1556376,"2026-06-01 21:00:00","57366","2.362","209.8","3.724","216.9","NAN","NAN","NAN","NAN","NAN"],
    [1556377,"2026-06-01 21:10:00","57367","2.509","207.0","3.626","216.2","NAN","NAN","NAN","NAN","NAN"],
    [1556378,"2026-06-01 21:20:00","57368","2.339","207.3","3.495","209.1","NAN","NAN","NAN","NAN","NAN"],
    [1556379,"2026-06-01 21:30:00","57369","2.343","209.2","3.397","214.1","NAN","NAN","NAN","NAN","NAN"],
    [1556380,"2026-06-01 21:40:00","57370","2.668","208.9","3.626","213.7","NAN","NAN","NAN","NAN","NAN"],
    [1556381,"2026-06-01 21:50:00","57371","2.592","210.9","3.757","212.3","NAN","NAN","NAN","NAN","NAN"],
    [1556382,"2026-06-01 22:00:00","57372","2.125","208.3","3.626","211.2","NAN","NAN","NAN","NAN","NAN"],
    [1556383,"2026-06-01 22:10:00","57373","2.386","207.4","4.051","210.2","NAN","NAN","NAN","NAN","NAN"],
    [1556384,"2026-06-01 22:20:00","57374","2.3080000000000003","211.6","3.495","212.4","NAN","NAN","NAN","NAN","NAN"],
    [1556385,"2026-06-01 22:30:00","57375","1.742","224.5","3.299","236.8","NAN","NAN","NAN","NAN","NAN"],
    [1556386,"2026-06-01 22:40:00","57376","1.43","233.9","2.94","242","NAN","NAN","NAN","NAN","NAN"],
    [1556387,"2026-06-01 22:50:00","57377","2.158","232.5","4.083","229.4","NAN","NAN","NAN","NAN","NAN"],
    [1556388,"2026-06-01 23:00:00","57378","2.295","242.1","3.92","243.2","NAN","NAN","NAN","NAN","NAN"],
    [1556389,"2026-06-01 23:10:00","57379","2.2230000000000003","245.1","3.495","246.8","NAN","NAN","NAN","NAN","NAN"],
    [1556390,"2026-06-01 23:20:00","57380","1.929","244.4","3.038","248.7","NAN","NAN","NAN","NAN","NAN"],
    [1556391,"2026-06-01 23:30:00","57381","2.229","245.3","3.234","246.4","NAN","NAN","NAN","NAN","NAN"],
    [1556392,"2026-06-01 23:40:00","57382","2.329","254.3","3.757","260.6","NAN","NAN","NAN","NAN","NAN"],
    [1556393,"2026-06-01 23:50:00","57383","1.425","243.4","2.777","260.2","NAN","NAN","NAN","NAN","NAN"],
    [1556394,"2026-06-02 00:00:00","57384","2.03","246.8","3.495","243.1","NAN","NAN","NAN","NAN","NAN"],
    [1556395,"2026-06-02 00:10:00","57385","1.8659999999999999","245.0","3.136","245.4","NAN","NAN","NAN","NAN","NAN"],
    [1556396,"2026-06-02 00:20:00","57386","2.182","249.5","3.201","253","NAN","NAN","NAN","NAN","NAN"],
    [1556397,"2026-06-02 00:30:00","57387","2.151","254.1","3.659","257","NAN","NAN","NAN","NAN","NAN"],
    [1556398,"2026-06-02 00:40:00","57388","0.765","240.2","3.038","246","NAN","NAN","NAN","NAN","NAN"],
    [1556399,"2026-06-02 00:50:00","57389","1.3630000000000002","233.2","3.659","218.7","NAN","NAN","NAN","NAN","NAN"],
    [1556400,"2026-06-02 01:00:00","57390","1.933","246.2","3.332","251.2","NAN","NAN","NAN","NAN","NAN"],
    [1556401,"2026-06-02 01:10:00","57391","1.577","240.8","2.973","238.4","NAN","NAN","NAN","NAN","NAN"],
    [1556402,"2026-06-02 01:20:00","57392","1.8459999999999999","240.6","2.875","231.5","NAN","NAN","NAN","NAN","NAN"],
    [1556403,"2026-06-02 01:30:00","57393","1.04","244.6","1.993","231.3","NAN","NAN","NAN","NAN","NAN"],
    [1556404,"2026-06-02 01:40:00","57394","1.4","248.1","2.221","246.2","NAN","NAN","NAN","NAN","NAN"],
    [1556405,"2026-06-02 01:50:00","57395","0.595","250.4","1.666","250.4","NAN","NAN","NAN","NAN","NAN"],
    [1556406,"2026-06-02 02:00:00","57396","0.52","251.0","1.535","251.3","NAN","NAN","NAN","NAN","NAN"],
    [1556407,"2026-06-02 02:10:00","57397","0.9420000000000001","252.6","1.601","252.6","NAN","NAN","NAN","NAN","NAN"],
    [1556408,"2026-06-02 02:20:00","57398","0.905","252.2","1.47","252.7","NAN","NAN","NAN","NAN","NAN"],
    [1556409,"2026-06-02 02:30:00","57399","1.015","252.7","1.601","252.8","NAN","NAN","NAN","NAN","NAN"],
    [1556410,"2026-06-02 02:40:00","57400","1.022","252.8","2.025","253.1","NAN","NAN","NAN","NAN","NAN"],
    [1556411,"2026-06-02 02:50:00","57401","0.978","253.3","1.633","253.4","NAN","NAN","NAN","NAN","NAN"],
    [1556412,"2026-06-02 03:00:00","57402","1.08","253.6","1.568","253.6","NAN","NAN","NAN","NAN","NAN"],
    [1556413,"2026-06-02 03:10:00","57403","1.551","249.6","2.515","240.1","NAN","NAN","NAN","NAN","NAN"],
    [1556414,"2026-06-02 03:20:00","57404","1.567","248.2","2.417","248.4","NAN","NAN","NAN","NAN","NAN"],
    [1556415,"2026-06-02 03:30:00","57405","0.872","251.8","1.699","254","NAN","NAN","NAN","NAN","NAN"],
    [1556416,"2026-06-02 03:40:00","57406","1.09","254.2","2.156","254.3","NAN","NAN","NAN","NAN","NAN"],
    [1556417,"2026-06-02 03:50:00","57407","1.244","254.6","1.862","254.7","NAN","NAN","NAN","NAN","NAN"],
    [1556418,"2026-06-02 04:00:00","57408","0.955","258.2","2.711","268.1","NAN","NAN","NAN","NAN","NAN"],
    [1556419,"2026-06-02 04:10:00","57409","1.6159999999999999","274.3","2.744","277.2","NAN","NAN","NAN","NAN","NAN"],
    [1556420,"2026-06-02 04:20:00","57410","1.4709999999999999","271.4","2.221","276.7","NAN","NAN","NAN","NAN","NAN"],
    [1556421,"2026-06-02 04:30:00","57411","1.535","270.2","2.352","275.1","NAN","NAN","NAN","NAN","NAN"],
    [1556422,"2026-06-02 04:40:00","57412","1.246","274.7","2.483","279","NAN","NAN","NAN","NAN","NAN"],
    [1556423,"2026-06-02 04:50:00","57413","0.988","277.5","1.862","273.6","NAN","NAN","NAN","NAN","NAN"],
    [1556424,"2026-06-02 05:00:00","57414","0.925","274.0","1.895","274.1","NAN","NAN","NAN","NAN","NAN"],
    [1556425,"2026-06-02 05:10:00","57415","0.884","271.8","1.731","272.1","NAN","NAN","NAN","NAN","NAN"],
    [1556426,"2026-06-02 05:20:00","57416","0.9329999999999999","272.1","1.797","277.6","NAN","NAN","NAN","NAN","NAN"],
    [1556427,"2026-06-02 05:30:00","57417","0.9159999999999999","267.9","1.699","263.8","NAN","NAN","NAN","NAN","NAN"],
    [1556428,"2026-06-02 05:40:00","57418","1.281","269.4","2.123","267.2","NAN","NAN","NAN","NAN","NAN"],
    [1556429,"2026-06-02 05:50:00","57419","1.298","257.9","2.319","270.9","NAN","NAN","NAN","NAN","NAN"],
    [1556430,"2026-06-02 06:00:00","57420","1.101","260.2","2.221","268.9","NAN","NAN","NAN","NAN","NAN"],
    [1556431,"2026-06-02 06:10:00","57421","1.136","268.6","2.189","264.4","NAN","NAN","NAN","NAN","NAN"],
    [1556432,"2026-06-02 06:20:00","57422","1.067","270.5","2.091","266.6","NAN","NAN","NAN","NAN","NAN"],
    [1556433,"2026-06-02 06:30:00","57423","1.31","271.9","2.254","272","NAN","NAN","NAN","NAN","NAN"],
    [1556434,"2026-06-02 06:40:00","57424","1.82","271.6","3.365","289.8","NAN","NAN","NAN","NAN","NAN"],
    [1556435,"2026-06-02 06:50:00","57425","1.911","258.1","3.757","257.1","NAN","NAN","NAN","NAN","NAN"],
    [1556436,"2026-06-02 07:00:00","57426","1.318","260.2","2.973","268","NAN","NAN","NAN","NAN","NAN"],
    [1556437,"2026-06-02 07:10:00","57427","1.726","269.9","3.103","269","NAN","NAN","NAN","NAN","NAN"],
    [1556438,"2026-06-02 07:20:00","57428","1.6219999999999999","249.7","3.626","265.6","NAN","NAN","NAN","NAN","NAN"],
    [1556439,"2026-06-02 07:30:00","57429","2.176","242.0","3.887","243.1","NAN","NAN","NAN","NAN","NAN"],
    [1556440,"2026-06-02 07:40:00","57430","1.671","239.1","2.973","237.8","NAN","NAN","NAN","NAN","NAN"],
    [1556441,"2026-06-02 07:50:00","57431","1.797","218.9","3.659","206.3","NAN","NAN","NAN","NAN","NAN"],
    [1556442,"2026-06-02 08:00:00","57432","1.232","224.5","2.744","214.4","NAN","NAN","NAN","NAN","NAN"],
    [1556443,"2026-06-02 08:10:00","57433","1.047","233.7","3.071","248.5","NAN","NAN","NAN","NAN","NAN"],
    [1556444,"2026-06-02 08:20:00","57434","1.153","237.5","3.626","230.6","NAN","NAN","NAN","NAN","NAN"],
    [1556445,"2026-06-02 08:30:00","57435","0.941","235.8","3.071","221.2","NAN","NAN","NAN","NAN","NAN"],
    [1556446,"2026-06-02 08:40:00","57436","2.804","201.4","4.312","211.7","NAN","NAN","NAN","NAN","NAN"],
    [1556447,"2026-06-02 08:50:00","57437","2.7769999999999997","191.2","4.312","179.9","NAN","NAN","NAN","NAN","NAN"],
    [1556448,"2026-06-02 09:00:00","57438","2.895","199.9","5.129","164.8","NAN","NAN","NAN","NAN","NAN"],
    [1556449,"2026-06-02 09:10:00","57439","2.66","204.3","4.933","213.7","NAN","NAN","NAN","NAN","NAN"],
    [1556450,"2026-06-02 09:20:00","57440","2.3169999999999997","190.9","4.541","174.3","NAN","NAN","NAN","NAN","NAN"],
    [1556451,"2026-06-02 09:30:00","57441","2.548","198.3","4.802","218.4","NAN","NAN","NAN","NAN","NAN"],
    [1556452,"2026-06-02 09:40:00","57442","2.9389999999999996","181.8","4.965","179.4","NAN","NAN","NAN","NAN","NAN"],
    [1556453,"2026-06-02 09:50:00","57443","2.714","191.0","4.639","164.4","NAN","NAN","NAN","NAN","NAN"],
    [1556454,"2026-06-02 10:00:00","57444","2.906","181.6","4.671","174.3","NAN","NAN","NAN","NAN","NAN"],
    [1556455,"2026-06-02 10:10:00","57445","2.5669999999999997","192.3","4.573","176.6","NAN","NAN","NAN","NAN","NAN"],
    [1556456,"2026-06-02 10:20:00","57446","2.8169999999999997","194.4","5.717","172.5","NAN","NAN","NAN","NAN","NAN"],
    [1556457,"2026-06-02 10:30:00","57447","3.1889999999999996","170.9","4.769","159.8","NAN","NAN","NAN","NAN","NAN"],
    [1556458,"2026-06-02 10:40:00","57448","3.035","181.6","4.802","162","NAN","NAN","NAN","NAN","NAN"],
    [1556459,"2026-06-02 10:50:00","57449","2.593","188.7","4.704","161.1","NAN","NAN","NAN","NAN","NAN"],
    [1556460,"2026-06-02 11:00:00","57450","2.653","187.3","5.619","171.4","NAN","NAN","NAN","NAN","NAN"],
    [1556461,"2026-06-02 11:10:00","57451","2.9210000000000003","199.8","5.227","227.9","NAN","NAN","NAN","NAN","NAN"],
    [1556462,"2026-06-02 11:20:00","57452","2.8339999999999996","175.9","5.455","174.9","NAN","NAN","NAN","NAN","NAN"],
    [1556463,"2026-06-02 11:30:00","57453","3.5469999999999997","172.1","6.599","156.6","NAN","NAN","NAN","NAN","NAN"],
    [1556464,"2026-06-02 11:40:00","57454","3.511","167.8","5.488","169.4","NAN","NAN","NAN","NAN","NAN"],
    [1556465,"2026-06-02 11:50:00","57455","2.176","191.4","3.985","158.5","NAN","NAN","NAN","NAN","NAN"],
    [1556466,"2026-06-02 12:00:00","57456","3.326","168.0","5.39","174.5","NAN","NAN","NAN","NAN","NAN"],
    [1556467,"2026-06-02 12:10:00","57457","3.719","161.0","6.305","162.5","NAN","NAN","NAN","NAN","NAN"],
    [1556468,"2026-06-02 12:20:00","57458","2.9760000000000004","175.7","4.769","173.1","NAN","NAN","NAN","NAN","NAN"],
    [1556469,"2026-06-02 12:30:00","57459","3.516","171.3","5.357","180.8","NAN","NAN","NAN","NAN","NAN"],
    [1556470,"2026-06-02 12:40:00","57460","3.55","161.2","6.076","163.2","NAN","NAN","NAN","NAN","NAN"],
    [1556471,"2026-06-02 12:50:00","57461","3.865","161.7","5.684","179.8","NAN","NAN","NAN","NAN","NAN"],
    [1556472,"2026-06-02 13:00:00","57462","4.0489999999999995","165.1","5.88","146.2","NAN","NAN","NAN","NAN","NAN"],
    [1556473,"2026-06-02 13:10:00","57463","3.612","161.6","5.063","157.2","NAN","NAN","NAN","NAN","NAN"],
    [1556474,"2026-06-02 13:20:00","57464","3.4560000000000004","151.3","5.063","133.7","NAN","NAN","NAN","NAN","NAN"],
    [1556475,"2026-06-02 13:30:00","57465","3.1189999999999998","160.6","4.671","165.6","NAN","NAN","NAN","NAN","NAN"],
    [1556476,"2026-06-02 13:40:00","57466","2.7260000000000004","163.1","5.096","150.8","NAN","NAN","NAN","NAN","NAN"],
    [1556477,"2026-06-02 13:50:00","57467","3.42","155.7","4.769","147.1","NAN","NAN","NAN","NAN","NAN"],
    [1556478,"2026-06-02 14:00:00","57468","3.179","150.2","5.292","133.6","NAN","NAN","NAN","NAN","NAN"],
    [1556479,"2026-06-02 14:10:00","57469","3.075","170.8","4.345","166.9","NAN","NAN","NAN","NAN","NAN"],
    [1556480,"2026-06-02 14:20:00","57470","2.454","145.4","3.789","165.2","NAN","NAN","NAN","NAN","NAN"],
    [1556481,"2026-06-02 14:30:00","57471","3.0660000000000003","118.7","4.769","105","NAN","NAN","NAN","NAN","NAN"],
    [1556482,"2026-06-02 14:40:00","57472","2.654","118.8","3.822","114.5","NAN","NAN","NAN","NAN","NAN"],
    [1556483,"2026-06-02 14:50:00","57473","3.037","119.6","4.279","140.6","NAN","NAN","NAN","NAN","NAN"],
    [1556484,"2026-06-02 15:00:00","57474","3.355","96.3","5.194","98.4","NAN","NAN","NAN","NAN","NAN"],
    [1556485,"2026-06-02 15:10:00","57475","3.642","95.3","5.586","106.7","NAN","NAN","NAN","NAN","NAN"],
    [1556486,"2026-06-02 15:20:00","57476","3.304","97.6","5.129","82.7","NAN","NAN","NAN","NAN","NAN"],
    [1556487,"2026-06-02 15:30:00","57477","3.832","94.6","5.782","96.4","NAN","NAN","NAN","NAN","NAN"],
    [1556488,"2026-06-02 15:40:00","57478","3.983","95.5","5.684","101.9","NAN","NAN","NAN","NAN","NAN"],
    [1556489,"2026-06-02 15:50:00","57479","3.859","98.2","5.782","105.4","NAN","NAN","NAN","NAN","NAN"],
    [1556490,"2026-06-02 16:00:00","57480","3.529","96.2","6.011","96","NAN","NAN","NAN","NAN","NAN"],
    [1556491,"2026-06-02 16:10:00","57481","4.05","95.4","6.043","116.2","NAN","NAN","NAN","NAN","NAN"],
    [1556492,"2026-06-02 16:20:00","57482","4.3180000000000005","98.4","7.383","88.1","NAN","NAN","NAN","NAN","NAN"],
    [1556493,"2026-06-02 16:30:00","57483","4.9","93.6","8.46","71.47","NAN","NAN","NAN","NAN","NAN"],
    [1556494,"2026-06-02 16:40:00","57484","4.5360000000000005","89.7","7.873","68.71","NAN","NAN","NAN","NAN","NAN"],
    [1556495,"2026-06-02 16:50:00","57485","5.14","99.8","8.04","92.4","NAN","NAN","NAN","NAN","NAN"],
    [1556496,"2026-06-02 17:00:00","57486","4.801","93.2","7.709","98.3","NAN","NAN","NAN","NAN","NAN"],
    [1556497,"2026-06-02 17:10:00","57487","3.9810000000000003","98.2","7.121","86.8","NAN","NAN","NAN","NAN","NAN"],
    [1556498,"2026-06-02 17:20:00","57488","4.638","95.0","6.893","99","NAN","NAN","NAN","NAN","NAN"],
    [1556499,"2026-06-02 17:30:00","57489","4.227","95.0","6.697","101.8","NAN","NAN","NAN","NAN","NAN"],
    [1556500,"2026-06-02 17:40:00","57490","4.074","100.2","6.337","103.9","NAN","NAN","NAN","NAN","NAN"],
    [1556501,"2026-06-02 17:50:00","57491","3.82","98.8","5.815","96.4","NAN","NAN","NAN","NAN","NAN"],
    [1556502,"2026-06-02 18:00:00","57492","3.2439999999999998","96.9","5.913","83.1","NAN","NAN","NAN","NAN","NAN"],
    [1556503,"2026-06-02 18:10:00","57493","2.8819999999999997","105.5","5.357","82.2","NAN","NAN","NAN","NAN","NAN"],
    [1556504,"2026-06-02 18:20:00","57494","3.301","95.6","5.749","99.9","NAN","NAN","NAN","NAN","NAN"],
    [1556505,"2026-06-02 18:30:00","57495","3.002","106.4","5.096","128","NAN","NAN","NAN","NAN","NAN"],
    [1556506,"2026-06-02 18:40:00","57496","2.861","106.2","5.521","115.6","NAN","NAN","NAN","NAN","NAN"],
    [1556507,"2026-06-02 18:50:00","57497","3.072","107.2","5.227","105.5","NAN","NAN","NAN","NAN","NAN"],
    [1556508,"2026-06-02 19:00:00","57498","2.6719999999999997","112.9","4.671","122.8","NAN","NAN","NAN","NAN","NAN"],
    [1556509,"2026-06-02 19:10:00","57499","3.342","114.3","5.815","118.5","NAN","NAN","NAN","NAN","NAN"],
    [1556510,"2026-06-02 19:20:00","57500","2.78","117.1","5.129","112.4","NAN","NAN","NAN","NAN","NAN"],
    [1556511,"2026-06-02 19:30:00","57501","2.812","109.9","4.867","94.4","NAN","NAN","NAN","NAN","NAN"],
    [1556512,"2026-06-02 19:40:00","57502","3.5","115.6","5.782","92.8","NAN","NAN","NAN","NAN","NAN"],
    [1556513,"2026-06-02 19:50:00","57503","3.022","110.0","6.337","128","NAN","NAN","NAN","NAN","NAN"],
    [1556514,"2026-06-02 20:00:00","57504","2.9760000000000004","114.5","5.031","109.1","NAN","NAN","NAN","NAN","NAN"],
    [1556515,"2026-06-02 20:10:00","57505","2.465","116.0","4.214","121.7","NAN","NAN","NAN","NAN","NAN"],
    [1556516,"2026-06-02 20:20:00","57506","1.996","113.8","3.332","117","NAN","NAN","NAN","NAN","NAN"],
    [1556517,"2026-06-02 20:30:00","57507","2.256","115.5","4.541","124.6","NAN","NAN","NAN","NAN","NAN"],
    [1556518,"2026-06-02 20:40:00","57508","1.767","108.9","4.083","126.3","NAN","NAN","NAN","NAN","NAN"],
    [1556519,"2026-06-02 20:50:00","57509","1.8780000000000001","125.6","3.43","129.4","NAN","NAN","NAN","NAN","NAN"],
    [1556520,"2026-06-02 21:00:00","57510","2.407","138.1","3.953","135.7","NAN","NAN","NAN","NAN","NAN"],
    [1556521,"2026-06-02 21:10:00","57511","2.367","155.9","4.181","164.6","NAN","NAN","NAN","NAN","NAN"],
    [1556522,"2026-06-02 21:20:00","57512","2.1430000000000002","161.9","3.299","161","NAN","NAN","NAN","NAN","NAN"],
    [1556523,"2026-06-02 21:30:00","57513","2.03","166.0","3.626","152.4","NAN","NAN","NAN","NAN","NAN"],
    [1556524,"2026-06-02 21:40:00","57514","2.313","161.2","3.789","156","NAN","NAN","NAN","NAN","NAN"],
    [1556525,"2026-06-02 21:50:00","57515","2.269","165.4","3.985","167.2","NAN","NAN","NAN","NAN","NAN"],
    [1556526,"2026-06-02 22:00:00","57516","2.6860000000000004","153.0","4.345","155.5","NAN","NAN","NAN","NAN","NAN"],
    [1556527,"2026-06-02 22:10:00","57517","2.351","155.1","3.757","160.9","NAN","NAN","NAN","NAN","NAN"],
    [1556528,"2026-06-02 22:20:00","57518","2.7880000000000003","163.1","4.279","159.5","NAN","NAN","NAN","NAN","NAN"],
    [1556529,"2026-06-02 22:30:00","57519","2.155","167.6","3.593","169.9","NAN","NAN","NAN","NAN","NAN"],
    [1556530,"2026-06-02 22:40:00","57520","2.4659999999999997","169.2","4.116","162.5","NAN","NAN","NAN","NAN","NAN"],
    [1556531,"2026-06-02 22:50:00","57521","2.657","173.5","4.802","159.5","NAN","NAN","NAN","NAN","NAN"],
    [1556532,"2026-06-02 23:00:00","57522","2.3480000000000003","167.2","3.724","158.6","NAN","NAN","NAN","NAN","NAN"],
    [1556533,"2026-06-02 23:10:00","57523","2.6060000000000003","165.8","4.345","166.9","NAN","NAN","NAN","NAN","NAN"],
    [1556534,"2026-06-02 23:20:00","57524","2.484","169.9","4.018","162.1","NAN","NAN","NAN","NAN","NAN"],
    [1556535,"2026-06-02 23:30:00","57525","1.8630000000000002","170.8","3.528","172","NAN","NAN","NAN","NAN","NAN"],
    [1556536,"2026-06-02 23:40:00","57526","1.876","173.4","3.789","167.2","NAN","NAN","NAN","NAN","NAN"],
    [1556537,"2026-06-02 23:50:00","57527","2.781","167.8","4.279","180.4","NAN","NAN","NAN","NAN","NAN"],
    [1556538,"2026-06-03 00:00:00","57528","2.2230000000000003","162.7","3.822","153.3","NAN","NAN","NAN","NAN","NAN"],
    [1556539,"2026-06-03 00:10:00","57529","2.059","161.1","3.463","163.1","NAN","NAN","NAN","NAN","NAN"],
    [1556540,"2026-06-03 00:20:00","57530","2.399","162.9","3.43","166.5","NAN","NAN","NAN","NAN","NAN"],
    [1556541,"2026-06-03 00:30:00","57531","2.126","164.7","3.593","169","NAN","NAN","NAN","NAN","NAN"],
    [1556542,"2026-06-03 00:40:00","57532","1.6740000000000002","173.0","3.038","169","NAN","NAN","NAN","NAN","NAN"],
    [1556543,"2026-06-03 00:50:00","57533","1.484","175.5","2.711","172.5","NAN","NAN","NAN","NAN","NAN"],
    [1556544,"2026-06-03 01:00:00","57534","0.619","177.1","1.633","174.2","NAN","NAN","NAN","NAN","NAN"],
    [1556545,"2026-06-03 01:10:00","57535","1.126","176.9","2.058","170.8","NAN","NAN","NAN","NAN","NAN"],
    [1556546,"2026-06-03 01:20:00","57536","1.143","175.6","2.777","179.2","NAN","NAN","NAN","NAN","NAN"],
    [1556547,"2026-06-03 01:30:00","57537","0.7090000000000001","176.2","1.568","180.4","NAN","NAN","NAN","NAN","NAN"],
    [1556548,"2026-06-03 01:40:00","57538","1.025","181.1","2.45","185.7","NAN","NAN","NAN","NAN","NAN"],
    [1556549,"2026-06-03 01:50:00","57539","1.402","191.3","2.646","191.7","NAN","NAN","NAN","NAN","NAN"],
    [1556550,"2026-06-03 02:00:00","57540","1.739","206.3","3.005","214","NAN","NAN","NAN","NAN","NAN"],
    [1556551,"2026-06-03 02:10:00","57541","1.819","222.9","3.038","228.6","NAN","NAN","NAN","NAN","NAN"],
    [1556552,"2026-06-03 02:20:00","57542","2.3369999999999997","213.4","3.495","215.7","NAN","NAN","NAN","NAN","NAN"],
    [1556553,"2026-06-03 02:30:00","57543","2.407","218.7","3.757","232.3","NAN","NAN","NAN","NAN","NAN"],
    [1556554,"2026-06-03 02:40:00","57544","1.922","214.2","3.626","207.2","NAN","NAN","NAN","NAN","NAN"],
    [1556555,"2026-06-03 02:50:00","57545","2.064","199.7","4.051","181.2","NAN","NAN","NAN","NAN","NAN"],
    [1556556,"2026-06-03 03:00:00","57546","2.8169999999999997","232.5","5.847","242.8","NAN","NAN","NAN","NAN","NAN"],
    [1556557,"2026-06-03 03:10:00","57547","3.0069999999999997","243.5","4.9","249.1","NAN","NAN","NAN","NAN","NAN"],
    [1556558,"2026-06-03 03:20:00","57548","2.544","245.1","3.855","230.6","NAN","NAN","NAN","NAN","NAN"],
    [1556559,"2026-06-03 03:30:00","57549","2.185","249.1","3.92","252","NAN","NAN","NAN","NAN","NAN"],
    [1556560,"2026-06-03 03:40:00","57550","2.66","246.4","4.051","250.6","NAN","NAN","NAN","NAN","NAN"],
    [1556561,"2026-06-03 03:50:00","57551","3.4739999999999998","269.0","7.154","282.5","NAN","NAN","NAN","NAN","NAN"],
    [1556562,"2026-06-03 04:00:00","57552","3.58","298.1","6.109","291.9","NAN","NAN","NAN","NAN","NAN"],
    [1556563,"2026-06-03 04:10:00","57553","4.277","309.2","7.775","318.6","NAN","NAN","NAN","NAN","NAN"],
    [1556564,"2026-06-03 04:20:00","57554","5.047","316.7","8.36","315.6","NAN","NAN","NAN","NAN","NAN"],
    [1556565,"2026-06-03 04:30:00","57555","3.6430000000000002","298.7","6.664","286.1","NAN","NAN","NAN","NAN","NAN"],
    [1556566,"2026-06-03 04:40:00","57556","3.825","307.1","7.905","318.9","NAN","NAN","NAN","NAN","NAN"],
    [1556567,"2026-06-03 04:50:00","57557","3.431","312.6","6.174","304.3","NAN","NAN","NAN","NAN","NAN"],
    [1556568,"2026-06-03 05:00:00","57558","3.861","320.4","7.154","345.2","NAN","NAN","NAN","NAN","NAN"],
    [1556569,"2026-06-03 05:10:00","57559","3.6460000000000004","324.2","6.566","335.6","NAN","NAN","NAN","NAN","NAN"],
    [1556570,"2026-06-03 05:20:00","57560","4.1339999999999995","326.8","7.35","342.3","NAN","NAN","NAN","NAN","NAN"],
    [1556571,"2026-06-03 05:30:00","57561","4.239","328.0","6.174","326.3","NAN","NAN","NAN","NAN","NAN"],
    [1556572,"2026-06-03 05:40:00","57562","4.206","331.3","6.795","329.5","NAN","NAN","NAN","NAN","NAN"],
    [1556573,"2026-06-03 05:50:00","57563","3.6919999999999997","328.3","6.729","333.6","NAN","NAN","NAN","NAN","NAN"],
    [1556574,"2026-06-03 06:00:00","57564","4.386","327.4","7.807","310.4","NAN","NAN","NAN","NAN","NAN"],
    [1556575,"2026-06-03 06:10:00","57565","4.677","327.8","7.579","338.5","NAN","NAN","NAN","NAN","NAN"],
    [1556576,"2026-06-03 06:20:00","57566","3.73","321.8","6.893","322","NAN","NAN","NAN","NAN","NAN"],
    [1556577,"2026-06-03 06:30:00","57567","3.3489999999999998","309.3","6.076","303.8","NAN","NAN","NAN","NAN","NAN"],
    [1556578,"2026-06-03 06:40:00","57568","4.249","307.8","7.481","324.2","NAN","NAN","NAN","NAN","NAN"],
    [1556579,"2026-06-03 06:50:00","57569","3.529","309.0","7.023","295","NAN","NAN","NAN","NAN","NAN"],
    [1556580,"2026-06-03 07:00:00","57570","4.251","312.7","7.154","315.9","NAN","NAN","NAN","NAN","NAN"],
    [1556581,"2026-06-03 07:10:00","57571","3.8280000000000003","318.3","6.501","319.8","NAN","NAN","NAN","NAN","NAN"],
    [1556582,"2026-06-03 07:20:00","57572","3.0789999999999997","321.1","5.031","324.9","NAN","NAN","NAN","NAN","NAN"],
    [1556583,"2026-06-03 07:30:00","57573","3.657","302.6","6.435","297.4","NAN","NAN","NAN","NAN","NAN"],
    [1556584,"2026-06-03 07:40:00","57574","3.931","306.6","6.043","289.9","NAN","NAN","NAN","NAN","NAN"],
    [1556585,"2026-06-03 07:50:00","57575","4.498","302.8","6.762","307.6","NAN","NAN","NAN","NAN","NAN"],
    [1556586,"2026-06-03 08:00:00","57576","3.576","300.5","5.815","297.7","NAN","NAN","NAN","NAN","NAN"],
    [1556587,"2026-06-03 08:10:00","57577","3.383","306.6","5.815","285.3","NAN","NAN","NAN","NAN","NAN"],
    [1556588,"2026-06-03 08:20:00","57578","2.865","290.2","4.802","284.6","NAN","NAN","NAN","NAN","NAN"],
    [1556589,"2026-06-03 08:30:00","57579","2.253","289.4","4.345","285.1","NAN","NAN","NAN","NAN","NAN"],
    [1556590,"2026-06-03 08:40:00","57580","1.185","58.13","3.201","75.51","NAN","NAN","NAN","NAN","NAN"],
    [1556591,"2026-06-03 08:50:00","57581","1.203","353.2","3.332","320.2","NAN","NAN","NAN","NAN","NAN"],
    [1556592,"2026-06-03 09:00:00","57582","1.091","240.2","3.038","219.2","NAN","NAN","NAN","NAN","NAN"],
    [1556593,"2026-06-03 09:10:00","57583","3.366","113.4","9.6","141.6","NAN","NAN","NAN","NAN","NAN"],
    [1556594,"2026-06-03 09:20:00","57584","2.971","134.6","4.671","136.6","NAN","NAN","NAN","NAN","NAN"],
    [1556595,"2026-06-03 09:30:00","57585","3.728","151.7","5.488","168.3","NAN","NAN","NAN","NAN","NAN"],
    [1556596,"2026-06-03 09:40:00","57586","4.038","151.7","6.076","137.8","NAN","NAN","NAN","NAN","NAN"],
    [1556597,"2026-06-03 09:50:00","57587","4.502","155.0","6.729","135","NAN","NAN","NAN","NAN","NAN"],
    [1556598,"2026-06-03 10:00:00","57588","4.1","162.1","6.043","154.8","NAN","NAN","NAN","NAN","NAN"],
    [1556599,"2026-06-03 10:10:00","57589","4.2139999999999995","172.0","7.121","174.2","NAN","NAN","NAN","NAN","NAN"],
    [1556600,"2026-06-03 10:20:00","57590","4.552","161.8","6.991","167.1","NAN","NAN","NAN","NAN","NAN"],
    [1556601,"2026-06-03 10:30:00","57591","4.684","156.2","6.37","162.1","NAN","NAN","NAN","NAN","NAN"],
    [1556602,"2026-06-03 10:40:00","57592","3.5580000000000003","165.9","6.337","164.3","NAN","NAN","NAN","NAN","NAN"],
    [1556603,"2026-06-03 10:50:00","57593","3.2960000000000003","194.0","5.227","172.7","NAN","NAN","NAN","NAN","NAN"],
    [1556604,"2026-06-03 11:00:00","57594","3.5660000000000003","176.1","6.403","163.4","NAN","NAN","NAN","NAN","NAN"],
    [1556605,"2026-06-03 11:10:00","57595","3.988","168.4","5.815","164.5","NAN","NAN","NAN","NAN","NAN"],
    [1556606,"2026-06-03 11:20:00","57596","3.122","199.1","5.619","215.3","NAN","NAN","NAN","NAN","NAN"],
    [1556607,"2026-06-03 11:30:00","57597","3.537","213.5","5.39","203.2","NAN","NAN","NAN","NAN","NAN"],
    [1556608,"2026-06-03 11:40:00","57598","2.929","194.3","5.031","206.6","NAN","NAN","NAN","NAN","NAN"],
    [1556609,"2026-06-03 11:50:00","57599","3.892","199.4","5.945","184.9","NAN","NAN","NAN","NAN","NAN"],
    [1556610,"2026-06-03 12:00:00","57600","3.5780000000000003","194.7","6.729","204.4","NAN","NAN","NAN","NAN","NAN"],
    [1556611,"2026-06-03 12:10:00","57601","4.303999999999999","208.1","6.599","208.3","NAN","NAN","NAN","NAN","NAN"],
    [1556612,"2026-06-03 12:20:00","57602","3.432","188.5","6.109","177","NAN","NAN","NAN","NAN","NAN"],
    [1556613,"2026-06-03 12:30:00","57603","4.015","189.1","6.86","168.5","NAN","NAN","NAN","NAN","NAN"],
    [1556614,"2026-06-03 12:40:00","57604","3.9189999999999996","195.9","7.121","162.4","NAN","NAN","NAN","NAN","NAN"],
    [1556615,"2026-06-03 12:50:00","57605","3.792","195.1","6.795","216.8","NAN","NAN","NAN","NAN","NAN"],
    [1556616,"2026-06-03 13:00:00","57606","4.433","209.8","6.501","215.1","NAN","NAN","NAN","NAN","NAN"],
    [1556617,"2026-06-03 13:10:00","57607","3.745","200.2","5.913","214.6","NAN","NAN","NAN","NAN","NAN"],
    [1556618,"2026-06-03 13:20:00","57608","3.707","201.1","5.782","214","NAN","NAN","NAN","NAN","NAN"],
    [1556619,"2026-06-03 13:30:00","57609","3.403","205.2","6.272","207.7","NAN","NAN","NAN","NAN","NAN"],
    [1556620,"2026-06-03 13:40:00","57610","3.807","174.3","6.697","174","NAN","NAN","NAN","NAN","NAN"],
    [1556621,"2026-06-03 13:50:00","57611","3.785","167.4","6.043","177.2","NAN","NAN","NAN","NAN","NAN"],
    [1556622,"2026-06-03 14:00:00","57612","3.8789999999999996","163.5","6.076","164","NAN","NAN","NAN","NAN","NAN"],
    [1556623,"2026-06-03 14:10:00","57613","4.008","168.5","6.239","162.6","NAN","NAN","NAN","NAN","NAN"],
    [1556624,"2026-06-03 14:20:00","57614","3.2239999999999998","180.7","7.873","150.9","NAN","NAN","NAN","NAN","NAN"],
    [1556625,"2026-06-03 14:30:00","57615","3.06","193.9","5.39","165.2","NAN","NAN","NAN","NAN","NAN"],
    [1556626,"2026-06-03 14:40:00","57616","3.6710000000000003","178.7","5.815","170.4","NAN","NAN","NAN","NAN","NAN"],
    [1556627,"2026-06-03 14:50:00","57617","4.31","170.4","6.631","151.3","NAN","NAN","NAN","NAN","NAN"],
    [1556628,"2026-06-03 15:00:00","57618","3.6260000000000003","177.9","6.141","159.7","NAN","NAN","NAN","NAN","NAN"],
    [1556629,"2026-06-03 15:10:00","57619","3.489","217.2","8.26","210.8","NAN","NAN","NAN","NAN","NAN"],
    [1556630,"2026-06-03 15:20:00","57620","4.069","217.1","8.17","218","NAN","NAN","NAN","NAN","NAN"],
    [1556631,"2026-06-03 15:30:00","57621","4.781000000000001","211.9","8.04","216.3","NAN","NAN","NAN","NAN","NAN"],
    [1556632,"2026-06-03 15:40:00","57622","4.364","213.1","7.611","229.6","NAN","NAN","NAN","NAN","NAN"],
    [1556633,"2026-06-03 15:50:00","57623","4.596","207.8","8.46","213","NAN","NAN","NAN","NAN","NAN"],
    [1556634,"2026-06-03 16:00:00","57624","4.409","208.1","9.67","214.3","NAN","NAN","NAN","NAN","NAN"],
    [1556635,"2026-06-03 16:10:00","57625","5.401","213.8","9.24","203.2","NAN","NAN","NAN","NAN","NAN"],
    [1556636,"2026-06-03 16:20:00","57626","5.278","221.9","8.85","233.7","NAN","NAN","NAN","NAN","NAN"],
    [1556637,"2026-06-03 16:30:00","57627","4.976","229.7","8.95","222.4","NAN","NAN","NAN","NAN","NAN"],
    [1556638,"2026-06-03 16:40:00","57628","5.202000000000001","229.8","9.02","231.9","NAN","NAN","NAN","NAN","NAN"],
    [1556639,"2026-06-03 16:50:00","57629","5.598","216.8","9.34","211.7","NAN","NAN","NAN","NAN","NAN"],
    [1556640,"2026-06-03 17:00:00","57630","5.394","229.9","9.41","238.4","NAN","NAN","NAN","NAN","NAN"],
    [1556641,"2026-06-03 17:10:00","57631","5.126","226.3","9.34","222.2","NAN","NAN","NAN","NAN","NAN"],
    [1556642,"2026-06-03 17:20:00","57632","4.735","223.0","9.44","210.8","NAN","NAN","NAN","NAN","NAN"],
    [1556643,"2026-06-03 17:30:00","57633","5.079","221.9","9.96","221.1","NAN","NAN","NAN","NAN","NAN"],
    [1556644,"2026-06-03 17:40:00","57634","4.904","230.1","9.34","241.7","NAN","NAN","NAN","NAN","NAN"],
    [1556645,"2026-06-03 17:50:00","57635","4.553999999999999","230.1","8.62","221","NAN","NAN","NAN","NAN","NAN"],
    [1556646,"2026-06-03 18:00:00","57636","5.5120000000000005","223.6","8.98","219.6","NAN","NAN","NAN","NAN","NAN"],
    [1556647,"2026-06-03 18:10:00","57637","4.532","223.7","9.28","236.3","NAN","NAN","NAN","NAN","NAN"],
    [1556648,"2026-06-03 18:20:00","57638","4.086","233.3","7.971","234","NAN","NAN","NAN","NAN","NAN"],
    [1556649,"2026-06-03 18:30:00","57639","5.165","225.9","8.53","221.2","NAN","NAN","NAN","NAN","NAN"],
    [1556650,"2026-06-03 18:40:00","57640","5.24","234.4","8.66","260.2","NAN","NAN","NAN","NAN","NAN"],
    [1556651,"2026-06-03 18:50:00","57641","4.717","229.7","8.98","235.1","NAN","NAN","NAN","NAN","NAN"],
    [1556652,"2026-06-03 19:00:00","57642","4.47","230.4","8.56","228.9","NAN","NAN","NAN","NAN","NAN"],
    [1556653,"2026-06-03 19:10:00","57643","4.62","228.4","8.23","225","NAN","NAN","NAN","NAN","NAN"],
    [1556654,"2026-06-03 19:20:00","57644","4.154","236.0","7.546","239.6","NAN","NAN","NAN","NAN","NAN"],
    [1556655,"2026-06-03 19:30:00","57645","3.9130000000000003","232.3","8.56","231.4","NAN","NAN","NAN","NAN","NAN"],
    [1556656,"2026-06-03 19:40:00","57646","4.539","229.8","9.02","238.6","NAN","NAN","NAN","NAN","NAN"],
    [1556657,"2026-06-03 19:50:00","57647","3.79","236.2","7.121","240.8","NAN","NAN","NAN","NAN","NAN"],
    [1556658,"2026-06-03 20:00:00","57648","4.0360000000000005","226.4","7.219","210.3","NAN","NAN","NAN","NAN","NAN"],
    [1556659,"2026-06-03 20:10:00","57649","3.398","223.5","7.317","228.7","NAN","NAN","NAN","NAN","NAN"],
    [1556660,"2026-06-03 20:20:00","57650","3.373","229.8","7.089","221.6","NAN","NAN","NAN","NAN","NAN"],
    [1556661,"2026-06-03 20:30:00","57651","3.35","225.6","6.141","218.1","NAN","NAN","NAN","NAN","NAN"],
    [1556662,"2026-06-03 20:40:00","57652","3.323","227.5","5.586","235.8","NAN","NAN","NAN","NAN","NAN"],
    [1556663,"2026-06-03 20:50:00","57653","3.275","222.9","5.423","234.4","NAN","NAN","NAN","NAN","NAN"],
    [1556664,"2026-06-03 21:00:00","57654","3.265","219.8","5.521","217.9","NAN","NAN","NAN","NAN","NAN"],
    [1556665,"2026-06-03 21:10:00","57655","3.532","219.0","5.913","224.1","NAN","NAN","NAN","NAN","NAN"],
    [1556666,"2026-06-03 21:20:00","57656","2.474","221.3","5.423","207.6","NAN","NAN","NAN","NAN","NAN"],
    [1556667,"2026-06-03 21:30:00","57657","3.363","216.3","5.913","199.4","NAN","NAN","NAN","NAN","NAN"],
    [1556668,"2026-06-03 21:40:00","57658","2.7239999999999998","234.0","4.671","231.7","NAN","NAN","NAN","NAN","NAN"],
    [1556669,"2026-06-03 21:50:00","57659","2.727","236.3","5.227","253.9","NAN","NAN","NAN","NAN","NAN"],
    [1556670,"2026-06-03 22:00:00","57660","2.016","230.2","3.593","214.3","NAN","NAN","NAN","NAN","NAN"],
    [1556671,"2026-06-03 22:10:00","57661","3.0980000000000003","245.9","5.782","236.7","NAN","NAN","NAN","NAN","NAN"],
    [1556672,"2026-06-03 22:20:00","57662","3.463","237.0","5.978","226.3","NAN","NAN","NAN","NAN","NAN"],
    [1556673,"2026-06-03 22:30:00","57663","3.798","249.6","5.978","255.3","NAN","NAN","NAN","NAN","NAN"],
    [1556674,"2026-06-03 22:40:00","57664","3.2460000000000004","246.0","5.096","246.6","NAN","NAN","NAN","NAN","NAN"],
    [1556675,"2026-06-03 22:50:00","57665","3.1060000000000003","241.8","5.782","250","NAN","NAN","NAN","NAN","NAN"],
    [1556676,"2026-06-03 23:00:00","57666","2.7239999999999998","237.7","5.488","235.9","NAN","NAN","NAN","NAN","NAN"],
    [1556677,"2026-06-03 23:10:00","57667","2.311","231.2","3.887","206.1","NAN","NAN","NAN","NAN","NAN"],
    [1556678,"2026-06-03 23:20:00","57668","2.7089999999999996","237.5","4.9","219","NAN","NAN","NAN","NAN","NAN"],
    [1556679,"2026-06-03 23:30:00","57669","2.681","230.7","5.39","241.4","NAN","NAN","NAN","NAN","NAN"],
    [1556680,"2026-06-03 23:40:00","57670","2.7089999999999996","232.2","5.063","224.6","NAN","NAN","NAN","NAN","NAN"],
    [1556681,"2026-06-03 23:50:00","57671","3.827","241.7","6.174","239.4","NAN","NAN","NAN","NAN","NAN"],
    [1556682,"2026-06-04 00:00:00","57672","2.627","234.4","5.357","223.3","NAN","NAN","NAN","NAN","NAN"],
    [1556683,"2026-06-04 00:10:00","57673","2.617","227.2","5.455","230","NAN","NAN","NAN","NAN","NAN"],
    [1556684,"2026-06-04 00:20:00","57674","2.46","240.9","4.247","224","NAN","NAN","NAN","NAN","NAN"],
    [1556685,"2026-06-04 00:30:00","57675","3.0639999999999996","250.4","4.998","260.5","NAN","NAN","NAN","NAN","NAN"],
    [1556686,"2026-06-04 00:40:00","57676","3.005","250.3","4.802","256.7","NAN","NAN","NAN","NAN","NAN"],
    [1556687,"2026-06-04 00:50:00","57677","2.822","241.2","4.541","229.8","NAN","NAN","NAN","NAN","NAN"],
    [1556688,"2026-06-04 01:00:00","57678","2.175","231.6","4.247","221.4","NAN","NAN","NAN","NAN","NAN"],
    [1556689,"2026-06-04 01:10:00","57679","1.944","234.5","3.299","248.2","NAN","NAN","NAN","NAN","NAN"],
    [1556690,"2026-06-04 01:20:00","57680","2.388","233.0","4.051","213.9","NAN","NAN","NAN","NAN","NAN"],
    [1556691,"2026-06-04 01:30:00","57681","2.739","219.1","4.475","213.5","NAN","NAN","NAN","NAN","NAN"],
    [1556692,"2026-06-04 01:40:00","57682","2.54","227.0","4.051","231.2","NAN","NAN","NAN","NAN","NAN"],
    [1556693,"2026-06-04 01:50:00","57683","2.415","216.0","4.867","207.9","NAN","NAN","NAN","NAN","NAN"],
    [1556694,"2026-06-04 02:00:00","57684","2.5540000000000003","229.2","4.998","233.2","NAN","NAN","NAN","NAN","NAN"],
    [1556695,"2026-06-04 02:10:00","57685","2.778","234.0","4.671","230","NAN","NAN","NAN","NAN","NAN"],
    [1556696,"2026-06-04 02:20:00","57686","2.342","224.3","4.443","229.8","NAN","NAN","NAN","NAN","NAN"],
    [1556697,"2026-06-04 02:30:00","57687","2.301","241.4","4.508","241.4","NAN","NAN","NAN","NAN","NAN"],
    [1556698,"2026-06-04 02:40:00","57688","2.8310000000000004","240.2","5.292","241.2","NAN","NAN","NAN","NAN","NAN"],
    [1556699,"2026-06-04 02:50:00","57689","2.395","228.8","4.279","230.9","NAN","NAN","NAN","NAN","NAN"],
    [1556700,"2026-06-04 03:00:00","57690","2.262","216.3","4.508","219.6","NAN","NAN","NAN","NAN","NAN"],
    [1556701,"2026-06-04 03:10:00","57691","1.929","225.8","3.724","233.2","NAN","NAN","NAN","NAN","NAN"],
    [1556702,"2026-06-04 03:20:00","57692","2.157","223.6","3.724","233.4","NAN","NAN","NAN","NAN","NAN"],
    [1556703,"2026-06-04 03:30:00","57693","1.7109999999999999","226.0","3.659","242.2","NAN","NAN","NAN","NAN","NAN"],
    [1556704,"2026-06-04 03:40:00","57694","1.635","219.4","3.397","220.6","NAN","NAN","NAN","NAN","NAN"],
    [1556705,"2026-06-04 03:50:00","57695","1.574","223.8","3.365","236.2","NAN","NAN","NAN","NAN","NAN"],
    [1556706,"2026-06-04 04:00:00","57696","1.47","231.6","3.201","237","NAN","NAN","NAN","NAN","NAN"],
    [1556707,"2026-06-04 04:10:00","57697","1.724","220.6","2.744","214.5","NAN","NAN","NAN","NAN","NAN"],
    [1556708,"2026-06-04 04:20:00","57698","2.076","218.3","3.561","214.9","NAN","NAN","NAN","NAN","NAN"],
    [1556709,"2026-06-04 04:30:00","57699","2.0380000000000003","215.6","3.397","213.9","NAN","NAN","NAN","NAN","NAN"],
    [1556710,"2026-06-04 04:40:00","57700","1.796","222.5","3.855","226.5","NAN","NAN","NAN","NAN","NAN"],
    [1556711,"2026-06-04 04:50:00","57701","2.539","221.0","4.149","226.6","NAN","NAN","NAN","NAN","NAN"],
    [1556712,"2026-06-04 05:00:00","57702","1.776","234.1","3.561","251.2","NAN","NAN","NAN","NAN","NAN"],
    [1556713,"2026-06-04 05:10:00","57703","1.811","233.5","3.169","247.8","NAN","NAN","NAN","NAN","NAN"],
    [1556714,"2026-06-04 05:20:00","57704","2.1109999999999998","238.1","3.724","228.3","NAN","NAN","NAN","NAN","NAN"],
    [1556715,"2026-06-04 05:30:00","57705","2.416","244.8","4.247","253.9","NAN","NAN","NAN","NAN","NAN"],
    [1556716,"2026-06-04 05:40:00","57706","3.095","252.8","4.835","242.4","NAN","NAN","NAN","NAN","NAN"],
    [1556717,"2026-06-04 05:50:00","57707","2.1390000000000002","251.3","3.985","249.7","NAN","NAN","NAN","NAN","NAN"],
    [1556718,"2026-06-04 06:00:00","57708","2.375","245.7","4.508","243.2","NAN","NAN","NAN","NAN","NAN"],
    [1556719,"2026-06-04 06:10:00","57709","2.589","234.4","4.508","233.6","NAN","NAN","NAN","NAN","NAN"],
    [1556720,"2026-06-04 06:20:00","57710","2.742","217.0","4.639","225","NAN","NAN","NAN","NAN","NAN"],
    [1556721,"2026-06-04 06:30:00","57711","3.1","211.6","4.671","208.9","NAN","NAN","NAN","NAN","NAN"],
    [1556722,"2026-06-04 06:40:00","57712","2.892","220.8","5.357","230.1","NAN","NAN","NAN","NAN","NAN"],
    [1556723,"2026-06-04 06:50:00","57713","3.5410000000000004","217.1","5.847","210.7","NAN","NAN","NAN","NAN","NAN"],
    [1556724,"2026-06-04 07:00:00","57714","2.932","225.8","5.913","215","NAN","NAN","NAN","NAN","NAN"],
    [1556725,"2026-06-04 07:10:00","57715","3.7110000000000003","207.1","5.553","220.2","NAN","NAN","NAN","NAN","NAN"],
    [1556726,"2026-06-04 07:20:00","57716","3.7960000000000003","214.6","6.207","203.8","NAN","NAN","NAN","NAN","NAN"],
    [1556727,"2026-06-04 07:30:00","57717","3.7889999999999997","213.3","5.847","217.8","NAN","NAN","NAN","NAN","NAN"],
    [1556728,"2026-06-04 07:40:00","57718","3.718","211.3","6.435","207.9","NAN","NAN","NAN","NAN","NAN"],
    [1556729,"2026-06-04 07:50:00","57719","4.1819999999999995","211.9","6.925","220.5","NAN","NAN","NAN","NAN","NAN"],
    [1556730,"2026-06-04 08:00:00","57720","3.596","205.7","6.697","223.4","NAN","NAN","NAN","NAN","NAN"],
    [1556731,"2026-06-04 08:10:00","57721","3.532","195.6","6.631","196","NAN","NAN","NAN","NAN","NAN"],
    [1556732,"2026-06-04 08:20:00","57722","4.187","205.0","7.709","210.2","NAN","NAN","NAN","NAN","NAN"],
    [1556733,"2026-06-04 08:30:00","57723","3.9619999999999997","215.5","6.239","227.8","NAN","NAN","NAN","NAN","NAN"],
    [1556734,"2026-06-04 08:40:00","57724","4.006","198.9","6.893","181.3","NAN","NAN","NAN","NAN","NAN"],
    [1556735,"2026-06-04 08:50:00","57725","4.073","190.6","7.187","191.3","NAN","NAN","NAN","NAN","NAN"],
    [1556736,"2026-06-04 09:00:00","57726","3.9160000000000004","195.9","7.677","216.9","NAN","NAN","NAN","NAN","NAN"],
    [1556737,"2026-06-04 09:10:00","57727","4.769","205.1","8","214.7","NAN","NAN","NAN","NAN","NAN"],
    [1556738,"2026-06-04 09:20:00","57728","4.828","211.2","7.807","200.9","NAN","NAN","NAN","NAN","NAN"],
    [1556739,"2026-06-04 09:30:00","57729","4.332","210.4","7.938","223.6","NAN","NAN","NAN","NAN","NAN"],
    [1556740,"2026-06-04 09:40:00","57730","4.423","205.6","7.84","212.9","NAN","NAN","NAN","NAN","NAN"],
    [1556741,"2026-06-04 09:50:00","57731","3.918","206.4","7.481","212.2","NAN","NAN","NAN","NAN","NAN"],
    [1556742,"2026-06-04 10:00:00","57732","3.91","206.7","7.154","201.9","NAN","NAN","NAN","NAN","NAN"],
    [1556743,"2026-06-04 10:10:00","57733","3.6489999999999996","201.8","6.109","232.2","NAN","NAN","NAN","NAN","NAN"],
    [1556744,"2026-06-04 10:20:00","57734","3.447","210.2","6.435","219.5","NAN","NAN","NAN","NAN","NAN"],
    [1556745,"2026-06-04 10:30:00","57735","3.282","209.3","6.109","201.2","NAN","NAN","NAN","NAN","NAN"],
    [1556746,"2026-06-04 10:40:00","57736","3.536","212.7","5.455","217.1","NAN","NAN","NAN","NAN","NAN"],
    [1556747,"2026-06-04 10:50:00","57737","3.8810000000000002","209.7","6.991","217.6","NAN","NAN","NAN","NAN","NAN"],
    [1556748,"2026-06-04 11:00:00","57738","4.118","209.3","6.86","224","NAN","NAN","NAN","NAN","NAN"],
    [1556749,"2026-06-04 11:10:00","57739","3.783","198.1","8.4","190","NAN","NAN","NAN","NAN","NAN"],
    [1556750,"2026-06-04 11:20:00","57740","3.925","200.2","6.468","222.5","NAN","NAN","NAN","NAN","NAN"],
    [1556751,"2026-06-04 11:30:00","57741","3.25","202.9","6.762","215.7","NAN","NAN","NAN","NAN","NAN"],
    [1556752,"2026-06-04 11:40:00","57742","3.736","223.2","6.893","220.6","NAN","NAN","NAN","NAN","NAN"],
    [1556753,"2026-06-04 11:50:00","57743","3.7560000000000002","209.9","6.762","222.4","NAN","NAN","NAN","NAN","NAN"],
    [1556754,"2026-06-04 12:00:00","57744","3.455","215.3","7.089","218.5","NAN","NAN","NAN","NAN","NAN"],
    [1556755,"2026-06-04 12:10:00","57745","3.2680000000000002","207.2","5.717","199.4","NAN","NAN","NAN","NAN","NAN"],
    [1556756,"2026-06-04 12:20:00","57746","3.133","209.0","6.207","211.1","NAN","NAN","NAN","NAN","NAN"],
    [1556757,"2026-06-04 12:30:00","57747","3.533","211.5","6.207","205.4","NAN","NAN","NAN","NAN","NAN"],
    [1556758,"2026-06-04 12:40:00","57748","3.597","209.7","5.945","235.5","NAN","NAN","NAN","NAN","NAN"],
    [1556759,"2026-06-04 12:50:00","57749","4.029","215.4","7.285","232.1","NAN","NAN","NAN","NAN","NAN"],
    [1556760,"2026-06-04 13:00:00","57750","4.074","208.4","7.415","224.3","NAN","NAN","NAN","NAN","NAN"],
    [1556761,"2026-06-04 13:10:00","57751","4.0089999999999995","211.3","7.807","205.6","NAN","NAN","NAN","NAN","NAN"],
    [1556762,"2026-06-04 13:20:00","57752","3.83","209.8","6.076","211.6","NAN","NAN","NAN","NAN","NAN"],
    [1556763,"2026-06-04 13:30:00","57753","3.823","210.9","7.023","203.5","NAN","NAN","NAN","NAN","NAN"],
    [1556764,"2026-06-04 13:40:00","57754","4.377","209.4","6.566","208","NAN","NAN","NAN","NAN","NAN"],
    [1556765,"2026-06-04 13:50:00","57755","3.7969999999999997","206.5","5.945","209.7","NAN","NAN","NAN","NAN","NAN"],
    [1556766,"2026-06-04 14:00:00","57756","3.94","207.2","6.501","207.4","NAN","NAN","NAN","NAN","NAN"],
    [1556767,"2026-06-04 14:10:00","57757","3.069","209.2","5.39","215.6","NAN","NAN","NAN","NAN","NAN"],
    [1556768,"2026-06-04 14:20:00","57758","3.799","216.1","5.782","227.1","NAN","NAN","NAN","NAN","NAN"],
    [1556769,"2026-06-04 14:30:00","57759","3.657","207.9","6.337","225.4","NAN","NAN","NAN","NAN","NAN"],
    [1556770,"2026-06-04 14:40:00","57760","3.25","208.9","5.651","233.6","NAN","NAN","NAN","NAN","NAN"],
    [1556771,"2026-06-04 14:50:00","57761","3.4930000000000003","194.2","6.501","171.5","NAN","NAN","NAN","NAN","NAN"],
    [1556772,"2026-06-04 15:00:00","57762","3.641","190.7","6.697","176.6","NAN","NAN","NAN","NAN","NAN"],
    [1556773,"2026-06-04 15:10:00","57763","3.755","185.7","6.599","207.3","NAN","NAN","NAN","NAN","NAN"],
    [1556774,"2026-06-04 15:20:00","57764","3.267","186.2","5.684","199.3","NAN","NAN","NAN","NAN","NAN"],
    [1556775,"2026-06-04 15:30:00","57765","2.93","184.1","5.684","167.8","NAN","NAN","NAN","NAN","NAN"],
    [1556776,"2026-06-04 15:40:00","57766","3.358","179.8","5.88","187.4","NAN","NAN","NAN","NAN","NAN"],
    [1556777,"2026-06-04 15:50:00","57767","2.867","188.3","4.835","193.1","NAN","NAN","NAN","NAN","NAN"],
    [1556778,"2026-06-04 16:00:00","57768","2.741","186.4","4.933","189.7","NAN","NAN","NAN","NAN","NAN"],
    [1556779,"2026-06-04 16:10:00","57769","3.102","189.3","5.782","175","NAN","NAN","NAN","NAN","NAN"],
    [1556780,"2026-06-04 16:20:00","57770","3.3310000000000004","188.1","6.174","196.8","NAN","NAN","NAN","NAN","NAN"],
    [1556781,"2026-06-04 16:30:00","57771","2.885","192.5","5.847","232.4","NAN","NAN","NAN","NAN","NAN"],
    [1556782,"2026-06-04 16:40:00","57772","2.986","175.7","5.161","173.6","NAN","NAN","NAN","NAN","NAN"],
    [1556783,"2026-06-04 16:50:00","57773","2.78","181.7","5.325","164.4","NAN","NAN","NAN","NAN","NAN"],
    [1556784,"2026-06-04 17:00:00","57774","2.582","192.4","4.671","228","NAN","NAN","NAN","NAN","NAN"],
    [1556785,"2026-06-04 17:10:00","57775","2.344","188.2","4.867","163.4","NAN","NAN","NAN","NAN","NAN"],
    [1556786,"2026-06-04 17:20:00","57776","2.645","203.7","5.39","216","NAN","NAN","NAN","NAN","NAN"],
    [1556787,"2026-06-04 17:30:00","57777","2.917","206.2","4.737","214.7","NAN","NAN","NAN","NAN","NAN"],
    [1556788,"2026-06-04 17:40:00","57778","2.509","175.2","4.279","176.2","NAN","NAN","NAN","NAN","NAN"],
    [1556789,"2026-06-04 17:50:00","57779","2.235","178.5","4.051","162.5","NAN","NAN","NAN","NAN","NAN"],
    [1556790,"2026-06-04 18:00:00","57780","2.7060000000000004","165.9","4.312","169.3","NAN","NAN","NAN","NAN","NAN"],
    [1556791,"2026-06-04 18:10:00","57781","2.792","159.5","4.018","162.1","NAN","NAN","NAN","NAN","NAN"],
    [1556792,"2026-06-04 18:20:00","57782","2.4459999999999997","159.0","4.475","152.2","NAN","NAN","NAN","NAN","NAN"],
    [1556793,"2026-06-04 18:30:00","57783","3.34","148.9","5.325","161.9","NAN","NAN","NAN","NAN","NAN"],
    [1556794,"2026-06-04 18:40:00","57784","3.6260000000000003","146.5","5.978","154.8","NAN","NAN","NAN","NAN","NAN"],
    [1556795,"2026-06-04 18:50:00","57785","3.157","149.5","4.9","154","NAN","NAN","NAN","NAN","NAN"],
    [1556796,"2026-06-04 19:00:00","57786","4.543","109.1","10.81","107.7","NAN","NAN","NAN","NAN","NAN"],
    [1556797,"2026-06-04 19:10:00","57787","5.3389999999999995","71.48","8.82","66.04","NAN","NAN","NAN","NAN","NAN"],
    [1556798,"2026-06-04 19:20:00","57788","5.667999999999999","73.68","9.7","58.43","NAN","NAN","NAN","NAN","NAN"],
    [1556799,"2026-06-04 19:30:00","57789","6.068","70.54","9.18","65.37","NAN","NAN","NAN","NAN","NAN"],
    [1556800,"2026-06-04 19:40:00","57790","5.931","71.98","9.41","66.83","NAN","NAN","NAN","NAN","NAN"],
    [1556801,"2026-06-04 19:50:00","57791","5.471","95.1","9.77","101.4","NAN","NAN","NAN","NAN","NAN"],
    [1556802,"2026-06-04 20:00:00","57792","5.69","96.4","9.11","100.9","NAN","NAN","NAN","NAN","NAN"],
    [1556803,"2026-06-04 20:10:00","57793","4.906000000000001","87.6","8.95","100.9","NAN","NAN","NAN","NAN","NAN"],
    [1556804,"2026-06-04 20:20:00","57794","4.685","58.81","9.02","55.83","NAN","NAN","NAN","NAN","NAN"],
    [1556805,"2026-06-04 20:30:00","57795","4.256","33.61","8.49","69.61","NAN","NAN","NAN","NAN","NAN"],
    [1556806,"2026-06-04 20:40:00","57796","3.2430000000000003","24.47","5.325","43.88","NAN","NAN","NAN","NAN","NAN"],
    [1556807,"2026-06-04 20:50:00","57797","4.1339999999999995","70.59","6.86","90.1","NAN","NAN","NAN","NAN","NAN"],
    [1556808,"2026-06-04 21:00:00","57798","3.838","75.82","6.991","69.08","NAN","NAN","NAN","NAN","NAN"],
    [1556809,"2026-06-04 21:10:00","57799","3.287","60.89","6.468","70.84","NAN","NAN","NAN","NAN","NAN"],
    [1556810,"2026-06-04 21:20:00","57800","3.943","72.95","7.513","79.57","NAN","NAN","NAN","NAN","NAN"],
    [1556811,"2026-06-04 21:30:00","57801","4.351","86.0","7.089","69.59","NAN","NAN","NAN","NAN","NAN"],
    [1556812,"2026-06-04 21:40:00","57802","4.224","65.31","7.807","58.97","NAN","NAN","NAN","NAN","NAN"],
    [1556813,"2026-06-04 21:50:00","57803","4.073","83.7","6.925","61.67","NAN","NAN","NAN","NAN","NAN"],
    [1556814,"2026-06-04 22:00:00","57804","4.874","85.8","9.02","88.1","NAN","NAN","NAN","NAN","NAN"],
    [1556815,"2026-06-04 22:10:00","57805","4.861000000000001","82.3","9.28","64.21","NAN","NAN","NAN","NAN","NAN"],
    [1556816,"2026-06-04 22:20:00","57806","3.755","81.5","6.991","74.86","NAN","NAN","NAN","NAN","NAN"],
    [1556817,"2026-06-04 22:30:00","57807","4.955","76.38","8.69","62.02","NAN","NAN","NAN","NAN","NAN"],
    [1556818,"2026-06-04 22:40:00","57808","4.848","73.05","7.84","69.06","NAN","NAN","NAN","NAN","NAN"],
    [1556819,"2026-06-04 22:50:00","57809","3.639","56.13","7.187","67.87","NAN","NAN","NAN","NAN","NAN"],
    [1556820,"2026-06-04 23:00:00","57810","3.7489999999999997","61.07","7.742","70.19","NAN","NAN","NAN","NAN","NAN"],
    [1556821,"2026-06-04 23:10:00","57811","4.345","74.05","7.056","77.45","NAN","NAN","NAN","NAN","NAN"],
    [1556822,"2026-06-04 23:20:00","57812","4.407","61.44","8.62","60.99","NAN","NAN","NAN","NAN","NAN"],
    [1556823,"2026-06-04 23:30:00","57813","5.4079999999999995","69.11","8.82","63.38","NAN","NAN","NAN","NAN","NAN"],
    [1556824,"2026-06-04 23:40:00","57814","4.322","68.84","7.644","69.27","NAN","NAN","NAN","NAN","NAN"],
    [1556825,"2026-06-04 23:50:00","57815","4.802","69.63","8","80.3","NAN","NAN","NAN","NAN","NAN"],
    [1556826,"2026-06-05 00:00:00","57816","3.283","62.45","5.978","64.04","NAN","NAN","NAN","NAN","NAN"],
    [1556827,"2026-06-05 00:10:00","57817","4.507","67.07","7.644","62.26","NAN","NAN","NAN","NAN","NAN"],
    [1556828,"2026-06-05 00:20:00","57818","4.571000000000001","70.35","7.35","68.98","NAN","NAN","NAN","NAN","NAN"],
    [1556829,"2026-06-05 00:30:00","57819","3.8569999999999998","76.32","7.219","75.69","NAN","NAN","NAN","NAN","NAN"],
    [1556830,"2026-06-05 00:40:00","57820","3.6310000000000002","73.39","6.501","62.62","NAN","NAN","NAN","NAN","NAN"],
    [1556831,"2026-06-05 00:50:00","57821","4.522","73.36","6.795","67.61","NAN","NAN","NAN","NAN","NAN"],
    [1556832,"2026-06-05 01:00:00","57822","4.075","75.44","6.925","76.05","NAN","NAN","NAN","NAN","NAN"],
    [1556833,"2026-06-05 01:10:00","57823","3.8960000000000004","76.76","7.285","67.59","NAN","NAN","NAN","NAN","NAN"],
    [1556834,"2026-06-05 01:20:00","57824","3.575","73.17","6.468","70.27","NAN","NAN","NAN","NAN","NAN"],
    [1556835,"2026-06-05 01:30:00","57825","3.2289999999999996","76.67","5.325","67.72","NAN","NAN","NAN","NAN","NAN"],
    [1556836,"2026-06-05 01:40:00","57826","2.778","67.28","4.835","100.6","NAN","NAN","NAN","NAN","NAN"],
    [1556837,"2026-06-05 01:50:00","57827","2.338","54.62","4.214","65.44","NAN","NAN","NAN","NAN","NAN"],
    [1556838,"2026-06-05 02:00:00","57828","2.044","55.84","4.181","76.68","NAN","NAN","NAN","NAN","NAN"],
    [1556839,"2026-06-05 02:10:00","57829","2.2680000000000002","57.85","3.855","64.64","NAN","NAN","NAN","NAN","NAN"],
    [1556840,"2026-06-05 02:20:00","57830","2.2430000000000003","65.36","4.051","72.98","NAN","NAN","NAN","NAN","NAN"],
    [1556841,"2026-06-05 02:30:00","57831","2.531","66.94","4.181","83.1","NAN","NAN","NAN","NAN","NAN"],
    [1556842,"2026-06-05 02:40:00","57832","2.322","52.77","4.606","72.14","NAN","NAN","NAN","NAN","NAN"],
    [1556843,"2026-06-05 02:50:00","57833","1.643","37.74","2.777","38.84","NAN","NAN","NAN","NAN","NAN"],
    [1556844,"2026-06-05 03:00:00","57834","2.0140000000000002","44.99","4.051","62.2","NAN","NAN","NAN","NAN","NAN"],
    [1556845,"2026-06-05 03:10:00","57835","1.882","71.99","3.397","83.3","NAN","NAN","NAN","NAN","NAN"],
    [1556846,"2026-06-05 03:20:00","57836","1.511","66.48","2.809","70.47","NAN","NAN","NAN","NAN","NAN"],
    [1556847,"2026-06-05 03:30:00","57837","1.4380000000000002","54.71","2.515","69.35","NAN","NAN","NAN","NAN","NAN"],
    [1556848,"2026-06-05 03:40:00","57838","1.355","47.58","2.679","43.23","NAN","NAN","NAN","NAN","NAN"],
    [1556849,"2026-06-05 03:50:00","57839","1.2819999999999998","42.52","2.058","34.81","NAN","NAN","NAN","NAN","NAN"],
    [1556850,"2026-06-05 04:00:00","57840","0.8320000000000001","35.59","1.797","35.66","NAN","NAN","NAN","NAN","NAN"],
    [1556851,"2026-06-05 04:10:00","57841","0.912","9.24","1.993","5.767","NAN","NAN","NAN","NAN","NAN"],
    [1556852,"2026-06-05 04:20:00","57842","1.0390000000000001","329.2","2.287","324.6","NAN","NAN","NAN","NAN","NAN"],
    [1556853,"2026-06-05 04:30:00","57843","1.575","316.0","2.875","309.7","NAN","NAN","NAN","NAN","NAN"],
    [1556854,"2026-06-05 04:40:00","57844","1.712","316.6","2.515","320.4","NAN","NAN","NAN","NAN","NAN"],
    [1556855,"2026-06-05 04:50:00","57845","1.162","306.1","3.234","302.8","NAN","NAN","NAN","NAN","NAN"],
    [1556856,"2026-06-05 05:00:00","57846","1.599","307.7","2.973","302.2","NAN","NAN","NAN","NAN","NAN"],
    [1556857,"2026-06-05 05:10:00","57847","1.329","299.8","2.352","300.3","NAN","NAN","NAN","NAN","NAN"],
    [1556858,"2026-06-05 05:20:00","57848","1.466","306.8","3.103","302","NAN","NAN","NAN","NAN","NAN"],
    [1556859,"2026-06-05 05:30:00","57849","1.579","310.2","3.038","317.5","NAN","NAN","NAN","NAN","NAN"],
    [1556860,"2026-06-05 05:40:00","57850","1.952","296.3","2.973","299.4","NAN","NAN","NAN","NAN","NAN"],
    [1556861,"2026-06-05 05:50:00","57851","1.869","304.6","3.43","297.7","NAN","NAN","NAN","NAN","NAN"],
    [1556862,"2026-06-05 06:00:00","57852","0.9690000000000001","308.3","2.156","294.6","NAN","NAN","NAN","NAN","NAN"],
    [1556863,"2026-06-05 06:10:00","57853","0.99","290.5","2.123","290","NAN","NAN","NAN","NAN","NAN"],
    [1556864,"2026-06-05 06:20:00","57854","0.665","289.9","1.503","289.9","NAN","NAN","NAN","NAN","NAN"],
    [1556865,"2026-06-05 06:30:00","57855","1.119","302.1","2.417","309.4","NAN","NAN","NAN","NAN","NAN"],
    [1556866,"2026-06-05 06:40:00","57856","1.256","294.8","2.94","283.4","NAN","NAN","NAN","NAN","NAN"],
    [1556867,"2026-06-05 06:50:00","57857","1.3769999999999998","289.1","2.515","300","NAN","NAN","NAN","NAN","NAN"],
    [1556868,"2026-06-05 07:00:00","57858","1.0659999999999998","283.9","1.829","282.9","NAN","NAN","NAN","NAN","NAN"],
    [1556869,"2026-06-05 07:10:00","57859","0.563","304.9","1.895","323.4","NAN","NAN","NAN","NAN","NAN"],
    [1556870,"2026-06-05 07:20:00","57860","1.124","304.4","2.548","294.5","NAN","NAN","NAN","NAN","NAN"],
    [1556871,"2026-06-05 07:30:00","57861","1.1840000000000002","289.9","2.548","290.5","NAN","NAN","NAN","NAN","NAN"],
    [1556872,"2026-06-05 07:40:00","57862","2.456","285.4","5.259","284.7","NAN","NAN","NAN","NAN","NAN"],
    [1556873,"2026-06-05 07:50:00","57863","4.148","299.0","7.513","301.6","NAN","NAN","NAN","NAN","NAN"],
    [1556874,"2026-06-05 08:00:00","57864","3.977","297.6","6.925","293.3","NAN","NAN","NAN","NAN","NAN"],
    [1556875,"2026-06-05 08:10:00","57865","3.6239999999999997","305.7","6.272","313.8","NAN","NAN","NAN","NAN","NAN"],
    [1556876,"2026-06-05 08:20:00","57866","2.432","319.2","4.116","329.8","NAN","NAN","NAN","NAN","NAN"],
    [1556877,"2026-06-05 08:30:00","57867","2.7","316.8","4.377","314.8","NAN","NAN","NAN","NAN","NAN"],
    [1556878,"2026-06-05 08:40:00","57868","2.17","292.9","4.965","287.8","NAN","NAN","NAN","NAN","NAN"],
    [1556879,"2026-06-05 08:50:00","57869","1.494","265.8","3.397","245.9","NAN","NAN","NAN","NAN","NAN"],
    [1556880,"2026-06-05 09:00:00","57870","2.045","268.4","3.626","283.1","NAN","NAN","NAN","NAN","NAN"],
    [1556881,"2026-06-05 09:10:00","57871","2.4459999999999997","245.7","4.41","218.5","NAN","NAN","NAN","NAN","NAN"],
    [1556882,"2026-06-05 09:20:00","57872","2.395","214.8","4.769","232.2","NAN","NAN","NAN","NAN","NAN"],
    [1556883,"2026-06-05 09:30:00","57873","2.592","221.6","5.096","233","NAN","NAN","NAN","NAN","NAN"],
    [1556884,"2026-06-05 09:40:00","57874","2.968","233.0","5.194","225.4","NAN","NAN","NAN","NAN","NAN"],
    [1556885,"2026-06-05 09:50:00","57875","3.6889999999999996","231.7","5.88","257.4","NAN","NAN","NAN","NAN","NAN"],
    [1556886,"2026-06-05 10:00:00","57876","3.455","251.0","5.455","274.6","NAN","NAN","NAN","NAN","NAN"],
    [1556887,"2026-06-05 10:10:00","57877","3.6460000000000004","238.0","6.566","255.1","NAN","NAN","NAN","NAN","NAN"],
    [1556888,"2026-06-05 10:20:00","57878","3.175","244.7","4.867","248.9","NAN","NAN","NAN","NAN","NAN"],
    [1556889,"2026-06-05 10:30:00","57879","3.7760000000000002","245.3","5.88","234.8","NAN","NAN","NAN","NAN","NAN"],
    [1556890,"2026-06-05 10:40:00","57880","3.552","241.0","6.762","231.4","NAN","NAN","NAN","NAN","NAN"],
    [1556891,"2026-06-05 10:50:00","57881","4.294","236.2","7.219","249.8","NAN","NAN","NAN","NAN","NAN"],
    [1556892,"2026-06-05 11:00:00","57882","4.227","251.2","6.337","260.6","NAN","NAN","NAN","NAN","NAN"],
    [1556893,"2026-06-05 11:10:00","57883","3.175","237.3","5.945","215.9","NAN","NAN","NAN","NAN","NAN"],
    [1556894,"2026-06-05 11:20:00","57884","3.779","241.0","6.729","241.5","NAN","NAN","NAN","NAN","NAN"],
    [1556895,"2026-06-05 11:30:00","57885","4.051","228.0","7.481","226.6","NAN","NAN","NAN","NAN","NAN"],
    [1556896,"2026-06-05 11:40:00","57886","3.6260000000000003","225.6","6.337","223.2","NAN","NAN","NAN","NAN","NAN"],
    [1556897,"2026-06-05 11:50:00","57887","3.6719999999999997","225.5","5.913","243.9","NAN","NAN","NAN","NAN","NAN"],
    [1556898,"2026-06-05 12:00:00","57888","3.535","215.3","6.403","238.7","NAN","NAN","NAN","NAN","NAN"],
    [1556899,"2026-06-05 12:10:00","57889","3.405","221.2","5.978","218.8","NAN","NAN","NAN","NAN","NAN"],
    [1556900,"2026-06-05 12:20:00","57890","3.866","212.0","5.651","216.4","NAN","NAN","NAN","NAN","NAN"],
    [1556901,"2026-06-05 12:30:00","57891","3.9010000000000002","207.9","6.239","206.1","NAN","NAN","NAN","NAN","NAN"],
    [1556902,"2026-06-05 12:40:00","57892","4.582","217.3","7.677","212.1","NAN","NAN","NAN","NAN","NAN"],
    [1556903,"2026-06-05 12:50:00","57893","3.6210000000000004","213.8","6.011","220.8","NAN","NAN","NAN","NAN","NAN"],
    [1556904,"2026-06-05 13:00:00","57894","3.142","210.7","7.154","217.2","NAN","NAN","NAN","NAN","NAN"],
    [1556905,"2026-06-05 13:10:00","57895","3.5060000000000002","198.8","6.305","219.3","NAN","NAN","NAN","NAN","NAN"],
    [1556906,"2026-06-05 13:20:00","57896","4.223","218.2","7.383","206.8","NAN","NAN","NAN","NAN","NAN"],
    [1556907,"2026-06-05 13:30:00","57897","4.458","211.6","6.533","192.3","NAN","NAN","NAN","NAN","NAN"],
    [1556908,"2026-06-05 13:40:00","57898","3.557","204.5","6.664","211.5","NAN","NAN","NAN","NAN","NAN"],
    [1556909,"2026-06-05 13:50:00","57899","3.1060000000000003","196.5","6.468","222.4","NAN","NAN","NAN","NAN","NAN"],
    [1556910,"2026-06-05 14:00:00","57900","3.6519999999999997","205.4","6.697","208","NAN","NAN","NAN","NAN","NAN"],
    [1556911,"2026-06-05 14:10:00","57901","3.877","181.7","6.403","187.4","NAN","NAN","NAN","NAN","NAN"],
    [1556912,"2026-06-05 14:20:00","57902","4.15","199.8","6.501","166.2","NAN","NAN","NAN","NAN","NAN"],
    [1556913,"2026-06-05 14:30:00","57903","3.2880000000000003","197.3","6.435","208.1","NAN","NAN","NAN","NAN","NAN"],
    [1556914,"2026-06-05 14:40:00","57904","3.878","206.7","6.239","206.5","NAN","NAN","NAN","NAN","NAN"],
    [1556915,"2026-06-05 14:50:00","57905","3.842","192.2","6.991","222.3","NAN","NAN","NAN","NAN","NAN"],
    [1556916,"2026-06-05 15:00:00","57906","3.951","206.2","6.533","212","NAN","NAN","NAN","NAN","NAN"],
    [1556917,"2026-06-05 15:10:00","57907","3.532","196.2","5.88","205.5","NAN","NAN","NAN","NAN","NAN"],
    [1556918,"2026-06-05 15:20:00","57908","3.575","208.9","6.272","209.2","NAN","NAN","NAN","NAN","NAN"],
    [1556919,"2026-06-05 15:30:00","57909","3.339","195.5","5.815","203.7","NAN","NAN","NAN","NAN","NAN"],
    [1556920,"2026-06-05 15:40:00","57910","2.8819999999999997","203.4","5.39","214.6","NAN","NAN","NAN","NAN","NAN"],
    [1556921,"2026-06-05 15:50:00","57911","3.285","185.8","5.521","163.2","NAN","NAN","NAN","NAN","NAN"],
    [1556922,"2026-06-05 16:00:00","57912","3.625","184.8","6.076","175.3","NAN","NAN","NAN","NAN","NAN"],
    [1556923,"2026-06-05 16:10:00","57913","2.943","188.8","5.031","192","NAN","NAN","NAN","NAN","NAN"],
    [1556924,"2026-06-05 16:20:00","57914","3.484","207.7","5.945","216.6","NAN","NAN","NAN","NAN","NAN"],
    [1556925,"2026-06-05 16:30:00","57915","2.97","186.8","5.096","216","NAN","NAN","NAN","NAN","NAN"],
    [1556926,"2026-06-05 16:40:00","57916","3.523","190.3","6.174","181.9","NAN","NAN","NAN","NAN","NAN"],
    [1556927,"2026-06-05 16:50:00","57917","3.1","200.3","5.815","175.1","NAN","NAN","NAN","NAN","NAN"],
    [1556928,"2026-06-05 17:00:00","57918","2.548","191.3","4.867","150.2","NAN","NAN","NAN","NAN","NAN"],
    [1556929,"2026-06-05 17:10:00","57919","2.679","192.1","5.88","176.3","NAN","NAN","NAN","NAN","NAN"],
    [1556930,"2026-06-05 17:20:00","57920","2.79","199.8","4.802","185.8","NAN","NAN","NAN","NAN","NAN"],
    [1556931,"2026-06-05 17:30:00","57921","2.591","177.5","4.541","196.7","NAN","NAN","NAN","NAN","NAN"],
    [1556932,"2026-06-05 17:40:00","57922","2.3819999999999997","183.4","4.345","203.4","NAN","NAN","NAN","NAN","NAN"],
    [1556933,"2026-06-05 17:50:00","57923","2.256","187.6","4.377","164.4","NAN","NAN","NAN","NAN","NAN"],
    [1556934,"2026-06-05 18:00:00","57924","2.617","207.5","4.933","222.1","NAN","NAN","NAN","NAN","NAN"],
    [1556935,"2026-06-05 18:10:00","57925","2.266","194.7","4.541","219.5","NAN","NAN","NAN","NAN","NAN"],
    [1556936,"2026-06-05 18:20:00","57926","2.582","180.5","4.508","170.3","NAN","NAN","NAN","NAN","NAN"],
    [1556937,"2026-06-05 18:30:00","57927","1.66","192.6","3.365","229.1","NAN","NAN","NAN","NAN","NAN"],
    [1556938,"2026-06-05 18:40:00","57928","2.016","189.8","4.083","185.9","NAN","NAN","NAN","NAN","NAN"],
    [1556939,"2026-06-05 18:50:00","57929","2.133","176.2","3.757","183.6","NAN","NAN","NAN","NAN","NAN"],
    [1556940,"2026-06-05 19:00:00","57930","1.736","195.5","3.495","170.8","NAN","NAN","NAN","NAN","NAN"],
    [1556941,"2026-06-05 19:10:00","57931","1.891","192.2","3.985","175","NAN","NAN","NAN","NAN","NAN"],
    [1556942,"2026-06-05 19:20:00","57932","1.963","180.8","3.365","172.6","NAN","NAN","NAN","NAN","NAN"],
    [1556943,"2026-06-05 19:30:00","57933","2.013","175.6","3.887","169","NAN","NAN","NAN","NAN","NAN"],
    [1556944,"2026-06-05 19:40:00","57934","2.074","176.5","3.822","189.1","NAN","NAN","NAN","NAN","NAN"],
    [1556945,"2026-06-05 19:50:00","57935","1.929","184.9","3.136","179.2","NAN","NAN","NAN","NAN","NAN"],
    [1556946,"2026-06-05 20:00:00","57936","1.7690000000000001","188.8","3.136","211.4","NAN","NAN","NAN","NAN","NAN"],
    [1556947,"2026-06-05 20:10:00","57937","1.6580000000000001","202.2","3.103","179.9","NAN","NAN","NAN","NAN","NAN"],
    [1556948,"2026-06-05 20:20:00","57938","1.6640000000000001","206.6","3.201","208.7","NAN","NAN","NAN","NAN","NAN"],
    [1556949,"2026-06-05 20:30:00","57939","1.5519999999999998","207.5","2.94","209.3","NAN","NAN","NAN","NAN","NAN"],
    [1556950,"2026-06-05 20:40:00","57940","1.993","208.5","3.267","207","NAN","NAN","NAN","NAN","NAN"],
    [1556951,"2026-06-05 20:50:00","57941","2.089","212.8","3.267","207.6","NAN","NAN","NAN","NAN","NAN"],
    [1556952,"2026-06-05 21:00:00","57942","2.009","210.6","2.875","214.2","NAN","NAN","NAN","NAN","NAN"],
    [1556953,"2026-06-05 21:10:00","57943","1.909","207.8","3.103","213.1","NAN","NAN","NAN","NAN","NAN"],
    [1556954,"2026-06-05 21:20:00","57944","1.976","206.6","3.038","206.7","NAN","NAN","NAN","NAN","NAN"],
    [1556955,"2026-06-05 21:30:00","57945","2.375","211.3","3.463","212.6","NAN","NAN","NAN","NAN","NAN"],
    [1556956,"2026-06-05 21:40:00","57946","1.905","207.3","2.842","211.5","NAN","NAN","NAN","NAN","NAN"],
    [1556957,"2026-06-05 21:50:00","57947","1.944","209.0","2.94","217.1","NAN","NAN","NAN","NAN","NAN"],
    [1556958,"2026-06-05 22:00:00","57948","2.093","209.3","3.267","215.7","NAN","NAN","NAN","NAN","NAN"],
    [1556959,"2026-06-05 22:10:00","57949","1.9380000000000002","210.1","3.691","210.5","NAN","NAN","NAN","NAN","NAN"],
    [1556960,"2026-06-05 22:20:00","57950","1.811","210.2","3.169","200.4","NAN","NAN","NAN","NAN","NAN"],
    [1556961,"2026-06-05 22:30:00","57951","1.435","221.2","2.809","220.6","NAN","NAN","NAN","NAN","NAN"],
    [1556962,"2026-06-05 22:40:00","57952","1.7309999999999999","224.5","3.299","221.9","NAN","NAN","NAN","NAN","NAN"],
    [1556963,"2026-06-05 22:50:00","57953","0.9570000000000001","235.3","1.96","234.7","NAN","NAN","NAN","NAN","NAN"],
    [1556964,"2026-06-05 23:00:00","57954","0.405","237.4","1.47","238","NAN","NAN","NAN","NAN","NAN"],
    [1556965,"2026-06-05 23:10:00","57955","0.22","240.4","0.849","238.3","NAN","NAN","NAN","NAN","NAN"],
    [1556966,"2026-06-05 23:20:00","57956","0.146","246.0","0.817","245.5","NAN","NAN","NAN","NAN","NAN"],
    [1556967,"2026-06-05 23:30:00","57957","0.0","247.6","0.065","247.6","NAN","NAN","NAN","NAN","NAN"],
    [1556968,"2026-06-05 23:40:00","57958","0.129","247.6","0.784","247.6","NAN","NAN","NAN","NAN","NAN"],
    [1556969,"2026-06-05 23:50:00","57959","0.203","247.7","0.621","247.6","NAN","NAN","NAN","NAN","NAN"],
    [1556970,"2026-06-06 00:00:00","57960","0.09","248.6","0.588","249.2","NAN","NAN","NAN","NAN","NAN"],
    [1556971,"2026-06-06 00:10:00","57961","0.38","252.4","0.915","249.7","NAN","NAN","NAN","NAN","NAN"],
    [1556972,"2026-06-06 00:20:00","57962","0.215","255.4","1.274","257","NAN","NAN","NAN","NAN","NAN"],
    [1556973,"2026-06-06 00:30:00","57963","0.6829999999999999","262.1","1.241","265.8","NAN","NAN","NAN","NAN","NAN"],
    [1556974,"2026-06-06 00:40:00","57964","0.775","269.8","1.731","270.9","NAN","NAN","NAN","NAN","NAN"],
    [1556975,"2026-06-06 00:50:00","57965","0.5539999999999999","271.4","1.307","271.3","NAN","NAN","NAN","NAN","NAN"],
    [1556976,"2026-06-06 01:00:00","57966","0.441","271.5","0.947","271.6","NAN","NAN","NAN","NAN","NAN"],
    [1556977,"2026-06-06 01:10:00","57967","0.499","271.6","1.601","271.6","NAN","NAN","NAN","NAN","NAN"],
    [1556978,"2026-06-06 01:20:00","57968","0.87","273.1","1.993","273.9","NAN","NAN","NAN","NAN","NAN"],
    [1556979,"2026-06-06 01:30:00","57969","1.073","277.9","1.829","277","NAN","NAN","NAN","NAN","NAN"],
    [1556980,"2026-06-06 01:40:00","57970","1.0390000000000001","279.6","2.091","279.4","NAN","NAN","NAN","NAN","NAN"],
    [1556981,"2026-06-06 01:50:00","57971","0.581","280.3","1.764","280.1","NAN","NAN","NAN","NAN","NAN"],
    [1556982,"2026-06-06 02:00:00","57972","0.973","280.5","2.45","280.7","NAN","NAN","NAN","NAN","NAN"],
    [1556983,"2026-06-06 02:10:00","57973","0.677","280.8","1.47","280.8","NAN","NAN","NAN","NAN","NAN"],
    [1556984,"2026-06-06 02:20:00","57974","0.648","280.8","1.339","280.8","NAN","NAN","NAN","NAN","NAN"],
    [1556985,"2026-06-06 02:30:00","57975","0.958","281.9","2.025","282.4","NAN","NAN","NAN","NAN","NAN"],
    [1556986,"2026-06-06 02:40:00","57976","0.992","283.5","1.568","283.4","NAN","NAN","NAN","NAN","NAN"],
    [1556987,"2026-06-06 02:50:00","57977","0.833","283.7","1.666","283.8","NAN","NAN","NAN","NAN","NAN"],
    [1556988,"2026-06-06 03:00:00","57978","0.774","283.9","1.601","283.8","NAN","NAN","NAN","NAN","NAN"],
    [1556989,"2026-06-06 03:10:00","57979","0.861","283.9","1.666","284","NAN","NAN","NAN","NAN","NAN"],
    [1556990,"2026-06-06 03:20:00","57980","0.9209999999999999","283.7","1.862","284.1","NAN","NAN","NAN","NAN","NAN"],
    [1556991,"2026-06-06 03:30:00","57981","0.779","283.2","1.699","284.5","NAN","NAN","NAN","NAN","NAN"],
    [1556992,"2026-06-06 03:40:00","57982","1.079","284.8","1.993","284.8","NAN","NAN","NAN","NAN","NAN"],
    [1556993,"2026-06-06 03:50:00","57983","1.181","287.7","2.385","288.7","NAN","NAN","NAN","NAN","NAN"],
    [1556994,"2026-06-06 04:00:00","57984","0.8170000000000001","286.9","1.503","285.9","NAN","NAN","NAN","NAN","NAN"],
    [1556995,"2026-06-06 04:10:00","57985","0.7190000000000001","286.9","1.209","286.2","NAN","NAN","NAN","NAN","NAN"],
    [1556996,"2026-06-06 04:20:00","57986","0.5589999999999999","286.6","1.307","285.3","NAN","NAN","NAN","NAN","NAN"],
    [1556997,"2026-06-06 04:30:00","57987","1.103","288.0","1.666","288.4","NAN","NAN","NAN","NAN","NAN"],
    [1556998,"2026-06-06 04:40:00","57988","0.981","289.4","1.764","289.5","NAN","NAN","NAN","NAN","NAN"],
    [1556999,"2026-06-06 04:50:00","57989","0.9570000000000001","289.9","1.666","288.7","NAN","NAN","NAN","NAN","NAN"],
    [1557000,"2026-06-06 05:00:00","57990","1.205","290.0","2.287","290.1","NAN","NAN","NAN","NAN","NAN"],
    [1557001,"2026-06-06 05:10:00","57991","0.76","284.9","1.862","284.8","NAN","NAN","NAN","NAN","NAN"],
    [1557002,"2026-06-06 05:20:00","57992","0.612","283.9","1.699","290.6","NAN","NAN","NAN","NAN","NAN"],
    [1557003,"2026-06-06 05:30:00","57993","1.432","282.8","2.221","280.2","NAN","NAN","NAN","NAN","NAN"],
    [1557004,"2026-06-06 05:40:00","57994","1.459","287.7","2.385","289.4","NAN","NAN","NAN","NAN","NAN"],
    [1557005,"2026-06-06 05:50:00","57995","1.587","288.4","2.483","289.1","NAN","NAN","NAN","NAN","NAN"],
    [1557006,"2026-06-06 06:00:00","57996","1.4880000000000002","287.4","2.45","287.2","NAN","NAN","NAN","NAN","NAN"],
    [1557007,"2026-06-06 06:10:00","57997","1.045","280.5","2.058","284.4","NAN","NAN","NAN","NAN","NAN"],
    [1557008,"2026-06-06 06:20:00","57998","1.459","291.3","2.156","292.9","NAN","NAN","NAN","NAN","NAN"],
    [1557009,"2026-06-06 06:30:00","57999","1.6969999999999998","284.5","2.613","287.7","NAN","NAN","NAN","NAN","NAN"],
    [1557010,"2026-06-06 06:40:00","58000","1.7730000000000001","287.7","2.744","287","NAN","NAN","NAN","NAN","NAN"],
    [1557011,"2026-06-06 06:50:00","58001","1.392","281.7","2.319","289.3","NAN","NAN","NAN","NAN","NAN"],
    [1557012,"2026-06-06 07:00:00","58002","0.965","283.6","1.797","290.1","NAN","NAN","NAN","NAN","NAN"],
    [1557013,"2026-06-06 07:10:00","58003","1.063","280.6","2.385","267","NAN","NAN","NAN","NAN","NAN"],
    [1557014,"2026-06-06 07:20:00","58004","1.3459999999999999","264.5","2.417","264.4","NAN","NAN","NAN","NAN","NAN"],
    [1557015,"2026-06-06 07:30:00","58005","1.472","259.0","3.169","251.5","NAN","NAN","NAN","NAN","NAN"],
    [1557016,"2026-06-06 07:40:00","58006","1.821","237.0","3.267","244.3","NAN","NAN","NAN","NAN","NAN"],
    [1557017,"2026-06-06 07:50:00","58007","1.7180000000000002","244.6","3.005","245.6","NAN","NAN","NAN","NAN","NAN"],
    [1557018,"2026-06-06 08:00:00","58008","2.0580000000000003","255.3","3.985","241.9","NAN","NAN","NAN","NAN","NAN"],
    [1557019,"2026-06-06 08:10:00","58009","1.915","240.8","3.887","249.6","NAN","NAN","NAN","NAN","NAN"],
    [1557020,"2026-06-06 08:20:00","58010","2.596","251.1","4.835","237.5","NAN","NAN","NAN","NAN","NAN"],
    [1557021,"2026-06-06 08:30:00","58011","2.492","219.7","4.835","237","NAN","NAN","NAN","NAN","NAN"],
    [1557022,"2026-06-06 08:40:00","58012","2.5340000000000003","191.8","5.227","208.3","NAN","NAN","NAN","NAN","NAN"],
    [1557023,"2026-06-06 08:50:00","58013","2.819","215.5","5.096","216.2","NAN","NAN","NAN","NAN","NAN"],
    [1557024,"2026-06-06 09:00:00","58014","2.7969999999999997","197.1","5.161","233.4","NAN","NAN","NAN","NAN","NAN"],
    [1557025,"2026-06-06 09:10:00","58015","3.0260000000000002","197.4","5.325","219.4","NAN","NAN","NAN","NAN","NAN"],
    [1557026,"2026-06-06 09:20:00","58016","2.86","189.6","4.867","211.9","NAN","NAN","NAN","NAN","NAN"],
    [1557027,"2026-06-06 09:30:00","58017","3.24","176.3","5.455","179.7","NAN","NAN","NAN","NAN","NAN"],
    [1557028,"2026-06-06 09:40:00","58018","3.65","172.6","6.468","169","NAN","NAN","NAN","NAN","NAN"],
    [1557029,"2026-06-06 09:50:00","58019","4.151","170.4","6.729","162.4","NAN","NAN","NAN","NAN","NAN"],
    [1557030,"2026-06-06 10:00:00","58020","3.281","177.8","5.586","161","NAN","NAN","NAN","NAN","NAN"],
    [1557031,"2026-06-06 10:10:00","58021","2.83","191.8","5.619","219.8","NAN","NAN","NAN","NAN","NAN"],
    [1557032,"2026-06-06 10:20:00","58022","3.18","186.9","6.076","159.8","NAN","NAN","NAN","NAN","NAN"],
    [1557033,"2026-06-06 10:30:00","58023","3.528","199.9","5.978","206","NAN","NAN","NAN","NAN","NAN"],
    [1557034,"2026-06-06 10:40:00","58024","4.288","202.8","7.121","210.8","NAN","NAN","NAN","NAN","NAN"],
    [1557035,"2026-06-06 10:50:00","58025","4.442","210.3","7.056","228.8","NAN","NAN","NAN","NAN","NAN"],
    [1557036,"2026-06-06 11:00:00","58026","3.9339999999999997","203.1","7.383","232.2","NAN","NAN","NAN","NAN","NAN"],
    [1557037,"2026-06-06 11:10:00","58027","3.215","199.5","5.357","216.3","NAN","NAN","NAN","NAN","NAN"],
    [1557038,"2026-06-06 11:20:00","58028","3.9610000000000003","190.5","6.893","175.4","NAN","NAN","NAN","NAN","NAN"],
    [1557039,"2026-06-06 11:30:00","58029","3.698","199.2","6.533","183.1","NAN","NAN","NAN","NAN","NAN"],
    [1557040,"2026-06-06 11:40:00","58030","4.281000000000001","213.3","6.207","227.4","NAN","NAN","NAN","NAN","NAN"],
    [1557041,"2026-06-06 11:50:00","58031","4.13","210.0","7.089","218.3","NAN","NAN","NAN","NAN","NAN"],
    [1557042,"2026-06-06 12:00:00","58032","4.345","208.2","7.677","213.8","NAN","NAN","NAN","NAN","NAN"],
    [1557043,"2026-06-06 12:10:00","58033","3.286","203.8","5.553","214","NAN","NAN","NAN","NAN","NAN"],
    [1557044,"2026-06-06 12:20:00","58034","3.572","194.6","6.239","174.3","NAN","NAN","NAN","NAN","NAN"],
    [1557045,"2026-06-06 12:30:00","58035","3.9330000000000003","186.2","6.599","185.4","NAN","NAN","NAN","NAN","NAN"],
    [1557046,"2026-06-06 12:40:00","58036","3.597","182.1","6.533","168.5","NAN","NAN","NAN","NAN","NAN"],
    [1557047,"2026-06-06 12:50:00","58037","3.873","181.4","6.109","194.1","NAN","NAN","NAN","NAN","NAN"],
    [1557048,"2026-06-06 13:00:00","58038","3.565","185.9","5.945","210.6","NAN","NAN","NAN","NAN","NAN"],
    [1557049,"2026-06-06 13:10:00","58039","2.708","198.6","5.292","209.4","NAN","NAN","NAN","NAN","NAN"],
    [1557050,"2026-06-06 13:20:00","58040","3.196","189.2","6.468","174.2","NAN","NAN","NAN","NAN","NAN"],
    [1557051,"2026-06-06 13:30:00","58041","3.37","198.1","6.109","205.5","NAN","NAN","NAN","NAN","NAN"],
    [1557052,"2026-06-06 13:40:00","58042","4.0889999999999995","206.3","7.775","199.2","NAN","NAN","NAN","NAN","NAN"],
    [1557053,"2026-06-06 13:50:00","58043","4.13","213.8","6.697","225.7","NAN","NAN","NAN","NAN","NAN"],
    [1557054,"2026-06-06 14:00:00","58044","3.6910000000000003","214.1","6.239","235.4","NAN","NAN","NAN","NAN","NAN"],
    [1557055,"2026-06-06 14:10:00","58045","3.867","216.1","6.043","217.6","NAN","NAN","NAN","NAN","NAN"],
    [1557056,"2026-06-06 14:20:00","58046","3.589","212.5","5.749","201.8","NAN","NAN","NAN","NAN","NAN"],
    [1557057,"2026-06-06 14:30:00","58047","4.442","208.5","6.305","220.4","NAN","NAN","NAN","NAN","NAN"],
    [1557058,"2026-06-06 14:40:00","58048","4.1819999999999995","207.1","5.88","203","NAN","NAN","NAN","NAN","NAN"],
    [1557059,"2026-06-06 14:50:00","58049","4.008","227.7","6.174","223.2","NAN","NAN","NAN","NAN","NAN"],
    [1557060,"2026-06-06 15:00:00","58050","3.65","222.7","6.697","247.5","NAN","NAN","NAN","NAN","NAN"],
    [1557061,"2026-06-06 15:10:00","58051","3.429","234.6","5.684","245.6","NAN","NAN","NAN","NAN","NAN"],
    [1557062,"2026-06-06 15:20:00","58052","3.322","231.3","5.913","218.4","NAN","NAN","NAN","NAN","NAN"],
    [1557063,"2026-06-06 15:30:00","58053","2.674","232.9","6.076","216.5","NAN","NAN","NAN","NAN","NAN"],
    [1557064,"2026-06-06 15:40:00","58054","3.508","217.7","6.141","217.3","NAN","NAN","NAN","NAN","NAN"],
    [1557065,"2026-06-06 15:50:00","58055","3.7569999999999997","209.1","5.88","206.3","NAN","NAN","NAN","NAN","NAN"],
    [1557066,"2026-06-06 16:00:00","58056","3.616","217.5","5.325","244.9","NAN","NAN","NAN","NAN","NAN"],
    [1557067,"2026-06-06 16:10:00","58057","3.943","209.8","6.468","213.9","NAN","NAN","NAN","NAN","NAN"],
    [1557068,"2026-06-06 16:20:00","58058","3.964","210.1","7.056","208.6","NAN","NAN","NAN","NAN","NAN"],
    [1557069,"2026-06-06 16:30:00","58059","4.096","215.1","6.239","234.4","NAN","NAN","NAN","NAN","NAN"],
    [1557070,"2026-06-06 16:40:00","58060","4.276","208.8","6.37","207.3","NAN","NAN","NAN","NAN","NAN"],
    [1557071,"2026-06-06 16:50:00","58061","4.15","215.0","7.056","214.8","NAN","NAN","NAN","NAN","NAN"],
    [1557072,"2026-06-06 17:00:00","58062","3.888","219.1","6.631","230.4","NAN","NAN","NAN","NAN","NAN"],
    [1557073,"2026-06-06 17:10:00","58063","3.787","217.8","6.076","215.9","NAN","NAN","NAN","NAN","NAN"],
    [1557074,"2026-06-06 17:20:00","58064","3.187","220.3","5.619","231","NAN","NAN","NAN","NAN","NAN"],
    [1557075,"2026-06-06 17:30:00","58065","3.136","226.0","5.88","212.6","NAN","NAN","NAN","NAN","NAN"],
    [1557076,"2026-06-06 17:40:00","58066","3.3810000000000002","222.2","5.292","229.4","NAN","NAN","NAN","NAN","NAN"],
    [1557077,"2026-06-06 17:50:00","58067","3.137","217.8","6.011","236.2","NAN","NAN","NAN","NAN","NAN"],
    [1557078,"2026-06-06 18:00:00","58068","2.826","227.5","5.194","217.6","NAN","NAN","NAN","NAN","NAN"],
    [1557079,"2026-06-06 18:10:00","58069","3.09","216.4","5.782","210.3","NAN","NAN","NAN","NAN","NAN"],
    [1557080,"2026-06-06 18:20:00","58070","3.275","233.6","5.717","222.9","NAN","NAN","NAN","NAN","NAN"],
    [1557081,"2026-06-06 18:30:00","58071","3.375","224.1","5.586","225.7","NAN","NAN","NAN","NAN","NAN"],
    [1557082,"2026-06-06 18:40:00","58072","2.6289999999999996","225.3","5.88","203.4","NAN","NAN","NAN","NAN","NAN"],
    [1557083,"2026-06-06 18:50:00","58073","2.708","221.5","5.325","227.5","NAN","NAN","NAN","NAN","NAN"],
    [1557084,"2026-06-06 19:00:00","58074","2.229","231.0","4.573","208.7","NAN","NAN","NAN","NAN","NAN"],
    [1557085,"2026-06-06 19:10:00","58075","2.3280000000000003","219.5","4.573","211.2","NAN","NAN","NAN","NAN","NAN"],
    [1557086,"2026-06-06 19:20:00","58076","2.3930000000000002","226.8","4.802","222.6","NAN","NAN","NAN","NAN","NAN"],
    [1557087,"2026-06-06 19:30:00","58077","2.234","231.2","4.9","218.1","NAN","NAN","NAN","NAN","NAN"],
    [1557088,"2026-06-06 19:40:00","58078","2.272","232.4","4.867","214.8","NAN","NAN","NAN","NAN","NAN"],
    [1557089,"2026-06-06 19:50:00","58079","2.323","225.0","4.116","239.7","NAN","NAN","NAN","NAN","NAN"],
    [1557090,"2026-06-06 20:00:00","58080","1.8659999999999999","217.5","3.528","222.4","NAN","NAN","NAN","NAN","NAN"],
    [1557091,"2026-06-06 20:10:00","58081","1.6019999999999999","215.3","3.136","225.6","NAN","NAN","NAN","NAN","NAN"],
    [1557092,"2026-06-06 20:20:00","58082","1.9380000000000002","209.4","3.332","217","NAN","NAN","NAN","NAN","NAN"],
    [1557093,"2026-06-06 20:30:00","58083","1.88","215.1","3.136","201.5","NAN","NAN","NAN","NAN","NAN"],
    [1557094,"2026-06-06 20:40:00","58084","1.065","214.5","2.483","217.7","NAN","NAN","NAN","NAN","NAN"],
    [1557095,"2026-06-06 20:50:00","58085","1.0390000000000001","210.1","2.352","219.6","NAN","NAN","NAN","NAN","NAN"],
    [1557096,"2026-06-06 21:00:00","58086","1.193","214.9","2.679","209.6","NAN","NAN","NAN","NAN","NAN"],
    [1557097,"2026-06-06 21:10:00","58087","1.825","208.7","3.201","214.8","NAN","NAN","NAN","NAN","NAN"],
    [1557098,"2026-06-06 21:20:00","58088","1.453","207.7","2.94","202.8","NAN","NAN","NAN","NAN","NAN"],
    [1557099,"2026-06-06 21:30:00","58089","1.4609999999999999","206.8","3.071","204.7","NAN","NAN","NAN","NAN","NAN"],
    [1557100,"2026-06-06 21:40:00","58090","1.692","206.3","2.777","210.3","NAN","NAN","NAN","NAN","NAN"],
    [1557101,"2026-06-06 21:50:00","58091","1.52","207.7","2.581","207.5","NAN","NAN","NAN","NAN","NAN"],
    [1557102,"2026-06-06 22:00:00","58092","1.511","220.1","2.842","223.3","NAN","NAN","NAN","NAN","NAN"],
    [1557103,"2026-06-06 22:10:00","58093","1.564","221.9","3.365","225.2","NAN","NAN","NAN","NAN","NAN"],
    [1557104,"2026-06-06 22:20:00","58094","1.69","214.3","3.071","210.3","NAN","NAN","NAN","NAN","NAN"],
    [1557105,"2026-06-06 22:30:00","58095","1.653","229.5","3.528","215.4","NAN","NAN","NAN","NAN","NAN"],
    [1557106,"2026-06-06 22:40:00","58096","1.436","239.6","3.071","242.5","NAN","NAN","NAN","NAN","NAN"],
    [1557107,"2026-06-06 22:50:00","58097","1.085","241.4","2.613","236.1","NAN","NAN","NAN","NAN","NAN"],
    [1557108,"2026-06-06 23:00:00","58098","0.7440000000000001","239.7","1.633","231.4","NAN","NAN","NAN","NAN","NAN"],
    [1557109,"2026-06-06 23:10:00","58099","0.82","227.8","2.091","227.1","NAN","NAN","NAN","NAN","NAN"],
    [1557110,"2026-06-06 23:20:00","58100","1.021","235.8","2.287","245.9","NAN","NAN","NAN","NAN","NAN"],
    [1557111,"2026-06-06 23:30:00","58101","0.5820000000000001","246.2","1.731","246.5","NAN","NAN","NAN","NAN","NAN"],
    [1557112,"2026-06-06 23:40:00","58102","0.845","247.0","1.731","246.8","NAN","NAN","NAN","NAN","NAN"],
    [1557113,"2026-06-06 23:50:00","58103","0.733","247.1","1.535","247.5","NAN","NAN","NAN","NAN","NAN"],
    [1557114,"2026-06-07 00:00:00","58104","0.846","247.2","1.797","247.1","NAN","NAN","NAN","NAN","NAN"],
    [1557115,"2026-06-07 00:10:00","58105","0.113","239.7","1.209","242.2","NAN","NAN","NAN","NAN","NAN"],
    [1557116,"2026-06-07 00:20:00","58106","0.0","0.0","0","0","NAN","NAN","NAN","NAN","NAN"],
    [1557117,"2026-06-07 00:30:00","58107","0.0","0.0","0","0","NAN","NAN","NAN","NAN","NAN"],
    [1557118,"2026-06-07 00:40:00","58108","0.23","234.2","0.686","235.2","NAN","NAN","NAN","NAN","NAN"],
    [1557119,"2026-06-07 00:50:00","58109","0.040999999999999995","224.4","0.555","223.1","NAN","NAN","NAN","NAN","NAN"],
    [1557120,"2026-06-07 01:00:00","58110","0.8440000000000001","216.3","1.601","213.6","NAN","NAN","NAN","NAN","NAN"],
    [1557121,"2026-06-07 01:10:00","58111","0.462","209.9","1.568","209.8","NAN","NAN","NAN","NAN","NAN"],
    [1557122,"2026-06-07 01:20:00","58112","0.308","209.9","1.241","209.9","NAN","NAN","NAN","NAN","NAN"],
    [1557123,"2026-06-07 01:30:00","58113","0.614","210.4","1.568","209.9","NAN","NAN","NAN","NAN","NAN"],
    [1557124,"2026-06-07 01:40:00","58114","0.17800000000000002","211.3","1.535","211.9","NAN","NAN","NAN","NAN","NAN"],
    [1557125,"2026-06-07 01:50:00","58115","0.002","210.5","0.229","210.5","NAN","NAN","NAN","NAN","NAN"],
    [1557126,"2026-06-07 02:00:00","58116","0.033","217.6","0.457","217.8","NAN","NAN","NAN","NAN","NAN"],
    [1557127,"2026-06-07 02:10:00","58117","0.0","0.0","0","0","NAN","NAN","NAN","NAN","NAN"],
    [1557128,"2026-06-07 02:20:00","58118","0.03","221.5","0.359","221.5","NAN","NAN","NAN","NAN","NAN"],
    [1557129,"2026-06-07 02:30:00","58119","0.016","221.5","0.327","221.5","NAN","NAN","NAN","NAN","NAN"],
    [1557130,"2026-06-07 02:40:00","58120","0.001","221.6","0.098","221.6","NAN","NAN","NAN","NAN","NAN"],
    [1557131,"2026-06-07 02:50:00","58121","0.0","221.6","0.065","221.6","NAN","NAN","NAN","NAN","NAN"],
    [1557132,"2026-06-07 03:00:00","58122","0.062","221.6","0.359","221.6","NAN","NAN","NAN","NAN","NAN"],
    [1557133,"2026-06-07 03:10:00","58123","0.0","0.0","0","0","NAN","NAN","NAN","NAN","NAN"],
    [1557134,"2026-06-07 03:20:00","58124","0.008","221.6","0.229","221.6","NAN","NAN","NAN","NAN","NAN"],
    [1557135,"2026-06-07 03:30:00","58125","0.08199999999999999","221.7","0.425","221.7","NAN","NAN","NAN","NAN","NAN"],
    [1557136,"2026-06-07 03:40:00","58126","0.036000000000000004","221.8","0.425","221.8","NAN","NAN","NAN","NAN","NAN"],
    [1557137,"2026-06-07 03:50:00","58127","0.14300000000000002","221.8","0.882","221.8","NAN","NAN","NAN","NAN","NAN"],
    [1557138,"2026-06-07 04:00:00","58128","0.001","221.8","0.065","221.8","NAN","NAN","NAN","NAN","NAN"],
    [1557139,"2026-06-07 04:10:00","58129","0.012","221.8","0.327","221.8","NAN","NAN","NAN","NAN","NAN"],
    [1557140,"2026-06-07 04:20:00","58130","0.013000000000000001","221.9","0.229","221.9","NAN","NAN","NAN","NAN","NAN"],
    [1557141,"2026-06-07 04:30:00","58131","0.106","222.0","0.653","221.9","NAN","NAN","NAN","NAN","NAN"],
    [1557142,"2026-06-07 04:40:00","58132","0.153","222.0","0.849","222","NAN","NAN","NAN","NAN","NAN"],
    [1557143,"2026-06-07 04:50:00","58133","0.039","224.2","0.425","225.1","NAN","NAN","NAN","NAN","NAN"],
    [1557144,"2026-06-07 05:00:00","58134","0.19399999999999998","225.3","0.653","225.2","NAN","NAN","NAN","NAN","NAN"],
    [1557145,"2026-06-07 05:10:00","58135","0.149","226.3","0.817","226.4","NAN","NAN","NAN","NAN","NAN"],
    [1557146,"2026-06-07 05:20:00","58136","0.502","229.2","0.947","229","NAN","NAN","NAN","NAN","NAN"],
    [1557147,"2026-06-07 05:30:00","58137","0.6759999999999999","231.0","1.111","230.7","NAN","NAN","NAN","NAN","NAN"],
    [1557148,"2026-06-07 05:40:00","58138","0.555","232.9","1.209","232.8","NAN","NAN","NAN","NAN","NAN"],
    [1557149,"2026-06-07 05:50:00","58139","1.0590000000000002","241.9","2.156","246.9","NAN","NAN","NAN","NAN","NAN"],
    [1557150,"2026-06-07 06:00:00","58140","1.2690000000000001","256.3","2.189","255.7","NAN","NAN","NAN","NAN","NAN"],
    [1557151,"2026-06-07 06:10:00","58141","1.28","259.0","2.319","259.2","NAN","NAN","NAN","NAN","NAN"],
    [1557152,"2026-06-07 06:20:00","58142","0.526","259.4","1.568","259.4","NAN","NAN","NAN","NAN","NAN"],
    [1557153,"2026-06-07 06:30:00","58143","0.659","259.4","1.372","259.3","NAN","NAN","NAN","NAN","NAN"],
    [1557154,"2026-06-07 06:40:00","58144","0.524","258.9","1.241","257.2","NAN","NAN","NAN","NAN","NAN"],
    [1557155,"2026-06-07 06:50:00","58145","0.245","259.8","0.882","259.8","NAN","NAN","NAN","NAN","NAN"],
    [1557156,"2026-06-07 07:00:00","58146","0.035","259.9","0.555","259.9","NAN","NAN","NAN","NAN","NAN"],
    [1557157,"2026-06-07 07:10:00","58147","0.237","259.9","0.817","260","NAN","NAN","NAN","NAN","NAN"],
    [1557158,"2026-06-07 07:20:00","58148","0.257","259.2","1.209","257.3","NAN","NAN","NAN","NAN","NAN"],
    [1557159,"2026-06-07 07:30:00","58149","0.42200000000000004","257.0","1.176","259.7","NAN","NAN","NAN","NAN","NAN"],
    [1557160,"2026-06-07 07:40:00","58150","0.823","245.8","1.405","245","NAN","NAN","NAN","NAN","NAN"],
    [1557161,"2026-06-07 07:50:00","58151","0.996","148.1","1.862","133.3","NAN","NAN","NAN","NAN","NAN"],
    [1557162,"2026-06-07 08:00:00","58152","1.88","131.5","2.907","133.6","NAN","NAN","NAN","NAN","NAN"],
    [1557163,"2026-06-07 08:10:00","58153","1.723","124.7","2.385","129.3","NAN","NAN","NAN","NAN","NAN"],
    [1557164,"2026-06-07 08:20:00","58154","1.787","114.3","2.711","111.9","NAN","NAN","NAN","NAN","NAN"],
    [1557165,"2026-06-07 08:30:00","58155","1.963","119.6","2.777","129.3","NAN","NAN","NAN","NAN","NAN"],
    [1557166,"2026-06-07 08:40:00","58156","2.207","116.3","3.234","115.7","NAN","NAN","NAN","NAN","NAN"],
    [1557167,"2026-06-07 08:50:00","58157","2.5380000000000003","122.0","4.247","128.3","NAN","NAN","NAN","NAN","NAN"],
    [1557168,"2026-06-07 09:00:00","58158","2.425","146.4","4.573","134","NAN","NAN","NAN","NAN","NAN"],
    [1557169,"2026-06-07 09:10:00","58159","2.6860000000000004","167.1","5.194","158","NAN","NAN","NAN","NAN","NAN"],
    [1557170,"2026-06-07 09:20:00","58160","2.198","153.7","4.671","171.3","NAN","NAN","NAN","NAN","NAN"],
    [1557171,"2026-06-07 09:30:00","58161","2.4619999999999997","145.4","4.508","145.6","NAN","NAN","NAN","NAN","NAN"],
    [1557172,"2026-06-07 09:40:00","58162","2.293","162.6","4.181","159.3","NAN","NAN","NAN","NAN","NAN"],
    [1557173,"2026-06-07 09:50:00","58163","2.775","204.2","5.39","214.4","NAN","NAN","NAN","NAN","NAN"],
    [1557174,"2026-06-07 10:00:00","58164","2.449","183.3","4.671","174.4","NAN","NAN","NAN","NAN","NAN"],
    [1557175,"2026-06-07 10:10:00","58165","3.0069999999999997","203.9","5.161","214.5","NAN","NAN","NAN","NAN","NAN"],
    [1557176,"2026-06-07 10:20:00","58166","2.475","216.1","5.423","222.7","NAN","NAN","NAN","NAN","NAN"],
    [1557177,"2026-06-07 10:30:00","58167","2.9330000000000003","215.1","5.455","187.8","NAN","NAN","NAN","NAN","NAN"],
    [1557178,"2026-06-07 10:40:00","58168","2.8080000000000003","201.2","5.129","236.7","NAN","NAN","NAN","NAN","NAN"],
    [1557179,"2026-06-07 10:50:00","58169","2.544","199.0","4.835","183.8","NAN","NAN","NAN","NAN","NAN"],
    [1557180,"2026-06-07 11:00:00","58170","1.985","192.0","5.194","159.5","NAN","NAN","NAN","NAN","NAN"],
    [1557181,"2026-06-07 11:10:00","58171","3.165","171.9","5.717","166.4","NAN","NAN","NAN","NAN","NAN"],
    [1557182,"2026-06-07 11:20:00","58172","2.952","194.5","5.553","179.8","NAN","NAN","NAN","NAN","NAN"],
    [1557183,"2026-06-07 11:30:00","58173","2.73","189.6","5.292","167.2","NAN","NAN","NAN","NAN","NAN"],
    [1557184,"2026-06-07 11:40:00","58174","3.457","151.9","5.553","139.3","NAN","NAN","NAN","NAN","NAN"],
    [1557185,"2026-06-07 11:50:00","58175","3.54","152.2","5.096","166.3","NAN","NAN","NAN","NAN","NAN"],
    [1557186,"2026-06-07 12:00:00","58176","3.5469999999999997","133.9","5.684","132.1","NAN","NAN","NAN","NAN","NAN"],
    [1557187,"2026-06-07 12:10:00","58177","3.636","131.6","5.749","131.8","NAN","NAN","NAN","NAN","NAN"],
    [1557188,"2026-06-07 12:20:00","58178","3.592","143.5","4.867","151.8","NAN","NAN","NAN","NAN","NAN"],
    [1557189,"2026-06-07 12:30:00","58179","3.227","142.3","5.259","134.4","NAN","NAN","NAN","NAN","NAN"],
    [1557190,"2026-06-07 12:40:00","58180","3.773","138.7","6.207","133.8","NAN","NAN","NAN","NAN","NAN"],
    [1557191,"2026-06-07 12:50:00","58181","3.805","134.9","5.913","151.4","NAN","NAN","NAN","NAN","NAN"],
    [1557192,"2026-06-07 13:00:00","58182","3.715","147.0","5.423","143.5","NAN","NAN","NAN","NAN","NAN"],
    [1557193,"2026-06-07 13:10:00","58183","3.5039999999999996","167.0","5.651","180.3","NAN","NAN","NAN","NAN","NAN"],
    [1557194,"2026-06-07 13:20:00","58184","3.72","153.9","5.455","133.8","NAN","NAN","NAN","NAN","NAN"],
    [1557195,"2026-06-07 13:30:00","58185","3.66","154.0","5.39","139.2","NAN","NAN","NAN","NAN","NAN"],
    [1557196,"2026-06-07 13:40:00","58186","3.8489999999999998","154.1","5.553","154.6","NAN","NAN","NAN","NAN","NAN"],
    [1557197,"2026-06-07 13:50:00","58187","3.7430000000000003","153.9","5.749","165.5","NAN","NAN","NAN","NAN","NAN"],
    [1557198,"2026-06-07 14:00:00","58188","3.266","162.9","5.815","152.4","NAN","NAN","NAN","NAN","NAN"],
    [1557199,"2026-06-07 14:10:00","58189","3.47","167.4","5.455","164.6","NAN","NAN","NAN","NAN","NAN"],
    [1557200,"2026-06-07 14:20:00","58190","2.9389999999999996","154.7","4.802","168.5","NAN","NAN","NAN","NAN","NAN"],
    [1557201,"2026-06-07 14:30:00","58191","3.022","137.9","4.704","149.7","NAN","NAN","NAN","NAN","NAN"],
    [1557202,"2026-06-07 14:40:00","58192","2.324","140.6","3.822","103","NAN","NAN","NAN","NAN","NAN"],
    [1557203,"2026-06-07 14:50:00","58193","2.978","130.9","4.639","155.8","NAN","NAN","NAN","NAN","NAN"],
    [1557204,"2026-06-07 15:00:00","58194","3.032","140.1","4.998","151.5","NAN","NAN","NAN","NAN","NAN"],
    [1557205,"2026-06-07 15:10:00","58195","2.5540000000000003","168.6","3.757","169.4","NAN","NAN","NAN","NAN","NAN"],
    [1557206,"2026-06-07 15:20:00","58196","3.177","154.5","4.704","149.5","NAN","NAN","NAN","NAN","NAN"],
    [1557207,"2026-06-07 15:30:00","58197","3.1630000000000003","175.8","5.292","164.8","NAN","NAN","NAN","NAN","NAN"],
    [1557208,"2026-06-07 15:40:00","58198","2.9619999999999997","203.5","5.717","225.1","NAN","NAN","NAN","NAN","NAN"],
    [1557209,"2026-06-07 15:50:00","58199","2.81","199.8","4.769","230.8","NAN","NAN","NAN","NAN","NAN"],
    [1557210,"2026-06-07 16:00:00","58200","2.975","196.1","4.933","169.3","NAN","NAN","NAN","NAN","NAN"],
    [1557211,"2026-06-07 16:10:00","58201","2.134","188.6","4.345","200.6","NAN","NAN","NAN","NAN","NAN"],
    [1557212,"2026-06-07 16:20:00","58202","2.9530000000000003","191.9","5.227","219","NAN","NAN","NAN","NAN","NAN"],
    [1557213,"2026-06-07 16:30:00","58203","2.799","180.0","4.312","182.1","NAN","NAN","NAN","NAN","NAN"],
    [1557214,"2026-06-07 16:40:00","58204","2.603","192.2","4.573","171.7","NAN","NAN","NAN","NAN","NAN"],
    [1557215,"2026-06-07 16:50:00","58205","2.5380000000000003","201.1","4.508","207.3","NAN","NAN","NAN","NAN","NAN"],
    [1557216,"2026-06-07 17:00:00","58206","2.738","205.6","4.214","215.2","NAN","NAN","NAN","NAN","NAN"],
    [1557217,"2026-06-07 17:10:00","58207","2.077","209.6","4.018","221.2","NAN","NAN","NAN","NAN","NAN"],
    [1557218,"2026-06-07 17:20:00","58208","2.479","204.1","4.051","175.7","NAN","NAN","NAN","NAN","NAN"],
    [1557219,"2026-06-07 17:30:00","58209","2.398","209.3","4.247","208.5","NAN","NAN","NAN","NAN","NAN"],
    [1557220,"2026-06-07 17:40:00","58210","2.198","192.5","3.985","181","NAN","NAN","NAN","NAN","NAN"],
    [1557221,"2026-06-07 17:50:00","58211","2.4659999999999997","198.0","4.279","172.5","NAN","NAN","NAN","NAN","NAN"],
    [1557222,"2026-06-07 18:00:00","58212","2.14","185.9","3.822","165.7","NAN","NAN","NAN","NAN","NAN"],
    [1557223,"2026-06-07 18:10:00","58213","2.198","195.4","4.377","216.2","NAN","NAN","NAN","NAN","NAN"],
    [1557224,"2026-06-07 18:20:00","58214","2.128","213.9","3.691","221.5","NAN","NAN","NAN","NAN","NAN"],
    [1557225,"2026-06-07 18:30:00","58215","2.23","210.2","3.561","213.6","NAN","NAN","NAN","NAN","NAN"],
    [1557226,"2026-06-07 18:40:00","58216","2.068","222.1","3.528","235.4","NAN","NAN","NAN","NAN","NAN"],
    [1557227,"2026-06-07 18:50:00","58217","2.075","223.6","3.92","230.1","NAN","NAN","NAN","NAN","NAN"],
    [1557228,"2026-06-07 19:00:00","58218","2.104","230.4","3.463","222.2","NAN","NAN","NAN","NAN","NAN"],
    [1557229,"2026-06-07 19:10:00","58219","1.982","234.3","3.397","235.3","NAN","NAN","NAN","NAN","NAN"],
    [1557230,"2026-06-07 19:20:00","58220","1.626","230.7","2.973","221.5","NAN","NAN","NAN","NAN","NAN"],
    [1557231,"2026-06-07 19:30:00","58221","1.355","239.4","2.483","243.7","NAN","NAN","NAN","NAN","NAN"],
    [1557232,"2026-06-07 19:40:00","58222","1.261","236.9","2.091","235.1","NAN","NAN","NAN","NAN","NAN"],
    [1557233,"2026-06-07 19:50:00","58223","0.787","238.6","1.405","233.9","NAN","NAN","NAN","NAN","NAN"],
    [1557234,"2026-06-07 20:00:00","58224","1.273","245.2","1.993","245.3","NAN","NAN","NAN","NAN","NAN"],
    [1557235,"2026-06-07 20:10:00","58225","1.224","245.8","1.927","246.3","NAN","NAN","NAN","NAN","NAN"],
    [1557236,"2026-06-07 20:20:00","58226","1.514","246.1","2.025","247","NAN","NAN","NAN","NAN","NAN"],
    [1557237,"2026-06-07 20:30:00","58227","1.758","247.0","2.287","247.7","NAN","NAN","NAN","NAN","NAN"],
    [1557238,"2026-06-07 20:40:00","58228","1.521","248.2","2.515","249.2","NAN","NAN","NAN","NAN","NAN"],
    [1557239,"2026-06-07 20:50:00","58229","1.264","248.4","1.862","248.3","NAN","NAN","NAN","NAN","NAN"],
    [1557240,"2026-06-07 21:00:00","58230","0.775","249.8","1.47","249.7","NAN","NAN","NAN","NAN","NAN"],
    [1557241,"2026-06-07 21:10:00","58231","0.7340000000000001","249.9","1.535","249.8","NAN","NAN","NAN","NAN","NAN"],
    [1557242,"2026-06-07 21:20:00","58232","0.40700000000000003","249.9","0.98","249.8","NAN","NAN","NAN","NAN","NAN"],
    [1557243,"2026-06-07 21:30:00","58233","0.0","0.0","0","0","NAN","NAN","NAN","NAN","NAN"],
    [1557244,"2026-06-07 21:40:00","58234","0.389","249.9","1.274","249.9","NAN","NAN","NAN","NAN","NAN"],
    [1557245,"2026-06-07 21:50:00","58235","0.7440000000000001","249.9","1.339","249.8","NAN","NAN","NAN","NAN","NAN"],
    [1557246,"2026-06-07 22:00:00","58236","0.838","249.9","1.274","249.9","NAN","NAN","NAN","NAN","NAN"],
    [1557247,"2026-06-07 22:10:00","58237","0.853","250.0","1.405","250","NAN","NAN","NAN","NAN","NAN"],
    [1557248,"2026-06-07 22:20:00","58238","1.033","250.0","1.535","249.9","NAN","NAN","NAN","NAN","NAN"],
    [1557249,"2026-06-07 22:30:00","58239","1.273","250.0","1.96","250.1","NAN","NAN","NAN","NAN","NAN"],
    [1557250,"2026-06-07 22:40:00","58240","1.12","250.2","1.764","250.1","NAN","NAN","NAN","NAN","NAN"],
    [1557251,"2026-06-07 22:50:00","58241","0.8","249.7","1.47","250.3","NAN","NAN","NAN","NAN","NAN"],
    [1557252,"2026-06-07 23:00:00","58242","1.284","247.9","2.319","249.3","NAN","NAN","NAN","NAN","NAN"],
    [1557253,"2026-06-07 23:10:00","58243","0.929","250.7","1.47","251.1","NAN","NAN","NAN","NAN","NAN"],
    [1557254,"2026-06-07 23:20:00","58244","0.815","251.5","1.372","251.6","NAN","NAN","NAN","NAN","NAN"],
    [1557255,"2026-06-07 23:30:00","58245","0.336","251.6","0.98","251.6","NAN","NAN","NAN","NAN","NAN"],
    [1557256,"2026-06-07 23:40:00","58246","0.7240000000000001","251.6","1.274","251.6","NAN","NAN","NAN","NAN","NAN"],
    [1557257,"2026-06-07 23:50:00","58247","0.596","251.7","1.405","251.7","NAN","NAN","NAN","NAN","NAN"],
    [1557258,"2026-06-08 00:00:00","58248","0.6779999999999999","251.8","1.535","251.9","NAN","NAN","NAN","NAN","NAN"],
    [1557259,"2026-06-08 00:10:00","58249","0.517","251.9","1.143","251.9","NAN","NAN","NAN","NAN","NAN"],
    [1557260,"2026-06-08 00:20:00","58250","0.809","251.9","1.372","251.9","NAN","NAN","NAN","NAN","NAN"],
    [1557261,"2026-06-08 00:30:00","58251","0.9990000000000001","252.0","1.601","252","NAN","NAN","NAN","NAN","NAN"],
    [1557262,"2026-06-08 00:40:00","58252","1.043","252.1","1.503","252.2","NAN","NAN","NAN","NAN","NAN"],
    [1557263,"2026-06-08 00:50:00","58253","1.149","252.6","1.829","252.5","NAN","NAN","NAN","NAN","NAN"],
    [1557264,"2026-06-08 01:00:00","58254","1.271","255.2","2.091","254.5","NAN","NAN","NAN","NAN","NAN"],
    [1557265,"2026-06-08 01:10:00","58255","1.022","258.2","2.058","258.1","NAN","NAN","NAN","NAN","NAN"],
    [1557266,"2026-06-08 01:20:00","58256","0.775","258.8","1.372","258.9","NAN","NAN","NAN","NAN","NAN"],
    [1557267,"2026-06-08 01:30:00","58257","1.149","259.0","2.221","259","NAN","NAN","NAN","NAN","NAN"],
    [1557268,"2026-06-08 01:40:00","58258","1.04","259.5","1.633","259.5","NAN","NAN","NAN","NAN","NAN"],
    [1557269,"2026-06-08 01:50:00","58259","0.563","259.5","1.437","259.6","NAN","NAN","NAN","NAN","NAN"],
    [1557270,"2026-06-08 02:00:00","58260","0.636","259.6","1.47","259.6","NAN","NAN","NAN","NAN","NAN"],
    [1557271,"2026-06-08 02:10:00","58261","1.462","269.4","2.548","269.7","NAN","NAN","NAN","NAN","NAN"],
    [1557272,"2026-06-08 02:20:00","58262","1.44","270.6","2.515","270.2","NAN","NAN","NAN","NAN","NAN"],
    [1557273,"2026-06-08 02:30:00","58263","1.033","271.1","1.993","271","NAN","NAN","NAN","NAN","NAN"],
    [1557274,"2026-06-08 02:40:00","58264","1.145","271.5","2.123","271.6","NAN","NAN","NAN","NAN","NAN"],
    [1557275,"2026-06-08 02:50:00","58265","1.3330000000000002","272.5","2.221","272.2","NAN","NAN","NAN","NAN","NAN"],
    [1557276,"2026-06-08 03:00:00","58266","1.364","273.4","2.025","270.5","NAN","NAN","NAN","NAN","NAN"],
    [1557277,"2026-06-08 03:10:00","58267","1.504","273.0","2.417","269.4","NAN","NAN","NAN","NAN","NAN"],
    [1557278,"2026-06-08 03:20:00","58268","1.6540000000000001","272.9","2.483","273.8","NAN","NAN","NAN","NAN","NAN"],
    [1557279,"2026-06-08 03:30:00","58269","1.591","272.3","2.417","273.7","NAN","NAN","NAN","NAN","NAN"],
    [1557280,"2026-06-08 03:40:00","58270","1.003","273.0","1.862","271.5","NAN","NAN","NAN","NAN","NAN"],
    [1557281,"2026-06-08 03:50:00","58271","1.459","273.5","1.993","273.2","NAN","NAN","NAN","NAN","NAN"],
    [1557282,"2026-06-08 04:00:00","58272","1.1059999999999999","271.7","1.633","270.6","NAN","NAN","NAN","NAN","NAN"],
    [1557283,"2026-06-08 04:10:00","58273","0.94","273.7","1.633","273.5","NAN","NAN","NAN","NAN","NAN"],
    [1557284,"2026-06-08 04:20:00","58274","1.17","275.0","1.862","274.8","NAN","NAN","NAN","NAN","NAN"],
    [1557285,"2026-06-08 04:30:00","58275","1.093","275.7","2.058","276.1","NAN","NAN","NAN","NAN","NAN"],
    [1557286,"2026-06-08 04:40:00","58276","1.068","275.8","2.189","271.5","NAN","NAN","NAN","NAN","NAN"],
    [1557287,"2026-06-08 04:50:00","58277","1.1179999999999999","278.3","2.123","278.2","NAN","NAN","NAN","NAN","NAN"],
    [1557288,"2026-06-08 05:00:00","58278","1.09","274.6","1.862","272.9","NAN","NAN","NAN","NAN","NAN"],
    [1557289,"2026-06-08 05:10:00","58279","1.1909999999999998","275.0","1.797","273.7","NAN","NAN","NAN","NAN","NAN"],
    [1557290,"2026-06-08 05:20:00","58280","1.453","279.7","2.189","280.1","NAN","NAN","NAN","NAN","NAN"],
    [1557291,"2026-06-08 05:30:00","58281","1.168","278.6","1.96","270.6","NAN","NAN","NAN","NAN","NAN"],
    [1557292,"2026-06-08 05:40:00","58282","1.17","282.1","2.091","289","NAN","NAN","NAN","NAN","NAN"],
    [1557293,"2026-06-08 05:50:00","58283","1.578","289.6","2.744","295.8","NAN","NAN","NAN","NAN","NAN"],
    [1557294,"2026-06-08 06:00:00","58284","1.6369999999999998","298.0","2.417","299.3","NAN","NAN","NAN","NAN","NAN"],
    [1557295,"2026-06-08 06:10:00","58285","1.314","297.9","2.189","299.3","NAN","NAN","NAN","NAN","NAN"],
    [1557296,"2026-06-08 06:20:00","58286","1.599","297.8","2.417","294.9","NAN","NAN","NAN","NAN","NAN"],
    [1557297,"2026-06-08 06:30:00","58287","1.375","296.5","2.287","293.2","NAN","NAN","NAN","NAN","NAN"],
    [1557298,"2026-06-08 06:40:00","58288","0.8","294.5","2.025","299.3","NAN","NAN","NAN","NAN","NAN"],
    [1557299,"2026-06-08 06:50:00","58289","0.515","286.7","1.241","285.8","NAN","NAN","NAN","NAN","NAN"],
    [1557300,"2026-06-08 07:00:00","58290","0.032","294.3","0.653","293.8","NAN","NAN","NAN","NAN","NAN"],
    [1557301,"2026-06-08 07:10:00","58291","0.13699999999999998","285.2","1.111","285.3","NAN","NAN","NAN","NAN","NAN"],
    [1557302,"2026-06-08 07:20:00","58292","0.174","279.1","1.372","277.8","NAN","NAN","NAN","NAN","NAN"],
    [1557303,"2026-06-08 07:30:00","58293","0.846","51.83","2.646","154.6","NAN","NAN","NAN","NAN","NAN"],
    [1557304,"2026-06-08 07:40:00","58294","1.778","140.1","3.201","132.8","NAN","NAN","NAN","NAN","NAN"],
    [1557305,"2026-06-08 07:50:00","58295","2.6630000000000003","138.2","3.724","138.2","NAN","NAN","NAN","NAN","NAN"],
    [1557306,"2026-06-08 08:00:00","58296","3.04","140.2","4.345","148.7","NAN","NAN","NAN","NAN","NAN"],
    [1557307,"2026-06-08 08:10:00","58297","2.838","148.0","4.737","145.2","NAN","NAN","NAN","NAN","NAN"],
    [1557308,"2026-06-08 08:20:00","58298","2.786","162.5","4.377","161.3","NAN","NAN","NAN","NAN","NAN"],
    [1557309,"2026-06-08 08:30:00","58299","2.773","144.5","4.279","143.3","NAN","NAN","NAN","NAN","NAN"],
    [1557310,"2026-06-08 08:40:00","58300","2.783","166.0","4.018","155.4","NAN","NAN","NAN","NAN","NAN"],
    [1557311,"2026-06-08 08:50:00","58301","2.526","168.7","4.018","156","NAN","NAN","NAN","NAN","NAN"],
    [1557312,"2026-06-08 09:00:00","58302","2.656","200.9","4.247","213.8","NAN","NAN","NAN","NAN","NAN"],
    [1557313,"2026-06-08 09:10:00","58303","1.841","205.5","3.332","221.8","NAN","NAN","NAN","NAN","NAN"],
    [1557314,"2026-06-08 09:20:00","58304","2.085","206.5","3.169","206.8","NAN","NAN","NAN","NAN","NAN"],
    [1557315,"2026-06-08 09:30:00","58305","2.412","185.1","4.214","161.9","NAN","NAN","NAN","NAN","NAN"],
    [1557316,"2026-06-08 09:40:00","58306","2.786","207.9","4.377","208.9","NAN","NAN","NAN","NAN","NAN"],
    [1557317,"2026-06-08 09:50:00","58307","2.262","195.2","4.149","173.4","NAN","NAN","NAN","NAN","NAN"],
    [1557318,"2026-06-08 10:00:00","58308","2.339","191.1","4.639","165.5","NAN","NAN","NAN","NAN","NAN"],
    [1557319,"2026-06-08 10:10:00","58309","2.403","191.6","4.181","163.7","NAN","NAN","NAN","NAN","NAN"],
    [1557320,"2026-06-08 10:20:00","58310","3.089","197.4","5.096","161","NAN","NAN","NAN","NAN","NAN"],
    [1557321,"2026-06-08 10:30:00","58311","3.241","207.1","5.031","213.7","NAN","NAN","NAN","NAN","NAN"],
    [1557322,"2026-06-08 10:40:00","58312","3.1439999999999997","213.1","5.455","211.7","NAN","NAN","NAN","NAN","NAN"],
    [1557323,"2026-06-08 10:50:00","58313","3.4419999999999997","198.8","6.272","210","NAN","NAN","NAN","NAN","NAN"],
    [1557324,"2026-06-08 11:00:00","58314","3.089","191.4","5.129","171.5","NAN","NAN","NAN","NAN","NAN"],
    [1557325,"2026-06-08 11:10:00","58315","3.2430000000000003","193.6","5.847","177.1","NAN","NAN","NAN","NAN","NAN"],
    [1557326,"2026-06-08 11:20:00","58316","3.3139999999999996","200.9","5.423","207.7","NAN","NAN","NAN","NAN","NAN"],
    [1557327,"2026-06-08 11:30:00","58317","3.5639999999999996","210.7","5.782","208.8","NAN","NAN","NAN","NAN","NAN"],
    [1557328,"2026-06-08 11:40:00","58318","3.1689999999999996","192.7","5.488","171.5","NAN","NAN","NAN","NAN","NAN"],
    [1557329,"2026-06-08 11:50:00","58319","3.483","200.5","5.455","219.4","NAN","NAN","NAN","NAN","NAN"],
    [1557330,"2026-06-08 12:00:00","58320","3.04","188.9","5.423","217.1","NAN","NAN","NAN","NAN","NAN"],
    [1557331,"2026-06-08 12:10:00","58321","2.949","208.9","5.847","213","NAN","NAN","NAN","NAN","NAN"],
    [1557332,"2026-06-08 12:20:00","58322","3.218","185.2","6.043","154","NAN","NAN","NAN","NAN","NAN"],
    [1557333,"2026-06-08 12:30:00","58323","3.2110000000000003","204.1","5.357","167","NAN","NAN","NAN","NAN","NAN"],
    [1557334,"2026-06-08 12:40:00","58324","3.1710000000000003","187.9","5.292","212.5","NAN","NAN","NAN","NAN","NAN"],
    [1557335,"2026-06-08 12:50:00","58325","3.014","202.2","5.847","217","NAN","NAN","NAN","NAN","NAN"],
    [1557336,"2026-06-08 13:00:00","58326","2.884","191.1","6.011","213.6","NAN","NAN","NAN","NAN","NAN"],
    [1557337,"2026-06-08 13:10:00","58327","2.912","185.4","5.227","156.9","NAN","NAN","NAN","NAN","NAN"],
    [1557338,"2026-06-08 13:20:00","58328","2.319","215.3","4.802","192.8","NAN","NAN","NAN","NAN","NAN"],
    [1557339,"2026-06-08 13:30:00","58329","2.065","186.7","4.181","184.1","NAN","NAN","NAN","NAN","NAN"],
    [1557340,"2026-06-08 13:40:00","58330","3.116","191.6","4.965","163.6","NAN","NAN","NAN","NAN","NAN"],
    [1557341,"2026-06-08 13:50:00","58331","2.8930000000000002","198.4","5.488","229.8","NAN","NAN","NAN","NAN","NAN"],
    [1557342,"2026-06-08 14:00:00","58332","3.304","183.4","6.827","159.5","NAN","NAN","NAN","NAN","NAN"],
    [1557343,"2026-06-08 14:10:00","58333","3.515","173.8","5.847","177.2","NAN","NAN","NAN","NAN","NAN"],
    [1557344,"2026-06-08 14:20:00","58334","3.552","191.4","5.749","168.6","NAN","NAN","NAN","NAN","NAN"],
    [1557345,"2026-06-08 14:30:00","58335","3.174","181.6","5.227","162.7","NAN","NAN","NAN","NAN","NAN"],
    [1557346,"2026-06-08 14:40:00","58336","2.6039999999999996","191.8","4.443","211.3","NAN","NAN","NAN","NAN","NAN"],
    [1557347,"2026-06-08 14:50:00","58337","3.574","200.5","5.847","225.1","NAN","NAN","NAN","NAN","NAN"],
    [1557348,"2026-06-08 15:00:00","58338","2.517","195.9","4.769","158.6","NAN","NAN","NAN","NAN","NAN"],
    [1557349,"2026-06-08 15:10:00","58339","2.7230000000000003","185.9","5.096","197.3","NAN","NAN","NAN","NAN","NAN"],
    [1557350,"2026-06-08 15:20:00","58340","2.886","192.9","4.933","215.3","NAN","NAN","NAN","NAN","NAN"],
    [1557351,"2026-06-08 15:30:00","58341","3.135","177.2","5.521","165.4","NAN","NAN","NAN","NAN","NAN"],
    [1557352,"2026-06-08 15:40:00","58342","3.083","189.3","5.292","175.1","NAN","NAN","NAN","NAN","NAN"],
    [1557353,"2026-06-08 15:50:00","58343","2.85","200.5","5.031","201.7","NAN","NAN","NAN","NAN","NAN"],
    [1557354,"2026-06-08 16:00:00","58344","2.8139999999999996","210.0","4.867","204.7","NAN","NAN","NAN","NAN","NAN"],
    [1557355,"2026-06-08 16:10:00","58345","2.985","200.9","5.096","206.5","NAN","NAN","NAN","NAN","NAN"],
    [1557356,"2026-06-08 16:20:00","58346","3.0269999999999997","206.0","5.063","207.5","NAN","NAN","NAN","NAN","NAN"],
    [1557357,"2026-06-08 16:30:00","58347","3.035","207.7","4.998","216.6","NAN","NAN","NAN","NAN","NAN"],
    [1557358,"2026-06-08 16:40:00","58348","3.295","210.2","5.292","204","NAN","NAN","NAN","NAN","NAN"],
    [1557359,"2026-06-08 16:50:00","58349","2.759","210.3","4.965","210","NAN","NAN","NAN","NAN","NAN"],
    [1557360,"2026-06-08 17:00:00","58350","2.5639999999999996","204.0","4.573","211.6","NAN","NAN","NAN","NAN","NAN"],
    [1557361,"2026-06-08 17:10:00","58351","2.753","217.7","4.704","230.5","NAN","NAN","NAN","NAN","NAN"],
    [1557362,"2026-06-08 17:20:00","58352","2.888","207.6","4.606","209.3","NAN","NAN","NAN","NAN","NAN"],
    [1557363,"2026-06-08 17:30:00","58353","2.506","213.2","4.051","210","NAN","NAN","NAN","NAN","NAN"],
    [1557364,"2026-06-08 17:40:00","58354","2.737","228.0","4.541","241.6","NAN","NAN","NAN","NAN","NAN"],
    [1557365,"2026-06-08 17:50:00","58355","2.365","237.7","3.855","246.8","NAN","NAN","NAN","NAN","NAN"],
    [1557366,"2026-06-08 18:00:00","58356","2.832","248.6","5.031","253.9","NAN","NAN","NAN","NAN","NAN"],
    [1557367,"2026-06-08 18:10:00","58357","2.537","248.7","4.377","256","NAN","NAN","NAN","NAN","NAN"],
    [1557368,"2026-06-08 18:20:00","58358","2.345","255.6","3.626","243.4","NAN","NAN","NAN","NAN","NAN"],
    [1557369,"2026-06-08 18:30:00","58359","1.777","251.1","3.299","267.9","NAN","NAN","NAN","NAN","NAN"],
    [1557370,"2026-06-08 18:40:00","58360","1.29","226.1","2.548","229.3","NAN","NAN","NAN","NAN","NAN"],
    [1557371,"2026-06-08 18:50:00","58361","1.59","215.7","3.136","213","NAN","NAN","NAN","NAN","NAN"],
    [1557372,"2026-06-08 19:00:00","58362","0.866","207.2","1.895","209.6","NAN","NAN","NAN","NAN","NAN"],
    [1557373,"2026-06-08 19:10:00","58363","1.9709999999999999","166.5","2.809","162.7","NAN","NAN","NAN","NAN","NAN"],
    [1557374,"2026-06-08 19:20:00","58364","2.072","164.3","3.365","163.4","NAN","NAN","NAN","NAN","NAN"],
    [1557375,"2026-06-08 19:30:00","58365","1.892","170.7","2.842","162.4","NAN","NAN","NAN","NAN","NAN"],
    [1557376,"2026-06-08 19:40:00","58366","1.705","168.4","2.711","169.1","NAN","NAN","NAN","NAN","NAN"],
    [1557377,"2026-06-08 19:50:00","58367","2.0180000000000002","170.4","2.679","173.7","NAN","NAN","NAN","NAN","NAN"],
    [1557378,"2026-06-08 20:00:00","58368","2.548","158.6","4.279","169.6","NAN","NAN","NAN","NAN","NAN"],
    [1557379,"2026-06-08 20:10:00","58369","1.994","154.4","3.659","135.6","NAN","NAN","NAN","NAN","NAN"],
    [1557380,"2026-06-08 20:20:00","58370","2.051","106.6","3.528","96.8","NAN","NAN","NAN","NAN","NAN"],
    [1557381,"2026-06-08 20:30:00","58371","1.605","112.6","3.463","118.1","NAN","NAN","NAN","NAN","NAN"],
    [1557382,"2026-06-08 20:40:00","58372","1.774","99.7","3.005","81.8","NAN","NAN","NAN","NAN","NAN"],
    [1557383,"2026-06-08 20:50:00","58373","2.036","82.8","3.561","74.35","NAN","NAN","NAN","NAN","NAN"],
    [1557384,"2026-06-08 21:00:00","58374","2.092","82.7","3.365","85.6","NAN","NAN","NAN","NAN","NAN"],
    [1557385,"2026-06-08 21:10:00","58375","2.004","84.0","3.103","89.4","NAN","NAN","NAN","NAN","NAN"],
    [1557386,"2026-06-08 21:20:00","58376","2.011","85.5","3.169","92.2","NAN","NAN","NAN","NAN","NAN"],
    [1557387,"2026-06-08 21:30:00","58377","2.006","80.8","3.463","74.06","NAN","NAN","NAN","NAN","NAN"],
    [1557388,"2026-06-08 21:40:00","58378","1.525","77.29","3.626","70.13","NAN","NAN","NAN","NAN","NAN"],
    [1557389,"2026-06-08 21:50:00","58379","2.293","85.0","3.463","90.8","NAN","NAN","NAN","NAN","NAN"],
    [1557390,"2026-06-08 22:00:00","58380","1.65","79.68","3.267","76.91","NAN","NAN","NAN","NAN","NAN"],
    [1557391,"2026-06-08 22:10:00","58381","2.0780000000000003","64.41","4.083","61.52","NAN","NAN","NAN","NAN","NAN"],
    [1557392,"2026-06-08 22:20:00","58382","1.511","72.22","3.234","81.2","NAN","NAN","NAN","NAN","NAN"],
    [1557393,"2026-06-08 22:30:00","58383","2.089","70.93","5.096","56.86","NAN","NAN","NAN","NAN","NAN"],
    [1557394,"2026-06-08 22:40:00","58384","2.204","73.33","4.965","26.82","NAN","NAN","NAN","NAN","NAN"],
    [1557395,"2026-06-08 22:50:00","58385","1.808","59.23","4.247","63.56","NAN","NAN","NAN","NAN","NAN"],
    [1557396,"2026-06-08 23:00:00","58386","2.367","69.23","4.475","60.81","NAN","NAN","NAN","NAN","NAN"],
    [1557397,"2026-06-08 23:10:00","58387","1.3619999999999999","58.14","3.463","77.05","NAN","NAN","NAN","NAN","NAN"],
    [1557398,"2026-06-08 23:20:00","58388","1.867","42.54","3.463","26.76","NAN","NAN","NAN","NAN","NAN"],
    [1557399,"2026-06-08 23:30:00","58389","1.69","65.34","3.822","62.86","NAN","NAN","NAN","NAN","NAN"],
    [1557400,"2026-06-08 23:40:00","58390","1.081","60.35","2.385","68.9","NAN","NAN","NAN","NAN","NAN"],
    [1557401,"2026-06-08 23:50:00","58391","1.275","56.02","2.417","45.85","NAN","NAN","NAN","NAN","NAN"],
    [1557402,"2026-06-09 00:00:00","58392","1.334","65.34","2.679","71.95","NAN","NAN","NAN","NAN","NAN"],
    [1557403,"2026-06-09 00:10:00","58393","1.986","80.5","3.691","74.07","NAN","NAN","NAN","NAN","NAN"],
    [1557404,"2026-06-09 00:20:00","58394","2.6039999999999996","87.0","4.345","86.7","NAN","NAN","NAN","NAN","NAN"],
    [1557405,"2026-06-09 00:30:00","58395","2.478","97.9","4.214","99.2","NAN","NAN","NAN","NAN","NAN"],
    [1557406,"2026-06-09 00:40:00","58396","2.344","101.4","4.704","98.3","NAN","NAN","NAN","NAN","NAN"],
    [1557407,"2026-06-09 00:50:00","58397","2.327","89.4","4.116","92.3","NAN","NAN","NAN","NAN","NAN"],
    [1557408,"2026-06-09 01:00:00","58398","1.8230000000000002","90.3","3.299","86.7","NAN","NAN","NAN","NAN","NAN"],
    [1557409,"2026-06-09 01:10:00","58399","1.308","89.9","2.319","97.4","NAN","NAN","NAN","NAN","NAN"],
    [1557410,"2026-06-09 01:20:00","58400","0.7959999999999999","87.7","2.287","84.9","NAN","NAN","NAN","NAN","NAN"],
    [1557411,"2026-06-09 01:30:00","58401","0.848","76.43","2.319","75.89","NAN","NAN","NAN","NAN","NAN"],
    [1557412,"2026-06-09 01:40:00","58402","0.42700000000000005","76.37","1.699","74.5","NAN","NAN","NAN","NAN","NAN"],
    [1557413,"2026-06-09 01:50:00","58403","0.7759999999999999","76.83","2.156","76.53","NAN","NAN","NAN","NAN","NAN"],
    [1557414,"2026-06-09 02:00:00","58404","1.0490000000000002","82.1","2.287","80.5","NAN","NAN","NAN","NAN","NAN"],
    [1557415,"2026-06-09 02:10:00","58405","1.345","83.4","2.417","78.18","NAN","NAN","NAN","NAN","NAN"],
    [1557416,"2026-06-09 02:20:00","58406","1.038","84.3","1.862","88.8","NAN","NAN","NAN","NAN","NAN"],
    [1557417,"2026-06-09 02:30:00","58407","1.2830000000000001","79.89","2.319","79.84","NAN","NAN","NAN","NAN","NAN"],
    [1557418,"2026-06-09 02:40:00","58408","0.89","78.45","1.699","79.36","NAN","NAN","NAN","NAN","NAN"],
    [1557419,"2026-06-09 02:50:00","58409","0.366","84.5","1.503","79.88","NAN","NAN","NAN","NAN","NAN"],
    [1557420,"2026-06-09 03:00:00","58410","0.555","87.8","1.601","85.7","NAN","NAN","NAN","NAN","NAN"],
    [1557421,"2026-06-09 03:10:00","58411","0.545","88.0","1.568","85.7","NAN","NAN","NAN","NAN","NAN"],
    [1557422,"2026-06-09 03:20:00","58412","0.013999999999999999","91.1","0.294","91.3","NAN","NAN","NAN","NAN","NAN"],
    [1557423,"2026-06-09 03:30:00","58413","0.207","91.5","0.849","91.3","NAN","NAN","NAN","NAN","NAN"],
    [1557424,"2026-06-09 03:40:00","58414","0.179","92.6","0.882","92.5","NAN","NAN","NAN","NAN","NAN"],
    [1557425,"2026-06-09 03:50:00","58415","0.376","92.8","0.849","92.7","NAN","NAN","NAN","NAN","NAN"],
    [1557426,"2026-06-09 04:00:00","58416","0.017","93.1","0.621","93.1","NAN","NAN","NAN","NAN","NAN"],
    [1557427,"2026-06-09 04:10:00","58417","0.035","94.4","0.359","93.4","NAN","NAN","NAN","NAN","NAN"],
    [1557428,"2026-06-09 04:20:00","58418","0.01","96.7","0.261","96.6","NAN","NAN","NAN","NAN","NAN"],
    [1557429,"2026-06-09 04:30:00","58419","0.063","97.9","0.49","97.7","NAN","NAN","NAN","NAN","NAN"],
    [1557430,"2026-06-09 04:40:00","58420","0.102","99.7","0.621","98.8","NAN","NAN","NAN","NAN","NAN"],
    [1557431,"2026-06-09 04:50:00","58421","0.13","102.7","0.784","104.2","NAN","NAN","NAN","NAN","NAN"],
    [1557432,"2026-06-09 05:00:00","58422","0.032","108.4","0.49","107.5","NAN","NAN","NAN","NAN","NAN"],
    [1557433,"2026-06-09 05:10:00","58423","0.047","111.6","0.457","112.7","NAN","NAN","NAN","NAN","NAN"],
    [1557434,"2026-06-09 05:20:00","58424","0.222","126.2","0.849","113.5","NAN","NAN","NAN","NAN","NAN"],
    [1557435,"2026-06-09 05:30:00","58425","0.74","162.4","1.829","162.9","NAN","NAN","NAN","NAN","NAN"],
    [1557436,"2026-06-09 05:40:00","58426","0.39","169.8","1.437","169.2","NAN","NAN","NAN","NAN","NAN"],
    [1557437,"2026-06-09 05:50:00","58427","1.166","193.7","2.679","193.8","NAN","NAN","NAN","NAN","NAN"],
    [1557438,"2026-06-09 06:00:00","58428","0.883","204.3","2.385","236.7","NAN","NAN","NAN","NAN","NAN"],
    [1557439,"2026-06-09 06:10:00","58429","1.416","235.2","3.299","237.5","NAN","NAN","NAN","NAN","NAN"],
    [1557440,"2026-06-09 06:20:00","58430","1.216","234.3","2.515","228","NAN","NAN","NAN","NAN","NAN"],
    [1557441,"2026-06-09 06:30:00","58431","1.819","232.9","3.593","222.6","NAN","NAN","NAN","NAN","NAN"],
    [1557442,"2026-06-09 06:40:00","58432","2.261","243.5","4.181","254.5","NAN","NAN","NAN","NAN","NAN"],
    [1557443,"2026-06-09 06:50:00","58433","2.0580000000000003","248.8","3.691","251","NAN","NAN","NAN","NAN","NAN"],
    [1557444,"2026-06-09 07:00:00","58434","1.9609999999999999","254.6","4.051","273.6","NAN","NAN","NAN","NAN","NAN"],
    [1557445,"2026-06-09 07:10:00","58435","1.827","239.0","3.299","234.8","NAN","NAN","NAN","NAN","NAN"],
    [1557446,"2026-06-09 07:20:00","58436","2.636","249.0","5.521","272.3","NAN","NAN","NAN","NAN","NAN"],
    [1557447,"2026-06-09 07:30:00","58437","2.336","254.3","3.92","264.9","NAN","NAN","NAN","NAN","NAN"],
    [1557448,"2026-06-09 07:40:00","58438","2.27","244.9","3.855","223.5","NAN","NAN","NAN","NAN","NAN"],
    [1557449,"2026-06-09 07:50:00","58439","2.258","227.4","4.279","239.4","NAN","NAN","NAN","NAN","NAN"],
    [1557450,"2026-06-09 08:00:00","58440","2.414","239.3","4.965","237.9","NAN","NAN","NAN","NAN","NAN"],
    [1557451,"2026-06-09 08:10:00","58441","3.2680000000000002","237.4","5.325","232.5","NAN","NAN","NAN","NAN","NAN"],
    [1557452,"2026-06-09 08:20:00","58442","3.1039999999999996","237.6","4.933","197.2","NAN","NAN","NAN","NAN","NAN"],
    [1557453,"2026-06-09 08:30:00","58443","3.548","224.6","6.925","228.4","NAN","NAN","NAN","NAN","NAN"],
    [1557454,"2026-06-09 08:40:00","58444","3.654","224.5","6.435","227.4","NAN","NAN","NAN","NAN","NAN"],
    [1557455,"2026-06-09 08:50:00","58445","3.3480000000000003","224.4","5.782","222","NAN","NAN","NAN","NAN","NAN"],
    [1557456,"2026-06-09 09:00:00","58446","2.677","229.3","4.965","236.7","NAN","NAN","NAN","NAN","NAN"],
    [1557457,"2026-06-09 09:10:00","58447","3.168","217.0","5.684","225.7","NAN","NAN","NAN","NAN","NAN"],
    [1557458,"2026-06-09 09:20:00","58448","3.3789999999999996","224.3","5.521","213.4","NAN","NAN","NAN","NAN","NAN"],
    [1557459,"2026-06-09 09:30:00","58449","3.2910000000000004","207.2","5.88","210.2","NAN","NAN","NAN","NAN","NAN"],
    [1557460,"2026-06-09 09:40:00","58450","3.812","215.5","6.403","203.3","NAN","NAN","NAN","NAN","NAN"],
    [1557461,"2026-06-09 09:50:00","58451","3.577","214.6","5.749","226.7","NAN","NAN","NAN","NAN","NAN"],
    [1557462,"2026-06-09 10:00:00","58452","3.7239999999999998","216.6","6.011","226.4","NAN","NAN","NAN","NAN","NAN"],
    [1557463,"2026-06-09 10:10:00","58453","3.728","222.8","6.729","204.2","NAN","NAN","NAN","NAN","NAN"],
    [1557464,"2026-06-09 10:20:00","58454","3.6039999999999996","248.2","7.056","256.6","NAN","NAN","NAN","NAN","NAN"],
    [1557465,"2026-06-09 10:30:00","58455","4.154","232.3","6.762","230.6","NAN","NAN","NAN","NAN","NAN"],
    [1557466,"2026-06-09 10:40:00","58456","4.152","227.7","6.729","254.4","NAN","NAN","NAN","NAN","NAN"],
    [1557467,"2026-06-09 10:50:00","58457","4.311","213.8","6.991","222.5","NAN","NAN","NAN","NAN","NAN"],
    [1557468,"2026-06-09 11:00:00","58458","4.084","219.6","6.109","202.1","NAN","NAN","NAN","NAN","NAN"],
    [1557469,"2026-06-09 11:10:00","58459","3.62","213.6","6.86","209.3","NAN","NAN","NAN","NAN","NAN"],
    [1557470,"2026-06-09 11:20:00","58460","3.805","211.3","5.978","214.8","NAN","NAN","NAN","NAN","NAN"],
    [1557471,"2026-06-09 11:30:00","58461","4.008","207.0","6.174","219.3","NAN","NAN","NAN","NAN","NAN"],
    [1557472,"2026-06-09 11:40:00","58462","3.747","213.5","5.455","219.8","NAN","NAN","NAN","NAN","NAN"],
    [1557473,"2026-06-09 11:50:00","58463","3.56","213.5","5.847","207.4","NAN","NAN","NAN","NAN","NAN"],
    [1557474,"2026-06-09 12:00:00","58464","3.408","204.4","6.468","211.9","NAN","NAN","NAN","NAN","NAN"],
    [1557475,"2026-06-09 12:10:00","58465","3.66","213.1","5.913","216.2","NAN","NAN","NAN","NAN","NAN"],
    [1557476,"2026-06-09 12:20:00","58466","3.335","213.2","5.815","232.8","NAN","NAN","NAN","NAN","NAN"],
    [1557477,"2026-06-09 12:30:00","58467","4.008","216.3","6.86","212","NAN","NAN","NAN","NAN","NAN"],
    [1557478,"2026-06-09 12:40:00","58468","3.109","220.4","6.011","213.9","NAN","NAN","NAN","NAN","NAN"],
    [1557479,"2026-06-09 12:50:00","58469","3.237","211.5","6.207","241.3","NAN","NAN","NAN","NAN","NAN"],
    [1557480,"2026-06-09 13:00:00","58470","3.8939999999999997","215.1","6.305","211.2","NAN","NAN","NAN","NAN","NAN"],
    [1557481,"2026-06-09 13:10:00","58471","4.052","217.3","7.089","206.4","NAN","NAN","NAN","NAN","NAN"],
    [1557482,"2026-06-09 13:20:00","58472","4.052","217.0","7.644","196.1","NAN","NAN","NAN","NAN","NAN"],
    [1557483,"2026-06-09 13:30:00","58473","3.622","198.5","6.305","211.2","NAN","NAN","NAN","NAN","NAN"],
    [1557484,"2026-06-09 13:40:00","58474","3.5810000000000004","207.7","6.239","219","NAN","NAN","NAN","NAN","NAN"],
    [1557485,"2026-06-09 13:50:00","58475","3.285","194.1","5.684","213","NAN","NAN","NAN","NAN","NAN"],
    [1557486,"2026-06-09 14:00:00","58476","3.909","191.4","6.337","172.6","NAN","NAN","NAN","NAN","NAN"],
    [1557487,"2026-06-09 14:10:00","58477","3.9139999999999997","184.5","6.435","182.8","NAN","NAN","NAN","NAN","NAN"],
    [1557488,"2026-06-09 14:20:00","58478","4.206","184.3","7.023","193.9","NAN","NAN","NAN","NAN","NAN"],
    [1557489,"2026-06-09 14:30:00","58479","4.127","186.8","7.383","175.1","NAN","NAN","NAN","NAN","NAN"],
    [1557490,"2026-06-09 14:40:00","58480","4.41","188.0","7.448","214","NAN","NAN","NAN","NAN","NAN"],
    [1557491,"2026-06-09 14:50:00","58481","4.565","187.7","7.644","217.5","NAN","NAN","NAN","NAN","NAN"],
    [1557492,"2026-06-09 15:00:00","58482","4.144","175.2","7.252","154.9","NAN","NAN","NAN","NAN","NAN"],
    [1557493,"2026-06-09 15:10:00","58483","3.56","197.7","6.141","221","NAN","NAN","NAN","NAN","NAN"],
    [1557494,"2026-06-09 15:20:00","58484","3.307","181.1","6.468","190.9","NAN","NAN","NAN","NAN","NAN"],
    [1557495,"2026-06-09 15:30:00","58485","3.977","160.6","6.631","158.4","NAN","NAN","NAN","NAN","NAN"],
    [1557496,"2026-06-09 15:40:00","58486","3.987","162.8","5.88","150.2","NAN","NAN","NAN","NAN","NAN"],
    [1557497,"2026-06-09 15:50:00","58487","3.5980000000000003","161.3","6.501","159.6","NAN","NAN","NAN","NAN","NAN"],
    [1557498,"2026-06-09 16:00:00","58488","4.124","162.4","6.37","157.2","NAN","NAN","NAN","NAN","NAN"],
    [1557499,"2026-06-09 16:10:00","58489","4.146","140.9","5.913","131.1","NAN","NAN","NAN","NAN","NAN"],
    [1557500,"2026-06-09 16:20:00","58490","3.822","149.6","5.651","146.9","NAN","NAN","NAN","NAN","NAN"],
    [1557501,"2026-06-09 16:30:00","58491","3.665","163.9","5.978","158.6","NAN","NAN","NAN","NAN","NAN"],
    [1557502,"2026-06-09 16:40:00","58492","3.716","162.3","5.847","158.5","NAN","NAN","NAN","NAN","NAN"],
    [1557503,"2026-06-09 16:50:00","58493","3.617","162.2","5.684","155.6","NAN","NAN","NAN","NAN","NAN"],
    [1557504,"2026-06-09 17:00:00","58494","3.824","160.7","5.292","174","NAN","NAN","NAN","NAN","NAN"],
    [1557505,"2026-06-09 17:10:00","58495","3.613","166.5","5.488","161.8","NAN","NAN","NAN","NAN","NAN"],
    [1557506,"2026-06-09 17:20:00","58496","3.6830000000000003","171.6","5.357","162","NAN","NAN","NAN","NAN","NAN"],
    [1557507,"2026-06-09 17:30:00","58497","3.283","169.3","4.998","142","NAN","NAN","NAN","NAN","NAN"],
    [1557508,"2026-06-09 17:40:00","58498","2.801","175.2","4.149","205.2","NAN","NAN","NAN","NAN","NAN"],
    [1557509,"2026-06-09 17:50:00","58499","2.654","166.7","3.855","156.9","NAN","NAN","NAN","NAN","NAN"],
    [1557510,"2026-06-09 18:00:00","58500","3.193","159.1","4.835","158.6","NAN","NAN","NAN","NAN","NAN"],
    [1557511,"2026-06-09 18:10:00","58501","2.9930000000000003","162.6","4.116","159.6","NAN","NAN","NAN","NAN","NAN"],
    [1557512,"2026-06-09 18:20:00","58502","3.074","160.7","4.377","163.3","NAN","NAN","NAN","NAN","NAN"],
    [1557513,"2026-06-09 18:30:00","58503","2.61","168.1","4.018","178.6","NAN","NAN","NAN","NAN","NAN"],
    [1557514,"2026-06-09 18:40:00","58504","2.1590000000000003","169.3","3.528","173.7","NAN","NAN","NAN","NAN","NAN"],
    [1557515,"2026-06-09 18:50:00","58505","2.278","166.1","3.299","162.4","NAN","NAN","NAN","NAN","NAN"],
    [1557516,"2026-06-09 19:00:00","58506","1.926","174.6","3.365","179.8","NAN","NAN","NAN","NAN","NAN"],
    [1557517,"2026-06-09 19:10:00","58507","1.6469999999999998","177.0","2.809","167.2","NAN","NAN","NAN","NAN","NAN"],
    [1557518,"2026-06-09 19:20:00","58508","1.594","178.7","4.312","179.9","NAN","NAN","NAN","NAN","NAN"],
    [1557519,"2026-06-09 19:30:00","58509","1.6740000000000002","169.9","2.613","168","NAN","NAN","NAN","NAN","NAN"],
    [1557520,"2026-06-09 19:40:00","58510","1.24","169.9","2.417","170.5","NAN","NAN","NAN","NAN","NAN"],
    [1557521,"2026-06-09 19:50:00","58511","1.8659999999999999","166.9","2.711","162.6","NAN","NAN","NAN","NAN","NAN"],
    [1557522,"2026-06-09 20:00:00","58512","1.666","169.4","2.45","173.1","NAN","NAN","NAN","NAN","NAN"],
    [1557523,"2026-06-09 20:10:00","58513","1.47","168.7","2.189","164.5","NAN","NAN","NAN","NAN","NAN"],
    [1557524,"2026-06-09 20:20:00","58514","1.008","179.6","1.895","177.8","NAN","NAN","NAN","NAN","NAN"],
    [1557525,"2026-06-09 20:30:00","58515","1.249","174.7","1.993","173.1","NAN","NAN","NAN","NAN","NAN"],
    [1557526,"2026-06-09 20:40:00","58516","0.7709999999999999","179.7","2.025","174.9","NAN","NAN","NAN","NAN","NAN"],
    [1557527,"2026-06-09 20:50:00","58517","0.71","186.2","1.797","186","NAN","NAN","NAN","NAN","NAN"],
    [1557528,"2026-06-09 21:00:00","58518","0.042","190.5","0.719","189.9","NAN","NAN","NAN","NAN","NAN"],
    [1557529,"2026-06-09 21:10:00","58519","0.243","191.9","1.535","191.7","NAN","NAN","NAN","NAN","NAN"],
    [1557530,"2026-06-09 21:20:00","58520","0.11","195.2","0.915","196","NAN","NAN","NAN","NAN","NAN"],
    [1557531,"2026-06-09 21:30:00","58521","0.382","197.9","1.372","197.2","NAN","NAN","NAN","NAN","NAN"],
    [1557532,"2026-06-09 21:40:00","58522","0.384","209.0","1.241","209.1","NAN","NAN","NAN","NAN","NAN"],
    [1557533,"2026-06-09 21:50:00","58523","0.16899999999999998","212.2","0.817","211.8","NAN","NAN","NAN","NAN","NAN"],
    [1557534,"2026-06-09 22:00:00","58524","0.134","223.1","0.719","224.6","NAN","NAN","NAN","NAN","NAN"],
    [1557535,"2026-06-09 22:10:00","58525","0.7879999999999999","226.9","1.535","229.1","NAN","NAN","NAN","NAN","NAN"],
    [1557536,"2026-06-09 22:20:00","58526","1.194","238.9","2.287","244.6","NAN","NAN","NAN","NAN","NAN"],
    [1557537,"2026-06-09 22:30:00","58527","1.547","249.2","2.679","254.7","NAN","NAN","NAN","NAN","NAN"],
    [1557538,"2026-06-09 22:40:00","58528","2.061","251.1","3.136","250.7","NAN","NAN","NAN","NAN","NAN"],
    [1557539,"2026-06-09 22:50:00","58529","2.041","253.1","2.973","252.5","NAN","NAN","NAN","NAN","NAN"],
    [1557540,"2026-06-09 23:00:00","58530","1.871","261.5","2.973","264.3","NAN","NAN","NAN","NAN","NAN"],
    [1557541,"2026-06-09 23:10:00","58531","2.064","266.4","3.365","263.2","NAN","NAN","NAN","NAN","NAN"],
    [1557542,"2026-06-09 23:20:00","58532","2.24","269.0","3.332","271.7","NAN","NAN","NAN","NAN","NAN"],
    [1557543,"2026-06-09 23:30:00","58533","1.733","270.6","3.071","274.5","NAN","NAN","NAN","NAN","NAN"],
    [1557544,"2026-06-09 23:40:00","58534","0.96","273.2","1.993","276.1","NAN","NAN","NAN","NAN","NAN"],
    [1557545,"2026-06-09 23:50:00","58535","1.1340000000000001","262.6","2.254","261.5","NAN","NAN","NAN","NAN","NAN"],
    [1557546,"2026-06-10 00:00:00","58536","1.7619999999999998","262.9","2.548","260.7","NAN","NAN","NAN","NAN","NAN"],
    [1557547,"2026-06-10 00:10:00","58537","1.5590000000000002","273.4","2.581","275","NAN","NAN","NAN","NAN","NAN"],
    [1557548,"2026-06-10 00:20:00","58538","1.868","286.4","2.711","291.5","NAN","NAN","NAN","NAN","NAN"],
    [1557549,"2026-06-10 00:30:00","58539","1.443","291.4","2.515","293.4","NAN","NAN","NAN","NAN","NAN"],
    [1557550,"2026-06-10 00:40:00","58540","1.092","288.1","1.829","292.8","NAN","NAN","NAN","NAN","NAN"],
    [1557551,"2026-06-10 00:50:00","58541","1.6019999999999999","280.9","2.548","280.4","NAN","NAN","NAN","NAN","NAN"],
    [1557552,"2026-06-10 01:00:00","58542","1.801","289.1","2.777","287.4","NAN","NAN","NAN","NAN","NAN"],
    [1557553,"2026-06-10 01:10:00","58543","1.6369999999999998","289.6","2.352","292.1","NAN","NAN","NAN","NAN","NAN"],
    [1557554,"2026-06-10 01:20:00","58544","1.5819999999999999","293.8","2.483","291.2","NAN","NAN","NAN","NAN","NAN"],
    [1557555,"2026-06-10 01:30:00","58545","1.3459999999999999","293.6","2.352","297.4","NAN","NAN","NAN","NAN","NAN"],
    [1557556,"2026-06-10 01:40:00","58546","0.9540000000000001","289.1","1.895","285.4","NAN","NAN","NAN","NAN","NAN"],
    [1557557,"2026-06-10 01:50:00","58547","0.884","289.8","1.47","297.9","NAN","NAN","NAN","NAN","NAN"],
    [1557558,"2026-06-10 02:00:00","58548","1.1909999999999998","294.3","2.287","293.2","NAN","NAN","NAN","NAN","NAN"],
    [1557559,"2026-06-10 02:10:00","58549","1.8219999999999998","294.2","2.842","295.1","NAN","NAN","NAN","NAN","NAN"],
    [1557560,"2026-06-10 02:20:00","58550","1.3880000000000001","290.8","1.927","287.1","NAN","NAN","NAN","NAN","NAN"],
    [1557561,"2026-06-10 02:30:00","58551","1.008","283.9","1.797","282.5","NAN","NAN","NAN","NAN","NAN"],
    [1557562,"2026-06-10 02:40:00","58552","0.966","284.2","1.633","282.6","NAN","NAN","NAN","NAN","NAN"],
    [1557563,"2026-06-10 02:50:00","58553","1.3769999999999998","284.2","1.895","281.4","NAN","NAN","NAN","NAN","NAN"],
    [1557564,"2026-06-10 03:00:00","58554","1.443","284.2","2.156","288.1","NAN","NAN","NAN","NAN","NAN"],
    [1557565,"2026-06-10 03:10:00","58555","1.2570000000000001","284.4","2.156","284.2","NAN","NAN","NAN","NAN","NAN"],
    [1557566,"2026-06-10 03:20:00","58556","1.464","280.5","2.189","285.7","NAN","NAN","NAN","NAN","NAN"],
    [1557567,"2026-06-10 03:30:00","58557","1.13","287.5","2.254","285.3","NAN","NAN","NAN","NAN","NAN"],
    [1557568,"2026-06-10 03:40:00","58558","1.459","298.0","2.483","298.9","NAN","NAN","NAN","NAN","NAN"],
    [1557569,"2026-06-10 03:50:00","58559","1.338","294.2","2.45","300.7","NAN","NAN","NAN","NAN","NAN"],
    [1557570,"2026-06-10 04:00:00","58560","1.445","287.2","2.515","285.2","NAN","NAN","NAN","NAN","NAN"],
    [1557571,"2026-06-10 04:10:00","58561","1.452","294.0","2.711","298.4","NAN","NAN","NAN","NAN","NAN"],
    [1557572,"2026-06-10 04:20:00","58562","1.81","291.2","2.875","297.1","NAN","NAN","NAN","NAN","NAN"],
    [1557573,"2026-06-10 04:30:00","58563","1.47","281.5","2.483","289.7","NAN","NAN","NAN","NAN","NAN"],
    [1557574,"2026-06-10 04:40:00","58564","1.208","283.3","2.189","279.8","NAN","NAN","NAN","NAN","NAN"],
    [1557575,"2026-06-10 04:50:00","58565","1.0290000000000001","290.5","1.797","283","NAN","NAN","NAN","NAN","NAN"],
    [1557576,"2026-06-10 05:00:00","58566","1.063","278.8","1.829","278.2","NAN","NAN","NAN","NAN","NAN"],
    [1557577,"2026-06-10 05:10:00","58567","1.067","280.2","1.895","278.3","NAN","NAN","NAN","NAN","NAN"],
    [1557578,"2026-06-10 05:20:00","58568","1.672","280.5","2.777","282.4","NAN","NAN","NAN","NAN","NAN"],
    [1557579,"2026-06-10 05:30:00","58569","1.16","275.3","2.385","276","NAN","NAN","NAN","NAN","NAN"],
    [1557580,"2026-06-10 05:40:00","58570","1.534","275.5","2.581","271","NAN","NAN","NAN","NAN","NAN"],
    [1557581,"2026-06-10 05:50:00","58571","1.074","268.7","2.156","270.1","NAN","NAN","NAN","NAN","NAN"],
    [1557582,"2026-06-10 06:00:00","58572","0.41100000000000003","264.8","1.601","254.6","NAN","NAN","NAN","NAN","NAN"],
    [1557583,"2026-06-10 06:10:00","58573","0.778","254.5","1.568","254.3","NAN","NAN","NAN","NAN","NAN"],
    [1557584,"2026-06-10 06:20:00","58574","1.367","266.0","2.352","270.3","NAN","NAN","NAN","NAN","NAN"],
    [1557585,"2026-06-10 06:30:00","58575","1.072","269.5","2.221","269.3","NAN","NAN","NAN","NAN","NAN"],
    [1557586,"2026-06-10 06:40:00","58576","1.172","274.2","2.287","272.3","NAN","NAN","NAN","NAN","NAN"],
    [1557587,"2026-06-10 06:50:00","58577","1.827","275.0","3.626","267","NAN","NAN","NAN","NAN","NAN"],
    [1557588,"2026-06-10 07:00:00","58578","1.811","285.1","3.691","299.5","NAN","NAN","NAN","NAN","NAN"],
    [1557589,"2026-06-10 07:10:00","58579","3.4139999999999997","309.9","5.749","306.8","NAN","NAN","NAN","NAN","NAN"],
    [1557590,"2026-06-10 07:20:00","58580","2.727","319.9","4.018","323.5","NAN","NAN","NAN","NAN","NAN"],
    [1557591,"2026-06-10 07:30:00","58581","1.505","65.97","3.659","114.8","NAN","NAN","NAN","NAN","NAN"],
    [1557592,"2026-06-10 07:40:00","58582","2.597","116.2","4.769","117.2","NAN","NAN","NAN","NAN","NAN"],
    [1557593,"2026-06-10 07:50:00","58583","2.978","109.1","5.553","115.2","NAN","NAN","NAN","NAN","NAN"],
    [1557594,"2026-06-10 08:00:00","58584","2.866","118.4","4.573","109.1","NAN","NAN","NAN","NAN","NAN"],
    [1557595,"2026-06-10 08:10:00","58585","2.8739999999999997","120.3","5.292","133.7","NAN","NAN","NAN","NAN","NAN"],
    [1557596,"2026-06-10 08:20:00","58586","2.51","113.7","4.998","111","NAN","NAN","NAN","NAN","NAN"],
    [1557597,"2026-06-10 08:30:00","58587","2.792","97.7","4.867","97.7","NAN","NAN","NAN","NAN","NAN"],
    [1557598,"2026-06-10 08:40:00","58588","2.266","101.7","3.757","97.2","NAN","NAN","NAN","NAN","NAN"],
    [1557599,"2026-06-10 08:50:00","58589","2.306","115.0","3.822","121.5","NAN","NAN","NAN","NAN","NAN"],
    [1557600,"2026-06-10 09:00:00","58590","1.973","111.7","3.463","117","NAN","NAN","NAN","NAN","NAN"],
    [1557601,"2026-06-10 09:10:00","58591","1.669","93.9","3.365","73.65","NAN","NAN","NAN","NAN","NAN"],
    [1557602,"2026-06-10 09:20:00","58592","2.136","90.3","3.463","90.1","NAN","NAN","NAN","NAN","NAN"],
    [1557603,"2026-06-10 09:30:00","58593","2.583","91.9","4.247","91.2","NAN","NAN","NAN","NAN","NAN"],
    [1557604,"2026-06-10 09:40:00","58594","1.9780000000000002","108.3","3.463","107","NAN","NAN","NAN","NAN","NAN"],
    [1557605,"2026-06-10 09:50:00","58595","2.06","93.2","3.626","68.19","NAN","NAN","NAN","NAN","NAN"],
    [1557606,"2026-06-10 10:00:00","58596","2.407","131.9","4.083","131.8","NAN","NAN","NAN","NAN","NAN"],
    [1557607,"2026-06-10 10:10:00","58597","2.227","126.6","3.659","113.1","NAN","NAN","NAN","NAN","NAN"],
    [1557608,"2026-06-10 10:20:00","58598","2.406","106.3","3.887","110.3","NAN","NAN","NAN","NAN","NAN"],
    [1557609,"2026-06-10 10:30:00","58599","2.4859999999999998","112.9","4.41","103.3","NAN","NAN","NAN","NAN","NAN"],
    [1557610,"2026-06-10 10:40:00","58600","2.98","121.6","4.475","109.4","NAN","NAN","NAN","NAN","NAN"],
    [1557611,"2026-06-10 10:50:00","58601","2.812","125.3","4.475","147.5","NAN","NAN","NAN","NAN","NAN"],
    [1557612,"2026-06-10 11:00:00","58602","2.8310000000000004","123.0","4.345","125.2","NAN","NAN","NAN","NAN","NAN"],
    [1557613,"2026-06-10 11:10:00","58603","3.0069999999999997","124.4","4.835","131.4","NAN","NAN","NAN","NAN","NAN"],
    [1557614,"2026-06-10 11:20:00","58604","3.609","125.4","5.913","142.4","NAN","NAN","NAN","NAN","NAN"],
    [1557615,"2026-06-10 11:30:00","58605","3.134","126.2","4.802","128","NAN","NAN","NAN","NAN","NAN"],
    [1557616,"2026-06-10 11:40:00","58606","3.177","131.8","5.031","136.1","NAN","NAN","NAN","NAN","NAN"],
    [1557617,"2026-06-10 11:50:00","58607","3.053","131.3","4.998","131.3","NAN","NAN","NAN","NAN","NAN"],
    [1557618,"2026-06-10 12:00:00","58608","3.49","126.8","5.455","122","NAN","NAN","NAN","NAN","NAN"],
    [1557619,"2026-06-10 12:10:00","58609","3.853","132.8","6.729","135.4","NAN","NAN","NAN","NAN","NAN"],
    [1557620,"2026-06-10 12:20:00","58610","4.167","143.3","6.697","116.5","NAN","NAN","NAN","NAN","NAN"],
    [1557621,"2026-06-10 12:30:00","58611","4.5569999999999995","138.6","6.697","165.2","NAN","NAN","NAN","NAN","NAN"],
    [1557622,"2026-06-10 12:40:00","58612","4.518","141.6","7.317","135","NAN","NAN","NAN","NAN","NAN"],
    [1557623,"2026-06-10 12:50:00","58613","3.985","141.5","6.403","159","NAN","NAN","NAN","NAN","NAN"],
    [1557624,"2026-06-10 13:00:00","58614","4.387","134.7","6.37","137.6","NAN","NAN","NAN","NAN","NAN"],
    [1557625,"2026-06-10 13:10:00","58615","4.008","135.2","7.121","131.1","NAN","NAN","NAN","NAN","NAN"],
    [1557626,"2026-06-10 13:20:00","58616","4.083","145.0","5.88","136.2","NAN","NAN","NAN","NAN","NAN"],
    [1557627,"2026-06-10 13:30:00","58617","3.847","138.7","5.88","134.8","NAN","NAN","NAN","NAN","NAN"],
    [1557628,"2026-06-10 13:40:00","58618","4.002","133.8","7.056","135.9","NAN","NAN","NAN","NAN","NAN"],
    [1557629,"2026-06-10 13:50:00","58619","4.172","145.1","6.207","121.2","NAN","NAN","NAN","NAN","NAN"],
    [1557630,"2026-06-10 14:00:00","58620","4.17","155.9","7.285","173.8","NAN","NAN","NAN","NAN","NAN"],
    [1557631,"2026-06-10 14:10:00","58621","4.018","174.3","7.023","189.7","NAN","NAN","NAN","NAN","NAN"],
    [1557632,"2026-06-10 14:20:00","58622","3.76","165.4","6.37","201.7","NAN","NAN","NAN","NAN","NAN"],
    [1557633,"2026-06-10 14:30:00","58623","4.357","157.4","6.403","177.4","NAN","NAN","NAN","NAN","NAN"],
    [1557634,"2026-06-10 14:40:00","58624","4.57","142.8","6.566","132","NAN","NAN","NAN","NAN","NAN"],
    [1557635,"2026-06-10 14:50:00","58625","4.635","146.4","6.468","148.5","NAN","NAN","NAN","NAN","NAN"],
    [1557636,"2026-06-10 15:00:00","58626","4.15","154.2","6.305","156.2","NAN","NAN","NAN","NAN","NAN"],
    [1557637,"2026-06-10 15:10:00","58627","4.272","144.5","6.435","172.1","NAN","NAN","NAN","NAN","NAN"],
    [1557638,"2026-06-10 15:20:00","58628","4.378","132.7","6.893","129.2","NAN","NAN","NAN","NAN","NAN"],
    [1557639,"2026-06-10 15:30:00","58629","4.288","132.1","6.664","124.9","NAN","NAN","NAN","NAN","NAN"],
    [1557640,"2026-06-10 15:40:00","58630","3.3680000000000003","128.3","5.651","145.4","NAN","NAN","NAN","NAN","NAN"],
    [1557641,"2026-06-10 15:50:00","58631","3.7739999999999996","128.5","5.815","122.8","NAN","NAN","NAN","NAN","NAN"],
    [1557642,"2026-06-10 16:00:00","58632","4.132","132.7","5.717","132","NAN","NAN","NAN","NAN","NAN"],
    [1557643,"2026-06-10 16:10:00","58633","3.6660000000000004","123.5","6.337","134.2","NAN","NAN","NAN","NAN","NAN"],
    [1557644,"2026-06-10 16:20:00","58634","3.563","128.2","5.031","125.2","NAN","NAN","NAN","NAN","NAN"],
    [1557645,"2026-06-10 16:30:00","58635","3.07","127.0","4.737","144.8","NAN","NAN","NAN","NAN","NAN"],
    [1557646,"2026-06-10 16:40:00","58636","3.645","123.2","5.129","143.4","NAN","NAN","NAN","NAN","NAN"],
    [1557647,"2026-06-10 16:50:00","58637","3.127","115.2","4.671","87.3","NAN","NAN","NAN","NAN","NAN"],
    [1557648,"2026-06-10 17:00:00","58638","3.72","119.5","5.292","145.7","NAN","NAN","NAN","NAN","NAN"],
    [1557649,"2026-06-10 17:10:00","58639","3.1260000000000003","119.0","4.541","114.6","NAN","NAN","NAN","NAN","NAN"],
    [1557650,"2026-06-10 17:20:00","58640","2.7910000000000004","120.8","4.933","116.1","NAN","NAN","NAN","NAN","NAN"],
    [1557651,"2026-06-10 17:30:00","58641","2.975","124.7","4.312","136.2","NAN","NAN","NAN","NAN","NAN"],
    [1557652,"2026-06-10 17:40:00","58642","2.964","130.2","4.769","137.4","NAN","NAN","NAN","NAN","NAN"],
    [1557653,"2026-06-10 17:50:00","58643","3.3710000000000004","129.5","5.259","133.2","NAN","NAN","NAN","NAN","NAN"],
    [1557654,"2026-06-10 18:00:00","58644","2.872","127.7","4.835","134.8","NAN","NAN","NAN","NAN","NAN"],
    [1557655,"2026-06-10 18:10:00","58645","2.2230000000000003","120.6","3.365","131","NAN","NAN","NAN","NAN","NAN"],
    [1557656,"2026-06-10 18:20:00","58646","2.246","127.2","3.855","132.7","NAN","NAN","NAN","NAN","NAN"],
    [1557657,"2026-06-10 18:30:00","58647","2.6180000000000003","144.0","3.92","127.8","NAN","NAN","NAN","NAN","NAN"],
    [1557658,"2026-06-10 18:40:00","58648","2.491","147.0","3.887","154.3","NAN","NAN","NAN","NAN","NAN"],
    [1557659,"2026-06-10 18:50:00","58649","2.4730000000000003","138.5","3.659","137.7","NAN","NAN","NAN","NAN","NAN"],
    [1557660,"2026-06-10 19:00:00","58650","1.8869999999999998","137.0","3.299","137.5","NAN","NAN","NAN","NAN","NAN"],
    [1557661,"2026-06-10 19:10:00","58651","1.73","145.6","3.038","157.6","NAN","NAN","NAN","NAN","NAN"],
    [1557662,"2026-06-10 19:20:00","58652","2.017","133.2","3.005","136.6","NAN","NAN","NAN","NAN","NAN"],
    [1557663,"2026-06-10 19:30:00","58653","2.386","130.9","3.332","132.4","NAN","NAN","NAN","NAN","NAN"],
    [1557664,"2026-06-10 19:40:00","58654","2.01","140.5","3.267","160.2","NAN","NAN","NAN","NAN","NAN"],
    [1557665,"2026-06-10 19:50:00","58655","2.496","137.0","3.887","131.9","NAN","NAN","NAN","NAN","NAN"],
    [1557666,"2026-06-10 20:00:00","58656","1.9340000000000002","136.8","2.907","124.9","NAN","NAN","NAN","NAN","NAN"],
    [1557667,"2026-06-10 20:10:00","58657","1.621","149.4","3.299","142.7","NAN","NAN","NAN","NAN","NAN"],
    [1557668,"2026-06-10 20:20:00","58658","1.591","157.8","2.45","157.7","NAN","NAN","NAN","NAN","NAN"],
    [1557669,"2026-06-10 20:30:00","58659","1.785","164.3","2.973","171.8","NAN","NAN","NAN","NAN","NAN"],
    [1557670,"2026-06-10 20:40:00","58660","1.714","166.1","2.94","159.3","NAN","NAN","NAN","NAN","NAN"],
    [1557671,"2026-06-10 20:50:00","58661","1.425","172.6","2.842","169","NAN","NAN","NAN","NAN","NAN"],
    [1557672,"2026-06-10 21:00:00","58662","1.32","170.4","2.711","163.8","NAN","NAN","NAN","NAN","NAN"],
    [1557673,"2026-06-10 21:10:00","58663","1.1520000000000001","173.7","2.45","175.1","NAN","NAN","NAN","NAN","NAN"],
    [1557674,"2026-06-10 21:20:00","58664","1.082","177.1","2.091","177.9","NAN","NAN","NAN","NAN","NAN"],
    [1557675,"2026-06-10 21:30:00","58665","1.012","179.0","1.993","179.8","NAN","NAN","NAN","NAN","NAN"],
    [1557676,"2026-06-10 21:40:00","58666","1.392","172.4","2.613","165.3","NAN","NAN","NAN","NAN","NAN"],
    [1557677,"2026-06-10 21:50:00","58667","1.189","175.5","1.895","169.4","NAN","NAN","NAN","NAN","NAN"],
    [1557678,"2026-06-10 22:00:00","58668","1.0659999999999998","177.6","1.993","175.8","NAN","NAN","NAN","NAN","NAN"],
    [1557679,"2026-06-10 22:10:00","58669","0.996","182.5","2.123","182.6","NAN","NAN","NAN","NAN","NAN"],
    [1557680,"2026-06-10 22:20:00","58670","1.139","184.4","2.156","185.2","NAN","NAN","NAN","NAN","NAN"],
    [1557681,"2026-06-10 22:30:00","58671","1.171","188.0","2.352","188.6","NAN","NAN","NAN","NAN","NAN"],
    [1557682,"2026-06-10 22:40:00","58672","1.885","195.1","2.679","190.2","NAN","NAN","NAN","NAN","NAN"],
    [1557683,"2026-06-10 22:50:00","58673","1.671","203.8","2.842","202.5","NAN","NAN","NAN","NAN","NAN"],
    [1557684,"2026-06-10 23:00:00","58674","1.7519999999999998","206.5","2.842","206.6","NAN","NAN","NAN","NAN","NAN"],
    [1557685,"2026-06-10 23:10:00","58675","1.7280000000000002","211.0","3.136","211.8","NAN","NAN","NAN","NAN","NAN"],
    [1557686,"2026-06-10 23:20:00","58676","1.8969999999999998","209.6","3.332","213","NAN","NAN","NAN","NAN","NAN"],
    [1557687,"2026-06-10 23:30:00","58677","2.035","212.7","3.038","207.7","NAN","NAN","NAN","NAN","NAN"],
    [1557688,"2026-06-10 23:40:00","58678","1.669","214.1","2.809","208.7","NAN","NAN","NAN","NAN","NAN"],
    [1557689,"2026-06-10 23:50:00","58679","1.3159999999999998","219.8","2.777","218.7","NAN","NAN","NAN","NAN","NAN"],
    [1557690,"2026-06-11 00:00:00","58680","1.761","215.6","3.005","216.4","NAN","NAN","NAN","NAN","NAN"],
    [1557691,"2026-06-11 00:10:00","58681","1.801","219.6","3.038","210.5","NAN","NAN","NAN","NAN","NAN"],
    [1557692,"2026-06-11 00:20:00","58682","1.5430000000000001","214.4","3.038","212.2","NAN","NAN","NAN","NAN","NAN"],
    [1557693,"2026-06-11 00:30:00","58683","1.43","226.9","2.875","220.2","NAN","NAN","NAN","NAN","NAN"],
    [1557694,"2026-06-11 00:40:00","58684","1.58","216.1","2.515","213.3","NAN","NAN","NAN","NAN","NAN"],
    [1557695,"2026-06-11 00:50:00","58685","1.227","224.1","2.777","226.9","NAN","NAN","NAN","NAN","NAN"],
    [1557696,"2026-06-11 01:00:00","58686","1.59","218.0","2.809","212.4","NAN","NAN","NAN","NAN","NAN"],
    [1557697,"2026-06-11 01:10:00","58687","1.72","213.9","3.005","211.8","NAN","NAN","NAN","NAN","NAN"],
    [1557698,"2026-06-11 01:20:00","58688","1.828","227.1","3.234","225.4","NAN","NAN","NAN","NAN","NAN"],
    [1557699,"2026-06-11 01:30:00","58689","1.547","220.1","3.071","234.4","NAN","NAN","NAN","NAN","NAN"],
    [1557700,"2026-06-11 01:40:00","58690","1.29","219.2","2.581","212.1","NAN","NAN","NAN","NAN","NAN"],
    [1557701,"2026-06-11 01:50:00","58691","1.625","221.5","2.875","212.5","NAN","NAN","NAN","NAN","NAN"],
    [1557702,"2026-06-11 02:00:00","58692","1.2409999999999999","215.6","2.254","217.2","NAN","NAN","NAN","NAN","NAN"],
    [1557703,"2026-06-11 02:10:00","58693","0.995","217.6","2.319","210.3","NAN","NAN","NAN","NAN","NAN"],
    [1557704,"2026-06-11 02:20:00","58694","1.6909999999999998","224.4","3.332","226.9","NAN","NAN","NAN","NAN","NAN"],
    [1557705,"2026-06-11 02:30:00","58695","1.9280000000000002","220.2","3.463","217.5","NAN","NAN","NAN","NAN","NAN"],
    [1557706,"2026-06-11 02:40:00","58696","1.767","215.8","3.267","220.1","NAN","NAN","NAN","NAN","NAN"],
    [1557707,"2026-06-11 02:50:00","58697","1.99","219.7","4.606","215","NAN","NAN","NAN","NAN","NAN"],
    [1557708,"2026-06-11 03:00:00","58698","0.711","227.6","1.797","227.8","NAN","NAN","NAN","NAN","NAN"],
    [1557709,"2026-06-11 03:10:00","58699","0.586","218.8","1.568","227","NAN","NAN","NAN","NAN","NAN"],
    [1557710,"2026-06-11 03:20:00","58700","1.127","229.9","2.254","215.1","NAN","NAN","NAN","NAN","NAN"],
    [1557711,"2026-06-11 03:30:00","58701","0.505","217.0","1.731","217.5","NAN","NAN","NAN","NAN","NAN"],
    [1557712,"2026-06-11 03:40:00","58702","0.794","234.7","2.744","252.3","NAN","NAN","NAN","NAN","NAN"],
    [1557713,"2026-06-11 03:50:00","58703","2.6060000000000003","250.1","4.083","243.2","NAN","NAN","NAN","NAN","NAN"],
    [1557714,"2026-06-11 04:00:00","58704","2.2840000000000003","243.0","4.475","226.3","NAN","NAN","NAN","NAN","NAN"],
    [1557715,"2026-06-11 04:10:00","58705","2.641","243.7","4.606","229.7","NAN","NAN","NAN","NAN","NAN"],
    [1557716,"2026-06-11 04:20:00","58706","2.487","243.9","4.737","241.4","NAN","NAN","NAN","NAN","NAN"],
    [1557717,"2026-06-11 04:30:00","58707","2.351","246.1","4.181","257.6","NAN","NAN","NAN","NAN","NAN"],
    [1557718,"2026-06-11 04:40:00","58708","1.65","239.5","2.842","253.5","NAN","NAN","NAN","NAN","NAN"],
    [1557719,"2026-06-11 04:50:00","58709","1.3630000000000002","236.9","2.711","238.2","NAN","NAN","NAN","NAN","NAN"],
    [1557720,"2026-06-11 05:00:00","58710","1.197","240.2","2.45","230.7","NAN","NAN","NAN","NAN","NAN"],
    [1557721,"2026-06-11 05:10:00","58711","1.364","249.0","2.809","240.8","NAN","NAN","NAN","NAN","NAN"],
    [1557722,"2026-06-11 05:20:00","58712","1.964","268.4","3.887","257.4","NAN","NAN","NAN","NAN","NAN"],
    [1557723,"2026-06-11 05:30:00","58713","2.426","273.2","4.279","266.3","NAN","NAN","NAN","NAN","NAN"],
    [1557724,"2026-06-11 05:40:00","58714","2.773","267.5","4.802","272.5","NAN","NAN","NAN","NAN","NAN"],
    [1557725,"2026-06-11 05:50:00","58715","2.13","263.7","3.267","276.3","NAN","NAN","NAN","NAN","NAN"],
    [1557726,"2026-06-11 06:00:00","58716","1.73","283.1","3.299","283.7","NAN","NAN","NAN","NAN","NAN"],
    [1557727,"2026-06-11 06:10:00","58717","2.162","296.3","3.365","302.1","NAN","NAN","NAN","NAN","NAN"],
    [1557728,"2026-06-11 06:20:00","58718","1.148","299.0","2.777","311.7","NAN","NAN","NAN","NAN","NAN"],
    [1557729,"2026-06-11 06:30:00","58719","1.415","326.0","2.907","329.7","NAN","NAN","NAN","NAN","NAN"],
    [1557730,"2026-06-11 06:40:00","58720","0.48200000000000004","336.5","2.189","336.8","NAN","NAN","NAN","NAN","NAN"],
    [1557731,"2026-06-11 06:50:00","58721","1.27","37.32","3.332","50.97","NAN","NAN","NAN","NAN","NAN"],
    [1557732,"2026-06-11 07:00:00","58722","1.169","78.69","2.973","64.31","NAN","NAN","NAN","NAN","NAN"],
    [1557733,"2026-06-11 07:10:00","58723","1.84","73.12","3.855","69.11","NAN","NAN","NAN","NAN","NAN"],
    [1557734,"2026-06-11 07:20:00","58724","1.15","72.47","2.417","68","NAN","NAN","NAN","NAN","NAN"],
    [1557735,"2026-06-11 07:30:00","58725","1.535","70.96","2.679","68.58","NAN","NAN","NAN","NAN","NAN"],
    [1557736,"2026-06-11 07:40:00","58726","1.6540000000000001","67.24","3.267","64.09","NAN","NAN","NAN","NAN","NAN"],
    [1557737,"2026-06-11 07:50:00","58727","1.97","86.3","3.299","60.08","NAN","NAN","NAN","NAN","NAN"],
    [1557738,"2026-06-11 08:00:00","58728","2.093","93.6","3.561","90.1","NAN","NAN","NAN","NAN","NAN"],
    [1557739,"2026-06-11 08:10:00","58729","1.932","99.1","3.724","106.5","NAN","NAN","NAN","NAN","NAN"],
    [1557740,"2026-06-11 08:20:00","58730","1.943","97.4","3.495","95.2","NAN","NAN","NAN","NAN","NAN"],
    [1557741,"2026-06-11 08:30:00","58731","1.736","96.0","3.365","98.8","NAN","NAN","NAN","NAN","NAN"],
    [1557742,"2026-06-11 08:40:00","58732","1.9809999999999999","97.1","3.691","98","NAN","NAN","NAN","NAN","NAN"],
    [1557743,"2026-06-11 08:50:00","58733","1.9680000000000002","101.0","3.332","101.4","NAN","NAN","NAN","NAN","NAN"],
    [1557744,"2026-06-11 09:00:00","58734","1.9340000000000002","107.2","3.92","128.1","NAN","NAN","NAN","NAN","NAN"],
    [1557745,"2026-06-11 09:10:00","58735","2.246","110.7","4.051","121.1","NAN","NAN","NAN","NAN","NAN"],
    [1557746,"2026-06-11 09:20:00","58736","2.041","110.0","3.659","104.3","NAN","NAN","NAN","NAN","NAN"],
    [1557747,"2026-06-11 09:30:00","58737","2.383","94.3","4.312","91.6","NAN","NAN","NAN","NAN","NAN"],
    [1557748,"2026-06-11 09:40:00","58738","2.459","85.8","4.214","114.3","NAN","NAN","NAN","NAN","NAN"],
    [1557749,"2026-06-11 09:50:00","58739","2.866","115.4","4.214","112.7","NAN","NAN","NAN","NAN","NAN"],
    [1557750,"2026-06-11 10:00:00","58740","2.782","120.9","3.985","93.1","NAN","NAN","NAN","NAN","NAN"],
    [1557751,"2026-06-11 10:10:00","58741","2.103","118.2","3.561","102.8","NAN","NAN","NAN","NAN","NAN"],
    [1557752,"2026-06-11 10:20:00","58742","1.992","123.5","3.43","126.9","NAN","NAN","NAN","NAN","NAN"],
    [1557753,"2026-06-11 10:30:00","58743","2.151","128.2","3.495","119.6","NAN","NAN","NAN","NAN","NAN"],
    [1557754,"2026-06-11 10:40:00","58744","2.309","112.1","3.691","104.7","NAN","NAN","NAN","NAN","NAN"],
    [1557755,"2026-06-11 10:50:00","58745","2.653","164.8","4.508","150.6","NAN","NAN","NAN","NAN","NAN"],
    [1557756,"2026-06-11 11:00:00","58746","2.6639999999999997","174.9","5.161","162.2","NAN","NAN","NAN","NAN","NAN"],
    [1557757,"2026-06-11 11:10:00","58747","3.083","171.5","5.357","147.7","NAN","NAN","NAN","NAN","NAN"],
    [1557758,"2026-06-11 11:20:00","58748","2.9539999999999997","164.5","5.259","173.8","NAN","NAN","NAN","NAN","NAN"],
    [1557759,"2026-06-11 11:30:00","58749","3.522","167.1","5.749","174.4","NAN","NAN","NAN","NAN","NAN"],
    [1557760,"2026-06-11 11:40:00","58750","3.1919999999999997","174.5","5.586","156.5","NAN","NAN","NAN","NAN","NAN"],
    [1557761,"2026-06-11 11:50:00","58751","3.283","183.2","6.729","161.1","NAN","NAN","NAN","NAN","NAN"],
    [1557762,"2026-06-11 12:00:00","58752","3.428","200.2","5.651","222.7","NAN","NAN","NAN","NAN","NAN"],
    [1557763,"2026-06-11 12:10:00","58753","3.31","189.8","5.292","215.9","NAN","NAN","NAN","NAN","NAN"],
    [1557764,"2026-06-11 12:20:00","58754","3.25","188.7","6.305","178.8","NAN","NAN","NAN","NAN","NAN"],
    [1557765,"2026-06-11 12:30:00","58755","3.234","197.4","5.553","167.6","NAN","NAN","NAN","NAN","NAN"],
    [1557766,"2026-06-11 12:40:00","58756","2.8760000000000003","181.8","6.893","159","NAN","NAN","NAN","NAN","NAN"],
    [1557767,"2026-06-11 12:50:00","58757","2.6830000000000003","194.5","4.671","223.7","NAN","NAN","NAN","NAN","NAN"],
    [1557768,"2026-06-11 13:00:00","58758","2.742","193.5","4.802","206.8","NAN","NAN","NAN","NAN","NAN"],
    [1557769,"2026-06-11 13:10:00","58759","2.968","190.5","4.802","166.1","NAN","NAN","NAN","NAN","NAN"],
    [1557770,"2026-06-11 13:20:00","58760","2.322","179.9","4.606","223.5","NAN","NAN","NAN","NAN","NAN"],
    [1557771,"2026-06-11 13:30:00","58761","2.715","177.3","5.39","170.1","NAN","NAN","NAN","NAN","NAN"],
    [1557772,"2026-06-11 13:40:00","58762","2.358","184.3","5.063","185.6","NAN","NAN","NAN","NAN","NAN"],
    [1557773,"2026-06-11 13:50:00","58763","3.135","174.3","6.239","168.8","NAN","NAN","NAN","NAN","NAN"],
    [1557774,"2026-06-11 14:00:00","58764","3.483","177.1","5.619","215.6","NAN","NAN","NAN","NAN","NAN"],
    [1557775,"2026-06-11 14:10:00","58765","3.548","188.4","6.109","206.2","NAN","NAN","NAN","NAN","NAN"],
    [1557776,"2026-06-11 14:20:00","58766","3.2260000000000004","193.5","5.194","182.3","NAN","NAN","NAN","NAN","NAN"],
    [1557777,"2026-06-11 14:30:00","58767","3.242","200.6","4.965","180.9","NAN","NAN","NAN","NAN","NAN"],
    [1557778,"2026-06-11 14:40:00","58768","3.2430000000000003","192.2","5.815","175.7","NAN","NAN","NAN","NAN","NAN"],
    [1557779,"2026-06-11 14:50:00","58769","3.092","181.1","5.717","180.1","NAN","NAN","NAN","NAN","NAN"],
    [1557780,"2026-06-11 15:00:00","58770","3.325","183.4","5.749","183.8","NAN","NAN","NAN","NAN","NAN"],
    [1557781,"2026-06-11 15:10:00","58771","2.8289999999999997","190.9","5.031","181.1","NAN","NAN","NAN","NAN","NAN"],
    [1557782,"2026-06-11 15:20:00","58772","3.426","182.1","6.174","173.1","NAN","NAN","NAN","NAN","NAN"],
    [1557783,"2026-06-11 15:30:00","58773","3.4210000000000003","202.9","5.521","209.1","NAN","NAN","NAN","NAN","NAN"],
    [1557784,"2026-06-11 15:40:00","58774","2.661","209.9","5.129","219.1","NAN","NAN","NAN","NAN","NAN"],
    [1557785,"2026-06-11 15:50:00","58775","2.559","195.8","5.521","187.9","NAN","NAN","NAN","NAN","NAN"],
    [1557786,"2026-06-11 16:00:00","58776","2.68","196.4","5.945","182.3","NAN","NAN","NAN","NAN","NAN"],
    [1557787,"2026-06-11 16:10:00","58777","3.377","178.1","6.011","166.8","NAN","NAN","NAN","NAN","NAN"],
    [1557788,"2026-06-11 16:20:00","58778","2.972","180.4","6.011","183.5","NAN","NAN","NAN","NAN","NAN"],
    [1557789,"2026-06-11 16:30:00","58779","3.1460000000000004","200.1","5.259","199.6","NAN","NAN","NAN","NAN","NAN"],
    [1557790,"2026-06-11 16:40:00","58780","3.5260000000000002","206.4","5.651","213","NAN","NAN","NAN","NAN","NAN"],
    [1557791,"2026-06-11 16:50:00","58781","3.525","206.6","5.88","219.6","NAN","NAN","NAN","NAN","NAN"],
    [1557792,"2026-06-11 17:00:00","58782","2.7769999999999997","216.6","5.096","219.7","NAN","NAN","NAN","NAN","NAN"],
    [1557793,"2026-06-11 17:10:00","58783","2.792","206.3","5.357","215.4","NAN","NAN","NAN","NAN","NAN"],
    [1557794,"2026-06-11 17:20:00","58784","3.176","210.2","5.325","218.7","NAN","NAN","NAN","NAN","NAN"],
    [1557795,"2026-06-11 17:30:00","58785","3.147","211.4","5.063","203.1","NAN","NAN","NAN","NAN","NAN"],
    [1557796,"2026-06-11 17:40:00","58786","2.6239999999999997","206.2","4.802","201.3","NAN","NAN","NAN","NAN","NAN"],
    [1557797,"2026-06-11 17:50:00","58787","3.292","210.6","4.933","198.8","NAN","NAN","NAN","NAN","NAN"],
    [1557798,"2026-06-11 18:00:00","58788","3.065","215.3","4.965","222","NAN","NAN","NAN","NAN","NAN"],
    [1557799,"2026-06-11 18:10:00","58789","2.121","200.9","4.867","227","NAN","NAN","NAN","NAN","NAN"],
    [1557800,"2026-06-11 18:20:00","58790","2.617","226.3","4.835","226.3","NAN","NAN","NAN","NAN","NAN"],
    [1557801,"2026-06-11 18:30:00","58791","2.546","223.3","4.508","216.6","NAN","NAN","NAN","NAN","NAN"],
    [1557802,"2026-06-11 18:40:00","58792","3.023","212.4","5.194","203.4","NAN","NAN","NAN","NAN","NAN"],
    [1557803,"2026-06-11 18:50:00","58793","3.358","211.8","4.965","222.7","NAN","NAN","NAN","NAN","NAN"],
    [1557804,"2026-06-11 19:00:00","58794","3.7689999999999997","212.0","5.194","226.8","NAN","NAN","NAN","NAN","NAN"],
    [1557805,"2026-06-11 19:10:00","58795","3.11","222.7","5.031","230.7","NAN","NAN","NAN","NAN","NAN"],
    [1557806,"2026-06-11 19:20:00","58796","2.454","234.1","4.737","221.3","NAN","NAN","NAN","NAN","NAN"],
    [1557807,"2026-06-11 19:30:00","58797","2.7110000000000003","210.9","4.377","214.1","NAN","NAN","NAN","NAN","NAN"],
    [1557808,"2026-06-11 19:40:00","58798","1.944","207.2","3.561","207.8","NAN","NAN","NAN","NAN","NAN"],
    [1557809,"2026-06-11 19:50:00","58799","2.245","208.7","3.789","207.5","NAN","NAN","NAN","NAN","NAN"],
    [1557810,"2026-06-11 20:00:00","58800","2.274","214.0","4.149","213.7","NAN","NAN","NAN","NAN","NAN"],
    [1557811,"2026-06-11 20:10:00","58801","2.017","223.7","3.463","215.6","NAN","NAN","NAN","NAN","NAN"],
    [1557812,"2026-06-11 20:20:00","58802","2.439","225.9","4.508","223.6","NAN","NAN","NAN","NAN","NAN"],
    [1557813,"2026-06-11 20:30:00","58803","2.355","225.8","4.312","220.6","NAN","NAN","NAN","NAN","NAN"],
    [1557814,"2026-06-11 20:40:00","58804","2.397","217.9","4.377","221.9","NAN","NAN","NAN","NAN","NAN"],
    [1557815,"2026-06-11 20:50:00","58805","2.7760000000000002","217.1","5.292","228.7","NAN","NAN","NAN","NAN","NAN"],
    [1557816,"2026-06-11 21:00:00","58806","2.6060000000000003","224.6","5.194","222.5","NAN","NAN","NAN","NAN","NAN"],
    [1557817,"2026-06-11 21:10:00","58807","2.403","230.4","4.475","219.7","NAN","NAN","NAN","NAN","NAN"],
    [1557818,"2026-06-11 21:20:00","58808","2.19","241.3","4.018","244.5","NAN","NAN","NAN","NAN","NAN"],
    [1557819,"2026-06-11 21:30:00","58809","1.817","224.5","4.443","221.7","NAN","NAN","NAN","NAN","NAN"],
    [1557820,"2026-06-11 21:40:00","58810","1.6440000000000001","236.4","2.875","242","NAN","NAN","NAN","NAN","NAN"],
    [1557821,"2026-06-11 21:50:00","58811","2.8139999999999996","250.4","4.475","240.9","NAN","NAN","NAN","NAN","NAN"],
    [1557822,"2026-06-11 22:00:00","58812","1.755","245.2","3.005","245.6","NAN","NAN","NAN","NAN","NAN"],
    [1557823,"2026-06-11 22:10:00","58813","2.806","253.4","4.214","249.2","NAN","NAN","NAN","NAN","NAN"],
    [1557824,"2026-06-11 22:20:00","58814","2.285","248.0","3.789","250.9","NAN","NAN","NAN","NAN","NAN"],
    [1557825,"2026-06-11 22:30:00","58815","1.7009999999999998","250.4","2.385","254.7","NAN","NAN","NAN","NAN","NAN"],
    [1557826,"2026-06-11 22:40:00","58816","1.883","259.8","2.907","261.3","NAN","NAN","NAN","NAN","NAN"],
    [1557827,"2026-06-11 22:50:00","58817","1.494","267.4","2.483","265.9","NAN","NAN","NAN","NAN","NAN"],
    [1557828,"2026-06-11 23:00:00","58818","1.291","268.5","2.058","268.4","NAN","NAN","NAN","NAN","NAN"],
    [1557829,"2026-06-11 23:10:00","58819","1.443","268.8","2.352","269","NAN","NAN","NAN","NAN","NAN"],
    [1557830,"2026-06-11 23:20:00","58820","1.444","268.2","2.875","269","NAN","NAN","NAN","NAN","NAN"],
    [1557831,"2026-06-11 23:30:00","58821","1.776","267.7","3.299","266.9","NAN","NAN","NAN","NAN","NAN"],
    [1557832,"2026-06-11 23:40:00","58822","1.8630000000000002","270.6","3.234","274.2","NAN","NAN","NAN","NAN","NAN"],
    [1557833,"2026-06-11 23:50:00","58823","1.685","274.4","2.646","273.8","NAN","NAN","NAN","NAN","NAN"],
    [1557834,"2026-06-12 00:00:00","58824","1.4380000000000002","277.0","2.809","277.4","NAN","NAN","NAN","NAN","NAN"],
    [1557835,"2026-06-12 00:10:00","58825","1.266","277.7","2.417","278.5","NAN","NAN","NAN","NAN","NAN"],
    [1557836,"2026-06-12 00:20:00","58826","1.084","278.5","1.895","278.7","NAN","NAN","NAN","NAN","NAN"],
    [1557837,"2026-06-12 00:30:00","58827","1.252","275.4","1.96","278.7","NAN","NAN","NAN","NAN","NAN"],
    [1557838,"2026-06-12 00:40:00","58828","1.044","270.6","1.731","276","NAN","NAN","NAN","NAN","NAN"],
    [1557839,"2026-06-12 00:50:00","58829","1.072","269.6","1.797","269.2","NAN","NAN","NAN","NAN","NAN"],
    [1557840,"2026-06-12 01:00:00","58830","1.025","269.8","1.568","269.3","NAN","NAN","NAN","NAN","NAN"],
    [1557841,"2026-06-12 01:10:00","58831","1.103","268.7","1.535","268.9","NAN","NAN","NAN","NAN","NAN"],
    [1557842,"2026-06-12 01:20:00","58832","1.329","266.8","1.927","267","NAN","NAN","NAN","NAN","NAN"],
    [1557843,"2026-06-12 01:30:00","58833","0.9540000000000001","266.2","1.535","266.2","NAN","NAN","NAN","NAN","NAN"],
    [1557844,"2026-06-12 01:40:00","58834","0.968","269.0","1.927","271.7","NAN","NAN","NAN","NAN","NAN"],
    [1557845,"2026-06-12 01:50:00","58835","0.42200000000000004","267.4","1.862","267.9","NAN","NAN","NAN","NAN","NAN"],
    [1557846,"2026-06-12 02:00:00","58836","0.547","266.5","0.98","266.3","NAN","NAN","NAN","NAN","NAN"],
    [1557847,"2026-06-12 02:10:00","58837","0.9359999999999999","266.3","1.601","266.2","NAN","NAN","NAN","NAN","NAN"],
    [1557848,"2026-06-12 02:20:00","58838","1.087","268.4","1.47","269.7","NAN","NAN","NAN","NAN","NAN"],
    [1557849,"2026-06-12 02:30:00","58839","1.175","268.2","1.895","269.4","NAN","NAN","NAN","NAN","NAN"],
    [1557850,"2026-06-12 02:40:00","58840","0.882","266.5","1.47","267.2","NAN","NAN","NAN","NAN","NAN"],
    [1557851,"2026-06-12 02:50:00","58841","1.061","266.4","1.993","264.9","NAN","NAN","NAN","NAN","NAN"],
    [1557852,"2026-06-12 03:00:00","58842","1.594","264.5","2.711","262.8","NAN","NAN","NAN","NAN","NAN"],
    [1557853,"2026-06-12 03:10:00","58843","2.133","261.5","3.463","268.2","NAN","NAN","NAN","NAN","NAN"],
    [1557854,"2026-06-12 03:20:00","58844","1.901","273.0","3.071","272.7","NAN","NAN","NAN","NAN","NAN"],
    [1557855,"2026-06-12 03:30:00","58845","2.221","275.2","3.495","272","NAN","NAN","NAN","NAN","NAN"],
    [1557856,"2026-06-12 03:40:00","58846","1.3219999999999998","277.5","2.548","269.4","NAN","NAN","NAN","NAN","NAN"],
    [1557857,"2026-06-12 03:50:00","58847","1.135","281.4","1.993","283","NAN","NAN","NAN","NAN","NAN"],
    [1557858,"2026-06-12 04:00:00","58848","1.514","283.0","2.483","285.2","NAN","NAN","NAN","NAN","NAN"],
    [1557859,"2026-06-12 04:10:00","58849","1.595","279.9","2.45","288.5","NAN","NAN","NAN","NAN","NAN"],
    [1557860,"2026-06-12 04:20:00","58850","1.0","289.0","2.45","288.5","NAN","NAN","NAN","NAN","NAN"],
    [1557861,"2026-06-12 04:30:00","58851","1.038","281.3","1.666","282.9","NAN","NAN","NAN","NAN","NAN"],
    [1557862,"2026-06-12 04:40:00","58852","1.351","278.8","2.058","278.6","NAN","NAN","NAN","NAN","NAN"],
    [1557863,"2026-06-12 04:50:00","58853","1.8969999999999998","276.0","3.103","274.4","NAN","NAN","NAN","NAN","NAN"],
    [1557864,"2026-06-12 05:00:00","58854","1.774","274.7","2.744","271.1","NAN","NAN","NAN","NAN","NAN"],
    [1557865,"2026-06-12 05:10:00","58855","1.574","286.5","3.103","292","NAN","NAN","NAN","NAN","NAN"],
    [1557866,"2026-06-12 05:20:00","58856","1.8119999999999998","289.3","2.842","281.4","NAN","NAN","NAN","NAN","NAN"],
    [1557867,"2026-06-12 05:30:00","58857","1.745","299.0","3.397","297.4","NAN","NAN","NAN","NAN","NAN"],
    [1557868,"2026-06-12 05:40:00","58858","1.541","300.8","2.875","295.3","NAN","NAN","NAN","NAN","NAN"],
    [1557869,"2026-06-12 05:50:00","58859","2.0469999999999997","302.5","3.626","301.6","NAN","NAN","NAN","NAN","NAN"],
    [1557870,"2026-06-12 06:00:00","58860","2.325","306.9","3.495","311.4","NAN","NAN","NAN","NAN","NAN"],
    [1557871,"2026-06-12 06:10:00","58861","2.399","301.3","3.985","296.5","NAN","NAN","NAN","NAN","NAN"],
    [1557872,"2026-06-12 06:20:00","58862","1.8230000000000002","311.9","3.332","321.8","NAN","NAN","NAN","NAN","NAN"],
    [1557873,"2026-06-12 06:30:00","58863","1.64","304.1","3.365","297.7","NAN","NAN","NAN","NAN","NAN"],
    [1557874,"2026-06-12 06:40:00","58864","1.858","318.7","3.528","336.1","NAN","NAN","NAN","NAN","NAN"],
    [1557875,"2026-06-12 06:50:00","58865","1.555","305.1","3.103","270.1","NAN","NAN","NAN","NAN","NAN"],
    [1557876,"2026-06-12 07:00:00","58866","1.9780000000000002","281.9","3.43","272.7","NAN","NAN","NAN","NAN","NAN"],
    [1557877,"2026-06-12 07:10:00","58867","1.6219999999999999","283.8","2.94","297","NAN","NAN","NAN","NAN","NAN"],
    [1557878,"2026-06-12 07:20:00","58868","2.251","276.8","3.659","278.5","NAN","NAN","NAN","NAN","NAN"],
    [1557879,"2026-06-12 07:30:00","58869","1.6669999999999998","279.8","3.038","293.4","NAN","NAN","NAN","NAN","NAN"],
    [1557880,"2026-06-12 07:40:00","58870","1.2209999999999999","278.4","2.613","290.6","NAN","NAN","NAN","NAN","NAN"],
    [1557881,"2026-06-12 07:50:00","58871","0.889","278.0","2.875","284.4","NAN","NAN","NAN","NAN","NAN"],
    [1557882,"2026-06-12 08:00:00","58872","0.685","281.8","2.711","259.9","NAN","NAN","NAN","NAN","NAN"],
    [1557883,"2026-06-12 08:10:00","58873","1.13","272.5","2.352","276.4","NAN","NAN","NAN","NAN","NAN"],
    [1557884,"2026-06-12 08:20:00","58874","0.9079999999999999","140.1","3.724","116.4","NAN","NAN","NAN","NAN","NAN"],
    [1557885,"2026-06-12 08:30:00","58875","1.469","168.0","4.475","148.9","NAN","NAN","NAN","NAN","NAN"],
    [1557886,"2026-06-12 08:40:00","58876","1.234","177.2","3.985","125.4","NAN","NAN","NAN","NAN","NAN"],
    [1557887,"2026-06-12 08:50:00","58877","1.686","191.5","4.541","154.8","NAN","NAN","NAN","NAN","NAN"],
    [1557888,"2026-06-12 09:00:00","58878","3.4360000000000004","165.9","5.161","157.8","NAN","NAN","NAN","NAN","NAN"],
    [1557889,"2026-06-12 09:10:00","58879","3.2539999999999996","182.9","5.39","162.3","NAN","NAN","NAN","NAN","NAN"],
    [1557890,"2026-06-12 09:20:00","58880","2.668","171.2","5.129","155.8","NAN","NAN","NAN","NAN","NAN"],
    [1557891,"2026-06-12 09:30:00","58881","3.304","164.9","5.227","169.5","NAN","NAN","NAN","NAN","NAN"],
    [1557892,"2026-06-12 09:40:00","58882","3.32","171.1","5.651","178.1","NAN","NAN","NAN","NAN","NAN"],
    [1557893,"2026-06-12 09:50:00","58883","2.7910000000000004","175.5","4.475","156.8","NAN","NAN","NAN","NAN","NAN"],
    [1557894,"2026-06-12 10:00:00","58884","2.727","177.2","4.769","173.4","NAN","NAN","NAN","NAN","NAN"],
    [1557895,"2026-06-12 10:10:00","58885","2.638","179.9","4.214","183.6","NAN","NAN","NAN","NAN","NAN"],
    [1557896,"2026-06-12 10:20:00","58886","2.52","176.6","4.802","166.7","NAN","NAN","NAN","NAN","NAN"],
    [1557897,"2026-06-12 10:30:00","58887","2.824","176.6","5.325","151.7","NAN","NAN","NAN","NAN","NAN"],
    [1557898,"2026-06-12 10:40:00","58888","2.696","179.4","4.9","154.3","NAN","NAN","NAN","NAN","NAN"],
    [1557899,"2026-06-12 10:50:00","58889","2.9339999999999997","169.0","5.553","178.8","NAN","NAN","NAN","NAN","NAN"],
    [1557900,"2026-06-12 11:00:00","58890","3.1439999999999997","192.9","5.031","213.8","NAN","NAN","NAN","NAN","NAN"],
    [1557901,"2026-06-12 11:10:00","58891","2.991","191.0","4.965","222","NAN","NAN","NAN","NAN","NAN"],
    [1557902,"2026-06-12 11:20:00","58892","2.832","205.5","4.998","207.7","NAN","NAN","NAN","NAN","NAN"],
    [1557903,"2026-06-12 11:30:00","58893","3.234","203.0","5.782","213.3","NAN","NAN","NAN","NAN","NAN"],
    [1557904,"2026-06-12 11:40:00","58894","3.444","204.5","5.423","197.8","NAN","NAN","NAN","NAN","NAN"],
    [1557905,"2026-06-12 11:50:00","58895","3.036","199.0","5.423","166.4","NAN","NAN","NAN","NAN","NAN"],
    [1557906,"2026-06-12 12:00:00","58896","3.3289999999999997","200.2","5.357","226.1","NAN","NAN","NAN","NAN","NAN"],
    [1557907,"2026-06-12 12:10:00","58897","3.638","205.3","6.305","236.4","NAN","NAN","NAN","NAN","NAN"],
    [1557908,"2026-06-12 12:20:00","58898","3.596","215.8","6.403","218.1","NAN","NAN","NAN","NAN","NAN"],
    [1557909,"2026-06-12 12:30:00","58899","3.957","223.4","6.435","208.7","NAN","NAN","NAN","NAN","NAN"],
    [1557910,"2026-06-12 12:40:00","58900","4.061","216.6","6.795","214.9","NAN","NAN","NAN","NAN","NAN"],
    [1557911,"2026-06-12 12:50:00","58901","4.1819999999999995","212.4","6.893","211.6","NAN","NAN","NAN","NAN","NAN"],
    [1557912,"2026-06-12 13:00:00","58902","3.843","213.4","7.35","210.1","NAN","NAN","NAN","NAN","NAN"],
    [1557913,"2026-06-12 13:10:00","58903","4.109","221.6","6.925","236.5","NAN","NAN","NAN","NAN","NAN"],
    [1557914,"2026-06-12 13:20:00","58904","3.7460000000000004","221.8","6.468","226.2","NAN","NAN","NAN","NAN","NAN"],
    [1557915,"2026-06-12 13:30:00","58905","4.327","219.1","7.415","218.8","NAN","NAN","NAN","NAN","NAN"],
    [1557916,"2026-06-12 13:40:00","58906","4.337","221.3","7.448","212.3","NAN","NAN","NAN","NAN","NAN"],
    [1557917,"2026-06-12 13:50:00","58907","4.622","223.3","7.415","227.6","NAN","NAN","NAN","NAN","NAN"],
    [1557918,"2026-06-12 14:00:00","58908","4.401","227.5","7.252","204.8","NAN","NAN","NAN","NAN","NAN"],
    [1557919,"2026-06-12 14:10:00","58909","3.7760000000000002","224.6","7.448","236.7","NAN","NAN","NAN","NAN","NAN"],
    [1557920,"2026-06-12 14:20:00","58910","4.269","219.8","7.187","215.5","NAN","NAN","NAN","NAN","NAN"],
    [1557921,"2026-06-12 14:30:00","58911","4.442","222.4","6.958","221.3","NAN","NAN","NAN","NAN","NAN"],
    [1557922,"2026-06-12 14:40:00","58912","4.3580000000000005","222.5","7.807","221.7","NAN","NAN","NAN","NAN","NAN"],
    [1557923,"2026-06-12 14:50:00","58913","4.348","227.2","6.958","232.9","NAN","NAN","NAN","NAN","NAN"],
    [1557924,"2026-06-12 15:00:00","58914","4.322","224.2","6.664","233.7","NAN","NAN","NAN","NAN","NAN"],
    [1557925,"2026-06-12 15:10:00","58915","4.572","229.4","7.154","235.2","NAN","NAN","NAN","NAN","NAN"],
    [1557926,"2026-06-12 15:20:00","58916","4.158","226.7","7.775","236.1","NAN","NAN","NAN","NAN","NAN"],
    [1557927,"2026-06-12 15:30:00","58917","4.213","226.5","7.415","214.9","NAN","NAN","NAN","NAN","NAN"],
    [1557928,"2026-06-12 15:40:00","58918","4.791","224.4","7.644","217.3","NAN","NAN","NAN","NAN","NAN"],
    [1557929,"2026-06-12 15:50:00","58919","3.94","222.7","7.056","217.1","NAN","NAN","NAN","NAN","NAN"],
    [1557930,"2026-06-12 16:00:00","58920","4.66","223.8","7.089","211.7","NAN","NAN","NAN","NAN","NAN"],
    [1557931,"2026-06-12 16:10:00","58921","4.655","220.6","7.546","216.4","NAN","NAN","NAN","NAN","NAN"],
    [1557932,"2026-06-12 16:20:00","58922","4.596","225.1","7.807","210.1","NAN","NAN","NAN","NAN","NAN"],
    [1557933,"2026-06-12 16:30:00","58923","4.123","226.1","7.546","215.3","NAN","NAN","NAN","NAN","NAN"],
    [1557934,"2026-06-12 16:40:00","58924","4.7010000000000005","219.3","8.59","219.3","NAN","NAN","NAN","NAN","NAN"],
    [1557935,"2026-06-12 16:50:00","58925","4.525","225.4","7.775","243.4","NAN","NAN","NAN","NAN","NAN"],
    [1557936,"2026-06-12 17:00:00","58926","4.6739999999999995","224.5","8","217","NAN","NAN","NAN","NAN","NAN"],
    [1557937,"2026-06-12 17:10:00","58927","4.188","233.4","7.415","230.6","NAN","NAN","NAN","NAN","NAN"],
    [1557938,"2026-06-12 17:20:00","58928","4.207","227.8","7.056","233.4","NAN","NAN","NAN","NAN","NAN"],
    [1557939,"2026-06-12 17:30:00","58929","3.265","230.3","6.337","217.7","NAN","NAN","NAN","NAN","NAN"],
    [1557940,"2026-06-12 17:40:00","58930","4.26","226.3","6.925","216.2","NAN","NAN","NAN","NAN","NAN"],
    [1557941,"2026-06-12 17:50:00","58931","3.858","228.2","6.86","210.4","NAN","NAN","NAN","NAN","NAN"],
    [1557942,"2026-06-12 18:00:00","58932","3.911","215.9","6.109","216.7","NAN","NAN","NAN","NAN","NAN"],
    [1557943,"2026-06-12 18:10:00","58933","3.9","224.8","6.305","206.2","NAN","NAN","NAN","NAN","NAN"],
    [1557944,"2026-06-12 18:20:00","58934","3.352","220.7","6.37","228.9","NAN","NAN","NAN","NAN","NAN"],
    [1557945,"2026-06-12 18:30:00","58935","3.1489999999999996","226.8","6.272","227.9","NAN","NAN","NAN","NAN","NAN"],
    [1557946,"2026-06-12 18:40:00","58936","3.114","233.7","5.815","236.4","NAN","NAN","NAN","NAN","NAN"],
    [1557947,"2026-06-12 18:50:00","58937","3.575","232.4","6.337","237.4","NAN","NAN","NAN","NAN","NAN"],
    [1557948,"2026-06-12 19:00:00","58938","3.4610000000000003","238.6","5.847","254.5","NAN","NAN","NAN","NAN","NAN"],
    [1557949,"2026-06-12 19:10:00","58939","3.36","240.7","6.86","219.8","NAN","NAN","NAN","NAN","NAN"],
    [1557950,"2026-06-12 19:20:00","58940","3.2060000000000004","242.5","6.043","248.4","NAN","NAN","NAN","NAN","NAN"],
    [1557951,"2026-06-12 19:30:00","58941","3.55","251.9","5.815","242.6","NAN","NAN","NAN","NAN","NAN"],
    [1557952,"2026-06-12 19:40:00","58942","3.168","247.0","4.737","247.8","NAN","NAN","NAN","NAN","NAN"],
    [1557953,"2026-06-12 19:50:00","58943","2.708","247.0","4.737","250.3","NAN","NAN","NAN","NAN","NAN"],
    [1557954,"2026-06-12 20:00:00","58944","2.659","251.0","4.541","254","NAN","NAN","NAN","NAN","NAN"],
    [1557955,"2026-06-12 20:10:00","58945","2.05","251.0","3.691","256.1","NAN","NAN","NAN","NAN","NAN"],
    [1557956,"2026-06-12 20:20:00","58946","2.05","255.1","3.626","256.2","NAN","NAN","NAN","NAN","NAN"],
    [1557957,"2026-06-12 20:30:00","58947","1.358","249.5","3.005","254","NAN","NAN","NAN","NAN","NAN"],
    [1557958,"2026-06-12 20:40:00","58948","2.127","253.6","3.267","257.1","NAN","NAN","NAN","NAN","NAN"],
    [1557959,"2026-06-12 20:50:00","58949","1.52","260.3","3.103","258.9","NAN","NAN","NAN","NAN","NAN"],
    [1557960,"2026-06-12 21:00:00","58950","1.944","252.8","2.842","252.2","NAN","NAN","NAN","NAN","NAN"],
    [1557961,"2026-06-12 21:10:00","58951","1.798","251.7","2.679","250.3","NAN","NAN","NAN","NAN","NAN"],
    [1557962,"2026-06-12 21:20:00","58952","1.901","252.1","2.94","256.7","NAN","NAN","NAN","NAN","NAN"],
    [1557963,"2026-06-12 21:30:00","58953","1.734","250.6","2.548","240.4","NAN","NAN","NAN","NAN","NAN"],
    [1557964,"2026-06-12 21:40:00","58954","1.775","241.5","3.136","250.8","NAN","NAN","NAN","NAN","NAN"],
    [1557965,"2026-06-12 21:50:00","58955","2.0140000000000002","246.3","2.744","247.6","NAN","NAN","NAN","NAN","NAN"],
    [1557966,"2026-06-12 22:00:00","58956","1.318","233.6","2.417","227.5","NAN","NAN","NAN","NAN","NAN"],
    [1557967,"2026-06-12 22:10:00","58957","2.011","219.0","3.299","215.9","NAN","NAN","NAN","NAN","NAN"],
    [1557968,"2026-06-12 22:20:00","58958","1.54","221.5","3.005","213.7","NAN","NAN","NAN","NAN","NAN"],
    [1557969,"2026-06-12 22:30:00","58959","1.587","229.2","3.038","213.4","NAN","NAN","NAN","NAN","NAN"],
    [1557970,"2026-06-12 22:40:00","58960","1.185","235.7","2.189","235.5","NAN","NAN","NAN","NAN","NAN"],
    [1557971,"2026-06-12 22:50:00","58961","1.327","237.0","2.156","237.4","NAN","NAN","NAN","NAN","NAN"],
    [1557972,"2026-06-12 23:00:00","58962","0.257","237.6","1.111","237.6","NAN","NAN","NAN","NAN","NAN"],
    [1557973,"2026-06-12 23:10:00","58963","0.223","237.6","0.915","237.6","NAN","NAN","NAN","NAN","NAN"],
    [1557974,"2026-06-12 23:20:00","58964","0.373","237.6","0.98","237.7","NAN","NAN","NAN","NAN","NAN"],
    [1557975,"2026-06-12 23:30:00","58965","0.16399999999999998","237.7","0.751","237.7","NAN","NAN","NAN","NAN","NAN"],
    [1557976,"2026-06-12 23:40:00","58966","0.5770000000000001","237.7","1.078","237.7","NAN","NAN","NAN","NAN","NAN"],
    [1557977,"2026-06-12 23:50:00","58967","0.662","237.7","1.699","237.7","NAN","NAN","NAN","NAN","NAN"],
    [1557978,"2026-06-13 00:00:00","58968","0.972","237.3","1.895","237.7","NAN","NAN","NAN","NAN","NAN"],
    [1557979,"2026-06-13 00:10:00","58969","1.1420000000000001","238.2","1.731","238.4","NAN","NAN","NAN","NAN","NAN"],
    [1557980,"2026-06-13 00:20:00","58970","0.8370000000000001","238.4","1.601","238.4","NAN","NAN","NAN","NAN","NAN"],
    [1557981,"2026-06-13 00:30:00","58971","0.6809999999999999","238.5","1.241","238.5","NAN","NAN","NAN","NAN","NAN"],
    [1557982,"2026-06-13 00:40:00","58972","0.271","238.8","0.686","238.6","NAN","NAN","NAN","NAN","NAN"],
    [1557983,"2026-06-13 00:50:00","58973","0.905","239.0","2.123","239.2","NAN","NAN","NAN","NAN","NAN"],
    [1557984,"2026-06-13 01:00:00","58974","1.493","250.1","2.646","251.1","NAN","NAN","NAN","NAN","NAN"],
    [1557985,"2026-06-13 01:10:00","58975","1.514","255.6","2.777","254.4","NAN","NAN","NAN","NAN","NAN"],
    [1557986,"2026-06-13 01:20:00","58976","2.1390000000000002","274.1","3.724","272.4","NAN","NAN","NAN","NAN","NAN"],
    [1557987,"2026-06-13 01:30:00","58977","2.0669999999999997","283.7","3.201","287.2","NAN","NAN","NAN","NAN","NAN"],
    [1557988,"2026-06-13 01:40:00","58978","2.146","280.2","3.332","287.4","NAN","NAN","NAN","NAN","NAN"],
    [1557989,"2026-06-13 01:50:00","58979","1.495","283.6","2.254","285.7","NAN","NAN","NAN","NAN","NAN"],
    [1557990,"2026-06-13 02:00:00","58980","1.656","276.5","2.385","273.4","NAN","NAN","NAN","NAN","NAN"],
    [1557991,"2026-06-13 02:10:00","58981","1.7890000000000001","282.2","2.744","284.3","NAN","NAN","NAN","NAN","NAN"],
    [1557992,"2026-06-13 02:20:00","58982","1.733","281.2","3.005","280.4","NAN","NAN","NAN","NAN","NAN"],
    [1557993,"2026-06-13 02:30:00","58983","1.4469999999999998","273.9","2.45","282.1","NAN","NAN","NAN","NAN","NAN"],
    [1557994,"2026-06-13 02:40:00","58984","1.208","271.5","2.646","268.8","NAN","NAN","NAN","NAN","NAN"],
    [1557995,"2026-06-13 02:50:00","58985","1.452","270.3","3.071","267.1","NAN","NAN","NAN","NAN","NAN"],
    [1557996,"2026-06-13 03:00:00","58986","2.3169999999999997","264.7","3.887","268.9","NAN","NAN","NAN","NAN","NAN"],
    [1557997,"2026-06-13 03:10:00","58987","3.1660000000000004","266.0","5.651","273.2","NAN","NAN","NAN","NAN","NAN"],
    [1557998,"2026-06-13 03:20:00","58988","3.926","274.2","6.043","264.6","NAN","NAN","NAN","NAN","NAN"],
    [1557999,"2026-06-13 03:30:00","58989","3.585","276.0","5.815","277.9","NAN","NAN","NAN","NAN","NAN"],
    [1558000,"2026-06-13 03:40:00","58990","2.904","275.5","5.031","266.7","NAN","NAN","NAN","NAN","NAN"],
    [1558001,"2026-06-13 03:50:00","58991","2.109","283.1","4.083","287.3","NAN","NAN","NAN","NAN","NAN"],
    [1558002,"2026-06-13 04:00:00","58992","1.9","291.3","3.397","296.9","NAN","NAN","NAN","NAN","NAN"],
    [1558003,"2026-06-13 04:10:00","58993","1.091","288.1","2.581","283.1","NAN","NAN","NAN","NAN","NAN"],
    [1558004,"2026-06-13 04:20:00","58994","1.2930000000000001","282.0","1.927","286.3","NAN","NAN","NAN","NAN","NAN"],
    [1558005,"2026-06-13 04:30:00","58995","1.276","284.5","1.96","283.8","NAN","NAN","NAN","NAN","NAN"],
    [1558006,"2026-06-13 04:40:00","58996","1.355","282.6","1.862","283.1","NAN","NAN","NAN","NAN","NAN"],
    [1558007,"2026-06-13 04:50:00","58997","1.801","280.8","2.744","278.2","NAN","NAN","NAN","NAN","NAN"],
    [1558008,"2026-06-13 05:00:00","58998","1.6680000000000001","283.7","3.103","285.1","NAN","NAN","NAN","NAN","NAN"],
    [1558009,"2026-06-13 05:10:00","58999","1.912","279.0","2.875","274.6","NAN","NAN","NAN","NAN","NAN"],
    [1558010,"2026-06-13 05:20:00","59000","2.016","282.5","3.397","272.9","NAN","NAN","NAN","NAN","NAN"],
    [1558011,"2026-06-13 05:30:00","59001","1.8869999999999998","280.4","3.071","280.2","NAN","NAN","NAN","NAN","NAN"],
    [1558012,"2026-06-13 05:40:00","59002","2.597","278.3","4.312","273.8","NAN","NAN","NAN","NAN","NAN"],
    [1558013,"2026-06-13 05:50:00","59003","2.474","281.3","4.051","296.5","NAN","NAN","NAN","NAN","NAN"],
    [1558014,"2026-06-13 06:00:00","59004","2.775","297.1","4.475","282.2","NAN","NAN","NAN","NAN","NAN"],
    [1558015,"2026-06-13 06:10:00","59005","2.208","292.5","3.626","299.3","NAN","NAN","NAN","NAN","NAN"],
    [1558016,"2026-06-13 06:20:00","59006","1.547","287.1","2.483","283","NAN","NAN","NAN","NAN","NAN"],
    [1558017,"2026-06-13 06:30:00","59007","1.2009999999999998","283.5","2.417","280.7","NAN","NAN","NAN","NAN","NAN"],
    [1558018,"2026-06-13 06:40:00","59008","1.083","294.9","2.058","297.4","NAN","NAN","NAN","NAN","NAN"],
    [1558019,"2026-06-13 06:50:00","59009","0.223","315.3","1.045","291.9","NAN","NAN","NAN","NAN","NAN"],
    [1558020,"2026-06-13 07:00:00","59010","0.092","351.1","0.588","350.4","NAN","NAN","NAN","NAN","NAN"],
    [1558021,"2026-06-13 07:10:00","59011","0.016","352.9","0.327","352.7","NAN","NAN","NAN","NAN","NAN"],
    [1558022,"2026-06-13 07:20:00","59012","0.022000000000000002","353.4","0.327","353.4","NAN","NAN","NAN","NAN","NAN"],
    [1558023,"2026-06-13 07:30:00","59013","0.025","353.6","0.359","353.7","NAN","NAN","NAN","NAN","NAN"],
    [1558024,"2026-06-13 07:40:00","59014","0.06","353.7","0.392","353.7","NAN","NAN","NAN","NAN","NAN"],
    [1558025,"2026-06-13 07:50:00","59015","0.48100000000000004","354.1","1.078","354.4","NAN","NAN","NAN","NAN","NAN"],
    [1558026,"2026-06-13 08:00:00","59016","0.109","47.73","0.882","14.6","NAN","NAN","NAN","NAN","NAN"],
    [1558027,"2026-06-13 08:10:00","59017","0.633","57.04","1.241","57.29","NAN","NAN","NAN","NAN","NAN"],
    [1558028,"2026-06-13 08:20:00","59018","0.39399999999999996","75.63","1.96","98.6","NAN","NAN","NAN","NAN","NAN"],
    [1558029,"2026-06-13 08:30:00","59019","1.058","98.7","1.633","98.7","NAN","NAN","NAN","NAN","NAN"],
    [1558030,"2026-06-13 08:40:00","59020","1.876","110.7","2.613","122.6","NAN","NAN","NAN","NAN","NAN"],
    [1558031,"2026-06-13 08:50:00","59021","2.145","122.0","3.005","122.8","NAN","NAN","NAN","NAN","NAN"],
    [1558032,"2026-06-13 09:00:00","59022","2.082","119.7","2.679","123","NAN","NAN","NAN","NAN","NAN"],
    [1558033,"2026-06-13 09:10:00","59023","2.375","121.0","2.973","124.2","NAN","NAN","NAN","NAN","NAN"],
    [1558034,"2026-06-13 09:20:00","59024","2.412","120.1","3.528","117.6","NAN","NAN","NAN","NAN","NAN"],
    [1558035,"2026-06-13 09:30:00","59025","2.603","136.8","3.855","126.1","NAN","NAN","NAN","NAN","NAN"],
    [1558036,"2026-06-13 09:40:00","59026","2.66","152.5","4.247","161.1","NAN","NAN","NAN","NAN","NAN"],
    [1558037,"2026-06-13 09:50:00","59027","3.575","163.0","4.671","168.9","NAN","NAN","NAN","NAN","NAN"],
    [1558038,"2026-06-13 10:00:00","59028","3.315","163.8","5.651","157.3","NAN","NAN","NAN","NAN","NAN"],
    [1558039,"2026-06-13 10:10:00","59029","3.908","168.8","5.88","216.6","NAN","NAN","NAN","NAN","NAN"],
    [1558040,"2026-06-13 10:20:00","59030","3.6239999999999997","189.1","6.011","179.9","NAN","NAN","NAN","NAN","NAN"],
    [1558041,"2026-06-13 10:30:00","59031","2.775","186.6","4.802","174.4","NAN","NAN","NAN","NAN","NAN"],
    [1558042,"2026-06-13 10:40:00","59032","3.18","163.1","4.802","151.3","NAN","NAN","NAN","NAN","NAN"],
    [1558043,"2026-06-13 10:50:00","59033","2.309","185.1","4.377","155.2","NAN","NAN","NAN","NAN","NAN"],
    [1558044,"2026-06-13 11:00:00","59034","2.859","159.6","4.475","161.9","NAN","NAN","NAN","NAN","NAN"],
    [1558045,"2026-06-13 11:10:00","59035","3.092","160.2","4.573","155.1","NAN","NAN","NAN","NAN","NAN"],
    [1558046,"2026-06-13 11:20:00","59036","2.425","171.8","4.149","162.5","NAN","NAN","NAN","NAN","NAN"],
    [1558047,"2026-06-13 11:30:00","59037","2.983","165.5","4.181","165.2","NAN","NAN","NAN","NAN","NAN"],
    [1558048,"2026-06-13 11:40:00","59038","3.112","166.0","5.063","158.9","NAN","NAN","NAN","NAN","NAN"],
    [1558049,"2026-06-13 11:50:00","59039","2.806","173.0","4.214","173.6","NAN","NAN","NAN","NAN","NAN"],
    [1558050,"2026-06-13 12:00:00","59040","2.782","145.6","4.247","108.2","NAN","NAN","NAN","NAN","NAN"],
    [1558051,"2026-06-13 12:10:00","59041","2.713","141.6","4.083","134.8","NAN","NAN","NAN","NAN","NAN"],
    [1558052,"2026-06-13 12:20:00","59042","3.181","121.1","5.129","121.1","NAN","NAN","NAN","NAN","NAN"],
    [1558053,"2026-06-13 12:30:00","59043","3.031","132.5","4.998","149.8","NAN","NAN","NAN","NAN","NAN"],
    [1558054,"2026-06-13 12:40:00","59044","3.195","146.9","5.129","138.8","NAN","NAN","NAN","NAN","NAN"],
    [1558055,"2026-06-13 12:50:00","59045","3.035","177.6","4.867","170.3","NAN","NAN","NAN","NAN","NAN"],
    [1558056,"2026-06-13 13:00:00","59046","3.4539999999999997","170.1","5.325","165.6","NAN","NAN","NAN","NAN","NAN"],
    [1558057,"2026-06-13 13:10:00","59047","2.489","185.0","4.965","185.6","NAN","NAN","NAN","NAN","NAN"],
    [1558058,"2026-06-13 13:20:00","59048","3.091","174.0","4.541","164.8","NAN","NAN","NAN","NAN","NAN"],
    [1558059,"2026-06-13 13:30:00","59049","3.361","168.8","5.259","170.1","NAN","NAN","NAN","NAN","NAN"],
    [1558060,"2026-06-13 13:40:00","59050","3.448","164.9","4.769","156.7","NAN","NAN","NAN","NAN","NAN"],
    [1558061,"2026-06-13 13:50:00","59051","2.708","178.8","4.345","179.6","NAN","NAN","NAN","NAN","NAN"],
    [1558062,"2026-06-13 14:00:00","59052","2.702","174.3","4.377","154.1","NAN","NAN","NAN","NAN","NAN"],
    [1558063,"2026-06-13 14:10:00","59053","2.714","170.7","4.41","183.7","NAN","NAN","NAN","NAN","NAN"],
    [1558064,"2026-06-13 14:20:00","59054","2.7460000000000004","182.9","4.704","160.2","NAN","NAN","NAN","NAN","NAN"],
    [1558065,"2026-06-13 14:30:00","59055","2.763","184.9","4.998","177.6","NAN","NAN","NAN","NAN","NAN"],
    [1558066,"2026-06-13 14:40:00","59056","3.065","182.0","5.847","163.8","NAN","NAN","NAN","NAN","NAN"],
    [1558067,"2026-06-13 14:50:00","59057","2.602","195.2","4.377","202.3","NAN","NAN","NAN","NAN","NAN"],
    [1558068,"2026-06-13 15:00:00","59058","2.9560000000000004","195.3","5.586","204.5","NAN","NAN","NAN","NAN","NAN"],
    [1558069,"2026-06-13 15:10:00","59059","3.077","179.8","4.965","189.2","NAN","NAN","NAN","NAN","NAN"],
    [1558070,"2026-06-13 15:20:00","59060","3.292","171.1","5.227","171.9","NAN","NAN","NAN","NAN","NAN"],
    [1558071,"2026-06-13 15:30:00","59061","3.272","176.0","5.39","178.6","NAN","NAN","NAN","NAN","NAN"],
    [1558072,"2026-06-13 15:40:00","59062","2.4019999999999997","186.2","4.443","211.2","NAN","NAN","NAN","NAN","NAN"],
    [1558073,"2026-06-13 15:50:00","59063","2.9760000000000004","187.2","4.639","160.1","NAN","NAN","NAN","NAN","NAN"],
    [1558074,"2026-06-13 16:00:00","59064","2.665","174.0","4.965","152.2","NAN","NAN","NAN","NAN","NAN"],
    [1558075,"2026-06-13 16:10:00","59065","2.85","182.8","5.325","165.7","NAN","NAN","NAN","NAN","NAN"],
    [1558076,"2026-06-13 16:20:00","59066","2.447","190.2","4.606","184.3","NAN","NAN","NAN","NAN","NAN"],
    [1558077,"2026-06-13 16:30:00","59067","2.479","194.5","4.671","204.6","NAN","NAN","NAN","NAN","NAN"],
    [1558078,"2026-06-13 16:40:00","59068","2.369","186.3","3.985","162.7","NAN","NAN","NAN","NAN","NAN"],
    [1558079,"2026-06-13 16:50:00","59069","2.253","190.3","4.018","195.2","NAN","NAN","NAN","NAN","NAN"],
    [1558080,"2026-06-13 17:00:00","59070","2.2319999999999998","207.9","4.181","204.9","NAN","NAN","NAN","NAN","NAN"],
    [1558081,"2026-06-13 17:10:00","59071","2.448","184.1","4.508","183","NAN","NAN","NAN","NAN","NAN"],
    [1558082,"2026-06-13 17:20:00","59072","2.379","199.3","4.247","201.2","NAN","NAN","NAN","NAN","NAN"],
    [1558083,"2026-06-13 17:30:00","59073","2.6510000000000002","194.2","4.933","208.1","NAN","NAN","NAN","NAN","NAN"],
    [1558084,"2026-06-13 17:40:00","59074","1.9809999999999999","195.3","3.887","227","NAN","NAN","NAN","NAN","NAN"],
    [1558085,"2026-06-13 17:50:00","59075","1.932","195.9","3.43","184.5","NAN","NAN","NAN","NAN","NAN"],
    [1558086,"2026-06-13 18:00:00","59076","2.648","208.7","4.508","200.2","NAN","NAN","NAN","NAN","NAN"],
    [1558087,"2026-06-13 18:10:00","59077","2.251","202.5","4.443","207.4","NAN","NAN","NAN","NAN","NAN"],
    [1558088,"2026-06-13 18:20:00","59078","2.435","202.5","4.345","210.6","NAN","NAN","NAN","NAN","NAN"],
    [1558089,"2026-06-13 18:30:00","59079","2.602","204.6","4.018","213.7","NAN","NAN","NAN","NAN","NAN"],
    [1558090,"2026-06-13 18:40:00","59080","2.494","201.9","4.41","210.4","NAN","NAN","NAN","NAN","NAN"],
    [1558091,"2026-06-13 18:50:00","59081","2.592","199.6","4.443","212.2","NAN","NAN","NAN","NAN","NAN"],
    [1558092,"2026-06-13 19:00:00","59082","2.582","204.9","4.345","199","NAN","NAN","NAN","NAN","NAN"],
    [1558093,"2026-06-13 19:10:00","59083","3.03","208.6","4.41","206.6","NAN","NAN","NAN","NAN","NAN"],
    [1558094,"2026-06-13 19:20:00","59084","2.86","207.9","4.247","205.3","NAN","NAN","NAN","NAN","NAN"],
    [1558095,"2026-06-13 19:30:00","59085","2.864","212.3","4.018","207.9","NAN","NAN","NAN","NAN","NAN"],
    [1558096,"2026-06-13 19:40:00","59086","2.733","213.1","4.606","209.5","NAN","NAN","NAN","NAN","NAN"],
    [1558097,"2026-06-13 19:50:00","59087","2.375","215.4","3.985","212.7","NAN","NAN","NAN","NAN","NAN"],
    [1558098,"2026-06-13 20:00:00","59088","2.2430000000000003","215.0","3.593","210","NAN","NAN","NAN","NAN","NAN"],
    [1558099,"2026-06-13 20:10:00","59089","2.199","222.0","4.377","220","NAN","NAN","NAN","NAN","NAN"],
    [1558100,"2026-06-13 20:20:00","59090","1.758","224.3","3.953","221.6","NAN","NAN","NAN","NAN","NAN"],
    [1558101,"2026-06-13 20:30:00","59091","2.3280000000000003","230.7","3.887","238.7","NAN","NAN","NAN","NAN","NAN"],
    [1558102,"2026-06-13 20:40:00","59092","1.7719999999999998","235.4","3.789","231.3","NAN","NAN","NAN","NAN","NAN"],
    [1558103,"2026-06-13 20:50:00","59093","1.209","235.4","2.842","238.7","NAN","NAN","NAN","NAN","NAN"],
    [1558104,"2026-06-13 21:00:00","59094","1.215","227.8","2.123","228.4","NAN","NAN","NAN","NAN","NAN"],
    [1558105,"2026-06-13 21:10:00","59095","1.49","223.5","2.842","233.9","NAN","NAN","NAN","NAN","NAN"],
    [1558106,"2026-06-13 21:20:00","59096","1.4469999999999998","236.2","2.809","236.2","NAN","NAN","NAN","NAN","NAN"],
    [1558107,"2026-06-13 21:30:00","59097","1.5419999999999998","241.2","2.417","229.2","NAN","NAN","NAN","NAN","NAN"],
    [1558108,"2026-06-13 21:40:00","59098","1.556","246.1","2.45","245.4","NAN","NAN","NAN","NAN","NAN"],
    [1558109,"2026-06-13 21:50:00","59099","1.578","247.4","2.613","247.8","NAN","NAN","NAN","NAN","NAN"],
    [1558110,"2026-06-13 22:00:00","59100","1.868","245.9","2.679","236.3","NAN","NAN","NAN","NAN","NAN"],
    [1558111,"2026-06-13 22:10:00","59101","1.35","244.3","2.091","248.2","NAN","NAN","NAN","NAN","NAN"],
    [1558112,"2026-06-13 22:20:00","59102","1.652","241.6","2.483","238.2","NAN","NAN","NAN","NAN","NAN"],
    [1558113,"2026-06-13 22:30:00","59103","1.345","249.2","2.809","247","NAN","NAN","NAN","NAN","NAN"],
    [1558114,"2026-06-13 22:40:00","59104","1.226","249.6","1.927","249.5","NAN","NAN","NAN","NAN","NAN"],
    [1558115,"2026-06-13 22:50:00","59105","1.39","247.9","1.96","249.5","NAN","NAN","NAN","NAN","NAN"],
    [1558116,"2026-06-13 23:00:00","59106","1.145","244.1","1.797","249.4","NAN","NAN","NAN","NAN","NAN"],
    [1558117,"2026-06-13 23:10:00","59107","1.392","242.0","2.123","249.5","NAN","NAN","NAN","NAN","NAN"],
    [1558118,"2026-06-13 23:20:00","59108","1.479","240.7","2.352","234.4","NAN","NAN","NAN","NAN","NAN"],
    [1558119,"2026-06-13 23:30:00","59109","0.9229999999999999","247.3","2.385","247.1","NAN","NAN","NAN","NAN","NAN"],
    [1558120,"2026-06-13 23:40:00","59110","1.307","247.1","1.96","247.4","NAN","NAN","NAN","NAN","NAN"],
    [1558121,"2026-06-13 23:50:00","59111","1.4469999999999998","247.1","2.123","247.6","NAN","NAN","NAN","NAN","NAN"],
    [1558122,"2026-06-14 00:00:00","59112","1.53","247.9","2.058","248","NAN","NAN","NAN","NAN","NAN"],
    [1558123,"2026-06-14 00:10:00","59113","1.854","247.6","2.613","248.4","NAN","NAN","NAN","NAN","NAN"],
    [1558124,"2026-06-14 00:20:00","59114","1.3840000000000001","248.9","2.287","249","NAN","NAN","NAN","NAN","NAN"],
    [1558125,"2026-06-14 00:30:00","59115","1.347","249.5","2.058","249.5","NAN","NAN","NAN","NAN","NAN"],
    [1558126,"2026-06-14 00:40:00","59116","1.7630000000000001","250.0","2.581","250","NAN","NAN","NAN","NAN","NAN"],
    [1558127,"2026-06-14 00:50:00","59117","1.775","251.0","2.711","251.3","NAN","NAN","NAN","NAN","NAN"],
    [1558128,"2026-06-14 01:00:00","59118","1.7269999999999999","254.1","2.515","251.7","NAN","NAN","NAN","NAN","NAN"],
    [1558129,"2026-06-14 01:10:00","59119","1.6969999999999998","255.9","2.548","256.2","NAN","NAN","NAN","NAN","NAN"],
    [1558130,"2026-06-14 01:20:00","59120","1.874","258.4","2.744","259.3","NAN","NAN","NAN","NAN","NAN"],
    [1558131,"2026-06-14 01:30:00","59121","2.05","260.7","2.907","259.8","NAN","NAN","NAN","NAN","NAN"],
    [1558132,"2026-06-14 01:40:00","59122","2.3080000000000003","263.7","3.397","266.1","NAN","NAN","NAN","NAN","NAN"],
    [1558133,"2026-06-14 01:50:00","59123","2.6319999999999997","268.4","3.528","265.2","NAN","NAN","NAN","NAN","NAN"],
    [1558134,"2026-06-14 02:00:00","59124","2.471","273.9","3.299","273.6","NAN","NAN","NAN","NAN","NAN"],
    [1558135,"2026-06-14 02:10:00","59125","2.406","274.8","3.43","276.2","NAN","NAN","NAN","NAN","NAN"],
    [1558136,"2026-06-14 02:20:00","59126","2.244","272.2","3.267","274.6","NAN","NAN","NAN","NAN","NAN"],
    [1558137,"2026-06-14 02:30:00","59127","2.178","272.9","3.038","273.9","NAN","NAN","NAN","NAN","NAN"],
    [1558138,"2026-06-14 02:40:00","59128","2.524","276.3","3.299","270.3","NAN","NAN","NAN","NAN","NAN"],
    [1558139,"2026-06-14 02:50:00","59129","2.2230000000000003","268.8","3.365","276.2","NAN","NAN","NAN","NAN","NAN"],
    [1558140,"2026-06-14 03:00:00","59130","1.99","269.2","2.679","263.9","NAN","NAN","NAN","NAN","NAN"],
    [1558141,"2026-06-14 03:10:00","59131","2.095","270.6","2.973","270.5","NAN","NAN","NAN","NAN","NAN"],
    [1558142,"2026-06-14 03:20:00","59132","2.244","266.4","3.691","271.2","NAN","NAN","NAN","NAN","NAN"],
    [1558143,"2026-06-14 03:30:00","59133","2.5789999999999997","274.1","3.659","271.7","NAN","NAN","NAN","NAN","NAN"],
    [1558144,"2026-06-14 03:40:00","59134","2.02","284.4","3.43","286.8","NAN","NAN","NAN","NAN","NAN"],
    [1558145,"2026-06-14 03:50:00","59135","2.258","284.5","3.234","278.8","NAN","NAN","NAN","NAN","NAN"],
    [1558146,"2026-06-14 04:00:00","59136","2.58","280.4","3.659","288.4","NAN","NAN","NAN","NAN","NAN"],
    [1558147,"2026-06-14 04:10:00","59137","1.4609999999999999","282.7","3.201","274.6","NAN","NAN","NAN","NAN","NAN"],
    [1558148,"2026-06-14 04:20:00","59138","0.35","289.6","1.535","292.4","NAN","NAN","NAN","NAN","NAN"],
    [1558149,"2026-06-14 04:30:00","59139","0.596","292.7","1.535","292.4","NAN","NAN","NAN","NAN","NAN"],
    [1558150,"2026-06-14 04:40:00","59140","1.37","39.42","3.855","57.72","NAN","NAN","NAN","NAN","NAN"],
    [1558151,"2026-06-14 04:50:00","59141","0.6459999999999999","38.43","1.927","42.99","NAN","NAN","NAN","NAN","NAN"],
    [1558152,"2026-06-14 05:00:00","59142","0.162","36.36","0.523","36.59","NAN","NAN","NAN","NAN","NAN"],
    [1558153,"2026-06-14 05:10:00","59143","0.19899999999999998","23.27","1.405","9.58","NAN","NAN","NAN","NAN","NAN"],
    [1558154,"2026-06-14 05:20:00","59144","0.652","4.625","1.568","5.438","NAN","NAN","NAN","NAN","NAN"],
    [1558155,"2026-06-14 05:30:00","59145","0.601","351.7","1.568","345.3","NAN","NAN","NAN","NAN","NAN"],
    [1558156,"2026-06-14 05:40:00","59146","0.284","343.3","1.045","343.6","NAN","NAN","NAN","NAN","NAN"],
    [1558157,"2026-06-14 05:50:00","59147","1.4769999999999999","317.7","3.038","307.7","NAN","NAN","NAN","NAN","NAN"],
    [1558158,"2026-06-14 06:00:00","59148","2.3","291.7","3.953","283.9","NAN","NAN","NAN","NAN","NAN"],
    [1558159,"2026-06-14 06:10:00","59149","2.205","291.0","4.9","290.4","NAN","NAN","NAN","NAN","NAN"],
    [1558160,"2026-06-14 06:20:00","59150","1.975","297.0","3.234","301.8","NAN","NAN","NAN","NAN","NAN"],
    [1558161,"2026-06-14 06:30:00","59151","1.8430000000000002","289.2","2.809","290.8","NAN","NAN","NAN","NAN","NAN"],
    [1558162,"2026-06-14 06:40:00","59152","1.96","289.3","2.711","287.9","NAN","NAN","NAN","NAN","NAN"],
    [1558163,"2026-06-14 06:50:00","59153","1.9680000000000002","293.5","2.875","292.9","NAN","NAN","NAN","NAN","NAN"],
    [1558164,"2026-06-14 07:00:00","59154","2.0709999999999997","293.0","3.005","289.6","NAN","NAN","NAN","NAN","NAN"],
    [1558165,"2026-06-14 07:10:00","59155","1.588","295.1","2.483","302.8","NAN","NAN","NAN","NAN","NAN"],
    [1558166,"2026-06-14 07:20:00","59156","1.6030000000000002","287.9","2.385","288.6","NAN","NAN","NAN","NAN","NAN"],
    [1558167,"2026-06-14 07:30:00","59157","1.506","273.2","2.613","262.5","NAN","NAN","NAN","NAN","NAN"],
    [1558168,"2026-06-14 07:40:00","59158","1.189","272.8","2.548","263.4","NAN","NAN","NAN","NAN","NAN"],
    [1558169,"2026-06-14 07:50:00","59159","0.665","251.5","1.895","232","NAN","NAN","NAN","NAN","NAN"],
    [1558170,"2026-06-14 08:00:00","59160","0.927","246.8","2.679","253.4","NAN","NAN","NAN","NAN","NAN"],
    [1558171,"2026-06-14 08:10:00","59161","1.673","241.8","2.973","240.1","NAN","NAN","NAN","NAN","NAN"],
    [1558172,"2026-06-14 08:20:00","59162","1.798","220.0","3.626","216.8","NAN","NAN","NAN","NAN","NAN"],
    [1558173,"2026-06-14 08:30:00","59163","2.166","212.4","3.561","218.9","NAN","NAN","NAN","NAN","NAN"],
    [1558174,"2026-06-14 08:40:00","59164","1.8769999999999998","223.2","3.561","220.5","NAN","NAN","NAN","NAN","NAN"],
    [1558175,"2026-06-14 08:50:00","59165","2.2","204.0","3.332","217.2","NAN","NAN","NAN","NAN","NAN"],
    [1558176,"2026-06-14 09:00:00","59166","2.3569999999999998","186.9","3.659","170","NAN","NAN","NAN","NAN","NAN"],
    [1558177,"2026-06-14 09:10:00","59167","2.1719999999999997","182.8","3.332","169.8","NAN","NAN","NAN","NAN","NAN"],
    [1558178,"2026-06-14 09:20:00","59168","2.129","163.5","3.201","155.5","NAN","NAN","NAN","NAN","NAN"],
    [1558179,"2026-06-14 09:30:00","59169","1.973","154.5","3.528","153.1","NAN","NAN","NAN","NAN","NAN"],
    [1558180,"2026-06-14 09:40:00","59170","1.597","150.5","3.365","158.9","NAN","NAN","NAN","NAN","NAN"],
    [1558181,"2026-06-14 09:50:00","59171","1.815","138.7","3.201","129.1","NAN","NAN","NAN","NAN","NAN"],
    [1558182,"2026-06-14 10:00:00","59172","2.051","122.6","3.267","128.3","NAN","NAN","NAN","NAN","NAN"],
    [1558183,"2026-06-14 10:10:00","59173","2.3609999999999998","117.5","3.593","133.1","NAN","NAN","NAN","NAN","NAN"],
    [1558184,"2026-06-14 10:20:00","59174","3.241","119.4","4.247","130.5","NAN","NAN","NAN","NAN","NAN"],
    [1558185,"2026-06-14 10:30:00","59175","2.7569999999999997","106.8","3.887","109.1","NAN","NAN","NAN","NAN","NAN"],
    [1558186,"2026-06-14 10:40:00","59176","2.41","117.4","5.357","103.5","NAN","NAN","NAN","NAN","NAN"],
    [1558187,"2026-06-14 10:50:00","59177","2.439","104.1","3.887","90.8","NAN","NAN","NAN","NAN","NAN"],
    [1558188,"2026-06-14 11:00:00","59178","2.055","114.0","3.299","107.9","NAN","NAN","NAN","NAN","NAN"],
    [1558189,"2026-06-14 11:10:00","59179","2.471","117.4","3.887","130.2","NAN","NAN","NAN","NAN","NAN"],
    [1558190,"2026-06-14 11:20:00","59180","2.5869999999999997","106.8","4.41","80.9","NAN","NAN","NAN","NAN","NAN"],
    [1558191,"2026-06-14 11:30:00","59181","2.946","105.1","4.704","107.5","NAN","NAN","NAN","NAN","NAN"],
    [1558192,"2026-06-14 11:40:00","59182","3.177","104.0","5.161","98.6","NAN","NAN","NAN","NAN","NAN"],
    [1558193,"2026-06-14 11:50:00","59183","2.807","106.8","4.214","108.8","NAN","NAN","NAN","NAN","NAN"],
    [1558194,"2026-06-14 12:00:00","59184","3.241","127.2","4.998","107.7","NAN","NAN","NAN","NAN","NAN"],
    [1558195,"2026-06-14 12:10:00","59185","2.6710000000000003","121.5","4.214","151.5","NAN","NAN","NAN","NAN","NAN"],
    [1558196,"2026-06-14 12:20:00","59186","3.167","137.5","5.488","147.1","NAN","NAN","NAN","NAN","NAN"],
    [1558197,"2026-06-14 12:30:00","59187","2.9160000000000004","137.9","5.39","136.9","NAN","NAN","NAN","NAN","NAN"],
    [1558198,"2026-06-14 12:40:00","59188","2.662","137.5","5.259","104.9","NAN","NAN","NAN","NAN","NAN"],
    [1558199,"2026-06-14 12:50:00","59189","3.53","145.0","5.847","153.9","NAN","NAN","NAN","NAN","NAN"],
    [1558200,"2026-06-14 13:00:00","59190","3.5669999999999997","145.2","6.076","160.8","NAN","NAN","NAN","NAN","NAN"],
    [1558201,"2026-06-14 13:10:00","59191","2.3890000000000002","150.0","5.194","167.2","NAN","NAN","NAN","NAN","NAN"],
    [1558202,"2026-06-14 13:20:00","59192","2.628","134.1","5.749","165.7","NAN","NAN","NAN","NAN","NAN"],
    [1558203,"2026-06-14 13:30:00","59193","2.844","140.7","5.39","130.5","NAN","NAN","NAN","NAN","NAN"],
    [1558204,"2026-06-14 13:40:00","59194","3.0660000000000003","136.0","4.965","141.7","NAN","NAN","NAN","NAN","NAN"],
    [1558205,"2026-06-14 13:50:00","59195","2.597","132.5","4.279","155.5","NAN","NAN","NAN","NAN","NAN"],
    [1558206,"2026-06-14 14:00:00","59196","2.595","132.6","4.737","113.9","NAN","NAN","NAN","NAN","NAN"],
    [1558207,"2026-06-14 14:10:00","59197","2.8689999999999998","110.6","5.031","135","NAN","NAN","NAN","NAN","NAN"],
    [1558208,"2026-06-14 14:20:00","59198","2.824","123.8","4.998","139","NAN","NAN","NAN","NAN","NAN"],
    [1558209,"2026-06-14 14:30:00","59199","2.613","110.5","5.161","102.5","NAN","NAN","NAN","NAN","NAN"],
    [1558210,"2026-06-14 14:40:00","59200","2.513","132.5","4.279","125.7","NAN","NAN","NAN","NAN","NAN"],
    [1558211,"2026-06-14 14:50:00","59201","3.194","145.0","5.684","136","NAN","NAN","NAN","NAN","NAN"],
    [1558212,"2026-06-14 15:00:00","59202","3.097","144.6","5.031","159.5","NAN","NAN","NAN","NAN","NAN"],
    [1558213,"2026-06-14 15:10:00","59203","2.7739999999999996","146.1","5.259","144.2","NAN","NAN","NAN","NAN","NAN"],
    [1558214,"2026-06-14 15:20:00","59204","2.488","137.9","3.985","140.7","NAN","NAN","NAN","NAN","NAN"],
    [1558215,"2026-06-14 15:30:00","59205","2.151","154.4","3.789","148.8","NAN","NAN","NAN","NAN","NAN"],
    [1558216,"2026-06-14 15:40:00","59206","2.086","110.0","3.365","113.3","NAN","NAN","NAN","NAN","NAN"],
    [1558217,"2026-06-14 15:50:00","59207","1.8630000000000002","104.5","4.541","95.5","NAN","NAN","NAN","NAN","NAN"],
    [1558218,"2026-06-14 16:00:00","59208","2.6060000000000003","129.3","4.443","126.8","NAN","NAN","NAN","NAN","NAN"],
    [1558219,"2026-06-14 16:10:00","59209","2.747","133.7","4.214","139.8","NAN","NAN","NAN","NAN","NAN"],
    [1558220,"2026-06-14 16:20:00","59210","2.373","145.7","4.377","141.6","NAN","NAN","NAN","NAN","NAN"],
    [1558221,"2026-06-14 16:30:00","59211","2.1069999999999998","156.3","3.397","145.2","NAN","NAN","NAN","NAN","NAN"],
    [1558222,"2026-06-14 16:40:00","59212","1.83","151.7","3.365","146","NAN","NAN","NAN","NAN","NAN"],
    [1558223,"2026-06-14 16:50:00","59213","2.2119999999999997","135.9","3.397","168.4","NAN","NAN","NAN","NAN","NAN"],
    [1558224,"2026-06-14 17:00:00","59214","2.419","160.5","3.953","149.1","NAN","NAN","NAN","NAN","NAN"],
    [1558225,"2026-06-14 17:10:00","59215","2.1519999999999997","166.5","3.103","162.1","NAN","NAN","NAN","NAN","NAN"],
    [1558226,"2026-06-14 17:20:00","59216","2.004","163.0","3.985","145.6","NAN","NAN","NAN","NAN","NAN"],
    [1558227,"2026-06-14 17:30:00","59217","2.443","157.1","4.312","148.4","NAN","NAN","NAN","NAN","NAN"],
    [1558228,"2026-06-14 17:40:00","59218","1.358","203.8","2.875","242.8","NAN","NAN","NAN","NAN","NAN"],
    [1558229,"2026-06-14 17:50:00","59219","0.8959999999999999","216.8","2.058","217.9","NAN","NAN","NAN","NAN","NAN"],
    [1558230,"2026-06-14 18:00:00","59220","1.335","195.1","2.907","205.6","NAN","NAN","NAN","NAN","NAN"],
    [1558231,"2026-06-14 18:10:00","59221","0.7959999999999999","204.6","1.731","187","NAN","NAN","NAN","NAN","NAN"],
    [1558232,"2026-06-14 18:20:00","59222","1.092","228.5","2.319","226.6","NAN","NAN","NAN","NAN","NAN"],
    [1558233,"2026-06-14 18:30:00","59223","0.08900000000000001","231.9","1.045","231.2","NAN","NAN","NAN","NAN","NAN"],
    [1558234,"2026-06-14 18:40:00","59224","0.13","235.2","0.817","235.3","NAN","NAN","NAN","NAN","NAN"],
    [1558235,"2026-06-14 18:50:00","59225","0.0","235.1","0.033","235.3","NAN","NAN","NAN","NAN","NAN"],
    [1558236,"2026-06-14 19:00:00","59226","0.011000000000000001","235.4","0.359","235.4","NAN","NAN","NAN","NAN","NAN"],
    [1558237,"2026-06-14 19:10:00","59227","0.142","229.8","0.882","235.5","NAN","NAN","NAN","NAN","NAN"],
    [1558238,"2026-06-14 19:20:00","59228","0.042","213.1","0.523","212.9","NAN","NAN","NAN","NAN","NAN"],
    [1558239,"2026-06-14 19:30:00","59229","0.7020000000000001","225.8","1.601","231.2","NAN","NAN","NAN","NAN","NAN"],
    [1558240,"2026-06-14 19:40:00","59230","0.6970000000000001","234.1","1.241","233.4","NAN","NAN","NAN","NAN","NAN"],
    [1558241,"2026-06-14 19:50:00","59231","0.368","234.3","0.882","234.5","NAN","NAN","NAN","NAN","NAN"],
    [1558242,"2026-06-14 20:00:00","59232","0.414","216.5","0.947","220.5","NAN","NAN","NAN","NAN","NAN"],
    [1558243,"2026-06-14 20:10:00","59233","0.976","215.0","1.895","219.3","NAN","NAN","NAN","NAN","NAN"],
    [1558244,"2026-06-14 20:20:00","59234","1.41","225.6","2.417","212.6","NAN","NAN","NAN","NAN","NAN"],
    [1558245,"2026-06-14 20:30:00","59235","1.415","213.0","2.385","212.5","NAN","NAN","NAN","NAN","NAN"],
    [1558246,"2026-06-14 20:40:00","59236","1.3730000000000002","234.4","2.221","236.2","NAN","NAN","NAN","NAN","NAN"],
    [1558247,"2026-06-14 20:50:00","59237","1.258","238.2","1.895","238.8","NAN","NAN","NAN","NAN","NAN"],
    [1558248,"2026-06-14 21:00:00","59238","0.961","239.2","1.829","239.1","NAN","NAN","NAN","NAN","NAN"],
    [1558249,"2026-06-14 21:10:00","59239","1.163","239.9","1.731","239.4","NAN","NAN","NAN","NAN","NAN"],
    [1558250,"2026-06-14 21:20:00","59240","1.102","241.0","2.254","241","NAN","NAN","NAN","NAN","NAN"],
    [1558251,"2026-06-14 21:30:00","59241","1.6569999999999998","253.7","3.169","271.6","NAN","NAN","NAN","NAN","NAN"],
    [1558252,"2026-06-14 21:40:00","59242","2.2","267.6","3.169","266.7","NAN","NAN","NAN","NAN","NAN"],
    [1558253,"2026-06-14 21:50:00","59243","1.936","269.8","3.136","273.8","NAN","NAN","NAN","NAN","NAN"],
    [1558254,"2026-06-14 22:00:00","59244","1.518","274.4","2.45","274.4","NAN","NAN","NAN","NAN","NAN"],
    [1558255,"2026-06-14 22:10:00","59245","1.6780000000000002","266.0","2.646","266.9","NAN","NAN","NAN","NAN","NAN"],
    [1558256,"2026-06-14 22:20:00","59246","1.7169999999999999","265.9","2.613","267","NAN","NAN","NAN","NAN","NAN"],
    [1558257,"2026-06-14 22:30:00","59247","1.452","264.4","2.319","260","NAN","NAN","NAN","NAN","NAN"],
    [1558258,"2026-06-14 22:40:00","59248","1.555","265.1","2.45","259.7","NAN","NAN","NAN","NAN","NAN"],
    [1558259,"2026-06-14 22:50:00","59249","1.338","271.2","2.025","270.4","NAN","NAN","NAN","NAN","NAN"],
    [1558260,"2026-06-14 23:00:00","59250","1.535","274.6","2.254","275.5","NAN","NAN","NAN","NAN","NAN"],
    [1558261,"2026-06-14 23:10:00","59251","1.119","265.9","1.927","271","NAN","NAN","NAN","NAN","NAN"],
    [1558262,"2026-06-14 23:20:00","59252","1.2209999999999999","261.4","1.731","261.2","NAN","NAN","NAN","NAN","NAN"],
    [1558263,"2026-06-14 23:30:00","59253","1.1340000000000001","259.1","1.862","259.3","NAN","NAN","NAN","NAN","NAN"],
    [1558264,"2026-06-14 23:40:00","59254","1.766","251.5","2.744","252.4","NAN","NAN","NAN","NAN","NAN"],
    [1558265,"2026-06-14 23:50:00","59255","1.3359999999999999","254.7","2.515","245.7","NAN","NAN","NAN","NAN","NAN"],
    [1558266,"2026-06-15 00:00:00","59256","1.1740000000000002","259.9","1.829","257.6","NAN","NAN","NAN","NAN","NAN"],
    [1558267,"2026-06-15 00:10:00","59257","1.069","264.0","1.699","264","NAN","NAN","NAN","NAN","NAN"],
    [1558268,"2026-06-15 00:20:00","59258","1.2690000000000001","267.7","1.927","267.3","NAN","NAN","NAN","NAN","NAN"],
    [1558269,"2026-06-15 00:30:00","59259","1.008","267.4","1.862","267.7","NAN","NAN","NAN","NAN","NAN"],
    [1558270,"2026-06-15 00:40:00","59260","0.972","267.7","1.699","264.4","NAN","NAN","NAN","NAN","NAN"],
    [1558271,"2026-06-15 00:50:00","59261","0.993","267.6","1.96","268.8","NAN","NAN","NAN","NAN","NAN"],
    [1558272,"2026-06-15 01:00:00","59262","1.148","269.9","2.189","269.9","NAN","NAN","NAN","NAN","NAN"],
    [1558273,"2026-06-15 01:10:00","59263","1.34","271.9","1.862","271.9","NAN","NAN","NAN","NAN","NAN"],
    [1558274,"2026-06-15 01:20:00","59264","1.49","269.9","2.058","270.9","NAN","NAN","NAN","NAN","NAN"],
    [1558275,"2026-06-15 01:30:00","59265","1.046","271.8","2.058","271.3","NAN","NAN","NAN","NAN","NAN"],
    [1558276,"2026-06-15 01:40:00","59266","1.916","262.4","3.365","265.7","NAN","NAN","NAN","NAN","NAN"],
    [1558277,"2026-06-15 01:50:00","59267","1.619","265.6","2.581","261.5","NAN","NAN","NAN","NAN","NAN"],
    [1558278,"2026-06-15 02:00:00","59268","1.58","252.8","2.483","252.9","NAN","NAN","NAN","NAN","NAN"],
    [1558279,"2026-06-15 02:10:00","59269","2.177","249.8","3.365","250.7","NAN","NAN","NAN","NAN","NAN"],
    [1558280,"2026-06-15 02:20:00","59270","2.8369999999999997","261.8","4.573","263.8","NAN","NAN","NAN","NAN","NAN"],
    [1558281,"2026-06-15 02:30:00","59271","2.918","275.3","4.704","285.5","NAN","NAN","NAN","NAN","NAN"],
    [1558282,"2026-06-15 02:40:00","59272","2.614","271.8","4.41","275.5","NAN","NAN","NAN","NAN","NAN"],
    [1558283,"2026-06-15 02:50:00","59273","2.6689999999999996","273.9","3.92","273.9","NAN","NAN","NAN","NAN","NAN"],
    [1558284,"2026-06-15 03:00:00","59274","3.122","261.4","5.423","259.2","NAN","NAN","NAN","NAN","NAN"],
    [1558285,"2026-06-15 03:10:00","59275","3.406","252.1","4.639","245.1","NAN","NAN","NAN","NAN","NAN"],
    [1558286,"2026-06-15 03:20:00","59276","3.4160000000000004","261.6","5.161","247.2","NAN","NAN","NAN","NAN","NAN"],
    [1558287,"2026-06-15 03:30:00","59277","2.929","261.1","4.573","258.5","NAN","NAN","NAN","NAN","NAN"],
    [1558288,"2026-06-15 03:40:00","59278","2.9330000000000003","265.6","4.9","274.8","NAN","NAN","NAN","NAN","NAN"],
    [1558289,"2026-06-15 03:50:00","59279","2.85","270.3","4.508","274.7","NAN","NAN","NAN","NAN","NAN"],
    [1558290,"2026-06-15 04:00:00","59280","3.1319999999999997","276.8","5.651","266.3","NAN","NAN","NAN","NAN","NAN"],
    [1558291,"2026-06-15 04:10:00","59281","2.242","287.0","3.985","294.7","NAN","NAN","NAN","NAN","NAN"],
    [1558292,"2026-06-15 04:20:00","59282","1.48","286.9","2.973","284.8","NAN","NAN","NAN","NAN","NAN"],
    [1558293,"2026-06-15 04:30:00","59283","1.24","286.4","2.189","282","NAN","NAN","NAN","NAN","NAN"],
    [1558294,"2026-06-15 04:40:00","59284","1.22","302.5","2.515","306.3","NAN","NAN","NAN","NAN","NAN"],
    [1558295,"2026-06-15 04:50:00","59285","1.32","296.0","2.189","307.4","NAN","NAN","NAN","NAN","NAN"],
    [1558296,"2026-06-15 05:00:00","59286","1.1420000000000001","282.0","2.025","281.4","NAN","NAN","NAN","NAN","NAN"],
    [1558297,"2026-06-15 05:10:00","59287","1.5019999999999998","291.0","2.613","295.8","NAN","NAN","NAN","NAN","NAN"],
    [1558298,"2026-06-15 05:20:00","59288","1.016","289.1","2.842","295","NAN","NAN","NAN","NAN","NAN"],
    [1558299,"2026-06-15 05:30:00","59289","2.24","291.6","3.789","294.6","NAN","NAN","NAN","NAN","NAN"],
    [1558300,"2026-06-15 05:40:00","59290","1.47","295.9","2.973","284","NAN","NAN","NAN","NAN","NAN"],
    [1558301,"2026-06-15 05:50:00","59291","1.453","305.6","2.646","301","NAN","NAN","NAN","NAN","NAN"],
    [1558302,"2026-06-15 06:00:00","59292","0.252","310.7","1.372","315","NAN","NAN","NAN","NAN","NAN"],
    [1558303,"2026-06-15 06:10:00","59293","0.313","0.006999999999999999","1.209","22.81","NAN","NAN","NAN","NAN","NAN"],
    [1558304,"2026-06-15 06:20:00","59294","0.895","50.89","1.96","51.09","NAN","NAN","NAN","NAN","NAN"],
    [1558305,"2026-06-15 06:30:00","59295","0.904","47.8","2.319","43.46","NAN","NAN","NAN","NAN","NAN"],
    [1558306,"2026-06-15 06:40:00","59296","1.103","51.98","2.319","51.64","NAN","NAN","NAN","NAN","NAN"],
    [1558307,"2026-06-15 06:50:00","59297","1.838","50.87","3.659","30.27","NAN","NAN","NAN","NAN","NAN"],
    [1558308,"2026-06-15 07:00:00","59298","1.608","68.37","3.038","81.8","NAN","NAN","NAN","NAN","NAN"],
    [1558309,"2026-06-15 07:10:00","59299","2.267","73.0","5.259","92.8","NAN","NAN","NAN","NAN","NAN"],
    [1558310,"2026-06-15 07:20:00","59300","4.091","75.21","7.285","79.16","NAN","NAN","NAN","NAN","NAN"],
    [1558311,"2026-06-15 07:30:00","59301","3.175","73.79","6.141","90.4","NAN","NAN","NAN","NAN","NAN"],
    [1558312,"2026-06-15 07:40:00","59302","3.3710000000000004","71.34","6.697","82.8","NAN","NAN","NAN","NAN","NAN"],
    [1558313,"2026-06-15 07:50:00","59303","3.113","85.7","5.357","85.2","NAN","NAN","NAN","NAN","NAN"],
    [1558314,"2026-06-15 08:00:00","59304","2.887","83.1","4.41","71.5","NAN","NAN","NAN","NAN","NAN"],
    [1558315,"2026-06-15 08:10:00","59305","3.306","84.7","6.076","90.9","NAN","NAN","NAN","NAN","NAN"],
    [1558316,"2026-06-15 08:20:00","59306","3.755","80.6","5.913","84.2","NAN","NAN","NAN","NAN","NAN"],
    [1558317,"2026-06-15 08:30:00","59307","3.843","85.8","6.762","102.2","NAN","NAN","NAN","NAN","NAN"],
    [1558318,"2026-06-15 08:40:00","59308","3.641","84.7","6.239","92.1","NAN","NAN","NAN","NAN","NAN"],
    [1558319,"2026-06-15 08:50:00","59309","3.8810000000000002","98.3","6.991","80.5","NAN","NAN","NAN","NAN","NAN"],
    [1558320,"2026-06-15 09:00:00","59310","3.562","101.6","6.697","92.4","NAN","NAN","NAN","NAN","NAN"],
    [1558321,"2026-06-15 09:10:00","59311","3.615","118.3","5.978","112.8","NAN","NAN","NAN","NAN","NAN"],
    [1558322,"2026-06-15 09:20:00","59312","3.628","115.5","5.586","121.4","NAN","NAN","NAN","NAN","NAN"],
    [1558323,"2026-06-15 09:30:00","59313","3.992","121.6","6.664","131.8","NAN","NAN","NAN","NAN","NAN"],
    [1558324,"2026-06-15 09:40:00","59314","4.348","120.6","6.991","125.1","NAN","NAN","NAN","NAN","NAN"],
    [1558325,"2026-06-15 09:50:00","59315","3.306","118.5","5.325","125.6","NAN","NAN","NAN","NAN","NAN"],
    [1558326,"2026-06-15 10:00:00","59316","3.487","127.5","5.586","121.3","NAN","NAN","NAN","NAN","NAN"],
    [1558327,"2026-06-15 10:10:00","59317","3.937","136.0","6.174","137","NAN","NAN","NAN","NAN","NAN"],
    [1558328,"2026-06-15 10:20:00","59318","3.373","144.3","5.619","161.4","NAN","NAN","NAN","NAN","NAN"],
    [1558329,"2026-06-15 10:30:00","59319","3.6289999999999996","142.5","6.305","136","NAN","NAN","NAN","NAN","NAN"],
    [1558330,"2026-06-15 10:40:00","59320","3.43","139.7","5.423","115.4","NAN","NAN","NAN","NAN","NAN"],
    [1558331,"2026-06-15 10:50:00","59321","3.57","139.0","6.011","146.9","NAN","NAN","NAN","NAN","NAN"],
    [1558332,"2026-06-15 11:00:00","59322","3.6660000000000004","148.2","5.88","131.6","NAN","NAN","NAN","NAN","NAN"],
    [1558333,"2026-06-15 11:10:00","59323","3.798","147.9","5.945","169.7","NAN","NAN","NAN","NAN","NAN"],
    [1558334,"2026-06-15 11:20:00","59324","3.9019999999999997","149.6","7.481","137.9","NAN","NAN","NAN","NAN","NAN"],
    [1558335,"2026-06-15 11:30:00","59325","4.734","157.8","7.35","167.5","NAN","NAN","NAN","NAN","NAN"],
    [1558336,"2026-06-15 11:40:00","59326","3.324","150.4","5.651","166.1","NAN","NAN","NAN","NAN","NAN"],
    [1558337,"2026-06-15 11:50:00","59327","3.592","163.8","4.998","172","NAN","NAN","NAN","NAN","NAN"],
    [1558338,"2026-06-15 12:00:00","59328","3.0","160.5","4.769","176.5","NAN","NAN","NAN","NAN","NAN"],
    [1558339,"2026-06-15 12:10:00","59329","3.654","160.0","5.357","130.8","NAN","NAN","NAN","NAN","NAN"],
    [1558340,"2026-06-15 12:20:00","59330","3.819","152.1","5.227","151.3","NAN","NAN","NAN","NAN","NAN"],
    [1558341,"2026-06-15 12:30:00","59331","4.124","147.5","5.978","128.8","NAN","NAN","NAN","NAN","NAN"],
    [1558342,"2026-06-15 12:40:00","59332","3.895","151.2","6.435","174.6","NAN","NAN","NAN","NAN","NAN"],
    [1558343,"2026-06-15 12:50:00","59333","3.628","160.2","5.651","175.5","NAN","NAN","NAN","NAN","NAN"],
    [1558344,"2026-06-15 13:00:00","59334","3.002","151.1","5.325","162","NAN","NAN","NAN","NAN","NAN"],
    [1558345,"2026-06-15 13:10:00","59335","2.8939999999999997","152.8","5.488","145.3","NAN","NAN","NAN","NAN","NAN"],
    [1558346,"2026-06-15 13:20:00","59336","3.267","163.4","6.435","167.4","NAN","NAN","NAN","NAN","NAN"],
    [1558347,"2026-06-15 13:30:00","59337","3.239","174.6","6.697","166.2","NAN","NAN","NAN","NAN","NAN"],
    [1558348,"2026-06-15 13:40:00","59338","3.056","177.3","5.717","171.3","NAN","NAN","NAN","NAN","NAN"],
    [1558349,"2026-06-15 13:50:00","59339","2.867","158.5","4.998","125.1","NAN","NAN","NAN","NAN","NAN"],
    [1558350,"2026-06-15 14:00:00","59340","3.1289999999999996","140.3","5.586","131.8","NAN","NAN","NAN","NAN","NAN"],
    [1558351,"2026-06-15 14:10:00","59341","2.1790000000000003","162.1","4.802","159.5","NAN","NAN","NAN","NAN","NAN"],
    [1558352,"2026-06-15 14:20:00","59342","2.1109999999999998","158.0","5.129","137.7","NAN","NAN","NAN","NAN","NAN"],
    [1558353,"2026-06-15 14:30:00","59343","2.302","139.1","4.149","128.8","NAN","NAN","NAN","NAN","NAN"],
    [1558354,"2026-06-15 14:40:00","59344","2.181","135.4","4.508","140.8","NAN","NAN","NAN","NAN","NAN"],
    [1558355,"2026-06-15 14:50:00","59345","2.489","165.6","4.737","162.5","NAN","NAN","NAN","NAN","NAN"],
    [1558356,"2026-06-15 15:00:00","59346","3.14","159.4","5.194","135.9","NAN","NAN","NAN","NAN","NAN"],
    [1558357,"2026-06-15 15:10:00","59347","3.1830000000000003","157.8","4.933","139.5","NAN","NAN","NAN","NAN","NAN"],
    [1558358,"2026-06-15 15:20:00","59348","1.472","172.9","3.691","159.9","NAN","NAN","NAN","NAN","NAN"],
    [1558359,"2026-06-15 15:30:00","59349","1.742","134.1","3.92","147.1","NAN","NAN","NAN","NAN","NAN"],
    [1558360,"2026-06-15 15:40:00","59350","2.137","150.7","3.528","167","NAN","NAN","NAN","NAN","NAN"],
    [1558361,"2026-06-15 15:50:00","59351","2.095","172.9","3.789","162.2","NAN","NAN","NAN","NAN","NAN"],
    [1558362,"2026-06-15 16:00:00","59352","1.912","189.5","3.528","170","NAN","NAN","NAN","NAN","NAN"],
    [1558363,"2026-06-15 16:10:00","59353","1.103","196.4","2.417","194.8","NAN","NAN","NAN","NAN","NAN"],
    [1558364,"2026-06-15 16:20:00","59354","1.486","176.3","3.071","175.9","NAN","NAN","NAN","NAN","NAN"],
    [1558365,"2026-06-15 16:30:00","59355","0.499","222.3","1.764","195","NAN","NAN","NAN","NAN","NAN"],
    [1558366,"2026-06-15 16:40:00","59356","0.711","211.1","2.058","210.9","NAN","NAN","NAN","NAN","NAN"],
    [1558367,"2026-06-15 16:50:00","59357","1.115","229.4","2.417","234.1","NAN","NAN","NAN","NAN","NAN"],
    [1558368,"2026-06-15 17:00:00","59358","1.246","188.2","2.483","194.8","NAN","NAN","NAN","NAN","NAN"],
    [1558369,"2026-06-15 17:10:00","59359","0.866","190.8","2.254","185.8","NAN","NAN","NAN","NAN","NAN"],
    [1558370,"2026-06-15 17:20:00","59360","0.763","204.6","2.613","200.8","NAN","NAN","NAN","NAN","NAN"],
    [1558371,"2026-06-15 17:30:00","59361","1.062","207.7","2.483","213.9","NAN","NAN","NAN","NAN","NAN"],
    [1558372,"2026-06-15 17:40:00","59362","1.949","229.4","3.789","205.6","NAN","NAN","NAN","NAN","NAN"],
    [1558373,"2026-06-15 17:50:00","59363","1.41","210.8","2.385","224.1","NAN","NAN","NAN","NAN","NAN"],
    [1558374,"2026-06-15 18:00:00","59364","1.008","215.9","2.091","222.7","NAN","NAN","NAN","NAN","NAN"],
    [1558375,"2026-06-15 18:10:00","59365","0.909","200.7","1.764","200.1","NAN","NAN","NAN","NAN","NAN"],
    [1558376,"2026-06-15 18:20:00","59366","1.234","211.2","2.45","208","NAN","NAN","NAN","NAN","NAN"],
    [1558377,"2026-06-15 18:30:00","59367","1.396","211.4","2.581","219.7","NAN","NAN","NAN","NAN","NAN"],
    [1558378,"2026-06-15 18:40:00","59368","1.761","213.6","2.907","209.2","NAN","NAN","NAN","NAN","NAN"],
    [1558379,"2026-06-15 18:50:00","59369","2.056","209.9","2.907","208.7","NAN","NAN","NAN","NAN","NAN"],
    [1558380,"2026-06-15 19:00:00","59370","1.702","223.4","2.973","227.2","NAN","NAN","NAN","NAN","NAN"],
    [1558381,"2026-06-15 19:10:00","59371","1.5490000000000002","230.3","2.679","236.2","NAN","NAN","NAN","NAN","NAN"],
    [1558382,"2026-06-15 19:20:00","59372","1.506","235.0","3.528","242.8","NAN","NAN","NAN","NAN","NAN"],
    [1558383,"2026-06-15 19:30:00","59373","2.137","242.3","3.626","246.6","NAN","NAN","NAN","NAN","NAN"],
    [1558384,"2026-06-15 19:40:00","59374","1.704","241.1","2.613","225.7","NAN","NAN","NAN","NAN","NAN"],
    [1558385,"2026-06-15 19:50:00","59375","1.8840000000000001","247.3","3.103","244.1","NAN","NAN","NAN","NAN","NAN"],
    [1558386,"2026-06-15 20:00:00","59376","1.365","239.4","2.319","247.9","NAN","NAN","NAN","NAN","NAN"],
    [1558387,"2026-06-15 20:10:00","59377","1.39","236.0","3.071","234.9","NAN","NAN","NAN","NAN","NAN"],
    [1558388,"2026-06-15 20:20:00","59378","2.2430000000000003","252.6","4.018","249.2","NAN","NAN","NAN","NAN","NAN"],
    [1558389,"2026-06-15 20:30:00","59379","2.67","255.7","3.789","258.4","NAN","NAN","NAN","NAN","NAN"],
    [1558390,"2026-06-15 20:40:00","59380","1.777","258.9","3.267","261","NAN","NAN","NAN","NAN","NAN"],
    [1558391,"2026-06-15 20:50:00","59381","1.53","257.7","2.319","257.4","NAN","NAN","NAN","NAN","NAN"],
    [1558392,"2026-06-15 21:00:00","59382","1.199","255.7","1.731","257.1","NAN","NAN","NAN","NAN","NAN"],
    [1558393,"2026-06-15 21:10:00","59383","0.98","259.3","1.372","261.3","NAN","NAN","NAN","NAN","NAN"],
    [1558394,"2026-06-15 21:20:00","59384","0.6940000000000001","263.0","1.143","262.2","NAN","NAN","NAN","NAN","NAN"],
    [1558395,"2026-06-15 21:30:00","59385","0.846","266.0","2.058","266.8","NAN","NAN","NAN","NAN","NAN"],
    [1558396,"2026-06-15 21:40:00","59386","1.3330000000000002","267.4","2.058","267.2","NAN","NAN","NAN","NAN","NAN"],
    [1558397,"2026-06-15 21:50:00","59387","0.256","267.7","1.078","267.7","NAN","NAN","NAN","NAN","NAN"],
    [1558398,"2026-06-15 22:00:00","59388","0.174","267.8","0.98","267.7","NAN","NAN","NAN","NAN","NAN"],
    [1558399,"2026-06-15 22:10:00","59389","0.26","267.7","0.784","267.7","NAN","NAN","NAN","NAN","NAN"],
    [1558400,"2026-06-15 22:20:00","59390","1.101","267.7","1.829","267.8","NAN","NAN","NAN","NAN","NAN"],
    [1558401,"2026-06-15 22:30:00","59391","1.123","267.8","1.862","267.8","NAN","NAN","NAN","NAN","NAN"],
    [1558402,"2026-06-15 22:40:00","59392","1.455","268.0","2.156","268","NAN","NAN","NAN","NAN","NAN"],
    [1558403,"2026-06-15 22:50:00","59393","1.742","267.8","2.875","270.4","NAN","NAN","NAN","NAN","NAN"],
    [1558404,"2026-06-15 23:00:00","59394","1.9040000000000001","270.7","2.94","270.1","NAN","NAN","NAN","NAN","NAN"],
    [1558405,"2026-06-15 23:10:00","59395","1.8619999999999999","277.0","3.103","278.2","NAN","NAN","NAN","NAN","NAN"],
    [1558406,"2026-06-15 23:20:00","59396","2.083","280.1","3.365","275.1","NAN","NAN","NAN","NAN","NAN"],
    [1558407,"2026-06-15 23:30:00","59397","2.596","282.2","3.822","288.1","NAN","NAN","NAN","NAN","NAN"],
    [1558408,"2026-06-15 23:40:00","59398","2.49","280.2","3.463","282.7","NAN","NAN","NAN","NAN","NAN"],
    [1558409,"2026-06-15 23:50:00","59399","2.153","279.0","3.397","286.5","NAN","NAN","NAN","NAN","NAN"],
    [1558410,"2026-06-16 00:00:00","59400","2.2","279.3","4.475","279.4","NAN","NAN","NAN","NAN","NAN"],
    [1558411,"2026-06-16 00:10:00","59401","3.304","281.5","4.802","283.8","NAN","NAN","NAN","NAN","NAN"],
    [1558412,"2026-06-16 00:20:00","59402","2.4659999999999997","289.0","4.41","285.9","NAN","NAN","NAN","NAN","NAN"],
    [1558413,"2026-06-16 00:30:00","59403","2.761","301.1","4.443","299.5","NAN","NAN","NAN","NAN","NAN"],
    [1558414,"2026-06-16 00:40:00","59404","3.014","293.7","4.737","300.7","NAN","NAN","NAN","NAN","NAN"],
    [1558415,"2026-06-16 00:50:00","59405","2.8280000000000003","282.8","4.051","283.7","NAN","NAN","NAN","NAN","NAN"],
    [1558416,"2026-06-16 01:00:00","59406","2.46","282.0","3.463","276","NAN","NAN","NAN","NAN","NAN"],
    [1558417,"2026-06-16 01:10:00","59407","1.6","279.0","2.646","285","NAN","NAN","NAN","NAN","NAN"],
    [1558418,"2026-06-16 01:20:00","59408","0.8759999999999999","280.0","1.666","281.2","NAN","NAN","NAN","NAN","NAN"],
    [1558419,"2026-06-16 01:30:00","59409","0.752","278.7","1.764","274.3","NAN","NAN","NAN","NAN","NAN"],
    [1558420,"2026-06-16 01:40:00","59410","1.849","273.5","2.613","271.3","NAN","NAN","NAN","NAN","NAN"],
    [1558421,"2026-06-16 01:50:00","59411","1.9380000000000002","273.1","2.777","274.9","NAN","NAN","NAN","NAN","NAN"],
    [1558422,"2026-06-16 02:00:00","59412","1.736","272.1","2.711","266.3","NAN","NAN","NAN","NAN","NAN"],
    [1558423,"2026-06-16 02:10:00","59413","1.901","271.3","3.495","270.2","NAN","NAN","NAN","NAN","NAN"],
    [1558424,"2026-06-16 02:20:00","59414","1.431","274.1","2.156","274.5","NAN","NAN","NAN","NAN","NAN"],
    [1558425,"2026-06-16 02:30:00","59415","1.618","272.4","2.319","265.2","NAN","NAN","NAN","NAN","NAN"],
    [1558426,"2026-06-16 02:40:00","59416","1.392","276.3","2.319","279.3","NAN","NAN","NAN","NAN","NAN"],
    [1558427,"2026-06-16 02:50:00","59417","1.672","276.7","2.646","281.7","NAN","NAN","NAN","NAN","NAN"],
    [1558428,"2026-06-16 03:00:00","59418","1.683","275.1","2.45","270.7","NAN","NAN","NAN","NAN","NAN"],
    [1558429,"2026-06-16 03:10:00","59419","0.922","280.2","1.764","280.8","NAN","NAN","NAN","NAN","NAN"],
    [1558430,"2026-06-16 03:20:00","59420","1.57","269.4","2.581","273.6","NAN","NAN","NAN","NAN","NAN"],
    [1558431,"2026-06-16 03:30:00","59421","1.4040000000000001","281.4","2.581","278.1","NAN","NAN","NAN","NAN","NAN"],
    [1558432,"2026-06-16 03:40:00","59422","0.7959999999999999","281.1","1.503","273.3","NAN","NAN","NAN","NAN","NAN"],
    [1558433,"2026-06-16 03:50:00","59423","1.1909999999999998","278.7","1.993","285.1","NAN","NAN","NAN","NAN","NAN"],
    [1558434,"2026-06-16 04:00:00","59424","0.846","287.0","1.731","287","NAN","NAN","NAN","NAN","NAN"],
    [1558435,"2026-06-16 04:10:00","59425","0.748","285.5","1.535","283.7","NAN","NAN","NAN","NAN","NAN"],
    [1558436,"2026-06-16 04:20:00","59426","0.82","283.3","1.829","277","NAN","NAN","NAN","NAN","NAN"],
    [1558437,"2026-06-16 04:30:00","59427","1.4869999999999999","271.1","2.319","268.3","NAN","NAN","NAN","NAN","NAN"],
    [1558438,"2026-06-16 04:40:00","59428","1.993","266.9","3.397","267.2","NAN","NAN","NAN","NAN","NAN"],
    [1558439,"2026-06-16 04:50:00","59429","2.3569999999999998","278.5","3.953","286.2","NAN","NAN","NAN","NAN","NAN"],
    [1558440,"2026-06-16 05:00:00","59430","2.245","282.6","4.018","288.1","NAN","NAN","NAN","NAN","NAN"],
    [1558441,"2026-06-16 05:10:00","59431","1.704","292.5","2.711","303.8","NAN","NAN","NAN","NAN","NAN"],
    [1558442,"2026-06-16 05:20:00","59432","1.91","296.3","2.973","290.4","NAN","NAN","NAN","NAN","NAN"],
    [1558443,"2026-06-16 05:30:00","59433","1.6280000000000001","296.8","3.267","307.7","NAN","NAN","NAN","NAN","NAN"],
    [1558444,"2026-06-16 05:40:00","59434","1.495","287.8","3.495","280.6","NAN","NAN","NAN","NAN","NAN"],
    [1558445,"2026-06-16 05:50:00","59435","1.4969999999999999","293.2","3.038","289.6","NAN","NAN","NAN","NAN","NAN"],
    [1558446,"2026-06-16 06:00:00","59436","1.435","295.9","2.679","301","NAN","NAN","NAN","NAN","NAN"],
    [1558447,"2026-06-16 06:10:00","59437","1.922","286.0","3.169","275.7","NAN","NAN","NAN","NAN","NAN"],
    [1558448,"2026-06-16 06:20:00","59438","2.099","288.0","3.136","297.3","NAN","NAN","NAN","NAN","NAN"],
    [1558449,"2026-06-16 06:30:00","59439","1.609","295.4","2.483","295.9","NAN","NAN","NAN","NAN","NAN"],
    [1558450,"2026-06-16 06:40:00","59440","1.337","289.7","2.058","287.2","NAN","NAN","NAN","NAN","NAN"],
    [1558451,"2026-06-16 06:50:00","59441","1.2429999999999999","300.0","1.96","299.4","NAN","NAN","NAN","NAN","NAN"],
    [1558452,"2026-06-16 07:00:00","59442","1.5430000000000001","277.0","2.646","261.6","NAN","NAN","NAN","NAN","NAN"],
    [1558453,"2026-06-16 07:10:00","59443","1.765","274.5","2.646","269.4","NAN","NAN","NAN","NAN","NAN"],
    [1558454,"2026-06-16 07:20:00","59444","1.003","284.0","1.993","278.7","NAN","NAN","NAN","NAN","NAN"],
    [1558455,"2026-06-16 07:30:00","59445","0.935","275.4","1.927","269","NAN","NAN","NAN","NAN","NAN"],
    [1558456,"2026-06-16 07:40:00","59446","0.04","275.2","0.359","283.9","NAN","NAN","NAN","NAN","NAN"],
    [1558457,"2026-06-16 07:50:00","59447","0.09699999999999999","263.2","0.817","262.9","NAN","NAN","NAN","NAN","NAN"],
    [1558458,"2026-06-16 08:00:00","59448","0.39299999999999996","253.0","2.123","129.5","NAN","NAN","NAN","NAN","NAN"],
    [1558459,"2026-06-16 08:10:00","59449","1.5930000000000002","108.2","2.809","100.5","NAN","NAN","NAN","NAN","NAN"],
    [1558460,"2026-06-16 08:20:00","59450","1.76","97.9","3.299","90.3","NAN","NAN","NAN","NAN","NAN"],
    [1558461,"2026-06-16 08:30:00","59451","1.247","93.0","2.483","96.3","NAN","NAN","NAN","NAN","NAN"],
    [1558462,"2026-06-16 08:40:00","59452","1.5590000000000002","102.2","2.94","122.3","NAN","NAN","NAN","NAN","NAN"],
    [1558463,"2026-06-16 08:50:00","59453","2.342","95.1","3.789","93.9","NAN","NAN","NAN","NAN","NAN"],
    [1558464,"2026-06-16 09:00:00","59454","2.218","102.9","3.397","104.4","NAN","NAN","NAN","NAN","NAN"],
    [1558465,"2026-06-16 09:10:00","59455","2.004","96.7","3.528","79.58","NAN","NAN","NAN","NAN","NAN"],
    [1558466,"2026-06-16 09:20:00","59456","2.14","91.7","3.659","104.6","NAN","NAN","NAN","NAN","NAN"],
    [1558467,"2026-06-16 09:30:00","59457","1.778","96.7","3.495","100.2","NAN","NAN","NAN","NAN","NAN"],
    [1558468,"2026-06-16 09:40:00","59458","2.319","114.8","3.757","109.5","NAN","NAN","NAN","NAN","NAN"],
    [1558469,"2026-06-16 09:50:00","59459","1.587","105.3","2.875","96.1","NAN","NAN","NAN","NAN","NAN"],
    [1558470,"2026-06-16 10:00:00","59460","2.324","118.2","3.724","95","NAN","NAN","NAN","NAN","NAN"],
    [1558471,"2026-06-16 10:10:00","59461","2.373","113.4","3.495","103.4","NAN","NAN","NAN","NAN","NAN"],
    [1558472,"2026-06-16 10:20:00","59462","2.432","118.3","3.561","131.2","NAN","NAN","NAN","NAN","NAN"],
    [1558473,"2026-06-16 10:30:00","59463","2.213","121.2","3.789","132.7","NAN","NAN","NAN","NAN","NAN"],
    [1558474,"2026-06-16 10:40:00","59464","2.585","109.5","3.724","113.8","NAN","NAN","NAN","NAN","NAN"],
    [1558475,"2026-06-16 10:50:00","59465","2.391","119.6","4.181","92.9","NAN","NAN","NAN","NAN","NAN"],
    [1558476,"2026-06-16 11:00:00","59466","2.588","102.6","4.149","94.4","NAN","NAN","NAN","NAN","NAN"],
    [1558477,"2026-06-16 11:10:00","59467","2.406","123.6","4.541","150.6","NAN","NAN","NAN","NAN","NAN"],
    [1558478,"2026-06-16 11:20:00","59468","2.577","142.8","4.737","141.5","NAN","NAN","NAN","NAN","NAN"],
    [1558479,"2026-06-16 11:30:00","59469","3.035","124.6","4.639","138.8","NAN","NAN","NAN","NAN","NAN"],
    [1558480,"2026-06-16 11:40:00","59470","3.0069999999999997","127.6","5.227","104.4","NAN","NAN","NAN","NAN","NAN"],
    [1558481,"2026-06-16 11:50:00","59471","3.576","138.2","4.9","141","NAN","NAN","NAN","NAN","NAN"],
    [1558482,"2026-06-16 12:00:00","59472","3.187","118.3","5.619","141.5","NAN","NAN","NAN","NAN","NAN"],
    [1558483,"2026-06-16 12:10:00","59473","3.071","97.3","4.867","91.9","NAN","NAN","NAN","NAN","NAN"],
    [1558484,"2026-06-16 12:20:00","59474","2.9730000000000003","104.2","4.443","99.7","NAN","NAN","NAN","NAN","NAN"],
    [1558485,"2026-06-16 12:30:00","59475","2.6510000000000002","109.0","4.737","112.1","NAN","NAN","NAN","NAN","NAN"],
    [1558486,"2026-06-16 12:40:00","59476","2.6860000000000004","122.0","4.312","122.6","NAN","NAN","NAN","NAN","NAN"],
    [1558487,"2026-06-16 12:50:00","59477","3.1689999999999996","115.4","5.194","143.6","NAN","NAN","NAN","NAN","NAN"],
    [1558488,"2026-06-16 13:00:00","59478","3.07","115.3","4.704","106.3","NAN","NAN","NAN","NAN","NAN"],
    [1558489,"2026-06-16 13:10:00","59479","2.917","122.4","4.541","127","NAN","NAN","NAN","NAN","NAN"],
    [1558490,"2026-06-16 13:20:00","59480","3.015","123.5","5.129","109.9","NAN","NAN","NAN","NAN","NAN"],
    [1558491,"2026-06-16 13:30:00","59481","3.409","130.2","5.259","128.8","NAN","NAN","NAN","NAN","NAN"],
    [1558492,"2026-06-16 13:40:00","59482","2.978","128.1","4.965","142","NAN","NAN","NAN","NAN","NAN"],
    [1558493,"2026-06-16 13:50:00","59483","2.9","121.5","4.377","117.8","NAN","NAN","NAN","NAN","NAN"],
    [1558494,"2026-06-16 14:00:00","59484","3.185","111.8","4.835","118.2","NAN","NAN","NAN","NAN","NAN"],
    [1558495,"2026-06-16 14:10:00","59485","3.031","112.2","4.051","126.5","NAN","NAN","NAN","NAN","NAN"],
    [1558496,"2026-06-16 14:20:00","59486","2.827","121.4","4.573","129.8","NAN","NAN","NAN","NAN","NAN"],
    [1558497,"2026-06-16 14:30:00","59487","2.946","110.8","4.377","113.1","NAN","NAN","NAN","NAN","NAN"],
    [1558498,"2026-06-16 14:40:00","59488","2.67","116.2","3.887","113.4","NAN","NAN","NAN","NAN","NAN"],
    [1558499,"2026-06-16 14:50:00","59489","2.5580000000000003","111.7","4.018","87.8","NAN","NAN","NAN","NAN","NAN"],
    [1558500,"2026-06-16 15:00:00","59490","2.5810000000000004","126.7","4.737","144","NAN","NAN","NAN","NAN","NAN"],
    [1558501,"2026-06-16 15:10:00","59491","2.697","119.6","4.573","108.6","NAN","NAN","NAN","NAN","NAN"],
    [1558502,"2026-06-16 15:20:00","59492","3.6710000000000003","127.7","5.586","138.3","NAN","NAN","NAN","NAN","NAN"],
    [1558503,"2026-06-16 15:30:00","59493","2.844","113.4","5.586","138.3","NAN","NAN","NAN","NAN","NAN"],
    [1558504,"2026-06-16 15:40:00","59494","2.59","94.9","4.443","93.7","NAN","NAN","NAN","NAN","NAN"],
    [1558505,"2026-06-16 15:50:00","59495","2.682","96.1","4.279","79.7","NAN","NAN","NAN","NAN","NAN"],
    [1558506,"2026-06-16 16:00:00","59496","3.199","75.69","4.933","79.6","NAN","NAN","NAN","NAN","NAN"],
    [1558507,"2026-06-16 16:10:00","59497","2.6510000000000002","82.6","4.214","90.2","NAN","NAN","NAN","NAN","NAN"],
    [1558508,"2026-06-16 16:20:00","59498","2.825","93.9","4.279","102","NAN","NAN","NAN","NAN","NAN"],
    [1558509,"2026-06-16 16:30:00","59499","2.221","81.5","3.789","67.07","NAN","NAN","NAN","NAN","NAN"],
    [1558510,"2026-06-16 16:40:00","59500","2.289","94.1","3.822","80.3","NAN","NAN","NAN","NAN","NAN"],
    [1558511,"2026-06-16 16:50:00","59501","2.406","96.1","3.495","88.8","NAN","NAN","NAN","NAN","NAN"],
    [1558512,"2026-06-16 17:00:00","59502","2.5660000000000003","97.3","3.757","96.3","NAN","NAN","NAN","NAN","NAN"],
    [1558513,"2026-06-16 17:10:00","59503","2.523","88.1","4.214","88.9","NAN","NAN","NAN","NAN","NAN"],
    [1558514,"2026-06-16 17:20:00","59504","2.185","90.3","3.267","101.3","NAN","NAN","NAN","NAN","NAN"],
    [1558515,"2026-06-16 17:30:00","59505","2.545","83.5","3.789","72.14","NAN","NAN","NAN","NAN","NAN"],
    [1558516,"2026-06-16 17:40:00","59506","2.4019999999999997","77.7","4.377","72.59","NAN","NAN","NAN","NAN","NAN"],
    [1558517,"2026-06-16 17:50:00","59507","2.318","71.74","3.332","69.45","NAN","NAN","NAN","NAN","NAN"],
    [1558518,"2026-06-16 18:00:00","59508","2.1519999999999997","83.0","2.94","90.3","NAN","NAN","NAN","NAN","NAN"],
    [1558519,"2026-06-16 18:10:00","59509","2.559","75.97","3.822","71.54","NAN","NAN","NAN","NAN","NAN"],
    [1558520,"2026-06-16 18:20:00","59510","1.858","70.77","3.528","85.6","NAN","NAN","NAN","NAN","NAN"],
    [1558521,"2026-06-16 18:30:00","59511","1.671","76.18","2.973","77.63","NAN","NAN","NAN","NAN","NAN"],
    [1558522,"2026-06-16 18:40:00","59512","2.004","73.13","3.234","62.87","NAN","NAN","NAN","NAN","NAN"],
    [1558523,"2026-06-16 18:50:00","59513","1.556","75.75","2.613","78.9","NAN","NAN","NAN","NAN","NAN"],
    [1558524,"2026-06-16 19:00:00","59514","1.0490000000000002","75.46","1.764","72.75","NAN","NAN","NAN","NAN","NAN"],
    [1558525,"2026-06-16 19:10:00","59515","0.83","72.75","1.274","74","NAN","NAN","NAN","NAN","NAN"],
    [1558526,"2026-06-16 19:20:00","59516","0.654","73.97","1.47","78.49","NAN","NAN","NAN","NAN","NAN"],
    [1558527,"2026-06-16 19:30:00","59517","1.057","77.53","1.764","74.83","NAN","NAN","NAN","NAN","NAN"],
    [1558528,"2026-06-16 19:40:00","59518","0.746","78.29","1.633","74.74","NAN","NAN","NAN","NAN","NAN"],
    [1558529,"2026-06-16 19:50:00","59519","1.109","72.48","1.764","70.7","NAN","NAN","NAN","NAN","NAN"],
    [1558530,"2026-06-16 20:00:00","59520","0.8540000000000001","73.63","1.437","70.51","NAN","NAN","NAN","NAN","NAN"],
    [1558531,"2026-06-16 20:10:00","59521","0.139","71.61","1.045","71.93","NAN","NAN","NAN","NAN","NAN"],
    [1558532,"2026-06-16 20:20:00","59522","0.5920000000000001","69.51","1.307","69.44","NAN","NAN","NAN","NAN","NAN"],
    [1558533,"2026-06-16 20:30:00","59523","0.809","69.39","1.209","68.96","NAN","NAN","NAN","NAN","NAN"],
    [1558534,"2026-06-16 20:40:00","59524","0.364","69.98","0.882","71.43","NAN","NAN","NAN","NAN","NAN"],
    [1558535,"2026-06-16 20:50:00","59525","0.081","69.05","0.588","68.96","NAN","NAN","NAN","NAN","NAN"],
    [1558536,"2026-06-16 21:00:00","59526","0.005","68.96","0.229","68.96","NAN","NAN","NAN","NAN","NAN"],
    [1558537,"2026-06-16 21:10:00","59527","0.004","68.96","0.229","68.96","NAN","NAN","NAN","NAN","NAN"],
    [1558538,"2026-06-16 21:20:00","59528","0.035","69.04","0.359","69.06","NAN","NAN","NAN","NAN","NAN"],
    [1558539,"2026-06-16 21:30:00","59529","0.026000000000000002","68.91","0.294","68.92","NAN","NAN","NAN","NAN","NAN"],
    [1558540,"2026-06-16 21:40:00","59530","0.518","68.75","1.176","68.56","NAN","NAN","NAN","NAN","NAN"],
    [1558541,"2026-06-16 21:50:00","59531","0.914","66.7","1.503","65.56","NAN","NAN","NAN","NAN","NAN"],
    [1558542,"2026-06-16 22:00:00","59532","1.38","59.02","1.895","53.57","NAN","NAN","NAN","NAN","NAN"],
    [1558543,"2026-06-16 22:10:00","59533","0.9570000000000001","52.5","1.699","52.2","NAN","NAN","NAN","NAN","NAN"],
    [1558544,"2026-06-16 22:20:00","59534","0.61","51.79","1.405","51.83","NAN","NAN","NAN","NAN","NAN"],
    [1558545,"2026-06-16 22:30:00","59535","0.634","49.24","1.078","51.45","NAN","NAN","NAN","NAN","NAN"],
    [1558546,"2026-06-16 22:40:00","59536","0.53","45.45","0.98","45.45","NAN","NAN","NAN","NAN","NAN"],
    [1558547,"2026-06-16 22:50:00","59537","0.155","43.27","0.686","45.1","NAN","NAN","NAN","NAN","NAN"],
    [1558548,"2026-06-16 23:00:00","59538","0.106","41.09","0.555","41.15","NAN","NAN","NAN","NAN","NAN"],
    [1558549,"2026-06-16 23:10:00","59539","0.0","0.0","0","0","NAN","NAN","NAN","NAN","NAN"],
    [1558550,"2026-06-16 23:20:00","59540","0.001","41.05","0.163","41.05","NAN","NAN","NAN","NAN","NAN"],
    [1558551,"2026-06-16 23:30:00","59541","0.674","41.03","1.503","40.96","NAN","NAN","NAN","NAN","NAN"],
    [1558552,"2026-06-16 23:40:00","59542","1.002","31.03","1.699","39.32","NAN","NAN","NAN","NAN","NAN"],
    [1558553,"2026-06-16 23:50:00","59543","0.509","322.3","1.437","316.1","NAN","NAN","NAN","NAN","NAN"],
    [1558554,"2026-06-17 00:00:00","59544","1.4140000000000001","300.5","2.319","296.7","NAN","NAN","NAN","NAN","NAN"],
    [1558555,"2026-06-17 00:10:00","59545","1.401","296.2","2.352","296.2","NAN","NAN","NAN","NAN","NAN"],
    [1558556,"2026-06-17 00:20:00","59546","1.446","295.3","2.483","295.9","NAN","NAN","NAN","NAN","NAN"],
    [1558557,"2026-06-17 00:30:00","59547","1.922","292.8","2.842","293.6","NAN","NAN","NAN","NAN","NAN"],
    [1558558,"2026-06-17 00:40:00","59548","1.7730000000000001","291.3","2.907","290.3","NAN","NAN","NAN","NAN","NAN"],
    [1558559,"2026-06-17 00:50:00","59549","2.407","290.3","3.528","294.7","NAN","NAN","NAN","NAN","NAN"],
    [1558560,"2026-06-17 01:00:00","59550","1.911","291.9","3.103","291.3","NAN","NAN","NAN","NAN","NAN"],
    [1558561,"2026-06-17 01:10:00","59551","2.108","281.3","3.201","282.5","NAN","NAN","NAN","NAN","NAN"],
    [1558562,"2026-06-17 01:20:00","59552","1.51","275.4","2.417","275.7","NAN","NAN","NAN","NAN","NAN"],
    [1558563,"2026-06-17 01:30:00","59553","1.768","272.2","2.646","272","NAN","NAN","NAN","NAN","NAN"],
    [1558564,"2026-06-17 01:40:00","59554","1.526","270.5","2.613","270.3","NAN","NAN","NAN","NAN","NAN"],
    [1558565,"2026-06-17 01:50:00","59555","1.439","270.9","2.319","270","NAN","NAN","NAN","NAN","NAN"],
    [1558566,"2026-06-17 02:00:00","59556","1.2590000000000001","271.7","2.189","270.1","NAN","NAN","NAN","NAN","NAN"],
    [1558567,"2026-06-17 02:10:00","59557","1.6569999999999998","275.1","2.417","277.8","NAN","NAN","NAN","NAN","NAN"],
    [1558568,"2026-06-17 02:20:00","59558","1.218","276.4","2.025","279","NAN","NAN","NAN","NAN","NAN"],
    [1558569,"2026-06-17 02:30:00","59559","1.609","282.5","2.646","281.8","NAN","NAN","NAN","NAN","NAN"],
    [1558570,"2026-06-17 02:40:00","59560","1.4869999999999999","278.0","2.221","273.8","NAN","NAN","NAN","NAN","NAN"],
    [1558571,"2026-06-17 02:50:00","59561","1.85","279.5","3.365","288.6","NAN","NAN","NAN","NAN","NAN"],
    [1558572,"2026-06-17 03:00:00","59562","2.471","283.6","4.214","285.6","NAN","NAN","NAN","NAN","NAN"],
    [1558573,"2026-06-17 03:10:00","59563","1.912","288.5","3.169","287.9","NAN","NAN","NAN","NAN","NAN"],
    [1558574,"2026-06-17 03:20:00","59564","1.74","280.7","2.809","287.4","NAN","NAN","NAN","NAN","NAN"],
    [1558575,"2026-06-17 03:30:00","59565","1.489","276.8","2.221","277.4","NAN","NAN","NAN","NAN","NAN"],
    [1558576,"2026-06-17 03:40:00","59566","1.28","277.0","2.254","273.8","NAN","NAN","NAN","NAN","NAN"],
    [1558577,"2026-06-17 03:50:00","59567","1.5430000000000001","274.9","2.45","273.5","NAN","NAN","NAN","NAN","NAN"],
    [1558578,"2026-06-17 04:00:00","59568","1.774","274.7","2.417","274.9","NAN","NAN","NAN","NAN","NAN"],
    [1558579,"2026-06-17 04:10:00","59569","1.4680000000000002","275.5","2.352","271.1","NAN","NAN","NAN","NAN","NAN"],
    [1558580,"2026-06-17 04:20:00","59570","1.1079999999999999","282.2","2.091","279.1","NAN","NAN","NAN","NAN","NAN"],
    [1558581,"2026-06-17 04:30:00","59571","1.249","283.6","2.221","282.7","NAN","NAN","NAN","NAN","NAN"],
    [1558582,"2026-06-17 04:40:00","59572","0.226","287.8","1.111","287.5","NAN","NAN","NAN","NAN","NAN"],
    [1558583,"2026-06-17 04:50:00","59573","0.295","278.9","1.013","280.1","NAN","NAN","NAN","NAN","NAN"],
    [1558584,"2026-06-17 05:00:00","59574","0.47600000000000003","286.6","1.372","286.7","NAN","NAN","NAN","NAN","NAN"],
    [1558585,"2026-06-17 05:10:00","59575","0.9620000000000001","280.7","1.568","288","NAN","NAN","NAN","NAN","NAN"],
    [1558586,"2026-06-17 05:20:00","59576","1.416","274.6","2.483","270.9","NAN","NAN","NAN","NAN","NAN"],
    [1558587,"2026-06-17 05:30:00","59577","1.413","272.9","2.483","275.8","NAN","NAN","NAN","NAN","NAN"],
    [1558588,"2026-06-17 05:40:00","59578","1.838","269.8","3.267","274","NAN","NAN","NAN","NAN","NAN"],
    [1558589,"2026-06-17 05:50:00","59579","1.178","278.1","3.169","278.8","NAN","NAN","NAN","NAN","NAN"],
    [1558590,"2026-06-17 06:00:00","59580","1.274","280.0","2.319","281.9","NAN","NAN","NAN","NAN","NAN"],
    [1558591,"2026-06-17 06:10:00","59581","1.325","282.4","2.156","282.5","NAN","NAN","NAN","NAN","NAN"],
    [1558592,"2026-06-17 06:20:00","59582","0.78","282.5","1.535","282.7","NAN","NAN","NAN","NAN","NAN"],
    [1558593,"2026-06-17 06:30:00","59583","0.172","282.5","1.111","282.5","NAN","NAN","NAN","NAN","NAN"],
    [1558594,"2026-06-17 06:40:00","59584","1.048","279.1","1.862","274","NAN","NAN","NAN","NAN","NAN"],
    [1558595,"2026-06-17 06:50:00","59585","1.4869999999999999","286.9","2.809","288.2","NAN","NAN","NAN","NAN","NAN"],
    [1558596,"2026-06-17 07:00:00","59586","0.9390000000000001","282.2","1.731","288.7","NAN","NAN","NAN","NAN","NAN"],
    [1558597,"2026-06-17 07:10:00","59587","0.708","283.0","1.666","289.1","NAN","NAN","NAN","NAN","NAN"],
    [1558598,"2026-06-17 07:20:00","59588","0.767","194.0","1.993","184.4","NAN","NAN","NAN","NAN","NAN"],
    [1558599,"2026-06-17 07:30:00","59589","0.8390000000000001","183.2","2.123","182.8","NAN","NAN","NAN","NAN","NAN"],
    [1558600,"2026-06-17 07:40:00","59590","0.128","180.7","0.784","180.9","NAN","NAN","NAN","NAN","NAN"],
    [1558601,"2026-06-17 07:50:00","59591","0.094","171.7","0.784","168.5","NAN","NAN","NAN","NAN","NAN"],
    [1558602,"2026-06-17 08:00:00","59592","0.425","138.7","1.274","117.5","NAN","NAN","NAN","NAN","NAN"],
    [1558603,"2026-06-17 08:10:00","59593","1.008","115.9","1.96","115.9","NAN","NAN","NAN","NAN","NAN"],
    [1558604,"2026-06-17 08:20:00","59594","1.7269999999999999","118.3","2.45","114.9","NAN","NAN","NAN","NAN","NAN"],
    [1558605,"2026-06-17 08:30:00","59595","2.296","118.8","3.365","127.4","NAN","NAN","NAN","NAN","NAN"],
    [1558606,"2026-06-17 08:40:00","59596","2.5180000000000002","114.1","3.365","111.4","NAN","NAN","NAN","NAN","NAN"],
    [1558607,"2026-06-17 08:50:00","59597","2.189","116.6","3.561","110.7","NAN","NAN","NAN","NAN","NAN"],
    [1558608,"2026-06-17 09:00:00","59598","2.485","119.2","3.659","106.9","NAN","NAN","NAN","NAN","NAN"],
    [1558609,"2026-06-17 09:10:00","59599","2.6860000000000004","119.1","4.051","107.7","NAN","NAN","NAN","NAN","NAN"],
    [1558610,"2026-06-17 09:20:00","59600","2.5789999999999997","126.1","4.116","122.8","NAN","NAN","NAN","NAN","NAN"],
    [1558611,"2026-06-17 09:30:00","59601","3.201","125.4","4.279","134.1","NAN","NAN","NAN","NAN","NAN"],
    [1558612,"2026-06-17 09:40:00","59602","2.675","112.6","3.822","131.8","NAN","NAN","NAN","NAN","NAN"],
    [1558613,"2026-06-17 09:50:00","59603","2.171","109.8","3.103","113.1","NAN","NAN","NAN","NAN","NAN"],
    [1558614,"2026-06-17 10:00:00","59604","1.962","105.8","3.103","93.1","NAN","NAN","NAN","NAN","NAN"],
    [1558615,"2026-06-17 10:10:00","59605","1.983","114.7","3.038","103.4","NAN","NAN","NAN","NAN","NAN"],
    [1558616,"2026-06-17 10:20:00","59606","2.6439999999999997","124.4","4.247","125.6","NAN","NAN","NAN","NAN","NAN"],
    [1558617,"2026-06-17 10:30:00","59607","2.551","144.4","3.757","151","NAN","NAN","NAN","NAN","NAN"],
    [1558618,"2026-06-17 10:40:00","59608","2.16","159.2","4.051","136.4","NAN","NAN","NAN","NAN","NAN"],
    [1558619,"2026-06-17 10:50:00","59609","2.1069999999999998","144.3","3.43","149.3","NAN","NAN","NAN","NAN","NAN"],
    [1558620,"2026-06-17 11:00:00","59610","2.314","115.0","3.659","107.9","NAN","NAN","NAN","NAN","NAN"],
    [1558621,"2026-06-17 11:10:00","59611","2.445","113.9","3.985","127.5","NAN","NAN","NAN","NAN","NAN"],
    [1558622,"2026-06-17 11:20:00","59612","2.602","122.4","4.083","138.6","NAN","NAN","NAN","NAN","NAN"],
    [1558623,"2026-06-17 11:30:00","59613","3.082","141.8","4.671","149.2","NAN","NAN","NAN","NAN","NAN"],
    [1558624,"2026-06-17 11:40:00","59614","3.011","160.9","4.671","172.3","NAN","NAN","NAN","NAN","NAN"],
    [1558625,"2026-06-17 11:50:00","59615","3.187","162.7","5.553","157.6","NAN","NAN","NAN","NAN","NAN"],
    [1558626,"2026-06-17 12:00:00","59616","2.5180000000000002","144.1","4.181","138.5","NAN","NAN","NAN","NAN","NAN"],
    [1558627,"2026-06-17 12:10:00","59617","2.8939999999999997","149.2","4.704","157.2","NAN","NAN","NAN","NAN","NAN"],
    [1558628,"2026-06-17 12:20:00","59618","2.647","163.7","3.985","160.4","NAN","NAN","NAN","NAN","NAN"],
    [1558629,"2026-06-17 12:30:00","59619","2.647","137.3","4.573","130.5","NAN","NAN","NAN","NAN","NAN"],
    [1558630,"2026-06-17 12:40:00","59620","2.9019999999999997","110.6","4.149","110","NAN","NAN","NAN","NAN","NAN"],
    [1558631,"2026-06-17 12:50:00","59621","3.217","106.3","4.247","110.4","NAN","NAN","NAN","NAN","NAN"],
    [1558632,"2026-06-17 13:00:00","59622","3.438","117.6","5.325","109.2","NAN","NAN","NAN","NAN","NAN"],
    [1558633,"2026-06-17 13:10:00","59623","3.897","142.2","6.435","170.6","NAN","NAN","NAN","NAN","NAN"],
    [1558634,"2026-06-17 13:20:00","59624","4.196000000000001","161.7","6.86","160.1","NAN","NAN","NAN","NAN","NAN"],
    [1558635,"2026-06-17 13:30:00","59625","3.779","174.2","7.187","159.3","NAN","NAN","NAN","NAN","NAN"],
    [1558636,"2026-06-17 13:40:00","59626","3.18","182.5","5.357","186.4","NAN","NAN","NAN","NAN","NAN"],
    [1558637,"2026-06-17 13:50:00","59627","2.685","193.8","6.207","220.2","NAN","NAN","NAN","NAN","NAN"],
    [1558638,"2026-06-17 14:00:00","59628","2.336","172.0","4.573","170.6","NAN","NAN","NAN","NAN","NAN"],
    [1558639,"2026-06-17 14:10:00","59629","2.229","143.3","4.475","97.9","NAN","NAN","NAN","NAN","NAN"],
    [1558640,"2026-06-17 14:20:00","59630","3.054","106.7","4.116","108.5","NAN","NAN","NAN","NAN","NAN"],
    [1558641,"2026-06-17 14:30:00","59631","2.6860000000000004","118.4","4.018","112.2","NAN","NAN","NAN","NAN","NAN"],
    [1558642,"2026-06-17 14:40:00","59632","3.205","116.9","4.9","136.6","NAN","NAN","NAN","NAN","NAN"],
    [1558643,"2026-06-17 14:50:00","59633","3.216","118.6","5.325","144.2","NAN","NAN","NAN","NAN","NAN"],
    [1558644,"2026-06-17 15:00:00","59634","2.91","115.5","4.606","109.6","NAN","NAN","NAN","NAN","NAN"],
    [1558645,"2026-06-17 15:10:00","59635","3.359","129.8","4.933","135.9","NAN","NAN","NAN","NAN","NAN"],
    [1558646,"2026-06-17 15:20:00","59636","2.9139999999999997","128.7","4.704","135","NAN","NAN","NAN","NAN","NAN"],
    [1558647,"2026-06-17 15:30:00","59637","3.134","128.0","4.312","141.2","NAN","NAN","NAN","NAN","NAN"],
    [1558648,"2026-06-17 15:40:00","59638","2.753","135.1","4.9","138.5","NAN","NAN","NAN","NAN","NAN"],
    [1558649,"2026-06-17 15:50:00","59639","2.369","128.5","4.41","142.1","NAN","NAN","NAN","NAN","NAN"],
    [1558650,"2026-06-17 16:00:00","59640","2.71","127.4","4.214","136.8","NAN","NAN","NAN","NAN","NAN"],
    [1558651,"2026-06-17 16:10:00","59641","2.5869999999999997","99.0","4.41","93","NAN","NAN","NAN","NAN","NAN"],
    [1558652,"2026-06-17 16:20:00","59642","2.0140000000000002","127.7","3.495","132.7","NAN","NAN","NAN","NAN","NAN"],
    [1558653,"2026-06-17 16:30:00","59643","2.407","106.8","4.181","105.5","NAN","NAN","NAN","NAN","NAN"],
    [1558654,"2026-06-17 16:40:00","59644","1.986","94.4","3.43","98.9","NAN","NAN","NAN","NAN","NAN"],
    [1558655,"2026-06-17 16:50:00","59645","2.165","108.0","3.691","115.6","NAN","NAN","NAN","NAN","NAN"],
    [1558656,"2026-06-17 17:00:00","59646","2.485","109.6","3.495","109.3","NAN","NAN","NAN","NAN","NAN"],
    [1558657,"2026-06-17 17:10:00","59647","2.076","116.0","3.855","121.4","NAN","NAN","NAN","NAN","NAN"],
    [1558658,"2026-06-17 17:20:00","59648","2.253","94.4","3.103","92.1","NAN","NAN","NAN","NAN","NAN"],
    [1558659,"2026-06-17 17:30:00","59649","2.843","89.8","4.116","88.6","NAN","NAN","NAN","NAN","NAN"],
    [1558660,"2026-06-17 17:40:00","59650","2.608","78.88","3.953","80","NAN","NAN","NAN","NAN","NAN"],
    [1558661,"2026-06-17 17:50:00","59651","2.017","84.9","3.299","74.21","NAN","NAN","NAN","NAN","NAN"],
    [1558662,"2026-06-17 18:00:00","59652","1.972","62.4","3.43","49.09","NAN","NAN","NAN","NAN","NAN"],
    [1558663,"2026-06-17 18:10:00","59653","1.5230000000000001","79.26","2.548","83.8","NAN","NAN","NAN","NAN","NAN"],
    [1558664,"2026-06-17 18:20:00","59654","1.0070000000000001","85.7","2.123","86.2","NAN","NAN","NAN","NAN","NAN"],
    [1558665,"2026-06-17 18:30:00","59655","1.5530000000000002","105.6","2.613","105.9","NAN","NAN","NAN","NAN","NAN"],
    [1558666,"2026-06-17 18:40:00","59656","1.797","110.6","2.646","98.9","NAN","NAN","NAN","NAN","NAN"],
    [1558667,"2026-06-17 18:50:00","59657","0.856","122.9","1.862","121.5","NAN","NAN","NAN","NAN","NAN"],
    [1558668,"2026-06-17 19:00:00","59658","1.2830000000000001","108.9","2.417","100.8","NAN","NAN","NAN","NAN","NAN"],
    [1558669,"2026-06-17 19:10:00","59659","1.17","113.7","2.091","116","NAN","NAN","NAN","NAN","NAN"],
    [1558670,"2026-06-17 19:20:00","59660","1.413","111.5","2.091","99.8","NAN","NAN","NAN","NAN","NAN"],
    [1558671,"2026-06-17 19:30:00","59661","1.34","122.9","2.515","125.3","NAN","NAN","NAN","NAN","NAN"],
    [1558672,"2026-06-17 19:40:00","59662","1.18","116.2","1.927","125.4","NAN","NAN","NAN","NAN","NAN"],
    [1558673,"2026-06-17 19:50:00","59663","0.934","106.4","1.437","107.3","NAN","NAN","NAN","NAN","NAN"],
    [1558674,"2026-06-17 20:00:00","59664","0.726","103.2","1.176","102.6","NAN","NAN","NAN","NAN","NAN"],
    [1558675,"2026-06-17 20:10:00","59665","0.9670000000000001","101.6","1.797","100.7","NAN","NAN","NAN","NAN","NAN"],
    [1558676,"2026-06-17 20:20:00","59666","0.7020000000000001","122.6","2.025","122.3","NAN","NAN","NAN","NAN","NAN"],
    [1558677,"2026-06-17 20:30:00","59667","1.629","125.5","2.646","126.6","NAN","NAN","NAN","NAN","NAN"],
    [1558678,"2026-06-17 20:40:00","59668","1.635","127.2","3.103","132.4","NAN","NAN","NAN","NAN","NAN"],
    [1558679,"2026-06-17 20:50:00","59669","1.006","135.8","2.319","138.2","NAN","NAN","NAN","NAN","NAN"],
    [1558680,"2026-06-17 21:00:00","59670","1.054","110.0","1.895","112.1","NAN","NAN","NAN","NAN","NAN"],
    [1558681,"2026-06-17 21:10:00","59671","1.946","131.0","3.626","160.8","NAN","NAN","NAN","NAN","NAN"],
    [1558682,"2026-06-17 21:20:00","59672","2.188","153.6","3.332","161.7","NAN","NAN","NAN","NAN","NAN"],
    [1558683,"2026-06-17 21:30:00","59673","1.709","156.1","3.234","162.1","NAN","NAN","NAN","NAN","NAN"],
    [1558684,"2026-06-17 21:40:00","59674","1.197","152.2","2.352","149","NAN","NAN","NAN","NAN","NAN"],
    [1558685,"2026-06-17 21:50:00","59675","1.051","141.7","2.45","138.1","NAN","NAN","NAN","NAN","NAN"],
    [1558686,"2026-06-17 22:00:00","59676","0.414","137.7","1.568","137.6","NAN","NAN","NAN","NAN","NAN"],
    [1558687,"2026-06-17 22:10:00","59677","0.368","137.3","1.209","137.3","NAN","NAN","NAN","NAN","NAN"],
    [1558688,"2026-06-17 22:20:00","59678","0.265","137.6","0.719","139.3","NAN","NAN","NAN","NAN","NAN"],
    [1558689,"2026-06-17 22:30:00","59679","0.7490000000000001","139.6","1.699","142.7","NAN","NAN","NAN","NAN","NAN"],
    [1558690,"2026-06-17 22:40:00","59680","1.085","155.9","1.927","156.6","NAN","NAN","NAN","NAN","NAN"],
    [1558691,"2026-06-17 22:50:00","59681","1.359","158.7","2.352","159.5","NAN","NAN","NAN","NAN","NAN"],
    [1558692,"2026-06-17 23:00:00","59682","1.403","161.0","2.483","160.8","NAN","NAN","NAN","NAN","NAN"],
    [1558693,"2026-06-17 23:10:00","59683","0.701","151.0","1.535","153.3","NAN","NAN","NAN","NAN","NAN"],
    [1558694,"2026-06-17 23:20:00","59684","0.163","149.8","0.915","149.8","NAN","NAN","NAN","NAN","NAN"],
    [1558695,"2026-06-17 23:30:00","59685","0.0","0.0","0","0","NAN","NAN","NAN","NAN","NAN"],
    [1558696,"2026-06-17 23:40:00","59686","0.22","144.1","0.98","143.4","NAN","NAN","NAN","NAN","NAN"],
    [1558697,"2026-06-17 23:50:00","59687","0.622","138.5","1.241","136.2","NAN","NAN","NAN","NAN","NAN"],
    [1558698,"2026-06-18 00:00:00","59688","0.36200000000000004","134.1","0.784","134.1","NAN","NAN","NAN","NAN","NAN"],
    [1558699,"2026-06-18 00:10:00","59689","0.10800000000000001","134.1","0.751","134.1","NAN","NAN","NAN","NAN","NAN"],
    [1558700,"2026-06-18 00:20:00","59690","0.23199999999999998","134.1","0.882","134.1","NAN","NAN","NAN","NAN","NAN"],
    [1558701,"2026-06-18 00:30:00","59691","0.076","134.1","0.359","134.1","NAN","NAN","NAN","NAN","NAN"],
    [1558702,"2026-06-18 00:40:00","59692","0.025","134.1","0.49","134.1","NAN","NAN","NAN","NAN","NAN"],
    [1558703,"2026-06-18 00:50:00","59693","0.184","134.0","1.078","134","NAN","NAN","NAN","NAN","NAN"],
    [1558704,"2026-06-18 01:00:00","59694","0.7759999999999999","133.1","1.568","133.9","NAN","NAN","NAN","NAN","NAN"],
    [1558705,"2026-06-18 01:10:00","59695","0.955","121.9","1.927","119.8","NAN","NAN","NAN","NAN","NAN"],
    [1558706,"2026-06-18 01:20:00","59696","1.031","117.9","2.156","117","NAN","NAN","NAN","NAN","NAN"],
    [1558707,"2026-06-18 01:30:00","59697","1.905","103.7","2.809","105.9","NAN","NAN","NAN","NAN","NAN"],
    [1558708,"2026-06-18 01:40:00","59698","1.335","93.8","2.483","93.1","NAN","NAN","NAN","NAN","NAN"],
    [1558709,"2026-06-18 01:50:00","59699","1.082","99.6","2.385","102.4","NAN","NAN","NAN","NAN","NAN"],
    [1558710,"2026-06-18 02:00:00","59700","1.463","103.9","2.483","110.5","NAN","NAN","NAN","NAN","NAN"],
    [1558711,"2026-06-18 02:10:00","59701","0.9440000000000001","89.7","1.993","89","NAN","NAN","NAN","NAN","NAN"],
    [1558712,"2026-06-18 02:20:00","59702","1.213","106.8","2.058","106.8","NAN","NAN","NAN","NAN","NAN"],
    [1558713,"2026-06-18 02:30:00","59703","1.4780000000000002","112.9","2.254","112.3","NAN","NAN","NAN","NAN","NAN"],
    [1558714,"2026-06-18 02:40:00","59704","0.855","114.5","1.797","114.6","NAN","NAN","NAN","NAN","NAN"],
    [1558715,"2026-06-18 02:50:00","59705","0.746","97.2","1.895","94.7","NAN","NAN","NAN","NAN","NAN"],
    [1558716,"2026-06-18 03:00:00","59706","0.536","104.8","1.307","107.5","NAN","NAN","NAN","NAN","NAN"],
    [1558717,"2026-06-18 03:10:00","59707","0.282","95.1","0.849","97.7","NAN","NAN","NAN","NAN","NAN"],
    [1558718,"2026-06-18 03:20:00","59708","0.262","97.7","1.143","99.6","NAN","NAN","NAN","NAN","NAN"],
    [1558719,"2026-06-18 03:30:00","59709","0.37","108.9","0.915","110.7","NAN","NAN","NAN","NAN","NAN"],
    [1558720,"2026-06-18 03:40:00","59710","0.11699999999999999","93.1","0.915","93.1","NAN","NAN","NAN","NAN","NAN"],
    [1558721,"2026-06-18 03:50:00","59711","0.9690000000000001","93.6","1.829","92.8","NAN","NAN","NAN","NAN","NAN"],
    [1558722,"2026-06-18 04:00:00","59712","1.4","92.0","2.025","91.9","NAN","NAN","NAN","NAN","NAN"],
    [1558723,"2026-06-18 04:10:00","59713","1.495","91.0","2.646","90.3","NAN","NAN","NAN","NAN","NAN"],
    [1558724,"2026-06-18 04:20:00","59714","1.413","73.65","2.515","66.27","NAN","NAN","NAN","NAN","NAN"],
    [1558725,"2026-06-18 04:30:00","59715","1.2570000000000001","61.8","2.385","58.5","NAN","NAN","NAN","NAN","NAN"],
    [1558726,"2026-06-18 04:40:00","59716","1.02","66.02","2.319","65.06","NAN","NAN","NAN","NAN","NAN"],
    [1558727,"2026-06-18 04:50:00","59717","1.1540000000000001","64.52","2.548","55.58","NAN","NAN","NAN","NAN","NAN"],
    [1558728,"2026-06-18 05:00:00","59718","1.175","56.18","2.319","54.33","NAN","NAN","NAN","NAN","NAN"],
    [1558729,"2026-06-18 05:10:00","59719","0.6559999999999999","64.85","1.633","62.29","NAN","NAN","NAN","NAN","NAN"],
    [1558730,"2026-06-18 05:20:00","59720","0.584","74.05","1.633","76.24","NAN","NAN","NAN","NAN","NAN"],
    [1558731,"2026-06-18 05:30:00","59721","0.79","70.48","2.123","71.4","NAN","NAN","NAN","NAN","NAN"],
    [1558732,"2026-06-18 05:40:00","59722","1.436","53.52","2.613","51.06","NAN","NAN","NAN","NAN","NAN"],
    [1558733,"2026-06-18 05:50:00","59723","1.98","47.51","3.267","42.4","NAN","NAN","NAN","NAN","NAN"],
    [1558734,"2026-06-18 06:00:00","59724","1.7069999999999999","51.23","3.038","39.8","NAN","NAN","NAN","NAN","NAN"],
    [1558735,"2026-06-18 06:10:00","59725","1.501","57.88","3.005","63.54","NAN","NAN","NAN","NAN","NAN"],
    [1558736,"2026-06-18 06:20:00","59726","1.5859999999999999","63.2","2.809","54.46","NAN","NAN","NAN","NAN","NAN"],
    [1558737,"2026-06-18 06:30:00","59727","2.01","72.63","3.136","72.81","NAN","NAN","NAN","NAN","NAN"],
    [1558738,"2026-06-18 06:40:00","59728","1.716","85.5","3.103","94.4","NAN","NAN","NAN","NAN","NAN"],
    [1558739,"2026-06-18 06:50:00","59729","2.148","101.2","3.136","124.5","NAN","NAN","NAN","NAN","NAN"],
    [1558740,"2026-06-18 07:00:00","59730","1.936","102.6","3.201","102.8","NAN","NAN","NAN","NAN","NAN"],
    [1558741,"2026-06-18 07:10:00","59731","1.834","88.0","3.267","71.5","NAN","NAN","NAN","NAN","NAN"],
    [1558742,"2026-06-18 07:20:00","59732","1.798","86.0","3.299","78.1","NAN","NAN","NAN","NAN","NAN"],
    [1558743,"2026-06-18 07:30:00","59733","2.801","92.5","3.789","91.7","NAN","NAN","NAN","NAN","NAN"],
    [1558744,"2026-06-18 07:40:00","59734","2.428","96.3","4.247","98.2","NAN","NAN","NAN","NAN","NAN"],
    [1558745,"2026-06-18 07:50:00","59735","2.376","94.1","3.561","105.2","NAN","NAN","NAN","NAN","NAN"],
    [1558746,"2026-06-18 08:00:00","59736","3.0580000000000003","112.6","4.704","124.5","NAN","NAN","NAN","NAN","NAN"],
    [1558747,"2026-06-18 08:10:00","59737","2.8760000000000003","99.1","4.573","95.6","NAN","NAN","NAN","NAN","NAN"],
    [1558748,"2026-06-18 08:20:00","59738","3.011","104.2","4.41","100.8","NAN","NAN","NAN","NAN","NAN"],
    [1558749,"2026-06-18 08:30:00","59739","2.8689999999999998","102.0","4.214","82.7","NAN","NAN","NAN","NAN","NAN"],
    [1558750,"2026-06-18 08:40:00","59740","3.4","94.9","4.802","83.9","NAN","NAN","NAN","NAN","NAN"],
    [1558751,"2026-06-18 08:50:00","59741","3.145","100.7","4.802","91.3","NAN","NAN","NAN","NAN","NAN"],
    [1558752,"2026-06-18 09:00:00","59742","3.4989999999999997","89.7","5.259","82.5","NAN","NAN","NAN","NAN","NAN"],
    [1558753,"2026-06-18 09:10:00","59743","3.397","102.2","5.031","95.1","NAN","NAN","NAN","NAN","NAN"],
    [1558754,"2026-06-18 09:20:00","59744","2.752","94.6","5.39","93.1","NAN","NAN","NAN","NAN","NAN"],
    [1558755,"2026-06-18 09:30:00","59745","3.696","92.1","5.847","81.5","NAN","NAN","NAN","NAN","NAN"],
    [1558756,"2026-06-18 09:40:00","59746","3.6210000000000004","97.7","5.39","88.3","NAN","NAN","NAN","NAN","NAN"],
    [1558757,"2026-06-18 09:50:00","59747","3.7760000000000002","97.6","6.011","100","NAN","NAN","NAN","NAN","NAN"],
    [1558758,"2026-06-18 10:00:00","59748","3.89","87.1","5.815","89.8","NAN","NAN","NAN","NAN","NAN"],
    [1558759,"2026-06-18 10:10:00","59749","4.016","96.6","6.011","81.8","NAN","NAN","NAN","NAN","NAN"],
    [1558760,"2026-06-18 10:20:00","59750","3.287","99.8","5.521","87","NAN","NAN","NAN","NAN","NAN"],
    [1558761,"2026-06-18 10:30:00","59751","3.747","98.4","5.782","102.2","NAN","NAN","NAN","NAN","NAN"],
    [1558762,"2026-06-18 10:40:00","59752","3.585","94.5","5.423","96.2","NAN","NAN","NAN","NAN","NAN"],
    [1558763,"2026-06-18 10:50:00","59753","3.488","92.6","5.717","119.6","NAN","NAN","NAN","NAN","NAN"],
    [1558764,"2026-06-18 11:00:00","59754","3.464","100.1","5.782","111.6","NAN","NAN","NAN","NAN","NAN"],
    [1558765,"2026-06-18 11:10:00","59755","3.362","102.7","5.619","94.2","NAN","NAN","NAN","NAN","NAN"],
    [1558766,"2026-06-18 11:20:00","59756","3.7539999999999996","91.2","6.011","93.3","NAN","NAN","NAN","NAN","NAN"],
    [1558767,"2026-06-18 11:30:00","59757","3.838","91.6","5.619","89.5","NAN","NAN","NAN","NAN","NAN"],
    [1558768,"2026-06-18 11:40:00","59758","3.819","87.7","5.88","97.2","NAN","NAN","NAN","NAN","NAN"],
    [1558769,"2026-06-18 11:50:00","59759","3.4419999999999997","86.1","5.292","98.1","NAN","NAN","NAN","NAN","NAN"],
    [1558770,"2026-06-18 12:00:00","59760","3.537","101.1","5.488","105.5","NAN","NAN","NAN","NAN","NAN"],
    [1558771,"2026-06-18 12:10:00","59761","3.659","78.93","5.978","79.18","NAN","NAN","NAN","NAN","NAN"],
    [1558772,"2026-06-18 12:20:00","59762","3.536","90.1","5.782","91.7","NAN","NAN","NAN","NAN","NAN"],
    [1558773,"2026-06-18 12:30:00","59763","3.222","95.8","5.521","75.74","NAN","NAN","NAN","NAN","NAN"],
    [1558774,"2026-06-18 12:40:00","59764","3.162","98.5","5.292","97.9","NAN","NAN","NAN","NAN","NAN"],
    [1558775,"2026-06-18 12:50:00","59765","3.495","93.7","5.423","100.6","NAN","NAN","NAN","NAN","NAN"],
    [1558776,"2026-06-18 13:00:00","59766","3.179","101.6","5.553","92.5","NAN","NAN","NAN","NAN","NAN"],
    [1558777,"2026-06-18 13:10:00","59767","3.775","93.9","5.586","86.6","NAN","NAN","NAN","NAN","NAN"],
    [1558778,"2026-06-18 13:20:00","59768","3.398","99.0","5.586","95","NAN","NAN","NAN","NAN","NAN"],
    [1558779,"2026-06-18 13:30:00","59769","3.53","97.4","6.109","97.6","NAN","NAN","NAN","NAN","NAN"],
    [1558780,"2026-06-18 13:40:00","59770","3.557","101.4","5.553","90.6","NAN","NAN","NAN","NAN","NAN"],
    [1558781,"2026-06-18 13:50:00","59771","3.332","101.0","5.031","99.8","NAN","NAN","NAN","NAN","NAN"],
    [1558782,"2026-06-18 14:00:00","59772","3.304","106.6","5.161","108.5","NAN","NAN","NAN","NAN","NAN"],
    [1558783,"2026-06-18 14:10:00","59773","3.639","107.1","5.521","121.3","NAN","NAN","NAN","NAN","NAN"],
    [1558784,"2026-06-18 14:20:00","59774","3.532","112.3","5.684","117.6","NAN","NAN","NAN","NAN","NAN"],
    [1558785,"2026-06-18 14:30:00","59775","3.483","99.8","6.174","72.52","NAN","NAN","NAN","NAN","NAN"],
    [1558786,"2026-06-18 14:40:00","59776","3.484","97.1","5.521","92.3","NAN","NAN","NAN","NAN","NAN"],
    [1558787,"2026-06-18 14:50:00","59777","3.572","99.3","5.488","86.5","NAN","NAN","NAN","NAN","NAN"],
    [1558788,"2026-06-18 15:00:00","59778","3.45","100.3","5.651","104.6","NAN","NAN","NAN","NAN","NAN"],
    [1558789,"2026-06-18 15:10:00","59779","3.449","98.5","6.305","96.1","NAN","NAN","NAN","NAN","NAN"],
    [1558790,"2026-06-18 15:20:00","59780","3.523","92.7","5.521","91.7","NAN","NAN","NAN","NAN","NAN"],
    [1558791,"2026-06-18 15:30:00","59781","3.362","96.9","5.455","116.7","NAN","NAN","NAN","NAN","NAN"],
    [1558792,"2026-06-18 15:40:00","59782","3.5780000000000003","96.4","5.945","99.6","NAN","NAN","NAN","NAN","NAN"],
    [1558793,"2026-06-18 15:50:00","59783","3.353","84.6","6.207","61.65","NAN","NAN","NAN","NAN","NAN"],
    [1558794,"2026-06-18 16:00:00","59784","3.514","92.5","5.423","86.1","NAN","NAN","NAN","NAN","NAN"],
    [1558795,"2026-06-18 16:10:00","59785","3.9530000000000003","94.0","5.651","101","NAN","NAN","NAN","NAN","NAN"],
    [1558796,"2026-06-18 16:20:00","59786","3.2689999999999997","108.4","5.063","119.4","NAN","NAN","NAN","NAN","NAN"],
    [1558797,"2026-06-18 16:30:00","59787","3.225","97.5","5.194","96.5","NAN","NAN","NAN","NAN","NAN"],
    [1558798,"2026-06-18 16:40:00","59788","3.0989999999999998","99.9","5.847","88.7","NAN","NAN","NAN","NAN","NAN"],
    [1558799,"2026-06-18 16:50:00","59789","3.6069999999999998","93.2","5.488","95.6","NAN","NAN","NAN","NAN","NAN"],
    [1558800,"2026-06-18 17:00:00","59790","4.293","83.3","6.729","88.6","NAN","NAN","NAN","NAN","NAN"],
    [1558801,"2026-06-18 17:10:00","59791","2.907","78.61","5.586","95.1","NAN","NAN","NAN","NAN","NAN"],
    [1558802,"2026-06-18 17:20:00","59792","2.528","68.03","5.096","48.43","NAN","NAN","NAN","NAN","NAN"],
    [1558803,"2026-06-18 17:30:00","59793","2.303","76.98","4.083","85.3","NAN","NAN","NAN","NAN","NAN"],
    [1558804,"2026-06-18 17:40:00","59794","2.383","78.62","4.704","80.6","NAN","NAN","NAN","NAN","NAN"],
    [1558805,"2026-06-18 17:50:00","59795","2.6010000000000004","71.08","5.161","67.3","NAN","NAN","NAN","NAN","NAN"],
    [1558806,"2026-06-18 18:00:00","59796","2.457","76.49","4.181","87.9","NAN","NAN","NAN","NAN","NAN"],
    [1558807,"2026-06-18 18:10:00","59797","2.559","68.76","5.423","54.3","NAN","NAN","NAN","NAN","NAN"],
    [1558808,"2026-06-18 18:20:00","59798","2.005","75.61","3.691","55.84","NAN","NAN","NAN","NAN","NAN"],
    [1558809,"2026-06-18 18:30:00","59799","1.788","89.9","3.593","89.1","NAN","NAN","NAN","NAN","NAN"],
    [1558810,"2026-06-18 18:40:00","59800","2.351","61.48","4.639","80.6","NAN","NAN","NAN","NAN","NAN"],
    [1558811,"2026-06-18 18:50:00","59801","1.632","63.19","3.365","47.79","NAN","NAN","NAN","NAN","NAN"],
    [1558812,"2026-06-18 19:00:00","59802","2.31","54.76","4.41","39.35","NAN","NAN","NAN","NAN","NAN"],
    [1558813,"2026-06-18 19:10:00","59803","1.955","66.05","4.116","65.14","NAN","NAN","NAN","NAN","NAN"],
    [1558814,"2026-06-18 19:20:00","59804","1.962","56.7","4.116","60.49","NAN","NAN","NAN","NAN","NAN"],
    [1558815,"2026-06-18 19:30:00","59805","2.073","63.95","3.365","63.83","NAN","NAN","NAN","NAN","NAN"],
    [1558816,"2026-06-18 19:40:00","59806","1.5030000000000001","68.68","2.94","62.16","NAN","NAN","NAN","NAN","NAN"],
    [1558817,"2026-06-18 19:50:00","59807","1.98","79.6","3.234","81.4","NAN","NAN","NAN","NAN","NAN"],
    [1558818,"2026-06-18 20:00:00","59808","1.98","82.9","4.41","88.7","NAN","NAN","NAN","NAN","NAN"],
    [1558819,"2026-06-18 20:10:00","59809","3.065","86.6","4.965","87.5","NAN","NAN","NAN","NAN","NAN"],
    [1558820,"2026-06-18 20:20:00","59810","2.8569999999999998","87.1","5.749","82.5","NAN","NAN","NAN","NAN","NAN"],
    [1558821,"2026-06-18 20:30:00","59811","2.614","88.7","4.835","87.5","NAN","NAN","NAN","NAN","NAN"],
    [1558822,"2026-06-18 20:40:00","59812","1.786","76.53","3.757","79.44","NAN","NAN","NAN","NAN","NAN"],
    [1558823,"2026-06-18 20:50:00","59813","1.954","66.8","4.083","61.94","NAN","NAN","NAN","NAN","NAN"],
    [1558824,"2026-06-18 21:00:00","59814","1.992","63.91","3.985","56.59","NAN","NAN","NAN","NAN","NAN"],
    [1558825,"2026-06-18 21:10:00","59815","1.7690000000000001","67.24","3.985","84.6","NAN","NAN","NAN","NAN","NAN"],
    [1558826,"2026-06-18 21:20:00","59816","1.712","57.55","3.659","41.88","NAN","NAN","NAN","NAN","NAN"],
    [1558827,"2026-06-18 21:30:00","59817","1.685","52.43","3.43","37.26","NAN","NAN","NAN","NAN","NAN"],
    [1558828,"2026-06-18 21:40:00","59818","2.283","75.5","4.018","90.1","NAN","NAN","NAN","NAN","NAN"],
    [1558829,"2026-06-18 21:50:00","59819","4.061","89.2","6.762","89.7","NAN","NAN","NAN","NAN","NAN"],
    [1558830,"2026-06-18 22:00:00","59820","2.052","64.88","4.149","66.89","NAN","NAN","NAN","NAN","NAN"],
    [1558831,"2026-06-18 22:10:00","59821","1.6769999999999998","67.83","4.312","66.59","NAN","NAN","NAN","NAN","NAN"],
    [1558832,"2026-06-18 22:20:00","59822","2.181","66.87","3.953","67.97","NAN","NAN","NAN","NAN","NAN"],
    [1558833,"2026-06-18 22:30:00","59823","1.631","75.85","2.777","61.45","NAN","NAN","NAN","NAN","NAN"],
    [1558834,"2026-06-18 22:40:00","59824","1.3130000000000002","80.5","3.267","69.73","NAN","NAN","NAN","NAN","NAN"],
    [1558835,"2026-06-18 22:50:00","59825","1.6580000000000001","66.71","3.985","66.28","NAN","NAN","NAN","NAN","NAN"],
    [1558836,"2026-06-18 23:00:00","59826","1.874","57.71","4.737","56.56","NAN","NAN","NAN","NAN","NAN"],
    [1558837,"2026-06-18 23:10:00","59827","1.899","43.11","3.234","35.48","NAN","NAN","NAN","NAN","NAN"],
    [1558838,"2026-06-18 23:20:00","59828","2.76","37.79","3.92","38.13","NAN","NAN","NAN","NAN","NAN"],
    [1558839,"2026-06-18 23:30:00","59829","1.65","42.57","2.809","35.05","NAN","NAN","NAN","NAN","NAN"],
    [1558840,"2026-06-18 23:40:00","59830","1.186","44.24","2.875","51.83","NAN","NAN","NAN","NAN","NAN"],
    [1558841,"2026-06-18 23:50:00","59831","1.246","30.92","2.352","34.65","NAN","NAN","NAN","NAN","NAN"],
    [1558842,"2026-06-19 00:00:00","59832","1.163","42.79","2.254","48.01","NAN","NAN","NAN","NAN","NAN"],
    [1558843,"2026-06-19 00:10:00","59833","0.7","38.32","2.711","40.47","NAN","NAN","NAN","NAN","NAN"],
    [1558844,"2026-06-19 00:20:00","59834","1.609","58.68","3.724","84.9","NAN","NAN","NAN","NAN","NAN"],
    [1558845,"2026-06-19 00:30:00","59835","2.88","89.3","5.031","62.41","NAN","NAN","NAN","NAN","NAN"],
    [1558846,"2026-06-19 00:40:00","59836","2.9010000000000002","83.5","4.965","78.8","NAN","NAN","NAN","NAN","NAN"],
    [1558847,"2026-06-19 00:50:00","59837","3.799","80.2","5.978","71.46","NAN","NAN","NAN","NAN","NAN"],
    [1558848,"2026-06-19 01:00:00","59838","2.623","43.78","4.671","51.88","NAN","NAN","NAN","NAN","NAN"],
    [1558849,"2026-06-19 01:10:00","59839","1.42","34.13","3.005","36.27","NAN","NAN","NAN","NAN","NAN"],
    [1558850,"2026-06-19 01:20:00","59840","0.997","45.88","2.025","35.48","NAN","NAN","NAN","NAN","NAN"],
    [1558851,"2026-06-19 01:30:00","59841","1.595","54.91","3.397","46.41","NAN","NAN","NAN","NAN","NAN"],
    [1558852,"2026-06-19 01:40:00","59842","0.662","56.06","2.417","42.36","NAN","NAN","NAN","NAN","NAN"],
    [1558853,"2026-06-19 01:50:00","59843","1.175","41.62","2.646","39.22","NAN","NAN","NAN","NAN","NAN"],
    [1558854,"2026-06-19 02:00:00","59844","1.515","42.54","3.005","47.41","NAN","NAN","NAN","NAN","NAN"],
    [1558855,"2026-06-19 02:10:00","59845","1.624","62.86","3.103","83.2","NAN","NAN","NAN","NAN","NAN"],
    [1558856,"2026-06-19 02:20:00","59846","1.675","78.27","3.659","85.5","NAN","NAN","NAN","NAN","NAN"],
    [1558857,"2026-06-19 02:30:00","59847","2.444","66.39","4.018","89.1","NAN","NAN","NAN","NAN","NAN"],
    [1558858,"2026-06-19 02:40:00","59848","1.92","52.62","4.181","43.44","NAN","NAN","NAN","NAN","NAN"],
    [1558859,"2026-06-19 02:50:00","59849","1.89","54.67","3.691","43.1","NAN","NAN","NAN","NAN","NAN"],
    [1558860,"2026-06-19 03:00:00","59850","1.389","43.78","3.234","42.49","NAN","NAN","NAN","NAN","NAN"],
    [1558861,"2026-06-19 03:10:00","59851","0.866","46.39","2.973","38.02","NAN","NAN","NAN","NAN","NAN"],
    [1558862,"2026-06-19 03:20:00","59852","2.298","44.54","3.953","37.57","NAN","NAN","NAN","NAN","NAN"],
    [1558863,"2026-06-19 03:30:00","59853","1.544","37.42","3.691","32.77","NAN","NAN","NAN","NAN","NAN"],
    [1558864,"2026-06-19 03:40:00","59854","1.234","50.75","3.234","53.71","NAN","NAN","NAN","NAN","NAN"],
    [1558865,"2026-06-19 03:50:00","59855","1.837","59.35","4.214","50.35","NAN","NAN","NAN","NAN","NAN"],
    [1558866,"2026-06-19 04:00:00","59856","1.6380000000000001","59.26","3.267","62.46","NAN","NAN","NAN","NAN","NAN"],
    [1558867,"2026-06-19 04:10:00","59857","1.1059999999999999","54.41","2.221","66.43","NAN","NAN","NAN","NAN","NAN"],
    [1558868,"2026-06-19 04:20:00","59858","1.347","44.32","2.809","41.92","NAN","NAN","NAN","NAN","NAN"],
    [1558869,"2026-06-19 04:30:00","59859","0.415","40.76","1.666","41.05","NAN","NAN","NAN","NAN","NAN"],
    [1558870,"2026-06-19 04:40:00","59860","0.48100000000000004","38.93","1.633","38.07","NAN","NAN","NAN","NAN","NAN"],
    [1558871,"2026-06-19 04:50:00","59861","1.035","36.78","1.993","37.05","NAN","NAN","NAN","NAN","NAN"],
    [1558872,"2026-06-19 05:00:00","59862","1.2309999999999999","34.37","2.613","34.31","NAN","NAN","NAN","NAN","NAN"],
    [1558873,"2026-06-19 05:10:00","59863","1.364","32.14","2.907","30.75","NAN","NAN","NAN","NAN","NAN"],
    [1558874,"2026-06-19 05:20:00","59864","1.266","27.38","2.287","25.81","NAN","NAN","NAN","NAN","NAN"],
    [1558875,"2026-06-19 05:30:00","59865","1.092","29.8","2.156","26.16","NAN","NAN","NAN","NAN","NAN"],
    [1558876,"2026-06-19 05:40:00","59866","1.32","24.51","2.809","24.37","NAN","NAN","NAN","NAN","NAN"],
    [1558877,"2026-06-19 05:50:00","59867","1.3980000000000001","19.24","2.319","22.28","NAN","NAN","NAN","NAN","NAN"],
    [1558878,"2026-06-19 06:00:00","59868","1.58","22.96","2.842","28.78","NAN","NAN","NAN","NAN","NAN"],
    [1558879,"2026-06-19 06:10:00","59869","1.097","33.27","2.221","27.1","NAN","NAN","NAN","NAN","NAN"],
    [1558880,"2026-06-19 06:20:00","59870","0.816","36.73","2.091","38.93","NAN","NAN","NAN","NAN","NAN"],
    [1558881,"2026-06-19 06:30:00","59871","1.053","43.34","2.123","45.95","NAN","NAN","NAN","NAN","NAN"],
    [1558882,"2026-06-19 06:40:00","59872","1.1","54.94","3.201","53.6","NAN","NAN","NAN","NAN","NAN"],
    [1558883,"2026-06-19 06:50:00","59873","2.095","69.4","4.247","67.11","NAN","NAN","NAN","NAN","NAN"],
    [1558884,"2026-06-19 07:00:00","59874","1.935","88.2","3.005","86.9","NAN","NAN","NAN","NAN","NAN"],
    [1558885,"2026-06-19 07:10:00","59875","2.113","84.7","4.116","96.1","NAN","NAN","NAN","NAN","NAN"],
    [1558886,"2026-06-19 07:20:00","59876","2.932","80.1","5.292","74.75","NAN","NAN","NAN","NAN","NAN"],
    [1558887,"2026-06-19 07:30:00","59877","2.952","75.66","5.488","77.59","NAN","NAN","NAN","NAN","NAN"],
    [1558888,"2026-06-19 07:40:00","59878","3.128","79.04","5.129","72.4","NAN","NAN","NAN","NAN","NAN"],
    [1558889,"2026-06-19 07:50:00","59879","3.333","99.2","5.488","96.5","NAN","NAN","NAN","NAN","NAN"],
    [1558890,"2026-06-19 08:00:00","59880","3.575","93.3","6.239","79.04","NAN","NAN","NAN","NAN","NAN"],
    [1558891,"2026-06-19 08:10:00","59881","3.0180000000000002","95.0","5.161","104.2","NAN","NAN","NAN","NAN","NAN"],
    [1558892,"2026-06-19 08:20:00","59882","3.345","95.5","5.586","84.7","NAN","NAN","NAN","NAN","NAN"],
    [1558893,"2026-06-19 08:30:00","59883","3.512","101.5","6.501","95.3","NAN","NAN","NAN","NAN","NAN"],
    [1558894,"2026-06-19 08:40:00","59884","3.681","94.0","6.435","92.3","NAN","NAN","NAN","NAN","NAN"],
    [1558895,"2026-06-19 08:50:00","59885","3.028","88.5","5.357","92","NAN","NAN","NAN","NAN","NAN"],
    [1558896,"2026-06-19 09:00:00","59886","3.222","88.3","5.782","74.85","NAN","NAN","NAN","NAN","NAN"],
    [1558897,"2026-06-19 09:10:00","59887","3.036","72.11","5.423","88.3","NAN","NAN","NAN","NAN","NAN"],
    [1558898,"2026-06-19 09:20:00","59888","3.003","62.23","5.913","77.43","NAN","NAN","NAN","NAN","NAN"],
    [1558899,"2026-06-19 09:30:00","59889","2.61","71.08","5.129","90.8","NAN","NAN","NAN","NAN","NAN"],
    [1558900,"2026-06-19 09:40:00","59890","2.399","77.92","4.933","59.42","NAN","NAN","NAN","NAN","NAN"],
    [1558901,"2026-06-19 09:50:00","59891","3.492","82.7","6.403","82","NAN","NAN","NAN","NAN","NAN"],
    [1558902,"2026-06-19 10:00:00","59892","3.486","85.9","6.599","89.7","NAN","NAN","NAN","NAN","NAN"],
    [1558903,"2026-06-19 10:10:00","59893","3.343","82.8","5.325","94.9","NAN","NAN","NAN","NAN","NAN"],
    [1558904,"2026-06-19 10:20:00","59894","3.156","88.4","5.782","52.26","NAN","NAN","NAN","NAN","NAN"],
    [1558905,"2026-06-19 10:30:00","59895","3.4419999999999997","80.7","6.37","77.78","NAN","NAN","NAN","NAN","NAN"],
    [1558906,"2026-06-19 10:40:00","59896","3.008","82.9","5.39","97.6","NAN","NAN","NAN","NAN","NAN"],
    [1558907,"2026-06-19 10:50:00","59897","2.8680000000000003","70.21","5.684","72.05","NAN","NAN","NAN","NAN","NAN"],
    [1558908,"2026-06-19 11:00:00","59898","3.7739999999999996","86.2","5.423","88.3","NAN","NAN","NAN","NAN","NAN"],
    [1558909,"2026-06-19 11:10:00","59899","4.293","88.2","5.88","92.5","NAN","NAN","NAN","NAN","NAN"],
    [1558910,"2026-06-19 11:20:00","59900","3.3339999999999996","92.0","6.076","94.9","NAN","NAN","NAN","NAN","NAN"],
    [1558911,"2026-06-19 11:30:00","59901","4.169","87.5","6.533","87.5","NAN","NAN","NAN","NAN","NAN"],
    [1558912,"2026-06-19 11:40:00","59902","4.228","85.4","6.697","83.5","NAN","NAN","NAN","NAN","NAN"],
    [1558913,"2026-06-19 11:50:00","59903","4.488","84.7","7.154","91.4","NAN","NAN","NAN","NAN","NAN"],
    [1558914,"2026-06-19 12:00:00","59904","4.185","89.5","6.827","89.2","NAN","NAN","NAN","NAN","NAN"],
    [1558915,"2026-06-19 12:10:00","59905","4.013999999999999","95.7","6.337","87.6","NAN","NAN","NAN","NAN","NAN"],
    [1558916,"2026-06-19 12:20:00","59906","4.301","92.8","7.056","79.32","NAN","NAN","NAN","NAN","NAN"],
    [1558917,"2026-06-19 12:30:00","59907","4.662","91.2","6.958","90.6","NAN","NAN","NAN","NAN","NAN"],
    [1558918,"2026-06-19 12:40:00","59908","4.591","86.0","6.893","83.1","NAN","NAN","NAN","NAN","NAN"],
    [1558919,"2026-06-19 12:50:00","59909","4.149","88.8","6.435","95","NAN","NAN","NAN","NAN","NAN"],
    [1558920,"2026-06-19 13:00:00","59910","4.043","88.6","6.664","89.1","NAN","NAN","NAN","NAN","NAN"],
    [1558921,"2026-06-19 13:10:00","59911","3.125","91.6","5.161","92.3","NAN","NAN","NAN","NAN","NAN"],
    [1558922,"2026-06-19 13:20:00","59912","2.963","70.62","6.109","79.98","NAN","NAN","NAN","NAN","NAN"],
    [1558923,"2026-06-19 13:30:00","59913","3.61","62.76","7.023","51.82","NAN","NAN","NAN","NAN","NAN"],
    [1558924,"2026-06-19 13:40:00","59914","3.045","57.56","5.553","52.34","NAN","NAN","NAN","NAN","NAN"],
    [1558925,"2026-06-19 13:50:00","59915","3.22","66.41","6.043","63.25","NAN","NAN","NAN","NAN","NAN"],
    [1558926,"2026-06-19 14:00:00","59916","3.3760000000000003","82.1","6.207","59.76","NAN","NAN","NAN","NAN","NAN"],
    [1558927,"2026-06-19 14:10:00","59917","3.069","68.56","5.847","37","NAN","NAN","NAN","NAN","NAN"],
    [1558928,"2026-06-19 14:20:00","59918","2.986","69.35","5.717","45.57","NAN","NAN","NAN","NAN","NAN"],
    [1558929,"2026-06-19 14:30:00","59919","2.878","74.43","6.239","73.64","NAN","NAN","NAN","NAN","NAN"],
    [1558930,"2026-06-19 14:40:00","59920","3.57","75.55","6.86","97.6","NAN","NAN","NAN","NAN","NAN"],
    [1558931,"2026-06-19 14:50:00","59921","3.2710000000000004","62.24","6.109","22.77","NAN","NAN","NAN","NAN","NAN"],
    [1558932,"2026-06-19 15:00:00","59922","3.404","62.7","6.37","63.32","NAN","NAN","NAN","NAN","NAN"],
    [1558933,"2026-06-19 15:10:00","59923","3.885","82.4","6.86","88.5","NAN","NAN","NAN","NAN","NAN"],
    [1558934,"2026-06-19 15:20:00","59924","3.637","76.07","7.481","87.4","NAN","NAN","NAN","NAN","NAN"],
    [1558935,"2026-06-19 15:30:00","59925","3.6889999999999996","88.1","6.827","99.3","NAN","NAN","NAN","NAN","NAN"],
    [1558936,"2026-06-19 15:40:00","59926","3.542","83.0","6.305","99.7","NAN","NAN","NAN","NAN","NAN"],
    [1558937,"2026-06-19 15:50:00","59927","3.22","76.74","5.455","87.3","NAN","NAN","NAN","NAN","NAN"],
    [1558938,"2026-06-19 16:00:00","59928","3.668","81.5","6.631","78.41","NAN","NAN","NAN","NAN","NAN"],
    [1558939,"2026-06-19 16:10:00","59929","3.2560000000000002","75.68","5.259","98","NAN","NAN","NAN","NAN","NAN"],
    [1558940,"2026-06-19 16:20:00","59930","3.161","72.79","6.272","38.2","NAN","NAN","NAN","NAN","NAN"],
    [1558941,"2026-06-19 16:30:00","59931","2.8080000000000003","63.35","5.521","69.44","NAN","NAN","NAN","NAN","NAN"],
    [1558942,"2026-06-19 16:40:00","59932","2.842","71.58","4.704","78.56","NAN","NAN","NAN","NAN","NAN"],
    [1558943,"2026-06-19 16:50:00","59933","3.534","86.1","6.011","97.6","NAN","NAN","NAN","NAN","NAN"],
    [1558944,"2026-06-19 17:00:00","59934","3.139","89.4","5.782","100","NAN","NAN","NAN","NAN","NAN"],
    [1558945,"2026-06-19 17:10:00","59935","3.194","85.8","6.501","99.6","NAN","NAN","NAN","NAN","NAN"],
    [1558946,"2026-06-19 17:20:00","59936","2.657","83.0","5.488","102.6","NAN","NAN","NAN","NAN","NAN"],
    [1558947,"2026-06-19 17:30:00","59937","3.33","89.1","5.063","89.4","NAN","NAN","NAN","NAN","NAN"],
    [1558948,"2026-06-19 17:40:00","59938","2.929","78.19","5.39","92","NAN","NAN","NAN","NAN","NAN"],
    [1558949,"2026-06-19 17:50:00","59939","2.45","67.59","5.913","51.83","NAN","NAN","NAN","NAN","NAN"],
    [1558950,"2026-06-19 18:00:00","59940","2.989","70.26","5.292","46.99","NAN","NAN","NAN","NAN","NAN"],
    [1558951,"2026-06-19 18:10:00","59941","3.19","55.18","5.39","61.8","NAN","NAN","NAN","NAN","NAN"],
    [1558952,"2026-06-19 18:20:00","59942","2.614","69.44","4.606","65.1","NAN","NAN","NAN","NAN","NAN"],
    [1558953,"2026-06-19 18:30:00","59943","3.08","60.89","6.076","43.14","NAN","NAN","NAN","NAN","NAN"],
    [1558954,"2026-06-19 18:40:00","59944","3.535","59.41","6.599","42.58","NAN","NAN","NAN","NAN","NAN"],
    [1558955,"2026-06-19 18:50:00","59945","3.32","59.5","6.272","64.07","NAN","NAN","NAN","NAN","NAN"],
    [1558956,"2026-06-19 19:00:00","59946","3.722","58.91","6.664","63.9","NAN","NAN","NAN","NAN","NAN"],
    [1558957,"2026-06-19 19:10:00","59947","2.858","72.09","5.325","61.7","NAN","NAN","NAN","NAN","NAN"],
    [1558958,"2026-06-19 19:20:00","59948","2.6510000000000002","65.37","5.521","48.36","NAN","NAN","NAN","NAN","NAN"],
    [1558959,"2026-06-19 19:30:00","59949","2.105","72.16","4.475","85.9","NAN","NAN","NAN","NAN","NAN"],
    [1558960,"2026-06-19 19:40:00","59950","2.662","78.46","5.292","85.8","NAN","NAN","NAN","NAN","NAN"],
    [1558961,"2026-06-19 19:50:00","59951","2.499","80.8","4.998","79.75","NAN","NAN","NAN","NAN","NAN"],
    [1558962,"2026-06-19 20:00:00","59952","2.291","67.43","4.835","57.37","NAN","NAN","NAN","NAN","NAN"],
    [1558963,"2026-06-19 20:10:00","59953","2.204","57.2","4.933","51.48","NAN","NAN","NAN","NAN","NAN"],
    [1558964,"2026-06-19 20:20:00","59954","2.588","67.56","5.292","62.43","NAN","NAN","NAN","NAN","NAN"],
    [1558965,"2026-06-19 20:30:00","59955","1.797","66.64","4.214","31.75","NAN","NAN","NAN","NAN","NAN"],
    [1558966,"2026-06-19 20:40:00","59956","2.289","64.36","5.129","63.99","NAN","NAN","NAN","NAN","NAN"],
    [1558967,"2026-06-19 20:50:00","59957","2.546","62.63","4.704","39.11","NAN","NAN","NAN","NAN","NAN"],
    [1558968,"2026-06-19 21:00:00","59958","2.6239999999999997","63.37","4.606","62.07","NAN","NAN","NAN","NAN","NAN"],
    [1558969,"2026-06-19 21:10:00","59959","2.739","58.05","4.704","43.35","NAN","NAN","NAN","NAN","NAN"],
    [1558970,"2026-06-19 21:20:00","59960","2.17","64.31","4.475","76.38","NAN","NAN","NAN","NAN","NAN"],
    [1558971,"2026-06-19 21:30:00","59961","2.737","60.04","5.619","58.35","NAN","NAN","NAN","NAN","NAN"],
    [1558972,"2026-06-19 21:40:00","59962","1.963","60.8","3.724","42.8","NAN","NAN","NAN","NAN","NAN"],
    [1558973,"2026-06-19 21:50:00","59963","2.546","59.02","5.063","51.48","NAN","NAN","NAN","NAN","NAN"],
    [1558974,"2026-06-19 22:00:00","59964","2.189","67.91","5.161","31.72","NAN","NAN","NAN","NAN","NAN"],
    [1558975,"2026-06-19 22:10:00","59965","2.0469999999999997","67.97","4.41","62.22","NAN","NAN","NAN","NAN","NAN"],
    [1558976,"2026-06-19 22:20:00","59966","2.522","56.93","5.096","46.7","NAN","NAN","NAN","NAN","NAN"],
    [1558977,"2026-06-19 22:30:00","59967","2.165","62.69","4.802","63","NAN","NAN","NAN","NAN","NAN"],
    [1558978,"2026-06-19 22:40:00","59968","1.597","61.91","2.842","69.68","NAN","NAN","NAN","NAN","NAN"],
    [1558979,"2026-06-19 22:50:00","59969","2.097","67.61","4.835","69.77","NAN","NAN","NAN","NAN","NAN"],
    [1558980,"2026-06-19 23:00:00","59970","2.181","55.85","4.508","44.16","NAN","NAN","NAN","NAN","NAN"],
    [1558981,"2026-06-19 23:10:00","59971","2.408","56.85","4.475","57.12","NAN","NAN","NAN","NAN","NAN"],
    [1558982,"2026-06-19 23:20:00","59972","2.38","62.3","4.508","59.37","NAN","NAN","NAN","NAN","NAN"],
    [1558983,"2026-06-19 23:30:00","59973","2.3369999999999997","52.78","4.149","33.06","NAN","NAN","NAN","NAN","NAN"],
    [1558984,"2026-06-19 23:40:00","59974","2.503","49.15","4.541","37.01","NAN","NAN","NAN","NAN","NAN"],
    [1558985,"2026-06-19 23:50:00","59975","2.1319999999999997","59.59","4.573","89.1","NAN","NAN","NAN","NAN","NAN"],
    [1558986,"2026-06-20 00:00:00","59976","2.957","35.73","5.194","36.4","NAN","NAN","NAN","NAN","NAN"],
    [1558987,"2026-06-20 00:10:00","59977","2.53","38.51","3.953","34.83","NAN","NAN","NAN","NAN","NAN"],
    [1558988,"2026-06-20 00:20:00","59978","2.571","40.64","4.541","38.76","NAN","NAN","NAN","NAN","NAN"],
    [1558989,"2026-06-20 00:30:00","59979","2.145","58.03","3.985","49.79","NAN","NAN","NAN","NAN","NAN"],
    [1558990,"2026-06-20 00:40:00","59980","1.935","64.98","3.985","55.13","NAN","NAN","NAN","NAN","NAN"],
    [1558991,"2026-06-20 00:50:00","59981","1.885","55.16","3.887","66.14","NAN","NAN","NAN","NAN","NAN"],
    [1558992,"2026-06-20 01:00:00","59982","2.1069999999999998","64.5","3.953","62.01","NAN","NAN","NAN","NAN","NAN"],
    [1558993,"2026-06-20 01:10:00","59983","2.116","55.32","4.312","53.76","NAN","NAN","NAN","NAN","NAN"],
    [1558994,"2026-06-20 01:20:00","59984","1.949","44.18","3.495","36.11","NAN","NAN","NAN","NAN","NAN"],
    [1558995,"2026-06-20 01:30:00","59985","1.984","31.83","4.051","27.67","NAN","NAN","NAN","NAN","NAN"],
    [1558996,"2026-06-20 01:40:00","59986","1.591","23.11","2.777","19.97","NAN","NAN","NAN","NAN","NAN"],
    [1558997,"2026-06-20 01:50:00","59987","1.409","23.68","2.515","24.06","NAN","NAN","NAN","NAN","NAN"],
    [1558998,"2026-06-20 02:00:00","59988","1.885","38.1","3.626","38.29","NAN","NAN","NAN","NAN","NAN"],
    [1558999,"2026-06-20 02:10:00","59989","1.41","26.0","2.842","28.8","NAN","NAN","NAN","NAN","NAN"],
    [1559000,"2026-06-20 02:20:00","59990","1.515","20.02","2.319","27.6","NAN","NAN","NAN","NAN","NAN"],
    [1559001,"2026-06-20 02:30:00","59991","1.7890000000000001","25.28","3.071","20.1","NAN","NAN","NAN","NAN","NAN"],
    [1559002,"2026-06-20 02:40:00","59992","1.7409999999999999","34.65","3.071","23.53","NAN","NAN","NAN","NAN","NAN"],
    [1559003,"2026-06-20 02:50:00","59993","1.9680000000000002","43.59","4.769","55.15","NAN","NAN","NAN","NAN","NAN"],
    [1559004,"2026-06-20 03:00:00","59994","1.9769999999999999","43.54","3.789","38.05","NAN","NAN","NAN","NAN","NAN"],
    [1559005,"2026-06-20 03:10:00","59995","2.029","46.3","3.495","34.59","NAN","NAN","NAN","NAN","NAN"],
    [1559006,"2026-06-20 03:20:00","59996","2.311","47.93","4.051","37.73","NAN","NAN","NAN","NAN","NAN"],
    [1559007,"2026-06-20 03:30:00","59997","1.723","51.46","3.071","42.97","NAN","NAN","NAN","NAN","NAN"],
    [1559008,"2026-06-20 03:40:00","59998","2.217","35.2","4.377","31.64","NAN","NAN","NAN","NAN","NAN"],
    [1559009,"2026-06-20 03:50:00","59999","2.012","40.98","3.822","32.65","NAN","NAN","NAN","NAN","NAN"],
    [1559010,"2026-06-20 04:00:00","60000","2.456","44.05","4.247","44.23","NAN","NAN","NAN","NAN","NAN"],
    [1559011,"2026-06-20 04:10:00","60001","2.217","48.68","4.051","40.21","NAN","NAN","NAN","NAN","NAN"],
    [1559012,"2026-06-20 04:20:00","60002","2.012","44.01","3.528","32.39","NAN","NAN","NAN","NAN","NAN"],
    [1559013,"2026-06-20 04:30:00","60003","1.746","47.54","3.332","45.22","NAN","NAN","NAN","NAN","NAN"],
    [1559014,"2026-06-20 04:40:00","60004","2.0669999999999997","40.92","3.332","27.96","NAN","NAN","NAN","NAN","NAN"],
    [1559015,"2026-06-20 04:50:00","60005","1.879","42.72","3.626","31.26","NAN","NAN","NAN","NAN","NAN"],
    [1559016,"2026-06-20 05:00:00","60006","2.063","38.42","2.907","52.09","NAN","NAN","NAN","NAN","NAN"],
    [1559017,"2026-06-20 05:10:00","60007","1.436","35.24","2.581","37.4","NAN","NAN","NAN","NAN","NAN"],
    [1559018,"2026-06-20 05:20:00","60008","1.619","46.99","3.299","38.73","NAN","NAN","NAN","NAN","NAN"],
    [1559019,"2026-06-20 05:30:00","60009","1.54","48.46","3.397","53.37","NAN","NAN","NAN","NAN","NAN"],
    [1559020,"2026-06-20 05:40:00","60010","1.646","45.48","3.038","37.07","NAN","NAN","NAN","NAN","NAN"],
    [1559021,"2026-06-20 05:50:00","60011","1.666","51.7","2.907","39.46","NAN","NAN","NAN","NAN","NAN"],
    [1559022,"2026-06-20 06:00:00","60012","1.882","51.77","3.757","40.44","NAN","NAN","NAN","NAN","NAN"],
    [1559023,"2026-06-20 06:10:00","60013","1.489","56.93","2.94","61.12","NAN","NAN","NAN","NAN","NAN"],
    [1559024,"2026-06-20 06:20:00","60014","2.214","47.81","4.541","36.5","NAN","NAN","NAN","NAN","NAN"],
    [1559025,"2026-06-20 06:30:00","60015","2.263","45.79","4.214","36.71","NAN","NAN","NAN","NAN","NAN"],
    [1559026,"2026-06-20 06:40:00","60016","1.9409999999999998","65.0","4.018","72.05","NAN","NAN","NAN","NAN","NAN"],
    [1559027,"2026-06-20 06:50:00","60017","1.8730000000000002","68.39","4.181","68.32","NAN","NAN","NAN","NAN","NAN"],
    [1559028,"2026-06-20 07:00:00","60018","2.131","64.81","4.279","43.76","NAN","NAN","NAN","NAN","NAN"],
    [1559029,"2026-06-20 07:10:00","60019","2.176","73.25","4.737","76.86","NAN","NAN","NAN","NAN","NAN"],
    [1559030,"2026-06-20 07:20:00","60020","2.6489999999999996","84.4","4.769","89.2","NAN","NAN","NAN","NAN","NAN"],
    [1559031,"2026-06-20 07:30:00","60021","2.051","71.79","4.573","94.7","NAN","NAN","NAN","NAN","NAN"],
    [1559032,"2026-06-20 07:40:00","60022","2.8","85.8","5.129","105.9","NAN","NAN","NAN","NAN","NAN"],
    [1559033,"2026-06-20 07:50:00","60023","3.568","88.5","6.566","79.25","NAN","NAN","NAN","NAN","NAN"],
    [1559034,"2026-06-20 08:00:00","60024","3.762","91.0","5.586","83","NAN","NAN","NAN","NAN","NAN"],
    [1559035,"2026-06-20 08:10:00","60025","2.122","89.1","4.181","83.9","NAN","NAN","NAN","NAN","NAN"],
    [1559036,"2026-06-20 08:20:00","60026","3.7760000000000002","87.5","6.109","89.8","NAN","NAN","NAN","NAN","NAN"],
    [1559037,"2026-06-20 08:30:00","60027","3.8280000000000003","86.1","5.619","74.08","NAN","NAN","NAN","NAN","NAN"],
    [1559038,"2026-06-20 08:40:00","60028","3.516","80.5","5.455","76.67","NAN","NAN","NAN","NAN","NAN"],
    [1559039,"2026-06-20 08:50:00","60029","3.523","78.72","4.9","75.84","NAN","NAN","NAN","NAN","NAN"],
    [1559040,"2026-06-20 09:00:00","60030","3.179","86.7","4.9","93.9","NAN","NAN","NAN","NAN","NAN"],
    [1559041,"2026-06-20 09:10:00","60031","4.127","82.7","5.717","79.99","NAN","NAN","NAN","NAN","NAN"],
    [1559042,"2026-06-20 09:20:00","60032","4.306","77.98","6.174","86.3","NAN","NAN","NAN","NAN","NAN"],
    [1559043,"2026-06-20 09:30:00","60033","3.022","77.8","5.749","65.43","NAN","NAN","NAN","NAN","NAN"],
    [1559044,"2026-06-20 09:40:00","60034","2.592","81.0","4.704","61.38","NAN","NAN","NAN","NAN","NAN"],
    [1559045,"2026-06-20 09:50:00","60035","2.399","76.03","4.443","55.94","NAN","NAN","NAN","NAN","NAN"],
    [1559046,"2026-06-20 10:00:00","60036","2.465","68.64","4.149","37.71","NAN","NAN","NAN","NAN","NAN"],
    [1559047,"2026-06-20 10:10:00","60037","2.474","75.66","4.214","83.6","NAN","NAN","NAN","NAN","NAN"],
    [1559048,"2026-06-20 10:20:00","60038","2.182","77.48","3.463","71.95","NAN","NAN","NAN","NAN","NAN"],
    [1559049,"2026-06-20 10:30:00","60039","2.07","82.7","3.038","83.5","NAN","NAN","NAN","NAN","NAN"],
    [1559050,"2026-06-20 10:40:00","60040","2.129","78.09","3.365","85.3","NAN","NAN","NAN","NAN","NAN"],
    [1559051,"2026-06-20 10:50:00","60041","1.742","60.13","3.365","74.06","NAN","NAN","NAN","NAN","NAN"],
    [1559052,"2026-06-20 11:00:00","60042","2.041","69.23","3.659","82.3","NAN","NAN","NAN","NAN","NAN"],
    [1559053,"2026-06-20 11:10:00","60043","2.948","77.01","4.051","85.9","NAN","NAN","NAN","NAN","NAN"],
    [1559054,"2026-06-20 11:20:00","60044","3.39","92.3","4.965","97.9","NAN","NAN","NAN","NAN","NAN"],
    [1559055,"2026-06-20 11:30:00","60045","3.4960000000000004","79.64","5.063","72.71","NAN","NAN","NAN","NAN","NAN"],
    [1559056,"2026-06-20 11:40:00","60046","3.358","80.2","4.802","83.3","NAN","NAN","NAN","NAN","NAN"],
    [1559057,"2026-06-20 11:50:00","60047","2.63","82.2","4.508","87.4","NAN","NAN","NAN","NAN","NAN"],
    [1559058,"2026-06-20 12:00:00","60048","2.695","77.23","4.083","79.17","NAN","NAN","NAN","NAN","NAN"],
    [1559059,"2026-06-20 12:10:00","60049","2.6860000000000004","85.6","4.933","92.9","NAN","NAN","NAN","NAN","NAN"],
    [1559060,"2026-06-20 12:20:00","60050","3.201","88.1","5.717","67.65","NAN","NAN","NAN","NAN","NAN"],
    [1559061,"2026-06-20 12:30:00","60051","2.6719999999999997","85.3","5.586","79.64","NAN","NAN","NAN","NAN","NAN"],
    [1559062,"2026-06-20 12:40:00","60052","2.964","91.1","4.639","90.2","NAN","NAN","NAN","NAN","NAN"],
    [1559063,"2026-06-20 12:50:00","60053","3.142","92.5","4.769","100.7","NAN","NAN","NAN","NAN","NAN"],
    [1559064,"2026-06-20 13:00:00","60054","2.8989999999999996","93.4","5.488","104.7","NAN","NAN","NAN","NAN","NAN"],
    [1559065,"2026-06-20 13:10:00","60055","3.409","88.7","4.835","65.71","NAN","NAN","NAN","NAN","NAN"],
    [1559066,"2026-06-20 13:20:00","60056","2.8930000000000002","83.6","5.031","75.53","NAN","NAN","NAN","NAN","NAN"],
    [1559067,"2026-06-20 13:30:00","60057","3.491","88.8","5.259","102","NAN","NAN","NAN","NAN","NAN"],
    [1559068,"2026-06-20 13:40:00","60058","3.427","93.3","5.619","101.2","NAN","NAN","NAN","NAN","NAN"],
    [1559069,"2026-06-20 13:50:00","60059","3.574","91.0","5.586","93.7","NAN","NAN","NAN","NAN","NAN"],
    [1559070,"2026-06-20 14:00:00","60060","3.755","97.3","6.011","101.1","NAN","NAN","NAN","NAN","NAN"],
    [1559071,"2026-06-20 14:10:00","60061","3.8539999999999996","94.7","5.782","90.8","NAN","NAN","NAN","NAN","NAN"],
    [1559072,"2026-06-20 14:20:00","60062","4.431","92.7","6.501","94.1","NAN","NAN","NAN","NAN","NAN"],
    [1559073,"2026-06-20 14:30:00","60063","3.5180000000000002","87.5","5.978","85.3","NAN","NAN","NAN","NAN","NAN"],
    [1559074,"2026-06-20 14:40:00","60064","4.003","90.6","6.272","96.4","NAN","NAN","NAN","NAN","NAN"],
    [1559075,"2026-06-20 14:50:00","60065","3.2030000000000003","81.0","5.292","67.16","NAN","NAN","NAN","NAN","NAN"],
    [1559076,"2026-06-20 15:00:00","60066","3.8819999999999997","82.3","6.109","65.12","NAN","NAN","NAN","NAN","NAN"],
    [1559077,"2026-06-20 15:10:00","60067","3.967","72.65","5.88","74.5","NAN","NAN","NAN","NAN","NAN"],
    [1559078,"2026-06-20 15:20:00","60068","3.9760000000000004","72.12","6.043","70.19","NAN","NAN","NAN","NAN","NAN"],
    [1559079,"2026-06-20 15:30:00","60069","3.6660000000000004","72.66","5.619","73.29","NAN","NAN","NAN","NAN","NAN"],
    [1559080,"2026-06-20 15:40:00","60070","3.145","70.93","4.933","78.48","NAN","NAN","NAN","NAN","NAN"],
    [1559081,"2026-06-20 15:50:00","60071","2.983","58.8","5.847","63.71","NAN","NAN","NAN","NAN","NAN"],
    [1559082,"2026-06-20 16:00:00","60072","2.748","63.23","5.553","62.96","NAN","NAN","NAN","NAN","NAN"],
    [1559083,"2026-06-20 16:10:00","60073","2.557","70.39","5.259","86.9","NAN","NAN","NAN","NAN","NAN"],
    [1559084,"2026-06-20 16:20:00","60074","2.585","69.88","5.259","27.77","NAN","NAN","NAN","NAN","NAN"],
    [1559085,"2026-06-20 16:30:00","60075","2.329","64.32","5.423","87.3","NAN","NAN","NAN","NAN","NAN"],
    [1559086,"2026-06-20 16:40:00","60076","2.948","72.96","4.835","55.64","NAN","NAN","NAN","NAN","NAN"],
    [1559087,"2026-06-20 16:50:00","60077","2.645","75.13","4.671","36.59","NAN","NAN","NAN","NAN","NAN"],
    [1559088,"2026-06-20 17:00:00","60078","3.457","82.7","6.207","85.9","NAN","NAN","NAN","NAN","NAN"],
    [1559089,"2026-06-20 17:10:00","60079","2.985","78.01","5.161","80.7","NAN","NAN","NAN","NAN","NAN"],
    [1559090,"2026-06-20 17:20:00","60080","3.218","86.1","5.815","65.75","NAN","NAN","NAN","NAN","NAN"],
    [1559091,"2026-06-20 17:30:00","60081","2.38","73.03","4.769","89","NAN","NAN","NAN","NAN","NAN"],
    [1559092,"2026-06-20 17:40:00","60082","2.403","70.37","4.377","46.25","NAN","NAN","NAN","NAN","NAN"],
    [1559093,"2026-06-20 17:50:00","60083","3.332","77.87","6.925","70","NAN","NAN","NAN","NAN","NAN"],
    [1559094,"2026-06-20 18:00:00","60084","3.023","76.63","5.586","82.5","NAN","NAN","NAN","NAN","NAN"],
    [1559095,"2026-06-20 18:10:00","60085","2.495","75.55","4.639","82.4","NAN","NAN","NAN","NAN","NAN"],
    [1559096,"2026-06-20 18:20:00","60086","2.608","78.38","4.802","64.66","NAN","NAN","NAN","NAN","NAN"],
    [1559097,"2026-06-20 18:30:00","60087","1.8769999999999998","65.24","4.345","57.54","NAN","NAN","NAN","NAN","NAN"],
    [1559098,"2026-06-20 18:40:00","60088","1.673","73.5","2.973","69.45","NAN","NAN","NAN","NAN","NAN"],
    [1559099,"2026-06-20 18:50:00","60089","2.697","83.2","3.985","81.2","NAN","NAN","NAN","NAN","NAN"],
    [1559100,"2026-06-20 19:00:00","60090","2.175","78.53","4.149","72.43","NAN","NAN","NAN","NAN","NAN"],
    [1559101,"2026-06-20 19:10:00","60091","1.944","82.8","3.201","84.4","NAN","NAN","NAN","NAN","NAN"],
    [1559102,"2026-06-20 19:20:00","60092","1.6380000000000001","84.7","2.875","88.2","NAN","NAN","NAN","NAN","NAN"],
    [1559103,"2026-06-20 19:30:00","60093","2.117","83.5","3.299","74.64","NAN","NAN","NAN","NAN","NAN"],
    [1559104,"2026-06-20 19:40:00","60094","2.6710000000000003","77.78","3.887","89.1","NAN","NAN","NAN","NAN","NAN"],
    [1559105,"2026-06-20 19:50:00","60095","2.392","74.06","3.92","72.76","NAN","NAN","NAN","NAN","NAN"],
    [1559106,"2026-06-20 20:00:00","60096","1.643","75.27","2.646","77.71","NAN","NAN","NAN","NAN","NAN"],
    [1559107,"2026-06-20 20:10:00","60097","1.973","77.73","3.92","84.4","NAN","NAN","NAN","NAN","NAN"],
    [1559108,"2026-06-20 20:20:00","60098","1.776","74.93","3.038","88.5","NAN","NAN","NAN","NAN","NAN"],
    [1559109,"2026-06-20 20:30:00","60099","2.511","76.04","3.822","70.45","NAN","NAN","NAN","NAN","NAN"],
    [1559110,"2026-06-20 20:40:00","60100","3.3169999999999997","72.84","4.541","67.34","NAN","NAN","NAN","NAN","NAN"],
    [1559111,"2026-06-20 20:50:00","60101","2.7310000000000003","74.47","5.325","79.8","NAN","NAN","NAN","NAN","NAN"],
    [1559112,"2026-06-20 21:00:00","60102","1.805","72.82","3.953","68.62","NAN","NAN","NAN","NAN","NAN"],
    [1559113,"2026-06-20 21:10:00","60103","1.0070000000000001","66.69","2.385","74.94","NAN","NAN","NAN","NAN","NAN"],
    [1559114,"2026-06-20 21:20:00","60104","1.127","76.26","2.189","75.26","NAN","NAN","NAN","NAN","NAN"],
    [1559115,"2026-06-20 21:30:00","60105","0.8640000000000001","78.34","1.437","82.5","NAN","NAN","NAN","NAN","NAN"],
    [1559116,"2026-06-20 21:40:00","60106","0.257","72.36","1.078","74.14","NAN","NAN","NAN","NAN","NAN"],
    [1559117,"2026-06-20 21:50:00","60107","1.19","75.01","1.829","70.01","NAN","NAN","NAN","NAN","NAN"],
    [1559118,"2026-06-20 22:00:00","60108","1.4969999999999999","72.05","2.352","74.11","NAN","NAN","NAN","NAN","NAN"],
    [1559119,"2026-06-20 22:10:00","60109","1.52","69.5","2.287","76.84","NAN","NAN","NAN","NAN","NAN"],
    [1559120,"2026-06-20 22:20:00","60110","0.708","64.3","1.568","63.37","NAN","NAN","NAN","NAN","NAN"],
    [1559121,"2026-06-20 22:30:00","60111","0.8440000000000001","71.44","1.764","76.88","NAN","NAN","NAN","NAN","NAN"],
    [1559122,"2026-06-20 22:40:00","60112","1.574","68.99","3.038","68.7","NAN","NAN","NAN","NAN","NAN"],
    [1559123,"2026-06-20 22:50:00","60113","1.635","72.93","3.299","75.03","NAN","NAN","NAN","NAN","NAN"],
    [1559124,"2026-06-20 23:00:00","60114","1.182","60.94","2.254","59.27","NAN","NAN","NAN","NAN","NAN"],
    [1559125,"2026-06-20 23:10:00","60115","1.28","60.72","2.417","63.8","NAN","NAN","NAN","NAN","NAN"],
    [1559126,"2026-06-20 23:20:00","60116","1.1079999999999999","63.74","2.189","65.95","NAN","NAN","NAN","NAN","NAN"],
    [1559127,"2026-06-20 23:30:00","60117","0.898","65.11","2.123","80.3","NAN","NAN","NAN","NAN","NAN"],
    [1559128,"2026-06-20 23:40:00","60118","1.639","76.78","2.842","81.4","NAN","NAN","NAN","NAN","NAN"],
    [1559129,"2026-06-20 23:50:00","60119","0.13699999999999998","71.5","0.784","69.8","NAN","NAN","NAN","NAN","NAN"],
    [1559130,"2026-06-21 00:00:00","60120","0.1","53.69","0.882","40.57","NAN","NAN","NAN","NAN","NAN"],
    [1559131,"2026-06-21 00:10:00","60121","0.518","40.24","1.535","40.38","NAN","NAN","NAN","NAN","NAN"],
    [1559132,"2026-06-21 00:20:00","60122","0.013000000000000001","36.76","0.457","36.82","NAN","NAN","NAN","NAN","NAN"],
    [1559133,"2026-06-21 00:30:00","60123","0.011000000000000001","35.59","0.359","34.99","NAN","NAN","NAN","NAN","NAN"],
    [1559134,"2026-06-21 00:40:00","60124","0.253","35.93","0.915","37.94","NAN","NAN","NAN","NAN","NAN"],
    [1559135,"2026-06-21 00:50:00","60125","0.522","34.85","1.862","34.6","NAN","NAN","NAN","NAN","NAN"],
    [1559136,"2026-06-21 01:00:00","60126","0.879","45.25","1.895","34.6","NAN","NAN","NAN","NAN","NAN"],
    [1559137,"2026-06-21 01:10:00","60127","0.5820000000000001","55.96","1.699","54.4","NAN","NAN","NAN","NAN","NAN"],
    [1559138,"2026-06-21 01:20:00","60128","0.113","56.93","0.555","56.93","NAN","NAN","NAN","NAN","NAN"],
    [1559139,"2026-06-21 01:30:00","60129","0.034","57.01","0.261","57.03","NAN","NAN","NAN","NAN","NAN"],
    [1559140,"2026-06-21 01:40:00","60130","0.0","0.0","0","0","NAN","NAN","NAN","NAN","NAN"],
    [1559141,"2026-06-21 01:50:00","60131","0.165","37.5","0.588","36.81","NAN","NAN","NAN","NAN","NAN"],
    [1559142,"2026-06-21 02:00:00","60132","0.21600000000000003","35.29","0.49","35.27","NAN","NAN","NAN","NAN","NAN"],
    [1559143,"2026-06-21 02:10:00","60133","0.17600000000000002","35.23","0.653","35.27","NAN","NAN","NAN","NAN","NAN"],
    [1559144,"2026-06-21 02:20:00","60134","0.1","35.18","0.457","35.18","NAN","NAN","NAN","NAN","NAN"],
    [1559145,"2026-06-21 02:30:00","60135","0.003","35.08","0.196","35.08","NAN","NAN","NAN","NAN","NAN"],
    [1559146,"2026-06-21 02:40:00","60136","0.0","0.0","0","0","NAN","NAN","NAN","NAN","NAN"],
    [1559147,"2026-06-21 02:50:00","60137","0.275","35.18","0.784","35.18","NAN","NAN","NAN","NAN","NAN"],
    [1559148,"2026-06-21 03:00:00","60138","0.17300000000000001","35.18","0.555","35.18","NAN","NAN","NAN","NAN","NAN"],
    [1559149,"2026-06-21 03:10:00","60139","0.013999999999999999","35.14","0.359","35.12","NAN","NAN","NAN","NAN","NAN"],
    [1559150,"2026-06-21 03:20:00","60140","0.184","35.11","0.523","35.12","NAN","NAN","NAN","NAN","NAN"],
    [1559151,"2026-06-21 03:30:00","60141","0.745","34.4","1.666","33.97","NAN","NAN","NAN","NAN","NAN"],
    [1559152,"2026-06-21 03:40:00","60142","0.541","30.25","1.143","32.37","NAN","NAN","NAN","NAN","NAN"],
    [1559153,"2026-06-21 03:50:00","60143","0.19899999999999998","9.26","0.915","7.171","NAN","NAN","NAN","NAN","NAN"],
    [1559154,"2026-06-21 04:00:00","60144","0.003","7.1610000000000005","0.196","7.171","NAN","NAN","NAN","NAN","NAN"],
    [1559155,"2026-06-21 04:10:00","60145","0.024","7.075","0.294","7.075","NAN","NAN","NAN","NAN","NAN"],
    [1559156,"2026-06-21 04:20:00","60146","0.0","0.0","0","0","NAN","NAN","NAN","NAN","NAN"],
    [1559157,"2026-06-21 04:30:00","60147","0.004","7.112","0.229","7.107","NAN","NAN","NAN","NAN","NAN"],
    [1559158,"2026-06-21 04:40:00","60148","0.004","7.112","0.196","7.091","NAN","NAN","NAN","NAN","NAN"],
    [1559159,"2026-06-21 04:50:00","60149","0.002","7.12","0.163","7.123","NAN","NAN","NAN","NAN","NAN"],
    [1559160,"2026-06-21 05:00:00","60150","0.064","7.109","0.392","7.099","NAN","NAN","NAN","NAN","NAN"],
    [1559161,"2026-06-21 05:10:00","60151","0.009000000000000001","6.646","0.196","6.978","NAN","NAN","NAN","NAN","NAN"],
    [1559162,"2026-06-21 05:20:00","60152","0.015","3.31","0.261","3.321","NAN","NAN","NAN","NAN","NAN"],
    [1559163,"2026-06-21 05:30:00","60153","0.005","2.84","0.196","2.84","NAN","NAN","NAN","NAN","NAN"],
    [1559164,"2026-06-21 05:40:00","60154","0.006999999999999999","2.89","0.294","2.888","NAN","NAN","NAN","NAN","NAN"],
    [1559165,"2026-06-21 05:50:00","60155","0.001","3.032","0.131","3.032","NAN","NAN","NAN","NAN","NAN"],
    [1559166,"2026-06-21 06:00:00","60156","0.02","3.031","0.261","3.032","NAN","NAN","NAN","NAN","NAN"],
    [1559167,"2026-06-21 06:10:00","60157","0.053","2.998","0.621","3.008","NAN","NAN","NAN","NAN","NAN"],
    [1559168,"2026-06-21 06:20:00","60158","0.647","2.977","1.568","2.968","NAN","NAN","NAN","NAN","NAN"],
    [1559169,"2026-06-21 06:30:00","60159","0.725","3.216","1.568","3.128","NAN","NAN","NAN","NAN","NAN"],
    [1559170,"2026-06-21 06:40:00","60160","0.0","0.0","0","0","NAN","NAN","NAN","NAN","NAN"],
    [1559171,"2026-06-21 06:50:00","60161","0.064","8.43","0.523","6.112","NAN","NAN","NAN","NAN","NAN"],
    [1559172,"2026-06-21 07:00:00","60162","0.066","24.48","0.588","24.96","NAN","NAN","NAN","NAN","NAN"],
    [1559173,"2026-06-21 07:10:00","60163","0.515","26.6","1.503","23.96","NAN","NAN","NAN","NAN","NAN"],
    [1559174,"2026-06-21 07:20:00","60164","1.1840000000000002","56.44","2.319","70.79","NAN","NAN","NAN","NAN","NAN"],
    [1559175,"2026-06-21 07:30:00","60165","1.24","60.86","2.646","46.28","NAN","NAN","NAN","NAN","NAN"],
    [1559176,"2026-06-21 07:40:00","60166","0.958","67.01","2.058","70.4","NAN","NAN","NAN","NAN","NAN"],
    [1559177,"2026-06-21 07:50:00","60167","0.846","61.2","1.797","50.71","NAN","NAN","NAN","NAN","NAN"],
    [1559178,"2026-06-21 08:00:00","60168","1.304","73.53","2.287","75.5","NAN","NAN","NAN","NAN","NAN"],
    [1559179,"2026-06-21 08:10:00","60169","1.765","81.8","3.071","94.8","NAN","NAN","NAN","NAN","NAN"],
    [1559180,"2026-06-21 08:20:00","60170","1.896","89.5","3.103","97.6","NAN","NAN","NAN","NAN","NAN"],
    [1559181,"2026-06-21 08:30:00","60171","2.167","91.1","3.495","93.5","NAN","NAN","NAN","NAN","NAN"],
    [1559182,"2026-06-21 08:40:00","60172","2.511","100.3","4.083","99.7","NAN","NAN","NAN","NAN","NAN"],
    [1559183,"2026-06-21 08:50:00","60173","2.229","92.1","3.724","72.99","NAN","NAN","NAN","NAN","NAN"],
    [1559184,"2026-06-21 09:00:00","60174","2.764","76.41","4.573","68.48","NAN","NAN","NAN","NAN","NAN"],
    [1559185,"2026-06-21 09:10:00","60175","2.43","76.31","3.953","63.94","NAN","NAN","NAN","NAN","NAN"],
    [1559186,"2026-06-21 09:20:00","60176","2.03","95.0","3.038","93.4","NAN","NAN","NAN","NAN","NAN"],
    [1559187,"2026-06-21 09:30:00","60177","2.487","102.1","3.953","89.3","NAN","NAN","NAN","NAN","NAN"],
    [1559188,"2026-06-21 09:40:00","60178","2.6689999999999996","105.8","3.822","119.1","NAN","NAN","NAN","NAN","NAN"],
    [1559189,"2026-06-21 09:50:00","60179","2.85","110.5","4.247","120.1","NAN","NAN","NAN","NAN","NAN"],
    [1559190,"2026-06-21 10:00:00","60180","2.827","100.6","4.377","97.5","NAN","NAN","NAN","NAN","NAN"],
    [1559191,"2026-06-21 10:10:00","60181","3.0869999999999997","99.6","4.345","95.5","NAN","NAN","NAN","NAN","NAN"],
    [1559192,"2026-06-21 10:20:00","60182","2.376","100.8","3.887","96.4","NAN","NAN","NAN","NAN","NAN"],
    [1559193,"2026-06-21 10:30:00","60183","2.819","97.7","4.247","99.1","NAN","NAN","NAN","NAN","NAN"],
    [1559194,"2026-06-21 10:40:00","60184","2.8560000000000003","102.2","3.92","93.8","NAN","NAN","NAN","NAN","NAN"],
    [1559195,"2026-06-21 10:50:00","60185","2.6639999999999997","105.3","4.279","117.2","NAN","NAN","NAN","NAN","NAN"],
    [1559196,"2026-06-21 11:00:00","60186","2.91","112.4","4.116","109.1","NAN","NAN","NAN","NAN","NAN"],
    [1559197,"2026-06-21 11:10:00","60187","3.7430000000000003","113.1","5.227","109.9","NAN","NAN","NAN","NAN","NAN"],
    [1559198,"2026-06-21 11:20:00","60188","3.6510000000000002","117.2","5.259","111.1","NAN","NAN","NAN","NAN","NAN"],
    [1559199,"2026-06-21 11:30:00","60189","3.9410000000000003","115.0","5.521","114.1","NAN","NAN","NAN","NAN","NAN"],
    [1559200,"2026-06-21 11:40:00","60190","3.9610000000000003","112.6","5.945","113.9","NAN","NAN","NAN","NAN","NAN"],
    [1559201,"2026-06-21 11:50:00","60191","3.949","113.3","5.586","111.1","NAN","NAN","NAN","NAN","NAN"],
    [1559202,"2026-06-21 12:00:00","60192","3.82","126.0","5.259","132.1","NAN","NAN","NAN","NAN","NAN"],
    [1559203,"2026-06-21 12:10:00","60193","3.773","123.4","5.39","136.5","NAN","NAN","NAN","NAN","NAN"],
    [1559204,"2026-06-21 12:20:00","60194","3.65","126.3","5.031","127.6","NAN","NAN","NAN","NAN","NAN"],
    [1559205,"2026-06-21 12:30:00","60195","3.0780000000000003","120.1","5.129","136.9","NAN","NAN","NAN","NAN","NAN"],
    [1559206,"2026-06-21 12:40:00","60196","3.405","105.1","4.9","111.4","NAN","NAN","NAN","NAN","NAN"],
    [1559207,"2026-06-21 12:50:00","60197","3.909","108.0","5.423","115.6","NAN","NAN","NAN","NAN","NAN"],
    [1559208,"2026-06-21 13:00:00","60198","3.3810000000000002","109.6","5.749","116.9","NAN","NAN","NAN","NAN","NAN"],
    [1559209,"2026-06-21 13:10:00","60199","4.223","115.0","5.945","115.7","NAN","NAN","NAN","NAN","NAN"],
    [1559210,"2026-06-21 13:20:00","60200","3.185","102.8","4.965","82.3","NAN","NAN","NAN","NAN","NAN"],
    [1559211,"2026-06-21 13:30:00","60201","3.313","105.3","4.965","96.4","NAN","NAN","NAN","NAN","NAN"],
    [1559212,"2026-06-21 13:40:00","60202","3.548","98.0","5.717","96.5","NAN","NAN","NAN","NAN","NAN"],
    [1559213,"2026-06-21 13:50:00","60203","3.0869999999999997","106.1","4.704","114.6","NAN","NAN","NAN","NAN","NAN"],
    [1559214,"2026-06-21 14:00:00","60204","3.477","103.6","5.325","99.1","NAN","NAN","NAN","NAN","NAN"],
    [1559215,"2026-06-21 14:10:00","60205","3.014","110.8","4.475","102.5","NAN","NAN","NAN","NAN","NAN"],
    [1559216,"2026-06-21 14:20:00","60206","3.0210000000000004","96.6","4.737","84.5","NAN","NAN","NAN","NAN","NAN"],
    [1559217,"2026-06-21 14:30:00","60207","3.0","100.0","4.443","98.9","NAN","NAN","NAN","NAN","NAN"],
    [1559218,"2026-06-21 14:40:00","60208","3.108","98.8","4.867","81.8","NAN","NAN","NAN","NAN","NAN"],
    [1559219,"2026-06-21 14:50:00","60209","3.688","87.8","4.933","88.2","NAN","NAN","NAN","NAN","NAN"],
    [1559220,"2026-06-21 15:00:00","60210","3.347","71.88","4.639","65.6","NAN","NAN","NAN","NAN","NAN"],
    [1559221,"2026-06-21 15:10:00","60211","2.6260000000000003","93.7","4.606","65.25","NAN","NAN","NAN","NAN","NAN"],
    [1559222,"2026-06-21 15:20:00","60212","3.1310000000000002","95.0","4.639","66.09","NAN","NAN","NAN","NAN","NAN"],
    [1559223,"2026-06-21 15:30:00","60213","2.924","98.0","4.606","97.7","NAN","NAN","NAN","NAN","NAN"],
    [1559224,"2026-06-21 15:40:00","60214","2.628","106.2","3.953","118.5","NAN","NAN","NAN","NAN","NAN"],
    [1559225,"2026-06-21 15:50:00","60215","2.531","106.8","3.887","109.3","NAN","NAN","NAN","NAN","NAN"],
    [1559226,"2026-06-21 16:00:00","60216","2.173","101.0","3.397","96.3","NAN","NAN","NAN","NAN","NAN"],
    [1559227,"2026-06-21 16:10:00","60217","2.282","88.1","3.953","77.06","NAN","NAN","NAN","NAN","NAN"],
    [1559228,"2026-06-21 16:20:00","60218","2.166","92.6","3.495","83.6","NAN","NAN","NAN","NAN","NAN"],
    [1559229,"2026-06-21 16:30:00","60219","1.796","97.3","2.744","86.6","NAN","NAN","NAN","NAN","NAN"],
    [1559230,"2026-06-21 16:40:00","60220","1.5919999999999999","103.8","2.515","112.1","NAN","NAN","NAN","NAN","NAN"],
    [1559231,"2026-06-21 16:50:00","60221","1.5219999999999998","121.1","2.646","121.2","NAN","NAN","NAN","NAN","NAN"],
    [1559232,"2026-06-21 17:00:00","60222","1.8769999999999998","97.9","3.005","89.2","NAN","NAN","NAN","NAN","NAN"],
    [1559233,"2026-06-21 17:10:00","60223","2.209","88.1","3.201","105.1","NAN","NAN","NAN","NAN","NAN"],
    [1559234,"2026-06-21 17:20:00","60224","1.695","90.4","3.038","83.9","NAN","NAN","NAN","NAN","NAN"],
    [1559235,"2026-06-21 17:30:00","60225","2.171","77.08","3.365","72.14","NAN","NAN","NAN","NAN","NAN"],
    [1559236,"2026-06-21 17:40:00","60226","2.2840000000000003","66.73","3.136","68.23","NAN","NAN","NAN","NAN","NAN"],
    [1559237,"2026-06-21 17:50:00","60227","2.502","66.89","3.136","68.02","NAN","NAN","NAN","NAN","NAN"],
    [1559238,"2026-06-21 18:00:00","60228","2.254","68.02","3.071","65.57","NAN","NAN","NAN","NAN","NAN"],
    [1559239,"2026-06-21 18:10:00","60229","1.8419999999999999","68.75","2.581","65.11","NAN","NAN","NAN","NAN","NAN"],
    [1559240,"2026-06-21 18:20:00","60230","2.0980000000000003","67.64","2.679","68.29","NAN","NAN","NAN","NAN","NAN"],
    [1559241,"2026-06-21 18:30:00","60231","1.89","71.36","2.483","71.24","NAN","NAN","NAN","NAN","NAN"],
    [1559242,"2026-06-21 18:40:00","60232","1.845","66.85","2.287","64.6","NAN","NAN","NAN","NAN","NAN"],
    [1559243,"2026-06-21 18:50:00","60233","2.144","65.71","2.94","66.75","NAN","NAN","NAN","NAN","NAN"],
    [1559244,"2026-06-21 19:00:00","60234","2.42","70.64","3.071","69.91","NAN","NAN","NAN","NAN","NAN"],
    [1559245,"2026-06-21 19:10:00","60235","2.256","71.46","3.691","69.58","NAN","NAN","NAN","NAN","NAN"],
    [1559246,"2026-06-21 19:20:00","60236","1.4380000000000002","69.79","2.189","76.43","NAN","NAN","NAN","NAN","NAN"],
    [1559247,"2026-06-21 19:30:00","60237","0.9790000000000001","67.32","1.666","64.57","NAN","NAN","NAN","NAN","NAN"],
    [1559248,"2026-06-21 19:40:00","60238","0.265","74.17","0.849","72.53","NAN","NAN","NAN","NAN","NAN"],
    [1559249,"2026-06-21 19:50:00","60239","0.521","76.44","0.882","76.47","NAN","NAN","NAN","NAN","NAN"],
    [1559250,"2026-06-21 20:00:00","60240","0.40299999999999997","75.66","0.882","76.45","NAN","NAN","NAN","NAN","NAN"],
    [1559251,"2026-06-21 20:10:00","60241","0.038","76.84","0.294","76.95","NAN","NAN","NAN","NAN","NAN"],
    [1559252,"2026-06-21 20:20:00","60242","0.091","79.98","0.457","80.8","NAN","NAN","NAN","NAN","NAN"],
    [1559253,"2026-06-21 20:30:00","60243","0.0","0.0","0","0","NAN","NAN","NAN","NAN","NAN"],
    [1559254,"2026-06-21 20:40:00","60244","0.0","0.0","0","0","NAN","NAN","NAN","NAN","NAN"],
    [1559255,"2026-06-21 20:50:00","60245","0.035","83.2","0.457","84.4","NAN","NAN","NAN","NAN","NAN"],
    [1559256,"2026-06-21 21:00:00","60246","0.292","129.6","1.339","139.1","NAN","NAN","NAN","NAN","NAN"],
    [1559257,"2026-06-21 21:10:00","60247","0.27399999999999997","141.9","1.274","141.9","NAN","NAN","NAN","NAN","NAN"],
    [1559258,"2026-06-21 21:20:00","60248","0.509","142.1","1.045","142.1","NAN","NAN","NAN","NAN","NAN"],
    [1559259,"2026-06-21 21:30:00","60249","0.774","144.2","1.503","142.5","NAN","NAN","NAN","NAN","NAN"],
    [1559260,"2026-06-21 21:40:00","60250","0.596","145.5","1.437","145.6","NAN","NAN","NAN","NAN","NAN"],
    [1559261,"2026-06-21 21:50:00","60251","0.239","146.0","1.176","145.8","NAN","NAN","NAN","NAN","NAN"],
    [1559262,"2026-06-21 22:00:00","60252","0.11","146.1","0.882","146.1","NAN","NAN","NAN","NAN","NAN"],
    [1559263,"2026-06-21 22:10:00","60253","0.172","146.2","0.621","146.3","NAN","NAN","NAN","NAN","NAN"],
    [1559264,"2026-06-21 22:20:00","60254","0.711","146.8","1.535","146.9","NAN","NAN","NAN","NAN","NAN"],
    [1559265,"2026-06-21 22:30:00","60255","0.98","151.4","2.189","151.1","NAN","NAN","NAN","NAN","NAN"],
    [1559266,"2026-06-21 22:40:00","60256","0.41100000000000003","152.8","1.274","152.8","NAN","NAN","NAN","NAN","NAN"],
    [1559267,"2026-06-21 22:50:00","60257","0.429","152.9","0.915","152.9","NAN","NAN","NAN","NAN","NAN"],
    [1559268,"2026-06-21 23:00:00","60258","0.39899999999999997","152.9","1.111","152.9","NAN","NAN","NAN","NAN","NAN"],
    [1559269,"2026-06-21 23:10:00","60259","0.43","153.0","1.143","153.1","NAN","NAN","NAN","NAN","NAN"],
    [1559270,"2026-06-21 23:20:00","60260","0.047","152.1","0.457","152.6","NAN","NAN","NAN","NAN","NAN"],
    [1559271,"2026-06-21 23:30:00","60261","0.163","153.2","0.523","153.3","NAN","NAN","NAN","NAN","NAN"],
    [1559272,"2026-06-21 23:40:00","60262","0.128","153.4","0.588","153.4","NAN","NAN","NAN","NAN","NAN"],
    [1559273,"2026-06-21 23:50:00","60263","0.003","153.6","0.261","153.6","NAN","NAN","NAN","NAN","NAN"],
    [1559274,"2026-06-22 00:00:00","60264","0.009000000000000001","153.6","0.392","153.6","NAN","NAN","NAN","NAN","NAN"],
    [1559275,"2026-06-22 00:10:00","60265","0.001","153.6","0.163","153.6","NAN","NAN","NAN","NAN","NAN"],
    [1559276,"2026-06-22 00:20:00","60266","0.302","161.8","0.784","159.1","NAN","NAN","NAN","NAN","NAN"],
    [1559277,"2026-06-22 00:30:00","60267","0.017","165.4","0.425","165.4","NAN","NAN","NAN","NAN","NAN"],
    [1559278,"2026-06-22 00:40:00","60268","0.0","0.0","0","0","NAN","NAN","NAN","NAN","NAN"],
    [1559279,"2026-06-22 00:50:00","60269","0.005","165.2","0.261","165.2","NAN","NAN","NAN","NAN","NAN"],
    [1559280,"2026-06-22 01:00:00","60270","0.026000000000000002","166.5","0.457","166.6","NAN","NAN","NAN","NAN","NAN"],
    [1559281,"2026-06-22 01:10:00","60271","0.066","171.7","0.49","175.4","NAN","NAN","NAN","NAN","NAN"],
    [1559282,"2026-06-22 01:20:00","60272","0.05","177.8","0.49","178","NAN","NAN","NAN","NAN","NAN"],
    [1559283,"2026-06-22 01:30:00","60273","0.003","179.2","0.229","179.2","NAN","NAN","NAN","NAN","NAN"],
    [1559284,"2026-06-22 01:40:00","60274","0.26899999999999996","192.1","1.405","202.4","NAN","NAN","NAN","NAN","NAN"],
    [1559285,"2026-06-22 01:50:00","60275","1.652","233.0","2.777","253.3","NAN","NAN","NAN","NAN","NAN"],
    [1559286,"2026-06-22 02:00:00","60276","1.8419999999999999","261.7","2.907","263.4","NAN","NAN","NAN","NAN","NAN"],
    [1559287,"2026-06-22 02:10:00","60277","2.096","269.9","3.495","264.2","NAN","NAN","NAN","NAN","NAN"],
    [1559288,"2026-06-22 02:20:00","60278","2.3369999999999997","274.1","3.43","273.5","NAN","NAN","NAN","NAN","NAN"],
    [1559289,"2026-06-22 02:30:00","60279","1.604","278.9","3.038","275.1","NAN","NAN","NAN","NAN","NAN"],
    [1559290,"2026-06-22 02:40:00","60280","0.08","284.0","0.915","282.9","NAN","NAN","NAN","NAN","NAN"],
    [1559291,"2026-06-22 02:50:00","60281","0.275","281.0","0.817","281.5","NAN","NAN","NAN","NAN","NAN"],
    [1559292,"2026-06-22 03:00:00","60282","0.922","270.6","1.568","269.3","NAN","NAN","NAN","NAN","NAN"],
    [1559293,"2026-06-22 03:10:00","60283","0.674","270.4","1.176","271","NAN","NAN","NAN","NAN","NAN"],
    [1559294,"2026-06-22 03:20:00","60284","0.5589999999999999","269.9","1.013","269.9","NAN","NAN","NAN","NAN","NAN"],
    [1559295,"2026-06-22 03:30:00","60285","0.894","269.9","1.437","266.5","NAN","NAN","NAN","NAN","NAN"],
    [1559296,"2026-06-22 03:40:00","60286","1.361","263.3","2.025","263.5","NAN","NAN","NAN","NAN","NAN"],
    [1559297,"2026-06-22 03:50:00","60287","1.032","266.9","1.666","262.8","NAN","NAN","NAN","NAN","NAN"],
    [1559298,"2026-06-22 04:00:00","60288","1.319","265.2","2.221","262.6","NAN","NAN","NAN","NAN","NAN"],
    [1559299,"2026-06-22 04:10:00","60289","1.318","266.5","2.058","266.5","NAN","NAN","NAN","NAN","NAN"],
    [1559300,"2026-06-22 04:20:00","60290","1.63","270.7","2.646","268.1","NAN","NAN","NAN","NAN","NAN"],
    [1559301,"2026-06-22 04:30:00","60291","1.392","269.2","2.352","267.3","NAN","NAN","NAN","NAN","NAN"],
    [1559302,"2026-06-22 04:40:00","60292","1.6159999999999999","269.6","2.385","276.9","NAN","NAN","NAN","NAN","NAN"],
    [1559303,"2026-06-22 04:50:00","60293","1.6469999999999998","264.9","2.711","260.7","NAN","NAN","NAN","NAN","NAN"],
    [1559304,"2026-06-22 05:00:00","60294","1.9380000000000002","270.1","3.495","267.2","NAN","NAN","NAN","NAN","NAN"],
    [1559305,"2026-06-22 05:10:00","60295","1.719","270.6","2.842","267.6","NAN","NAN","NAN","NAN","NAN"],
    [1559306,"2026-06-22 05:20:00","60296","2.532","268.8","4.051","270.4","NAN","NAN","NAN","NAN","NAN"],
    [1559307,"2026-06-22 05:30:00","60297","2.1719999999999997","266.6","3.43","260.4","NAN","NAN","NAN","NAN","NAN"],
    [1559308,"2026-06-22 05:40:00","60298","2.5069999999999997","269.8","4.279","274.8","NAN","NAN","NAN","NAN","NAN"],
    [1559309,"2026-06-22 05:50:00","60299","2.57","267.7","3.887","274.1","NAN","NAN","NAN","NAN","NAN"],
    [1559310,"2026-06-22 06:00:00","60300","2.4459999999999997","267.2","3.757","268","NAN","NAN","NAN","NAN","NAN"],
    [1559311,"2026-06-22 06:10:00","60301","1.9180000000000001","269.2","3.528","271.3","NAN","NAN","NAN","NAN","NAN"],
    [1559312,"2026-06-22 06:20:00","60302","1.9369999999999998","267.7","2.94","267","NAN","NAN","NAN","NAN","NAN"],
    [1559313,"2026-06-22 06:30:00","60303","1.41","263.1","2.777","263.5","NAN","NAN","NAN","NAN","NAN"],
    [1559314,"2026-06-22 06:40:00","60304","1.3969999999999998","266.8","2.777","263.9","NAN","NAN","NAN","NAN","NAN"],
    [1559315,"2026-06-22 06:50:00","60305","0.528","267.3","1.699","265.6","NAN","NAN","NAN","NAN","NAN"],
    [1559316,"2026-06-22 07:00:00","60306","0.446","269.3","1.339","263.6","NAN","NAN","NAN","NAN","NAN"],
    [1559317,"2026-06-22 07:10:00","60307","0.273","289.2","1.372","287.4","NAN","NAN","NAN","NAN","NAN"],
    [1559318,"2026-06-22 07:20:00","60308","0.27699999999999997","334.7","0.915","333.1","NAN","NAN","NAN","NAN","NAN"],
    [1559319,"2026-06-22 07:30:00","60309","0.588","8.01","1.307","7.155","NAN","NAN","NAN","NAN","NAN"],
    [1559320,"2026-06-22 07:40:00","60310","0.304","10.46","1.405","11.5","NAN","NAN","NAN","NAN","NAN"],
    [1559321,"2026-06-22 07:50:00","60311","0.456","329.7","1.731","296.6","NAN","NAN","NAN","NAN","NAN"],
    [1559322,"2026-06-22 08:00:00","60312","1.639","265.0","3.267","264.4","NAN","NAN","NAN","NAN","NAN"],
    [1559323,"2026-06-22 08:10:00","60313","1.683","253.5","3.332","232.2","NAN","NAN","NAN","NAN","NAN"],
    [1559324,"2026-06-22 08:20:00","60314","1.9340000000000002","241.3","3.691","261.3","NAN","NAN","NAN","NAN","NAN"],
    [1559325,"2026-06-22 08:30:00","60315","2.416","247.3","4.247","226.9","NAN","NAN","NAN","NAN","NAN"],
    [1559326,"2026-06-22 08:40:00","60316","2.411","228.1","4.508","216.5","NAN","NAN","NAN","NAN","NAN"],
    [1559327,"2026-06-22 08:50:00","60317","2.884","240.3","4.933","246.9","NAN","NAN","NAN","NAN","NAN"],
    [1559328,"2026-06-22 09:00:00","60318","2.344","223.3","4.933","232.1","NAN","NAN","NAN","NAN","NAN"],
    [1559329,"2026-06-22 09:10:00","60319","2.992","228.0","5.521","217.5","NAN","NAN","NAN","NAN","NAN"],
    [1559330,"2026-06-22 09:20:00","60320","3.6839999999999997","238.1","6.86","240.1","NAN","NAN","NAN","NAN","NAN"],
    [1559331,"2026-06-22 09:30:00","60321","3.583","237.9","6.86","240.1","NAN","NAN","NAN","NAN","NAN"],
    [1559332,"2026-06-22 09:40:00","60322","2.7039999999999997","205.2","4.9","211.6","NAN","NAN","NAN","NAN","NAN"],
    [1559333,"2026-06-22 09:50:00","60323","2.9610000000000003","204.4","5.717","201.3","NAN","NAN","NAN","NAN","NAN"],
    [1559334,"2026-06-22 10:00:00","60324","2.5639999999999996","201.7","4.965","211.4","NAN","NAN","NAN","NAN","NAN"],
    [1559335,"2026-06-22 10:10:00","60325","1.946","188.5","4.933","200","NAN","NAN","NAN","NAN","NAN"],
    [1559336,"2026-06-22 10:20:00","60326","2.404","191.8","4.704","223.3","NAN","NAN","NAN","NAN","NAN"],
    [1559337,"2026-06-22 10:30:00","60327","2.541","202.8","6.533","208.1","NAN","NAN","NAN","NAN","NAN"],
    [1559338,"2026-06-22 10:40:00","60328","3.4160000000000004","210.6","7.35","220.5","NAN","NAN","NAN","NAN","NAN"],
    [1559339,"2026-06-22 10:50:00","60329","4.295","210.1","8.23","233.2","NAN","NAN","NAN","NAN","NAN"],
    [1559340,"2026-06-22 11:00:00","60330","5.186","210.3","8.92","216.1","NAN","NAN","NAN","NAN","NAN"],
    [1559341,"2026-06-22 11:10:00","60331","5.835","211.4","8.89","221","NAN","NAN","NAN","NAN","NAN"],
    [1559342,"2026-06-22 11:20:00","60332","5.442","211.9","7.938","212.8","NAN","NAN","NAN","NAN","NAN"],
    [1559343,"2026-06-22 11:30:00","60333","5.026","210.5","7.905","235.9","NAN","NAN","NAN","NAN","NAN"],
    [1559344,"2026-06-22 11:40:00","60334","5.242000000000001","217.4","9.28","213.8","NAN","NAN","NAN","NAN","NAN"],
    [1559345,"2026-06-22 11:50:00","60335","5.172000000000001","227.6","8.95","237.1","NAN","NAN","NAN","NAN","NAN"],
    [1559346,"2026-06-22 12:00:00","60336","5.0089999999999995","227.7","9.54","211.7","NAN","NAN","NAN","NAN","NAN"],
    [1559347,"2026-06-22 12:10:00","60337","4.777","223.2","8.79","212.4","NAN","NAN","NAN","NAN","NAN"],
    [1559348,"2026-06-22 12:20:00","60338","4.856","229.3","8.72","224.7","NAN","NAN","NAN","NAN","NAN"],
    [1559349,"2026-06-22 12:30:00","60339","5.045","213.1","8.26","224.9","NAN","NAN","NAN","NAN","NAN"],
    [1559350,"2026-06-22 12:40:00","60340","4.595","208.6","7.285","202.7","NAN","NAN","NAN","NAN","NAN"],
    [1559351,"2026-06-22 12:50:00","60341","4.709","211.8","7.317","211.9","NAN","NAN","NAN","NAN","NAN"],
    [1559352,"2026-06-22 13:00:00","60342","4.919","224.9","9.41","235.6","NAN","NAN","NAN","NAN","NAN"],
    [1559353,"2026-06-22 13:10:00","60343","4.996","220.4","7.709","221.9","NAN","NAN","NAN","NAN","NAN"],
    [1559354,"2026-06-22 13:20:00","60344","5.072","221.7","8.07","219.6","NAN","NAN","NAN","NAN","NAN"],
    [1559355,"2026-06-22 13:30:00","60345","4.728","222.4","7.742","223","NAN","NAN","NAN","NAN","NAN"],
    [1559356,"2026-06-22 13:40:00","60346","4.997","230.9","8.72","233","NAN","NAN","NAN","NAN","NAN"],
    [1559357,"2026-06-22 13:50:00","60347","4.959","222.3","8.26","218.9","NAN","NAN","NAN","NAN","NAN"],
    [1559358,"2026-06-22 14:00:00","60348","4.306","227.3","7.513","240","NAN","NAN","NAN","NAN","NAN"],
    [1559359,"2026-06-22 14:10:00","60349","4.489","213.7","7.546","218.8","NAN","NAN","NAN","NAN","NAN"],
    [1559360,"2026-06-22 14:20:00","60350","3.997","213.4","6.762","209.4","NAN","NAN","NAN","NAN","NAN"],
    [1559361,"2026-06-22 14:30:00","60351","3.787","218.5","6.468","240.2","NAN","NAN","NAN","NAN","NAN"],
    [1559362,"2026-06-22 14:40:00","60352","3.3510000000000004","212.1","6.305","230.7","NAN","NAN","NAN","NAN","NAN"],
    [1559363,"2026-06-22 14:50:00","60353","2.9760000000000004","193.4","5.717","211.3","NAN","NAN","NAN","NAN","NAN"],
    [1559364,"2026-06-22 15:00:00","60354","3.0610000000000004","188.6","5.717","169.3","NAN","NAN","NAN","NAN","NAN"],
    [1559365,"2026-06-22 15:10:00","60355","2.88","186.6","5.031","213.3","NAN","NAN","NAN","NAN","NAN"],
    [1559366,"2026-06-22 15:20:00","60356","2.86","191.7","5.063","171.4","NAN","NAN","NAN","NAN","NAN"],
    [1559367,"2026-06-22 15:30:00","60357","2.66","188.0","4.247","187.4","NAN","NAN","NAN","NAN","NAN"],
    [1559368,"2026-06-22 15:40:00","60358","2.614","192.5","5.063","214.4","NAN","NAN","NAN","NAN","NAN"],
    [1559369,"2026-06-22 15:50:00","60359","3.2939999999999996","197.4","5.096","197.9","NAN","NAN","NAN","NAN","NAN"],
    [1559370,"2026-06-22 16:00:00","60360","2.319","194.4","4.802","190.5","NAN","NAN","NAN","NAN","NAN"],
    [1559371,"2026-06-22 16:10:00","60361","2.734","204.0","5.161","209.6","NAN","NAN","NAN","NAN","NAN"],
    [1559372,"2026-06-22 16:20:00","60362","2.542","192.4","4.345","170","NAN","NAN","NAN","NAN","NAN"],
    [1559373,"2026-06-22 16:30:00","60363","2.975","208.3","5.521","199.6","NAN","NAN","NAN","NAN","NAN"],
    [1559374,"2026-06-22 16:40:00","60364","2.799","202.0","5.717","215.1","NAN","NAN","NAN","NAN","NAN"],
    [1559375,"2026-06-22 16:50:00","60365","3.2289999999999996","207.0","5.88","223.4","NAN","NAN","NAN","NAN","NAN"],
    [1559376,"2026-06-22 17:00:00","60366","2.4090000000000003","200.2","4.671","192.1","NAN","NAN","NAN","NAN","NAN"],
    [1559377,"2026-06-22 17:10:00","60367","2.785","203.6","5.227","203.7","NAN","NAN","NAN","NAN","NAN"],
    [1559378,"2026-06-22 17:20:00","60368","3.157","207.9","5.259","209.4","NAN","NAN","NAN","NAN","NAN"],
    [1559379,"2026-06-22 17:30:00","60369","2.716","199.5","4.802","210.2","NAN","NAN","NAN","NAN","NAN"],
    [1559380,"2026-06-22 17:40:00","60370","2.748","186.3","6.141","168.5","NAN","NAN","NAN","NAN","NAN"],
    [1559381,"2026-06-22 17:50:00","60371","2.458","202.3","5.455","223.3","NAN","NAN","NAN","NAN","NAN"],
    [1559382,"2026-06-22 18:00:00","60372","3.12","210.5","5.553","208.5","NAN","NAN","NAN","NAN","NAN"],
    [1559383,"2026-06-22 18:10:00","60373","2.6189999999999998","214.5","4.704","204.3","NAN","NAN","NAN","NAN","NAN"],
    [1559384,"2026-06-22 18:20:00","60374","1.785","219.9","3.887","211.3","NAN","NAN","NAN","NAN","NAN"],
    [1559385,"2026-06-22 18:30:00","60375","1.879","214.4","3.724","224.4","NAN","NAN","NAN","NAN","NAN"],
    [1559386,"2026-06-22 18:40:00","60376","2.459","211.1","3.887","213.8","NAN","NAN","NAN","NAN","NAN"],
    [1559387,"2026-06-22 18:50:00","60377","1.9240000000000002","213.5","3.463","221.4","NAN","NAN","NAN","NAN","NAN"],
    [1559388,"2026-06-22 19:00:00","60378","1.796","214.8","3.495","224","NAN","NAN","NAN","NAN","NAN"],
    [1559389,"2026-06-22 19:10:00","60379","1.3159999999999998","214.7","2.515","206.7","NAN","NAN","NAN","NAN","NAN"],
    [1559390,"2026-06-22 19:20:00","60380","1.821","244.6","4.083","250.3","NAN","NAN","NAN","NAN","NAN"],
    [1559391,"2026-06-22 19:30:00","60381","1.495","244.3","2.875","240.1","NAN","NAN","NAN","NAN","NAN"],
    [1559392,"2026-06-22 19:40:00","60382","1.3330000000000002","238.7","3.169","236","NAN","NAN","NAN","NAN","NAN"],
    [1559393,"2026-06-22 19:50:00","60383","1.505","241.0","3.397","249.7","NAN","NAN","NAN","NAN","NAN"],
    [1559394,"2026-06-22 20:00:00","60384","1.8840000000000001","237.9","3.397","231.3","NAN","NAN","NAN","NAN","NAN"],
    [1559395,"2026-06-22 20:10:00","60385","1.386","236.9","2.809","238.3","NAN","NAN","NAN","NAN","NAN"],
    [1559396,"2026-06-22 20:20:00","60386","1.28","234.5","3.169","231.4","NAN","NAN","NAN","NAN","NAN"],
    [1559397,"2026-06-22 20:30:00","60387","1.011","234.3","2.809","224.3","NAN","NAN","NAN","NAN","NAN"],
    [1559398,"2026-06-22 20:40:00","60388","1.3330000000000002","229.9","2.777","215.7","NAN","NAN","NAN","NAN","NAN"],
    [1559399,"2026-06-22 20:50:00","60389","1.811","217.1","2.94","216.5","NAN","NAN","NAN","NAN","NAN"],
    [1559400,"2026-06-22 21:00:00","60390","1.5830000000000002","219.6","3.005","227.3","NAN","NAN","NAN","NAN","NAN"],
    [1559401,"2026-06-22 21:10:00","60391","1.4909999999999999","231.8","2.679","213.7","NAN","NAN","NAN","NAN","NAN"],
    [1559402,"2026-06-22 21:20:00","60392","1.393","233.1","3.136","217.1","NAN","NAN","NAN","NAN","NAN"],
    [1559403,"2026-06-22 21:30:00","60393","1.5819999999999999","244.5","2.842","243.1","NAN","NAN","NAN","NAN","NAN"],
    [1559404,"2026-06-22 21:40:00","60394","2.245","249.5","3.528","247.3","NAN","NAN","NAN","NAN","NAN"],
    [1559405,"2026-06-22 21:50:00","60395","2.7310000000000003","251.8","3.822","245.7","NAN","NAN","NAN","NAN","NAN"],
    [1559406,"2026-06-22 22:00:00","60396","2.577","250.5","3.659","256.7","NAN","NAN","NAN","NAN","NAN"],
    [1559407,"2026-06-22 22:10:00","60397","2.039","256.1","3.397","255.7","NAN","NAN","NAN","NAN","NAN"],
    [1559408,"2026-06-22 22:20:00","60398","2.0269999999999997","259.6","3.593","251.8","NAN","NAN","NAN","NAN","NAN"],
    [1559409,"2026-06-22 22:30:00","60399","1.733","257.4","3.397","245.5","NAN","NAN","NAN","NAN","NAN"],
    [1559410,"2026-06-22 22:40:00","60400","2.605","253.9","4.214","250.9","NAN","NAN","NAN","NAN","NAN"],
    [1559411,"2026-06-22 22:50:00","60401","2.4530000000000003","255.4","3.724","257.1","NAN","NAN","NAN","NAN","NAN"],
    [1559412,"2026-06-22 23:00:00","60402","2.4459999999999997","251.9","3.724","252.3","NAN","NAN","NAN","NAN","NAN"],
    [1559413,"2026-06-22 23:10:00","60403","2.9339999999999997","251.5","4.051","248.3","NAN","NAN","NAN","NAN","NAN"],
    [1559414,"2026-06-22 23:20:00","60404","2.675","257.3","3.789","258.1","NAN","NAN","NAN","NAN","NAN"],
    [1559415,"2026-06-22 23:30:00","60405","2.0469999999999997","254.7","3.887","257.8","NAN","NAN","NAN","NAN","NAN"],
    [1559416,"2026-06-22 23:40:00","60406","1.261","261.5","2.744","247.3","NAN","NAN","NAN","NAN","NAN"],
    [1559417,"2026-06-22 23:50:00","60407","2.366","250.7","3.659","251.4","NAN","NAN","NAN","NAN","NAN"],
    [1559418,"2026-06-23 00:00:00","60408","1.229","257.9","2.613","247.6","NAN","NAN","NAN","NAN","NAN"],
    [1559419,"2026-06-23 00:10:00","60409","1.429","253.1","2.94","248.3","NAN","NAN","NAN","NAN","NAN"],
    [1559420,"2026-06-23 00:20:00","60410","2.066","252.3","2.973","259.6","NAN","NAN","NAN","NAN","NAN"],
    [1559421,"2026-06-23 00:30:00","60411","2.645","249.8","3.626","256.2","NAN","NAN","NAN","NAN","NAN"],
    [1559422,"2026-06-23 00:40:00","60412","2.274","252.4","3.267","244.2","NAN","NAN","NAN","NAN","NAN"],
    [1559423,"2026-06-23 00:50:00","60413","1.9809999999999999","262.5","3.267","264.7","NAN","NAN","NAN","NAN","NAN"],
    [1559424,"2026-06-23 01:00:00","60414","2.116","266.4","3.038","265.5","NAN","NAN","NAN","NAN","NAN"],
    [1559425,"2026-06-23 01:10:00","60415","2.515","266.3","3.691","273.5","NAN","NAN","NAN","NAN","NAN"],
    [1559426,"2026-06-23 01:20:00","60416","2.521","267.8","3.887","264.9","NAN","NAN","NAN","NAN","NAN"],
    [1559427,"2026-06-23 01:30:00","60417","2.234","268.1","3.299","271.1","NAN","NAN","NAN","NAN","NAN"],
    [1559428,"2026-06-23 01:40:00","60418","1.794","262.4","2.483","264.4","NAN","NAN","NAN","NAN","NAN"],
    [1559429,"2026-06-23 01:50:00","60419","1.315","266.7","2.254","259.6","NAN","NAN","NAN","NAN","NAN"],
    [1559430,"2026-06-23 02:00:00","60420","1.528","269.3","2.221","269.7","NAN","NAN","NAN","NAN","NAN"],
    [1559431,"2026-06-23 02:10:00","60421","1.3940000000000001","261.6","2.352","268","NAN","NAN","NAN","NAN","NAN"],
    [1559432,"2026-06-23 02:20:00","60422","1.453","267.7","2.025","272","NAN","NAN","NAN","NAN","NAN"],
    [1559433,"2026-06-23 02:30:00","60423","1.335","263.2","2.091","267.1","NAN","NAN","NAN","NAN","NAN"],
    [1559434,"2026-06-23 02:40:00","60424","0.961","260.2","1.829","259.3","NAN","NAN","NAN","NAN","NAN"],
    [1559435,"2026-06-23 02:50:00","60425","1.09","260.8","1.797","258.8","NAN","NAN","NAN","NAN","NAN"],
    [1559436,"2026-06-23 03:00:00","60426","1.3019999999999998","267.1","2.417","272.2","NAN","NAN","NAN","NAN","NAN"],
    [1559437,"2026-06-23 03:10:00","60427","1.545","271.2","2.581","269.9","NAN","NAN","NAN","NAN","NAN"],
    [1559438,"2026-06-23 03:20:00","60428","1.2770000000000001","274.5","2.254","277.4","NAN","NAN","NAN","NAN","NAN"],
    [1559439,"2026-06-23 03:30:00","60429","1.149","277.8","2.025","279","NAN","NAN","NAN","NAN","NAN"],
    [1559440,"2026-06-23 03:40:00","60430","0.8059999999999999","278.5","1.666","280.7","NAN","NAN","NAN","NAN","NAN"],
    [1559441,"2026-06-23 03:50:00","60431","1.253","277.2","1.829","275.9","NAN","NAN","NAN","NAN","NAN"],
    [1559442,"2026-06-23 04:00:00","60432","0.5","277.3","1.274","280.9","NAN","NAN","NAN","NAN","NAN"],
    [1559443,"2026-06-23 04:10:00","60433","0.493","274.1","1.372","279.1","NAN","NAN","NAN","NAN","NAN"],
    [1559444,"2026-06-23 04:20:00","60434","0.753","276.0","1.764","280.9","NAN","NAN","NAN","NAN","NAN"],
    [1559445,"2026-06-23 04:30:00","60435","0.385","278.6","1.045","278.9","NAN","NAN","NAN","NAN","NAN"],
    [1559446,"2026-06-23 04:40:00","60436","0.032","280.4","0.555","280.6","NAN","NAN","NAN","NAN","NAN"],
    [1559447,"2026-06-23 04:50:00","60437","0.0","0.0","0","0","NAN","NAN","NAN","NAN","NAN"],
    [1559448,"2026-06-23 05:00:00","60438","0.053","280.0","0.719","278.6","NAN","NAN","NAN","NAN","NAN"],
    [1559449,"2026-06-23 05:10:00","60439","0.046","278.6","0.751","278.6","NAN","NAN","NAN","NAN","NAN"],
    [1559450,"2026-06-23 05:20:00","60440","0.035","277.8","0.392","277.2","NAN","NAN","NAN","NAN","NAN"],
    [1559451,"2026-06-23 05:30:00","60441","0.44299999999999995","271.1","1.568","273.3","NAN","NAN","NAN","NAN","NAN"],
    [1559452,"2026-06-23 05:40:00","60442","1.597","275.2","2.221","276.8","NAN","NAN","NAN","NAN","NAN"],
    [1559453,"2026-06-23 05:50:00","60443","1.288","277.2","2.091","281.6","NAN","NAN","NAN","NAN","NAN"],
    [1559454,"2026-06-23 06:00:00","60444","1.057","282.4","2.287","282.6","NAN","NAN","NAN","NAN","NAN"],
    [1559455,"2026-06-23 06:10:00","60445","0.753","280.2","1.764","282.9","NAN","NAN","NAN","NAN","NAN"],
    [1559456,"2026-06-23 06:20:00","60446","0.027000000000000003","279.9","0.523","274.9","NAN","NAN","NAN","NAN","NAN"],
    [1559457,"2026-06-23 06:30:00","60447","0.23399999999999999","282.8","0.817","283.1","NAN","NAN","NAN","NAN","NAN"],
    [1559458,"2026-06-23 06:40:00","60448","0.655","275.2","1.274","263.3","NAN","NAN","NAN","NAN","NAN"],
    [1559459,"2026-06-23 06:50:00","60449","0.586","251.8","1.503","262.4","NAN","NAN","NAN","NAN","NAN"],
    [1559460,"2026-06-23 07:00:00","60450","1.515","203.9","3.691","72.07","NAN","NAN","NAN","NAN","NAN"],
    [1559461,"2026-06-23 07:10:00","60451","2.5989999999999998","71.43","4.214","67.71","NAN","NAN","NAN","NAN","NAN"],
    [1559462,"2026-06-23 07:20:00","60452","3.13","67.19","4.475","64.11","NAN","NAN","NAN","NAN","NAN"],
    [1559463,"2026-06-23 07:30:00","60453","3.406","67.0","4.737","63.17","NAN","NAN","NAN","NAN","NAN"],
    [1559464,"2026-06-23 07:40:00","60454","3.635","69.02","5.227","75.19","NAN","NAN","NAN","NAN","NAN"],
    [1559465,"2026-06-23 07:50:00","60455","3.162","67.61","4.475","62.44","NAN","NAN","NAN","NAN","NAN"],
    [1559466,"2026-06-23 08:00:00","60456","3.43","68.48","4.443","67.76","NAN","NAN","NAN","NAN","NAN"],
    [1559467,"2026-06-23 08:10:00","60457","2.978","70.93","4.671","65.86","NAN","NAN","NAN","NAN","NAN"],
    [1559468,"2026-06-23 08:20:00","60458","3.117","66.48","4.998","61.91","NAN","NAN","NAN","NAN","NAN"],
    [1559469,"2026-06-23 08:30:00","60459","3.65","70.03","5.292","66.77","NAN","NAN","NAN","NAN","NAN"],
    [1559470,"2026-06-23 08:40:00","60460","2.952","68.2","4.541","71.48","NAN","NAN","NAN","NAN","NAN"],
    [1559471,"2026-06-23 08:50:00","60461","2.5989999999999998","65.97","4.541","61.86","NAN","NAN","NAN","NAN","NAN"],
    [1559472,"2026-06-23 09:00:00","60462","2.472","65.82","3.691","62.38","NAN","NAN","NAN","NAN","NAN"],
    [1559473,"2026-06-23 09:10:00","60463","2.775","68.32","3.887","65.14","NAN","NAN","NAN","NAN","NAN"],
    [1559474,"2026-06-23 09:20:00","60464","2.951","69.32","4.149","72.42","NAN","NAN","NAN","NAN","NAN"],
    [1559475,"2026-06-23 09:30:00","60465","2.739","83.3","4.345","93.1","NAN","NAN","NAN","NAN","NAN"],
    [1559476,"2026-06-23 09:40:00","60466","2.608","84.0","4.704","67.21","NAN","NAN","NAN","NAN","NAN"],
    [1559477,"2026-06-23 09:50:00","60467","2.947","84.6","5.096","89.1","NAN","NAN","NAN","NAN","NAN"],
    [1559478,"2026-06-23 10:00:00","60468","2.969","100.1","4.41","104.6","NAN","NAN","NAN","NAN","NAN"],
    [1559479,"2026-06-23 10:10:00","60469","3.0269999999999997","98.4","4.704","86.5","NAN","NAN","NAN","NAN","NAN"],
    [1559480,"2026-06-23 10:20:00","60470","3.085","94.1","4.541","98.7","NAN","NAN","NAN","NAN","NAN"],
    [1559481,"2026-06-23 10:30:00","60471","3.025","94.7","4.867","89.3","NAN","NAN","NAN","NAN","NAN"],
    [1559482,"2026-06-23 10:40:00","60472","3.3280000000000003","93.4","5.194","89","NAN","NAN","NAN","NAN","NAN"],
    [1559483,"2026-06-23 10:50:00","60473","3.6180000000000003","96.9","6.043","88.6","NAN","NAN","NAN","NAN","NAN"],
    [1559484,"2026-06-23 11:00:00","60474","3.335","94.1","5.815","95.4","NAN","NAN","NAN","NAN","NAN"],
    [1559485,"2026-06-23 11:10:00","60475","2.963","97.9","4.998","106.5","NAN","NAN","NAN","NAN","NAN"],
    [1559486,"2026-06-23 11:20:00","60476","2.897","106.7","4.704","111.6","NAN","NAN","NAN","NAN","NAN"],
    [1559487,"2026-06-23 11:30:00","60477","2.6910000000000003","100.7","4.279","89.9","NAN","NAN","NAN","NAN","NAN"],
    [1559488,"2026-06-23 11:40:00","60478","2.967","91.0","4.998","83","NAN","NAN","NAN","NAN","NAN"],
    [1559489,"2026-06-23 11:50:00","60479","2.844","93.6","4.41","96.4","NAN","NAN","NAN","NAN","NAN"],
    [1559490,"2026-06-23 12:00:00","60480","2.728","110.8","4.769","115.2","NAN","NAN","NAN","NAN","NAN"],
    [1559491,"2026-06-23 12:10:00","60481","2.82","104.5","5.292","114.3","NAN","NAN","NAN","NAN","NAN"],
    [1559492,"2026-06-23 12:20:00","60482","3.0469999999999997","95.9","4.9","102.3","NAN","NAN","NAN","NAN","NAN"],
    [1559493,"2026-06-23 12:30:00","60483","2.977","101.0","5.227","102","NAN","NAN","NAN","NAN","NAN"],
    [1559494,"2026-06-23 12:40:00","60484","3.1430000000000002","101.1","4.671","97.9","NAN","NAN","NAN","NAN","NAN"],
    [1559495,"2026-06-23 12:50:00","60485","2.8680000000000003","89.3","4.998","94.1","NAN","NAN","NAN","NAN","NAN"],
    [1559496,"2026-06-23 13:00:00","60486","3.052","94.6","4.9","80.2","NAN","NAN","NAN","NAN","NAN"],
    [1559497,"2026-06-23 13:10:00","60487","2.5380000000000003","100.0","4.149","69.45","NAN","NAN","NAN","NAN","NAN"],
    [1559498,"2026-06-23 13:20:00","60488","3.1310000000000002","101.8","4.312","85","NAN","NAN","NAN","NAN","NAN"],
    [1559499,"2026-06-23 13:30:00","60489","2.517","98.5","4.247","94.1","NAN","NAN","NAN","NAN","NAN"],
    [1559500,"2026-06-23 13:40:00","60490","3.065","113.7","4.606","111.8","NAN","NAN","NAN","NAN","NAN"],
    [1559501,"2026-06-23 13:50:00","60491","2.867","117.6","4.377","137.4","NAN","NAN","NAN","NAN","NAN"],
    [1559502,"2026-06-23 14:00:00","60492","3.052","111.1","4.835","105.2","NAN","NAN","NAN","NAN","NAN"],
    [1559503,"2026-06-23 14:10:00","60493","2.965","104.9","4.345","95.2","NAN","NAN","NAN","NAN","NAN"],
    [1559504,"2026-06-23 14:20:00","60494","2.8539999999999996","114.6","3.953","112.8","NAN","NAN","NAN","NAN","NAN"],
    [1559505,"2026-06-23 14:30:00","60495","2.185","119.2","3.593","118.4","NAN","NAN","NAN","NAN","NAN"],
    [1559506,"2026-06-23 14:40:00","60496","2.122","108.4","3.201","89.1","NAN","NAN","NAN","NAN","NAN"],
    [1559507,"2026-06-23 14:50:00","60497","2.287","122.3","3.561","132.1","NAN","NAN","NAN","NAN","NAN"],
    [1559508,"2026-06-23 15:00:00","60498","2.7689999999999997","112.3","3.887","118.1","NAN","NAN","NAN","NAN","NAN"],
    [1559509,"2026-06-23 15:10:00","60499","2.716","108.3","4.181","110.1","NAN","NAN","NAN","NAN","NAN"],
    [1559510,"2026-06-23 15:20:00","60500","3.153","112.7","4.573","114","NAN","NAN","NAN","NAN","NAN"],
    [1559511,"2026-06-23 15:30:00","60501","2.82","114.4","4.312","129.6","NAN","NAN","NAN","NAN","NAN"],
    [1559512,"2026-06-23 15:40:00","60502","2.8710000000000004","117.4","4.181","108.5","NAN","NAN","NAN","NAN","NAN"],
    [1559513,"2026-06-23 15:50:00","60503","3.4189999999999996","109.4","4.312","104.7","NAN","NAN","NAN","NAN","NAN"],
    [1559514,"2026-06-23 16:00:00","60504","3.197","115.3","4.802","141.6","NAN","NAN","NAN","NAN","NAN"],
    [1559515,"2026-06-23 16:10:00","60505","3.31","133.6","4.737","138.9","NAN","NAN","NAN","NAN","NAN"],
    [1559516,"2026-06-23 16:20:00","60506","2.6180000000000003","138.4","3.985","142.5","NAN","NAN","NAN","NAN","NAN"],
    [1559517,"2026-06-23 16:30:00","60507","2.28","130.4","3.299","135.1","NAN","NAN","NAN","NAN","NAN"],
    [1559518,"2026-06-23 16:40:00","60508","2.333","109.5","3.92","120.9","NAN","NAN","NAN","NAN","NAN"],
    [1559519,"2026-06-23 16:50:00","60509","2.165","114.3","3.528","114.5","NAN","NAN","NAN","NAN","NAN"],
    [1559520,"2026-06-23 17:00:00","60510","2.679","116.5","3.887","120","NAN","NAN","NAN","NAN","NAN"],
    [1559521,"2026-06-23 17:10:00","60511","2.74","116.9","4.541","113.3","NAN","NAN","NAN","NAN","NAN"],
    [1559522,"2026-06-23 17:20:00","60512","2.376","113.2","3.528","128.2","NAN","NAN","NAN","NAN","NAN"],
    [1559523,"2026-06-23 17:30:00","60513","1.901","103.6","2.777","109.8","NAN","NAN","NAN","NAN","NAN"],
    [1559524,"2026-06-23 17:40:00","60514","1.9380000000000002","93.3","3.103","85.4","NAN","NAN","NAN","NAN","NAN"],
    [1559525,"2026-06-23 17:50:00","60515","2.3","97.7","3.495","94.2","NAN","NAN","NAN","NAN","NAN"],
    [1559526,"2026-06-23 18:00:00","60516","1.9469999999999998","97.6","2.94","97","NAN","NAN","NAN","NAN","NAN"],
    [1559527,"2026-06-23 18:10:00","60517","1.739","101.2","2.777","110.4","NAN","NAN","NAN","NAN","NAN"],
    [1559528,"2026-06-23 18:20:00","60518","2.113","118.6","3.136","120.6","NAN","NAN","NAN","NAN","NAN"],
    [1559529,"2026-06-23 18:30:00","60519","2.113","114.5","3.038","117.1","NAN","NAN","NAN","NAN","NAN"],
    [1559530,"2026-06-23 18:40:00","60520","2.063","121.0","3.038","122.5","NAN","NAN","NAN","NAN","NAN"],
    [1559531,"2026-06-23 18:50:00","60521","1.681","122.9","2.45","129.6","NAN","NAN","NAN","NAN","NAN"],
    [1559532,"2026-06-23 19:00:00","60522","1.788","117.8","2.777","114.5","NAN","NAN","NAN","NAN","NAN"],
    [1559533,"2026-06-23 19:10:00","60523","2.003","121.2","3.071","129.5","NAN","NAN","NAN","NAN","NAN"],
    [1559534,"2026-06-23 19:20:00","60524","1.4380000000000002","111.0","2.679","107.9","NAN","NAN","NAN","NAN","NAN"],
    [1559535,"2026-06-23 19:30:00","60525","1.274","106.4","2.385","114.9","NAN","NAN","NAN","NAN","NAN"],
    [1559536,"2026-06-23 19:40:00","60526","1.756","116.1","2.907","119.3","NAN","NAN","NAN","NAN","NAN"],
    [1559537,"2026-06-23 19:50:00","60527","1.3119999999999998","119.9","2.744","128.4","NAN","NAN","NAN","NAN","NAN"],
    [1559538,"2026-06-23 20:00:00","60528","1.56","101.1","2.385","101.4","NAN","NAN","NAN","NAN","NAN"],
    [1559539,"2026-06-23 20:10:00","60529","1.31","107.2","2.091","97.7","NAN","NAN","NAN","NAN","NAN"],
    [1559540,"2026-06-23 20:20:00","60530","1.126","108.5","2.221","113.1","NAN","NAN","NAN","NAN","NAN"],
    [1559541,"2026-06-23 20:30:00","60531","0.8220000000000001","103.2","1.731","115","NAN","NAN","NAN","NAN","NAN"],
    [1559542,"2026-06-23 20:40:00","60532","0.469","98.1","1.405","98.1","NAN","NAN","NAN","NAN","NAN"],
    [1559543,"2026-06-23 20:50:00","60533","1.0270000000000001","97.7","1.764","97.7","NAN","NAN","NAN","NAN","NAN"],
    [1559544,"2026-06-23 21:00:00","60534","0.36700000000000005","97.5","0.849","97.5","NAN","NAN","NAN","NAN","NAN"],
    [1559545,"2026-06-23 21:10:00","60535","0.10800000000000001","97.5","0.784","97.5","NAN","NAN","NAN","NAN","NAN"],
    [1559546,"2026-06-23 21:20:00","60536","0.6829999999999999","109.3","1.339","106.4","NAN","NAN","NAN","NAN","NAN"],
    [1559547,"2026-06-23 21:30:00","60537","1.239","115.8","1.96","117.1","NAN","NAN","NAN","NAN","NAN"],
    [1559548,"2026-06-23 21:40:00","60538","0.956","121.3","1.895","119","NAN","NAN","NAN","NAN","NAN"],
    [1559549,"2026-06-23 21:50:00","60539","0.506","122.2","1.111","122","NAN","NAN","NAN","NAN","NAN"],
    [1559550,"2026-06-23 22:00:00","60540","0.297","122.4","0.653","122.4","NAN","NAN","NAN","NAN","NAN"],
    [1559551,"2026-06-23 22:10:00","60541","0.184","122.4","0.686","122.4","NAN","NAN","NAN","NAN","NAN"],
    [1559552,"2026-06-23 22:20:00","60542","0.07400000000000001","122.4","0.457","122.4","NAN","NAN","NAN","NAN","NAN"],
    [1559553,"2026-06-23 22:30:00","60543","0.228","122.4","0.784","122.4","NAN","NAN","NAN","NAN","NAN"],
    [1559554,"2026-06-23 22:40:00","60544","0.001","122.4","0.163","122.4","NAN","NAN","NAN","NAN","NAN"],
    [1559555,"2026-06-23 22:50:00","60545","0.079","122.5","0.523","122.4","NAN","NAN","NAN","NAN","NAN"],
    [1559556,"2026-06-23 23:00:00","60546","0.573","122.6","1.143","122.7","NAN","NAN","NAN","NAN","NAN"],
    [1559557,"2026-06-23 23:10:00","60547","0.127","122.7","0.751","122.7","NAN","NAN","NAN","NAN","NAN"],
    [1559558,"2026-06-23 23:20:00","60548","0.102","123.1","0.784","123.1","NAN","NAN","NAN","NAN","NAN"],
    [1559559,"2026-06-23 23:30:00","60549","0.102","124.2","0.882","123.7","NAN","NAN","NAN","NAN","NAN"],
    [1559560,"2026-06-23 23:40:00","60550","0.337","125.0","1.111","125.1","NAN","NAN","NAN","NAN","NAN"],
    [1559561,"2026-06-23 23:50:00","60551","0.077","125.6","0.653","125.7","NAN","NAN","NAN","NAN","NAN"],
    [1559562,"2026-06-24 00:00:00","60552","0.078","126.2","0.523","127.6","NAN","NAN","NAN","NAN","NAN"],
    [1559563,"2026-06-24 00:10:00","60553","0.272","127.7","0.849","127.7","NAN","NAN","NAN","NAN","NAN"],
    [1559564,"2026-06-24 00:20:00","60554","0.41700000000000004","127.8","1.013","127.8","NAN","NAN","NAN","NAN","NAN"],
    [1559565,"2026-06-24 00:30:00","60555","0.21899999999999997","127.8","0.719","127.8","NAN","NAN","NAN","NAN","NAN"],
    [1559566,"2026-06-24 00:40:00","60556","0.33399999999999996","127.8","1.045","127.8","NAN","NAN","NAN","NAN","NAN"],
    [1559567,"2026-06-24 00:50:00","60557","0.815","127.8","1.307","127.8","NAN","NAN","NAN","NAN","NAN"],
    [1559568,"2026-06-24 01:00:00","60558","0.011000000000000001","127.8","0.327","127.8","NAN","NAN","NAN","NAN","NAN"],
    [1559569,"2026-06-24 01:10:00","60559","0.03","127.8","0.327","127.8","NAN","NAN","NAN","NAN","NAN"],
    [1559570,"2026-06-24 01:20:00","60560","0.039","127.8","0.359","127.8","NAN","NAN","NAN","NAN","NAN"],
    [1559571,"2026-06-24 01:30:00","60561","0.11900000000000001","127.8","0.457","127.8","NAN","NAN","NAN","NAN","NAN"],
    [1559572,"2026-06-24 01:40:00","60562","0.027999999999999997","127.8","0.555","127.8","NAN","NAN","NAN","NAN","NAN"],
    [1559573,"2026-06-24 01:50:00","60563","0.078","127.8","0.523","127.8","NAN","NAN","NAN","NAN","NAN"],
    [1559574,"2026-06-24 02:00:00","60564","0.44799999999999995","127.8","0.817","127.8","NAN","NAN","NAN","NAN","NAN"],
    [1559575,"2026-06-24 02:10:00","60565","0.516","127.9","1.209","127.9","NAN","NAN","NAN","NAN","NAN"],
    [1559576,"2026-06-24 02:20:00","60566","0.39299999999999996","126.8","1.013","125.2","NAN","NAN","NAN","NAN","NAN"],
    [1559577,"2026-06-24 02:30:00","60567","0.168","124.9","0.751","124.9","NAN","NAN","NAN","NAN","NAN"],
    [1559578,"2026-06-24 02:40:00","60568","0.09","124.9","0.653","124.9","NAN","NAN","NAN","NAN","NAN"],
    [1559579,"2026-06-24 02:50:00","60569","0.98","128.2","1.797","128.2","NAN","NAN","NAN","NAN","NAN"],
    [1559580,"2026-06-24 03:00:00","60570","1.095","141.9","1.699","140.7","NAN","NAN","NAN","NAN","NAN"],
    [1559581,"2026-06-24 03:10:00","60571","0.495","144.9","1.045","143.3","NAN","NAN","NAN","NAN","NAN"],
    [1559582,"2026-06-24 03:20:00","60572","0.126","147.5","0.686","147.3","NAN","NAN","NAN","NAN","NAN"],
    [1559583,"2026-06-24 03:30:00","60573","0.49200000000000005","147.9","0.947","147.8","NAN","NAN","NAN","NAN","NAN"],
    [1559584,"2026-06-24 03:40:00","60574","0.026000000000000002","148.0","0.425","148","NAN","NAN","NAN","NAN","NAN"],
    [1559585,"2026-06-24 03:50:00","60575","0.105","148.0","0.523","148","NAN","NAN","NAN","NAN","NAN"],
    [1559586,"2026-06-24 04:00:00","60576","0.203","148.0","0.588","148","NAN","NAN","NAN","NAN","NAN"],
    [1559587,"2026-06-24 04:10:00","60577","0.133","147.9","0.523","147.9","NAN","NAN","NAN","NAN","NAN"],
    [1559588,"2026-06-24 04:20:00","60578","0.198","147.9","0.653","148","NAN","NAN","NAN","NAN","NAN"],
    [1559589,"2026-06-24 04:30:00","60579","0.541","148.1","0.947","148.1","NAN","NAN","NAN","NAN","NAN"],
    [1559590,"2026-06-24 04:40:00","60580","0.423","148.1","1.143","148.1","NAN","NAN","NAN","NAN","NAN"],
    [1559591,"2026-06-24 04:50:00","60581","0.14400000000000002","148.1","0.653","148.1","NAN","NAN","NAN","NAN","NAN"],
    [1559592,"2026-06-24 05:00:00","60582","0.14400000000000002","148.0","0.621","148","NAN","NAN","NAN","NAN","NAN"],
    [1559593,"2026-06-24 05:10:00","60583","0.21100000000000002","148.0","0.523","148","NAN","NAN","NAN","NAN","NAN"],
    [1559594,"2026-06-24 05:20:00","60584","0.016","148.0","0.327","148","NAN","NAN","NAN","NAN","NAN"],
    [1559595,"2026-06-24 05:30:00","60585","0.125","148.0","0.457","148","NAN","NAN","NAN","NAN","NAN"],
    [1559596,"2026-06-24 05:40:00","60586","0.111","147.8","0.555","147.5","NAN","NAN","NAN","NAN","NAN"],
    [1559597,"2026-06-24 05:50:00","60587","0.016","147.1","0.425","147.2","NAN","NAN","NAN","NAN","NAN"],
    [1559598,"2026-06-24 06:00:00","60588","0.0","0.0","0","0","NAN","NAN","NAN","NAN","NAN"],
    [1559599,"2026-06-24 06:10:00","60589","0.05","144.2","0.425","142.4","NAN","NAN","NAN","NAN","NAN"],
    [1559600,"2026-06-24 06:20:00","60590","0.213","141.2","1.339","141","NAN","NAN","NAN","NAN","NAN"],
    [1559601,"2026-06-24 06:30:00","60591","0.44","140.9","1.111","141","NAN","NAN","NAN","NAN","NAN"],
    [1559602,"2026-06-24 06:40:00","60592","0.449","140.7","1.078","140.6","NAN","NAN","NAN","NAN","NAN"],
    [1559603,"2026-06-24 06:50:00","60593","1.0190000000000001","147.6","1.601","148","NAN","NAN","NAN","NAN","NAN"],
    [1559604,"2026-06-24 07:00:00","60594","1.107","141.0","2.058","142","NAN","NAN","NAN","NAN","NAN"],
    [1559605,"2026-06-24 07:10:00","60595","1.651","128.7","2.548","140.9","NAN","NAN","NAN","NAN","NAN"],
    [1559606,"2026-06-24 07:20:00","60596","1.284","111.4","2.123","109.4","NAN","NAN","NAN","NAN","NAN"],
    [1559607,"2026-06-24 07:30:00","60597","1.252","111.2","2.058","109","NAN","NAN","NAN","NAN","NAN"],
    [1559608,"2026-06-24 07:40:00","60598","1.22","112.6","2.058","122.1","NAN","NAN","NAN","NAN","NAN"],
    [1559609,"2026-06-24 07:50:00","60599","0.948","116.2","1.862","106.7","NAN","NAN","NAN","NAN","NAN"],
    [1559610,"2026-06-24 08:00:00","60600","0.728","135.7","2.254","121.9","NAN","NAN","NAN","NAN","NAN"],
    [1559611,"2026-06-24 08:10:00","60601","2.234","111.9","3.234","111.1","NAN","NAN","NAN","NAN","NAN"],
    [1559612,"2026-06-24 08:20:00","60602","2.2319999999999998","113.9","3.136","110.2","NAN","NAN","NAN","NAN","NAN"],
    [1559613,"2026-06-24 08:30:00","60603","2.031","114.1","2.842","109.6","NAN","NAN","NAN","NAN","NAN"],
    [1559614,"2026-06-24 08:40:00","60604","2.324","108.3","3.169","109.8","NAN","NAN","NAN","NAN","NAN"],
    [1559615,"2026-06-24 08:50:00","60605","2.665","124.4","3.626","131.5","NAN","NAN","NAN","NAN","NAN"],
    [1559616,"2026-06-24 09:00:00","60606","2.957","130.7","4.214","124.3","NAN","NAN","NAN","NAN","NAN"],
    [1559617,"2026-06-24 09:10:00","60607","2.498","121.8","3.822","133.8","NAN","NAN","NAN","NAN","NAN"],
    [1559618,"2026-06-24 09:20:00","60608","2.715","116.3","3.789","124.1","NAN","NAN","NAN","NAN","NAN"],
    [1559619,"2026-06-24 09:30:00","60609","3.003","133.9","4.116","129.2","NAN","NAN","NAN","NAN","NAN"],
    [1559620,"2026-06-24 09:40:00","60610","2.381","127.3","3.659","114.1","NAN","NAN","NAN","NAN","NAN"],
    [1559621,"2026-06-24 09:50:00","60611","2.8480000000000003","127.1","3.659","131.1","NAN","NAN","NAN","NAN","NAN"],
    [1559622,"2026-06-24 10:00:00","60612","3.2260000000000004","128.7","4.181","135.8","NAN","NAN","NAN","NAN","NAN"],
    [1559623,"2026-06-24 10:10:00","60613","2.504","117.4","3.528","117.7","NAN","NAN","NAN","NAN","NAN"],
    [1559624,"2026-06-24 10:20:00","60614","2.911","138.6","4.181","139","NAN","NAN","NAN","NAN","NAN"],
    [1559625,"2026-06-24 10:30:00","60615","3.035","134.1","4.606","122.1","NAN","NAN","NAN","NAN","NAN"],
    [1559626,"2026-06-24 10:40:00","60616","2.9019999999999997","129.6","4.149","142.2","NAN","NAN","NAN","NAN","NAN"],
    [1559627,"2026-06-24 10:50:00","60617","2.978","119.5","4.149","119.3","NAN","NAN","NAN","NAN","NAN"],
    [1559628,"2026-06-24 11:00:00","60618","3.324","128.9","4.802","135.6","NAN","NAN","NAN","NAN","NAN"],
    [1559629,"2026-06-24 11:10:00","60619","3.488","125.3","5.129","127.5","NAN","NAN","NAN","NAN","NAN"],
    [1559630,"2026-06-24 11:20:00","60620","3.108","123.8","4.965","138.6","NAN","NAN","NAN","NAN","NAN"],
    [1559631,"2026-06-24 11:30:00","60621","2.8569999999999998","156.0","4.312","168.5","NAN","NAN","NAN","NAN","NAN"],
    [1559632,"2026-06-24 11:40:00","60622","3.04","140.0","4.769","127.2","NAN","NAN","NAN","NAN","NAN"],
    [1559633,"2026-06-24 11:50:00","60623","3.3080000000000003","121.0","5.161","132.7","NAN","NAN","NAN","NAN","NAN"],
    [1559634,"2026-06-24 12:00:00","60624","2.779","121.6","4.345","115.4","NAN","NAN","NAN","NAN","NAN"],
    [1559635,"2026-06-24 12:10:00","60625","3.08","125.8","4.704","137.2","NAN","NAN","NAN","NAN","NAN"],
    [1559636,"2026-06-24 12:20:00","60626","2.975","124.4","4.508","136","NAN","NAN","NAN","NAN","NAN"],
    [1559637,"2026-06-24 12:30:00","60627","3.3110000000000004","131.0","4.9","132","NAN","NAN","NAN","NAN","NAN"],
    [1559638,"2026-06-24 12:40:00","60628","2.892","136.7","4.41","145.6","NAN","NAN","NAN","NAN","NAN"],
    [1559639,"2026-06-24 12:50:00","60629","3.193","130.5","5.749","121","NAN","NAN","NAN","NAN","NAN"],
    [1559640,"2026-06-24 13:00:00","60630","2.9819999999999998","123.4","5.129","128.8","NAN","NAN","NAN","NAN","NAN"],
    [1559641,"2026-06-24 13:10:00","60631","3.185","121.3","5.651","115.6","NAN","NAN","NAN","NAN","NAN"],
    [1559642,"2026-06-24 13:20:00","60632","3.241","150.1","4.541","124.1","NAN","NAN","NAN","NAN","NAN"],
    [1559643,"2026-06-24 13:30:00","60633","3.347","144.1","4.443","143.1","NAN","NAN","NAN","NAN","NAN"],
    [1559644,"2026-06-24 13:40:00","60634","2.952","148.0","4.639","149.3","NAN","NAN","NAN","NAN","NAN"],
    [1559645,"2026-06-24 13:50:00","60635","2.9539999999999997","154.3","4.573","168.5","NAN","NAN","NAN","NAN","NAN"],
    [1559646,"2026-06-24 14:00:00","60636","3.0239999999999996","156.8","4.508","153.9","NAN","NAN","NAN","NAN","NAN"],
    [1559647,"2026-06-24 14:10:00","60637","3.53","149.7","5.129","139.2","NAN","NAN","NAN","NAN","NAN"],
    [1559648,"2026-06-24 14:20:00","60638","3.59","154.2","4.998","172.1","NAN","NAN","NAN","NAN","NAN"],
    [1559649,"2026-06-24 14:30:00","60639","3.6039999999999996","156.9","5.619","158","NAN","NAN","NAN","NAN","NAN"],
    [1559650,"2026-06-24 14:40:00","60640","3.76","152.3","5.782","151.5","NAN","NAN","NAN","NAN","NAN"],
    [1559651,"2026-06-24 14:50:00","60641","3.471","153.3","5.161","151","NAN","NAN","NAN","NAN","NAN"],
    [1559652,"2026-06-24 15:00:00","60642","3.2889999999999997","162.1","4.933","162.8","NAN","NAN","NAN","NAN","NAN"],
    [1559653,"2026-06-24 15:10:00","60643","3.06","172.2","4.443","163.6","NAN","NAN","NAN","NAN","NAN"],
    [1559654,"2026-06-24 15:20:00","60644","2.693","206.6","5.227","202.4","NAN","NAN","NAN","NAN","NAN"],
    [1559655,"2026-06-24 15:30:00","60645","2.483","198.5","4.051","216.3","NAN","NAN","NAN","NAN","NAN"],
    [1559656,"2026-06-24 15:40:00","60646","2.505","197.7","5.227","179.8","NAN","NAN","NAN","NAN","NAN"],
    [1559657,"2026-06-24 15:50:00","60647","2.8810000000000002","208.0","5.227","217.2","NAN","NAN","NAN","NAN","NAN"],
    [1559658,"2026-06-24 16:00:00","60648","2.6660000000000004","188.3","4.541","171.1","NAN","NAN","NAN","NAN","NAN"],
    [1559659,"2026-06-24 16:10:00","60649","2.105","194.2","4.279","179.6","NAN","NAN","NAN","NAN","NAN"],
    [1559660,"2026-06-24 16:20:00","60650","2.7030000000000003","189.7","4.769","173.6","NAN","NAN","NAN","NAN","NAN"],
    [1559661,"2026-06-24 16:30:00","60651","2.918","207.8","4.443","205.6","NAN","NAN","NAN","NAN","NAN"],
    [1559662,"2026-06-24 16:40:00","60652","2.347","191.5","4.247","173.5","NAN","NAN","NAN","NAN","NAN"],
    [1559663,"2026-06-24 16:50:00","60653","2.7560000000000002","195.8","4.508","220.5","NAN","NAN","NAN","NAN","NAN"],
    [1559664,"2026-06-24 17:00:00","60654","2.467","209.8","4.149","215.5","NAN","NAN","NAN","NAN","NAN"],
    [1559665,"2026-06-24 17:10:00","60655","2.4290000000000003","177.8","4.083","168.1","NAN","NAN","NAN","NAN","NAN"],
    [1559666,"2026-06-24 17:20:00","60656","2.302","212.3","3.659","213.1","NAN","NAN","NAN","NAN","NAN"],
    [1559667,"2026-06-24 17:30:00","60657","2.636","176.7","3.822","172.3","NAN","NAN","NAN","NAN","NAN"],
    [1559668,"2026-06-24 17:40:00","60658","2.716","171.6","4.181","174","NAN","NAN","NAN","NAN","NAN"],
    [1559669,"2026-06-24 17:50:00","60659","2.373","177.8","3.953","169.2","NAN","NAN","NAN","NAN","NAN"],
    [1559670,"2026-06-24 18:00:00","60660","2.299","174.4","3.757","172.7","NAN","NAN","NAN","NAN","NAN"],
    [1559671,"2026-06-24 18:10:00","60661","1.6030000000000002","207.4","3.005","216.4","NAN","NAN","NAN","NAN","NAN"],
    [1559672,"2026-06-24 18:20:00","60662","1.81","181.4","3.593","187.1","NAN","NAN","NAN","NAN","NAN"],
    [1559673,"2026-06-24 18:30:00","60663","2.04","212.0","3.463","212.5","NAN","NAN","NAN","NAN","NAN"],
    [1559674,"2026-06-24 18:40:00","60664","1.72","217.8","2.777","218.4","NAN","NAN","NAN","NAN","NAN"],
    [1559675,"2026-06-24 18:50:00","60665","1.226","215.2","2.352","205.1","NAN","NAN","NAN","NAN","NAN"],
    [1559676,"2026-06-24 19:00:00","60666","1.895","215.3","3.005","210.4","NAN","NAN","NAN","NAN","NAN"],
    [1559677,"2026-06-24 19:10:00","60667","1.74","211.3","2.679","215.5","NAN","NAN","NAN","NAN","NAN"],
    [1559678,"2026-06-24 19:20:00","60668","1.413","215.3","2.613","211","NAN","NAN","NAN","NAN","NAN"],
    [1559679,"2026-06-24 19:30:00","60669","1.0290000000000001","214.4","2.515","224","NAN","NAN","NAN","NAN","NAN"],
    [1559680,"2026-06-24 19:40:00","60670","0.8490000000000001","214.3","1.829","221.3","NAN","NAN","NAN","NAN","NAN"],
    [1559681,"2026-06-24 19:50:00","60671","1.064","229.7","1.862","225.9","NAN","NAN","NAN","NAN","NAN"],
    [1559682,"2026-06-24 20:00:00","60672","1.102","232.7","1.993","232.8","NAN","NAN","NAN","NAN","NAN"],
    [1559683,"2026-06-24 20:10:00","60673","0.631","231.2","1.535","233","NAN","NAN","NAN","NAN","NAN"],
    [1559684,"2026-06-24 20:20:00","60674","0.715","220.1","1.503","218.2","NAN","NAN","NAN","NAN","NAN"],
    [1559685,"2026-06-24 20:30:00","60675","0.971","217.0","2.254","220.8","NAN","NAN","NAN","NAN","NAN"],
    [1559686,"2026-06-24 20:40:00","60676","1.1440000000000001","229.5","2.581","234.3","NAN","NAN","NAN","NAN","NAN"],
    [1559687,"2026-06-24 20:50:00","60677","0.723","234.5","1.503","232.1","NAN","NAN","NAN","NAN","NAN"],
    [1559688,"2026-06-24 21:00:00","60678","0.527","232.3","1.535","236.1","NAN","NAN","NAN","NAN","NAN"],
    [1559689,"2026-06-24 21:10:00","60679","0.569","222.7","1.143","222","NAN","NAN","NAN","NAN","NAN"],
    [1559690,"2026-06-24 21:20:00","60680","0.44","220.3","1.111","222","NAN","NAN","NAN","NAN","NAN"],
    [1559691,"2026-06-24 21:30:00","60681","0.29100000000000004","219.4","0.817","219.5","NAN","NAN","NAN","NAN","NAN"],
    [1559692,"2026-06-24 21:40:00","60682","0.46","218.6","0.98","218.5","NAN","NAN","NAN","NAN","NAN"],
    [1559693,"2026-06-24 21:50:00","60683","0.645","230.8","1.339","235.2","NAN","NAN","NAN","NAN","NAN"],
    [1559694,"2026-06-24 22:00:00","60684","0.7759999999999999","235.0","1.372","236","NAN","NAN","NAN","NAN","NAN"],
    [1559695,"2026-06-24 22:10:00","60685","1.249","237.4","1.895","237.3","NAN","NAN","NAN","NAN","NAN"],
    [1559696,"2026-06-24 22:20:00","60686","0.721","238.1","1.274","238.1","NAN","NAN","NAN","NAN","NAN"],
    [1559697,"2026-06-24 22:30:00","60687","0.6709999999999999","235.2","1.503","238.4","NAN","NAN","NAN","NAN","NAN"],
    [1559698,"2026-06-24 22:40:00","60688","0.618","220.7","1.241","218.7","NAN","NAN","NAN","NAN","NAN"],
    [1559699,"2026-06-24 22:50:00","60689","0.57","217.5","1.209","216.5","NAN","NAN","NAN","NAN","NAN"],
    [1559700,"2026-06-24 23:00:00","60690","0.369","216.3","0.98","216.2","NAN","NAN","NAN","NAN","NAN"],
    [1559701,"2026-06-24 23:10:00","60691","0.805","216.1","1.568","216.1","NAN","NAN","NAN","NAN","NAN"],
    [1559702,"2026-06-24 23:20:00","60692","1.219","216.0","1.96","215.7","NAN","NAN","NAN","NAN","NAN"],
    [1559703,"2026-06-24 23:30:00","60693","1.19","234.6","1.797","238.9","NAN","NAN","NAN","NAN","NAN"],
    [1559704,"2026-06-24 23:40:00","60694","1.819","240.4","2.613","241.8","NAN","NAN","NAN","NAN","NAN"],
    [1559705,"2026-06-24 23:50:00","60695","1.3630000000000002","243.3","2.319","242.1","NAN","NAN","NAN","NAN","NAN"],
    [1559706,"2026-06-25 00:00:00","60696","0.441","244.7","1.633","244.5","NAN","NAN","NAN","NAN","NAN"],
    [1559707,"2026-06-25 00:10:00","60697","0.218","245.0","0.751","245","NAN","NAN","NAN","NAN","NAN"],
    [1559708,"2026-06-25 00:20:00","60698","0.28300000000000003","245.0","0.686","245","NAN","NAN","NAN","NAN","NAN"],
    [1559709,"2026-06-25 00:30:00","60699","0.11900000000000001","245.0","0.555","245","NAN","NAN","NAN","NAN","NAN"],
    [1559710,"2026-06-25 00:40:00","60700","0.031","244.9","0.327","244.9","NAN","NAN","NAN","NAN","NAN"],
    [1559711,"2026-06-25 00:50:00","60701","0.034","244.9","0.425","244.9","NAN","NAN","NAN","NAN","NAN"],
    [1559712,"2026-06-25 01:00:00","60702","0.76","244.9","1.405","245","NAN","NAN","NAN","NAN","NAN"],
    [1559713,"2026-06-25 01:10:00","60703","1.127","245.0","1.699","244.9","NAN","NAN","NAN","NAN","NAN"],
    [1559714,"2026-06-25 01:20:00","60704","1.163","246.3","2.058","246.2","NAN","NAN","NAN","NAN","NAN"],
    [1559715,"2026-06-25 01:30:00","60705","0.664","247.5","1.307","247.5","NAN","NAN","NAN","NAN","NAN"],
    [1559716,"2026-06-25 01:40:00","60706","0.809","247.6","1.47","247.6","NAN","NAN","NAN","NAN","NAN"],
    [1559717,"2026-06-25 01:50:00","60707","0.985","247.6","1.405","247.6","NAN","NAN","NAN","NAN","NAN"],
    [1559718,"2026-06-25 02:00:00","60708","0.5920000000000001","247.7","1.241","247.7","NAN","NAN","NAN","NAN","NAN"],
    [1559719,"2026-06-25 02:10:00","60709","0.026000000000000002","247.6","0.327","247.6","NAN","NAN","NAN","NAN","NAN"],
    [1559720,"2026-06-25 02:20:00","60710","0.187","247.7","0.817","247.7","NAN","NAN","NAN","NAN","NAN"],
    [1559721,"2026-06-25 02:30:00","60711","0.693","247.6","1.143","247.6","NAN","NAN","NAN","NAN","NAN"],
    [1559722,"2026-06-25 02:40:00","60712","0.986","247.6","1.372","247.7","NAN","NAN","NAN","NAN","NAN"],
    [1559723,"2026-06-25 02:50:00","60713","1.382","248.0","1.862","247.9","NAN","NAN","NAN","NAN","NAN"],
    [1559724,"2026-06-25 03:00:00","60714","1.555","248.6","2.385","248.8","NAN","NAN","NAN","NAN","NAN"],
    [1559725,"2026-06-25 03:10:00","60715","1.656","252.1","2.515","250.8","NAN","NAN","NAN","NAN","NAN"],
    [1559726,"2026-06-25 03:20:00","60716","0.46399999999999997","253.0","1.666","252.9","NAN","NAN","NAN","NAN","NAN"],
    [1559727,"2026-06-25 03:30:00","60717","0.501","253.2","1.045","253.2","NAN","NAN","NAN","NAN","NAN"],
    [1559728,"2026-06-25 03:40:00","60718","1.214","252.9","1.601","253.2","NAN","NAN","NAN","NAN","NAN"],
    [1559729,"2026-06-25 03:50:00","60719","1.04","253.4","1.764","253.3","NAN","NAN","NAN","NAN","NAN"],
    [1559730,"2026-06-25 04:00:00","60720","0.278","253.4","1.078","253.5","NAN","NAN","NAN","NAN","NAN"],
    [1559731,"2026-06-25 04:10:00","60721","0.872","253.9","1.568","254.4","NAN","NAN","NAN","NAN","NAN"],
    [1559732,"2026-06-25 04:20:00","60722","1.28","254.8","2.025","255.1","NAN","NAN","NAN","NAN","NAN"],
    [1559733,"2026-06-25 04:30:00","60723","1.706","258.4","2.613","255.8","NAN","NAN","NAN","NAN","NAN"],
    [1559734,"2026-06-25 04:40:00","60724","1.5519999999999998","264.2","2.45","261.3","NAN","NAN","NAN","NAN","NAN"],
    [1559735,"2026-06-25 04:50:00","60725","1.739","281.2","2.646","282.6","NAN","NAN","NAN","NAN","NAN"],
    [1559736,"2026-06-25 05:00:00","60726","1.8519999999999999","278.2","2.973","280.2","NAN","NAN","NAN","NAN","NAN"],
    [1559737,"2026-06-25 05:10:00","60727","1.255","280.3","2.189","275.3","NAN","NAN","NAN","NAN","NAN"],
    [1559738,"2026-06-25 05:20:00","60728","1.2819999999999998","275.2","2.221","273.8","NAN","NAN","NAN","NAN","NAN"],
    [1559739,"2026-06-25 05:30:00","60729","1.224","274.6","2.156","271.7","NAN","NAN","NAN","NAN","NAN"],
    [1559740,"2026-06-25 05:40:00","60730","1.3119999999999998","273.1","2.091","274.9","NAN","NAN","NAN","NAN","NAN"],
    [1559741,"2026-06-25 05:50:00","60731","0.978","272.9","1.927","278.3","NAN","NAN","NAN","NAN","NAN"],
    [1559742,"2026-06-25 06:00:00","60732","0.325","279.7","1.111","279.8","NAN","NAN","NAN","NAN","NAN"],
    [1559743,"2026-06-25 06:10:00","60733","0.513","274.2","1.372","273.1","NAN","NAN","NAN","NAN","NAN"],
    [1559744,"2026-06-25 06:20:00","60734","0.264","274.7","1.111","284.4","NAN","NAN","NAN","NAN","NAN"],
    [1559745,"2026-06-25 06:30:00","60735","0.263","23.95","1.241","22.03","NAN","NAN","NAN","NAN","NAN"],
    [1559746,"2026-06-25 06:40:00","60736","2.095","94.4","3.789","90","NAN","NAN","NAN","NAN","NAN"],
    [1559747,"2026-06-25 06:50:00","60737","1.7830000000000001","98.8","2.842","107.4","NAN","NAN","NAN","NAN","NAN"],
    [1559748,"2026-06-25 07:00:00","60738","1.3880000000000001","97.5","2.515","99.2","NAN","NAN","NAN","NAN","NAN"],
    [1559749,"2026-06-25 07:10:00","60739","1.597","97.5","2.875","91.1","NAN","NAN","NAN","NAN","NAN"],
    [1559750,"2026-06-25 07:20:00","60740","1.3559999999999999","99.0","2.287","107.7","NAN","NAN","NAN","NAN","NAN"],
    [1559751,"2026-06-25 07:30:00","60741","1.432","94.8","2.189","88.4","NAN","NAN","NAN","NAN","NAN"],
    [1559752,"2026-06-25 07:40:00","60742","1.824","92.8","2.875","89.6","NAN","NAN","NAN","NAN","NAN"],
    [1559753,"2026-06-25 07:50:00","60743","1.8219999999999998","98.6","2.973","109.3","NAN","NAN","NAN","NAN","NAN"],
    [1559754,"2026-06-25 08:00:00","60744","2.2880000000000003","105.5","3.267","111.7","NAN","NAN","NAN","NAN","NAN"],
    [1559755,"2026-06-25 08:10:00","60745","1.952","115.5","2.94","110.7","NAN","NAN","NAN","NAN","NAN"],
    [1559756,"2026-06-25 08:20:00","60746","2.0580000000000003","127.5","3.299","125.4","NAN","NAN","NAN","NAN","NAN"],
    [1559757,"2026-06-25 08:30:00","60747","2.204","121.8","3.528","115.2","NAN","NAN","NAN","NAN","NAN"],
    [1559758,"2026-06-25 08:40:00","60748","2.282","128.7","3.397","130.9","NAN","NAN","NAN","NAN","NAN"],
    [1559759,"2026-06-25 08:50:00","60749","2.164","103.8","1.96","117.4","NAN","NAN","NAN","NAN","NAN"],
    [1559760,"2026-06-25 09:00:00","60750","2.4219999999999997","116.1","1.96","117.4","NAN","NAN","NAN","NAN","NAN"],
    [1559761,"2026-06-25 09:10:00","60751","2.039","122.8","NAN","117.4","NAN","NAN","NAN","NAN","NAN"],
    [1559762,"2026-06-25 13:00:00","0","3.167","178.3","4.508","165.8","NAN","NAN","NAN","NAN","NAN"],
    [1559763,"2026-06-25 13:10:00","1","3.293","180.2","5.357","177.9","NAN","NAN","NAN","NAN","NAN"],
    [1559764,"2026-06-26 09:30:00","2","2.865","360.0","0","0","NAN","NAN","NAN","NAN","NAN"],
    [1559765,"2026-06-26 09:40:00","3","2.8989999999999996","360.0","NAN","0","NAN","NAN","NAN","NAN","NAN"],
    [1559766,"2026-06-26 09:50:00","4","3.128","360.0","NAN","0","NAN","NAN","NAN","NAN","NAN"],
    [1559767,"2026-06-26 10:00:00","5","2.481","360.0","NAN","0","NAN","NAN","NAN","NAN","NAN"],
    [1559768,"2026-06-26 10:10:00","6","2.638","360.0","NAN","0","NAN","NAN","NAN","NAN","NAN"],
    [1559769,"2026-06-26 10:20:00","7","2.498","360.0","NAN","0","NAN","NAN","NAN","NAN","NAN"],
    [1559770,"2026-06-26 10:30:00","8","2.7560000000000002","360.0","NAN","0","NAN","NAN","NAN","NAN","NAN"],
    [1559771,"2026-06-26 10:40:00","9","3.4330000000000003","360.0","NAN","0","NAN","NAN","NAN","NAN","NAN"],
    [1559772,"2026-06-26 10:50:00","10","2.479","360.0","NAN","0","NAN","NAN","NAN","NAN","NAN"],
    [1559773,"2026-06-26 11:00:00","11","2.695","360.0","NAN","0","NAN","NAN","NAN","NAN","NAN"],
    [1559774,"2026-06-26 11:10:00","12","2.427","360.0","NAN","0","NAN","NAN","NAN","NAN","NAN"],
    [1559775,"2026-06-26 11:20:00","13","2.516","360.0","NAN","0","NAN","NAN","NAN","NAN","NAN"],
    [1559776,"2026-06-26 11:30:00","14","2.8569999999999998","360.0","NAN","0","NAN","NAN","NAN","NAN","NAN"],
    [1559777,"2026-06-26 11:40:00","15","2.358","360.0","NAN","0","NAN","NAN","NAN","NAN","NAN"],
    [1559778,"2026-06-26 11:50:00","16","2.7680000000000002","360.0","NAN","0","NAN","NAN","NAN","NAN","NAN"],
    [1559779,"2026-06-26 12:00:00","17","3.005","360.0","NAN","0","NAN","NAN","NAN","NAN","NAN"],
    [1559780,"2026-06-26 12:10:00","18","2.92","360.0","NAN","0","NAN","NAN","NAN","NAN","NAN"],
    [1559781,"2026-06-26 12:20:00","19","2.736","360.0","NAN","0","NAN","NAN","NAN","NAN","NAN"],
    [1559782,"2026-06-26 12:30:00","20","2.863","360.0","NAN","0","NAN","NAN","NAN","NAN","NAN"],
    [1559783,"2026-06-26 12:40:00","21","2.7689999999999997","360.0","NAN","0","NAN","NAN","NAN","NAN","NAN"],
    [1559784,"2026-06-26 12:50:00","22","2.7239999999999998","360.0","NAN","0","NAN","NAN","NAN","NAN","NAN"],
    [1559785,"2026-06-26 13:00:00","23","2.717","360.0","NAN","0","NAN","NAN","NAN","NAN","NAN"],
    [1559786,"2026-06-26 13:10:00","24","2.295","360.0","NAN","0","NAN","NAN","NAN","NAN","NAN"],
    [1559787,"2026-06-26 13:20:00","25","2.6039999999999996","360.0","NAN","0","NAN","NAN","NAN","NAN","NAN"],
    [1559788,"2026-06-26 13:30:00","26","2.282","360.0","NAN","0","NAN","NAN","NAN","NAN","NAN"],
    [1559789,"2026-06-26 13:40:00","27","2.641","360.0","NAN","0","NAN","NAN","NAN","NAN","NAN"],
    [1559790,"2026-06-26 13:50:00","28","2.725","360.0","NAN","0","NAN","NAN","NAN","NAN","NAN"],
    [1559791,"2026-06-26 14:00:00","29","2.717","360.0","NAN","0","NAN","NAN","NAN","NAN","NAN"],
    [1559792,"2026-06-26 14:10:00","30","2.905","360.0","NAN","0","NAN","NAN","NAN","NAN","NAN"],
    [1559793,"2026-06-26 14:20:00","31","3.237","360.0","NAN","0","NAN","NAN","NAN","NAN","NAN"],
    [1559794,"2026-06-26 14:30:00","32","2.94","360.0","NAN","0","NAN","NAN","NAN","NAN","NAN"],
    [1559795,"2026-06-26 14:40:00","33","3.3930000000000002","360.0","NAN","0","NAN","NAN","NAN","NAN","NAN"],
    [1559796,"2026-06-26 14:50:00","34","3.263","360.0","NAN","0","NAN","NAN","NAN","NAN","NAN"],
    [1559797,"2026-06-26 15:00:00","35","3.1210000000000004","360.0","NAN","0","NAN","NAN","NAN","NAN","NAN"],
    [1559798,"2026-06-26 15:10:00","36","3.094","360.0","NAN","0","NAN","NAN","NAN","NAN","NAN"],
    [1559799,"2026-06-26 15:20:00","37","2.9210000000000003","360.0","NAN","0","NAN","NAN","NAN","NAN","NAN"],
    [1559800,"2026-06-26 15:30:00","38","3.284","360.0","NAN","0","NAN","NAN","NAN","NAN","NAN"],
    [1559801,"2026-06-26 15:40:00","39","2.74","360.0","NAN","0","NAN","NAN","NAN","NAN","NAN"],
    [1559802,"2026-06-26 15:50:00","40","3.045","360.0","NAN","0","NAN","NAN","NAN","NAN","NAN"],
    [1559803,"2026-06-26 16:00:00","41","2.825","360.0","NAN","0","NAN","NAN","NAN","NAN","NAN"],
    [1559804,"2026-06-26 16:10:00","42","2.449","360.0","NAN","0","NAN","NAN","NAN","NAN","NAN"],
    [1559805,"2026-06-26 16:20:00","43","3.388","360.0","NAN","0","NAN","NAN","NAN","NAN","NAN"],
    [1559806,"2026-06-26 16:30:00","44","2.944","360.0","NAN","0","NAN","NAN","NAN","NAN","NAN"],
    [1559807,"2026-06-26 16:40:00","45","3.036","360.0","NAN","0","NAN","NAN","NAN","NAN","NAN"],
    [1559808,"2026-06-26 16:50:00","46","3.011","360.0","NAN","0","NAN","NAN","NAN","NAN","NAN"],
    [1559809,"2026-06-26 17:00:00","47","2.865","360.0","NAN","0","NAN","NAN","NAN","NAN","NAN"],
    [1559810,"2026-06-26 17:10:00","48","3.057","360.0","NAN","0","NAN","NAN","NAN","NAN","NAN"],
    [1559811,"2026-06-26 17:20:00","49","2.747","360.0","NAN","0","NAN","NAN","NAN","NAN","NAN"],
    [1559812,"2026-06-26 17:30:00","50","2.458","360.0","NAN","0","NAN","NAN","NAN","NAN","NAN"],
    [1559813,"2026-06-26 17:40:00","51","2.374","360.0","NAN","0","NAN","NAN","NAN","NAN","NAN"],
    [1559814,"2026-06-26 17:50:00","52","2.6010000000000004","360.0","NAN","0","NAN","NAN","NAN","NAN","NAN"],
    [1559815,"2026-06-26 18:00:00","53","2.842","360.0","NAN","0","NAN","NAN","NAN","NAN","NAN"],
    [1559816,"2026-06-26 18:10:00","54","2.5789999999999997","360.0","NAN","0","NAN","NAN","NAN","NAN","NAN"],
    [1559817,"2026-06-26 18:20:00","55","1.92","360.0","NAN","0","NAN","NAN","NAN","NAN","NAN"],
    [1559818,"2026-06-26 18:30:00","56","2.419","360.0","NAN","0","NAN","NAN","NAN","NAN","NAN"],
    [1559819,"2026-06-26 18:40:00","57","2.0469999999999997","360.0","NAN","0","NAN","NAN","NAN","NAN","NAN"],
    [1559820,"2026-06-26 18:50:00","58","2.259","360.0","NAN","0","NAN","NAN","NAN","NAN","NAN"],
    [1559821,"2026-06-26 19:00:00","59","2.4859999999999998","360.0","NAN","0","NAN","NAN","NAN","NAN","NAN"],
    [1559822,"2026-06-26 19:10:00","60","2.07","360.0","NAN","0","NAN","NAN","NAN","NAN","NAN"],
    [1559823,"2026-06-26 19:20:00","61","1.847","360.0","NAN","0","NAN","NAN","NAN","NAN","NAN"],
    [1559824,"2026-06-26 19:30:00","62","1.483","360.0","NAN","0","NAN","NAN","NAN","NAN","NAN"],
    [1559825,"2026-06-26 19:40:00","63","1.55","360.0","NAN","0","NAN","NAN","NAN","NAN","NAN"],
    [1559826,"2026-06-26 19:50:00","64","1.699","360.0","NAN","0","NAN","NAN","NAN","NAN","NAN"],
    [1559827,"2026-06-26 20:00:00","65","1.304","360.0","NAN","0","NAN","NAN","NAN","NAN","NAN"],
    [1559828,"2026-06-26 20:10:00","66","0.8740000000000001","360.0","NAN","0","NAN","NAN","NAN","NAN","NAN"],
    [1559829,"2026-06-26 20:20:00","67","1.226","360.0","NAN","0","NAN","NAN","NAN","NAN","NAN"],
    [1559830,"2026-06-26 20:30:00","68","0.996","360.0","NAN","0","NAN","NAN","NAN","NAN","NAN"],
    [1559831,"2026-06-26 20:40:00","69","0.8370000000000001","360.0","NAN","0","NAN","NAN","NAN","NAN","NAN"],
    [1559832,"2026-06-26 20:50:00","70","0.792","360.0","NAN","0","NAN","NAN","NAN","NAN","NAN"],
    [1559833,"2026-06-26 21:00:00","71","0.784","360.0","NAN","0","NAN","NAN","NAN","NAN","NAN"],
    [1559834,"2026-06-26 21:10:00","72","0.39799999999999996","360.0","NAN","0","NAN","NAN","NAN","NAN","NAN"],
    [1559835,"2026-06-26 21:20:00","73","0.392","360.0","NAN","0","NAN","NAN","NAN","NAN","NAN"],
    [1559836,"2026-06-26 21:30:00","74","0.223","360.0","NAN","0","NAN","NAN","NAN","NAN","NAN"],
    [1559837,"2026-06-26 21:40:00","75","0.07200000000000001","360.0","NAN","0","NAN","NAN","NAN","NAN","NAN"],
    [1559838,"2026-06-26 21:50:00","76","0.0","0.0","NAN","0","NAN","NAN","NAN","NAN","NAN"],
    [1559839,"2026-06-26 22:00:00","77","0.006","360.0","NAN","0","NAN","NAN","NAN","NAN","NAN"],
    [1559840,"2026-06-26 22:10:00","78","0.003","360.0","NAN","0","NAN","NAN","NAN","NAN","NAN"],
    [1559841,"2026-06-26 22:20:00","79","0.023","360.0","NAN","0","NAN","NAN","NAN","NAN","NAN"],
    [1559842,"2026-06-26 22:30:00","80","0.196","360.0","NAN","0","NAN","NAN","NAN","NAN","NAN"],
    [1559843,"2026-06-26 22:40:00","81","0.067","360.0","NAN","0","NAN","NAN","NAN","NAN","NAN"],
    [1559844,"2026-06-26 22:50:00","82","0.034","360.0","NAN","0","NAN","NAN","NAN","NAN","NAN"],
    [1559845,"2026-06-26 23:00:00","83","0.0","0.0","NAN","0","NAN","NAN","NAN","NAN","NAN"],
    [1559846,"2026-06-26 23:10:00","84","0.0","0.0","NAN","0","NAN","NAN","NAN","NAN","NAN"],
    [1559847,"2026-06-26 23:20:00","85","0.059000000000000004","360.0","NAN","0","NAN","NAN","NAN","NAN","NAN"],
    [1559848,"2026-06-26 23:30:00","86","0.08199999999999999","360.0","NAN","0","NAN","NAN","NAN","NAN","NAN"],
    [1559849,"2026-06-26 23:40:00","87","0.0","0.0","NAN","0","NAN","NAN","NAN","NAN","NAN"],
    [1559850,"2026-06-26 23:50:00","88","0.016","360.0","NAN","0","NAN","NAN","NAN","NAN","NAN"],
    [1559851,"2026-06-27 00:00:00","89","0.0","0.0","NAN","0","NAN","NAN","NAN","NAN","NAN"],
    [1559852,"2026-06-27 00:10:00","90","0.001","360.0","NAN","0","NAN","NAN","NAN","NAN","NAN"],
    [1559853,"2026-06-27 00:20:00","91","0.109","360.0","NAN","0","NAN","NAN","NAN","NAN","NAN"],
    [1559854,"2026-06-27 00:30:00","92","0.091","360.0","NAN","0","NAN","NAN","NAN","NAN","NAN"],
    [1559855,"2026-06-27 00:40:00","93","0.099","360.0","NAN","0","NAN","NAN","NAN","NAN","NAN"],
    [1559856,"2026-06-27 00:50:00","94","0.008","360.0","NAN","0","NAN","NAN","NAN","NAN","NAN"],
    [1559857,"2026-06-27 01:00:00","95","0.024","360.0","NAN","0","NAN","NAN","NAN","NAN","NAN"],
    [1559858,"2026-06-27 01:10:00","96","0.062","360.0","NAN","0","NAN","NAN","NAN","NAN","NAN"],
    [1559859,"2026-06-27 01:20:00","97","0.045","360.0","NAN","0","NAN","NAN","NAN","NAN","NAN"],
    [1559860,"2026-06-27 01:30:00","98","0.146","360.0","NAN","0","NAN","NAN","NAN","NAN","NAN"],
    [1559861,"2026-06-27 01:40:00","99","0.2","360.0","NAN","0","NAN","NAN","NAN","NAN","NAN"],
    [1559862,"2026-06-27 01:50:00","100","0.5770000000000001","360.0","NAN","0","NAN","NAN","NAN","NAN","NAN"],
    [1559863,"2026-06-27 02:00:00","101","0.452","360.0","NAN","0","NAN","NAN","NAN","NAN","NAN"],
    [1559864,"2026-06-27 02:10:00","102","0.583","360.0","NAN","0","NAN","NAN","NAN","NAN","NAN"],
    [1559865,"2026-06-27 02:20:00","103","0.64","360.0","NAN","0","NAN","NAN","NAN","NAN","NAN"],
    [1559866,"2026-06-27 02:30:00","104","0.71","360.0","NAN","0","NAN","NAN","NAN","NAN","NAN"],
    [1559867,"2026-06-27 02:40:00","105","0.44799999999999995","360.0","NAN","0","NAN","NAN","NAN","NAN","NAN"],
    [1559868,"2026-06-27 02:50:00","106","0.21600000000000003","360.0","NAN","0","NAN","NAN","NAN","NAN","NAN"],
    [1559869,"2026-06-27 03:00:00","107","0.139","360.0","NAN","0","NAN","NAN","NAN","NAN","NAN"],
    [1559870,"2026-06-27 03:10:00","108","0.107","360.0","NAN","0","NAN","NAN","NAN","NAN","NAN"],
    [1559871,"2026-06-27 03:20:00","109","0.257","360.0","NAN","0","NAN","NAN","NAN","NAN","NAN"],
    [1559872,"2026-06-27 03:30:00","110","0.248","360.0","NAN","0","NAN","NAN","NAN","NAN","NAN"],
    [1559873,"2026-06-27 03:40:00","111","0.256","360.0","NAN","0","NAN","NAN","NAN","NAN","NAN"],
    [1559874,"2026-06-27 03:50:00","112","0.322","360.0","NAN","0","NAN","NAN","NAN","NAN","NAN"],
    [1559875,"2026-06-27 04:00:00","113","0.289","360.0","NAN","0","NAN","NAN","NAN","NAN","NAN"],
    [1559876,"2026-06-27 04:10:00","114","0.469","360.0","NAN","0","NAN","NAN","NAN","NAN","NAN"],
    [1559877,"2026-06-27 04:20:00","115","0.39799999999999996","360.0","NAN","0","NAN","NAN","NAN","NAN","NAN"],
    [1559878,"2026-06-27 04:30:00","116","0.36","360.0","NAN","0","NAN","NAN","NAN","NAN","NAN"],
    [1559879,"2026-06-27 04:40:00","117","0.43","360.0","NAN","0","NAN","NAN","NAN","NAN","NAN"],
    [1559880,"2026-06-27 04:50:00","118","0.617","360.0","NAN","0","NAN","NAN","NAN","NAN","NAN"],
    [1559881,"2026-06-27 05:00:00","119","0.579","360.0","NAN","0","NAN","NAN","NAN","NAN","NAN"],
    [1559882,"2026-06-27 05:10:00","120","0.53","360.0","NAN","0","NAN","NAN","NAN","NAN","NAN"],
    [1559883,"2026-06-27 05:20:00","121","0.418","360.0","NAN","0","NAN","NAN","NAN","NAN","NAN"],
    [1559884,"2026-06-27 05:30:00","122","0.502","360.0","NAN","0","NAN","NAN","NAN","NAN","NAN"],
    [1559885,"2026-06-27 05:40:00","123","0.506","360.0","NAN","0","NAN","NAN","NAN","NAN","NAN"],
    [1559886,"2026-06-27 05:50:00","124","0.871","360.0","NAN","0","NAN","NAN","NAN","NAN","NAN"],
    [1559887,"2026-06-27 06:00:00","125","0.4","360.0","NAN","0","NAN","NAN","NAN","NAN","NAN"],
    [1559888,"2026-06-27 06:10:00","126","0.207","360.0","NAN","0","NAN","NAN","NAN","NAN","NAN"],
    [1559889,"2026-06-27 06:20:00","127","0.195","360.0","NAN","0","NAN","NAN","NAN","NAN","NAN"],
    [1559890,"2026-06-27 06:30:00","128","0.395","360.0","NAN","0","NAN","NAN","NAN","NAN","NAN"],
    [1559891,"2026-06-27 06:40:00","129","0.877","360.0","NAN","0","NAN","NAN","NAN","NAN","NAN"],
    [1559892,"2026-06-27 06:50:00","130","0.653","360.0","NAN","0","NAN","NAN","NAN","NAN","NAN"],
    [1559893,"2026-06-27 07:00:00","131","0.159","360.0","NAN","0","NAN","NAN","NAN","NAN","NAN"],
    [1559894,"2026-06-27 07:10:00","132","0.43","360.0","NAN","0","NAN","NAN","NAN","NAN","NAN"],
    [1559895,"2026-06-27 07:20:00","133","0.161","360.0","NAN","0","NAN","NAN","NAN","NAN","NAN"],
    [1559896,"2026-06-27 07:30:00","134","0.006","360.0","NAN","0","NAN","NAN","NAN","NAN","NAN"],
    [1559897,"2026-06-27 07:40:00","135","1.7209999999999999","360.0","NAN","0","NAN","NAN","NAN","NAN","NAN"],
    [1559898,"2026-06-27 07:50:00","136","1.703","360.0","NAN","0","NAN","NAN","NAN","NAN","NAN"],
    [1559899,"2026-06-27 08:00:00","137","2.41","360.0","NAN","0","NAN","NAN","NAN","NAN","NAN"],
    [1559900,"2026-06-27 08:10:00","138","2.536","360.0","NAN","0","NAN","NAN","NAN","NAN","NAN"],
    [1559901,"2026-06-27 08:20:00","139","2.45","360.0","NAN","0","NAN","NAN","NAN","NAN","NAN"],
    [1559902,"2026-06-27 08:30:00","140","2.545","360.0","NAN","0","NAN","NAN","NAN","NAN","NAN"],
    [1559903,"2026-06-27 08:40:00","141","2.2880000000000003","360.0","NAN","0","NAN","NAN","NAN","NAN","NAN"],
    [1559904,"2026-06-27 08:50:00","142","2.185","360.0","NAN","0","NAN","NAN","NAN","NAN","NAN"],
    [1559905,"2026-06-27 09:00:00","143","2.083","360.0","NAN","0","NAN","NAN","NAN","NAN","NAN"],
    [1559906,"2026-06-27 09:10:00","144","2.083","360.0","NAN","0","NAN","NAN","NAN","NAN","NAN"],
    [1559907,"2026-06-27 09:20:00","145","2.023","360.0","NAN","0","NAN","NAN","NAN","NAN","NAN"],
    [1559908,"2026-06-27 09:30:00","146","2.215","360.0","NAN","0","NAN","NAN","NAN","NAN","NAN"],
    [1559909,"2026-06-27 09:40:00","147","2.342","360.0","NAN","0","NAN","NAN","NAN","NAN","NAN"],
    [1559910,"2026-06-27 09:50:00","148","2.738","360.0","NAN","0","NAN","NAN","NAN","NAN","NAN"],
    [1559911,"2026-06-27 10:00:00","149","2.6719999999999997","360.0","NAN","0","NAN","NAN","NAN","NAN","NAN"],
    [1559912,"2026-06-27 10:10:00","150","2.489","360.0","NAN","0","NAN","NAN","NAN","NAN","NAN"],
    [1559913,"2026-06-27 10:20:00","151","2.202","360.0","NAN","0","NAN","NAN","NAN","NAN","NAN"],
    [1559914,"2026-06-27 10:30:00","152","2.955","360.0","NAN","0","NAN","NAN","NAN","NAN","NAN"],
    [1559915,"2026-06-27 10:40:00","153","3.2539999999999996","360.0","NAN","0","NAN","NAN","NAN","NAN","NAN"],
    [1559916,"2026-06-27 10:50:00","154","2.6210000000000004","360.0","NAN","0","NAN","NAN","NAN","NAN","NAN"],
    [1559917,"2026-06-27 11:00:00","155","2.467","360.0","NAN","0","NAN","NAN","NAN","NAN","NAN"],
    [1559918,"2026-06-27 11:10:00","156","2.285","360.0","NAN","0","NAN","NAN","NAN","NAN","NAN"],
    [1559919,"2026-06-27 11:20:00","157","2.521","360.0","NAN","0","NAN","NAN","NAN","NAN","NAN"],
    [1559920,"2026-06-27 11:30:00","158","3.0460000000000003","360.0","NAN","0","NAN","NAN","NAN","NAN","NAN"],
    [1559921,"2026-06-27 11:40:00","159","3.367","360.0","NAN","0","NAN","NAN","NAN","NAN","NAN"],
    [1559922,"2026-06-27 11:50:00","160","3.8560000000000003","360.0","NAN","0","NAN","NAN","NAN","NAN","NAN"],
    [1559923,"2026-06-27 12:00:00","161","3.7089999999999996","360.0","NAN","0","NAN","NAN","NAN","NAN","NAN"],
    [1559924,"2026-06-27 12:10:00","162","3.625","360.0","NAN","0","NAN","NAN","NAN","NAN","NAN"],
    [1559925,"2026-06-27 12:20:00","163","3.8819999999999997","360.0","NAN","0","NAN","NAN","NAN","NAN","NAN"],
    [1559926,"2026-06-27 12:30:00","164","3.6310000000000002","360.0","NAN","0","NAN","NAN","NAN","NAN","NAN"],
    [1559927,"2026-06-27 12:40:00","165","3.3739999999999997","360.0","NAN","0","NAN","NAN","NAN","NAN","NAN"],
    [1559928,"2026-06-27 12:50:00","166","3.117","360.0","NAN","0","NAN","NAN","NAN","NAN","NAN"],
    [1559929,"2026-06-27 13:00:00","167","2.7030000000000003","360.0","NAN","0","NAN","NAN","NAN","NAN","NAN"],
    [1559930,"2026-06-27 13:10:00","168","3.234","360.0","NAN","0","NAN","NAN","NAN","NAN","NAN"],
    [1559931,"2026-06-27 13:20:00","169","3.0460000000000003","360.0","NAN","0","NAN","NAN","NAN","NAN","NAN"],
    [1559932,"2026-06-27 13:30:00","170","2.786","360.0","NAN","0","NAN","NAN","NAN","NAN","NAN"],
    [1559933,"2026-06-27 13:40:00","171","2.7460000000000004","360.0","NAN","0","NAN","NAN","NAN","NAN","NAN"],
    [1559934,"2026-06-27 13:50:00","172","2.903","360.0","NAN","0","NAN","NAN","NAN","NAN","NAN"],
    [1559935,"2026-06-27 14:00:00","173","2.9739999999999998","360.0","NAN","0","NAN","NAN","NAN","NAN","NAN"],
    [1559936,"2026-06-27 14:10:00","174","2.8139999999999996","360.0","NAN","0","NAN","NAN","NAN","NAN","NAN"],
    [1559937,"2026-06-27 14:20:00","175","3.324","360.0","NAN","0","NAN","NAN","NAN","NAN","NAN"],
    [1559938,"2026-06-27 14:30:00","176","3.092","360.0","NAN","0","NAN","NAN","NAN","NAN","NAN"],
    [1559939,"2026-06-27 14:40:00","177","3.002","360.0","NAN","0","NAN","NAN","NAN","NAN","NAN"],
    [1559940,"2026-06-27 14:50:00","178","2.7769999999999997","360.0","NAN","0","NAN","NAN","NAN","NAN","NAN"],
    [1559941,"2026-06-27 15:00:00","179","2.319","360.0","NAN","0","NAN","NAN","NAN","NAN","NAN"],
    [1559942,"2026-06-27 15:10:00","180","2.36","360.0","NAN","0","NAN","NAN","NAN","NAN","NAN"],
    [1559943,"2026-06-27 15:20:00","181","2.05","360.0","NAN","0","NAN","NAN","NAN","NAN","NAN"],
    [1559944,"2026-06-27 15:30:00","182","2.681","360.0","NAN","0","NAN","NAN","NAN","NAN","NAN"],
    [1559945,"2026-06-27 15:40:00","183","2.5839999999999996","360.0","NAN","0","NAN","NAN","NAN","NAN","NAN"],
    [1559946,"2026-06-27 15:50:00","184","2.7","360.0","NAN","0","NAN","NAN","NAN","NAN","NAN"],
    [1559947,"2026-06-27 16:00:00","185","2.576","360.0","NAN","0","NAN","NAN","NAN","NAN","NAN"],
    [1559948,"2026-06-27 16:10:00","186","2.384","360.0","NAN","0","NAN","NAN","NAN","NAN","NAN"],
    [1559949,"2026-06-27 16:20:00","187","2.755","360.0","NAN","0","NAN","NAN","NAN","NAN","NAN"],
    [1559950,"2026-06-27 16:30:00","188","2.352","360.0","NAN","0","NAN","NAN","NAN","NAN","NAN"],
    [1559951,"2026-06-27 16:40:00","189","2.102","360.0","NAN","0","NAN","NAN","NAN","NAN","NAN"],
    [1559952,"2026-06-27 16:50:00","190","1.896","360.0","NAN","0","NAN","NAN","NAN","NAN","NAN"],
    [1559953,"2026-06-27 17:00:00","191","1.819","360.0","NAN","0","NAN","NAN","NAN","NAN","NAN"],
    [1559954,"2026-06-27 17:10:00","192","1.8459999999999999","360.0","NAN","0","NAN","NAN","NAN","NAN","NAN"],
    [1559955,"2026-06-27 17:20:00","193","2.447","360.0","NAN","0","NAN","NAN","NAN","NAN","NAN"],
    [1559956,"2026-06-27 17:30:00","194","1.95","360.0","NAN","0","NAN","NAN","NAN","NAN","NAN"],
    [1559957,"2026-06-27 17:40:00","195","2.089","360.0","NAN","0","NAN","NAN","NAN","NAN","NAN"],
    [1559958,"2026-06-27 17:50:00","196","2.199","360.0","NAN","0","NAN","NAN","NAN","NAN","NAN"],
    [1559959,"2026-06-27 18:00:00","197","1.4069999999999998","360.0","NAN","0","NAN","NAN","NAN","NAN","NAN"],
    [1559960,"2026-06-27 18:10:00","198","1.7530000000000001","360.0","NAN","0","NAN","NAN","NAN","NAN","NAN"],
    [1559961,"2026-06-27 18:20:00","199","1.636","360.0","NAN","0","NAN","NAN","NAN","NAN","NAN"],
    [1559962,"2026-06-27 18:30:00","200","1.849","360.0","NAN","0","NAN","NAN","NAN","NAN","NAN"],
    [1559963,"2026-06-27 18:40:00","201","1.4169999999999998","360.0","NAN","0","NAN","NAN","NAN","NAN","NAN"],
    [1559964,"2026-06-27 18:50:00","202","1.973","360.0","NAN","0","NAN","NAN","NAN","NAN","NAN"],
    [1559965,"2026-06-27 19:00:00","203","1.8880000000000001","360.0","NAN","0","NAN","NAN","NAN","NAN","NAN"],
    [1559966,"2026-06-27 19:10:00","204","1.565","360.0","NAN","0","NAN","NAN","NAN","NAN","NAN"],
    [1559967,"2026-06-27 19:20:00","205","1.516","360.0","NAN","0","NAN","NAN","NAN","NAN","NAN"],
    [1559968,"2026-06-27 19:30:00","206","1.29","360.0","NAN","0","NAN","NAN","NAN","NAN","NAN"],
    [1559969,"2026-06-27 19:40:00","207","1.258","360.0","NAN","0","NAN","NAN","NAN","NAN","NAN"],
    [1559970,"2026-06-27 19:50:00","208","1.084","360.0","NAN","0","NAN","NAN","NAN","NAN","NAN"],
    [1559971,"2026-06-27 20:00:00","209","0.5920000000000001","360.0","NAN","0","NAN","NAN","NAN","NAN","NAN"],
    [1559972,"2026-06-27 20:10:00","210","0.6609999999999999","360.0","NAN","0","NAN","NAN","NAN","NAN","NAN"],
    [1559973,"2026-06-27 20:20:00","211","0.37799999999999995","360.0","NAN","0","NAN","NAN","NAN","NAN","NAN"],
    [1559974,"2026-06-27 20:30:00","212","0.152","360.0","NAN","0","NAN","NAN","NAN","NAN","NAN"],
    [1559975,"2026-06-27 20:40:00","213","0.615","360.0","NAN","0","NAN","NAN","NAN","NAN","NAN"],
    [1559976,"2026-06-27 20:50:00","214","0.972","360.0","NAN","0","NAN","NAN","NAN","NAN","NAN"],
    [1559977,"2026-06-27 21:00:00","215","0.705","360.0","NAN","0","NAN","NAN","NAN","NAN","NAN"],
    [1559978,"2026-06-27 21:10:00","216","1.179","360.0","NAN","0","NAN","NAN","NAN","NAN","NAN"],
    [1559979,"2026-06-27 21:20:00","217","1.369","360.0","NAN","0","NAN","NAN","NAN","NAN","NAN"],
    [1559980,"2026-06-27 21:30:00","218","1.425","360.0","NAN","0","NAN","NAN","NAN","NAN","NAN"],
    [1559981,"2026-06-27 21:40:00","219","0.976","360.0","NAN","0","NAN","NAN","NAN","NAN","NAN"],
    [1559982,"2026-06-27 21:50:00","220","0.737","360.0","NAN","0","NAN","NAN","NAN","NAN","NAN"],
    [1559983,"2026-06-27 22:00:00","221","0.833","360.0","NAN","0","NAN","NAN","NAN","NAN","NAN"],
    [1559984,"2026-06-27 22:10:00","222","0.696","360.0","NAN","0","NAN","NAN","NAN","NAN","NAN"],
    [1559985,"2026-06-27 22:20:00","223","0.521","360.0","NAN","0","NAN","NAN","NAN","NAN","NAN"],
    [1559986,"2026-06-27 22:30:00","224","0.12300000000000001","360.0","NAN","0","NAN","NAN","NAN","NAN","NAN"],
    [1559987,"2026-06-27 22:40:00","225","0.23399999999999999","360.0","NAN","0","NAN","NAN","NAN","NAN","NAN"],
    [1559988,"2026-06-27 22:50:00","226","0.06","360.0","NAN","0","NAN","NAN","NAN","NAN","NAN"],
    [1559989,"2026-06-27 23:00:00","227","0.0","0.0","NAN","0","NAN","NAN","NAN","NAN","NAN"],
    [1559990,"2026-06-27 23:10:00","228","0.0","0.0","NAN","0","NAN","NAN","NAN","NAN","NAN"],
    [1559991,"2026-06-27 23:20:00","229","0.0","0.0","NAN","0","NAN","NAN","NAN","NAN","NAN"],
    [1559992,"2026-06-27 23:30:00","230","0.053","360.0","NAN","0","NAN","NAN","NAN","NAN","NAN"],
    [1559993,"2026-06-27 23:40:00","231","0.278","360.0","NAN","0","NAN","NAN","NAN","NAN","NAN"],
    [1559994,"2026-06-27 23:50:00","232","0.514","360.0","NAN","0","NAN","NAN","NAN","NAN","NAN"],
    [1559995,"2026-06-28 00:00:00","233","0.18600000000000003","360.0","NAN","0","NAN","NAN","NAN","NAN","NAN"],
    [1559996,"2026-06-28 00:10:00","234","0.052000000000000005","360.0","NAN","0","NAN","NAN","NAN","NAN","NAN"],
    [1559997,"2026-06-28 00:20:00","235","0.258","360.0","NAN","0","NAN","NAN","NAN","NAN","NAN"],
    [1559998,"2026-06-28 00:30:00","236","0.415","360.0","NAN","0","NAN","NAN","NAN","NAN","NAN"],
    [1559999,"2026-06-28 00:40:00","237","0.298","360.0","NAN","0","NAN","NAN","NAN","NAN","NAN"],
    [1560000,"2026-06-28 00:50:00","238","0.214","360.0","NAN","0","NAN","NAN","NAN","NAN","NAN"],
    [1560001,"2026-06-28 01:00:00","239","0.509","360.0","NAN","0","NAN","NAN","NAN","NAN","NAN"],
    [1560002,"2026-06-28 01:10:00","240","0.413","360.0","NAN","0","NAN","NAN","NAN","NAN","NAN"],
    [1560003,"2026-06-28 01:20:00","241","0.341","360.0","NAN","0","NAN","NAN","NAN","NAN","NAN"],
    [1560004,"2026-06-28 01:30:00","242","0.5539999999999999","360.0","NAN","0","NAN","NAN","NAN","NAN","NAN"],
    [1560005,"2026-06-28 01:40:00","243","0.736","360.0","NAN","0","NAN","NAN","NAN","NAN","NAN"],
    [1560006,"2026-06-28 01:50:00","244","0.752","360.0","NAN","0","NAN","NAN","NAN","NAN","NAN"],
    [1560007,"2026-06-28 02:00:00","245","0.835","360.0","NAN","0","NAN","NAN","NAN","NAN","NAN"],
    [1560008,"2026-06-28 02:10:00","246","1.063","360.0","NAN","0","NAN","NAN","NAN","NAN","NAN"],
    [1560009,"2026-06-28 02:20:00","247","1.048","360.0","NAN","0","NAN","NAN","NAN","NAN","NAN"],
    [1560010,"2026-06-28 02:30:00","248","1.284","360.0","NAN","0","NAN","NAN","NAN","NAN","NAN"],
    [1560011,"2026-06-28 02:40:00","249","1.01","360.0","NAN","0","NAN","NAN","NAN","NAN","NAN"],
    [1560012,"2026-06-28 02:50:00","250","1.207","360.0","NAN","0","NAN","NAN","NAN","NAN","NAN"],
    [1560013,"2026-06-28 03:00:00","251","1.143","360.0","NAN","0","NAN","NAN","NAN","NAN","NAN"],
    [1560014,"2026-06-28 03:10:00","252","1.524","360.0","NAN","0","NAN","NAN","NAN","NAN","NAN"],
    [1560015,"2026-06-28 03:20:00","253","1.932","360.0","NAN","0","NAN","NAN","NAN","NAN","NAN"],
    [1560016,"2026-06-28 03:30:00","254","1.662","360.0","NAN","0","NAN","NAN","NAN","NAN","NAN"],
    [1560017,"2026-06-28 03:40:00","255","1.766","360.0","NAN","0","NAN","NAN","NAN","NAN","NAN"],
    [1560018,"2026-06-28 03:50:00","256","1.4069999999999998","360.0","NAN","0","NAN","NAN","NAN","NAN","NAN"],
    [1560019,"2026-06-28 04:00:00","257","1.4380000000000002","360.0","NAN","0","NAN","NAN","NAN","NAN","NAN"],
    [1560020,"2026-06-28 04:10:00","258","1.274","360.0","NAN","0","NAN","NAN","NAN","NAN","NAN"],
    [1560021,"2026-06-28 04:20:00","259","1.3619999999999999","360.0","NAN","0","NAN","NAN","NAN","NAN","NAN"],
    [1560022,"2026-06-28 04:30:00","260","1.194","360.0","NAN","0","NAN","NAN","NAN","NAN","NAN"],
    [1560023,"2026-06-28 04:40:00","261","1.115","360.0","NAN","0","NAN","NAN","NAN","NAN","NAN"],
    [1560024,"2026-06-28 04:50:00","262","0.871","360.0","NAN","0","NAN","NAN","NAN","NAN","NAN"],
    [1560025,"2026-06-28 05:00:00","263","1.319","360.0","NAN","0","NAN","NAN","NAN","NAN","NAN"],
    [1560026,"2026-06-28 05:10:00","264","1.5930000000000002","360.0","NAN","0","NAN","NAN","NAN","NAN","NAN"],
    [1560027,"2026-06-28 05:20:00","265","1.368","360.0","NAN","0","NAN","NAN","NAN","NAN","NAN"],
    [1560028,"2026-06-28 05:30:00","266","0.922","360.0","NAN","0","NAN","NAN","NAN","NAN","NAN"],
    [1560029,"2026-06-28 05:40:00","267","1.5119999999999998","360.0","NAN","0","NAN","NAN","NAN","NAN","NAN"],
    [1560030,"2026-06-28 05:50:00","268","1.5759999999999998","360.0","NAN","0","NAN","NAN","NAN","NAN","NAN"],
    [1560031,"2026-06-28 06:00:00","269","1.713","360.0","NAN","0","NAN","NAN","NAN","NAN","NAN"],
    [1560032,"2026-06-28 06:10:00","270","1.776","360.0","NAN","0","NAN","NAN","NAN","NAN","NAN"],
    [1560033,"2026-06-28 06:20:00","271","1.354","360.0","NAN","0","NAN","NAN","NAN","NAN","NAN"],
    [1560034,"2026-06-28 06:30:00","272","0.915","360.0","NAN","0","NAN","NAN","NAN","NAN","NAN"],
    [1560035,"2026-06-28 06:40:00","273","0.28800000000000003","360.0","NAN","0","NAN","NAN","NAN","NAN","NAN"],
    [1560036,"2026-06-28 06:50:00","274","0.01","360.0","NAN","0","NAN","NAN","NAN","NAN","NAN"],
    [1560037,"2026-06-28 07:00:00","275","0.124","360.0","NAN","0","NAN","NAN","NAN","NAN","NAN"],
    [1560038,"2026-06-28 07:10:00","276","0.293","360.0","NAN","0","NAN","NAN","NAN","NAN","NAN"],
    [1560039,"2026-06-28 07:20:00","277","0.509","360.0","NAN","0","NAN","NAN","NAN","NAN","NAN"],
    [1560040,"2026-06-28 07:30:00","278","1.204","360.0","NAN","0","NAN","NAN","NAN","NAN","NAN"],
    [1560041,"2026-06-28 07:40:00","279","2.174","360.0","NAN","0","NAN","NAN","NAN","NAN","NAN"],
    [1560042,"2026-06-28 07:50:00","280","2.4659999999999997","360.0","NAN","0","NAN","NAN","NAN","NAN","NAN"],
    [1560043,"2026-06-28 08:00:00","281","1.929","360.0","NAN","0","NAN","NAN","NAN","NAN","NAN"],
    [1560044,"2026-06-28 08:10:00","282","2.245","360.0","NAN","0","NAN","NAN","NAN","NAN","NAN"],
    [1560045,"2026-06-28 08:20:00","283","2.431","360.0","NAN","0","NAN","NAN","NAN","NAN","NAN"],
    [1560046,"2026-06-28 08:30:00","284","2.6710000000000003","360.0","NAN","0","NAN","NAN","NAN","NAN","NAN"],
    [1560047,"2026-06-28 08:40:00","285","3.2939999999999996","360.0","NAN","0","NAN","NAN","NAN","NAN","NAN"],
    [1560048,"2026-06-28 08:50:00","286","2.77","360.0","NAN","0","NAN","NAN","NAN","NAN","NAN"],
    [1560049,"2026-06-28 09:00:00","287","2.6260000000000003","360.0","NAN","0","NAN","NAN","NAN","NAN","NAN"],
    [1560050,"2026-06-28 09:10:00","288","3.054","360.0","NAN","0","NAN","NAN","NAN","NAN","NAN"],
    [1560051,"2026-06-28 09:20:00","289","2.597","360.0","NAN","0","NAN","NAN","NAN","NAN","NAN"],
    [1560052,"2026-06-28 09:30:00","290","2.6430000000000002","360.0","NAN","0","NAN","NAN","NAN","NAN","NAN"],
    [1560053,"2026-06-28 09:40:00","291","2.628","360.0","NAN","0","NAN","NAN","NAN","NAN","NAN"],
    [1560054,"2026-06-28 09:50:00","292","2.465","360.0","NAN","0","NAN","NAN","NAN","NAN","NAN"],
    [1560055,"2026-06-28 10:00:00","293","2.747","360.0","NAN","0","NAN","NAN","NAN","NAN","NAN"],
    [1560056,"2026-06-28 10:10:00","294","2.4819999999999998","360.0","NAN","0","NAN","NAN","NAN","NAN","NAN"],
    [1560057,"2026-06-28 10:20:00","295","2.687","360.0","NAN","0","NAN","NAN","NAN","NAN","NAN"],
    [1560058,"2026-06-28 10:30:00","296","2.325","360.0","NAN","0","NAN","NAN","NAN","NAN","NAN"],
    [1560059,"2026-06-28 10:40:00","297","2.374","360.0","NAN","0","NAN","NAN","NAN","NAN","NAN"],
    [1560060,"2026-06-28 10:50:00","298","2.379","360.0","NAN","0","NAN","NAN","NAN","NAN","NAN"],
    [1560061,"2026-06-28 11:00:00","299","2.696","360.0","NAN","0","NAN","NAN","NAN","NAN","NAN"],
    [1560062,"2026-06-28 11:10:00","300","2.313","360.0","NAN","0","NAN","NAN","NAN","NAN","NAN"],
    [1560063,"2026-06-28 11:20:00","301","3.1919999999999997","360.0","NAN","0","NAN","NAN","NAN","NAN","NAN"],
    [1560064,"2026-06-28 11:30:00","302","3.093","360.0","NAN","0","NAN","NAN","NAN","NAN","NAN"],
    [1560065,"2026-06-28 11:40:00","303","2.971","360.0","NAN","0","NAN","NAN","NAN","NAN","NAN"],
    [1560066,"2026-06-28 11:50:00","304","2.988","360.0","NAN","0","NAN","NAN","NAN","NAN","NAN"],
    [1560067,"2026-06-28 12:00:00","305","2.89","360.0","NAN","0","NAN","NAN","NAN","NAN","NAN"],
    [1560068,"2026-06-28 12:10:00","306","3.1439999999999997","360.0","NAN","0","NAN","NAN","NAN","NAN","NAN"],
    [1560069,"2026-06-28 12:20:00","307","3.042","360.0","NAN","0","NAN","NAN","NAN","NAN","NAN"],
    [1560070,"2026-06-28 12:30:00","308","3.033","360.0","NAN","0","NAN","NAN","NAN","NAN","NAN"],
    [1560071,"2026-06-28 12:40:00","309","2.8539999999999996","360.0","NAN","0","NAN","NAN","NAN","NAN","NAN"],
    [1560072,"2026-06-28 12:50:00","310","2.965","360.0","NAN","0","NAN","NAN","NAN","NAN","NAN"],
    [1560073,"2026-06-28 13:00:00","311","3.471","360.0","NAN","0","NAN","NAN","NAN","NAN","NAN"],
    [1560074,"2026-06-28 13:10:00","312","3.255","360.0","NAN","0","NAN","NAN","NAN","NAN","NAN"],
    [1560075,"2026-06-28 13:20:00","313","3.415","360.0","NAN","0","NAN","NAN","NAN","NAN","NAN"],
    [1560076,"2026-06-28 13:30:00","314","3.7239999999999998","360.0","NAN","0","NAN","NAN","NAN","NAN","NAN"],
    [1560077,"2026-06-28 13:40:00","315","3.4530000000000003","360.0","NAN","0","NAN","NAN","NAN","NAN","NAN"],
    [1560078,"2026-06-28 13:50:00","316","2.944","360.0","NAN","0","NAN","NAN","NAN","NAN","NAN"],
    [1560079,"2026-06-28 14:00:00","317","2.772","360.0","NAN","0","NAN","NAN","NAN","NAN","NAN"],
    [1560080,"2026-06-28 14:10:00","318","3.505","360.0","NAN","0","NAN","NAN","NAN","NAN","NAN"],
    [1560081,"2026-06-28 14:20:00","319","3.391","360.0","NAN","0","NAN","NAN","NAN","NAN","NAN"],
    [1560082,"2026-06-28 14:30:00","320","3.322","360.0","NAN","0","NAN","NAN","NAN","NAN","NAN"],
    [1560083,"2026-06-28 14:40:00","321","3.51","360.0","NAN","0","NAN","NAN","NAN","NAN","NAN"],
    [1560084,"2026-06-28 14:50:00","322","2.863","360.0","NAN","0","NAN","NAN","NAN","NAN","NAN"],
    [1560085,"2026-06-28 15:00:00","323","3.7239999999999998","360.0","NAN","0","NAN","NAN","NAN","NAN","NAN"],
    [1560086,"2026-06-28 15:10:00","324","3.583","360.0","NAN","0","NAN","NAN","NAN","NAN","NAN"],
    [1560087,"2026-06-28 15:20:00","325","3.609","360.0","NAN","0","NAN","NAN","NAN","NAN","NAN"],
    [1560088,"2026-06-28 15:30:00","326","3.111","360.0","NAN","0","NAN","NAN","NAN","NAN","NAN"],
    [1560089,"2026-06-28 15:40:00","327","3.301","360.0","NAN","0","NAN","NAN","NAN","NAN","NAN"],
    [1560090,"2026-06-28 15:50:00","328","3.431","360.0","NAN","0","NAN","NAN","NAN","NAN","NAN"],
    [1560091,"2026-06-28 16:00:00","329","2.185","360.0","NAN","0","NAN","NAN","NAN","NAN","NAN"],
    [1560092,"2026-06-28 16:10:00","330","2.1590000000000003","360.0","NAN","0","NAN","NAN","NAN","NAN","NAN"],
    [1560093,"2026-06-28 16:20:00","331","2.364","360.0","NAN","0","NAN","NAN","NAN","NAN","NAN"],
    [1560094,"2026-06-28 16:30:00","332","1.7830000000000001","360.0","NAN","0","NAN","NAN","NAN","NAN","NAN"],
    [1560095,"2026-06-28 16:40:00","333","1.9069999999999998","360.0","NAN","0","NAN","NAN","NAN","NAN","NAN"],
    [1560096,"2026-06-28 16:50:00","334","1.736","360.0","NAN","0","NAN","NAN","NAN","NAN","NAN"],
    [1560097,"2026-06-28 17:00:00","335","1.386","360.0","NAN","0","NAN","NAN","NAN","NAN","NAN"],
    [1560098,"2026-06-28 17:10:00","336","1.1059999999999999","360.0","NAN","0","NAN","NAN","NAN","NAN","NAN"],
    [1560099,"2026-06-28 17:20:00","337","0.893","360.0","NAN","0","NAN","NAN","NAN","NAN","NAN"],
    [1560100,"2026-06-28 17:30:00","338","1.5919999999999999","360.0","NAN","0","NAN","NAN","NAN","NAN","NAN"],
    [1560101,"2026-06-28 17:40:00","339","1.3359999999999999","360.0","NAN","0","NAN","NAN","NAN","NAN","NAN"],
    [1560102,"2026-06-28 17:50:00","340","1.286","360.0","NAN","0","NAN","NAN","NAN","NAN","NAN"],
    [1560103,"2026-06-28 18:00:00","341","1.788","360.0","NAN","0","NAN","NAN","NAN","NAN","NAN"],
    [1560104,"2026-06-28 18:10:00","342","2.012","360.0","NAN","0","NAN","NAN","NAN","NAN","NAN"],
    [1560105,"2026-06-28 18:20:00","343","1.54","360.0","NAN","0","NAN","NAN","NAN","NAN","NAN"],
    [1560106,"2026-06-28 18:30:00","344","1.395","360.0","NAN","0","NAN","NAN","NAN","NAN","NAN"],
    [1560107,"2026-06-28 18:40:00","345","1.0070000000000001","360.0","NAN","0","NAN","NAN","NAN","NAN","NAN"],
    [1560108,"2026-06-28 18:50:00","346","1.815","360.0","NAN","0","NAN","NAN","NAN","NAN","NAN"],
    [1560109,"2026-06-28 19:00:00","347","1.4509999999999998","360.0","NAN","0","NAN","NAN","NAN","NAN","NAN"],
    [1560110,"2026-06-28 19:10:00","348","1.536","360.0","NAN","0","NAN","NAN","NAN","NAN","NAN"],
    [1560111,"2026-06-28 19:20:00","349","2.319","360.0","NAN","0","NAN","NAN","NAN","NAN","NAN"],
    [1560112,"2026-06-28 19:30:00","350","1.874","360.0","NAN","0","NAN","NAN","NAN","NAN","NAN"],
    [1560113,"2026-06-28 19:40:00","351","1.8980000000000001","360.0","NAN","0","NAN","NAN","NAN","NAN","NAN"],
    [1560114,"2026-06-28 19:50:00","352","1.565","360.0","NAN","0","NAN","NAN","NAN","NAN","NAN"],
    [1560115,"2026-06-28 20:00:00","353","2.1390000000000002","360.0","NAN","0","NAN","NAN","NAN","NAN","NAN"],
    [1560116,"2026-06-28 20:10:00","354","2.339","360.0","NAN","0","NAN","NAN","NAN","NAN","NAN"],
    [1560117,"2026-06-28 20:20:00","355","2.7910000000000004","360.0","NAN","0","NAN","NAN","NAN","NAN","NAN"],
    [1560118,"2026-06-28 20:30:00","356","2.009","360.0","NAN","0","NAN","NAN","NAN","NAN","NAN"],
    [1560119,"2026-06-28 20:40:00","357","1.339","360.0","NAN","0","NAN","NAN","NAN","NAN","NAN"],
    [1560120,"2026-06-28 20:50:00","358","1.3130000000000002","360.0","NAN","0","NAN","NAN","NAN","NAN","NAN"],
    [1560121,"2026-06-28 21:00:00","359","1.266","360.0","NAN","0","NAN","NAN","NAN","NAN","NAN"],
    [1560122,"2026-06-28 21:10:00","360","1.3869999999999998","360.0","NAN","0","NAN","NAN","NAN","NAN","NAN"],
    [1560123,"2026-06-28 21:20:00","361","1.264","360.0","NAN","0","NAN","NAN","NAN","NAN","NAN"],
    [1560124,"2026-06-28 21:30:00","362","0.426","360.0","NAN","0","NAN","NAN","NAN","NAN","NAN"],
    [1560125,"2026-06-28 21:40:00","363","0.84","360.0","NAN","0","NAN","NAN","NAN","NAN","NAN"],
    [1560126,"2026-06-28 21:50:00","364","0.289","360.0","NAN","0","NAN","NAN","NAN","NAN","NAN"],
    [1560127,"2026-06-28 22:00:00","365","1.5090000000000001","360.0","NAN","0","NAN","NAN","NAN","NAN","NAN"],
    [1560128,"2026-06-28 22:10:00","366","1.9809999999999999","360.0","NAN","0","NAN","NAN","NAN","NAN","NAN"],
    [1560129,"2026-06-28 22:20:00","367","1.396","360.0","NAN","0","NAN","NAN","NAN","NAN","NAN"],
    [1560130,"2026-06-28 22:30:00","368","0.040999999999999995","360.0","NAN","0","NAN","NAN","NAN","NAN","NAN"],
    [1560131,"2026-06-28 22:40:00","369","2.081","360.0","NAN","0","NAN","NAN","NAN","NAN","NAN"],
    [1560132,"2026-06-28 22:50:00","370","4.745","360.0","NAN","0","NAN","NAN","NAN","NAN","NAN"],
    [1560133,"2026-06-28 23:00:00","371","4.058","360.0","NAN","0","NAN","NAN","NAN","NAN","NAN"],
    [1560134,"2026-06-28 23:10:00","372","4.487","360.0","NAN","0","NAN","NAN","NAN","NAN","NAN"],
    [1560135,"2026-06-28 23:20:00","373","4.088","360.0","NAN","0","NAN","NAN","NAN","NAN","NAN"],
    [1560136,"2026-06-28 23:30:00","374","4.485","360.0","NAN","0","NAN","NAN","NAN","NAN","NAN"],
    [1560137,"2026-06-28 23:40:00","375","3.4819999999999998","360.0","NAN","0","NAN","NAN","NAN","NAN","NAN"],
    [1560138,"2026-06-28 23:50:00","376","3.1719999999999997","360.0","NAN","0","NAN","NAN","NAN","NAN","NAN"],
    [1560139,"2026-06-29 00:00:00","377","1.6740000000000002","360.0","NAN","0","NAN","NAN","NAN","NAN","NAN"],
    [1560140,"2026-06-29 00:10:00","378","0.594","360.0","NAN","0","NAN","NAN","NAN","NAN","NAN"],
    [1560141,"2026-06-29 00:20:00","379","1.2109999999999999","360.0","NAN","0","NAN","NAN","NAN","NAN","NAN"],
    [1560142,"2026-06-29 00:30:00","380","2.716","360.0","NAN","0","NAN","NAN","NAN","NAN","NAN"],
    [1560143,"2026-06-29 00:40:00","381","2.57","360.0","NAN","0","NAN","NAN","NAN","NAN","NAN"],
    [1560144,"2026-06-29 00:50:00","382","3.372","360.0","NAN","0","NAN","NAN","NAN","NAN","NAN"],
    [1560145,"2026-06-29 01:00:00","383","2.623","360.0","NAN","0","NAN","NAN","NAN","NAN","NAN"],
    [1560146,"2026-06-29 01:10:00","384","2.031","360.0","NAN","0","NAN","NAN","NAN","NAN","NAN"],
    [1560147,"2026-06-29 01:20:00","385","1.07","360.0","NAN","0","NAN","NAN","NAN","NAN","NAN"],
    [1560148,"2026-06-29 01:30:00","386","1.423","360.0","NAN","0","NAN","NAN","NAN","NAN","NAN"],
    [1560149,"2026-06-29 01:40:00","387","1.544","360.0","NAN","0","NAN","NAN","NAN","NAN","NAN"],
    [1560150,"2026-06-29 01:50:00","388","0.528","360.0","NAN","0","NAN","NAN","NAN","NAN","NAN"],
    [1560151,"2026-06-29 02:00:00","389","0.062","360.0","NAN","0","NAN","NAN","NAN","NAN","NAN"],
    [1560152,"2026-06-29 02:10:00","390","0.494","360.0","NAN","0","NAN","NAN","NAN","NAN","NAN"],
    [1560153,"2026-06-29 02:20:00","391","1.8259999999999998","360.0","NAN","0","NAN","NAN","NAN","NAN","NAN"],
    [1560154,"2026-06-29 02:30:00","392","3.237","360.0","NAN","0","NAN","NAN","NAN","NAN","NAN"],
    [1560155,"2026-06-29 02:40:00","393","3.978","360.0","NAN","0","NAN","NAN","NAN","NAN","NAN"],
    [1560156,"2026-06-29 02:50:00","394","2.9419999999999997","360.0","NAN","0","NAN","NAN","NAN","NAN","NAN"],
    [1560157,"2026-06-29 03:00:00","395","2.722","360.0","NAN","0","NAN","NAN","NAN","NAN","NAN"],
    [1560158,"2026-06-29 03:10:00","396","2.135","360.0","NAN","0","NAN","NAN","NAN","NAN","NAN"],
    [1560159,"2026-06-29 03:20:00","397","2.49","360.0","NAN","0","NAN","NAN","NAN","NAN","NAN"],
    [1560160,"2026-06-29 03:30:00","398","2.7030000000000003","360.0","NAN","0","NAN","NAN","NAN","NAN","NAN"],
    [1560161,"2026-06-29 03:40:00","399","1.9980000000000002","360.0","NAN","0","NAN","NAN","NAN","NAN","NAN"],
    [1560162,"2026-06-29 03:50:00","400","2.031","360.0","NAN","0","NAN","NAN","NAN","NAN","NAN"],
    [1560163,"2026-06-29 04:00:00","401","2.299","360.0","NAN","0","NAN","NAN","NAN","NAN","NAN"],
    [1560164,"2026-06-29 04:10:00","402","2.1319999999999997","360.0","NAN","0","NAN","NAN","NAN","NAN","NAN"],
    [1560165,"2026-06-29 04:20:00","403","1.64","360.0","NAN","0","NAN","NAN","NAN","NAN","NAN"],
    [1560166,"2026-06-29 04:30:00","404","1.8880000000000001","360.0","NAN","0","NAN","NAN","NAN","NAN","NAN"],
    [1560167,"2026-06-29 04:40:00","405","1.82","360.0","NAN","0","NAN","NAN","NAN","NAN","NAN"],
    [1560168,"2026-06-29 04:50:00","406","1.516","360.0","NAN","0","NAN","NAN","NAN","NAN","NAN"],
    [1560169,"2026-06-29 05:00:00","407","1.0659999999999998","360.0","NAN","0","NAN","NAN","NAN","NAN","NAN"],
    [1560170,"2026-06-29 05:10:00","408","0.83","360.0","NAN","0","NAN","NAN","NAN","NAN","NAN"],
    [1560171,"2026-06-29 05:20:00","409","2.206","360.0","NAN","0","NAN","NAN","NAN","NAN","NAN"],
    [1560172,"2026-06-29 05:30:00","410","1.959","360.0","NAN","0","NAN","NAN","NAN","NAN","NAN"],
    [1560173,"2026-06-29 05:40:00","411","2.19","360.0","NAN","0","NAN","NAN","NAN","NAN","NAN"],
    [1560174,"2026-06-29 05:50:00","412","1.767","360.0","NAN","0","NAN","NAN","NAN","NAN","NAN"],
    [1560175,"2026-06-29 06:00:00","413","1.578","360.0","NAN","0","NAN","NAN","NAN","NAN","NAN"],
    [1560176,"2026-06-29 06:10:00","414","1.609","360.0","NAN","0","NAN","NAN","NAN","NAN","NAN"],
    [1560177,"2026-06-29 06:20:00","415","1.778","360.0","NAN","0","NAN","NAN","NAN","NAN","NAN"],
    [1560178,"2026-06-29 06:30:00","416","1.686","360.0","NAN","0","NAN","NAN","NAN","NAN","NAN"],
    [1560179,"2026-06-29 06:40:00","417","1.8459999999999999","360.0","NAN","0","NAN","NAN","NAN","NAN","NAN"],
    [1560180,"2026-06-29 06:50:00","418","1.965","360.0","NAN","0","NAN","NAN","NAN","NAN","NAN"],
    [1560181,"2026-06-29 07:00:00","419","1.819","360.0","NAN","0","NAN","NAN","NAN","NAN","NAN"],
    [1560182,"2026-06-29 07:10:00","420","2.424","360.0","NAN","0","NAN","NAN","NAN","NAN","NAN"],
    [1560183,"2026-06-29 07:20:00","421","2.615","360.0","NAN","0","NAN","NAN","NAN","NAN","NAN"],
    [1560184,"2026-06-29 07:30:00","422","2.517","360.0","NAN","0","NAN","NAN","NAN","NAN","NAN"],
    [1560185,"2026-06-29 07:40:00","423","2.154","360.0","NAN","0","NAN","NAN","NAN","NAN","NAN"],
    [1560186,"2026-06-29 07:50:00","424","1.348","360.0","NAN","0","NAN","NAN","NAN","NAN","NAN"],
    [1560187,"2026-06-29 08:00:00","425","1.376","360.0","NAN","0","NAN","NAN","NAN","NAN","NAN"],
    [1560188,"2026-06-29 08:10:00","426","1.92","360.0","NAN","0","NAN","NAN","NAN","NAN","NAN"],
    [1560189,"2026-06-29 08:20:00","427","2.137","360.0","NAN","0","NAN","NAN","NAN","NAN","NAN"],
    [1560190,"2026-06-29 08:30:00","428","2.484","360.0","NAN","0","NAN","NAN","NAN","NAN","NAN"],
    [1560191,"2026-06-29 08:40:00","429","2.7460000000000004","360.0","NAN","0","NAN","NAN","NAN","NAN","NAN"],
    [1560192,"2026-06-29 08:50:00","430","3.236","360.0","NAN","0","NAN","NAN","NAN","NAN","NAN"],
    [1560193,"2026-06-29 09:00:00","431","3.137","360.0","NAN","0","NAN","NAN","NAN","NAN","NAN"],
    [1560194,"2026-06-29 09:10:00","432","4.3580000000000005","360.0","NAN","0","NAN","NAN","NAN","NAN","NAN"],
    [1560195,"2026-06-29 09:20:00","433","3.95","360.0","NAN","0","NAN","NAN","NAN","NAN","NAN"],
    [1560196,"2026-07-01 06:30:00","434","3.58","360.0","0","0","NAN","NAN","NAN","NAN","NAN"],
    [1560197,"2026-07-01 06:40:00","435","3.39","360.0","NAN","0","NAN","NAN","NAN","NAN","NAN"],
    [1560198,"2026-07-01 06:50:00","436","3.487","360.0","NAN","0","NAN","NAN","NAN","NAN","NAN"],
    [1560199,"2026-07-01 07:00:00","437","3.233","360.0","NAN","0","NAN","NAN","NAN","NAN","NAN"],
    [1560200,"2026-07-01 07:10:00","438","3.463","360.0","NAN","0","NAN","NAN","NAN","NAN","NAN"],
    [1560201,"2026-07-01 07:20:00","439","3.228","360.0","NAN","0","NAN","NAN","NAN","NAN","NAN"],
    [1560202,"2026-07-01 07:30:00","440","3.8480000000000003","360.0","NAN","0","NAN","NAN","NAN","NAN","NAN"],
    [1560203,"2026-07-01 07:40:00","441","3.054","360.0","NAN","0","NAN","NAN","NAN","NAN","NAN"],
    [1560204,"2026-07-01 07:50:00","442","2.332","360.0","NAN","0","NAN","NAN","NAN","NAN","NAN"],
    [1560205,"2026-07-01 08:00:00","443","0.9890000000000001","360.0","NAN","0","NAN","NAN","NAN","NAN","NAN"],
    [1560206,"2026-07-01 08:10:00","444","0.348","360.0","NAN","0","NAN","NAN","NAN","NAN","NAN"],
    [1560207,"2026-07-01 08:20:00","445","0.342","360.0","NAN","0","NAN","NAN","NAN","NAN","NAN"],
    [1560208,"2026-07-01 08:30:00","446","2.125","360.0","NAN","0","NAN","NAN","NAN","NAN","NAN"],
    [1560209,"2026-07-01 08:40:00","447","2.072","360.0","NAN","0","NAN","NAN","NAN","NAN","NAN"],
    [1560210,"2026-07-01 08:50:00","448","2.261","360.0","NAN","0","NAN","NAN","NAN","NAN","NAN"],
    [1560211,"2026-07-01 09:00:00","449","3.0660000000000003","360.0","NAN","0","NAN","NAN","NAN","NAN","NAN"],
    [1560212,"2026-07-01 09:10:00","450","3.0269999999999997","360.0","NAN","0","NAN","NAN","NAN","NAN","NAN"],
    [1560213,"2026-07-01 09:20:00","451","3.031","360.0","NAN","0","NAN","NAN","NAN","NAN","NAN"],
    [1560214,"2026-07-01 09:30:00","452","2.9739999999999998","360.0","NAN","0","NAN","NAN","NAN","NAN","NAN"],
    [1560215,"2026-07-01 09:40:00","453","3.585","360.0","NAN","0","NAN","NAN","NAN","NAN","NAN"],
    [1560216,"2026-07-01 09:50:00","454","3.089","360.0","NAN","0","NAN","NAN","NAN","NAN","NAN"],
    [1560217,"2026-07-01 10:00:00","455","2.8489999999999998","360.0","NAN","0","NAN","NAN","NAN","NAN","NAN"],
    [1560218,"2026-07-01 10:10:00","456","3.272","360.0","NAN","0","NAN","NAN","NAN","NAN","NAN"],
    [1560219,"2026-07-01 10:20:00","457","2.8360000000000003","360.0","NAN","0","NAN","NAN","NAN","NAN","NAN"],
    [1560220,"2026-07-01 10:30:00","458","3.667","360.0","NAN","0","NAN","NAN","NAN","NAN","NAN"],
    [1560221,"2026-07-01 10:40:00","459","5.364","360.0","NAN","0","NAN","NAN","NAN","NAN","NAN"],
    [1560222,"2026-07-01 10:50:00","460","5.218","360.0","NAN","0","NAN","NAN","NAN","NAN","NAN"],
    [1560223,"2026-07-01 11:00:00","461","5.553999999999999","360.0","NAN","0","NAN","NAN","NAN","NAN","NAN"],
    [1560224,"2026-07-01 11:10:00","462","5.372999999999999","360.0","NAN","0","NAN","NAN","NAN","NAN","NAN"],
    [1560225,"2026-07-01 11:20:00","463","4.418","360.0","NAN","0","NAN","NAN","NAN","NAN","NAN"],
    [1560226,"2026-07-01 11:30:00","464","5.0489999999999995","13.33","NAN","0","NAN","NAN","NAN","NAN","NAN"],
    [1560227,"2026-07-01 11:40:00","465","4.3839999999999995","112.6","0","0","NAN","NAN","NAN","NAN","NAN"],
    [1560228,"2026-07-01 11:50:00","466","3.88","113.2","0","0","NAN","NAN","NAN","NAN","NAN"],
    [1560229,"2026-07-01 12:00:00","467","4.102","117.9","0","0","NAN","NAN","NAN","NAN","NAN"],
    [1560230,"2026-07-01 12:10:00","468","4.146","112.0","NAN","0","NAN","NAN","NAN","NAN","NAN"],
    [1560231,"2026-07-01 12:20:00","469","4.075","117.6","NAN","0","NAN","NAN","NAN","NAN","NAN"],
    [1560232,"2026-07-01 12:30:00","470","3.8989999999999996","122.1","NAN","0","NAN","NAN","NAN","NAN","NAN"],
    [1560233,"2026-07-01 12:40:00","471","3.759","116.5","NAN","0","NAN","NAN","NAN","NAN","NAN"],
    [1560234,"2026-07-01 12:50:00","472","3.877","109.0","NAN","0","NAN","NAN","NAN","NAN","NAN"],
    [1560235,"2026-07-01 13:00:00","473","3.844","122.7","NAN","0","NAN","NAN","NAN","NAN","NAN"],
    [1560236,"2026-07-01 13:10:00","474","3.8169999999999997","124.5","NAN","0","NAN","NAN","NAN","NAN","NAN"],
    [1560237,"2026-07-01 13:20:00","475","3.886","118.7","NAN","0","NAN","NAN","NAN","NAN","NAN"],
    [1560238,"2026-07-01 13:30:00","476","3.054","114.4","NAN","0","NAN","NAN","NAN","NAN","NAN"],
    [1560239,"2026-07-01 13:40:00","477","3.113","118.8","NAN","0","NAN","NAN","NAN","NAN","NAN"],
    [1560240,"2026-07-01 13:50:00","478","2.123","106.2","NAN","0","NAN","NAN","NAN","NAN","NAN"],
    [1560241,"2026-07-01 14:00:00","479","2.032","120.5","NAN","0","NAN","NAN","NAN","NAN","NAN"],
    [1560242,"2026-07-01 14:10:00","480","3.057","107.8","NAN","0","NAN","NAN","NAN","NAN","NAN"],
    [1560243,"2026-07-01 14:20:00","481","3.153","125.6","NAN","0","NAN","NAN","NAN","NAN","NAN"],
    [1560244,"2026-07-01 14:30:00","482","3.613","133.9","NAN","0","NAN","NAN","NAN","NAN","NAN"],
    [1560245,"2026-07-01 14:40:00","483","3.3289999999999997","150.4","NAN","0","NAN","NAN","NAN","NAN","NAN"],
    [1560246,"2026-07-01 14:50:00","484","3.593","128.5","NAN","0","NAN","NAN","NAN","NAN","NAN"],
    [1560247,"2026-07-01 15:00:00","485","2.8989999999999996","125.1","NAN","0","NAN","NAN","NAN","NAN","NAN"],
    [1560248,"2026-07-01 15:10:00","486","2.917","130.6","NAN","0","NAN","NAN","NAN","NAN","NAN"],
    [1560249,"2026-07-01 15:20:00","487","3.179","138.4","NAN","0","NAN","NAN","NAN","NAN","NAN"],
    [1560250,"2026-07-01 15:30:00","488","3.514","129.6","NAN","0","NAN","NAN","NAN","NAN","NAN"],
    [1560251,"2026-07-01 15:40:00","489","3.6719999999999997","130.1","NAN","0","NAN","NAN","NAN","NAN","NAN"],
    [1560252,"2026-07-01 15:50:00","490","3.557","128.5","NAN","0","NAN","NAN","NAN","NAN","NAN"],
    [1560253,"2026-07-01 16:00:00","491","3.6719999999999997","132.7","NAN","0","NAN","NAN","NAN","NAN","NAN"],
    [1560254,"2026-07-01 16:10:00","492","3.44","137.0","NAN","0","NAN","NAN","NAN","NAN","NAN"],
    [1560255,"2026-07-01 16:20:00","493","3.44","140.1","NAN","0","NAN","NAN","NAN","NAN","NAN"],
    [1560256,"2026-07-01 16:30:00","494","3.207","144.5","NAN","0","NAN","NAN","NAN","NAN","NAN"],
    [1560257,"2026-07-01 16:40:00","495","3.069","154.8","NAN","0","NAN","NAN","NAN","NAN","NAN"],
    [1560258,"2026-07-01 16:50:00","496","3.0439999999999996","149.6","NAN","0","NAN","NAN","NAN","NAN","NAN"],
    [1560259,"2026-07-01 17:00:00","497","3.4189999999999996","144.5","NAN","0","NAN","NAN","NAN","NAN","NAN"],
    [1560260,"2026-07-01 17:10:00","498","3.057","159.3","NAN","0","NAN","NAN","NAN","NAN","NAN"],
    [1560261,"2026-07-01 17:20:00","499","3.02","128.9","NAN","0","NAN","NAN","NAN","NAN","NAN"],
    [1560262,"2026-07-01 17:30:00","500","2.674","130.5","NAN","0","NAN","NAN","NAN","NAN","NAN"],
    [1560263,"2026-07-01 17:40:00","501","2.8569999999999998","133.2","NAN","0","NAN","NAN","NAN","NAN","NAN"],
    [1560264,"2026-07-01 17:50:00","502","2.68","126.2","NAN","0","NAN","NAN","NAN","NAN","NAN"],
    [1560265,"2026-07-01 18:00:00","503","2.925","135.0","NAN","0","NAN","NAN","NAN","NAN","NAN"],
    [1560266,"2026-07-01 18:10:00","504","2.2840000000000003","126.1","NAN","0","NAN","NAN","NAN","NAN","NAN"],
    [1560267,"2026-07-01 18:20:00","505","2.987","137.0","NAN","0","NAN","NAN","NAN","NAN","NAN"],
    [1560268,"2026-07-01 18:30:00","506","2.544","154.7","NAN","0","NAN","NAN","NAN","NAN","NAN"],
    [1560269,"2026-07-01 18:40:00","507","2.536","135.9","NAN","0","NAN","NAN","NAN","NAN","NAN"],
    [1560270,"2026-07-01 18:50:00","508","2.269","131.4","NAN","0","NAN","NAN","NAN","NAN","NAN"],
    [1560271,"2026-07-01 19:00:00","509","2.319","149.9","NAN","0","NAN","NAN","NAN","NAN","NAN"],
    [1560272,"2026-07-01 19:10:00","510","1.9780000000000002","139.7","NAN","0","NAN","NAN","NAN","NAN","NAN"],
    [1560273,"2026-07-01 19:20:00","511","2.0180000000000002","160.1","NAN","0","NAN","NAN","NAN","NAN","NAN"],
    [1560274,"2026-07-01 19:30:00","512","2.1430000000000002","170.6","NAN","0","NAN","NAN","NAN","NAN","NAN"],
    [1560275,"2026-07-01 19:40:00","513","2.158","170.6","NAN","0","NAN","NAN","NAN","NAN","NAN"],
    [1560276,"2026-07-01 19:50:00","514","1.402","170.9","NAN","0","NAN","NAN","NAN","NAN","NAN"],
    [1560277,"2026-07-01 20:00:00","515","1.2990000000000002","175.0","NAN","0","NAN","NAN","NAN","NAN","NAN"],
    [1560278,"2026-07-01 20:10:00","516","1.179","181.7","NAN","0","NAN","NAN","NAN","NAN","NAN"],
    [1560279,"2026-07-01 20:20:00","517","1.6380000000000001","182.4","NAN","0","NAN","NAN","NAN","NAN","NAN"],
    [1560280,"2026-07-01 20:30:00","518","1.505","188.7","NAN","0","NAN","NAN","NAN","NAN","NAN"],
    [1560281,"2026-07-01 20:40:00","519","1.3840000000000001","215.7","NAN","0","NAN","NAN","NAN","NAN","NAN"],
    [1560282,"2026-07-01 20:50:00","520","1.507","210.8","NAN","0","NAN","NAN","NAN","NAN","NAN"],
    [1560283,"2026-07-01 21:00:00","521","1.568","210.5","NAN","0","NAN","NAN","NAN","NAN","NAN"],
    [1560284,"2026-07-01 21:10:00","522","1.3030000000000002","209.0","NAN","0","NAN","NAN","NAN","NAN","NAN"],
    [1560285,"2026-07-01 21:20:00","523","1.692","209.6","NAN","0","NAN","NAN","NAN","NAN","NAN"],
    [1560286,"2026-07-01 21:30:00","524","1.808","210.4","NAN","0","NAN","NAN","NAN","NAN","NAN"],
    [1560287,"2026-07-01 21:40:00","525","1.795","214.9","NAN","0","NAN","NAN","NAN","NAN","NAN"],
    [1560288,"2026-07-01 21:50:00","526","2.353","243.8","NAN","0","NAN","NAN","NAN","NAN","NAN"],
    [1560289,"2026-07-01 22:00:00","527","2.701","252.0","NAN","0","NAN","NAN","NAN","NAN","NAN"],
    [1560290,"2026-07-01 22:10:00","528","1.338","259.5","NAN","0","NAN","NAN","NAN","NAN","NAN"],
    [1560291,"2026-07-01 22:20:00","529","0.185","274.1","NAN","0","NAN","NAN","NAN","NAN","NAN"],
    [1560292,"2026-07-01 22:30:00","530","1.673","294.4","NAN","0","NAN","NAN","NAN","NAN","NAN"],
    [1560293,"2026-07-01 22:40:00","531","1.141","300.8","NAN","0","NAN","NAN","NAN","NAN","NAN"],
    [1560294,"2026-07-01 22:50:00","532","1.6159999999999999","299.6","NAN","0","NAN","NAN","NAN","NAN","NAN"],
    [1560295,"2026-07-01 23:00:00","533","1.835","302.7","NAN","0","NAN","NAN","NAN","NAN","NAN"],
    [1560296,"2026-07-01 23:10:00","534","2.069","302.8","NAN","0","NAN","NAN","NAN","NAN","NAN"],
    [1560297,"2026-07-01 23:20:00","535","1.22","297.5","NAN","0","NAN","NAN","NAN","NAN","NAN"],
    [1560298,"2026-07-01 23:30:00","536","0.958","293.9","NAN","0","NAN","NAN","NAN","NAN","NAN"],
    [1560299,"2026-07-01 23:40:00","537","1.314","291.6","NAN","0","NAN","NAN","NAN","NAN","NAN"],
    [1560300,"2026-07-01 23:50:00","538","1.113","290.9","NAN","0","NAN","NAN","NAN","NAN","NAN"],
    [1560301,"2026-07-02 00:00:00","539","1.198","291.1","NAN","0","NAN","NAN","NAN","NAN","NAN"],
    [1560302,"2026-07-02 00:10:00","540","0.991","290.6","NAN","0","NAN","NAN","NAN","NAN","NAN"],
    [1560303,"2026-07-02 00:20:00","541","1.113","290.3","NAN","0","NAN","NAN","NAN","NAN","NAN"],
    [1560304,"2026-07-02 00:30:00","542","1.2770000000000001","289.9","NAN","0","NAN","NAN","NAN","NAN","NAN"],
    [1560305,"2026-07-02 00:40:00","543","1.053","289.8","NAN","0","NAN","NAN","NAN","NAN","NAN"],
    [1560306,"2026-07-02 00:50:00","544","0.679","297.3","NAN","0","NAN","NAN","NAN","NAN","NAN"],
    [1560307,"2026-07-02 01:00:00","545","1.178","299.9","NAN","0","NAN","NAN","NAN","NAN","NAN"],
    [1560308,"2026-07-02 01:10:00","546","0.6729999999999999","290.9","NAN","0","NAN","NAN","NAN","NAN","NAN"],
    [1560309,"2026-07-02 01:20:00","547","0.631","290.8","NAN","0","NAN","NAN","NAN","NAN","NAN"],
    [1560310,"2026-07-02 01:30:00","548","0.809","290.1","NAN","0","NAN","NAN","NAN","NAN","NAN"],
    [1560311,"2026-07-02 01:40:00","549","0.992","289.4","NAN","0","NAN","NAN","NAN","NAN","NAN"],
    [1560312,"2026-07-02 01:50:00","550","1.52","292.0","NAN","0","NAN","NAN","NAN","NAN","NAN"],
    [1560313,"2026-07-02 02:00:00","551","1.689","290.4","NAN","0","NAN","NAN","NAN","NAN","NAN"],
    [1560314,"2026-07-02 02:10:00","552","2.255","297.7","NAN","0","NAN","NAN","NAN","NAN","NAN"],
    [1560315,"2026-07-02 02:20:00","553","2.383","309.2","NAN","0","NAN","NAN","NAN","NAN","NAN"],
    [1560316,"2026-07-02 02:30:00","554","2.572","312.0","NAN","0","NAN","NAN","NAN","NAN","NAN"],
    [1560317,"2026-07-02 02:40:00","555","3.198","309.9","NAN","0","NAN","NAN","NAN","NAN","NAN"],
    [1560318,"2026-07-02 02:50:00","556","3.593","310.3","NAN","0","NAN","NAN","NAN","NAN","NAN"],
    [1560319,"2026-07-02 03:00:00","557","2.909","311.3","NAN","0","NAN","NAN","NAN","NAN","NAN"],
    [1560320,"2026-07-02 03:10:00","558","3.5210000000000004","315.8","NAN","0","NAN","NAN","NAN","NAN","NAN"],
    [1560321,"2026-07-02 03:20:00","559","3.536","312.5","NAN","0","NAN","NAN","NAN","NAN","NAN"],
    [1560322,"2026-07-02 03:30:00","560","3.305","305.7","NAN","0","NAN","NAN","NAN","NAN","NAN"],
    [1560323,"2026-07-02 03:40:00","561","4.079","309.3","NAN","0","NAN","NAN","NAN","NAN","NAN"],
    [1560324,"2026-07-02 03:50:00","562","3.728","301.5","NAN","0","NAN","NAN","NAN","NAN","NAN"],
    [1560325,"2026-07-02 04:00:00","563","3.575","302.9","NAN","0","NAN","NAN","NAN","NAN","NAN"],
    [1560326,"2026-07-02 04:10:00","564","3.7239999999999998","309.5","NAN","0","NAN","NAN","NAN","NAN","NAN"],
    [1560327,"2026-07-02 04:20:00","565","3.122","301.8","NAN","0","NAN","NAN","NAN","NAN","NAN"],
    [1560328,"2026-07-02 04:30:00","566","2.984","306.3","NAN","0","NAN","NAN","NAN","NAN","NAN"],
    [1560329,"2026-07-02 04:40:00","567","3.6210000000000004","304.5","NAN","0","NAN","NAN","NAN","NAN","NAN"],
    [1560330,"2026-07-02 04:50:00","568","2.983","307.3","NAN","0","NAN","NAN","NAN","NAN","NAN"],
    [1560331,"2026-07-02 05:00:00","569","2.5140000000000002","305.8","NAN","0","NAN","NAN","NAN","NAN","NAN"],
    [1560332,"2026-07-02 05:10:00","570","3.536","304.7","NAN","0","NAN","NAN","NAN","NAN","NAN"],
    [1560333,"2026-07-02 05:20:00","571","3.7969999999999997","301.8","NAN","0","NAN","NAN","NAN","NAN","NAN"],
    [1560334,"2026-07-02 05:30:00","572","3.464","306.3","NAN","0","NAN","NAN","NAN","NAN","NAN"],
    [1560335,"2026-07-02 05:40:00","573","3.324","304.3","NAN","0","NAN","NAN","NAN","NAN","NAN"],
    [1560336,"2026-07-02 05:50:00","574","3.25","300.4","NAN","0","NAN","NAN","NAN","NAN","NAN"],
    [1560337,"2026-07-02 06:00:00","575","3.6860000000000004","303.8","NAN","0","NAN","NAN","NAN","NAN","NAN"],
    [1560338,"2026-07-02 06:10:00","576","3.0669999999999997","305.7","NAN","0","NAN","NAN","NAN","NAN","NAN"],
    [1560339,"2026-07-02 06:20:00","577","3.1630000000000003","300.1","NAN","0","NAN","NAN","NAN","NAN","NAN"],
    [1560340,"2026-07-02 06:30:00","578","3.069","295.6","NAN","0","NAN","NAN","NAN","NAN","NAN"],
    [1560341,"2026-07-02 06:40:00","579","3.043","304.1","NAN","0","NAN","NAN","NAN","NAN","NAN"],
    [1560342,"2026-07-02 06:50:00","580","2.648","303.2","NAN","0","NAN","NAN","NAN","NAN","NAN"],
    [1560343,"2026-07-02 07:00:00","581","2.8369999999999997","307.8","NAN","0","NAN","NAN","NAN","NAN","NAN"],
    [1560344,"2026-07-02 07:10:00","582","3.0210000000000004","301.4","NAN","0","NAN","NAN","NAN","NAN","NAN"],
    [1560345,"2026-07-02 07:20:00","583","2.612","307.9","NAN","0","NAN","NAN","NAN","NAN","NAN"],
    [1560346,"2026-07-02 07:30:00","584","2.773","308.7","NAN","0","NAN","NAN","NAN","NAN","NAN"],
    [1560347,"2026-07-02 07:40:00","585","3.25","302.5","NAN","0","NAN","NAN","NAN","NAN","NAN"],
    [1560348,"2026-07-02 07:50:00","586","3.529","304.2","NAN","0","NAN","NAN","NAN","NAN","NAN"],
    [1560349,"2026-07-02 08:00:00","587","4.091","309.7","NAN","0","NAN","NAN","NAN","NAN","NAN"],
    [1560350,"2026-07-02 08:10:00","588","3.342","303.3","NAN","0","NAN","NAN","NAN","NAN","NAN"],
    [1560351,"2026-07-02 08:20:00","589","3.63","309.4","NAN","0","NAN","NAN","NAN","NAN","NAN"],
    [1560352,"2026-07-02 08:30:00","590","3.346","334.3","NAN","0","NAN","NAN","NAN","NAN","NAN"],
    [1560353,"2026-07-02 08:40:00","591","2.231","305.6","NAN","0","NAN","NAN","NAN","NAN","NAN"],
    [1560354,"2026-07-02 08:50:00","592","1.861","282.9","NAN","0","NAN","NAN","NAN","NAN","NAN"],
    [1560355,"2026-07-02 09:00:00","593","2.213","307.0","NAN","0","NAN","NAN","NAN","NAN","NAN"],
    [1560356,"2026-07-02 09:10:00","594","1.6669999999999998","285.4","NAN","0","NAN","NAN","NAN","NAN","NAN"],
    [1560357,"2026-07-02 09:20:00","595","1.774","260.8","NAN","0","NAN","NAN","NAN","NAN","NAN"],
    [1560358,"2026-07-02 09:30:00","596","1.585","289.9","NAN","0","NAN","NAN","NAN","NAN","NAN"],
    [1560359,"2026-07-02 09:40:00","597","1.155","301.5","NAN","0","NAN","NAN","NAN","NAN","NAN"],
    [1560360,"2026-07-02 09:50:00","0","1.9369999999999998","277.2","NAN","NAN","NAN","NAN","NAN","NAN","NAN"],
    [1560361,"2026-07-02 10:00:00","1","2.003","249.9","4.149","228.5","NAN","NAN","NAN","NAN","NAN"],
    [1560362,"2026-07-02 10:10:00","2","1.945","325.0","4.051","282.4","NAN","NAN","NAN","NAN","NAN"],
    [1560363,"2026-07-02 10:20:00","3","1.148","324.3","4.051","327.3","NAN","NAN","NAN","NAN","NAN"],
    [1560364,"2026-07-02 10:30:00","4","2.67","174.7","5.129","151.6","NAN","NAN","NAN","NAN","NAN"],
    [1560365,"2026-07-02 10:40:00","5","3.573","170.2","5.978","166.9","NAN","NAN","NAN","NAN","NAN"],
    [1560366,"2026-07-02 10:50:00","6","3.3169999999999997","190.2","5.782","187.1","NAN","NAN","NAN","NAN","NAN"],
    [1560367,"2026-07-02 11:00:00","7","3.47","206.7","5.88","189.6","NAN","NAN","NAN","NAN","NAN"],
    [1560368,"2026-07-02 11:10:00","8","2.793","209.3","5.259","214.8","NAN","NAN","NAN","NAN","NAN"],
    [1560369,"2026-07-02 11:20:00","9","3.19","190.8","5.423","182.7","NAN","NAN","NAN","NAN","NAN"],
    [1560370,"2026-07-02 11:30:00","10","2.875","198.2","5.619","225.7","NAN","NAN","NAN","NAN","NAN"],
    [1560371,"2026-07-02 11:40:00","11","3.515","187.6","5.945","159.1","NAN","NAN","NAN","NAN","NAN"],
    [1560372,"2026-07-02 11:50:00","12","3.7910000000000004","190.2","6.501","152.4","NAN","NAN","NAN","NAN","NAN"],
    [1560373,"2026-07-02 12:00:00","13","4.1339999999999995","177.5","6.239","177.8","NAN","NAN","NAN","NAN","NAN"],
    [1560374,"2026-07-02 12:10:00","14","3.7960000000000003","183.0","6.076","159","NAN","NAN","NAN","NAN","NAN"],
    [1560375,"2026-07-02 12:20:00","15","3.201","191.8","5.488","216","NAN","NAN","NAN","NAN","NAN"],
    [1560376,"2026-07-02 12:30:00","16","3.366","173.7","5.978","171.4","NAN","NAN","NAN","NAN","NAN"],
    [1560377,"2026-07-02 12:40:00","17","3.05","185.5","5.227","177.8","NAN","NAN","NAN","NAN","NAN"],
    [1560378,"2026-07-02 12:50:00","18","3.0780000000000003","180.1","5.945","220.3","NAN","NAN","NAN","NAN","NAN"],
    [1560379,"2026-07-02 13:00:00","19","3.133","198.5","6.958","231","NAN","NAN","NAN","NAN","NAN"],
    [1560380,"2026-07-02 13:10:00","20","3.21","196.2","5.978","211.6","NAN","NAN","NAN","NAN","NAN"],
    [1560381,"2026-07-02 13:20:00","21","3.65","186.1","6.958","157.8","NAN","NAN","NAN","NAN","NAN"],
    [1560382,"2026-07-02 13:30:00","22","3.14","190.7","7.285","180.3","NAN","NAN","NAN","NAN","NAN"],
    [1560383,"2026-07-02 13:40:00","23","3.449","194.2","6.076","220.8","NAN","NAN","NAN","NAN","NAN"],
    [1560384,"2026-07-02 13:50:00","24","3.0380000000000003","196.1","5.717","180.9","NAN","NAN","NAN","NAN","NAN"],
    [1560385,"2026-07-02 14:00:00","25","3.799","161.6","6.239","177.9","NAN","NAN","NAN","NAN","NAN"],
    [1560386,"2026-07-02 14:10:00","26","3.634","157.5","5.847","164.4","NAN","NAN","NAN","NAN","NAN"],
    [1560387,"2026-07-02 14:20:00","27","3.085","162.2","5.553","164.1","NAN","NAN","NAN","NAN","NAN"],
    [1560388,"2026-07-02 14:30:00","28","2.336","174.6","5.292","219.6","NAN","NAN","NAN","NAN","NAN"],
    [1560389,"2026-07-02 14:40:00","29","3.008","183.6","4.965","164","NAN","NAN","NAN","NAN","NAN"],
    [1560390,"2026-07-02 14:50:00","30","3.063","211.9","5.684","203.5","NAN","NAN","NAN","NAN","NAN"],
    [1560391,"2026-07-02 15:00:00","31","3.25","192.1","5.586","166.1","NAN","NAN","NAN","NAN","NAN"],
    [1560392,"2026-07-02 15:10:00","32","3.833","169.7","6.533","172.2","NAN","NAN","NAN","NAN","NAN"],
    [1560393,"2026-07-02 15:20:00","33","3.45","179.2","5.945","179.3","NAN","NAN","NAN","NAN","NAN"],
    [1560394,"2026-07-02 15:30:00","34","2.92","191.7","5.651","164","NAN","NAN","NAN","NAN","NAN"],
    [1560395,"2026-07-02 15:40:00","35","3.997","166.0","5.684","170","NAN","NAN","NAN","NAN","NAN"],
    [1560396,"2026-07-02 15:50:00","36","3.049","191.5","4.867","167.9","NAN","NAN","NAN","NAN","NAN"],
    [1560397,"2026-07-02 16:00:00","37","2.891","200.6","4.933","186.7","NAN","NAN","NAN","NAN","NAN"],
    [1560398,"2026-07-02 16:10:00","38","2.6689999999999996","201.0","5.129","205.5","NAN","NAN","NAN","NAN","NAN"],
    [1560399,"2026-07-02 16:20:00","39","3.4219999999999997","196.2","5.488","179.5","NAN","NAN","NAN","NAN","NAN"],
    [1560400,"2026-07-02 16:30:00","40","3.205","209.4","5.39","215.3","NAN","NAN","NAN","NAN","NAN"],
    [1560401,"2026-07-02 16:40:00","41","2.9219999999999997","197.9","5.325","203.5","NAN","NAN","NAN","NAN","NAN"],
    [1560402,"2026-07-02 16:50:00","42","3.062","210.6","4.639","205.7","NAN","NAN","NAN","NAN","NAN"],
    [1560403,"2026-07-02 17:00:00","43","3.003","189.4","5.129","156.6","NAN","NAN","NAN","NAN","NAN"],
    [1560404,"2026-07-02 17:10:00","44","2.755","211.9","5.096","215.3","NAN","NAN","NAN","NAN","NAN"],
    [1560405,"2026-07-02 17:20:00","45","3.4589999999999996","206.2","5.651","203.2","NAN","NAN","NAN","NAN","NAN"],
    [1560406,"2026-07-02 17:30:00","46","3.175","206.4","5.096","216.5","NAN","NAN","NAN","NAN","NAN"],
    [1560407,"2026-07-02 17:40:00","47","3.0189999999999997","211.0","5.063","203.8","NAN","NAN","NAN","NAN","NAN"],
    [1560408,"2026-07-02 17:50:00","48","3.012","206.2","4.802","208","NAN","NAN","NAN","NAN","NAN"],
    [1560409,"2026-07-02 18:00:00","49","3.09","223.8","5.619","226.4","NAN","NAN","NAN","NAN","NAN"],
    [1560410,"2026-07-02 18:10:00","50","3.008","206.2","5.227","191.1","NAN","NAN","NAN","NAN","NAN"],
    [1560411,"2026-07-02 18:20:00","51","2.721","205.3","5.161","212.4","NAN","NAN","NAN","NAN","NAN"],
    [1560412,"2026-07-02 18:30:00","52","2.9130000000000003","212.1","4.835","207.3","NAN","NAN","NAN","NAN","NAN"],
    [1560413,"2026-07-02 18:40:00","53","2.866","220.0","4.443","205.4","NAN","NAN","NAN","NAN","NAN"],
    [1560414,"2026-07-02 18:50:00","54","2.843","222.3","5.031","227.4","NAN","NAN","NAN","NAN","NAN"],
    [1560415,"2026-07-02 19:00:00","55","2.9610000000000003","233.8","5.129","219.5","NAN","NAN","NAN","NAN","NAN"],
    [1560416,"2026-07-02 19:10:00","56","3.555","231.4","5.684","222.8","NAN","NAN","NAN","NAN","NAN"],
    [1560417,"2026-07-02 19:20:00","57","2.376","235.9","5.063","227.7","NAN","NAN","NAN","NAN","NAN"],
    [1560418,"2026-07-02 19:30:00","58","2.967","224.0","5.292","225.7","NAN","NAN","NAN","NAN","NAN"],
    [1560419,"2026-07-02 19:40:00","59","2.498","241.3","4.377","240.1","NAN","NAN","NAN","NAN","NAN"],
    [1560420,"2026-07-02 19:50:00","60","2.112","232.4","4.181","233","NAN","NAN","NAN","NAN","NAN"],
    [1560421,"2026-07-02 20:00:00","61","2.2569999999999997","233.2","3.887","232.2","NAN","NAN","NAN","NAN","NAN"],
    [1560422,"2026-07-02 20:10:00","62","2.5580000000000003","248.9","3.691","250.2","NAN","NAN","NAN","NAN","NAN"],
    [1560423,"2026-07-02 20:20:00","63","2.043","243.3","3.593","257.4","NAN","NAN","NAN","NAN","NAN"],
    [1560424,"2026-07-02 20:30:00","64","1.882","239.1","3.332","236.7","NAN","NAN","NAN","NAN","NAN"],
    [1560425,"2026-07-02 20:40:00","65","2.6180000000000003","250.4","4.345","241.9","NAN","NAN","NAN","NAN","NAN"],
    [1560426,"2026-07-02 20:50:00","66","3.043","249.3","4.998","261.7","NAN","NAN","NAN","NAN","NAN"],
    [1560427,"2026-07-02 21:00:00","67","3.002","255.9","4.443","250.1","NAN","NAN","NAN","NAN","NAN"],
    [1560428,"2026-07-02 21:10:00","68","2.98","250.4","4.247","254.7","NAN","NAN","NAN","NAN","NAN"],
    [1560429,"2026-07-02 21:20:00","69","2.123","254.6","3.43","243","NAN","NAN","NAN","NAN","NAN"],
    [1560430,"2026-07-02 21:30:00","70","1.9609999999999999","260.5","3.332","266.3","NAN","NAN","NAN","NAN","NAN"],
    [1560431,"2026-07-02 21:40:00","71","2.6260000000000003","275.9","3.855","283.3","NAN","NAN","NAN","NAN","NAN"],
    [1560432,"2026-07-02 21:50:00","72","2.13","275.8","3.757","280.9","NAN","NAN","NAN","NAN","NAN"],
    [1560433,"2026-07-02 22:00:00","73","1.839","278.3","2.842","270.8","NAN","NAN","NAN","NAN","NAN"],
    [1560434,"2026-07-02 22:10:00","74","1.557","285.3","2.613","280.7","NAN","NAN","NAN","NAN","NAN"],
    [1560435,"2026-07-02 22:20:00","75","1.804","284.9","2.777","281.7","NAN","NAN","NAN","NAN","NAN"],
    [1560436,"2026-07-02 22:30:00","76","1.5219999999999998","285.0","2.515","288.2","NAN","NAN","NAN","NAN","NAN"],
    [1560437,"2026-07-02 22:40:00","77","1.5090000000000001","289.8","2.254","287.9","NAN","NAN","NAN","NAN","NAN"],
    [1560438,"2026-07-02 22:50:00","78","1.13","290.4","2.025","290.6","NAN","NAN","NAN","NAN","NAN"],
    [1560439,"2026-07-02 23:00:00","79","0.862","288.9","1.862","292.7","NAN","NAN","NAN","NAN","NAN"],
    [1560440,"2026-07-02 23:10:00","80","1.554","293.1","2.45","290.9","NAN","NAN","NAN","NAN","NAN"],
    [1560441,"2026-07-02 23:20:00","81","1.386","296.2","2.287","297.6","NAN","NAN","NAN","NAN","NAN"],
    [1560442,"2026-07-02 23:30:00","82","1.082","291.4","1.927","295.7","NAN","NAN","NAN","NAN","NAN"],
    [1560443,"2026-07-02 23:40:00","83","0.847","296.8","1.601","297.4","NAN","NAN","NAN","NAN","NAN"],
    [1560444,"2026-07-02 23:50:00","84","1.204","292.2","1.862","287.2","NAN","NAN","NAN","NAN","NAN"],
    [1560445,"2026-07-03 00:00:00","85","1.3980000000000001","285.8","2.189","286.3","NAN","NAN","NAN","NAN","NAN"],
    [1560446,"2026-07-03 00:10:00","86","1.2329999999999999","283.8","1.862","282.5","NAN","NAN","NAN","NAN","NAN"],
    [1560447,"2026-07-03 00:20:00","87","1.5290000000000001","279.1","2.352","278.3","NAN","NAN","NAN","NAN","NAN"],
    [1560448,"2026-07-03 00:30:00","88","1.416","288.4","2.319","286.8","NAN","NAN","NAN","NAN","NAN"],
    [1560449,"2026-07-03 00:40:00","89","1.072","291.4","2.058","291.6","NAN","NAN","NAN","NAN","NAN"],
    [1560450,"2026-07-03 00:50:00","90","1.3780000000000001","282.1","1.797","283.5","NAN","NAN","NAN","NAN","NAN"],
    [1560451,"2026-07-03 01:00:00","91","0.961","288.5","1.699","281.7","NAN","NAN","NAN","NAN","NAN"],
    [1560452,"2026-07-03 01:10:00","92","1.254","282.7","1.993","277.8","NAN","NAN","NAN","NAN","NAN"],
    [1560453,"2026-07-03 01:20:00","93","1.023","279.9","1.568","277.8","NAN","NAN","NAN","NAN","NAN"],
    [1560454,"2026-07-03 01:30:00","94","0.789","279.1","1.307","280.3","NAN","NAN","NAN","NAN","NAN"],
    [1560455,"2026-07-03 01:40:00","95","0.9279999999999999","278.4","1.437","277.6","NAN","NAN","NAN","NAN","NAN"],
    [1560456,"2026-07-03 01:50:00","96","0.995","284.9","1.731","289.6","NAN","NAN","NAN","NAN","NAN"],
    [1560457,"2026-07-03 02:00:00","97","1.127","291.6","1.666","294.5","NAN","NAN","NAN","NAN","NAN"],
    [1560458,"2026-07-03 02:10:00","98","1.252","281.2","1.731","281.8","NAN","NAN","NAN","NAN","NAN"],
    [1560459,"2026-07-03 02:20:00","99","1.12","278.5","1.633","277.6","NAN","NAN","NAN","NAN","NAN"],
    [1560460,"2026-07-03 02:30:00","100","1.083","277.5","1.666","277.6","NAN","NAN","NAN","NAN","NAN"],
    [1560461,"2026-07-03 02:40:00","101","1.176","277.4","1.829","277.7","NAN","NAN","NAN","NAN","NAN"],
    [1560462,"2026-07-03 02:50:00","102","1.381","278.9","1.895","277","NAN","NAN","NAN","NAN","NAN"],
    [1560463,"2026-07-03 03:00:00","103","1.139","283.0","1.797","288","NAN","NAN","NAN","NAN","NAN"],
    [1560464,"2026-07-03 03:10:00","104","2.0069999999999997","285.7","2.744","280.6","NAN","NAN","NAN","NAN","NAN"],
    [1560465,"2026-07-03 03:20:00","105","1.564","287.7","2.613","288.9","NAN","NAN","NAN","NAN","NAN"],
    [1560466,"2026-07-03 03:30:00","106","1.5119999999999998","280.7","2.711","296","NAN","NAN","NAN","NAN","NAN"],
    [1560467,"2026-07-03 03:40:00","107","0.306","275.9","2.254","276","NAN","NAN","NAN","NAN","NAN"],
    [1560468,"2026-07-03 03:50:00","108","1.4869999999999999","275.0","2.613","273.4","NAN","NAN","NAN","NAN","NAN"],
    [1560469,"2026-07-03 04:00:00","109","1.2790000000000001","272.9","2.319","273.2","NAN","NAN","NAN","NAN","NAN"],
    [1560470,"2026-07-03 04:10:00","110","0.659","284.0","1.797","276.2","NAN","NAN","NAN","NAN","NAN"],
    [1560471,"2026-07-03 04:20:00","111","0.342","291.7","1.209","292.8","NAN","NAN","NAN","NAN","NAN"],
    [1560472,"2026-07-03 04:30:00","112","0.024","292.8","0.719","293","NAN","NAN","NAN","NAN","NAN"],
    [1560473,"2026-07-03 04:40:00","113","0.18","292.1","0.882","292.7","NAN","NAN","NAN","NAN","NAN"],
    [1560474,"2026-07-03 04:50:00","114","0.43700000000000006","291.8","1.209","293","NAN","NAN","NAN","NAN","NAN"],
    [1560475,"2026-07-03 05:00:00","115","1.107","293.0","2.417","295","NAN","NAN","NAN","NAN","NAN"],
    [1560476,"2026-07-03 05:10:00","116","0.361","289.6","2.091","295.3","NAN","NAN","NAN","NAN","NAN"],
    [1560477,"2026-07-03 05:20:00","117","0.27","289.8","0.915","288.1","NAN","NAN","NAN","NAN","NAN"],
    [1560478,"2026-07-03 05:30:00","118","0.731","293.0","1.372","296.2","NAN","NAN","NAN","NAN","NAN"],
    [1560479,"2026-07-03 05:40:00","119","0.285","283.7","1.274","281.1","NAN","NAN","NAN","NAN","NAN"],
    [1560480,"2026-07-03 05:50:00","120","0.078","288.1","0.784","288.2","NAN","NAN","NAN","NAN","NAN"],
    [1560481,"2026-07-03 06:00:00","121","0.17800000000000002","352.3","1.339","284.2","NAN","NAN","NAN","NAN","NAN"],
    [1560482,"2026-07-03 06:10:00","122","1.31","58.94","3.626","58.9","NAN","NAN","NAN","NAN","NAN"],
    [1560483,"2026-07-03 06:20:00","123","1.4169999999999998","51.9","2.417","37.59","NAN","NAN","NAN","NAN","NAN"],
    [1560484,"2026-07-03 06:30:00","124","1.058","37.53","2.123","52.87","NAN","NAN","NAN","NAN","NAN"],
    [1560485,"2026-07-03 06:40:00","125","2.004","357.2","3.332","352.6","NAN","NAN","NAN","NAN","NAN"],
    [1560486,"2026-07-03 06:50:00","126","1.193","351.5","2.875","3.385","NAN","NAN","NAN","NAN","NAN"],
    [1560487,"2026-07-03 07:00:00","127","1.4369999999999998","315.8","3.201","289.6","NAN","NAN","NAN","NAN","NAN"],
    [1560488,"2026-07-03 07:10:00","128","2.046","298.2","3.103","303.8","NAN","NAN","NAN","NAN","NAN"],
    [1560489,"2026-07-03 07:20:00","129","2.825","299.5","4.345","286.8","NAN","NAN","NAN","NAN","NAN"],
    [1560490,"2026-07-03 07:30:00","130","2.858","289.0","4.475","273.5","NAN","NAN","NAN","NAN","NAN"],
    [1560491,"2026-07-03 07:40:00","131","2.813","275.9","4.279","269.5","NAN","NAN","NAN","NAN","NAN"],
    [1560492,"2026-07-03 07:50:00","132","2.299","286.8","3.724","256","NAN","NAN","NAN","NAN","NAN"],
    [1560493,"2026-07-03 08:00:00","133","1.157","307.4","3.267","308.1","NAN","NAN","NAN","NAN","NAN"],
    [1560494,"2026-07-03 08:10:00","134","1.306","266.0","2.613","229","NAN","NAN","NAN","NAN","NAN"],
    [1560495,"2026-07-03 08:20:00","135","1.2329999999999999","230.0","2.842","252.9","NAN","NAN","NAN","NAN","NAN"],
    [1560496,"2026-07-03 08:30:00","136","1.9040000000000001","175.1","5.325","139.3","NAN","NAN","NAN","NAN","NAN"],
    [1560497,"2026-07-03 08:40:00","137","2.89","139.2","4.737","163.2","NAN","NAN","NAN","NAN","NAN"],
    [1560498,"2026-07-03 08:50:00","138","3.1010000000000004","178.3","5.521","166.8","NAN","NAN","NAN","NAN","NAN"],
    [1560499,"2026-07-03 09:00:00","139","3.0239999999999996","185.7","5.913","167.7","NAN","NAN","NAN","NAN","NAN"],
    [1560500,"2026-07-03 09:10:00","140","3.2439999999999998","175.7","5.847","170.5","NAN","NAN","NAN","NAN","NAN"],
    [1560501,"2026-07-03 09:20:00","141","2.821","185.4","4.737","185.1","NAN","NAN","NAN","NAN","NAN"],
    [1560502,"2026-07-03 09:30:00","142","3.315","172.6","6.011","156.8","NAN","NAN","NAN","NAN","NAN"],
    [1560503,"2026-07-03 09:40:00","143","3.795","190.3","6.893","177.1","NAN","NAN","NAN","NAN","NAN"],
    [1560504,"2026-07-03 09:50:00","144","3.2760000000000002","203.0","6.174","232.3","NAN","NAN","NAN","NAN","NAN"],
    [1560505,"2026-07-03 10:00:00","145","3.738","204.8","6.566","214.7","NAN","NAN","NAN","NAN","NAN"],
    [1560506,"2026-07-03 10:10:00","146","3.492","197.3","7.383","182.9","NAN","NAN","NAN","NAN","NAN"],
    [1560507,"2026-07-03 10:20:00","147","3.839","198.2","6.958","206.1","NAN","NAN","NAN","NAN","NAN"],
    [1560508,"2026-07-03 10:30:00","148","4.138","210.5","6.599","214","NAN","NAN","NAN","NAN","NAN"],
    [1560509,"2026-07-03 10:40:00","149","3.7960000000000003","196.2","7.056","209.6","NAN","NAN","NAN","NAN","NAN"],
    [1560510,"2026-07-03 10:50:00","150","3.972","207.9","7.154","173.8","NAN","NAN","NAN","NAN","NAN"],
    [1560511,"2026-07-03 11:00:00","151","4.252","208.6","7.154","224.2","NAN","NAN","NAN","NAN","NAN"],
    [1560512,"2026-07-03 11:10:00","152","4.666","214.4","7.873","204.5","NAN","NAN","NAN","NAN","NAN"],
    [1560513,"2026-07-03 11:20:00","153","5.045","211.3","8.69","206.9","NAN","NAN","NAN","NAN","NAN"],
    [1560514,"2026-07-03 11:30:00","154","4.624","220.1","7.807","193.7","NAN","NAN","NAN","NAN","NAN"],
    [1560515,"2026-07-03 11:40:00","155","4.021","213.3","7.056","219.4","NAN","NAN","NAN","NAN","NAN"],
    [1560516,"2026-07-03 11:50:00","156","4.86","219.8","7.873","214","NAN","NAN","NAN","NAN","NAN"],
    [1560517,"2026-07-03 12:00:00","157","4.448","208.2","7.481","231.2","NAN","NAN","NAN","NAN","NAN"],
    [1560518,"2026-07-03 12:10:00","158","4.199","216.3","8","220.7","NAN","NAN","NAN","NAN","NAN"],
    [1560519,"2026-07-03 12:20:00","159","3.9210000000000003","204.8","7.056","209.5","NAN","NAN","NAN","NAN","NAN"],
    [1560520,"2026-07-03 12:30:00","160","4.349","200.6","8.04","216.9","NAN","NAN","NAN","NAN","NAN"],
    [1560521,"2026-07-03 12:40:00","161","3.842","215.2","7.709","237","NAN","NAN","NAN","NAN","NAN"],
    [1560522,"2026-07-03 12:50:00","162","4.074","213.1","7.546","199","NAN","NAN","NAN","NAN","NAN"],
    [1560523,"2026-07-03 13:00:00","163","4.28","209.5","8.1","211.6","NAN","NAN","NAN","NAN","NAN"],
    [1560524,"2026-07-03 13:10:00","164","4.602","215.5","7.807","232.7","NAN","NAN","NAN","NAN","NAN"],
    [1560525,"2026-07-03 13:20:00","165","3.824","213.8","7.219","210.8","NAN","NAN","NAN","NAN","NAN"],
    [1560526,"2026-07-03 13:30:00","166","4.496","203.1","7.971","208.2","NAN","NAN","NAN","NAN","NAN"],
    [1560527,"2026-07-03 13:40:00","167","4.061","206.0","7.709","208.6","NAN","NAN","NAN","NAN","NAN"],
    [1560528,"2026-07-03 13:50:00","168","4.696000000000001","208.5","7.513","212.1","NAN","NAN","NAN","NAN","NAN"],
    [1560529,"2026-07-03 14:00:00","169","4.42","205.8","7.317","205.8","NAN","NAN","NAN","NAN","NAN"],
    [1560530,"2026-07-03 14:10:00","170","3.799","206.4","8.13","227.3","NAN","NAN","NAN","NAN","NAN"],
    [1560531,"2026-07-03 14:20:00","171","4.365","211.3","7.775","221.9","NAN","NAN","NAN","NAN","NAN"],
    [1560532,"2026-07-03 14:30:00","172","4.0360000000000005","215.2","7.121","218.9","NAN","NAN","NAN","NAN","NAN"],
    [1560533,"2026-07-03 14:40:00","173","4.539","220.7","8.72","206.9","NAN","NAN","NAN","NAN","NAN"],
    [1560534,"2026-07-03 14:50:00","174","5.3260000000000005","210.6","7.938","212.2","NAN","NAN","NAN","NAN","NAN"],
    [1560535,"2026-07-03 15:00:00","175","5.0169999999999995","209.7","8.2","213.1","NAN","NAN","NAN","NAN","NAN"],
    [1560536,"2026-07-03 15:10:00","176","3.892","217.5","6.991","204.1","NAN","NAN","NAN","NAN","NAN"],
    [1560537,"2026-07-03 15:20:00","177","4.659","211.6","8.1","217.7","NAN","NAN","NAN","NAN","NAN"],
    [1560538,"2026-07-03 15:30:00","178","5.018","212.2","7.513","216.9","NAN","NAN","NAN","NAN","NAN"],
    [1560539,"2026-07-03 15:40:00","179","4.615","217.0","7.121","206.7","NAN","NAN","NAN","NAN","NAN"],
    [1560540,"2026-07-03 15:50:00","180","4.046","207.7","6.795","204.9","NAN","NAN","NAN","NAN","NAN"],
    [1560541,"2026-07-03 16:00:00","181","3.134","209.3","5.129","189.7","NAN","NAN","NAN","NAN","NAN"],
    [1560542,"2026-07-03 16:10:00","182","3.5810000000000004","189.5","6.501","184.8","NAN","NAN","NAN","NAN","NAN"],
    [1560543,"2026-07-03 16:20:00","183","3.668","204.9","6.337","225.4","NAN","NAN","NAN","NAN","NAN"],
    [1560544,"2026-07-03 16:30:00","184","3.373","202.9","6.697","212.8","NAN","NAN","NAN","NAN","NAN"],
    [1560545,"2026-07-03 16:40:00","185","3.4960000000000004","206.8","5.945","212.1","NAN","NAN","NAN","NAN","NAN"],
    [1560546,"2026-07-03 16:50:00","186","2.924","207.4","6.305","215.3","NAN","NAN","NAN","NAN","NAN"],
    [1560547,"2026-07-03 17:00:00","187","3.0989999999999998","197.4","5.684","160.7","NAN","NAN","NAN","NAN","NAN"],
    [1560548,"2026-07-03 17:10:00","188","2.608","198.0","5.259","176.7","NAN","NAN","NAN","NAN","NAN"],
    [1560549,"2026-07-03 17:20:00","189","2.714","188.3","6.207","181.3","NAN","NAN","NAN","NAN","NAN"],
    [1560550,"2026-07-03 17:30:00","190","2.7960000000000003","188.7","5.88","190","NAN","NAN","NAN","NAN","NAN"],
    [1560551,"2026-07-03 17:40:00","191","3.3089999999999997","206.2","6.174","201.4","NAN","NAN","NAN","NAN","NAN"],
    [1560552,"2026-07-03 17:50:00","192","3.56","216.2","5.717","220.6","NAN","NAN","NAN","NAN","NAN"],
    [1560553,"2026-07-03 18:00:00","193","3.4930000000000003","220.0","6.239","225.6","NAN","NAN","NAN","NAN","NAN"],
    [1560554,"2026-07-03 18:10:00","194","3.392","205.5","6.011","210.2","NAN","NAN","NAN","NAN","NAN"],
    [1560555,"2026-07-03 18:20:00","195","3.7060000000000004","218.9","5.684","230.9","NAN","NAN","NAN","NAN","NAN"],
    [1560556,"2026-07-03 18:30:00","196","3.137","210.9","5.194","209.5","NAN","NAN","NAN","NAN","NAN"],
    [1560557,"2026-07-03 18:40:00","197","3.321","217.0","5.717","234.6","NAN","NAN","NAN","NAN","NAN"],
    [1560558,"2026-07-03 18:50:00","198","2.7910000000000004","231.5","4.933","214.8","NAN","NAN","NAN","NAN","NAN"],
    [1560559,"2026-07-03 19:00:00","199","2.7110000000000003","238.3","5.227","240","NAN","NAN","NAN","NAN","NAN"],
    [1560560,"2026-07-03 19:10:00","200","2.9160000000000004","228.2","4.867","222.4","NAN","NAN","NAN","NAN","NAN"],
    [1560561,"2026-07-03 19:20:00","201","3.0980000000000003","230.6","4.998","214.6","NAN","NAN","NAN","NAN","NAN"],
    [1560562,"2026-07-03 19:30:00","202","2.491","248.7","4.214","255.6","NAN","NAN","NAN","NAN","NAN"],
    [1560563,"2026-07-03 19:40:00","203","1.945","244.0","4.051","239.2","NAN","NAN","NAN","NAN","NAN"],
    [1560564,"2026-07-03 19:50:00","204","2.522","254.6","3.855","254.2","NAN","NAN","NAN","NAN","NAN"],
    [1560565,"2026-07-03 20:00:00","205","2.512","252.5","3.985","245.2","NAN","NAN","NAN","NAN","NAN"],
    [1560566,"2026-07-03 20:10:00","206","2.5540000000000003","258.5","3.953","253.2","NAN","NAN","NAN","NAN","NAN"],
    [1560567,"2026-07-03 20:20:00","207","2.543","252.5","3.822","251.9","NAN","NAN","NAN","NAN","NAN"],
    [1560568,"2026-07-03 20:30:00","208","2.766","257.0","3.855","252.7","NAN","NAN","NAN","NAN","NAN"],
    [1560569,"2026-07-03 20:40:00","209","2.891","255.8","4.704","264.8","NAN","NAN","NAN","NAN","NAN"],
    [1560570,"2026-07-03 20:50:00","210","2.64","254.7","4.018","262.5","NAN","NAN","NAN","NAN","NAN"],
    [1560571,"2026-07-03 21:00:00","211","2.7439999999999998","253.1","4.671","249.6","NAN","NAN","NAN","NAN","NAN"],
    [1560572,"2026-07-03 21:10:00","212","3.2910000000000004","258.4","4.933","258.3","NAN","NAN","NAN","NAN","NAN"],
    [1560573,"2026-07-03 21:20:00","213","3.284","257.8","4.965","259.6","NAN","NAN","NAN","NAN","NAN"],
    [1560574,"2026-07-03 21:30:00","214","3.072","254.0","4.149","242.8","NAN","NAN","NAN","NAN","NAN"],
    [1560575,"2026-07-03 21:40:00","215","3.173","253.7","4.998","259.7","NAN","NAN","NAN","NAN","NAN"],
    [1560576,"2026-07-03 21:50:00","216","2.695","250.9","4.018","249.8","NAN","NAN","NAN","NAN","NAN"],
    [1560577,"2026-07-03 22:00:00","217","2.108","258.2","3.626","263.7","NAN","NAN","NAN","NAN","NAN"],
    [1560578,"2026-07-03 22:10:00","218","2.7119999999999997","274.8","4.279","279.3","NAN","NAN","NAN","NAN","NAN"],
    [1560579,"2026-07-03 22:20:00","219","3.003","270.5","4.508","262.5","NAN","NAN","NAN","NAN","NAN"],
    [1560580,"2026-07-03 22:30:00","220","2.635","288.3","3.757","294.7","NAN","NAN","NAN","NAN","NAN"],
    [1560581,"2026-07-03 22:40:00","221","1.7080000000000002","298.7","3.005","305.5","NAN","NAN","NAN","NAN","NAN"],
    [1560582,"2026-07-03 22:50:00","222","1.814","303.3","3.103","302.1","NAN","NAN","NAN","NAN","NAN"],
    [1560583,"2026-07-03 23:00:00","223","1.567","294.3","3.038","297.8","NAN","NAN","NAN","NAN","NAN"],
    [1560584,"2026-07-03 23:10:00","224","1.565","289.8","2.483","289.6","NAN","NAN","NAN","NAN","NAN"],
    [1560585,"2026-07-03 23:20:00","225","1.253","293.0","2.287","293.3","NAN","NAN","NAN","NAN","NAN"],
    [1560586,"2026-07-03 23:30:00","226","1.141","292.5","1.797","298.2","NAN","NAN","NAN","NAN","NAN"],
    [1560587,"2026-07-03 23:40:00","227","1.252","283.6","2.091","282.4","NAN","NAN","NAN","NAN","NAN"],
    [1560588,"2026-07-03 23:50:00","228","1.395","281.9","1.96","281.7","NAN","NAN","NAN","NAN","NAN"],
    [1560589,"2026-07-04 00:00:00","229","1.595","283.4","2.548","287.4","NAN","NAN","NAN","NAN","NAN"],
    [1560590,"2026-07-04 00:10:00","230","1.431","285.9","2.319","281.4","NAN","NAN","NAN","NAN","NAN"],
    [1560591,"2026-07-04 00:20:00","231","1.454","280.2","2.417","280.3","NAN","NAN","NAN","NAN","NAN"],
    [1560592,"2026-07-04 00:30:00","232","1.33","279.5","2.417","290.2","NAN","NAN","NAN","NAN","NAN"],
    [1560593,"2026-07-04 00:40:00","233","1.594","278.2","2.581","277.6","NAN","NAN","NAN","NAN","NAN"],
    [1560594,"2026-07-04 00:50:00","234","1.479","278.6","2.221","277.2","NAN","NAN","NAN","NAN","NAN"],
    [1560595,"2026-07-04 01:00:00","235","1.349","277.4","2.352","282.8","NAN","NAN","NAN","NAN","NAN"],
    [1560596,"2026-07-04 01:10:00","236","1.825","279.0","2.581","276.9","NAN","NAN","NAN","NAN","NAN"],
    [1560597,"2026-07-04 01:20:00","237","1.4040000000000001","282.7","2.091","290.6","NAN","NAN","NAN","NAN","NAN"],
    [1560598,"2026-07-04 01:30:00","238","1.138","279.1","1.666","277.9","NAN","NAN","NAN","NAN","NAN"],
    [1560599,"2026-07-04 01:40:00","239","1.0859999999999999","283.2","1.96","286.4","NAN","NAN","NAN","NAN","NAN"],
    [1560600,"2026-07-04 01:50:00","240","1.194","276.2","1.601","274.7","NAN","NAN","NAN","NAN","NAN"],
    [1560601,"2026-07-04 02:00:00","241","1.074","276.6","1.764","278.8","NAN","NAN","NAN","NAN","NAN"],
    [1560602,"2026-07-04 02:10:00","242","0.993","277.6","1.503","274.9","NAN","NAN","NAN","NAN","NAN"],
    [1560603,"2026-07-04 02:20:00","243","0.764","274.8","1.209","274.6","NAN","NAN","NAN","NAN","NAN"],
    [1560604,"2026-07-04 02:30:00","244","0.693","275.3","1.045","274.8","NAN","NAN","NAN","NAN","NAN"],
    [1560605,"2026-07-04 02:40:00","245","0.706","274.3","1.143","274.3","NAN","NAN","NAN","NAN","NAN"],
    [1560606,"2026-07-04 02:50:00","246","0.9990000000000001","274.2","1.535","274.2","NAN","NAN","NAN","NAN","NAN"],
    [1560607,"2026-07-04 03:00:00","247","1.016","274.0","1.437","273.9","NAN","NAN","NAN","NAN","NAN"],
    [1560608,"2026-07-04 03:10:00","248","0.9990000000000001","273.8","1.503","273.8","NAN","NAN","NAN","NAN","NAN"],
    [1560609,"2026-07-04 03:20:00","249","0.897","273.8","1.503","273.8","NAN","NAN","NAN","NAN","NAN"],
    [1560610,"2026-07-04 03:30:00","250","1.252","274.1","1.666","273.7","NAN","NAN","NAN","NAN","NAN"],
    [1560611,"2026-07-04 03:40:00","251","1.2830000000000001","275.1","1.862","276.5","NAN","NAN","NAN","NAN","NAN"],
    [1560612,"2026-07-04 03:50:00","252","1.146","279.8","1.927","276.5","NAN","NAN","NAN","NAN","NAN"],
    [1560613,"2026-07-04 04:00:00","253","1.3459999999999999","276.5","1.993","273.6","NAN","NAN","NAN","NAN","NAN"],
    [1560614,"2026-07-04 04:10:00","254","1.3530000000000002","278.8","2.025","274.3","NAN","NAN","NAN","NAN","NAN"],
    [1560615,"2026-07-04 04:20:00","255","1.81","281.5","2.875","284.3","NAN","NAN","NAN","NAN","NAN"],
    [1560616,"2026-07-04 04:30:00","256","1.791","281.9","2.744","283.9","NAN","NAN","NAN","NAN","NAN"],
    [1560617,"2026-07-04 04:40:00","257","1.6780000000000002","286.2","2.875","296","NAN","NAN","NAN","NAN","NAN"],
    [1560618,"2026-07-04 04:50:00","258","2.155","287.8","4.051","299.3","NAN","NAN","NAN","NAN","NAN"],
    [1560619,"2026-07-04 05:00:00","259","2.221","282.5","3.528","297.8","NAN","NAN","NAN","NAN","NAN"],
    [1560620,"2026-07-04 05:10:00","260","1.983","285.6","3.267","279.9","NAN","NAN","NAN","NAN","NAN"],
    [1560621,"2026-07-04 05:20:00","261","1.751","288.0","3.234","292","NAN","NAN","NAN","NAN","NAN"],
    [1560622,"2026-07-04 05:30:00","262","1.962","299.0","3.626","287","NAN","NAN","NAN","NAN","NAN"],
    [1560623,"2026-07-04 05:40:00","263","2.7560000000000002","284.2","4.475","281.6","NAN","NAN","NAN","NAN","NAN"],
    [1560624,"2026-07-04 05:50:00","264","2.404","285.9","4.051","288.8","NAN","NAN","NAN","NAN","NAN"],
    [1560625,"2026-07-04 06:00:00","265","2.0380000000000003","283.1","3.332","279.9","NAN","NAN","NAN","NAN","NAN"],
    [1560626,"2026-07-04 06:10:00","266","1.6780000000000002","287.4","3.071","284.6","NAN","NAN","NAN","NAN","NAN"],
    [1560627,"2026-07-04 06:20:00","267","2.052","298.0","3.365","293.6","NAN","NAN","NAN","NAN","NAN"],
    [1560628,"2026-07-04 06:30:00","268","2.18","298.6","3.299","303.5","NAN","NAN","NAN","NAN","NAN"],
    [1560629,"2026-07-04 06:40:00","269","1.8630000000000002","301.8","2.777","309","NAN","NAN","NAN","NAN","NAN"],
    [1560630,"2026-07-04 06:50:00","270","1.9680000000000002","296.1","3.038","295.7","NAN","NAN","NAN","NAN","NAN"],
    [1560631,"2026-07-04 07:00:00","271","2.33","298.7","3.43","302.5","NAN","NAN","NAN","NAN","NAN"],
    [1560632,"2026-07-04 07:10:00","272","2.185","301.2","4.181","289.6","NAN","NAN","NAN","NAN","NAN"],
    [1560633,"2026-07-04 07:20:00","273","2.249","298.9","3.626","312.4","NAN","NAN","NAN","NAN","NAN"],
    [1560634,"2026-07-04 07:30:00","274","1.0270000000000001","292.8","3.038","300.1","NAN","NAN","NAN","NAN","NAN"],
    [1560635,"2026-07-04 07:40:00","275","1.794","127.2","2.319","123.5","NAN","NAN","NAN","NAN","NAN"],
    [1560636,"2026-07-04 07:50:00","276","1.95","124.2","2.842","126.7","NAN","NAN","NAN","NAN","NAN"],
    [1560637,"2026-07-04 08:00:00","277","2.024","118.7","2.907","116.7","NAN","NAN","NAN","NAN","NAN"],
    [1560638,"2026-07-04 08:10:00","278","1.953","116.9","2.777","116.7","NAN","NAN","NAN","NAN","NAN"],
    [1560639,"2026-07-04 08:20:00","279","2.205","119.6","2.777","116","NAN","NAN","NAN","NAN","NAN"],
    [1560640,"2026-07-04 08:30:00","280","1.923","127.8","2.94","136","NAN","NAN","NAN","NAN","NAN"],
    [1560641,"2026-07-04 08:40:00","281","2.077","118.3","3.005","123","NAN","NAN","NAN","NAN","NAN"],
    [1560642,"2026-07-04 08:50:00","282","2.315","117.5","3.103","115.9","NAN","NAN","NAN","NAN","NAN"],
    [1560643,"2026-07-04 09:00:00","283","2.565","114.2","3.463","116","NAN","NAN","NAN","NAN","NAN"],
    [1560644,"2026-07-04 09:10:00","284","2.27","119.2","3.332","111.1","NAN","NAN","NAN","NAN","NAN"],
    [1560645,"2026-07-04 09:20:00","285","2.32","118.5","3.43","132.6","NAN","NAN","NAN","NAN","NAN"],
    [1560646,"2026-07-04 09:30:00","286","2.5860000000000003","117.6","3.789","133.3","NAN","NAN","NAN","NAN","NAN"],
    [1560647,"2026-07-04 09:40:00","287","2.211","121.2","3.528","132.8","NAN","NAN","NAN","NAN","NAN"],
    [1560648,"2026-07-04 09:50:00","288","2.6630000000000003","123.7","4.508","121.4","NAN","NAN","NAN","NAN","NAN"],
    [1560649,"2026-07-04 10:00:00","289","2.5660000000000003","130.2","3.92","127.3","NAN","NAN","NAN","NAN","NAN"],
    [1560650,"2026-07-04 10:10:00","290","2.5789999999999997","127.3","3.887","133.7","NAN","NAN","NAN","NAN","NAN"],
    [1560651,"2026-07-04 10:20:00","291","1.8940000000000001","131.0","2.875","141.7","NAN","NAN","NAN","NAN","NAN"],
    [1560652,"2026-07-04 10:30:00","292","1.838","136.6","3.43","146.1","NAN","NAN","NAN","NAN","NAN"],
    [1560653,"2026-07-04 10:40:00","293","2.858","186.9","5.096","168.7","NAN","NAN","NAN","NAN","NAN"],
    [1560654,"2026-07-04 10:50:00","294","2.552","187.2","5.161","165.1","NAN","NAN","NAN","NAN","NAN"],
    [1560655,"2026-07-04 11:00:00","295","2.2430000000000003","204.3","5.096","173.3","NAN","NAN","NAN","NAN","NAN"],
    [1560656,"2026-07-04 11:10:00","296","3.075","187.3","4.933","177.8","NAN","NAN","NAN","NAN","NAN"],
    [1560657,"2026-07-04 11:20:00","297","3.6839999999999997","191.6","6.631","177.3","NAN","NAN","NAN","NAN","NAN"],
    [1560658,"2026-07-04 11:30:00","298","3.448","185.9","5.749","162.3","NAN","NAN","NAN","NAN","NAN"],
    [1560659,"2026-07-04 11:40:00","299","3.825","204.8","5.815","206.6","NAN","NAN","NAN","NAN","NAN"],
    [1560660,"2026-07-04 11:50:00","300","4.111000000000001","203.2","6.174","215.9","NAN","NAN","NAN","NAN","NAN"],
    [1560661,"2026-07-04 12:00:00","301","4.1530000000000005","208.4","7.644","222.2","NAN","NAN","NAN","NAN","NAN"],
    [1560662,"2026-07-04 12:10:00","302","4.092","195.6","7.317","210.1","NAN","NAN","NAN","NAN","NAN"],
    [1560663,"2026-07-04 12:20:00","303","3.8080000000000003","200.9","7.971","198.4","NAN","NAN","NAN","NAN","NAN"],
    [1560664,"2026-07-04 12:30:00","304","4.0169999999999995","211.6","7.383","217.9","NAN","NAN","NAN","NAN","NAN"],
    [1560665,"2026-07-04 12:40:00","305","4.763","207.7","7.579","225.3","NAN","NAN","NAN","NAN","NAN"],
    [1560666,"2026-07-04 12:50:00","306","6.0120000000000005","211.4","9.11","212","NAN","NAN","NAN","NAN","NAN"],
    [1560667,"2026-07-04 13:00:00","307","5.301","208.3","9.31","200.7","NAN","NAN","NAN","NAN","NAN"],
    [1560668,"2026-07-04 13:10:00","308","5.391","209.9","9.44","196.2","NAN","NAN","NAN","NAN","NAN"],
    [1560669,"2026-07-04 13:20:00","309","5.718","219.8","10.71","213.3","NAN","NAN","NAN","NAN","NAN"],
    [1560670,"2026-07-04 13:30:00","310","5.617999999999999","221.7","9.05","224.1","NAN","NAN","NAN","NAN","NAN"],
    [1560671,"2026-07-04 13:40:00","311","5.897","224.1","9.38","228.5","NAN","NAN","NAN","NAN","NAN"],
    [1560672,"2026-07-04 13:50:00","312","5.4910000000000005","220.3","9.57","208.1","NAN","NAN","NAN","NAN","NAN"],
    [1560673,"2026-07-04 14:00:00","313","5.723","228.6","9.67","239.2","NAN","NAN","NAN","NAN","NAN"],
    [1560674,"2026-07-04 14:10:00","314","5.662000000000001","225.5","9.7","225.5","NAN","NAN","NAN","NAN","NAN"],
    [1560675,"2026-07-04 14:20:00","315","6.185","222.7","9.38","215.3","NAN","NAN","NAN","NAN","NAN"],
    [1560676,"2026-07-04 14:30:00","316","4.968999999999999","226.4","8.3","227.7","NAN","NAN","NAN","NAN","NAN"],
    [1560677,"2026-07-04 14:40:00","317","5.0360000000000005","230.3","9.7","218.2","NAN","NAN","NAN","NAN","NAN"],
    [1560678,"2026-07-04 14:50:00","318","5.71","224.2","10.91","217.3","NAN","NAN","NAN","NAN","NAN"],
    [1560679,"2026-07-04 15:00:00","319","5.194","226.2","8.75","213.8","NAN","NAN","NAN","NAN","NAN"],
    [1560680,"2026-07-04 15:10:00","320","5.101","239.1","8.85","235.6","NAN","NAN","NAN","NAN","NAN"],
    [1560681,"2026-07-04 15:20:00","321","5.8229999999999995","228.3","9.05","227.1","NAN","NAN","NAN","NAN","NAN"],
    [1560682,"2026-07-04 15:30:00","322","5.755","238.6","9.31","239.5","NAN","NAN","NAN","NAN","NAN"],
    [1560683,"2026-07-04 15:40:00","323","5.319","227.8","8.95","217.5","NAN","NAN","NAN","NAN","NAN"],
    [1560684,"2026-07-04 15:50:00","324","5.29","230.0","8.59","210.3","NAN","NAN","NAN","NAN","NAN"],
    [1560685,"2026-07-04 16:00:00","325","5.805","228.1","9.24","237.6","NAN","NAN","NAN","NAN","NAN"],
    [1560686,"2026-07-04 16:10:00","326","5.682","226.5","10.03","221.6","NAN","NAN","NAN","NAN","NAN"],
    [1560687,"2026-07-04 16:20:00","327","5.787999999999999","229.4","10","212.5","NAN","NAN","NAN","NAN","NAN"],
    [1560688,"2026-07-04 16:30:00","328","4.579","230.6","8.75","216.6","NAN","NAN","NAN","NAN","NAN"],
    [1560689,"2026-07-04 16:40:00","329","5.358","231.8","9.05","223.5","NAN","NAN","NAN","NAN","NAN"],
    [1560690,"2026-07-04 16:50:00","330","4.832","231.7","9.02","232.9","NAN","NAN","NAN","NAN","NAN"],
    [1560691,"2026-07-04 17:00:00","331","4.859","233.6","7.742","239","NAN","NAN","NAN","NAN","NAN"],
    [1560692,"2026-07-04 17:10:00","332","4.678","226.9","7.807","216.9","NAN","NAN","NAN","NAN","NAN"],
    [1560693,"2026-07-04 17:20:00","333","4.615","228.0","7.709","238.2","NAN","NAN","NAN","NAN","NAN"],
    [1560694,"2026-07-04 17:30:00","334","4.2330000000000005","232.5","7.775","244.6","NAN","NAN","NAN","NAN","NAN"],
    [1560695,"2026-07-04 17:40:00","335","4.36","230.1","7.611","224.4","NAN","NAN","NAN","NAN","NAN"],
    [1560696,"2026-07-04 17:50:00","336","3.9619999999999997","229.3","6.403","223.2","NAN","NAN","NAN","NAN","NAN"],
    [1560697,"2026-07-04 18:00:00","337","3.497","234.4","6.435","241.8","NAN","NAN","NAN","NAN","NAN"],
    [1560698,"2026-07-04 18:10:00","338","3.947","225.7","6.795","226","NAN","NAN","NAN","NAN","NAN"],
    [1560699,"2026-07-04 18:20:00","339","3.7030000000000003","228.4","6.174","245.9","NAN","NAN","NAN","NAN","NAN"],
    [1560700,"2026-07-04 18:30:00","340","3.148","234.3","5.815","233.6","NAN","NAN","NAN","NAN","NAN"],
    [1560701,"2026-07-04 18:40:00","341","3.477","229.3","5.651","226.7","NAN","NAN","NAN","NAN","NAN"],
    [1560702,"2026-07-04 18:50:00","342","3.259","234.5","6.174","221.2","NAN","NAN","NAN","NAN","NAN"],
    [1560703,"2026-07-04 19:00:00","343","3.198","230.5","5.945","236.1","NAN","NAN","NAN","NAN","NAN"],
    [1560704,"2026-07-04 19:10:00","344","2.909","233.5","4.802","226.2","NAN","NAN","NAN","NAN","NAN"],
    [1560705,"2026-07-04 19:20:00","345","2.997","239.2","6.109","249.8","NAN","NAN","NAN","NAN","NAN"],
    [1560706,"2026-07-04 19:30:00","346","3.696","247.9","7.089","252","NAN","NAN","NAN","NAN","NAN"],
    [1560707,"2026-07-04 19:40:00","347","3.299","245.5","6.011","261.4","NAN","NAN","NAN","NAN","NAN"],
    [1560708,"2026-07-04 19:50:00","348","2.451","241.0","4.835","258.9","NAN","NAN","NAN","NAN","NAN"],
    [1560709,"2026-07-04 20:00:00","349","2.501","238.2","4.279","232.3","NAN","NAN","NAN","NAN","NAN"],
    [1560710,"2026-07-04 20:10:00","350","3.2739999999999996","252.1","4.965","260.2","NAN","NAN","NAN","NAN","NAN"],
    [1560711,"2026-07-04 20:20:00","351","3.173","249.6","4.606","252.4","NAN","NAN","NAN","NAN","NAN"],
    [1560712,"2026-07-04 20:30:00","352","2.803","248.2","4.181","252","NAN","NAN","NAN","NAN","NAN"],
    [1560713,"2026-07-04 20:40:00","353","3.264","252.7","4.998","242.5","NAN","NAN","NAN","NAN","NAN"],
    [1560714,"2026-07-04 20:50:00","354","2.677","249.1","4.541","246","NAN","NAN","NAN","NAN","NAN"],
    [1560715,"2026-07-04 21:00:00","355","2.479","247.3","3.593","246.2","NAN","NAN","NAN","NAN","NAN"],
    [1560716,"2026-07-04 21:10:00","356","2.314","252.7","3.463","255.2","NAN","NAN","NAN","NAN","NAN"],
    [1560717,"2026-07-04 21:20:00","357","2.3569999999999998","252.5","3.691","259.3","NAN","NAN","NAN","NAN","NAN"],
    [1560718,"2026-07-04 21:30:00","358","2.46","259.8","4.279","265","NAN","NAN","NAN","NAN","NAN"],
    [1560719,"2026-07-04 21:40:00","359","2.246","268.2","3.724","271.1","NAN","NAN","NAN","NAN","NAN"],
    [1560720,"2026-07-04 21:50:00","360","2.397","267.5","3.92","256.8","NAN","NAN","NAN","NAN","NAN"],
    [1560721,"2026-07-04 22:00:00","361","1.808","281.6","2.907","278.9","NAN","NAN","NAN","NAN","NAN"],
    [1560722,"2026-07-04 22:10:00","362","1.568","283.2","2.581","276","NAN","NAN","NAN","NAN","NAN"],
    [1560723,"2026-07-04 22:20:00","363","1.317","284.0","2.352","284.3","NAN","NAN","NAN","NAN","NAN"],
    [1560724,"2026-07-04 22:30:00","364","0.8109999999999999","284.0","1.241","286.5","NAN","NAN","NAN","NAN","NAN"],
    [1560725,"2026-07-04 22:40:00","365","0.9740000000000001","281.9","1.437","281.3","NAN","NAN","NAN","NAN","NAN"],
    [1560726,"2026-07-04 22:50:00","366","0.9229999999999999","286.4","1.405","285.3","NAN","NAN","NAN","NAN","NAN"],
    [1560727,"2026-07-04 23:00:00","367","1.255","287.9","2.091","289.2","NAN","NAN","NAN","NAN","NAN"],
    [1560728,"2026-07-04 23:10:00","368","0.889","286.9","1.633","289.2","NAN","NAN","NAN","NAN","NAN"],
    [1560729,"2026-07-04 23:20:00","369","0.9179999999999999","285.2","1.797","283.1","NAN","NAN","NAN","NAN","NAN"],
    [1560730,"2026-07-04 23:30:00","370","1.054","284.8","1.764","286.8","NAN","NAN","NAN","NAN","NAN"],
    [1560731,"2026-07-04 23:40:00","371","1.178","282.5","1.764","280.5","NAN","NAN","NAN","NAN","NAN"],
    [1560732,"2026-07-04 23:50:00","372","0.8590000000000001","283.7","1.568","287.3","NAN","NAN","NAN","NAN","NAN"],
    [1560733,"2026-07-05 00:00:00","373","0.873","287.9","1.666","289","NAN","NAN","NAN","NAN","NAN"],
    [1560734,"2026-07-05 00:10:00","374","0.9209999999999999","286.3","1.568","289.4","NAN","NAN","NAN","NAN","NAN"],
    [1560735,"2026-07-05 00:20:00","375","1.4069999999999998","290.6","2.548","291.4","NAN","NAN","NAN","NAN","NAN"],
    [1560736,"2026-07-05 00:30:00","376","1.501","286.2","2.385","290.7","NAN","NAN","NAN","NAN","NAN"],
    [1560737,"2026-07-05 00:40:00","377","1.308","284.8","2.025","281.8","NAN","NAN","NAN","NAN","NAN"],
    [1560738,"2026-07-05 00:50:00","378","1.1909999999999998","287.5","2.123","289","NAN","NAN","NAN","NAN","NAN"],
    [1560739,"2026-07-05 01:00:00","379","1.413","284.8","2.123","285.6","NAN","NAN","NAN","NAN","NAN"],
    [1560740,"2026-07-05 01:10:00","380","1.248","279.2","1.862","278.8","NAN","NAN","NAN","NAN","NAN"],
    [1560741,"2026-07-05 01:20:00","381","1.026","278.1","1.503","278.1","NAN","NAN","NAN","NAN","NAN"],
    [1560742,"2026-07-05 01:30:00","382","1.197","279.2","1.895","277.2","NAN","NAN","NAN","NAN","NAN"],
    [1560743,"2026-07-05 01:40:00","383","1.345","277.6","2.189","276.5","NAN","NAN","NAN","NAN","NAN"],
    [1560744,"2026-07-05 01:50:00","384","1.348","275.9","1.96","280.8","NAN","NAN","NAN","NAN","NAN"],
    [1560745,"2026-07-05 02:00:00","385","1.36","275.0","2.221","272.8","NAN","NAN","NAN","NAN","NAN"],
    [1560746,"2026-07-05 02:10:00","386","1.7","271.0","2.744","268.3","NAN","NAN","NAN","NAN","NAN"],
    [1560747,"2026-07-05 02:20:00","387","1.9669999999999999","274.1","2.744","267.6","NAN","NAN","NAN","NAN","NAN"],
    [1560748,"2026-07-05 02:30:00","388","2.016","268.5","3.201","262.6","NAN","NAN","NAN","NAN","NAN"],
    [1560749,"2026-07-05 02:40:00","389","2.0340000000000003","268.1","3.267","274.9","NAN","NAN","NAN","NAN","NAN"],
    [1560750,"2026-07-05 02:50:00","390","1.749","274.8","2.679","272.2","NAN","NAN","NAN","NAN","NAN"],
    [1560751,"2026-07-05 03:00:00","391","2.003","275.6","3.136","277.4","NAN","NAN","NAN","NAN","NAN"],
    [1560752,"2026-07-05 03:10:00","392","2.544","272.0","3.92","276","NAN","NAN","NAN","NAN","NAN"],
    [1560753,"2026-07-05 03:20:00","393","2.365","269.0","3.855","268.7","NAN","NAN","NAN","NAN","NAN"],
    [1560754,"2026-07-05 03:30:00","394","1.865","272.9","3.071","278.6","NAN","NAN","NAN","NAN","NAN"],
    [1560755,"2026-07-05 03:40:00","395","0.285","280.1","1.437","279.9","NAN","NAN","NAN","NAN","NAN"],
    [1560756,"2026-07-05 03:50:00","396","0.825","278.0","1.437","278.7","NAN","NAN","NAN","NAN","NAN"],
    [1560757,"2026-07-05 04:00:00","397","0.36700000000000005","279.8","1.045","280.1","NAN","NAN","NAN","NAN","NAN"],
    [1560758,"2026-07-05 04:10:00","398","0.47600000000000003","280.0","1.797","280.3","NAN","NAN","NAN","NAN","NAN"],
    [1560759,"2026-07-05 04:20:00","399","1.705","280.9","2.646","280.6","NAN","NAN","NAN","NAN","NAN"],
    [1560760,"2026-07-05 04:30:00","400","0.132","274.6","1.405","281.8","NAN","NAN","NAN","NAN","NAN"],
    [1560761,"2026-07-05 04:40:00","401","1.165","273.2","2.287","271.1","NAN","NAN","NAN","NAN","NAN"],
    [1560762,"2026-07-05 04:50:00","402","0.848","281.4","1.47","281.5","NAN","NAN","NAN","NAN","NAN"],
    [1560763,"2026-07-05 05:00:00","403","0.8240000000000001","276.4","1.437","276.6","NAN","NAN","NAN","NAN","NAN"],
    [1560764,"2026-07-05 05:10:00","404","1.635","267.4","2.581","265.2","NAN","NAN","NAN","NAN","NAN"],
    [1560765,"2026-07-05 05:20:00","405","1.225","270.7","2.025","271","NAN","NAN","NAN","NAN","NAN"],
    [1560766,"2026-07-05 05:30:00","406","1.331","277.8","2.385","268.9","NAN","NAN","NAN","NAN","NAN"],
    [1560767,"2026-07-05 05:40:00","407","0.7659999999999999","281.1","1.862","284.1","NAN","NAN","NAN","NAN","NAN"],
    [1560768,"2026-07-05 05:50:00","408","1.287","275.3","2.058","270.5","NAN","NAN","NAN","NAN","NAN"],
    [1560769,"2026-07-05 06:00:00","409","1.114","273.9","1.797","267.9","NAN","NAN","NAN","NAN","NAN"],
    [1560770,"2026-07-05 06:10:00","410","1.5190000000000001","272.9","2.058","276.6","NAN","NAN","NAN","NAN","NAN"],
    [1560771,"2026-07-05 06:20:00","411","0.9470000000000001","280.9","1.666","280.5","NAN","NAN","NAN","NAN","NAN"],
    [1560772,"2026-07-05 06:30:00","412","1.025","274.0","1.633","265.7","NAN","NAN","NAN","NAN","NAN"],
    [1560773,"2026-07-05 06:40:00","413","1.3130000000000002","272.9","2.319","273.3","NAN","NAN","NAN","NAN","NAN"],
    [1560774,"2026-07-05 06:50:00","414","0.919","275.9","1.568","282.1","NAN","NAN","NAN","NAN","NAN"],
    [1560775,"2026-07-05 07:00:00","415","0.6709999999999999","278.2","1.601","276.2","NAN","NAN","NAN","NAN","NAN"],
    [1560776,"2026-07-05 07:10:00","416","0.733","271.9","2.287","268.2","NAN","NAN","NAN","NAN","NAN"],
    [1560777,"2026-07-05 07:20:00","417","1.012","267.7","1.862","284.2","NAN","NAN","NAN","NAN","NAN"],
    [1560778,"2026-07-05 07:30:00","418","0.904","264.5","1.993","261.9","NAN","NAN","NAN","NAN","NAN"],
    [1560779,"2026-07-05 07:40:00","419","1.078","262.4","2.221","261.3","NAN","NAN","NAN","NAN","NAN"],
    [1560780,"2026-07-05 07:50:00","420","1.9680000000000002","262.0","3.561","259.7","NAN","NAN","NAN","NAN","NAN"],
    [1560781,"2026-07-05 08:00:00","421","2.1919999999999997","269.4","3.43","263.3","NAN","NAN","NAN","NAN","NAN"],
    [1560782,"2026-07-05 08:10:00","422","1.834","249.0","3.561","245.2","NAN","NAN","NAN","NAN","NAN"],
    [1560783,"2026-07-05 08:20:00","423","2.053","235.8","3.626","246.6","NAN","NAN","NAN","NAN","NAN"],
    [1560784,"2026-07-05 08:30:00","424","1.683","245.1","2.94","255","NAN","NAN","NAN","NAN","NAN"],
    [1560785,"2026-07-05 08:40:00","425","1.7069999999999999","228.8","2.973","230.4","NAN","NAN","NAN","NAN","NAN"],
    [1560786,"2026-07-05 08:50:00","426","2.113","232.9","3.789","228.6","NAN","NAN","NAN","NAN","NAN"],
    [1560787,"2026-07-05 09:00:00","427","2.675","237.5","4.247","238.9","NAN","NAN","NAN","NAN","NAN"],
    [1560788,"2026-07-05 09:10:00","428","2.388","225.2","3.953","216.7","NAN","NAN","NAN","NAN","NAN"],
    [1560789,"2026-07-05 09:20:00","429","2.622","210.6","4.018","203.1","NAN","NAN","NAN","NAN","NAN"],
    [1560790,"2026-07-05 09:30:00","430","2.696","204.3","4.541","206.6","NAN","NAN","NAN","NAN","NAN"],
    [1560791,"2026-07-05 09:40:00","431","2.802","213.1","4.867","212.6","NAN","NAN","NAN","NAN","NAN"],
    [1560792,"2026-07-05 09:50:00","432","2.6289999999999996","220.4","4.573","211.5","NAN","NAN","NAN","NAN","NAN"],
    [1560793,"2026-07-05 10:00:00","433","2.801","205.0","4.835","186.8","NAN","NAN","NAN","NAN","NAN"],
    [1560794,"2026-07-05 10:10:00","434","3.4210000000000003","208.4","5.325","222.8","NAN","NAN","NAN","NAN","NAN"],
    [1560795,"2026-07-05 10:20:00","435","3.307","199.1","6.141","166.3","NAN","NAN","NAN","NAN","NAN"],
    [1560796,"2026-07-05 10:30:00","436","2.8939999999999997","195.7","5.488","215.3","NAN","NAN","NAN","NAN","NAN"],
    [1560797,"2026-07-05 10:40:00","437","3.198","200.3","6.631","208.1","NAN","NAN","NAN","NAN","NAN"],
    [1560798,"2026-07-05 10:50:00","438","3.57","202.4","6.37","214.8","NAN","NAN","NAN","NAN","NAN"],
    [1560799,"2026-07-05 11:00:00","439","3.33","213.2","6.893","203.8","NAN","NAN","NAN","NAN","NAN"],
    [1560800,"2026-07-05 11:10:00","440","3.554","208.7","6.991","230.6","NAN","NAN","NAN","NAN","NAN"],
    [1560801,"2026-07-05 11:20:00","441","3.534","208.3","5.586","213.9","NAN","NAN","NAN","NAN","NAN"],
    [1560802,"2026-07-05 11:30:00","442","3.6860000000000004","207.3","6.664","208.3","NAN","NAN","NAN","NAN","NAN"],
    [1560803,"2026-07-05 11:40:00","443","2.862","206.3","5.031","228.7","NAN","NAN","NAN","NAN","NAN"],
    [1560804,"2026-07-05 11:50:00","444","3.4189999999999996","210.5","6.109","211.2","NAN","NAN","NAN","NAN","NAN"],
    [1560805,"2026-07-05 12:00:00","445","4.053999999999999","219.0","7.023","227.1","NAN","NAN","NAN","NAN","NAN"],
    [1560806,"2026-07-05 12:10:00","446","4.535","215.9","7.611","211.8","NAN","NAN","NAN","NAN","NAN"],
    [1560807,"2026-07-05 12:20:00","447","5.579","214.1","7.775","202.4","NAN","NAN","NAN","NAN","NAN"],
    [1560808,"2026-07-05 12:30:00","448","4.093999999999999","208.5","6.86","222.4","NAN","NAN","NAN","NAN","NAN"],
    [1560809,"2026-07-05 12:40:00","449","4.823","217.7","8.36","212.3","NAN","NAN","NAN","NAN","NAN"],
    [1560810,"2026-07-05 12:50:00","450","5.056","221.8","8.26","216.2","NAN","NAN","NAN","NAN","NAN"],
    [1560811,"2026-07-05 13:00:00","451","4.8919999999999995","213.8","8.07","230.7","NAN","NAN","NAN","NAN","NAN"],
    [1560812,"2026-07-05 13:10:00","452","5.1370000000000005","222.4","7.971","209.6","NAN","NAN","NAN","NAN","NAN"],
    [1560813,"2026-07-05 13:20:00","453","4.123","214.4","7.023","218.3","NAN","NAN","NAN","NAN","NAN"],
    [1560814,"2026-07-05 13:30:00","454","4.5280000000000005","210.7","7.448","210.1","NAN","NAN","NAN","NAN","NAN"],
    [1560815,"2026-07-05 13:40:00","455","5.202999999999999","219.3","8.1","223.2","NAN","NAN","NAN","NAN","NAN"],
    [1560816,"2026-07-05 13:50:00","456","4.52","222.7","8.07","226.6","NAN","NAN","NAN","NAN","NAN"],
    [1560817,"2026-07-05 14:00:00","457","5.261","213.3","8.49","205.9","NAN","NAN","NAN","NAN","NAN"],
    [1560818,"2026-07-05 14:10:00","458","4.481","220.0","7.285","227.1","NAN","NAN","NAN","NAN","NAN"],
    [1560819,"2026-07-05 14:20:00","459","4.11","212.5","6.86","204.6","NAN","NAN","NAN","NAN","NAN"],
    [1560820,"2026-07-05 14:30:00","460","5.2860000000000005","208.6","8.23","209.1","NAN","NAN","NAN","NAN","NAN"],
    [1560821,"2026-07-05 14:40:00","461","4.621","211.5","7.023","213.7","NAN","NAN","NAN","NAN","NAN"],
    [1560822,"2026-07-05 14:50:00","462","4.311","213.4","7.415","233.4","NAN","NAN","NAN","NAN","NAN"],
    [1560823,"2026-07-05 15:00:00","463","4.561","216.2","8.2","244.4","NAN","NAN","NAN","NAN","NAN"],
    [1560824,"2026-07-05 15:10:00","464","5.1739999999999995","224.9","8.13","221.4","NAN","NAN","NAN","NAN","NAN"],
    [1560825,"2026-07-05 15:20:00","465","3.883","220.6","7.383","243.5","NAN","NAN","NAN","NAN","NAN"],
    [1560826,"2026-07-05 15:30:00","466","4.831","212.7","7.546","205.9","NAN","NAN","NAN","NAN","NAN"],
    [1560827,"2026-07-05 15:40:00","467","4.793","209.7","7.873","200.5","NAN","NAN","NAN","NAN","NAN"],
    [1560828,"2026-07-05 15:50:00","468","4.261","210.5","6.795","227.8","NAN","NAN","NAN","NAN","NAN"],
    [1560829,"2026-07-05 16:00:00","469","4.961","212.6","8","209.9","NAN","NAN","NAN","NAN","NAN"],
    [1560830,"2026-07-05 16:10:00","470","4.329","213.0","6.991","228.5","NAN","NAN","NAN","NAN","NAN"],
    [1560831,"2026-07-05 16:20:00","471","4.545","224.6","7.742","226.4","NAN","NAN","NAN","NAN","NAN"],
    [1560832,"2026-07-05 16:30:00","472","3.987","213.7","6.566","205.5","NAN","NAN","NAN","NAN","NAN"],
    [1560833,"2026-07-05 16:40:00","473","3.342","221.9","6.435","225.9","NAN","NAN","NAN","NAN","NAN"],
    [1560834,"2026-07-05 16:50:00","474","3.7510000000000003","225.5","6.762","232.1","NAN","NAN","NAN","NAN","NAN"],
    [1560835,"2026-07-05 17:00:00","475","4.127","223.1","6.762","221.3","NAN","NAN","NAN","NAN","NAN"],
    [1560836,"2026-07-05 17:10:00","476","4.316","224.9","7.252","236.8","NAN","NAN","NAN","NAN","NAN"],
    [1560837,"2026-07-05 17:20:00","477","3.3819999999999997","217.2","5.717","208.6","NAN","NAN","NAN","NAN","NAN"],
    [1560838,"2026-07-05 17:30:00","478","3.4589999999999996","216.0","6.076","219.4","NAN","NAN","NAN","NAN","NAN"],
    [1560839,"2026-07-05 17:40:00","479","3.7060000000000004","213.1","6.533","218.4","NAN","NAN","NAN","NAN","NAN"],
    [1560840,"2026-07-05 17:50:00","480","3.571","225.5","6.109","233.3","NAN","NAN","NAN","NAN","NAN"],
    [1560841,"2026-07-05 18:00:00","481","3.603","227.8","5.978","236.4","NAN","NAN","NAN","NAN","NAN"],
    [1560842,"2026-07-05 18:10:00","482","3.005","214.0","5.488","208.6","NAN","NAN","NAN","NAN","NAN"],
    [1560843,"2026-07-05 18:20:00","483","3.225","214.5","5.553","205","NAN","NAN","NAN","NAN","NAN"],
    [1560844,"2026-07-05 18:30:00","484","2.688","211.7","4.377","210.8","NAN","NAN","NAN","NAN","NAN"],
    [1560845,"2026-07-05 18:40:00","485","3.1519999999999997","227.3","5.357","241.6","NAN","NAN","NAN","NAN","NAN"],
    [1560846,"2026-07-05 18:50:00","486","3.1639999999999997","231.7","5.259","214.5","NAN","NAN","NAN","NAN","NAN"],
    [1560847,"2026-07-05 19:00:00","487","3.068","226.4","5.39","228","NAN","NAN","NAN","NAN","NAN"],
    [1560848,"2026-07-05 19:10:00","488","2.74","227.3","4.606","216.3","NAN","NAN","NAN","NAN","NAN"],
    [1560849,"2026-07-05 19:20:00","489","2.214","228.0","3.593","225","NAN","NAN","NAN","NAN","NAN"],
    [1560850,"2026-07-05 19:30:00","490","2.7230000000000003","232.2","4.41","218.2","NAN","NAN","NAN","NAN","NAN"],
    [1560851,"2026-07-05 19:40:00","491","2.596","236.9","4.573","233","NAN","NAN","NAN","NAN","NAN"],
    [1560852,"2026-07-05 19:50:00","492","2.29","237.8","4.149","234.2","NAN","NAN","NAN","NAN","NAN"],
    [1560853,"2026-07-05 20:00:00","493","2.611","246.1","5.194","252.2","NAN","NAN","NAN","NAN","NAN"],
    [1560854,"2026-07-05 20:10:00","494","2.421","241.3","4.475","253.5","NAN","NAN","NAN","NAN","NAN"],
    [1560855,"2026-07-05 20:20:00","495","2.2","247.2","3.528","249.1","NAN","NAN","NAN","NAN","NAN"],
    [1560856,"2026-07-05 20:30:00","496","2.406","253.5","3.234","257.2","NAN","NAN","NAN","NAN","NAN"],
    [1560857,"2026-07-05 20:40:00","497","2.38","256.1","4.051","253.7","NAN","NAN","NAN","NAN","NAN"],
    [1560858,"2026-07-05 20:50:00","498","2.79","252.5","3.724","258.1","NAN","NAN","NAN","NAN","NAN"],
    [1560859,"2026-07-05 21:00:00","499","2.747","246.0","3.985","247.8","NAN","NAN","NAN","NAN","NAN"],
    [1560860,"2026-07-05 21:10:00","500","2.549","246.5","4.181","242.2","NAN","NAN","NAN","NAN","NAN"],
    [1560861,"2026-07-05 21:20:00","501","1.9409999999999998","247.8","2.94","256.6","NAN","NAN","NAN","NAN","NAN"],
    [1560862,"2026-07-05 21:30:00","502","1.527","240.0","2.515","238.2","NAN","NAN","NAN","NAN","NAN"],
    [1560863,"2026-07-05 21:40:00","503","1.62","236.5","2.973","232.8","NAN","NAN","NAN","NAN","NAN"],
    [1560864,"2026-07-05 21:50:00","504","1.7009999999999998","243.4","2.581","229.8","NAN","NAN","NAN","NAN","NAN"],
    [1560865,"2026-07-05 22:00:00","505","1.541","252.4","2.515","251","NAN","NAN","NAN","NAN","NAN"],
    [1560866,"2026-07-05 22:10:00","506","1.426","253.9","2.221","254.1","NAN","NAN","NAN","NAN","NAN"],
    [1560867,"2026-07-05 22:20:00","507","1.5830000000000002","252.1","2.385","253.1","NAN","NAN","NAN","NAN","NAN"],
    [1560868,"2026-07-05 22:30:00","508","1.0190000000000001","252.9","1.829","253.1","NAN","NAN","NAN","NAN","NAN"],
    [1560869,"2026-07-05 22:40:00","509","1.1640000000000001","251.1","1.699","253.9","NAN","NAN","NAN","NAN","NAN"],
    [1560870,"2026-07-05 22:50:00","510","0.6679999999999999","253.6","1.274","254","NAN","NAN","NAN","NAN","NAN"],
    [1560871,"2026-07-05 23:00:00","511","0.7829999999999999","254.2","1.307","254.2","NAN","NAN","NAN","NAN","NAN"],
    [1560872,"2026-07-05 23:10:00","512","0.938","254.1","1.699","254.5","NAN","NAN","NAN","NAN","NAN"],
    [1560873,"2026-07-05 23:20:00","513","1.136","254.8","1.699","254.8","NAN","NAN","NAN","NAN","NAN"],
    [1560874,"2026-07-05 23:30:00","514","1.402","255.3","1.895","255.4","NAN","NAN","NAN","NAN","NAN"],
    [1560875,"2026-07-05 23:40:00","515","1.423","256.1","2.091","256.3","NAN","NAN","NAN","NAN","NAN"],
    [1560876,"2026-07-05 23:50:00","516","1.6980000000000002","258.5","2.777","264.9","NAN","NAN","NAN","NAN","NAN"],
    [1560877,"2026-07-06 00:00:00","517","1.7009999999999998","268.6","2.483","266.8","NAN","NAN","NAN","NAN","NAN"],
    [1560878,"2026-07-06 00:10:00","518","1.587","269.4","2.483","269.4","NAN","NAN","NAN","NAN","NAN"],
    [1560879,"2026-07-06 00:20:00","519","1.564","273.0","2.646","275.1","NAN","NAN","NAN","NAN","NAN"],
    [1560880,"2026-07-06 00:30:00","520","1.57","277.1","2.711","277.9","NAN","NAN","NAN","NAN","NAN"],
    [1560881,"2026-07-06 00:40:00","521","1.671","275.9","2.515","278.6","NAN","NAN","NAN","NAN","NAN"],
    [1560882,"2026-07-06 00:50:00","522","0.97","277.7","1.764","278.8","NAN","NAN","NAN","NAN","NAN"],
    [1560883,"2026-07-06 01:00:00","523","0.511","274.8","1.241","271.9","NAN","NAN","NAN","NAN","NAN"],
    [1560884,"2026-07-06 01:10:00","524","0.621","270.7","1.143","271.7","NAN","NAN","NAN","NAN","NAN"],
    [1560885,"2026-07-06 01:20:00","525","0.249","270.3","0.621","270.2","NAN","NAN","NAN","NAN","NAN"],
    [1560886,"2026-07-06 01:30:00","526","0.581","269.7","1.176","269.1","NAN","NAN","NAN","NAN","NAN"],
    [1560887,"2026-07-06 01:40:00","527","0.735","268.0","1.307","267.2","NAN","NAN","NAN","NAN","NAN"],
    [1560888,"2026-07-06 01:50:00","528","1.181","265.7","1.895","265.4","NAN","NAN","NAN","NAN","NAN"],
    [1560889,"2026-07-06 02:00:00","529","1.422","259.7","2.287","258.8","NAN","NAN","NAN","NAN","NAN"],
    [1560890,"2026-07-06 02:10:00","530","1.683","265.2","2.875","265.8","NAN","NAN","NAN","NAN","NAN"],
    [1560891,"2026-07-06 02:20:00","531","2.15","272.6","3.038","270.6","NAN","NAN","NAN","NAN","NAN"],
    [1560892,"2026-07-06 02:30:00","532","2.147","269.3","3.038","264.9","NAN","NAN","NAN","NAN","NAN"],
    [1560893,"2026-07-06 02:40:00","533","2.0980000000000003","271.7","3.038","268.7","NAN","NAN","NAN","NAN","NAN"],
    [1560894,"2026-07-06 02:50:00","534","1.7209999999999999","280.9","2.809","281.9","NAN","NAN","NAN","NAN","NAN"],
    [1560895,"2026-07-06 03:00:00","535","2.239","281.8","3.593","285.9","NAN","NAN","NAN","NAN","NAN"],
    [1560896,"2026-07-06 03:10:00","536","2.51","289.2","4.083","292.4","NAN","NAN","NAN","NAN","NAN"],
    [1560897,"2026-07-06 03:20:00","537","2.263","288.7","3.92","273.1","NAN","NAN","NAN","NAN","NAN"],
    [1560898,"2026-07-06 03:30:00","538","2.372","284.2","3.397","283.4","NAN","NAN","NAN","NAN","NAN"],
    [1560899,"2026-07-06 03:40:00","539","2.292","285.5","3.626","296.4","NAN","NAN","NAN","NAN","NAN"],
    [1560900,"2026-07-06 03:50:00","540","2.289","288.1","3.757","297.9","NAN","NAN","NAN","NAN","NAN"],
    [1560901,"2026-07-06 04:00:00","541","2.14","287.6","3.365","275.8","NAN","NAN","NAN","NAN","NAN"],
    [1560902,"2026-07-06 04:10:00","542","2.202","285.9","3.267","293.2","NAN","NAN","NAN","NAN","NAN"],
    [1560903,"2026-07-06 04:20:00","543","1.905","277.7","2.875","289.6","NAN","NAN","NAN","NAN","NAN"],
    [1560904,"2026-07-06 04:30:00","544","1.764","268.7","3.038","265.8","NAN","NAN","NAN","NAN","NAN"],
    [1560905,"2026-07-06 04:40:00","545","1.8259999999999998","266.8","2.94","270.3","NAN","NAN","NAN","NAN","NAN"],
    [1560906,"2026-07-06 04:50:00","546","1.8330000000000002","265.0","2.842","268.2","NAN","NAN","NAN","NAN","NAN"],
    [1560907,"2026-07-06 05:00:00","547","2.2319999999999998","269.1","3.332","266.1","NAN","NAN","NAN","NAN","NAN"],
    [1560908,"2026-07-06 05:10:00","548","1.946","273.5","2.907","262.5","NAN","NAN","NAN","NAN","NAN"],
    [1560909,"2026-07-06 05:20:00","549","1.703","280.0","2.875","286.2","NAN","NAN","NAN","NAN","NAN"],
    [1560910,"2026-07-06 05:30:00","550","1.5759999999999998","284.8","2.907","286.8","NAN","NAN","NAN","NAN","NAN"],
    [1560911,"2026-07-06 05:40:00","551","1.146","284.4","2.221","281.1","NAN","NAN","NAN","NAN","NAN"],
    [1560912,"2026-07-06 05:50:00","552","1.706","279.2","2.777","277.9","NAN","NAN","NAN","NAN","NAN"],
    [1560913,"2026-07-06 06:00:00","553","1.4809999999999999","280.7","2.352","282","NAN","NAN","NAN","NAN","NAN"],
    [1560914,"2026-07-06 06:10:00","554","0.465","274.5","1.699","269.9","NAN","NAN","NAN","NAN","NAN"],
    [1560915,"2026-07-06 06:20:00","555","0.674","286.9","1.503","281.4","NAN","NAN","NAN","NAN","NAN"],
    [1560916,"2026-07-06 06:30:00","556","0.185","288.2","0.686","287.7","NAN","NAN","NAN","NAN","NAN"],
    [1560917,"2026-07-06 06:40:00","557","0.025","287.5","0.457","286.9","NAN","NAN","NAN","NAN","NAN"],
    [1560918,"2026-07-06 06:50:00","558","0.12","280.0","0.523","289.3","NAN","NAN","NAN","NAN","NAN"],
    [1560919,"2026-07-06 07:00:00","559","0.341","268.9","0.98","268.9","NAN","NAN","NAN","NAN","NAN"],
    [1560920,"2026-07-06 07:10:00","560","0.545","268.6","1.535","268.5","NAN","NAN","NAN","NAN","NAN"],
    [1560921,"2026-07-06 07:20:00","561","1.3219999999999998","263.8","2.907","236.6","NAN","NAN","NAN","NAN","NAN"],
    [1560922,"2026-07-06 07:30:00","562","1.9609999999999999","246.1","2.907","255.3","NAN","NAN","NAN","NAN","NAN"],
    [1560923,"2026-07-06 07:40:00","563","1.5430000000000001","226.9","3.201","239.6","NAN","NAN","NAN","NAN","NAN"],
    [1560924,"2026-07-06 07:50:00","564","1.896","252.3","3.463","232.8","NAN","NAN","NAN","NAN","NAN"],
    [1560925,"2026-07-06 08:00:00","565","1.733","240.8","3.397","230.5","NAN","NAN","NAN","NAN","NAN"],
    [1560926,"2026-07-06 08:10:00","566","1.994","257.1","3.659","274.2","NAN","NAN","NAN","NAN","NAN"],
    [1560927,"2026-07-06 08:20:00","567","1.4180000000000001","267.1","3.887","277.2","NAN","NAN","NAN","NAN","NAN"],
    [1560928,"2026-07-06 08:30:00","568","0.973","238.4","2.025","236.8","NAN","NAN","NAN","NAN","NAN"],
    [1560929,"2026-07-06 08:40:00","569","1.26","211.7","3.169","183.8","NAN","NAN","NAN","NAN","NAN"],
    [1560930,"2026-07-06 08:50:00","570","2.24","197.8","3.691","215.2","NAN","NAN","NAN","NAN","NAN"],
    [1560931,"2026-07-06 09:00:00","571","2.549","204.7","3.887","206.3","NAN","NAN","NAN","NAN","NAN"],
    [1560932,"2026-07-06 09:10:00","572","2.736","210.0","4.312","209.4","NAN","NAN","NAN","NAN","NAN"],
    [1560933,"2026-07-06 09:20:00","573","2.787","197.5","3.953","183.5","NAN","NAN","NAN","NAN","NAN"],
    [1560934,"2026-07-06 09:30:00","574","2.753","208.8","3.985","216.8","NAN","NAN","NAN","NAN","NAN"],
    [1560935,"2026-07-06 09:40:00","575","2.575","211.0","4.279","224.6","NAN","NAN","NAN","NAN","NAN"],
    [1560936,"2026-07-06 09:50:00","576","2.5780000000000003","212.1","4.181","215.9","NAN","NAN","NAN","NAN","NAN"],
    [1560937,"2026-07-06 10:00:00","577","2.544","202.5","4.508","202.8","NAN","NAN","NAN","NAN","NAN"],
    [1560938,"2026-07-06 10:10:00","578","2.84","199.2","5.031","212.2","NAN","NAN","NAN","NAN","NAN"],
    [1560939,"2026-07-06 10:20:00","579","2.9389999999999996","195.2","5.292","220","NAN","NAN","NAN","NAN","NAN"],
    [1560940,"2026-07-06 10:30:00","580","3.2539999999999996","207.2","5.096","208.6","NAN","NAN","NAN","NAN","NAN"],
    [1560941,"2026-07-06 10:40:00","581","4.061","210.7","6.697","212.7","NAN","NAN","NAN","NAN","NAN"],
    [1560942,"2026-07-06 10:50:00","582","4.559","213.1","7.285","224.7","NAN","NAN","NAN","NAN","NAN"],
    [1560943,"2026-07-06 11:00:00","583","3.6310000000000002","206.4","6.435","216.9","NAN","NAN","NAN","NAN","NAN"],
    [1560944,"2026-07-06 11:10:00","584","3.81","207.4","6.501","205","NAN","NAN","NAN","NAN","NAN"],
    [1560945,"2026-07-06 11:20:00","585","3.998","202.1","7.285","209.1","NAN","NAN","NAN","NAN","NAN"],
    [1560946,"2026-07-06 11:30:00","586","3.07","196.8","5.782","166.4","NAN","NAN","NAN","NAN","NAN"],
    [1560947,"2026-07-06 11:40:00","587","3.9","177.5","6.599","168.3","NAN","NAN","NAN","NAN","NAN"],
    [1560948,"2026-07-06 11:50:00","588","3.2030000000000003","192.9","6.076","159.9","NAN","NAN","NAN","NAN","NAN"],
    [1560949,"2026-07-06 12:00:00","589","3.6519999999999997","205.7","6.991","203.4","NAN","NAN","NAN","NAN","NAN"],
    [1560950,"2026-07-06 12:10:00","590","3.717","197.7","6.664","221.1","NAN","NAN","NAN","NAN","NAN"],
    [1560951,"2026-07-06 12:20:00","591","4.0","208.0","6.043","208","NAN","NAN","NAN","NAN","NAN"],
    [1560952,"2026-07-06 12:30:00","592","3.44","195.3","6.37","180.8","NAN","NAN","NAN","NAN","NAN"],
    [1560953,"2026-07-06 12:40:00","593","4.155","208.7","6.762","180.9","NAN","NAN","NAN","NAN","NAN"],
    [1560954,"2026-07-06 12:50:00","594","3.928","197.8","6.795","178.4","NAN","NAN","NAN","NAN","NAN"],
    [1560955,"2026-07-06 13:00:00","595","3.864","184.8","6.827","188.7","NAN","NAN","NAN","NAN","NAN"],
    [1560956,"2026-07-06 13:10:00","596","3.872","190.0","7.023","175.7","NAN","NAN","NAN","NAN","NAN"],
    [1560957,"2026-07-06 13:20:00","597","4.408","215.1","8.1","216.6","NAN","NAN","NAN","NAN","NAN"],
    [1560958,"2026-07-06 13:30:00","598","3.616","205.9","7.187","222.7","NAN","NAN","NAN","NAN","NAN"],
    [1560959,"2026-07-06 13:40:00","599","3.5639999999999996","194.0","7.219","163.6","NAN","NAN","NAN","NAN","NAN"],
    [1560960,"2026-07-06 13:50:00","600","2.9810000000000003","205.3","5.553","214.4","NAN","NAN","NAN","NAN","NAN"],
    [1560961,"2026-07-06 14:00:00","601","3.182","203.0","6.599","216.8","NAN","NAN","NAN","NAN","NAN"],
    [1560962,"2026-07-06 14:10:00","602","3.51","193.2","6.337","233.2","NAN","NAN","NAN","NAN","NAN"],
    [1560963,"2026-07-06 14:20:00","603","3.739","199.0","7.383","172.2","NAN","NAN","NAN","NAN","NAN"],
    [1560964,"2026-07-06 14:30:00","604","3.333","200.9","6.37","214.1","NAN","NAN","NAN","NAN","NAN"],
    [1560965,"2026-07-06 14:40:00","605","3.687","214.4","6.925","236.8","NAN","NAN","NAN","NAN","NAN"],
    [1560966,"2026-07-06 14:50:00","606","4.37","219.0","6.827","240.4","NAN","NAN","NAN","NAN","NAN"],
    [1560967,"2026-07-06 15:00:00","607","4.027","206.2","5.945","221.9","NAN","NAN","NAN","NAN","NAN"],
    [1560968,"2026-07-06 15:10:00","608","3.013","207.8","5.782","200.6","NAN","NAN","NAN","NAN","NAN"],
    [1560969,"2026-07-06 15:20:00","609","4.093","207.3","6.403","204.8","NAN","NAN","NAN","NAN","NAN"],
    [1560970,"2026-07-06 15:30:00","610","3.557","208.7","6.468","210.1","NAN","NAN","NAN","NAN","NAN"],
    [1560971,"2026-07-06 15:40:00","611","4.02","208.6","7.089","218.1","NAN","NAN","NAN","NAN","NAN"],
    [1560972,"2026-07-06 15:50:00","612","3.385","206.9","5.553","218.7","NAN","NAN","NAN","NAN","NAN"],
    [1560973,"2026-07-06 16:00:00","613","3.012","209.4","6.305","213.1","NAN","NAN","NAN","NAN","NAN"],
    [1560974,"2026-07-06 16:10:00","614","3.015","198.4","5.455","212.3","NAN","NAN","NAN","NAN","NAN"],
    [1560975,"2026-07-06 16:20:00","615","2.715","192.6","5.096","220.1","NAN","NAN","NAN","NAN","NAN"],
    [1560976,"2026-07-06 16:30:00","616","2.733","198.7","5.782","219.4","NAN","NAN","NAN","NAN","NAN"],
    [1560977,"2026-07-06 16:40:00","617","2.911","202.1","6.011","245.2","NAN","NAN","NAN","NAN","NAN"],
    [1560978,"2026-07-06 16:50:00","618","3.056","189.9","5.847","184.1","NAN","NAN","NAN","NAN","NAN"],
    [1560979,"2026-07-06 17:00:00","619","2.2569999999999997","197.6","4.214","177.7","NAN","NAN","NAN","NAN","NAN"],
    [1560980,"2026-07-06 17:10:00","620","2.338","195.8","4.181","197.8","NAN","NAN","NAN","NAN","NAN"],
    [1560981,"2026-07-06 17:20:00","621","2.468","201.1","4.769","201.9","NAN","NAN","NAN","NAN","NAN"],
    [1560982,"2026-07-06 17:30:00","622","2.451","182.4","5.031","195.6","NAN","NAN","NAN","NAN","NAN"],
    [1560983,"2026-07-06 17:40:00","623","2.569","180.8","4.443","175.8","NAN","NAN","NAN","NAN","NAN"],
    [1560984,"2026-07-06 17:50:00","624","2.2119999999999997","196.1","4.443","244.7","NAN","NAN","NAN","NAN","NAN"],
    [1560985,"2026-07-06 18:00:00","625","2.178","195.9","4.051","179.4","NAN","NAN","NAN","NAN","NAN"],
    [1560986,"2026-07-06 18:10:00","626","2.556","204.5","4.704","208.9","NAN","NAN","NAN","NAN","NAN"],
    [1560987,"2026-07-06 18:20:00","627","2.444","203.1","4.475","215","NAN","NAN","NAN","NAN","NAN"],
    [1560988,"2026-07-06 18:30:00","628","1.956","195.6","3.887","205","NAN","NAN","NAN","NAN","NAN"],
    [1560989,"2026-07-06 18:40:00","629","2.55","170.0","4.475","162","NAN","NAN","NAN","NAN","NAN"],
    [1560990,"2026-07-06 18:50:00","630","1.681","190.8","3.299","181.7","NAN","NAN","NAN","NAN","NAN"],
    [1560991,"2026-07-06 19:00:00","631","1.618","193.7","3.103","183.3","NAN","NAN","NAN","NAN","NAN"],
    [1560992,"2026-07-06 19:10:00","632","1.453","199.8","2.842","214.6","NAN","NAN","NAN","NAN","NAN"],
    [1560993,"2026-07-06 19:20:00","633","1.695","199.3","2.973","207.9","NAN","NAN","NAN","NAN","NAN"],
    [1560994,"2026-07-06 19:30:00","634","1.849","207.4","2.842","210.3","NAN","NAN","NAN","NAN","NAN"],
    [1560995,"2026-07-06 19:40:00","635","1.94","206.8","3.005","209.9","NAN","NAN","NAN","NAN","NAN"],
    [1560996,"2026-07-06 19:50:00","636","1.8130000000000002","211.3","2.875","204","NAN","NAN","NAN","NAN","NAN"],
    [1560997,"2026-07-06 20:00:00","637","1.577","213.6","2.94","214","NAN","NAN","NAN","NAN","NAN"],
    [1560998,"2026-07-06 20:10:00","638","0.635","216.4","1.993","222.8","NAN","NAN","NAN","NAN","NAN"],
    [1560999,"2026-07-06 20:20:00","639","1.222","222.3","2.417","216.4","NAN","NAN","NAN","NAN","NAN"],
    [1561000,"2026-07-06 20:30:00","640","0.8420000000000001","229.9","1.633","232.3","NAN","NAN","NAN","NAN","NAN"],
    [1561001,"2026-07-06 20:40:00","641","0.875","233.4","1.895","233.9","NAN","NAN","NAN","NAN","NAN"],
    [1561002,"2026-07-06 20:50:00","642","1.4040000000000001","234.9","2.156","234.6","NAN","NAN","NAN","NAN","NAN"],
    [1561003,"2026-07-06 21:00:00","643","0.9840000000000001","237.1","1.829","238.1","NAN","NAN","NAN","NAN","NAN"],
    [1561004,"2026-07-06 21:10:00","644","1.0490000000000002","237.5","2.025","239.5","NAN","NAN","NAN","NAN","NAN"],
    [1561005,"2026-07-06 21:20:00","645","1.242","241.6","2.483","242.9","NAN","NAN","NAN","NAN","NAN"],
    [1561006,"2026-07-06 21:30:00","646","1.99","245.7","2.907","245.6","NAN","NAN","NAN","NAN","NAN"],
    [1561007,"2026-07-06 21:40:00","647","2.084","250.9","3.103","253.9","NAN","NAN","NAN","NAN","NAN"],
    [1561008,"2026-07-06 21:50:00","648","1.817","251.0","3.103","247.2","NAN","NAN","NAN","NAN","NAN"],
    [1561009,"2026-07-06 22:00:00","649","1.9180000000000001","251.6","2.94","256.3","NAN","NAN","NAN","NAN","NAN"],
    [1561010,"2026-07-06 22:10:00","650","2.102","255.5","3.038","253.3","NAN","NAN","NAN","NAN","NAN"],
    [1561011,"2026-07-06 22:20:00","651","1.838","248.2","3.005","250","NAN","NAN","NAN","NAN","NAN"],
    [1561012,"2026-07-06 22:30:00","652","1.565","246.7","2.842","248","NAN","NAN","NAN","NAN","NAN"],
    [1561013,"2026-07-06 22:40:00","653","1.63","253.2","2.483","257.1","NAN","NAN","NAN","NAN","NAN"],
    [1561014,"2026-07-06 22:50:00","654","1.943","255.1","2.744","251.6","NAN","NAN","NAN","NAN","NAN"],
    [1561015,"2026-07-06 23:00:00","655","1.815","253.9","2.777","258.6","NAN","NAN","NAN","NAN","NAN"],
    [1561016,"2026-07-06 23:10:00","656","1.706","249.7","2.94","252.5","NAN","NAN","NAN","NAN","NAN"],
    [1561017,"2026-07-06 23:20:00","657","1.607","250.2","2.581","246.7","NAN","NAN","NAN","NAN","NAN"],
    [1561018,"2026-07-06 23:30:00","658","1.3230000000000002","248.6","2.548","254.3","NAN","NAN","NAN","NAN","NAN"],
    [1561019,"2026-07-06 23:40:00","659","2.066","250.3","3.005","251.4","NAN","NAN","NAN","NAN","NAN"],
    [1561020,"2026-07-06 23:50:00","660","1.8869999999999998","251.2","2.973","254.2","NAN","NAN","NAN","NAN","NAN"],
    [1561021,"2026-07-07 00:00:00","661","1.715","247.7","2.679","241","NAN","NAN","NAN","NAN","NAN"],
    [1561022,"2026-07-07 00:10:00","662","1.463","257.6","2.548","260.1","NAN","NAN","NAN","NAN","NAN"],
    [1561023,"2026-07-07 00:20:00","663","1.0859999999999999","259.9","2.287","259.8","NAN","NAN","NAN","NAN","NAN"],
    [1561024,"2026-07-07 00:30:00","664","1.689","260.8","2.646","262.2","NAN","NAN","NAN","NAN","NAN"],
    [1561025,"2026-07-07 00:40:00","665","1.669","263.3","2.45","263.3","NAN","NAN","NAN","NAN","NAN"],
    [1561026,"2026-07-07 00:50:00","666","1.167","263.7","2.123","263.7","NAN","NAN","NAN","NAN","NAN"],
    [1561027,"2026-07-07 01:00:00","667","1.7919999999999998","261.1","2.417","263.9","NAN","NAN","NAN","NAN","NAN"],
    [1561028,"2026-07-07 01:10:00","668","1.6269999999999998","260.2","2.581","256.7","NAN","NAN","NAN","NAN","NAN"],
    [1561029,"2026-07-07 01:20:00","669","1.9869999999999999","270.9","2.875","270","NAN","NAN","NAN","NAN","NAN"],
    [1561030,"2026-07-07 01:30:00","670","2.0340000000000003","275.6","3.038","275.8","NAN","NAN","NAN","NAN","NAN"],
    [1561031,"2026-07-07 01:40:00","671","1.87","273.9","2.973","274.5","NAN","NAN","NAN","NAN","NAN"],
    [1561032,"2026-07-07 01:50:00","672","1.568","275.2","2.613","266.4","NAN","NAN","NAN","NAN","NAN"],
    [1561033,"2026-07-07 02:00:00","673","2.016","273.5","2.842","267","NAN","NAN","NAN","NAN","NAN"],
    [1561034,"2026-07-07 02:10:00","674","1.9340000000000002","267.9","2.646","263.9","NAN","NAN","NAN","NAN","NAN"],
    [1561035,"2026-07-07 02:20:00","675","1.5630000000000002","264.5","2.548","270.1","NAN","NAN","NAN","NAN","NAN"],
    [1561036,"2026-07-07 02:30:00","676","1.584","264.7","2.515","262.6","NAN","NAN","NAN","NAN","NAN"],
    [1561037,"2026-07-07 02:40:00","677","1.181","268.4","2.189","262.1","NAN","NAN","NAN","NAN","NAN"],
    [1561038,"2026-07-07 02:50:00","678","0.8109999999999999","262.7","1.339","259.4","NAN","NAN","NAN","NAN","NAN"],
    [1561039,"2026-07-07 03:00:00","679","1.162","261.0","1.829","258.9","NAN","NAN","NAN","NAN","NAN"],
    [1561040,"2026-07-07 03:10:00","680","2.0469999999999997","265.1","3.201","262.9","NAN","NAN","NAN","NAN","NAN"],
    [1561041,"2026-07-07 03:20:00","681","1.883","267.9","2.809","271.9","NAN","NAN","NAN","NAN","NAN"],
    [1561042,"2026-07-07 03:30:00","682","2.056","270.0","3.136","274.4","NAN","NAN","NAN","NAN","NAN"],
    [1561043,"2026-07-07 03:40:00","683","2.4459999999999997","272.6","4.181","277.5","NAN","NAN","NAN","NAN","NAN"],
    [1561044,"2026-07-07 03:50:00","684","2.8160000000000003","277.2","4.279","279.3","NAN","NAN","NAN","NAN","NAN"],
    [1561045,"2026-07-07 04:00:00","685","3.195","282.0","5.096","292.2","NAN","NAN","NAN","NAN","NAN"],
    [1561046,"2026-07-07 04:10:00","686","2.798","276.9","4.41","289.6","NAN","NAN","NAN","NAN","NAN"],
    [1561047,"2026-07-07 04:20:00","687","3.359","273.5","4.769","265.5","NAN","NAN","NAN","NAN","NAN"],
    [1561048,"2026-07-07 04:30:00","688","3.0389999999999997","276.1","5.227","285.9","NAN","NAN","NAN","NAN","NAN"],
    [1561049,"2026-07-07 04:40:00","689","3.1239999999999997","280.4","4.835","285","NAN","NAN","NAN","NAN","NAN"],
    [1561050,"2026-07-07 04:50:00","690","2.87","285.2","5.749","276.8","NAN","NAN","NAN","NAN","NAN"],
    [1561051,"2026-07-07 05:00:00","691","2.3930000000000002","282.6","4.247","293.7","NAN","NAN","NAN","NAN","NAN"],
    [1561052,"2026-07-07 05:10:00","692","2.7119999999999997","272.6","4.671","256.4","NAN","NAN","NAN","NAN","NAN"],
    [1561053,"2026-07-07 05:20:00","693","3.428","283.7","6.076","282.6","NAN","NAN","NAN","NAN","NAN"],
    [1561054,"2026-07-07 05:30:00","694","3.2260000000000004","275.3","5.031","281.8","NAN","NAN","NAN","NAN","NAN"],
    [1561055,"2026-07-07 05:40:00","695","2.775","275.7","4.345","284.2","NAN","NAN","NAN","NAN","NAN"],
    [1561056,"2026-07-07 05:50:00","696","2.845","279.8","4.639","287.1","NAN","NAN","NAN","NAN","NAN"],
    [1561057,"2026-07-07 06:00:00","697","2.872","272.0","4.475","269","NAN","NAN","NAN","NAN","NAN"],
    [1561058,"2026-07-07 06:10:00","698","2.806","268.0","4.181","255","NAN","NAN","NAN","NAN","NAN"],
    [1561059,"2026-07-07 06:20:00","699","2.555","270.9","4.214","268.3","NAN","NAN","NAN","NAN","NAN"],
    [1561060,"2026-07-07 06:30:00","700","2.7880000000000003","269.8","4.247","263.7","NAN","NAN","NAN","NAN","NAN"],
    [1561061,"2026-07-07 06:40:00","701","2.799","274.2","4.377","272.3","NAN","NAN","NAN","NAN","NAN"],
    [1561062,"2026-07-07 06:50:00","702","2.1319999999999997","270.6","3.528","262.5","NAN","NAN","NAN","NAN","NAN"],
    [1561063,"2026-07-07 07:00:00","703","2.517","262.0","3.822","250.9","NAN","NAN","NAN","NAN","NAN"],
    [1561064,"2026-07-07 07:10:00","704","2.3680000000000003","263.6","4.083","269.5","NAN","NAN","NAN","NAN","NAN"],
    [1561065,"2026-07-07 07:20:00","705","2.697","261.1","3.855","250.8","NAN","NAN","NAN","NAN","NAN"],
    [1561066,"2026-07-07 07:30:00","706","3.0239999999999996","254.0","5.259","257.9","NAN","NAN","NAN","NAN","NAN"],
    [1561067,"2026-07-07 07:40:00","707","3.611","269.9","5.063","272","NAN","NAN","NAN","NAN","NAN"],
    [1561068,"2026-07-07 07:50:00","708","2.419","259.4","3.985","268.9","NAN","NAN","NAN","NAN","NAN"],
    [1561069,"2026-07-07 08:00:00","709","2.206","256.8","3.593","258.7","NAN","NAN","NAN","NAN","NAN"],
    [1561070,"2026-07-07 08:10:00","710","1.9869999999999999","249.5","3.561","253.3","NAN","NAN","NAN","NAN","NAN"],
    [1561071,"2026-07-07 08:20:00","711","1.556","249.4","2.907","244.6","NAN","NAN","NAN","NAN","NAN"],
    [1561072,"2026-07-07 08:30:00","712","1.218","240.1","2.744","232.5","NAN","NAN","NAN","NAN","NAN"],
    [1561073,"2026-07-07 08:40:00","713","1.383","212.1","3.495","206.2","NAN","NAN","NAN","NAN","NAN"],
    [1561074,"2026-07-07 08:50:00","714","2.53","185.9","4.083","168.7","NAN","NAN","NAN","NAN","NAN"],
    [1561075,"2026-07-07 09:00:00","715","2.352","193.4","4.116","170","NAN","NAN","NAN","NAN","NAN"],
    [1561076,"2026-07-07 09:10:00","716","2.665","206.1","4.214","213.2","NAN","NAN","NAN","NAN","NAN"],
    [1561077,"2026-07-07 09:20:00","717","2.54","207.4","3.789","207.4","NAN","NAN","NAN","NAN","NAN"],
    [1561078,"2026-07-07 09:30:00","718","2.2680000000000002","189.4","3.724","206.3","NAN","NAN","NAN","NAN","NAN"],
    [1561079,"2026-07-07 09:40:00","719","2.263","179.6","4.377","160.9","NAN","NAN","NAN","NAN","NAN"],
    [1561080,"2026-07-07 09:50:00","720","2.843","170.4","4.508","170.2","NAN","NAN","NAN","NAN","NAN"],
    [1561081,"2026-07-07 10:00:00","721","2.1","178.5","3.528","158.5","NAN","NAN","NAN","NAN","NAN"],
    [1561082,"2026-07-07 10:10:00","722","2.1180000000000003","178.3","3.822","170.5","NAN","NAN","NAN","NAN","NAN"],
    [1561083,"2026-07-07 10:20:00","723","2.5610000000000004","160.5","4.116","144.4","NAN","NAN","NAN","NAN","NAN"],
    [1561084,"2026-07-07 10:30:00","724","2.78","132.4","4.116","139.1","NAN","NAN","NAN","NAN","NAN"],
    [1561085,"2026-07-07 10:40:00","725","3.218","132.0","4.9","119.4","NAN","NAN","NAN","NAN","NAN"],
    [1561086,"2026-07-07 10:50:00","726","3.2230000000000003","137.7","5.161","124.2","NAN","NAN","NAN","NAN","NAN"],
    [1561087,"2026-07-07 11:00:00","727","3.355","135.1","4.867","122.6","NAN","NAN","NAN","NAN","NAN"],
    [1561088,"2026-07-07 11:10:00","728","3.508","123.3","5.031","105.2","NAN","NAN","NAN","NAN","NAN"],
    [1561089,"2026-07-07 11:20:00","729","3.7969999999999997","129.1","5.031","131.4","NAN","NAN","NAN","NAN","NAN"],
    [1561090,"2026-07-07 11:30:00","730","2.762","123.1","4.475","141.2","NAN","NAN","NAN","NAN","NAN"],
    [1561091,"2026-07-07 11:40:00","731","2.9739999999999998","129.1","4.9","133.5","NAN","NAN","NAN","NAN","NAN"],
    [1561092,"2026-07-07 11:50:00","732","3.302","132.5","5.586","138.4","NAN","NAN","NAN","NAN","NAN"],
    [1561093,"2026-07-07 12:00:00","733","3.193","121.1","5.161","111.7","NAN","NAN","NAN","NAN","NAN"],
    [1561094,"2026-07-07 12:10:00","734","2.778","127.5","4.9","149.5","NAN","NAN","NAN","NAN","NAN"],
    [1561095,"2026-07-07 12:20:00","735","3.73","143.0","5.39","148.3","NAN","NAN","NAN","NAN","NAN"],
    [1561096,"2026-07-07 12:30:00","736","2.992","119.1","4.933","116.7","NAN","NAN","NAN","NAN","NAN"],
    [1561097,"2026-07-07 12:40:00","737","2.81","111.2","4.639","93.6","NAN","NAN","NAN","NAN","NAN"],
    [1561098,"2026-07-07 12:50:00","738","3.438","104.5","5.194","98","NAN","NAN","NAN","NAN","NAN"],
    [1561099,"2026-07-07 13:00:00","739","3.0389999999999997","108.7","4.737","110.1","NAN","NAN","NAN","NAN","NAN"],
    [1561100,"2026-07-07 13:10:00","740","3.305","107.6","4.639","98.9","NAN","NAN","NAN","NAN","NAN"],
    [1561101,"2026-07-07 13:20:00","741","3.238","119.4","4.835","121.5","NAN","NAN","NAN","NAN","NAN"],
    [1561102,"2026-07-07 13:30:00","742","3.016","116.8","4.573","132.7","NAN","NAN","NAN","NAN","NAN"],
    [1561103,"2026-07-07 13:40:00","743","3.093","103.0","4.965","94","NAN","NAN","NAN","NAN","NAN"],
    [1561104,"2026-07-07 13:50:00","744","3.138","108.5","4.933","98.6","NAN","NAN","NAN","NAN","NAN"],
    [1561105,"2026-07-07 14:00:00","745","2.97","120.8","4.704","141","NAN","NAN","NAN","NAN","NAN"],
    [1561106,"2026-07-07 14:10:00","746","3.304","112.6","5.815","121.2","NAN","NAN","NAN","NAN","NAN"],
    [1561107,"2026-07-07 14:20:00","747","3.7260000000000004","113.6","5.129","143.1","NAN","NAN","NAN","NAN","NAN"],
    [1561108,"2026-07-07 14:30:00","748","3.696","120.2","5.423","121.3","NAN","NAN","NAN","NAN","NAN"],
    [1561109,"2026-07-07 14:40:00","749","3.083","115.0","4.965","108.1","NAN","NAN","NAN","NAN","NAN"],
    [1561110,"2026-07-07 14:50:00","750","2.792","104.8","4.377","124.5","NAN","NAN","NAN","NAN","NAN"],
    [1561111,"2026-07-07 15:00:00","751","3.18","99.7","4.998","92.2","NAN","NAN","NAN","NAN","NAN"],
    [1561112,"2026-07-07 15:10:00","752","3.412","98.9","5.129","94.4","NAN","NAN","NAN","NAN","NAN"],
    [1561113,"2026-07-07 15:20:00","753","3.556","92.7","6.011","77.43","NAN","NAN","NAN","NAN","NAN"],
    [1561114,"2026-07-07 15:30:00","754","2.96","100.1","4.933","98.6","NAN","NAN","NAN","NAN","NAN"],
    [1561115,"2026-07-07 15:40:00","755","3.514","79.42","5.39","62.08","NAN","NAN","NAN","NAN","NAN"],
    [1561116,"2026-07-07 15:50:00","756","3.8710000000000004","73.3","5.521","65.24","NAN","NAN","NAN","NAN","NAN"],
    [1561117,"2026-07-07 16:00:00","757","3.003","83.1","5.031","96.5","NAN","NAN","NAN","NAN","NAN"],
    [1561118,"2026-07-07 16:10:00","758","3.556","70.5","5.096","64.83","NAN","NAN","NAN","NAN","NAN"],
    [1561119,"2026-07-07 16:20:00","759","3.41","69.41","4.933","63.74","NAN","NAN","NAN","NAN","NAN"],
    [1561120,"2026-07-07 16:30:00","760","3.4730000000000003","67.6","5.194","62.99","NAN","NAN","NAN","NAN","NAN"],
    [1561121,"2026-07-07 16:40:00","761","3.325","67.03","4.541","63.96","NAN","NAN","NAN","NAN","NAN"],
    [1561122,"2026-07-07 16:50:00","762","3.264","70.98","4.606","62.56","NAN","NAN","NAN","NAN","NAN"],
    [1561123,"2026-07-07 17:00:00","763","3.551","71.37","5.292","62.77","NAN","NAN","NAN","NAN","NAN"],
    [1561124,"2026-07-07 17:10:00","764","3.42","69.83","5.325","67.48","NAN","NAN","NAN","NAN","NAN"],
    [1561125,"2026-07-07 17:20:00","765","3.693","71.16","4.769","71.91","NAN","NAN","NAN","NAN","NAN"],
    [1561126,"2026-07-07 17:30:00","766","3.0810000000000004","73.39","4.541","67.96","NAN","NAN","NAN","NAN","NAN"],
    [1561127,"2026-07-07 17:40:00","767","3.745","73.67","5.847","65.45","NAN","NAN","NAN","NAN","NAN"],
    [1561128,"2026-07-07 17:50:00","768","3.273","76.45","4.933","70.01","NAN","NAN","NAN","NAN","NAN"],
    [1561129,"2026-07-07 18:00:00","769","2.385","83.4","3.953","98","NAN","NAN","NAN","NAN","NAN"],
    [1561130,"2026-07-07 18:10:00","770","2.9419999999999997","63.65","4.149","68.87","NAN","NAN","NAN","NAN","NAN"],
    [1561131,"2026-07-07 18:20:00","771","2.03","72.74","3.561","70.11","NAN","NAN","NAN","NAN","NAN"],
    [1561132,"2026-07-07 18:30:00","772","1.578","82.1","2.907","82.4","NAN","NAN","NAN","NAN","NAN"],
    [1561133,"2026-07-07 18:40:00","773","1.694","80.3","2.777","79.74","NAN","NAN","NAN","NAN","NAN"],
    [1561134,"2026-07-07 18:50:00","774","1.8559999999999999","76.79","2.581","70.49","NAN","NAN","NAN","NAN","NAN"],
    [1561135,"2026-07-07 19:00:00","775","1.181","86.9","2.123","84.7","NAN","NAN","NAN","NAN","NAN"],
    [1561136,"2026-07-07 19:10:00","776","1.058","106.0","2.483","133.3","NAN","NAN","NAN","NAN","NAN"],
    [1561137,"2026-07-07 19:20:00","777","1.665","143.4","2.973","135.4","NAN","NAN","NAN","NAN","NAN"],
    [1561138,"2026-07-07 19:30:00","778","1.429","151.3","2.777","154","NAN","NAN","NAN","NAN","NAN"],
    [1561139,"2026-07-07 19:40:00","779","1.227","155.3","1.96","157.1","NAN","NAN","NAN","NAN","NAN"],
    [1561140,"2026-07-07 19:50:00","780","0.92","165.7","1.731","157.2","NAN","NAN","NAN","NAN","NAN"],
    [1561141,"2026-07-07 20:00:00","781","1.55","213.6","2.45","214.7","NAN","NAN","NAN","NAN","NAN"],
    [1561142,"2026-07-07 20:10:00","782","1.93","243.8","3.005","247","NAN","NAN","NAN","NAN","NAN"],
    [1561143,"2026-07-07 20:20:00","783","1.811","250.3","3.103","253.3","NAN","NAN","NAN","NAN","NAN"],
    [1561144,"2026-07-07 20:30:00","784","1.926","246.5","2.875","254.7","NAN","NAN","NAN","NAN","NAN"],
    [1561145,"2026-07-07 20:40:00","785","1.869","237.7","3.201","248.1","NAN","NAN","NAN","NAN","NAN"],
    [1561146,"2026-07-07 20:50:00","786","1.775","248.8","2.646","259","NAN","NAN","NAN","NAN","NAN"],
    [1561147,"2026-07-07 21:00:00","787","1.8869999999999998","250.5","2.907","249.3","NAN","NAN","NAN","NAN","NAN"],
    [1561148,"2026-07-07 21:10:00","788","1.96","243.1","3.365","257.1","NAN","NAN","NAN","NAN","NAN"],
    [1561149,"2026-07-07 21:20:00","789","2.952","211.9","4.541","217","NAN","NAN","NAN","NAN","NAN"],
    [1561150,"2026-07-07 21:30:00","790","2.2319999999999998","236.1","4.443","226.1","NAN","NAN","NAN","NAN","NAN"],
    [1561151,"2026-07-07 21:40:00","791","2.946","210.5","4.606","216.7","NAN","NAN","NAN","NAN","NAN"],
    [1561152,"2026-07-07 21:50:00","792","2.022","232.7","3.789","215.4","NAN","NAN","NAN","NAN","NAN"],
    [1561153,"2026-07-07 22:00:00","793","2.024","242.7","3.103","234.1","NAN","NAN","NAN","NAN","NAN"],
    [1561154,"2026-07-07 22:10:00","794","2.531","254.6","3.626","251.7","NAN","NAN","NAN","NAN","NAN"],
    [1561155,"2026-07-07 22:20:00","795","2.7539999999999996","252.8","3.855","252.2","NAN","NAN","NAN","NAN","NAN"],
    [1561156,"2026-07-07 22:30:00","796","2.8280000000000003","253.0","3.855","243.2","NAN","NAN","NAN","NAN","NAN"],
    [1561157,"2026-07-07 22:40:00","797","2.6060000000000003","244.6","3.887","250","NAN","NAN","NAN","NAN","NAN"],
    [1561158,"2026-07-07 22:50:00","798","2.7319999999999998","253.5","4.181","246.2","NAN","NAN","NAN","NAN","NAN"],
    [1561159,"2026-07-07 23:00:00","799","3.123","251.7","4.573","254.9","NAN","NAN","NAN","NAN","NAN"],
    [1561160,"2026-07-07 23:10:00","800","3.214","252.3","4.835","259.5","NAN","NAN","NAN","NAN","NAN"],
    [1561161,"2026-07-07 23:20:00","801","3.022","250.8","4.214","251.4","NAN","NAN","NAN","NAN","NAN"],
    [1561162,"2026-07-07 23:30:00","802","2.82","255.0","4.345","252.5","NAN","NAN","NAN","NAN","NAN"],
    [1561163,"2026-07-07 23:40:00","803","2.685","255.4","4.345","264.9","NAN","NAN","NAN","NAN","NAN"],
    [1561164,"2026-07-07 23:50:00","804","2.6919999999999997","249.5","4.279","258.1","NAN","NAN","NAN","NAN","NAN"],
    [1561165,"2026-07-08 00:00:00","805","2.326","248.4","3.691","254.8","NAN","NAN","NAN","NAN","NAN"],
    [1561166,"2026-07-08 00:10:00","806","2.476","244.5","4.312","231.4","NAN","NAN","NAN","NAN","NAN"],
    [1561167,"2026-07-08 00:20:00","807","2.105","233.5","3.691","239.8","NAN","NAN","NAN","NAN","NAN"],
    [1561168,"2026-07-08 00:30:00","808","2.194","237.7","4.312","228.9","NAN","NAN","NAN","NAN","NAN"],
    [1561169,"2026-07-08 00:40:00","809","2.546","239.9","4.345","231.6","NAN","NAN","NAN","NAN","NAN"],
    [1561170,"2026-07-08 00:50:00","810","2.259","251.5","3.43","247.8","NAN","NAN","NAN","NAN","NAN"],
    [1561171,"2026-07-08 01:00:00","811","1.9369999999999998","258.7","2.907","249.2","NAN","NAN","NAN","NAN","NAN"],
    [1561172,"2026-07-08 01:10:00","812","2.04","243.8","3.071","251.1","NAN","NAN","NAN","NAN","NAN"],
    [1561173,"2026-07-08 01:20:00","813","1.588","239.8","2.907","248.2","NAN","NAN","NAN","NAN","NAN"],
    [1561174,"2026-07-08 01:30:00","814","1.8940000000000001","244.6","3.005","241.2","NAN","NAN","NAN","NAN","NAN"],
    [1561175,"2026-07-08 01:40:00","815","1.3359999999999999","244.8","2.385","249.4","NAN","NAN","NAN","NAN","NAN"],
    [1561176,"2026-07-08 01:50:00","816","1.719","250.6","2.842","247.2","NAN","NAN","NAN","NAN","NAN"],
    [1561177,"2026-07-08 02:00:00","817","1.699","252.9","2.581","253.8","NAN","NAN","NAN","NAN","NAN"],
    [1561178,"2026-07-08 02:10:00","818","1.6440000000000001","252.2","2.613","256.2","NAN","NAN","NAN","NAN","NAN"],
    [1561179,"2026-07-08 02:20:00","819","1.786","259.7","2.842","264","NAN","NAN","NAN","NAN","NAN"],
    [1561180,"2026-07-08 02:30:00","820","1.557","263.9","2.45","264.3","NAN","NAN","NAN","NAN","NAN"],
    [1561181,"2026-07-08 02:40:00","821","1.551","264.9","2.287","264.6","NAN","NAN","NAN","NAN","NAN"],
    [1561182,"2026-07-08 02:50:00","822","1.42","262.5","2.385","255.8","NAN","NAN","NAN","NAN","NAN"],
    [1561183,"2026-07-08 03:00:00","823","1.6369999999999998","256.7","2.94","253.6","NAN","NAN","NAN","NAN","NAN"],
    [1561184,"2026-07-08 03:10:00","824","1.8940000000000001","262.4","3.201","256.2","NAN","NAN","NAN","NAN","NAN"],
    [1561185,"2026-07-08 03:20:00","825","2.15","274.0","3.593","285.6","NAN","NAN","NAN","NAN","NAN"],
    [1561186,"2026-07-08 03:30:00","826","2.281","270.6","4.214","279.6","NAN","NAN","NAN","NAN","NAN"],
    [1561187,"2026-07-08 03:40:00","827","2.909","268.8","4.867","268.8","NAN","NAN","NAN","NAN","NAN"],
    [1561188,"2026-07-08 03:50:00","828","2.9019999999999997","256.1","4.345","252.8","NAN","NAN","NAN","NAN","NAN"],
    [1561189,"2026-07-08 04:00:00","829","3.174","265.5","4.704","245.9","NAN","NAN","NAN","NAN","NAN"],
    [1561190,"2026-07-08 04:10:00","830","2.758","276.5","4.671","286.1","NAN","NAN","NAN","NAN","NAN"],
    [1561191,"2026-07-08 04:20:00","831","2.477","275.0","3.757","268","NAN","NAN","NAN","NAN","NAN"],
    [1561192,"2026-07-08 04:30:00","832","2.4730000000000003","269.3","4.312","266.6","NAN","NAN","NAN","NAN","NAN"],
    [1561193,"2026-07-08 04:40:00","833","2.745","264.4","4.41","263.9","NAN","NAN","NAN","NAN","NAN"],
    [1561194,"2026-07-08 04:50:00","834","2.798","264.7","4.279","271.8","NAN","NAN","NAN","NAN","NAN"],
    [1561195,"2026-07-08 05:00:00","835","3.159","247.0","5.194","242.1","NAN","NAN","NAN","NAN","NAN"],
    [1561196,"2026-07-08 05:10:00","836","2.74","263.7","4.573","247.5","NAN","NAN","NAN","NAN","NAN"],
    [1561197,"2026-07-08 05:20:00","837","2.4930000000000003","265.8","3.887","269.4","NAN","NAN","NAN","NAN","NAN"],
    [1561198,"2026-07-08 05:30:00","838","2.117","267.5","3.757","268.3","NAN","NAN","NAN","NAN","NAN"],
    [1561199,"2026-07-08 05:40:00","839","1.6580000000000001","266.8","2.907","271","NAN","NAN","NAN","NAN","NAN"],
    [1561200,"2026-07-08 05:50:00","840","2.088","266.1","3.495","283.5","NAN","NAN","NAN","NAN","NAN"],
    [1561201,"2026-07-08 06:00:00","841","1.969","267.3","3.136","277.6","NAN","NAN","NAN","NAN","NAN"],
    [1561202,"2026-07-08 06:10:00","842","1.6569999999999998","271.3","2.744","268.2","NAN","NAN","NAN","NAN","NAN"],
    [1561203,"2026-07-08 06:20:00","843","1.857","264.0","2.842","270","NAN","NAN","NAN","NAN","NAN"],
    [1561204,"2026-07-08 06:30:00","844","1.926","272.7","3.299","259.9","NAN","NAN","NAN","NAN","NAN"],
    [1561205,"2026-07-08 06:40:00","845","2.182","263.3","3.887","253.4","NAN","NAN","NAN","NAN","NAN"],
    [1561206,"2026-07-08 06:50:00","846","2.051","267.1","3.365","277.1","NAN","NAN","NAN","NAN","NAN"],
    [1561207,"2026-07-08 07:00:00","847","2.399","266.7","3.397","267.7","NAN","NAN","NAN","NAN","NAN"],
    [1561208,"2026-07-08 07:10:00","848","2.49","248.5","4.345","239.8","NAN","NAN","NAN","NAN","NAN"],
    [1561209,"2026-07-08 07:20:00","849","2.4419999999999997","221.1","3.953","219.8","NAN","NAN","NAN","NAN","NAN"],
    [1561210,"2026-07-08 07:30:00","850","2.083","239.0","3.626","248.9","NAN","NAN","NAN","NAN","NAN"],
    [1561211,"2026-07-08 07:40:00","851","2.0669999999999997","242.7","4.214","259.2","NAN","NAN","NAN","NAN","NAN"],
    [1561212,"2026-07-08 07:50:00","852","2.4090000000000003","246.7","3.985","255.7","NAN","NAN","NAN","NAN","NAN"],
    [1561213,"2026-07-08 08:00:00","853","2.289","262.0","3.626","277.1","NAN","NAN","NAN","NAN","NAN"],
    [1561214,"2026-07-08 08:10:00","854","2.282","278.1","4.181","263","NAN","NAN","NAN","NAN","NAN"],
    [1561215,"2026-07-08 08:20:00","855","1.31","290.5","2.973","275.4","NAN","NAN","NAN","NAN","NAN"],
    [1561216,"2026-07-08 08:30:00","856","1.117","291.5","2.679","301.2","NAN","NAN","NAN","NAN","NAN"],
    [1561217,"2026-07-08 08:40:00","857","1.1740000000000002","280.5","2.189","226.7","NAN","NAN","NAN","NAN","NAN"],
    [1561218,"2026-07-08 08:50:00","858","1.426","243.7","3.234","296.5","NAN","NAN","NAN","NAN","NAN"],
    [1561219,"2026-07-08 09:00:00","859","1.6","230.5","3.005","248.7","NAN","NAN","NAN","NAN","NAN"],
    [1561220,"2026-07-08 09:10:00","860","1.043","264.6","2.548","292.4","NAN","NAN","NAN","NAN","NAN"],
    [1561221,"2026-07-08 09:20:00","861","0.975","267.3","2.221","278.9","NAN","NAN","NAN","NAN","NAN"],
    [1561222,"2026-07-08 09:30:00","862","0.59","294.3","2.025","302.3","NAN","NAN","NAN","NAN","NAN"],
    [1561223,"2026-07-08 09:40:00","863","0.67","159.5","2.385","145.3","NAN","NAN","NAN","NAN","NAN"],
    [1561224,"2026-07-08 09:50:00","864","0.912","158.9","2.483","169.2","NAN","NAN","NAN","NAN","NAN"],
    [1561225,"2026-07-08 10:00:00","865","1.45","122.0","2.221","101","NAN","NAN","NAN","NAN","NAN"],
    [1561226,"2026-07-08 10:10:00","866","1.93","108.6","3.071","114.5","NAN","NAN","NAN","NAN","NAN"],
    [1561227,"2026-07-08 10:20:00","867","1.624","147.9","3.463","140.6","NAN","NAN","NAN","NAN","NAN"],
    [1561228,"2026-07-08 10:30:00","868","2.021","180.6","3.593","191.8","NAN","NAN","NAN","NAN","NAN"],
    [1561229,"2026-07-08 10:40:00","869","1.901","174.5","3.724","182.5","NAN","NAN","NAN","NAN","NAN"],
    [1561230,"2026-07-08 10:50:00","870","2.154","182.0","4.149","153.4","NAN","NAN","NAN","NAN","NAN"],
    [1561231,"2026-07-08 11:00:00","871","2.105","170.9","4.116","166.8","NAN","NAN","NAN","NAN","NAN"],
    [1561232,"2026-07-08 11:10:00","872","2.315","173.2","4.214","172.2","NAN","NAN","NAN","NAN","NAN"],
    [1561233,"2026-07-08 11:20:00","873","2.255","154.1","4.181","139.2","NAN","NAN","NAN","NAN","NAN"],
    [1561234,"2026-07-08 11:30:00","874","2.189","148.8","3.855","149.2","NAN","NAN","NAN","NAN","NAN"],
    [1561235,"2026-07-08 11:40:00","875","2.016","170.2","4.051","166.1","NAN","NAN","NAN","NAN","NAN"],
    [1561236,"2026-07-08 11:50:00","876","2.3209999999999997","171.7","4.051","141.7","NAN","NAN","NAN","NAN","NAN"],
    [1561237,"2026-07-08 12:00:00","877","1.76","182.4","3.593","196.6","NAN","NAN","NAN","NAN","NAN"],
    [1561238,"2026-07-08 12:10:00","878","1.875","184.2","4.181","179.5","NAN","NAN","NAN","NAN","NAN"],
    [1561239,"2026-07-08 12:20:00","879","2.603","198.6","5.031","203.8","NAN","NAN","NAN","NAN","NAN"],
    [1561240,"2026-07-08 12:30:00","880","2.984","189.7","4.639","207.2","NAN","NAN","NAN","NAN","NAN"],
    [1561241,"2026-07-08 12:40:00","881","2.946","175.5","5.129","153.5","NAN","NAN","NAN","NAN","NAN"],
    [1561242,"2026-07-08 12:50:00","882","2.859","190.4","4.965","211.7","NAN","NAN","NAN","NAN","NAN"],
    [1561243,"2026-07-08 13:00:00","883","3.2969999999999997","175.9","6.631","164.7","NAN","NAN","NAN","NAN","NAN"],
    [1561244,"2026-07-08 13:10:00","884","3.319","185.7","6.141","181.8","NAN","NAN","NAN","NAN","NAN"],
    [1561245,"2026-07-08 13:20:00","885","3.638","206.6","6.239","227.7","NAN","NAN","NAN","NAN","NAN"],
    [1561246,"2026-07-08 13:30:00","886","3.045","196.7","5.194","221.7","NAN","NAN","NAN","NAN","NAN"],
    [1561247,"2026-07-08 13:40:00","887","3.383","204.5","5.651","213.9","NAN","NAN","NAN","NAN","NAN"],
    [1561248,"2026-07-08 13:50:00","888","2.861","201.6","4.965","214.5","NAN","NAN","NAN","NAN","NAN"],
    [1561249,"2026-07-08 14:00:00","889","3.431","205.4","6.468","201.9","NAN","NAN","NAN","NAN","NAN"],
    [1561250,"2026-07-08 14:10:00","890","3.6689999999999996","207.4","6.076","227.4","NAN","NAN","NAN","NAN","NAN"],
    [1561251,"2026-07-08 14:20:00","891","3.306","213.7","5.455","207.8","NAN","NAN","NAN","NAN","NAN"],
    [1561252,"2026-07-08 14:30:00","892","3.405","209.7","5.357","222","NAN","NAN","NAN","NAN","NAN"],
    [1561253,"2026-07-08 14:40:00","893","3.359","222.1","5.651","208.7","NAN","NAN","NAN","NAN","NAN"],
    [1561254,"2026-07-08 14:50:00","894","3.71","210.7","6.174","210.9","NAN","NAN","NAN","NAN","NAN"],
    [1561255,"2026-07-08 15:00:00","895","3.592","204.7","5.913","216.8","NAN","NAN","NAN","NAN","NAN"],
    [1561256,"2026-07-08 15:10:00","896","3.5269999999999997","207.9","5.259","219.8","NAN","NAN","NAN","NAN","NAN"],
    [1561257,"2026-07-08 15:20:00","897","3.3480000000000003","213.6","5.782","210.3","NAN","NAN","NAN","NAN","NAN"],
    [1561258,"2026-07-08 15:30:00","898","3.728","209.9","6.239","202.1","NAN","NAN","NAN","NAN","NAN"],
    [1561259,"2026-07-08 15:40:00","899","3.438","224.8","5.749","203.2","NAN","NAN","NAN","NAN","NAN"],
    [1561260,"2026-07-08 15:50:00","900","3.403","215.0","5.325","220.3","NAN","NAN","NAN","NAN","NAN"],
    [1561261,"2026-07-08 16:00:00","901","3.3810000000000002","226.1","5.847","240.9","NAN","NAN","NAN","NAN","NAN"],
    [1561262,"2026-07-08 16:10:00","902","3.431","215.3","5.553","205.5","NAN","NAN","NAN","NAN","NAN"],
    [1561263,"2026-07-08 16:20:00","903","2.966","214.0","5.129","207.8","NAN","NAN","NAN","NAN","NAN"],
    [1561264,"2026-07-08 16:30:00","904","2.886","225.2","4.704","219.6","NAN","NAN","NAN","NAN","NAN"],
    [1561265,"2026-07-08 16:40:00","905","3.299","230.6","5.39","264.2","NAN","NAN","NAN","NAN","NAN"],
    [1561266,"2026-07-08 16:50:00","906","3.347","221.0","4.933","241.5","NAN","NAN","NAN","NAN","NAN"],
    [1561267,"2026-07-08 17:00:00","907","3.33","227.3","5.227","215.8","NAN","NAN","NAN","NAN","NAN"],
    [1561268,"2026-07-08 17:10:00","908","2.479","245.7","4.867","252.9","NAN","NAN","NAN","NAN","NAN"],
    [1561269,"2026-07-08 17:20:00","909","2.508","212.5","4.116","206.8","NAN","NAN","NAN","NAN","NAN"],
    [1561270,"2026-07-08 17:30:00","910","2.2969999999999997","211.4","4.835","228.3","NAN","NAN","NAN","NAN","NAN"],
    [1561271,"2026-07-08 17:40:00","911","2.6889999999999996","203.0","4.573","216","NAN","NAN","NAN","NAN","NAN"],
    [1561272,"2026-07-08 17:50:00","912","3.085","207.7","4.247","215.7","NAN","NAN","NAN","NAN","NAN"],
    [1561273,"2026-07-08 18:00:00","913","2.12","225.0","4.312","217.2","NAN","NAN","NAN","NAN","NAN"],
    [1561274,"2026-07-08 18:10:00","914","2.424","219.3","3.789","210","NAN","NAN","NAN","NAN","NAN"],
    [1561275,"2026-07-08 18:20:00","915","2.5340000000000003","243.9","4.606","257.4","NAN","NAN","NAN","NAN","NAN"],
    [1561276,"2026-07-08 18:30:00","916","2.076","233.3","3.43","218.3","NAN","NAN","NAN","NAN","NAN"],
    [1561277,"2026-07-08 18:40:00","917","1.5659999999999998","221.3","2.646","212.3","NAN","NAN","NAN","NAN","NAN"],
    [1561278,"2026-07-08 18:50:00","918","1.484","212.0","2.94","211.7","NAN","NAN","NAN","NAN","NAN"],
    [1561279,"2026-07-08 19:00:00","919","1.983","220.3","3.038","213.8","NAN","NAN","NAN","NAN","NAN"],
    [1561280,"2026-07-08 19:10:00","920","1.716","230.9","3.169","219.9","NAN","NAN","NAN","NAN","NAN"],
    [1561281,"2026-07-08 19:20:00","921","2.142","233.2","3.561","236.9","NAN","NAN","NAN","NAN","NAN"],
    [1561282,"2026-07-08 19:30:00","922","1.993","223.3","3.463","234.9","NAN","NAN","NAN","NAN","NAN"],
    [1561283,"2026-07-08 19:40:00","923","1.655","236.1","3.528","238.6","NAN","NAN","NAN","NAN","NAN"],
    [1561284,"2026-07-08 19:50:00","924","2.421","247.8","3.659","253.3","NAN","NAN","NAN","NAN","NAN"],
    [1561285,"2026-07-08 20:00:00","925","2.228","253.0","3.43","252.6","NAN","NAN","NAN","NAN","NAN"],
    [1561286,"2026-07-08 20:10:00","926","1.571","251.9","2.548","249.4","NAN","NAN","NAN","NAN","NAN"],
    [1561287,"2026-07-08 20:20:00","927","1.702","238.4","3.267","220.7","NAN","NAN","NAN","NAN","NAN"],
    [1561288,"2026-07-08 20:30:00","928","1.024","219.4","2.417","218","NAN","NAN","NAN","NAN","NAN"],
    [1561289,"2026-07-08 20:40:00","929","0.7559999999999999","237.2","1.568","238.7","NAN","NAN","NAN","NAN","NAN"],
    [1561290,"2026-07-08 20:50:00","930","1.153","241.2","2.581","240.3","NAN","NAN","NAN","NAN","NAN"],
    [1561291,"2026-07-08 21:00:00","931","1.421","233.7","2.613","243","NAN","NAN","NAN","NAN","NAN"],
    [1561292,"2026-07-08 21:10:00","932","0.616","222.3","2.123","224.1","NAN","NAN","NAN","NAN","NAN"],
    [1561293,"2026-07-08 21:20:00","933","2.043","229.9","3.659","220.2","NAN","NAN","NAN","NAN","NAN"],
    [1561294,"2026-07-08 21:30:00","934","2.8989999999999996","223.6","5.553","229.2","NAN","NAN","NAN","NAN","NAN"],
    [1561295,"2026-07-08 21:40:00","935","2.782","228.7","4.769","222.9","NAN","NAN","NAN","NAN","NAN"],
    [1561296,"2026-07-08 21:50:00","936","2.838","256.4","4.737","261.7","NAN","NAN","NAN","NAN","NAN"],
    [1561297,"2026-07-08 22:00:00","937","2.275","261.6","4.214","265.7","NAN","NAN","NAN","NAN","NAN"],
    [1561298,"2026-07-08 22:10:00","938","2.376","257.0","3.332","256.1","NAN","NAN","NAN","NAN","NAN"],
    [1561299,"2026-07-08 22:20:00","939","2.28","255.2","3.299","251.5","NAN","NAN","NAN","NAN","NAN"],
    [1561300,"2026-07-08 22:30:00","940","2.166","256.3","3.299","255.3","NAN","NAN","NAN","NAN","NAN"],
    [1561301,"2026-07-08 22:40:00","941","2.045","254.5","3.855","255.8","NAN","NAN","NAN","NAN","NAN"],
    [1561302,"2026-07-08 22:50:00","942","1.4969999999999999","256.4","2.548","249.8","NAN","NAN","NAN","NAN","NAN"],
    [1561303,"2026-07-08 23:00:00","943","2.182","255.7","3.397","247.5","NAN","NAN","NAN","NAN","NAN"],
    [1561304,"2026-07-08 23:10:00","944","2.099","257.5","3.724","242.5","NAN","NAN","NAN","NAN","NAN"],
    [1561305,"2026-07-08 23:20:00","945","1.0859999999999999","258.7","2.613","255.8","NAN","NAN","NAN","NAN","NAN"],
    [1561306,"2026-07-08 23:30:00","946","1.094","262.8","2.319","251.9","NAN","NAN","NAN","NAN","NAN"],
    [1561307,"2026-07-08 23:40:00","947","1.018","266.1","1.862","266.6","NAN","NAN","NAN","NAN","NAN"],
    [1561308,"2026-07-08 23:50:00","948","0.8290000000000001","266.4","1.829","267.5","NAN","NAN","NAN","NAN","NAN"],
    [1561309,"2026-07-09 00:00:00","949","0.975","269.9","1.764","268.4","NAN","NAN","NAN","NAN","NAN"],
    [1561310,"2026-07-09 00:10:00","950","1.547","266.6","2.319","255.8","NAN","NAN","NAN","NAN","NAN"],
    [1561311,"2026-07-09 00:20:00","951","0.447","272.0","1.503","271.8","NAN","NAN","NAN","NAN","NAN"],
    [1561312,"2026-07-09 00:30:00","952","0.107","272.1","0.523","272.1","NAN","NAN","NAN","NAN","NAN"],
    [1561313,"2026-07-09 00:40:00","953","0.7140000000000001","272.5","2.221","272.4","NAN","NAN","NAN","NAN","NAN"],
    [1561314,"2026-07-09 00:50:00","954","0.319","273.0","1.274","273.2","NAN","NAN","NAN","NAN","NAN"],
    [1561315,"2026-07-09 01:00:00","955","0.249","273.2","1.045","273.2","NAN","NAN","NAN","NAN","NAN"],
    [1561316,"2026-07-09 01:10:00","956","0.636","273.3","1.209","273.3","NAN","NAN","NAN","NAN","NAN"],
    [1561317,"2026-07-09 01:20:00","957","1.091","273.2","1.503","273.2","NAN","NAN","NAN","NAN","NAN"],
    [1561318,"2026-07-09 01:30:00","958","0.759","273.3","1.437","273.3","NAN","NAN","NAN","NAN","NAN"],
    [1561319,"2026-07-09 01:40:00","959","0.623","273.3","1.045","273.3","NAN","NAN","NAN","NAN","NAN"],
    [1561320,"2026-07-09 01:50:00","960","0.149","273.3","1.013","273.3","NAN","NAN","NAN","NAN","NAN"],
    [1561321,"2026-07-09 02:00:00","961","0.281","273.2","1.078","273.2","NAN","NAN","NAN","NAN","NAN"],
    [1561322,"2026-07-09 02:10:00","962","0.746","273.3","1.307","273.3","NAN","NAN","NAN","NAN","NAN"],
    [1561323,"2026-07-09 02:20:00","963","1.044","273.3","1.535","273.4","NAN","NAN","NAN","NAN","NAN"],
    [1561324,"2026-07-09 02:30:00","964","1.422","273.5","1.862","273.5","NAN","NAN","NAN","NAN","NAN"],
    [1561325,"2026-07-09 02:40:00","965","1.551","273.6","2.189","273.6","NAN","NAN","NAN","NAN","NAN"],
    [1561326,"2026-07-09 02:50:00","966","1.264","273.9","1.927","274.1","NAN","NAN","NAN","NAN","NAN"],
    [1561327,"2026-07-09 03:00:00","967","0.9840000000000001","274.2","1.797","274.3","NAN","NAN","NAN","NAN","NAN"],
    [1561328,"2026-07-09 03:10:00","968","0.828","274.7","1.731","274.6","NAN","NAN","NAN","NAN","NAN"],
    [1561329,"2026-07-09 03:20:00","969","0.195","274.6","0.751","274.6","NAN","NAN","NAN","NAN","NAN"],
    [1561330,"2026-07-09 03:30:00","970","0.606","274.7","1.241","274.7","NAN","NAN","NAN","NAN","NAN"],
    [1561331,"2026-07-09 03:40:00","971","1.415","273.8","2.156","269.9","NAN","NAN","NAN","NAN","NAN"],
    [1561332,"2026-07-09 03:50:00","972","1.8719999999999999","270.9","2.777","276","NAN","NAN","NAN","NAN","NAN"],
    [1561333,"2026-07-09 04:00:00","973","2.311","280.7","3.234","286.9","NAN","NAN","NAN","NAN","NAN"],
    [1561334,"2026-07-09 04:10:00","974","2.54","281.2","3.724","288.8","NAN","NAN","NAN","NAN","NAN"],
    [1561335,"2026-07-09 04:20:00","975","2.025","263.1","2.875","265.6","NAN","NAN","NAN","NAN","NAN"],
    [1561336,"2026-07-09 04:30:00","976","2.333","272.1","3.659","286.5","NAN","NAN","NAN","NAN","NAN"],
    [1561337,"2026-07-09 04:40:00","977","2.258","280.3","3.659","285.4","NAN","NAN","NAN","NAN","NAN"],
    [1561338,"2026-07-09 04:50:00","978","2.19","271.8","3.332","271.6","NAN","NAN","NAN","NAN","NAN"],
    [1561339,"2026-07-09 05:00:00","979","1.51","278.8","3.071","279.4","NAN","NAN","NAN","NAN","NAN"],
    [1561340,"2026-07-09 05:10:00","980","1.226","276.7","2.156","280.7","NAN","NAN","NAN","NAN","NAN"],
    [1561341,"2026-07-09 05:20:00","981","0.991","281.7","1.731","281.3","NAN","NAN","NAN","NAN","NAN"],
    [1561342,"2026-07-09 05:30:00","982","1.232","273.4","2.025","269.6","NAN","NAN","NAN","NAN","NAN"],
    [1561343,"2026-07-09 05:40:00","983","1.5490000000000002","270.3","2.515","268.7","NAN","NAN","NAN","NAN","NAN"],
    [1561344,"2026-07-09 05:50:00","984","1.511","281.2","2.646","286.9","NAN","NAN","NAN","NAN","NAN"],
    [1561345,"2026-07-09 06:00:00","985","1.06","278.0","1.895","279.1","NAN","NAN","NAN","NAN","NAN"],
    [1561346,"2026-07-09 06:10:00","986","0.9179999999999999","292.4","1.731","306.9","NAN","NAN","NAN","NAN","NAN"],
    [1561347,"2026-07-09 06:20:00","104","1.037","303.0","2.058","306.7","NAN","NAN","NAN","NAN","NAN"],
    [1561348,"2026-07-09 06:30:00","105","0.488","292.1","1.274","289.2","NAN","NAN","NAN","NAN","NAN"],
    [1561349,"2026-07-09 06:40:00","106","0.9179999999999999","289.7","1.372","290.4","NAN","NAN","NAN","NAN","NAN"],
    [1561350,"2026-07-09 06:50:00","107","0.187","296.6","0.784","297.6","NAN","NAN","NAN","NAN","NAN"],
    [1561351,"2026-07-09 07:00:00","108","0.062","287.7","0.588","287.8","NAN","NAN","NAN","NAN","NAN"],
    [1561352,"2026-07-09 07:10:00","109","0.6609999999999999","293.3","1.862","285.8","NAN","NAN","NAN","NAN","NAN"],
    [1561353,"2026-07-09 07:20:00","110","0.708","289.7","1.862","302.6","NAN","NAN","NAN","NAN","NAN"],
    [1561354,"2026-07-09 07:30:00","111","0.066","293.3","0.49","290.1","NAN","NAN","NAN","NAN","NAN"],
    [1561355,"2026-07-09 07:40:00","112","0.654","350.7","2.254","60.57","NAN","NAN","NAN","NAN","NAN"],
    [1561356,"2026-07-09 07:50:00","113","1.7690000000000001","69.56","2.646","63.65","NAN","NAN","NAN","NAN","NAN"],
    [1561357,"2026-07-09 08:00:00","114","1.135","78.19","1.862","77.75","NAN","NAN","NAN","NAN","NAN"],
    [1561358,"2026-07-09 08:10:00","115","1.196","77.25","1.862","65.11","NAN","NAN","NAN","NAN","NAN"],
    [1561359,"2026-07-09 08:20:00","116","1.06","78.91","2.156","67.78","NAN","NAN","NAN","NAN","NAN"],
    [1561360,"2026-07-09 08:30:00","0","0.48700000000000004","81.0","0.784","81","NAN","NAN","NAN","NAN","NAN"],
    [1561361,"2026-07-09 08:40:00","1","1.455","96.7","2.842","111.8","NAN","NAN","NAN","NAN","NAN"],
    [1561362,"2026-07-09 08:50:00","2","1.611","105.4","2.352","103","NAN","NAN","NAN","NAN","NAN"],
    [1561363,"2026-07-09 09:00:00","3","1.7069999999999999","98.7","2.45","93.2","NAN","NAN","NAN","NAN","NAN"],
    [1561364,"2026-07-09 09:10:00","4","1.48","94.3","2.254","93.6","NAN","NAN","NAN","NAN","NAN"],
    [1561365,"2026-07-09 09:20:00","5","1.7830000000000001","78.88","2.646","64.04","NAN","NAN","NAN","NAN","NAN"],
    [1561366,"2026-07-09 09:30:00","6","1.743","67.65","2.548","62.26","NAN","NAN","NAN","NAN","NAN"],
    [1561367,"2026-07-09 09:40:00","7","1.6","68.23","2.254","79.43","NAN","NAN","NAN","NAN","NAN"],
    [1561368,"2026-07-09 09:50:00","8","1.827","78.85","2.744","87.4","NAN","NAN","NAN","NAN","NAN"],
    [1561369,"2026-07-09 10:00:00","9","1.966","113.4","2.842","125.5","NAN","NAN","NAN","NAN","NAN"],
    [1561370,"2026-07-09 10:10:00","10","1.6909999999999998","112.7","2.94","118.7","NAN","NAN","NAN","NAN","NAN"],
    [1561371,"2026-07-09 10:20:00","11","1.6159999999999999","131.4","2.842","117.4","NAN","NAN","NAN","NAN","NAN"],
    [1561372,"2026-07-09 10:30:00","12","1.9980000000000002","138.9","3.626","130.8","NAN","NAN","NAN","NAN","NAN"],
    [1561373,"2026-07-09 10:40:00","13","2.131","144.1","4.214","172.1","NAN","NAN","NAN","NAN","NAN"],
    [1561374,"2026-07-09 11:10:00","1","2.627","159.4","4.312","151.1","NAN","NAN","NAN","NAN","NAN"],
    [1561375,"2026-07-09 11:20:00","2","2.483","180.9","4.508","191.7","NAN","NAN","NAN","NAN","NAN"],
    [1561376,"2026-07-09 11:30:00","3","1.912","185.4","4.214","223.2","NAN","NAN","NAN","NAN","NAN"],
    [1561377,"2026-07-09 11:40:00","4","2.447","203.7","4.41","205.2","NAN","NAN","NAN","NAN","NAN"],
    [1561378,"2026-07-09 11:50:00","5","2.6719999999999997","210.0","5.194","176.3","NAN","NAN","NAN","NAN","NAN"],
    [1561379,"2026-07-09 12:00:00","6","2.549","186.9","5.096","173.9","NAN","NAN","NAN","NAN","NAN"],
    [1561380,"2026-07-09 12:10:00","7","2.696","193.2","4.508","143.8","NAN","NAN","NAN","NAN","NAN"],
    [1561381,"2026-07-09 12:20:00","8","2.089","171.9","4.214","170.3","NAN","NAN","NAN","NAN","NAN"],
    [1561382,"2026-07-09 12:30:00","9","2.759","183.8","5.194","169.6","NAN","NAN","NAN","NAN","NAN"],
    [1561383,"2026-07-09 12:40:00","10","2.963","186.9","5.684","150.1","NAN","NAN","NAN","NAN","NAN"],
    [1561384,"2026-07-09 12:50:00","11","2.9989999999999997","207.2","4.998","209.7","NAN","NAN","NAN","NAN","NAN"],
    [1561385,"2026-07-09 13:00:00","12","3.133","209.2","5.292","218.2","NAN","NAN","NAN","NAN","NAN"],
    [1561386,"2026-07-09 13:10:00","13","2.886","188.0","4.704","214","NAN","NAN","NAN","NAN","NAN"],
    [1561387,"2026-07-09 13:20:00","14","2.991","194.3","5.292","211.5","NAN","NAN","NAN","NAN","NAN"],
    [1561388,"2026-07-09 13:30:00","15","2.955","185.0","5.194","183.4","NAN","NAN","NAN","NAN","NAN"],
    [1561389,"2026-07-09 13:40:00","16","3.053","179.5","5.096","142.6","NAN","NAN","NAN","NAN","NAN"],
    [1561390,"2026-07-09 13:50:00","17","3.574","179.3","5.88","182.7","NAN","NAN","NAN","NAN","NAN"],
    [1561391,"2026-07-09 14:00:00","18","3.2960000000000003","188.5","5.39","223.2","NAN","NAN","NAN","NAN","NAN"],
    [1561392,"2026-07-09 14:10:00","19","3.088","182.2","6.272","191.5","NAN","NAN","NAN","NAN","NAN"],
    [1561393,"2026-07-09 14:20:00","20","3.3560000000000003","177.3","5.586","181.7","NAN","NAN","NAN","NAN","NAN"],
    [1561394,"2026-07-09 14:30:00","21","3.054","190.6","5.194","178","NAN","NAN","NAN","NAN","NAN"],
    [1561395,"2026-07-09 14:40:00","22","3.202","190.3","5.096","195.2","NAN","NAN","NAN","NAN","NAN"],
    [1561396,"2026-07-09 14:50:00","23","2.696","194.9","5.194","207.2","NAN","NAN","NAN","NAN","NAN"],
    [1561397,"2026-07-09 15:00:00","24","2.557","189.7","4.998","196.3","NAN","NAN","NAN","NAN","NAN"],
    [1561398,"2026-07-09 15:10:00","25","3.076","183.4","5.684","162.1","NAN","NAN","NAN","NAN","NAN"],
    [1561399,"2026-07-09 15:20:00","26","3.6260000000000003","177.8","6.566","162.9","NAN","NAN","NAN","NAN","NAN"],
    [1561400,"2026-07-09 15:30:00","27","2.551","194.2","4.998","197.4","NAN","NAN","NAN","NAN","NAN"],
    [1561401,"2026-07-09 15:40:00","28","3.1189999999999998","208.2","4.9","192.2","NAN","NAN","NAN","NAN","NAN"],
    [1561402,"2026-07-09 15:50:00","29","2.546","184.1","4.998","161.8","NAN","NAN","NAN","NAN","NAN"],
    [1561403,"2026-07-09 16:00:00","30","2.365","177.0","4.998","161.8","NAN","NAN","NAN","NAN","NAN"],
    [1561404,"2026-07-09 16:10:00","31","3.7319999999999998","161.7","5.978","158.3","NAN","NAN","NAN","NAN","NAN"],
    [1561405,"2026-07-09 16:20:00","32","3.042","160.9","4.508","144.7","NAN","NAN","NAN","NAN","NAN"],
    [1561406,"2026-07-09 16:30:00","33","2.5610000000000004","160.9","4.116","152.2","NAN","NAN","NAN","NAN","NAN"],
    [1561407,"2026-07-09 16:40:00","34","3.148","132.7","5.096","143.7","NAN","NAN","NAN","NAN","NAN"],
    [1561408,"2026-07-09 16:50:00","35","2.591","130.5","3.822","129.5","NAN","NAN","NAN","NAN","NAN"],
    [1561409,"2026-07-09 17:00:00","36","2.391","124.2","4.312","114.2","NAN","NAN","NAN","NAN","NAN"],
    [1561410,"2026-07-09 17:10:00","37","2.25","114.9","3.528","128.3","NAN","NAN","NAN","NAN","NAN"],
    [1561411,"2026-07-09 17:20:00","38","2.161","107.2","3.43","99","NAN","NAN","NAN","NAN","NAN"],
    [1561412,"2026-07-09 17:30:00","39","2.161","105.0","3.528","96.7","NAN","NAN","NAN","NAN","NAN"],
    [1561413,"2026-07-09 17:40:00","40","2.06","125.1","3.43","112.2","NAN","NAN","NAN","NAN","NAN"],
    [1561414,"2026-07-09 17:50:00","41","1.913","104.0","2.94","97.1","NAN","NAN","NAN","NAN","NAN"],
    [1561415,"2026-07-09 18:00:00","42","2.002","90.5","3.038","83.4","NAN","NAN","NAN","NAN","NAN"],
    [1561416,"2026-07-09 18:10:00","43","1.844","92.3","2.842","94.7","NAN","NAN","NAN","NAN","NAN"],
    [1561417,"2026-07-09 18:20:00","44","2.147","90.9","3.43","95.6","NAN","NAN","NAN","NAN","NAN"],
    [1561418,"2026-07-09 18:30:00","45","2.195","88.7","3.626","83","NAN","NAN","NAN","NAN","NAN"],
    [1561419,"2026-07-09 18:40:00","46","1.92","92.5","2.94","92.2","NAN","NAN","NAN","NAN","NAN"],
    [1561420,"2026-07-09 18:50:00","47","2.05","91.8","3.038","91.6","NAN","NAN","NAN","NAN","NAN"],
    [1561421,"2026-07-09 19:00:00","48","1.587","70.79","3.528","68.77","NAN","NAN","NAN","NAN","NAN"],
    [1561422,"2026-07-09 19:10:00","49","1.642","70.36","2.254","68.29","NAN","NAN","NAN","NAN","NAN"],
    [1561423,"2026-07-09 19:20:00","50","1.88","70.04","2.744","67.52","NAN","NAN","NAN","NAN","NAN"],
    [1561424,"2026-07-09 19:30:00","51","1.3940000000000001","71.8","2.254","68","NAN","NAN","NAN","NAN","NAN"],
    [1561425,"2026-07-09 19:40:00","52","1.094","70.94","2.156","69.83","NAN","NAN","NAN","NAN","NAN"],
    [1561426,"2026-07-09 19:50:00","53","0.8270000000000001","73.7","1.666","74.45","NAN","NAN","NAN","NAN","NAN"],
    [1561427,"2026-07-09 20:00:00","54","0.794","74.35","1.176","69.63","NAN","NAN","NAN","NAN","NAN"],
    [1561428,"2026-07-09 20:10:00","55","0.7509999999999999","75.48","1.47","77.22","NAN","NAN","NAN","NAN","NAN"],
    [1561429,"2026-07-09 20:20:00","56","0.743","75.83","1.47","77.22","NAN","NAN","NAN","NAN","NAN"],
    [1561430,"2026-07-09 20:30:00","57","0.22899999999999998","77.07","0.686","77.22","NAN","NAN","NAN","NAN","NAN"],
    [1561431,"2026-07-09 20:40:00","58","0.187","77.73","0.784","80.1","NAN","NAN","NAN","NAN","NAN"],
    [1561432,"2026-07-09 20:50:00","59","0.006","82.0","0.294","82","NAN","NAN","NAN","NAN","NAN"],
    [1561433,"2026-07-09 21:00:00","60","0.373","73.84","0.882","68.85","NAN","NAN","NAN","NAN","NAN"],
    [1561434,"2026-07-09 21:10:00","61","0.262","68.6","0.784","68.17","NAN","NAN","NAN","NAN","NAN"],
    [1561435,"2026-07-09 21:20:00","62","0.341","66.85","0.882","66.83","NAN","NAN","NAN","NAN","NAN"],
    [1561436,"2026-07-09 21:30:00","63","0.43700000000000006","66.63","1.176","66.44","NAN","NAN","NAN","NAN","NAN"],
    [1561437,"2026-07-09 21:40:00","64","0.8540000000000001","72.58","1.764","66.35","NAN","NAN","NAN","NAN","NAN"],
    [1561438,"2026-07-09 21:50:00","65","0.584","68.24","1.568","66.26","NAN","NAN","NAN","NAN","NAN"],
    [1561439,"2026-07-09 22:00:00","66","0.39799999999999996","72.17","1.274","66.36","NAN","NAN","NAN","NAN","NAN"],
    [1561440,"2026-07-09 22:10:00","67","0.775","66.14","1.176","66.27","NAN","NAN","NAN","NAN","NAN"],
    [1561441,"2026-07-09 22:20:00","68","0.17800000000000002","66.07","0.686","66.07","NAN","NAN","NAN","NAN","NAN"],
    [1561442,"2026-07-09 22:30:00","69","0.028999999999999998","66.06","0.294","66.05","NAN","NAN","NAN","NAN","NAN"],
    [1561443,"2026-07-09 22:40:00","70","0.254","66.05","0.588","66.08","NAN","NAN","NAN","NAN","NAN"],
    [1561444,"2026-07-09 22:50:00","71","0.871","65.73","1.176","65.68","NAN","NAN","NAN","NAN","NAN"],
    [1561445,"2026-07-09 23:00:00","72","1.109","63.54","2.548","283.8","NAN","NAN","NAN","NAN","NAN"],
    [1561446,"2026-07-09 23:10:00","73","1.6280000000000001","281.6","2.548","289.7","NAN","NAN","NAN","NAN","NAN"],
    [1561447,"2026-07-09 23:20:00","74","1.229","290.5","1.862","290.7","NAN","NAN","NAN","NAN","NAN"],
    [1561448,"2026-07-09 23:30:00","75","1.177","288.3","2.058","292.9","NAN","NAN","NAN","NAN","NAN"],
    [1561449,"2026-07-09 23:40:00","76","0.9490000000000001","283.6","1.372","283.1","NAN","NAN","NAN","NAN","NAN"],
    [1561450,"2026-07-09 23:50:00","77","0.847","281.5","1.274","281.6","NAN","NAN","NAN","NAN","NAN"],
    [1561451,"2026-07-10 00:00:00","78","0.898","280.7","1.372","279.2","NAN","NAN","NAN","NAN","NAN"],
    [1561452,"2026-07-10 00:10:00","79","1.645","277.9","2.548","276.9","NAN","NAN","NAN","NAN","NAN"],
    [1561453,"2026-07-10 00:20:00","80","1.556","280.3","2.842","274.9","NAN","NAN","NAN","NAN","NAN"],
    [1561454,"2026-07-10 00:30:00","81","0.512","277.8","1.372","274.7","NAN","NAN","NAN","NAN","NAN"],
    [1561455,"2026-07-10 00:40:00","82","0.203","281.4","0.686","282.3","NAN","NAN","NAN","NAN","NAN"],
    [1561456,"2026-07-10 00:50:00","83","0.319","276.8","0.98","276.5","NAN","NAN","NAN","NAN","NAN"],
    [1561457,"2026-07-10 01:00:00","84","0.16","275.8","0.686","275.9","NAN","NAN","NAN","NAN","NAN"],
    [1561458,"2026-07-10 01:10:00","85","0.155","275.6","1.078","275.1","NAN","NAN","NAN","NAN","NAN"],
    [1561459,"2026-07-10 01:20:00","86","1.2919999999999998","278.4","1.96","274.6","NAN","NAN","NAN","NAN","NAN"],
    [1561460,"2026-07-10 01:30:00","87","0.9490000000000001","290.3","1.666","291.1","NAN","NAN","NAN","NAN","NAN"],
    [1561461,"2026-07-10 01:40:00","88","0.5760000000000001","286.7","1.078","284.1","NAN","NAN","NAN","NAN","NAN"],
    [1561462,"2026-07-10 01:50:00","89","0.594","279.4","1.176","281.1","NAN","NAN","NAN","NAN","NAN"],
    [1561463,"2026-07-10 02:00:00","90","0.536","286.2","0.882","277.4","NAN","NAN","NAN","NAN","NAN"],
    [1561464,"2026-07-10 02:10:00","91","0.735","285.0","1.666","274.9","NAN","NAN","NAN","NAN","NAN"],
    [1561465,"2026-07-10 02:20:00","92","0.9890000000000001","275.7","1.568","274.7","NAN","NAN","NAN","NAN","NAN"],
    [1561466,"2026-07-10 02:30:00","93","0.53","284.3","0.98","283.7","NAN","NAN","NAN","NAN","NAN"],
    [1561467,"2026-07-10 02:40:00","94","0.9129999999999999","285.6","1.568","282.8","NAN","NAN","NAN","NAN","NAN"],
    [1561468,"2026-07-10 02:50:00","95","1.5030000000000001","284.2","2.058","289.4","NAN","NAN","NAN","NAN","NAN"],
    [1561469,"2026-07-10 03:00:00","96","2.102","273.3","3.332","266.7","NAN","NAN","NAN","NAN","NAN"],
    [1561470,"2026-07-10 03:10:00","97","2.079","270.8","3.038","267.6","NAN","NAN","NAN","NAN","NAN"],
    [1561471,"2026-07-10 03:20:00","98","1.92","278.9","3.234","279.9","NAN","NAN","NAN","NAN","NAN"],
    [1561472,"2026-07-10 03:30:00","99","2.05","278.7","3.136","282.3","NAN","NAN","NAN","NAN","NAN"],
    [1561473,"2026-07-10 03:40:00","100","1.946","276.3","2.646","278.4","NAN","NAN","NAN","NAN","NAN"],
    [1561474,"2026-07-10 03:50:00","101","1.517","278.5","2.45","269.3","NAN","NAN","NAN","NAN","NAN"],
    [1561475,"2026-07-10 04:00:00","102","1.393","273.8","2.646","269.1","NAN","NAN","NAN","NAN","NAN"],
    [1561476,"2026-07-10 04:10:00","103","1.034","269.4","1.568","271.3","NAN","NAN","NAN","NAN","NAN"],
    [1561477,"2026-07-10 04:20:00","104","0.511","266.7","1.568","266","NAN","NAN","NAN","NAN","NAN"],
    [1561478,"2026-07-10 04:30:00","105","0.142","272.4","0.784","272.3","NAN","NAN","NAN","NAN","NAN"],
    [1561479,"2026-07-10 04:40:00","106","0.0","0.0","0","272.5","NAN","NAN","NAN","NAN","NAN"],
    [1561480,"2026-07-10 04:50:00","107","0.341","272.3","0.784","272.7","NAN","NAN","NAN","NAN","NAN"],
    [1561481,"2026-07-10 05:00:00","108","0.07400000000000001","272.7","0.49","272.7","NAN","NAN","NAN","NAN","NAN"],
    [1561482,"2026-07-10 05:10:00","109","0.011000000000000001","272.9","0.294","272.9","NAN","NAN","NAN","NAN","NAN"],
    [1561483,"2026-07-10 05:20:00","110","0.43","268.3","1.372","271.2","NAN","NAN","NAN","NAN","NAN"],
    [1561484,"2026-07-10 05:30:00","111","0.847","270.7","1.47","264.9","NAN","NAN","NAN","NAN","NAN"],
    [1561485,"2026-07-10 05:40:00","112","0.18","266.4","1.078","264.2","NAN","NAN","NAN","NAN","NAN"],
    [1561486,"2026-07-10 05:50:00","113","0.10300000000000001","263.9","0.784","264","NAN","NAN","NAN","NAN","NAN"],
    [1561487,"2026-07-10 06:00:00","114","0.701","284.8","1.666","286.7","NAN","NAN","NAN","NAN","NAN"],
    [1561488,"2026-07-10 06:10:00","115","2.305","61.55","3.43","63.87","NAN","NAN","NAN","NAN","NAN"],
    [1561489,"2026-07-10 06:20:00","116","1.983","60.98","3.234","65.11","NAN","NAN","NAN","NAN","NAN"],
    [1561490,"2026-07-10 06:30:00","117","2.124","57.03","3.724","62.9","NAN","NAN","NAN","NAN","NAN"],
    [1561491,"2026-07-10 06:40:00","118","2.336","54.29","3.724","64.92","NAN","NAN","NAN","NAN","NAN"],
    [1561492,"2026-07-10 06:50:00","119","2.375","53.53","4.312","62.03","NAN","NAN","NAN","NAN","NAN"],
    [1561493,"2026-07-10 07:00:00","120","2.6830000000000003","60.31","4.802","54.02","NAN","NAN","NAN","NAN","NAN"],
    [1561494,"2026-07-10 07:10:00","121","3.5260000000000002","66.99","4.704","57.99","NAN","NAN","NAN","NAN","NAN"],
    [1561495,"2026-07-10 07:20:00","122","3.235","65.28","4.508","64.97","NAN","NAN","NAN","NAN","NAN"],
    [1561496,"2026-07-10 07:30:00","123","3.5860000000000003","66.59","5.194","73.19","NAN","NAN","NAN","NAN","NAN"],
    [1561497,"2026-07-10 07:40:00","124","4.0760000000000005","66.82","6.468","70.2","NAN","NAN","NAN","NAN","NAN"],
    [1561498,"2026-07-10 07:50:00","125","3.7880000000000003","61.41","5.88","57.59","NAN","NAN","NAN","NAN","NAN"],
    [1561499,"2026-07-10 08:00:00","126","4.305","60.26","6.272","61.22","NAN","NAN","NAN","NAN","NAN"],
    [1561500,"2026-07-10 08:10:00","127","4.1610000000000005","65.8","6.076","64.71","NAN","NAN","NAN","NAN","NAN"],
    [1561501,"2026-07-10 08:20:00","128","3.319","62.63","5.292","65.48","NAN","NAN","NAN","NAN","NAN"],
    [1561502,"2026-07-10 08:30:00","129","4.125","65.21","6.076","69.66","NAN","NAN","NAN","NAN","NAN"],
    [1561503,"2026-07-10 08:40:00","130","4.019","63.59","6.174","65.96","NAN","NAN","NAN","NAN","NAN"],
    [1561504,"2026-07-10 08:50:00","131","3.73","62.8","5.292","66.63","NAN","NAN","NAN","NAN","NAN"],
    [1561505,"2026-07-10 09:00:00","132","3.807","62.8","5.096","65.09","NAN","NAN","NAN","NAN","NAN"],
    [1561506,"2026-07-10 09:10:00","133","3.105","59.27","4.9","58.85","NAN","NAN","NAN","NAN","NAN"],
    [1561507,"2026-07-10 09:20:00","134","2.696","57.65","4.214","64.15","NAN","NAN","NAN","NAN","NAN"],
    [1561508,"2026-07-10 09:30:00","135","3.016","57.95","5.096","55.19","NAN","NAN","NAN","NAN","NAN"],
    [1561509,"2026-07-10 09:40:00","136","3.775","62.2","5.39","67.82","NAN","NAN","NAN","NAN","NAN"],
    [1561510,"2026-07-10 09:50:00","137","3.233","61.14","5.096","67.22","NAN","NAN","NAN","NAN","NAN"],
    [1561511,"2026-07-10 10:00:00","138","3.484","57.77","5.586","62.53","NAN","NAN","NAN","NAN","NAN"],
    [1561512,"2026-07-10 10:10:00","139","4.213","63.05","5.782","72.14","NAN","NAN","NAN","NAN","NAN"],
    [1561513,"2026-07-10 10:20:00","140","3.7910000000000004","55.46","6.664","53.85","NAN","NAN","NAN","NAN","NAN"],
    [1561514,"2026-07-10 10:30:00","141","4.303999999999999","65.62","6.664","71.94","NAN","NAN","NAN","NAN","NAN"],
    [1561515,"2026-07-10 10:40:00","142","4.959","62.71","6.958","68.02","NAN","NAN","NAN","NAN","NAN"],
    [1561516,"2026-07-10 10:50:00","143","4.37","56.71","7.742","67.52","NAN","NAN","NAN","NAN","NAN"],
    [1561517,"2026-07-10 11:00:00","144","5.925","69.1","8.33","68.96","NAN","NAN","NAN","NAN","NAN"],
    [1561518,"2026-07-10 11:10:00","145","4.785","64.65","7.448","60.49","NAN","NAN","NAN","NAN","NAN"],
    [1561519,"2026-07-10 11:20:00","146","4.984","67.99","7.35","61.4","NAN","NAN","NAN","NAN","NAN"],
    [1561520,"2026-07-10 11:30:00","147","5.641","70.49","8.43","72.65","NAN","NAN","NAN","NAN","NAN"],
    [1561521,"2026-07-10 11:40:00","148","5.11","65.1","7.252","65.29","NAN","NAN","NAN","NAN","NAN"],
    [1561522,"2026-07-10 11:50:00","149","5.731","65.62","7.938","75.68","NAN","NAN","NAN","NAN","NAN"],
    [1561523,"2026-07-10 12:00:00","150","5.327000000000001","64.68","8.92","71.54","NAN","NAN","NAN","NAN","NAN"],
    [1561524,"2026-07-10 12:10:00","151","4.583","61.31","6.468","63.53","NAN","NAN","NAN","NAN","NAN"],
    [1561525,"2026-07-10 12:20:00","152","5.454","67.53","7.448","75.87","NAN","NAN","NAN","NAN","NAN"],
    [1561526,"2026-07-10 12:30:00","153","4.457","69.83","6.86","73.13","NAN","NAN","NAN","NAN","NAN"],
    [1561527,"2026-07-10 12:40:00","154","3.99","79.96","6.468","75.92","NAN","NAN","NAN","NAN","NAN"],
    [1561528,"2026-07-10 12:50:00","155","3.991","101.8","6.468","103.1","NAN","NAN","NAN","NAN","NAN"],
    [1561529,"2026-07-10 13:00:00","156","4.173","100.9","7.35","94.6","NAN","NAN","NAN","NAN","NAN"],
    [1561530,"2026-07-10 13:10:00","157","4.567","102.6","8.04","92.2","NAN","NAN","NAN","NAN","NAN"],
    [1561531,"2026-07-10 13:20:00","158","4.294","104.2","6.958","84.2","NAN","NAN","NAN","NAN","NAN"],
    [1561532,"2026-07-10 13:30:00","159","5.183","95.9","7.448","81.8","NAN","NAN","NAN","NAN","NAN"],
    [1561533,"2026-07-10 13:40:00","160","4.908","95.7","8.23","94.9","NAN","NAN","NAN","NAN","NAN"],
    [1561534,"2026-07-10 13:50:00","161","3.865","105.7","6.37","107.7","NAN","NAN","NAN","NAN","NAN"],
    [1561535,"2026-07-10 14:00:00","162","3.263","97.1","5.488","78.81","NAN","NAN","NAN","NAN","NAN"],
    [1561536,"2026-07-10 14:10:00","163","3.7569999999999997","92.8","6.174","78.95","NAN","NAN","NAN","NAN","NAN"],
    [1561537,"2026-07-10 14:20:00","164","4.955","65.77","7.056","61.94","NAN","NAN","NAN","NAN","NAN"],
    [1561538,"2026-07-10 14:30:00","165","6.193","65.79","9.21","62.52","NAN","NAN","NAN","NAN","NAN"],
    [1561539,"2026-07-10 14:40:00","166","5.648","60.95","9.41","79.96","NAN","NAN","NAN","NAN","NAN"],
    [1561540,"2026-07-10 14:50:00","167","4.627","95.2","8.23","98.9","NAN","NAN","NAN","NAN","NAN"],
    [1561541,"2026-07-10 15:00:00","168","4.467","90.5","8.82","104","NAN","NAN","NAN","NAN","NAN"],
    [1561542,"2026-07-10 15:10:00","169","4.783","101.7","7.938","95.2","NAN","NAN","NAN","NAN","NAN"],
    [1561543,"2026-07-10 15:20:00","170","4.08","95.0","6.37","94.6","NAN","NAN","NAN","NAN","NAN"],
    [1561544,"2026-07-10 15:30:00","171","4.656000000000001","82.0","7.546","59.22","NAN","NAN","NAN","NAN","NAN"],
    [1561545,"2026-07-10 15:40:00","172","3.987","95.5","5.978","84.8","NAN","NAN","NAN","NAN","NAN"],
    [1561546,"2026-07-10 15:50:00","173","3.63","91.7","5.88","85.3","NAN","NAN","NAN","NAN","NAN"],
    [1561547,"2026-07-10 16:00:00","174","3.47","90.9","5.782","98.9","NAN","NAN","NAN","NAN","NAN"],
    [1561548,"2026-07-10 16:10:00","175","3.8480000000000003","99.0","5.978","107.3","NAN","NAN","NAN","NAN","NAN"],
    [1561549,"2026-07-10 16:20:00","176","4.226","83.2","6.664","94.9","NAN","NAN","NAN","NAN","NAN"],
    [1561550,"2026-07-10 16:30:00","177","3.9160000000000004","62.04","6.468","60.6","NAN","NAN","NAN","NAN","NAN"],
    [1561551,"2026-07-10 16:40:00","178","4.002","60.46","6.762","63.52","NAN","NAN","NAN","NAN","NAN"],
    [1561552,"2026-07-10 16:50:00","179","3.202","74.96","5.684","64.82","NAN","NAN","NAN","NAN","NAN"],
    [1561553,"2026-07-10 17:00:00","180","2.719","100.4","5.096","76.84","NAN","NAN","NAN","NAN","NAN"],
    [1561554,"2026-07-10 17:10:00","181","2.137","109.1","3.822","100.7","NAN","NAN","NAN","NAN","NAN"],
    [1561555,"2026-07-10 17:20:00","182","1.83","86.6","3.43","74.86","NAN","NAN","NAN","NAN","NAN"],
    [1561556,"2026-07-10 17:30:00","183","3.645","51.25","5.39","42.96","NAN","NAN","NAN","NAN","NAN"],
    [1561557,"2026-07-10 17:40:00","184","3.3939999999999997","50.92","5.586","41.24","NAN","NAN","NAN","NAN","NAN"],
    [1561558,"2026-07-10 17:50:00","185","2.989","74.7","6.468","63.52","NAN","NAN","NAN","NAN","NAN"],
    [1561559,"2026-07-10 18:00:00","186","3.6719999999999997","59.39","6.272","37.58","NAN","NAN","NAN","NAN","NAN"],
    [1561560,"2026-07-10 18:10:00","187","3.9619999999999997","62.02","6.076","67.03","NAN","NAN","NAN","NAN","NAN"],
    [1561561,"2026-07-10 18:20:00","188","3.6839999999999997","60.07","6.272","48.83","NAN","NAN","NAN","NAN","NAN"],
    [1561562,"2026-07-10 18:30:00","189","3.404","57.21","5.39","56.34","NAN","NAN","NAN","NAN","NAN"],
    [1561563,"2026-07-10 18:40:00","190","3.859","60.69","5.782","60.96","NAN","NAN","NAN","NAN","NAN"],
    [1561564,"2026-07-10 18:50:00","191","3.1039999999999996","52.56","5.586","67.09","NAN","NAN","NAN","NAN","NAN"],
    [1561565,"2026-07-10 19:00:00","192","3.293","53.29","6.174","33.15","NAN","NAN","NAN","NAN","NAN"],
    [1561566,"2026-07-10 19:10:00","193","3.054","57.76","6.076","67.43","NAN","NAN","NAN","NAN","NAN"],
    [1561567,"2026-07-10 19:20:00","194","2.76","48.16","4.41","60.28","NAN","NAN","NAN","NAN","NAN"],
    [1561568,"2026-07-10 19:30:00","195","2.687","53.28","4.9","53.07","NAN","NAN","NAN","NAN","NAN"],
    [1561569,"2026-07-10 19:40:00","196","2.358","45.69","3.626","57.66","NAN","NAN","NAN","NAN","NAN"],
    [1561570,"2026-07-10 19:50:00","197","2.844","40.3","4.606","38.83","NAN","NAN","NAN","NAN","NAN"],
    [1561571,"2026-07-10 20:00:00","198","3.3480000000000003","58.2","5.684","66.47","NAN","NAN","NAN","NAN","NAN"],
    [1561572,"2026-07-10 20:10:00","199","2.773","53.18","5.684","52.59","NAN","NAN","NAN","NAN","NAN"],
    [1561573,"2026-07-10 20:20:00","200","2.8789999999999996","52.83","5.586","43.57","NAN","NAN","NAN","NAN","NAN"],
    [1561574,"2026-07-10 20:30:00","201","2.782","50.72","5.782","24.78","NAN","NAN","NAN","NAN","NAN"],
    [1561575,"2026-07-10 20:40:00","202","2.7319999999999998","52.68","5.488","69.34","NAN","NAN","NAN","NAN","NAN"],
    [1561576,"2026-07-10 20:50:00","203","3.5239999999999996","63.0","5.586","78.39","NAN","NAN","NAN","NAN","NAN"],
    [1561577,"2026-07-10 21:00:00","204","3.68","66.99","4.998","65.11","NAN","NAN","NAN","NAN","NAN"],
    [1561578,"2026-07-10 21:10:00","205","4.154","72.88","5.978","67.22","NAN","NAN","NAN","NAN","NAN"],
    [1561579,"2026-07-10 21:20:00","206","4.421","67.41","6.468","65.16","NAN","NAN","NAN","NAN","NAN"],
    [1561580,"2026-07-10 21:30:00","207","4.271","70.69","6.958","67.81","NAN","NAN","NAN","NAN","NAN"],
    [1561581,"2026-07-10 21:40:00","208","3.627","70.45","5.782","66.82","NAN","NAN","NAN","NAN","NAN"],
    [1561582,"2026-07-10 21:50:00","209","3.2539999999999996","75.96","5.782","66.79","NAN","NAN","NAN","NAN","NAN"],
    [1561583,"2026-07-10 22:00:00","210","2.867","83.5","5.782","68.04","NAN","NAN","NAN","NAN","NAN"],
    [1561584,"2026-07-10 22:10:00","211","2.803","91.3","4.9","94","NAN","NAN","NAN","NAN","NAN"],
    [1561585,"2026-07-10 22:20:00","212","2.7089999999999996","78.95","5.684","70.85","NAN","NAN","NAN","NAN","NAN"],
    [1561586,"2026-07-10 22:30:00","213","3.113","67.54","5.684","66.67","NAN","NAN","NAN","NAN","NAN"],
    [1561587,"2026-07-10 22:40:00","214","3.708","70.03","6.272","70.61","NAN","NAN","NAN","NAN","NAN"],
    [1561588,"2026-07-10 22:50:00","215","3.1689999999999996","72.31","4.606","71.15","NAN","NAN","NAN","NAN","NAN"],
    [1561589,"2026-07-10 23:00:00","216","3.463","64.54","6.174","69.92","NAN","NAN","NAN","NAN","NAN"],
    [1561590,"2026-07-10 23:10:00","217","4.01","65.0","6.958","65.78","NAN","NAN","NAN","NAN","NAN"],
    [1561591,"2026-07-10 23:20:00","218","4.552","65.21","7.644","64.63","NAN","NAN","NAN","NAN","NAN"],
    [1561592,"2026-07-10 23:30:00","219","4.109","63.04","7.252","70.21","NAN","NAN","NAN","NAN","NAN"],
    [1561593,"2026-07-10 23:40:00","220","3.261","59.15","5.586","62.22","NAN","NAN","NAN","NAN","NAN"],
    [1561594,"2026-07-10 23:50:00","221","4.168","67.11","6.958","70.69","NAN","NAN","NAN","NAN","NAN"],
    [1561595,"2026-07-11 00:00:00","222","4.372","73.66","6.958","70.69","NAN","NAN","NAN","NAN","NAN"],
    [1561596,"2026-07-11 00:10:00","223","4.9430000000000005","69.19","8.62","62.51","NAN","NAN","NAN","NAN","NAN"],
    [1561597,"2026-07-11 00:20:00","224","4.994","67.57","8.33","61.54","NAN","NAN","NAN","NAN","NAN"],
    [1561598,"2026-07-11 00:30:00","225","5.968999999999999","72.41","9.02","65.3","NAN","NAN","NAN","NAN","NAN"],
    [1561599,"2026-07-11 00:40:00","226","6.236000000000001","71.75","10.19","73.93","NAN","NAN","NAN","NAN","NAN"],
    [1561600,"2026-07-11 00:50:00","227","5.11","66.02","9.8","75.35","NAN","NAN","NAN","NAN","NAN"],
    [1561601,"2026-07-11 01:00:00","228","4.229","62.35","7.056","64.66","NAN","NAN","NAN","NAN","NAN"],
    [1561602,"2026-07-11 01:10:00","229","3.8","61.16","6.566","65.1","NAN","NAN","NAN","NAN","NAN"],
    [1561603,"2026-07-11 01:20:00","230","3.484","64.88","6.174","67.13","NAN","NAN","NAN","NAN","NAN"],
    [1561604,"2026-07-11 01:30:00","231","4.336","70.84","8.04","68.79","NAN","NAN","NAN","NAN","NAN"],
    [1561605,"2026-07-11 01:40:00","232","4.052","71.16","6.272","65.88","NAN","NAN","NAN","NAN","NAN"],
    [1561606,"2026-07-11 01:50:00","233","3.714","74.79","6.664","77.43","NAN","NAN","NAN","NAN","NAN"],
    [1561607,"2026-07-11 02:00:00","234","4.546","73.68","7.056","72.26","NAN","NAN","NAN","NAN","NAN"],
    [1561608,"2026-07-11 02:10:00","235","5.61","74.21","8.72","82","NAN","NAN","NAN","NAN","NAN"],
    [1561609,"2026-07-11 02:20:00","236","5.627000000000001","74.94","8.53","60.49","NAN","NAN","NAN","NAN","NAN"],
    [1561610,"2026-07-11 02:30:00","237","5.7410000000000005","69.76","8.62","58.52","NAN","NAN","NAN","NAN","NAN"],
    [1561611,"2026-07-11 02:40:00","238","5.675","71.86","9.41","87.7","NAN","NAN","NAN","NAN","NAN"],
    [1561612,"2026-07-11 02:50:00","239","5.595","73.94","9.02","69.92","NAN","NAN","NAN","NAN","NAN"],
    [1561613,"2026-07-11 03:00:00","240","6.126","71.9","8.13","67.87","NAN","NAN","NAN","NAN","NAN"],
    [1561614,"2026-07-11 03:10:00","241","4.989","75.92","7.35","95.5","NAN","NAN","NAN","NAN","NAN"],
    [1561615,"2026-07-11 03:20:00","242","5.263999999999999","75.31","8.62","69.33","NAN","NAN","NAN","NAN","NAN"],
    [1561616,"2026-07-11 03:30:00","243","5.27","75.47","8.53","64.23","NAN","NAN","NAN","NAN","NAN"],
    [1561617,"2026-07-11 03:40:00","244","4.3580000000000005","75.12","7.35","75.32","NAN","NAN","NAN","NAN","NAN"],
    [1561618,"2026-07-11 03:50:00","245","5.92","74.85","9.31","74.4","NAN","NAN","NAN","NAN","NAN"],
    [1561619,"2026-07-11 04:00:00","246","6.028","76.26","10.19","74.45","NAN","NAN","NAN","NAN","NAN"],
    [1561620,"2026-07-11 04:10:00","247","4.935","73.67","8.43","90.2","NAN","NAN","NAN","NAN","NAN"],
    [1561621,"2026-07-11 04:20:00","248","4.552","75.54","8.04","81.9","NAN","NAN","NAN","NAN","NAN"],
    [1561622,"2026-07-11 04:30:00","249","4.98","72.7","9.31","72.34","NAN","NAN","NAN","NAN","NAN"],
    [1561623,"2026-07-11 04:40:00","250","5.763999999999999","76.75","9.21","82.2","NAN","NAN","NAN","NAN","NAN"],
    [1561624,"2026-07-11 04:50:00","251","4.535","75.44","9.21","82.2","NAN","NAN","NAN","NAN","NAN"],
    [1561625,"2026-07-11 05:00:00","252","5.062","75.43","8.33","55.52","NAN","NAN","NAN","NAN","NAN"],
    [1561626,"2026-07-11 05:10:00","253","5.496","77.04","8.92","78.95","NAN","NAN","NAN","NAN","NAN"],
    [1561627,"2026-07-11 05:20:00","254","4.9030000000000005","75.88","7.056","71.25","NAN","NAN","NAN","NAN","NAN"],
    [1561628,"2026-07-11 05:30:00","255","5.819","75.98","8.53","79.12","NAN","NAN","NAN","NAN","NAN"],
    [1561629,"2026-07-11 05:40:00","256","6.218999999999999","74.81","9.51","63.65","NAN","NAN","NAN","NAN","NAN"],
    [1561630,"2026-07-11 05:50:00","257","6.567","76.67","9.8","73.47","NAN","NAN","NAN","NAN","NAN"],
    [1561631,"2026-07-11 06:00:00","258","5.43","73.8","7.938","58.65","NAN","NAN","NAN","NAN","NAN"],
    [1561632,"2026-07-11 06:10:00","259","3.451","60.05","7.448","69.06","NAN","NAN","NAN","NAN","NAN"],
    [1561633,"2026-07-11 06:20:00","260","2.7039999999999997","42.86","4.508","29.78","NAN","NAN","NAN","NAN","NAN"],
    [1561634,"2026-07-11 06:30:00","261","2.256","68.3","4.508","36.71","NAN","NAN","NAN","NAN","NAN"],
    [1561635,"2026-07-11 06:40:00","262","3.023","70.6","5.194","62.79","NAN","NAN","NAN","NAN","NAN"],
    [1561636,"2026-07-11 06:50:00","263","2.931","74.3","4.41","71.86","NAN","NAN","NAN","NAN","NAN"],
    [1561637,"2026-07-11 07:00:00","264","3.347","71.12","5.782","69.88","NAN","NAN","NAN","NAN","NAN"],
    [1561638,"2026-07-11 07:10:00","265","3.53","75.45","5.782","36.23","NAN","NAN","NAN","NAN","NAN"],
    [1561639,"2026-07-11 07:20:00","266","2.984","70.06","5.978","83.6","NAN","NAN","NAN","NAN","NAN"],
    [1561640,"2026-07-11 07:30:00","267","2.917","55.51","5.292","68.46","NAN","NAN","NAN","NAN","NAN"],
    [1561641,"2026-07-11 07:40:00","268","3.2089999999999996","52.43","5.782","60.19","NAN","NAN","NAN","NAN","NAN"],
    [1561642,"2026-07-11 07:50:00","269","3.407","65.38","6.86","54.7","NAN","NAN","NAN","NAN","NAN"],
    [1561643,"2026-07-11 08:00:00","270","3.945","71.55","7.84","60.76","NAN","NAN","NAN","NAN","NAN"],
    [1561644,"2026-07-11 08:10:00","271","3.727","80.4","7.056","68.56","NAN","NAN","NAN","NAN","NAN"],
    [1561645,"2026-07-11 08:20:00","272","4.181","80.2","6.86","88.9","NAN","NAN","NAN","NAN","NAN"],
    [1561646,"2026-07-11 08:30:00","273","3.782","69.24","5.978","74.36","NAN","NAN","NAN","NAN","NAN"],
    [1561647,"2026-07-11 08:40:00","274","4.831","74.31","7.448","78.3","NAN","NAN","NAN","NAN","NAN"],
    [1561648,"2026-07-11 08:50:00","275","4.109","82.5","6.468","57.26","NAN","NAN","NAN","NAN","NAN"],
    [1561649,"2026-07-11 09:00:00","276","5.669","73.21","7.742","73.23","NAN","NAN","NAN","NAN","NAN"],
    [1561650,"2026-07-11 09:10:00","277","5.776","68.79","8.33","74.33","NAN","NAN","NAN","NAN","NAN"],
    [1561651,"2026-07-11 09:20:00","278","5.175","69.74","7.35","73.54","NAN","NAN","NAN","NAN","NAN"],
    [1561652,"2026-07-11 09:30:00","279","4.611000000000001","73.72","7.644","77.4","NAN","NAN","NAN","NAN","NAN"],
    [1561653,"2026-07-11 09:40:00","280","5.432","70.86","8.04","54.59","NAN","NAN","NAN","NAN","NAN"],
    [1561654,"2026-07-11 09:50:00","281","4.865","74.07","7.252","73.57","NAN","NAN","NAN","NAN","NAN"],
    [1561655,"2026-07-11 10:00:00","282","4.033","100.4","6.37","123.5","NAN","NAN","NAN","NAN","NAN"],
    [1561656,"2026-07-11 10:10:00","283","4.522","94.7","7.644","87.6","NAN","NAN","NAN","NAN","NAN"],
    [1561657,"2026-07-11 10:20:00","284","4.745","97.9","7.35","98.6","NAN","NAN","NAN","NAN","NAN"],
    [1561658,"2026-07-11 10:30:00","285","4.402","94.6","7.252","92.5","NAN","NAN","NAN","NAN","NAN"],
    [1561659,"2026-07-11 10:40:00","286","3.5989999999999998","101.9","7.056","100.7","NAN","NAN","NAN","NAN","NAN"],
    [1561660,"2026-07-11 10:50:00","287","4.497","97.4","7.35","100.7","NAN","NAN","NAN","NAN","NAN"],
    [1561661,"2026-07-11 11:00:00","288","4.615","95.1","7.546","97.2","NAN","NAN","NAN","NAN","NAN"],
    [1561662,"2026-07-11 11:10:00","289","4.454","103.6","7.056","120.2","NAN","NAN","NAN","NAN","NAN"],
    [1561663,"2026-07-11 11:20:00","290","3.8510000000000004","101.7","8.13","97.9","NAN","NAN","NAN","NAN","NAN"],
    [1561664,"2026-07-11 11:30:00","291","4.529","98.4","6.86","99.2","NAN","NAN","NAN","NAN","NAN"],
    [1561665,"2026-07-11 11:40:00","292","4.1080000000000005","100.3","6.86","92.5","NAN","NAN","NAN","NAN","NAN"],
    [1561666,"2026-07-11 11:50:00","293","4.315","106.6","6.566","98.8","NAN","NAN","NAN","NAN","NAN"],
    [1561667,"2026-07-11 12:00:00","294","4.757","106.4","7.252","113.4","NAN","NAN","NAN","NAN","NAN"],
    [1561668,"2026-07-11 12:10:00","295","4.657","97.1","6.762","104.2","NAN","NAN","NAN","NAN","NAN"],
    [1561669,"2026-07-11 12:20:00","296","4.446000000000001","96.0","6.86","86","NAN","NAN","NAN","NAN","NAN"],
    [1561670,"2026-07-11 12:30:00","297","4.6419999999999995","98.0","7.252","99.5","NAN","NAN","NAN","NAN","NAN"],
    [1561671,"2026-07-11 12:40:00","298","4.082","99.7","8.72","77.1","NAN","NAN","NAN","NAN","NAN"],
    [1561672,"2026-07-11 12:50:00","299","4.2219999999999995","97.7","7.056","81.5","NAN","NAN","NAN","NAN","NAN"],
    [1561673,"2026-07-11 13:00:00","300","4.12","96.1","7.35","93.2","NAN","NAN","NAN","NAN","NAN"],
    [1561674,"2026-07-11 13:10:00","301","3.9610000000000003","92.2","6.762","89.4","NAN","NAN","NAN","NAN","NAN"],
    [1561675,"2026-07-11 13:20:00","302","4.0569999999999995","90.4","6.762","86.1","NAN","NAN","NAN","NAN","NAN"],
    [1561676,"2026-07-11 13:30:00","303","3.803","94.3","6.762","83.1","NAN","NAN","NAN","NAN","NAN"],
    [1561677,"2026-07-11 13:40:00","304","4.644","101.9","7.35","106","NAN","NAN","NAN","NAN","NAN"],
    [1561678,"2026-07-11 13:50:00","305","4.436","99.8","7.252","121.4","NAN","NAN","NAN","NAN","NAN"],
    [1561679,"2026-07-11 14:00:00","306","3.975","93.8","7.056","89.4","NAN","NAN","NAN","NAN","NAN"],
    [1561680,"2026-07-11 14:10:00","307","4.348","99.5","7.252","95.3","NAN","NAN","NAN","NAN","NAN"],
    [1561681,"2026-07-11 14:20:00","308","3.787","107.3","5.88","96.9","NAN","NAN","NAN","NAN","NAN"],
    [1561682,"2026-07-11 14:30:00","309","4.168","95.7","6.272","97.7","NAN","NAN","NAN","NAN","NAN"],
    [1561683,"2026-07-11 14:40:00","310","4.454","96.9","7.056","102.5","NAN","NAN","NAN","NAN","NAN"],
    [1561684,"2026-07-11 14:50:00","311","4.3839999999999995","98.6","7.35","108.1","NAN","NAN","NAN","NAN","NAN"],
    [1561685,"2026-07-11 15:00:00","312","3.949","98.3","5.782","83.4","NAN","NAN","NAN","NAN","NAN"],
    [1561686,"2026-07-11 15:10:00","313","3.8689999999999998","103.8","6.076","111.6","NAN","NAN","NAN","NAN","NAN"],
    [1561687,"2026-07-11 15:20:00","314","3.694","107.7","5.978","92.5","NAN","NAN","NAN","NAN","NAN"],
    [1561688,"2026-07-11 15:30:00","315","4.09","107.9","5.88","121.3","NAN","NAN","NAN","NAN","NAN"],
    [1561689,"2026-07-11 15:40:00","316","3.6430000000000002","108.2","5.39","108.4","NAN","NAN","NAN","NAN","NAN"],
    [1561690,"2026-07-11 15:50:00","317","3.373","105.7","5.684","95.6","NAN","NAN","NAN","NAN","NAN"],
    [1561691,"2026-07-11 16:00:00","318","3.528","101.3","5.292","100.5","NAN","NAN","NAN","NAN","NAN"],
    [1561692,"2026-07-11 16:10:00","319","3.341","103.1","5.684","93.5","NAN","NAN","NAN","NAN","NAN"],
    [1561693,"2026-07-11 16:20:00","320","3.0580000000000003","100.9","5.782","101.8","NAN","NAN","NAN","NAN","NAN"],
    [1561694,"2026-07-11 16:30:00","321","2.911","100.2","4.998","85.4","NAN","NAN","NAN","NAN","NAN"],
    [1561695,"2026-07-11 16:40:00","322","2.986","101.5","4.998","91.4","NAN","NAN","NAN","NAN","NAN"],
    [1561696,"2026-07-11 16:50:00","323","2.458","98.4","4.018","95.7","NAN","NAN","NAN","NAN","NAN"],
    [1561697,"2026-07-11 17:00:00","324","3.1439999999999997","97.1","4.704","87.4","NAN","NAN","NAN","NAN","NAN"],
    [1561698,"2026-07-11 17:10:00","325","2.9760000000000004","103.0","4.802","92.5","NAN","NAN","NAN","NAN","NAN"],
    [1561699,"2026-07-11 17:20:00","326","2.696","105.1","4.312","94","NAN","NAN","NAN","NAN","NAN"],
    [1561700,"2026-07-11 17:30:00","327","3.056","83.2","4.704","71.25","NAN","NAN","NAN","NAN","NAN"],
    [1561701,"2026-07-11 17:40:00","328","3.3369999999999997","68.62","4.802","65.67","NAN","NAN","NAN","NAN","NAN"],
    [1561702,"2026-07-11 17:50:00","329","2.6639999999999997","71.12","4.214","71.26","NAN","NAN","NAN","NAN","NAN"],
    [1561703,"2026-07-11 18:00:00","330","2.821","70.5","4.41","64.05","NAN","NAN","NAN","NAN","NAN"],
    [1561704,"2026-07-11 18:10:00","331","2.685","70.92","3.92","72.69","NAN","NAN","NAN","NAN","NAN"],
    [1561705,"2026-07-11 18:20:00","332","2.8289999999999997","67.94","4.704","72.33","NAN","NAN","NAN","NAN","NAN"],
    [1561706,"2026-07-11 18:30:00","333","2.57","77.42","4.606","69.78","NAN","NAN","NAN","NAN","NAN"],
    [1561707,"2026-07-11 18:40:00","334","2.92","72.58","4.018","61.35","NAN","NAN","NAN","NAN","NAN"],
    [1561708,"2026-07-11 18:50:00","335","2.1109999999999998","85.5","3.528","103.6","NAN","NAN","NAN","NAN","NAN"],
    [1561709,"2026-07-11 19:00:00","336","2.4619999999999997","75.76","3.626","93.8","NAN","NAN","NAN","NAN","NAN"],
    [1561710,"2026-07-11 19:10:00","337","2.379","53.03","4.214","37.59","NAN","NAN","NAN","NAN","NAN"],
    [1561711,"2026-07-11 19:20:00","338","2.6889999999999996","53.27","4.802","36.24","NAN","NAN","NAN","NAN","NAN"],
    [1561712,"2026-07-11 19:30:00","339","3.0789999999999997","60.63","4.998","50.72","NAN","NAN","NAN","NAN","NAN"],
    [1561713,"2026-07-11 19:40:00","340","2.951","66.23","5.096","80.7","NAN","NAN","NAN","NAN","NAN"],
    [1561714,"2026-07-11 19:50:00","341","2.3369999999999997","63.21","3.626","68.19","NAN","NAN","NAN","NAN","NAN"],
    [1561715,"2026-07-11 20:00:00","342","2.763","57.09","4.998","63.18","NAN","NAN","NAN","NAN","NAN"],
    [1561716,"2026-07-11 20:10:00","343","3.071","55.7","5.096","54.81","NAN","NAN","NAN","NAN","NAN"],
    [1561717,"2026-07-11 20:20:00","344","3.1689999999999996","61.19","5.096","67.89","NAN","NAN","NAN","NAN","NAN"],
    [1561718,"2026-07-11 20:30:00","345","2.9160000000000004","61.69","5.292","66.84","NAN","NAN","NAN","NAN","NAN"],
    [1561719,"2026-07-11 20:40:00","346","3.068","63.7","5.096","69.17","NAN","NAN","NAN","NAN","NAN"],
    [1561720,"2026-07-11 20:50:00","347","2.6439999999999997","64.44","4.312","68.66","NAN","NAN","NAN","NAN","NAN"],
    [1561721,"2026-07-11 21:00:00","348","2.835","66.18","4.606","73.94","NAN","NAN","NAN","NAN","NAN"],
    [1561722,"2026-07-11 21:10:00","349","2.593","61.46","5.194","55.67","NAN","NAN","NAN","NAN","NAN"],
    [1561723,"2026-07-11 21:20:00","350","2.452","59.0","4.606","59.23","NAN","NAN","NAN","NAN","NAN"],
    [1561724,"2026-07-11 21:30:00","351","3.438","63.41","5.488","62.7","NAN","NAN","NAN","NAN","NAN"],
    [1561725,"2026-07-11 21:40:00","352","3.477","58.99","5.39","68.64","NAN","NAN","NAN","NAN","NAN"],
    [1561726,"2026-07-11 21:50:00","353","2.947","56.0","5.39","70.54","NAN","NAN","NAN","NAN","NAN"],
    [1561727,"2026-07-11 22:00:00","354","3.764","68.76","6.076","69.14","NAN","NAN","NAN","NAN","NAN"],
    [1561728,"2026-07-11 22:10:00","355","3.165","58.9","5.292","61.73","NAN","NAN","NAN","NAN","NAN"],
    [1561729,"2026-07-11 22:20:00","356","3.3810000000000002","64.99","4.9","64.53","NAN","NAN","NAN","NAN","NAN"],
    [1561730,"2026-07-11 22:30:00","357","3.3360000000000003","65.51","5.194","67.13","NAN","NAN","NAN","NAN","NAN"],
    [1561731,"2026-07-11 22:40:00","358","3.193","64.81","5.194","72.03","NAN","NAN","NAN","NAN","NAN"],
    [1561732,"2026-07-11 22:50:00","359","3.013","59.93","4.704","67.61","NAN","NAN","NAN","NAN","NAN"],
    [1561733,"2026-07-11 23:00:00","360","3.513","62.38","5.292","71.46","NAN","NAN","NAN","NAN","NAN"],
    [1561734,"2026-07-11 23:10:00","361","3.298","60.3","5.292","56.26","NAN","NAN","NAN","NAN","NAN"],
    [1561735,"2026-07-11 23:20:00","362","3.285","65.98","5.096","69.48","NAN","NAN","NAN","NAN","NAN"],
    [1561736,"2026-07-11 23:30:00","363","4.488","67.09","7.252","68.74","NAN","NAN","NAN","NAN","NAN"],
    [1561737,"2026-07-11 23:40:00","364","4.043","75.2","6.86","69.92","NAN","NAN","NAN","NAN","NAN"],
    [1561738,"2026-07-11 23:50:00","365","4.125","76.14","7.35","71.07","NAN","NAN","NAN","NAN","NAN"],
    [1561739,"2026-07-12 00:00:00","366","3.7230000000000003","79.33","7.252","59.42","NAN","NAN","NAN","NAN","NAN"],
    [1561740,"2026-07-12 00:10:00","367","4.176","81.2","7.742","67.87","NAN","NAN","NAN","NAN","NAN"],
    [1561741,"2026-07-12 00:20:00","368","5.096","73.4","7.35","79.84","NAN","NAN","NAN","NAN","NAN"],
    [1561742,"2026-07-12 00:30:00","369","5.332999999999999","73.87","8.04","78.06","NAN","NAN","NAN","NAN","NAN"],
    [1561743,"2026-07-12 00:40:00","370","5.079","73.22","8.04","70.84","NAN","NAN","NAN","NAN","NAN"],
    [1561744,"2026-07-12 00:50:00","371","4.981","71.39","8.13","72.02","NAN","NAN","NAN","NAN","NAN"],
    [1561745,"2026-07-12 01:00:00","372","4.322","64.48","6.86","72.43","NAN","NAN","NAN","NAN","NAN"],
    [1561746,"2026-07-12 01:10:00","373","4.445","70.53","7.546","71.37","NAN","NAN","NAN","NAN","NAN"],
    [1561747,"2026-07-12 01:20:00","374","4.532","68.99","8.33","72.77","NAN","NAN","NAN","NAN","NAN"],
    [1561748,"2026-07-12 01:30:00","375","3.7039999999999997","65.08","6.86","67.23","NAN","NAN","NAN","NAN","NAN"],
    [1561749,"2026-07-12 01:40:00","376","3.3","58.7","5.684","71.32","NAN","NAN","NAN","NAN","NAN"],
    [1561750,"2026-07-12 01:50:00","377","3.926","63.58","6.664","59.24","NAN","NAN","NAN","NAN","NAN"],
    [1561751,"2026-07-12 02:00:00","378","3.6719999999999997","62.63","6.468","50.92","NAN","NAN","NAN","NAN","NAN"],
    [1561752,"2026-07-12 02:10:00","379","3.6","61.09","6.37","73.2","NAN","NAN","NAN","NAN","NAN"],
    [1561753,"2026-07-12 02:20:00","380","3.4010000000000002","66.77","4.998","73.39","NAN","NAN","NAN","NAN","NAN"],
    [1561754,"2026-07-12 02:30:00","381","3.111","65.02","5.488","55.82","NAN","NAN","NAN","NAN","NAN"],
    [1561755,"2026-07-12 02:40:00","382","3.4530000000000003","68.31","4.9","70.19","NAN","NAN","NAN","NAN","NAN"],
    [1561756,"2026-07-12 02:50:00","383","3.0010000000000003","66.27","4.508","64.22","NAN","NAN","NAN","NAN","NAN"],
    [1561757,"2026-07-12 03:00:00","384","2.7939999999999996","61.16","4.508","69.25","NAN","NAN","NAN","NAN","NAN"],
    [1561758,"2026-07-12 03:10:00","385","2.6239999999999997","67.07","4.704","64.63","NAN","NAN","NAN","NAN","NAN"],
    [1561759,"2026-07-12 03:20:00","386","3.339","71.42","5.782","64.63","NAN","NAN","NAN","NAN","NAN"],
    [1561760,"2026-07-12 03:30:00","387","2.951","67.51","4.9","66.43","NAN","NAN","NAN","NAN","NAN"],
    [1561761,"2026-07-12 03:40:00","388","2.5340000000000003","56.89","4.312","62.78","NAN","NAN","NAN","NAN","NAN"],
    [1561762,"2026-07-12 03:50:00","389","2.166","61.93","3.92","71.18","NAN","NAN","NAN","NAN","NAN"],
    [1561763,"2026-07-12 04:00:00","390","2.153","54.26","4.018","67.81","NAN","NAN","NAN","NAN","NAN"],
    [1561764,"2026-07-12 04:10:00","391","2.074","55.06","3.332","54.43","NAN","NAN","NAN","NAN","NAN"],
    [1561765,"2026-07-12 04:20:00","392","2.394","58.67","4.018","69.49","NAN","NAN","NAN","NAN","NAN"],
    [1561766,"2026-07-12 04:30:00","393","2.483","43.77","4.018","67.91","NAN","NAN","NAN","NAN","NAN"],
    [1561767,"2026-07-12 04:40:00","394","2.401","31.25","3.43","35.18","NAN","NAN","NAN","NAN","NAN"],
    [1561768,"2026-07-12 04:50:00","395","2.09","22.4","3.822","18.05","NAN","NAN","NAN","NAN","NAN"],
    [1561769,"2026-07-12 05:00:00","396","1.8219999999999998","34.54","2.646","36.91","NAN","NAN","NAN","NAN","NAN"],
    [1561770,"2026-07-12 05:10:00","397","1.656","41.48","2.94","47.31","NAN","NAN","NAN","NAN","NAN"],
    [1561771,"2026-07-12 05:20:00","398","0.932","30.39","2.058","29.96","NAN","NAN","NAN","NAN","NAN"],
    [1561772,"2026-07-12 05:30:00","399","1.369","26.63","2.646","22.64","NAN","NAN","NAN","NAN","NAN"],
    [1561773,"2026-07-12 05:40:00","400","1.595","13.06","2.45","5.438","NAN","NAN","NAN","NAN","NAN"],
    [1561774,"2026-07-12 05:50:00","401","1.499","6.937","2.646","7.363","NAN","NAN","NAN","NAN","NAN"],
    [1561775,"2026-07-12 06:00:00","402","1.245","11.72","2.156","5.053","NAN","NAN","NAN","NAN","NAN"],
    [1561776,"2026-07-12 06:10:00","403","1.693","30.27","3.332","29.33","NAN","NAN","NAN","NAN","NAN"],
    [1561777,"2026-07-12 06:20:00","404","2.6639999999999997","45.62","4.214","43.39","NAN","NAN","NAN","NAN","NAN"],
    [1561778,"2026-07-12 06:30:00","405","2.546","52.57","3.92","44.4","NAN","NAN","NAN","NAN","NAN"],
    [1561779,"2026-07-12 06:40:00","406","2.171","56.68","4.704","73.2","NAN","NAN","NAN","NAN","NAN"],
    [1561780,"2026-07-12 06:50:00","407","2.693","48.91","4.802","62.42","NAN","NAN","NAN","NAN","NAN"],
    [1561781,"2026-07-12 07:00:00","408","2.583","43.14","4.312","26.71","NAN","NAN","NAN","NAN","NAN"],
    [1561782,"2026-07-12 07:10:00","409","3.137","48.81","5.586","71.18","NAN","NAN","NAN","NAN","NAN"],
    [1561783,"2026-07-12 07:20:00","410","3.613","62.4","5.39","70.31","NAN","NAN","NAN","NAN","NAN"],
    [1561784,"2026-07-12 07:30:00","411","3.205","61.52","5.488","74.86","NAN","NAN","NAN","NAN","NAN"],
    [1561785,"2026-07-12 07:40:00","412","3.634","61.4","5.684","68.19","NAN","NAN","NAN","NAN","NAN"],
    [1561786,"2026-07-12 07:50:00","413","3.253","60.92","4.802","68.69","NAN","NAN","NAN","NAN","NAN"],
    [1561787,"2026-07-12 08:00:00","414","3.958","67.22","6.076","64.45","NAN","NAN","NAN","NAN","NAN"],
    [1561788,"2026-07-12 08:10:00","415","3.568","69.5","5.39","56.25","NAN","NAN","NAN","NAN","NAN"],
    [1561789,"2026-07-12 08:20:00","416","3.5469999999999997","68.99","5.684","69.97","NAN","NAN","NAN","NAN","NAN"],
    [1561790,"2026-07-12 08:30:00","417","3.8689999999999998","62.6","5.88","61.31","NAN","NAN","NAN","NAN","NAN"],
    [1561791,"2026-07-12 08:40:00","418","3.5989999999999998","65.21","5.978","73.08","NAN","NAN","NAN","NAN","NAN"],
    [1561792,"2026-07-12 08:50:00","419","4.124","65.15","6.37","65.67","NAN","NAN","NAN","NAN","NAN"],
    [1561793,"2026-07-12 09:00:00","420","3.949","61.34","6.762","63.58","NAN","NAN","NAN","NAN","NAN"],
    [1561794,"2026-07-12 09:10:00","421","5.195","72.04","7.154","72.41","NAN","NAN","NAN","NAN","NAN"],
    [1561795,"2026-07-12 09:20:00","422","5.0089999999999995","73.12","7.448","72.75","NAN","NAN","NAN","NAN","NAN"],
    [1561796,"2026-07-12 09:30:00","423","5.558","69.52","7.84","74.12","NAN","NAN","NAN","NAN","NAN"],
    [1561797,"2026-07-12 09:40:00","424","5.178","74.65","8.13","72.31","NAN","NAN","NAN","NAN","NAN"],
    [1561798,"2026-07-12 09:50:00","425","4.976","71.8","7.154","76.45","NAN","NAN","NAN","NAN","NAN"],
    [1561799,"2026-07-12 10:00:00","426","5.246","71.39","7.644","65","NAN","NAN","NAN","NAN","NAN"],
    [1561800,"2026-07-12 10:10:00","427","4.473","65.41","6.958","61.83","NAN","NAN","NAN","NAN","NAN"],
    [1561801,"2026-07-12 10:20:00","428","4.247","65.54","6.37","61.71","NAN","NAN","NAN","NAN","NAN"],
    [1561802,"2026-07-12 10:30:00","429","4.614","66.51","7.448","72.7","NAN","NAN","NAN","NAN","NAN"],
    [1561803,"2026-07-12 10:40:00","430","4.6610000000000005","68.44","7.056","69.57","NAN","NAN","NAN","NAN","NAN"],
    [1561804,"2026-07-12 10:50:00","431","5.167000000000001","71.51","7.056","68.53","NAN","NAN","NAN","NAN","NAN"],
    [1561805,"2026-07-12 11:00:00","432","4.965","72.14","7.154","68.32","NAN","NAN","NAN","NAN","NAN"],
    [1561806,"2026-07-12 11:10:00","433","4.543","72.54","7.154","64.86","NAN","NAN","NAN","NAN","NAN"],
    [1561807,"2026-07-12 11:20:00","434","3.9210000000000003","76.65","6.664","69.91","NAN","NAN","NAN","NAN","NAN"],
    [1561808,"2026-07-12 11:30:00","435","3.832","74.31","6.566","77.38","NAN","NAN","NAN","NAN","NAN"],
    [1561809,"2026-07-12 11:40:00","436","3.6180000000000003","84.8","5.488","63.38","NAN","NAN","NAN","NAN","NAN"],
    [1561810,"2026-07-12 11:50:00","437","3.7510000000000003","101.9","5.39","113.4","NAN","NAN","NAN","NAN","NAN"],
    [1561811,"2026-07-12 12:00:00","438","4.114","100.5","6.468","89.7","NAN","NAN","NAN","NAN","NAN"],
    [1561812,"2026-07-12 12:10:00","439","4.148","99.6","6.076","87.3","NAN","NAN","NAN","NAN","NAN"],
    [1561813,"2026-07-12 12:20:00","440","4.091","97.9","6.37","87","NAN","NAN","NAN","NAN","NAN"],
    [1561814,"2026-07-12 12:30:00","441","3.693","98.2","6.076","89.1","NAN","NAN","NAN","NAN","NAN"],
    [1561815,"2026-07-12 12:40:00","442","4.154","91.8","6.86","105.5","NAN","NAN","NAN","NAN","NAN"],
    [1561816,"2026-07-12 12:50:00","443","3.863","78.8","6.174","63.85","NAN","NAN","NAN","NAN","NAN"],
    [1561817,"2026-07-12 13:00:00","444","4.811","66.86","6.958","64.33","NAN","NAN","NAN","NAN","NAN"],
    [1561818,"2026-07-12 13:10:00","445","4.851","67.0","7.938","66.06","NAN","NAN","NAN","NAN","NAN"],
    [1561819,"2026-07-12 13:20:00","446","5.379","67.61","7.644","68.92","NAN","NAN","NAN","NAN","NAN"],
    [1561820,"2026-07-12 13:30:00","447","5.109","71.2","7.84","66.66","NAN","NAN","NAN","NAN","NAN"],
    [1561821,"2026-07-12 13:40:00","448","4.822","69.82","7.644","67.02","NAN","NAN","NAN","NAN","NAN"],
    [1561822,"2026-07-12 13:50:00","449","4.971","62.89","7.35","60.1","NAN","NAN","NAN","NAN","NAN"],
    [1561823,"2026-07-12 14:00:00","450","4.902","65.4","7.742","67.39","NAN","NAN","NAN","NAN","NAN"],
    [1561824,"2026-07-12 14:10:00","451","5.242999999999999","67.96","8.13","55.67","NAN","NAN","NAN","NAN","NAN"],
    [1561825,"2026-07-12 14:20:00","452","4.9430000000000005","67.06","7.546","73.04","NAN","NAN","NAN","NAN","NAN"],
    [1561826,"2026-07-12 14:30:00","453","4.916","66.53","7.35","67.67","NAN","NAN","NAN","NAN","NAN"],
    [1561827,"2026-07-12 14:40:00","454","4.455","61.07","6.664","61.97","NAN","NAN","NAN","NAN","NAN"],
    [1561828,"2026-07-12 14:50:00","455","4.363","62.24","7.644","62.31","NAN","NAN","NAN","NAN","NAN"],
    [1561829,"2026-07-12 15:00:00","456","4.981","67.95","8.23","71.75","NAN","NAN","NAN","NAN","NAN"],
    [1561830,"2026-07-12 15:10:00","457","5.2829999999999995","68.8","8.92","75.33","NAN","NAN","NAN","NAN","NAN"],
    [1561831,"2026-07-12 15:20:00","458","4.417","70.42","7.154","62.99","NAN","NAN","NAN","NAN","NAN"],
    [1561832,"2026-07-12 15:30:00","459","4.97","63.46","8.33","72.31","NAN","NAN","NAN","NAN","NAN"],
    [1561833,"2026-07-12 15:40:00","460","5.535","73.12","7.546","70.77","NAN","NAN","NAN","NAN","NAN"],
    [1561834,"2026-07-12 15:50:00","461","5.111000000000001","68.58","8.04","68.58","NAN","NAN","NAN","NAN","NAN"],
    [1561835,"2026-07-12 16:00:00","462","5.505","71.61","7.742","66.72","NAN","NAN","NAN","NAN","NAN"],
    [1561836,"2026-07-12 16:10:00","463","5.178999999999999","70.95","7.546","70.3","NAN","NAN","NAN","NAN","NAN"],
    [1561837,"2026-07-12 16:20:00","464","6.028","70.73","9.02","67.24","NAN","NAN","NAN","NAN","NAN"],
    [1561838,"2026-07-12 16:30:00","465","5.747000000000001","67.26","9.02","72.66","NAN","NAN","NAN","NAN","NAN"],
    [1561839,"2026-07-12 16:40:00","466","5.676","66.26","8.33","65.9","NAN","NAN","NAN","NAN","NAN"],
    [1561840,"2026-07-12 16:50:00","467","5.598","67.47","7.742","62.99","NAN","NAN","NAN","NAN","NAN"],
    [1561841,"2026-07-12 17:00:00","468","3.875","65.3","5.978","64.43","NAN","NAN","NAN","NAN","NAN"],
    [1561842,"2026-07-12 17:10:00","469","3.8569999999999998","67.12","6.958","65.96","NAN","NAN","NAN","NAN","NAN"],
    [1561843,"2026-07-12 17:20:00","470","5.17","65.32","7.546","65.15","NAN","NAN","NAN","NAN","NAN"],
    [1561844,"2026-07-12 17:30:00","471","4.414","61.83","7.546","62.19","NAN","NAN","NAN","NAN","NAN"],
    [1561845,"2026-07-12 17:40:00","472","3.785","60.85","6.762","78.15","NAN","NAN","NAN","NAN","NAN"],
    [1561846,"2026-07-12 17:50:00","473","3.8310000000000004","65.06","6.762","72.5","NAN","NAN","NAN","NAN","NAN"],
    [1561847,"2026-07-12 18:00:00","474","3.8539999999999996","61.2","6.468","74.87","NAN","NAN","NAN","NAN","NAN"],
    [1561848,"2026-07-12 18:10:00","475","4.159","66.95","6.86","67.02","NAN","NAN","NAN","NAN","NAN"],
    [1561849,"2026-07-12 18:20:00","476","3.799","61.34","6.272","64.2","NAN","NAN","NAN","NAN","NAN"],
    [1561850,"2026-07-12 18:30:00","477","3.465","59.1","5.684","59.05","NAN","NAN","NAN","NAN","NAN"],
    [1561851,"2026-07-12 18:40:00","478","3.7880000000000003","59.9","6.468","64.06","NAN","NAN","NAN","NAN","NAN"],
    [1561852,"2026-07-12 18:50:00","479","3.429","55.47","6.566","71.08","NAN","NAN","NAN","NAN","NAN"],
    [1561853,"2026-07-12 19:00:00","480","3.326","58.22","6.076","58.69","NAN","NAN","NAN","NAN","NAN"],
    [1561854,"2026-07-12 19:10:00","481","3.1","57.33","5.488","62.06","NAN","NAN","NAN","NAN","NAN"],
    [1561855,"2026-07-12 19:20:00","482","3.1310000000000002","56.83","5.292","66.08","NAN","NAN","NAN","NAN","NAN"],
    [1561856,"2026-07-12 19:30:00","483","3.105","54.81","5.292","49.09","NAN","NAN","NAN","NAN","NAN"],
    [1561857,"2026-07-12 19:40:00","484","3.103","51.16","5.488","45.5","NAN","NAN","NAN","NAN","NAN"],
    [1561858,"2026-07-12 19:50:00","485","3.096","54.2","5.488","59.6","NAN","NAN","NAN","NAN","NAN"],
    [1561859,"2026-07-12 20:00:00","486","3.0189999999999997","56.04","5.194","61.14","NAN","NAN","NAN","NAN","NAN"],
    [1561860,"2026-07-12 20:10:00","487","2.8569999999999998","53.98","4.704","68.14","NAN","NAN","NAN","NAN","NAN"],
    [1561861,"2026-07-12 20:20:00","488","2.39","54.59","4.116","49.01","NAN","NAN","NAN","NAN","NAN"],
    [1561862,"2026-07-12 20:30:00","489","2.5140000000000002","53.77","4.606","59.26","NAN","NAN","NAN","NAN","NAN"],
    [1561863,"2026-07-12 20:40:00","490","2.943","55.42","5.292","65.01","NAN","NAN","NAN","NAN","NAN"],
    [1561864,"2026-07-12 20:50:00","491","2.861","53.28","4.802","33.64","NAN","NAN","NAN","NAN","NAN"],
    [1561865,"2026-07-12 21:00:00","492","2.592","53.09","5.292","50.5","NAN","NAN","NAN","NAN","NAN"],
    [1561866,"2026-07-12 21:10:00","493","3.182","48.27","5.39","43.96","NAN","NAN","NAN","NAN","NAN"],
    [1561867,"2026-07-12 21:20:00","494","3.43","52.32","5.39","75.51","NAN","NAN","NAN","NAN","NAN"],
    [1561868,"2026-07-12 21:30:00","495","3.322","54.14","6.076","63.14","NAN","NAN","NAN","NAN","NAN"],
    [1561869,"2026-07-12 21:40:00","496","3.38","56.98","5.782","70.09","NAN","NAN","NAN","NAN","NAN"],
    [1561870,"2026-07-12 21:50:00","497","2.488","57.07","5.096","60.2","NAN","NAN","NAN","NAN","NAN"],
    [1561871,"2026-07-12 22:00:00","498","2.307","63.15","4.312","62.13","NAN","NAN","NAN","NAN","NAN"],
    [1561872,"2026-07-12 22:10:00","499","2.6","61.6","4.312","57.73","NAN","NAN","NAN","NAN","NAN"],
    [1561873,"2026-07-12 22:20:00","500","2.4859999999999998","68.61","4.508","70.38","NAN","NAN","NAN","NAN","NAN"],
    [1561874,"2026-07-12 22:30:00","501","2.096","60.76","5.096","59.51","NAN","NAN","NAN","NAN","NAN"],
    [1561875,"2026-07-12 22:40:00","502","1.8940000000000001","64.67","3.136","68.29","NAN","NAN","NAN","NAN","NAN"],
    [1561876,"2026-07-12 22:50:00","503","2.377","60.26","4.606","61.38","NAN","NAN","NAN","NAN","NAN"],
    [1561877,"2026-07-12 23:00:00","504","2.36","64.68","4.018","68","NAN","NAN","NAN","NAN","NAN"],
    [1561878,"2026-07-12 23:10:00","505","2.181","63.73","3.626","65.62","NAN","NAN","NAN","NAN","NAN"],
    [1561879,"2026-07-12 23:20:00","506","2.286","61.86","4.018","70.5","NAN","NAN","NAN","NAN","NAN"],
    [1561880,"2026-07-12 23:30:00","507","2.645","65.46","4.41","64.53","NAN","NAN","NAN","NAN","NAN"],
    [1561881,"2026-07-12 23:40:00","508","2.541","63.52","3.92","56.26","NAN","NAN","NAN","NAN","NAN"],
    [1561882,"2026-07-12 23:50:00","509","2.339","61.57","3.92","58.26","NAN","NAN","NAN","NAN","NAN"],
    [1561883,"2026-07-13 00:00:00","510","2.362","52.72","4.998","37.44","NAN","NAN","NAN","NAN","NAN"],
    [1561884,"2026-07-13 00:10:00","511","1.86","53.57","3.528","55.87","NAN","NAN","NAN","NAN","NAN"],
    [1561885,"2026-07-13 00:20:00","512","2.582","64.03","3.822","68.38","NAN","NAN","NAN","NAN","NAN"],
    [1561886,"2026-07-13 00:30:00","513","1.755","61.19","3.92","61.98","NAN","NAN","NAN","NAN","NAN"],
    [1561887,"2026-07-13 00:40:00","514","1.8519999999999999","58.66","3.332","62.61","NAN","NAN","NAN","NAN","NAN"],
    [1561888,"2026-07-13 00:50:00","515","1.9969999999999999","57.91","3.43","55.2","NAN","NAN","NAN","NAN","NAN"],
    [1561889,"2026-07-13 01:00:00","516","1.67","64.09","3.724","65.3","NAN","NAN","NAN","NAN","NAN"],
    [1561890,"2026-07-13 01:10:00","517","1.385","68.69","2.548","63.47","NAN","NAN","NAN","NAN","NAN"],
    [1561891,"2026-07-13 01:20:00","518","1.932","89.7","3.92","107","NAN","NAN","NAN","NAN","NAN"],
    [1561892,"2026-07-13 01:30:00","519","1.963","104.5","4.116","89.8","NAN","NAN","NAN","NAN","NAN"],
    [1561893,"2026-07-13 01:40:00","520","1.829","109.0","3.528","102.5","NAN","NAN","NAN","NAN","NAN"],
    [1561894,"2026-07-13 01:50:00","521","1.517","98.4","3.038","96.6","NAN","NAN","NAN","NAN","NAN"],
    [1561895,"2026-07-13 02:00:00","522","1.486","95.5","2.842","102.5","NAN","NAN","NAN","NAN","NAN"],
    [1561896,"2026-07-13 02:10:00","523","1.8519999999999999","92.1","3.136","86.4","NAN","NAN","NAN","NAN","NAN"],
    [1561897,"2026-07-13 02:20:00","524","2.124","76.54","3.528","61.34","NAN","NAN","NAN","NAN","NAN"],
    [1561898,"2026-07-13 02:30:00","525","1.516","76.54","2.842","61.36","NAN","NAN","NAN","NAN","NAN"],
    [1561899,"2026-07-13 02:40:00","526","1.642","82.2","3.038","94.5","NAN","NAN","NAN","NAN","NAN"],
    [1561900,"2026-07-13 02:50:00","527","2.024","78.87","3.92","57.8","NAN","NAN","NAN","NAN","NAN"],
    [1561901,"2026-07-13 03:00:00","528","2.7510000000000003","65.7","4.704","65.52","NAN","NAN","NAN","NAN","NAN"],
    [1561902,"2026-07-13 03:10:00","529","2.572","53.01","4.312","70.29","NAN","NAN","NAN","NAN","NAN"],
    [1561903,"2026-07-13 03:20:00","530","2.813","55.14","4.41","59.41","NAN","NAN","NAN","NAN","NAN"],
    [1561904,"2026-07-13 03:30:00","531","2.265","49.14","3.528","51.47","NAN","NAN","NAN","NAN","NAN"],
    [1561905,"2026-07-13 03:40:00","532","2.667","52.71","4.606","58.28","NAN","NAN","NAN","NAN","NAN"],
    [1561906,"2026-07-13 03:50:00","533","2.4","49.36","4.018","57.44","NAN","NAN","NAN","NAN","NAN"],
    [1561907,"2026-07-13 04:00:00","534","2.155","51.78","3.92","41.72","NAN","NAN","NAN","NAN","NAN"],
    [1561908,"2026-07-13 04:10:00","535","2.258","48.11","3.822","44.03","NAN","NAN","NAN","NAN","NAN"],
    [1561909,"2026-07-13 04:20:00","536","2.6839999999999997","40.14","3.724","43.81","NAN","NAN","NAN","NAN","NAN"],
    [1561910,"2026-07-13 04:30:00","537","2.4930000000000003","42.6","4.214","37.97","NAN","NAN","NAN","NAN","NAN"],
    [1561911,"2026-07-13 04:40:00","538","2.516","40.03","3.822","33.49","NAN","NAN","NAN","NAN","NAN"],
    [1561912,"2026-07-13 04:50:00","539","2.597","43.73","3.626","42.11","NAN","NAN","NAN","NAN","NAN"],
    [1561913,"2026-07-13 05:00:00","540","2.7769999999999997","36.47","4.018","37.78","NAN","NAN","NAN","NAN","NAN"],
    [1561914,"2026-07-13 05:10:00","541","2.772","40.23","3.92","35.66","NAN","NAN","NAN","NAN","NAN"],
    [1561915,"2026-07-13 05:20:00","542","2.7910000000000004","38.34","4.018","46.63","NAN","NAN","NAN","NAN","NAN"],
    [1561916,"2026-07-13 05:30:00","543","2.821","37.71","4.018","45.48","NAN","NAN","NAN","NAN","NAN"],
    [1561917,"2026-07-13 05:40:00","544","2.42","43.09","5.096","61.65","NAN","NAN","NAN","NAN","NAN"],
    [1561918,"2026-07-13 05:50:00","545","3.717","62.67","6.37","67.79","NAN","NAN","NAN","NAN","NAN"],
    [1561919,"2026-07-13 06:00:00","546","3.833","64.63","6.076","65.5","NAN","NAN","NAN","NAN","NAN"],
    [1561920,"2026-07-13 06:10:00","547","3.4130000000000003","61.42","6.272","75.7","NAN","NAN","NAN","NAN","NAN"],
    [1561921,"2026-07-13 06:20:00","548","2.963","54.83","4.704","61.36","NAN","NAN","NAN","NAN","NAN"],
    [1561922,"2026-07-13 06:30:00","549","4.079","57.58","7.154","55.68","NAN","NAN","NAN","NAN","NAN"],
    [1561923,"2026-07-13 06:40:00","550","3.492","54.94","6.174","70.29","NAN","NAN","NAN","NAN","NAN"],
    [1561924,"2026-07-13 06:50:00","551","3.5839999999999996","52.17","6.174","51.71","NAN","NAN","NAN","NAN","NAN"],
    [1561925,"2026-07-13 07:00:00","552","3.702","52.88","6.762","68.77","NAN","NAN","NAN","NAN","NAN"],
    [1561926,"2026-07-13 07:10:00","553","3.7560000000000002","61.59","6.37","57.08","NAN","NAN","NAN","NAN","NAN"],
    [1561927,"2026-07-13 07:20:00","554","4.123","56.72","7.252","31.45","NAN","NAN","NAN","NAN","NAN"],
    [1561928,"2026-07-13 07:30:00","555","4.691","60.56","7.84","52.57","NAN","NAN","NAN","NAN","NAN"],
    [1561929,"2026-07-13 07:40:00","556","4.686","59.26","7.448","75.97","NAN","NAN","NAN","NAN","NAN"],
    [1561930,"2026-07-13 07:50:00","557","6.125","63.85","9.31","86.8","NAN","NAN","NAN","NAN","NAN"],
    [1561931,"2026-07-13 08:00:00","558","5.296","62.98","8.23","64.04","NAN","NAN","NAN","NAN","NAN"],
    [1561932,"2026-07-13 08:10:00","559","4.9430000000000005","60.93","7.546","80","NAN","NAN","NAN","NAN","NAN"],
    [1561933,"2026-07-13 08:20:00","560","5.271","63.36","8.92","50.54","NAN","NAN","NAN","NAN","NAN"],
    [1561934,"2026-07-13 08:30:00","561","5.039","67.03","8.53","64.42","NAN","NAN","NAN","NAN","NAN"],
    [1561935,"2026-07-13 08:40:00","562","4.645","60.0","7.056","64.68","NAN","NAN","NAN","NAN","NAN"],
    [1561936,"2026-07-13 08:50:00","563","4.128","61.63","6.958","68.62","NAN","NAN","NAN","NAN","NAN"],
    [1561937,"2026-07-13 09:00:00","564","4.375","73.07","7.252","60.51","NAN","NAN","NAN","NAN","NAN"],
    [1561938,"2026-07-13 09:10:00","565","4.393","64.59","6.958","72.05","NAN","NAN","NAN","NAN","NAN"],
    [1561939,"2026-07-13 09:20:00","566","3.415","65.51","6.468","61.87","NAN","NAN","NAN","NAN","NAN"],
    [1561940,"2026-07-13 09:30:00","567","3.616","87.4","5.978","103.3","NAN","NAN","NAN","NAN","NAN"],
    [1561941,"2026-07-13 09:40:00","568","3.745","97.6","6.468","98.5","NAN","NAN","NAN","NAN","NAN"],
    [1561942,"2026-07-13 09:50:00","569","4.087","105.3","6.37","99.6","NAN","NAN","NAN","NAN","NAN"],
    [1561943,"2026-07-13 10:00:00","570","4.065","118.5","6.37","135.5","NAN","NAN","NAN","NAN","NAN"],
    [1561944,"2026-07-13 10:10:00","571","3.795","117.3","5.488","111.9","NAN","NAN","NAN","NAN","NAN"],
    [1561945,"2026-07-13 10:20:00","572","3.5639999999999996","114.3","5.39","104.9","NAN","NAN","NAN","NAN","NAN"],
    [1561946,"2026-07-13 10:30:00","573","3.258","115.4","5.194","112.3","NAN","NAN","NAN","NAN","NAN"],
    [1561947,"2026-07-13 10:40:00","574","3.373","96.9","4.998","112.1","NAN","NAN","NAN","NAN","NAN"],
    [1561948,"2026-07-13 10:50:00","575","3.2319999999999998","94.6","5.978","85.5","NAN","NAN","NAN","NAN","NAN"],
    [1561949,"2026-07-13 11:00:00","576","3.591","91.8","5.782","88.3","NAN","NAN","NAN","NAN","NAN"],
    [1561950,"2026-07-13 11:10:00","577","3.677","96.8","5.39","90.9","NAN","NAN","NAN","NAN","NAN"],
    [1561951,"2026-07-13 11:20:00","578","3.267","97.5","5.586","92.9","NAN","NAN","NAN","NAN","NAN"],
    [1561952,"2026-07-13 11:30:00","579","3.0610000000000004","94.3","5.096","106","NAN","NAN","NAN","NAN","NAN"],
    [1561953,"2026-07-13 11:40:00","580","3.466","97.6","5.782","101.1","NAN","NAN","NAN","NAN","NAN"],
    [1561954,"2026-07-13 11:50:00","581","3.3689999999999998","95.5","5.488","95.9","NAN","NAN","NAN","NAN","NAN"],
    [1561955,"2026-07-13 12:00:00","582","3.3480000000000003","92.3","6.272","66.13","NAN","NAN","NAN","NAN","NAN"],
    [1561956,"2026-07-13 12:10:00","583","4.093999999999999","73.13","6.468","66.73","NAN","NAN","NAN","NAN","NAN"],
    [1561957,"2026-07-13 12:20:00","584","4.297","60.88","6.37","65.86","NAN","NAN","NAN","NAN","NAN"],
    [1561958,"2026-07-13 12:30:00","585","4.215","59.9","6.86","80.5","NAN","NAN","NAN","NAN","NAN"],
    [1561959,"2026-07-13 12:40:00","586","4.5169999999999995","55.53","7.154","40.37","NAN","NAN","NAN","NAN","NAN"],
    [1561960,"2026-07-13 12:50:00","587","4.168","62.18","6.468","60.89","NAN","NAN","NAN","NAN","NAN"],
    [1561961,"2026-07-13 13:00:00","588","4.287","56.65","6.468","45.84","NAN","NAN","NAN","NAN","NAN"],
    [1561962,"2026-07-13 13:10:00","589","3.818","60.43","6.958","65.4","NAN","NAN","NAN","NAN","NAN"],
    [1561963,"2026-07-13 13:20:00","590","5.1979999999999995","67.45","7.35","64.46","NAN","NAN","NAN","NAN","NAN"],
    [1561964,"2026-07-13 13:30:00","591","4.65","68.63","7.644","54.23","NAN","NAN","NAN","NAN","NAN"],
    [1561965,"2026-07-13 13:40:00","592","3.955","67.63","6.566","66.65","NAN","NAN","NAN","NAN","NAN"],
    [1561966,"2026-07-13 13:50:00","593","4.532","70.78","7.35","71.07","NAN","NAN","NAN","NAN","NAN"],
    [1561967,"2026-07-13 14:00:00","594","3.8930000000000002","79.83","6.566","71.22","NAN","NAN","NAN","NAN","NAN"],
    [1561968,"2026-07-13 14:10:00","595","3.6889999999999996","95.2","6.174","101.5","NAN","NAN","NAN","NAN","NAN"],
    [1561969,"2026-07-13 14:20:00","596","3.457","108.9","5.488","117","NAN","NAN","NAN","NAN","NAN"],
    [1561970,"2026-07-13 14:30:00","597","3.306","94.6","5.096","59.91","NAN","NAN","NAN","NAN","NAN"],
    [1561971,"2026-07-13 14:40:00","598","3.563","74.1","5.978","65.05","NAN","NAN","NAN","NAN","NAN"],
    [1561972,"2026-07-13 14:50:00","599","3.205","75.34","5.194","66.76","NAN","NAN","NAN","NAN","NAN"],
    [1561973,"2026-07-13 15:00:00","600","3.3569999999999998","80.1","5.782","46.96","NAN","NAN","NAN","NAN","NAN"],
    [1561974,"2026-07-13 15:10:00","601","3.54","81.6","5.292","74.05","NAN","NAN","NAN","NAN","NAN"],
    [1561975,"2026-07-13 15:20:00","602","2.9130000000000003","91.2","4.606","90.8","NAN","NAN","NAN","NAN","NAN"],
    [1561976,"2026-07-13 15:30:00","603","2.639","102.1","4.508","102.1","NAN","NAN","NAN","NAN","NAN"],
    [1561977,"2026-07-13 15:40:00","604","3.0869999999999997","103.3","4.9","105.6","NAN","NAN","NAN","NAN","NAN"],
    [1561978,"2026-07-13 15:50:00","605","3.4339999999999997","95.0","5.194","95.7","NAN","NAN","NAN","NAN","NAN"],
    [1561979,"2026-07-13 16:00:00","606","3.1310000000000002","102.5","4.802","94.7","NAN","NAN","NAN","NAN","NAN"],
    [1561980,"2026-07-13 16:10:00","607","3.511","100.0","5.39","89.9","NAN","NAN","NAN","NAN","NAN"],
    [1561981,"2026-07-13 16:20:00","608","2.9730000000000003","98.6","4.802","82.7","NAN","NAN","NAN","NAN","NAN"],
    [1561982,"2026-07-13 16:30:00","609","3.475","98.1","4.704","105.3","NAN","NAN","NAN","NAN","NAN"],
    [1561983,"2026-07-13 16:40:00","610","2.9210000000000003","108.5","4.998","91.9","NAN","NAN","NAN","NAN","NAN"],
    [1561984,"2026-07-13 16:50:00","611","2.6889999999999996","97.7","3.626","77.19","NAN","NAN","NAN","NAN","NAN"],
    [1561985,"2026-07-13 17:00:00","612","2.64","110.5","3.822","92.3","NAN","NAN","NAN","NAN","NAN"],
    [1561986,"2026-07-13 17:10:00","613","2.8169999999999997","132.2","4.802","140","NAN","NAN","NAN","NAN","NAN"],
    [1561987,"2026-07-13 17:20:00","614","2.75","132.5","4.018","105.3","NAN","NAN","NAN","NAN","NAN"],
    [1561988,"2026-07-13 17:30:00","615","2.822","126.1","4.018","110.9","NAN","NAN","NAN","NAN","NAN"],
    [1561989,"2026-07-13 17:40:00","616","2.251","112.6","3.724","108.3","NAN","NAN","NAN","NAN","NAN"],
    [1561990,"2026-07-13 17:50:00","617","2.329","104.1","3.234","108.4","NAN","NAN","NAN","NAN","NAN"],
    [1561991,"2026-07-13 18:00:00","618","1.617","134.7","2.94","160.3","NAN","NAN","NAN","NAN","NAN"],
    [1561992,"2026-07-13 18:10:00","619","1.75","128.3","3.332","142.7","NAN","NAN","NAN","NAN","NAN"],
    [1561993,"2026-07-13 18:20:00","620","1.625","115.0","2.94","112.3","NAN","NAN","NAN","NAN","NAN"],
    [1561994,"2026-07-13 18:30:00","621","1.6580000000000001","122.3","2.646","131.3","NAN","NAN","NAN","NAN","NAN"],
    [1561995,"2026-07-13 18:40:00","622","1.526","122.7","2.254","109.8","NAN","NAN","NAN","NAN","NAN"],
    [1561996,"2026-07-13 18:50:00","623","1.649","113.3","2.744","112.5","NAN","NAN","NAN","NAN","NAN"],
    [1561997,"2026-07-13 19:00:00","624","1.6230000000000002","114.5","2.45","120.7","NAN","NAN","NAN","NAN","NAN"],
    [1561998,"2026-07-13 19:10:00","625","1.6880000000000002","104.9","2.45","108.6","NAN","NAN","NAN","NAN","NAN"],
    [1561999,"2026-07-13 19:20:00","626","1.095","97.2","2.156","95.4","NAN","NAN","NAN","NAN","NAN"],
    [1562000,"2026-07-13 19:30:00","627","0.627","93.6","1.274","93.9","NAN","NAN","NAN","NAN","NAN"],
    [1562001,"2026-07-13 19:40:00","628","1.101","91.1","1.862","89.5","NAN","NAN","NAN","NAN","NAN"],
    [1562002,"2026-07-13 19:50:00","629","1.245","93.2","1.862","86.8","NAN","NAN","NAN","NAN","NAN"],
    [1562003,"2026-07-13 20:00:00","630","1.244","95.5","2.058","91.9","NAN","NAN","NAN","NAN","NAN"],
    [1562004,"2026-07-13 20:10:00","631","1.2","99.7","1.862","108.4","NAN","NAN","NAN","NAN","NAN"],
    [1562005,"2026-07-13 20:20:00","632","0.946","95.3","1.666","94.4","NAN","NAN","NAN","NAN","NAN"],
    [1562006,"2026-07-13 20:30:00","633","0.9590000000000001","89.9","1.862","89.6","NAN","NAN","NAN","NAN","NAN"],
    [1562007,"2026-07-13 20:40:00","634","0.919","85.4","1.372","85.5","NAN","NAN","NAN","NAN","NAN"],
    [1562008,"2026-07-13 20:50:00","635","0.792","85.2","1.176","85.2","NAN","NAN","NAN","NAN","NAN"],
    [1562009,"2026-07-13 21:00:00","636","0.94","86.7","1.47","84.9","NAN","NAN","NAN","NAN","NAN"],
    [1562010,"2026-07-13 21:10:00","637","1.125","85.0","1.862","84.5","NAN","NAN","NAN","NAN","NAN"],
    [1562011,"2026-07-13 21:20:00","638","1.504","82.2","1.96","82.6","NAN","NAN","NAN","NAN","NAN"],
    [1562012,"2026-07-13 21:30:00","639","1.069","83.8","2.254","79.27","NAN","NAN","NAN","NAN","NAN"],
    [1562013,"2026-07-13 21:40:00","640","1.713","76.38","2.548","73.71","NAN","NAN","NAN","NAN","NAN"],
    [1562014,"2026-07-13 21:50:00","641","1.764","74.56","2.646","72.8","NAN","NAN","NAN","NAN","NAN"],
    [1562015,"2026-07-13 22:00:00","642","1.732","73.29","2.646","74.15","NAN","NAN","NAN","NAN","NAN"],
    [1562016,"2026-07-13 22:10:00","643","1.834","74.57","2.94","71.35","NAN","NAN","NAN","NAN","NAN"],
    [1562017,"2026-07-13 22:20:00","644","1.1079999999999999","83.0","2.156","81.1","NAN","NAN","NAN","NAN","NAN"],
    [1562018,"2026-07-13 22:30:00","645","1.013","90.0","1.568","90.6","NAN","NAN","NAN","NAN","NAN"],
    [1562019,"2026-07-13 22:40:00","646","1.3","93.8","2.352","91.2","NAN","NAN","NAN","NAN","NAN"],
    [1562020,"2026-07-13 22:50:00","647","1.061","97.3","1.96","98.8","NAN","NAN","NAN","NAN","NAN"],
    [1562021,"2026-07-13 23:00:00","648","1.615","107.8","2.352","105.8","NAN","NAN","NAN","NAN","NAN"],
    [1562022,"2026-07-13 23:10:00","649","1.07","103.4","1.862","102.4","NAN","NAN","NAN","NAN","NAN"],
    [1562023,"2026-07-13 23:20:00","650","0.7390000000000001","101.8","1.372","100.5","NAN","NAN","NAN","NAN","NAN"],
    [1562024,"2026-07-13 23:30:00","651","0.972","100.3","1.568","99.2","NAN","NAN","NAN","NAN","NAN"],
    [1562025,"2026-07-13 23:40:00","652","0.996","98.0","1.666","98.7","NAN","NAN","NAN","NAN","NAN"],
    [1562026,"2026-07-13 23:50:00","653","1.1","92.1","2.058","88.5","NAN","NAN","NAN","NAN","NAN"],
    [1562027,"2026-07-14 00:00:00","654","1.624","81.0","2.744","81.5","NAN","NAN","NAN","NAN","NAN"],
    [1562028,"2026-07-14 00:10:00","655","1.611","77.36","2.45","75.7","NAN","NAN","NAN","NAN","NAN"],
    [1562029,"2026-07-14 00:20:00","656","1.5590000000000002","73.67","2.548","73.72","NAN","NAN","NAN","NAN","NAN"],
    [1562030,"2026-07-14 00:30:00","657","1.294","77.27","2.254","74.25","NAN","NAN","NAN","NAN","NAN"],
    [1562031,"2026-07-14 00:40:00","658","1.444","73.72","1.862","83.8","NAN","NAN","NAN","NAN","NAN"],
    [1562032,"2026-07-14 00:50:00","659","1.6280000000000001","77.52","3.038","71.46","NAN","NAN","NAN","NAN","NAN"],
    [1562033,"2026-07-14 01:00:00","660","2.129","71.08","3.136","67.3","NAN","NAN","NAN","NAN","NAN"],
    [1562034,"2026-07-14 01:10:00","661","1.726","71.35","2.744","74.83","NAN","NAN","NAN","NAN","NAN"],
    [1562035,"2026-07-14 01:20:00","662","1.6380000000000001","66.36","3.724","71.65","NAN","NAN","NAN","NAN","NAN"],
    [1562036,"2026-07-14 01:30:00","663","1.719","67.84","3.038","67.52","NAN","NAN","NAN","NAN","NAN"],
    [1562037,"2026-07-14 01:40:00","664","1.659","68.89","2.842","75.65","NAN","NAN","NAN","NAN","NAN"],
    [1562038,"2026-07-14 01:50:00","665","1.831","69.94","3.528","73.48","NAN","NAN","NAN","NAN","NAN"],
    [1562039,"2026-07-14 02:00:00","666","1.5859999999999999","75.81","2.94","75.79","NAN","NAN","NAN","NAN","NAN"],
    [1562040,"2026-07-14 02:10:00","667","2.149","75.26","4.116","64.25","NAN","NAN","NAN","NAN","NAN"],
    [1562041,"2026-07-14 02:20:00","668","2.186","72.62","3.724","72.04","NAN","NAN","NAN","NAN","NAN"],
    [1562042,"2026-07-14 02:30:00","669","2.428","71.43","4.018","72.51","NAN","NAN","NAN","NAN","NAN"],
    [1562043,"2026-07-14 02:40:00","670","2.491","75.25","3.822","73.28","NAN","NAN","NAN","NAN","NAN"],
    [1562044,"2026-07-14 02:50:00","671","2.024","65.2","3.626","58.08","NAN","NAN","NAN","NAN","NAN"],
    [1562045,"2026-07-14 03:00:00","672","1.9040000000000001","58.38","3.528","65.01","NAN","NAN","NAN","NAN","NAN"],
    [1562046,"2026-07-14 03:10:00","673","2.623","52.85","4.116","62.79","NAN","NAN","NAN","NAN","NAN"],
    [1562047,"2026-07-14 03:20:00","674","2.8369999999999997","48.9","5.194","38.57","NAN","NAN","NAN","NAN","NAN"],
    [1562048,"2026-07-14 03:30:00","675","2.897","51.59","4.9","45.76","NAN","NAN","NAN","NAN","NAN"],
    [1562049,"2026-07-14 03:40:00","676","2.219","56.25","4.018","66.26","NAN","NAN","NAN","NAN","NAN"],
    [1562050,"2026-07-14 03:50:00","677","2.408","50.26","3.822","41.12","NAN","NAN","NAN","NAN","NAN"],
    [1562051,"2026-07-14 04:00:00","678","2.6460000000000004","42.78","3.822","47.42","NAN","NAN","NAN","NAN","NAN"],
    [1562052,"2026-07-14 04:10:00","679","2.833","37.87","4.41","43.46","NAN","NAN","NAN","NAN","NAN"],
    [1562053,"2026-07-14 04:20:00","680","2.7769999999999997","37.38","4.214","40.47","NAN","NAN","NAN","NAN","NAN"],
    [1562054,"2026-07-14 04:30:00","681","2.6910000000000003","37.71","4.018","29.5","NAN","NAN","NAN","NAN","NAN"],
    [1562055,"2026-07-14 04:40:00","682","2.256","32.93","3.92","27.31","NAN","NAN","NAN","NAN","NAN"],
    [1562056,"2026-07-14 04:50:00","683","1.756","32.76","3.136","24.5","NAN","NAN","NAN","NAN","NAN"],
    [1562057,"2026-07-14 05:00:00","684","1.9269999999999998","26.19","2.94","21.87","NAN","NAN","NAN","NAN","NAN"],
    [1562058,"2026-07-14 05:10:00","685","1.3630000000000002","30.81","2.352","20.65","NAN","NAN","NAN","NAN","NAN"],
    [1562059,"2026-07-14 05:20:00","686","1.5090000000000001","29.01","2.45","34.5","NAN","NAN","NAN","NAN","NAN"],
    [1562060,"2026-07-14 05:30:00","687","1.963","30.77","2.842","25.99","NAN","NAN","NAN","NAN","NAN"],
    [1562061,"2026-07-14 05:40:00","688","1.62","29.15","2.744","27.67","NAN","NAN","NAN","NAN","NAN"],
    [1562062,"2026-07-14 05:50:00","689","1.854","31.73","3.234","36.72","NAN","NAN","NAN","NAN","NAN"],
    [1562063,"2026-07-14 06:00:00","690","1.956","21.12","3.038","32.53","NAN","NAN","NAN","NAN","NAN"],
    [1562064,"2026-07-14 06:10:00","691","2.188","23.05","3.234","12.3","NAN","NAN","NAN","NAN","NAN"],
    [1562065,"2026-07-14 06:20:00","692","1.51","47.75","3.234","60.16","NAN","NAN","NAN","NAN","NAN"],
    [1562066,"2026-07-14 06:30:00","693","1.916","41.68","3.136","47.64","NAN","NAN","NAN","NAN","NAN"],
    [1562067,"2026-07-14 06:40:00","694","1.3330000000000002","66.14","2.352","75.22","NAN","NAN","NAN","NAN","NAN"],
    [1562068,"2026-07-14 06:50:00","695","1.263","71.79","2.646","82","NAN","NAN","NAN","NAN","NAN"],
    [1562069,"2026-07-14 07:00:00","696","1.899","87.8","3.332","101.7","NAN","NAN","NAN","NAN","NAN"],
    [1562070,"2026-07-14 07:10:00","697","1.9709999999999999","88.2","3.234","63.36","NAN","NAN","NAN","NAN","NAN"],
    [1562071,"2026-07-14 07:20:00","698","2.4619999999999997","110.1","3.92","113.1","NAN","NAN","NAN","NAN","NAN"],
    [1562072,"2026-07-14 07:30:00","699","3.094","124.6","4.214","115.9","NAN","NAN","NAN","NAN","NAN"],
    [1562073,"2026-07-14 07:40:00","700","2.658","120.5","3.724","134.4","NAN","NAN","NAN","NAN","NAN"],
    [1562074,"2026-07-14 07:50:00","701","2.6439999999999997","123.6","3.822","135.9","NAN","NAN","NAN","NAN","NAN"],
    [1562075,"2026-07-14 08:00:00","702","3.2289999999999996","120.7","4.508","125.6","NAN","NAN","NAN","NAN","NAN"],
    [1562076,"2026-07-14 08:10:00","703","3.051","116.6","4.312","105.1","NAN","NAN","NAN","NAN","NAN"],
    [1562077,"2026-07-14 08:20:00","704","3.219","128.7","5.096","135.5","NAN","NAN","NAN","NAN","NAN"],
    [1562078,"2026-07-14 08:30:00","705","3.201","124.0","4.802","150.8","NAN","NAN","NAN","NAN","NAN"],
    [1562079,"2026-07-14 08:40:00","706","2.95","127.9","4.802","141.4","NAN","NAN","NAN","NAN","NAN"],
    [1562080,"2026-07-14 08:50:00","707","2.991","127.9","4.998","142.9","NAN","NAN","NAN","NAN","NAN"],
    [1562081,"2026-07-14 09:00:00","708","3.332","123.9","4.998","142.9","NAN","NAN","NAN","NAN","NAN"],
    [1562082,"2026-07-14 09:10:00","709","2.883","128.6","4.998","104.1","NAN","NAN","NAN","NAN","NAN"],
    [1562083,"2026-07-14 09:20:00","710","2.6060000000000003","135.7","4.802","146.6","NAN","NAN","NAN","NAN","NAN"],
    [1562084,"2026-07-14 09:30:00","711","3.057","133.3","5.096","137.2","NAN","NAN","NAN","NAN","NAN"],
    [1562085,"2026-07-14 09:40:00","712","3.4539999999999997","136.2","5.292","136.7","NAN","NAN","NAN","NAN","NAN"],
    [1562086,"2026-07-14 09:50:00","713","3.423","135.3","5.096","138.4","NAN","NAN","NAN","NAN","NAN"],
    [1562087,"2026-07-14 10:00:00","714","3.423","140.1","5.488","153.3","NAN","NAN","NAN","NAN","NAN"],
    [1562088,"2026-07-14 10:10:00","715","3.3","135.0","4.998","139.7","NAN","NAN","NAN","NAN","NAN"],
    [1562089,"2026-07-14 10:20:00","716","3.7289999999999996","135.8","5.194","132","NAN","NAN","NAN","NAN","NAN"],
    [1562090,"2026-07-14 10:30:00","717","3.596","148.5","5.488","130.4","NAN","NAN","NAN","NAN","NAN"],
    [1562091,"2026-07-14 10:40:00","718","3.4730000000000003","131.8","5.39","132.9","NAN","NAN","NAN","NAN","NAN"],
    [1562092,"2026-07-14 10:50:00","719","3.747","141.7","5.488","119.8","NAN","NAN","NAN","NAN","NAN"],
    [1562093,"2026-07-14 11:00:00","720","3.84","139.4","5.88","148.2","NAN","NAN","NAN","NAN","NAN"],
    [1562094,"2026-07-14 11:10:00","721","4.031000000000001","138.4","5.586","134.5","NAN","NAN","NAN","NAN","NAN"],
    [1562095,"2026-07-14 11:20:00","722","3.761","145.9","5.978","172.9","NAN","NAN","NAN","NAN","NAN"],
    [1562096,"2026-07-14 11:30:00","723","3.759","146.9","5.978","167.4","NAN","NAN","NAN","NAN","NAN"],
    [1562097,"2026-07-14 11:40:00","724","3.14","147.1","5.194","141.1","NAN","NAN","NAN","NAN","NAN"],
    [1562098,"2026-07-14 11:50:00","725","2.845","130.2","4.704","160.2","NAN","NAN","NAN","NAN","NAN"],
    [1562099,"2026-07-14 12:00:00","726","3.266","130.4","4.606","136.6","NAN","NAN","NAN","NAN","NAN"],
    [1562100,"2026-07-14 12:10:00","727","3.174","134.1","4.998","140.1","NAN","NAN","NAN","NAN","NAN"],
    [1562101,"2026-07-14 12:20:00","728","3.696","135.5","5.488","136.4","NAN","NAN","NAN","NAN","NAN"],
    [1562102,"2026-07-14 12:30:00","729","3.594","129.6","5.292","136.2","NAN","NAN","NAN","NAN","NAN"],
    [1562103,"2026-07-14 12:40:00","730","3.503","129.5","5.096","138.3","NAN","NAN","NAN","NAN","NAN"],
    [1562104,"2026-07-14 12:50:00","731","3.4610000000000003","128.4","4.9","148","NAN","NAN","NAN","NAN","NAN"],
    [1562105,"2026-07-14 13:00:00","732","3.043","128.1","5.096","145.8","NAN","NAN","NAN","NAN","NAN"],
    [1562106,"2026-07-14 13:10:00","733","3.1919999999999997","136.1","5.782","138.3","NAN","NAN","NAN","NAN","NAN"],
    [1562107,"2026-07-14 13:20:00","734","3.345","126.3","5.684","102","NAN","NAN","NAN","NAN","NAN"],
    [1562108,"2026-07-14 13:30:00","735","3.043","123.0","4.9","137.8","NAN","NAN","NAN","NAN","NAN"],
    [1562109,"2026-07-14 13:40:00","736","2.8810000000000002","115.9","4.018","130.3","NAN","NAN","NAN","NAN","NAN"],
    [1562110,"2026-07-14 13:50:00","737","3.0610000000000004","131.5","5.292","128","NAN","NAN","NAN","NAN","NAN"],
    [1562111,"2026-07-14 14:00:00","738","2.909","138.8","4.41","123","NAN","NAN","NAN","NAN","NAN"],
    [1562112,"2026-07-14 14:10:00","739","3.1180000000000003","112.3","5.096","133.9","NAN","NAN","NAN","NAN","NAN"],
    [1562113,"2026-07-14 14:20:00","740","2.9389999999999996","125.2","4.998","132","NAN","NAN","NAN","NAN","NAN"],
    [1562114,"2026-07-14 14:30:00","741","3.1710000000000003","133.6","4.802","130.8","NAN","NAN","NAN","NAN","NAN"],
    [1562115,"2026-07-14 14:40:00","742","3.049","130.7","4.802","141.7","NAN","NAN","NAN","NAN","NAN"],
    [1562116,"2026-07-14 14:50:00","743","2.45","146.0","3.92","85.1","NAN","NAN","NAN","NAN","NAN"],
    [1562117,"2026-07-14 15:00:00","744","2.623","139.4","4.312","128.3","NAN","NAN","NAN","NAN","NAN"],
    [1562118,"2026-07-14 15:10:00","745","2.404","168.7","4.802","160.4","NAN","NAN","NAN","NAN","NAN"],
    [1562119,"2026-07-14 15:20:00","746","2.6010000000000004","155.4","3.92","175.8","NAN","NAN","NAN","NAN","NAN"],
    [1562120,"2026-07-14 15:30:00","747","2.955","153.7","4.508","147","NAN","NAN","NAN","NAN","NAN"],
    [1562121,"2026-07-14 15:40:00","748","3.054","149.7","3.92","168.7","NAN","NAN","NAN","NAN","NAN"],
    [1562122,"2026-07-14 15:50:00","749","3.0839999999999996","153.1","4.214","162.7","NAN","NAN","NAN","NAN","NAN"],
    [1562123,"2026-07-14 16:00:00","750","2.885","143.1","4.214","141.6","NAN","NAN","NAN","NAN","NAN"],
    [1562124,"2026-07-14 16:10:00","751","2.133","173.9","3.822","154.9","NAN","NAN","NAN","NAN","NAN"],
    [1562125,"2026-07-14 16:20:00","752","2.543","181.9","4.9","184.1","NAN","NAN","NAN","NAN","NAN"],
    [1562126,"2026-07-14 16:30:00","753","2.8489999999999998","178.3","5.39","176.1","NAN","NAN","NAN","NAN","NAN"],
    [1562127,"2026-07-14 16:40:00","754","2.545","188.0","4.312","197.7","NAN","NAN","NAN","NAN","NAN"],
    [1562128,"2026-07-14 16:50:00","755","2.06","192.3","4.116","167.2","NAN","NAN","NAN","NAN","NAN"],
    [1562129,"2026-07-14 17:00:00","756","2.4419999999999997","195.8","4.018","162.4","NAN","NAN","NAN","NAN","NAN"],
    [1562130,"2026-07-14 17:10:00","757","2.481","207.5","4.508","207","NAN","NAN","NAN","NAN","NAN"],
    [1562131,"2026-07-14 17:20:00","758","2.455","211.8","3.822","213.4","NAN","NAN","NAN","NAN","NAN"],
    [1562132,"2026-07-14 17:30:00","759","2.86","207.2","4.998","206.5","NAN","NAN","NAN","NAN","NAN"],
    [1562133,"2026-07-14 17:40:00","760","2.4130000000000003","208.2","4.508","220.1","NAN","NAN","NAN","NAN","NAN"],
    [1562134,"2026-07-14 17:50:00","761","2.9819999999999998","213.8","4.116","211.1","NAN","NAN","NAN","NAN","NAN"],
    [1562135,"2026-07-14 18:00:00","762","2.88","212.2","4.802","226.1","NAN","NAN","NAN","NAN","NAN"],
    [1562136,"2026-07-14 18:10:00","763","3.372","215.0","5.586","228.7","NAN","NAN","NAN","NAN","NAN"],
    [1562137,"2026-07-14 18:20:00","764","2.62","210.9","4.508","204.1","NAN","NAN","NAN","NAN","NAN"],
    [1562138,"2026-07-14 18:30:00","765","2.467","240.7","4.704","212.2","NAN","NAN","NAN","NAN","NAN"],
    [1562139,"2026-07-14 18:40:00","766","2.376","224.8","3.626","214.8","NAN","NAN","NAN","NAN","NAN"],
    [1562140,"2026-07-14 18:50:00","767","3.074","233.9","4.998","241.4","NAN","NAN","NAN","NAN","NAN"],
    [1562141,"2026-07-14 19:00:00","768","2.5780000000000003","217.6","4.018","207.8","NAN","NAN","NAN","NAN","NAN"],
    [1562142,"2026-07-14 19:10:00","769","2.488","232.1","4.41","233.7","NAN","NAN","NAN","NAN","NAN"],
    [1562143,"2026-07-14 19:20:00","770","2.371","225.8","3.822","214.7","NAN","NAN","NAN","NAN","NAN"],
    [1562144,"2026-07-14 19:30:00","771","2.845","230.0","4.802","238.2","NAN","NAN","NAN","NAN","NAN"],
    [1562145,"2026-07-14 19:40:00","772","2.275","230.4","4.704","239.5","NAN","NAN","NAN","NAN","NAN"],
    [1562146,"2026-07-14 19:50:00","773","2.7089999999999996","237.8","4.41","221.9","NAN","NAN","NAN","NAN","NAN"],
    [1562147,"2026-07-14 20:00:00","774","2.7430000000000003","244.1","4.508","251.1","NAN","NAN","NAN","NAN","NAN"],
    [1562148,"2026-07-14 20:10:00","775","2.8710000000000004","247.8","4.998","259.3","NAN","NAN","NAN","NAN","NAN"],
    [1562149,"2026-07-14 20:20:00","776","2.419","241.2","4.9","257.6","NAN","NAN","NAN","NAN","NAN"],
    [1562150,"2026-07-14 20:30:00","777","3.326","233.8","6.174","239.3","NAN","NAN","NAN","NAN","NAN"],
    [1562151,"2026-07-14 20:40:00","778","3.165","238.6","5.88","219.5","NAN","NAN","NAN","NAN","NAN"],
    [1562152,"2026-07-14 20:50:00","779","2.24","234.1","3.92","222.5","NAN","NAN","NAN","NAN","NAN"],
    [1562153,"2026-07-14 21:00:00","780","0.898","238.5","3.332","238.3","NAN","NAN","NAN","NAN","NAN"],
    [1562154,"2026-07-14 21:10:00","781","0.321","255.8","0.98","251.7","NAN","NAN","NAN","NAN","NAN"],
    [1562155,"2026-07-14 21:20:00","782","0.151","252.7","0.784","234.6","NAN","NAN","NAN","NAN","NAN"],
    [1562156,"2026-07-14 21:30:00","783","1.8","257.4","3.332","267.6","NAN","NAN","NAN","NAN","NAN"],
    [1562157,"2026-07-14 21:40:00","784","0.758","244.7","2.646","256","NAN","NAN","NAN","NAN","NAN"],
    [1562158,"2026-07-14 21:50:00","785","0.879","231.9","2.842","215.7","NAN","NAN","NAN","NAN","NAN"],
    [1562159,"2026-07-14 22:00:00","786","1.9869999999999999","212.4","4.312","216.5","NAN","NAN","NAN","NAN","NAN"],
    [1562160,"2026-07-14 22:10:00","787","2.659","239.8","4.312","216.5","NAN","NAN","NAN","NAN","NAN"],
    [1562161,"2026-07-14 22:20:00","788","3.193","250.5","4.704","257.5","NAN","NAN","NAN","NAN","NAN"],
    [1562162,"2026-07-14 22:30:00","789","3.3160000000000003","249.4","5.488","261.6","NAN","NAN","NAN","NAN","NAN"],
    [1562163,"2026-07-14 22:40:00","790","3.009","247.2","4.116","247.1","NAN","NAN","NAN","NAN","NAN"],
    [1562164,"2026-07-14 22:50:00","791","2.654","250.2","3.92","249.5","NAN","NAN","NAN","NAN","NAN"],
    [1562165,"2026-07-14 23:00:00","792","2.682","254.6","5.096","250.2","NAN","NAN","NAN","NAN","NAN"],
    [1562166,"2026-07-14 23:10:00","793","2.322","249.0","4.018","244.1","NAN","NAN","NAN","NAN","NAN"],
    [1562167,"2026-07-14 23:20:00","794","2.168","251.9","3.528","251.2","NAN","NAN","NAN","NAN","NAN"],
    [1562168,"2026-07-14 23:30:00","795","2.265","238.6","4.508","239","NAN","NAN","NAN","NAN","NAN"],
    [1562169,"2026-07-14 23:40:00","796","3.015","245.0","5.39","249.7","NAN","NAN","NAN","NAN","NAN"],
    [1562170,"2026-07-14 23:50:00","797","3.407","247.0","5.488","255.6","NAN","NAN","NAN","NAN","NAN"],
    [1562171,"2026-07-15 00:00:00","798","3.128","243.7","5.39","244.3","NAN","NAN","NAN","NAN","NAN"],
    [1562172,"2026-07-15 00:10:00","799","2.565","234.3","4.9","236.4","NAN","NAN","NAN","NAN","NAN"],
    [1562173,"2026-07-15 00:20:00","800","2.9530000000000003","231.9","5.194","221","NAN","NAN","NAN","NAN","NAN"],
    [1562174,"2026-07-15 00:30:00","801","3.135","234.6","6.076","234.9","NAN","NAN","NAN","NAN","NAN"],
    [1562175,"2026-07-15 00:40:00","802","3.52","244.8","7.84","260.4","NAN","NAN","NAN","NAN","NAN"],
    [1562176,"2026-07-15 00:50:00","803","3.8960000000000004","250.1","5.292","238.1","NAN","NAN","NAN","NAN","NAN"],
    [1562177,"2026-07-15 01:00:00","804","3.715","247.9","6.272","255.4","NAN","NAN","NAN","NAN","NAN"],
    [1562178,"2026-07-15 01:10:00","805","3.679","248.9","5.194","251.7","NAN","NAN","NAN","NAN","NAN"],
    [1562179,"2026-07-15 01:20:00","806","4.004","251.2","5.39","258.4","NAN","NAN","NAN","NAN","NAN"],
    [1562180,"2026-07-15 01:30:00","807","2.097","259.3","3.528","235.2","NAN","NAN","NAN","NAN","NAN"],
    [1562181,"2026-07-15 01:40:00","808","2.307","272.0","3.332","284.6","NAN","NAN","NAN","NAN","NAN"],
    [1562182,"2026-07-15 01:50:00","809","2.004","271.7","3.234","273.4","NAN","NAN","NAN","NAN","NAN"],
    [1562183,"2026-07-15 02:00:00","810","1.757","273.4","4.018","252","NAN","NAN","NAN","NAN","NAN"],
    [1562184,"2026-07-15 02:10:00","811","1.615","295.6","2.548","300.2","NAN","NAN","NAN","NAN","NAN"],
    [1562185,"2026-07-15 02:20:00","812","1.8130000000000002","294.0","3.038","288","NAN","NAN","NAN","NAN","NAN"],
    [1562186,"2026-07-15 02:30:00","813","1.5859999999999999","275.6","2.45","279.3","NAN","NAN","NAN","NAN","NAN"],
    [1562187,"2026-07-15 02:40:00","814","1.002","272.1","1.568","273","NAN","NAN","NAN","NAN","NAN"],
    [1562188,"2026-07-15 02:50:00","815","1.199","277.7","1.96","276.5","NAN","NAN","NAN","NAN","NAN"],
    [1562189,"2026-07-15 03:00:00","816","0.715","272.9","1.47","276.9","NAN","NAN","NAN","NAN","NAN"],
    [1562190,"2026-07-15 03:10:00","817","0.207","279.7","0.882","279.9","NAN","NAN","NAN","NAN","NAN"],
    [1562191,"2026-07-15 03:20:00","818","1.0090000000000001","275.3","1.666","271.4","NAN","NAN","NAN","NAN","NAN"],
    [1562192,"2026-07-15 03:30:00","819","1.666","264.0","2.548","267.8","NAN","NAN","NAN","NAN","NAN"],
    [1562193,"2026-07-15 03:40:00","820","1.7369999999999999","264.3","2.45","257.1","NAN","NAN","NAN","NAN","NAN"],
    [1562194,"2026-07-15 03:50:00","821","1.374","266.6","2.254","267.6","NAN","NAN","NAN","NAN","NAN"],
    [1562195,"2026-07-15 04:00:00","822","0.9","271.5","1.862","272.6","NAN","NAN","NAN","NAN","NAN"],
    [1562196,"2026-07-15 04:10:00","823","1.158","269.5","1.96","269.9","NAN","NAN","NAN","NAN","NAN"],
    [1562197,"2026-07-15 04:20:00","824","1.0590000000000002","269.8","1.764","269.1","NAN","NAN","NAN","NAN","NAN"],
    [1562198,"2026-07-15 04:30:00","825","1.229","265.0","2.156","267.6","NAN","NAN","NAN","NAN","NAN"],
    [1562199,"2026-07-15 04:40:00","826","0.988","272.4","1.764","270.1","NAN","NAN","NAN","NAN","NAN"],
    [1562200,"2026-07-15 04:50:00","827","1.05","271.4","2.156","273.6","NAN","NAN","NAN","NAN","NAN"],
    [1562201,"2026-07-15 05:00:00","828","1.379","270.6","2.058","270.2","NAN","NAN","NAN","NAN","NAN"],
    [1562202,"2026-07-15 05:10:00","829","1.4","257.9","2.744","253","NAN","NAN","NAN","NAN","NAN"],
    [1562203,"2026-07-15 05:20:00","830","1.7380000000000002","267.6","2.744","274.2","NAN","NAN","NAN","NAN","NAN"],
    [1562204,"2026-07-15 05:30:00","831","2.142","264.2","3.136","278.6","NAN","NAN","NAN","NAN","NAN"],
    [1562205,"2026-07-15 05:40:00","832","1.776","253.5","2.94","246.8","NAN","NAN","NAN","NAN","NAN"],
    [1562206,"2026-07-15 05:50:00","833","1.6340000000000001","242.7","2.744","240.4","NAN","NAN","NAN","NAN","NAN"],
    [1562207,"2026-07-15 06:00:00","834","2.105","226.8","3.43","221.2","NAN","NAN","NAN","NAN","NAN"],
    [1562208,"2026-07-15 06:10:00","835","2.11","232.7","4.508","221.6","NAN","NAN","NAN","NAN","NAN"],
    [1562209,"2026-07-15 06:20:00","836","2.699","230.3","4.9","255.3","NAN","NAN","NAN","NAN","NAN"],
    [1562210,"2026-07-15 06:30:00","837","2.9","229.4","5.096","229.1","NAN","NAN","NAN","NAN","NAN"],
    [1562211,"2026-07-15 06:40:00","838","2.785","226.9","4.9","200.6","NAN","NAN","NAN","NAN","NAN"],
    [1562212,"2026-07-15 06:50:00","839","2.576","232.4","4.606","222.8","NAN","NAN","NAN","NAN","NAN"],
    [1562213,"2026-07-15 07:00:00","840","2.415","236.5","4.9","243.6","NAN","NAN","NAN","NAN","NAN"],
    [1562214,"2026-07-15 07:10:00","841","2.77","250.8","4.606","242.1","NAN","NAN","NAN","NAN","NAN"],
    [1562215,"2026-07-15 07:20:00","842","2.833","243.5","4.704","251.5","NAN","NAN","NAN","NAN","NAN"],
    [1562216,"2026-07-15 07:30:00","843","2.6069999999999998","242.2","4.312","266.2","NAN","NAN","NAN","NAN","NAN"],
    [1562217,"2026-07-15 07:40:00","844","2.06","235.0","3.234","254.6","NAN","NAN","NAN","NAN","NAN"],
    [1562218,"2026-07-15 07:50:00","845","0.966","314.5","2.058","319.5","NAN","NAN","NAN","NAN","NAN"],
    [1562219,"2026-07-15 08:00:00","846","0.532","297.8","1.862","323.6","NAN","NAN","NAN","NAN","NAN"],
    [1562220,"2026-07-15 08:10:00","847","0.563","311.2","1.862","316.7","NAN","NAN","NAN","NAN","NAN"],
    [1562221,"2026-07-15 08:20:00","848","1.089","261.5","3.822","209","NAN","NAN","NAN","NAN","NAN"],
    [1562222,"2026-07-15 08:30:00","849","4.208","207.2","7.056","206.8","NAN","NAN","NAN","NAN","NAN"],
    [1562223,"2026-07-15 08:40:00","850","5.029","211.4","8.53","212.9","NAN","NAN","NAN","NAN","NAN"],
    [1562224,"2026-07-15 08:50:00","851","3.8789999999999996","215.9","7.35","219.4","NAN","NAN","NAN","NAN","NAN"],
    [1562225,"2026-07-15 09:00:00","852","3.023","240.4","4.9","251.2","NAN","NAN","NAN","NAN","NAN"],
    [1562226,"2026-07-15 09:10:00","853","2.806","237.1","5.194","229.1","NAN","NAN","NAN","NAN","NAN"],
    [1562227,"2026-07-15 09:20:00","0","2.044","201.3","4.116","211.5","NAN","NAN","NAN","NAN","NAN"],
    [1562228,"2026-07-15 09:30:00","1","2.362","204.2","4.116","211.5","NAN","NAN","NAN","NAN","NAN"],
    [1562229,"2026-07-15 09:40:00","2","2.219","201.8","4.214","197.2","NAN","NAN","NAN","NAN","NAN"],
    [1562230,"2026-07-15 09:50:00","3","3.05","203.7","5.586","206.9","NAN","NAN","NAN","NAN","NAN"],
    [1562231,"2026-07-15 10:00:00","4","3.2510000000000003","212.4","4.9","209.3","NAN","NAN","NAN","NAN","NAN"],
    [1562232,"2026-07-15 10:10:00","5","2.499","224.9","4.9","206.4","NAN","NAN","NAN","NAN","NAN"],
    [1562233,"2026-07-15 10:20:00","6","2.379","231.4","4.018","229.2","NAN","NAN","NAN","NAN","NAN"],
    [1562234,"2026-07-15 10:30:00","7","2.7230000000000003","216.4","5.096","200.3","NAN","NAN","NAN","NAN","NAN"],
    [1562235,"2026-07-15 10:40:00","8","2.2680000000000002","225.1","4.41","239.3","NAN","NAN","NAN","NAN","NAN"],
    [1562236,"2026-07-15 10:50:00","9","3.745","211.0","6.664","213.9","NAN","NAN","NAN","NAN","NAN"],
    [1562237,"2026-07-15 11:00:00","10","3.623","216.2","8.13","196.7","NAN","NAN","NAN","NAN","NAN"],
    [1562238,"2026-07-15 11:10:00","11","4.556","205.8","8.33","197","NAN","NAN","NAN","NAN","NAN"],
    [1562239,"2026-07-15 11:20:00","12","6.04","217.2","13.03","212.1","NAN","NAN","NAN","NAN","NAN"],
    [1562240,"2026-07-15 11:30:00","13","6.89","215.7","13.03","212.1","NAN","NAN","NAN","NAN","NAN"],
    [1562241,"2026-07-15 11:40:00","14","6.136","212.9","10","224.2","NAN","NAN","NAN","NAN","NAN"],
    [1562242,"2026-07-15 11:50:00","15","6.792000000000001","230.3","15.58","249","NAN","NAN","NAN","NAN","NAN"],
    [1562243,"2026-07-15 12:00:00","0","4.553","228.3","9.41","236.1","NAN","NAN","NAN","NAN","NAN"],
    [1562244,"2026-07-15 12:10:00","1","6.832999999999999","230.0","11.56","227.1","NAN","NAN","NAN","NAN","NAN"],
    [1562245,"2026-07-15 12:20:00","2","6.296","237.1","10.29","227.7","NAN","NAN","NAN","NAN","NAN"],
    [1562246,"2026-07-15 12:30:00","3","6.563","230.3","11.86","225.2","NAN","NAN","NAN","NAN","NAN"],
    [1562247,"2026-07-15 12:40:00","4","4.856","236.8","10.58","238","NAN","NAN","NAN","NAN","NAN"],
    [1562248,"2026-07-15 12:50:00","5","4.766","224.2","8.62","216.8","NAN","NAN","NAN","NAN","NAN"],
    [1562249,"2026-07-15 13:00:00","6","5.388999999999999","221.8","9.31","214.3","NAN","NAN","NAN","NAN","NAN"],
    [1562250,"2026-07-15 13:10:00","7","5.371","228.7","10.29","228.3","NAN","NAN","NAN","NAN","NAN"],
    [1562251,"2026-07-15 13:20:00","8","5.534","226.7","10","221.2","NAN","NAN","NAN","NAN","NAN"],
    [1562252,"2026-07-15 13:30:00","9","6.349","227.3","10.78","208.2","NAN","NAN","NAN","NAN","NAN"],
    [1562253,"2026-07-15 13:40:00","10","5.181","222.2","9.21","243.7","NAN","NAN","NAN","NAN","NAN"],
    [1562254,"2026-07-15 13:50:00","11","4.2219999999999995","229.1","7.938","243.3","NAN","NAN","NAN","NAN","NAN"],
    [1562255,"2026-07-15 14:00:00","12","4.542","224.2","7.84","229.4","NAN","NAN","NAN","NAN","NAN"],
    [1562256,"2026-07-15 14:10:00","13","4.039","212.1","6.566","204.1","NAN","NAN","NAN","NAN","NAN"],
    [1562257,"2026-07-15 14:20:00","14","4.854","206.1","7.84","211.7","NAN","NAN","NAN","NAN","NAN"],
    [1562258,"2026-07-15 14:30:00","15","5.481","212.4","8.82","228.3","NAN","NAN","NAN","NAN","NAN"],
    [1562259,"2026-07-15 14:40:00","16","5.635","214.6","8.53","226","NAN","NAN","NAN","NAN","NAN"],
    [1562260,"2026-07-15 14:50:00","17","4.784","209.7","7.644","229","NAN","NAN","NAN","NAN","NAN"],
    [1562261,"2026-07-15 15:00:00","18","3.342","228.5","6.958","225.9","NAN","NAN","NAN","NAN","NAN"],
    [1562262,"2026-07-15 15:10:00","19","2.8510000000000004","199.1","5.194","268.9","NAN","NAN","NAN","NAN","NAN"],
    [1562263,"2026-07-15 15:20:00","20","3.408","214.0","6.174","222.9","NAN","NAN","NAN","NAN","NAN"],
    [1562264,"2026-07-15 15:30:00","21","2.627","213.0","6.076","216.7","NAN","NAN","NAN","NAN","NAN"],
    [1562265,"2026-07-15 15:40:00","22","3.5860000000000003","220.5","6.37","216.3","NAN","NAN","NAN","NAN","NAN"],
    [1562266,"2026-07-15 15:50:00","23","3.822","231.0","6.468","247.3","NAN","NAN","NAN","NAN","NAN"],
    [1562267,"2026-07-15 16:00:00","24","5.615","229.5","9.6","224.3","NAN","NAN","NAN","NAN","NAN"],
    [1562268,"2026-07-15 16:10:00","25","5.008","224.1","8.23","220.4","NAN","NAN","NAN","NAN","NAN"],
    [1562269,"2026-07-15 16:20:00","26","5.023","218.7","9.21","204.7","NAN","NAN","NAN","NAN","NAN"],
    [1562270,"2026-07-15 16:30:00","27","5.021","224.1","8.13","194.1","NAN","NAN","NAN","NAN","NAN"],
    [1562271,"2026-07-15 16:40:00","28","4.658","219.9","7.448","225.8","NAN","NAN","NAN","NAN","NAN"],
    [1562272,"2026-07-15 16:50:00","29","4.686","220.0","7.154","223.5","NAN","NAN","NAN","NAN","NAN"],
    [1562273,"2026-07-15 17:00:00","30","6.574","223.8","10.78","212.8","NAN","NAN","NAN","NAN","NAN"],
    [1562274,"2026-07-15 17:10:00","31","5.787000000000001","219.8","9.7","219.7","NAN","NAN","NAN","NAN","NAN"],
    [1562275,"2026-07-15 17:20:00","32","5.171","216.5","8.53","212.1","NAN","NAN","NAN","NAN","NAN"],
    [1562276,"2026-07-15 17:30:00","33","4.646","235.6","7.546","223.4","NAN","NAN","NAN","NAN","NAN"],
    [1562277,"2026-07-15 17:40:00","34","3.907","219.6","6.762","207.2","NAN","NAN","NAN","NAN","NAN"],
    [1562278,"2026-07-15 17:50:00","35","3.6689999999999996","229.6","6.762","222.3","NAN","NAN","NAN","NAN","NAN"],
    [1562279,"2026-07-15 18:00:00","36","3.675","230.1","6.762","250.7","NAN","NAN","NAN","NAN","NAN"],
    [1562280,"2026-07-15 18:10:00","37","4.283","235.7","6.664","235.3","NAN","NAN","NAN","NAN","NAN"],
    [1562281,"2026-07-15 18:20:00","38","4.001","233.9","6.762","218.5","NAN","NAN","NAN","NAN","NAN"],
    [1562282,"2026-07-15 18:30:00","39","3.676","223.6","5.782","221.1","NAN","NAN","NAN","NAN","NAN"],
    [1562283,"2026-07-15 18:40:00","40","3.3169999999999997","232.4","6.37","234.7","NAN","NAN","NAN","NAN","NAN"],
    [1562284,"2026-07-15 18:50:00","41","3.0589999999999997","237.3","5.488","218.4","NAN","NAN","NAN","NAN","NAN"],
    [1562285,"2026-07-15 19:00:00","42","2.262","246.4","4.802","235","NAN","NAN","NAN","NAN","NAN"],
    [1562286,"2026-07-15 19:10:00","43","3.161","259.6","5.488","243.8","NAN","NAN","NAN","NAN","NAN"],
    [1562287,"2026-07-15 19:20:00","44","2.233","262.4","3.724","247.7","NAN","NAN","NAN","NAN","NAN"],
    [1562288,"2026-07-15 19:30:00","45","2.611","262.1","4.312","248.6","NAN","NAN","NAN","NAN","NAN"],
    [1562289,"2026-07-15 19:40:00","46","1.814","248.9","3.234","227.4","NAN","NAN","NAN","NAN","NAN"],
    [1562290,"2026-07-15 19:50:00","47","2.017","263.3","3.234","252.9","NAN","NAN","NAN","NAN","NAN"],
    [1562291,"2026-07-15 20:00:00","48","2.5069999999999997","264.1","4.116","251.9","NAN","NAN","NAN","NAN","NAN"],
    [1562292,"2026-07-15 20:10:00","49","2.2159999999999997","233.0","4.606","215.8","NAN","NAN","NAN","NAN","NAN"],
    [1562293,"2026-07-15 20:20:00","50","2.9730000000000003","226.2","6.076","216.8","NAN","NAN","NAN","NAN","NAN"],
    [1562294,"2026-07-15 20:30:00","51","2.696","240.4","4.214","249.9","NAN","NAN","NAN","NAN","NAN"],
    [1562295,"2026-07-15 20:40:00","52","3.266","247.4","5.88","238.8","NAN","NAN","NAN","NAN","NAN"],
    [1562296,"2026-07-15 20:50:00","53","4.011","233.4","6.272","225.3","NAN","NAN","NAN","NAN","NAN"],
    [1562297,"2026-07-15 21:00:00","54","2.9019999999999997","263.8","5.586","253.7","NAN","NAN","NAN","NAN","NAN"],
    [1562298,"2026-07-15 21:10:00","55","2.186","268.2","3.528","256.4","NAN","NAN","NAN","NAN","NAN"],
    [1562299,"2026-07-15 21:20:00","56","2.4090000000000003","257.8","3.822","251.5","NAN","NAN","NAN","NAN","NAN"],
    [1562300,"2026-07-15 21:30:00","57","1.52","243.3","3.136","242.7","NAN","NAN","NAN","NAN","NAN"],
    [1562301,"2026-07-15 21:40:00","58","1.787","256.1","3.724","262.1","NAN","NAN","NAN","NAN","NAN"],
    [1562302,"2026-07-15 21:50:00","59","2.086","255.9","3.43","249.2","NAN","NAN","NAN","NAN","NAN"],
    [1562303,"2026-07-15 22:00:00","60","1.466","247.5","2.94","240.1","NAN","NAN","NAN","NAN","NAN"],
    [1562304,"2026-07-15 22:10:00","61","1.484","265.0","3.234","251.9","NAN","NAN","NAN","NAN","NAN"],
    [1562305,"2026-07-15 22:20:00","62","0.6509999999999999","236.1","2.254","224.5","NAN","NAN","NAN","NAN","NAN"],
    [1562306,"2026-07-15 22:30:00","63","0.7929999999999999","348.9","2.352","346.7","NAN","NAN","NAN","NAN","NAN"],
    [1562307,"2026-07-15 22:40:00","64","0.634","353.6","1.372","353.7","NAN","NAN","NAN","NAN","NAN"],
    [1562308,"2026-07-15 22:50:00","65","0.551","8.23","2.254","167.3","NAN","NAN","NAN","NAN","NAN"],
    [1562309,"2026-07-15 23:00:00","66","1.6540000000000001","180.7","3.92","179","NAN","NAN","NAN","NAN","NAN"],
    [1562310,"2026-07-15 23:10:00","67","0.077","184.4","0.882","189","NAN","NAN","NAN","NAN","NAN"],
    [1562311,"2026-07-15 23:20:00","68","0.265","118.3","0.784","171.1","NAN","NAN","NAN","NAN","NAN"],
    [1562312,"2026-07-15 23:30:00","69","0.16899999999999998","103.6","0.784","102","NAN","NAN","NAN","NAN","NAN"],
    [1562313,"2026-07-15 23:40:00","70","0.149","115.3","0.686","118.1","NAN","NAN","NAN","NAN","NAN"],
    [1562314,"2026-07-15 23:50:00","71","0.56","88.4","2.45","39.51","NAN","NAN","NAN","NAN","NAN"],
    [1562315,"2026-07-16 00:00:00","72","1.319","28.7","2.646","32.98","NAN","NAN","NAN","NAN","NAN"],
    [1562316,"2026-07-16 00:10:00","73","0.498","23.2","1.666","22.66","NAN","NAN","NAN","NAN","NAN"],
    [1562317,"2026-07-16 00:20:00","74","0.079","21.04","0.49","21.03","NAN","NAN","NAN","NAN","NAN"],
    [1562318,"2026-07-16 00:30:00","75","0.249","26.33","0.784","28.46","NAN","NAN","NAN","NAN","NAN"],
    [1562319,"2026-07-16 00:40:00","76","1.1","44.36","2.646","58.46","NAN","NAN","NAN","NAN","NAN"],
    [1562320,"2026-07-16 00:50:00","77","0.977","72.2","2.646","65.46","NAN","NAN","NAN","NAN","NAN"],
    [1562321,"2026-07-16 01:00:00","78","1.675","68.58","2.744","71.71","NAN","NAN","NAN","NAN","NAN"],
    [1562322,"2026-07-16 01:10:00","79","1.557","71.51","2.352","64.13","NAN","NAN","NAN","NAN","NAN"],
    [1562323,"2026-07-16 01:20:00","80","2.099","69.79","3.626","74.4","NAN","NAN","NAN","NAN","NAN"],
    [1562324,"2026-07-16 01:30:00","81","2.569","87.2","4.018","94.9","NAN","NAN","NAN","NAN","NAN"],
    [1562325,"2026-07-16 01:40:00","82","2.281","96.3","3.92","99.9","NAN","NAN","NAN","NAN","NAN"],
    [1562326,"2026-07-16 01:50:00","83","1.756","91.9","2.94","109.8","NAN","NAN","NAN","NAN","NAN"],
    [1562327,"2026-07-16 02:00:00","84","1.714","101.2","3.332","93.4","NAN","NAN","NAN","NAN","NAN"],
    [1562328,"2026-07-16 02:10:00","85","1.681","97.3","3.136","85.6","NAN","NAN","NAN","NAN","NAN"],
    [1562329,"2026-07-16 02:20:00","86","2.02","76.88","2.94","72.21","NAN","NAN","NAN","NAN","NAN"],
    [1562330,"2026-07-16 02:30:00","87","2.377","86.9","4.018","77.41","NAN","NAN","NAN","NAN","NAN"],
    [1562331,"2026-07-16 02:40:00","88","2.481","77.66","3.43","71.54","NAN","NAN","NAN","NAN","NAN"],
    [1562332,"2026-07-16 02:50:00","89","1.531","78.76","3.038","77.22","NAN","NAN","NAN","NAN","NAN"],
    [1562333,"2026-07-16 03:00:00","90","0.595","88.1","1.862","88.2","NAN","NAN","NAN","NAN","NAN"],
    [1562334,"2026-07-16 03:10:00","91","1.965","17.14","5.194","65.29","NAN","NAN","NAN","NAN","NAN"],
    [1562335,"2026-07-16 03:20:00","92","4.388999999999999","106.5","6.958","90.4","NAN","NAN","NAN","NAN","NAN"],
    [1562336,"2026-07-16 03:30:00","93","3.0039999999999996","91.5","6.468","96","NAN","NAN","NAN","NAN","NAN"],
    [1562337,"2026-07-16 03:40:00","94","1.652","94.0","3.234","71.71","NAN","NAN","NAN","NAN","NAN"],
    [1562338,"2026-07-16 03:50:00","95","0.779","107.1","1.568","107.7","NAN","NAN","NAN","NAN","NAN"],
    [1562339,"2026-07-16 04:00:00","96","0.909","90.2","3.038","45.19","NAN","NAN","NAN","NAN","NAN"],
    [1562340,"2026-07-16 04:10:00","97","1.69","64.67","3.528","41.82","NAN","NAN","NAN","NAN","NAN"],
    [1562341,"2026-07-16 04:20:00","98","2.099","90.3","5.096","105.5","NAN","NAN","NAN","NAN","NAN"],
    [1562342,"2026-07-16 04:30:00","99","2.84","90.3","4.998","91.9","NAN","NAN","NAN","NAN","NAN"],
    [1562343,"2026-07-16 04:40:00","100","3.193","81.0","5.292","83.2","NAN","NAN","NAN","NAN","NAN"],
    [1562344,"2026-07-16 04:50:00","101","2.545","86.4","4.41","74.21","NAN","NAN","NAN","NAN","NAN"],
    [1562345,"2026-07-16 05:00:00","102","1.755","83.4","3.136","103.3","NAN","NAN","NAN","NAN","NAN"],
    [1562346,"2026-07-16 05:10:00","103","1.9709999999999999","52.31","3.332","55.47","NAN","NAN","NAN","NAN","NAN"],
    [1562347,"2026-07-16 05:20:00","104","2.6630000000000003","47.31","3.822","37.21","NAN","NAN","NAN","NAN","NAN"],
    [1562348,"2026-07-16 05:30:00","105","2.764","69.09","4.606","61.9","NAN","NAN","NAN","NAN","NAN"],
    [1562349,"2026-07-16 05:40:00","106","3.2689999999999997","71.55","5.782","74.81","NAN","NAN","NAN","NAN","NAN"],
    [1562350,"2026-07-16 05:50:00","107","2.8169999999999997","71.42","5.782","76.64","NAN","NAN","NAN","NAN","NAN"],
    [1562351,"2026-07-16 06:00:00","108","3.4410000000000003","81.5","6.566","87.2","NAN","NAN","NAN","NAN","NAN"],
    [1562352,"2026-07-16 06:10:00","109","3.9539999999999997","76.87","7.154","70.48","NAN","NAN","NAN","NAN","NAN"],
    [1562353,"2026-07-16 06:20:00","110","2.9989999999999997","79.55","5.586","70.96","NAN","NAN","NAN","NAN","NAN"],
    [1562354,"2026-07-16 06:30:00","111","3.283","78.83","5.194","73.44","NAN","NAN","NAN","NAN","NAN"],
    [1562355,"2026-07-16 06:40:00","112","3.635","83.5","5.978","87.4","NAN","NAN","NAN","NAN","NAN"],
    [1562356,"2026-07-16 06:50:00","113","3.7319999999999998","79.73","6.272","75.25","NAN","NAN","NAN","NAN","NAN"],
    [1562357,"2026-07-16 07:00:00","114","3.687","79.69","5.88","84.8","NAN","NAN","NAN","NAN","NAN"],
    [1562358,"2026-07-16 07:10:00","115","2.92","63.11","4.802","67.31","NAN","NAN","NAN","NAN","NAN"],
    [1562359,"2026-07-16 07:20:00","116","1.854","57.65","3.724","67.75","NAN","NAN","NAN","NAN","NAN"],
    [1562360,"2026-07-16 07:30:00","117","2.75","63.32","4.9","72.03","NAN","NAN","NAN","NAN","NAN"],
    [1562361,"2026-07-16 07:40:00","118","3.39","67.5","5.586","66.06","NAN","NAN","NAN","NAN","NAN"],
    [1562362,"2026-07-16 07:50:00","119","3.466","75.29","4.802","73.3","NAN","NAN","NAN","NAN","NAN"],
    [1562363,"2026-07-16 08:00:00","120","3.11","73.33","4.9","75.27","NAN","NAN","NAN","NAN","NAN"],
    [1562364,"2026-07-16 08:10:00","121","3.6","69.6","5.096","69.53","NAN","NAN","NAN","NAN","NAN"],
    [1562365,"2026-07-16 08:20:00","122","3.51","72.89","5.684","64.31","NAN","NAN","NAN","NAN","NAN"],
    [1562366,"2026-07-16 08:30:00","123","3.148","91.6","4.998","95.2","NAN","NAN","NAN","NAN","NAN"],
    [1562367,"2026-07-16 08:40:00","124","2.94","90.0","4.214","100.4","NAN","NAN","NAN","NAN","NAN"],
    [1562368,"2026-07-16 08:50:00","125","2.011","77.18","4.508","60.45","NAN","NAN","NAN","NAN","NAN"],
    [1562369,"2026-07-16 09:00:00","126","4.515","63.68","7.546","54.92","NAN","NAN","NAN","NAN","NAN"],
    [1562370,"2026-07-16 09:10:00","127","3.972","72.04","6.86","88.3","NAN","NAN","NAN","NAN","NAN"],
    [1562371,"2026-07-16 09:20:00","128","4.026","66.34","6.958","59.34","NAN","NAN","NAN","NAN","NAN"],
    [1562372,"2026-07-16 09:30:00","129","4.787","67.51","7.252","68.89","NAN","NAN","NAN","NAN","NAN"],
    [1562373,"2026-07-16 09:40:00","130","4.226","71.78","7.742","76.38","NAN","NAN","NAN","NAN","NAN"],
    [1562374,"2026-07-16 09:50:00","131","4.275","72.37","7.644","68.85","NAN","NAN","NAN","NAN","NAN"],
    [1562375,"2026-07-16 10:00:00","132","4.079","78.07","5.978","71.64","NAN","NAN","NAN","NAN","NAN"],
    [1562376,"2026-07-16 10:10:00","133","3.3489999999999998","96.5","5.782","102.2","NAN","NAN","NAN","NAN","NAN"],
    [1562377,"2026-07-16 10:20:00","134","3.995","99.0","6.566","104.2","NAN","NAN","NAN","NAN","NAN"],
    [1562378,"2026-07-16 10:30:00","135","3.529","94.4","5.488","102.6","NAN","NAN","NAN","NAN","NAN"],
    [1562379,"2026-07-16 10:40:00","136","3.717","81.8","5.88","80.2","NAN","NAN","NAN","NAN","NAN"],
    [1562380,"2026-07-16 10:50:00","137","4.129","99.2","6.272","103.1","NAN","NAN","NAN","NAN","NAN"],
    [1562381,"2026-07-16 11:00:00","138","3.7510000000000003","90.9","6.174","131.3","NAN","NAN","NAN","NAN","NAN"],
    [1562382,"2026-07-16 11:10:00","139","4.178999999999999","98.1","6.37","101.4","NAN","NAN","NAN","NAN","NAN"],
    [1562383,"2026-07-16 11:20:00","140","4.162","99.0","5.978","83.1","NAN","NAN","NAN","NAN","NAN"],
    [1562384,"2026-07-16 11:30:00","141","3.6639999999999997","90.4","6.272","71.02","NAN","NAN","NAN","NAN","NAN"],
    [1562385,"2026-07-16 11:40:00","142","3.5269999999999997","104.0","5.684","103.8","NAN","NAN","NAN","NAN","NAN"],
    [1562386,"2026-07-16 11:50:00","143","3.799","101.4","6.37","96.9","NAN","NAN","NAN","NAN","NAN"],
    [1562387,"2026-07-16 12:00:00","144","3.94","105.2","6.566","116.3","NAN","NAN","NAN","NAN","NAN"],
    [1562388,"2026-07-16 12:10:00","145","3.682","104.5","6.076","128.9","NAN","NAN","NAN","NAN","NAN"],
    [1562389,"2026-07-16 12:20:00","146","2.905","97.0","5.488","83","NAN","NAN","NAN","NAN","NAN"],
    [1562390,"2026-07-16 12:30:00","147","3.57","107.2","5.88","118.3","NAN","NAN","NAN","NAN","NAN"],
    [1562391,"2026-07-16 12:40:00","148","3.915","112.5","6.664","119.3","NAN","NAN","NAN","NAN","NAN"],
    [1562392,"2026-07-16 12:50:00","149","4.0760000000000005","105.2","6.566","89.7","NAN","NAN","NAN","NAN","NAN"],
    [1562393,"2026-07-16 13:00:00","150","4.313","107.9","7.938","97.1","NAN","NAN","NAN","NAN","NAN"],
    [1562394,"2026-07-16 13:10:00","151","3.943","103.4","6.468","93.2","NAN","NAN","NAN","NAN","NAN"],
    [1562395,"2026-07-16 13:20:00","152","4.144","101.5","6.566","120.8","NAN","NAN","NAN","NAN","NAN"],
    [1562396,"2026-07-16 13:30:00","153","3.366","91.0","5.096","70.17","NAN","NAN","NAN","NAN","NAN"],
    [1562397,"2026-07-16 13:40:00","154","3.265","109.4","5.194","97.8","NAN","NAN","NAN","NAN","NAN"],
    [1562398,"2026-07-16 13:50:00","155","2.609","102.4","4.606","104.2","NAN","NAN","NAN","NAN","NAN"],
    [1562399,"2026-07-16 14:00:00","156","2.764","117.1","4.606","112.4","NAN","NAN","NAN","NAN","NAN"],
    [1562400,"2026-07-16 14:10:00","157","3.2539999999999996","113.7","5.684","116","NAN","NAN","NAN","NAN","NAN"],
    [1562401,"2026-07-16 14:20:00","158","3.266","112.8","5.88","117.5","NAN","NAN","NAN","NAN","NAN"],
    [1562402,"2026-07-16 14:30:00","159","3.5260000000000002","95.2","6.272","104.6","NAN","NAN","NAN","NAN","NAN"],
    [1562403,"2026-07-16 14:40:00","160","2.8569999999999998","74.39","4.998","63.74","NAN","NAN","NAN","NAN","NAN"],
    [1562404,"2026-07-16 14:50:00","161","2.88","50.59","4.998","49.23","NAN","NAN","NAN","NAN","NAN"],
    [1562405,"2026-07-16 15:00:00","162","4.101","55.97","7.35","57.63","NAN","NAN","NAN","NAN","NAN"],
    [1562406,"2026-07-16 15:10:00","163","2.7460000000000004","59.21","4.606","72.45","NAN","NAN","NAN","NAN","NAN"],
    [1562407,"2026-07-16 15:20:00","164","3.804","60.42","7.056","71.08","NAN","NAN","NAN","NAN","NAN"],
    [1562408,"2026-07-16 15:30:00","165","4.496","59.75","9.11","62.42","NAN","NAN","NAN","NAN","NAN"],
    [1562409,"2026-07-16 15:40:00","166","4.258","87.4","8.33","88.5","NAN","NAN","NAN","NAN","NAN"],
    [1562410,"2026-07-16 15:50:00","167","3.305","102.1","6.174","117.1","NAN","NAN","NAN","NAN","NAN"],
    [1562411,"2026-07-16 16:00:00","168","2.795","116.5","4.606","132.7","NAN","NAN","NAN","NAN","NAN"],
    [1562412,"2026-07-16 16:10:00","169","2.477","105.3","4.214","113.4","NAN","NAN","NAN","NAN","NAN"],
    [1562413,"2026-07-16 16:20:00","170","3.205","89.2","5.096","69.44","NAN","NAN","NAN","NAN","NAN"],
    [1562414,"2026-07-16 16:30:00","171","3.92","60.52","6.272","60.23","NAN","NAN","NAN","NAN","NAN"],
    [1562415,"2026-07-16 16:40:00","172","2.867","58.39","5.488","69.06","NAN","NAN","NAN","NAN","NAN"],
    [1562416,"2026-07-16 16:50:00","173","3.497","73.19","5.684","75.89","NAN","NAN","NAN","NAN","NAN"],
    [1562417,"2026-07-16 17:00:00","174","2.885","39.03","5.488","33.93","NAN","NAN","NAN","NAN","NAN"],
    [1562418,"2026-07-16 17:10:00","175","2.638","53.54","5.39","61.21","NAN","NAN","NAN","NAN","NAN"],
    [1562419,"2026-07-16 17:20:00","176","2.603","67.01","4.704","79.26","NAN","NAN","NAN","NAN","NAN"],
    [1562420,"2026-07-16 17:30:00","177","3.324","70.93","5.096","67.74","NAN","NAN","NAN","NAN","NAN"],
    [1562421,"2026-07-16 17:40:00","178","2.499","82.3","4.214","102.4","NAN","NAN","NAN","NAN","NAN"],
    [1562422,"2026-07-16 17:50:00","179","3.6510000000000002","69.27","5.488","67.32","NAN","NAN","NAN","NAN","NAN"],
    [1562423,"2026-07-16 18:00:00","180","4.351","69.15","5.88","64.44","NAN","NAN","NAN","NAN","NAN"],
    [1562424,"2026-07-16 18:10:00","181","3.622","75.18","6.076","72.33","NAN","NAN","NAN","NAN","NAN"],
    [1562425,"2026-07-16 18:20:00","182","3.443","77.31","5.586","69.74","NAN","NAN","NAN","NAN","NAN"],
    [1562426,"2026-07-16 18:30:00","183","2.6060000000000003","88.3","4.312","77.82","NAN","NAN","NAN","NAN","NAN"],
    [1562427,"2026-07-16 18:40:00","184","2.552","99.7","4.312","95.4","NAN","NAN","NAN","NAN","NAN"],
    [1562428,"2026-07-16 18:50:00","185","2.27","96.8","3.724","91.6","NAN","NAN","NAN","NAN","NAN"],
    [1562429,"2026-07-16 19:00:00","186","1.993","87.0","4.214","62.79","NAN","NAN","NAN","NAN","NAN"],
    [1562430,"2026-07-16 19:10:00","187","1.724","85.8","3.136","103.6","NAN","NAN","NAN","NAN","NAN"],
    [1562431,"2026-07-16 19:20:00","188","1.5859999999999999","78.28","2.744","75.89","NAN","NAN","NAN","NAN","NAN"],
    [1562432,"2026-07-16 19:30:00","189","1.2830000000000001","85.5","2.156","93.5","NAN","NAN","NAN","NAN","NAN"],
    [1562433,"2026-07-16 19:40:00","190","1.9380000000000002","96.3","3.136","92.6","NAN","NAN","NAN","NAN","NAN"],
    [1562434,"2026-07-16 19:50:00","191","1.89","92.4","3.136","91.4","NAN","NAN","NAN","NAN","NAN"],
    [1562435,"2026-07-16 20:00:00","192","1.37","101.7","2.156","106.7","NAN","NAN","NAN","NAN","NAN"],
    [1562436,"2026-07-16 20:10:00","193","1.814","73.07","2.842","69.14","NAN","NAN","NAN","NAN","NAN"],
    [1562437,"2026-07-16 20:20:00","194","1.402","55.04","2.254","49.84","NAN","NAN","NAN","NAN","NAN"],
    [1562438,"2026-07-16 20:30:00","195","1.053","62.16","1.862","63.84","NAN","NAN","NAN","NAN","NAN"],
    [1562439,"2026-07-16 20:40:00","196","0.7440000000000001","64.78","1.47","65","NAN","NAN","NAN","NAN","NAN"],
    [1562440,"2026-07-16 20:50:00","197","1.092","64.65","1.862","61.44","NAN","NAN","NAN","NAN","NAN"],
    [1562441,"2026-07-16 21:00:00","198","1.158","64.62","1.666","57.97","NAN","NAN","NAN","NAN","NAN"],
    [1562442,"2026-07-16 21:10:00","199","0.96","66.48","1.47","66.25","NAN","NAN","NAN","NAN","NAN"],
    [1562443,"2026-07-16 21:20:00","200","1.157","53.53","1.862","51.72","NAN","NAN","NAN","NAN","NAN"],
    [1562444,"2026-07-16 21:30:00","201","1.3969999999999998","55.22","2.352","58.46","NAN","NAN","NAN","NAN","NAN"],
    [1562445,"2026-07-16 21:40:00","202","1.594","58.44","2.842","48.93","NAN","NAN","NAN","NAN","NAN"],
    [1562446,"2026-07-16 21:50:00","203","1.494","62.03","2.548","64.04","NAN","NAN","NAN","NAN","NAN"],
    [1562447,"2026-07-16 22:00:00","204","1.347","61.4","2.156","56.73","NAN","NAN","NAN","NAN","NAN"],
    [1562448,"2026-07-16 22:10:00","205","1.072","59.52","1.666","67.12","NAN","NAN","NAN","NAN","NAN"],
    [1562449,"2026-07-16 22:20:00","206","1.004","66.75","2.156","66.25","NAN","NAN","NAN","NAN","NAN"],
    [1562450,"2026-07-16 22:30:00","207","1.41","63.46","2.058","67.89","NAN","NAN","NAN","NAN","NAN"],
    [1562451,"2026-07-16 22:40:00","208","1.188","66.59","1.96","64.54","NAN","NAN","NAN","NAN","NAN"],
    [1562452,"2026-07-16 22:50:00","209","0.82","70.8","1.666","69.91","NAN","NAN","NAN","NAN","NAN"],
    [1562453,"2026-07-16 23:00:00","210","0.628","69.58","1.568","63.37","NAN","NAN","NAN","NAN","NAN"],
    [1562454,"2026-07-16 23:10:00","211","0.47","62.73","1.176","70.49","NAN","NAN","NAN","NAN","NAN"],
    [1562455,"2026-07-16 23:20:00","212","0.0","0.0","0","64.04","NAN","NAN","NAN","NAN","NAN"],
    [1562456,"2026-07-16 23:30:00","213","0.20600000000000002","56.68","0.882","56.54","NAN","NAN","NAN","NAN","NAN"],
    [1562457,"2026-07-16 23:40:00","214","0.45","52.0","1.372","51.15","NAN","NAN","NAN","NAN","NAN"],
    [1562458,"2026-07-16 23:50:00","215","0.0","0.0","0","56.64","NAN","NAN","NAN","NAN","NAN"],
    [1562459,"2026-07-17 00:00:00","216","0.473","56.24","0.882","51.41","NAN","NAN","NAN","NAN","NAN"],
    [1562460,"2026-07-17 00:10:00","217","0.174","48.27","0.686","48.46","NAN","NAN","NAN","NAN","NAN"],
    [1562461,"2026-07-17 00:20:00","218","0.551","47.9","0.98","47.88","NAN","NAN","NAN","NAN","NAN"],
    [1562462,"2026-07-17 00:30:00","219","0.317","47.43","1.078","47.45","NAN","NAN","NAN","NAN","NAN"],
    [1562463,"2026-07-17 00:40:00","220","0.115","47.39","0.49","47.35","NAN","NAN","NAN","NAN","NAN"],
    [1562464,"2026-07-17 00:50:00","221","0.527","47.77","1.176","55","NAN","NAN","NAN","NAN","NAN"],
    [1562465,"2026-07-17 01:00:00","222","0.284","71.43","1.176","75.22","NAN","NAN","NAN","NAN","NAN"],
    [1562466,"2026-07-17 01:10:00","223","0.845","107.6","1.96","108.3","NAN","NAN","NAN","NAN","NAN"],
    [1562467,"2026-07-17 01:20:00","224","0.767","124.2","1.274","117.8","NAN","NAN","NAN","NAN","NAN"],
    [1562468,"2026-07-17 01:30:00","225","0.184","162.5","0.784","189.3","NAN","NAN","NAN","NAN","NAN"],
    [1562469,"2026-07-17 01:40:00","226","0.613","211.2","1.568","227.9","NAN","NAN","NAN","NAN","NAN"],
    [1562470,"2026-07-17 01:50:00","227","1.318","237.5","1.96","236.6","NAN","NAN","NAN","NAN","NAN"],
    [1562471,"2026-07-17 02:00:00","228","1.3359999999999999","240.8","2.156","241","NAN","NAN","NAN","NAN","NAN"],
    [1562472,"2026-07-17 02:10:00","229","1.349","246.7","1.862","246.9","NAN","NAN","NAN","NAN","NAN"],
    [1562473,"2026-07-17 02:20:00","230","0.988","250.2","1.666","249.5","NAN","NAN","NAN","NAN","NAN"],
    [1562474,"2026-07-17 02:30:00","231","0.47700000000000004","250.8","0.882","250.7","NAN","NAN","NAN","NAN","NAN"],
    [1562475,"2026-07-17 02:40:00","232","0.6459999999999999","251.2","1.176","252","NAN","NAN","NAN","NAN","NAN"],
    [1562476,"2026-07-17 02:50:00","233","0.8340000000000001","253.2","1.47","252.9","NAN","NAN","NAN","NAN","NAN"],
    [1562477,"2026-07-17 03:00:00","234","0.309","253.6","0.784","253.6","NAN","NAN","NAN","NAN","NAN"],
    [1562478,"2026-07-17 03:10:00","235","0.127","254.1","0.588","253.9","NAN","NAN","NAN","NAN","NAN"],
    [1562479,"2026-07-17 03:20:00","236","0.013000000000000001","255.0","0.294","255.1","NAN","NAN","NAN","NAN","NAN"],
    [1562480,"2026-07-17 03:30:00","237","0.317","255.1","1.078","255.3","NAN","NAN","NAN","NAN","NAN"],
    [1562481,"2026-07-17 03:40:00","238","0.716","275.8","1.47","256.1","NAN","NAN","NAN","NAN","NAN"],
    [1562482,"2026-07-17 03:50:00","239","0.39399999999999996","294.8","1.764","298.1","NAN","NAN","NAN","NAN","NAN"],
    [1562483,"2026-07-17 04:00:00","240","0.461","310.1","1.764","298.1","NAN","NAN","NAN","NAN","NAN"],
    [1562484,"2026-07-17 04:10:00","241","1.869","43.12","4.018","43.36","NAN","NAN","NAN","NAN","NAN"],
    [1562485,"2026-07-17 04:20:00","242","3.0410000000000004","68.8","6.958","75.63","NAN","NAN","NAN","NAN","NAN"],
    [1562486,"2026-07-17 04:30:00","243","4.542","74.22","6.86","79.86","NAN","NAN","NAN","NAN","NAN"],
    [1562487,"2026-07-17 04:40:00","244","4.431","72.53","6.076","70.09","NAN","NAN","NAN","NAN","NAN"],
    [1562488,"2026-07-17 04:50:00","245","3.522","70.56","5.782","57.32","NAN","NAN","NAN","NAN","NAN"],
    [1562489,"2026-07-17 05:00:00","246","3.3739999999999997","61.76","6.174","69.8","NAN","NAN","NAN","NAN","NAN"],
    [1562490,"2026-07-17 05:10:00","247","3.873","66.72","6.664","88.3","NAN","NAN","NAN","NAN","NAN"],
    [1562491,"2026-07-17 05:20:00","248","3.405","67.36","6.664","59.9","NAN","NAN","NAN","NAN","NAN"],
    [1562492,"2026-07-17 05:30:00","249","2.923","67.44","5.292","69.5","NAN","NAN","NAN","NAN","NAN"],
    [1562493,"2026-07-17 05:40:00","250","2.5869999999999997","66.38","4.41","89.6","NAN","NAN","NAN","NAN","NAN"],
    [1562494,"2026-07-17 05:50:00","251","2.478","61.48","4.41","49.96","NAN","NAN","NAN","NAN","NAN"],
    [1562495,"2026-07-17 06:00:00","252","2.41","63.3","5.194","55.09","NAN","NAN","NAN","NAN","NAN"],
    [1562496,"2026-07-17 06:10:00","253","1.966","65.78","3.822","53.93","NAN","NAN","NAN","NAN","NAN"],
    [1562497,"2026-07-17 06:20:00","254","2.326","62.29","4.41","87.1","NAN","NAN","NAN","NAN","NAN"],
    [1562498,"2026-07-17 06:30:00","255","1.757","72.48","4.41","54.41","NAN","NAN","NAN","NAN","NAN"],
    [1562499,"2026-07-17 06:40:00","256","2.1590000000000003","59.59","4.606","47.61","NAN","NAN","NAN","NAN","NAN"],
    [1562500,"2026-07-17 06:50:00","257","2.044","78.4","3.626","32.69","NAN","NAN","NAN","NAN","NAN"],
    [1562501,"2026-07-17 07:00:00","258","2.8360000000000003","46.01","5.096","43.2","NAN","NAN","NAN","NAN","NAN"],
    [1562502,"2026-07-17 07:10:00","259","2.4659999999999997","66.36","4.018","54.13","NAN","NAN","NAN","NAN","NAN"],
    [1562503,"2026-07-17 07:20:00","260","2.004","80.8","3.822","93.1","NAN","NAN","NAN","NAN","NAN"],
    [1562504,"2026-07-17 07:30:00","261","1.886","74.02","3.92","86.6","NAN","NAN","NAN","NAN","NAN"],
    [1562505,"2026-07-17 07:40:00","262","2.089","81.1","3.822","99.6","NAN","NAN","NAN","NAN","NAN"],
    [1562506,"2026-07-17 07:50:00","263","2.189","94.0","3.43","87.5","NAN","NAN","NAN","NAN","NAN"],
    [1562507,"2026-07-17 08:00:00","264","1.8259999999999998","95.3","3.136","106","NAN","NAN","NAN","NAN","NAN"],
    [1562508,"2026-07-17 08:10:00","265","2.2880000000000003","99.0","3.724","96.1","NAN","NAN","NAN","NAN","NAN"],
    [1562509,"2026-07-17 08:20:00","266","1.936","92.1","3.332","129.2","NAN","NAN","NAN","NAN","NAN"],
    [1562510,"2026-07-17 08:30:00","267","2.457","73.77","3.92","67.79","NAN","NAN","NAN","NAN","NAN"],
    [1562511,"2026-07-17 08:40:00","268","2.017","97.5","3.234","100.7","NAN","NAN","NAN","NAN","NAN"],
    [1562512,"2026-07-17 08:50:00","269","1.76","97.8","2.646","86.1","NAN","NAN","NAN","NAN","NAN"],
    [1562513,"2026-07-17 09:00:00","270","2.461","125.3","3.528","130.8","NAN","NAN","NAN","NAN","NAN"],
    [1562514,"2026-07-17 09:10:00","271","2.28","131.6","3.724","146.6","NAN","NAN","NAN","NAN","NAN"],
    [1562515,"2026-07-17 09:20:00","272","2.541","122.5","4.214","132.7","NAN","NAN","NAN","NAN","NAN"],
    [1562516,"2026-07-17 09:30:00","273","2.923","128.4","4.214","97.9","NAN","NAN","NAN","NAN","NAN"],
    [1562517,"2026-07-17 09:40:00","274","3.154","124.2","4.606","141.4","NAN","NAN","NAN","NAN","NAN"],
    [1562518,"2026-07-17 09:50:00","275","3.3360000000000003","138.5","5.39","127.7","NAN","NAN","NAN","NAN","NAN"],
    [1562519,"2026-07-17 10:00:00","276","3.5439999999999996","130.8","4.998","136.9","NAN","NAN","NAN","NAN","NAN"],
    [1562520,"2026-07-17 10:10:00","277","3.3489999999999998","131.6","4.508","132.8","NAN","NAN","NAN","NAN","NAN"],
    [1562521,"2026-07-17 10:20:00","278","2.533","139.5","4.116","137.4","NAN","NAN","NAN","NAN","NAN"],
    [1562522,"2026-07-17 10:30:00","279","2.5180000000000002","169.3","3.724","164.2","NAN","NAN","NAN","NAN","NAN"],
    [1562523,"2026-07-17 10:40:00","280","3.161","160.3","4.9","144.5","NAN","NAN","NAN","NAN","NAN"],
    [1562524,"2026-07-17 10:50:00","281","2.932","163.3","4.41","205.4","NAN","NAN","NAN","NAN","NAN"],
    [1562525,"2026-07-17 11:00:00","282","2.3569999999999998","180.5","3.626","181.7","NAN","NAN","NAN","NAN","NAN"],
    [1562526,"2026-07-17 11:10:00","283","3.125","177.4","4.802","175.3","NAN","NAN","NAN","NAN","NAN"],
    [1562527,"2026-07-17 11:20:00","284","3.193","171.0","4.998","173.1","NAN","NAN","NAN","NAN","NAN"],
    [1562528,"2026-07-17 11:30:00","285","3.596","157.4","5.488","162.4","NAN","NAN","NAN","NAN","NAN"],
    [1562529,"2026-07-17 11:40:00","286","3.784","160.5","5.292","165.8","NAN","NAN","NAN","NAN","NAN"],
    [1562530,"2026-07-17 11:50:00","287","3.76","159.3","5.488","159.7","NAN","NAN","NAN","NAN","NAN"],
    [1562531,"2026-07-17 12:00:00","288","3.3360000000000003","167.2","5.488","175.6","NAN","NAN","NAN","NAN","NAN"],
    [1562532,"2026-07-17 12:10:00","289","2.923","182.5","5.292","157.6","NAN","NAN","NAN","NAN","NAN"],
    [1562533,"2026-07-17 12:20:00","290","3.2089999999999996","201.6","5.88","187.9","NAN","NAN","NAN","NAN","NAN"],
    [1562534,"2026-07-17 12:30:00","0","2.8680000000000003","188.2","5.096","160.3","NAN","NAN","NAN","NAN","NAN"],
    [1562535,"2026-07-17 12:40:00","1","3.8539999999999996","199.9","6.468","193.2","NAN","NAN","NAN","NAN","NAN"],
    [1562536,"2026-07-17 12:50:00","2","2.949","201.3","5.292","192.2","NAN","NAN","NAN","NAN","NAN"],
    [1562537,"2026-07-17 13:00:00","3","3.261","199.3","5.88","219.2","NAN","NAN","NAN","NAN","NAN"],
    [1562538,"2026-07-17 13:10:00","4","3.392","184.8","5.292","184.2","NAN","NAN","NAN","NAN","NAN"],
    [1562539,"2026-07-17 13:20:00","5","3.2739999999999996","197.2","5.782","196.7","NAN","NAN","NAN","NAN","NAN"],
    [1562540,"2026-07-17 13:30:00","6","2.8930000000000002","193.3","4.998","217.8","NAN","NAN","NAN","NAN","NAN"],
    [1562541,"2026-07-17 13:40:00","7","3.8139999999999996","179.0","6.468","180.8","NAN","NAN","NAN","NAN","NAN"],
    [1562542,"2026-07-17 13:50:00","8","3.785","197.5","5.684","163.6","NAN","NAN","NAN","NAN","NAN"],
    [1562543,"2026-07-17 14:00:00","9","3.423","185.8","5.782","199.8","NAN","NAN","NAN","NAN","NAN"],
    [1562544,"2026-07-17 14:10:00","10","3.0239999999999996","199.8","5.88","199.4","NAN","NAN","NAN","NAN","NAN"],
    [1562545,"2026-07-17 14:20:00","11","3.5469999999999997","202.4","5.978","211","NAN","NAN","NAN","NAN","NAN"],
    [1562546,"2026-07-17 14:30:00","12","3.2310000000000003","189.1","5.488","220","NAN","NAN","NAN","NAN","NAN"],
    [1562547,"2026-07-17 14:40:00","13","3.657","197.9","6.076","178.7","NAN","NAN","NAN","NAN","NAN"],
    [1562548,"2026-07-17 14:50:00","14","3.4960000000000004","207.8","6.174","166.9","NAN","NAN","NAN","NAN","NAN"],
    [1562549,"2026-07-17 15:00:00","15","3.75","185.4","7.154","166.2","NAN","NAN","NAN","NAN","NAN"],
    [1562550,"2026-07-17 15:10:00","16","3.472","192.3","6.076","211.3","NAN","NAN","NAN","NAN","NAN"],
    [1562551,"2026-07-17 15:20:00","17","3.15","210.8","6.958","238.9","NAN","NAN","NAN","NAN","NAN"],
    [1562552,"2026-07-17 15:30:00","18","3.5460000000000003","207.3","6.664","223.5","NAN","NAN","NAN","NAN","NAN"],
    [1562553,"2026-07-17 15:40:00","19","3.266","194.2","6.37","218.1","NAN","NAN","NAN","NAN","NAN"],
    [1562554,"2026-07-17 15:50:00","20","3.2110000000000003","212.9","6.37","229.2","NAN","NAN","NAN","NAN","NAN"],
    [1562555,"2026-07-17 16:00:00","21","3.713","215.7","5.684","220.8","NAN","NAN","NAN","NAN","NAN"],
    [1562556,"2026-07-17 16:10:00","22","3.284","194.2","5.194","216.4","NAN","NAN","NAN","NAN","NAN"],
    [1562557,"2026-07-17 16:20:00","23","2.7710000000000004","199.9","4.9","214.3","NAN","NAN","NAN","NAN","NAN"],
    [1562558,"2026-07-17 16:30:00","24","3.065","211.6","4.802","211.3","NAN","NAN","NAN","NAN","NAN"],
    [1562559,"2026-07-17 16:40:00","25","2.7310000000000003","218.9","4.9","220.6","NAN","NAN","NAN","NAN","NAN"],
    [1562560,"2026-07-17 16:50:00","26","2.9530000000000003","203.0","4.704","214.4","NAN","NAN","NAN","NAN","NAN"],
    [1562561,"2026-07-17 17:00:00","27","2.4859999999999998","203.8","4.704","221.6","NAN","NAN","NAN","NAN","NAN"],
    [1562562,"2026-07-17 17:10:00","28","2.5780000000000003","212.4","4.9","205.5","NAN","NAN","NAN","NAN","NAN"],
    [1562563,"2026-07-17 17:20:00","29","2.245","215.9","4.312","206.3","NAN","NAN","NAN","NAN","NAN"],
    [1562564,"2026-07-17 17:30:00","30","2.9560000000000004","205.6","4.9","218.7","NAN","NAN","NAN","NAN","NAN"],
    [1562565,"2026-07-17 17:40:00","31","2.353","207.1","4.116","222.7","NAN","NAN","NAN","NAN","NAN"],
    [1562566,"2026-07-17 17:50:00","32","3.009","210.7","4.116","211.6","NAN","NAN","NAN","NAN","NAN"],
    [1562567,"2026-07-17 18:00:00","33","2.193","202.3","4.41","223.6","NAN","NAN","NAN","NAN","NAN"],
    [1562568,"2026-07-17 18:10:00","34","2.61","186.1","4.704","170.2","NAN","NAN","NAN","NAN","NAN"],
    [1562569,"2026-07-17 18:20:00","35","3.0410000000000004","175.0","4.116","157.5","NAN","NAN","NAN","NAN","NAN"],
    [1562570,"2026-07-17 18:30:00","36","2.6180000000000003","207.6","4.116","204.2","NAN","NAN","NAN","NAN","NAN"],
    [1562571,"2026-07-17 18:40:00","37","2.665","205.9","4.018","217.4","NAN","NAN","NAN","NAN","NAN"],
    [1562572,"2026-07-17 18:50:00","38","2.19","205.1","3.332","209","NAN","NAN","NAN","NAN","NAN"],
    [1562573,"2026-07-17 19:00:00","39","1.952","202.5","3.332","217.1","NAN","NAN","NAN","NAN","NAN"],
    [1562574,"2026-07-17 19:10:00","40","1.621","210.6","3.332","221.6","NAN","NAN","NAN","NAN","NAN"],
    [1562575,"2026-07-17 19:20:00","41","1.7309999999999999","184.2","3.332","193","NAN","NAN","NAN","NAN","NAN"],
    [1562576,"2026-07-17 19:30:00","42","2.0580000000000003","213.8","3.43","213.4","NAN","NAN","NAN","NAN","NAN"],
    [1562577,"2026-07-17 19:40:00","43","1.275","206.4","2.058","203.9","NAN","NAN","NAN","NAN","NAN"],
    [1562578,"2026-07-17 19:50:00","44","1.3430000000000002","209.7","2.744","199.6","NAN","NAN","NAN","NAN","NAN"],
    [1562579,"2026-07-17 20:00:00","45","1.3090000000000002","204.8","2.156","218.5","NAN","NAN","NAN","NAN","NAN"],
    [1562580,"2026-07-17 20:10:00","46","1.4","179.9","2.646","174.6","NAN","NAN","NAN","NAN","NAN"],
    [1562581,"2026-07-17 20:20:00","47","1.475","180.6","2.45","181.6","NAN","NAN","NAN","NAN","NAN"],
    [1562582,"2026-07-17 20:30:00","48","1.995","201.2","3.528","215.5","NAN","NAN","NAN","NAN","NAN"],
    [1562583,"2026-07-17 20:40:00","49","1.758","206.7","3.136","205","NAN","NAN","NAN","NAN","NAN"],
    [1562584,"2026-07-17 20:50:00","50","1.462","206.4","2.646","214.3","NAN","NAN","NAN","NAN","NAN"],
    [1562585,"2026-07-17 21:00:00","51","1.222","203.8","2.254","210.4","NAN","NAN","NAN","NAN","NAN"],
    [1562586,"2026-07-17 21:10:00","52","1.058","198.1","2.254","210.4","NAN","NAN","NAN","NAN","NAN"],
    [1562587,"2026-07-17 21:20:00","53","0.971","201.2","1.862","202.5","NAN","NAN","NAN","NAN","NAN"],
    [1562588,"2026-07-17 21:30:00","54","0.579","192.8","1.176","192.9","NAN","NAN","NAN","NAN","NAN"],
    [1562589,"2026-07-17 21:40:00","55","0.8059999999999999","192.1","2.058","192.3","NAN","NAN","NAN","NAN","NAN"],
    [1562590,"2026-07-17 21:50:00","56","0.016","191.3","0.294","191.7","NAN","NAN","NAN","NAN","NAN"],
    [1562591,"2026-07-17 22:00:00","57","0.23600000000000002","181.0","0.784","182.8","NAN","NAN","NAN","NAN","NAN"],
    [1562592,"2026-07-17 22:10:00","58","0.8440000000000001","150.8","1.862","148.2","NAN","NAN","NAN","NAN","NAN"],
    [1562593,"2026-07-17 22:20:00","59","1.538","126.5","2.254","127.7","NAN","NAN","NAN","NAN","NAN"],
    [1562594,"2026-07-17 22:30:00","60","1.0979999999999999","110.1","2.548","95.8","NAN","NAN","NAN","NAN","NAN"],
    [1562595,"2026-07-17 22:40:00","61","1.858","89.4","2.842","85.4","NAN","NAN","NAN","NAN","NAN"],
    [1562596,"2026-07-17 22:50:00","62","2.081","83.0","3.136","72.01","NAN","NAN","NAN","NAN","NAN"],
    [1562597,"2026-07-17 23:00:00","63","2.595","76.71","3.724","70.79","NAN","NAN","NAN","NAN","NAN"],
    [1562598,"2026-07-17 23:10:00","64","2.489","77.61","4.312","70.98","NAN","NAN","NAN","NAN","NAN"],
    [1562599,"2026-07-17 23:20:00","65","1.7790000000000001","77.15","3.822","70.81","NAN","NAN","NAN","NAN","NAN"],
    [1562600,"2026-07-17 23:30:00","66","2.219","78.03","3.136","67.31","NAN","NAN","NAN","NAN","NAN"],
    [1562601,"2026-07-17 23:40:00","67","2.3930000000000002","74.11","3.626","74.52","NAN","NAN","NAN","NAN","NAN"],
    [1562602,"2026-07-17 23:50:00","68","1.9980000000000002","65.79","3.234","67.71","NAN","NAN","NAN","NAN","NAN"],
    [1562603,"2026-07-18 00:00:00","69","1.6119999999999999","66.27","3.136","63.79","NAN","NAN","NAN","NAN","NAN"],
    [1562604,"2026-07-18 00:10:00","70","1.227","77.43","2.254","70.78","NAN","NAN","NAN","NAN","NAN"],
    [1562605,"2026-07-18 00:20:00","71","1.584","87.9","3.528","97.7","NAN","NAN","NAN","NAN","NAN"],
    [1562606,"2026-07-18 00:30:00","72","1.463","98.8","2.45","96.4","NAN","NAN","NAN","NAN","NAN"],
    [1562607,"2026-07-18 00:40:00","73","1.7180000000000002","113.5","2.646","114.3","NAN","NAN","NAN","NAN","NAN"],
    [1562608,"2026-07-18 00:50:00","74","1.686","110.0","2.842","111.5","NAN","NAN","NAN","NAN","NAN"],
    [1562609,"2026-07-18 01:00:00","75","1.319","120.2","2.352","123.5","NAN","NAN","NAN","NAN","NAN"],
    [1562610,"2026-07-18 01:10:00","76","1.651","110.0","2.352","112.3","NAN","NAN","NAN","NAN","NAN"],
    [1562611,"2026-07-18 01:20:00","77","1.5730000000000002","116.1","2.548","117.2","NAN","NAN","NAN","NAN","NAN"],
    [1562612,"2026-07-18 01:30:00","78","1.3719999999999999","105.6","2.254","114.6","NAN","NAN","NAN","NAN","NAN"],
    [1562613,"2026-07-18 01:40:00","79","1.536","107.8","2.352","114.3","NAN","NAN","NAN","NAN","NAN"],
    [1562614,"2026-07-18 01:50:00","80","0.965","101.3","1.568","97.3","NAN","NAN","NAN","NAN","NAN"],
    [1562615,"2026-07-18 02:00:00","81","1.465","98.7","2.94","94.8","NAN","NAN","NAN","NAN","NAN"],
    [1562616,"2026-07-18 02:10:00","82","1.4409999999999998","96.2","2.45","94.1","NAN","NAN","NAN","NAN","NAN"],
    [1562617,"2026-07-18 02:20:00","83","1.071","99.5","2.058","99.2","NAN","NAN","NAN","NAN","NAN"],
    [1562618,"2026-07-18 02:30:00","84","0.89","97.9","1.764","92.6","NAN","NAN","NAN","NAN","NAN"],
    [1562619,"2026-07-18 02:40:00","85","0.861","93.9","1.568","96.9","NAN","NAN","NAN","NAN","NAN"],
    [1562620,"2026-07-18 02:50:00","86","1.002","92.5","1.96","91.6","NAN","NAN","NAN","NAN","NAN"],
    [1562621,"2026-07-18 03:00:00","87","1.167","100.2","2.058","91.3","NAN","NAN","NAN","NAN","NAN"],
    [1562622,"2026-07-18 03:10:00","88","1.429","107.1","2.45","101.9","NAN","NAN","NAN","NAN","NAN"],
    [1562623,"2026-07-18 03:20:00","89","1.0659999999999998","93.4","1.666","91.4","NAN","NAN","NAN","NAN","NAN"],
    [1562624,"2026-07-18 03:30:00","90","1.2109999999999999","92.2","1.862","90.1","NAN","NAN","NAN","NAN","NAN"],
    [1562625,"2026-07-18 03:40:00","91","1.351","92.0","2.156","95.3","NAN","NAN","NAN","NAN","NAN"],
    [1562626,"2026-07-18 03:50:00","92","1.325","91.7","2.352","88.8","NAN","NAN","NAN","NAN","NAN"],
    [1562627,"2026-07-18 04:00:00","93","1.188","88.8","1.764","88","NAN","NAN","NAN","NAN","NAN"],
    [1562628,"2026-07-18 04:10:00","94","1.2770000000000001","86.4","1.764","86.6","NAN","NAN","NAN","NAN","NAN"],
    [1562629,"2026-07-18 04:20:00","95","0.971","83.5","1.96","83.8","NAN","NAN","NAN","NAN","NAN"],
    [1562630,"2026-07-18 04:30:00","96","1.125","80.4","2.058","82.2","NAN","NAN","NAN","NAN","NAN"],
    [1562631,"2026-07-18 04:40:00","97","1.39","62.92","2.548","59.34","NAN","NAN","NAN","NAN","NAN"],
    [1562632,"2026-07-18 04:50:00","98","1.436","57.09","2.646","52.22","NAN","NAN","NAN","NAN","NAN"],
    [1562633,"2026-07-18 05:00:00","99","1.8","50.25","3.136","45.28","NAN","NAN","NAN","NAN","NAN"],
    [1562634,"2026-07-18 05:10:00","100","1.909","47.77","3.332","38.8","NAN","NAN","NAN","NAN","NAN"],
    [1562635,"2026-07-18 05:20:00","101","2.222","41.39","3.234","50.37","NAN","NAN","NAN","NAN","NAN"],
    [1562636,"2026-07-18 05:30:00","102","1.24","46.66","2.352","41.81","NAN","NAN","NAN","NAN","NAN"],
    [1562637,"2026-07-18 05:40:00","103","1.7269999999999999","44.49","2.842","33.83","NAN","NAN","NAN","NAN","NAN"],
    [1562638,"2026-07-18 05:50:00","104","2.104","44.44","3.528","40.08","NAN","NAN","NAN","NAN","NAN"],
    [1562639,"2026-07-18 06:00:00","105","2.002","45.11","3.136","36.52","NAN","NAN","NAN","NAN","NAN"],
    [1562640,"2026-07-18 06:10:00","106","1.587","33.72","2.548","25.16","NAN","NAN","NAN","NAN","NAN"],
    [1562641,"2026-07-18 06:20:00","107","1.524","45.01","3.038","31.03","NAN","NAN","NAN","NAN","NAN"],
    [1562642,"2026-07-18 06:30:00","108","1.6869999999999998","52.4","3.136","66.55","NAN","NAN","NAN","NAN","NAN"],
    [1562643,"2026-07-18 06:40:00","109","1.8359999999999999","66.46","2.548","66.74","NAN","NAN","NAN","NAN","NAN"],
    [1562644,"2026-07-18 06:50:00","110","2.04","69.89","3.038","67.4","NAN","NAN","NAN","NAN","NAN"],
    [1562645,"2026-07-18 07:00:00","111","1.617","49.54","3.136","27.09","NAN","NAN","NAN","NAN","NAN"],
    [1562646,"2026-07-18 07:10:00","112","1.028","25.61","2.058","16.51","NAN","NAN","NAN","NAN","NAN"],
    [1562647,"2026-07-18 07:20:00","113","1.127","16.3","2.548","16.51","NAN","NAN","NAN","NAN","NAN"],
    [1562648,"2026-07-18 07:30:00","114","0.374","10.58","1.764","6.689","NAN","NAN","NAN","NAN","NAN"],
    [1562649,"2026-07-18 07:40:00","115","0.41700000000000004","19.15","2.254","50.57","NAN","NAN","NAN","NAN","NAN"],
    [1562650,"2026-07-18 07:50:00","116","1.983","56.08","4.704","53.45","NAN","NAN","NAN","NAN","NAN"],
    [1562651,"2026-07-18 08:00:00","117","2.845","67.83","4.018","70","NAN","NAN","NAN","NAN","NAN"],
    [1562652,"2026-07-18 08:10:00","118","2.5340000000000003","69.61","3.92","68.08","NAN","NAN","NAN","NAN","NAN"],
    [1562653,"2026-07-18 08:20:00","119","2.149","55.7","4.41","60.6","NAN","NAN","NAN","NAN","NAN"],
    [1562654,"2026-07-18 08:30:00","120","1.986","88.0","3.43","72.03","NAN","NAN","NAN","NAN","NAN"],
    [1562655,"2026-07-18 08:40:00","121","1.3419999999999999","83.5","2.254","77.9","NAN","NAN","NAN","NAN","NAN"],
    [1562656,"2026-07-18 08:50:00","122","1.209","78.8","2.156","87.3","NAN","NAN","NAN","NAN","NAN"],
    [1562657,"2026-07-18 09:00:00","123","1.489","100.3","2.842","125.7","NAN","NAN","NAN","NAN","NAN"],
    [1562658,"2026-07-18 09:10:00","124","2.121","118.3","3.136","120.4","NAN","NAN","NAN","NAN","NAN"],
    [1562659,"2026-07-18 09:20:00","125","1.805","110.6","3.038","125.4","NAN","NAN","NAN","NAN","NAN"],
    [1562660,"2026-07-18 09:30:00","126","2.104","108.9","3.234","105.1","NAN","NAN","NAN","NAN","NAN"],
    [1562661,"2026-07-18 09:40:00","127","2.351","123.6","3.136","121","NAN","NAN","NAN","NAN","NAN"],
    [1562662,"2026-07-18 09:50:00","128","2.441","128.2","3.724","121.8","NAN","NAN","NAN","NAN","NAN"],
    [1562663,"2026-07-18 10:00:00","129","2.498","132.6","3.528","130.9","NAN","NAN","NAN","NAN","NAN"],
    [1562664,"2026-07-18 10:10:00","130","2.2359999999999998","112.3","3.136","107.7","NAN","NAN","NAN","NAN","NAN"],
    [1562665,"2026-07-18 10:20:00","131","2.693","129.8","4.116","132.5","NAN","NAN","NAN","NAN","NAN"],
    [1562666,"2026-07-18 10:30:00","132","2.3409999999999997","121.2","4.214","129.3","NAN","NAN","NAN","NAN","NAN"],
    [1562667,"2026-07-18 10:40:00","133","2.64","116.2","4.606","96","NAN","NAN","NAN","NAN","NAN"],
    [1562668,"2026-07-18 10:50:00","134","3.342","133.9","4.9","119.4","NAN","NAN","NAN","NAN","NAN"],
    [1562669,"2026-07-18 11:00:00","135","3.467","133.1","5.194","158.8","NAN","NAN","NAN","NAN","NAN"],
    [1562670,"2026-07-18 11:10:00","136","3.783","140.1","5.488","133.9","NAN","NAN","NAN","NAN","NAN"],
    [1562671,"2026-07-18 11:20:00","137","3.6839999999999997","135.0","5.292","127.2","NAN","NAN","NAN","NAN","NAN"],
    [1562672,"2026-07-18 11:30:00","138","3.355","135.2","5.194","123.1","NAN","NAN","NAN","NAN","NAN"],
    [1562673,"2026-07-18 11:40:00","139","3.5789999999999997","133.2","5.684","132.9","NAN","NAN","NAN","NAN","NAN"],
    [1562674,"2026-07-18 11:50:00","140","3.582","134.5","5.292","136.2","NAN","NAN","NAN","NAN","NAN"],
    [1562675,"2026-07-18 12:00:00","141","2.992","124.6","4.41","146.8","NAN","NAN","NAN","NAN","NAN"],
    [1562676,"2026-07-18 12:10:00","142","3.6519999999999997","127.3","5.096","128.3","NAN","NAN","NAN","NAN","NAN"],
    [1562677,"2026-07-18 12:20:00","143","3.8089999999999997","133.8","4.802","133.4","NAN","NAN","NAN","NAN","NAN"],
    [1562678,"2026-07-18 12:30:00","144","3.503","128.5","5.096","130.7","NAN","NAN","NAN","NAN","NAN"],
    [1562679,"2026-07-18 12:40:00","145","3.823","139.3","5.39","121.9","NAN","NAN","NAN","NAN","NAN"],
    [1562680,"2026-07-18 12:50:00","146","3.9760000000000004","138.4","5.488","132","NAN","NAN","NAN","NAN","NAN"],
    [1562681,"2026-07-18 13:00:00","147","3.362","134.7","5.488","127.5","NAN","NAN","NAN","NAN","NAN"],
    [1562682,"2026-07-18 13:10:00","148","3.332","130.0","4.998","143","NAN","NAN","NAN","NAN","NAN"],
    [1562683,"2026-07-18 13:20:00","149","3.1919999999999997","125.2","5.292","138.2","NAN","NAN","NAN","NAN","NAN"],
    [1562684,"2026-07-18 13:30:00","150","3.7569999999999997","134.1","5.488","152.1","NAN","NAN","NAN","NAN","NAN"],
    [1562685,"2026-07-18 13:40:00","151","3.511","131.0","5.684","142.4","NAN","NAN","NAN","NAN","NAN"],
    [1562686,"2026-07-18 13:50:00","152","3.011","142.1","4.998","158.7","NAN","NAN","NAN","NAN","NAN"],
    [1562687,"2026-07-18 14:00:00","153","3.321","138.4","4.606","146.1","NAN","NAN","NAN","NAN","NAN"],
    [1562688,"2026-07-18 14:10:00","154","3.465","134.2","5.684","121.2","NAN","NAN","NAN","NAN","NAN"],
    [1562689,"2026-07-18 14:20:00","155","3.589","123.8","5.292","130.6","NAN","NAN","NAN","NAN","NAN"],
    [1562690,"2026-07-18 14:30:00","156","3.3810000000000002","136.0","5.292","121.4","NAN","NAN","NAN","NAN","NAN"],
    [1562691,"2026-07-18 14:40:00","157","3.228","140.3","5.684","149.2","NAN","NAN","NAN","NAN","NAN"],
    [1562692,"2026-07-18 14:50:00","158","3.258","152.4","4.802","133.4","NAN","NAN","NAN","NAN","NAN"],
    [1562693,"2026-07-18 15:00:00","159","3.384","139.4","5.39","123.4","NAN","NAN","NAN","NAN","NAN"],
    [1562694,"2026-07-18 15:10:00","160","3.325","134.4","5.194","139.8","NAN","NAN","NAN","NAN","NAN"],
    [1562695,"2026-07-18 15:20:00","161","2.87","125.3","4.312","127.9","NAN","NAN","NAN","NAN","NAN"],
    [1562696,"2026-07-18 15:30:00","162","3.0869999999999997","134.2","5.194","129.5","NAN","NAN","NAN","NAN","NAN"],
    [1562697,"2026-07-18 15:40:00","163","2.795","136.0","4.214","137.2","NAN","NAN","NAN","NAN","NAN"],
    [1562698,"2026-07-18 15:50:00","164","3.515","140.8","4.998","132.1","NAN","NAN","NAN","NAN","NAN"],
    [1562699,"2026-07-18 16:00:00","165","3.154","148.0","4.704","163.6","NAN","NAN","NAN","NAN","NAN"],
    [1562700,"2026-07-18 16:10:00","166","2.952","149.0","5.194","138.7","NAN","NAN","NAN","NAN","NAN"],
    [1562701,"2026-07-18 16:20:00","167","2.863","158.6","4.214","137.7","NAN","NAN","NAN","NAN","NAN"],
    [1562702,"2026-07-18 16:30:00","168","2.62","157.6","4.606","176.8","NAN","NAN","NAN","NAN","NAN"],
    [1562703,"2026-07-18 16:40:00","169","2.375","164.2","4.508","166.6","NAN","NAN","NAN","NAN","NAN"],
    [1562704,"2026-07-18 16:50:00","170","2.359","157.7","4.018","144.7","NAN","NAN","NAN","NAN","NAN"],
    [1562705,"2026-07-18 17:00:00","171","2.039","140.6","3.332","145.7","NAN","NAN","NAN","NAN","NAN"],
    [1562706,"2026-07-18 17:10:00","172","2.298","132.3","3.43","130.2","NAN","NAN","NAN","NAN","NAN"],
    [1562707,"2026-07-18 17:20:00","173","2.287","152.8","4.116","155.8","NAN","NAN","NAN","NAN","NAN"],
    [1562708,"2026-07-18 17:30:00","174","2.864","164.1","4.214","162","NAN","NAN","NAN","NAN","NAN"],
    [1562709,"2026-07-18 17:40:00","175","2.517","190.8","4.214","204.2","NAN","NAN","NAN","NAN","NAN"],
    [1562710,"2026-07-18 17:50:00","176","2.194","180.7","3.626","204.8","NAN","NAN","NAN","NAN","NAN"],
    [1562711,"2026-07-18 18:00:00","177","1.3","166.6","2.744","180.8","NAN","NAN","NAN","NAN","NAN"],
    [1562712,"2026-07-18 18:10:00","178","2.386","190.2","3.822","213.3","NAN","NAN","NAN","NAN","NAN"],
    [1562713,"2026-07-18 18:20:00","179","1.6669999999999998","211.3","3.332","222.1","NAN","NAN","NAN","NAN","NAN"],
    [1562714,"2026-07-18 18:30:00","180","0.7","175.7","2.254","176.9","NAN","NAN","NAN","NAN","NAN"],
    [1562715,"2026-07-18 18:40:00","181","1.369","215.3","3.234","220.2","NAN","NAN","NAN","NAN","NAN"],
    [1562716,"2026-07-18 18:50:00","182","1.7819999999999998","216.2","3.528","226.3","NAN","NAN","NAN","NAN","NAN"],
    [1562717,"2026-07-18 19:00:00","183","1.1740000000000002","186.2","2.156","169.6","NAN","NAN","NAN","NAN","NAN"],
    [1562718,"2026-07-18 19:10:00","184","1.048","182.4","1.764","168.5","NAN","NAN","NAN","NAN","NAN"],
    [1562719,"2026-07-18 19:20:00","185","0.319","160.7","1.764","133.9","NAN","NAN","NAN","NAN","NAN"],
    [1562720,"2026-07-18 19:30:00","186","1.925","120.4","2.94","105.7","NAN","NAN","NAN","NAN","NAN"],
    [1562721,"2026-07-18 19:40:00","187","1.5819999999999999","100.4","2.744","90.8","NAN","NAN","NAN","NAN","NAN"],
    [1562722,"2026-07-18 19:50:00","188","1.8090000000000002","73.65","3.038","56.53","NAN","NAN","NAN","NAN","NAN"],
    [1562723,"2026-07-18 20:00:00","189","1.6969999999999998","55.24","2.744","56.34","NAN","NAN","NAN","NAN","NAN"],
    [1562724,"2026-07-18 20:10:00","190","1.88","57.42","2.94","64.84","NAN","NAN","NAN","NAN","NAN"],
    [1562725,"2026-07-18 20:20:00","191","2.397","68.07","3.234","71.84","NAN","NAN","NAN","NAN","NAN"],
    [1562726,"2026-07-18 20:30:00","192","2.423","67.15","3.724","69.64","NAN","NAN","NAN","NAN","NAN"],
    [1562727,"2026-07-18 20:40:00","193","2.503","61.87","4.214","62.57","NAN","NAN","NAN","NAN","NAN"],
    [1562728,"2026-07-18 20:50:00","194","2.487","56.84","4.116","57.4","NAN","NAN","NAN","NAN","NAN"],
    [1562729,"2026-07-18 21:00:00","195","1.975","67.2","3.43","73.67","NAN","NAN","NAN","NAN","NAN"],
    [1562730,"2026-07-18 21:10:00","196","1.6369999999999998","88.3","3.038","76.08","NAN","NAN","NAN","NAN","NAN"],
    [1562731,"2026-07-18 21:20:00","197","2.02","76.0","2.842","71.45","NAN","NAN","NAN","NAN","NAN"],
    [1562732,"2026-07-18 21:30:00","198","2.4290000000000003","74.3","3.822","73.08","NAN","NAN","NAN","NAN","NAN"],
    [1562733,"2026-07-18 21:40:00","199","2.1109999999999998","68.5","2.94","64.59","NAN","NAN","NAN","NAN","NAN"],
    [1562734,"2026-07-18 21:50:00","200","1.46","81.5","2.352","62.22","NAN","NAN","NAN","NAN","NAN"],
    [1562735,"2026-07-18 22:00:00","201","1.7630000000000001","71.86","2.548","66.26","NAN","NAN","NAN","NAN","NAN"],
    [1562736,"2026-07-18 22:10:00","202","1.5119999999999998","74.11","2.254","76.16","NAN","NAN","NAN","NAN","NAN"],
    [1562737,"2026-07-18 22:20:00","203","1.594","85.0","2.548","69.14","NAN","NAN","NAN","NAN","NAN"],
    [1562738,"2026-07-18 22:30:00","204","1.272","94.2","2.058","95.6","NAN","NAN","NAN","NAN","NAN"],
    [1562739,"2026-07-18 22:40:00","205","1.321","94.4","2.352","85.3","NAN","NAN","NAN","NAN","NAN"],
    [1562740,"2026-07-18 22:50:00","206","0.912","98.7","1.862","91.6","NAN","NAN","NAN","NAN","NAN"],
    [1562741,"2026-07-18 23:00:00","207","1.081","95.9","2.156","91.4","NAN","NAN","NAN","NAN","NAN"],
    [1562742,"2026-07-18 23:10:00","208","1.318","88.4","2.45","89.4","NAN","NAN","NAN","NAN","NAN"],
    [1562743,"2026-07-18 23:20:00","209","1.374","84.4","2.156","85.7","NAN","NAN","NAN","NAN","NAN"],
    [1562744,"2026-07-18 23:30:00","210","0.799","81.0","1.47","81.2","NAN","NAN","NAN","NAN","NAN"],
    [1562745,"2026-07-18 23:40:00","211","0.841","80.2","1.47","80.6","NAN","NAN","NAN","NAN","NAN"],
    [1562746,"2026-07-18 23:50:00","212","1.208","71.56","2.254","67.27","NAN","NAN","NAN","NAN","NAN"],
    [1562747,"2026-07-19 00:00:00","213","1.041","66.35","1.96","66.54","NAN","NAN","NAN","NAN","NAN"],
    [1562748,"2026-07-19 00:10:00","214","1.18","66.39","1.96","65.87","NAN","NAN","NAN","NAN","NAN"],
    [1562749,"2026-07-19 00:20:00","215","1.067","69.23","1.862","71.26","NAN","NAN","NAN","NAN","NAN"],
    [1562750,"2026-07-19 00:30:00","216","1.2990000000000002","70.34","1.764","71.27","NAN","NAN","NAN","NAN","NAN"],
    [1562751,"2026-07-19 00:40:00","217","1.6219999999999999","69.81","2.058","71.18","NAN","NAN","NAN","NAN","NAN"],
    [1562752,"2026-07-19 00:50:00","218","1.5519999999999998","69.84","1.96","68.33","NAN","NAN","NAN","NAN","NAN"],
    [1562753,"2026-07-19 01:00:00","219","1.161","65.94","1.96","65.98","NAN","NAN","NAN","NAN","NAN"],
    [1562754,"2026-07-19 01:10:00","220","1.192","65.84","1.862","64.92","NAN","NAN","NAN","NAN","NAN"],
    [1562755,"2026-07-19 01:20:00","221","0.765","63.92","1.862","63.89","NAN","NAN","NAN","NAN","NAN"],
    [1562756,"2026-07-19 01:30:00","222","0.991","67.27","1.568","68.38","NAN","NAN","NAN","NAN","NAN"],
    [1562757,"2026-07-19 01:40:00","223","0.48200000000000004","70.25","1.666","67.13","NAN","NAN","NAN","NAN","NAN"],
    [1562758,"2026-07-19 01:50:00","224","0.20199999999999999","73.44","0.588","73.29","NAN","NAN","NAN","NAN","NAN"],
    [1562759,"2026-07-19 02:00:00","225","0.002","73.91","0.098","73.91","NAN","NAN","NAN","NAN","NAN"],
    [1562760,"2026-07-19 02:10:00","226","0.05","74.03","0.392","73.96","NAN","NAN","NAN","NAN","NAN"],
    [1562761,"2026-07-19 02:20:00","227","0.06","66.76","0.588","73.08","NAN","NAN","NAN","NAN","NAN"],
    [1562762,"2026-07-19 02:30:00","228","0.293","63.86","0.686","63.84","NAN","NAN","NAN","NAN","NAN"],
    [1562763,"2026-07-19 02:40:00","229","0.608","63.7","1.078","63.67","NAN","NAN","NAN","NAN","NAN"],
    [1562764,"2026-07-19 02:50:00","230","0.37200000000000005","63.6","1.078","63.67","NAN","NAN","NAN","NAN","NAN"],
    [1562765,"2026-07-19 03:00:00","231","0.6659999999999999","63.55","1.176","63.47","NAN","NAN","NAN","NAN","NAN"],
    [1562766,"2026-07-19 03:10:00","232","0.937","63.28","1.372","63.33","NAN","NAN","NAN","NAN","NAN"],
    [1562767,"2026-07-19 03:20:00","233","0.604","66.54","1.176","63.27","NAN","NAN","NAN","NAN","NAN"],
    [1562768,"2026-07-19 03:30:00","234","0.257","67.1","0.882","63.27","NAN","NAN","NAN","NAN","NAN"],
    [1562769,"2026-07-19 03:40:00","235","0.509","63.06","0.98","62.96","NAN","NAN","NAN","NAN","NAN"],
    [1562770,"2026-07-19 03:50:00","236","0.026000000000000002","62.88","0.294","62.88","NAN","NAN","NAN","NAN","NAN"],
    [1562771,"2026-07-19 04:00:00","237","0.47600000000000003","62.75","1.078","62.5","NAN","NAN","NAN","NAN","NAN"],
    [1562772,"2026-07-19 04:10:00","238","0.39","61.95","1.078","62.11","NAN","NAN","NAN","NAN","NAN"],
    [1562773,"2026-07-19 04:20:00","239","0.005","61.92","0.196","61.92","NAN","NAN","NAN","NAN","NAN"],
    [1562774,"2026-07-19 04:30:00","240","0.0","0.0","0","61.92","NAN","NAN","NAN","NAN","NAN"],
    [1562775,"2026-07-19 04:40:00","241","0.182","61.25","0.588","61.73","NAN","NAN","NAN","NAN","NAN"],
    [1562776,"2026-07-19 04:50:00","242","0.044000000000000004","60.86","0.392","60.86","NAN","NAN","NAN","NAN","NAN"],
    [1562777,"2026-07-19 05:00:00","243","0.057","60.86","0.392","60.86","NAN","NAN","NAN","NAN","NAN"],
    [1562778,"2026-07-19 05:10:00","244","0.0","0.0","0","60.86","NAN","NAN","NAN","NAN","NAN"],
    [1562779,"2026-07-19 05:20:00","245","0.268","60.82","0.686","60.87","NAN","NAN","NAN","NAN","NAN"],
    [1562780,"2026-07-19 05:30:00","246","0.22699999999999998","60.77","0.588","60.77","NAN","NAN","NAN","NAN","NAN"],
    [1562781,"2026-07-19 05:40:00","247","0.276","60.04","0.882","60","NAN","NAN","NAN","NAN","NAN"],
    [1562782,"2026-07-19 05:50:00","248","0.36","59.17","0.882","59.32","NAN","NAN","NAN","NAN","NAN"],
    [1562783,"2026-07-19 06:00:00","249","0.429","58.58","0.686","58.55","NAN","NAN","NAN","NAN","NAN"],
    [1562784,"2026-07-19 06:10:00","250","0.423","58.52","0.784","58.55","NAN","NAN","NAN","NAN","NAN"],
    [1562785,"2026-07-19 06:20:00","251","0.016","58.46","0.294","58.46","NAN","NAN","NAN","NAN","NAN"],
    [1562786,"2026-07-19 06:30:00","252","0.293","66.21","1.078","70","NAN","NAN","NAN","NAN","NAN"],
    [1562787,"2026-07-19 06:40:00","253","0.504","60.17","1.078","58.84","NAN","NAN","NAN","NAN","NAN"],
    [1562788,"2026-07-19 06:50:00","254","0.5660000000000001","65.3","1.372","68.51","NAN","NAN","NAN","NAN","NAN"],
    [1562789,"2026-07-19 07:00:00","255","0.41700000000000004","69.61","1.568","65.96","NAN","NAN","NAN","NAN","NAN"],
    [1562790,"2026-07-19 07:10:00","256","0.797","67.13","1.372","69.15","NAN","NAN","NAN","NAN","NAN"],
    [1562791,"2026-07-19 07:20:00","257","1.171","68.75","1.862","70.5","NAN","NAN","NAN","NAN","NAN"],
    [1562792,"2026-07-19 07:30:00","258","1.145","70.07","1.862","66.08","NAN","NAN","NAN","NAN","NAN"],
    [1562793,"2026-07-19 07:40:00","259","1.568","70.65","2.45","69.23","NAN","NAN","NAN","NAN","NAN"],
    [1562794,"2026-07-19 07:50:00","260","1.425","70.08","2.156","73.76","NAN","NAN","NAN","NAN","NAN"],
    [1562795,"2026-07-19 08:00:00","261","1.338","68.45","2.646","69.81","NAN","NAN","NAN","NAN","NAN"],
    [1562796,"2026-07-19 08:10:00","262","1.12","63.56","2.646","69.81","NAN","NAN","NAN","NAN","NAN"],
    [1562797,"2026-07-19 08:20:00","263","1.4","67.04","2.45","66.51","NAN","NAN","NAN","NAN","NAN"],
    [1562798,"2026-07-19 08:30:00","264","1.78","65.63","2.94","73.85","NAN","NAN","NAN","NAN","NAN"],
    [1562799,"2026-07-19 08:40:00","265","1.574","68.39","2.744","65.02","NAN","NAN","NAN","NAN","NAN"],
    [1562800,"2026-07-19 08:50:00","266","1.349","75.6","2.156","66.61","NAN","NAN","NAN","NAN","NAN"],
    [1562801,"2026-07-19 09:00:00","267","1.1520000000000001","86.5","1.862","76.47","NAN","NAN","NAN","NAN","NAN"],
    [1562802,"2026-07-19 09:10:00","268","1.64","117.7","2.548","100.6","NAN","NAN","NAN","NAN","NAN"],
    [1562803,"2026-07-19 09:20:00","269","1.5719999999999998","118.6","2.646","119.9","NAN","NAN","NAN","NAN","NAN"],
    [1562804,"2026-07-19 09:30:00","270","1.625","94.5","2.744","69.71","NAN","NAN","NAN","NAN","NAN"],
    [1562805,"2026-07-19 09:40:00","271","2.338","117.3","3.822","76.93","NAN","NAN","NAN","NAN","NAN"],
    [1562806,"2026-07-19 09:50:00","272","2.385","127.6","3.43","141.4","NAN","NAN","NAN","NAN","NAN"],
    [1562807,"2026-07-19 10:00:00","273","2.127","133.1","3.136","118.9","NAN","NAN","NAN","NAN","NAN"],
    [1562808,"2026-07-19 10:10:00","274","1.9269999999999998","133.3","2.94","142.8","NAN","NAN","NAN","NAN","NAN"],
    [1562809,"2026-07-19 10:20:00","275","2.106","144.1","3.43","137.6","NAN","NAN","NAN","NAN","NAN"],
    [1562810,"2026-07-19 10:30:00","276","2.059","136.9","3.234","156.2","NAN","NAN","NAN","NAN","NAN"],
    [1562811,"2026-07-19 10:40:00","277","2.392","137.7","4.214","121.8","NAN","NAN","NAN","NAN","NAN"],
    [1562812,"2026-07-19 10:50:00","278","2.53","142.5","3.92","137.6","NAN","NAN","NAN","NAN","NAN"],
    [1562813,"2026-07-19 11:00:00","279","3.398","147.4","5.096","110.8","NAN","NAN","NAN","NAN","NAN"],
    [1562814,"2026-07-19 11:10:00","280","3.028","156.2","4.802","127.1","NAN","NAN","NAN","NAN","NAN"],
    [1562815,"2026-07-19 11:20:00","281","3.411","167.6","5.39","161.3","NAN","NAN","NAN","NAN","NAN"],
    [1562816,"2026-07-19 11:30:00","282","3.537","151.5","5.978","146.8","NAN","NAN","NAN","NAN","NAN"],
    [1562817,"2026-07-19 11:40:00","283","3.61","163.1","5.096","151","NAN","NAN","NAN","NAN","NAN"],
    [1562818,"2026-07-19 11:50:00","284","2.799","180.4","5.096","169.1","NAN","NAN","NAN","NAN","NAN"],
    [1562819,"2026-07-19 12:00:00","285","3.312","154.4","5.586","129.3","NAN","NAN","NAN","NAN","NAN"],
    [1562820,"2026-07-19 12:10:00","286","3.072","154.6","4.998","170.2","NAN","NAN","NAN","NAN","NAN"],
    [1562821,"2026-07-19 12:20:00","287","2.855","163.9","5.488","171.7","NAN","NAN","NAN","NAN","NAN"],
    [1562822,"2026-07-19 12:30:00","288","3.108","196.1","6.37","185.5","NAN","NAN","NAN","NAN","NAN"],
    [1562823,"2026-07-19 12:40:00","289","3.4539999999999997","189.3","6.174","177.2","NAN","NAN","NAN","NAN","NAN"],
    [1562824,"2026-07-19 12:50:00","290","2.8819999999999997","174.7","5.292","155.8","NAN","NAN","NAN","NAN","NAN"],
    [1562825,"2026-07-19 13:00:00","291","3.195","184.1","5.684","175.9","NAN","NAN","NAN","NAN","NAN"],
    [1562826,"2026-07-19 13:10:00","292","2.68","210.4","5.586","209","NAN","NAN","NAN","NAN","NAN"],
    [1562827,"2026-07-19 13:20:00","293","2.855","202.4","5.39","172.7","NAN","NAN","NAN","NAN","NAN"],
    [1562828,"2026-07-19 13:30:00","294","2.471","186.6","3.92","214.9","NAN","NAN","NAN","NAN","NAN"],
    [1562829,"2026-07-19 13:40:00","295","2.229","208.7","4.998","170.5","NAN","NAN","NAN","NAN","NAN"],
    [1562830,"2026-07-19 13:50:00","296","3.069","196.7","4.312","227.4","NAN","NAN","NAN","NAN","NAN"],
    [1562831,"2026-07-19 14:00:00","297","3.045","213.4","5.586","221.4","NAN","NAN","NAN","NAN","NAN"],
    [1562832,"2026-07-19 14:10:00","298","3.136","204.9","5.39","196.2","NAN","NAN","NAN","NAN","NAN"],
    [1562833,"2026-07-19 14:20:00","299","2.904","192.1","5.194","159.7","NAN","NAN","NAN","NAN","NAN"],
    [1562834,"2026-07-19 14:30:00","300","2.714","206.9","4.998","204","NAN","NAN","NAN","NAN","NAN"],
    [1562835,"2026-07-19 14:40:00","301","3.168","202.1","5.292","164.9","NAN","NAN","NAN","NAN","NAN"],
    [1562836,"2026-07-19 14:50:00","302","3.042","193.9","5.292","172.5","NAN","NAN","NAN","NAN","NAN"],
    [1562837,"2026-07-19 15:00:00","303","3.005","210.0","5.684","218.7","NAN","NAN","NAN","NAN","NAN"],
    [1562838,"2026-07-19 15:10:00","304","2.69","189.5","4.508","161.8","NAN","NAN","NAN","NAN","NAN"],
    [1562839,"2026-07-19 15:20:00","305","3.533","202.2","5.096","221.9","NAN","NAN","NAN","NAN","NAN"],
    [1562840,"2026-07-19 15:30:00","306","2.764","212.8","4.9","225.7","NAN","NAN","NAN","NAN","NAN"],
    [1562841,"2026-07-19 15:40:00","307","2.593","182.8","4.802","161.3","NAN","NAN","NAN","NAN","NAN"],
    [1562842,"2026-07-19 15:50:00","308","2.753","200.3","4.312","158.3","NAN","NAN","NAN","NAN","NAN"],
    [1562843,"2026-07-19 16:00:00","309","2.4819999999999998","204.6","4.998","222.1","NAN","NAN","NAN","NAN","NAN"],
    [1562844,"2026-07-19 16:10:00","310","3.4530000000000003","185.1","5.488","168.1","NAN","NAN","NAN","NAN","NAN"],
    [1562845,"2026-07-19 16:20:00","311","2.633","211.1","4.704","234.4","NAN","NAN","NAN","NAN","NAN"],
    [1562846,"2026-07-19 16:30:00","312","2.8819999999999997","219.4","4.802","247.9","NAN","NAN","NAN","NAN","NAN"],
    [1562847,"2026-07-19 16:40:00","313","3.345","214.4","5.586","217.9","NAN","NAN","NAN","NAN","NAN"],
    [1562848,"2026-07-19 16:50:00","314","2.7969999999999997","202.2","5.194","215.3","NAN","NAN","NAN","NAN","NAN"],
    [1562849,"2026-07-19 17:00:00","315","2.279","207.0","4.508","188.5","NAN","NAN","NAN","NAN","NAN"],
    [1562850,"2026-07-19 17:10:00","316","2.681","214.6","4.508","220.5","NAN","NAN","NAN","NAN","NAN"],
    [1562851,"2026-07-19 17:20:00","317","2.891","210.3","4.802","222.2","NAN","NAN","NAN","NAN","NAN"],
    [1562852,"2026-07-19 17:30:00","318","2.065","215.6","3.92","222.1","NAN","NAN","NAN","NAN","NAN"],
    [1562853,"2026-07-19 17:40:00","319","1.702","198.8","3.528","211.5","NAN","NAN","NAN","NAN","NAN"],
    [1562854,"2026-07-19 17:50:00","320","1.121","204.2","2.548","197.9","NAN","NAN","NAN","NAN","NAN"],
    [1562855,"2026-07-19 18:00:00","321","0.976","212.9","2.45","232.3","NAN","NAN","NAN","NAN","NAN"],
    [1562856,"2026-07-19 18:10:00","322","1.442","205.8","2.45","209.2","NAN","NAN","NAN","NAN","NAN"],
    [1562857,"2026-07-19 18:20:00","323","1.008","228.0","2.058","234.6","NAN","NAN","NAN","NAN","NAN"],
    [1562858,"2026-07-19 18:30:00","324","0.064","219.8","0.686","219.7","NAN","NAN","NAN","NAN","NAN"],
    [1562859,"2026-07-19 18:40:00","325","0.40399999999999997","208.5","1.176","206.1","NAN","NAN","NAN","NAN","NAN"],
    [1562860,"2026-07-19 18:50:00","326","0.179","202.2","0.784","201.1","NAN","NAN","NAN","NAN","NAN"],
    [1562861,"2026-07-19 19:00:00","327","1.244","97.1","2.548","74.43","NAN","NAN","NAN","NAN","NAN"],
    [1562862,"2026-07-19 19:10:00","328","1.355","74.77","2.058","72.66","NAN","NAN","NAN","NAN","NAN"],
    [1562863,"2026-07-19 19:20:00","329","0.474","83.9","1.176","84.5","NAN","NAN","NAN","NAN","NAN"],
    [1562864,"2026-07-19 19:30:00","330","0.10300000000000001","87.1","0.49","86.7","NAN","NAN","NAN","NAN","NAN"],
    [1562865,"2026-07-19 19:40:00","331","0.642","138.6","2.156","180.3","NAN","NAN","NAN","NAN","NAN"],
    [1562866,"2026-07-19 19:50:00","332","2.439","205.3","3.626","206.1","NAN","NAN","NAN","NAN","NAN"],
    [1562867,"2026-07-19 20:00:00","333","2.325","205.9","4.018","206.3","NAN","NAN","NAN","NAN","NAN"],
    [1562868,"2026-07-19 20:10:00","334","2.134","203.3","3.528","206.6","NAN","NAN","NAN","NAN","NAN"],
    [1562869,"2026-07-19 20:20:00","335","2.053","203.9","3.038","212.3","NAN","NAN","NAN","NAN","NAN"],
    [1562870,"2026-07-19 20:30:00","336","1.9980000000000002","206.9","2.842","200.6","NAN","NAN","NAN","NAN","NAN"],
    [1562871,"2026-07-19 20:40:00","337","1.442","208.7","2.45","200.2","NAN","NAN","NAN","NAN","NAN"],
    [1562872,"2026-07-19 20:50:00","338","1.746","208.4","2.646","208.7","NAN","NAN","NAN","NAN","NAN"],
    [1562873,"2026-07-19 21:00:00","339","1.514","206.6","2.156","203.5","NAN","NAN","NAN","NAN","NAN"],
    [1562874,"2026-07-19 21:10:00","340","2.021","205.8","3.234","216.3","NAN","NAN","NAN","NAN","NAN"],
    [1562875,"2026-07-19 21:20:00","341","1.818","207.9","2.842","211.7","NAN","NAN","NAN","NAN","NAN"],
    [1562876,"2026-07-19 21:30:00","342","1.4280000000000002","204.1","2.744","205.1","NAN","NAN","NAN","NAN","NAN"],
    [1562877,"2026-07-19 21:40:00","343","0.433","216.1","1.274","210.5","NAN","NAN","NAN","NAN","NAN"],
    [1562878,"2026-07-19 21:50:00","344","0.10099999999999999","218.2","1.078","218.2","NAN","NAN","NAN","NAN","NAN"],
    [1562879,"2026-07-19 22:00:00","345","0.073","218.2","0.49","218.3","NAN","NAN","NAN","NAN","NAN"],
    [1562880,"2026-07-19 22:10:00","346","0.528","211.2","0.98","218.3","NAN","NAN","NAN","NAN","NAN"],
    [1562881,"2026-07-19 22:20:00","347","0.423","192.9","0.784","192.6","NAN","NAN","NAN","NAN","NAN"],
    [1562882,"2026-07-19 22:30:00","348","1.511","190.1","2.842","189.8","NAN","NAN","NAN","NAN","NAN"],
    [1562883,"2026-07-19 22:40:00","349","0.8590000000000001","181.6","2.45","185.3","NAN","NAN","NAN","NAN","NAN"],
    [1562884,"2026-07-19 22:50:00","350","0.149","175.4","0.882","175.2","NAN","NAN","NAN","NAN","NAN"],
    [1562885,"2026-07-19 23:00:00","351","0.71","158.2","1.47","160.3","NAN","NAN","NAN","NAN","NAN"],
    [1562886,"2026-07-19 23:10:00","352","0.40700000000000003","155.9","0.882","153.5","NAN","NAN","NAN","NAN","NAN"],
    [1562887,"2026-07-19 23:20:00","353","0.313","144.5","0.784","151.6","NAN","NAN","NAN","NAN","NAN"],
    [1562888,"2026-07-19 23:30:00","354","0.665","136.5","1.96","136.7","NAN","NAN","NAN","NAN","NAN"],
    [1562889,"2026-07-19 23:40:00","355","0.121","136.1","0.686","136.1","NAN","NAN","NAN","NAN","NAN"],
    [1562890,"2026-07-19 23:50:00","356","0.0","0.0","0","136.1","NAN","NAN","NAN","NAN","NAN"],
    [1562891,"2026-07-20 00:00:00","357","0.006999999999999999","136.1","0.196","136.1","NAN","NAN","NAN","NAN","NAN"],
    [1562892,"2026-07-20 00:10:00","358","0.135","136.1","0.784","136.1","NAN","NAN","NAN","NAN","NAN"],
    [1562893,"2026-07-20 00:20:00","359","0.20199999999999999","136.1","0.882","136.1","NAN","NAN","NAN","NAN","NAN"],
    [1562894,"2026-07-20 00:30:00","360","0.095","135.1","0.588","134.7","NAN","NAN","NAN","NAN","NAN"],
    [1562895,"2026-07-20 00:40:00","361","0.48","127.1","1.47","126.2","NAN","NAN","NAN","NAN","NAN"],
    [1562896,"2026-07-20 00:50:00","362","1.4509999999999998","84.2","2.744","84.8","NAN","NAN","NAN","NAN","NAN"],
    [1562897,"2026-07-20 01:00:00","363","1.173","69.47","1.862","68.37","NAN","NAN","NAN","NAN","NAN"],
    [1562898,"2026-07-20 01:10:00","364","0.486","68.32","1.764","68.32","NAN","NAN","NAN","NAN","NAN"],
    [1562899,"2026-07-20 01:20:00","365","0.7170000000000001","70.57","0.98","68.32","NAN","NAN","NAN","NAN","NAN"],
    [1562900,"2026-07-20 01:30:00","366","0.537","80.6","0.882","73.96","NAN","NAN","NAN","NAN","NAN"],
    [1562901,"2026-07-20 01:40:00","367","0.159","85.0","1.176","86.6","NAN","NAN","NAN","NAN","NAN"],
    [1562902,"2026-07-20 01:50:00","368","1.031","88.8","2.058","94.5","NAN","NAN","NAN","NAN","NAN"],
    [1562903,"2026-07-20 02:00:00","369","0.982","103.0","1.568","100.5","NAN","NAN","NAN","NAN","NAN"],
    [1562904,"2026-07-20 02:10:00","370","0.155","139.6","0.882","129.8","NAN","NAN","NAN","NAN","NAN"],
    [1562905,"2026-07-20 02:20:00","371","0.198","143.9","0.882","143.2","NAN","NAN","NAN","NAN","NAN"],
    [1562906,"2026-07-20 02:30:00","372","0.129","145.2","0.686","145.3","NAN","NAN","NAN","NAN","NAN"],
    [1562907,"2026-07-20 02:40:00","373","0.053","146.3","0.49","145.8","NAN","NAN","NAN","NAN","NAN"],
    [1562908,"2026-07-20 02:50:00","374","0.153","152.9","0.49","148.2","NAN","NAN","NAN","NAN","NAN"],
    [1562909,"2026-07-20 03:00:00","375","0.057","173.5","0.49","172.3","NAN","NAN","NAN","NAN","NAN"],
    [1562910,"2026-07-20 03:10:00","376","0.098","177.5","0.588","177.5","NAN","NAN","NAN","NAN","NAN"],
    [1562911,"2026-07-20 03:20:00","377","0.13","180.8","0.588","181.4","NAN","NAN","NAN","NAN","NAN"],
    [1562912,"2026-07-20 03:30:00","378","0.135","206.8","0.686","219.8","NAN","NAN","NAN","NAN","NAN"],
    [1562913,"2026-07-20 03:40:00","379","0.763","242.2","1.862","253.1","NAN","NAN","NAN","NAN","NAN"],
    [1562914,"2026-07-20 03:50:00","380","0.9159999999999999","274.4","2.352","299.2","NAN","NAN","NAN","NAN","NAN"],
    [1562915,"2026-07-20 04:00:00","381","1.3980000000000001","339.1","2.352","343.8","NAN","NAN","NAN","NAN","NAN"],
    [1562916,"2026-07-20 04:10:00","382","1.194","343.6","1.96","341.8","NAN","NAN","NAN","NAN","NAN"],
    [1562917,"2026-07-20 04:20:00","383","0.8340000000000001","349.6","1.666","349.7","NAN","NAN","NAN","NAN","NAN"],
    [1562918,"2026-07-20 04:30:00","384","1.251","352.5","1.764","353.6","NAN","NAN","NAN","NAN","NAN"],
    [1562919,"2026-07-20 04:40:00","385","1.177","352.4","1.666","354.1","NAN","NAN","NAN","NAN","NAN"],
    [1562920,"2026-07-20 04:50:00","386","1.287","356.0","1.96","354.2","NAN","NAN","NAN","NAN","NAN"],
    [1562921,"2026-07-20 05:00:00","387","0.42700000000000005","359.3","1.274","347","NAN","NAN","NAN","NAN","NAN"],
    [1562922,"2026-07-20 05:10:00","388","0.42","2.563","1.176","1.78","NAN","NAN","NAN","NAN","NAN"],
    [1562923,"2026-07-20 05:20:00","389","0.10400000000000001","4.3580000000000005","0.784","4.355","NAN","NAN","NAN","NAN","NAN"],
    [1562924,"2026-07-20 05:30:00","390","0.379","336.5","1.176","342.4","NAN","NAN","NAN","NAN","NAN"],
    [1562925,"2026-07-20 05:40:00","391","0.5770000000000001","329.9","1.568","332.5","NAN","NAN","NAN","NAN","NAN"],
    [1562926,"2026-07-20 05:50:00","392","0.488","327.3","1.176","328.2","NAN","NAN","NAN","NAN","NAN"],
    [1562927,"2026-07-20 06:00:00","393","0.37200000000000005","324.8","1.078","324.8","NAN","NAN","NAN","NAN","NAN"],
    [1562928,"2026-07-20 06:10:00","394","0.16","324.3","0.686","324.5","NAN","NAN","NAN","NAN","NAN"],
    [1562929,"2026-07-20 06:20:00","395","0.275","325.2","0.784","324.5","NAN","NAN","NAN","NAN","NAN"],
    [1562930,"2026-07-20 06:30:00","0","0.311","325.6","0.686","324.1","NAN","NAN","NAN","NAN","NAN"],
    [1562931,"2026-07-20 06:40:00","1","0.867","22.89","2.548","66.71","NAN","NAN","NAN","NAN","NAN"],
    [1562932,"2026-07-20 06:50:00","2","1.839","61.44","3.038","69.14","NAN","NAN","NAN","NAN","NAN"],
    [1562933,"2026-07-20 07:00:00","3","1.489","59.12","2.45","67.74","NAN","NAN","NAN","NAN","NAN"],
    [1562934,"2026-07-20 07:10:00","0","1.7730000000000001","53.42","2.548","57.81","NAN","NAN","NAN","NAN","NAN"],
    [1562935,"2026-07-20 07:20:00","1","2.003","57.3","3.234","62.8","NAN","NAN","NAN","NAN","NAN"],
    [1562936,"2026-07-20 07:30:00","2","2.335","66.74","3.626","63.48","NAN","NAN","NAN","NAN","NAN"],
    [1562937,"2026-07-20 07:40:00","0","2.819","69.6","4.018","59.53","NAN","NAN","NAN","NAN","NAN"],
    [1562938,"2026-07-20 07:50:00","1","3.8139999999999996","70.04","5.39","65.79","NAN","NAN","NAN","NAN","NAN"],
    [1562939,"2026-07-20 08:00:00","2","3.306","68.99","5.39","68.19","NAN","NAN","NAN","NAN","NAN"],
    [1562940,"2026-07-20 08:10:00","3","2.9139999999999997","58.83","4.704","61.76","NAN","NAN","NAN","NAN","NAN"],
    [1562941,"2026-07-20 08:20:00","4","2.3890000000000002","61.6","3.626","71.84","NAN","NAN","NAN","NAN","NAN"],
    [1562942,"2026-07-20 08:30:00","5","2.386","77.79","3.822","102.5","NAN","NAN","NAN","NAN","NAN"],
    [1562943,"2026-07-20 08:40:00","6","3.069","99.6","5.096","101.5","NAN","NAN","NAN","NAN","NAN"],
    [1562944,"2026-07-20 08:50:00","7","3.298","100.4","5.39","124","NAN","NAN","NAN","NAN","NAN"],
    [1562945,"2026-07-20 09:00:00","8","2.6460000000000004","93.4","4.41","104.5","NAN","NAN","NAN","NAN","NAN"],
    [1562946,"2026-07-20 09:10:00","9","2.972","101.3","4.704","104.9","NAN","NAN","NAN","NAN","NAN"],
    [1562947,"2026-07-20 09:20:00","10","3.0260000000000002","114.6","4.214","93.2","NAN","NAN","NAN","NAN","NAN"],
    [1562948,"2026-07-20 09:30:00","11","2.638","86.6","4.508","88","NAN","NAN","NAN","NAN","NAN"],
    [1562949,"2026-07-20 09:40:00","12","2.661","98.4","4.312","70.29","NAN","NAN","NAN","NAN","NAN"],
    [1562950,"2026-07-20 09:50:00","13","2.891","116.9","3.92","110.9","NAN","NAN","NAN","NAN","NAN"],
    [1562951,"2026-07-20 10:00:00","14","2.95","99.4","5.096","84.5","NAN","NAN","NAN","NAN","NAN"],
    [1562952,"2026-07-20 10:10:00","15","3.4410000000000003","99.0","5.292","97.4","NAN","NAN","NAN","NAN","NAN"],
    [1562953,"2026-07-20 10:20:00","16","3.284","101.8","5.292","117.6","NAN","NAN","NAN","NAN","NAN"],
    [1562954,"2026-07-20 10:30:00","17","3.491","109.9","4.802","117.7","NAN","NAN","NAN","NAN","NAN"],
    [1562955,"2026-07-20 10:40:00","18","3.35","120.1","5.292","97.8","NAN","NAN","NAN","NAN","NAN"],
    [1562956,"2026-07-20 10:50:00","19","2.9789999999999996","119.3","4.41","142.6","NAN","NAN","NAN","NAN","NAN"],
    [1562957,"2026-07-20 11:00:00","20","2.8510000000000004","120.2","4.998","117.2","NAN","NAN","NAN","NAN","NAN"],
    [1562958,"2026-07-20 11:10:00","21","3.2430000000000003","117.1","5.488","104","NAN","NAN","NAN","NAN","NAN"],
    [1562959,"2026-07-20 11:20:00","22","3.533","106.0","5.292","85.7","NAN","NAN","NAN","NAN","NAN"],
    [1562960,"2026-07-20 11:30:00","23","2.766","102.6","4.606","103.9","NAN","NAN","NAN","NAN","NAN"],
    [1562961,"2026-07-20 11:40:00","24","3.438","104.2","5.488","102.2","NAN","NAN","NAN","NAN","NAN"],
    [1562962,"2026-07-20 11:50:00","25","3.3110000000000004","104.6","4.606","116","NAN","NAN","NAN","NAN","NAN"],
    [1562963,"2026-07-20 12:00:00","26","2.9619999999999997","97.2","4.9","96.2","NAN","NAN","NAN","NAN","NAN"],
    [1562964,"2026-07-20 12:10:00","27","3.306","98.1","5.39","93.1","NAN","NAN","NAN","NAN","NAN"],
    [1562965,"2026-07-20 12:20:00","28","3.41","115.6","5.194","112.2","NAN","NAN","NAN","NAN","NAN"],
    [1562966,"2026-07-20 12:30:00","29","3.0060000000000002","111.1","4.508","95.2","NAN","NAN","NAN","NAN","NAN"],
    [1562967,"2026-07-20 12:40:00","30","3.072","115.8","4.41","105.8","NAN","NAN","NAN","NAN","NAN"],
    [1562968,"2026-07-20 12:50:00","31","2.983","100.2","5.488","87.8","NAN","NAN","NAN","NAN","NAN"],
    [1562969,"2026-07-20 13:00:00","32","3.01","106.8","4.9","101.4","NAN","NAN","NAN","NAN","NAN"],
    [1562970,"2026-07-20 13:10:00","33","3.321","104.1","5.096","109","NAN","NAN","NAN","NAN","NAN"],
    [1562971,"2026-07-20 13:20:00","34","3.154","100.1","5.194","101","NAN","NAN","NAN","NAN","NAN"],
    [1562972,"2026-07-20 13:30:00","35","3.239","98.5","5.194","85.6","NAN","NAN","NAN","NAN","NAN"],
    [1562973,"2026-07-20 13:40:00","36","3.438","98.5","4.998","76.78","NAN","NAN","NAN","NAN","NAN"],
    [1562974,"2026-07-20 13:50:00","37","3.437","100.2","6.076","100.9","NAN","NAN","NAN","NAN","NAN"],
    [1562975,"2026-07-20 14:00:00","38","3.335","115.0","4.9","124.7","NAN","NAN","NAN","NAN","NAN"],
    [1562976,"2026-07-20 14:10:00","39","3.6189999999999998","116.7","5.096","108.3","NAN","NAN","NAN","NAN","NAN"],
    [1562977,"2026-07-20 14:20:00","40","3.011","122.8","4.998","129.5","NAN","NAN","NAN","NAN","NAN"],
    [1562978,"2026-07-20 14:30:00","41","3.318","125.6","5.096","146","NAN","NAN","NAN","NAN","NAN"],
    [1562979,"2026-07-20 14:40:00","42","3.138","123.2","4.998","139.1","NAN","NAN","NAN","NAN","NAN"],
    [1562980,"2026-07-20 14:50:00","43","2.6010000000000004","117.6","3.92","143.9","NAN","NAN","NAN","NAN","NAN"],
    [1562981,"2026-07-20 15:00:00","44","2.917","104.3","4.116","85","NAN","NAN","NAN","NAN","NAN"],
    [1562982,"2026-07-20 15:10:00","45","2.7710000000000004","116.8","4.116","145.3","NAN","NAN","NAN","NAN","NAN"],
    [1562983,"2026-07-20 15:20:00","46","3.262","132.4","5.194","142.8","NAN","NAN","NAN","NAN","NAN"],
    [1562984,"2026-07-20 15:30:00","47","2.8739999999999997","142.1","4.508","160.1","NAN","NAN","NAN","NAN","NAN"],
    [1562985,"2026-07-20 15:40:00","48","1.7890000000000001","174.4","3.332","164.9","NAN","NAN","NAN","NAN","NAN"],
    [1562986,"2026-07-20 15:50:00","49","2.296","141.2","3.724","137","NAN","NAN","NAN","NAN","NAN"],
    [1562987,"2026-07-20 16:00:00","50","3.2769999999999997","159.7","4.998","167.1","NAN","NAN","NAN","NAN","NAN"],
    [1562988,"2026-07-20 16:10:00","51","1.984","215.8","5.586","225.1","NAN","NAN","NAN","NAN","NAN"],
    [1562989,"2026-07-20 16:20:00","52","2.781","73.32","5.978","113.3","NAN","NAN","NAN","NAN","NAN"],
    [1562990,"2026-07-20 16:30:00","53","4.395","143.2","10","214.2","NAN","NAN","NAN","NAN","NAN"],
    [1562991,"2026-07-20 16:40:00","54","4.01","150.7","7.154","132.1","NAN","NAN","NAN","NAN","NAN"],
    [1562992,"2026-07-20 16:50:00","55","6.274","143.8","8.82","137.5","NAN","NAN","NAN","NAN","NAN"],
    [1562993,"2026-07-20 17:00:00","56","3.4939999999999998","269.5","7.644","157.2","NAN","NAN","NAN","NAN","NAN"],
    [1562994,"2026-07-20 17:10:00","57","3.207","243.0","6.37","250.8","NAN","NAN","NAN","NAN","NAN"],
    [1562995,"2026-07-20 17:20:00","58","0.5589999999999999","242.1","3.136","263","NAN","NAN","NAN","NAN","NAN"],
    [1562996,"2026-07-20 17:30:00","59","1.29","221.1","5.292","249.6","NAN","NAN","NAN","NAN","NAN"],
    [1562997,"2026-07-20 17:40:00","60","1.94","226.0","5.292","249.6","NAN","NAN","NAN","NAN","NAN"],
    [1562998,"2026-07-20 17:50:00","61","1.09","270.4","4.116","288.5","NAN","NAN","NAN","NAN","NAN"],
    [1562999,"2026-07-20 18:00:00","62","1.168","26.12","2.45","7.842","NAN","NAN","NAN","NAN","NAN"],
    [1563000,"2026-07-20 18:10:00","63","0.473","36.19","1.372","42.29","NAN","NAN","NAN","NAN","NAN"],
    [1563001,"2026-07-20 18:20:00","64","0.39299999999999996","38.28","1.47","49.51","NAN","NAN","NAN","NAN","NAN"],
    [1563002,"2026-07-20 18:30:00","65","0.135","1.64","0.784","10.83","NAN","NAN","NAN","NAN","NAN"],
    [1563003,"2026-07-20 18:40:00","66","0.24600000000000002","314.8","1.372","315.1","NAN","NAN","NAN","NAN","NAN"],
    [1563004,"2026-07-20 18:50:00","67","1.485","217.2","2.45","206.3","NAN","NAN","NAN","NAN","NAN"],
    [1563005,"2026-07-20 19:00:00","68","1.643","206.7","2.94","215.4","NAN","NAN","NAN","NAN","NAN"],
    [1563006,"2026-07-20 19:10:00","69","1.475","209.1","2.058","205.6","NAN","NAN","NAN","NAN","NAN"],
    [1563007,"2026-07-20 19:20:00","70","0.8140000000000001","218.6","1.764","212.2","NAN","NAN","NAN","NAN","NAN"],
    [1563008,"2026-07-20 19:30:00","71","0.11800000000000001","224.0","0.784","224.8","NAN","NAN","NAN","NAN","NAN"],
    [1563009,"2026-07-20 19:40:00","72","1.167","233.5","2.352","240.2","NAN","NAN","NAN","NAN","NAN"],
    [1563010,"2026-07-20 19:50:00","73","1.7009999999999998","227.2","2.94","223.3","NAN","NAN","NAN","NAN","NAN"],
    [1563011,"2026-07-20 20:00:00","74","2.3409999999999997","210.9","3.626","209.8","NAN","NAN","NAN","NAN","NAN"],
    [1563012,"2026-07-20 20:10:00","75","2.741","209.1","4.116","206.8","NAN","NAN","NAN","NAN","NAN"],
    [1563013,"2026-07-20 20:20:00","76","1.939","214.1","3.92","211","NAN","NAN","NAN","NAN","NAN"],
    [1563014,"2026-07-20 20:30:00","77","1.787","204.9","3.43","204.8","NAN","NAN","NAN","NAN","NAN"],
    [1563015,"2026-07-20 20:40:00","78","2.012","203.0","3.528","217.3","NAN","NAN","NAN","NAN","NAN"],
    [1563016,"2026-07-20 20:50:00","79","2.2569999999999997","211.0","4.018","217.1","NAN","NAN","NAN","NAN","NAN"],
    [1563017,"2026-07-20 21:00:00","80","1.818","211.2","3.528","215.5","NAN","NAN","NAN","NAN","NAN"],
    [1563018,"2026-07-20 21:10:00","81","1.023","209.5","2.842","198.9","NAN","NAN","NAN","NAN","NAN"],
    [1563019,"2026-07-20 21:20:00","82","0.789","222.0","1.862","221.5","NAN","NAN","NAN","NAN","NAN"],
    [1563020,"2026-07-20 21:30:00","83","0.97","225.0","2.646","235.6","NAN","NAN","NAN","NAN","NAN"],
    [1563021,"2026-07-20 21:40:00","84","0.778","218.9","2.156","215.6","NAN","NAN","NAN","NAN","NAN"],
    [1563022,"2026-07-20 21:50:00","85","1.03","213.1","2.254","210.6","NAN","NAN","NAN","NAN","NAN"],
    [1563023,"2026-07-20 22:00:00","86","0.581","209.7","1.274","209.6","NAN","NAN","NAN","NAN","NAN"],
    [1563024,"2026-07-20 22:10:00","87","0.795","216.9","1.764","221.7","NAN","NAN","NAN","NAN","NAN"],
    [1563025,"2026-07-20 22:20:00","88","0.879","209.0","1.764","209.3","NAN","NAN","NAN","NAN","NAN"],
    [1563026,"2026-07-20 22:30:00","89","0.35600000000000004","229.9","1.372","230.1","NAN","NAN","NAN","NAN","NAN"],
    [1563027,"2026-07-20 22:40:00","90","0.41100000000000003","233.3","1.372","233","NAN","NAN","NAN","NAN","NAN"],
    [1563028,"2026-07-20 22:50:00","91","0.69","234.2","1.96","233.6","NAN","NAN","NAN","NAN","NAN"],
    [1563029,"2026-07-20 23:00:00","92","0.249","231.6","1.372","234.8","NAN","NAN","NAN","NAN","NAN"],
    [1563030,"2026-07-20 23:10:00","93","0.364","234.1","1.274","234.8","NAN","NAN","NAN","NAN","NAN"],
    [1563031,"2026-07-20 23:20:00","94","0.02","226.9","0.294","226.9","NAN","NAN","NAN","NAN","NAN"],
    [1563032,"2026-07-20 23:30:00","95","0.1","219.7","0.392","217.4","NAN","NAN","NAN","NAN","NAN"],
    [1563033,"2026-07-20 23:40:00","96","0.129","227.8","0.49","227.8","NAN","NAN","NAN","NAN","NAN"],
    [1563034,"2026-07-20 23:50:00","97","0.19","218.4","0.98","222.4","NAN","NAN","NAN","NAN","NAN"],
    [1563035,"2026-07-21 00:00:00","98","0.593","217.1","1.176","214","NAN","NAN","NAN","NAN","NAN"],
    [1563036,"2026-07-21 00:10:00","99","0.877","210.0","1.568","211.2","NAN","NAN","NAN","NAN","NAN"],
    [1563037,"2026-07-21 00:20:00","100","1.359","121.4","2.744","77.04","NAN","NAN","NAN","NAN","NAN"],
    [1563038,"2026-07-21 00:30:00","101","2.356","76.06","3.92","74.25","NAN","NAN","NAN","NAN","NAN"],
    [1563039,"2026-07-21 00:40:00","102","2.0909999999999997","82.0","3.92","83.6","NAN","NAN","NAN","NAN","NAN"],
    [1563040,"2026-07-21 00:50:00","103","1.4","73.28","2.744","74.41","NAN","NAN","NAN","NAN","NAN"],
    [1563041,"2026-07-21 01:00:00","104","1.641","82.1","2.45","79.43","NAN","NAN","NAN","NAN","NAN"],
    [1563042,"2026-07-21 01:10:00","105","1.265","77.03","2.548","79.83","NAN","NAN","NAN","NAN","NAN"],
    [1563043,"2026-07-21 01:20:00","106","1.459","73.08","2.842","70.58","NAN","NAN","NAN","NAN","NAN"],
    [1563044,"2026-07-21 01:30:00","107","1.6580000000000001","62.62","2.842","61.88","NAN","NAN","NAN","NAN","NAN"],
    [1563045,"2026-07-21 01:40:00","108","1.739","65.76","2.744","64.33","NAN","NAN","NAN","NAN","NAN"],
    [1563046,"2026-07-21 01:50:00","109","1.2790000000000001","57.37","2.156","62.88","NAN","NAN","NAN","NAN","NAN"],
    [1563047,"2026-07-21 02:00:00","110","0.862","63.1","2.254","65.2","NAN","NAN","NAN","NAN","NAN"],
    [1563048,"2026-07-21 02:10:00","111","0.669","61.93","1.274","70.28","NAN","NAN","NAN","NAN","NAN"],
    [1563049,"2026-07-21 02:20:00","112","0.13","54.02","0.686","54.14","NAN","NAN","NAN","NAN","NAN"],
    [1563050,"2026-07-21 02:30:00","113","0.6729999999999999","69.28","1.47","72.12","NAN","NAN","NAN","NAN","NAN"],
    [1563051,"2026-07-21 02:40:00","114","0.6459999999999999","72.63","1.274","72.22","NAN","NAN","NAN","NAN","NAN"],
    [1563052,"2026-07-21 02:50:00","115","0.8640000000000001","70.86","1.862","74.45","NAN","NAN","NAN","NAN","NAN"],
    [1563053,"2026-07-21 03:00:00","116","0.29100000000000004","57.66","1.078","63","NAN","NAN","NAN","NAN","NAN"],
    [1563054,"2026-07-21 03:10:00","117","1.213","79.04","3.528","111.7","NAN","NAN","NAN","NAN","NAN"],
    [1563055,"2026-07-21 03:20:00","118","1.6880000000000002","109.0","3.724","115.6","NAN","NAN","NAN","NAN","NAN"],
    [1563056,"2026-07-21 03:30:00","119","1.22","40.09","2.548","35.36","NAN","NAN","NAN","NAN","NAN"],
    [1563057,"2026-07-21 03:40:00","120","1.415","32.17","2.156","28.39","NAN","NAN","NAN","NAN","NAN"],
    [1563058,"2026-07-21 03:50:00","121","1.2009999999999998","44.28","2.156","40.76","NAN","NAN","NAN","NAN","NAN"],
    [1563059,"2026-07-21 04:00:00","122","0.8590000000000001","50.95","1.96","50.86","NAN","NAN","NAN","NAN","NAN"],
    [1563060,"2026-07-21 04:10:00","123","0.922","47.67","1.666","36.81","NAN","NAN","NAN","NAN","NAN"],
    [1563061,"2026-07-21 04:20:00","124","0.78","34.49","1.372","35.17","NAN","NAN","NAN","NAN","NAN"],
    [1563062,"2026-07-21 04:30:00","125","0.56","31.7","1.47","31.42","NAN","NAN","NAN","NAN","NAN"],
    [1563063,"2026-07-21 04:40:00","126","1.015","28.98","1.764","27.67","NAN","NAN","NAN","NAN","NAN"],
    [1563064,"2026-07-21 04:50:00","127","1.117","30.62","1.862","27.19","NAN","NAN","NAN","NAN","NAN"],
    [1563065,"2026-07-21 05:00:00","128","1.511","32.82","2.352","35.36","NAN","NAN","NAN","NAN","NAN"],
    [1563066,"2026-07-21 05:10:00","129","1.09","24.06","2.254","21.99","NAN","NAN","NAN","NAN","NAN"],
    [1563067,"2026-07-21 05:20:00","130","1.3119999999999998","31.29","2.156","39.79","NAN","NAN","NAN","NAN","NAN"],
    [1563068,"2026-07-21 05:30:00","131","1.896","19.44","3.136","22.81","NAN","NAN","NAN","NAN","NAN"],
    [1563069,"2026-07-21 05:40:00","132","1.3630000000000002","22.1","2.45","13.43","NAN","NAN","NAN","NAN","NAN"],
    [1563070,"2026-07-21 05:50:00","133","1.251","32.26","2.254","32.48","NAN","NAN","NAN","NAN","NAN"],
    [1563071,"2026-07-21 06:00:00","134","1.244","25.81","2.058","13.62","NAN","NAN","NAN","NAN","NAN"],
    [1563072,"2026-07-21 06:10:00","135","0.168","24.57","1.274","13.91","NAN","NAN","NAN","NAN","NAN"],
    [1563073,"2026-07-21 06:20:00","136","0.525","27.27","1.47","325.3","NAN","NAN","NAN","NAN","NAN"],
    [1563074,"2026-07-21 06:30:00","137","5.117","85.4","9.9","105.2","NAN","NAN","NAN","NAN","NAN"],
    [1563075,"2026-07-21 06:40:00","138","2.805","51.84","5.782","16.84","NAN","NAN","NAN","NAN","NAN"],
    [1563076,"2026-07-21 06:50:00","139","2.105","54.52","3.724","39.77","NAN","NAN","NAN","NAN","NAN"],
    [1563077,"2026-07-21 07:00:00","140","2.43","63.7","3.724","70.31","NAN","NAN","NAN","NAN","NAN"],
    [1563078,"2026-07-21 07:10:00","141","1.919","79.32","3.528","72.14","NAN","NAN","NAN","NAN","NAN"],
    [1563079,"2026-07-21 07:20:00","142","1.5630000000000002","75.52","3.136","114.4","NAN","NAN","NAN","NAN","NAN"],
    [1563080,"2026-07-21 07:30:00","143","1.848","135.1","3.724","173.6","NAN","NAN","NAN","NAN","NAN"],
    [1563081,"2026-07-21 07:40:00","144","2.955","148.3","4.214","155.8","NAN","NAN","NAN","NAN","NAN"],
    [1563082,"2026-07-21 07:50:00","145","2.483","93.2","3.822","71.65","NAN","NAN","NAN","NAN","NAN"],
    [1563083,"2026-07-21 08:00:00","146","2.418","71.68","4.018","69.24","NAN","NAN","NAN","NAN","NAN"],
    [1563084,"2026-07-21 08:10:00","147","3.5189999999999997","80.8","6.37","83.7","NAN","NAN","NAN","NAN","NAN"],
    [1563085,"2026-07-21 08:20:00","148","3.128","97.5","6.958","101.7","NAN","NAN","NAN","NAN","NAN"],
    [1563086,"2026-07-21 08:30:00","149","1.317","61.75","2.842","68.36","NAN","NAN","NAN","NAN","NAN"],
    [1563087,"2026-07-21 08:40:00","150","1.815","52.41","2.94","32.29","NAN","NAN","NAN","NAN","NAN"],
    [1563088,"2026-07-21 08:50:00","151","2.325","111.3","4.116","80.2","NAN","NAN","NAN","NAN","NAN"],
    [1563089,"2026-07-21 09:00:00","152","1.3219999999999998","86.2","2.646","84.6","NAN","NAN","NAN","NAN","NAN"],
    [1563090,"2026-07-21 09:10:00","153","2.471","135.0","3.724","143.3","NAN","NAN","NAN","NAN","NAN"],
    [1563091,"2026-07-21 09:20:00","154","3.69","152.9","5.586","159.6","NAN","NAN","NAN","NAN","NAN"],
    [1563092,"2026-07-21 09:30:00","155","3.0469999999999997","123.6","4.606","128.5","NAN","NAN","NAN","NAN","NAN"],
    [1563093,"2026-07-21 09:40:00","156","3.025","124.1","4.312","135.6","NAN","NAN","NAN","NAN","NAN"],
    [1563094,"2026-07-21 09:50:00","157","2.34","106.3","3.822","54.32","NAN","NAN","NAN","NAN","NAN"],
    [1563095,"2026-07-21 10:00:00","158","3.2710000000000004","102.2","4.998","95.9","NAN","NAN","NAN","NAN","NAN"],
    [1563096,"2026-07-21 10:10:00","159","2.867","136.1","4.704","112.7","NAN","NAN","NAN","NAN","NAN"],
    [1563097,"2026-07-21 10:20:00","160","2.835","128.0","4.704","149.7","NAN","NAN","NAN","NAN","NAN"],
    [1563098,"2026-07-21 10:30:00","161","3.19","116.3","4.998","121.6","NAN","NAN","NAN","NAN","NAN"],
    [1563099,"2026-07-21 10:40:00","162","2.71","121.5","4.802","137.4","NAN","NAN","NAN","NAN","NAN"],
    [1563100,"2026-07-21 10:50:00","163","2.987","111.9","4.998","144.7","NAN","NAN","NAN","NAN","NAN"],
    [1563101,"2026-07-21 11:00:00","164","3.2489999999999997","115.6","4.802","110","NAN","NAN","NAN","NAN","NAN"],
    [1563102,"2026-07-21 11:10:00","165","3.937","117.1","5.39","108.1","NAN","NAN","NAN","NAN","NAN"],
    [1563103,"2026-07-21 11:20:00","166","3.7880000000000003","105.4","5.88","91","NAN","NAN","NAN","NAN","NAN"],
    [1563104,"2026-07-21 11:30:00","167","3.1289999999999996","101.2","4.802","81.9","NAN","NAN","NAN","NAN","NAN"],
    [1563105,"2026-07-21 11:40:00","168","3.5460000000000003","101.3","5.88","98.6","NAN","NAN","NAN","NAN","NAN"],
    [1563106,"2026-07-21 11:50:00","169","3.747","107.1","5.684","121.9","NAN","NAN","NAN","NAN","NAN"],
    [1563107,"2026-07-21 12:00:00","170","3.2960000000000003","124.3","4.802","139.9","NAN","NAN","NAN","NAN","NAN"],
    [1563108,"2026-07-21 12:10:00","171","3.1430000000000002","120.0","5.096","146.2","NAN","NAN","NAN","NAN","NAN"],
    [1563109,"2026-07-21 12:20:00","172","3.286","121.4","5.292","117.1","NAN","NAN","NAN","NAN","NAN"],
    [1563110,"2026-07-21 12:30:00","173","3.4360000000000004","118.1","4.998","119.7","NAN","NAN","NAN","NAN","NAN"],
    [1563111,"2026-07-21 12:40:00","174","3.3160000000000003","105.1","5.488","93.9","NAN","NAN","NAN","NAN","NAN"],
    [1563112,"2026-07-21 12:50:00","175","3.6010000000000004","100.8","5.782","95.3","NAN","NAN","NAN","NAN","NAN"],
    [1563113,"2026-07-21 13:00:00","176","3.275","98.3","5.39","95.6","NAN","NAN","NAN","NAN","NAN"],
    [1563114,"2026-07-21 13:10:00","177","4.262","96.7","6.468","80.6","NAN","NAN","NAN","NAN","NAN"],
    [1563115,"2026-07-21 13:20:00","178","3.9730000000000003","83.9","6.272","73.85","NAN","NAN","NAN","NAN","NAN"],
    [1563116,"2026-07-21 13:30:00","179","5.2829999999999995","68.37","7.742","62.76","NAN","NAN","NAN","NAN","NAN"],
    [1563117,"2026-07-21 13:40:00","180","5.692","67.69","7.546","66.97","NAN","NAN","NAN","NAN","NAN"],
    [1563118,"2026-07-21 13:50:00","181","5.294","70.54","8.04","67.09","NAN","NAN","NAN","NAN","NAN"],
    [1563119,"2026-07-21 14:00:00","182","4.676","71.8","6.86","63.36","NAN","NAN","NAN","NAN","NAN"],
    [1563120,"2026-07-21 14:10:00","183","5.252000000000001","64.98","7.644","72.62","NAN","NAN","NAN","NAN","NAN"],
    [1563121,"2026-07-21 14:20:00","184","4.744","70.68","7.644","75.77","NAN","NAN","NAN","NAN","NAN"],
    [1563122,"2026-07-21 14:30:00","185","4.565","70.89","7.448","67.79","NAN","NAN","NAN","NAN","NAN"],
    [1563123,"2026-07-21 14:40:00","186","3.855","87.5","6.37","62.21","NAN","NAN","NAN","NAN","NAN"],
    [1563124,"2026-07-21 14:50:00","187","3.7460000000000004","104.4","5.39","113.9","NAN","NAN","NAN","NAN","NAN"],
    [1563125,"2026-07-21 15:00:00","188","2.96","103.1","4.116","112.3","NAN","NAN","NAN","NAN","NAN"],
    [1563126,"2026-07-21 15:10:00","189","2.928","111.4","4.214","105.2","NAN","NAN","NAN","NAN","NAN"],
    [1563127,"2026-07-21 15:20:00","190","2.795","119.3","4.116","139.8","NAN","NAN","NAN","NAN","NAN"],
    [1563128,"2026-07-21 15:30:00","191","3.04","124.6","4.312","100.6","NAN","NAN","NAN","NAN","NAN"],
    [1563129,"2026-07-21 15:40:00","192","2.555","120.7","4.704","132.5","NAN","NAN","NAN","NAN","NAN"],
    [1563130,"2026-07-21 15:50:00","193","2.206","127.0","4.214","132.7","NAN","NAN","NAN","NAN","NAN"],
    [1563131,"2026-07-21 16:00:00","194","2.112","110.1","3.528","124.4","NAN","NAN","NAN","NAN","NAN"],
    [1563132,"2026-07-21 16:10:00","195","2.499","101.6","3.724","104","NAN","NAN","NAN","NAN","NAN"],
    [1563133,"2026-07-21 16:20:00","196","2.1590000000000003","98.5","3.724","99.5","NAN","NAN","NAN","NAN","NAN"],
    [1563134,"2026-07-21 16:30:00","197","2.129","115.1","3.626","130","NAN","NAN","NAN","NAN","NAN"],
    [1563135,"2026-07-21 16:40:00","198","2.323","124.3","3.724","145.3","NAN","NAN","NAN","NAN","NAN"],
    [1563136,"2026-07-21 16:50:00","199","2.123","113.8","3.332","135.8","NAN","NAN","NAN","NAN","NAN"],
    [1563137,"2026-07-21 17:00:00","200","1.9140000000000001","120.1","3.528","122.5","NAN","NAN","NAN","NAN","NAN"],
    [1563138,"2026-07-21 17:10:00","201","1.516","137.7","2.842","145.7","NAN","NAN","NAN","NAN","NAN"],
    [1563139,"2026-07-21 17:20:00","202","1.224","147.5","2.842","145.7","NAN","NAN","NAN","NAN","NAN"],
    [1563140,"2026-07-21 17:30:00","203","0.892","139.1","2.744","139.2","NAN","NAN","NAN","NAN","NAN"],
    [1563141,"2026-07-21 17:40:00","204","1.16","132.6","2.254","124.6","NAN","NAN","NAN","NAN","NAN"],
    [1563142,"2026-07-21 17:50:00","205","1.062","179.0","2.548","170.9","NAN","NAN","NAN","NAN","NAN"],
    [1563143,"2026-07-21 18:00:00","206","0.774","164.6","2.254","172.6","NAN","NAN","NAN","NAN","NAN"],
    [1563144,"2026-07-21 18:10:00","207","1.163","166.9","2.548","192.7","NAN","NAN","NAN","NAN","NAN"],
    [1563145,"2026-07-21 18:20:00","208","1.084","203.1","2.352","208.4","NAN","NAN","NAN","NAN","NAN"],
    [1563146,"2026-07-21 18:30:00","209","0.711","207.4","2.058","213.4","NAN","NAN","NAN","NAN","NAN"],
    [1563147,"2026-07-21 18:40:00","210","1.65","214.1","2.94","214.2","NAN","NAN","NAN","NAN","NAN"],
    [1563148,"2026-07-21 18:50:00","211","1.068","219.8","2.058","214.3","NAN","NAN","NAN","NAN","NAN"],
    [1563149,"2026-07-21 19:00:00","212","1.53","227.9","2.646","212.4","NAN","NAN","NAN","NAN","NAN"],
    [1563150,"2026-07-21 19:10:00","213","1.8319999999999999","217.7","2.94","211.8","NAN","NAN","NAN","NAN","NAN"],
    [1563151,"2026-07-21 19:20:00","214","2.05","208.8","3.038","219.9","NAN","NAN","NAN","NAN","NAN"],
    [1563152,"2026-07-21 19:30:00","215","2.391","238.3","3.822","233.9","NAN","NAN","NAN","NAN","NAN"],
    [1563153,"2026-07-21 19:40:00","216","1.705","246.7","3.234","251","NAN","NAN","NAN","NAN","NAN"],
    [1563154,"2026-07-21 19:50:00","217","2.2359999999999998","250.4","3.332","239.7","NAN","NAN","NAN","NAN","NAN"],
    [1563155,"2026-07-21 20:00:00","218","2.291","253.2","3.038","256.1","NAN","NAN","NAN","NAN","NAN"],
    [1563156,"2026-07-21 20:10:00","219","1.709","258.2","3.038","245","NAN","NAN","NAN","NAN","NAN"],
    [1563157,"2026-07-21 20:20:00","220","1.3319999999999999","256.1","2.548","242.2","NAN","NAN","NAN","NAN","NAN"],
    [1563158,"2026-07-21 20:30:00","221","0.7859999999999999","263.6","1.47","261.7","NAN","NAN","NAN","NAN","NAN"],
    [1563159,"2026-07-21 20:40:00","222","0.42100000000000004","291.7","1.568","294.7","NAN","NAN","NAN","NAN","NAN"],
    [1563160,"2026-07-21 20:50:00","223","1.391","320.6","2.45","322.8","NAN","NAN","NAN","NAN","NAN"],
    [1563161,"2026-07-21 21:00:00","224","1.296","338.0","2.156","336.4","NAN","NAN","NAN","NAN","NAN"],
    [1563162,"2026-07-21 21:10:00","225","0.7490000000000001","340.1","1.666","340.9","NAN","NAN","NAN","NAN","NAN"],
    [1563163,"2026-07-21 21:20:00","226","1.5330000000000001","342.8","2.45","343.6","NAN","NAN","NAN","NAN","NAN"],
    [1563164,"2026-07-21 21:30:00","227","1.554","348.8","2.352","350.2","NAN","NAN","NAN","NAN","NAN"],
    [1563165,"2026-07-21 21:40:00","228","0.955","352.2","1.862","352.8","NAN","NAN","NAN","NAN","NAN"],
    [1563166,"2026-07-21 21:50:00","229","1.285","357.0","2.352","9.67","NAN","NAN","NAN","NAN","NAN"],
    [1563167,"2026-07-21 22:00:00","230","1.4669999999999999","12.73","2.45","9.96","NAN","NAN","NAN","NAN","NAN"],
    [1563168,"2026-07-21 22:10:00","231","1.5630000000000002","13.7","2.254","15.16","NAN","NAN","NAN","NAN","NAN"],
    [1563169,"2026-07-21 22:20:00","232","1.006","20.33","1.96","20.93","NAN","NAN","NAN","NAN","NAN"],
    [1563170,"2026-07-21 22:30:00","233","0.9940000000000001","18.91","2.842","20.16","NAN","NAN","NAN","NAN","NAN"],
    [1563171,"2026-07-21 22:40:00","234","1.0490000000000002","16.31","1.862","21.61","NAN","NAN","NAN","NAN","NAN"],
    [1563172,"2026-07-21 22:50:00","235","1.248","6.149","1.96","5.342","NAN","NAN","NAN","NAN","NAN"],
    [1563173,"2026-07-21 23:00:00","236","0.638","4.283","1.666","4.282","NAN","NAN","NAN","NAN","NAN"],
    [1563174,"2026-07-21 23:10:00","237","0.049","0.7879999999999999","0.392","1.78","NAN","NAN","NAN","NAN","NAN"],
    [1563175,"2026-07-21 23:20:00","238","0.569","331.2","1.568","297","NAN","NAN","NAN","NAN","NAN"],
    [1563176,"2026-07-21 23:30:00","239","0.847","293.6","1.568","295.2","NAN","NAN","NAN","NAN","NAN"],
    [1563177,"2026-07-21 23:40:00","240","1.253","293.1","1.96","293.3","NAN","NAN","NAN","NAN","NAN"],
    [1563178,"2026-07-21 23:50:00","241","1.083","292.6","1.764","292.4","NAN","NAN","NAN","NAN","NAN"],
    [1563179,"2026-07-22 00:00:00","242","1.436","296.4","2.156","297.6","NAN","NAN","NAN","NAN","NAN"],
    [1563180,"2026-07-22 00:10:00","243","1.339","291.4","2.058","292.1","NAN","NAN","NAN","NAN","NAN"],
    [1563181,"2026-07-22 00:20:00","244","1.867","284.3","2.646","281.1","NAN","NAN","NAN","NAN","NAN"],
    [1563182,"2026-07-22 00:30:00","245","1.791","282.1","2.548","281.6","NAN","NAN","NAN","NAN","NAN"],
    [1563183,"2026-07-22 00:40:00","246","1.7180000000000002","292.5","2.842","280.6","NAN","NAN","NAN","NAN","NAN"],
    [1563184,"2026-07-22 00:50:00","247","0.83","299.9","1.47","298.7","NAN","NAN","NAN","NAN","NAN"],
    [1563185,"2026-07-22 01:00:00","248","0.662","291.6","1.47","293","NAN","NAN","NAN","NAN","NAN"],
    [1563186,"2026-07-22 01:10:00","249","0.193","294.6","0.686","288.3","NAN","NAN","NAN","NAN","NAN"],
    [1563187,"2026-07-22 01:20:00","250","0.78","309.4","3.234","80.1","NAN","NAN","NAN","NAN","NAN"],
    [1563188,"2026-07-22 01:30:00","251","2.4659999999999997","90.6","4.214","80","NAN","NAN","NAN","NAN","NAN"],
    [1563189,"2026-07-22 01:40:00","252","1.65","86.1","3.528","97.3","NAN","NAN","NAN","NAN","NAN"],
    [1563190,"2026-07-22 01:50:00","253","1.1840000000000002","81.2","3.038","86.7","NAN","NAN","NAN","NAN","NAN"],
    [1563191,"2026-07-22 02:00:00","254","2.804","90.9","5.39","101","NAN","NAN","NAN","NAN","NAN"],
    [1563192,"2026-07-22 02:10:00","255","5.269","77.3","7.84","77.75","NAN","NAN","NAN","NAN","NAN"],
    [1563193,"2026-07-22 02:20:00","256","5.574","82.6","8.23","79.26","NAN","NAN","NAN","NAN","NAN"],
    [1563194,"2026-07-22 02:30:00","257","4.393","83.7","7.448","101.7","NAN","NAN","NAN","NAN","NAN"],
    [1563195,"2026-07-22 02:40:00","258","4.645","84.7","7.056","87.3","NAN","NAN","NAN","NAN","NAN"],
    [1563196,"2026-07-22 02:50:00","259","4.208","83.5","6.86","79.78","NAN","NAN","NAN","NAN","NAN"],
    [1563197,"2026-07-22 03:00:00","260","4.69","81.7","7.448","95.2","NAN","NAN","NAN","NAN","NAN"],
    [1563198,"2026-07-22 03:10:00","261","4.725","79.42","7.056","77.82","NAN","NAN","NAN","NAN","NAN"],
    [1563199,"2026-07-22 03:20:00","262","4.349","83.7","6.958","81.5","NAN","NAN","NAN","NAN","NAN"],
    [1563200,"2026-07-22 03:30:00","263","5.006","81.7","7.742","82.6","NAN","NAN","NAN","NAN","NAN"],
    [1563201,"2026-07-22 03:40:00","264","4.35","84.4","6.272","70.5","NAN","NAN","NAN","NAN","NAN"],
    [1563202,"2026-07-22 03:50:00","265","3.366","68.68","6.076","25.6","NAN","NAN","NAN","NAN","NAN"],
    [1563203,"2026-07-22 04:00:00","266","4.218","81.8","6.762","86.7","NAN","NAN","NAN","NAN","NAN"],
    [1563204,"2026-07-22 04:10:00","267","4.734","79.39","6.664","74.83","NAN","NAN","NAN","NAN","NAN"],
    [1563205,"2026-07-22 04:20:00","268","4.781000000000001","82.4","6.958","84.6","NAN","NAN","NAN","NAN","NAN"],
    [1563206,"2026-07-22 04:30:00","269","4.479","85.4","6.664","78.04","NAN","NAN","NAN","NAN","NAN"],
    [1563207,"2026-07-22 04:40:00","270","4.58","85.4","6.664","78.04","NAN","NAN","NAN","NAN","NAN"],
    [1563208,"2026-07-22 04:50:00","271","4.805","82.2","7.742","84.2","NAN","NAN","NAN","NAN","NAN"],
    [1563209,"2026-07-22 05:00:00","272","4.231","76.72","7.938","86.4","NAN","NAN","NAN","NAN","NAN"],
    [1563210,"2026-07-22 05:10:00","273","4.745","79.43","7.448","69.05","NAN","NAN","NAN","NAN","NAN"],
    [1563211,"2026-07-22 05:20:00","274","4.702","73.3","7.35","76.8","NAN","NAN","NAN","NAN","NAN"],
    [1563212,"2026-07-22 05:30:00","275","4.582","78.52","7.154","73.9","NAN","NAN","NAN","NAN","NAN"],
    [1563213,"2026-07-22 05:40:00","276","3.424","74.73","5.978","63.17","NAN","NAN","NAN","NAN","NAN"],
    [1563214,"2026-07-22 05:50:00","277","2.4","53.0","3.822","78.97","NAN","NAN","NAN","NAN","NAN"],
    [1563215,"2026-07-22 06:00:00","278","3.375","42.91","5.488","41.05","NAN","NAN","NAN","NAN","NAN"],
    [1563216,"2026-07-22 06:10:00","279","2.654","62.85","4.41","99.6","NAN","NAN","NAN","NAN","NAN"],
    [1563217,"2026-07-22 06:20:00","280","2.46","48.38","3.724","46.82","NAN","NAN","NAN","NAN","NAN"],
    [1563218,"2026-07-22 06:30:00","281","2.3209999999999997","57.15","4.41","67.02","NAN","NAN","NAN","NAN","NAN"],
    [1563219,"2026-07-22 06:40:00","282","2.687","60.83","4.508","67.88","NAN","NAN","NAN","NAN","NAN"],
    [1563220,"2026-07-22 06:50:00","283","2.168","57.74","3.822","86.6","NAN","NAN","NAN","NAN","NAN"],
    [1563221,"2026-07-22 07:00:00","284","1.324","79.71","3.528","88.5","NAN","NAN","NAN","NAN","NAN"],
    [1563222,"2026-07-22 07:10:00","285","2.469","78.39","4.018","84.1","NAN","NAN","NAN","NAN","NAN"],
    [1563223,"2026-07-22 07:20:00","286","2.0869999999999997","75.09","4.018","45.18","NAN","NAN","NAN","NAN","NAN"],
    [1563224,"2026-07-22 07:30:00","287","1.732","59.48","3.626","48.65","NAN","NAN","NAN","NAN","NAN"],
    [1563225,"2026-07-22 07:40:00","288","2.036","55.59","4.018","55.58","NAN","NAN","NAN","NAN","NAN"],
    [1563226,"2026-07-22 07:50:00","289","2.345","69.15","4.018","90","NAN","NAN","NAN","NAN","NAN"],
    [1563227,"2026-07-22 08:00:00","290","2.605","73.65","4.9","82.3","NAN","NAN","NAN","NAN","NAN"],
    [1563228,"2026-07-22 08:10:00","291","3.0069999999999997","97.1","4.41","97","NAN","NAN","NAN","NAN","NAN"],
    [1563229,"2026-07-22 08:20:00","292","2.759","81.9","5.096","76.94","NAN","NAN","NAN","NAN","NAN"],
    [1563230,"2026-07-22 08:30:00","293","3.029","93.9","5.782","104.6","NAN","NAN","NAN","NAN","NAN"],
    [1563231,"2026-07-22 08:40:00","294","3.7460000000000004","86.0","5.39","117.1","NAN","NAN","NAN","NAN","NAN"],
    [1563232,"2026-07-22 08:50:00","295","4.048","82.3","6.468","92.4","NAN","NAN","NAN","NAN","NAN"],
    [1563233,"2026-07-22 09:00:00","296","4.163","89.1","6.272","99","NAN","NAN","NAN","NAN","NAN"],
    [1563234,"2026-07-22 09:10:00","297","3.542","98.9","5.782","96.5","NAN","NAN","NAN","NAN","NAN"],
    [1563235,"2026-07-22 09:20:00","298","3.5810000000000004","102.0","5.978","96.6","NAN","NAN","NAN","NAN","NAN"],
    [1563236,"2026-07-22 09:30:00","299","3.748","100.9","5.39","93.9","NAN","NAN","NAN","NAN","NAN"],
    [1563237,"2026-07-22 09:40:00","300","3.485","97.7","5.39","93.9","NAN","NAN","NAN","NAN","NAN"],
    [1563238,"2026-07-22 09:50:00","301","3.595","99.6","5.88","93.6","NAN","NAN","NAN","NAN","NAN"],
    [1563239,"2026-07-22 10:00:00","302","3.861","105.1","5.782","93.4","NAN","NAN","NAN","NAN","NAN"],
    [1563240,"2026-07-22 10:20:00","0","3.16","98.0","5.488","90.8","NAN","NAN","NAN","NAN","NAN"],
    [1563241,"2026-07-22 10:30:00","1","3.503","102.9","5.586","107","NAN","NAN","NAN","NAN","NAN"],
    [1563242,"2026-07-22 10:40:00","0","3.1210000000000004","109.2","5.194","115.8","NAN","NAN","NAN","NAN","NAN"],
    [1563243,"2026-07-22 10:50:00","1","3.795","100.3","6.076","100.4","NAN","NAN","NAN","NAN","NAN"],
    [1563244,"2026-07-22 11:00:00","2","3.843","98.7","5.88","102.3","NAN","NAN","NAN","NAN","NAN"],
    [1563245,"2026-07-22 11:10:00","3","3.449","94.6","6.174","98.5","NAN","NAN","NAN","NAN","NAN"],
    [1563246,"2026-07-22 11:20:00","4","3.373","99.3","5.586","94.9","NAN","NAN","NAN","NAN","NAN"],
    [1563247,"2026-07-22 11:30:00","0","2.509","92.8","4.704","92.8","NAN","NAN","NAN","NAN","NAN"],
    [1563248,"2026-07-22 11:40:00","1","4.063","95.8","7.252","99.5","NAN","NAN","NAN","NAN","NAN"],
    [1563249,"2026-07-22 11:50:00","2","3.655","101.6","6.076","111.5","NAN","NAN","NAN","NAN","NAN"],
    [1563250,"2026-07-22 12:00:00","3","3.966","101.0","6.174","101.8","NAN","NAN","NAN","NAN","NAN"],
    [1563251,"2026-07-22 12:10:00","4","3.602","99.6","5.586","83.6","NAN","NAN","NAN","NAN","NAN"],
    [1563252,"2026-07-22 12:20:00","5","4.082","117.7","6.468","111.3","NAN","NAN","NAN","NAN","NAN"],
    [1563253,"2026-07-22 12:30:00","6","3.6889999999999996","100.0","6.664","75.25","NAN","NAN","NAN","NAN","NAN"],
    [1563254,"2026-07-22 12:40:00","7","4.141","102.4","5.88","104","NAN","NAN","NAN","NAN","NAN"],
    [1563255,"2026-07-22 12:50:00","8","4.0680000000000005","102.4","6.272","86.6","NAN","NAN","NAN","NAN","NAN"],
    [1563256,"2026-07-22 13:00:00","9","4.311","98.3","6.664","95.7","NAN","NAN","NAN","NAN","NAN"],
    [1563257,"2026-07-22 13:10:00","10","3.842","114.0","5.88","143.7","NAN","NAN","NAN","NAN","NAN"],
    [1563258,"2026-07-22 13:20:00","11","3.843","119.3","5.488","99.5","NAN","NAN","NAN","NAN","NAN"],
    [1563259,"2026-07-22 13:30:00","12","4.016","112.4","5.978","109.1","NAN","NAN","NAN","NAN","NAN"],
    [1563260,"2026-07-22 13:40:00","13","3.747","122.2","5.194","145.1","NAN","NAN","NAN","NAN","NAN"],
    [1563261,"2026-07-22 13:50:00","14","3.4339999999999997","121.0","5.292","117.6","NAN","NAN","NAN","NAN","NAN"],
    [1563262,"2026-07-22 14:00:00","15","3.278","110.2","5.096","97.1","NAN","NAN","NAN","NAN","NAN"],
    [1563263,"2026-07-22 14:10:00","16","2.8360000000000003","111.8","4.41","84.7","NAN","NAN","NAN","NAN","NAN"],
    [1563264,"2026-07-22 14:20:00","17","2.8539999999999996","128.0","4.214","83.9","NAN","NAN","NAN","NAN","NAN"],
    [1563265,"2026-07-22 14:30:00","18","3.283","133.4","4.704","142.1","NAN","NAN","NAN","NAN","NAN"],
    [1563266,"2026-07-22 14:40:00","19","2.697","115.8","4.802","99","NAN","NAN","NAN","NAN","NAN"],
    [1563267,"2026-07-22 14:50:00","20","3.247","114.8","4.802","99","NAN","NAN","NAN","NAN","NAN"],
    [1563268,"2026-07-22 15:00:00","21","2.548","103.6","4.116","100.5","NAN","NAN","NAN","NAN","NAN"],
    [1563269,"2026-07-22 15:10:00","22","3.612","111.4","5.684","122.3","NAN","NAN","NAN","NAN","NAN"],
    [1563270,"2026-07-22 15:20:00","23","3.492","122.6","4.998","136.9","NAN","NAN","NAN","NAN","NAN"],
    [1563271,"2026-07-22 15:30:00","24","2.475","124.4","4.214","154.2","NAN","NAN","NAN","NAN","NAN"],
    [1563272,"2026-07-22 15:40:00","25","2.237","131.5","3.92","145","NAN","NAN","NAN","NAN","NAN"],
    [1563273,"2026-07-22 15:50:00","26","2.085","104.1","3.724","95.2","NAN","NAN","NAN","NAN","NAN"],
    [1563274,"2026-07-22 16:00:00","27","2.181","118.0","3.92","133.8","NAN","NAN","NAN","NAN","NAN"],
    [1563275,"2026-07-22 16:10:00","28","2.282","126.4","3.626","138.2","NAN","NAN","NAN","NAN","NAN"],
    [1563276,"2026-07-22 16:20:00","29","1.993","173.7","3.332","167.3","NAN","NAN","NAN","NAN","NAN"],
    [1563277,"2026-07-22 16:30:00","30","2.702","195.0","4.312","219.2","NAN","NAN","NAN","NAN","NAN"],
    [1563278,"2026-07-22 16:40:00","31","2.063","176.2","3.92","171.5","NAN","NAN","NAN","NAN","NAN"],
    [1563279,"2026-07-22 16:50:00","32","2.23","151.6","3.332","164.8","NAN","NAN","NAN","NAN","NAN"],
    [1563280,"2026-07-22 17:00:00","33","2.866","115.3","4.116","105","NAN","NAN","NAN","NAN","NAN"],
    [1563281,"2026-07-22 17:10:00","34","2.654","126.7","4.116","132.4","NAN","NAN","NAN","NAN","NAN"],
    [1563282,"2026-07-22 17:20:00","35","2.4459999999999997","114.5","3.724","128.6","NAN","NAN","NAN","NAN","NAN"],
    [1563283,"2026-07-22 17:30:00","36","2.4330000000000003","119.6","3.626","118.5","NAN","NAN","NAN","NAN","NAN"],
    [1563284,"2026-07-22 17:40:00","37","2.772","93.1","4.312","94","NAN","NAN","NAN","NAN","NAN"],
    [1563285,"2026-07-22 17:50:00","38","2.6189999999999998","88.7","4.116","66.92","NAN","NAN","NAN","NAN","NAN"],
    [1563286,"2026-07-22 18:00:00","39","2.526","102.6","4.116","105.3","NAN","NAN","NAN","NAN","NAN"],
    [1563287,"2026-07-22 18:10:00","40","2.4819999999999998","102.1","3.724","88.2","NAN","NAN","NAN","NAN","NAN"],
    [1563288,"2026-07-22 18:20:00","41","2.614","99.4","4.41","111","NAN","NAN","NAN","NAN","NAN"],
    [1563289,"2026-07-22 18:30:00","42","3.2489999999999997","97.6","4.802","119.3","NAN","NAN","NAN","NAN","NAN"],
    [1563290,"2026-07-22 18:40:00","43","2.6689999999999996","93.6","4.018","126.8","NAN","NAN","NAN","NAN","NAN"],
    [1563291,"2026-07-22 18:50:00","44","2.415","94.1","4.116","105.1","NAN","NAN","NAN","NAN","NAN"],
    [1563292,"2026-07-22 19:00:00","45","1.985","92.5","3.332","83","NAN","NAN","NAN","NAN","NAN"],
    [1563293,"2026-07-22 19:10:00","46","1.829","103.7","3.038","119.4","NAN","NAN","NAN","NAN","NAN"],
    [1563294,"2026-07-22 19:20:00","47","1.976","95.6","3.234","91.6","NAN","NAN","NAN","NAN","NAN"],
    [1563295,"2026-07-22 19:30:00","48","1.9809999999999999","94.4","3.038","98.1","NAN","NAN","NAN","NAN","NAN"],
    [1563296,"2026-07-22 19:40:00","49","2.086","86.7","3.43","66.17","NAN","NAN","NAN","NAN","NAN"],
    [1563297,"2026-07-22 19:50:00","50","2.145","87.0","3.626","68.38","NAN","NAN","NAN","NAN","NAN"],
    [1563298,"2026-07-22 20:00:00","51","2.326","93.0","3.43","103.4","NAN","NAN","NAN","NAN","NAN"],
    [1563299,"2026-07-22 20:10:00","52","2.823","83.8","4.312","85.9","NAN","NAN","NAN","NAN","NAN"],
    [1563300,"2026-07-22 20:20:00","53","2.406","89.4","4.41","89.1","NAN","NAN","NAN","NAN","NAN"],
    [1563301,"2026-07-22 20:30:00","54","2.522","86.6","4.116","84.2","NAN","NAN","NAN","NAN","NAN"],
    [1563302,"2026-07-22 20:40:00","55","2.146","85.8","4.9","85.6","NAN","NAN","NAN","NAN","NAN"],
    [1563303,"2026-07-22 20:50:00","56","1.7169999999999999","91.0","2.94","96.8","NAN","NAN","NAN","NAN","NAN"],
    [1563304,"2026-07-22 21:00:00","57","1.945","87.9","3.136","94.7","NAN","NAN","NAN","NAN","NAN"],
    [1563305,"2026-07-22 21:10:00","58","1.561","85.1","2.45","92.4","NAN","NAN","NAN","NAN","NAN"],
    [1563306,"2026-07-22 21:20:00","59","1.235","80.6","2.94","75.7","NAN","NAN","NAN","NAN","NAN"],
    [1563307,"2026-07-22 21:30:00","60","1.656","81.9","2.744","75.88","NAN","NAN","NAN","NAN","NAN"],
    [1563308,"2026-07-22 21:40:00","61","1.2830000000000001","91.6","2.352","92.8","NAN","NAN","NAN","NAN","NAN"],
    [1563309,"2026-07-22 21:50:00","62","1.2819999999999998","91.2","2.352","92.8","NAN","NAN","NAN","NAN","NAN"],
    [1563310,"2026-07-22 22:00:00","63","0.9109999999999999","80.8","1.862","76.75","NAN","NAN","NAN","NAN","NAN"],
    [1563311,"2026-07-22 22:10:00","64","1.024","80.3","1.764","86.1","NAN","NAN","NAN","NAN","NAN"],
    [1563312,"2026-07-22 22:20:00","65","0.708","94.2","1.47","74.48","NAN","NAN","NAN","NAN","NAN"],
    [1563313,"2026-07-22 22:30:00","66","0.618","99.4","1.372","100.7","NAN","NAN","NAN","NAN","NAN"],
    [1563314,"2026-07-22 22:40:00","67","0.736","99.3","1.568","95.5","NAN","NAN","NAN","NAN","NAN"],
    [1563315,"2026-07-22 22:50:00","68","0.602","94.1","1.764","92.2","NAN","NAN","NAN","NAN","NAN"],
    [1563316,"2026-07-22 23:00:00","69","0.402","89.0","0.882","88.9","NAN","NAN","NAN","NAN","NAN"],
    [1563317,"2026-07-22 23:10:00","70","0.16399999999999998","87.8","0.882","88.8","NAN","NAN","NAN","NAN","NAN"],
    [1563318,"2026-07-22 23:20:00","71","0.129","85.8","0.98","85.7","NAN","NAN","NAN","NAN","NAN"],
    [1563319,"2026-07-22 23:30:00","72","0.32799999999999996","85.5","0.98","85","NAN","NAN","NAN","NAN","NAN"],
    [1563320,"2026-07-22 23:40:00","73","1.015","83.4","1.666","82.4","NAN","NAN","NAN","NAN","NAN"],
    [1563321,"2026-07-22 23:50:00","74","0.902","89.2","1.47","84.8","NAN","NAN","NAN","NAN","NAN"],
    [1563322,"2026-07-23 00:00:00","75","0.8009999999999999","97.4","1.47","88.7","NAN","NAN","NAN","NAN","NAN"],
    [1563323,"2026-07-23 00:10:00","76","0.997","89.6","1.666","91.3","NAN","NAN","NAN","NAN","NAN"],
    [1563324,"2026-07-23 00:20:00","77","1.078","87.9","1.764","83.3","NAN","NAN","NAN","NAN","NAN"],
    [1563325,"2026-07-23 00:30:00","78","0.961","84.7","1.764","84.2","NAN","NAN","NAN","NAN","NAN"],
    [1563326,"2026-07-23 00:40:00","79","1.186","84.8","1.96","80.7","NAN","NAN","NAN","NAN","NAN"],
    [1563327,"2026-07-23 00:50:00","80","0.174","81.0","0.686","79.05","NAN","NAN","NAN","NAN","NAN"],
    [1563328,"2026-07-23 01:00:00","81","0.97","74.36","1.666","77.51","NAN","NAN","NAN","NAN","NAN"],
    [1563329,"2026-07-23 01:10:00","82","1.194","64.74","1.764","68.75","NAN","NAN","NAN","NAN","NAN"],
    [1563330,"2026-07-23 01:20:00","83","0.284","356.2","0.882","346.6","NAN","NAN","NAN","NAN","NAN"],
    [1563331,"2026-07-23 01:30:00","84","0.679","331.9","2.156","330.7","NAN","NAN","NAN","NAN","NAN"],
    [1563332,"2026-07-23 01:40:00","85","1.035","305.0","1.764","304.6","NAN","NAN","NAN","NAN","NAN"],
    [1563333,"2026-07-23 01:50:00","86","0.76","302.2","1.666","301.6","NAN","NAN","NAN","NAN","NAN"],
    [1563334,"2026-07-23 02:00:00","87","1.1420000000000001","301.1","2.156","301.2","NAN","NAN","NAN","NAN","NAN"],
    [1563335,"2026-07-23 02:10:00","88","1.138","299.9","1.862","299.8","NAN","NAN","NAN","NAN","NAN"],
    [1563336,"2026-07-23 02:20:00","89","0.809","300.1","1.666","302.3","NAN","NAN","NAN","NAN","NAN"],
    [1563337,"2026-07-23 02:30:00","90","1.278","299.2","2.352","299","NAN","NAN","NAN","NAN","NAN"],
    [1563338,"2026-07-23 02:40:00","91","1.056","298.7","1.96","298.7","NAN","NAN","NAN","NAN","NAN"],
    [1563339,"2026-07-23 02:50:00","92","1.051","298.2","1.666","298.2","NAN","NAN","NAN","NAN","NAN"],
    [1563340,"2026-07-23 03:00:00","93","0.852","298.0","1.47","298.1","NAN","NAN","NAN","NAN","NAN"],
    [1563341,"2026-07-23 03:10:00","94","0.809","297.8","1.47","297.9","NAN","NAN","NAN","NAN","NAN"],
    [1563342,"2026-07-23 03:20:00","95","0.703","297.7","1.274","297.7","NAN","NAN","NAN","NAN","NAN"],
    [1563343,"2026-07-23 03:30:00","96","0.514","297.6","0.98","297.7","NAN","NAN","NAN","NAN","NAN"],
    [1563344,"2026-07-23 03:40:00","97","0.589","297.6","0.98","297.6","NAN","NAN","NAN","NAN","NAN"],
    [1563345,"2026-07-23 03:50:00","98","0.9209999999999999","297.5","1.47","297.4","NAN","NAN","NAN","NAN","NAN"],
    [1563346,"2026-07-23 04:00:00","99","0.9059999999999999","297.3","1.764","297.2","NAN","NAN","NAN","NAN","NAN"],
    [1563347,"2026-07-23 04:10:00","100","0.935","297.1","1.372","297.1","NAN","NAN","NAN","NAN","NAN"],
    [1563348,"2026-07-23 04:20:00","101","0.971","296.8","1.764","296.5","NAN","NAN","NAN","NAN","NAN"],
    [1563349,"2026-07-23 04:30:00","102","1.324","295.4","2.254","295.7","NAN","NAN","NAN","NAN","NAN"],
    [1563350,"2026-07-23 04:40:00","103","1.744","293.1","2.744","291","NAN","NAN","NAN","NAN","NAN"],
    [1563351,"2026-07-23 04:50:00","104","1.694","288.7","2.646","291.7","NAN","NAN","NAN","NAN","NAN"],
    [1563352,"2026-07-23 05:00:00","105","1.929","289.0","3.038","292.2","NAN","NAN","NAN","NAN","NAN"],
    [1563353,"2026-07-23 05:10:00","106","1.702","283.8","2.842","285.1","NAN","NAN","NAN","NAN","NAN"],
    [1563354,"2026-07-23 05:20:00","107","1.371","292.7","2.646","297.2","NAN","NAN","NAN","NAN","NAN"],
    [1563355,"2026-07-23 05:30:00","108","0.863","286.9","1.568","286.2","NAN","NAN","NAN","NAN","NAN"],
    [1563356,"2026-07-23 05:40:00","109","0.8370000000000001","282.1","1.764","280.3","NAN","NAN","NAN","NAN","NAN"],
    [1563357,"2026-07-23 05:50:00","110","1.0","281.5","1.96","279.4","NAN","NAN","NAN","NAN","NAN"],
    [1563358,"2026-07-23 06:00:00","111","1.094","281.5","1.568","286.8","NAN","NAN","NAN","NAN","NAN"],
    [1563359,"2026-07-23 06:10:00","112","0.96","282.0","1.666","287.1","NAN","NAN","NAN","NAN","NAN"],
    [1563360,"2026-07-23 06:20:00","113","1.465","277.4","2.254","277.1","NAN","NAN","NAN","NAN","NAN"],
    [1563361,"2026-07-23 06:30:00","114","1.712","276.7","2.254","275","NAN","NAN","NAN","NAN","NAN"],
    [1563362,"2026-07-23 06:40:00","115","1.499","274.5","2.352","274","NAN","NAN","NAN","NAN","NAN"],
    [1563363,"2026-07-23 06:50:00","116","1.047","278.3","1.568","273.3","NAN","NAN","NAN","NAN","NAN"],
    [1563364,"2026-07-23 07:00:00","117","0.7","281.6","1.666","283.9","NAN","NAN","NAN","NAN","NAN"],
    [1563365,"2026-07-23 07:10:00","118","0.402","271.9","1.176","271.5","NAN","NAN","NAN","NAN","NAN"],
    [1563366,"2026-07-23 07:20:00","119","0.397","283.8","1.568","293.1","NAN","NAN","NAN","NAN","NAN"],
    [1563367,"2026-07-23 07:30:00","120","1.391","119.7","2.156","115.5","NAN","NAN","NAN","NAN","NAN"],
    [1563368,"2026-07-23 07:40:00","121","1.288","115.1","1.862","114.4","NAN","NAN","NAN","NAN","NAN"],
    [1563369,"2026-07-23 07:50:00","122","1.129","113.3","2.058","113.8","NAN","NAN","NAN","NAN","NAN"],
    [1563370,"2026-07-23 08:00:00","123","1.21","127.8","2.352","132.3","NAN","NAN","NAN","NAN","NAN"],
    [1563371,"2026-07-23 08:10:00","124","1.129","121.2","2.058","130.7","NAN","NAN","NAN","NAN","NAN"],
    [1563372,"2026-07-23 08:20:00","125","1.2670000000000001","123.1","2.45","123.7","NAN","NAN","NAN","NAN","NAN"],
    [1563373,"2026-07-23 08:30:00","126","1.8530000000000002","121.1","2.94","136.5","NAN","NAN","NAN","NAN","NAN"],
    [1563374,"2026-07-23 08:40:00","127","2.042","109.7","3.43","102.3","NAN","NAN","NAN","NAN","NAN"],
    [1563375,"2026-07-23 08:50:00","128","2.276","112.7","3.136","119.5","NAN","NAN","NAN","NAN","NAN"],
    [1563376,"2026-07-23 09:00:00","129","2.427","98.3","3.528","97.1","NAN","NAN","NAN","NAN","NAN"],
    [1563377,"2026-07-23 09:10:00","130","2.9219999999999997","108.5","4.214","103.8","NAN","NAN","NAN","NAN","NAN"],
    [1563378,"2026-07-23 09:20:00","131","3.013","103.9","4.508","87.3","NAN","NAN","NAN","NAN","NAN"],
    [1563379,"2026-07-23 09:30:00","132","3.113","113.7","4.802","88.9","NAN","NAN","NAN","NAN","NAN"],
    [1563380,"2026-07-23 09:40:00","133","2.7969999999999997","107.2","4.116","90.4","NAN","NAN","NAN","NAN","NAN"],
    [1563381,"2026-07-23 09:50:00","134","2.9410000000000003","101.2","4.312","98.4","NAN","NAN","NAN","NAN","NAN"],
    [1563382,"2026-07-23 10:00:00","135","3.227","120.3","5.096","122.9","NAN","NAN","NAN","NAN","NAN"],
    [1563383,"2026-07-23 10:10:00","136","3.199","100.5","4.9","84.2","NAN","NAN","NAN","NAN","NAN"],
    [1563384,"2026-07-23 10:20:00","137","3.028","95.0","5.096","123.5","NAN","NAN","NAN","NAN","NAN"],
    [1563385,"2026-07-23 10:30:00","138","3.3819999999999997","88.2","5.684","97.7","NAN","NAN","NAN","NAN","NAN"],
    [1563386,"2026-07-23 10:40:00","139","3.532","99.9","4.998","96.8","NAN","NAN","NAN","NAN","NAN"],
    [1563387,"2026-07-23 10:50:00","140","3.265","104.3","4.704","111.1","NAN","NAN","NAN","NAN","NAN"],
    [1563388,"2026-07-23 11:00:00","141","2.9610000000000003","102.7","5.194","100.7","NAN","NAN","NAN","NAN","NAN"],
    [1563389,"2026-07-23 11:10:00","142","3.14","100.1","5.39","88.6","NAN","NAN","NAN","NAN","NAN"],
    [1563390,"2026-07-23 11:20:00","143","3.1","102.7","5.194","94.2","NAN","NAN","NAN","NAN","NAN"],
    [1563391,"2026-07-23 11:30:00","144","3.443","122.5","5.194","134.3","NAN","NAN","NAN","NAN","NAN"],
    [1563392,"2026-07-23 11:40:00","145","3.37","122.6","4.998","111.9","NAN","NAN","NAN","NAN","NAN"],
    [1563393,"2026-07-23 11:50:00","146","3.318","121.6","4.704","139.2","NAN","NAN","NAN","NAN","NAN"],
    [1563394,"2026-07-23 12:00:00","147","3.523","118.1","5.096","141.7","NAN","NAN","NAN","NAN","NAN"],
    [1563395,"2026-07-23 12:10:00","148","2.705","116.9","4.214","119.1","NAN","NAN","NAN","NAN","NAN"],
    [1563396,"2026-07-23 12:20:00","149","2.952","108.3","4.9","116","NAN","NAN","NAN","NAN","NAN"],
    [1563397,"2026-07-23 12:30:00","150","2.835","115.9","4.606","142.6","NAN","NAN","NAN","NAN","NAN"],
    [1563398,"2026-07-23 12:40:00","151","3.286","126.0","5.096","141.7","NAN","NAN","NAN","NAN","NAN"],
    [1563399,"2026-07-23 12:50:00","152","3.265","113.7","4.9","151.5","NAN","NAN","NAN","NAN","NAN"],
    [1563400,"2026-07-23 13:00:00","153","3.154","127.7","4.508","147.1","NAN","NAN","NAN","NAN","NAN"],
    [1563401,"2026-07-23 13:10:00","154","3.043","115.2","4.018","129.6","NAN","NAN","NAN","NAN","NAN"],
    [1563402,"2026-07-23 13:20:00","155","2.9539999999999997","102.7","4.606","103.2","NAN","NAN","NAN","NAN","NAN"],
    [1563403,"2026-07-23 13:30:00","156","2.7689999999999997","92.6","4.214","88.2","NAN","NAN","NAN","NAN","NAN"],
    [1563404,"2026-07-23 13:40:00","157","2.295","113.1","4.606","111.7","NAN","NAN","NAN","NAN","NAN"],
    [1563405,"2026-07-23 13:50:00","158","2.476","129.4","4.018","136.4","NAN","NAN","NAN","NAN","NAN"],
    [1563406,"2026-07-23 14:00:00","159","2.905","122.0","4.606","117.1","NAN","NAN","NAN","NAN","NAN"],
    [1563407,"2026-07-23 14:10:00","160","2.832","123.4","4.606","105.8","NAN","NAN","NAN","NAN","NAN"],
    [1563408,"2026-07-23 14:20:00","161","2.378","121.8","4.214","139.6","NAN","NAN","NAN","NAN","NAN"],
    [1563409,"2026-07-23 14:30:00","162","2.398","117.9","4.41","134.7","NAN","NAN","NAN","NAN","NAN"],
    [1563410,"2026-07-23 14:40:00","163","2.531","105.5","4.214","108.6","NAN","NAN","NAN","NAN","NAN"],
    [1563411,"2026-07-23 14:50:00","164","2.9210000000000003","113.7","4.704","140.1","NAN","NAN","NAN","NAN","NAN"],
    [1563412,"2026-07-23 15:00:00","165","2.603","130.1","3.822","138.6","NAN","NAN","NAN","NAN","NAN"],
    [1563413,"2026-07-23 15:10:00","166","2.517","115.7","4.606","127.7","NAN","NAN","NAN","NAN","NAN"],
    [1563414,"2026-07-23 15:20:00","167","2.609","111.7","4.704","143.1","NAN","NAN","NAN","NAN","NAN"],
    [1563415,"2026-07-23 15:30:00","168","2.665","108.6","3.92","115.4","NAN","NAN","NAN","NAN","NAN"],
    [1563416,"2026-07-23 15:40:00","169","2.887","118.1","4.41","113.1","NAN","NAN","NAN","NAN","NAN"],
    [1563417,"2026-07-23 15:50:00","170","2.912","119.3","4.508","138.4","NAN","NAN","NAN","NAN","NAN"],
    [1563418,"2026-07-23 16:00:00","171","2.7319999999999998","111.6","4.704","95.5","NAN","NAN","NAN","NAN","NAN"],
    [1563419,"2026-07-23 16:10:00","172","2.891","102.6","4.802","97.8","NAN","NAN","NAN","NAN","NAN"],
    [1563420,"2026-07-23 16:20:00","173","2.505","99.3","4.018","89","NAN","NAN","NAN","NAN","NAN"],
    [1563421,"2026-07-23 16:30:00","174","2.263","93.1","3.822","82.5","NAN","NAN","NAN","NAN","NAN"],
    [1563422,"2026-07-23 16:40:00","175","2.495","92.0","4.41","60.46","NAN","NAN","NAN","NAN","NAN"],
    [1563423,"2026-07-23 16:50:00","176","2.799","82.2","4.508","71.91","NAN","NAN","NAN","NAN","NAN"],
    [1563424,"2026-07-23 17:00:00","177","3.728","65.13","4.998","63.93","NAN","NAN","NAN","NAN","NAN"],
    [1563425,"2026-07-23 17:10:00","178","3.136","61.54","5.194","58.45","NAN","NAN","NAN","NAN","NAN"],
    [1563426,"2026-07-23 17:20:00","179","3.384","63.16","5.096","64.71","NAN","NAN","NAN","NAN","NAN"],
    [1563427,"2026-07-23 17:30:00","180","3.033","60.77","4.606","60.4","NAN","NAN","NAN","NAN","NAN"],
    [1563428,"2026-07-23 17:40:00","181","2.988","64.5","4.018","62.3","NAN","NAN","NAN","NAN","NAN"],
    [1563429,"2026-07-23 17:50:00","182","2.622","64.84","4.018","70.77","NAN","NAN","NAN","NAN","NAN"],
    [1563430,"2026-07-23 18:00:00","183","2.503","71.06","3.528","67.4","NAN","NAN","NAN","NAN","NAN"],
    [1563431,"2026-07-23 18:10:00","184","1.9169999999999998","96.7","3.626","68.75","NAN","NAN","NAN","NAN","NAN"],
    [1563432,"2026-07-23 18:20:00","185","2.128","109.8","3.136","131.5","NAN","NAN","NAN","NAN","NAN"],
    [1563433,"2026-07-23 18:30:00","186","1.1","103.6","2.156","114","NAN","NAN","NAN","NAN","NAN"],
    [1563434,"2026-07-23 18:40:00","187","0.687","117.6","1.47","120.8","NAN","NAN","NAN","NAN","NAN"],
    [1563435,"2026-07-23 18:50:00","188","0.402","99.9","1.078","104","NAN","NAN","NAN","NAN","NAN"],
    [1563436,"2026-07-23 19:00:00","189","0.856","93.2","1.764","93.6","NAN","NAN","NAN","NAN","NAN"],
    [1563437,"2026-07-23 19:10:00","190","1.1340000000000001","88.4","1.764","87.7","NAN","NAN","NAN","NAN","NAN"],
    [1563438,"2026-07-23 19:20:00","191","1.16","91.3","2.254","89.5","NAN","NAN","NAN","NAN","NAN"],
    [1563439,"2026-07-23 19:30:00","192","0.903","89.1","1.666","86.8","NAN","NAN","NAN","NAN","NAN"],
    [1563440,"2026-07-23 19:40:00","193","0.5710000000000001","85.5","1.372","85.5","NAN","NAN","NAN","NAN","NAN"],
    [1563441,"2026-07-23 19:50:00","194","0.193","93.7","0.784","91.2","NAN","NAN","NAN","NAN","NAN"],
    [1563442,"2026-07-23 20:00:00","195","0.91","131.9","1.666","141.2","NAN","NAN","NAN","NAN","NAN"],
    [1563443,"2026-07-23 20:10:00","196","1.148","142.8","1.764","142.7","NAN","NAN","NAN","NAN","NAN"],
    [1563444,"2026-07-23 20:20:00","197","1.12","136.3","1.96","133.4","NAN","NAN","NAN","NAN","NAN"],
    [1563445,"2026-07-23 20:30:00","198","0.9179999999999999","140.3","1.862","128.4","NAN","NAN","NAN","NAN","NAN"],
    [1563446,"2026-07-23 20:40:00","199","0.924","146.6","1.666","145.9","NAN","NAN","NAN","NAN","NAN"],
    [1563447,"2026-07-23 20:50:00","200","0.929","164.2","1.862","181.1","NAN","NAN","NAN","NAN","NAN"],
    [1563448,"2026-07-23 21:00:00","201","1.3869999999999998","194.7","2.842","199.1","NAN","NAN","NAN","NAN","NAN"],
    [1563449,"2026-07-23 21:10:00","202","0.741","191.5","1.862","188.4","NAN","NAN","NAN","NAN","NAN"],
    [1563450,"2026-07-23 21:20:00","203","1.072","194.5","2.058","200.1","NAN","NAN","NAN","NAN","NAN"],
    [1563451,"2026-07-23 21:30:00","204","1.838","203.7","2.646","205.4","NAN","NAN","NAN","NAN","NAN"],
    [1563452,"2026-07-23 21:40:00","205","2.2230000000000003","209.9","3.43","210.4","NAN","NAN","NAN","NAN","NAN"],
    [1563453,"2026-07-23 21:50:00","206","1.321","213.9","2.744","206.9","NAN","NAN","NAN","NAN","NAN"],
    [1563454,"2026-07-23 22:00:00","207","1.4969999999999999","216.1","2.646","207.8","NAN","NAN","NAN","NAN","NAN"],
    [1563455,"2026-07-23 22:10:00","208","1.4880000000000002","243.2","2.45","243.6","NAN","NAN","NAN","NAN","NAN"],
    [1563456,"2026-07-23 22:20:00","209","1.4869999999999999","248.5","2.45","246","NAN","NAN","NAN","NAN","NAN"],
    [1563457,"2026-07-23 22:30:00","210","1.1540000000000001","250.6","1.96","250.7","NAN","NAN","NAN","NAN","NAN"],
    [1563458,"2026-07-23 22:40:00","211","1.23","249.8","2.156","243.5","NAN","NAN","NAN","NAN","NAN"],
    [1563459,"2026-07-23 22:50:00","212","0.465","254.7","1.666","252.7","NAN","NAN","NAN","NAN","NAN"],
    [1563460,"2026-07-23 23:00:00","213","0.679","264.0","1.274","269","NAN","NAN","NAN","NAN","NAN"],
    [1563461,"2026-07-23 23:10:00","214","0.337","272.0","0.98","270.4","NAN","NAN","NAN","NAN","NAN"],
    [1563462,"2026-07-23 23:20:00","215","0.494","272.5","0.98","272.5","NAN","NAN","NAN","NAN","NAN"],
    [1563463,"2026-07-23 23:30:00","216","0.128","272.5","0.49","272.5","NAN","NAN","NAN","NAN","NAN"],
    [1563464,"2026-07-23 23:40:00","217","0.051","272.5","0.392","272.5","NAN","NAN","NAN","NAN","NAN"],
    [1563465,"2026-07-23 23:50:00","218","0.045","274.8","0.392","275.4","NAN","NAN","NAN","NAN","NAN"],
    [1563466,"2026-07-24 00:00:00","219","0.01","276.4","0.294","276.4","NAN","NAN","NAN","NAN","NAN"],
    [1563467,"2026-07-24 00:10:00","220","0.006999999999999999","279.2","0.196","280.8","NAN","NAN","NAN","NAN","NAN"],
    [1563468,"2026-07-24 00:20:00","221","0.139","287.6","0.588","287.7","NAN","NAN","NAN","NAN","NAN"],
    [1563469,"2026-07-24 00:30:00","222","0.59","287.7","1.47","287.6","NAN","NAN","NAN","NAN","NAN"],
    [1563470,"2026-07-24 00:40:00","223","1.179","287.6","1.568","287.6","NAN","NAN","NAN","NAN","NAN"],
    [1563471,"2026-07-24 00:50:00","224","1.031","287.8","1.372","287.7","NAN","NAN","NAN","NAN","NAN"],
    [1563472,"2026-07-24 01:00:00","225","1.13","284.2","1.666","282.4","NAN","NAN","NAN","NAN","NAN"],
    [1563473,"2026-07-24 01:10:00","226","1.32","287.4","1.764","282.3","NAN","NAN","NAN","NAN","NAN"],
    [1563474,"2026-07-24 01:20:00","227","1.095","288.1","1.862","288.5","NAN","NAN","NAN","NAN","NAN"],
    [1563475,"2026-07-24 01:30:00","228","1.1179999999999999","288.9","2.352","290.4","NAN","NAN","NAN","NAN","NAN"],
    [1563476,"2026-07-24 01:40:00","229","1.6469999999999998","289.8","2.548","291.5","NAN","NAN","NAN","NAN","NAN"],
    [1563477,"2026-07-24 01:50:00","230","2.022","284.4","2.94","286.3","NAN","NAN","NAN","NAN","NAN"],
    [1563478,"2026-07-24 02:00:00","231","1.9180000000000001","283.6","2.94","284.4","NAN","NAN","NAN","NAN","NAN"],
    [1563479,"2026-07-24 02:10:00","232","1.633","282.5","2.352","276.7","NAN","NAN","NAN","NAN","NAN"],
    [1563480,"2026-07-24 02:20:00","233","0.575","287.7","1.274","282.3","NAN","NAN","NAN","NAN","NAN"],
    [1563481,"2026-07-24 02:30:00","234","0.9640000000000001","285.3","1.666","290","NAN","NAN","NAN","NAN","NAN"],
    [1563482,"2026-07-24 02:40:00","235","1.092","286.5","1.666","278.5","NAN","NAN","NAN","NAN","NAN"],
    [1563483,"2026-07-24 02:50:00","236","1.183","283.3","2.058","277.9","NAN","NAN","NAN","NAN","NAN"],
    [1563484,"2026-07-24 03:00:00","237","1.262","279.6","2.352","276.1","NAN","NAN","NAN","NAN","NAN"],
    [1563485,"2026-07-24 03:10:00","238","1.939","273.3","2.744","273.3","NAN","NAN","NAN","NAN","NAN"],
    [1563486,"2026-07-24 03:20:00","239","2.123","276.7","3.038","279.9","NAN","NAN","NAN","NAN","NAN"],
    [1563487,"2026-07-24 03:30:00","240","1.901","289.4","3.136","289.6","NAN","NAN","NAN","NAN","NAN"],
    [1563488,"2026-07-24 03:40:00","241","0.376","291.5","1.47","292.3","NAN","NAN","NAN","NAN","NAN"],
    [1563489,"2026-07-24 03:50:00","242","0.028999999999999998","292.5","0.49","292.3","NAN","NAN","NAN","NAN","NAN"],
    [1563490,"2026-07-24 04:00:00","243","0.0","0.0","0","292.4","NAN","NAN","NAN","NAN","NAN"],
    [1563491,"2026-07-24 04:10:00","244","0.616","289.5","1.274","292","NAN","NAN","NAN","NAN","NAN"],
    [1563492,"2026-07-24 04:20:00","245","0.695","283.9","1.47","289.8","NAN","NAN","NAN","NAN","NAN"],
    [1563493,"2026-07-24 04:30:00","246","1.018","277.4","1.568","277.1","NAN","NAN","NAN","NAN","NAN"],
    [1563494,"2026-07-24 04:40:00","247","0.386","280.4","1.078","275.6","NAN","NAN","NAN","NAN","NAN"],
    [1563495,"2026-07-24 04:50:00","248","0.726","279.4","1.764","276.7","NAN","NAN","NAN","NAN","NAN"],
    [1563496,"2026-07-24 05:00:00","249","0.59","287.1","1.176","285.7","NAN","NAN","NAN","NAN","NAN"],
    [1563497,"2026-07-24 05:10:00","250","0.177","287.9","0.882","289.7","NAN","NAN","NAN","NAN","NAN"],
    [1563498,"2026-07-24 05:20:00","251","0.043","289.1","0.784","292.1","NAN","NAN","NAN","NAN","NAN"],
    [1563499,"2026-07-24 05:30:00","252","0.344","285.9","0.98","292.1","NAN","NAN","NAN","NAN","NAN"],
    [1563500,"2026-07-24 05:40:00","253","0.281","294.4","0.882","293.5","NAN","NAN","NAN","NAN","NAN"],
    [1563501,"2026-07-24 05:50:00","254","0.735","356.8","2.94","55.14","NAN","NAN","NAN","NAN","NAN"],
    [1563502,"2026-07-24 06:00:00","255","1.6880000000000002","50.7","3.332","51.72","NAN","NAN","NAN","NAN","NAN"],
    [1563503,"2026-07-24 06:10:00","256","0.9259999999999999","58.95","2.45","61.63","NAN","NAN","NAN","NAN","NAN"],
    [1563504,"2026-07-24 06:20:00","257","1.057","55.86","2.45","52.56","NAN","NAN","NAN","NAN","NAN"],
    [1563505,"2026-07-24 06:30:00","258","1.7280000000000002","56.28","3.822","40.87","NAN","NAN","NAN","NAN","NAN"],
    [1563506,"2026-07-24 06:40:00","259","2.5469999999999997","48.83","5.292","42.58","NAN","NAN","NAN","NAN","NAN"],
    [1563507,"2026-07-24 06:50:00","260","2.468","44.69","4.312","29.68","NAN","NAN","NAN","NAN","NAN"],
    [1563508,"2026-07-24 07:00:00","261","4.008","59.95","6.664","54.63","NAN","NAN","NAN","NAN","NAN"],
    [1563509,"2026-07-24 07:10:00","262","3.46","66.48","6.468","68.08","NAN","NAN","NAN","NAN","NAN"],
    [1563510,"2026-07-24 07:20:00","263","4.078","68.68","6.566","55.31","NAN","NAN","NAN","NAN","NAN"],
    [1563511,"2026-07-24 07:30:00","264","3.2260000000000004","69.96","5.88","73.97","NAN","NAN","NAN","NAN","NAN"],
    [1563512,"2026-07-24 07:40:00","265","3.28","68.36","5.292","61.81","NAN","NAN","NAN","NAN","NAN"],
    [1563513,"2026-07-24 07:50:00","266","3.812","68.1","5.782","67.63","NAN","NAN","NAN","NAN","NAN"],
    [1563514,"2026-07-24 08:00:00","267","4.189","68.82","6.566","63.03","NAN","NAN","NAN","NAN","NAN"],
    [1563515,"2026-07-24 08:10:00","268","3.995","70.72","5.978","53.89","NAN","NAN","NAN","NAN","NAN"],
    [1563516,"2026-07-24 08:20:00","269","3.5810000000000004","74.66","5.782","70.3","NAN","NAN","NAN","NAN","NAN"],
    [1563517,"2026-07-24 08:30:00","270","4.251","66.49","6.664","77.02","NAN","NAN","NAN","NAN","NAN"],
    [1563518,"2026-07-24 08:40:00","271","3.984","65.9","6.566","72.26","NAN","NAN","NAN","NAN","NAN"],
    [1563519,"2026-07-24 08:50:00","272","3.696","91.9","6.762","64.44","NAN","NAN","NAN","NAN","NAN"],
    [1563520,"2026-07-24 09:00:00","273","3.4789999999999996","98.1","5.88","105.4","NAN","NAN","NAN","NAN","NAN"],
    [1563521,"2026-07-24 09:10:00","274","3.259","92.3","5.39","90.5","NAN","NAN","NAN","NAN","NAN"],
    [1563522,"2026-07-24 09:20:00","275","3.66","74.1","6.958","63.19","NAN","NAN","NAN","NAN","NAN"],
    [1563523,"2026-07-24 09:30:00","276","3.812","75.3","6.664","70.62","NAN","NAN","NAN","NAN","NAN"],
    [1563524,"2026-07-24 09:40:00","277","3.502","93.0","6.174","91","NAN","NAN","NAN","NAN","NAN"],
    [1563525,"2026-07-24 09:50:00","278","4.081","99.6","6.86","108.1","NAN","NAN","NAN","NAN","NAN"],
    [1563526,"2026-07-24 10:00:00","279","4.388","97.3","7.742","92","NAN","NAN","NAN","NAN","NAN"],
    [1563527,"2026-07-24 10:10:00","280","3.6289999999999996","96.8","6.664","105.1","NAN","NAN","NAN","NAN","NAN"],
    [1563528,"2026-07-24 10:20:00","281","3.19","94.9","5.684","100.9","NAN","NAN","NAN","NAN","NAN"],
    [1563529,"2026-07-24 10:30:00","282","3.511","97.5","5.586","104.4","NAN","NAN","NAN","NAN","NAN"],
    [1563530,"2026-07-24 10:40:00","283","4.258","94.4","7.056","86.8","NAN","NAN","NAN","NAN","NAN"],
    [1563531,"2026-07-24 10:50:00","284","4.311","96.8","6.076","88.4","NAN","NAN","NAN","NAN","NAN"],
    [1563532,"2026-07-24 11:00:00","285","4.223","99.1","6.958","92.8","NAN","NAN","NAN","NAN","NAN"],
    [1563533,"2026-07-24 11:10:00","286","4.251","93.5","6.468","84.8","NAN","NAN","NAN","NAN","NAN"],
    [1563534,"2026-07-24 11:20:00","287","4.187","91.2","6.272","81.5","NAN","NAN","NAN","NAN","NAN"],
    [1563535,"2026-07-24 11:30:00","288","3.904","93.6","5.684","81.4","NAN","NAN","NAN","NAN","NAN"],
    [1563536,"2026-07-24 11:40:00","289","3.8510000000000004","94.1","5.194","85.6","NAN","NAN","NAN","NAN","NAN"],
    [1563537,"2026-07-24 11:50:00","290","3.281","94.2","5.684","83.8","NAN","NAN","NAN","NAN","NAN"],
    [1563538,"2026-07-24 12:00:00","291","3.3169999999999997","94.5","5.39","101.6","NAN","NAN","NAN","NAN","NAN"],
    [1563539,"2026-07-24 12:10:00","292","3.272","99.6","5.684","101.2","NAN","NAN","NAN","NAN","NAN"],
    [1563540,"2026-07-24 12:20:00","293","3.444","93.1","5.586","99.6","NAN","NAN","NAN","NAN","NAN"],
    [1563541,"2026-07-24 12:30:00","294","3.247","94.4","5.194","69.71","NAN","NAN","NAN","NAN","NAN"],
    [1563542,"2026-07-24 12:40:00","295","3.097","97.4","5.292","96.6","NAN","NAN","NAN","NAN","NAN"],
    [1563543,"2026-07-24 12:50:00","296","3.221","94.0","4.802","64.32","NAN","NAN","NAN","NAN","NAN"],
    [1563544,"2026-07-24 13:00:00","297","3.258","94.4","4.802","93.2","NAN","NAN","NAN","NAN","NAN"],
    [1563545,"2026-07-24 13:10:00","298","3.5460000000000003","90.6","5.292","79.86","NAN","NAN","NAN","NAN","NAN"],
    [1563546,"2026-07-24 13:20:00","299","3.412","83.5","5.39","77.29","NAN","NAN","NAN","NAN","NAN"],
    [1563547,"2026-07-24 13:30:00","300","3.341","87.7","5.096","121.6","NAN","NAN","NAN","NAN","NAN"],
    [1563548,"2026-07-24 13:40:00","301","3.3569999999999998","89.9","5.292","67.04","NAN","NAN","NAN","NAN","NAN"],
    [1563549,"2026-07-24 13:50:00","302","3.275","92.6","5.39","75.22","NAN","NAN","NAN","NAN","NAN"],
    [1563550,"2026-07-24 14:00:00","303","3.667","86.1","5.586","88.6","NAN","NAN","NAN","NAN","NAN"],
    [1563551,"2026-07-24 14:10:00","304","3.385","94.0","5.782","75.97","NAN","NAN","NAN","NAN","NAN"],
    [1563552,"2026-07-24 14:20:00","305","3.458","81.7","5.39","123.6","NAN","NAN","NAN","NAN","NAN"],
    [1563553,"2026-07-24 14:30:00","306","3.4760000000000004","95.8","5.586","91.1","NAN","NAN","NAN","NAN","NAN"],
    [1563554,"2026-07-24 14:40:00","307","3.0980000000000003","93.5","5.096","84.1","NAN","NAN","NAN","NAN","NAN"],
    [1563555,"2026-07-24 14:50:00","308","3.6630000000000003","88.6","5.292","89.3","NAN","NAN","NAN","NAN","NAN"],
    [1563556,"2026-07-24 15:00:00","309","3.3539999999999996","95.3","5.096","86.5","NAN","NAN","NAN","NAN","NAN"],
    [1563557,"2026-07-24 15:10:00","310","2.867","93.7","5.684","88.4","NAN","NAN","NAN","NAN","NAN"],
    [1563558,"2026-07-24 15:20:00","311","2.89","97.0","4.704","91.7","NAN","NAN","NAN","NAN","NAN"],
    [1563559,"2026-07-24 15:30:00","312","3.055","88.1","5.292","65.67","NAN","NAN","NAN","NAN","NAN"],
    [1563560,"2026-07-24 15:40:00","313","3.036","94.7","4.508","103.2","NAN","NAN","NAN","NAN","NAN"],
    [1563561,"2026-07-24 15:50:00","314","3.009","91.0","4.41","64.32","NAN","NAN","NAN","NAN","NAN"],
    [1563562,"2026-07-24 16:00:00","315","3.4730000000000003","93.1","5.488","93.5","NAN","NAN","NAN","NAN","NAN"],
    [1563563,"2026-07-24 16:10:00","316","2.891","91.9","4.116","93","NAN","NAN","NAN","NAN","NAN"],
    [1563564,"2026-07-24 16:20:00","317","2.8789999999999996","96.6","4.508","83.5","NAN","NAN","NAN","NAN","NAN"],
    [1563565,"2026-07-24 16:30:00","318","2.7939999999999996","95.4","4.116","89.1","NAN","NAN","NAN","NAN","NAN"],
    [1563566,"2026-07-24 16:40:00","319","2.725","100.7","4.214","85","NAN","NAN","NAN","NAN","NAN"],
    [1563567,"2026-07-24 16:50:00","320","2.153","85.1","3.43","81.6","NAN","NAN","NAN","NAN","NAN"],
    [1563568,"2026-07-24 17:00:00","321","2.3930000000000002","90.0","3.822","90.1","NAN","NAN","NAN","NAN","NAN"],
    [1563569,"2026-07-24 17:10:00","322","2.687","98.6","4.214","105","NAN","NAN","NAN","NAN","NAN"],
    [1563570,"2026-07-24 17:20:00","323","2.918","89.9","4.214","87.3","NAN","NAN","NAN","NAN","NAN"],
    [1563571,"2026-07-24 17:30:00","324","3.234","100.5","4.704","96.5","NAN","NAN","NAN","NAN","NAN"],
    [1563572,"2026-07-24 17:40:00","325","2.975","97.7","4.508","77.7","NAN","NAN","NAN","NAN","NAN"],
    [1563573,"2026-07-24 17:50:00","326","3.228","99.8","4.998","95.3","NAN","NAN","NAN","NAN","NAN"],
    [1563574,"2026-07-24 18:00:00","327","2.748","114.0","4.116","105.9","NAN","NAN","NAN","NAN","NAN"],
    [1563575,"2026-07-24 18:10:00","328","2.635","120.5","3.822","128.6","NAN","NAN","NAN","NAN","NAN"],
    [1563576,"2026-07-24 18:20:00","329","2.465","93.7","3.724","85.1","NAN","NAN","NAN","NAN","NAN"],
    [1563577,"2026-07-24 18:30:00","330","2.2680000000000002","107.3","3.822","93.6","NAN","NAN","NAN","NAN","NAN"],
    [1563578,"2026-07-24 18:40:00","331","2.293","98.5","3.626","75.3","NAN","NAN","NAN","NAN","NAN"],
    [1563579,"2026-07-24 18:50:00","332","1.819","104.3","3.234","101.4","NAN","NAN","NAN","NAN","NAN"],
    [1563580,"2026-07-24 19:00:00","333","1.633","107.9","2.744","111.4","NAN","NAN","NAN","NAN","NAN"],
    [1563581,"2026-07-24 19:10:00","334","1.6440000000000001","88.1","2.45","89.3","NAN","NAN","NAN","NAN","NAN"],
    [1563582,"2026-07-24 19:20:00","335","1.73","82.0","2.744","74.54","NAN","NAN","NAN","NAN","NAN"],
    [1563583,"2026-07-24 19:30:00","336","1.5490000000000002","73.07","2.646","77.19","NAN","NAN","NAN","NAN","NAN"],
    [1563584,"2026-07-24 19:40:00","337","1.7519999999999998","81.2","2.646","88.9","NAN","NAN","NAN","NAN","NAN"],
    [1563585,"2026-07-24 19:50:00","338","1.729","82.4","2.646","77.04","NAN","NAN","NAN","NAN","NAN"],
    [1563586,"2026-07-24 20:00:00","339","1.859","89.8","2.94","92.1","NAN","NAN","NAN","NAN","NAN"],
    [1563587,"2026-07-24 20:10:00","340","2.219","68.03","3.332","68.18","NAN","NAN","NAN","NAN","NAN"],
    [1563588,"2026-07-24 20:20:00","341","1.883","56.84","3.43","46.89","NAN","NAN","NAN","NAN","NAN"],
    [1563589,"2026-07-24 20:30:00","342","1.508","53.16","3.92","65.59","NAN","NAN","NAN","NAN","NAN"],
    [1563590,"2026-07-24 20:40:00","343","1.6119999999999999","54.27","2.842","59.03","NAN","NAN","NAN","NAN","NAN"],
    [1563591,"2026-07-24 20:50:00","344","1.6980000000000002","53.76","2.744","61.02","NAN","NAN","NAN","NAN","NAN"],
    [1563592,"2026-07-24 21:00:00","345","1.865","67.92","3.038","66.59","NAN","NAN","NAN","NAN","NAN"],
    [1563593,"2026-07-24 21:10:00","346","2.205","69.89","3.136","67.77","NAN","NAN","NAN","NAN","NAN"],
    [1563594,"2026-07-24 21:20:00","347","1.403","66.92","3.038","69.63","NAN","NAN","NAN","NAN","NAN"],
    [1563595,"2026-07-24 21:30:00","348","1.4869999999999999","65.93","2.45","58.37","NAN","NAN","NAN","NAN","NAN"],
    [1563596,"2026-07-24 21:40:00","349","1.5659999999999998","64.11","2.646","73.97","NAN","NAN","NAN","NAN","NAN"],
    [1563597,"2026-07-24 21:50:00","350","1.8869999999999998","68.46","2.842","73.12","NAN","NAN","NAN","NAN","NAN"],
    [1563598,"2026-07-24 22:00:00","351","2.165","71.68","3.234","63.28","NAN","NAN","NAN","NAN","NAN"],
    [1563599,"2026-07-24 22:10:00","352","2.039","69.62","3.038","63.77","NAN","NAN","NAN","NAN","NAN"],
    [1563600,"2026-07-24 22:20:00","353","2.229","69.94","3.038","65.59","NAN","NAN","NAN","NAN","NAN"],
    [1563601,"2026-07-24 22:30:00","354","2.241","68.49","3.822","60.93","NAN","NAN","NAN","NAN","NAN"],
    [1563602,"2026-07-24 22:40:00","355","1.972","64.26","3.43","66.36","NAN","NAN","NAN","NAN","NAN"],
    [1563603,"2026-07-24 22:50:00","356","1.526","63.25","2.744","69.44","NAN","NAN","NAN","NAN","NAN"],
    [1563604,"2026-07-24 23:00:00","357","1.935","69.64","2.744","58.66","NAN","NAN","NAN","NAN","NAN"],
    [1563605,"2026-07-24 23:10:00","358","1.21","74.65","1.96","74.92","NAN","NAN","NAN","NAN","NAN"],
    [1563606,"2026-07-24 23:20:00","359","1.324","76.82","2.156","74.88","NAN","NAN","NAN","NAN","NAN"],
    [1563607,"2026-07-24 23:30:00","360","1.504","77.95","2.254","79.55","NAN","NAN","NAN","NAN","NAN"],
    [1563608,"2026-07-24 23:40:00","361","1.367","78.01","2.254","78.32","NAN","NAN","NAN","NAN","NAN"],
    [1563609,"2026-07-24 23:50:00","362","1.692","82.5","2.352","83.2","NAN","NAN","NAN","NAN","NAN"],
    [1563610,"2026-07-25 00:00:00","363","1.624","82.2","2.352","84.4","NAN","NAN","NAN","NAN","NAN"],
    [1563611,"2026-07-25 00:10:00","364","1.33","77.25","2.156","71.55","NAN","NAN","NAN","NAN","NAN"],
    [1563612,"2026-07-25 00:20:00","365","1.5319999999999998","75.59","2.744","69.64","NAN","NAN","NAN","NAN","NAN"],
    [1563613,"2026-07-25 00:30:00","366","0.956","76.56","1.568","68.67","NAN","NAN","NAN","NAN","NAN"],
    [1563614,"2026-07-25 00:40:00","367","0.898","70.04","1.568","69.16","NAN","NAN","NAN","NAN","NAN"],
    [1563615,"2026-07-25 00:50:00","368","0.792","74.84","1.372","78.87","NAN","NAN","NAN","NAN","NAN"],
    [1563616,"2026-07-25 01:00:00","369","0.6759999999999999","80.8","1.372","79.35","NAN","NAN","NAN","NAN","NAN"],
    [1563617,"2026-07-25 01:10:00","370","0.485","84.3","1.274","84.1","NAN","NAN","NAN","NAN","NAN"],
    [1563618,"2026-07-25 01:20:00","371","0.79","85.7","1.568","85.9","NAN","NAN","NAN","NAN","NAN"],
    [1563619,"2026-07-25 01:30:00","372","1.09","86.7","2.058","87.2","NAN","NAN","NAN","NAN","NAN"],
    [1563620,"2026-07-25 01:40:00","373","1.0190000000000001","88.4","1.96","88.4","NAN","NAN","NAN","NAN","NAN"],
    [1563621,"2026-07-25 01:50:00","374","0.7070000000000001","88.3","1.47","88.5","NAN","NAN","NAN","NAN","NAN"],
    [1563622,"2026-07-25 02:00:00","375","0.841","88.3","1.568","85.6","NAN","NAN","NAN","NAN","NAN"],
    [1563623,"2026-07-25 02:10:00","376","1.011","87.8","1.47","88.5","NAN","NAN","NAN","NAN","NAN"],
    [1563624,"2026-07-25 02:20:00","377","0.841","85.8","1.372","85.6","NAN","NAN","NAN","NAN","NAN"],
    [1563625,"2026-07-25 02:30:00","378","1.101","86.3","1.568","87.4","NAN","NAN","NAN","NAN","NAN"],
    [1563626,"2026-07-25 02:40:00","379","0.774","87.1","1.372","86.7","NAN","NAN","NAN","NAN","NAN"],
    [1563627,"2026-07-25 02:50:00","380","0.8059999999999999","85.7","1.372","87","NAN","NAN","NAN","NAN","NAN"],
    [1563628,"2026-07-25 03:00:00","381","0.605","86.5","1.274","87.9","NAN","NAN","NAN","NAN","NAN"],
    [1563629,"2026-07-25 03:10:00","382","0.588","84.5","0.98","85.9","NAN","NAN","NAN","NAN","NAN"],
    [1563630,"2026-07-25 03:20:00","383","0.711","84.3","1.176","80","NAN","NAN","NAN","NAN","NAN"],
    [1563631,"2026-07-25 03:30:00","384","0.815","84.4","1.372","85.6","NAN","NAN","NAN","NAN","NAN"],
    [1563632,"2026-07-25 03:40:00","385","0.626","76.21","1.372","76.65","NAN","NAN","NAN","NAN","NAN"],
    [1563633,"2026-07-25 03:50:00","386","0.598","71.63","1.176","72.23","NAN","NAN","NAN","NAN","NAN"],
    [1563634,"2026-07-25 04:00:00","387","0.932","69.7","1.666","69.83","NAN","NAN","NAN","NAN","NAN"],
    [1563635,"2026-07-25 04:10:00","388","0.425","68.59","1.176","68.77","NAN","NAN","NAN","NAN","NAN"],
    [1563636,"2026-07-25 04:20:00","389","0.7659999999999999","74.71","1.372","68.76","NAN","NAN","NAN","NAN","NAN"],
    [1563637,"2026-07-25 04:30:00","390","0.86","79.7","1.666","82.6","NAN","NAN","NAN","NAN","NAN"],
    [1563638,"2026-07-25 04:40:00","391","0.5579999999999999","69.3","1.274","68.09","NAN","NAN","NAN","NAN","NAN"],
    [1563639,"2026-07-25 04:50:00","392","1.084","82.5","2.254","82.5","NAN","NAN","NAN","NAN","NAN"],
    [1563640,"2026-07-25 05:00:00","393","1.07","85.1","1.666","87.9","NAN","NAN","NAN","NAN","NAN"],
    [1563641,"2026-07-25 05:10:00","394","1.47","81.2","2.352","87.7","NAN","NAN","NAN","NAN","NAN"],
    [1563642,"2026-07-25 05:20:00","395","1.601","86.8","2.646","90.4","NAN","NAN","NAN","NAN","NAN"],
    [1563643,"2026-07-25 05:30:00","396","2.228","87.2","3.136","86.9","NAN","NAN","NAN","NAN","NAN"],
    [1563644,"2026-07-25 05:40:00","397","2.171","89.3","3.626","92.5","NAN","NAN","NAN","NAN","NAN"],
    [1563645,"2026-07-25 05:50:00","398","1.882","91.2","2.744","90.9","NAN","NAN","NAN","NAN","NAN"],
    [1563646,"2026-07-25 06:00:00","399","2.299","90.2","3.234","95.6","NAN","NAN","NAN","NAN","NAN"],
    [1563647,"2026-07-25 06:10:00","400","2.1390000000000002","87.3","3.234","85.6","NAN","NAN","NAN","NAN","NAN"],
    [1563648,"2026-07-25 06:20:00","401","2.057","84.4","3.332","76.3","NAN","NAN","NAN","NAN","NAN"],
    [1563649,"2026-07-25 06:30:00","402","1.633","89.9","2.744","83.5","NAN","NAN","NAN","NAN","NAN"],
    [1563650,"2026-07-25 06:40:00","403","1.525","82.8","3.136","96.1","NAN","NAN","NAN","NAN","NAN"],
    [1563651,"2026-07-25 06:50:00","404","1.53","85.6","2.548","93.2","NAN","NAN","NAN","NAN","NAN"],
    [1563652,"2026-07-25 07:00:00","405","1.615","77.64","2.744","73.87","NAN","NAN","NAN","NAN","NAN"],
    [1563653,"2026-07-25 07:10:00","406","1.821","85.7","2.548","88.9","NAN","NAN","NAN","NAN","NAN"],
    [1563654,"2026-07-25 07:20:00","407","1.979","88.3","3.332","83.9","NAN","NAN","NAN","NAN","NAN"],
    [1563655,"2026-07-25 07:30:00","408","2.426","103.7","3.822","115.7","NAN","NAN","NAN","NAN","NAN"],
    [1563656,"2026-07-25 07:40:00","409","2.6919999999999997","99.5","4.704","83.8","NAN","NAN","NAN","NAN","NAN"],
    [1563657,"2026-07-25 07:50:00","410","3.405","100.9","5.39","101.1","NAN","NAN","NAN","NAN","NAN"],
    [1563658,"2026-07-25 08:00:00","411","3.8169999999999997","97.1","5.684","73.95","NAN","NAN","NAN","NAN","NAN"],
    [1563659,"2026-07-25 08:10:00","412","3.614","98.5","5.684","73.95","NAN","NAN","NAN","NAN","NAN"],
    [1563660,"2026-07-25 08:20:00","413","3.694","100.4","5.586","115.4","NAN","NAN","NAN","NAN","NAN"],
    [1563661,"2026-07-25 08:30:00","414","4.022","100.2","5.684","90","NAN","NAN","NAN","NAN","NAN"],
    [1563662,"2026-07-25 08:40:00","415","3.4619999999999997","95.4","5.586","91.1","NAN","NAN","NAN","NAN","NAN"],
    [1563663,"2026-07-25 08:50:00","416","4.12","100.4","5.978","99.3","NAN","NAN","NAN","NAN","NAN"],
    [1563664,"2026-07-25 09:00:00","417","3.804","92.2","5.39","85","NAN","NAN","NAN","NAN","NAN"],
    [1563665,"2026-07-25 09:10:00","418","3.8139999999999996","95.5","5.39","85","NAN","NAN","NAN","NAN","NAN"],
    [1563666,"2026-07-25 09:20:00","419","3.286","103.5","5.488","94.6","NAN","NAN","NAN","NAN","NAN"],
    [1563667,"2026-07-25 09:30:00","420","3.5669999999999997","108.1","5.586","117.2","NAN","NAN","NAN","NAN","NAN"],
    [1563668,"2026-07-25 09:40:00","421","3.6630000000000003","98.5","5.586","94.9","NAN","NAN","NAN","NAN","NAN"],
    [1563669,"2026-07-25 09:50:00","422","3.343","114.1","5.586","130.7","NAN","NAN","NAN","NAN","NAN"],
    [1563670,"2026-07-25 10:00:00","423","4.039","118.7","5.978","131.5","NAN","NAN","NAN","NAN","NAN"],
    [1563671,"2026-07-25 10:10:00","424","3.707","106.7","5.88","97.5","NAN","NAN","NAN","NAN","NAN"],
    [1563672,"2026-07-25 10:20:00","425","3.748","110.6","5.782","124.4","NAN","NAN","NAN","NAN","NAN"],
    [1563673,"2026-07-25 10:30:00","426","3.4","101.9","5.488","86.3","NAN","NAN","NAN","NAN","NAN"],
    [1563674,"2026-07-25 10:40:00","427","3.6460000000000004","121.3","5.488","124.9","NAN","NAN","NAN","NAN","NAN"],
    [1563675,"2026-07-25 10:50:00","428","3.986","120.8","5.39","138.6","NAN","NAN","NAN","NAN","NAN"],
    [1563676,"2026-07-25 11:00:00","429","3.8680000000000003","117.2","5.88","131.6","NAN","NAN","NAN","NAN","NAN"],
    [1563677,"2026-07-25 11:10:00","430","4.297","119.3","6.174","125.4","NAN","NAN","NAN","NAN","NAN"],
    [1563678,"2026-07-25 11:20:00","431","3.9819999999999998","117.5","5.978","120.6","NAN","NAN","NAN","NAN","NAN"],
    [1563679,"2026-07-25 11:30:00","432","3.924","116.0","6.076","130.5","NAN","NAN","NAN","NAN","NAN"],
    [1563680,"2026-07-25 11:40:00","433","4.253","123.0","6.076","139.2","NAN","NAN","NAN","NAN","NAN"],
    [1563681,"2026-07-25 11:50:00","434","4.085","119.2","6.076","127.5","NAN","NAN","NAN","NAN","NAN"],
    [1563682,"2026-07-25 12:00:00","435","4.196000000000001","117.6","6.664","152.4","NAN","NAN","NAN","NAN","NAN"],
    [1563683,"2026-07-25 12:10:00","436","4.334","124.6","7.35","119","NAN","NAN","NAN","NAN","NAN"],
    [1563684,"2026-07-25 12:20:00","437","3.717","125.8","5.684","117","NAN","NAN","NAN","NAN","NAN"],
    [1563685,"2026-07-25 12:30:00","438","4.113","117.0","6.37","114.3","NAN","NAN","NAN","NAN","NAN"],
    [1563686,"2026-07-25 12:40:00","439","4.221","120.4","6.664","126.4","NAN","NAN","NAN","NAN","NAN"],
    [1563687,"2026-07-25 12:50:00","440","3.986","131.1","6.958","140.1","NAN","NAN","NAN","NAN","NAN"],
    [1563688,"2026-07-25 13:00:00","441","4.923","130.0","6.958","147.3","NAN","NAN","NAN","NAN","NAN"],
    [1563689,"2026-07-25 13:10:00","442","4.237","134.0","6.37","131.2","NAN","NAN","NAN","NAN","NAN"],
    [1563690,"2026-07-25 13:20:00","443","4.652","138.5","6.86","135.1","NAN","NAN","NAN","NAN","NAN"],
    [1563691,"2026-07-25 13:30:00","444","3.7969999999999997","119.7","5.488","133.8","NAN","NAN","NAN","NAN","NAN"],
    [1563692,"2026-07-25 13:40:00","445","3.747","117.2","5.684","99.8","NAN","NAN","NAN","NAN","NAN"],
    [1563693,"2026-07-25 13:50:00","446","4.343","110.4","5.978","111.7","NAN","NAN","NAN","NAN","NAN"],
    [1563694,"2026-07-25 14:00:00","447","4.373","114.3","5.978","111.7","NAN","NAN","NAN","NAN","NAN"],
    [1563695,"2026-07-25 14:10:00","448","4.215","118.9","6.37","116.7","NAN","NAN","NAN","NAN","NAN"],
    [1563696,"2026-07-25 14:20:00","449","3.792","111.8","6.272","109.2","NAN","NAN","NAN","NAN","NAN"],
    [1563697,"2026-07-25 14:30:00","450","3.9219999999999997","110.4","5.978","123.8","NAN","NAN","NAN","NAN","NAN"],
    [1563698,"2026-07-25 14:40:00","451","3.7680000000000002","109.7","5.586","113.4","NAN","NAN","NAN","NAN","NAN"],
    [1563699,"2026-07-25 14:50:00","452","3.534","119.7","5.194","118.6","NAN","NAN","NAN","NAN","NAN"],
    [1563700,"2026-07-25 15:00:00","453","3.96","120.2","5.782","104","NAN","NAN","NAN","NAN","NAN"],
    [1563701,"2026-07-25 15:10:00","454","3.8110000000000004","116.6","6.37","118.4","NAN","NAN","NAN","NAN","NAN"],
    [1563702,"2026-07-25 15:20:00","455","3.8289999999999997","116.8","5.978","112.9","NAN","NAN","NAN","NAN","NAN"],
    [1563703,"2026-07-25 15:30:00","456","3.875","113.1","6.076","121.3","NAN","NAN","NAN","NAN","NAN"],
    [1563704,"2026-07-25 15:40:00","457","4.207","101.4","5.88","74.28","NAN","NAN","NAN","NAN","NAN"],
    [1563705,"2026-07-25 15:50:00","458","3.75","113.3","6.664","96.7","NAN","NAN","NAN","NAN","NAN"],
    [1563706,"2026-07-25 16:00:00","459","3.71","105.8","6.566","116.4","NAN","NAN","NAN","NAN","NAN"],
    [1563707,"2026-07-25 16:10:00","460","3.7239999999999998","96.6","6.468","94.8","NAN","NAN","NAN","NAN","NAN"],
    [1563708,"2026-07-25 16:20:00","461","4.345","94.5","6.468","94.8","NAN","NAN","NAN","NAN","NAN"],
    [1563709,"2026-07-25 16:30:00","462","4.354","93.2","6.37","101.7","NAN","NAN","NAN","NAN","NAN"],
    [1563710,"2026-07-25 16:40:00","463","3.7880000000000003","98.2","6.076","94","NAN","NAN","NAN","NAN","NAN"],
    [1563711,"2026-07-25 16:50:00","464","4.445","99.1","7.154","79.05","NAN","NAN","NAN","NAN","NAN"],
    [1563712,"2026-07-25 17:00:00","465","4.447","93.9","6.272","101.2","NAN","NAN","NAN","NAN","NAN"],
    [1563713,"2026-07-25 17:10:00","466","4.794","93.2","7.644","87.9","NAN","NAN","NAN","NAN","NAN"],
    [1563714,"2026-07-25 17:20:00","467","4.621","92.1","7.252","82.7","NAN","NAN","NAN","NAN","NAN"],
    [1563715,"2026-07-25 17:30:00","468","4.6419999999999995","93.9","7.154","99.8","NAN","NAN","NAN","NAN","NAN"],
    [1563716,"2026-07-25 17:40:00","469","5.0089999999999995","89.7","9.02","78.04","NAN","NAN","NAN","NAN","NAN"],
    [1563717,"2026-07-25 17:50:00","470","4.783","92.4","7.154","80.7","NAN","NAN","NAN","NAN","NAN"],
    [1563718,"2026-07-25 18:00:00","471","4.353","96.9","6.762","92.4","NAN","NAN","NAN","NAN","NAN"],
    [1563719,"2026-07-25 18:10:00","472","3.7739999999999996","104.8","6.468","119.6","NAN","NAN","NAN","NAN","NAN"],
    [1563720,"2026-07-25 18:20:00","473","3.9410000000000003","93.8","6.076","73.49","NAN","NAN","NAN","NAN","NAN"],
    [1563721,"2026-07-25 18:30:00","474","3.6510000000000002","97.1","5.978","85.6","NAN","NAN","NAN","NAN","NAN"],
    [1563722,"2026-07-25 18:40:00","475","2.7760000000000002","102.1","4.704","107","NAN","NAN","NAN","NAN","NAN"],
    [1563723,"2026-07-25 18:50:00","476","4.461","92.9","6.566","101.5","NAN","NAN","NAN","NAN","NAN"],
    [1563724,"2026-07-25 19:00:00","477","4.803999999999999","96.3","7.938","92.7","NAN","NAN","NAN","NAN","NAN"],
    [1563725,"2026-07-25 19:10:00","478","4.515","94.6","7.644","81.9","NAN","NAN","NAN","NAN","NAN"],
    [1563726,"2026-07-25 19:20:00","479","4.388999999999999","94.8","7.252","99.6","NAN","NAN","NAN","NAN","NAN"],
    [1563727,"2026-07-25 19:30:00","480","3.76","91.1","5.684","72.24","NAN","NAN","NAN","NAN","NAN"],
    [1563728,"2026-07-25 19:40:00","481","3.4610000000000003","97.9","5.586","94.4","NAN","NAN","NAN","NAN","NAN"],
    [1563729,"2026-07-25 19:50:00","482","2.76","100.0","5.586","83.4","NAN","NAN","NAN","NAN","NAN"],
    [1563730,"2026-07-25 20:00:00","483","3.1630000000000003","96.8","5.096","87.7","NAN","NAN","NAN","NAN","NAN"],
    [1563731,"2026-07-25 20:10:00","484","3.835","93.5","5.782","102.2","NAN","NAN","NAN","NAN","NAN"],
    [1563732,"2026-07-25 20:20:00","485","3.043","83.4","5.684","90.3","NAN","NAN","NAN","NAN","NAN"],
    [1563733,"2026-07-25 20:30:00","486","3.319","56.81","5.782","71.95","NAN","NAN","NAN","NAN","NAN"],
    [1563734,"2026-07-25 20:40:00","487","3.8510000000000004","72.56","6.566","74.35","NAN","NAN","NAN","NAN","NAN"],
    [1563735,"2026-07-25 20:50:00","488","3.56","68.64","6.566","67.52","NAN","NAN","NAN","NAN","NAN"],
    [1563736,"2026-07-25 21:00:00","489","3.403","82.5","5.978","103.6","NAN","NAN","NAN","NAN","NAN"],
    [1563737,"2026-07-25 21:10:00","490","2.379","64.55","4.116","81.9","NAN","NAN","NAN","NAN","NAN"],
    [1563738,"2026-07-25 21:20:00","491","1.9409999999999998","22.77","3.332","8.61","NAN","NAN","NAN","NAN","NAN"],
    [1563739,"2026-07-25 21:30:00","492","1.416","11.11","2.254","6.377","NAN","NAN","NAN","NAN","NAN"],
    [1563740,"2026-07-25 21:40:00","493","1.264","16.75","2.646","22.96","NAN","NAN","NAN","NAN","NAN"],
    [1563741,"2026-07-25 21:50:00","494","1.436","31.93","2.646","22.96","NAN","NAN","NAN","NAN","NAN"],
    [1563742,"2026-07-25 22:00:00","495","0.893","28.42","1.666","31.07","NAN","NAN","NAN","NAN","NAN"],
    [1563743,"2026-07-25 22:10:00","496","0.835","25.28","1.666","26.04","NAN","NAN","NAN","NAN","NAN"],
    [1563744,"2026-07-25 22:20:00","497","1.3230000000000002","13.26","2.058","11.41","NAN","NAN","NAN","NAN","NAN"],
    [1563745,"2026-07-25 22:30:00","498","1.409","10.49","2.352","9.19","NAN","NAN","NAN","NAN","NAN"],
    [1563746,"2026-07-25 22:40:00","499","1.645","14.14","2.744","20.26","NAN","NAN","NAN","NAN","NAN"],
    [1563747,"2026-07-25 22:50:00","500","1.237","11.08","2.156","7.266","NAN","NAN","NAN","NAN","NAN"],
    [1563748,"2026-07-25 23:00:00","501","1.125","8.26","1.96","7.218","NAN","NAN","NAN","NAN","NAN"],
    [1563749,"2026-07-25 23:10:00","502","1.071","6.127999999999999","2.352","9.48","NAN","NAN","NAN","NAN","NAN"],
    [1563750,"2026-07-25 23:20:00","503","0.547","5.789","1.274","4.307","NAN","NAN","NAN","NAN","NAN"],
    [1563751,"2026-07-25 23:30:00","504","0.451","7.315","0.98","12.75","NAN","NAN","NAN","NAN","NAN"],
    [1563752,"2026-07-25 23:40:00","505","0.426","4.197","0.882","4.283","NAN","NAN","NAN","NAN","NAN"],
    [1563753,"2026-07-25 23:50:00","506","0.635","356.0","1.176","354.5","NAN","NAN","NAN","NAN","NAN"],
    [1563754,"2026-07-26 00:00:00","507","0.046","354.5","0.49","354.5","NAN","NAN","NAN","NAN","NAN"],
    [1563755,"2026-07-26 00:10:00","508","0.10300000000000001","354.5","0.686","354.5","NAN","NAN","NAN","NAN","NAN"],
    [1563756,"2026-07-26 00:20:00","509","0.336","354.3","1.176","354.4","NAN","NAN","NAN","NAN","NAN"],
    [1563757,"2026-07-26 00:30:00","510","0.12300000000000001","354.2","0.686","354.2","NAN","NAN","NAN","NAN","NAN"],
    [1563758,"2026-07-26 00:40:00","511","0.162","353.2","0.686","353.7","NAN","NAN","NAN","NAN","NAN"],
    [1563759,"2026-07-26 00:50:00","512","0.478","333.9","1.274","333.8","NAN","NAN","NAN","NAN","NAN"],
    [1563760,"2026-07-26 01:00:00","513","0.281","327.8","0.882","313.4","NAN","NAN","NAN","NAN","NAN"],
    [1563761,"2026-07-26 01:10:00","514","0.799","306.6","1.568","307.1","NAN","NAN","NAN","NAN","NAN"],
    [1563762,"2026-07-26 01:20:00","515","0.555","304.0","1.176","303.9","NAN","NAN","NAN","NAN","NAN"],
    [1563763,"2026-07-26 01:30:00","516","1.141","303.0","1.764","303","NAN","NAN","NAN","NAN","NAN"],
    [1563764,"2026-07-26 01:40:00","517","1.3969999999999998","294.6","2.156","296.9","NAN","NAN","NAN","NAN","NAN"],
    [1563765,"2026-07-26 01:50:00","518","0.628","278.5","4.116","182.1","NAN","NAN","NAN","NAN","NAN"],
    [1563766,"2026-07-26 02:00:00","519","1.36","181.6","3.332","158.9","NAN","NAN","NAN","NAN","NAN"],
    [1563767,"2026-07-26 02:10:00","520","1.605","177.0","3.234","176.4","NAN","NAN","NAN","NAN","NAN"],
    [1563768,"2026-07-26 02:20:00","521","0.114","192.8","0.784","188","NAN","NAN","NAN","NAN","NAN"],
    [1563769,"2026-07-26 02:30:00","522","0.08199999999999999","196.7","0.588","196.5","NAN","NAN","NAN","NAN","NAN"],
    [1563770,"2026-07-26 02:40:00","523","0.015","197.1","0.294","197.1","NAN","NAN","NAN","NAN","NAN"],
    [1563771,"2026-07-26 02:50:00","524","0.0","0.0","0","197.7","NAN","NAN","NAN","NAN","NAN"],
    [1563772,"2026-07-26 03:00:00","525","0.05","197.7","0.49","197.7","NAN","NAN","NAN","NAN","NAN"],
    [1563773,"2026-07-26 03:10:00","526","0.222","194.7","0.882","197.7","NAN","NAN","NAN","NAN","NAN"],
    [1563774,"2026-07-26 03:20:00","527","0.069","194.9","0.588","193.4","NAN","NAN","NAN","NAN","NAN"],
    [1563775,"2026-07-26 03:30:00","528","0.40700000000000003","232.0","2.548","294.1","NAN","NAN","NAN","NAN","NAN"],
    [1563776,"2026-07-26 03:40:00","529","2.8939999999999997","315.7","4.116","337.8","NAN","NAN","NAN","NAN","NAN"],
    [1563777,"2026-07-26 03:50:00","530","3.4330000000000003","329.4","4.704","324.4","NAN","NAN","NAN","NAN","NAN"],
    [1563778,"2026-07-26 04:00:00","531","3.8930000000000002","328.6","6.174","330.8","NAN","NAN","NAN","NAN","NAN"],
    [1563779,"2026-07-26 04:10:00","532","3.263","327.4","5.39","331.8","NAN","NAN","NAN","NAN","NAN"],
    [1563780,"2026-07-26 04:20:00","533","4.2860000000000005","329.6","6.076","338.9","NAN","NAN","NAN","NAN","NAN"],
    [1563781,"2026-07-26 04:30:00","534","4.828","331.5","7.154","330.4","NAN","NAN","NAN","NAN","NAN"],
    [1563782,"2026-07-26 04:40:00","535","3.583","327.0","5.782","336.8","NAN","NAN","NAN","NAN","NAN"],
    [1563783,"2026-07-26 04:50:00","536","3.198","330.1","4.606","334.9","NAN","NAN","NAN","NAN","NAN"],
    [1563784,"2026-07-26 05:00:00","537","2.877","320.3","5.488","313.3","NAN","NAN","NAN","NAN","NAN"],
    [1563785,"2026-07-26 05:10:00","538","3.824","316.2","5.88","351.6","NAN","NAN","NAN","NAN","NAN"],
    [1563786,"2026-07-26 05:20:00","539","3.3680000000000003","310.4","7.252","314","NAN","NAN","NAN","NAN","NAN"],
    [1563787,"2026-07-26 05:30:00","540","3.208","301.9","5.292","279.3","NAN","NAN","NAN","NAN","NAN"],
    [1563788,"2026-07-26 05:40:00","541","4.056","306.1","6.958","300.1","NAN","NAN","NAN","NAN","NAN"],
    [1563789,"2026-07-26 05:50:00","542","2.5789999999999997","313.4","5.292","332.9","NAN","NAN","NAN","NAN","NAN"],
    [1563790,"2026-07-26 06:00:00","543","4.066","309.8","7.448","289.8","NAN","NAN","NAN","NAN","NAN"],
    [1563791,"2026-07-26 06:10:00","544","4.977","317.5","9.02","331.3","NAN","NAN","NAN","NAN","NAN"],
    [1563792,"2026-07-26 06:20:00","545","5.0569999999999995","321.4","8.72","302.7","NAN","NAN","NAN","NAN","NAN"],
    [1563793,"2026-07-26 06:30:00","546","4.9110000000000005","319.1","8.43","346.5","NAN","NAN","NAN","NAN","NAN"],
    [1563794,"2026-07-26 06:40:00","547","5.612","316.0","9.7","328","NAN","NAN","NAN","NAN","NAN"],
    [1563795,"2026-07-26 06:50:00","548","5.337999999999999","319.7","9.41","335.6","NAN","NAN","NAN","NAN","NAN"],
    [1563796,"2026-07-26 07:00:00","549","4.468","316.2","7.448","311.4","NAN","NAN","NAN","NAN","NAN"],
    [1563797,"2026-07-26 07:10:00","550","4.718","313.7","8.04","315.8","NAN","NAN","NAN","NAN","NAN"],
    [1563798,"2026-07-26 07:20:00","551","4.705","308.2","7.448","296.6","NAN","NAN","NAN","NAN","NAN"],
    [1563799,"2026-07-26 07:30:00","552","3.9410000000000003","308.6","9.11","305.1","NAN","NAN","NAN","NAN","NAN"],
    [1563800,"2026-07-26 07:40:00","553","4.242","308.4","7.448","294.6","NAN","NAN","NAN","NAN","NAN"],
    [1563801,"2026-07-26 07:50:00","554","4.805","315.4","8.92","335.2","NAN","NAN","NAN","NAN","NAN"],
    [1563802,"2026-07-26 08:00:00","555","5.444","328.8","9.21","329.8","NAN","NAN","NAN","NAN","NAN"],
    [1563803,"2026-07-26 08:10:00","556","4.323","325.8","7.35","331.3","NAN","NAN","NAN","NAN","NAN"],
    [1563804,"2026-07-26 08:20:00","557","5.113","332.9","7.448","334.5","NAN","NAN","NAN","NAN","NAN"],
    [1563805,"2026-07-26 08:30:00","558","4.65","326.0","6.86","325.6","NAN","NAN","NAN","NAN","NAN"],
    [1563806,"2026-07-26 08:40:00","559","4.445","311.0","7.056","311.3","NAN","NAN","NAN","NAN","NAN"],
    [1563807,"2026-07-26 08:50:00","560","3.449","312.0","6.566","311.3","NAN","NAN","NAN","NAN","NAN"],
    [1563808,"2026-07-26 09:00:00","561","4.745","328.7","6.86","331.2","NAN","NAN","NAN","NAN","NAN"],
    [1563809,"2026-07-26 09:10:00","562","4.277","321.9","5.978","333.4","NAN","NAN","NAN","NAN","NAN"],
    [1563810,"2026-07-26 09:20:00","563","3.4219999999999997","329.9","5.292","337.9","NAN","NAN","NAN","NAN","NAN"],
    [1563811,"2026-07-26 09:30:00","564","3.3089999999999997","321.1","4.998","330.5","NAN","NAN","NAN","NAN","NAN"],
    [1563812,"2026-07-26 09:40:00","565","2.8089999999999997","311.3","5.194","299.3","NAN","NAN","NAN","NAN","NAN"],
    [1563813,"2026-07-26 09:50:00","566","3.0980000000000003","307.3","4.9","318.9","NAN","NAN","NAN","NAN","NAN"],
    [1563814,"2026-07-26 10:00:00","567","1.939","312.2","3.822","294.8","NAN","NAN","NAN","NAN","NAN"],
    [1563815,"2026-07-26 10:10:00","568","1.432","311.9","2.842","306","NAN","NAN","NAN","NAN","NAN"],
    [1563816,"2026-07-26 10:20:00","569","0.20199999999999999","18.59","0.98","0.192","NAN","NAN","NAN","NAN","NAN"],
    [1563817,"2026-07-26 10:30:00","570","2.063","217.0","4.998","285.6","NAN","NAN","NAN","NAN","NAN"],
    [1563818,"2026-07-26 10:40:00","571","1.41","215.1","4.312","207.3","NAN","NAN","NAN","NAN","NAN"],
    [1563819,"2026-07-26 10:50:00","572","2.426","210.4","4.606","213.5","NAN","NAN","NAN","NAN","NAN"],
    [1563820,"2026-07-26 11:00:00","573","2.698","180.7","4.704","182.3","NAN","NAN","NAN","NAN","NAN"],
    [1563821,"2026-07-26 11:10:00","574","3.398","172.4","5.39","167.4","NAN","NAN","NAN","NAN","NAN"],
    [1563822,"2026-07-26 11:20:00","575","3.5410000000000004","172.6","5.88","180.7","NAN","NAN","NAN","NAN","NAN"],
    [1563823,"2026-07-26 11:30:00","576","2.964","201.4","5.194","165.7","NAN","NAN","NAN","NAN","NAN"],
    [1563824,"2026-07-26 11:40:00","577","3.502","178.3","6.076","172.8","NAN","NAN","NAN","NAN","NAN"],
    [1563825,"2026-07-26 11:50:00","578","3.576","168.1","5.488","183.6","NAN","NAN","NAN","NAN","NAN"],
    [1563826,"2026-07-26 12:00:00","579","4.067","168.8","6.664","164.6","NAN","NAN","NAN","NAN","NAN"],
    [1563827,"2026-07-26 12:10:00","580","4.321000000000001","160.3","6.174","174.8","NAN","NAN","NAN","NAN","NAN"],
    [1563828,"2026-07-26 12:20:00","581","4.158","189.0","6.37","221.8","NAN","NAN","NAN","NAN","NAN"],
    [1563829,"2026-07-26 12:30:00","582","4.418","171.3","6.958","160.3","NAN","NAN","NAN","NAN","NAN"],
    [1563830,"2026-07-26 12:40:00","583","3.64","185.0","6.174","195.2","NAN","NAN","NAN","NAN","NAN"],
    [1563831,"2026-07-26 12:50:00","584","4.107","169.9","7.35","166.4","NAN","NAN","NAN","NAN","NAN"],
    [1563832,"2026-07-26 13:00:00","585","4.673","167.7","7.154","189.2","NAN","NAN","NAN","NAN","NAN"],
    [1563833,"2026-07-26 13:10:00","586","3.89","176.4","5.39","177.5","NAN","NAN","NAN","NAN","NAN"],
    [1563834,"2026-07-26 13:20:00","587","3.648","172.2","6.762","187.7","NAN","NAN","NAN","NAN","NAN"],
    [1563835,"2026-07-26 13:30:00","588","3.841","170.7","6.762","165.9","NAN","NAN","NAN","NAN","NAN"],
    [1563836,"2026-07-26 13:40:00","589","4.0489999999999995","182.4","7.35","162.4","NAN","NAN","NAN","NAN","NAN"],
    [1563837,"2026-07-26 13:50:00","590","4.176","182.7","7.448","164.8","NAN","NAN","NAN","NAN","NAN"],
    [1563838,"2026-07-26 14:00:00","591","4.5","189.5","7.742","231","NAN","NAN","NAN","NAN","NAN"],
    [1563839,"2026-07-26 14:10:00","592","4.078","189.3","7.742","231","NAN","NAN","NAN","NAN","NAN"],
    [1563840,"2026-07-26 14:20:00","593","4.95","200.4","8.13","202.1","NAN","NAN","NAN","NAN","NAN"],
    [1563841,"2026-07-26 14:30:00","594","5.279","207.1","9.11","218.8","NAN","NAN","NAN","NAN","NAN"],
    [1563842,"2026-07-26 14:40:00","595","5.303","205.9","8.43","206.6","NAN","NAN","NAN","NAN","NAN"],
    [1563843,"2026-07-26 14:50:00","596","5.084","207.9","8.23","210","NAN","NAN","NAN","NAN","NAN"],
    [1563844,"2026-07-26 15:00:00","597","5.341","209.6","8.72","212.7","NAN","NAN","NAN","NAN","NAN"],
    [1563845,"2026-07-26 15:10:00","598","4.9639999999999995","206.5","8.23","219.5","NAN","NAN","NAN","NAN","NAN"],
    [1563846,"2026-07-26 15:20:00","599","4.745","207.7","7.742","214.4","NAN","NAN","NAN","NAN","NAN"],
    [1563847,"2026-07-26 15:30:00","600","4.739","206.5","8.62","211.8","NAN","NAN","NAN","NAN","NAN"],
    [1563848,"2026-07-26 15:40:00","601","5.246","211.2","7.84","195","NAN","NAN","NAN","NAN","NAN"],
    [1563849,"2026-07-26 15:50:00","602","4.067","194.5","6.664","213.5","NAN","NAN","NAN","NAN","NAN"],
    [1563850,"2026-07-26 16:00:00","603","4.157","203.3","7.154","206","NAN","NAN","NAN","NAN","NAN"],
    [1563851,"2026-07-26 16:10:00","604","3.8810000000000002","192.8","6.762","204.8","NAN","NAN","NAN","NAN","NAN"],
    [1563852,"2026-07-26 16:20:00","605","3.438","203.1","6.174","215.7","NAN","NAN","NAN","NAN","NAN"],
    [1563853,"2026-07-26 16:30:00","606","3.885","171.6","6.86","158","NAN","NAN","NAN","NAN","NAN"],
    [1563854,"2026-07-26 16:40:00","607","3.654","172.8","6.86","160.5","NAN","NAN","NAN","NAN","NAN"],
    [1563855,"2026-07-26 16:50:00","608","3.945","175.6","6.272","172.9","NAN","NAN","NAN","NAN","NAN"],
    [1563856,"2026-07-26 17:00:00","609","3.1069999999999998","197.3","5.684","186.5","NAN","NAN","NAN","NAN","NAN"],
    [1563857,"2026-07-26 17:10:00","610","4.292","168.9","6.566","163","NAN","NAN","NAN","NAN","NAN"],
    [1563858,"2026-07-26 17:20:00","611","3.3739999999999997","172.1","5.194","154.5","NAN","NAN","NAN","NAN","NAN"],
    [1563859,"2026-07-26 17:30:00","612","4.138999999999999","154.8","6.174","144","NAN","NAN","NAN","NAN","NAN"],
    [1563860,"2026-07-26 17:40:00","613","4.335","158.5","6.37","171","NAN","NAN","NAN","NAN","NAN"],
    [1563861,"2026-07-26 17:50:00","614","4.147","157.4","5.782","143.1","NAN","NAN","NAN","NAN","NAN"],
    [1563862,"2026-07-26 18:00:00","615","3.64","160.4","5.88","175.5","NAN","NAN","NAN","NAN","NAN"],
    [1563863,"2026-07-26 18:10:00","616","3.5869999999999997","149.8","5.292","171.3","NAN","NAN","NAN","NAN","NAN"],
    [1563864,"2026-07-26 18:20:00","617","3.628","146.5","5.194","138.3","NAN","NAN","NAN","NAN","NAN"],
    [1563865,"2026-07-26 18:30:00","618","3.412","156.2","5.39","144.7","NAN","NAN","NAN","NAN","NAN"],
    [1563866,"2026-07-26 18:40:00","619","3.782","158.1","5.194","164.1","NAN","NAN","NAN","NAN","NAN"],
    [1563867,"2026-07-26 18:50:00","620","3.866","158.7","5.39","155.1","NAN","NAN","NAN","NAN","NAN"],
    [1563868,"2026-07-26 19:00:00","621","3.2769999999999997","163.5","4.9","173.2","NAN","NAN","NAN","NAN","NAN"],
    [1563869,"2026-07-26 19:10:00","622","3.429","155.3","5.39","159.9","NAN","NAN","NAN","NAN","NAN"],
    [1563870,"2026-07-26 19:20:00","623","3.7489999999999997","153.7","5.292","168.7","NAN","NAN","NAN","NAN","NAN"],
    [1563871,"2026-07-26 19:30:00","624","3.048","156.5","4.606","158","NAN","NAN","NAN","NAN","NAN"],
    [1563872,"2026-07-26 19:40:00","625","3.1180000000000003","160.3","5.88","144.8","NAN","NAN","NAN","NAN","NAN"],
    [1563873,"2026-07-26 19:50:00","626","3.233","165.3","5.88","186.9","NAN","NAN","NAN","NAN","NAN"],
    [1563874,"2026-07-26 20:00:00","627","2.9210000000000003","166.3","4.508","169.5","NAN","NAN","NAN","NAN","NAN"],
    [1563875,"2026-07-26 20:10:00","628","3.205","168.1","5.292","157.4","NAN","NAN","NAN","NAN","NAN"],
    [1563876,"2026-07-26 20:20:00","629","2.489","156.0","4.018","165.1","NAN","NAN","NAN","NAN","NAN"],
    [1563877,"2026-07-26 20:30:00","630","2.3680000000000003","168.0","4.116","181.3","NAN","NAN","NAN","NAN","NAN"],
    [1563878,"2026-07-26 20:40:00","631","2.9019999999999997","169.3","4.312","159","NAN","NAN","NAN","NAN","NAN"],
    [1563879,"2026-07-26 20:50:00","632","2.465","167.3","4.116","154.2","NAN","NAN","NAN","NAN","NAN"],
    [1563880,"2026-07-26 21:00:00","633","2.97","166.1","4.802","155.8","NAN","NAN","NAN","NAN","NAN"],
    [1563881,"2026-07-26 21:10:00","634","2.075","175.6","4.116","156.8","NAN","NAN","NAN","NAN","NAN"],
    [1563882,"2026-07-26 21:20:00","635","1.568","186.7","3.822","185.7","NAN","NAN","NAN","NAN","NAN"],
    [1563883,"2026-07-26 21:30:00","636","2.22","181.9","4.214","168.1","NAN","NAN","NAN","NAN","NAN"],
    [1563884,"2026-07-26 21:40:00","637","2.265","189.5","4.606","206.7","NAN","NAN","NAN","NAN","NAN"],
    [1563885,"2026-07-26 21:50:00","638","1.9609999999999999","189.9","3.724","223.6","NAN","NAN","NAN","NAN","NAN"],
    [1563886,"2026-07-26 22:00:00","639","2.312","207.6","4.508","215.8","NAN","NAN","NAN","NAN","NAN"],
    [1563887,"2026-07-26 22:10:00","640","2.222","210.6","3.626","216.1","NAN","NAN","NAN","NAN","NAN"],
    [1563888,"2026-07-26 22:20:00","641","2.25","214.1","3.822","210.3","NAN","NAN","NAN","NAN","NAN"],
    [1563889,"2026-07-26 22:30:00","642","2.384","211.9","3.626","217.6","NAN","NAN","NAN","NAN","NAN"],
    [1563890,"2026-07-26 22:40:00","643","2.4819999999999998","212.3","3.724","208.2","NAN","NAN","NAN","NAN","NAN"],
    [1563891,"2026-07-26 22:50:00","644","2.187","210.2","4.018","216","NAN","NAN","NAN","NAN","NAN"],
    [1563892,"2026-07-26 23:00:00","645","2.04","207.5","3.92","212.5","NAN","NAN","NAN","NAN","NAN"],
    [1563893,"2026-07-26 23:10:00","646","1.992","205.3","3.136","192.7","NAN","NAN","NAN","NAN","NAN"],
    [1563894,"2026-07-26 23:20:00","647","1.85","205.1","3.92","206.8","NAN","NAN","NAN","NAN","NAN"],
    [1563895,"2026-07-26 23:30:00","648","2.168","203.6","4.508","224.5","NAN","NAN","NAN","NAN","NAN"],
    [1563896,"2026-07-26 23:40:00","649","2.576","203.5","4.606","205.9","NAN","NAN","NAN","NAN","NAN"],
    [1563897,"2026-07-26 23:50:00","650","1.7930000000000001","192.2","4.018","173.9","NAN","NAN","NAN","NAN","NAN"],
    [1563898,"2026-07-27 00:00:00","651","2.302","182.3","5.194","175.2","NAN","NAN","NAN","NAN","NAN"],
    [1563899,"2026-07-27 00:10:00","652","2.699","171.9","4.704","147.9","NAN","NAN","NAN","NAN","NAN"],
    [1563900,"2026-07-27 00:20:00","653","2.718","166.3","4.214","176","NAN","NAN","NAN","NAN","NAN"],
    [1563901,"2026-07-27 00:30:00","654","3.014","164.2","4.9","159.1","NAN","NAN","NAN","NAN","NAN"],
    [1563902,"2026-07-27 00:40:00","655","2.452","169.0","5.586","176.5","NAN","NAN","NAN","NAN","NAN"],
    [1563903,"2026-07-27 00:50:00","656","0.8759999999999999","178.6","1.568","177.6","NAN","NAN","NAN","NAN","NAN"],
    [1563904,"2026-07-27 01:00:00","657","0.643","178.8","1.47","178.9","NAN","NAN","NAN","NAN","NAN"],
    [1563905,"2026-07-27 01:10:00","658","0.47600000000000003","178.8","1.47","178.7","NAN","NAN","NAN","NAN","NAN"],
    [1563906,"2026-07-27 01:20:00","659","0.201","179.1","0.686","180.8","NAN","NAN","NAN","NAN","NAN"],
    [1563907,"2026-07-27 01:30:00","660","0.185","181.9","0.686","181.3","NAN","NAN","NAN","NAN","NAN"],
    [1563908,"2026-07-27 01:40:00","661","0.159","187.9","0.588","183.8","NAN","NAN","NAN","NAN","NAN"],
    [1563909,"2026-07-27 01:50:00","662","0.11199999999999999","193.1","0.588","193.1","NAN","NAN","NAN","NAN","NAN"],
    [1563910,"2026-07-27 02:00:00","663","0.038","193.3","0.392","193.3","NAN","NAN","NAN","NAN","NAN"],
    [1563911,"2026-07-27 02:10:00","664","0.37200000000000005","193.9","1.078","194","NAN","NAN","NAN","NAN","NAN"],
    [1563912,"2026-07-27 02:20:00","665","1.97","321.2","3.92","354.5","NAN","NAN","NAN","NAN","NAN"],
    [1563913,"2026-07-27 02:30:00","666","1.9769999999999999","11.46","3.724","15.83","NAN","NAN","NAN","NAN","NAN"],
    [1563914,"2026-07-27 02:40:00","667","2.2640000000000002","3.24","3.43","8.18","NAN","NAN","NAN","NAN","NAN"],
    [1563915,"2026-07-27 02:50:00","668","2.261","3.5839999999999996","3.626","354.5","NAN","NAN","NAN","NAN","NAN"],
    [1563916,"2026-07-27 03:00:00","669","1.382","348.0","2.548","1.299","NAN","NAN","NAN","NAN","NAN"],
    [1563917,"2026-07-27 03:10:00","670","1.609","328.8","2.842","325","NAN","NAN","NAN","NAN","NAN"],
    [1563918,"2026-07-27 03:20:00","671","1.0090000000000001","337.5","3.038","337.6","NAN","NAN","NAN","NAN","NAN"],
    [1563919,"2026-07-27 03:30:00","672","1.274","332.0","2.744","326.5","NAN","NAN","NAN","NAN","NAN"],
    [1563920,"2026-07-27 03:40:00","673","2.042","318.1","2.744","326.5","NAN","NAN","NAN","NAN","NAN"],
    [1563921,"2026-07-27 03:50:00","674","2.122","305.6","3.528","299.5","NAN","NAN","NAN","NAN","NAN"],
    [1563922,"2026-07-27 04:00:00","675","2.451","299.8","3.626","296.8","NAN","NAN","NAN","NAN","NAN"],
    [1563923,"2026-07-27 04:10:00","676","2.262","300.8","3.43","305.3","NAN","NAN","NAN","NAN","NAN"],
    [1563924,"2026-07-27 04:20:00","677","2.448","315.5","4.312","306.5","NAN","NAN","NAN","NAN","NAN"],
    [1563925,"2026-07-27 04:30:00","678","2.772","327.2","4.214","323.7","NAN","NAN","NAN","NAN","NAN"],
    [1563926,"2026-07-27 04:40:00","679","2.596","327.0","4.116","340.9","NAN","NAN","NAN","NAN","NAN"],
    [1563927,"2026-07-27 04:50:00","680","1.605","319.5","3.43","320.3","NAN","NAN","NAN","NAN","NAN"],
    [1563928,"2026-07-27 05:00:00","681","1.7930000000000001","319.5","2.744","318.3","NAN","NAN","NAN","NAN","NAN"],
    [1563929,"2026-07-27 05:10:00","682","1.4240000000000002","315.0","2.744","318","NAN","NAN","NAN","NAN","NAN"],
    [1563930,"2026-07-27 05:20:00","683","1.757","319.0","3.038","332.4","NAN","NAN","NAN","NAN","NAN"],
    [1563931,"2026-07-27 05:30:00","684","1.6469999999999998","321.2","3.038","326.6","NAN","NAN","NAN","NAN","NAN"],
    [1563932,"2026-07-27 05:40:00","685","1.541","319.0","2.744","312.7","NAN","NAN","NAN","NAN","NAN"],
    [1563933,"2026-07-27 05:50:00","686","2.372","313.2","3.528","316.3","NAN","NAN","NAN","NAN","NAN"],
    [1563934,"2026-07-27 06:00:00","687","2.13","311.2","3.43","313.8","NAN","NAN","NAN","NAN","NAN"],
    [1563935,"2026-07-27 06:10:00","688","2.325","319.0","3.234","322.1","NAN","NAN","NAN","NAN","NAN"],
    [1563936,"2026-07-27 06:20:00","689","1.9140000000000001","310.9","3.332","328.2","NAN","NAN","NAN","NAN","NAN"],
    [1563937,"2026-07-27 06:30:00","690","2.614","300.8","4.116","305.8","NAN","NAN","NAN","NAN","NAN"],
    [1563938,"2026-07-27 06:40:00","691","2.715","310.1","4.214","307.9","NAN","NAN","NAN","NAN","NAN"],
    [1563939,"2026-07-27 06:50:00","692","2.3280000000000003","311.5","4.41","315.4","NAN","NAN","NAN","NAN","NAN"],
    [1563940,"2026-07-27 07:00:00","693","2.323","314.8","3.724","302","NAN","NAN","NAN","NAN","NAN"],
    [1563941,"2026-07-27 07:10:00","694","2.248","331.1","3.724","327.2","NAN","NAN","NAN","NAN","NAN"],
    [1563942,"2026-07-27 07:20:00","695","1.561","10.94","3.038","27.28","NAN","NAN","NAN","NAN","NAN"],
    [1563943,"2026-07-27 07:30:00","696","3.4219999999999997","47.07","4.998","42.99","NAN","NAN","NAN","NAN","NAN"],
    [1563944,"2026-07-27 07:40:00","697","2.802","60.43","4.606","71.06","NAN","NAN","NAN","NAN","NAN"],
    [1563945,"2026-07-27 07:50:00","698","2.215","67.28","4.606","37.74","NAN","NAN","NAN","NAN","NAN"],
    [1563946,"2026-07-27 08:00:00","699","1.984","82.3","3.724","72.96","NAN","NAN","NAN","NAN","NAN"],
    [1563947,"2026-07-27 08:10:00","700","2.39","80.3","4.998","75.35","NAN","NAN","NAN","NAN","NAN"],
    [1563948,"2026-07-27 08:20:00","701","2.9389999999999996","84.9","4.606","95.6","NAN","NAN","NAN","NAN","NAN"],
    [1563949,"2026-07-27 08:30:00","702","3.46","78.66","5.194","92.5","NAN","NAN","NAN","NAN","NAN"],
    [1563950,"2026-07-27 08:40:00","703","3.262","78.29","5.096","84.8","NAN","NAN","NAN","NAN","NAN"],
    [1563951,"2026-07-27 08:50:00","704","3.657","84.0","5.488","90.4","NAN","NAN","NAN","NAN","NAN"],
    [1563952,"2026-07-27 09:00:00","705","3.377","95.1","5.684","90.6","NAN","NAN","NAN","NAN","NAN"],
    [1563953,"2026-07-27 09:10:00","706","3.2119999999999997","100.0","5.194","111","NAN","NAN","NAN","NAN","NAN"],
    [1563954,"2026-07-27 09:20:00","707","4.042","97.3","6.076","98.6","NAN","NAN","NAN","NAN","NAN"],
    [1563955,"2026-07-27 09:30:00","708","3.813","107.6","6.86","123.8","NAN","NAN","NAN","NAN","NAN"],
    [1563956,"2026-07-27 09:40:00","709","4.104","100.3","6.174","99","NAN","NAN","NAN","NAN","NAN"],
    [1563957,"2026-07-27 09:50:00","710","4.113","103.2","6.468","86.4","NAN","NAN","NAN","NAN","NAN"],
    [1563958,"2026-07-27 10:00:00","711","4.263999999999999","100.6","6.958","100.4","NAN","NAN","NAN","NAN","NAN"],
    [1563959,"2026-07-27 10:10:00","712","4.144","98.0","6.076","98.1","NAN","NAN","NAN","NAN","NAN"],
    [1563960,"2026-07-27 10:20:00","713","4.291","95.7","6.37","81","NAN","NAN","NAN","NAN","NAN"],
    [1563961,"2026-07-27 10:30:00","714","4.89","96.4","7.644","93.4","NAN","NAN","NAN","NAN","NAN"],
    [1563962,"2026-07-27 10:40:00","715","4.301","96.3","7.35","75.15","NAN","NAN","NAN","NAN","NAN"],
    [1563963,"2026-07-27 10:50:00","716","4.609","97.5","6.37","85.9","NAN","NAN","NAN","NAN","NAN"],
    [1563964,"2026-07-27 11:00:00","717","4.2219999999999995","96.4","6.272","129","NAN","NAN","NAN","NAN","NAN"],
    [1563965,"2026-07-27 11:10:00","718","4.378","98.4","6.37","103.9","NAN","NAN","NAN","NAN","NAN"],
    [1563966,"2026-07-27 11:20:00","719","4.11","98.9","7.252","96.2","NAN","NAN","NAN","NAN","NAN"],
    [1563967,"2026-07-27 11:30:00","720","4.377","101.9","6.664","104","NAN","NAN","NAN","NAN","NAN"],
    [1563968,"2026-07-27 11:40:00","721","4.044","102.0","6.762","94.9","NAN","NAN","NAN","NAN","NAN"],
    [1563969,"2026-07-27 11:50:00","722","3.658","107.8","5.292","101.6","NAN","NAN","NAN","NAN","NAN"],
    [1563970,"2026-07-27 12:00:00","723","3.787","110.5","6.076","112.9","NAN","NAN","NAN","NAN","NAN"],
    [1563971,"2026-07-27 12:10:00","724","3.602","101.6","5.194","95.4","NAN","NAN","NAN","NAN","NAN"],
    [1563972,"2026-07-27 12:20:00","725","3.338","100.4","5.782","90.4","NAN","NAN","NAN","NAN","NAN"],
    [1563973,"2026-07-27 12:30:00","726","3.7030000000000003","96.0","6.174","91.4","NAN","NAN","NAN","NAN","NAN"],
    [1563974,"2026-07-27 12:40:00","727","3.1660000000000004","107.2","5.586","81.7","NAN","NAN","NAN","NAN","NAN"],
    [1563975,"2026-07-27 12:50:00","728","4.022","109.6","6.076","103","NAN","NAN","NAN","NAN","NAN"],
    [1563976,"2026-07-27 13:00:00","729","4.19","114.7","6.762","127.4","NAN","NAN","NAN","NAN","NAN"],
    [1563977,"2026-07-27 13:10:00","730","4.166","112.2","6.566","120.8","NAN","NAN","NAN","NAN","NAN"],
    [1563978,"2026-07-27 13:20:00","731","4.811","112.9","6.958","117.6","NAN","NAN","NAN","NAN","NAN"],
    [1563979,"2026-07-27 13:30:00","732","4.197","112.6","6.468","108.8","NAN","NAN","NAN","NAN","NAN"],
    [1563980,"2026-07-27 13:40:00","733","4.1610000000000005","122.9","6.468","131.8","NAN","NAN","NAN","NAN","NAN"],
    [1563981,"2026-07-27 13:50:00","734","3.7119999999999997","122.2","5.684","138","NAN","NAN","NAN","NAN","NAN"],
    [1563982,"2026-07-27 14:00:00","735","4.435","131.5","6.37","132.9","NAN","NAN","NAN","NAN","NAN"],
    [1563983,"2026-07-27 14:10:00","736","4.419","127.0","5.978","132.1","NAN","NAN","NAN","NAN","NAN"],
    [1563984,"2026-07-27 14:20:00","737","4.508","130.3","6.272","129","NAN","NAN","NAN","NAN","NAN"],
    [1563985,"2026-07-27 14:30:00","738","4.308","129.4","5.782","140.5","NAN","NAN","NAN","NAN","NAN"],
    [1563986,"2026-07-27 14:40:00","739","3.405","124.2","5.684","135.2","NAN","NAN","NAN","NAN","NAN"],
    [1563987,"2026-07-27 14:50:00","740","3.278","127.2","5.194","144.8","NAN","NAN","NAN","NAN","NAN"],
    [1563988,"2026-07-27 15:00:00","741","1.629","177.5","3.234","101.6","NAN","NAN","NAN","NAN","NAN"],
    [1563989,"2026-07-27 15:10:00","742","2.6060000000000003","185.7","4.606","212","NAN","NAN","NAN","NAN","NAN"],
    [1563990,"2026-07-27 15:20:00","743","3.11","204.5","4.704","229.5","NAN","NAN","NAN","NAN","NAN"],
    [1563991,"2026-07-27 15:30:00","744","2.838","210.0","5.096","203.1","NAN","NAN","NAN","NAN","NAN"],
    [1563992,"2026-07-27 15:40:00","745","3.034","222.2","5.88","212.1","NAN","NAN","NAN","NAN","NAN"],
    [1563993,"2026-07-27 15:50:00","746","3.3089999999999997","222.8","5.88","222.9","NAN","NAN","NAN","NAN","NAN"],
    [1563994,"2026-07-27 16:00:00","747","3.502","204.0","5.88","215.1","NAN","NAN","NAN","NAN","NAN"],
    [1563995,"2026-07-27 16:10:00","748","3.6439999999999997","200.5","5.978","206.9","NAN","NAN","NAN","NAN","NAN"],
    [1563996,"2026-07-27 16:20:00","749","3.562","221.3","5.586","213","NAN","NAN","NAN","NAN","NAN"],
    [1563997,"2026-07-27 16:30:00","750","3.889","211.6","6.958","242.7","NAN","NAN","NAN","NAN","NAN"],
    [1563998,"2026-07-27 16:40:00","751","4.485","222.6","7.252","215.2","NAN","NAN","NAN","NAN","NAN"],
    [1563999,"2026-07-27 16:50:00","752","4.202","230.2","6.762","222.2","NAN","NAN","NAN","NAN","NAN"],
    [1564000,"2026-07-27 17:00:00","753","3.662","230.9","5.488","229.9","NAN","NAN","NAN","NAN","NAN"],
    [1564001,"2026-07-27 17:10:00","754","4.093","214.0","6.076","209.2","NAN","NAN","NAN","NAN","NAN"],
    [1564002,"2026-07-27 17:20:00","755","3.2680000000000002","234.6","5.39","240.9","NAN","NAN","NAN","NAN","NAN"],
    [1564003,"2026-07-27 17:30:00","756","3.56","236.1","6.86","217.8","NAN","NAN","NAN","NAN","NAN"],
    [1564004,"2026-07-27 17:40:00","757","3.258","236.8","6.272","257.7","NAN","NAN","NAN","NAN","NAN"],
    [1564005,"2026-07-27 17:50:00","758","3.483","242.1","6.174","237.7","NAN","NAN","NAN","NAN","NAN"],
    [1564006,"2026-07-27 18:00:00","759","2.5660000000000003","239.2","4.802","223","NAN","NAN","NAN","NAN","NAN"],
    [1564007,"2026-07-27 18:10:00","760","3.069","242.5","5.782","228.8","NAN","NAN","NAN","NAN","NAN"],
    [1564008,"2026-07-27 18:20:00","761","2.885","227.4","5.782","213.8","NAN","NAN","NAN","NAN","NAN"],
    [1564009,"2026-07-27 18:30:00","762","3.013","223.6","4.802","205.1","NAN","NAN","NAN","NAN","NAN"],
    [1564010,"2026-07-27 18:40:00","763","3.26","228.7","5.096","235.7","NAN","NAN","NAN","NAN","NAN"],
    [1564011,"2026-07-27 18:50:00","764","3.46","232.0","5.586","220.9","NAN","NAN","NAN","NAN","NAN"],
    [1564012,"2026-07-27 19:00:00","765","3.58","249.2","5.194","250","NAN","NAN","NAN","NAN","NAN"],
    [1564013,"2026-07-27 19:10:00","766","3.0860000000000003","229.1","5.292","219.6","NAN","NAN","NAN","NAN","NAN"],
    [1564014,"2026-07-27 19:20:00","767","3.168","228.7","4.802","234.9","NAN","NAN","NAN","NAN","NAN"],
    [1564015,"2026-07-27 19:30:00","768","2.627","232.3","4.802","239.2","NAN","NAN","NAN","NAN","NAN"],
    [1564016,"2026-07-27 19:40:00","769","2.662","240.6","5.39","253.3","NAN","NAN","NAN","NAN","NAN"],
    [1564017,"2026-07-27 19:50:00","770","2.59","243.8","5.194","236.7","NAN","NAN","NAN","NAN","NAN"],
    [1564018,"2026-07-27 20:00:00","771","2.8110000000000004","236.0","4.802","260.3","NAN","NAN","NAN","NAN","NAN"],
    [1564019,"2026-07-27 20:10:00","772","2.421","246.4","4.9","248.9","NAN","NAN","NAN","NAN","NAN"],
    [1564020,"2026-07-27 20:20:00","773","2.67","252.3","4.116","258.6","NAN","NAN","NAN","NAN","NAN"],
    [1564021,"2026-07-27 20:30:00","774","2.497","258.5","3.822","258.3","NAN","NAN","NAN","NAN","NAN"],
    [1564022,"2026-07-27 20:40:00","775","2.638","251.6","4.018","254","NAN","NAN","NAN","NAN","NAN"],
    [1564023,"2026-07-27 20:50:00","776","2.226","249.8","3.332","249.4","NAN","NAN","NAN","NAN","NAN"],
    [1564024,"2026-07-27 21:00:00","777","2.351","250.0","3.528","239.5","NAN","NAN","NAN","NAN","NAN"],
    [1564025,"2026-07-27 21:10:00","778","2.03","249.0","2.548","252.6","NAN","NAN","NAN","NAN","NAN"],
    [1564026,"2026-07-27 21:20:00","779","1.148","259.7","2.45","257.7","NAN","NAN","NAN","NAN","NAN"],
    [1564027,"2026-07-27 21:30:00","780","0.6579999999999999","260.8","1.568","260.9","NAN","NAN","NAN","NAN","NAN"],
    [1564028,"2026-07-27 21:40:00","781","0.902","261.2","1.47","261.3","NAN","NAN","NAN","NAN","NAN"],
    [1564029,"2026-07-27 21:50:00","782","1.151","260.7","1.568","261.5","NAN","NAN","NAN","NAN","NAN"],
    [1564030,"2026-07-27 22:00:00","783","1.114","251.0","1.862","247.4","NAN","NAN","NAN","NAN","NAN"],
    [1564031,"2026-07-27 22:10:00","784","1.288","233.8","2.058","233.5","NAN","NAN","NAN","NAN","NAN"],
    [1564032,"2026-07-27 22:20:00","785","1.345","241.0","2.254","243.4","NAN","NAN","NAN","NAN","NAN"],
    [1564033,"2026-07-27 22:30:00","786","1.5659999999999998","253.6","2.45","251.5","NAN","NAN","NAN","NAN","NAN"],
    [1564034,"2026-07-27 22:40:00","787","1.5030000000000001","256.1","2.45","256.1","NAN","NAN","NAN","NAN","NAN"],
    [1564035,"2026-07-27 22:50:00","788","1.205","256.4","1.96","256.5","NAN","NAN","NAN","NAN","NAN"],
    [1564036,"2026-07-27 23:00:00","789","0.9009999999999999","256.5","1.372","256.5","NAN","NAN","NAN","NAN","NAN"],
    [1564037,"2026-07-27 23:10:00","790","1.0","256.9","1.47","256.9","NAN","NAN","NAN","NAN","NAN"],
    [1564038,"2026-07-27 23:20:00","791","0.87","257.3","1.568","257.2","NAN","NAN","NAN","NAN","NAN"],
    [1564039,"2026-07-27 23:30:00","792","1.442","247.8","2.646","255","NAN","NAN","NAN","NAN","NAN"],
    [1564040,"2026-07-27 23:40:00","793","1.642","253.3","2.548","251.6","NAN","NAN","NAN","NAN","NAN"],
    [1564041,"2026-07-27 23:50:00","794","1.078","256.6","1.666","256.8","NAN","NAN","NAN","NAN","NAN"],
    [1564042,"2026-07-28 00:00:00","795","1.413","257.9","2.058","257.1","NAN","NAN","NAN","NAN","NAN"],
    [1564043,"2026-07-28 00:10:00","796","0.82","258.6","1.568","258.6","NAN","NAN","NAN","NAN","NAN"],
    [1564044,"2026-07-28 00:20:00","797","1.288","258.8","1.862","258.6","NAN","NAN","NAN","NAN","NAN"],
    [1564045,"2026-07-28 00:30:00","798","1.001","259.0","1.764","258.9","NAN","NAN","NAN","NAN","NAN"],
    [1564046,"2026-07-28 00:40:00","799","0.97","259.7","2.156","260.8","NAN","NAN","NAN","NAN","NAN"],
    [1564047,"2026-07-28 00:50:00","800","1.185","261.3","1.862","261.3","NAN","NAN","NAN","NAN","NAN"],
    [1564048,"2026-07-28 01:00:00","801","1.162","261.4","1.764","261.4","NAN","NAN","NAN","NAN","NAN"],
    [1564049,"2026-07-28 01:10:00","802","1.32","262.1","2.058","261.8","NAN","NAN","NAN","NAN","NAN"],
    [1564050,"2026-07-28 01:20:00","803","1.162","262.7","1.764","262.7","NAN","NAN","NAN","NAN","NAN"],
    [1564051,"2026-07-28 01:30:00","804","1.357","262.8","2.156","262.8","NAN","NAN","NAN","NAN","NAN"],
    [1564052,"2026-07-28 01:40:00","805","1.006","262.8","1.764","262.9","NAN","NAN","NAN","NAN","NAN"],
    [1564053,"2026-07-28 01:50:00","806","1.0","262.9","1.862","262.9","NAN","NAN","NAN","NAN","NAN"],
    [1564054,"2026-07-28 02:00:00","807","0.838","262.9","1.176","262.9","NAN","NAN","NAN","NAN","NAN"],
    [1564055,"2026-07-28 02:10:00","808","0.965","262.9","1.47","262.9","NAN","NAN","NAN","NAN","NAN"],
    [1564056,"2026-07-28 02:20:00","809","0.8690000000000001","262.9","1.568","262.9","NAN","NAN","NAN","NAN","NAN"],
    [1564057,"2026-07-28 02:30:00","810","0.982","262.9","1.372","262.9","NAN","NAN","NAN","NAN","NAN"],
    [1564058,"2026-07-28 02:40:00","811","0.8340000000000001","262.9","1.47","262.9","NAN","NAN","NAN","NAN","NAN"],
    [1564059,"2026-07-28 02:50:00","812","0.624","262.9","1.372","263","NAN","NAN","NAN","NAN","NAN"],
    [1564060,"2026-07-28 03:00:00","813","0.8859999999999999","263.0","1.47","262.9","NAN","NAN","NAN","NAN","NAN"],
    [1564061,"2026-07-28 03:10:00","814","0.8959999999999999","263.0","1.568","263.1","NAN","NAN","NAN","NAN","NAN"],
    [1564062,"2026-07-28 03:20:00","815","0.96","263.1","1.372","263.1","NAN","NAN","NAN","NAN","NAN"],
    [1564063,"2026-07-28 03:30:00","816","1.3459999999999999","264.5","1.96","263.5","NAN","NAN","NAN","NAN","NAN"],
    [1564064,"2026-07-28 03:40:00","817","1.046","265.0","1.666","265.3","NAN","NAN","NAN","NAN","NAN"],
    [1564065,"2026-07-28 03:50:00","818","0.9890000000000001","265.2","1.764","265.2","NAN","NAN","NAN","NAN","NAN"],
    [1564066,"2026-07-28 04:00:00","819","0.695","265.3","1.568","265.3","NAN","NAN","NAN","NAN","NAN"],
    [1564067,"2026-07-28 04:10:00","820","1.153","265.3","1.764","265.3","NAN","NAN","NAN","NAN","NAN"],
    [1564068,"2026-07-28 04:20:00","821","1.033","265.3","1.764","265.3","NAN","NAN","NAN","NAN","NAN"],
    [1564069,"2026-07-28 04:30:00","822","1.168","265.3","1.862","265.2","NAN","NAN","NAN","NAN","NAN"],
    [1564070,"2026-07-28 04:40:00","823","1.358","266.1","1.96","266.3","NAN","NAN","NAN","NAN","NAN"],
    [1564071,"2026-07-28 04:50:00","824","1.214","266.3","1.764","266.4","NAN","NAN","NAN","NAN","NAN"],
    [1564072,"2026-07-28 05:00:00","825","1.202","266.4","1.862","266.3","NAN","NAN","NAN","NAN","NAN"],
    [1564073,"2026-07-28 05:10:00","826","1.2009999999999998","265.8","1.764","266.4","NAN","NAN","NAN","NAN","NAN"],
    [1564074,"2026-07-28 05:20:00","827","1.05","265.8","1.568","266.4","NAN","NAN","NAN","NAN","NAN"],
    [1564075,"2026-07-28 05:30:00","828","1.085","266.2","1.568","266.8","NAN","NAN","NAN","NAN","NAN"],
    [1564076,"2026-07-28 05:40:00","829","1.091","265.3","1.47","266.8","NAN","NAN","NAN","NAN","NAN"],
    [1564077,"2026-07-28 05:50:00","830","1.005","262.8","1.764","256.5","NAN","NAN","NAN","NAN","NAN"],
    [1564078,"2026-07-28 06:00:00","831","1.485","267.5","2.156","268.6","NAN","NAN","NAN","NAN","NAN"],
    [1564079,"2026-07-28 06:10:00","832","1.8","265.3","2.646","269","NAN","NAN","NAN","NAN","NAN"],
    [1564080,"2026-07-28 06:20:00","833","1.391","266.0","2.548","265.8","NAN","NAN","NAN","NAN","NAN"],
    [1564081,"2026-07-28 06:30:00","834","1.6","267.1","2.45","267.3","NAN","NAN","NAN","NAN","NAN"],
    [1564082,"2026-07-28 06:40:00","835","2.115","270.2","2.744","268.4","NAN","NAN","NAN","NAN","NAN"],
    [1564083,"2026-07-28 06:50:00","836","1.531","272.4","2.94","264.9","NAN","NAN","NAN","NAN","NAN"],
    [1564084,"2026-07-28 07:00:00","837","1.385","268.3","2.254","269.3","NAN","NAN","NAN","NAN","NAN"],
    [1564085,"2026-07-28 07:10:00","838","1.097","275.8","2.254","274.6","NAN","NAN","NAN","NAN","NAN"],
    [1564086,"2026-07-28 07:20:00","839","1.511","271.5","2.156","282.2","NAN","NAN","NAN","NAN","NAN"],
    [1564087,"2026-07-28 07:30:00","840","1.016","282.1","2.156","282.4","NAN","NAN","NAN","NAN","NAN"],
    [1564088,"2026-07-28 07:40:00","841","1.0","273.3","2.156","279.9","NAN","NAN","NAN","NAN","NAN"],
    [1564089,"2026-07-28 07:50:00","842","1.536","243.3","3.038","240.9","NAN","NAN","NAN","NAN","NAN"],
    [1564090,"2026-07-28 08:00:00","843","1.2930000000000001","250.4","3.038","205.4","NAN","NAN","NAN","NAN","NAN"],
    [1564091,"2026-07-28 08:10:00","844","2.051","241.0","4.018","241.3","NAN","NAN","NAN","NAN","NAN"],
    [1564092,"2026-07-28 08:20:00","845","2.38","227.5","4.802","231","NAN","NAN","NAN","NAN","NAN"],
    [1564093,"2026-07-28 08:30:00","846","2.182","206.2","4.312","168.6","NAN","NAN","NAN","NAN","NAN"],
    [1564094,"2026-07-28 08:40:00","847","2.614","210.4","5.39","234.3","NAN","NAN","NAN","NAN","NAN"],
    [1564095,"2026-07-28 08:50:00","848","2.9339999999999997","186.8","5.292","164.8","NAN","NAN","NAN","NAN","NAN"],
    [1564096,"2026-07-28 09:00:00","849","3.383","189.4","6.076","176","NAN","NAN","NAN","NAN","NAN"],
    [1564097,"2026-07-28 09:10:00","850","2.924","194.2","4.704","175.4","NAN","NAN","NAN","NAN","NAN"],
    [1564098,"2026-07-28 09:20:00","851","3.261","202.8","5.88","219.2","NAN","NAN","NAN","NAN","NAN"],
    [1564099,"2026-07-28 09:30:00","852","3.548","196.5","6.762","218.5","NAN","NAN","NAN","NAN","NAN"],
    [1564100,"2026-07-28 09:40:00","853","3.071","202.4","6.174","229.8","NAN","NAN","NAN","NAN","NAN"],
    [1564101,"2026-07-28 09:50:00","854","5.2620000000000005","205.7","8.53","193.1","NAN","NAN","NAN","NAN","NAN"],
    [1564102,"2026-07-28 10:00:00","855","4.875","210.5","8.04","227.4","NAN","NAN","NAN","NAN","NAN"],
    [1564103,"2026-07-28 10:10:00","856","4.945","208.4","9.51","220.4","NAN","NAN","NAN","NAN","NAN"],
    [1564104,"2026-07-28 10:20:00","857","5.695","211.8","8.92","210.9","NAN","NAN","NAN","NAN","NAN"],
    [1564105,"2026-07-28 10:30:00","858","6.107","220.7","9.02","234","NAN","NAN","NAN","NAN","NAN"],
    [1564106,"2026-07-28 10:40:00","859","5.251","229.9","9.6","242.5","NAN","NAN","NAN","NAN","NAN"],
    [1564107,"2026-07-28 10:50:00","860","4.914","221.1","8.72","221.8","NAN","NAN","NAN","NAN","NAN"],
    [1564108,"2026-07-28 11:00:00","861","5.187","218.2","8.72","215.1","NAN","NAN","NAN","NAN","NAN"],
    [1564109,"2026-07-28 11:10:00","862","5.151","211.0","8.04","204","NAN","NAN","NAN","NAN","NAN"],
    [1564110,"2026-07-28 11:20:00","863","5.747999999999999","210.9","9.6","229","NAN","NAN","NAN","NAN","NAN"],
    [1564111,"2026-07-28 11:30:00","864","5.794","211.1","9.02","212.4","NAN","NAN","NAN","NAN","NAN"],
    [1564112,"2026-07-28 11:40:00","865","5.928999999999999","212.7","10.29","223.9","NAN","NAN","NAN","NAN","NAN"],
    [1564113,"2026-07-28 11:50:00","866","5.8420000000000005","218.6","9.9","206.9","NAN","NAN","NAN","NAN","NAN"],
    [1564114,"2026-07-28 12:00:00","867","6.007000000000001","211.4","10.88","228.6","NAN","NAN","NAN","NAN","NAN"],
    [1564115,"2026-07-28 12:10:00","868","5.44","219.4","10.09","221.8","NAN","NAN","NAN","NAN","NAN"],
    [1564116,"2026-07-28 12:20:00","869","6.029","217.5","8.92","182.6","NAN","NAN","NAN","NAN","NAN"],
    [1564117,"2026-07-28 12:30:00","870","5.827000000000001","220.5","10.39","217.8","NAN","NAN","NAN","NAN","NAN"],
    [1564118,"2026-07-28 12:40:00","871","6.398","216.6","10","245.3","NAN","NAN","NAN","NAN","NAN"],
    [1564119,"2026-07-28 12:50:00","872","5.968999999999999","215.7","9.41","229.3","NAN","NAN","NAN","NAN","NAN"],
    [1564120,"2026-07-28 13:00:00","873","5.981","218.6","8.72","227.1","NAN","NAN","NAN","NAN","NAN"],
    [1564121,"2026-07-28 13:10:00","874","6.025","219.9","9.7","231.7","NAN","NAN","NAN","NAN","NAN"],
    [1564122,"2026-07-28 13:20:00","875","5.944","215.6","9.6","213.6","NAN","NAN","NAN","NAN","NAN"],
    [1564123,"2026-07-28 13:30:00","876","6.235","216.2","9.8","218.6","NAN","NAN","NAN","NAN","NAN"],
    [1564124,"2026-07-28 13:40:00","877","5.206","226.0","9.31","222.3","NAN","NAN","NAN","NAN","NAN"],
    [1564125,"2026-07-28 13:50:00","878","6.1370000000000005","225.6","10.39","218.9","NAN","NAN","NAN","NAN","NAN"],
    [1564126,"2026-07-28 14:00:00","879","5.939","223.6","10.58","215.3","NAN","NAN","NAN","NAN","NAN"],
    [1564127,"2026-07-28 14:10:00","880","4.796","223.9","9.02","211.5","NAN","NAN","NAN","NAN","NAN"],
    [1564128,"2026-07-28 14:20:00","881","5.511","223.0","9.7","222","NAN","NAN","NAN","NAN","NAN"],
    [1564129,"2026-07-28 14:30:00","882","6.167000000000001","226.2","10.39","201.6","NAN","NAN","NAN","NAN","NAN"],
    [1564130,"2026-07-28 14:40:00","883","5.75","228.4","9.7","222.1","NAN","NAN","NAN","NAN","NAN"],
    [1564131,"2026-07-28 14:50:00","884","5.912999999999999","218.1","9.51","219.4","NAN","NAN","NAN","NAN","NAN"],
    [1564132,"2026-07-28 15:00:00","885","5.218999999999999","227.9","9.21","257.5","NAN","NAN","NAN","NAN","NAN"],
    [1564133,"2026-07-28 15:10:00","886","6.245","240.7","9.8","224.3","NAN","NAN","NAN","NAN","NAN"],
    [1564134,"2026-07-28 15:20:00","887","5.882999999999999","224.9","9.41","219.7","NAN","NAN","NAN","NAN","NAN"],
    [1564135,"2026-07-28 15:30:00","888","5.881","231.2","9.6","245.6","NAN","NAN","NAN","NAN","NAN"],
    [1564136,"2026-07-28 15:40:00","889","5.081","219.2","9.9","235.4","NAN","NAN","NAN","NAN","NAN"],
    [1564137,"2026-07-28 15:50:00","890","5.504","219.4","9.8","213.7","NAN","NAN","NAN","NAN","NAN"],
    [1564138,"2026-07-28 16:00:00","891","6.077999999999999","227.3","10.58","227.6","NAN","NAN","NAN","NAN","NAN"],
    [1564139,"2026-07-28 16:10:00","892","5.257000000000001","227.1","9.51","216.6","NAN","NAN","NAN","NAN","NAN"],
    [1564140,"2026-07-28 16:20:00","893","4.6930000000000005","228.9","10.29","218.5","NAN","NAN","NAN","NAN","NAN"],
    [1564141,"2026-07-28 16:30:00","894","5.196000000000001","234.5","9.02","218.1","NAN","NAN","NAN","NAN","NAN"],
    [1564142,"2026-07-28 16:40:00","895","4.473","229.9","9.9","215.2","NAN","NAN","NAN","NAN","NAN"],
    [1564143,"2026-07-28 16:50:00","896","5.416","229.1","9.7","224.5","NAN","NAN","NAN","NAN","NAN"],
    [1564144,"2026-07-28 17:00:00","897","5.8020000000000005","232.2","9.8","222.4","NAN","NAN","NAN","NAN","NAN"],
    [1564145,"2026-07-28 17:10:00","898","5.325","244.1","9.02","247.4","NAN","NAN","NAN","NAN","NAN"],
    [1564146,"2026-07-28 17:20:00","899","5.004","236.7","9.51","221.1","NAN","NAN","NAN","NAN","NAN"],
    [1564147,"2026-07-28 17:30:00","900","5.504","246.9","8.43","238.7","NAN","NAN","NAN","NAN","NAN"],
    [1564148,"2026-07-28 17:40:00","901","5.377000000000001","243.3","9.21","248.8","NAN","NAN","NAN","NAN","NAN"],
    [1564149,"2026-07-28 17:50:00","902","4.83","237.1","7.644","237.1","NAN","NAN","NAN","NAN","NAN"],
    [1564150,"2026-07-28 18:00:00","903","4.599","230.9","7.742","233.9","NAN","NAN","NAN","NAN","NAN"],
    [1564151,"2026-07-28 18:10:00","904","4.152","242.6","7.35","257.9","NAN","NAN","NAN","NAN","NAN"],
    [1564152,"2026-07-28 18:20:00","905","4.064","241.3","6.86","233.7","NAN","NAN","NAN","NAN","NAN"],
    [1564153,"2026-07-28 18:30:00","906","4.633","244.8","7.84","257.2","NAN","NAN","NAN","NAN","NAN"],
    [1564154,"2026-07-28 18:40:00","907","4.601","248.0","7.35","257.7","NAN","NAN","NAN","NAN","NAN"],
    [1564155,"2026-07-28 18:50:00","908","3.685","240.1","7.546","240.4","NAN","NAN","NAN","NAN","NAN"],
    [1564156,"2026-07-28 19:00:00","909","3.985","242.9","6.468","244.1","NAN","NAN","NAN","NAN","NAN"],
    [1564157,"2026-07-28 19:10:00","910","4.004","237.5","6.762","242.9","NAN","NAN","NAN","NAN","NAN"],
    [1564158,"2026-07-28 19:20:00","911","3.736","236.1","6.566","223.3","NAN","NAN","NAN","NAN","NAN"],
    [1564159,"2026-07-28 19:30:00","912","3.855","234.0","6.86","229.6","NAN","NAN","NAN","NAN","NAN"],
    [1564160,"2026-07-28 19:40:00","913","3.495","232.5","6.174","227","NAN","NAN","NAN","NAN","NAN"],
    [1564161,"2026-07-28 19:50:00","914","3.397","237.1","5.978","224.3","NAN","NAN","NAN","NAN","NAN"],
    [1564162,"2026-07-28 20:00:00","915","3.389","233.0","6.468","257.9","NAN","NAN","NAN","NAN","NAN"],
    [1564163,"2026-07-28 20:10:00","916","3.687","230.4","6.272","237","NAN","NAN","NAN","NAN","NAN"],
    [1564164,"2026-07-28 20:20:00","917","3.315","232.1","6.174","232.3","NAN","NAN","NAN","NAN","NAN"],
    [1564165,"2026-07-28 20:30:00","918","2.8930000000000002","242.6","4.998","243.9","NAN","NAN","NAN","NAN","NAN"],
    [1564166,"2026-07-28 20:40:00","919","2.875","246.0","5.39","241.5","NAN","NAN","NAN","NAN","NAN"],
    [1564167,"2026-07-28 20:50:00","920","2.648","244.0","4.704","253.4","NAN","NAN","NAN","NAN","NAN"],
    [1564168,"2026-07-28 21:00:00","921","2.783","248.3","4.41","243.8","NAN","NAN","NAN","NAN","NAN"],
    [1564169,"2026-07-28 21:10:00","922","2.972","248.5","4.802","245.5","NAN","NAN","NAN","NAN","NAN"],
    [1564170,"2026-07-28 21:20:00","923","3.117","250.9","4.606","238.5","NAN","NAN","NAN","NAN","NAN"],
    [1564171,"2026-07-28 21:30:00","924","3.588","249.1","4.9","256.8","NAN","NAN","NAN","NAN","NAN"],
    [1564172,"2026-07-28 21:40:00","925","2.923","250.5","4.41","260.8","NAN","NAN","NAN","NAN","NAN"],
    [1564173,"2026-07-28 21:50:00","926","2.702","249.6","4.214","239.6","NAN","NAN","NAN","NAN","NAN"],
    [1564174,"2026-07-28 22:00:00","927","2.408","242.1","3.92","244.3","NAN","NAN","NAN","NAN","NAN"],
    [1564175,"2026-07-28 22:10:00","928","2.0469999999999997","232.9","3.724","233.8","NAN","NAN","NAN","NAN","NAN"],
    [1564176,"2026-07-28 22:20:00","929","2.228","237.0","3.528","231.3","NAN","NAN","NAN","NAN","NAN"],
    [1564177,"2026-07-28 22:30:00","930","2.157","245.0","3.43","245.5","NAN","NAN","NAN","NAN","NAN"],
    [1564178,"2026-07-28 22:40:00","931","1.7790000000000001","245.1","3.528","254.7","NAN","NAN","NAN","NAN","NAN"],
    [1564179,"2026-07-28 22:50:00","932","2.19","240.2","3.822","240.1","NAN","NAN","NAN","NAN","NAN"],
    [1564180,"2026-07-28 23:00:00","933","2.1","243.1","3.626","246.6","NAN","NAN","NAN","NAN","NAN"],
    [1564181,"2026-07-28 23:10:00","934","2.7739999999999996","250.7","4.214","247.3","NAN","NAN","NAN","NAN","NAN"],
    [1564182,"2026-07-28 23:20:00","935","2.88","251.2","4.116","253.5","NAN","NAN","NAN","NAN","NAN"],
    [1564183,"2026-07-28 23:30:00","936","2.682","248.8","3.822","248.9","NAN","NAN","NAN","NAN","NAN"],
    [1564184,"2026-07-28 23:40:00","937","2.218","269.5","3.626","270.6","NAN","NAN","NAN","NAN","NAN"],
    [1564185,"2026-07-28 23:50:00","938","2.237","274.9","3.234","278.7","NAN","NAN","NAN","NAN","NAN"],
    [1564186,"2026-07-29 00:00:00","939","1.8559999999999999","281.9","3.136","276.7","NAN","NAN","NAN","NAN","NAN"],
    [1564187,"2026-07-29 00:10:00","940","1.5330000000000001","286.2","2.45","287.9","NAN","NAN","NAN","NAN","NAN"],
    [1564188,"2026-07-29 00:20:00","941","1.099","286.6","1.764","283.5","NAN","NAN","NAN","NAN","NAN"],
    [1564189,"2026-07-29 00:30:00","942","1.318","286.8","1.96","288.9","NAN","NAN","NAN","NAN","NAN"],
    [1564190,"2026-07-29 00:40:00","943","1.3130000000000002","285.7","2.254","289.1","NAN","NAN","NAN","NAN","NAN"],
    [1564191,"2026-07-29 00:50:00","944","1.494","282.3","2.058","276.4","NAN","NAN","NAN","NAN","NAN"],
    [1564192,"2026-07-29 01:00:00","945","1.546","283.4","2.254","278.3","NAN","NAN","NAN","NAN","NAN"],
    [1564193,"2026-07-29 01:10:00","946","1.465","285.7","2.352","280","NAN","NAN","NAN","NAN","NAN"],
    [1564194,"2026-07-29 01:20:00","947","1.886","279.1","3.332","280.7","NAN","NAN","NAN","NAN","NAN"],
    [1564195,"2026-07-29 01:30:00","948","1.9969999999999999","276.4","3.136","280.5","NAN","NAN","NAN","NAN","NAN"],
    [1564196,"2026-07-29 01:40:00","949","1.821","279.7","2.94","281","NAN","NAN","NAN","NAN","NAN"],
    [1564197,"2026-07-29 01:50:00","950","1.304","286.2","1.96","286.8","NAN","NAN","NAN","NAN","NAN"],
    [1564198,"2026-07-29 02:00:00","951","0.992","285.3","2.058","286.9","NAN","NAN","NAN","NAN","NAN"],
    [1564199,"2026-07-29 02:10:00","952","0.688","284.4","1.274","282.8","NAN","NAN","NAN","NAN","NAN"],
    [1564200,"2026-07-29 02:20:00","953","1.205","277.9","1.862","278.1","NAN","NAN","NAN","NAN","NAN"],
    [1564201,"2026-07-29 02:30:00","954","1.286","278.4","1.862","278.9","NAN","NAN","NAN","NAN","NAN"],
    [1564202,"2026-07-29 02:40:00","955","1.321","273.9","2.058","271.6","NAN","NAN","NAN","NAN","NAN"],
    [1564203,"2026-07-29 02:50:00","956","0.997","282.1","1.764","280.6","NAN","NAN","NAN","NAN","NAN"],
    [1564204,"2026-07-29 03:00:00","957","1.219","282.9","2.058","275.9","NAN","NAN","NAN","NAN","NAN"],
    [1564205,"2026-07-29 03:10:00","958","1.089","276.7","1.666","271.1","NAN","NAN","NAN","NAN","NAN"],
    [1564206,"2026-07-29 03:20:00","959","1.078","272.7","1.47","273.1","NAN","NAN","NAN","NAN","NAN"],
    [1564207,"2026-07-29 03:30:00","960","1.2770000000000001","274.7","1.96","278.4","NAN","NAN","NAN","NAN","NAN"],
    [1564208,"2026-07-29 03:40:00","961","1.062","271.9","2.254","269.5","NAN","NAN","NAN","NAN","NAN"],
    [1564209,"2026-07-29 03:50:00","962","1.4480000000000002","268.4","2.156","274.8","NAN","NAN","NAN","NAN","NAN"],
    [1564210,"2026-07-29 04:00:00","963","1.419","266.7","2.058","265.1","NAN","NAN","NAN","NAN","NAN"],
    [1564211,"2026-07-29 04:10:00","964","1.264","265.5","2.352","262.2","NAN","NAN","NAN","NAN","NAN"],
    [1564212,"2026-07-29 04:20:00","965","1.473","272.0","2.352","273.1","NAN","NAN","NAN","NAN","NAN"],
    [1564213,"2026-07-29 04:30:00","966","1.183","270.9","1.96","264.7","NAN","NAN","NAN","NAN","NAN"],
    [1564214,"2026-07-29 04:40:00","967","1.047","272.8","1.666","278.3","NAN","NAN","NAN","NAN","NAN"],
    [1564215,"2026-07-29 04:50:00","968","1.29","271.8","1.862","272.9","NAN","NAN","NAN","NAN","NAN"],
    [1564216,"2026-07-29 05:00:00","969","1.1079999999999999","274.1","1.862","271.7","NAN","NAN","NAN","NAN","NAN"],
    [1564217,"2026-07-29 05:10:00","970","1.115","271.0","1.764","269.2","NAN","NAN","NAN","NAN","NAN"],
    [1564218,"2026-07-29 05:20:00","971","1.321","272.1","2.058","275.9","NAN","NAN","NAN","NAN","NAN"],
    [1564219,"2026-07-29 05:30:00","972","1.105","276.2","1.862","268.8","NAN","NAN","NAN","NAN","NAN"],
    [1564220,"2026-07-29 05:40:00","973","0.917","273.7","1.568","272.4","NAN","NAN","NAN","NAN","NAN"],
    [1564221,"2026-07-29 05:50:00","974","1.228","270.2","1.666","270.3","NAN","NAN","NAN","NAN","NAN"],
    [1564222,"2026-07-29 06:00:00","975","0.925","270.9","1.862","271.6","NAN","NAN","NAN","NAN","NAN"],
    [1564223,"2026-07-29 06:10:00","976","1.3530000000000002","265.5","1.764","264.2","NAN","NAN","NAN","NAN","NAN"],
    [1564224,"2026-07-29 06:20:00","977","1.238","263.6","1.666","265.1","NAN","NAN","NAN","NAN","NAN"],
    [1564225,"2026-07-29 06:30:00","978","1.3019999999999998","272.2","1.862","272.4","NAN","NAN","NAN","NAN","NAN"],
    [1564226,"2026-07-29 06:40:00","979","1.3259999999999998","268.7","2.156","275.6","NAN","NAN","NAN","NAN","NAN"],
    [1564227,"2026-07-29 06:50:00","980","1.446","272.1","2.548","262.3","NAN","NAN","NAN","NAN","NAN"],
    [1564228,"2026-07-29 07:00:00","981","1.932","276.0","2.842","272.2","NAN","NAN","NAN","NAN","NAN"],
    [1564229,"2026-07-29 07:10:00","982","1.919","260.1","3.626","233.9","NAN","NAN","NAN","NAN","NAN"],
    [1564230,"2026-07-29 07:20:00","983","2.1430000000000002","247.9","3.92","241.6","NAN","NAN","NAN","NAN","NAN"],
    [1564231,"2026-07-29 07:30:00","984","2.036","243.8","3.43","248.4","NAN","NAN","NAN","NAN","NAN"],
    [1564232,"2026-07-29 07:40:00","985","2.555","252.2","4.214","261","NAN","NAN","NAN","NAN","NAN"],
    [1564233,"2026-07-29 07:50:00","986","2.323","249.7","3.92","258.5","NAN","NAN","NAN","NAN","NAN"],
    [1564234,"2026-07-29 08:00:00","987","2.572","239.0","4.214","258.5","NAN","NAN","NAN","NAN","NAN"],
    [1564235,"2026-07-29 08:10:00","988","2.523","245.4","4.312","240.5","NAN","NAN","NAN","NAN","NAN"],
    [1564236,"2026-07-29 08:20:00","989","2.67","202.0","4.704","206.9","NAN","NAN","NAN","NAN","NAN"],
    [1564237,"2026-07-29 08:30:00","990","3.053","215.8","5.978","212.4","NAN","NAN","NAN","NAN","NAN"],
    [1564238,"2026-07-29 08:40:00","991","3.4810000000000003","203.5","6.174","201.8","NAN","NAN","NAN","NAN","NAN"],
    [1564239,"2026-07-29 08:50:00","992","3.063","206.1","5.39","198.8","NAN","NAN","NAN","NAN","NAN"],
    [1564240,"2026-07-29 09:00:00","993","3.512","206.5","6.174","216.9","NAN","NAN","NAN","NAN","NAN"],
    [1564241,"2026-07-29 09:10:00","994","3.705","214.2","5.978","205.5","NAN","NAN","NAN","NAN","NAN"],
    [1564242,"2026-07-29 09:20:00","995","3.5580000000000003","212.7","5.978","206.1","NAN","NAN","NAN","NAN","NAN"],
    [1564243,"2026-07-29 09:30:00","996","3.335","196.5","5.684","186.5","NAN","NAN","NAN","NAN","NAN"],
    [1564244,"2026-07-29 09:40:00","997","3.446","197.0","5.978","215.3","NAN","NAN","NAN","NAN","NAN"],
    [1564245,"2026-07-29 09:50:00","998","3.553","199.1","6.762","215.7","NAN","NAN","NAN","NAN","NAN"],
    [1564246,"2026-07-29 10:00:00","999","3.8089999999999997","207.2","6.86","212.1","NAN","NAN","NAN","NAN","NAN"],
    [1564247,"2026-07-29 10:10:00","1000","4.413","199.1","7.448","198.5","NAN","NAN","NAN","NAN","NAN"],
    [1564248,"2026-07-29 10:20:00","1001","5.199","213.6","8.82","221","NAN","NAN","NAN","NAN","NAN"],
    [1564249,"2026-07-29 10:30:00","1002","4.359","208.7","7.056","225.4","NAN","NAN","NAN","NAN","NAN"],
    [1564250,"2026-07-29 10:40:00","1003","4.842","208.3","9.41","196.9","NAN","NAN","NAN","NAN","NAN"],
    [1564251,"2026-07-29 10:50:00","1004","4.526","216.7","8.13","211.4","NAN","NAN","NAN","NAN","NAN"],
    [1564252,"2026-07-29 11:00:00","1005","5.012","211.3","8.62","198.3","NAN","NAN","NAN","NAN","NAN"],
    [1564253,"2026-07-29 11:10:00","1006","5.008","216.3","7.84","219.5","NAN","NAN","NAN","NAN","NAN"],
    [1564254,"2026-07-29 11:20:00","1007","5.052","211.6","8.04","216.8","NAN","NAN","NAN","NAN","NAN"],
    [1564255,"2026-07-29 11:30:00","1008","5.433","213.9","9.02","226","NAN","NAN","NAN","NAN","NAN"],
    [1564256,"2026-07-29 11:40:00","1009","5.3870000000000005","210.3","8.72","197.2","NAN","NAN","NAN","NAN","NAN"],
    [1564257,"2026-07-29 11:50:00","1010","4.873","212.9","7.938","199.8","NAN","NAN","NAN","NAN","NAN"],
    [1564258,"2026-07-29 12:00:00","1011","5.782","208.4","8.62","212.9","NAN","NAN","NAN","NAN","NAN"],
    [1564259,"2026-07-29 12:10:00","1012","5.343","214.3","8.23","203.7","NAN","NAN","NAN","NAN","NAN"],
    [1564260,"2026-07-29 12:20:00","1013","4.813","214.9","7.154","216.1","NAN","NAN","NAN","NAN","NAN"],
    [1564261,"2026-07-29 12:30:00","1014","5.837999999999999","207.0","9.41","201.3","NAN","NAN","NAN","NAN","NAN"],
    [1564262,"2026-07-29 12:40:00","1015","6.263999999999999","213.4","9.41","201.3","NAN","NAN","NAN","NAN","NAN"],
    [1564263,"2026-07-29 12:50:00","1016","5.285","212.2","8.82","197.2","NAN","NAN","NAN","NAN","NAN"],
    [1564264,"2026-07-29 13:00:00","1017","4.974","222.7","9.11","230.6","NAN","NAN","NAN","NAN","NAN"],
    [1564265,"2026-07-29 13:10:00","1018","5.367999999999999","220.6","9.21","214.9","NAN","NAN","NAN","NAN","NAN"],
    [1564266,"2026-07-29 13:20:00","1019","5.053999999999999","221.3","9.02","204","NAN","NAN","NAN","NAN","NAN"],
    [1564267,"2026-07-29 13:30:00","1020","5.83","216.0","9.7","211.9","NAN","NAN","NAN","NAN","NAN"],
    [1564268,"2026-07-29 13:40:00","1021","5.857","217.3","10.29","210.2","NAN","NAN","NAN","NAN","NAN"],
    [1564269,"2026-07-29 13:50:00","1022","6.115","210.7","9.8","204.1","NAN","NAN","NAN","NAN","NAN"],
    [1564270,"2026-07-29 14:00:00","1023","5.229","214.3","8.92","205.5","NAN","NAN","NAN","NAN","NAN"],
    [1564271,"2026-07-29 14:10:00","1024","5.362","213.9","8.33","208.4","NAN","NAN","NAN","NAN","NAN"],
    [1564272,"2026-07-29 14:20:00","1025","5.853","216.7","9.7","218","NAN","NAN","NAN","NAN","NAN"],
    [1564273,"2026-07-29 14:30:00","1026","5.095","210.1","8.92","197.3","NAN","NAN","NAN","NAN","NAN"],
    [1564274,"2026-07-29 14:40:00","1027","6.382000000000001","220.4","9.7","207.2","NAN","NAN","NAN","NAN","NAN"],
    [1564275,"2026-07-29 14:50:00","1028","4.843","226.7","9.02","225","NAN","NAN","NAN","NAN","NAN"],
    [1564276,"2026-07-29 15:00:00","1029","5.577000000000001","220.7","9.02","226","NAN","NAN","NAN","NAN","NAN"],
    [1564277,"2026-07-29 15:10:00","1030","5.8839999999999995","226.9","10.09","223.8","NAN","NAN","NAN","NAN","NAN"],
    [1564278,"2026-07-29 15:20:00","1031","5.486000000000001","224.7","9.11","232.4","NAN","NAN","NAN","NAN","NAN"],
    [1564279,"2026-07-29 15:30:00","1032","5.282","210.5","9.02","226.1","NAN","NAN","NAN","NAN","NAN"],
    [1564280,"2026-07-29 15:40:00","1033","5.87","217.5","10.29","224.5","NAN","NAN","NAN","NAN","NAN"],
    [1564281,"2026-07-29 15:50:00","1034","5.555","225.3","8.62","218","NAN","NAN","NAN","NAN","NAN"],
    [1564282,"2026-07-29 16:00:00","1035","5.04","225.1","8.23","211.1","NAN","NAN","NAN","NAN","NAN"],
    [1564283,"2026-07-29 16:10:00","1036","4.61","221.0","8.82","231.3","NAN","NAN","NAN","NAN","NAN"],
    [1564284,"2026-07-29 16:20:00","1037","4.657","220.7","8.23","247.4","NAN","NAN","NAN","NAN","NAN"],
    [1564285,"2026-07-29 16:30:00","1038","5.3660000000000005","223.1","9.8","214.8","NAN","NAN","NAN","NAN","NAN"],
    [1564286,"2026-07-29 16:40:00","1039","5.37","222.9","9.51","237.8","NAN","NAN","NAN","NAN","NAN"],
    [1564287,"2026-07-29 16:50:00","1040","4.588","221.5","8.13","217.9","NAN","NAN","NAN","NAN","NAN"],
    [1564288,"2026-07-29 17:00:00","1041","4.667","223.5","8.62","214.8","NAN","NAN","NAN","NAN","NAN"],
    [1564289,"2026-07-29 17:10:00","1042","4.476","225.1","8.92","219.9","NAN","NAN","NAN","NAN","NAN"],
    [1564290,"2026-07-29 17:20:00","1043","4.949","231.2","9.41","231.6","NAN","NAN","NAN","NAN","NAN"],
    [1564291,"2026-07-29 17:30:00","1044","4.538","231.9","7.546","232.8","NAN","NAN","NAN","NAN","NAN"],
    [1564292,"2026-07-29 17:40:00","1045","4.407","229.8","9.02","223.2","NAN","NAN","NAN","NAN","NAN"],
    [1564293,"2026-07-29 17:50:00","1046","4.158","224.9","6.958","226.2","NAN","NAN","NAN","NAN","NAN"],
    [1564294,"2026-07-29 18:00:00","1047","3.908","232.7","6.664","238.7","NAN","NAN","NAN","NAN","NAN"],
    [1564295,"2026-07-29 18:10:00","1048","3.813","226.3","6.958","223.5","NAN","NAN","NAN","NAN","NAN"],
    [1564296,"2026-07-29 18:20:00","1049","4.164","228.7","7.644","213.7","NAN","NAN","NAN","NAN","NAN"],
    [1564297,"2026-07-29 18:30:00","1050","4.184","229.3","7.448","224.8","NAN","NAN","NAN","NAN","NAN"],
    [1564298,"2026-07-29 18:40:00","1051","3.966","230.4","7.056","222.7","NAN","NAN","NAN","NAN","NAN"],
    [1564299,"2026-07-29 18:50:00","1052","3.275","226.4","5.88","220.3","NAN","NAN","NAN","NAN","NAN"],
    [1564300,"2026-07-29 19:00:00","1053","3.275","228.2","4.998","217.9","NAN","NAN","NAN","NAN","NAN"],
    [1564301,"2026-07-29 19:10:00","1054","3.2710000000000004","225.1","5.782","216.5","NAN","NAN","NAN","NAN","NAN"],
    [1564302,"2026-07-29 19:20:00","1055","3.2680000000000002","225.5","5.488","220.8","NAN","NAN","NAN","NAN","NAN"],
    [1564303,"2026-07-29 19:30:00","1056","3.154","225.6","5.194","223.5","NAN","NAN","NAN","NAN","NAN"],
    [1564304,"2026-07-29 19:40:00","1057","3.139","224.2","5.88","221.5","NAN","NAN","NAN","NAN","NAN"],
    [1564305,"2026-07-29 19:50:00","1058","3.199","226.3","5.978","213.4","NAN","NAN","NAN","NAN","NAN"],
    [1564306,"2026-07-29 20:00:00","1059","3.302","229.2","5.978","234.1","NAN","NAN","NAN","NAN","NAN"],
    [1564307,"2026-07-29 20:10:00","1060","2.9789999999999996","232.8","5.488","229.2","NAN","NAN","NAN","NAN","NAN"],
    [1564308,"2026-07-29 20:20:00","1061","2.6860000000000004","231.7","4.704","237.1","NAN","NAN","NAN","NAN","NAN"],
    [1564309,"2026-07-29 20:30:00","1062","3.023","228.1","6.076","223.6","NAN","NAN","NAN","NAN","NAN"],
    [1564310,"2026-07-29 20:40:00","1063","2.863","230.2","5.292","242.1","NAN","NAN","NAN","NAN","NAN"],
    [1564311,"2026-07-29 20:50:00","1064","2.867","233.0","5.292","221.2","NAN","NAN","NAN","NAN","NAN"],
    [1564312,"2026-07-29 21:00:00","1065","2.171","238.6","3.626","243.9","NAN","NAN","NAN","NAN","NAN"],
    [1564313,"2026-07-29 21:10:00","1066","2.295","245.4","3.626","229.1","NAN","NAN","NAN","NAN","NAN"],
    [1564314,"2026-07-29 21:20:00","1067","1.88","237.0","3.724","237.2","NAN","NAN","NAN","NAN","NAN"],
    [1564315,"2026-07-29 21:30:00","1068","2.049","245.1","3.822","268.8","NAN","NAN","NAN","NAN","NAN"],
    [1564316,"2026-07-29 21:40:00","1069","2.235","250.1","3.626","249","NAN","NAN","NAN","NAN","NAN"],
    [1564317,"2026-07-29 21:50:00","1070","2.366","245.7","4.312","255.8","NAN","NAN","NAN","NAN","NAN"],
    [1564318,"2026-07-29 22:00:00","1071","2.593","248.6","4.214","255.4","NAN","NAN","NAN","NAN","NAN"],
    [1564319,"2026-07-29 22:10:00","1072","2.209","248.0","3.92","260","NAN","NAN","NAN","NAN","NAN"],
    [1564320,"2026-07-29 22:20:00","1073","2.113","252.8","3.234","261.6","NAN","NAN","NAN","NAN","NAN"],
    [1564321,"2026-07-29 22:30:00","1074","1.829","246.5","3.43","253.5","NAN","NAN","NAN","NAN","NAN"],
    [1564322,"2026-07-29 22:40:00","1075","2.045","250.7","3.43","251.6","NAN","NAN","NAN","NAN","NAN"],
    [1564323,"2026-07-29 22:50:00","1076","2.137","256.9","3.528","260.4","NAN","NAN","NAN","NAN","NAN"],
    [1564324,"2026-07-29 23:00:00","1077","2.261","250.8","3.626","242.3","NAN","NAN","NAN","NAN","NAN"],
    [1564325,"2026-07-29 23:10:00","1078","2.346","251.5","3.234","249.8","NAN","NAN","NAN","NAN","NAN"],
    [1564326,"2026-07-29 23:20:00","1079","2.164","251.3","3.038","256.9","NAN","NAN","NAN","NAN","NAN"],
    [1564327,"2026-07-29 23:30:00","1080","2.492","251.2","3.92","248","NAN","NAN","NAN","NAN","NAN"],
    [1564328,"2026-07-29 23:40:00","1081","2.206","251.3","3.332","249.8","NAN","NAN","NAN","NAN","NAN"],
    [1564329,"2026-07-29 23:50:00","1082","1.59","245.1","2.548","254","NAN","NAN","NAN","NAN","NAN"],
    [1564330,"2026-07-30 00:00:00","1083","2.115","243.0","3.626","253.9","NAN","NAN","NAN","NAN","NAN"],
    [1564331,"2026-07-30 00:10:00","1084","2.271","242.3","3.332","245.9","NAN","NAN","NAN","NAN","NAN"],
    [1564332,"2026-07-30 00:20:00","1085","2.6719999999999997","244.8","3.822","231.8","NAN","NAN","NAN","NAN","NAN"],
    [1564333,"2026-07-30 00:30:00","1086","2.6860000000000004","251.9","4.018","259.6","NAN","NAN","NAN","NAN","NAN"],
    [1564334,"2026-07-30 00:40:00","1087","2.4819999999999998","251.6","3.234","247.6","NAN","NAN","NAN","NAN","NAN"],
    [1564335,"2026-07-30 00:50:00","1088","3.092","248.7","4.802","259","NAN","NAN","NAN","NAN","NAN"],
    [1564336,"2026-07-30 01:00:00","1089","2.84","250.9","4.018","258.3","NAN","NAN","NAN","NAN","NAN"],
    [1564337,"2026-07-30 01:10:00","1090","2.688","250.5","3.724","260.3","NAN","NAN","NAN","NAN","NAN"],
    [1564338,"2026-07-30 01:20:00","1091","1.8530000000000002","256.2","2.94","247.4","NAN","NAN","NAN","NAN","NAN"],
    [1564339,"2026-07-30 01:30:00","1092","1.817","257.7","3.136","258.9","NAN","NAN","NAN","NAN","NAN"],
    [1564340,"2026-07-30 01:40:00","1093","1.666","265.2","2.646","263.9","NAN","NAN","NAN","NAN","NAN"],
    [1564341,"2026-07-30 01:50:00","1094","1.595","269.0","2.156","268.9","NAN","NAN","NAN","NAN","NAN"],
    [1564342,"2026-07-30 02:00:00","1095","1.112","269.4","1.862","269.6","NAN","NAN","NAN","NAN","NAN"],
    [1564343,"2026-07-30 02:10:00","1096","0.34299999999999997","269.4","1.372","269.5","NAN","NAN","NAN","NAN","NAN"],
    [1564344,"2026-07-30 02:20:00","1097","0.665","269.4","1.176","269.4","NAN","NAN","NAN","NAN","NAN"],
    [1564345,"2026-07-30 02:30:00","1098","0.752","269.3","1.274","269.3","NAN","NAN","NAN","NAN","NAN"],
    [1564346,"2026-07-30 02:40:00","1099","0.7959999999999999","265.3","1.274","266.2","NAN","NAN","NAN","NAN","NAN"],
    [1564347,"2026-07-30 02:50:00","1100","0.682","264.5","1.176","262.5","NAN","NAN","NAN","NAN","NAN"],
    [1564348,"2026-07-30 03:00:00","1101","0.573","264.1","0.882","266.4","NAN","NAN","NAN","NAN","NAN"],
    [1564349,"2026-07-30 03:10:00","1102","0.5710000000000001","266.1","0.98","266.7","NAN","NAN","NAN","NAN","NAN"],
    [1564350,"2026-07-30 03:20:00","1103","0.652","263.4","0.98","265.1","NAN","NAN","NAN","NAN","NAN"],
    [1564351,"2026-07-30 03:30:00","1104","0.902","262.5","1.372","262.5","NAN","NAN","NAN","NAN","NAN"],
    [1564352,"2026-07-30 03:40:00","1105","0.9390000000000001","266.3","1.372","262.3","NAN","NAN","NAN","NAN","NAN"],
    [1564353,"2026-07-30 03:50:00","1106","0.8370000000000001","266.8","1.372","268.8","NAN","NAN","NAN","NAN","NAN"],
    [1564354,"2026-07-30 04:00:00","1107","1.168","267.6","1.862","269.3","NAN","NAN","NAN","NAN","NAN"],
    [1564355,"2026-07-30 04:10:00","1108","1.122","268.1","1.862","270","NAN","NAN","NAN","NAN","NAN"],
    [1564356,"2026-07-30 04:20:00","1109","1.349","268.9","2.254","263","NAN","NAN","NAN","NAN","NAN"],
    [1564357,"2026-07-30 04:30:00","1110","1.276","268.0","2.058","266.7","NAN","NAN","NAN","NAN","NAN"],
    [1564358,"2026-07-30 04:40:00","1111","0.997","270.6","2.156","271.5","NAN","NAN","NAN","NAN","NAN"],
    [1564359,"2026-07-30 04:50:00","1112","1.255","273.0","1.96","273.1","NAN","NAN","NAN","NAN","NAN"],
    [1564360,"2026-07-30 05:00:00","1113","1.3769999999999998","273.2","2.352","274.7","NAN","NAN","NAN","NAN","NAN"],
    [1564361,"2026-07-30 05:10:00","1114","1.484","273.1","2.352","270","NAN","NAN","NAN","NAN","NAN"],
    [1564362,"2026-07-30 05:20:00","1115","1.365","278.0","2.254","279.6","NAN","NAN","NAN","NAN","NAN"],
    [1564363,"2026-07-30 05:30:00","1116","1.4580000000000002","279.5","2.646","280.2","NAN","NAN","NAN","NAN","NAN"],
    [1564364,"2026-07-30 05:40:00","1117","1.194","280.1","2.254","283.2","NAN","NAN","NAN","NAN","NAN"],
    [1564365,"2026-07-30 05:50:00","1118","1.117","278.3","2.548","275.4","NAN","NAN","NAN","NAN","NAN"],
    [1564366,"2026-07-30 06:00:00","1119","1.4380000000000002","277.8","2.548","275.4","NAN","NAN","NAN","NAN","NAN"],
    [1564367,"2026-07-30 06:10:00","1120","1.4969999999999999","275.7","2.352","273","NAN","NAN","NAN","NAN","NAN"],
    [1564368,"2026-07-30 06:20:00","1121","1.689","277.4","2.646","268.5","NAN","NAN","NAN","NAN","NAN"],
    [1564369,"2026-07-30 06:30:00","1122","1.751","288.0","2.842","305.3","NAN","NAN","NAN","NAN","NAN"],
    [1564370,"2026-07-30 06:40:00","1123","1.7369999999999999","288.3","3.136","305","NAN","NAN","NAN","NAN","NAN"],
    [1564371,"2026-07-30 06:50:00","1124","1.97","290.3","3.626","291.2","NAN","NAN","NAN","NAN","NAN"],
    [1564372,"2026-07-30 07:00:00","1125","1.646","301.3","2.94","295.2","NAN","NAN","NAN","NAN","NAN"],
    [1564373,"2026-07-30 07:10:00","1126","1.58","285.0","2.548","298.4","NAN","NAN","NAN","NAN","NAN"],
    [1564374,"2026-07-30 07:20:00","1127","1.845","286.6","3.234","284.9","NAN","NAN","NAN","NAN","NAN"],
    [1564375,"2026-07-30 07:30:00","1128","2.314","267.9","4.018","260","NAN","NAN","NAN","NAN","NAN"],
    [1564376,"2026-07-30 07:40:00","1129","2.26","267.0","4.116","276.2","NAN","NAN","NAN","NAN","NAN"],
    [1564377,"2026-07-30 07:50:00","1130","3.045","260.8","4.802","286.3","NAN","NAN","NAN","NAN","NAN"],
    [1564378,"2026-07-30 08:00:00","1131","2.127","245.7","4.508","261.3","NAN","NAN","NAN","NAN","NAN"],
    [1564379,"2026-07-30 08:10:00","1132","2.1430000000000002","237.8","3.626","241.6","NAN","NAN","NAN","NAN","NAN"],
    [1564380,"2026-07-30 08:20:00","1133","3.656","247.0","6.468","260.9","NAN","NAN","NAN","NAN","NAN"],
    [1564381,"2026-07-30 08:30:00","1134","2.5780000000000003","238.5","4.998","273.6","NAN","NAN","NAN","NAN","NAN"],
    [1564382,"2026-07-30 08:40:00","1135","3.6639999999999997","227.2","5.292","252.7","NAN","NAN","NAN","NAN","NAN"],
    [1564383,"2026-07-30 08:50:00","1136","3.763","230.9","6.272","225","NAN","NAN","NAN","NAN","NAN"],
    [1564384,"2026-07-30 09:00:00","1137","3.9930000000000003","218.7","6.174","219.2","NAN","NAN","NAN","NAN","NAN"],
    [1564385,"2026-07-30 09:10:00","1138","3.9589999999999996","216.3","6.664","220.5","NAN","NAN","NAN","NAN","NAN"],
    [1564386,"2026-07-30 09:20:00","1139","3.841","221.7","7.84","236.1","NAN","NAN","NAN","NAN","NAN"],
    [1564387,"2026-07-30 09:30:00","1140","4.332","210.8","7.546","220.7","NAN","NAN","NAN","NAN","NAN"],
    [1564388,"2026-07-30 09:40:00","1141","4.235","213.7","7.84","208.5","NAN","NAN","NAN","NAN","NAN"],
    [1564389,"2026-07-30 09:50:00","1142","4.075","211.5","8.13","206.5","NAN","NAN","NAN","NAN","NAN"],
    [1564390,"2026-07-30 10:00:00","1143","4.262","206.5","6.86","226","NAN","NAN","NAN","NAN","NAN"],
    [1564391,"2026-07-30 10:10:00","1144","3.826","200.9","6.86","212.3","NAN","NAN","NAN","NAN","NAN"],
    [1564392,"2026-07-30 10:20:00","1145","4.374","209.1","6.86","218.5","NAN","NAN","NAN","NAN","NAN"],
    [1564393,"2026-07-30 10:30:00","1146","4.3","205.1","7.84","200.6","NAN","NAN","NAN","NAN","NAN"],
    [1564394,"2026-07-30 10:40:00","1147","4.776","199.6","8.04","204.8","NAN","NAN","NAN","NAN","NAN"],
    [1564395,"2026-07-30 10:50:00","1148","4.13","191.5","7.448","163.8","NAN","NAN","NAN","NAN","NAN"],
    [1564396,"2026-07-30 11:00:00","1149","4.152","195.8","7.448","218.1","NAN","NAN","NAN","NAN","NAN"],
    [1564397,"2026-07-30 11:10:00","1150","4.541","197.2","7.252","219.8","NAN","NAN","NAN","NAN","NAN"],
    [1564398,"2026-07-30 11:20:00","1151","4.707","198.8","7.35","214","NAN","NAN","NAN","NAN","NAN"],
    [1564399,"2026-07-30 11:30:00","1152","3.905","199.9","7.056","206.8","NAN","NAN","NAN","NAN","NAN"],
    [1564400,"2026-07-30 11:40:00","1153","4.854","203.9","7.644","213.8","NAN","NAN","NAN","NAN","NAN"],
    [1564401,"2026-07-30 11:50:00","1154","4.251","204.8","7.448","215.6","NAN","NAN","NAN","NAN","NAN"],
    [1564402,"2026-07-30 12:00:00","1155","4.349","203.1","7.154","197.8","NAN","NAN","NAN","NAN","NAN"],
    [1564403,"2026-07-30 12:10:00","1156","4.107","204.0","7.546","220.9","NAN","NAN","NAN","NAN","NAN"],
    [1564404,"2026-07-30 12:20:00","1157","4.505","207.8","7.154","205.7","NAN","NAN","NAN","NAN","NAN"],
    [1564405,"2026-07-30 12:30:00","1158","4.803","207.2","7.84","215.3","NAN","NAN","NAN","NAN","NAN"],
    [1564406,"2026-07-30 12:40:00","1159","4.237","210.8","6.958","209.4","NAN","NAN","NAN","NAN","NAN"],
    [1564407,"2026-07-30 12:50:00","1160","4.574","208.3","7.056","183.4","NAN","NAN","NAN","NAN","NAN"],
    [1564408,"2026-07-30 13:00:00","1161","4.7","213.2","7.84","201.8","NAN","NAN","NAN","NAN","NAN"],
    [1564409,"2026-07-30 13:10:00","1162","3.895","217.8","6.86","213.4","NAN","NAN","NAN","NAN","NAN"],
    [1564410,"2026-07-30 13:20:00","1163","4.681","208.2","7.448","214.8","NAN","NAN","NAN","NAN","NAN"],
    [1564411,"2026-07-30 13:30:00","1164","4.103","210.3","6.86","211.7","NAN","NAN","NAN","NAN","NAN"],
    [1564412,"2026-07-30 13:40:00","1165","4.187","206.2","7.252","240","NAN","NAN","NAN","NAN","NAN"],
    [1564413,"2026-07-30 13:50:00","1166","4.68","215.0","6.958","212.6","NAN","NAN","NAN","NAN","NAN"],
    [1564414,"2026-07-30 14:00:00","1167","4.288","210.9","6.86","212.8","NAN","NAN","NAN","NAN","NAN"],
    [1564415,"2026-07-30 14:10:00","1168","4.33","215.8","6.566","218.8","NAN","NAN","NAN","NAN","NAN"],
    [1564416,"2026-07-30 14:20:00","1169","4.45","215.1","8.72","219.6","NAN","NAN","NAN","NAN","NAN"],
    [1564417,"2026-07-30 14:30:00","1170","3.971","211.4","7.448","197.4","NAN","NAN","NAN","NAN","NAN"],
    [1564418,"2026-07-30 14:40:00","1171","4.829","216.2","7.546","204.1","NAN","NAN","NAN","NAN","NAN"],
    [1564419,"2026-07-30 14:50:00","1172","5.3","211.4","8.23","221.9","NAN","NAN","NAN","NAN","NAN"],
    [1564420,"2026-07-30 15:00:00","1173","4.438","219.4","8.04","224.1","NAN","NAN","NAN","NAN","NAN"],
    [1564421,"2026-07-30 15:10:00","1174","4.638999999999999","210.9","7.938","208.8","NAN","NAN","NAN","NAN","NAN"],
    [1564422,"2026-07-30 15:20:00","1175","4.937","218.8","7.448","210.5","NAN","NAN","NAN","NAN","NAN"],
    [1564423,"2026-07-30 15:30:00","1176","4.788","219.5","7.938","218.6","NAN","NAN","NAN","NAN","NAN"],
    [1564424,"2026-07-30 15:40:00","1177","4.787","229.0","8.04","241.1","NAN","NAN","NAN","NAN","NAN"],
    [1564425,"2026-07-30 15:50:00","1178","4.7410000000000005","212.3","8.23","209.8","NAN","NAN","NAN","NAN","NAN"],
    [1564426,"2026-07-30 16:00:00","1179","3.92","221.2","6.566","243.5","NAN","NAN","NAN","NAN","NAN"],
    [1564427,"2026-07-30 16:10:00","1180","4.1080000000000005","216.3","6.566","218.7","NAN","NAN","NAN","NAN","NAN"],
    [1564428,"2026-07-30 16:20:00","1181","4.635","214.7","7.35","215","NAN","NAN","NAN","NAN","NAN"],
    [1564429,"2026-07-30 16:30:00","1182","4.376","212.6","7.056","201.8","NAN","NAN","NAN","NAN","NAN"],
    [1564430,"2026-07-30 16:40:00","1183","4.869","211.9","8.13","214.5","NAN","NAN","NAN","NAN","NAN"],
    [1564431,"2026-07-30 16:50:00","1184","4.243","225.3","7.056","230.2","NAN","NAN","NAN","NAN","NAN"],
    [1564432,"2026-07-30 17:00:00","1185","4.498","229.2","6.664","235.9","NAN","NAN","NAN","NAN","NAN"],
    [1564433,"2026-07-30 17:10:00","1186","4.224","229.8","7.546","239.8","NAN","NAN","NAN","NAN","NAN"],
    [1564434,"2026-07-30 17:20:00","1187","4.43","234.8","7.252","226","NAN","NAN","NAN","NAN","NAN"],
    [1564435,"2026-07-30 17:30:00","1188","4.013","231.6","6.174","240.3","NAN","NAN","NAN","NAN","NAN"],
    [1564436,"2026-07-30 17:40:00","1189","3.832","229.0","5.88","216.5","NAN","NAN","NAN","NAN","NAN"],
    [1564437,"2026-07-30 17:50:00","1190","3.639","239.6","5.782","245.6","NAN","NAN","NAN","NAN","NAN"],
    [1564438,"2026-07-30 18:00:00","1191","3.22","229.7","4.998","226.1","NAN","NAN","NAN","NAN","NAN"],
    [1564439,"2026-07-30 18:10:00","1192","4.0169999999999995","230.3","6.664","231.1","NAN","NAN","NAN","NAN","NAN"],
    [1564440,"2026-07-30 18:20:00","1193","3.753","235.6","5.88","228.5","NAN","NAN","NAN","NAN","NAN"],
    [1564441,"2026-07-30 18:30:00","1194","3.52","236.4","5.782","224.8","NAN","NAN","NAN","NAN","NAN"],
    [1564442,"2026-07-30 18:40:00","1195","3.839","237.0","6.076","218.5","NAN","NAN","NAN","NAN","NAN"],
    [1564443,"2026-07-30 18:50:00","1196","3.1519999999999997","236.5","6.566","232.6","NAN","NAN","NAN","NAN","NAN"],
    [1564444,"2026-07-30 19:00:00","1197","2.716","238.4","4.802","269.7","NAN","NAN","NAN","NAN","NAN"],
    [1564445,"2026-07-30 19:10:00","1198","2.997","239.3","5.096","245.9","NAN","NAN","NAN","NAN","NAN"],
    [1564446,"2026-07-30 19:20:00","1199","2.852","248.3","4.214","244.5","NAN","NAN","NAN","NAN","NAN"],
    [1564447,"2026-07-30 19:30:00","1200","3.39","248.9","4.704","270.9","NAN","NAN","NAN","NAN","NAN"],
    [1564448,"2026-07-30 19:40:00","1201","2.944","248.9","4.508","232.1","NAN","NAN","NAN","NAN","NAN"],
    [1564449,"2026-07-30 19:50:00","1202","2.9789999999999996","252.6","4.116","251.4","NAN","NAN","NAN","NAN","NAN"],
    [1564450,"2026-07-30 20:00:00","1203","3.105","253.9","4.312","245.3","NAN","NAN","NAN","NAN","NAN"],
    [1564451,"2026-07-30 20:10:00","1204","2.6430000000000002","251.5","3.724","241.1","NAN","NAN","NAN","NAN","NAN"],
    [1564452,"2026-07-30 20:20:00","1205","2.364","250.1","3.626","257","NAN","NAN","NAN","NAN","NAN"],
    [1564453,"2026-07-30 20:30:00","1206","2.023","254.3","3.234","256.4","NAN","NAN","NAN","NAN","NAN"],
    [1564454,"2026-07-30 20:40:00","1207","2.023","254.3","2.842","245","NAN","NAN","NAN","NAN","NAN"],
    [1564455,"2026-07-30 20:50:00","1208","1.9409999999999998","254.9","3.332","252.9","NAN","NAN","NAN","NAN","NAN"],
    [1564456,"2026-07-30 21:00:00","1209","1.9240000000000002","254.2","2.646","259.4","NAN","NAN","NAN","NAN","NAN"],
    [1564457,"2026-07-30 21:10:00","1210","1.9280000000000002","253.1","2.744","248.7","NAN","NAN","NAN","NAN","NAN"],
    [1564458,"2026-07-30 21:20:00","1211","2.2","255.1","3.038","255.4","NAN","NAN","NAN","NAN","NAN"],
    [1564459,"2026-07-30 21:30:00","1212","2.278","252.0","3.234","255.5","NAN","NAN","NAN","NAN","NAN"],
    [1564460,"2026-07-30 21:40:00","1213","2.2430000000000003","252.5","3.136","248.2","NAN","NAN","NAN","NAN","NAN"],
    [1564461,"2026-07-30 21:50:00","1214","2.09","250.1","3.136","248","NAN","NAN","NAN","NAN","NAN"],
    [1564462,"2026-07-30 22:00:00","1215","1.722","246.8","2.646","251.4","NAN","NAN","NAN","NAN","NAN"],
    [1564463,"2026-07-30 22:10:00","1216","1.6769999999999998","251.7","2.842","258.5","NAN","NAN","NAN","NAN","NAN"],
    [1564464,"2026-07-30 22:20:00","1217","1.8","246.8","2.744","254.3","NAN","NAN","NAN","NAN","NAN"],
    [1564465,"2026-07-30 22:30:00","1218","1.791","253.0","2.45","250.6","NAN","NAN","NAN","NAN","NAN"],
    [1564466,"2026-07-30 22:40:00","1219","1.8019999999999998","256.3","2.94","257.8","NAN","NAN","NAN","NAN","NAN"],
    [1564467,"2026-07-30 22:50:00","1220","1.933","259.3","2.744","261","NAN","NAN","NAN","NAN","NAN"],
    [1564468,"2026-07-30 23:00:00","1221","1.411","259.2","2.156","250","NAN","NAN","NAN","NAN","NAN"],
    [1564469,"2026-07-30 23:10:00","1222","1.0490000000000002","263.4","1.47","263.4","NAN","NAN","NAN","NAN","NAN"],
    [1564470,"2026-07-30 23:20:00","1223","0.69","263.7","1.372","263.6","NAN","NAN","NAN","NAN","NAN"],
    [1564471,"2026-07-30 23:30:00","1224","0.586","263.9","1.47","264","NAN","NAN","NAN","NAN","NAN"],
    [1564472,"2026-07-30 23:40:00","1225","1.2690000000000001","264.1","1.568","264","NAN","NAN","NAN","NAN","NAN"],
    [1564473,"2026-07-30 23:50:00","1226","0.9309999999999999","264.1","1.372","264.1","NAN","NAN","NAN","NAN","NAN"],
    [1564474,"2026-07-31 00:00:00","1227","0.684","264.2","1.568","264.2","NAN","NAN","NAN","NAN","NAN"],
    [1564475,"2026-07-31 00:10:00","1228","0.7859999999999999","264.4","1.47","264.4","NAN","NAN","NAN","NAN","NAN"],
    [1564476,"2026-07-31 00:20:00","1229","1.054","264.3","1.568","264.3","NAN","NAN","NAN","NAN","NAN"],
    [1564477,"2026-07-31 00:30:00","1230","1.026","264.3","1.47","264.4","NAN","NAN","NAN","NAN","NAN"],
    [1564478,"2026-07-31 00:40:00","1231","0.598","264.4","1.372","264.4","NAN","NAN","NAN","NAN","NAN"],
    [1564479,"2026-07-31 00:50:00","1232","0.381","264.4","1.078","264.4","NAN","NAN","NAN","NAN","NAN"],
    [1564480,"2026-07-31 01:00:00","1233","0.953","264.4","1.372","264.4","NAN","NAN","NAN","NAN","NAN"],
    [1564481,"2026-07-31 01:10:00","1234","0.479","264.4","1.078","264.4","NAN","NAN","NAN","NAN","NAN"],
    [1564482,"2026-07-31 01:20:00","1235","0.63","264.3","1.176","264.3","NAN","NAN","NAN","NAN","NAN"],
    [1564483,"2026-07-31 01:30:00","1236","0.527","264.3","0.784","264.3","NAN","NAN","NAN","NAN","NAN"],
    [1564484,"2026-07-31 01:40:00","1237","0.8","264.3","1.274","264.4","NAN","NAN","NAN","NAN","NAN"],
    [1564485,"2026-07-31 01:50:00","1238","0.725","264.4","1.176","264.4","NAN","NAN","NAN","NAN","NAN"],
    [1564486,"2026-07-31 02:00:00","1239","0.51","264.4","0.882","264.4","NAN","NAN","NAN","NAN","NAN"],
    [1564487,"2026-07-31 02:10:00","1240","0.696","264.5","1.274","264.5","NAN","NAN","NAN","NAN","NAN"],
    [1564488,"2026-07-31 02:20:00","1241","1.082","264.6","1.372","264.6","NAN","NAN","NAN","NAN","NAN"],
    [1564489,"2026-07-31 02:30:00","1242","0.934","264.0","1.274","263.7","NAN","NAN","NAN","NAN","NAN"],
    [1564490,"2026-07-31 02:40:00","1243","0.85","264.6","1.176","264.6","NAN","NAN","NAN","NAN","NAN"],
    [1564491,"2026-07-31 02:50:00","1244","0.975","264.7","1.568","264.8","NAN","NAN","NAN","NAN","NAN"],
    [1564492,"2026-07-31 03:00:00","1245","0.875","264.1","1.372","264.7","NAN","NAN","NAN","NAN","NAN"],
    [1564493,"2026-07-31 03:10:00","1246","0.9990000000000001","264.7","1.47","264.8","NAN","NAN","NAN","NAN","NAN"],
    [1564494,"2026-07-31 03:20:00","1247","0.9209999999999999","264.9","1.372","264.9","NAN","NAN","NAN","NAN","NAN"],
    [1564495,"2026-07-31 03:30:00","1248","0.483","264.9","1.274","265","NAN","NAN","NAN","NAN","NAN"],
    [1564496,"2026-07-31 03:40:00","1249","0.884","265.0","1.666","265.2","NAN","NAN","NAN","NAN","NAN"],
    [1564497,"2026-07-31 03:50:00","1250","1.311","265.2","1.862","265.2","NAN","NAN","NAN","NAN","NAN"],
    [1564498,"2026-07-31 04:00:00","1251","1.3940000000000001","265.2","1.862","265.3","NAN","NAN","NAN","NAN","NAN"],
    [1564499,"2026-07-31 04:10:00","1252","1.166","265.5","1.96","265.3","NAN","NAN","NAN","NAN","NAN"],
    [1564500,"2026-07-31 04:20:00","1253","1.0859999999999999","265.6","1.862","265.6","NAN","NAN","NAN","NAN","NAN"],
    [1564501,"2026-07-31 04:30:00","1254","0.9420000000000001","265.7","1.666","265.8","NAN","NAN","NAN","NAN","NAN"],
    [1564502,"2026-07-31 04:40:00","1255","1.178","265.9","2.058","265.9","NAN","NAN","NAN","NAN","NAN"],
    [1564503,"2026-07-31 04:50:00","1256","1.254","266.1","2.156","266.4","NAN","NAN","NAN","NAN","NAN"],
    [1564504,"2026-07-31 05:00:00","1257","1.382","266.9","2.058","267.1","NAN","NAN","NAN","NAN","NAN"],
    [1564505,"2026-07-31 05:10:00","1258","1.7009999999999998","266.4","2.45","267.4","NAN","NAN","NAN","NAN","NAN"],
    [1564506,"2026-07-31 05:20:00","1259","1.3719999999999999","265.5","2.058","268","NAN","NAN","NAN","NAN","NAN"],
    [1564507,"2026-07-31 05:30:00","1260","1.4469999999999998","268.3","2.254","269.5","NAN","NAN","NAN","NAN","NAN"],
    [1564508,"2026-07-31 05:40:00","1261","1.469","267.4","2.254","258.7","NAN","NAN","NAN","NAN","NAN"],
    [1564509,"2026-07-31 05:50:00","1262","1.568","269.5","2.058","270.5","NAN","NAN","NAN","NAN","NAN"],
    [1564510,"2026-07-31 06:00:00","1263","1.3719999999999999","270.5","2.254","271.5","NAN","NAN","NAN","NAN","NAN"],
    [1564511,"2026-07-31 06:10:00","1264","0.6829999999999999","271.3","1.47","271.7","NAN","NAN","NAN","NAN","NAN"],
    [1564512,"2026-07-31 06:20:00","1265","1.48","273.3","2.352","276.9","NAN","NAN","NAN","NAN","NAN"],
    [1564513,"2026-07-31 06:30:00","1266","1.492","278.1","2.352","281.5","NAN","NAN","NAN","NAN","NAN"],
    [1564514,"2026-07-31 06:40:00","1267","1.046","278.1","1.764","282.6","NAN","NAN","NAN","NAN","NAN"],
    [1564515,"2026-07-31 06:50:00","1268","1.4969999999999999","280.6","2.156","264.6","NAN","NAN","NAN","NAN","NAN"],
    [1564516,"2026-07-31 07:00:00","1269","2.2159999999999997","288.6","3.332","289.2","NAN","NAN","NAN","NAN","NAN"],
    [1564517,"2026-07-31 07:10:00","1270","2.105","289.6","3.234","293.9","NAN","NAN","NAN","NAN","NAN"],
    [1564518,"2026-07-31 07:20:00","1271","1.903","283.1","3.136","286.9","NAN","NAN","NAN","NAN","NAN"],
    [1564519,"2026-07-31 07:30:00","1272","1.49","280.4","3.136","282.4","NAN","NAN","NAN","NAN","NAN"],
    [1564520,"2026-07-31 07:40:00","1273","1.003","275.7","3.038","268.2","NAN","NAN","NAN","NAN","NAN"],
    [1564521,"2026-07-31 07:50:00","1274","1.1440000000000001","205.5","2.94","162.8","NAN","NAN","NAN","NAN","NAN"],
    [1564522,"2026-07-31 08:00:00","1275","1.347","205.8","3.038","183","NAN","NAN","NAN","NAN","NAN"],
    [1564523,"2026-07-31 08:10:00","1276","1.517","197.9","2.94","170.5","NAN","NAN","NAN","NAN","NAN"],
    [1564524,"2026-07-31 08:20:00","1277","1.649","201.0","3.234","181.1","NAN","NAN","NAN","NAN","NAN"],
    [1564525,"2026-07-31 08:30:00","1278","2.63","211.6","4.214","205.5","NAN","NAN","NAN","NAN","NAN"],
    [1564526,"2026-07-31 08:40:00","1279","2.541","198.7","4.41","180.7","NAN","NAN","NAN","NAN","NAN"],
    [1564527,"2026-07-31 08:50:00","1280","3.054","178.1","5.782","176.6","NAN","NAN","NAN","NAN","NAN"],
    [1564528,"2026-07-31 09:00:00","1281","2.815","193.9","4.508","223.5","NAN","NAN","NAN","NAN","NAN"],
    [1564529,"2026-07-31 09:10:00","1282","2.815","213.8","4.704","230.8","NAN","NAN","NAN","NAN","NAN"],
    [1564530,"2026-07-31 09:20:00","1283","2.314","195.6","4.312","185.2","NAN","NAN","NAN","NAN","NAN"],
    [1564531,"2026-07-31 09:30:00","1284","2.9960000000000004","192.3","5.39","177.4","NAN","NAN","NAN","NAN","NAN"],
    [1564532,"2026-07-31 09:40:00","1285","2.659","188.8","4.9","161.3","NAN","NAN","NAN","NAN","NAN"],
    [1564533,"2026-07-31 09:50:00","1286","3.188","198.9","5.194","164.3","NAN","NAN","NAN","NAN","NAN"],
    [1564534,"2026-07-31 10:00:00","1287","3.4939999999999998","201.8","6.958","215","NAN","NAN","NAN","NAN","NAN"],
    [1564535,"2026-07-31 10:10:00","1288","2.863","204.0","5.292","204.3","NAN","NAN","NAN","NAN","NAN"],
    [1564536,"2026-07-31 10:20:00","1289","3.653","193.2","5.88","212","NAN","NAN","NAN","NAN","NAN"],
    [1564537,"2026-07-31 10:30:00","1290","3.5010000000000003","202.0","5.684","215.2","NAN","NAN","NAN","NAN","NAN"],
    [1564538,"2026-07-31 10:40:00","1291","2.842","196.3","5.292","168.2","NAN","NAN","NAN","NAN","NAN"],
    [1564539,"2026-07-31 10:50:00","1292","3.398","198.3","5.782","202","NAN","NAN","NAN","NAN","NAN"],
    [1564540,"2026-07-31 11:00:00","1293","4.0569999999999995","204.3","7.154","217.7","NAN","NAN","NAN","NAN","NAN"],
    [1564541,"2026-07-31 11:10:00","1294","5.051","211.9","7.35","216.8","NAN","NAN","NAN","NAN","NAN"],
    [1564542,"2026-07-31 11:20:00","1295","4.519","202.8","7.448","209.2","NAN","NAN","NAN","NAN","NAN"],
    [1564543,"2026-07-31 11:30:00","1296","4.404","205.8","8.04","210.4","NAN","NAN","NAN","NAN","NAN"],
    [1564544,"2026-07-31 11:40:00","1297","4.04","202.4","7.35","223.7","NAN","NAN","NAN","NAN","NAN"],
    [1564545,"2026-07-31 11:50:00","1298","4.791","208.6","7.252","220.5","NAN","NAN","NAN","NAN","NAN"],
    [1564546,"2026-07-31 12:00:00","1299","4.22","197.2","8.33","210.3","NAN","NAN","NAN","NAN","NAN"],
    [1564547,"2026-07-31 12:10:00","1300","4.374","193.9","7.448","213.2","NAN","NAN","NAN","NAN","NAN"],
    [1564548,"2026-07-31 12:20:00","1301","4.824","200.3","7.644","205.4","NAN","NAN","NAN","NAN","NAN"],
    [1564549,"2026-07-31 12:30:00","1302","4.712","201.6","7.35","223.7","NAN","NAN","NAN","NAN","NAN"],
    [1564550,"2026-07-31 12:40:00","1303","4.532","202.5","7.252","222.3","NAN","NAN","NAN","NAN","NAN"],
    [1564551,"2026-07-31 12:50:00","1304","4.532","204.3","8.04","177.7","NAN","NAN","NAN","NAN","NAN"],
    [1564552,"2026-07-31 13:00:00","1305","3.446","203.6","6.076","206.5","NAN","NAN","NAN","NAN","NAN"],
    [1564553,"2026-07-31 13:10:00","1306","4.676","199.9","7.154","206.2","NAN","NAN","NAN","NAN","NAN"],
    [1564554,"2026-07-31 13:20:00","1307","3.988","198.7","7.546","203.6","NAN","NAN","NAN","NAN","NAN"],
    [1564555,"2026-07-31 13:30:00","1308","4.399","214.8","6.86","221.1","NAN","NAN","NAN","NAN","NAN"],
    [1564556,"2026-07-31 13:40:00","1309","4.053999999999999","207.0","6.664","211.5","NAN","NAN","NAN","NAN","NAN"],
    [1564557,"2026-07-31 13:50:00","1310","4.196000000000001","210.2","6.958","218.2","NAN","NAN","NAN","NAN","NAN"],
    [1564558,"2026-07-31 14:00:00","1311","4.213","208.5","6.958","215.3","NAN","NAN","NAN","NAN","NAN"],
    [1564559,"2026-07-31 14:10:00","1312","3.6630000000000003","199.9","6.664","204.5","NAN","NAN","NAN","NAN","NAN"],
    [1564560,"2026-07-31 14:20:00","1313","4.243","207.0","7.448","218","NAN","NAN","NAN","NAN","NAN"],
    [1564561,"2026-07-31 14:30:00","1314","4.284","192.4","7.84","184","NAN","NAN","NAN","NAN","NAN"],
    [1564562,"2026-07-31 14:40:00","1315","4.721","204.1","7.056","202.5","NAN","NAN","NAN","NAN","NAN"],
    [1564563,"2026-07-31 14:50:00","1316","4.229","205.4","7.35","216.9","NAN","NAN","NAN","NAN","NAN"],
    [1564564,"2026-07-31 15:00:00","1317","3.665","198.0","7.35","213.9","NAN","NAN","NAN","NAN","NAN"],
    [1564565,"2026-07-31 15:10:00","1318","3.7739999999999996","204.0","5.88","219","NAN","NAN","NAN","NAN","NAN"],
    [1564566,"2026-07-31 15:20:00","1319","3.7","196.6","5.978","176.7","NAN","NAN","NAN","NAN","NAN"],
    [1564567,"2026-07-31 15:30:00","1320","3.647","188.8","6.958","209","NAN","NAN","NAN","NAN","NAN"],
    [1564568,"2026-07-31 15:40:00","1321","3.668","199.2","5.88","213.1","NAN","NAN","NAN","NAN","NAN"],
    [1564569,"2026-07-31 15:50:00","1322","3.285","191.9","5.782","216.3","NAN","NAN","NAN","NAN","NAN"],
    [1564570,"2026-07-31 16:00:00","1323","3.6210000000000004","211.4","6.566","216.4","NAN","NAN","NAN","NAN","NAN"],
    [1564571,"2026-07-31 16:10:00","1324","2.944","198.4","4.998","220","NAN","NAN","NAN","NAN","NAN"],
    [1564572,"2026-07-31 16:20:00","1325","3.1189999999999998","213.1","5.586","222.7","NAN","NAN","NAN","NAN","NAN"],
    [1564573,"2026-07-31 16:30:00","1326","2.765","196.4","4.41","168.7","NAN","NAN","NAN","NAN","NAN"],
    [1564574,"2026-07-31 16:40:00","1327","3.0069999999999997","204.1","4.9","214.5","NAN","NAN","NAN","NAN","NAN"],
    [1564575,"2026-07-31 16:50:00","1328","2.819","219.3","5.488","221.9","NAN","NAN","NAN","NAN","NAN"],
    [1564576,"2026-07-31 17:00:00","1329","2.767","206.1","4.508","205","NAN","NAN","NAN","NAN","NAN"],
    [1564577,"2026-07-31 17:10:00","1330","2.593","187.0","4.606","225.9","NAN","NAN","NAN","NAN","NAN"],
    [1564578,"2026-07-31 17:20:00","1331","2.7430000000000003","171.1","5.096","165.5","NAN","NAN","NAN","NAN","NAN"],
    [1564579,"2026-07-31 17:30:00","1332","2.4459999999999997","183.2","4.9","169.7","NAN","NAN","NAN","NAN","NAN"],
    [1564580,"2026-07-31 17:40:00","1333","1.896","202.0","3.822","175.1","NAN","NAN","NAN","NAN","NAN"],
    [1564581,"2026-07-31 17:50:00","1334","2.1109999999999998","176.0","3.528","178.8","NAN","NAN","NAN","NAN","NAN"],
    [1564582,"2026-07-31 18:00:00","1335","1.6369999999999998","192.3","3.43","170.7","NAN","NAN","NAN","NAN","NAN"],
    [1564583,"2026-07-31 18:10:00","1336","2.36","204.8","3.528","218.1","NAN","NAN","NAN","NAN","NAN"],
    [1564584,"2026-07-31 18:20:00","1337","2.3080000000000003","204.4","3.626","220.4","NAN","NAN","NAN","NAN","NAN"],
    [1564585,"2026-07-31 18:30:00","1338","2.306","211.9","3.43","222.2","NAN","NAN","NAN","NAN","NAN"],
    [1564586,"2026-07-31 18:40:00","1339","2.4130000000000003","210.9","3.822","212.2","NAN","NAN","NAN","NAN","NAN"],
    [1564587,"2026-07-31 18:50:00","1340","2.166","217.9","3.234","209.6","NAN","NAN","NAN","NAN","NAN"],
    [1564588,"2026-07-31 19:00:00","1341","2.117","213.3","3.528","229.5","NAN","NAN","NAN","NAN","NAN"],
    [1564589,"2026-07-31 19:10:00","1342","1.9880000000000002","212.1","3.528","204.5","NAN","NAN","NAN","NAN","NAN"],
    [1564590,"2026-07-31 19:20:00","1343","1.665","210.8","3.332","211.6","NAN","NAN","NAN","NAN","NAN"],
    [1564591,"2026-07-31 19:30:00","1344","1.791","207.3","2.744","214.9","NAN","NAN","NAN","NAN","NAN"],
    [1564592,"2026-07-31 19:40:00","1345","1.781","203.7","2.744","196.4","NAN","NAN","NAN","NAN","NAN"],
    [1564593,"2026-07-31 19:50:00","1346","1.734","206.5","2.646","209.6","NAN","NAN","NAN","NAN","NAN"],
    [1564594,"2026-07-31 20:00:00","1347","1.1540000000000001","204.7","2.45","201.9","NAN","NAN","NAN","NAN","NAN"],
    [1564595,"2026-07-31 20:10:00","1348","2.208","227.8","3.43","250.6","NAN","NAN","NAN","NAN","NAN"],
    [1564596,"2026-07-31 20:20:00","1349","1.9480000000000002","243.8","3.626","252.9","NAN","NAN","NAN","NAN","NAN"],
    [1564597,"2026-07-31 20:30:00","1350","1.6130000000000002","237.4","2.94","249","NAN","NAN","NAN","NAN","NAN"],
    [1564598,"2026-07-31 20:40:00","1351","1.8940000000000001","249.8","2.842","245.6","NAN","NAN","NAN","NAN","NAN"],
    [1564599,"2026-07-31 20:50:00","1352","2.005","253.0","2.842","256.9","NAN","NAN","NAN","NAN","NAN"],
    [1564600,"2026-07-31 21:00:00","1353","1.8969999999999998","252.5","3.038","250.6","NAN","NAN","NAN","NAN","NAN"],
    [1564601,"2026-07-31 21:10:00","1354","1.5230000000000001","252.0","2.45","251.3","NAN","NAN","NAN","NAN","NAN"],
    [1564602,"2026-07-31 21:20:00","1355","1.8030000000000002","253.4","2.646","244.9","NAN","NAN","NAN","NAN","NAN"],
    [1564603,"2026-07-31 21:30:00","1356","1.574","255.1","2.45","246.8","NAN","NAN","NAN","NAN","NAN"],
    [1564604,"2026-07-31 21:40:00","1357","1.611","251.1","2.548","248.9","NAN","NAN","NAN","NAN","NAN"],
    [1564605,"2026-07-31 21:50:00","1358","1.107","254.5","2.058","260.4","NAN","NAN","NAN","NAN","NAN"],
    [1564606,"2026-07-31 22:00:00","1359","0.852","238.7","1.764","235.5","NAN","NAN","NAN","NAN","NAN"],
    [1564607,"2026-07-31 22:10:00","1360","1.041","253.7","2.156","250.4","NAN","NAN","NAN","NAN","NAN"],
    [1564608,"2026-07-31 22:20:00","1361","0.69","257.6","1.764","257.2","NAN","NAN","NAN","NAN","NAN"],
    [1564609,"2026-07-31 22:30:00","1362","0.531","258.8","1.764","258.9","NAN","NAN","NAN","NAN","NAN"],
    [1564610,"2026-07-31 22:40:00","1363","0.335","259.6","0.98","259.6","NAN","NAN","NAN","NAN","NAN"],
    [1564611,"2026-07-31 22:50:00","1364","0.217","260.2","0.686","260.3","NAN","NAN","NAN","NAN","NAN"],
    [1564612,"2026-07-31 23:00:00","1365","0.46399999999999997","260.7","0.784","260.7","NAN","NAN","NAN","NAN","NAN"],
    [1564613,"2026-07-31 23:10:00","1366","0.07400000000000001","260.9","0.588","260.9","NAN","NAN","NAN","NAN","NAN"],
    [1564614,"2026-07-31 23:20:00","1367","0.10099999999999999","260.9","0.49","260.9","NAN","NAN","NAN","NAN","NAN"],
    [1564615,"2026-07-31 23:30:00","1368","0.285","260.9","0.784","261","NAN","NAN","NAN","NAN","NAN"],
    [1564616,"2026-07-31 23:40:00","1369","0.555","260.9","1.372","260.9","NAN","NAN","NAN","NAN","NAN"],
    [1564617,"2026-07-31 23:50:00","1370","0.5660000000000001","260.9","1.078","260.9","NAN","NAN","NAN","NAN","NAN"],
    [1564618,"2026-08-01 00:00:00","1371","0.469","260.9","1.274","260.9","NAN","NAN","NAN","NAN","NAN"],
    [1564619,"2026-08-01 00:10:00","1372","0.16699999999999998","260.9","0.49","261","NAN","NAN","NAN","NAN","NAN"],
    [1564620,"2026-08-01 00:20:00","1373","0.0","0.0","0","260.9","NAN","NAN","NAN","NAN","NAN"],
    [1564621,"2026-08-01 00:30:00","1374","0.051","238.8","0.392","238.1","NAN","NAN","NAN","NAN","NAN"],
    [1564622,"2026-08-01 00:40:00","1375","0.053","237.5","0.392","237.7","NAN","NAN","NAN","NAN","NAN"],
    [1564623,"2026-08-01 00:50:00","1376","0.324","237.1","0.784","237.1","NAN","NAN","NAN","NAN","NAN"],
    [1564624,"2026-08-01 01:00:00","1377","0.078","237.0","0.588","237","NAN","NAN","NAN","NAN","NAN"],
    [1564625,"2026-08-01 01:10:00","1378","0.042","237.0","0.392","237","NAN","NAN","NAN","NAN","NAN"],
    [1564626,"2026-08-01 01:20:00","1379","0.581","244.5","0.98","246.8","NAN","NAN","NAN","NAN","NAN"],
    [1564627,"2026-08-01 01:30:00","1380","0.703","254.1","1.274","257.8","NAN","NAN","NAN","NAN","NAN"],
    [1564628,"2026-08-01 01:40:00","1381","0.43700000000000006","259.8","1.078","259.5","NAN","NAN","NAN","NAN","NAN"],
    [1564629,"2026-08-01 01:50:00","1382","0.43700000000000006","245.6","1.764","233.9","NAN","NAN","NAN","NAN","NAN"],
    [1564630,"2026-08-01 02:00:00","1383","1.1340000000000001","257.2","3.136","56.55","NAN","NAN","NAN","NAN","NAN"],
    [1564631,"2026-08-01 02:10:00","1384","1.771","62.84","2.548","68.68","NAN","NAN","NAN","NAN","NAN"],
    [1564632,"2026-08-01 02:20:00","1385","1.042","59.94","2.548","66.17","NAN","NAN","NAN","NAN","NAN"],
    [1564633,"2026-08-01 02:30:00","1386","1.0659999999999998","57.55","2.45","55.2","NAN","NAN","NAN","NAN","NAN"],
    [1564634,"2026-08-01 02:40:00","1387","1.633","53.03","2.94","64.63","NAN","NAN","NAN","NAN","NAN"],
    [1564635,"2026-08-01 02:50:00","1388","2.319","57.47","3.92","57.41","NAN","NAN","NAN","NAN","NAN"],
    [1564636,"2026-08-01 03:00:00","1389","1.974","52.69","4.018","68.19","NAN","NAN","NAN","NAN","NAN"],
    [1564637,"2026-08-01 03:10:00","1390","2.736","45.86","4.41","36.74","NAN","NAN","NAN","NAN","NAN"],
    [1564638,"2026-08-01 03:20:00","1391","2.9219999999999997","45.3","4.802","36.38","NAN","NAN","NAN","NAN","NAN"],
    [1564639,"2026-08-01 03:30:00","1392","2.4019999999999997","51.99","4.312","45.67","NAN","NAN","NAN","NAN","NAN"],
    [1564640,"2026-08-01 03:40:00","1393","2.7119999999999997","57.59","4.9","60.85","NAN","NAN","NAN","NAN","NAN"],
    [1564641,"2026-08-01 03:50:00","1394","2.4019999999999997","54.2","4.312","55.19","NAN","NAN","NAN","NAN","NAN"],
    [1564642,"2026-08-01 04:00:00","1395","3.174","48.06","4.998","42.78","NAN","NAN","NAN","NAN","NAN"],
    [1564643,"2026-08-01 04:10:00","1396","2.905","47.02","4.998","41.22","NAN","NAN","NAN","NAN","NAN"],
    [1564644,"2026-08-01 04:20:00","1397","2.075","54.32","4.214","43.27","NAN","NAN","NAN","NAN","NAN"],
    [1564645,"2026-08-01 04:30:00","1398","2.235","54.74","4.41","60.39","NAN","NAN","NAN","NAN","NAN"],
    [1564646,"2026-08-01 04:40:00","1399","2.311","55.84","4.312","65.58","NAN","NAN","NAN","NAN","NAN"],
    [1564647,"2026-08-01 04:50:00","1400","1.7369999999999999","48.17","3.038","56.05","NAN","NAN","NAN","NAN","NAN"],
    [1564648,"2026-08-01 05:00:00","1401","2.041","43.36","3.332","56.38","NAN","NAN","NAN","NAN","NAN"],
    [1564649,"2026-08-01 05:10:00","1402","1.9080000000000001","37.97","2.94","33.8","NAN","NAN","NAN","NAN","NAN"],
    [1564650,"2026-08-01 05:20:00","1403","2.053","40.2","3.822","51.77","NAN","NAN","NAN","NAN","NAN"],
    [1564651,"2026-08-01 05:30:00","1404","2.487","43.62","3.822","51.77","NAN","NAN","NAN","NAN","NAN"],
    [1564652,"2026-08-01 05:40:00","1405","2.195","44.92","3.528","48.93","NAN","NAN","NAN","NAN","NAN"],
    [1564653,"2026-08-01 05:50:00","1406","2.255","40.18","4.214","34.29","NAN","NAN","NAN","NAN","NAN"],
    [1564654,"2026-08-01 06:00:00","1407","2.792","36.76","4.41","21.12","NAN","NAN","NAN","NAN","NAN"],
    [1564655,"2026-08-01 06:10:00","1408","2.405","44.33","4.41","43.65","NAN","NAN","NAN","NAN","NAN"],
    [1564656,"2026-08-01 06:20:00","1409","2.097","50.86","3.822","37.1","NAN","NAN","NAN","NAN","NAN"],
    [1564657,"2026-08-01 06:30:00","1410","2.504","46.33","4.018","34.55","NAN","NAN","NAN","NAN","NAN"],
    [1564658,"2026-08-01 06:40:00","1411","2.197","53.85","4.018","54.51","NAN","NAN","NAN","NAN","NAN"],
    [1564659,"2026-08-01 06:50:00","1412","2.52","52.72","4.018","56.44","NAN","NAN","NAN","NAN","NAN"],
    [1564660,"2026-08-01 07:00:00","1413","2.654","60.8","4.508","57.5","NAN","NAN","NAN","NAN","NAN"],
    [1564661,"2026-08-01 07:10:00","1414","2.588","58.23","4.41","71.27","NAN","NAN","NAN","NAN","NAN"],
    [1564662,"2026-08-01 07:20:00","1415","2.708","60.74","4.998","64.53","NAN","NAN","NAN","NAN","NAN"],
    [1564663,"2026-08-01 07:30:00","1416","3.242","65.25","4.802","63.14","NAN","NAN","NAN","NAN","NAN"],
    [1564664,"2026-08-01 07:40:00","1417","3.532","65.92","5.292","62.13","NAN","NAN","NAN","NAN","NAN"],
    [1564665,"2026-08-01 07:50:00","1418","3.199","65.73","5.292","58.57","NAN","NAN","NAN","NAN","NAN"],
    [1564666,"2026-08-01 08:00:00","1419","1.77","63.68","3.724","69.47","NAN","NAN","NAN","NAN","NAN"],
    [1564667,"2026-08-01 08:10:00","1420","1.3730000000000002","63.09","2.744","71.37","NAN","NAN","NAN","NAN","NAN"],
    [1564668,"2026-08-01 08:20:00","1421","1.621","74.54","2.744","74.93","NAN","NAN","NAN","NAN","NAN"],
    [1564669,"2026-08-01 08:30:00","1422","1.775","80.0","2.744","84.8","NAN","NAN","NAN","NAN","NAN"],
    [1564670,"2026-08-01 08:40:00","1423","1.814","84.5","3.038","76.95","NAN","NAN","NAN","NAN","NAN"],
    [1564671,"2026-08-01 08:50:00","1424","2.11","83.8","2.94","82.8","NAN","NAN","NAN","NAN","NAN"],
    [1564672,"2026-08-01 09:00:00","1425","2.467","104.4","3.822","99.2","NAN","NAN","NAN","NAN","NAN"],
    [1564673,"2026-08-01 09:10:00","1426","2.439","100.2","3.724","86","NAN","NAN","NAN","NAN","NAN"],
    [1564674,"2026-08-01 09:20:00","1427","2.7739999999999996","118.8","4.214","111.8","NAN","NAN","NAN","NAN","NAN"],
    [1564675,"2026-08-01 09:30:00","1428","2.517","120.9","3.724","133.2","NAN","NAN","NAN","NAN","NAN"],
    [1564676,"2026-08-01 09:40:00","1429","2.545","126.9","4.214","149","NAN","NAN","NAN","NAN","NAN"],
    [1564677,"2026-08-01 09:50:00","1430","2.759","128.7","4.508","128.7","NAN","NAN","NAN","NAN","NAN"],
    [1564678,"2026-08-01 10:00:00","1431","2.9539999999999997","122.0","4.41","116","NAN","NAN","NAN","NAN","NAN"],
    [1564679,"2026-08-01 10:10:00","1432","3.577","134.9","5.488","158.4","NAN","NAN","NAN","NAN","NAN"],
    [1564680,"2026-08-01 10:20:00","1433","3.889","152.1","5.978","166.3","NAN","NAN","NAN","NAN","NAN"],
    [1564681,"2026-08-01 10:30:00","1434","4.189","143.2","7.252","140.6","NAN","NAN","NAN","NAN","NAN"],
    [1564682,"2026-08-01 10:40:00","1435","4.537","143.2","6.468","156.1","NAN","NAN","NAN","NAN","NAN"],
    [1564683,"2026-08-01 10:50:00","1436","4.676","144.0","6.762","124.5","NAN","NAN","NAN","NAN","NAN"],
    [1564684,"2026-08-01 11:00:00","1437","4.519","158.0","6.37","163.4","NAN","NAN","NAN","NAN","NAN"],
    [1564685,"2026-08-01 11:10:00","1438","4.353","157.3","7.644","148","NAN","NAN","NAN","NAN","NAN"],
    [1564686,"2026-08-01 11:20:00","1439","4.405","150.7","6.468","162.5","NAN","NAN","NAN","NAN","NAN"],
    [1564687,"2026-08-01 11:30:00","1440","4.257","154.9","7.154","156.1","NAN","NAN","NAN","NAN","NAN"],
    [1564688,"2026-08-01 11:40:00","1441","4.418","159.1","7.056","175.7","NAN","NAN","NAN","NAN","NAN"],
    [1564689,"2026-08-01 11:50:00","1442","4.873","161.0","6.958","177.6","NAN","NAN","NAN","NAN","NAN"],
    [1564690,"2026-08-01 12:00:00","1443","4.997","163.0","7.546","173.2","NAN","NAN","NAN","NAN","NAN"],
    [1564691,"2026-08-01 12:10:00","1444","4.37","170.5","6.762","172.8","NAN","NAN","NAN","NAN","NAN"],
    [1564692,"2026-08-01 12:20:00","1445","4.405","163.6","7.546","167.7","NAN","NAN","NAN","NAN","NAN"],
    [1564693,"2026-08-01 12:30:00","1446","4.425","165.9","7.448","157.2","NAN","NAN","NAN","NAN","NAN"],
    [1564694,"2026-08-01 12:40:00","1447","4.822","158.6","7.742","147.1","NAN","NAN","NAN","NAN","NAN"],
    [1564695,"2026-08-01 12:50:00","1448","4.7330000000000005","155.3","7.252","153.6","NAN","NAN","NAN","NAN","NAN"],
    [1564696,"2026-08-01 13:00:00","1449","4.3469999999999995","158.3","6.37","148.5","NAN","NAN","NAN","NAN","NAN"],
    [1564697,"2026-08-01 13:10:00","1450","4.586","162.1","6.664","154.6","NAN","NAN","NAN","NAN","NAN"],
    [1564698,"2026-08-01 13:20:00","1451","4.806","154.8","6.86","143.9","NAN","NAN","NAN","NAN","NAN"],
    [1564699,"2026-08-01 13:30:00","1452","4.8180000000000005","157.7","7.644","158.6","NAN","NAN","NAN","NAN","NAN"],
    [1564700,"2026-08-01 13:40:00","1453","4.125","164.5","7.056","146.9","NAN","NAN","NAN","NAN","NAN"],
    [1564701,"2026-08-01 13:50:00","1454","4.881","163.2","7.546","149.8","NAN","NAN","NAN","NAN","NAN"],
    [1564702,"2026-08-01 14:00:00","1455","5.132000000000001","167.4","8.13","162.2","NAN","NAN","NAN","NAN","NAN"],
    [1564703,"2026-08-01 14:10:00","1456","4.749","165.1","6.566","163.4","NAN","NAN","NAN","NAN","NAN"],
    [1564704,"2026-08-01 14:20:00","1457","4.535","168.3","6.958","148.4","NAN","NAN","NAN","NAN","NAN"],
    [1564705,"2026-08-01 14:30:00","1458","4.922","155.5","7.252","160.8","NAN","NAN","NAN","NAN","NAN"],
    [1564706,"2026-08-01 14:40:00","1459","4.7780000000000005","161.4","6.566","157.8","NAN","NAN","NAN","NAN","NAN"],
    [1564707,"2026-08-01 14:50:00","1460","4.4830000000000005","170.3","7.448","178.9","NAN","NAN","NAN","NAN","NAN"],
    [1564708,"2026-08-01 15:00:00","1461","5.061","166.9","7.35","159.9","NAN","NAN","NAN","NAN","NAN"],
    [1564709,"2026-08-01 15:10:00","1462","5.5120000000000005","170.5","7.546","177.4","NAN","NAN","NAN","NAN","NAN"],
    [1564710,"2026-08-01 15:20:00","1463","4.831","168.1","7.644","155.1","NAN","NAN","NAN","NAN","NAN"],
    [1564711,"2026-08-01 15:30:00","1464","4.882","169.6","7.938","155.8","NAN","NAN","NAN","NAN","NAN"],
    [1564712,"2026-08-01 15:40:00","1465","4.447","166.2","7.742","177.8","NAN","NAN","NAN","NAN","NAN"],
    [1564713,"2026-08-01 15:50:00","1466","5.447","166.5","7.546","162","NAN","NAN","NAN","NAN","NAN"],
    [1564714,"2026-08-01 16:00:00","1467","4.393","173.5","6.566","166.4","NAN","NAN","NAN","NAN","NAN"],
    [1564715,"2026-08-01 16:10:00","1468","3.6839999999999997","185.4","6.272","166.4","NAN","NAN","NAN","NAN","NAN"],
    [1564716,"2026-08-01 16:20:00","1469","3.173","205.8","5.488","224.4","NAN","NAN","NAN","NAN","NAN"],
    [1564717,"2026-08-01 16:30:00","1470","3.78","162.6","6.174","168.5","NAN","NAN","NAN","NAN","NAN"],
    [1564718,"2026-08-01 16:40:00","1471","3.5639999999999996","183.5","5.684","190.1","NAN","NAN","NAN","NAN","NAN"],
    [1564719,"2026-08-01 16:50:00","1472","3.485","191.1","5.488","207.7","NAN","NAN","NAN","NAN","NAN"],
    [1564720,"2026-08-01 17:00:00","1473","2.8110000000000004","190.6","4.802","210.5","NAN","NAN","NAN","NAN","NAN"],
    [1564721,"2026-08-01 17:10:00","1474","2.648","192.2","4.802","216.8","NAN","NAN","NAN","NAN","NAN"],
    [1564722,"2026-08-01 17:20:00","1475","3.188","171.6","4.998","155.4","NAN","NAN","NAN","NAN","NAN"],
    [1564723,"2026-08-01 17:30:00","1476","3.102","164.5","5.096","161.1","NAN","NAN","NAN","NAN","NAN"],
    [1564724,"2026-08-01 17:40:00","1477","2.763","166.4","5.096","152","NAN","NAN","NAN","NAN","NAN"],
    [1564725,"2026-08-01 17:50:00","1478","2.73","139.3","4.606","116.7","NAN","NAN","NAN","NAN","NAN"],
    [1564726,"2026-08-01 18:00:00","1479","3.003","141.8","4.116","134.3","NAN","NAN","NAN","NAN","NAN"],
    [1564727,"2026-08-01 18:10:00","1480","3.1430000000000002","153.7","4.41","135","NAN","NAN","NAN","NAN","NAN"],
    [1564728,"2026-08-01 18:20:00","1481","2.884","143.7","4.41","145.7","NAN","NAN","NAN","NAN","NAN"],
    [1564729,"2026-08-01 18:30:00","1482","2.637","139.6","3.626","134","NAN","NAN","NAN","NAN","NAN"],
    [1564730,"2026-08-01 18:40:00","1483","2.265","126.0","3.43","135.4","NAN","NAN","NAN","NAN","NAN"],
    [1564731,"2026-08-01 18:50:00","1484","2.366","126.3","3.626","132.7","NAN","NAN","NAN","NAN","NAN"],
    [1564732,"2026-08-01 19:00:00","1485","2.371","146.8","3.43","131.5","NAN","NAN","NAN","NAN","NAN"],
    [1564733,"2026-08-01 19:10:00","1486","2.365","154.5","3.626","163.2","NAN","NAN","NAN","NAN","NAN"],
    [1564734,"2026-08-01 19:20:00","1487","2.477","180.4","3.626","157.4","NAN","NAN","NAN","NAN","NAN"],
    [1564735,"2026-08-01 19:30:00","1488","1.8090000000000002","180.8","3.332","161.6","NAN","NAN","NAN","NAN","NAN"],
    [1564736,"2026-08-01 19:40:00","1489","1.584","183.0","3.626","197.6","NAN","NAN","NAN","NAN","NAN"],
    [1564737,"2026-08-01 19:50:00","1490","1.661","175.0","2.744","192.5","NAN","NAN","NAN","NAN","NAN"],
    [1564738,"2026-08-01 20:00:00","1491","1.858","160.3","2.842","168.3","NAN","NAN","NAN","NAN","NAN"],
    [1564739,"2026-08-01 20:10:00","1492","2.015","157.6","2.842","164","NAN","NAN","NAN","NAN","NAN"],
    [1564740,"2026-08-01 20:20:00","1493","1.66","171.5","2.744","179.1","NAN","NAN","NAN","NAN","NAN"],
    [1564741,"2026-08-01 20:30:00","1494","1.449","174.6","2.352","170.3","NAN","NAN","NAN","NAN","NAN"],
    [1564742,"2026-08-01 20:40:00","1495","1.6840000000000002","169.3","2.842","166.5","NAN","NAN","NAN","NAN","NAN"],
    [1564743,"2026-08-01 20:50:00","1496","1.249","171.5","1.96","159.9","NAN","NAN","NAN","NAN","NAN"],
    [1564744,"2026-08-01 21:00:00","1497","1.4580000000000002","186.4","2.646","195.7","NAN","NAN","NAN","NAN","NAN"],
    [1564745,"2026-08-01 21:10:00","1498","1.469","202.4","2.744","205.2","NAN","NAN","NAN","NAN","NAN"],
    [1564746,"2026-08-01 21:20:00","1499","1.436","209.6","2.548","209.5","NAN","NAN","NAN","NAN","NAN"],
    [1564747,"2026-08-01 21:30:00","1500","2.076","209.6","3.038","215.6","NAN","NAN","NAN","NAN","NAN"],
    [1564748,"2026-08-01 21:40:00","1501","1.489","209.5","2.548","225.6","NAN","NAN","NAN","NAN","NAN"],
    [1564749,"2026-08-01 21:50:00","1502","0.9059999999999999","228.9","2.352","228.2","NAN","NAN","NAN","NAN","NAN"],
    [1564750,"2026-08-01 22:00:00","1503","0.645","229.9","1.372","229.8","NAN","NAN","NAN","NAN","NAN"],
    [1564751,"2026-08-01 22:10:00","1504","0.313","249.5","1.176","230.1","NAN","NAN","NAN","NAN","NAN"],
    [1564752,"2026-08-01 22:20:00","1505","0.505","287.5","1.274","286","NAN","NAN","NAN","NAN","NAN"],
    [1564753,"2026-08-01 22:30:00","1506","1.015","284.3","1.862","288","NAN","NAN","NAN","NAN","NAN"],
    [1564754,"2026-08-01 22:40:00","1507","0.866","287.3","1.862","287.4","NAN","NAN","NAN","NAN","NAN"],
    [1564755,"2026-08-01 22:50:00","1508","1.101","290.5","1.862","289.9","NAN","NAN","NAN","NAN","NAN"],
    [1564756,"2026-08-01 23:00:00","1509","1.162","293.6","1.862","293.4","NAN","NAN","NAN","NAN","NAN"],
    [1564757,"2026-08-01 23:10:00","1510","0.7040000000000001","296.2","1.176","294.8","NAN","NAN","NAN","NAN","NAN"],
    [1564758,"2026-08-01 23:20:00","1511","0.5479999999999999","295.4","1.176","296.4","NAN","NAN","NAN","NAN","NAN"],
    [1564759,"2026-08-01 23:30:00","1512","0.598","293.9","1.372","296.9","NAN","NAN","NAN","NAN","NAN"],
    [1564760,"2026-08-01 23:40:00","1513","0.552","286.5","1.274","281.2","NAN","NAN","NAN","NAN","NAN"],
    [1564761,"2026-08-01 23:50:00","1514","0.611","270.8","1.862","266.7","NAN","NAN","NAN","NAN","NAN"],
    [1564762,"2026-08-02 00:00:00","1515","1.376","265.6","2.058","266.4","NAN","NAN","NAN","NAN","NAN"],
    [1564763,"2026-08-02 00:10:00","1516","1.4140000000000001","265.4","1.862","266.5","NAN","NAN","NAN","NAN","NAN"],
    [1564764,"2026-08-02 00:20:00","1517","1.145","264.6","2.156","264","NAN","NAN","NAN","NAN","NAN"],
    [1564765,"2026-08-02 00:30:00","1518","1.171","266.2","1.666","266.2","NAN","NAN","NAN","NAN","NAN"],
    [1564766,"2026-08-02 00:40:00","1519","0.98","273.3","1.862","282","NAN","NAN","NAN","NAN","NAN"],
    [1564767,"2026-08-02 00:50:00","1520","1.051","280.5","1.764","281.7","NAN","NAN","NAN","NAN","NAN"],
    [1564768,"2026-08-02 01:00:00","1521","0.517","279.9","1.274","278","NAN","NAN","NAN","NAN","NAN"],
    [1564769,"2026-08-02 01:10:00","1522","0.025","280.3","0.588","280.3","NAN","NAN","NAN","NAN","NAN"],
    [1564770,"2026-08-02 01:20:00","1523","0.003","283.6","0.196","283.6","NAN","NAN","NAN","NAN","NAN"],
    [1564771,"2026-08-02 01:30:00","1524","0.005","283.6","0.196","283.6","NAN","NAN","NAN","NAN","NAN"],
    [1564772,"2026-08-02 01:40:00","1525","0.004","282.0","0.196","280.4","NAN","NAN","NAN","NAN","NAN"],
    [1564773,"2026-08-02 01:50:00","1526","0.10800000000000001","276.1","0.588","275.8","NAN","NAN","NAN","NAN","NAN"],
    [1564774,"2026-08-02 02:00:00","1527","0.138","283.6","0.49","283.6","NAN","NAN","NAN","NAN","NAN"],
    [1564775,"2026-08-02 02:10:00","1528","0.0","0.0","0","283.5","NAN","NAN","NAN","NAN","NAN"],
    [1564776,"2026-08-02 02:20:00","1529","0.062","283.8","0.392","283.6","NAN","NAN","NAN","NAN","NAN"],
    [1564777,"2026-08-02 02:30:00","1530","0.373","289.4","0.784","287.4","NAN","NAN","NAN","NAN","NAN"],
    [1564778,"2026-08-02 02:40:00","1531","0.34299999999999997","293.6","0.882","293.3","NAN","NAN","NAN","NAN","NAN"],
    [1564779,"2026-08-02 02:50:00","1532","0.602","294.0","0.98","294","NAN","NAN","NAN","NAN","NAN"],
    [1564780,"2026-08-02 03:00:00","1533","0.377","293.9","1.078","289.7","NAN","NAN","NAN","NAN","NAN"],
    [1564781,"2026-08-02 03:10:00","1534","0.8270000000000001","274.8","1.274","288.4","NAN","NAN","NAN","NAN","NAN"],
    [1564782,"2026-08-02 03:20:00","1535","0.7759999999999999","262.3","1.372","261.3","NAN","NAN","NAN","NAN","NAN"],
    [1564783,"2026-08-02 03:30:00","1536","0.813","259.4","1.176","260.7","NAN","NAN","NAN","NAN","NAN"],
    [1564784,"2026-08-02 03:40:00","1537","0.376","255.3","1.176","255.3","NAN","NAN","NAN","NAN","NAN"],
    [1564785,"2026-08-02 03:50:00","1538","0.154","255.1","0.49","255","NAN","NAN","NAN","NAN","NAN"],
    [1564786,"2026-08-02 04:00:00","1539","0.018000000000000002","262.6","0.392","261.5","NAN","NAN","NAN","NAN","NAN"],
    [1564787,"2026-08-02 04:10:00","1540","0.608","265.5","1.47","265.1","NAN","NAN","NAN","NAN","NAN"],
    [1564788,"2026-08-02 04:20:00","1541","0.537","266.5","1.176","266.4","NAN","NAN","NAN","NAN","NAN"],
    [1564789,"2026-08-02 04:30:00","1542","0.052000000000000005","267.3","0.392","267.3","NAN","NAN","NAN","NAN","NAN"],
    [1564790,"2026-08-02 04:40:00","1543","0.615","267.5","1.372","267.9","NAN","NAN","NAN","NAN","NAN"],
    [1564791,"2026-08-02 04:50:00","1544","0.447","267.9","0.882","267.9","NAN","NAN","NAN","NAN","NAN"],
    [1564792,"2026-08-02 05:00:00","1545","0.046","267.9","0.392","267.9","NAN","NAN","NAN","NAN","NAN"],
    [1564793,"2026-08-02 05:10:00","1546","0.005","268.0","0.196","268","NAN","NAN","NAN","NAN","NAN"],
    [1564794,"2026-08-02 05:20:00","1547","0.047","268.1","0.294","267.9","NAN","NAN","NAN","NAN","NAN"],
    [1564795,"2026-08-02 05:30:00","1548","0.045","268.6","0.392","268.6","NAN","NAN","NAN","NAN","NAN"],
    [1564796,"2026-08-02 05:40:00","1549","0.262","277.0","1.274","269.2","NAN","NAN","NAN","NAN","NAN"],
    [1564797,"2026-08-02 05:50:00","1550","0.615","300.2","1.372","285.6","NAN","NAN","NAN","NAN","NAN"],
    [1564798,"2026-08-02 06:00:00","1551","1.401","40.86","2.744","51.44","NAN","NAN","NAN","NAN","NAN"],
    [1564799,"2026-08-02 06:10:00","1552","1.874","57.42","3.136","63.12","NAN","NAN","NAN","NAN","NAN"],
    [1564800,"2026-08-02 06:20:00","1553","1.89","48.2","3.528","48.27","NAN","NAN","NAN","NAN","NAN"],
    [1564801,"2026-08-02 06:30:00","1554","2.3369999999999997","46.1","4.018","43.43","NAN","NAN","NAN","NAN","NAN"],
    [1564802,"2026-08-02 06:40:00","1555","1.808","43.83","2.744","37.1","NAN","NAN","NAN","NAN","NAN"],
    [1564803,"2026-08-02 06:50:00","1556","1.913","34.69","3.136","33.83","NAN","NAN","NAN","NAN","NAN"],
    [1564804,"2026-08-02 07:00:00","1557","1.633","51.75","2.45","55.87","NAN","NAN","NAN","NAN","NAN"],
    [1564805,"2026-08-02 07:10:00","1558","2.2680000000000002","64.17","3.038","64.73","NAN","NAN","NAN","NAN","NAN"],
    [1564806,"2026-08-02 07:20:00","1559","1.672","66.6","2.646","65.59","NAN","NAN","NAN","NAN","NAN"],
    [1564807,"2026-08-02 07:30:00","1560","1.663","91.3","2.45","91","NAN","NAN","NAN","NAN","NAN"],
    [1564808,"2026-08-02 07:40:00","1561","1.541","82.0","2.352","80.5","NAN","NAN","NAN","NAN","NAN"],
    [1564809,"2026-08-02 07:50:00","1562","1.496","68.2","2.548","71","NAN","NAN","NAN","NAN","NAN"],
    [1564810,"2026-08-02 08:00:00","1563","1.713","95.7","2.548","112.2","NAN","NAN","NAN","NAN","NAN"],
    [1564811,"2026-08-02 08:10:00","1564","2.081","113.2","3.038","114.6","NAN","NAN","NAN","NAN","NAN"],
    [1564812,"2026-08-02 08:20:00","1565","2.2319999999999998","102.7","3.626","95.2","NAN","NAN","NAN","NAN","NAN"],
    [1564813,"2026-08-02 08:30:00","1566","2.072","95.0","3.234","96","NAN","NAN","NAN","NAN","NAN"],
    [1564814,"2026-08-02 08:40:00","1567","2.157","103.6","3.332","117.6","NAN","NAN","NAN","NAN","NAN"],
    [1564815,"2026-08-02 08:50:00","1568","2.2769999999999997","107.0","3.332","111.6","NAN","NAN","NAN","NAN","NAN"],
    [1564816,"2026-08-02 09:00:00","1569","2.104","104.1","3.234","101.2","NAN","NAN","NAN","NAN","NAN"],
    [1564817,"2026-08-02 09:10:00","1570","2.033","99.4","2.94","103.9","NAN","NAN","NAN","NAN","NAN"],
    [1564818,"2026-08-02 09:20:00","1571","2.585","95.0","3.528","99.3","NAN","NAN","NAN","NAN","NAN"],
    [1564819,"2026-08-02 09:30:00","1572","2.693","109.1","3.724","116.6","NAN","NAN","NAN","NAN","NAN"],
    [1564820,"2026-08-02 09:40:00","1573","2.965","108.8","4.41","117.3","NAN","NAN","NAN","NAN","NAN"],
    [1564821,"2026-08-02 09:50:00","1574","3.022","114.9","4.312","126.5","NAN","NAN","NAN","NAN","NAN"],
    [1564822,"2026-08-02 10:00:00","1575","3.217","121.0","4.9","119","NAN","NAN","NAN","NAN","NAN"],
    [1564823,"2026-08-02 10:10:00","1576","3.3680000000000003","121.2","4.704","111.6","NAN","NAN","NAN","NAN","NAN"],
    [1564824,"2026-08-02 10:20:00","1577","2.9010000000000002","114.7","4.312","120.6","NAN","NAN","NAN","NAN","NAN"],
    [1564825,"2026-08-02 10:30:00","1578","2.862","107.4","4.41","90.1","NAN","NAN","NAN","NAN","NAN"],
    [1564826,"2026-08-02 10:40:00","1579","3.076","116.2","4.508","140.1","NAN","NAN","NAN","NAN","NAN"],
    [1564827,"2026-08-02 10:50:00","1580","3.236","115.0","4.41","105.7","NAN","NAN","NAN","NAN","NAN"],
    [1564828,"2026-08-02 11:00:00","1581","3.0389999999999997","118.2","4.9","98.5","NAN","NAN","NAN","NAN","NAN"],
    [1564829,"2026-08-02 11:10:00","1582","3.3689999999999998","128.4","4.998","139.6","NAN","NAN","NAN","NAN","NAN"],
    [1564830,"2026-08-02 11:20:00","1583","3.556","126.4","4.998","138","NAN","NAN","NAN","NAN","NAN"],
    [1564831,"2026-08-02 11:30:00","1584","4.035","130.0","5.194","135.8","NAN","NAN","NAN","NAN","NAN"],
    [1564832,"2026-08-02 11:40:00","1585","4.099","128.6","6.37","125.8","NAN","NAN","NAN","NAN","NAN"],
    [1564833,"2026-08-02 11:50:00","1586","4.293","127.0","6.076","131.6","NAN","NAN","NAN","NAN","NAN"],
    [1564834,"2026-08-02 12:00:00","1587","4.212","128.1","5.978","138.1","NAN","NAN","NAN","NAN","NAN"],
    [1564835,"2026-08-02 12:10:00","1588","4.069","126.0","6.076","133.9","NAN","NAN","NAN","NAN","NAN"],
    [1564836,"2026-08-02 12:20:00","1589","3.7560000000000002","128.1","5.684","134.1","NAN","NAN","NAN","NAN","NAN"],
    [1564837,"2026-08-02 12:30:00","1590","4.277","131.9","5.39","133.6","NAN","NAN","NAN","NAN","NAN"],
    [1564838,"2026-08-02 12:40:00","1591","3.78","132.7","5.39","141.6","NAN","NAN","NAN","NAN","NAN"],
    [1564839,"2026-08-02 12:50:00","1592","3.725","127.4","4.998","118.8","NAN","NAN","NAN","NAN","NAN"],
    [1564840,"2026-08-02 13:00:00","1593","3.734","121.3","5.684","132.2","NAN","NAN","NAN","NAN","NAN"],
    [1564841,"2026-08-02 13:10:00","1594","3.937","134.9","6.664","158.1","NAN","NAN","NAN","NAN","NAN"],
    [1564842,"2026-08-02 13:20:00","1595","4.016","129.2","5.684","127.8","NAN","NAN","NAN","NAN","NAN"],
    [1564843,"2026-08-02 13:30:00","1596","3.036","145.3","5.096","141.1","NAN","NAN","NAN","NAN","NAN"],
    [1564844,"2026-08-02 13:40:00","1597","2.865","198.7","4.606","245.9","NAN","NAN","NAN","NAN","NAN"],
    [1564845,"2026-08-02 13:50:00","1598","3.733","157.9","5.488","141.4","NAN","NAN","NAN","NAN","NAN"],
    [1564846,"2026-08-02 14:00:00","1599","3.847","156.2","5.292","168.7","NAN","NAN","NAN","NAN","NAN"],
    [1564847,"2026-08-02 14:10:00","1600","3.6519999999999997","153.9","4.998","143.6","NAN","NAN","NAN","NAN","NAN"],
    [1564848,"2026-08-02 14:20:00","1601","3.6010000000000004","162.7","5.39","153.6","NAN","NAN","NAN","NAN","NAN"],
    [1564849,"2026-08-02 14:30:00","1602","3.2560000000000002","149.7","4.704","138","NAN","NAN","NAN","NAN","NAN"],
    [1564850,"2026-08-02 14:40:00","1603","4.118","141.2","6.174","139.5","NAN","NAN","NAN","NAN","NAN"],
    [1564851,"2026-08-02 14:50:00","1604","3.957","129.5","5.684","130.7","NAN","NAN","NAN","NAN","NAN"],
    [1564852,"2026-08-02 15:00:00","1605","3.648","127.5","5.684","129.4","NAN","NAN","NAN","NAN","NAN"],
    [1564853,"2026-08-02 15:10:00","1606","3.263","139.0","4.802","174.1","NAN","NAN","NAN","NAN","NAN"],
    [1564854,"2026-08-02 15:20:00","1607","3.536","134.1","6.272","136.9","NAN","NAN","NAN","NAN","NAN"],
    [1564855,"2026-08-02 15:30:00","1608","3.66","132.3","5.194","138.1","NAN","NAN","NAN","NAN","NAN"],
    [1564856,"2026-08-02 15:40:00","1609","3.406","143.0","5.39","134.2","NAN","NAN","NAN","NAN","NAN"],
    [1564857,"2026-08-02 15:50:00","1610","3.221","153.5","4.9","179.5","NAN","NAN","NAN","NAN","NAN"],
    [1564858,"2026-08-02 16:00:00","1611","3.637","154.5","6.076","140.6","NAN","NAN","NAN","NAN","NAN"],
    [1564859,"2026-08-02 16:10:00","1612","3.3989999999999996","136.6","5.782","135.1","NAN","NAN","NAN","NAN","NAN"],
    [1564860,"2026-08-02 16:20:00","1613","3.338","133.8","4.802","122.1","NAN","NAN","NAN","NAN","NAN"],
    [1564861,"2026-08-02 16:30:00","1614","3.81","134.8","5.488","120.8","NAN","NAN","NAN","NAN","NAN"],
    [1564862,"2026-08-02 16:40:00","1615","2.824","136.4","4.704","143.5","NAN","NAN","NAN","NAN","NAN"],
    [1564863,"2026-08-02 16:50:00","1616","2.544","141.7","3.724","134.1","NAN","NAN","NAN","NAN","NAN"],
    [1564864,"2026-08-02 17:00:00","1617","2.513","125.4","3.822","108.7","NAN","NAN","NAN","NAN","NAN"],
    [1564865,"2026-08-02 17:10:00","1618","2.5380000000000003","121.1","3.724","112","NAN","NAN","NAN","NAN","NAN"],
    [1564866,"2026-08-02 17:20:00","1619","2.6060000000000003","113.6","4.802","129.7","NAN","NAN","NAN","NAN","NAN"],
    [1564867,"2026-08-02 17:30:00","1620","2.313","128.8","3.724","90.3","NAN","NAN","NAN","NAN","NAN"],
    [1564868,"2026-08-02 17:40:00","1621","1.202","227.3","3.038","239.5","NAN","NAN","NAN","NAN","NAN"],
    [1564869,"2026-08-02 17:50:00","1622","1.785","178.1","4.214","167.9","NAN","NAN","NAN","NAN","NAN"],
    [1564870,"2026-08-02 18:00:00","1623","2.45","172.0","4.214","167.9","NAN","NAN","NAN","NAN","NAN"],
    [1564871,"2026-08-02 18:10:00","1624","2.7710000000000004","146.5","4.214","122.4","NAN","NAN","NAN","NAN","NAN"],
    [1564872,"2026-08-02 18:20:00","1625","2.523","155.7","3.626","129.8","NAN","NAN","NAN","NAN","NAN"],
    [1564873,"2026-08-02 18:30:00","1626","1.969","147.5","3.234","122.1","NAN","NAN","NAN","NAN","NAN"],
    [1564874,"2026-08-02 18:40:00","1627","2.155","136.9","3.724","154.1","NAN","NAN","NAN","NAN","NAN"],
    [1564875,"2026-08-02 18:50:00","1628","2.464","162.9","3.626","162.6","NAN","NAN","NAN","NAN","NAN"],
    [1564876,"2026-08-02 19:00:00","1629","2.266","160.1","3.332","142.6","NAN","NAN","NAN","NAN","NAN"],
    [1564877,"2026-08-02 19:10:00","1630","2.622","155.3","3.724","167.3","NAN","NAN","NAN","NAN","NAN"],
    [1564878,"2026-08-02 19:20:00","1631","1.8630000000000002","156.5","3.234","161.1","NAN","NAN","NAN","NAN","NAN"],
    [1564879,"2026-08-02 19:30:00","1632","1.3969999999999998","171.7","2.156","178.7","NAN","NAN","NAN","NAN","NAN"],
    [1564880,"2026-08-02 19:40:00","1633","1.642","163.4","2.94","165.3","NAN","NAN","NAN","NAN","NAN"],
    [1564881,"2026-08-02 19:50:00","1634","1.219","151.9","2.45","145.2","NAN","NAN","NAN","NAN","NAN"],
    [1564882,"2026-08-02 20:00:00","1635","1.462","187.8","2.744","209.4","NAN","NAN","NAN","NAN","NAN"],
    [1564883,"2026-08-02 20:10:00","1636","1.7530000000000001","205.5","3.136","210.9","NAN","NAN","NAN","NAN","NAN"],
    [1564884,"2026-08-02 20:20:00","1637","1.505","200.6","2.94","199.5","NAN","NAN","NAN","NAN","NAN"],
    [1564885,"2026-08-02 20:30:00","1638","1.304","203.6","2.156","209.9","NAN","NAN","NAN","NAN","NAN"],
    [1564886,"2026-08-02 20:40:00","1639","1.351","203.7","2.058","208.7","NAN","NAN","NAN","NAN","NAN"],
    [1564887,"2026-08-02 20:50:00","1640","1.146","198.6","1.764","209.1","NAN","NAN","NAN","NAN","NAN"],
    [1564888,"2026-08-02 21:00:00","1641","1.167","197.8","1.764","202.4","NAN","NAN","NAN","NAN","NAN"],
    [1564889,"2026-08-02 21:10:00","1642","1.0390000000000001","206.0","1.862","208.7","NAN","NAN","NAN","NAN","NAN"],
    [1564890,"2026-08-02 21:20:00","1643","1.045","198.0","1.764","208.6","NAN","NAN","NAN","NAN","NAN"],
    [1564891,"2026-08-02 21:30:00","1644","0.711","202.2","1.666","202.6","NAN","NAN","NAN","NAN","NAN"],
    [1564892,"2026-08-02 21:40:00","1645","0.45799999999999996","214.1","1.176","211","NAN","NAN","NAN","NAN","NAN"],
    [1564893,"2026-08-02 21:50:00","1646","0.772","219.0","1.274","219.6","NAN","NAN","NAN","NAN","NAN"],
    [1564894,"2026-08-02 22:00:00","1647","0.545","219.8","0.882","219.8","NAN","NAN","NAN","NAN","NAN"],
    [1564895,"2026-08-02 22:10:00","1648","0.6579999999999999","219.9","1.078","220","NAN","NAN","NAN","NAN","NAN"],
    [1564896,"2026-08-02 22:20:00","1649","0.711","220.3","1.568","220.4","NAN","NAN","NAN","NAN","NAN"],
    [1564897,"2026-08-02 22:30:00","1650","0.815","221.2","1.176","221","NAN","NAN","NAN","NAN","NAN"],
    [1564898,"2026-08-02 22:40:00","1651","0.45299999999999996","218.0","1.176","219.2","NAN","NAN","NAN","NAN","NAN"],
    [1564899,"2026-08-02 22:50:00","1652","0.46","217.7","1.078","214.2","NAN","NAN","NAN","NAN","NAN"],
    [1564900,"2026-08-02 23:00:00","1653","0.39899999999999997","221.2","0.98","220.8","NAN","NAN","NAN","NAN","NAN"],
    [1564901,"2026-08-02 23:10:00","1654","0.353","221.4","1.078","221.5","NAN","NAN","NAN","NAN","NAN"],
    [1564902,"2026-08-02 23:20:00","1655","0.39","216.8","1.078","221.5","NAN","NAN","NAN","NAN","NAN"],
    [1564903,"2026-08-02 23:30:00","1656","0.424","213.8","0.882","213.8","NAN","NAN","NAN","NAN","NAN"],
    [1564904,"2026-08-02 23:40:00","1657","0.16399999999999998","221.0","0.784","221.5","NAN","NAN","NAN","NAN","NAN"],
    [1564905,"2026-08-02 23:50:00","1658","0.537","221.4","1.176","221.7","NAN","NAN","NAN","NAN","NAN"],
    [1564906,"2026-08-03 00:00:00","1659","0.624","222.7","1.862","223","NAN","NAN","NAN","NAN","NAN"],
    [1564907,"2026-08-03 00:10:00","1660","0.184","223.0","0.588","222.9","NAN","NAN","NAN","NAN","NAN"],
    [1564908,"2026-08-03 00:20:00","1661","0.047","223.0","0.392","223","NAN","NAN","NAN","NAN","NAN"],
    [1564909,"2026-08-03 00:30:00","1662","0.212","223.2","0.588","223.2","NAN","NAN","NAN","NAN","NAN"],
    [1564910,"2026-08-03 00:40:00","1663","0.212","223.4","0.588","223.4","NAN","NAN","NAN","NAN","NAN"],
    [1564911,"2026-08-03 00:50:00","1664","0.0","0.0","0","223.4","NAN","NAN","NAN","NAN","NAN"],
    [1564912,"2026-08-03 01:00:00","1665","0.018000000000000002","223.4","0.49","223.4","NAN","NAN","NAN","NAN","NAN"],
    [1564913,"2026-08-03 01:10:00","1666","0.49700000000000005","223.1","1.078","223.4","NAN","NAN","NAN","NAN","NAN"],
    [1564914,"2026-08-03 01:20:00","1667","0.516","210.2","0.98","213.4","NAN","NAN","NAN","NAN","NAN"],
    [1564915,"2026-08-03 01:30:00","1668","0.285","205.9","0.784","206.3","NAN","NAN","NAN","NAN","NAN"],
    [1564916,"2026-08-03 01:40:00","1669","0.542","204.0","1.078","204.4","NAN","NAN","NAN","NAN","NAN"],
    [1564917,"2026-08-03 01:50:00","1670","0.29600000000000004","187.2","1.078","198","NAN","NAN","NAN","NAN","NAN"],
    [1564918,"2026-08-03 02:00:00","1671","0.037000000000000005","147.7","0.294","148.6","NAN","NAN","NAN","NAN","NAN"],
    [1564919,"2026-08-03 02:10:00","1672","0.046","142.0","0.49","141.7","NAN","NAN","NAN","NAN","NAN"],
    [1564920,"2026-08-03 02:20:00","1673","0.615","95.7","1.764","87.4","NAN","NAN","NAN","NAN","NAN"],
    [1564921,"2026-08-03 02:30:00","1674","0.8440000000000001","82.3","1.764","83.7","NAN","NAN","NAN","NAN","NAN"],
    [1564922,"2026-08-03 02:40:00","1675","1.4769999999999999","55.02","3.136","43.76","NAN","NAN","NAN","NAN","NAN"],
    [1564923,"2026-08-03 02:50:00","1676","1.84","50.72","3.528","40.33","NAN","NAN","NAN","NAN","NAN"],
    [1564924,"2026-08-03 03:00:00","1677","1.9480000000000002","40.66","2.94","39.05","NAN","NAN","NAN","NAN","NAN"],
    [1564925,"2026-08-03 03:10:00","1678","1.5430000000000001","43.37","2.45","35.42","NAN","NAN","NAN","NAN","NAN"],
    [1564926,"2026-08-03 03:20:00","1679","1.7730000000000001","45.87","3.43","37.99","NAN","NAN","NAN","NAN","NAN"],
    [1564927,"2026-08-03 03:30:00","1680","1.7919999999999998","47.09","3.528","35.08","NAN","NAN","NAN","NAN","NAN"],
    [1564928,"2026-08-03 03:40:00","1681","1.788","48.52","3.332","44.7","NAN","NAN","NAN","NAN","NAN"],
    [1564929,"2026-08-03 03:50:00","1682","1.85","47.15","3.332","51.83","NAN","NAN","NAN","NAN","NAN"],
    [1564930,"2026-08-03 04:00:00","1683","2.1830000000000003","53.91","3.92","65.3","NAN","NAN","NAN","NAN","NAN"],
    [1564931,"2026-08-03 04:10:00","1684","1.963","52.6","3.724","64.34","NAN","NAN","NAN","NAN","NAN"],
    [1564932,"2026-08-03 04:20:00","1685","2.249","51.83","3.822","43.93","NAN","NAN","NAN","NAN","NAN"],
    [1564933,"2026-08-03 04:30:00","1686","2.09","59.32","3.43","62.21","NAN","NAN","NAN","NAN","NAN"],
    [1564934,"2026-08-03 04:40:00","1687","1.8130000000000002","52.04","3.724","61.64","NAN","NAN","NAN","NAN","NAN"],
    [1564935,"2026-08-03 04:50:00","1688","1.73","50.59","3.136","46.7","NAN","NAN","NAN","NAN","NAN"],
    [1564936,"2026-08-03 05:00:00","1689","1.946","50.65","3.332","63.86","NAN","NAN","NAN","NAN","NAN"],
    [1564937,"2026-08-03 05:10:00","1690","2.305","52.73","3.822","52.17","NAN","NAN","NAN","NAN","NAN"],
    [1564938,"2026-08-03 05:20:00","1691","2.32","45.84","4.41","54.62","NAN","NAN","NAN","NAN","NAN"],
    [1564939,"2026-08-03 05:30:00","1692","3.0","46.66","4.508","37.77","NAN","NAN","NAN","NAN","NAN"],
    [1564940,"2026-08-03 05:40:00","1693","2.759","47.97","4.9","38.76","NAN","NAN","NAN","NAN","NAN"],
    [1564941,"2026-08-03 05:50:00","1694","2.367","50.25","4.41","31.81","NAN","NAN","NAN","NAN","NAN"],
    [1564942,"2026-08-03 06:00:00","1695","2.8819999999999997","53.36","5.194","53.66","NAN","NAN","NAN","NAN","NAN"],
    [1564943,"2026-08-03 06:10:00","1696","3.3989999999999996","63.61","5.488","71.1","NAN","NAN","NAN","NAN","NAN"],
    [1564944,"2026-08-03 06:20:00","1697","2.637","58.3","4.606","70.59","NAN","NAN","NAN","NAN","NAN"],
    [1564945,"2026-08-03 06:30:00","1698","3.009","61.84","5.88","64.77","NAN","NAN","NAN","NAN","NAN"],
    [1564946,"2026-08-03 06:40:00","1699","2.805","60.18","5.194","53.99","NAN","NAN","NAN","NAN","NAN"],
    [1564947,"2026-08-03 06:50:00","1700","2.9160000000000004","59.1","5.194","62.25","NAN","NAN","NAN","NAN","NAN"],
    [1564948,"2026-08-03 07:00:00","1701","2.542","62.33","4.998","67.04","NAN","NAN","NAN","NAN","NAN"],
    [1564949,"2026-08-03 07:10:00","1702","2.715","50.4","6.272","26.71","NAN","NAN","NAN","NAN","NAN"],
    [1564950,"2026-08-03 07:20:00","1703","3.2460000000000004","58.94","5.684","76.28","NAN","NAN","NAN","NAN","NAN"],
    [1564951,"2026-08-03 07:30:00","1704","3.875","63.02","6.37","65.74","NAN","NAN","NAN","NAN","NAN"],
    [1564952,"2026-08-03 07:40:00","1705","4.125","60.01","6.566","60.83","NAN","NAN","NAN","NAN","NAN"],
    [1564953,"2026-08-03 07:50:00","1706","4.462","67.39","6.468","73","NAN","NAN","NAN","NAN","NAN"],
    [1564954,"2026-08-03 08:00:00","1707","3.783","60.5","6.272","61.26","NAN","NAN","NAN","NAN","NAN"],
    [1564955,"2026-08-03 08:10:00","1708","4.025","61.89","6.468","62.05","NAN","NAN","NAN","NAN","NAN"],
    [1564956,"2026-08-03 08:20:00","1709","3.575","54.31","6.174","51.95","NAN","NAN","NAN","NAN","NAN"],
    [1564957,"2026-08-03 08:30:00","1710","3.582","57.47","6.468","61.64","NAN","NAN","NAN","NAN","NAN"],
    [1564958,"2026-08-03 08:40:00","1711","4.011","59.44","6.664","70.52","NAN","NAN","NAN","NAN","NAN"],
    [1564959,"2026-08-03 08:50:00","1712","3.964","65.57","5.586","75.7","NAN","NAN","NAN","NAN","NAN"],
    [1564960,"2026-08-03 09:00:00","1713","3.471","64.35","6.272","67.42","NAN","NAN","NAN","NAN","NAN"],
    [1564961,"2026-08-03 09:10:00","1714","4.368","71.15","6.566","71.65","NAN","NAN","NAN","NAN","NAN"],
    [1564962,"2026-08-03 09:20:00","1715","3.8680000000000003","71.31","6.272","103.9","NAN","NAN","NAN","NAN","NAN"],
    [1564963,"2026-08-03 09:30:00","1716","4.34","74.6","6.664","62.69","NAN","NAN","NAN","NAN","NAN"],
    [1564964,"2026-08-03 09:40:00","1717","4.129","71.39","6.272","64.33","NAN","NAN","NAN","NAN","NAN"],
    [1564965,"2026-08-03 09:50:00","1718","3.8789999999999996","76.18","5.978","56.17","NAN","NAN","NAN","NAN","NAN"],
    [1564966,"2026-08-03 10:00:00","1719","4.042","70.68","6.076","67.57","NAN","NAN","NAN","NAN","NAN"],
    [1564967,"2026-08-03 10:10:00","1720","3.614","81.8","5.88","64.42","NAN","NAN","NAN","NAN","NAN"],
    [1564968,"2026-08-03 10:20:00","1721","3.7689999999999997","84.2","5.684","74.52","NAN","NAN","NAN","NAN","NAN"],
    [1564969,"2026-08-03 10:30:00","1722","4.091","76.14","6.664","75.1","NAN","NAN","NAN","NAN","NAN"],
    [1564970,"2026-08-03 10:40:00","1723","3.8789999999999996","77.42","6.272","70.39","NAN","NAN","NAN","NAN","NAN"],
    [1564971,"2026-08-03 10:50:00","1724","5.1579999999999995","71.14","7.742","70.96","NAN","NAN","NAN","NAN","NAN"],
    [1564972,"2026-08-03 11:00:00","1725","4.457","73.93","6.076","71.69","NAN","NAN","NAN","NAN","NAN"],
    [1564973,"2026-08-03 11:10:00","1726","4.343999999999999","71.09","6.958","68.9","NAN","NAN","NAN","NAN","NAN"],
    [1564974,"2026-08-03 11:20:00","1727","4.2989999999999995","72.58","6.272","74.07","NAN","NAN","NAN","NAN","NAN"],
    [1564975,"2026-08-03 11:30:00","1728","4.345","75.27","6.272","67.76","NAN","NAN","NAN","NAN","NAN"],
    [1564976,"2026-08-03 11:40:00","1729","3.576","89.0","6.076","69.52","NAN","NAN","NAN","NAN","NAN"],
    [1564977,"2026-08-03 11:50:00","1730","4.26","101.6","6.566","96.6","NAN","NAN","NAN","NAN","NAN"],
    [1564978,"2026-08-03 12:00:00","1731","4.55","91.1","6.566","82.5","NAN","NAN","NAN","NAN","NAN"],
    [1564979,"2026-08-03 12:10:00","1732","4.146","90.8","6.468","95.4","NAN","NAN","NAN","NAN","NAN"],
    [1564980,"2026-08-03 12:20:00","1733","4.38","101.4","6.664","97","NAN","NAN","NAN","NAN","NAN"],
    [1564981,"2026-08-03 12:30:00","1734","4.283","97.0","6.468","85.9","NAN","NAN","NAN","NAN","NAN"],
    [1564982,"2026-08-03 12:40:00","1735","3.45","99.0","5.586","116.7","NAN","NAN","NAN","NAN","NAN"],
    [1564983,"2026-08-03 12:50:00","1736","3.7960000000000003","98.7","6.174","82.6","NAN","NAN","NAN","NAN","NAN"],
    [1564984,"2026-08-03 13:00:00","1737","3.589","100.5","5.194","93.2","NAN","NAN","NAN","NAN","NAN"],
    [1564985,"2026-08-03 13:10:00","1738","4.5489999999999995","112.7","6.566","114.5","NAN","NAN","NAN","NAN","NAN"],
    [1564986,"2026-08-03 13:20:00","1739","4.172","120.1","6.664","106.2","NAN","NAN","NAN","NAN","NAN"],
    [1564987,"2026-08-03 13:30:00","1740","4.073","118.0","6.958","115.1","NAN","NAN","NAN","NAN","NAN"],
    [1564988,"2026-08-03 13:40:00","1741","3.898","119.2","5.782","145.8","NAN","NAN","NAN","NAN","NAN"],
    [1564989,"2026-08-03 13:50:00","1742","3.6460000000000004","114.6","6.272","120.7","NAN","NAN","NAN","NAN","NAN"],
    [1564990,"2026-08-03 14:00:00","1743","3.616","99.4","5.586","99","NAN","NAN","NAN","NAN","NAN"],
    [1564991,"2026-08-03 14:10:00","1744","3.216","110.4","5.292","111.7","NAN","NAN","NAN","NAN","NAN"],
    [1564992,"2026-08-03 14:20:00","1745","3.532","97.1","4.9","84.1","NAN","NAN","NAN","NAN","NAN"],
    [1564993,"2026-08-03 14:30:00","1746","3.31","115.0","4.9","101.9","NAN","NAN","NAN","NAN","NAN"],
    [1564994,"2026-08-03 14:40:00","1747","2.795","114.6","4.802","84.7","NAN","NAN","NAN","NAN","NAN"],
    [1564995,"2026-08-03 14:50:00","1748","3.063","115.8","4.9","97.1","NAN","NAN","NAN","NAN","NAN"],
    [1564996,"2026-08-03 15:00:00","1749","3.217","107.9","4.606","95.9","NAN","NAN","NAN","NAN","NAN"],
    [1564997,"2026-08-03 15:10:00","1750","2.9810000000000003","119.5","4.704","136.4","NAN","NAN","NAN","NAN","NAN"],
    [1564998,"2026-08-03 15:20:00","1751","3.28","111.5","5.194","124.1","NAN","NAN","NAN","NAN","NAN"],
    [1564999,"2026-08-03 15:30:00","1752","3.197","122.7","4.606","138.5","NAN","NAN","NAN","NAN","NAN"],
    [1565000,"2026-08-03 15:40:00","1753","3.3989999999999996","128.8","4.704","142.6","NAN","NAN","NAN","NAN","NAN"],
    [1565001,"2026-08-03 15:50:00","1754","3.9010000000000002","138.4","5.586","135.6","NAN","NAN","NAN","NAN","NAN"],
    [1565002,"2026-08-03 16:00:00","1755","3.628","149.7","5.488","162.9","NAN","NAN","NAN","NAN","NAN"],
    [1565003,"2026-08-03 16:10:00","1756","3.17","161.1","5.194","159.8","NAN","NAN","NAN","NAN","NAN"],
    [1565004,"2026-08-03 16:20:00","1757","2.987","138.6","3.92","112.5","NAN","NAN","NAN","NAN","NAN"],
    [1565005,"2026-08-03 16:30:00","1758","2.806","111.7","4.312","100.5","NAN","NAN","NAN","NAN","NAN"],
    [1565006,"2026-08-03 16:40:00","1759","2.8369999999999997","110.5","4.508","118.8","NAN","NAN","NAN","NAN","NAN"],
    [1565007,"2026-08-03 16:50:00","1760","3.072","106.8","4.606","94.6","NAN","NAN","NAN","NAN","NAN"],
    [1565008,"2026-08-03 17:00:00","1761","3.71","95.6","5.39","89.1","NAN","NAN","NAN","NAN","NAN"],
    [1565009,"2026-08-03 17:10:00","1762","3.0669999999999997","99.1","4.998","81.6","NAN","NAN","NAN","NAN","NAN"],
    [1565010,"2026-08-03 17:20:00","1763","2.824","113.2","5.194","136.8","NAN","NAN","NAN","NAN","NAN"],
    [1565011,"2026-08-03 17:30:00","1764","3.181","97.5","6.076","81.5","NAN","NAN","NAN","NAN","NAN"],
    [1565012,"2026-08-03 17:40:00","1765","3.477","95.5","4.998","99","NAN","NAN","NAN","NAN","NAN"],
    [1565013,"2026-08-03 17:50:00","1766","2.076","113.7","3.822","96.2","NAN","NAN","NAN","NAN","NAN"],
    [1565014,"2026-08-03 18:00:00","1767","0.897","154.3","1.862","157.9","NAN","NAN","NAN","NAN","NAN"],
    [1565015,"2026-08-03 18:10:00","1768","0.6829999999999999","199.5","2.646","213.7","NAN","NAN","NAN","NAN","NAN"],
    [1565016,"2026-08-03 18:20:00","1769","2.108","215.8","3.724","218.9","NAN","NAN","NAN","NAN","NAN"],
    [1565017,"2026-08-03 18:30:00","1770","1.315","189.2","2.94","166.8","NAN","NAN","NAN","NAN","NAN"],
    [1565018,"2026-08-03 18:40:00","1771","1.756","165.7","2.94","156.7","NAN","NAN","NAN","NAN","NAN"],
    [1565019,"2026-08-03 18:50:00","1772","1.972","170.7","2.94","163.1","NAN","NAN","NAN","NAN","NAN"],
    [1565020,"2026-08-03 19:00:00","1773","1.696","171.1","2.646","164.5","NAN","NAN","NAN","NAN","NAN"],
    [1565021,"2026-08-03 19:10:00","1774","1.6469999999999998","178.4","2.94","176.3","NAN","NAN","NAN","NAN","NAN"],
    [1565022,"2026-08-03 19:20:00","1775","2.331","152.3","3.234","144.7","NAN","NAN","NAN","NAN","NAN"],
    [1565023,"2026-08-03 19:30:00","1776","2.081","158.2","3.136","155.1","NAN","NAN","NAN","NAN","NAN"],
    [1565024,"2026-08-03 19:40:00","1777","1.168","153.7","2.254","165.2","NAN","NAN","NAN","NAN","NAN"],
    [1565025,"2026-08-03 19:50:00","1778","1.113","148.3","1.96","145.4","NAN","NAN","NAN","NAN","NAN"],
    [1565026,"2026-08-03 20:00:00","1779","0.21600000000000003","146.1","1.078","148.3","NAN","NAN","NAN","NAN","NAN"],
    [1565027,"2026-08-03 20:10:00","1780","0.21100000000000002","168.6","0.588","169.3","NAN","NAN","NAN","NAN","NAN"],
    [1565028,"2026-08-03 20:20:00","1781","0.08199999999999999","185.0","0.686","185.3","NAN","NAN","NAN","NAN","NAN"],
    [1565029,"2026-08-03 20:30:00","1782","0.162","188.6","0.98","189.1","NAN","NAN","NAN","NAN","NAN"],
    [1565030,"2026-08-03 20:40:00","1783","0.027999999999999997","187.6","0.392","187.2","NAN","NAN","NAN","NAN","NAN"],
    [1565031,"2026-08-03 20:50:00","1784","0.062","189.8","0.49","189.8","NAN","NAN","NAN","NAN","NAN"],
    [1565032,"2026-08-03 21:00:00","1785","0.023","183.9","0.49","183","NAN","NAN","NAN","NAN","NAN"],
    [1565033,"2026-08-03 21:10:00","1786","0.16","162.0","0.784","140.7","NAN","NAN","NAN","NAN","NAN"],
    [1565034,"2026-08-03 21:20:00","1787","1.001","134.1","2.156","133.6","NAN","NAN","NAN","NAN","NAN"],
    [1565035,"2026-08-03 21:30:00","1788","0.976","125.0","1.764","126.2","NAN","NAN","NAN","NAN","NAN"],
    [1565036,"2026-08-03 21:40:00","1789","0.6940000000000001","112.3","1.666","100.4","NAN","NAN","NAN","NAN","NAN"],
    [1565037,"2026-08-03 21:50:00","1790","1.714","82.2","2.45","77.42","NAN","NAN","NAN","NAN","NAN"],
    [1565038,"2026-08-03 22:00:00","1791","1.3319999999999999","84.8","2.156","82.7","NAN","NAN","NAN","NAN","NAN"],
    [1565039,"2026-08-03 22:10:00","1792","1.605","75.4","2.45","74.45","NAN","NAN","NAN","NAN","NAN"],
    [1565040,"2026-08-03 22:20:00","1793","1.53","72.98","2.254","71.47","NAN","NAN","NAN","NAN","NAN"],
    [1565041,"2026-08-03 22:30:00","1794","1.5930000000000002","95.0","2.646","94.4","NAN","NAN","NAN","NAN","NAN"],
    [1565042,"2026-08-03 22:40:00","1795","1.421","85.6","2.45","77.32","NAN","NAN","NAN","NAN","NAN"],
    [1565043,"2026-08-03 22:50:00","1796","1.3090000000000002","84.4","2.254","82.7","NAN","NAN","NAN","NAN","NAN"],
    [1565044,"2026-08-03 23:00:00","1797","1.734","79.59","2.842","74.15","NAN","NAN","NAN","NAN","NAN"],
    [1565045,"2026-08-03 23:10:00","1798","1.577","77.87","2.45","71.51","NAN","NAN","NAN","NAN","NAN"],
    [1565046,"2026-08-03 23:20:00","1799","1.546","77.25","2.45","77.43","NAN","NAN","NAN","NAN","NAN"],
    [1565047,"2026-08-03 23:30:00","1800","1.159","85.8","2.058","85.7","NAN","NAN","NAN","NAN","NAN"],
    [1565048,"2026-08-03 23:40:00","1801","1.125","77.48","1.862","70.5","NAN","NAN","NAN","NAN","NAN"],
    [1565049,"2026-08-03 23:50:00","1802","0.927","82.2","1.568","72.52","NAN","NAN","NAN","NAN","NAN"],
    [1565050,"2026-08-04 00:00:00","1803","0.8809999999999999","75.27","1.666","75.31","NAN","NAN","NAN","NAN","NAN"],
    [1565051,"2026-08-04 00:10:00","1804","1.064","74.17","2.254","69.82","NAN","NAN","NAN","NAN","NAN"],
    [1565052,"2026-08-04 00:20:00","1805","1.23","71.66","1.96","77.12","NAN","NAN","NAN","NAN","NAN"],
    [1565053,"2026-08-04 00:30:00","1806","1.219","74.34","1.764","68.91","NAN","NAN","NAN","NAN","NAN"],
    [1565054,"2026-08-04 00:40:00","1807","1.051","70.7","2.156","78.49","NAN","NAN","NAN","NAN","NAN"],
    [1565055,"2026-08-04 00:50:00","1808","1.0490000000000002","74.17","1.666","74.69","NAN","NAN","NAN","NAN","NAN"],
    [1565056,"2026-08-04 01:00:00","1809","1.11","75.37","1.666","69.54","NAN","NAN","NAN","NAN","NAN"],
    [1565057,"2026-08-04 01:10:00","1810","1.0290000000000001","68.94","1.862","67.08","NAN","NAN","NAN","NAN","NAN"],
    [1565058,"2026-08-04 01:20:00","1811","1.001","66.84","2.058","66.17","NAN","NAN","NAN","NAN","NAN"],
    [1565059,"2026-08-04 01:30:00","1812","1.202","66.06","2.254","65.31","NAN","NAN","NAN","NAN","NAN"],
    [1565060,"2026-08-04 01:40:00","1813","1.1909999999999998","65.04","2.058","64.92","NAN","NAN","NAN","NAN","NAN"],
    [1565061,"2026-08-04 01:50:00","1814","1.204","63.1","1.862","64.24","NAN","NAN","NAN","NAN","NAN"],
    [1565062,"2026-08-04 02:00:00","1815","1.4380000000000002","63.11","2.744","61.45","NAN","NAN","NAN","NAN","NAN"],
    [1565063,"2026-08-04 02:10:00","1816","1.456","56.65","2.744","63.48","NAN","NAN","NAN","NAN","NAN"],
    [1565064,"2026-08-04 02:20:00","1817","1.6909999999999998","52.6","2.842","53.27","NAN","NAN","NAN","NAN","NAN"],
    [1565065,"2026-08-04 02:30:00","1818","1.6869999999999998","45.59","2.646","48.24","NAN","NAN","NAN","NAN","NAN"],
    [1565066,"2026-08-04 02:40:00","1819","1.999","41.2","2.94","36.43","NAN","NAN","NAN","NAN","NAN"],
    [1565067,"2026-08-04 02:50:00","1820","2.387","31.77","3.528","33.74","NAN","NAN","NAN","NAN","NAN"],
    [1565068,"2026-08-04 03:00:00","1821","2.522","34.19","3.92","38.36","NAN","NAN","NAN","NAN","NAN"],
    [1565069,"2026-08-04 03:10:00","1822","2.013","33.15","3.038","24.78","NAN","NAN","NAN","NAN","NAN"],
    [1565070,"2026-08-04 03:20:00","1823","1.889","34.84","3.038","39.31","NAN","NAN","NAN","NAN","NAN"],
    [1565071,"2026-08-04 03:30:00","1824","2.2640000000000002","37.63","3.43","32.48","NAN","NAN","NAN","NAN","NAN"],
    [1565072,"2026-08-04 03:40:00","1825","1.819","36.94","2.842","43.36","NAN","NAN","NAN","NAN","NAN"],
    [1565073,"2026-08-04 03:50:00","1826","1.694","36.16","2.45","33.59","NAN","NAN","NAN","NAN","NAN"],
    [1565074,"2026-08-04 04:00:00","1827","1.254","35.62","2.058","35.47","NAN","NAN","NAN","NAN","NAN"],
    [1565075,"2026-08-04 04:10:00","1828","0.47100000000000003","33.89","1.96","27.96","NAN","NAN","NAN","NAN","NAN"],
    [1565076,"2026-08-04 04:20:00","1829","0.47200000000000003","28.23","1.372","27.67","NAN","NAN","NAN","NAN","NAN"],
    [1565077,"2026-08-04 04:30:00","1830","0.233","27.13","0.686","27.38","NAN","NAN","NAN","NAN","NAN"],
    [1565078,"2026-08-04 04:40:00","1831","0.16","25.7","0.784","26.13","NAN","NAN","NAN","NAN","NAN"],
    [1565079,"2026-08-04 04:50:00","1832","0.092","23.7","0.588","24.54","NAN","NAN","NAN","NAN","NAN"],
    [1565080,"2026-08-04 05:00:00","1833","0.39799999999999996","350.9","1.372","333.3","NAN","NAN","NAN","NAN","NAN"],
    [1565081,"2026-08-04 05:10:00","1834","1.284","316.0","2.254","302.7","NAN","NAN","NAN","NAN","NAN"],
    [1565082,"2026-08-04 05:20:00","1835","0.8390000000000001","299.9","2.058","300.2","NAN","NAN","NAN","NAN","NAN"],
    [1565083,"2026-08-04 05:30:00","1836","0.615","299.4","1.078","299.5","NAN","NAN","NAN","NAN","NAN"],
    [1565084,"2026-08-04 05:40:00","1837","0.395","298.6","1.176","298.7","NAN","NAN","NAN","NAN","NAN"],
    [1565085,"2026-08-04 05:50:00","1838","0.368","297.7","1.274","297.2","NAN","NAN","NAN","NAN","NAN"],
    [1565086,"2026-08-04 06:00:00","1839","0.94","295.6","1.666","294.6","NAN","NAN","NAN","NAN","NAN"],
    [1565087,"2026-08-04 06:10:00","1840","0.48","293.4","0.98","293.3","NAN","NAN","NAN","NAN","NAN"],
    [1565088,"2026-08-04 06:20:00","1841","0.767","291.4","1.666","289.8","NAN","NAN","NAN","NAN","NAN"],
    [1565089,"2026-08-04 06:30:00","1842","0.623","289.6","1.47","289.7","NAN","NAN","NAN","NAN","NAN"],
    [1565090,"2026-08-04 06:40:00","1843","0.33","291.7","1.078","289.6","NAN","NAN","NAN","NAN","NAN"],
    [1565091,"2026-08-04 06:50:00","1844","0.574","296.3","1.47","288.9","NAN","NAN","NAN","NAN","NAN"],
    [1565092,"2026-08-04 07:00:00","1845","1.0959999999999999","288.1","2.058","287.8","NAN","NAN","NAN","NAN","NAN"],
    [1565093,"2026-08-04 07:10:00","1846","1.17","288.8","1.96","285.8","NAN","NAN","NAN","NAN","NAN"],
    [1565094,"2026-08-04 07:20:00","1847","0.763","292.0","2.45","293.3","NAN","NAN","NAN","NAN","NAN"],
    [1565095,"2026-08-04 07:30:00","1848","1.0859999999999999","285.2","2.45","293.3","NAN","NAN","NAN","NAN","NAN"],
    [1565096,"2026-08-04 07:40:00","1849","0.431","10.0","1.274","11.41","NAN","NAN","NAN","NAN","NAN"],
    [1565097,"2026-08-04 07:50:00","1850","1.147","60.62","2.744","71.37","NAN","NAN","NAN","NAN","NAN"],
    [1565098,"2026-08-04 08:00:00","1851","1.848","70.51","2.94","65.2","NAN","NAN","NAN","NAN","NAN"],
    [1565099,"2026-08-04 08:10:00","1852","1.5119999999999998","69.97","2.352","80.6","NAN","NAN","NAN","NAN","NAN"],
    [1565100,"2026-08-04 08:20:00","1853","2.005","85.8","3.332","64.72","NAN","NAN","NAN","NAN","NAN"],
    [1565101,"2026-08-04 08:30:00","1854","2.158","104.3","3.234","94.7","NAN","NAN","NAN","NAN","NAN"],
    [1565102,"2026-08-04 08:40:00","1855","2.175","102.2","3.626","98.4","NAN","NAN","NAN","NAN","NAN"],
    [1565103,"2026-08-04 08:50:00","1856","2.366","102.2","3.332","99.7","NAN","NAN","NAN","NAN","NAN"],
    [1565104,"2026-08-04 09:00:00","1857","2.394","104.0","3.92","87.5","NAN","NAN","NAN","NAN","NAN"],
    [1565105,"2026-08-04 09:10:00","1858","2.9019999999999997","95.8","4.018","78.39","NAN","NAN","NAN","NAN","NAN"],
    [1565106,"2026-08-04 09:20:00","1859","3.071","95.4","4.508","84.9","NAN","NAN","NAN","NAN","NAN"],
    [1565107,"2026-08-04 09:30:00","1860","2.9960000000000004","103.3","4.704","75.23","NAN","NAN","NAN","NAN","NAN"],
    [1565108,"2026-08-04 09:40:00","1861","3.242","104.3","4.802","84.8","NAN","NAN","NAN","NAN","NAN"],
    [1565109,"2026-08-04 09:50:00","1862","3.681","113.5","5.782","124.2","NAN","NAN","NAN","NAN","NAN"],
    [1565110,"2026-08-04 10:00:00","1863","3.95","96.2","5.978","87.6","NAN","NAN","NAN","NAN","NAN"],
    [1565111,"2026-08-04 10:10:00","1864","3.3369999999999997","100.4","5.978","87.6","NAN","NAN","NAN","NAN","NAN"],
    [1565112,"2026-08-04 10:20:00","1865","3.6310000000000002","120.1","6.468","117.2","NAN","NAN","NAN","NAN","NAN"],
    [1565113,"2026-08-04 10:30:00","1866","3.8489999999999998","123.4","5.684","140.2","NAN","NAN","NAN","NAN","NAN"],
    [1565114,"2026-08-04 10:40:00","1867","3.8689999999999998","122.0","5.684","120","NAN","NAN","NAN","NAN","NAN"],
    [1565115,"2026-08-04 10:50:00","1868","3.7119999999999997","111.8","5.586","108.7","NAN","NAN","NAN","NAN","NAN"],
    [1565116,"2026-08-04 11:00:00","1869","4.388999999999999","112.8","6.272","109.1","NAN","NAN","NAN","NAN","NAN"],
    [1565117,"2026-08-04 11:10:00","1870","4.338","115.4","6.272","115.7","NAN","NAN","NAN","NAN","NAN"],
    [1565118,"2026-08-04 11:20:00","1871","3.6260000000000003","117.4","5.586","111.2","NAN","NAN","NAN","NAN","NAN"],
    [1565119,"2026-08-04 11:30:00","1872","4.046","127.5","5.88","106.5","NAN","NAN","NAN","NAN","NAN"],
    [1565120,"2026-08-04 11:40:00","1873","3.708","124.0","6.076","139.9","NAN","NAN","NAN","NAN","NAN"],
    [1565121,"2026-08-04 11:50:00","1874","3.552","122.2","5.39","135.2","NAN","NAN","NAN","NAN","NAN"],
    [1565122,"2026-08-04 12:00:00","1875","3.826","125.0","5.586","132.6","NAN","NAN","NAN","NAN","NAN"],
    [1565123,"2026-08-04 12:10:00","1876","3.5060000000000002","122.0","5.194","135.3","NAN","NAN","NAN","NAN","NAN"],
    [1565124,"2026-08-04 12:20:00","1877","4.654","134.0","6.566","131.7","NAN","NAN","NAN","NAN","NAN"],
    [1565125,"2026-08-04 12:30:00","1878","3.7760000000000002","123.4","5.978","144","NAN","NAN","NAN","NAN","NAN"],
    [1565126,"2026-08-04 12:40:00","1879","3.8680000000000003","111.3","5.586","83.6","NAN","NAN","NAN","NAN","NAN"],
    [1565127,"2026-08-04 12:50:00","1880","3.839","116.5","5.978","110.8","NAN","NAN","NAN","NAN","NAN"],
    [1565128,"2026-08-04 13:00:00","1881","3.69","130.9","5.684","140.9","NAN","NAN","NAN","NAN","NAN"],
    [1565129,"2026-08-04 13:10:00","1882","3.094","123.5","5.292","134.1","NAN","NAN","NAN","NAN","NAN"],
    [1565130,"2026-08-04 13:20:00","1883","2.9760000000000004","116.7","4.606","143.9","NAN","NAN","NAN","NAN","NAN"],
    [1565131,"2026-08-04 13:30:00","1884","3.009","131.6","5.194","130","NAN","NAN","NAN","NAN","NAN"],
    [1565132,"2026-08-04 13:40:00","1885","2.3569999999999998","134.6","3.43","152.6","NAN","NAN","NAN","NAN","NAN"],
    [1565133,"2026-08-04 13:50:00","1886","2.8160000000000003","130.9","4.312","129.7","NAN","NAN","NAN","NAN","NAN"],
    [1565134,"2026-08-04 14:00:00","1887","2.82","134.2","4.116","142.4","NAN","NAN","NAN","NAN","NAN"],
    [1565135,"2026-08-04 14:10:00","1888","2.141","135.7","3.528","127.4","NAN","NAN","NAN","NAN","NAN"],
    [1565136,"2026-08-04 14:20:00","1889","2.0469999999999997","114.6","3.626","116.6","NAN","NAN","NAN","NAN","NAN"],
    [1565137,"2026-08-04 14:30:00","1890","2.396","116.3","4.018","97.2","NAN","NAN","NAN","NAN","NAN"],
    [1565138,"2026-08-04 14:40:00","1891","2.6039999999999996","116.0","4.312","97.1","NAN","NAN","NAN","NAN","NAN"],
    [1565139,"2026-08-04 14:50:00","1892","2.978","131.8","4.9","138.2","NAN","NAN","NAN","NAN","NAN"],
    [1565140,"2026-08-04 15:00:00","1893","2.4730000000000003","107.9","4.214","103.1","NAN","NAN","NAN","NAN","NAN"],
    [1565141,"2026-08-04 15:10:00","1894","2.719","118.6","3.92","124.6","NAN","NAN","NAN","NAN","NAN"],
    [1565142,"2026-08-04 15:20:00","1895","2.875","117.6","4.312","141.8","NAN","NAN","NAN","NAN","NAN"],
    [1565143,"2026-08-04 15:30:00","1896","3.0839999999999996","124.8","4.508","130","NAN","NAN","NAN","NAN","NAN"],
    [1565144,"2026-08-04 15:40:00","1897","2.912","117.6","4.802","132.4","NAN","NAN","NAN","NAN","NAN"],
    [1565145,"2026-08-04 15:50:00","1898","2.6069999999999998","133.9","4.214","143.3","NAN","NAN","NAN","NAN","NAN"],
    [1565146,"2026-08-04 16:00:00","1899","3.2030000000000003","120.7","4.9","153.2","NAN","NAN","NAN","NAN","NAN"],
    [1565147,"2026-08-04 16:10:00","1900","2.972","116.2","4.41","120.7","NAN","NAN","NAN","NAN","NAN"],
    [1565148,"2026-08-04 16:20:00","1901","2.931","119.2","4.41","144.9","NAN","NAN","NAN","NAN","NAN"],
    [1565149,"2026-08-04 16:30:00","1902","2.577","110.9","4.018","145.3","NAN","NAN","NAN","NAN","NAN"],
    [1565150,"2026-08-04 16:40:00","1903","2.722","124.3","3.92","109.2","NAN","NAN","NAN","NAN","NAN"],
    [1565151,"2026-08-04 16:50:00","1904","2.371","131.6","3.92","102.5","NAN","NAN","NAN","NAN","NAN"],
    [1565152,"2026-08-04 17:00:00","1905","2.095","126.5","3.234","132","NAN","NAN","NAN","NAN","NAN"],
    [1565153,"2026-08-04 17:10:00","1906","2.43","110.9","3.822","120.6","NAN","NAN","NAN","NAN","NAN"],
    [1565154,"2026-08-04 17:20:00","1907","2.173","124.3","3.724","137.8","NAN","NAN","NAN","NAN","NAN"],
    [1565155,"2026-08-04 17:30:00","1908","2.1790000000000003","116.3","3.626","118.2","NAN","NAN","NAN","NAN","NAN"],
    [1565156,"2026-08-04 17:40:00","1909","2.181","95.3","3.234","90.6","NAN","NAN","NAN","NAN","NAN"],
    [1565157,"2026-08-04 17:50:00","1910","1.642","107.2","2.842","69.81","NAN","NAN","NAN","NAN","NAN"],
    [1565158,"2026-08-04 18:00:00","1911","1.124","115.7","2.646","140.3","NAN","NAN","NAN","NAN","NAN"],
    [1565159,"2026-08-04 18:10:00","1912","1.2990000000000002","132.6","2.352","120.3","NAN","NAN","NAN","NAN","NAN"],
    [1565160,"2026-08-04 18:20:00","1913","1.534","153.3","2.45","172.1","NAN","NAN","NAN","NAN","NAN"],
    [1565161,"2026-08-04 18:30:00","1914","0.733","156.7","1.568","163.7","NAN","NAN","NAN","NAN","NAN"],
    [1565162,"2026-08-04 18:40:00","1915","1.505","136.3","2.45","132.3","NAN","NAN","NAN","NAN","NAN"],
    [1565163,"2026-08-04 18:50:00","1916","0.7020000000000001","136.5","1.764","137.7","NAN","NAN","NAN","NAN","NAN"],
    [1565164,"2026-08-04 19:00:00","1917","1.081","129.2","1.862","132.5","NAN","NAN","NAN","NAN","NAN"],
    [1565165,"2026-08-04 19:10:00","1918","0.838","133.0","1.764","120.9","NAN","NAN","NAN","NAN","NAN"],
    [1565166,"2026-08-04 19:20:00","1919","0.127","137.2","0.784","132.5","NAN","NAN","NAN","NAN","NAN"],
    [1565167,"2026-08-04 19:30:00","1920","1.5959999999999999","230.4","2.646","229.4","NAN","NAN","NAN","NAN","NAN"],
    [1565168,"2026-08-04 19:40:00","1921","1.4140000000000001","240.0","2.744","244","NAN","NAN","NAN","NAN","NAN"],
    [1565169,"2026-08-04 19:50:00","1922","1.5730000000000002","235.1","2.45","243.7","NAN","NAN","NAN","NAN","NAN"],
    [1565170,"2026-08-04 20:00:00","1923","1.2890000000000001","247.3","2.156","248.3","NAN","NAN","NAN","NAN","NAN"],
    [1565171,"2026-08-04 20:10:00","1924","1.7269999999999999","247.5","2.254","248.3","NAN","NAN","NAN","NAN","NAN"],
    [1565172,"2026-08-04 20:20:00","1925","0.698","248.9","1.568","248.9","NAN","NAN","NAN","NAN","NAN"],
    [1565173,"2026-08-04 20:30:00","1926","0.308","249.0","0.882","249.1","NAN","NAN","NAN","NAN","NAN"],
    [1565174,"2026-08-04 20:40:00","1927","0.222","249.0","1.078","249.1","NAN","NAN","NAN","NAN","NAN"],
    [1565175,"2026-08-04 20:50:00","1928","1.046","247.9","1.666","244.5","NAN","NAN","NAN","NAN","NAN"],
    [1565176,"2026-08-04 21:00:00","1929","0.903","234.2","1.666","227.4","NAN","NAN","NAN","NAN","NAN"],
    [1565177,"2026-08-04 21:10:00","1930","1.122","222.7","2.45","220.2","NAN","NAN","NAN","NAN","NAN"],
    [1565178,"2026-08-04 21:20:00","1931","0.531","231.8","1.078","233.5","NAN","NAN","NAN","NAN","NAN"],
    [1565179,"2026-08-04 21:30:00","1932","0.81","236.4","1.47","237.8","NAN","NAN","NAN","NAN","NAN"],
    [1565180,"2026-08-04 21:40:00","1933","1.5519999999999998","243.4","2.058","243.5","NAN","NAN","NAN","NAN","NAN"],
    [1565181,"2026-08-04 21:50:00","1934","1.4909999999999999","247.4","2.058","246.4","NAN","NAN","NAN","NAN","NAN"],
    [1565182,"2026-08-04 22:00:00","1935","1.6740000000000002","249.6","2.646","251.6","NAN","NAN","NAN","NAN","NAN"],
    [1565183,"2026-08-04 22:10:00","1936","2.314","262.6","3.626","272.3","NAN","NAN","NAN","NAN","NAN"],
    [1565184,"2026-08-04 22:20:00","1937","2.6839999999999997","268.7","3.92","269.9","NAN","NAN","NAN","NAN","NAN"],
    [1565185,"2026-08-04 22:30:00","1938","2.312","259.1","3.332","268.6","NAN","NAN","NAN","NAN","NAN"],
    [1565186,"2026-08-04 22:40:00","1939","2.6660000000000004","264.2","3.724","273.1","NAN","NAN","NAN","NAN","NAN"],
    [1565187,"2026-08-04 22:50:00","1940","2.423","269.4","4.214","265.1","NAN","NAN","NAN","NAN","NAN"],
    [1565188,"2026-08-04 23:00:00","1941","2.128","276.9","3.234","279.3","NAN","NAN","NAN","NAN","NAN"],
    [1565189,"2026-08-04 23:10:00","1942","2.025","277.4","3.136","287.9","NAN","NAN","NAN","NAN","NAN"],
    [1565190,"2026-08-04 23:20:00","1943","1.726","272.6","2.744","267.9","NAN","NAN","NAN","NAN","NAN"],
    [1565191,"2026-08-04 23:30:00","1944","1.913","271.3","2.842","272.2","NAN","NAN","NAN","NAN","NAN"],
    [1565192,"2026-08-04 23:40:00","1945","2.553","261.4","3.724","262.5","NAN","NAN","NAN","NAN","NAN"],
    [1565193,"2026-08-04 23:50:00","1946","1.959","262.0","3.136","263.8","NAN","NAN","NAN","NAN","NAN"],
    [1565194,"2026-08-05 00:00:00","1947","1.9340000000000002","275.2","2.744","268.5","NAN","NAN","NAN","NAN","NAN"],
    [1565195,"2026-08-05 00:10:00","1948","1.65","276.7","2.744","265.8","NAN","NAN","NAN","NAN","NAN"],
    [1565196,"2026-08-05 00:20:00","1949","1.061","280.5","1.96","278.7","NAN","NAN","NAN","NAN","NAN"],
    [1565197,"2026-08-05 00:30:00","1950","1.18","281.0","1.666","281.8","NAN","NAN","NAN","NAN","NAN"],
    [1565198,"2026-08-05 00:40:00","1951","1.495","276.5","2.156","273","NAN","NAN","NAN","NAN","NAN"],
    [1565199,"2026-08-05 00:50:00","1952","0.9440000000000001","277.3","2.156","278.4","NAN","NAN","NAN","NAN","NAN"],
    [1565200,"2026-08-05 01:00:00","1953","1.083","278.1","1.568","273.1","NAN","NAN","NAN","NAN","NAN"],
    [1565201,"2026-08-05 01:10:00","1954","1.0290000000000001","280.9","1.568","277.4","NAN","NAN","NAN","NAN","NAN"],
    [1565202,"2026-08-05 01:20:00","1955","1.36","282.1","2.058","282.6","NAN","NAN","NAN","NAN","NAN"],
    [1565203,"2026-08-05 01:30:00","1956","1.851","279.9","2.548","278.5","NAN","NAN","NAN","NAN","NAN"],
    [1565204,"2026-08-05 01:40:00","1957","1.247","281.0","1.764","283.2","NAN","NAN","NAN","NAN","NAN"],
    [1565205,"2026-08-05 01:50:00","1958","1.367","280.6","2.156","283.6","NAN","NAN","NAN","NAN","NAN"],
    [1565206,"2026-08-05 02:00:00","1959","1.128","280.4","2.058","277","NAN","NAN","NAN","NAN","NAN"],
    [1565207,"2026-08-05 02:10:00","1960","1.4469999999999998","282.2","2.058","279.5","NAN","NAN","NAN","NAN","NAN"],
    [1565208,"2026-08-05 02:20:00","1961","1.3940000000000001","282.3","2.548","273.9","NAN","NAN","NAN","NAN","NAN"],
    [1565209,"2026-08-05 02:30:00","1962","0.068","286.1","0.49","286","NAN","NAN","NAN","NAN","NAN"],
    [1565210,"2026-08-05 02:40:00","1963","0.31","283.3","1.078","282.8","NAN","NAN","NAN","NAN","NAN"],
    [1565211,"2026-08-05 02:50:00","1964","0.431","277.3","1.176","277","NAN","NAN","NAN","NAN","NAN"],
    [1565212,"2026-08-05 03:00:00","1965","1.318","280.6","1.764","285.1","NAN","NAN","NAN","NAN","NAN"],
    [1565213,"2026-08-05 03:10:00","1966","1.527","279.9","2.45","275.5","NAN","NAN","NAN","NAN","NAN"],
    [1565214,"2026-08-05 03:20:00","1967","1.643","281.5","2.646","282.6","NAN","NAN","NAN","NAN","NAN"],
    [1565215,"2026-08-05 03:30:00","1968","1.5919999999999999","278.1","2.45","276.6","NAN","NAN","NAN","NAN","NAN"],
    [1565216,"2026-08-05 03:40:00","1969","2.055","280.1","2.842","278.1","NAN","NAN","NAN","NAN","NAN"],
    [1565217,"2026-08-05 03:50:00","1970","1.652","282.2","2.45","283.3","NAN","NAN","NAN","NAN","NAN"],
    [1565218,"2026-08-05 04:00:00","1971","1.632","286.2","2.45","278.2","NAN","NAN","NAN","NAN","NAN"],
    [1565219,"2026-08-05 04:10:00","1972","1.518","282.4","2.058","282.8","NAN","NAN","NAN","NAN","NAN"],
    [1565220,"2026-08-05 04:20:00","1973","1.493","276.5","2.254","273.1","NAN","NAN","NAN","NAN","NAN"],
    [1565221,"2026-08-05 04:30:00","1974","1.909","278.5","2.646","275.2","NAN","NAN","NAN","NAN","NAN"],
    [1565222,"2026-08-05 04:40:00","1975","1.83","282.0","2.744","271","NAN","NAN","NAN","NAN","NAN"],
    [1565223,"2026-08-05 04:50:00","1976","1.036","282.0","1.764","281.8","NAN","NAN","NAN","NAN","NAN"],
    [1565224,"2026-08-05 05:00:00","1977","1.198","283.1","1.666","276.6","NAN","NAN","NAN","NAN","NAN"],
    [1565225,"2026-08-05 05:10:00","1978","1.495","289.1","2.842","291.1","NAN","NAN","NAN","NAN","NAN"],
    [1565226,"2026-08-05 05:20:00","1979","1.121","288.3","2.352","295.4","NAN","NAN","NAN","NAN","NAN"],
    [1565227,"2026-08-05 05:30:00","1980","1.413","281.6","2.352","274","NAN","NAN","NAN","NAN","NAN"],
    [1565228,"2026-08-05 05:40:00","1981","1.1540000000000001","294.2","2.254","296.4","NAN","NAN","NAN","NAN","NAN"],
    [1565229,"2026-08-05 05:50:00","1982","1.46","289.1","2.94","293.7","NAN","NAN","NAN","NAN","NAN"],
    [1565230,"2026-08-05 06:00:00","1983","1.4509999999999998","297.3","2.352","289.2","NAN","NAN","NAN","NAN","NAN"],
    [1565231,"2026-08-05 06:10:00","1984","1.6","292.2","2.646","297.7","NAN","NAN","NAN","NAN","NAN"],
    [1565232,"2026-08-05 06:20:00","1985","1.186","290.9","2.94","290.8","NAN","NAN","NAN","NAN","NAN"],
    [1565233,"2026-08-05 06:30:00","1986","1.463","295.2","2.94","278.1","NAN","NAN","NAN","NAN","NAN"],
    [1565234,"2026-08-05 06:40:00","1987","1.892","288.5","3.038","294.6","NAN","NAN","NAN","NAN","NAN"],
    [1565235,"2026-08-05 06:50:00","1988","2.023","298.4","3.43","300.8","NAN","NAN","NAN","NAN","NAN"],
    [1565236,"2026-08-05 07:00:00","1989","2.3480000000000003","299.8","3.332","285.8","NAN","NAN","NAN","NAN","NAN"],
    [1565237,"2026-08-05 07:10:00","1990","2.146","287.9","3.528","290.9","NAN","NAN","NAN","NAN","NAN"],
    [1565238,"2026-08-05 07:20:00","1991","1.34","291.5","2.156","287.4","NAN","NAN","NAN","NAN","NAN"],
    [1565239,"2026-08-05 07:30:00","1992","0.16","290.3","1.078","293.3","NAN","NAN","NAN","NAN","NAN"],
    [1565240,"2026-08-05 07:40:00","1993","0.562","280.5","1.666","273.6","NAN","NAN","NAN","NAN","NAN"],
    [1565241,"2026-08-05 07:50:00","1994","1.203","15.38","2.744","89.5","NAN","NAN","NAN","NAN","NAN"],
    [1565242,"2026-08-05 08:00:00","1995","1.881","87.9","3.136","86.7","NAN","NAN","NAN","NAN","NAN"],
    [1565243,"2026-08-05 08:10:00","1996","1.528","84.9","2.94","86.2","NAN","NAN","NAN","NAN","NAN"],
    [1565244,"2026-08-05 08:20:00","1997","1.063","92.0","2.254","98.5","NAN","NAN","NAN","NAN","NAN"],
    [1565245,"2026-08-05 08:30:00","1998","1.2229999999999999","95.5","2.254","76.87","NAN","NAN","NAN","NAN","NAN"],
    [1565246,"2026-08-05 08:40:00","1999","1.5090000000000001","134.7","2.744","170.3","NAN","NAN","NAN","NAN","NAN"],
    [1565247,"2026-08-05 08:50:00","2000","1.464","136.6","2.842","136.9","NAN","NAN","NAN","NAN","NAN"],
    [1565248,"2026-08-05 09:00:00","2001","1.9269999999999998","115.6","3.332","117.2","NAN","NAN","NAN","NAN","NAN"],
    [1565249,"2026-08-05 09:10:00","2002","1.7180000000000002","120.5","3.332","147.4","NAN","NAN","NAN","NAN","NAN"],
    [1565250,"2026-08-05 09:20:00","2003","1.608","126.2","2.646","124.3","NAN","NAN","NAN","NAN","NAN"],
    [1565251,"2026-08-05 09:30:00","2004","2.505","108.1","3.92","120.4","NAN","NAN","NAN","NAN","NAN"],
    [1565252,"2026-08-05 09:40:00","2005","2.211","115.5","3.626","126","NAN","NAN","NAN","NAN","NAN"],
    [1565253,"2026-08-05 09:50:00","2006","2.524","126.1","3.626","108","NAN","NAN","NAN","NAN","NAN"],
    [1565254,"2026-08-05 10:00:00","2007","2.406","123.3","4.018","101.1","NAN","NAN","NAN","NAN","NAN"],
    [1565255,"2026-08-05 10:10:00","2008","2.521","121.7","3.92","141.5","NAN","NAN","NAN","NAN","NAN"],
    [1565256,"2026-08-05 10:20:00","2009","2.7569999999999997","115.1","3.822","114.4","NAN","NAN","NAN","NAN","NAN"],
    [1565257,"2026-08-05 10:30:00","2010","2.773","137.3","4.116","169.4","NAN","NAN","NAN","NAN","NAN"],
    [1565258,"2026-08-05 10:40:00","2011","3.33","159.3","4.802","162.4","NAN","NAN","NAN","NAN","NAN"],
    [1565259,"2026-08-05 10:50:00","2012","2.9539999999999997","170.7","5.096","154.8","NAN","NAN","NAN","NAN","NAN"],
    [1565260,"2026-08-05 11:00:00","2013","3.053","187.7","5.194","237.6","NAN","NAN","NAN","NAN","NAN"],
    [1565261,"2026-08-05 11:10:00","2014","3.535","173.3","6.762","170.2","NAN","NAN","NAN","NAN","NAN"],
    [1565262,"2026-08-05 11:20:00","2015","3.766","177.5","5.684","151.2","NAN","NAN","NAN","NAN","NAN"],
    [1565263,"2026-08-05 11:30:00","2016","3.696","185.8","6.174","168.8","NAN","NAN","NAN","NAN","NAN"],
    [1565264,"2026-08-05 11:40:00","2017","3.904","195.8","6.468","217","NAN","NAN","NAN","NAN","NAN"],
    [1565265,"2026-08-05 11:50:00","2018","4.345","205.4","6.566","222.5","NAN","NAN","NAN","NAN","NAN"],
    [1565266,"2026-08-05 12:00:00","2019","4.227","198.4","7.154","211.3","NAN","NAN","NAN","NAN","NAN"],
    [1565267,"2026-08-05 12:10:00","2020","3.969","197.3","7.35","211","NAN","NAN","NAN","NAN","NAN"],
    [1565268,"2026-08-05 12:20:00","2021","3.975","199.6","7.35","236.3","NAN","NAN","NAN","NAN","NAN"],
    [1565269,"2026-08-05 12:30:00","2022","4.524","215.6","6.958","221.9","NAN","NAN","NAN","NAN","NAN"],
    [1565270,"2026-08-05 12:40:00","2023","3.4930000000000003","193.9","6.272","191.8","NAN","NAN","NAN","NAN","NAN"],
    [1565271,"2026-08-05 12:50:00","2024","4.369","208.6","7.938","238.7","NAN","NAN","NAN","NAN","NAN"],
    [1565272,"2026-08-05 13:00:00","2025","4.503","212.0","6.958","220.7","NAN","NAN","NAN","NAN","NAN"],
    [1565273,"2026-08-05 13:10:00","2026","4.2139999999999995","211.3","6.468","203.9","NAN","NAN","NAN","NAN","NAN"],
    [1565274,"2026-08-05 13:20:00","2027","4.511","210.3","6.762","226.6","NAN","NAN","NAN","NAN","NAN"],
    [1565275,"2026-08-05 13:30:00","2028","4.393","215.8","6.566","222.8","NAN","NAN","NAN","NAN","NAN"],
    [1565276,"2026-08-05 13:40:00","2029","4.132","224.1","6.566","214.3","NAN","NAN","NAN","NAN","NAN"],
    [1565277,"2026-08-05 13:50:00","2030","3.8560000000000003","221.3","8.13","229.3","NAN","NAN","NAN","NAN","NAN"],
    [1565278,"2026-08-05 14:00:00","2031","4.546","217.9","7.546","226","NAN","NAN","NAN","NAN","NAN"],
    [1565279,"2026-08-05 14:10:00","2032","4.452","223.3","7.938","203.9","NAN","NAN","NAN","NAN","NAN"],
    [1565280,"2026-08-05 14:20:00","2033","4.263999999999999","209.1","6.762","209.6","NAN","NAN","NAN","NAN","NAN"],
    [1565281,"2026-08-05 14:30:00","2034","4.092","214.1","7.35","225.5","NAN","NAN","NAN","NAN","NAN"],
    [1565282,"2026-08-05 14:40:00","2035","3.951","216.0","7.448","232.4","NAN","NAN","NAN","NAN","NAN"],
    [1565283,"2026-08-05 14:50:00","2036","3.988","228.5","6.37","211.6","NAN","NAN","NAN","NAN","NAN"],
    [1565284,"2026-08-05 15:00:00","2037","4.982","225.2","8.13","216.3","NAN","NAN","NAN","NAN","NAN"],
    [1565285,"2026-08-05 15:10:00","2038","4.342","219.8","7.154","220.2","NAN","NAN","NAN","NAN","NAN"],
    [1565286,"2026-08-05 15:20:00","2039","4.2139999999999995","213.6","7.154","218.8","NAN","NAN","NAN","NAN","NAN"],
    [1565287,"2026-08-05 15:30:00","2040","4.47","212.1","7.252","197.5","NAN","NAN","NAN","NAN","NAN"],
    [1565288,"2026-08-05 15:40:00","2041","4.391","217.4","7.84","202.5","NAN","NAN","NAN","NAN","NAN"],
    [1565289,"2026-08-05 15:50:00","2042","4.595","226.5","7.35","241.2","NAN","NAN","NAN","NAN","NAN"],
    [1565290,"2026-08-05 16:00:00","2043","4.57","224.3","8.13","207.6","NAN","NAN","NAN","NAN","NAN"],
    [1565291,"2026-08-05 16:10:00","2044","4.676","213.4","7.154","252.1","NAN","NAN","NAN","NAN","NAN"],
    [1565292,"2026-08-05 16:20:00","2045","4.7219999999999995","228.7","7.154","252.1","NAN","NAN","NAN","NAN","NAN"],
    [1565293,"2026-08-05 16:30:00","2046","4.046","219.1","7.252","222.4","NAN","NAN","NAN","NAN","NAN"],
    [1565294,"2026-08-05 16:40:00","2047","4.135","219.6","6.762","247.8","NAN","NAN","NAN","NAN","NAN"],
    [1565295,"2026-08-05 16:50:00","2048","4.107","220.8","7.154","224.1","NAN","NAN","NAN","NAN","NAN"],
    [1565296,"2026-08-05 17:00:00","2049","4.261","228.3","7.252","240.6","NAN","NAN","NAN","NAN","NAN"],
    [1565297,"2026-08-05 17:10:00","2050","3.645","211.0","5.684","155.9","NAN","NAN","NAN","NAN","NAN"],
    [1565298,"2026-08-05 17:20:00","2051","3.065","217.8","4.704","224.3","NAN","NAN","NAN","NAN","NAN"],
    [1565299,"2026-08-05 17:30:00","2052","2.668","212.2","4.214","216.5","NAN","NAN","NAN","NAN","NAN"],
    [1565300,"2026-08-05 17:40:00","2053","2.886","232.6","5.194","225.3","NAN","NAN","NAN","NAN","NAN"],
    [1565301,"2026-08-05 17:50:00","2054","3.01","221.4","4.9","226.6","NAN","NAN","NAN","NAN","NAN"],
    [1565302,"2026-08-05 18:00:00","2055","2.9530000000000003","224.5","4.998","204.5","NAN","NAN","NAN","NAN","NAN"],
    [1565303,"2026-08-05 18:10:00","2056","2.775","218.3","5.096","239.1","NAN","NAN","NAN","NAN","NAN"],
    [1565304,"2026-08-05 18:20:00","2057","2.8989999999999996","212.6","4.998","207.1","NAN","NAN","NAN","NAN","NAN"],
    [1565305,"2026-08-05 18:30:00","2058","2.983","211.0","4.606","207.5","NAN","NAN","NAN","NAN","NAN"],
    [1565306,"2026-08-05 18:40:00","2059","2.9589999999999996","209.0","5.292","211.9","NAN","NAN","NAN","NAN","NAN"],
    [1565307,"2026-08-05 18:50:00","2060","2.405","218.9","3.724","221.9","NAN","NAN","NAN","NAN","NAN"],
    [1565308,"2026-08-05 19:00:00","2061","2.126","212.3","3.822","212.8","NAN","NAN","NAN","NAN","NAN"],
    [1565309,"2026-08-05 19:10:00","2062","2.096","219.5","3.332","225.6","NAN","NAN","NAN","NAN","NAN"],
    [1565310,"2026-08-05 19:20:00","2063","1.811","221.7","3.136","217.8","NAN","NAN","NAN","NAN","NAN"],
    [1565311,"2026-08-05 19:30:00","2064","1.8780000000000001","215.2","2.842","207.9","NAN","NAN","NAN","NAN","NAN"],
    [1565312,"2026-08-05 19:40:00","2065","1.693","210.0","3.038","205.9","NAN","NAN","NAN","NAN","NAN"],
    [1565313,"2026-08-05 19:50:00","2066","1.084","210.9","2.156","201.7","NAN","NAN","NAN","NAN","NAN"],
    [1565314,"2026-08-05 20:00:00","2067","1.486","213.2","3.234","217.4","NAN","NAN","NAN","NAN","NAN"],
    [1565315,"2026-08-05 20:10:00","2068","1.645","216.6","2.744","204.4","NAN","NAN","NAN","NAN","NAN"],
    [1565316,"2026-08-05 20:20:00","2069","1.329","213.8","2.254","209.6","NAN","NAN","NAN","NAN","NAN"],
    [1565317,"2026-08-05 20:30:00","2070","1.294","212.9","2.646","204.9","NAN","NAN","NAN","NAN","NAN"],
    [1565318,"2026-08-05 20:40:00","2071","1.261","219.3","2.058","229.3","NAN","NAN","NAN","NAN","NAN"],
    [1565319,"2026-08-05 20:50:00","2072","1.46","210.8","2.156","205.8","NAN","NAN","NAN","NAN","NAN"],
    [1565320,"2026-08-05 21:00:00","2073","0.7609999999999999","205.7","1.568","205.4","NAN","NAN","NAN","NAN","NAN"],
    [1565321,"2026-08-05 21:10:00","2074","0.706","205.9","1.568","219.4","NAN","NAN","NAN","NAN","NAN"],
    [1565322,"2026-08-05 21:20:00","2075","0.138","206.5","0.784","204.9","NAN","NAN","NAN","NAN","NAN"],
    [1565323,"2026-08-05 21:30:00","2076","0.0","0.0","0","215.3","NAN","NAN","NAN","NAN","NAN"],
    [1565324,"2026-08-05 21:40:00","2077","0.002","204.9","0.098","204.9","NAN","NAN","NAN","NAN","NAN"],
    [1565325,"2026-08-05 21:50:00","2078","0.044000000000000004","227.8","0.392","229","NAN","NAN","NAN","NAN","NAN"],
    [1565326,"2026-08-05 22:00:00","2079","0.183","229.1","0.686","229.2","NAN","NAN","NAN","NAN","NAN"],
    [1565327,"2026-08-05 22:10:00","2080","0.028999999999999998","229.2","0.392","229.2","NAN","NAN","NAN","NAN","NAN"],
    [1565328,"2026-08-05 22:20:00","2081","0.0","0.0","0","229.2","NAN","NAN","NAN","NAN","NAN"],
    [1565329,"2026-08-05 22:30:00","2082","0.003","229.2","0.196","229.2","NAN","NAN","NAN","NAN","NAN"],
    [1565330,"2026-08-05 22:40:00","2083","0.335","229.3","0.882","229.3","NAN","NAN","NAN","NAN","NAN"],
    [1565331,"2026-08-05 22:50:00","2084","0.971","229.7","1.372","229.6","NAN","NAN","NAN","NAN","NAN"],
    [1565332,"2026-08-05 23:00:00","2085","0.742","229.9","1.176","229.9","NAN","NAN","NAN","NAN","NAN"],
    [1565333,"2026-08-05 23:10:00","2086","0.33899999999999997","230.0","0.784","230","NAN","NAN","NAN","NAN","NAN"],
    [1565334,"2026-08-05 23:20:00","2087","0.501","230.0","0.882","230.1","NAN","NAN","NAN","NAN","NAN"],
    [1565335,"2026-08-05 23:30:00","2088","0.7879999999999999","230.1","1.47","230.4","NAN","NAN","NAN","NAN","NAN"],
    [1565336,"2026-08-05 23:40:00","2089","1.4169999999999998","231.0","2.058","231.4","NAN","NAN","NAN","NAN","NAN"],
    [1565337,"2026-08-05 23:50:00","2090","1.399","231.8","2.156","231.8","NAN","NAN","NAN","NAN","NAN"],
    [1565338,"2026-08-06 00:00:00","2091","1.148","232.4","1.764","232.3","NAN","NAN","NAN","NAN","NAN"],
    [1565339,"2026-08-06 00:10:00","2092","1.147","232.7","2.058","233.4","NAN","NAN","NAN","NAN","NAN"],
    [1565340,"2026-08-06 00:20:00","2093","1.385","234.4","2.352","235.8","NAN","NAN","NAN","NAN","NAN"],
    [1565341,"2026-08-06 00:30:00","2094","2.234","259.1","3.92","279.7","NAN","NAN","NAN","NAN","NAN"],
    [1565342,"2026-08-06 00:40:00","2095","2.872","281.1","4.214","284.7","NAN","NAN","NAN","NAN","NAN"],
    [1565343,"2026-08-06 00:50:00","2096","1.9480000000000002","291.0","3.724","274.7","NAN","NAN","NAN","NAN","NAN"],
    [1565344,"2026-08-06 01:00:00","2097","1.338","287.8","2.45","286.9","NAN","NAN","NAN","NAN","NAN"],
    [1565345,"2026-08-06 01:10:00","2098","1.494","281.7","1.96","285.9","NAN","NAN","NAN","NAN","NAN"],
    [1565346,"2026-08-06 01:20:00","2099","0.983","288.4","1.666","292.2","NAN","NAN","NAN","NAN","NAN"],
    [1565347,"2026-08-06 01:30:00","2100","0.37200000000000005","293.6","1.47","292.2","NAN","NAN","NAN","NAN","NAN"],
    [1565348,"2026-08-06 01:40:00","2101","0.023","294.1","0.49","294.1","NAN","NAN","NAN","NAN","NAN"],
    [1565349,"2026-08-06 01:50:00","2102","0.185","292.6","0.686","294.1","NAN","NAN","NAN","NAN","NAN"],
    [1565350,"2026-08-06 02:00:00","2103","0.025","293.3","0.196","292.8","NAN","NAN","NAN","NAN","NAN"],
    [1565351,"2026-08-06 02:10:00","2104","0.278","284.9","0.882","280.8","NAN","NAN","NAN","NAN","NAN"],
    [1565352,"2026-08-06 02:20:00","2105","0.884","278.5","1.47","277.1","NAN","NAN","NAN","NAN","NAN"],
    [1565353,"2026-08-06 02:30:00","2106","1.567","274.8","2.352","276.1","NAN","NAN","NAN","NAN","NAN"],
    [1565354,"2026-08-06 02:40:00","2107","1.6269999999999998","271.6","2.548","271.2","NAN","NAN","NAN","NAN","NAN"],
    [1565355,"2026-08-06 02:50:00","2108","1.7409999999999999","269.5","2.45","276.7","NAN","NAN","NAN","NAN","NAN"],
    [1565356,"2026-08-06 03:00:00","2109","1.35","270.4","2.156","268.1","NAN","NAN","NAN","NAN","NAN"],
    [1565357,"2026-08-06 03:10:00","2110","1.389","276.5","2.352","272.9","NAN","NAN","NAN","NAN","NAN"],
    [1565358,"2026-08-06 03:20:00","2111","1.486","277.4","2.156","284.5","NAN","NAN","NAN","NAN","NAN"],
    [1565359,"2026-08-06 03:30:00","2112","1.34","279.0","2.254","270.1","NAN","NAN","NAN","NAN","NAN"],
    [1565360,"2026-08-06 03:40:00","2113","1.8559999999999999","278.2","2.744","271.8","NAN","NAN","NAN","NAN","NAN"],
    [1565361,"2026-08-06 03:50:00","2114","1.791","281.7","3.332","295","NAN","NAN","NAN","NAN","NAN"],
    [1565362,"2026-08-06 04:00:00","2115","2.4819999999999998","281.0","3.822","289.3","NAN","NAN","NAN","NAN","NAN"],
    [1565363,"2026-08-06 04:10:00","2116","2.3890000000000002","283.5","4.606","284.2","NAN","NAN","NAN","NAN","NAN"],
    [1565364,"2026-08-06 04:20:00","2117","2.002","287.4","3.136","288.3","NAN","NAN","NAN","NAN","NAN"],
    [1565365,"2026-08-06 04:30:00","2118","1.974","280.9","3.136","275.8","NAN","NAN","NAN","NAN","NAN"],
    [1565366,"2026-08-06 04:40:00","2119","1.804","278.9","2.744","275.2","NAN","NAN","NAN","NAN","NAN"],
    [1565367,"2026-08-06 04:50:00","2120","1.672","281.8","2.548","291.7","NAN","NAN","NAN","NAN","NAN"],
    [1565368,"2026-08-06 05:00:00","2121","1.8090000000000002","279.3","2.842","269.4","NAN","NAN","NAN","NAN","NAN"],
    [1565369,"2026-08-06 05:10:00","2122","1.761","291.8","2.94","292.9","NAN","NAN","NAN","NAN","NAN"],
    [1565370,"2026-08-06 05:20:00","2123","1.78","289.4","3.136","287.7","NAN","NAN","NAN","NAN","NAN"],
    [1565371,"2026-08-06 05:30:00","2124","2.106","287.0","3.038","295.5","NAN","NAN","NAN","NAN","NAN"],
    [1565372,"2026-08-06 05:40:00","2125","1.953","287.7","2.94","278.2","NAN","NAN","NAN","NAN","NAN"],
    [1565373,"2026-08-06 05:50:00","2126","1.4","298.9","1.96","294.2","NAN","NAN","NAN","NAN","NAN"],
    [1565374,"2026-08-06 06:00:00","2127","0.9309999999999999","298.7","1.764","287.3","NAN","NAN","NAN","NAN","NAN"],
    [1565375,"2026-08-06 06:10:00","2128","0.636","299.9","1.764","287.3","NAN","NAN","NAN","NAN","NAN"],
    [1565376,"2026-08-06 06:20:00","2129","0.24","296.5","0.882","289.2","NAN","NAN","NAN","NAN","NAN"],
    [1565377,"2026-08-06 06:30:00","2130","0.679","281.8","1.666","278.3","NAN","NAN","NAN","NAN","NAN"],
    [1565378,"2026-08-06 06:40:00","2131","1.254","278.3","2.058","278.2","NAN","NAN","NAN","NAN","NAN"],
    [1565379,"2026-08-06 06:50:00","2132","0.29","297.9","0.98","288.7","NAN","NAN","NAN","NAN","NAN"],
    [1565380,"2026-08-06 07:00:00","2133","0.24","302.8","0.882","303.3","NAN","NAN","NAN","NAN","NAN"],
    [1565381,"2026-08-06 07:10:00","2134","0.759","356.0","1.47","32.28","NAN","NAN","NAN","NAN","NAN"],
    [1565382,"2026-08-06 07:20:00","2135","0.637","67.72","1.862","69.04","NAN","NAN","NAN","NAN","NAN"],
    [1565383,"2026-08-06 07:30:00","2136","0.8859999999999999","70.85","1.764","71.25","NAN","NAN","NAN","NAN","NAN"],
    [1565384,"2026-08-06 07:40:00","2137","1.344","73.33","2.744","74.91","NAN","NAN","NAN","NAN","NAN"],
    [1565385,"2026-08-06 07:50:00","2138","1.635","89.7","2.744","74.91","NAN","NAN","NAN","NAN","NAN"],
    [1565386,"2026-08-06 08:00:00","2139","2.153","86.4","3.332","77.86","NAN","NAN","NAN","NAN","NAN"],
    [1565387,"2026-08-06 08:10:00","2140","1.705","94.2","2.548","100","NAN","NAN","NAN","NAN","NAN"],
    [1565388,"2026-08-06 08:20:00","2141","2.045","113.6","3.234","131.1","NAN","NAN","NAN","NAN","NAN"],
    [1565389,"2026-08-06 08:30:00","2142","1.8159999999999998","117.0","2.744","120.5","NAN","NAN","NAN","NAN","NAN"],
    [1565390,"2026-08-06 08:40:00","2143","1.848","107.4","3.136","114","NAN","NAN","NAN","NAN","NAN"],
    [1565391,"2026-08-06 08:50:00","2144","1.95","119.0","3.136","132.6","NAN","NAN","NAN","NAN","NAN"],
    [1565392,"2026-08-06 09:00:00","2145","2.296","108.6","3.92","94.2","NAN","NAN","NAN","NAN","NAN"],
    [1565393,"2026-08-06 09:10:00","2146","2.185","109.8","3.136","110.4","NAN","NAN","NAN","NAN","NAN"],
    [1565394,"2026-08-06 09:20:00","2147","2.359","104.5","3.43","94.2","NAN","NAN","NAN","NAN","NAN"],
    [1565395,"2026-08-06 09:30:00","2148","2.125","110.0","3.332","92","NAN","NAN","NAN","NAN","NAN"],
    [1565396,"2026-08-06 09:40:00","2149","2.3040000000000003","129.7","3.626","107.2","NAN","NAN","NAN","NAN","NAN"],
    [1565397,"2026-08-06 09:50:00","2150","2.7119999999999997","140.5","4.704","139.6","NAN","NAN","NAN","NAN","NAN"],
    [1565398,"2026-08-06 10:00:00","2151","2.5610000000000004","126.9","4.312","128.2","NAN","NAN","NAN","NAN","NAN"],
    [1565399,"2026-08-06 10:10:00","2152","2.7289999999999996","125.9","4.41","108.4","NAN","NAN","NAN","NAN","NAN"],
    [1565400,"2026-08-06 10:20:00","2153","3.78","140.1","6.272","161.7","NAN","NAN","NAN","NAN","NAN"],
    [1565401,"2026-08-06 10:30:00","2154","3.359","138.3","5.586","143","NAN","NAN","NAN","NAN","NAN"],
    [1565402,"2026-08-06 10:40:00","2155","3.7539999999999996","144.7","5.684","146.7","NAN","NAN","NAN","NAN","NAN"],
    [1565403,"2026-08-06 10:50:00","2156","3.342","162.1","4.998","147.9","NAN","NAN","NAN","NAN","NAN"],
    [1565404,"2026-08-06 11:00:00","2157","3.576","164.5","5.488","175.6","NAN","NAN","NAN","NAN","NAN"],
    [1565405,"2026-08-06 11:10:00","2158","3.72","166.7","5.586","161.9","NAN","NAN","NAN","NAN","NAN"],
    [1565406,"2026-08-06 11:20:00","2159","2.821","181.9","4.998","176","NAN","NAN","NAN","NAN","NAN"],
    [1565407,"2026-08-06 11:30:00","2160","3.302","177.7","5.488","148.4","NAN","NAN","NAN","NAN","NAN"],
    [1565408,"2026-08-06 11:40:00","2161","3.3110000000000004","170.1","5.488","169.2","NAN","NAN","NAN","NAN","NAN"],
    [1565409,"2026-08-06 11:50:00","2162","3.823","179.3","6.37","213.5","NAN","NAN","NAN","NAN","NAN"],
    [1565410,"2026-08-06 12:00:00","2163","3.215","191.4","6.37","213.5","NAN","NAN","NAN","NAN","NAN"],
    [1565411,"2026-08-06 12:10:00","2164","3.1639999999999997","173.1","6.566","165.4","NAN","NAN","NAN","NAN","NAN"],
    [1565412,"2026-08-06 12:20:00","2165","3.304","191.0","6.468","204.3","NAN","NAN","NAN","NAN","NAN"],
    [1565413,"2026-08-06 12:30:00","2166","3.67","184.0","5.88","218.3","NAN","NAN","NAN","NAN","NAN"],
    [1565414,"2026-08-06 12:40:00","2167","3.7710000000000004","192.2","7.056","188.5","NAN","NAN","NAN","NAN","NAN"],
    [1565415,"2026-08-06 12:50:00","2168","3.945","204.9","6.076","211.9","NAN","NAN","NAN","NAN","NAN"],
    [1565416,"2026-08-06 13:00:00","2169","4.478","175.0","6.664","179.4","NAN","NAN","NAN","NAN","NAN"],
    [1565417,"2026-08-06 13:10:00","2170","4.263999999999999","195.6","6.958","143.9","NAN","NAN","NAN","NAN","NAN"],
    [1565418,"2026-08-06 13:20:00","2171","3.984","188.2","6.762","176.9","NAN","NAN","NAN","NAN","NAN"],
    [1565419,"2026-08-06 13:30:00","2172","3.699","190.8","6.468","218.2","NAN","NAN","NAN","NAN","NAN"],
    [1565420,"2026-08-06 13:40:00","2173","3.707","194.3","6.37","165.5","NAN","NAN","NAN","NAN","NAN"],
    [1565421,"2026-08-06 13:50:00","2174","3.8","189.8","5.88","151.2","NAN","NAN","NAN","NAN","NAN"],
    [1565422,"2026-08-06 14:00:00","2175","4.047","196.6","7.154","201.5","NAN","NAN","NAN","NAN","NAN"],
    [1565423,"2026-08-06 14:10:00","2176","3.673","200.9","6.468","200.2","NAN","NAN","NAN","NAN","NAN"],
    [1565424,"2026-08-06 14:20:00","2177","4.643","200.1","7.35","221.1","NAN","NAN","NAN","NAN","NAN"],
    [1565425,"2026-08-06 14:30:00","2178","3.9530000000000003","204.4","5.782","212.8","NAN","NAN","NAN","NAN","NAN"],
    [1565426,"2026-08-06 14:40:00","2179","3.5380000000000003","200.6","6.566","179.7","NAN","NAN","NAN","NAN","NAN"],
    [1565427,"2026-08-06 14:50:00","2180","4.2219999999999995","189.1","7.84","176.5","NAN","NAN","NAN","NAN","NAN"],
    [1565428,"2026-08-06 15:00:00","2181","3.838","195.2","6.664","222.5","NAN","NAN","NAN","NAN","NAN"],
    [1565429,"2026-08-06 15:10:00","2182","3.897","202.1","6.468","179","NAN","NAN","NAN","NAN","NAN"],
    [1565430,"2026-08-06 15:20:00","2183","4.453","210.5","7.056","243.6","NAN","NAN","NAN","NAN","NAN"],
    [1565431,"2026-08-06 15:30:00","2184","4.457","207.5","6.86","212.1","NAN","NAN","NAN","NAN","NAN"],
    [1565432,"2026-08-06 15:40:00","2185","3.181","200.4","5.88","180.1","NAN","NAN","NAN","NAN","NAN"],
    [1565433,"2026-08-06 15:50:00","2186","3.062","205.8","6.272","212.8","NAN","NAN","NAN","NAN","NAN"],
    [1565434,"2026-08-06 16:00:00","2187","2.7680000000000002","212.0","4.606","224.2","NAN","NAN","NAN","NAN","NAN"],
    [1565435,"2026-08-06 16:10:00","2188","3.036","214.7","4.9","223.8","NAN","NAN","NAN","NAN","NAN"],
    [1565436,"2026-08-06 16:20:00","2189","2.066","233.5","4.802","211.7","NAN","NAN","NAN","NAN","NAN"],
    [1565437,"2026-08-06 16:30:00","2190","1.429","255.5","3.038","257.1","NAN","NAN","NAN","NAN","NAN"],
    [1565438,"2026-08-06 16:40:00","2191","0.875","277.7","2.254","305.6","NAN","NAN","NAN","NAN","NAN"],
    [1565439,"2026-08-06 16:50:00","2192","3.11","314.2","6.86","45.34","NAN","NAN","NAN","NAN","NAN"],
    [1565440,"2026-08-06 17:00:00","2193","5.431","9.92","8.04","11.26","NAN","NAN","NAN","NAN","NAN"],
    [1565441,"2026-08-06 17:10:00","2194","4.957","28.45","7.742","36.04","NAN","NAN","NAN","NAN","NAN"],
    [1565442,"2026-08-06 17:20:00","2195","4.695","352.9","8.82","2.863","NAN","NAN","NAN","NAN","NAN"],
    [1565443,"2026-08-06 17:30:00","2196","5.2829999999999995","13.75","9.02","25.64","NAN","NAN","NAN","NAN","NAN"],
    [1565444,"2026-08-06 17:40:00","2197","3.201","39.01","5.684","20.54","NAN","NAN","NAN","NAN","NAN"],
    [1565445,"2026-08-06 17:50:00","2198","2.358","47.16","4.018","60.6","NAN","NAN","NAN","NAN","NAN"],
    [1565446,"2026-08-06 18:00:00","2199","1.98","111.6","3.626","121.4","NAN","NAN","NAN","NAN","NAN"],
    [1565447,"2026-08-06 18:10:00","2200","0.898","34.3","2.45","310.5","NAN","NAN","NAN","NAN","NAN"],
    [1565448,"2026-08-06 18:20:00","2201","2.93","298.2","5.488","317.1","NAN","NAN","NAN","NAN","NAN"],
    [1565449,"2026-08-06 18:30:00","2202","2.9410000000000003","300.7","5.194","301.4","NAN","NAN","NAN","NAN","NAN"],
    [1565450,"2026-08-06 18:40:00","2203","1.9240000000000002","303.7","3.234","295.6","NAN","NAN","NAN","NAN","NAN"],
    [1565451,"2026-08-06 18:50:00","2204","1.6480000000000001","286.4","2.842","279.1","NAN","NAN","NAN","NAN","NAN"],
    [1565452,"2026-08-06 19:00:00","2205","1.712","284.2","3.43","277.3","NAN","NAN","NAN","NAN","NAN"],
    [1565453,"2026-08-06 19:10:00","2206","3.283","280.2","5.586","280.1","NAN","NAN","NAN","NAN","NAN"],
    [1565454,"2026-08-06 19:20:00","2207","3.5380000000000003","299.3","5.194","309.3","NAN","NAN","NAN","NAN","NAN"],
    [1565455,"2026-08-06 19:30:00","2208","2.779","303.2","4.802","295.3","NAN","NAN","NAN","NAN","NAN"],
    [1565456,"2026-08-06 19:40:00","2209","1.791","300.0","3.136","305.2","NAN","NAN","NAN","NAN","NAN"],
    [1565457,"2026-08-06 19:50:00","2210","2.7110000000000003","287.4","4.9","287","NAN","NAN","NAN","NAN","NAN"],
    [1565458,"2026-08-06 20:00:00","2211","2.506","286.1","4.606","303","NAN","NAN","NAN","NAN","NAN"],
    [1565459,"2026-08-06 20:10:00","2212","2.5069999999999997","284.3","4.018","283","NAN","NAN","NAN","NAN","NAN"],
    [1565460,"2026-08-06 20:20:00","2213","2.045","284.4","3.528","299.5","NAN","NAN","NAN","NAN","NAN"],
    [1565461,"2026-08-06 20:30:00","2214","2.316","288.6","3.528","289.1","NAN","NAN","NAN","NAN","NAN"],
    [1565462,"2026-08-06 20:40:00","2215","2.975","285.0","4.998","280.5","NAN","NAN","NAN","NAN","NAN"],
    [1565463,"2026-08-06 20:50:00","2216","3.417","294.0","6.076","300.3","NAN","NAN","NAN","NAN","NAN"],
    [1565464,"2026-08-06 21:00:00","2217","2.875","304.6","4.704","298.4","NAN","NAN","NAN","NAN","NAN"],
    [1565465,"2026-08-06 21:10:00","2218","2.8289999999999997","307.2","5.096","302.8","NAN","NAN","NAN","NAN","NAN"],
    [1565466,"2026-08-06 21:20:00","2219","3.057","303.6","4.606","299.3","NAN","NAN","NAN","NAN","NAN"],
    [1565467,"2026-08-06 21:30:00","2220","1.6340000000000001","307.0","2.842","315.4","NAN","NAN","NAN","NAN","NAN"],
    [1565468,"2026-08-06 21:40:00","2221","1.055","300.1","2.352","306.3","NAN","NAN","NAN","NAN","NAN"],
    [1565469,"2026-08-06 21:50:00","2222","2.261","282.1","3.136","282.3","NAN","NAN","NAN","NAN","NAN"],
    [1565470,"2026-08-06 22:00:00","2223","2.029","284.5","4.116","294.7","NAN","NAN","NAN","NAN","NAN"],
    [1565471,"2026-08-06 22:10:00","2224","1.7369999999999999","287.8","3.136","296.9","NAN","NAN","NAN","NAN","NAN"],
    [1565472,"2026-08-06 22:20:00","2225","1.976","277.2","3.43","270.8","NAN","NAN","NAN","NAN","NAN"],
    [1565473,"2026-08-06 22:30:00","2226","2.122","285.1","3.038","280","NAN","NAN","NAN","NAN","NAN"],
    [1565474,"2026-08-06 22:40:00","2227","1.126","291.2","2.646","293","NAN","NAN","NAN","NAN","NAN"],
    [1565475,"2026-08-06 22:50:00","2228","0.992","288.1","2.352","278.2","NAN","NAN","NAN","NAN","NAN"],
    [1565476,"2026-08-06 23:00:00","2229","0.726","276.4","2.156","273.5","NAN","NAN","NAN","NAN","NAN"],
    [1565477,"2026-08-06 23:10:00","2230","0.35100000000000003","275.1","0.882","273.5","NAN","NAN","NAN","NAN","NAN"],
    [1565478,"2026-08-06 23:20:00","2231","1.034","275.2","2.058","271.9","NAN","NAN","NAN","NAN","NAN"],
    [1565479,"2026-08-06 23:30:00","2232","0.9420000000000001","283.4","1.764","273.1","NAN","NAN","NAN","NAN","NAN"],
    [1565480,"2026-08-06 23:40:00","2233","2.261","290.9","4.018","284.2","NAN","NAN","NAN","NAN","NAN"],
    [1565481,"2026-08-06 23:50:00","2234","1.666","283.4","2.548","278.7","NAN","NAN","NAN","NAN","NAN"],
    [1565482,"2026-08-07 00:00:00","2235","1.469","281.1","2.254","294.7","NAN","NAN","NAN","NAN","NAN"],
    [1565483,"2026-08-07 00:10:00","2236","1.702","286.0","2.548","279.8","NAN","NAN","NAN","NAN","NAN"],
    [1565484,"2026-08-07 00:20:00","2237","1.5119999999999998","277.8","2.45","283.2","NAN","NAN","NAN","NAN","NAN"],
    [1565485,"2026-08-07 00:30:00","2238","1.555","282.8","2.352","277.8","NAN","NAN","NAN","NAN","NAN"],
    [1565486,"2026-08-07 00:40:00","2239","1.7819999999999998","282.3","3.234","281.4","NAN","NAN","NAN","NAN","NAN"],
    [1565487,"2026-08-07 00:50:00","2240","1.3259999999999998","280.7","2.254","283.6","NAN","NAN","NAN","NAN","NAN"],
    [1565488,"2026-08-07 01:00:00","2241","0.9690000000000001","284.6","1.47","279","NAN","NAN","NAN","NAN","NAN"],
    [1565489,"2026-08-07 01:10:00","2242","1.092","277.7","1.666","278.4","NAN","NAN","NAN","NAN","NAN"],
    [1565490,"2026-08-07 01:20:00","2243","0.588","276.5","1.176","279.1","NAN","NAN","NAN","NAN","NAN"],
    [1565491,"2026-08-07 01:30:00","2244","0.41200000000000003","276.8","1.176","275.5","NAN","NAN","NAN","NAN","NAN"],
    [1565492,"2026-08-07 01:40:00","2245","1.3259999999999998","286.5","2.548","277.4","NAN","NAN","NAN","NAN","NAN"],
    [1565493,"2026-08-07 01:50:00","2246","1.413","287.2","2.744","296","NAN","NAN","NAN","NAN","NAN"],
    [1565494,"2026-08-07 02:00:00","2247","0.361","282.3","1.176","283.3","NAN","NAN","NAN","NAN","NAN"],
    [1565495,"2026-08-07 02:10:00","2248","1.216","281.6","1.862","278.7","NAN","NAN","NAN","NAN","NAN"],
    [1565496,"2026-08-07 02:20:00","2249","1.205","278.6","1.666","277.6","NAN","NAN","NAN","NAN","NAN"],
    [1565497,"2026-08-07 02:30:00","2250","1.224","276.5","1.862","276.7","NAN","NAN","NAN","NAN","NAN"],
    [1565498,"2026-08-07 02:40:00","2251","1.347","282.1","2.254","276.9","NAN","NAN","NAN","NAN","NAN"],
    [1565499,"2026-08-07 02:50:00","2252","1.778","276.9","2.94","277.6","NAN","NAN","NAN","NAN","NAN"],
    [1565500,"2026-08-07 03:00:00","2253","1.973","279.7","2.842","280.4","NAN","NAN","NAN","NAN","NAN"],
    [1565501,"2026-08-07 03:10:00","2254","1.892","279.6","2.94","267.7","NAN","NAN","NAN","NAN","NAN"],
    [1565502,"2026-08-07 03:20:00","2255","1.922","281.3","2.646","279.7","NAN","NAN","NAN","NAN","NAN"],
    [1565503,"2026-08-07 03:30:00","2256","1.66","280.6","2.646","285.8","NAN","NAN","NAN","NAN","NAN"],
    [1565504,"2026-08-07 03:40:00","2257","1.453","284.0","2.352","282.4","NAN","NAN","NAN","NAN","NAN"],
    [1565505,"2026-08-07 03:50:00","2258","0.9990000000000001","287.2","1.862","291.5","NAN","NAN","NAN","NAN","NAN"],
    [1565506,"2026-08-07 04:00:00","2259","1.183","288.9","1.666","286.9","NAN","NAN","NAN","NAN","NAN"],
    [1565507,"2026-08-07 04:10:00","2260","0.847","285.8","1.96","277.5","NAN","NAN","NAN","NAN","NAN"],
    [1565508,"2026-08-07 04:20:00","2261","1.7380000000000002","277.7","2.646","277.3","NAN","NAN","NAN","NAN","NAN"],
    [1565509,"2026-08-07 04:30:00","2262","1.7819999999999998","279.6","2.548","274.2","NAN","NAN","NAN","NAN","NAN"],
    [1565510,"2026-08-07 04:40:00","2263","2.2430000000000003","286.5","3.43","291.2","NAN","NAN","NAN","NAN","NAN"],
    [1565511,"2026-08-07 04:50:00","2264","2.0340000000000003","282.1","3.43","288.5","NAN","NAN","NAN","NAN","NAN"],
    [1565512,"2026-08-07 05:00:00","2265","1.764","277.1","2.646","269.5","NAN","NAN","NAN","NAN","NAN"],
    [1565513,"2026-08-07 05:10:00","2266","1.774","277.8","2.45","278.4","NAN","NAN","NAN","NAN","NAN"],
    [1565514,"2026-08-07 05:20:00","2267","2.103","273.7","3.332","275.5","NAN","NAN","NAN","NAN","NAN"],
    [1565515,"2026-08-07 05:30:00","2268","1.7590000000000001","279.9","2.646","275.5","NAN","NAN","NAN","NAN","NAN"],
    [1565516,"2026-08-07 05:40:00","2269","1.679","284.4","2.744","283.5","NAN","NAN","NAN","NAN","NAN"],
    [1565517,"2026-08-07 05:50:00","2270","1.681","287.7","3.038","289.1","NAN","NAN","NAN","NAN","NAN"],
    [1565518,"2026-08-07 06:00:00","2271","1.234","294.2","2.45","295","NAN","NAN","NAN","NAN","NAN"],
    [1565519,"2026-08-07 06:10:00","2272","1.256","280.3","2.352","271.6","NAN","NAN","NAN","NAN","NAN"],
    [1565520,"2026-08-07 06:20:00","2273","1.8119999999999998","283.6","2.744","293","NAN","NAN","NAN","NAN","NAN"],
    [1565521,"2026-08-07 06:30:00","2274","1.8219999999999998","293.0","2.94","297.2","NAN","NAN","NAN","NAN","NAN"],
    [1565522,"2026-08-07 06:40:00","2275","1.485","291.7","2.254","290.8","NAN","NAN","NAN","NAN","NAN"],
    [1565523,"2026-08-07 06:50:00","2276","1.595","285.8","2.646","283.8","NAN","NAN","NAN","NAN","NAN"],
    [1565524,"2026-08-07 07:00:00","2277","1.3530000000000002","285.0","1.96","286.7","NAN","NAN","NAN","NAN","NAN"],
    [1565525,"2026-08-07 07:10:00","2278","1.058","283.5","1.96","277.7","NAN","NAN","NAN","NAN","NAN"],
    [1565526,"2026-08-07 07:20:00","2279","1.025","283.3","1.666","273.3","NAN","NAN","NAN","NAN","NAN"],
    [1565527,"2026-08-07 07:30:00","2280","0.915","281.6","1.764","277.6","NAN","NAN","NAN","NAN","NAN"],
    [1565528,"2026-08-07 07:40:00","2281","0.733","280.6","1.96","290","NAN","NAN","NAN","NAN","NAN"],
    [1565529,"2026-08-07 07:50:00","2282","0.5660000000000001","270.3","1.568","271.7","NAN","NAN","NAN","NAN","NAN"],
    [1565530,"2026-08-07 08:00:00","2283","0.127","271.4","0.784","272.5","NAN","NAN","NAN","NAN","NAN"],
    [1565531,"2026-08-07 08:10:00","2284","0.39","267.8","1.176","267.9","NAN","NAN","NAN","NAN","NAN"],
    [1565532,"2026-08-07 08:20:00","2285","1.16","205.1","2.45","101.9","NAN","NAN","NAN","NAN","NAN"],
    [1565533,"2026-08-07 08:30:00","2286","1.9780000000000002","102.0","2.646","102.8","NAN","NAN","NAN","NAN","NAN"],
    [1565534,"2026-08-07 08:40:00","2287","1.855","98.7","2.45","97.3","NAN","NAN","NAN","NAN","NAN"],
    [1565535,"2026-08-07 08:50:00","2288","1.474","107.3","2.352","110","NAN","NAN","NAN","NAN","NAN"],
    [1565536,"2026-08-07 09:00:00","2289","1.639","108.5","2.646","111","NAN","NAN","NAN","NAN","NAN"],
    [1565537,"2026-08-07 09:10:00","2290","0.667","256.3","3.038","267.9","NAN","NAN","NAN","NAN","NAN"],
    [1565538,"2026-08-07 09:20:00","2291","1.814","128.4","3.528","115.1","NAN","NAN","NAN","NAN","NAN"],
    [1565539,"2026-08-07 09:30:00","2292","3.1","127.5","4.606","106.1","NAN","NAN","NAN","NAN","NAN"],
    [1565540,"2026-08-07 09:40:00","2293","3.167","126.2","4.9","129","NAN","NAN","NAN","NAN","NAN"],
    [1565541,"2026-08-07 09:50:00","2294","3.8939999999999997","127.8","5.684","134.6","NAN","NAN","NAN","NAN","NAN"],
    [1565542,"2026-08-07 10:00:00","2295","3.812","129.8","5.488","125","NAN","NAN","NAN","NAN","NAN"],
    [1565543,"2026-08-07 10:10:00","2296","3.792","141.9","5.194","143.6","NAN","NAN","NAN","NAN","NAN"],
    [1565544,"2026-08-07 10:20:00","2297","3.571","149.3","5.586","139.9","NAN","NAN","NAN","NAN","NAN"],
    [1565545,"2026-08-07 10:30:00","2298","3.69","155.6","5.096","131.4","NAN","NAN","NAN","NAN","NAN"],
    [1565546,"2026-08-07 10:40:00","2299","4.2139999999999995","152.4","5.684","163.5","NAN","NAN","NAN","NAN","NAN"],
    [1565547,"2026-08-07 10:50:00","2300","4.482","152.9","6.174","149.3","NAN","NAN","NAN","NAN","NAN"],
    [1565548,"2026-08-07 11:00:00","2301","4.263","150.5","6.272","157.1","NAN","NAN","NAN","NAN","NAN"],
    [1565549,"2026-08-07 11:10:00","2302","4.256","145.7","6.762","140","NAN","NAN","NAN","NAN","NAN"],
    [1565550,"2026-08-07 11:20:00","2303","4.216","152.9","7.35","155.3","NAN","NAN","NAN","NAN","NAN"],
    [1565551,"2026-08-07 11:30:00","2304","4.5169999999999995","144.8","6.468","131.5","NAN","NAN","NAN","NAN","NAN"],
    [1565552,"2026-08-07 11:40:00","2305","4.498","143.8","6.37","147.2","NAN","NAN","NAN","NAN","NAN"],
    [1565553,"2026-08-07 11:50:00","2306","4.463","159.1","6.37","142.6","NAN","NAN","NAN","NAN","NAN"],
    [1565554,"2026-08-07 12:00:00","2307","3.758","175.3","6.37","163.5","NAN","NAN","NAN","NAN","NAN"],
    [1565555,"2026-08-07 12:10:00","2308","3.065","206.2","4.704","235.3","NAN","NAN","NAN","NAN","NAN"],
    [1565556,"2026-08-07 12:20:00","2309","3.832","210.0","6.86","234.6","NAN","NAN","NAN","NAN","NAN"],
    [1565557,"2026-08-07 12:30:00","2310","3.648","195.7","6.566","223.8","NAN","NAN","NAN","NAN","NAN"],
    [1565558,"2026-08-07 12:40:00","2311","3.701","200.6","6.468","203.8","NAN","NAN","NAN","NAN","NAN"],
    [1565559,"2026-08-07 12:50:00","2312","4.349","190.9","7.056","182.1","NAN","NAN","NAN","NAN","NAN"],
    [1565560,"2026-08-07 13:00:00","2313","4.477","194.4","7.742","173","NAN","NAN","NAN","NAN","NAN"],
    [1565561,"2026-08-07 13:10:00","2314","4.438","195.8","6.664","214.6","NAN","NAN","NAN","NAN","NAN"],
    [1565562,"2026-08-07 13:20:00","2315","4.668","204.7","8.13","222.2","NAN","NAN","NAN","NAN","NAN"],
    [1565563,"2026-08-07 13:30:00","2316","4.455","191.1","8.23","175.9","NAN","NAN","NAN","NAN","NAN"],
    [1565564,"2026-08-07 13:40:00","2317","4.368","201.5","8.04","224.4","NAN","NAN","NAN","NAN","NAN"],
    [1565565,"2026-08-07 13:50:00","2318","4.294","212.5","7.154","223.2","NAN","NAN","NAN","NAN","NAN"],
    [1565566,"2026-08-07 14:00:00","2319","4.556","199.4","8.13","171.2","NAN","NAN","NAN","NAN","NAN"],
    [1565567,"2026-08-07 14:10:00","2320","4.042","201.3","7.252","212.9","NAN","NAN","NAN","NAN","NAN"],
    [1565568,"2026-08-07 14:20:00","2321","4.2219999999999995","195.6","6.566","216.2","NAN","NAN","NAN","NAN","NAN"],
    [1565569,"2026-08-07 14:30:00","2322","3.985","208.4","8.04","209.3","NAN","NAN","NAN","NAN","NAN"],
    [1565570,"2026-08-07 14:40:00","2323","4.791","207.8","8.04","209.3","NAN","NAN","NAN","NAN","NAN"],
    [1565571,"2026-08-07 14:50:00","2324","4.271","209.4","7.644","212","NAN","NAN","NAN","NAN","NAN"],
    [1565572,"2026-08-07 15:00:00","2325","3.903","207.1","6.272","202.7","NAN","NAN","NAN","NAN","NAN"],
    [1565573,"2026-08-07 15:10:00","2326","3.793","200.3","7.938","172.8","NAN","NAN","NAN","NAN","NAN"],
    [1565574,"2026-08-07 15:20:00","2327","3.945","219.5","6.566","223.1","NAN","NAN","NAN","NAN","NAN"],
    [1565575,"2026-08-07 15:30:00","2328","3.8080000000000003","220.1","6.468","217.8","NAN","NAN","NAN","NAN","NAN"],
    [1565576,"2026-08-07 15:40:00","2329","4.516","222.3","7.644","217.6","NAN","NAN","NAN","NAN","NAN"],
    [1565577,"2026-08-07 15:50:00","2330","4.296","220.8","7.056","222.8","NAN","NAN","NAN","NAN","NAN"],
    [1565578,"2026-08-07 16:00:00","2331","4.335","222.1","6.86","212.9","NAN","NAN","NAN","NAN","NAN"],
    [1565579,"2026-08-07 16:10:00","2332","4.388999999999999","219.3","7.742","213.3","NAN","NAN","NAN","NAN","NAN"],
    [1565580,"2026-08-07 16:20:00","2333","4.0760000000000005","211.7","6.762","225.7","NAN","NAN","NAN","NAN","NAN"],
    [1565581,"2026-08-07 16:30:00","2334","4.303","218.6","7.056","214.4","NAN","NAN","NAN","NAN","NAN"],
    [1565582,"2026-08-07 16:40:00","2335","3.8560000000000003","212.3","6.468","209.4","NAN","NAN","NAN","NAN","NAN"],
    [1565583,"2026-08-07 16:50:00","2336","3.5","231.5","6.272","219.5","NAN","NAN","NAN","NAN","NAN"],
    [1565584,"2026-08-07 17:00:00","2337","3.5780000000000003","225.6","5.39","211.6","NAN","NAN","NAN","NAN","NAN"],
    [1565585,"2026-08-07 17:10:00","2338","3.852","226.9","7.252","220.6","NAN","NAN","NAN","NAN","NAN"],
    [1565586,"2026-08-07 17:20:00","2339","3.267","218.7","5.39","225.8","NAN","NAN","NAN","NAN","NAN"],
    [1565587,"2026-08-07 17:30:00","2340","2.872","221.3","4.998","210","NAN","NAN","NAN","NAN","NAN"],
    [1565588,"2026-08-07 17:40:00","2341","3.133","242.8","4.9","232.3","NAN","NAN","NAN","NAN","NAN"],
    [1565589,"2026-08-07 17:50:00","2342","2.6689999999999996","232.6","4.508","252.4","NAN","NAN","NAN","NAN","NAN"],
    [1565590,"2026-08-07 18:00:00","2343","3.0469999999999997","229.5","5.488","223.2","NAN","NAN","NAN","NAN","NAN"],
    [1565591,"2026-08-07 18:10:00","2344","2.991","233.9","5.292","225","NAN","NAN","NAN","NAN","NAN"],
    [1565592,"2026-08-07 18:20:00","2345","2.9210000000000003","219.1","5.39","212.4","NAN","NAN","NAN","NAN","NAN"],
    [1565593,"2026-08-07 18:30:00","2346","2.571","235.0","5.194","216.8","NAN","NAN","NAN","NAN","NAN"],
    [1565594,"2026-08-07 18:40:00","2347","1.4569999999999999","252.0","3.038","268.1","NAN","NAN","NAN","NAN","NAN"],
    [1565595,"2026-08-07 18:50:00","2348","0.317","252.9","1.176","250.6","NAN","NAN","NAN","NAN","NAN"],
    [1565596,"2026-08-07 19:00:00","2349","1.915","235.8","3.234","219.5","NAN","NAN","NAN","NAN","NAN"],
    [1565597,"2026-08-07 19:10:00","2350","2.752","227.1","4.508","207.5","NAN","NAN","NAN","NAN","NAN"],
    [1565598,"2026-08-07 19:20:00","2351","2.274","215.6","4.508","198.3","NAN","NAN","NAN","NAN","NAN"],
    [1565599,"2026-08-07 19:30:00","2352","2.6319999999999997","207.9","4.802","208.4","NAN","NAN","NAN","NAN","NAN"],
    [1565600,"2026-08-07 19:40:00","2353","2.211","214.0","4.802","208.4","NAN","NAN","NAN","NAN","NAN"],
    [1565601,"2026-08-07 19:50:00","2354","2.211","212.3","3.332","206.1","NAN","NAN","NAN","NAN","NAN"],
    [1565602,"2026-08-07 20:00:00","2355","2.346","214.5","3.528","198.3","NAN","NAN","NAN","NAN","NAN"],
    [1565603,"2026-08-07 20:10:00","2356","2.082","215.1","4.704","219.7","NAN","NAN","NAN","NAN","NAN"],
    [1565604,"2026-08-07 20:20:00","2357","1.692","231.3","3.136","214.3","NAN","NAN","NAN","NAN","NAN"],
    [1565605,"2026-08-07 20:30:00","2358","1.7280000000000002","238.4","2.94","246.7","NAN","NAN","NAN","NAN","NAN"],
    [1565606,"2026-08-07 20:40:00","2359","1.139","229.8","2.45","233.5","NAN","NAN","NAN","NAN","NAN"],
    [1565607,"2026-08-07 20:50:00","2360","2.273","248.3","3.626","248.7","NAN","NAN","NAN","NAN","NAN"],
    [1565608,"2026-08-07 21:00:00","2361","2.6239999999999997","252.7","4.116","247.1","NAN","NAN","NAN","NAN","NAN"],
    [1565609,"2026-08-07 21:10:00","2362","2.213","253.2","3.332","249.1","NAN","NAN","NAN","NAN","NAN"],
    [1565610,"2026-08-07 21:20:00","2363","2.13","257.8","3.822","251.6","NAN","NAN","NAN","NAN","NAN"],
    [1565611,"2026-08-07 21:30:00","2364","0.366","263.9","1.274","263.6","NAN","NAN","NAN","NAN","NAN"],
    [1565612,"2026-08-07 21:40:00","2365","1.2","264.0","2.548","265.5","NAN","NAN","NAN","NAN","NAN"],
    [1565613,"2026-08-07 21:50:00","2366","1.9569999999999999","264.0","3.43","257.4","NAN","NAN","NAN","NAN","NAN"],
    [1565614,"2026-08-07 22:00:00","2367","2.505","251.9","3.724","242.4","NAN","NAN","NAN","NAN","NAN"],
    [1565615,"2026-08-07 22:10:00","2368","2.492","248.5","3.92","250.7","NAN","NAN","NAN","NAN","NAN"],
    [1565616,"2026-08-07 22:20:00","2369","2.935","251.0","4.704","250","NAN","NAN","NAN","NAN","NAN"],
    [1565617,"2026-08-07 22:30:00","2370","2.978","253.9","4.9","252.9","NAN","NAN","NAN","NAN","NAN"],
    [1565618,"2026-08-07 22:40:00","2371","2.205","261.1","3.724","250.7","NAN","NAN","NAN","NAN","NAN"],
    [1565619,"2026-08-07 22:50:00","2372","2.041","279.9","3.234","275.8","NAN","NAN","NAN","NAN","NAN"],
    [1565620,"2026-08-07 23:00:00","2373","0.8640000000000001","291.1","1.764","290.9","NAN","NAN","NAN","NAN","NAN"],
    [1565621,"2026-08-07 23:10:00","2374","0.489","298.6","1.274","292.6","NAN","NAN","NAN","NAN","NAN"],
    [1565622,"2026-08-07 23:20:00","2375","0.321","303.5","1.274","303.6","NAN","NAN","NAN","NAN","NAN"],
    [1565623,"2026-08-07 23:30:00","2376","0.622","289.6","2.548","281.2","NAN","NAN","NAN","NAN","NAN"],
    [1565624,"2026-08-07 23:40:00","2377","0.625","264.8","2.058","264.3","NAN","NAN","NAN","NAN","NAN"],
    [1565625,"2026-08-07 23:50:00","2378","0.44299999999999995","262.5","1.96","262.1","NAN","NAN","NAN","NAN","NAN"],
    [1565626,"2026-08-08 00:00:00","2379","1.193","264.6","2.646","261","NAN","NAN","NAN","NAN","NAN"],
    [1565627,"2026-08-08 00:10:00","2380","0.109","276.4","0.784","267.8","NAN","NAN","NAN","NAN","NAN"],
    [1565628,"2026-08-08 00:20:00","2381","0.0","0.0","0","285.7","NAN","NAN","NAN","NAN","NAN"],
    [1565629,"2026-08-08 00:30:00","2382","0.105","287.8","0.49","287.5","NAN","NAN","NAN","NAN","NAN"],
    [1565630,"2026-08-08 00:40:00","2383","0.44","292.1","1.274","309.4","NAN","NAN","NAN","NAN","NAN"],
    [1565631,"2026-08-08 00:50:00","2384","0.91","317.6","1.862","324.9","NAN","NAN","NAN","NAN","NAN"],
    [1565632,"2026-08-08 01:00:00","2385","1.248","336.2","2.156","336.7","NAN","NAN","NAN","NAN","NAN"],
    [1565633,"2026-08-08 01:10:00","2386","1.04","336.7","2.058","338.6","NAN","NAN","NAN","NAN","NAN"],
    [1565634,"2026-08-08 01:20:00","2387","1.6","323.5","2.744","330.5","NAN","NAN","NAN","NAN","NAN"],
    [1565635,"2026-08-08 01:30:00","2388","1.31","313.5","2.156","314.5","NAN","NAN","NAN","NAN","NAN"],
    [1565636,"2026-08-08 01:40:00","2389","0.818","313.0","1.47","313.2","NAN","NAN","NAN","NAN","NAN"],
    [1565637,"2026-08-08 01:50:00","2390","0.9159999999999999","314.0","1.666","313","NAN","NAN","NAN","NAN","NAN"],
    [1565638,"2026-08-08 02:00:00","2391","0.611","312.9","1.176","313.1","NAN","NAN","NAN","NAN","NAN"],
    [1565639,"2026-08-08 02:10:00","2392","0.5770000000000001","312.8","1.274","312.5","NAN","NAN","NAN","NAN","NAN"],
    [1565640,"2026-08-08 02:20:00","2393","0.9490000000000001","307.9","1.666","311.6","NAN","NAN","NAN","NAN","NAN"],
    [1565641,"2026-08-08 02:30:00","2394","1.452","293.9","2.646","297.3","NAN","NAN","NAN","NAN","NAN"],
    [1565642,"2026-08-08 02:40:00","2395","2.242","278.4","3.626","284","NAN","NAN","NAN","NAN","NAN"],
    [1565643,"2026-08-08 02:50:00","2396","2.3169999999999997","273.2","3.038","272.3","NAN","NAN","NAN","NAN","NAN"],
    [1565644,"2026-08-08 03:00:00","2397","2.407","279.5","3.332","270","NAN","NAN","NAN","NAN","NAN"],
    [1565645,"2026-08-08 03:10:00","2398","2.282","280.1","3.724","278.2","NAN","NAN","NAN","NAN","NAN"],
    [1565646,"2026-08-08 03:20:00","2399","1.8619999999999999","277.5","2.842","275.3","NAN","NAN","NAN","NAN","NAN"],
    [1565647,"2026-08-08 03:30:00","2400","1.8969999999999998","274.7","2.744","279.7","NAN","NAN","NAN","NAN","NAN"],
    [1565648,"2026-08-08 03:40:00","2401","2.109","278.7","3.038","280.6","NAN","NAN","NAN","NAN","NAN"],
    [1565649,"2026-08-08 03:50:00","2402","1.6909999999999998","276.3","2.842","269","NAN","NAN","NAN","NAN","NAN"],
    [1565650,"2026-08-08 04:00:00","2403","1.686","281.1","2.646","275.9","NAN","NAN","NAN","NAN","NAN"],
    [1565651,"2026-08-08 04:10:00","2404","1.2770000000000001","284.5","2.45","278.1","NAN","NAN","NAN","NAN","NAN"],
    [1565652,"2026-08-08 04:20:00","2405","1.228","278.8","1.666","276.5","NAN","NAN","NAN","NAN","NAN"],
    [1565653,"2026-08-08 04:30:00","2406","1.305","282.5","2.254","285.5","NAN","NAN","NAN","NAN","NAN"],
    [1565654,"2026-08-08 04:40:00","2407","1.444","276.5","2.548","270.3","NAN","NAN","NAN","NAN","NAN"],
    [1565655,"2026-08-08 04:50:00","2408","1.734","270.2","2.842","275.3","NAN","NAN","NAN","NAN","NAN"],
    [1565656,"2026-08-08 05:00:00","2409","1.868","268.8","3.43","275","NAN","NAN","NAN","NAN","NAN"],
    [1565657,"2026-08-08 05:10:00","2410","1.9069999999999998","277.0","3.136","273.2","NAN","NAN","NAN","NAN","NAN"],
    [1565658,"2026-08-08 05:20:00","2411","1.6130000000000002","286.8","2.646","289.3","NAN","NAN","NAN","NAN","NAN"],
    [1565659,"2026-08-08 05:30:00","2412","1.784","283.6","2.646","289.6","NAN","NAN","NAN","NAN","NAN"],
    [1565660,"2026-08-08 05:40:00","2413","1.8659999999999999","280.4","2.94","278.2","NAN","NAN","NAN","NAN","NAN"],
    [1565661,"2026-08-08 05:50:00","2414","1.98","279.5","2.94","287.1","NAN","NAN","NAN","NAN","NAN"],
    [1565662,"2026-08-08 06:00:00","2415","2.011","289.2","3.626","298.7","NAN","NAN","NAN","NAN","NAN"],
    [1565663,"2026-08-08 06:10:00","2416","1.91","293.8","3.038","299.1","NAN","NAN","NAN","NAN","NAN"],
    [1565664,"2026-08-08 06:20:00","2417","1.8559999999999999","302.1","2.744","293.7","NAN","NAN","NAN","NAN","NAN"],
    [1565665,"2026-08-08 06:30:00","2418","2.0540000000000003","302.0","2.744","296.5","NAN","NAN","NAN","NAN","NAN"],
    [1565666,"2026-08-08 06:40:00","2419","1.1540000000000001","305.3","1.96","311.6","NAN","NAN","NAN","NAN","NAN"],
    [1565667,"2026-08-08 06:50:00","2420","0.953","296.0","1.666","295.8","NAN","NAN","NAN","NAN","NAN"],
    [1565668,"2026-08-08 07:00:00","2421","1.006","287.2","2.058","280","NAN","NAN","NAN","NAN","NAN"],
    [1565669,"2026-08-08 07:10:00","2422","1.186","280.2","1.862","279.1","NAN","NAN","NAN","NAN","NAN"],
    [1565670,"2026-08-08 07:20:00","2423","1.34","278.5","2.058","278.4","NAN","NAN","NAN","NAN","NAN"],
    [1565671,"2026-08-08 07:30:00","2424","0.33399999999999996","279.8","0.882","278.4","NAN","NAN","NAN","NAN","NAN"],
    [1565672,"2026-08-08 07:40:00","2425","0.11199999999999999","282.5","0.49","278.5","NAN","NAN","NAN","NAN","NAN"],
    [1565673,"2026-08-08 07:50:00","2426","0.244","278.5","0.686","278.5","NAN","NAN","NAN","NAN","NAN"],
    [1565674,"2026-08-08 08:00:00","2427","0.315","280.5","1.372","278.2","NAN","NAN","NAN","NAN","NAN"],
    [1565675,"2026-08-08 08:10:00","2428","0.575","294.1","1.274","300.1","NAN","NAN","NAN","NAN","NAN"],
    [1565676,"2026-08-08 08:20:00","2429","0.735","1.103","1.372","65.25","NAN","NAN","NAN","NAN","NAN"],
    [1565677,"2026-08-08 08:30:00","2430","1.079","72.1","2.94","88.1","NAN","NAN","NAN","NAN","NAN"],
    [1565678,"2026-08-08 08:40:00","2431","1.7690000000000001","87.3","2.842","89.5","NAN","NAN","NAN","NAN","NAN"],
    [1565679,"2026-08-08 08:50:00","2432","1.828","98.5","2.646","107.6","NAN","NAN","NAN","NAN","NAN"],
    [1565680,"2026-08-08 09:00:00","2433","1.6640000000000001","103.3","2.352","107.7","NAN","NAN","NAN","NAN","NAN"],
    [1565681,"2026-08-08 09:10:00","2434","1.8259999999999998","101.5","2.744","109.9","NAN","NAN","NAN","NAN","NAN"],
    [1565682,"2026-08-08 09:20:00","2435","2.344","106.9","3.234","101","NAN","NAN","NAN","NAN","NAN"],
    [1565683,"2026-08-08 09:30:00","2436","2.338","107.3","3.626","99.5","NAN","NAN","NAN","NAN","NAN"],
    [1565684,"2026-08-08 09:40:00","2437","2.512","108.2","3.626","99.5","NAN","NAN","NAN","NAN","NAN"],
    [1565685,"2026-08-08 09:50:00","2438","2.4930000000000003","111.1","3.528","117.3","NAN","NAN","NAN","NAN","NAN"],
    [1565686,"2026-08-08 10:00:00","2439","2.272","102.1","3.724","80.7","NAN","NAN","NAN","NAN","NAN"],
    [1565687,"2026-08-08 10:10:00","2440","2.549","93.6","4.018","70.87","NAN","NAN","NAN","NAN","NAN"],
    [1565688,"2026-08-08 10:20:00","2441","2.603","96.7","4.508","86.8","NAN","NAN","NAN","NAN","NAN"],
    [1565689,"2026-08-08 10:30:00","2442","3.04","105.0","4.704","99.6","NAN","NAN","NAN","NAN","NAN"],
    [1565690,"2026-08-08 10:40:00","2443","2.7030000000000003","101.2","4.018","103.1","NAN","NAN","NAN","NAN","NAN"],
    [1565691,"2026-08-08 10:50:00","2444","2.8680000000000003","107.6","4.606","98","NAN","NAN","NAN","NAN","NAN"],
    [1565692,"2026-08-08 11:00:00","2445","2.7319999999999998","104.8","3.92","98.2","NAN","NAN","NAN","NAN","NAN"],
    [1565693,"2026-08-08 11:10:00","2446","2.752","113.1","4.214","128.7","NAN","NAN","NAN","NAN","NAN"],
    [1565694,"2026-08-08 11:20:00","2447","2.906","117.4","4.704","138.5","NAN","NAN","NAN","NAN","NAN"],
    [1565695,"2026-08-08 11:30:00","2448","3.028","119.3","4.41","135.9","NAN","NAN","NAN","NAN","NAN"],
    [1565696,"2026-08-08 11:40:00","2449","3.252","109.6","4.704","111.4","NAN","NAN","NAN","NAN","NAN"],
    [1565697,"2026-08-08 11:50:00","2450","3.123","125.7","4.9","138.8","NAN","NAN","NAN","NAN","NAN"],
    [1565698,"2026-08-08 12:00:00","2451","3.6239999999999997","134.3","5.39","139.8","NAN","NAN","NAN","NAN","NAN"],
    [1565699,"2026-08-08 12:10:00","2452","3.888","126.4","5.096","138.4","NAN","NAN","NAN","NAN","NAN"],
    [1565700,"2026-08-08 12:20:00","2453","3.888","130.3","5.586","138.4","NAN","NAN","NAN","NAN","NAN"],
    [1565701,"2026-08-08 12:30:00","2454","3.2260000000000004","128.7","4.802","138.4","NAN","NAN","NAN","NAN","NAN"],
    [1565702,"2026-08-08 12:40:00","2455","3.305","123.9","5.39","99.2","NAN","NAN","NAN","NAN","NAN"],
    [1565703,"2026-08-08 12:50:00","2456","3.292","124.2","4.802","142","NAN","NAN","NAN","NAN","NAN"],
    [1565704,"2026-08-08 13:00:00","2457","3.2889999999999997","121.5","4.998","111.5","NAN","NAN","NAN","NAN","NAN"],
    [1565705,"2026-08-08 13:10:00","2458","3.4730000000000003","151.9","5.292","143.8","NAN","NAN","NAN","NAN","NAN"],
    [1565706,"2026-08-08 13:20:00","2459","3.463","164.0","5.292","161.6","NAN","NAN","NAN","NAN","NAN"],
    [1565707,"2026-08-08 13:30:00","2460","3.9360000000000004","157.9","5.586","152.7","NAN","NAN","NAN","NAN","NAN"],
    [1565708,"2026-08-08 13:40:00","2461","3.515","152.2","6.664","137.5","NAN","NAN","NAN","NAN","NAN"],
    [1565709,"2026-08-08 13:50:00","2462","3.5789999999999997","157.0","5.586","146.8","NAN","NAN","NAN","NAN","NAN"],
    [1565710,"2026-08-08 14:00:00","2463","3.487","157.4","5.096","129.8","NAN","NAN","NAN","NAN","NAN"],
    [1565711,"2026-08-08 14:10:00","2464","3.7889999999999997","134.5","5.292","130.4","NAN","NAN","NAN","NAN","NAN"],
    [1565712,"2026-08-08 14:20:00","2465","4.001","126.2","5.39","115.8","NAN","NAN","NAN","NAN","NAN"],
    [1565713,"2026-08-08 14:30:00","2466","3.515","123.1","5.586","133.9","NAN","NAN","NAN","NAN","NAN"],
    [1565714,"2026-08-08 14:40:00","2467","3.681","121.7","5.194","120.3","NAN","NAN","NAN","NAN","NAN"],
    [1565715,"2026-08-08 14:50:00","2468","4.085","133.8","5.88","134.1","NAN","NAN","NAN","NAN","NAN"],
    [1565716,"2026-08-08 15:00:00","2469","4.05","156.4","5.684","156.6","NAN","NAN","NAN","NAN","NAN"],
    [1565717,"2026-08-08 15:10:00","2470","2.728","191.0","5.096","158.9","NAN","NAN","NAN","NAN","NAN"],
    [1565718,"2026-08-08 15:20:00","2471","2.778","175.4","4.998","170.1","NAN","NAN","NAN","NAN","NAN"],
    [1565719,"2026-08-08 15:30:00","2472","2.6910000000000003","199.5","6.174","231.6","NAN","NAN","NAN","NAN","NAN"],
    [1565720,"2026-08-08 15:40:00","2473","2.222","186.9","3.626","167.7","NAN","NAN","NAN","NAN","NAN"],
    [1565721,"2026-08-08 15:50:00","2474","3.891","142.1","5.684","125.6","NAN","NAN","NAN","NAN","NAN"],
    [1565722,"2026-08-08 16:00:00","2475","2.835","169.4","4.704","176.8","NAN","NAN","NAN","NAN","NAN"],
    [1565723,"2026-08-08 16:10:00","2476","2.207","189.8","3.528","154.1","NAN","NAN","NAN","NAN","NAN"],
    [1565724,"2026-08-08 16:20:00","2477","2.627","181.0","4.9","185.8","NAN","NAN","NAN","NAN","NAN"],
    [1565725,"2026-08-08 16:30:00","2478","2.714","182.5","4.9","159","NAN","NAN","NAN","NAN","NAN"],
    [1565726,"2026-08-08 16:40:00","2479","2.39","192.3","4.214","195.8","NAN","NAN","NAN","NAN","NAN"],
    [1565727,"2026-08-08 16:50:00","2480","2.69","210.5","4.606","173.4","NAN","NAN","NAN","NAN","NAN"],
    [1565728,"2026-08-08 17:00:00","2481","2.823","203.0","4.312","227.5","NAN","NAN","NAN","NAN","NAN"],
    [1565729,"2026-08-08 17:10:00","2482","3.0010000000000003","194.5","5.096","211.9","NAN","NAN","NAN","NAN","NAN"],
    [1565730,"2026-08-08 17:20:00","2483","2.675","182.0","4.312","178","NAN","NAN","NAN","NAN","NAN"],
    [1565731,"2026-08-08 17:30:00","2484","2.517","179.0","4.606","181","NAN","NAN","NAN","NAN","NAN"],
    [1565732,"2026-08-08 17:40:00","2485","2.905","174.8","4.802","187.6","NAN","NAN","NAN","NAN","NAN"],
    [1565733,"2026-08-08 17:50:00","2486","1.859","195.5","3.92","172","NAN","NAN","NAN","NAN","NAN"],
    [1565734,"2026-08-08 18:00:00","2487","1.919","197.2","3.136","166","NAN","NAN","NAN","NAN","NAN"],
    [1565735,"2026-08-08 18:10:00","2488","2.121","206.0","3.528","207","NAN","NAN","NAN","NAN","NAN"],
    [1565736,"2026-08-08 18:20:00","2489","2.108","221.4","3.43","239.3","NAN","NAN","NAN","NAN","NAN"],
    [1565737,"2026-08-08 18:30:00","2490","1.777","225.3","3.136","242.4","NAN","NAN","NAN","NAN","NAN"],
    [1565738,"2026-08-08 18:40:00","2491","1.9169999999999998","235.5","3.332","255","NAN","NAN","NAN","NAN","NAN"],
    [1565739,"2026-08-08 18:50:00","2492","1.849","228.5","3.136","260","NAN","NAN","NAN","NAN","NAN"],
    [1565740,"2026-08-08 19:00:00","2493","1.208","210.8","2.156","225.2","NAN","NAN","NAN","NAN","NAN"],
    [1565741,"2026-08-08 19:10:00","2494","1.324","216.6","2.548","209.8","NAN","NAN","NAN","NAN","NAN"],
    [1565742,"2026-08-08 19:20:00","2495","0.7759999999999999","217.9","2.254","213.1","NAN","NAN","NAN","NAN","NAN"],
    [1565743,"2026-08-08 19:30:00","2496","1.32","209.5","2.352","209.4","NAN","NAN","NAN","NAN","NAN"],
    [1565744,"2026-08-08 19:40:00","2497","1.3459999999999999","208.5","2.254","199.5","NAN","NAN","NAN","NAN","NAN"],
    [1565745,"2026-08-08 19:50:00","2498","1.16","194.1","2.058","194.8","NAN","NAN","NAN","NAN","NAN"],
    [1565746,"2026-08-08 20:00:00","2499","1.446","204.0","2.646","204.8","NAN","NAN","NAN","NAN","NAN"],
    [1565747,"2026-08-08 20:10:00","2500","1.65","214.2","2.744","209.6","NAN","NAN","NAN","NAN","NAN"],
    [1565748,"2026-08-08 20:20:00","2501","1.01","223.1","1.764","227.7","NAN","NAN","NAN","NAN","NAN"],
    [1565749,"2026-08-08 20:30:00","2502","1.57","210.6","2.548","206.1","NAN","NAN","NAN","NAN","NAN"],
    [1565750,"2026-08-08 20:40:00","2503","1.845","210.2","2.842","205.5","NAN","NAN","NAN","NAN","NAN"],
    [1565751,"2026-08-08 20:50:00","2504","1.544","216.0","2.842","203.8","NAN","NAN","NAN","NAN","NAN"],
    [1565752,"2026-08-08 21:00:00","2505","1.8419999999999999","244.7","2.842","239.8","NAN","NAN","NAN","NAN","NAN"],
    [1565753,"2026-08-08 21:10:00","2506","2.0980000000000003","255.3","3.528","247.6","NAN","NAN","NAN","NAN","NAN"],
    [1565754,"2026-08-08 21:20:00","2507","1.456","245.8","2.842","256.4","NAN","NAN","NAN","NAN","NAN"],
    [1565755,"2026-08-08 21:30:00","2508","1.5659999999999998","242.6","2.352","249.5","NAN","NAN","NAN","NAN","NAN"],
    [1565756,"2026-08-08 21:40:00","2509","1.4669999999999999","248.3","2.254","252.7","NAN","NAN","NAN","NAN","NAN"],
    [1565757,"2026-08-08 21:50:00","2510","1.641","257.7","3.136","251.5","NAN","NAN","NAN","NAN","NAN"],
    [1565758,"2026-08-08 22:00:00","2511","2.336","258.9","3.332","259.2","NAN","NAN","NAN","NAN","NAN"],
    [1565759,"2026-08-08 22:10:00","2512","2.068","252.1","3.038","251.1","NAN","NAN","NAN","NAN","NAN"],
    [1565760,"2026-08-08 22:20:00","2513","2.255","255.9","3.332","251.1","NAN","NAN","NAN","NAN","NAN"],
    [1565761,"2026-08-08 22:30:00","2514","1.858","250.0","3.038","250.2","NAN","NAN","NAN","NAN","NAN"],
    [1565762,"2026-08-08 22:40:00","2515","1.834","249.8","2.842","241.1","NAN","NAN","NAN","NAN","NAN"],
    [1565763,"2026-08-08 22:50:00","2516","1.5919999999999999","250.3","2.646","253.5","NAN","NAN","NAN","NAN","NAN"],
    [1565764,"2026-08-08 23:00:00","2517","2.1830000000000003","254.4","2.94","256.2","NAN","NAN","NAN","NAN","NAN"],
    [1565765,"2026-08-08 23:10:00","2518","1.489","247.5","2.548","255.7","NAN","NAN","NAN","NAN","NAN"],
    [1565766,"2026-08-08 23:20:00","2519","1.341","240.6","2.352","237.2","NAN","NAN","NAN","NAN","NAN"],
    [1565767,"2026-08-08 23:30:00","2520","1.797","219.8","3.43","207.6","NAN","NAN","NAN","NAN","NAN"],
    [1565768,"2026-08-08 23:40:00","2521","1.611","244.2","2.646","245.1","NAN","NAN","NAN","NAN","NAN"],
    [1565769,"2026-08-08 23:50:00","2522","1.331","249.6","2.45","250.6","NAN","NAN","NAN","NAN","NAN"],
    [1565770,"2026-08-09 00:00:00","2523","1.008","238.1","1.96","225.9","NAN","NAN","NAN","NAN","NAN"],
    [1565771,"2026-08-09 00:10:00","2524","1.2690000000000001","227.9","2.646","243.5","NAN","NAN","NAN","NAN","NAN"],
    [1565772,"2026-08-09 00:20:00","2525","1.16","245.9","2.254","242.3","NAN","NAN","NAN","NAN","NAN"],
    [1565773,"2026-08-09 00:30:00","2526","1.2830000000000001","248.1","2.058","249","NAN","NAN","NAN","NAN","NAN"],
    [1565774,"2026-08-09 00:40:00","2527","1.712","250.1","2.744","250.9","NAN","NAN","NAN","NAN","NAN"],
    [1565775,"2026-08-09 00:50:00","2528","2.528","291.2","4.214","294.7","NAN","NAN","NAN","NAN","NAN"],
    [1565776,"2026-08-09 01:00:00","2529","2.248","288.1","3.332","277.9","NAN","NAN","NAN","NAN","NAN"],
    [1565777,"2026-08-09 01:10:00","2530","2.048","308.4","3.43","297.5","NAN","NAN","NAN","NAN","NAN"],
    [1565778,"2026-08-09 01:20:00","2531","0.391","315.2","1.666","315.2","NAN","NAN","NAN","NAN","NAN"],
    [1565779,"2026-08-09 01:30:00","2532","0.557","308.4","1.372","309","NAN","NAN","NAN","NAN","NAN"],
    [1565780,"2026-08-09 01:40:00","2533","0.6","304.2","1.568","304.9","NAN","NAN","NAN","NAN","NAN"],
    [1565781,"2026-08-09 01:50:00","2534","0.149","303.4","0.588","303.9","NAN","NAN","NAN","NAN","NAN"],
    [1565782,"2026-08-09 02:00:00","2535","0.068","304.1","0.784","306.1","NAN","NAN","NAN","NAN","NAN"],
    [1565783,"2026-08-09 02:10:00","2536","0.51","304.8","1.078","306.6","NAN","NAN","NAN","NAN","NAN"],
    [1565784,"2026-08-09 02:20:00","2537","0.408","302.8","0.784","302.8","NAN","NAN","NAN","NAN","NAN"],
    [1565785,"2026-08-09 02:30:00","2538","0.731","302.6","0.98","302.6","NAN","NAN","NAN","NAN","NAN"],
    [1565786,"2026-08-09 02:40:00","2539","0.8270000000000001","299.2","1.666","301.5","NAN","NAN","NAN","NAN","NAN"],
    [1565787,"2026-08-09 02:50:00","2540","1.062","295.6","2.156","292.4","NAN","NAN","NAN","NAN","NAN"],
    [1565788,"2026-08-09 03:00:00","2541","1.365","288.1","2.94","288.5","NAN","NAN","NAN","NAN","NAN"],
    [1565789,"2026-08-09 03:10:00","2542","1.865","290.3","2.94","291","NAN","NAN","NAN","NAN","NAN"],
    [1565790,"2026-08-09 03:20:00","2543","2.459","290.1","4.41","277.4","NAN","NAN","NAN","NAN","NAN"],
    [1565791,"2026-08-09 03:30:00","2544","2.3609999999999998","288.8","4.508","290","NAN","NAN","NAN","NAN","NAN"],
    [1565792,"2026-08-09 03:40:00","2545","1.824","299.7","3.038","300.8","NAN","NAN","NAN","NAN","NAN"],
    [1565793,"2026-08-09 03:50:00","2546","2.677","303.9","4.508","317.2","NAN","NAN","NAN","NAN","NAN"],
    [1565794,"2026-08-09 04:00:00","2547","2.423","312.7","3.822","309.1","NAN","NAN","NAN","NAN","NAN"],
    [1565795,"2026-08-09 04:10:00","2548","2.404","310.0","4.312","325.7","NAN","NAN","NAN","NAN","NAN"],
    [1565796,"2026-08-09 04:20:00","2549","2.113","308.2","3.822","315.5","NAN","NAN","NAN","NAN","NAN"],
    [1565797,"2026-08-09 04:30:00","2550","1.192","305.7","2.352","302.6","NAN","NAN","NAN","NAN","NAN"],
    [1565798,"2026-08-09 04:40:00","2551","0.373","304.7","0.882","306","NAN","NAN","NAN","NAN","NAN"],
    [1565799,"2026-08-09 04:50:00","2552","0.96","312.7","3.234","300.5","NAN","NAN","NAN","NAN","NAN"],
    [1565800,"2026-08-09 05:00:00","2553","1.355","303.5","3.038","300.2","NAN","NAN","NAN","NAN","NAN"],
    [1565801,"2026-08-09 05:10:00","2554","1.064","295.6","1.666","294.6","NAN","NAN","NAN","NAN","NAN"],
    [1565802,"2026-08-09 05:20:00","2555","0.43200000000000005","300.5","0.98","301.2","NAN","NAN","NAN","NAN","NAN"],
    [1565803,"2026-08-09 05:30:00","2556","0.039","293.8","0.294","293.8","NAN","NAN","NAN","NAN","NAN"],
    [1565804,"2026-08-09 05:40:00","2557","0.011000000000000001","293.5","0.294","293.5","NAN","NAN","NAN","NAN","NAN"],
    [1565805,"2026-08-09 05:50:00","2558","1.39","307.9","2.352","317.2","NAN","NAN","NAN","NAN","NAN"],
    [1565806,"2026-08-09 06:00:00","2559","1.5919999999999999","115.4","3.038","137.6","NAN","NAN","NAN","NAN","NAN"],
    [1565807,"2026-08-09 06:10:00","2560","1.794","128.8","2.548","125.6","NAN","NAN","NAN","NAN","NAN"],
    [1565808,"2026-08-09 06:20:00","2561","1.8630000000000002","118.5","2.842","114.5","NAN","NAN","NAN","NAN","NAN"],
    [1565809,"2026-08-09 06:30:00","2562","1.396","107.2","2.45","103.4","NAN","NAN","NAN","NAN","NAN"],
    [1565810,"2026-08-09 06:40:00","2563","1.001","103.0","1.862","101.3","NAN","NAN","NAN","NAN","NAN"],
    [1565811,"2026-08-09 06:50:00","2564","0.305","100.3","0.98","100.4","NAN","NAN","NAN","NAN","NAN"],
    [1565812,"2026-08-09 07:00:00","2565","0.664","105.0","1.47","106.1","NAN","NAN","NAN","NAN","NAN"],
    [1565813,"2026-08-09 07:10:00","2566","0.883","140.8","2.352","175.2","NAN","NAN","NAN","NAN","NAN"],
    [1565814,"2026-08-09 07:20:00","2567","0.93","166.5","2.352","160.5","NAN","NAN","NAN","NAN","NAN"],
    [1565815,"2026-08-09 07:30:00","2568","0.775","125.3","2.352","109.3","NAN","NAN","NAN","NAN","NAN"],
    [1565816,"2026-08-09 07:40:00","2569","0.977","109.0","1.96","107.9","NAN","NAN","NAN","NAN","NAN"],
    [1565817,"2026-08-09 07:50:00","2570","1.094","110.3","1.764","108.2","NAN","NAN","NAN","NAN","NAN"],
    [1565818,"2026-08-09 08:00:00","2571","0.379","154.9","1.372","184.2","NAN","NAN","NAN","NAN","NAN"],
    [1565819,"2026-08-09 08:10:00","2572","0.608","170.2","1.862","177.3","NAN","NAN","NAN","NAN","NAN"],
    [1565820,"2026-08-09 08:20:00","2573","0.40299999999999997","173.5","1.568","162.1","NAN","NAN","NAN","NAN","NAN"],
    [1565821,"2026-08-09 08:30:00","2574","1.4509999999999998","223.7","3.038","217.5","NAN","NAN","NAN","NAN","NAN"],
    [1565822,"2026-08-09 08:40:00","2575","1.653","248.4","3.626","257.7","NAN","NAN","NAN","NAN","NAN"],
    [1565823,"2026-08-09 08:50:00","2576","1.868","242.4","3.528","219.7","NAN","NAN","NAN","NAN","NAN"],
    [1565824,"2026-08-09 09:00:00","2577","1.401","188.9","3.234","216.4","NAN","NAN","NAN","NAN","NAN"],
    [1565825,"2026-08-09 09:10:00","2578","0.579","124.6","2.156","143.9","NAN","NAN","NAN","NAN","NAN"],
    [1565826,"2026-08-09 09:20:00","2579","1.4080000000000001","168.4","3.43","163.9","NAN","NAN","NAN","NAN","NAN"],
    [1565827,"2026-08-09 09:30:00","2580","2.2680000000000002","170.6","4.312","137.9","NAN","NAN","NAN","NAN","NAN"],
    [1565828,"2026-08-09 09:40:00","2581","1.893","194.8","3.332","179.7","NAN","NAN","NAN","NAN","NAN"],
    [1565829,"2026-08-09 09:50:00","2582","1.788","182.8","3.038","188","NAN","NAN","NAN","NAN","NAN"],
    [1565830,"2026-08-09 10:00:00","2583","1.9169999999999998","170.5","2.94","149.5","NAN","NAN","NAN","NAN","NAN"],
    [1565831,"2026-08-09 10:10:00","2584","2.161","143.9","3.626","127.4","NAN","NAN","NAN","NAN","NAN"],
    [1565832,"2026-08-09 10:20:00","2585","1.661","164.3","3.234","155.3","NAN","NAN","NAN","NAN","NAN"],
    [1565833,"2026-08-09 10:30:00","2586","1.932","132.3","4.116","130.9","NAN","NAN","NAN","NAN","NAN"],
    [1565834,"2026-08-09 10:40:00","2587","3.01","122.1","4.606","133.9","NAN","NAN","NAN","NAN","NAN"],
    [1565835,"2026-08-09 10:50:00","2588","2.063","130.2","3.822","133.6","NAN","NAN","NAN","NAN","NAN"],
    [1565836,"2026-08-09 11:00:00","2589","2.454","116.3","4.018","125.7","NAN","NAN","NAN","NAN","NAN"],
    [1565837,"2026-08-09 11:10:00","2590","2.7960000000000003","120.8","4.802","117.9","NAN","NAN","NAN","NAN","NAN"],
    [1565838,"2026-08-09 11:20:00","2591","2.376","142.4","4.41","140.9","NAN","NAN","NAN","NAN","NAN"],
    [1565839,"2026-08-09 11:30:00","2592","3.321","146.9","4.9","149.8","NAN","NAN","NAN","NAN","NAN"],
    [1565840,"2026-08-09 11:40:00","2593","2.815","146.7","4.018","136.3","NAN","NAN","NAN","NAN","NAN"],
    [1565841,"2026-08-09 11:50:00","2594","2.352","157.7","3.626","172.5","NAN","NAN","NAN","NAN","NAN"],
    [1565842,"2026-08-09 12:00:00","2595","3.105","150.2","4.704","184.7","NAN","NAN","NAN","NAN","NAN"],
    [1565843,"2026-08-09 12:10:00","2596","3.2260000000000004","154.6","4.9","153.5","NAN","NAN","NAN","NAN","NAN"],
    [1565844,"2026-08-09 12:20:00","2597","2.906","151.1","4.704","164.7","NAN","NAN","NAN","NAN","NAN"],
    [1565845,"2026-08-09 12:30:00","2598","1.911","163.2","3.626","155.7","NAN","NAN","NAN","NAN","NAN"],
    [1565846,"2026-08-09 12:40:00","2599","2.521","183.4","3.822","150.7","NAN","NAN","NAN","NAN","NAN"],
    [1565847,"2026-08-09 12:50:00","2600","2.866","170.2","4.312","169.1","NAN","NAN","NAN","NAN","NAN"],
    [1565848,"2026-08-09 13:00:00","2601","3.6060000000000003","144.0","5.096","137.9","NAN","NAN","NAN","NAN","NAN"],
    [1565849,"2026-08-09 13:10:00","2602","3.818","143.6","4.998","133.7","NAN","NAN","NAN","NAN","NAN"],
    [1565850,"2026-08-09 13:20:00","2603","3.905","151.9","5.194","143.9","NAN","NAN","NAN","NAN","NAN"],
    [1565851,"2026-08-09 13:30:00","2604","2.928","167.7","4.704","139.9","NAN","NAN","NAN","NAN","NAN"],
    [1565852,"2026-08-09 13:40:00","2605","2.839","194.0","4.41","202.4","NAN","NAN","NAN","NAN","NAN"],
    [1565853,"2026-08-09 13:50:00","2606","2.5989999999999998","186.0","4.41","202.9","NAN","NAN","NAN","NAN","NAN"],
    [1565854,"2026-08-09 14:00:00","2607","3.1039999999999996","176.6","5.488","177.6","NAN","NAN","NAN","NAN","NAN"],
    [1565855,"2026-08-09 14:10:00","2608","3.117","202.4","4.802","215","NAN","NAN","NAN","NAN","NAN"],
    [1565856,"2026-08-09 14:20:00","2609","3.112","199.2","5.88","226.6","NAN","NAN","NAN","NAN","NAN"],
    [1565857,"2026-08-09 14:30:00","2610","3.137","172.4","5.096","161.3","NAN","NAN","NAN","NAN","NAN"],
    [1565858,"2026-08-09 14:40:00","2611","3.236","176.2","5.782","168","NAN","NAN","NAN","NAN","NAN"],
    [1565859,"2026-08-09 14:50:00","2612","3.6830000000000003","175.8","6.174","160.2","NAN","NAN","NAN","NAN","NAN"],
    [1565860,"2026-08-09 15:00:00","2613","3.358","170.5","5.39","159.6","NAN","NAN","NAN","NAN","NAN"],
    [1565861,"2026-08-09 15:10:00","2614","3.174","172.8","4.998","151.5","NAN","NAN","NAN","NAN","NAN"],
    [1565862,"2026-08-09 15:20:00","2615","2.766","179.1","4.312","188.4","NAN","NAN","NAN","NAN","NAN"],
    [1565863,"2026-08-09 15:30:00","2616","3.263","167.9","4.998","149.1","NAN","NAN","NAN","NAN","NAN"],
    [1565864,"2026-08-09 15:40:00","2617","2.494","202.2","4.116","205.2","NAN","NAN","NAN","NAN","NAN"],
    [1565865,"2026-08-09 15:50:00","2618","3.0039999999999996","200.8","4.606","225.3","NAN","NAN","NAN","NAN","NAN"],
    [1565866,"2026-08-09 16:00:00","2619","2.51","197.9","5.194","169","NAN","NAN","NAN","NAN","NAN"],
    [1565867,"2026-08-09 16:10:00","2620","2.662","203.1","4.508","211.3","NAN","NAN","NAN","NAN","NAN"],
    [1565868,"2026-08-09 16:20:00","2621","2.1430000000000002","193.2","4.312","204.6","NAN","NAN","NAN","NAN","NAN"],
    [1565869,"2026-08-09 16:30:00","2622","1.825","189.6","3.626","208.2","NAN","NAN","NAN","NAN","NAN"],
    [1565870,"2026-08-09 16:40:00","2623","2.18","173.6","3.822","183.2","NAN","NAN","NAN","NAN","NAN"],
    [1565871,"2026-08-09 16:50:00","2624","2.877","172.9","4.704","164.5","NAN","NAN","NAN","NAN","NAN"],
    [1565872,"2026-08-09 17:00:00","2625","2.391","181.1","4.214","164","NAN","NAN","NAN","NAN","NAN"],
    [1565873,"2026-08-09 17:10:00","2626","2.14","183.4","3.92","163.2","NAN","NAN","NAN","NAN","NAN"],
    [1565874,"2026-08-09 17:20:00","2627","2.093","205.0","3.528","225","NAN","NAN","NAN","NAN","NAN"],
    [1565875,"2026-08-09 17:30:00","2628","2.4459999999999997","206.5","3.822","219.8","NAN","NAN","NAN","NAN","NAN"],
    [1565876,"2026-08-09 17:40:00","2629","2.4659999999999997","199.6","3.92","169.2","NAN","NAN","NAN","NAN","NAN"],
    [1565877,"2026-08-09 17:50:00","2630","2.355","204.5","3.92","217.6","NAN","NAN","NAN","NAN","NAN"],
    [1565878,"2026-08-09 18:00:00","2631","2.34","199.1","3.626","212","NAN","NAN","NAN","NAN","NAN"],
    [1565879,"2026-08-09 18:10:00","2632","1.885","203.0","4.018","208.8","NAN","NAN","NAN","NAN","NAN"],
    [1565880,"2026-08-09 18:20:00","2633","1.8619999999999999","223.3","3.724","221.4","NAN","NAN","NAN","NAN","NAN"],
    [1565881,"2026-08-09 18:30:00","2634","1.253","195.5","2.94","187.8","NAN","NAN","NAN","NAN","NAN"],
    [1565882,"2026-08-09 18:40:00","2635","1.505","218.3","3.038","218.6","NAN","NAN","NAN","NAN","NAN"],
    [1565883,"2026-08-09 18:50:00","2636","1.8359999999999999","204.4","2.94","219","NAN","NAN","NAN","NAN","NAN"],
    [1565884,"2026-08-09 19:00:00","2637","2.189","185.4","3.43","173.6","NAN","NAN","NAN","NAN","NAN"],
    [1565885,"2026-08-09 19:10:00","2638","2.2430000000000003","184.3","3.528","172","NAN","NAN","NAN","NAN","NAN"],
    [1565886,"2026-08-09 19:20:00","2639","1.966","204.8","3.43","216.6","NAN","NAN","NAN","NAN","NAN"],
    [1565887,"2026-08-09 19:30:00","2640","1.639","191.3","3.332","186.8","NAN","NAN","NAN","NAN","NAN"],
    [1565888,"2026-08-09 19:40:00","2641","1.483","188.7","2.548","197.8","NAN","NAN","NAN","NAN","NAN"],
    [1565889,"2026-08-09 19:50:00","2642","1.615","206.3","3.136","216.7","NAN","NAN","NAN","NAN","NAN"],
    [1565890,"2026-08-09 20:00:00","2643","1.187","214.0","2.352","214.9","NAN","NAN","NAN","NAN","NAN"],
    [1565891,"2026-08-09 20:10:00","2644","1.141","225.7","2.156","225.7","NAN","NAN","NAN","NAN","NAN"],
    [1565892,"2026-08-09 20:20:00","2645","0.89","229.8","1.666","230.5","NAN","NAN","NAN","NAN","NAN"],
    [1565893,"2026-08-09 20:30:00","2646","0.7","218.0","1.568","218.5","NAN","NAN","NAN","NAN","NAN"],
    [1565894,"2026-08-09 20:40:00","2647","0.516","216.0","1.372","213.7","NAN","NAN","NAN","NAN","NAN"],
    [1565895,"2026-08-09 20:50:00","2648","0.588","214.1","1.176","213.8","NAN","NAN","NAN","NAN","NAN"],
    [1565896,"2026-08-09 21:00:00","2649","0.285","211.7","0.882","213","NAN","NAN","NAN","NAN","NAN"],
    [1565897,"2026-08-09 21:10:00","2650","0.506","210.1","0.882","210.1","NAN","NAN","NAN","NAN","NAN"],
    [1565898,"2026-08-09 21:20:00","2651","0.569","209.4","1.176","210","NAN","NAN","NAN","NAN","NAN"],
    [1565899,"2026-08-09 21:30:00","2652","1.171","197.3","1.764","192.7","NAN","NAN","NAN","NAN","NAN"],
    [1565900,"2026-08-09 21:40:00","2653","1.3019999999999998","171.3","2.156","172.2","NAN","NAN","NAN","NAN","NAN"],
    [1565901,"2026-08-09 21:50:00","2654","1.165","166.0","1.666","166.2","NAN","NAN","NAN","NAN","NAN"],
    [1565902,"2026-08-09 22:00:00","2655","0.07400000000000001","165.3","0.686","165.2","NAN","NAN","NAN","NAN","NAN"],
    [1565903,"2026-08-09 22:10:00","2656","0.003","165.0","0.196","165","NAN","NAN","NAN","NAN","NAN"],
    [1565904,"2026-08-09 22:20:00","2657","0.01","164.8","0.294","164.9","NAN","NAN","NAN","NAN","NAN"],
    [1565905,"2026-08-09 22:30:00","2658","0.723","157.3","1.666","158.7","NAN","NAN","NAN","NAN","NAN"],
    [1565906,"2026-08-09 22:40:00","2659","0.282","155.5","0.882","155.6","NAN","NAN","NAN","NAN","NAN"],
    [1565907,"2026-08-09 22:50:00","2660","0.16","155.6","0.882","155.8","NAN","NAN","NAN","NAN","NAN"],
    [1565908,"2026-08-09 23:00:00","2661","0.324","165.0","0.686","166.7","NAN","NAN","NAN","NAN","NAN"],
    [1565909,"2026-08-09 23:10:00","2662","0.35200000000000004","177.2","0.98","174.1","NAN","NAN","NAN","NAN","NAN"],
    [1565910,"2026-08-09 23:20:00","2663","0.415","177.4","0.784","177.8","NAN","NAN","NAN","NAN","NAN"],
    [1565911,"2026-08-09 23:30:00","2664","0.297","177.9","0.784","177.9","NAN","NAN","NAN","NAN","NAN"],
    [1565912,"2026-08-09 23:40:00","2665","0.19","178.6","0.49","178","NAN","NAN","NAN","NAN","NAN"],
    [1565913,"2026-08-09 23:50:00","2666","0.067","180.1","0.392","180.2","NAN","NAN","NAN","NAN","NAN"],
    [1565914,"2026-08-10 00:00:00","2667","0.034","180.2","0.392","180.2","NAN","NAN","NAN","NAN","NAN"],
    [1565915,"2026-08-10 00:10:00","2668","0.132","179.8","0.588","179.8","NAN","NAN","NAN","NAN","NAN"],
    [1565916,"2026-08-10 00:20:00","2669","0.166","179.9","0.49","179.8","NAN","NAN","NAN","NAN","NAN"],
    [1565917,"2026-08-10 00:30:00","2670","0.064","178.9","0.49","180","NAN","NAN","NAN","NAN","NAN"],
    [1565918,"2026-08-10 00:40:00","2671","0.012","167.4","0.294","167.4","NAN","NAN","NAN","NAN","NAN"],
    [1565919,"2026-08-10 00:50:00","2672","0.08900000000000001","159.8","0.686","161.1","NAN","NAN","NAN","NAN","NAN"],
    [1565920,"2026-08-10 01:00:00","2673","0.045","151.0","0.588","150.8","NAN","NAN","NAN","NAN","NAN"],
    [1565921,"2026-08-10 01:10:00","2674","0.046","150.0","0.49","150.1","NAN","NAN","NAN","NAN","NAN"],
    [1565922,"2026-08-10 01:20:00","2675","0.069","129.0","0.392","146","NAN","NAN","NAN","NAN","NAN"],
    [1565923,"2026-08-10 01:30:00","2676","0.521","112.2","0.882","115","NAN","NAN","NAN","NAN","NAN"],
    [1565924,"2026-08-10 01:40:00","2677","0.81","107.4","1.666","106.8","NAN","NAN","NAN","NAN","NAN"],
    [1565925,"2026-08-10 01:50:00","2678","0.887","102.7","1.666","100.6","NAN","NAN","NAN","NAN","NAN"],
    [1565926,"2026-08-10 02:00:00","2679","0.654","99.7","1.47","99","NAN","NAN","NAN","NAN","NAN"],
    [1565927,"2026-08-10 02:10:00","2680","1.274","94.4","1.96","90.7","NAN","NAN","NAN","NAN","NAN"],
    [1565928,"2026-08-10 02:20:00","2681","0.7190000000000001","92.6","1.666","88.5","NAN","NAN","NAN","NAN","NAN"],
    [1565929,"2026-08-10 02:30:00","2682","1.084","85.5","2.156","87.2","NAN","NAN","NAN","NAN","NAN"],
    [1565930,"2026-08-10 02:40:00","2683","1.074","80.9","2.156","80.4","NAN","NAN","NAN","NAN","NAN"],
    [1565931,"2026-08-10 02:50:00","2684","1.298","69.9","2.548","52.09","NAN","NAN","NAN","NAN","NAN"],
    [1565932,"2026-08-10 03:00:00","2685","1.5659999999999998","52.53","2.548","54.59","NAN","NAN","NAN","NAN","NAN"],
    [1565933,"2026-08-10 03:10:00","2686","2.306","43.06","3.528","38.76","NAN","NAN","NAN","NAN","NAN"],
    [1565934,"2026-08-10 03:20:00","2687","3.043","42.85","4.312","32.89","NAN","NAN","NAN","NAN","NAN"],
    [1565935,"2026-08-10 03:30:00","2688","2.73","45.74","4.018","44.89","NAN","NAN","NAN","NAN","NAN"],
    [1565936,"2026-08-10 03:40:00","2689","2.204","54.22","3.724","59.24","NAN","NAN","NAN","NAN","NAN"],
    [1565937,"2026-08-10 03:50:00","2690","2.9810000000000003","51.16","4.704","63.79","NAN","NAN","NAN","NAN","NAN"],
    [1565938,"2026-08-10 04:00:00","2691","3.167","38.22","6.076","45.57","NAN","NAN","NAN","NAN","NAN"],
    [1565939,"2026-08-10 04:10:00","2692","2.904","51.86","5.194","42.4","NAN","NAN","NAN","NAN","NAN"],
    [1565940,"2026-08-10 04:20:00","2693","3.057","54.31","5.978","65.32","NAN","NAN","NAN","NAN","NAN"],
    [1565941,"2026-08-10 04:30:00","2694","4.877","66.43","9.02","69.15","NAN","NAN","NAN","NAN","NAN"],
    [1565942,"2026-08-10 04:40:00","2695","5.007","73.39","7.84","71.65","NAN","NAN","NAN","NAN","NAN"],
    [1565943,"2026-08-10 04:50:00","2696","3.859","88.2","7.448","94.3","NAN","NAN","NAN","NAN","NAN"],
    [1565944,"2026-08-10 05:00:00","2697","5.165","74.36","9.21","71.8","NAN","NAN","NAN","NAN","NAN"],
    [1565945,"2026-08-10 05:10:00","2698","6.289","71.98","9.41","65.71","NAN","NAN","NAN","NAN","NAN"],
    [1565946,"2026-08-10 05:20:00","2699","6.5760000000000005","72.08","9.9","82","NAN","NAN","NAN","NAN","NAN"],
    [1565947,"2026-08-10 05:30:00","2700","6.662000000000001","70.25","9.41","70.91","NAN","NAN","NAN","NAN","NAN"],
    [1565948,"2026-08-10 05:40:00","2701","7.132999999999999","69.5","10.29","70.5","NAN","NAN","NAN","NAN","NAN"],
    [1565949,"2026-08-10 05:50:00","2702","6.3020000000000005","68.14","9.51","58.68","NAN","NAN","NAN","NAN","NAN"],
    [1565950,"2026-08-10 06:00:00","2703","6.452000000000001","68.15","11.37","75.57","NAN","NAN","NAN","NAN","NAN"],
    [1565951,"2026-08-10 06:10:00","2704","5.641","68.96","9.21","70.78","NAN","NAN","NAN","NAN","NAN"],
    [1565952,"2026-08-10 06:20:00","2705","4.8580000000000005","66.13","7.546","73.14","NAN","NAN","NAN","NAN","NAN"],
    [1565953,"2026-08-10 06:30:00","2706","4.6930000000000005","61.38","6.762","63.44","NAN","NAN","NAN","NAN","NAN"],
    [1565954,"2026-08-10 06:40:00","2707","4.401","64.73","6.566","65.88","NAN","NAN","NAN","NAN","NAN"],
    [1565955,"2026-08-10 06:50:00","2708","4.235","66.91","6.762","65.01","NAN","NAN","NAN","NAN","NAN"],
    [1565956,"2026-08-10 07:00:00","2709","2.665","62.59","4.998","41.68","NAN","NAN","NAN","NAN","NAN"],
    [1565957,"2026-08-10 07:10:00","2710","2.9989999999999997","60.82","4.802","56.07","NAN","NAN","NAN","NAN","NAN"],
    [1565958,"2026-08-10 07:20:00","2711","2.872","68.26","6.076","70.67","NAN","NAN","NAN","NAN","NAN"],
    [1565959,"2026-08-10 07:30:00","2712","3.15","67.52","5.096","63.36","NAN","NAN","NAN","NAN","NAN"],
    [1565960,"2026-08-10 07:40:00","2713","3.887","72.66","7.056","84.9","NAN","NAN","NAN","NAN","NAN"],
    [1565961,"2026-08-10 07:50:00","2714","2.6639999999999997","70.03","6.37","90.9","NAN","NAN","NAN","NAN","NAN"],
    [1565962,"2026-08-10 08:00:00","2715","2.178","56.34","3.724","59.62","NAN","NAN","NAN","NAN","NAN"],
    [1565963,"2026-08-10 08:10:00","2716","2.7969999999999997","66.11","4.508","66.34","NAN","NAN","NAN","NAN","NAN"],
    [1565964,"2026-08-10 08:20:00","2717","2.8310000000000004","76.05","4.508","83.3","NAN","NAN","NAN","NAN","NAN"],
    [1565965,"2026-08-10 08:30:00","2718","2.434","65.5","4.606","54.14","NAN","NAN","NAN","NAN","NAN"],
    [1565966,"2026-08-10 08:40:00","2719","1.994","60.53","4.41","63.09","NAN","NAN","NAN","NAN","NAN"],
    [1565967,"2026-08-10 08:50:00","2720","2.524","76.74","3.92","65.11","NAN","NAN","NAN","NAN","NAN"],
    [1565968,"2026-08-10 09:00:00","2721","2.219","85.1","4.116","87.2","NAN","NAN","NAN","NAN","NAN"],
    [1565969,"2026-08-10 09:10:00","2722","3.123","103.6","5.488","119.8","NAN","NAN","NAN","NAN","NAN"],
    [1565970,"2026-08-10 09:20:00","2723","3.6519999999999997","104.1","6.468","91.6","NAN","NAN","NAN","NAN","NAN"],
    [1565971,"2026-08-10 09:30:00","2724","3.95","101.0","6.468","101.9","NAN","NAN","NAN","NAN","NAN"],
    [1565972,"2026-08-10 09:40:00","2725","3.569","98.9","6.37","96.6","NAN","NAN","NAN","NAN","NAN"],
    [1565973,"2026-08-10 09:50:00","2726","3.3510000000000004","98.5","5.88","69.33","NAN","NAN","NAN","NAN","NAN"],
    [1565974,"2026-08-10 10:00:00","2727","3.096","105.4","6.37","101.3","NAN","NAN","NAN","NAN","NAN"],
    [1565975,"2026-08-10 10:10:00","2728","3.29","114.2","5.586","100.4","NAN","NAN","NAN","NAN","NAN"],
    [1565976,"2026-08-10 10:20:00","2729","3.7760000000000002","113.4","5.39","117","NAN","NAN","NAN","NAN","NAN"],
    [1565977,"2026-08-10 10:30:00","2730","3.9760000000000004","110.1","6.664","100.3","NAN","NAN","NAN","NAN","NAN"],
    [1565978,"2026-08-10 10:40:00","2731","3.73","110.1","5.978","119.8","NAN","NAN","NAN","NAN","NAN"],
    [1565979,"2026-08-10 10:50:00","2732","3.2910000000000004","109.2","5.684","120.4","NAN","NAN","NAN","NAN","NAN"],
    [1565980,"2026-08-10 11:00:00","2733","3.52","112.6","4.9","113.5","NAN","NAN","NAN","NAN","NAN"],
    [1565981,"2026-08-10 11:10:00","2734","3.6319999999999997","113.8","5.684","101.1","NAN","NAN","NAN","NAN","NAN"],
    [1565982,"2026-08-10 11:20:00","2735","3.1719999999999997","105.7","4.9","87.9","NAN","NAN","NAN","NAN","NAN"],
    [1565983,"2026-08-10 11:30:00","2736","3.535","105.4","5.684","114","NAN","NAN","NAN","NAN","NAN"],
    [1565984,"2026-08-10 11:40:00","2737","3.468","105.8","5.39","131.5","NAN","NAN","NAN","NAN","NAN"],
    [1565985,"2026-08-10 11:50:00","2738","3.281","96.0","5.096","97.9","NAN","NAN","NAN","NAN","NAN"],
    [1565986,"2026-08-10 12:00:00","2739","3.076","99.5","5.292","96.5","NAN","NAN","NAN","NAN","NAN"],
    [1565987,"2026-08-10 12:10:00","2740","3.36","109.1","5.782","110.7","NAN","NAN","NAN","NAN","NAN"],
    [1565988,"2026-08-10 12:20:00","2741","3.97","96.9","6.076","98.7","NAN","NAN","NAN","NAN","NAN"],
    [1565989,"2026-08-10 12:30:00","2742","3.785","107.5","7.154","114.3","NAN","NAN","NAN","NAN","NAN"],
    [1565990,"2026-08-10 12:40:00","2743","4.376","107.6","6.958","113.1","NAN","NAN","NAN","NAN","NAN"],
    [1565991,"2026-08-10 12:50:00","2744","3.533","104.4","6.566","121.4","NAN","NAN","NAN","NAN","NAN"],
    [1565992,"2026-08-10 13:00:00","2745","4.059","107.5","6.86","122.2","NAN","NAN","NAN","NAN","NAN"],
    [1565993,"2026-08-10 13:10:00","2746","4.352","111.9","6.272","101.2","NAN","NAN","NAN","NAN","NAN"],
    [1565994,"2026-08-10 13:20:00","2747","4.0889999999999995","115.8","6.958","118.9","NAN","NAN","NAN","NAN","NAN"],
    [1565995,"2026-08-10 13:30:00","2748","4.1419999999999995","111.5","6.762","121.1","NAN","NAN","NAN","NAN","NAN"],
    [1565996,"2026-08-10 13:40:00","2749","4.002","115.9","6.566","135.7","NAN","NAN","NAN","NAN","NAN"],
    [1565997,"2026-08-10 13:50:00","2750","3.7060000000000004","114.1","5.88","116.9","NAN","NAN","NAN","NAN","NAN"],
    [1565998,"2026-08-10 14:00:00","2751","3.5869999999999997","110.0","5.586","111.8","NAN","NAN","NAN","NAN","NAN"],
    [1565999,"2026-08-10 14:10:00","2752","3.833","113.4","5.096","112.4","NAN","NAN","NAN","NAN","NAN"],
    [1566000,"2026-08-10 14:20:00","2753","3.253","113.0","5.292","135.1","NAN","NAN","NAN","NAN","NAN"],
    [1566001,"2026-08-10 14:30:00","2754","3.5810000000000004","110.3","4.998","118.9","NAN","NAN","NAN","NAN","NAN"],
    [1566002,"2026-08-10 14:40:00","2755","3.4530000000000003","117.4","4.998","117.4","NAN","NAN","NAN","NAN","NAN"],
    [1566003,"2026-08-10 14:50:00","2756","3.54","120.7","5.292","140.8","NAN","NAN","NAN","NAN","NAN"],
    [1566004,"2026-08-10 15:00:00","2757","3.3710000000000004","122.6","4.998","134.7","NAN","NAN","NAN","NAN","NAN"],
    [1566005,"2026-08-10 15:10:00","2758","3.034","115.5","4.998","133.9","NAN","NAN","NAN","NAN","NAN"],
    [1566006,"2026-08-10 15:20:00","2759","3.063","96.8","4.508","86.7","NAN","NAN","NAN","NAN","NAN"],
    [1566007,"2026-08-10 15:30:00","2760","2.61","88.3","4.312","94.8","NAN","NAN","NAN","NAN","NAN"],
    [1566008,"2026-08-10 15:40:00","2761","3.2680000000000002","93.3","5.488","99.9","NAN","NAN","NAN","NAN","NAN"],
    [1566009,"2026-08-10 15:50:00","2762","3.3089999999999997","88.5","4.998","107.1","NAN","NAN","NAN","NAN","NAN"],
    [1566010,"2026-08-10 16:00:00","2763","3.193","85.5","5.194","93.1","NAN","NAN","NAN","NAN","NAN"],
    [1566011,"2026-08-10 16:10:00","2764","2.625","90.5","4.312","102.7","NAN","NAN","NAN","NAN","NAN"],
    [1566012,"2026-08-10 16:20:00","2765","2.6210000000000004","86.8","4.116","93.5","NAN","NAN","NAN","NAN","NAN"],
    [1566013,"2026-08-10 16:30:00","2766","2.759","93.8","4.41","94.3","NAN","NAN","NAN","NAN","NAN"],
    [1566014,"2026-08-10 16:40:00","2767","2.74","81.9","4.018","88.7","NAN","NAN","NAN","NAN","NAN"],
    [1566015,"2026-08-10 16:50:00","2768","1.71","105.0","2.94","81","NAN","NAN","NAN","NAN","NAN"],
    [1566016,"2026-08-10 17:00:00","2769","2.016","123.4","3.626","150.8","NAN","NAN","NAN","NAN","NAN"],
    [1566017,"2026-08-10 17:10:00","2770","1.9669999999999999","112.8","3.332","101.3","NAN","NAN","NAN","NAN","NAN"],
    [1566018,"2026-08-10 17:20:00","2771","2.1390000000000002","115.7","3.136","134.4","NAN","NAN","NAN","NAN","NAN"],
    [1566019,"2026-08-10 17:30:00","2772","2.375","99.0","3.626","95.3","NAN","NAN","NAN","NAN","NAN"],
    [1566020,"2026-08-10 17:40:00","2773","1.931","92.2","3.234","98.1","NAN","NAN","NAN","NAN","NAN"],
    [1566021,"2026-08-10 17:50:00","2774","2.228","84.1","3.92","75.39","NAN","NAN","NAN","NAN","NAN"],
    [1566022,"2026-08-10 18:00:00","2775","2.349","101.6","3.332","107.5","NAN","NAN","NAN","NAN","NAN"],
    [1566023,"2026-08-10 18:10:00","2776","1.8730000000000002","108.6","2.842","116","NAN","NAN","NAN","NAN","NAN"],
    [1566024,"2026-08-10 18:20:00","2777","2.2030000000000003","118.6","3.724","129.9","NAN","NAN","NAN","NAN","NAN"],
    [1566025,"2026-08-10 18:30:00","2778","1.81","113.1","2.94","108.1","NAN","NAN","NAN","NAN","NAN"],
    [1566026,"2026-08-10 18:40:00","2779","1.494","108.9","2.744","98.9","NAN","NAN","NAN","NAN","NAN"],
    [1566027,"2026-08-10 18:50:00","2780","1.082","116.9","2.352","113.5","NAN","NAN","NAN","NAN","NAN"],
    [1566028,"2026-08-10 19:00:00","2781","1.278","122.1","2.254","127.3","NAN","NAN","NAN","NAN","NAN"],
    [1566029,"2026-08-10 19:10:00","2782","0.757","118.1","1.96","123.4","NAN","NAN","NAN","NAN","NAN"],
    [1566030,"2026-08-10 19:20:00","2783","0.871","117.5","1.666","107.6","NAN","NAN","NAN","NAN","NAN"],
    [1566031,"2026-08-10 19:30:00","2784","0.604","110.2","1.372","107.6","NAN","NAN","NAN","NAN","NAN"],
    [1566032,"2026-08-10 19:40:00","2785","0.7140000000000001","118.3","1.666","106.7","NAN","NAN","NAN","NAN","NAN"],
    [1566033,"2026-08-10 19:50:00","2786","1.328","117.3","2.45","114","NAN","NAN","NAN","NAN","NAN"],
    [1566034,"2026-08-10 20:00:00","2787","1.082","103.2","1.764","101","NAN","NAN","NAN","NAN","NAN"],
    [1566035,"2026-08-10 20:10:00","2788","0.754","100.7","1.666","100.8","NAN","NAN","NAN","NAN","NAN"],
    [1566036,"2026-08-10 20:20:00","2789","0.754","106.6","1.568","113.8","NAN","NAN","NAN","NAN","NAN"],
    [1566037,"2026-08-10 20:30:00","2790","1.4340000000000002","113.8","2.352","122","NAN","NAN","NAN","NAN","NAN"],
    [1566038,"2026-08-10 20:40:00","2791","1.541","124.6","2.646","126.7","NAN","NAN","NAN","NAN","NAN"],
    [1566039,"2026-08-10 20:50:00","2792","1.7730000000000001","130.9","2.548","131.1","NAN","NAN","NAN","NAN","NAN"],
    [1566040,"2026-08-10 21:00:00","2793","0.884","111.9","2.058","112.7","NAN","NAN","NAN","NAN","NAN"],
    [1566041,"2026-08-10 21:10:00","2794","1.101","124.7","1.96","135.8","NAN","NAN","NAN","NAN","NAN"],
    [1566042,"2026-08-10 21:20:00","2795","2.033","139.5","3.136","139.8","NAN","NAN","NAN","NAN","NAN"],
    [1566043,"2026-08-10 21:30:00","2796","1.2","140.0","2.646","144.7","NAN","NAN","NAN","NAN","NAN"],
    [1566044,"2026-08-10 21:40:00","2797","0.02","132.6","0.588","132.6","NAN","NAN","NAN","NAN","NAN"],
    [1566045,"2026-08-10 21:50:00","2798","0.406","146.0","1.372","146.5","NAN","NAN","NAN","NAN","NAN"],
    [1566046,"2026-08-10 22:00:00","2799","0.19899999999999998","150.4","1.078","149.3","NAN","NAN","NAN","NAN","NAN"],
    [1566047,"2026-08-10 22:10:00","2800","0.319","152.3","0.686","150.7","NAN","NAN","NAN","NAN","NAN"],
    [1566048,"2026-08-10 22:20:00","2801","0.051","149.5","0.49","152.8","NAN","NAN","NAN","NAN","NAN"],
    [1566049,"2026-08-10 22:30:00","2802","0.142","121.4","0.98","125.5","NAN","NAN","NAN","NAN","NAN"],
    [1566050,"2026-08-10 22:40:00","2803","1.489","45.9","2.94","41.58","NAN","NAN","NAN","NAN","NAN"],
    [1566051,"2026-08-10 22:50:00","2804","2.9189999999999996","14.52","4.41","4.932","NAN","NAN","NAN","NAN","NAN"],
    [1566052,"2026-08-10 23:00:00","2805","1.791","9.97","2.94","8.52","NAN","NAN","NAN","NAN","NAN"],
    [1566053,"2026-08-10 23:10:00","2806","2.511","351.1","4.704","324.8","NAN","NAN","NAN","NAN","NAN"],
    [1566054,"2026-08-10 23:20:00","2807","2.87","348.6","4.41","2.839","NAN","NAN","NAN","NAN","NAN"],
    [1566055,"2026-08-10 23:30:00","2808","2.6489999999999996","356.2","4.018","1.588","NAN","NAN","NAN","NAN","NAN"],
    [1566056,"2026-08-10 23:40:00","2809","3.1310000000000002","355.3","5.292","5.149","NAN","NAN","NAN","NAN","NAN"],
    [1566057,"2026-08-10 23:50:00","2810","2.205","351.2","3.92","348","NAN","NAN","NAN","NAN","NAN"],
    [1566058,"2026-08-11 00:00:00","2811","1.224","6.796","2.842","349.6","NAN","NAN","NAN","NAN","NAN"],
    [1566059,"2026-08-11 00:10:00","2812","0.746","18.14","2.058","14.77","NAN","NAN","NAN","NAN","NAN"],
    [1566060,"2026-08-11 00:20:00","2813","0.848","107.1","2.254","143.8","NAN","NAN","NAN","NAN","NAN"],
    [1566061,"2026-08-11 00:30:00","2814","2.6260000000000003","125.4","5.684","120.6","NAN","NAN","NAN","NAN","NAN"],
    [1566062,"2026-08-11 00:40:00","2815","4.373","84.1","7.35","70.84","NAN","NAN","NAN","NAN","NAN"],
    [1566063,"2026-08-11 00:50:00","2816","2.016","68.77","5.194","65.81","NAN","NAN","NAN","NAN","NAN"],
    [1566064,"2026-08-11 01:00:00","2817","2.161","39.71","3.528","39.32","NAN","NAN","NAN","NAN","NAN"],
    [1566065,"2026-08-11 01:10:00","2818","1.5719999999999998","59.93","3.528","68.36","NAN","NAN","NAN","NAN","NAN"],
    [1566066,"2026-08-11 01:20:00","2819","1.598","64.31","3.43","40.38","NAN","NAN","NAN","NAN","NAN"],
    [1566067,"2026-08-11 01:30:00","2820","1.578","48.64","2.744","33.37","NAN","NAN","NAN","NAN","NAN"],
    [1566068,"2026-08-11 01:40:00","2821","1.204","30.87","4.704","273.6","NAN","NAN","NAN","NAN","NAN"],
    [1566069,"2026-08-11 01:50:00","2822","2.905","287.3","4.704","273.6","NAN","NAN","NAN","NAN","NAN"],
    [1566070,"2026-08-11 02:00:00","2823","2.424","311.8","4.214","298.4","NAN","NAN","NAN","NAN","NAN"],
    [1566071,"2026-08-11 02:10:00","2824","1.46","325.9","3.136","327.6","NAN","NAN","NAN","NAN","NAN"],
    [1566072,"2026-08-11 02:20:00","2825","0.5670000000000001","316.4","1.666","318.1","NAN","NAN","NAN","NAN","NAN"],
    [1566073,"2026-08-11 02:30:00","2826","0.08199999999999999","317.6","0.49","315.7","NAN","NAN","NAN","NAN","NAN"],
    [1566074,"2026-08-11 02:40:00","2827","0.35200000000000004","323.6","1.372","320.1","NAN","NAN","NAN","NAN","NAN"],
    [1566075,"2026-08-11 02:50:00","2828","0.866","310.9","2.058","306.6","NAN","NAN","NAN","NAN","NAN"],
    [1566076,"2026-08-11 03:00:00","2829","1.176","302.3","2.45","303.8","NAN","NAN","NAN","NAN","NAN"],
    [1566077,"2026-08-11 03:10:00","2830","1.6019999999999999","291.3","2.94","280.7","NAN","NAN","NAN","NAN","NAN"],
    [1566078,"2026-08-11 03:20:00","2831","1.321","283.8","2.254","291.7","NAN","NAN","NAN","NAN","NAN"],
    [1566079,"2026-08-11 03:30:00","2832","1.8980000000000001","285.2","3.43","279.9","NAN","NAN","NAN","NAN","NAN"],
    [1566080,"2026-08-11 03:40:00","2833","1.8519999999999999","294.1","2.842","296.3","NAN","NAN","NAN","NAN","NAN"],
    [1566081,"2026-08-11 03:50:00","2834","0.978","285.4","1.568","287.2","NAN","NAN","NAN","NAN","NAN"],
    [1566082,"2026-08-11 04:00:00","2835","1.531","297.1","2.352","302.9","NAN","NAN","NAN","NAN","NAN"],
    [1566083,"2026-08-11 04:10:00","2836","1.732","299.9","2.744","300.1","NAN","NAN","NAN","NAN","NAN"],
    [1566084,"2026-08-11 04:20:00","2837","1.56","304.6","2.45","303.4","NAN","NAN","NAN","NAN","NAN"],
    [1566085,"2026-08-11 04:30:00","2838","1.094","315.7","1.862","315.2","NAN","NAN","NAN","NAN","NAN"],
    [1566086,"2026-08-11 04:40:00","2839","0.193","312.4","1.176","314.5","NAN","NAN","NAN","NAN","NAN"],
    [1566087,"2026-08-11 04:50:00","2840","0.01","315.6","0.294","315.6","NAN","NAN","NAN","NAN","NAN"],
    [1566088,"2026-08-11 05:00:00","2841","0.0","0.0","0","315.5","NAN","NAN","NAN","NAN","NAN"],
    [1566089,"2026-08-11 05:10:00","2842","0.124","303.1","0.882","303.4","NAN","NAN","NAN","NAN","NAN"],
    [1566090,"2026-08-11 05:20:00","2843","0.192","293.1","1.47","292.6","NAN","NAN","NAN","NAN","NAN"],
    [1566091,"2026-08-11 05:30:00","2844","0.922","291.2","1.96","291.3","NAN","NAN","NAN","NAN","NAN"],
    [1566092,"2026-08-11 05:40:00","2845","0.873","291.4","1.568","290.8","NAN","NAN","NAN","NAN","NAN"],
    [1566093,"2026-08-11 05:50:00","2846","0.863","292.0","1.372","290.7","NAN","NAN","NAN","NAN","NAN"],
    [1566094,"2026-08-11 06:00:00","2847","0.833","291.6","1.764","289.7","NAN","NAN","NAN","NAN","NAN"],
    [1566095,"2026-08-11 06:10:00","2848","1.091","293.3","1.862","288.4","NAN","NAN","NAN","NAN","NAN"],
    [1566096,"2026-08-11 06:20:00","2849","0.371","296.4","3.822","80.7","NAN","NAN","NAN","NAN","NAN"],
    [1566097,"2026-08-11 06:30:00","2850","3.432","88.3","6.566","95.6","NAN","NAN","NAN","NAN","NAN"],
    [1566098,"2026-08-11 06:40:00","2851","3.176","54.37","5.586","33.54","NAN","NAN","NAN","NAN","NAN"],
    [1566099,"2026-08-11 06:50:00","2852","2.966","50.83","5.194","51.25","NAN","NAN","NAN","NAN","NAN"],
    [1566100,"2026-08-11 07:00:00","2853","3.602","68.99","6.958","74.61","NAN","NAN","NAN","NAN","NAN"],
    [1566101,"2026-08-11 07:10:00","2854","3.298","72.0","6.076","76.95","NAN","NAN","NAN","NAN","NAN"],
    [1566102,"2026-08-11 07:20:00","2855","3.645","79.91","5.978","64.17","NAN","NAN","NAN","NAN","NAN"],
    [1566103,"2026-08-11 07:30:00","2856","4.175","78.57","6.762","86.5","NAN","NAN","NAN","NAN","NAN"],
    [1566104,"2026-08-11 07:40:00","2857","4.362","76.62","7.154","72.42","NAN","NAN","NAN","NAN","NAN"],
    [1566105,"2026-08-11 07:50:00","2858","3.678","73.05","6.076","79.54","NAN","NAN","NAN","NAN","NAN"],
    [1566106,"2026-08-11 08:00:00","2859","3.991","86.0","6.272","82.5","NAN","NAN","NAN","NAN","NAN"],
    [1566107,"2026-08-11 08:10:00","2860","4.271","96.7","7.154","99.4","NAN","NAN","NAN","NAN","NAN"],
    [1566108,"2026-08-11 08:20:00","2861","4.093","81.4","6.566","91.5","NAN","NAN","NAN","NAN","NAN"],
    [1566109,"2026-08-11 08:30:00","2862","4.6080000000000005","82.0","7.35","75.46","NAN","NAN","NAN","NAN","NAN"],
    [1566110,"2026-08-11 08:40:00","2863","4.386","93.0","6.566","89.5","NAN","NAN","NAN","NAN","NAN"],
    [1566111,"2026-08-11 08:50:00","2864","3.535","101.5","6.174","108.7","NAN","NAN","NAN","NAN","NAN"],
    [1566112,"2026-08-11 09:00:00","2865","3.7239999999999998","94.7","5.978","86.3","NAN","NAN","NAN","NAN","NAN"],
    [1566113,"2026-08-11 09:10:00","2866","3.292","78.1","5.096","88","NAN","NAN","NAN","NAN","NAN"],
    [1566114,"2026-08-11 09:20:00","2867","3.642","72.89","5.684","76.38","NAN","NAN","NAN","NAN","NAN"],
    [1566115,"2026-08-11 09:30:00","2868","3.378","69.58","5.88","76.33","NAN","NAN","NAN","NAN","NAN"],
    [1566116,"2026-08-11 09:40:00","2869","2.9139999999999997","87.6","5.096","119.1","NAN","NAN","NAN","NAN","NAN"],
    [1566117,"2026-08-11 09:50:00","2870","3.033","97.3","4.802","96.6","NAN","NAN","NAN","NAN","NAN"],
    [1566118,"2026-08-11 10:00:00","2871","3.043","91.7","4.704","79.46","NAN","NAN","NAN","NAN","NAN"],
    [1566119,"2026-08-11 10:10:00","2872","2.821","98.0","4.802","90.2","NAN","NAN","NAN","NAN","NAN"],
    [1566120,"2026-08-11 10:20:00","2873","3.352","104.7","4.704","103.3","NAN","NAN","NAN","NAN","NAN"],
    [1566121,"2026-08-11 10:30:00","2874","3.29","90.6","4.802","75.61","NAN","NAN","NAN","NAN","NAN"],
    [1566122,"2026-08-11 10:40:00","2875","3.2089999999999996","99.2","4.9","88.8","NAN","NAN","NAN","NAN","NAN"],
    [1566123,"2026-08-11 10:50:00","2876","3.3369999999999997","101.4","4.704","128.4","NAN","NAN","NAN","NAN","NAN"],
    [1566124,"2026-08-11 11:00:00","2877","3.4810000000000003","96.6","5.292","76.16","NAN","NAN","NAN","NAN","NAN"],
    [1566125,"2026-08-11 11:10:00","2878","3.8310000000000004","98.6","5.782","95","NAN","NAN","NAN","NAN","NAN"],
    [1566126,"2026-08-11 11:20:00","2879","3.505","99.6","5.194","98.3","NAN","NAN","NAN","NAN","NAN"],
    [1566127,"2026-08-11 11:30:00","2880","3.674","85.7","6.076","85.9","NAN","NAN","NAN","NAN","NAN"],
    [1566128,"2026-08-11 11:40:00","2881","3.713","100.8","6.272","104","NAN","NAN","NAN","NAN","NAN"],
    [1566129,"2026-08-11 11:50:00","2882","3.443","97.2","5.684","79.89","NAN","NAN","NAN","NAN","NAN"],
    [1566130,"2026-08-11 12:00:00","2883","3.681","97.0","5.978","78.28","NAN","NAN","NAN","NAN","NAN"],
    [1566131,"2026-08-11 12:10:00","2884","3.594","90.0","5.586","65.27","NAN","NAN","NAN","NAN","NAN"],
    [1566132,"2026-08-11 12:20:00","2885","3.4930000000000003","98.0","5.684","83.7","NAN","NAN","NAN","NAN","NAN"],
    [1566133,"2026-08-11 12:30:00","2886","3.24","98.5","5.292","85.2","NAN","NAN","NAN","NAN","NAN"],
    [1566134,"2026-08-11 12:40:00","2887","3.5869999999999997","99.6","5.488","96.3","NAN","NAN","NAN","NAN","NAN"],
    [1566135,"2026-08-11 12:50:00","2888","3.0639999999999996","97.5","5.39","79.48","NAN","NAN","NAN","NAN","NAN"],
    [1566136,"2026-08-11 13:00:00","2889","3.157","111.0","4.998","86.9","NAN","NAN","NAN","NAN","NAN"],
    [1566137,"2026-08-11 13:10:00","2890","3.741","118.6","5.39","111.7","NAN","NAN","NAN","NAN","NAN"],
    [1566138,"2026-08-11 13:20:00","2891","3.344","110.3","5.194","110.3","NAN","NAN","NAN","NAN","NAN"],
    [1566139,"2026-08-11 13:30:00","2892","2.716","112.5","5.096","133.1","NAN","NAN","NAN","NAN","NAN"],
    [1566140,"2026-08-11 13:40:00","2893","3.135","108.8","5.586","119.1","NAN","NAN","NAN","NAN","NAN"],
    [1566141,"2026-08-11 13:50:00","2894","3.1310000000000002","106.2","4.998","102.1","NAN","NAN","NAN","NAN","NAN"],
    [1566142,"2026-08-11 14:00:00","2895","2.544","114.7","4.508","118.2","NAN","NAN","NAN","NAN","NAN"],
    [1566143,"2026-08-11 14:10:00","2896","2.852","100.1","4.214","102.4","NAN","NAN","NAN","NAN","NAN"],
    [1566144,"2026-08-11 14:20:00","2897","2.9589999999999996","115.0","4.606","115.9","NAN","NAN","NAN","NAN","NAN"],
    [1566145,"2026-08-11 14:30:00","2898","2.9610000000000003","114.5","4.41","111.4","NAN","NAN","NAN","NAN","NAN"],
    [1566146,"2026-08-11 14:40:00","2899","2.892","113.8","4.9","110.7","NAN","NAN","NAN","NAN","NAN"],
    [1566147,"2026-08-11 14:50:00","2900","3.2680000000000002","111.9","4.41","104.1","NAN","NAN","NAN","NAN","NAN"],
    [1566148,"2026-08-11 15:00:00","2901","3.1460000000000004","110.5","4.41","123.4","NAN","NAN","NAN","NAN","NAN"],
    [1566149,"2026-08-11 15:10:00","2902","3.073","122.3","4.41","138.3","NAN","NAN","NAN","NAN","NAN"],
    [1566150,"2026-08-11 15:20:00","2903","3.109","119.7","4.998","114.5","NAN","NAN","NAN","NAN","NAN"],
    [1566151,"2026-08-11 15:30:00","2904","2.742","132.4","4.508","147","NAN","NAN","NAN","NAN","NAN"],
    [1566152,"2026-08-11 15:40:00","2905","3.054","110.1","4.41","123.9","NAN","NAN","NAN","NAN","NAN"],
    [1566153,"2026-08-11 15:50:00","2906","2.3890000000000002","105.3","3.528","78","NAN","NAN","NAN","NAN","NAN"],
    [1566154,"2026-08-11 16:00:00","2907","2.688","116.5","4.41","138.3","NAN","NAN","NAN","NAN","NAN"],
    [1566155,"2026-08-11 16:10:00","2908","2.437","136.6","4.41","138.1","NAN","NAN","NAN","NAN","NAN"],
    [1566156,"2026-08-11 16:20:00","2909","2.484","118.9","3.822","105.7","NAN","NAN","NAN","NAN","NAN"],
    [1566157,"2026-08-11 16:30:00","2910","2.396","120.0","3.724","107.9","NAN","NAN","NAN","NAN","NAN"],
    [1566158,"2026-08-11 16:40:00","2911","2.042","117.9","3.822","101","NAN","NAN","NAN","NAN","NAN"],
    [1566159,"2026-08-11 16:50:00","2912","2.222","111.7","3.528","100.3","NAN","NAN","NAN","NAN","NAN"],
    [1566160,"2026-08-11 17:00:00","2913","2.25","104.0","3.332","90.4","NAN","NAN","NAN","NAN","NAN"],
    [1566161,"2026-08-11 17:10:00","2914","2.3890000000000002","113.9","3.528","115.9","NAN","NAN","NAN","NAN","NAN"],
    [1566162,"2026-08-11 17:20:00","2915","2.279","123.9","3.528","114.1","NAN","NAN","NAN","NAN","NAN"],
    [1566163,"2026-08-11 17:30:00","2916","1.9040000000000001","118.6","2.94","110.3","NAN","NAN","NAN","NAN","NAN"],
    [1566164,"2026-08-11 17:40:00","2917","2.3480000000000003","102.4","3.43","104.5","NAN","NAN","NAN","NAN","NAN"],
    [1566165,"2026-08-11 17:50:00","2918","2.135","105.7","3.724","109.9","NAN","NAN","NAN","NAN","NAN"],
    [1566166,"2026-08-11 18:00:00","2919","1.953","96.3","3.43","97.4","NAN","NAN","NAN","NAN","NAN"],
    [1566167,"2026-08-11 18:10:00","2920","2.181","102.9","3.234","112.6","NAN","NAN","NAN","NAN","NAN"],
    [1566168,"2026-08-11 18:20:00","2921","2.283","98.2","3.528","90.9","NAN","NAN","NAN","NAN","NAN"],
    [1566169,"2026-08-11 18:30:00","2922","2.269","90.3","4.41","70.1","NAN","NAN","NAN","NAN","NAN"],
    [1566170,"2026-08-11 18:40:00","2923","3.15","71.23","4.9","68.17","NAN","NAN","NAN","NAN","NAN"],
    [1566171,"2026-08-11 18:50:00","2924","2.6039999999999996","74.44","4.802","74.36","NAN","NAN","NAN","NAN","NAN"],
    [1566172,"2026-08-11 19:00:00","2925","2.47","94.4","4.214","93.8","NAN","NAN","NAN","NAN","NAN"],
    [1566173,"2026-08-11 19:10:00","2926","3.134","73.09","4.998","70.41","NAN","NAN","NAN","NAN","NAN"],
    [1566174,"2026-08-11 19:20:00","2927","2.4819999999999998","53.51","4.312","65.96","NAN","NAN","NAN","NAN","NAN"],
    [1566175,"2026-08-11 19:30:00","2928","3.1839999999999997","42.29","4.312","24.78","NAN","NAN","NAN","NAN","NAN"],
    [1566176,"2026-08-11 19:40:00","2929","2.9010000000000002","46.99","4.214","35.41","NAN","NAN","NAN","NAN","NAN"],
    [1566177,"2026-08-11 19:50:00","2930","2.0469999999999997","59.58","4.018","70.48","NAN","NAN","NAN","NAN","NAN"],
    [1566178,"2026-08-11 20:00:00","2931","2.3569999999999998","51.8","3.92","66.44","NAN","NAN","NAN","NAN","NAN"],
    [1566179,"2026-08-11 20:10:00","2932","2.748","48.02","4.214","36.71","NAN","NAN","NAN","NAN","NAN"],
    [1566180,"2026-08-11 20:20:00","2933","2.5789999999999997","56.71","4.312","56.43","NAN","NAN","NAN","NAN","NAN"],
    [1566181,"2026-08-11 20:30:00","2934","1.8940000000000001","60.16","3.136","66.64","NAN","NAN","NAN","NAN","NAN"],
    [1566182,"2026-08-11 20:40:00","2935","1.666","55.5","2.94","51.82","NAN","NAN","NAN","NAN","NAN"],
    [1566183,"2026-08-11 20:50:00","2936","2.0469999999999997","55.8","3.528","69.5","NAN","NAN","NAN","NAN","NAN"],
    [1566184,"2026-08-11 21:00:00","2937","2.5989999999999998","67.98","3.724","67.89","NAN","NAN","NAN","NAN","NAN"],
    [1566185,"2026-08-11 21:10:00","2938","2.3480000000000003","65.21","3.724","72.61","NAN","NAN","NAN","NAN","NAN"],
    [1566186,"2026-08-11 21:20:00","2939","2.234","61.42","3.332","49.66","NAN","NAN","NAN","NAN","NAN"],
    [1566187,"2026-08-11 21:30:00","2940","2.545","67.44","3.92","68.96","NAN","NAN","NAN","NAN","NAN"],
    [1566188,"2026-08-11 21:40:00","2941","1.5419999999999998","69.74","3.43","72.95","NAN","NAN","NAN","NAN","NAN"],
    [1566189,"2026-08-11 21:50:00","2942","1.099","77.21","2.058","63.28","NAN","NAN","NAN","NAN","NAN"],
    [1566190,"2026-08-11 22:00:00","2943","0.8320000000000001","77.61","1.96","72.43","NAN","NAN","NAN","NAN","NAN"],
    [1566191,"2026-08-11 22:10:00","2944","0.385","80.9","1.47","80.8","NAN","NAN","NAN","NAN","NAN"],
    [1566192,"2026-08-11 22:20:00","2945","0.19899999999999998","92.7","0.784","92.9","NAN","NAN","NAN","NAN","NAN"],
    [1566193,"2026-08-11 22:30:00","2946","0.034","97.5","0.392","94.4","NAN","NAN","NAN","NAN","NAN"],
    [1566194,"2026-08-11 22:40:00","2947","0.075","99.2","0.49","99.2","NAN","NAN","NAN","NAN","NAN"],
    [1566195,"2026-08-11 22:50:00","2948","0.037000000000000005","100.5","0.686","100.4","NAN","NAN","NAN","NAN","NAN"],
    [1566196,"2026-08-11 23:00:00","2949","0.42200000000000004","90.2","1.47","88.1","NAN","NAN","NAN","NAN","NAN"],
    [1566197,"2026-08-11 23:10:00","2950","0.6890000000000001","77.86","1.274","87.5","NAN","NAN","NAN","NAN","NAN"],
    [1566198,"2026-08-11 23:20:00","2951","0.8140000000000001","357.9","1.96","351.1","NAN","NAN","NAN","NAN","NAN"],
    [1566199,"2026-08-11 23:30:00","2952","0.971","341.2","2.254","342.3","NAN","NAN","NAN","NAN","NAN"],
    [1566200,"2026-08-11 23:40:00","2953","1.3019999999999998","347.6","2.254","0.193","NAN","NAN","NAN","NAN","NAN"],
    [1566201,"2026-08-11 23:50:00","2954","0.251","0.41600000000000004","0.882","0.481","NAN","NAN","NAN","NAN","NAN"],
    [1566202,"2026-08-12 00:00:00","2955","0.188","351.0","0.686","350.5","NAN","NAN","NAN","NAN","NAN"],
    [1566203,"2026-08-12 00:10:00","2956","0.547","348.9","1.176","349.2","NAN","NAN","NAN","NAN","NAN"],
    [1566204,"2026-08-12 00:20:00","2957","0.175","348.4","0.588","348.4","NAN","NAN","NAN","NAN","NAN"],
    [1566205,"2026-08-12 00:30:00","2958","0.011000000000000001","348.2","0.294","348.3","NAN","NAN","NAN","NAN","NAN"],
    [1566206,"2026-08-12 00:40:00","2959","0.0","0.0","0","347.6","NAN","NAN","NAN","NAN","NAN"],
    [1566207,"2026-08-12 00:50:00","2960","0.8220000000000001","327.8","1.96","319.7","NAN","NAN","NAN","NAN","NAN"],
    [1566208,"2026-08-12 01:00:00","2961","0.9990000000000001","311.0","1.96","319.7","NAN","NAN","NAN","NAN","NAN"],
    [1566209,"2026-08-12 01:10:00","2962","0.502","310.9","1.372","308.6","NAN","NAN","NAN","NAN","NAN"],
    [1566210,"2026-08-12 01:20:00","2963","0.698","308.2","1.176","308","NAN","NAN","NAN","NAN","NAN"],
    [1566211,"2026-08-12 01:30:00","2964","0.161","325.2","0.784","326","NAN","NAN","NAN","NAN","NAN"],
    [1566212,"2026-08-12 01:40:00","2965","0.278","327.7","1.176","325.4","NAN","NAN","NAN","NAN","NAN"],
    [1566213,"2026-08-12 01:50:00","2966","0.026000000000000002","331.4","0.392","329.8","NAN","NAN","NAN","NAN","NAN"],
    [1566214,"2026-08-12 02:00:00","2967","0.44299999999999995","346.5","1.96","0.65","NAN","NAN","NAN","NAN","NAN"],
    [1566215,"2026-08-12 02:10:00","2968","0.516","8.03","1.862","13.71","NAN","NAN","NAN","NAN","NAN"],
    [1566216,"2026-08-12 02:20:00","2969","1.631","26.01","2.254","17.76","NAN","NAN","NAN","NAN","NAN"],
    [1566217,"2026-08-12 02:30:00","2970","1.181","29.68","1.96","32.1","NAN","NAN","NAN","NAN","NAN"],
    [1566218,"2026-08-12 02:40:00","2971","1.062","32.72","2.254","36.62","NAN","NAN","NAN","NAN","NAN"],
    [1566219,"2026-08-12 02:50:00","2972","0.136","25.29","1.274","23.05","NAN","NAN","NAN","NAN","NAN"],
    [1566220,"2026-08-12 03:00:00","2973","0.485","336.8","1.666","306","NAN","NAN","NAN","NAN","NAN"],
    [1566221,"2026-08-12 03:10:00","2974","1.454","294.7","2.254","297.1","NAN","NAN","NAN","NAN","NAN"],
    [1566222,"2026-08-12 03:20:00","2975","0.893","295.8","1.274","299.9","NAN","NAN","NAN","NAN","NAN"],
    [1566223,"2026-08-12 03:30:00","2976","0.157","292.8","0.98","293","NAN","NAN","NAN","NAN","NAN"],
    [1566224,"2026-08-12 03:40:00","2977","0.898","291.2","1.568","291.2","NAN","NAN","NAN","NAN","NAN"],
    [1566225,"2026-08-12 03:50:00","2978","0.809","288.8","1.274","288.8","NAN","NAN","NAN","NAN","NAN"],
    [1566226,"2026-08-12 04:00:00","2979","1.2109999999999999","287.3","2.058","286.2","NAN","NAN","NAN","NAN","NAN"],
    [1566227,"2026-08-12 04:10:00","2980","0.9440000000000001","285.4","1.666","286.1","NAN","NAN","NAN","NAN","NAN"],
    [1566228,"2026-08-12 04:20:00","2981","1.178","278.1","1.96","275.5","NAN","NAN","NAN","NAN","NAN"],
    [1566229,"2026-08-12 04:30:00","2982","1.756","276.4","2.45","281.6","NAN","NAN","NAN","NAN","NAN"],
    [1566230,"2026-08-12 04:40:00","2983","2.0269999999999997","279.8","3.038","285.7","NAN","NAN","NAN","NAN","NAN"],
    [1566231,"2026-08-12 04:50:00","2984","1.785","279.3","2.842","273.8","NAN","NAN","NAN","NAN","NAN"],
    [1566232,"2026-08-12 05:00:00","2985","1.032","272.6","1.96","270.6","NAN","NAN","NAN","NAN","NAN"],
    [1566233,"2026-08-12 05:10:00","2986","1.0659999999999998","281.4","1.862","285.6","NAN","NAN","NAN","NAN","NAN"],
    [1566234,"2026-08-12 05:20:00","2987","0.9","278.6","1.568","275.9","NAN","NAN","NAN","NAN","NAN"],
    [1566235,"2026-08-12 05:30:00","2988","0.818","281.9","1.568","287.2","NAN","NAN","NAN","NAN","NAN"],
    [1566236,"2026-08-12 05:40:00","2989","0.628","271.6","1.176","270.5","NAN","NAN","NAN","NAN","NAN"],
    [1566237,"2026-08-12 05:50:00","2990","0.961","271.0","1.47","271.2","NAN","NAN","NAN","NAN","NAN"],
    [1566238,"2026-08-12 06:00:00","2991","1.15","269.8","1.862","275.3","NAN","NAN","NAN","NAN","NAN"],
    [1566239,"2026-08-12 06:10:00","2992","1.5530000000000002","270.1","2.254","274.3","NAN","NAN","NAN","NAN","NAN"],
    [1566240,"2026-08-12 06:20:00","2993","0.9490000000000001","281.3","1.862","279","NAN","NAN","NAN","NAN","NAN"],
    [1566241,"2026-08-12 06:30:00","2994","0.9620000000000001","270.4","1.862","276.6","NAN","NAN","NAN","NAN","NAN"],
    [1566242,"2026-08-12 06:40:00","2995","1.625","281.6","2.45","275","NAN","NAN","NAN","NAN","NAN"],
    [1566243,"2026-08-12 06:50:00","2996","0.5539999999999999","272.4","1.666","277","NAN","NAN","NAN","NAN","NAN"],
    [1566244,"2026-08-12 07:00:00","2997","1.158","63.53","3.038","87.5","NAN","NAN","NAN","NAN","NAN"],
    [1566245,"2026-08-12 07:10:00","2998","2.193","66.18","3.43","64.02","NAN","NAN","NAN","NAN","NAN"],
    [1566246,"2026-08-12 07:20:00","2999","2.185","60.63","4.018","62.7","NAN","NAN","NAN","NAN","NAN"],
    [1566247,"2026-08-12 07:30:00","3000","2.6319999999999997","63.67","4.41","73.61","NAN","NAN","NAN","NAN","NAN"],
    [1566248,"2026-08-12 07:40:00","3001","2.524","70.85","3.822","93.1","NAN","NAN","NAN","NAN","NAN"],
    [1566249,"2026-08-12 07:50:00","3002","2.381","54.0","4.116","61.84","NAN","NAN","NAN","NAN","NAN"],
    [1566250,"2026-08-12 08:00:00","3003","2.6060000000000003","50.11","3.92","68.67","NAN","NAN","NAN","NAN","NAN"],
    [1566251,"2026-08-12 08:10:00","3004","2.306","78.37","3.822","68.55","NAN","NAN","NAN","NAN","NAN"],
    [1566252,"2026-08-12 08:20:00","3005","2.637","72.42","4.998","83.7","NAN","NAN","NAN","NAN","NAN"],
    [1566253,"2026-08-12 08:30:00","3006","2.54","67.17","4.508","59.34","NAN","NAN","NAN","NAN","NAN"],
    [1566254,"2026-08-12 08:40:00","3007","3.156","69.04","4.508","76.3","NAN","NAN","NAN","NAN","NAN"],
    [1566255,"2026-08-12 08:50:00","3008","2.2769999999999997","72.35","4.214","64.32","NAN","NAN","NAN","NAN","NAN"],
    [1566256,"2026-08-12 09:00:00","3009","3.217","78.51","4.508","63.86","NAN","NAN","NAN","NAN","NAN"],
    [1566257,"2026-08-12 09:10:00","3010","3.177","75.77","4.606","71.28","NAN","NAN","NAN","NAN","NAN"],
    [1566258,"2026-08-12 09:20:00","3011","3.029","72.56","4.802","68.08","NAN","NAN","NAN","NAN","NAN"],
    [1566259,"2026-08-12 09:30:00","3012","3.395","84.1","5.096","66.2","NAN","NAN","NAN","NAN","NAN"],
    [1566260,"2026-08-12 09:40:00","3013","3.3280000000000003","87.3","5.194","70.77","NAN","NAN","NAN","NAN","NAN"],
    [1566261,"2026-08-12 09:50:00","3014","2.978","97.3","5.096","90.3","NAN","NAN","NAN","NAN","NAN"],
    [1566262,"2026-08-12 10:00:00","3015","3.1210000000000004","103.3","4.998","116.2","NAN","NAN","NAN","NAN","NAN"],
    [1566263,"2026-08-12 10:10:00","3016","3.467","97.1","5.096","92.5","NAN","NAN","NAN","NAN","NAN"],
    [1566264,"2026-08-12 10:20:00","3017","3.2230000000000003","98.6","4.9","92.7","NAN","NAN","NAN","NAN","NAN"],
    [1566265,"2026-08-12 10:30:00","3018","3.5639999999999996","95.8","5.292","92.2","NAN","NAN","NAN","NAN","NAN"],
    [1566266,"2026-08-12 10:40:00","3019","3.4539999999999997","102.6","4.802","110.4","NAN","NAN","NAN","NAN","NAN"],
    [1566267,"2026-08-12 10:50:00","3020","3.003","107.0","5.194","110.5","NAN","NAN","NAN","NAN","NAN"],
    [1566268,"2026-08-12 11:00:00","3021","3.52","110.4","4.802","91.4","NAN","NAN","NAN","NAN","NAN"],
    [1566269,"2026-08-12 11:10:00","3022","3.133","110.5","4.704","141.4","NAN","NAN","NAN","NAN","NAN"],
    [1566270,"2026-08-12 11:20:00","3023","3.155","115.3","4.508","116.9","NAN","NAN","NAN","NAN","NAN"],
    [1566271,"2026-08-12 11:30:00","3024","3.272","120.4","4.998","115.5","NAN","NAN","NAN","NAN","NAN"],
    [1566272,"2026-08-12 11:40:00","3025","3.486","126.7","5.194","139.5","NAN","NAN","NAN","NAN","NAN"],
    [1566273,"2026-08-12 11:50:00","3026","3.6439999999999997","124.4","5.194","134.6","NAN","NAN","NAN","NAN","NAN"],
    [1566274,"2026-08-12 12:00:00","3027","3.76","123.9","5.194","109","NAN","NAN","NAN","NAN","NAN"],
    [1566275,"2026-08-12 12:10:00","3028","3.49","123.9","5.292","116.6","NAN","NAN","NAN","NAN","NAN"],
    [1566276,"2026-08-12 12:20:00","3029","3.196","119.8","4.312","111.7","NAN","NAN","NAN","NAN","NAN"],
    [1566277,"2026-08-12 12:30:00","3030","3.405","111.2","4.704","107.1","NAN","NAN","NAN","NAN","NAN"],
    [1566278,"2026-08-12 12:40:00","3031","3.43","109.2","4.802","109.6","NAN","NAN","NAN","NAN","NAN"],
    [1566279,"2026-08-12 12:50:00","3032","3.52","113.7","5.096","114.6","NAN","NAN","NAN","NAN","NAN"],
    [1566280,"2026-08-12 13:00:00","3033","3.3080000000000003","112.0","4.998","115.9","NAN","NAN","NAN","NAN","NAN"],
    [1566281,"2026-08-12 13:10:00","3034","3.2689999999999997","119.6","5.39","144","NAN","NAN","NAN","NAN","NAN"],
    [1566282,"2026-08-12 13:20:00","3035","3.404","114.4","4.802","127.4","NAN","NAN","NAN","NAN","NAN"],
    [1566283,"2026-08-12 13:30:00","3036","3.67","114.8","4.704","112.1","NAN","NAN","NAN","NAN","NAN"],
    [1566284,"2026-08-12 13:40:00","3037","3.69","114.4","5.096","113.9","NAN","NAN","NAN","NAN","NAN"],
    [1566285,"2026-08-12 13:50:00","3038","3.5189999999999997","109.9","4.704","121.3","NAN","NAN","NAN","NAN","NAN"],
    [1566286,"2026-08-12 14:00:00","3039","3.602","116.9","5.292","115.2","NAN","NAN","NAN","NAN","NAN"],
    [1566287,"2026-08-12 14:10:00","3040","3.7039999999999997","125.1","5.096","131.7","NAN","NAN","NAN","NAN","NAN"],
    [1566288,"2026-08-12 14:20:00","3041","3.7739999999999996","115.9","5.194","115.2","NAN","NAN","NAN","NAN","NAN"],
    [1566289,"2026-08-12 14:30:00","3042","4.091","116.7","6.272","122.8","NAN","NAN","NAN","NAN","NAN"],
    [1566290,"2026-08-12 14:40:00","3043","3.3369999999999997","114.2","4.508","114","NAN","NAN","NAN","NAN","NAN"],
    [1566291,"2026-08-12 14:50:00","3044","3.3360000000000003","116.2","5.194","103.4","NAN","NAN","NAN","NAN","NAN"],
    [1566292,"2026-08-12 15:00:00","3045","3.155","117.9","4.704","111.3","NAN","NAN","NAN","NAN","NAN"],
    [1566293,"2026-08-12 15:10:00","3046","3.105","114.3","4.508","118.9","NAN","NAN","NAN","NAN","NAN"],
    [1566294,"2026-08-12 15:20:00","3047","3.266","113.6","4.998","117.7","NAN","NAN","NAN","NAN","NAN"],
    [1566295,"2026-08-12 15:30:00","3048","3.2510000000000003","112.3","4.998","112.2","NAN","NAN","NAN","NAN","NAN"],
    [1566296,"2026-08-12 15:40:00","3049","2.9819999999999998","114.6","4.606","143.3","NAN","NAN","NAN","NAN","NAN"],
    [1566297,"2026-08-12 15:50:00","3050","2.967","114.5","4.214","109.5","NAN","NAN","NAN","NAN","NAN"],
    [1566298,"2026-08-12 16:00:00","3051","3.4010000000000002","134.7","5.39","123.7","NAN","NAN","NAN","NAN","NAN"],
    [1566299,"2026-08-12 16:10:00","3052","3.6310000000000002","127.0","5.39","123.7","NAN","NAN","NAN","NAN","NAN"],
    [1566300,"2026-08-12 16:20:00","3053","2.847","123.4","4.41","98.8","NAN","NAN","NAN","NAN","NAN"],
    [1566301,"2026-08-12 16:30:00","3054","2.978","111.7","4.214","110.3","NAN","NAN","NAN","NAN","NAN"],
    [1566302,"2026-08-12 16:40:00","3055","2.843","113.3","4.018","112.7","NAN","NAN","NAN","NAN","NAN"],
    [1566303,"2026-08-12 16:50:00","3056","2.623","124.2","3.92","106.3","NAN","NAN","NAN","NAN","NAN"],
    [1566304,"2026-08-12 17:00:00","3057","2.9130000000000003","125.5","4.508","149.9","NAN","NAN","NAN","NAN","NAN"],
    [1566305,"2026-08-12 17:10:00","3058","2.89","114.5","3.724","114.7","NAN","NAN","NAN","NAN","NAN"],
    [1566306,"2026-08-12 17:20:00","3059","2.7689999999999997","116.4","3.822","122.9","NAN","NAN","NAN","NAN","NAN"],
    [1566307,"2026-08-12 17:30:00","3060","2.846","111.0","4.312","89.3","NAN","NAN","NAN","NAN","NAN"],
    [1566308,"2026-08-12 17:40:00","3061","2.324","127.7","4.214","142","NAN","NAN","NAN","NAN","NAN"],
    [1566309,"2026-08-12 17:50:00","3062","2.244","120.5","3.528","131","NAN","NAN","NAN","NAN","NAN"],
    [1566310,"2026-08-12 18:00:00","3063","2.3209999999999997","111.8","3.822","125.5","NAN","NAN","NAN","NAN","NAN"],
    [1566311,"2026-08-12 18:10:00","3064","2.133","105.7","3.234","97.9","NAN","NAN","NAN","NAN","NAN"],
    [1566312,"2026-08-12 18:20:00","3065","1.786","118.7","3.332","125.7","NAN","NAN","NAN","NAN","NAN"],
    [1566313,"2026-08-12 18:30:00","3066","1.824","110.8","2.842","122.7","NAN","NAN","NAN","NAN","NAN"],
    [1566314,"2026-08-12 18:40:00","3067","1.899","111.9","3.038","117.4","NAN","NAN","NAN","NAN","NAN"],
    [1566315,"2026-08-12 18:50:00","3068","1.6909999999999998","101.4","2.842","106.8","NAN","NAN","NAN","NAN","NAN"],
    [1566316,"2026-08-12 19:00:00","3069","1.558","103.1","2.94","114.5","NAN","NAN","NAN","NAN","NAN"],
    [1566317,"2026-08-12 19:10:00","3070","1.854","82.5","3.332","66.08","NAN","NAN","NAN","NAN","NAN"],
    [1566318,"2026-08-12 19:20:00","3071","1.34","89.3","2.254","91.1","NAN","NAN","NAN","NAN","NAN"],
    [1566319,"2026-08-12 19:30:00","3072","1.147","106.4","2.254","91.1","NAN","NAN","NAN","NAN","NAN"],
    [1566320,"2026-08-12 19:40:00","3073","1.3519999999999999","117.5","2.058","117.5","NAN","NAN","NAN","NAN","NAN"],
    [1566321,"2026-08-12 19:50:00","3074","1.53","124.3","2.156","129.4","NAN","NAN","NAN","NAN","NAN"],
    [1566322,"2026-08-12 20:00:00","3075","1.052","116.9","1.764","124.6","NAN","NAN","NAN","NAN","NAN"],
    [1566323,"2026-08-12 20:10:00","3076","0.387","117.6","1.568","118.6","NAN","NAN","NAN","NAN","NAN"],
    [1566324,"2026-08-12 20:20:00","3077","0.42200000000000004","116.3","1.176","111.2","NAN","NAN","NAN","NAN","NAN"],
    [1566325,"2026-08-12 20:30:00","3078","0.883","123.9","1.764","130.4","NAN","NAN","NAN","NAN","NAN"],
    [1566326,"2026-08-12 20:40:00","3079","0.614","129.8","1.176","130.7","NAN","NAN","NAN","NAN","NAN"],
    [1566327,"2026-08-12 20:50:00","3080","0.253","124.5","0.882","123.3","NAN","NAN","NAN","NAN","NAN"],
    [1566328,"2026-08-12 21:00:00","3081","0.1","130.7","0.588","130.7","NAN","NAN","NAN","NAN","NAN"],
    [1566329,"2026-08-12 21:10:00","3082","0.21600000000000003","130.9","0.784","130.9","NAN","NAN","NAN","NAN","NAN"],
    [1566330,"2026-08-12 21:20:00","3083","0.617","131.9","1.274","132.3","NAN","NAN","NAN","NAN","NAN"],
    [1566331,"2026-08-12 21:30:00","3084","0.21600000000000003","132.8","0.686","132.5","NAN","NAN","NAN","NAN","NAN"],
    [1566332,"2026-08-12 21:40:00","3085","0.24","138.6","1.078","137.2","NAN","NAN","NAN","NAN","NAN"],
    [1566333,"2026-08-12 21:50:00","3086","0.136","177.3","0.49","156","NAN","NAN","NAN","NAN","NAN"],
    [1566334,"2026-08-12 22:00:00","3087","0.107","197.0","0.392","195.5","NAN","NAN","NAN","NAN","NAN"],
    [1566335,"2026-08-12 22:10:00","3088","0.109","198.2","0.49","198","NAN","NAN","NAN","NAN","NAN"],
    [1566336,"2026-08-12 22:20:00","3089","0.069","214.8","0.49","220.2","NAN","NAN","NAN","NAN","NAN"],
    [1566337,"2026-08-12 22:30:00","3090","1.3559999999999999","266.3","2.058","269.8","NAN","NAN","NAN","NAN","NAN"],
    [1566338,"2026-08-12 22:40:00","3091","1.381","273.4","2.058","271.3","NAN","NAN","NAN","NAN","NAN"],
    [1566339,"2026-08-12 22:50:00","3092","1.341","275.0","1.862","276.6","NAN","NAN","NAN","NAN","NAN"],
    [1566340,"2026-08-12 23:00:00","3093","1.287","277.4","1.764","277.9","NAN","NAN","NAN","NAN","NAN"],
    [1566341,"2026-08-12 23:10:00","3094","1.4669999999999999","278.6","1.96","278.8","NAN","NAN","NAN","NAN","NAN"],
    [1566342,"2026-08-12 23:20:00","3095","1.3619999999999999","280.0","1.96","280.7","NAN","NAN","NAN","NAN","NAN"],
    [1566343,"2026-08-12 23:30:00","3096","1.379","278.9","2.156","274.6","NAN","NAN","NAN","NAN","NAN"],
    [1566344,"2026-08-12 23:40:00","3097","1.385","278.2","2.352","278.3","NAN","NAN","NAN","NAN","NAN"],
    [1566345,"2026-08-12 23:50:00","3098","1.169","283.6","2.352","284.7","NAN","NAN","NAN","NAN","NAN"],
    [1566346,"2026-08-13 00:00:00","3099","1.35","281.4","2.156","285.9","NAN","NAN","NAN","NAN","NAN"],
    [1566347,"2026-08-13 00:10:00","3100","1.192","278.6","1.862","284","NAN","NAN","NAN","NAN","NAN"],
    [1566348,"2026-08-13 00:20:00","3101","1.0070000000000001","276.8","1.568","280.9","NAN","NAN","NAN","NAN","NAN"],
    [1566349,"2026-08-13 00:30:00","3102","1.123","273.1","1.568","272.2","NAN","NAN","NAN","NAN","NAN"],
    [1566350,"2026-08-13 00:40:00","3103","0.978","270.3","1.47","270.7","NAN","NAN","NAN","NAN","NAN"],
    [1566351,"2026-08-13 00:50:00","3104","1.276","274.2","1.764","272.4","NAN","NAN","NAN","NAN","NAN"],
    [1566352,"2026-08-13 01:00:00","3105","1.199","271.5","2.254","269.3","NAN","NAN","NAN","NAN","NAN"],
    [1566353,"2026-08-13 01:10:00","3106","1.095","274.3","1.666","281","NAN","NAN","NAN","NAN","NAN"],
    [1566354,"2026-08-13 01:20:00","3107","1.314","275.7","1.862","274","NAN","NAN","NAN","NAN","NAN"],
    [1566355,"2026-08-13 01:30:00","3108","1.107","275.6","1.568","279.6","NAN","NAN","NAN","NAN","NAN"],
    [1566356,"2026-08-13 01:40:00","3109","0.701","280.4","1.372","272.8","NAN","NAN","NAN","NAN","NAN"],
    [1566357,"2026-08-13 01:50:00","3110","1.0190000000000001","284.9","1.764","286.2","NAN","NAN","NAN","NAN","NAN"],
    [1566358,"2026-08-13 02:00:00","3111","1.3769999999999998","275.0","2.058","276","NAN","NAN","NAN","NAN","NAN"],
    [1566359,"2026-08-13 02:10:00","3112","1.222","271.9","1.764","274.4","NAN","NAN","NAN","NAN","NAN"],
    [1566360,"2026-08-13 02:20:00","3113","1.125","274.2","2.058","276.9","NAN","NAN","NAN","NAN","NAN"],
    [1566361,"2026-08-13 02:30:00","3114","1.66","275.9","2.352","274","NAN","NAN","NAN","NAN","NAN"],
    [1566362,"2026-08-13 02:40:00","3115","1.5919999999999999","277.3","2.254","272.7","NAN","NAN","NAN","NAN","NAN"],
    [1566363,"2026-08-13 02:50:00","3116","1.547","273.9","1.862","275.3","NAN","NAN","NAN","NAN","NAN"],
    [1566364,"2026-08-13 03:00:00","3117","1.266","271.4","2.156","280.5","NAN","NAN","NAN","NAN","NAN"],
    [1566365,"2026-08-13 03:10:00","3118","1.265","269.7","2.058","275.2","NAN","NAN","NAN","NAN","NAN"],
    [1566366,"2026-08-13 03:20:00","3119","1.2409999999999999","271.1","1.862","274.4","NAN","NAN","NAN","NAN","NAN"],
    [1566367,"2026-08-13 03:30:00","3120","1.274","267.2","1.96","265.4","NAN","NAN","NAN","NAN","NAN"],
    [1566368,"2026-08-13 03:40:00","3121","1.807","265.6","2.94","261","NAN","NAN","NAN","NAN","NAN"],
    [1566369,"2026-08-13 03:50:00","3122","1.75","266.7","2.45","261.8","NAN","NAN","NAN","NAN","NAN"],
    [1566370,"2026-08-13 04:00:00","3123","1.963","271.7","2.842","278.1","NAN","NAN","NAN","NAN","NAN"],
    [1566371,"2026-08-13 04:10:00","3124","1.86","275.7","2.744","280.9","NAN","NAN","NAN","NAN","NAN"],
    [1566372,"2026-08-13 04:20:00","3125","1.3230000000000002","280.6","2.352","275.6","NAN","NAN","NAN","NAN","NAN"],
    [1566373,"2026-08-13 04:30:00","3126","1.48","275.9","2.45","273.1","NAN","NAN","NAN","NAN","NAN"],
    [1566374,"2026-08-13 04:40:00","3127","1.5719999999999998","277.3","2.744","270.2","NAN","NAN","NAN","NAN","NAN"],
    [1566375,"2026-08-13 04:50:00","3128","1.6230000000000002","285.6","3.038","273.2","NAN","NAN","NAN","NAN","NAN"],
    [1566376,"2026-08-13 05:00:00","3129","1.754","288.3","2.646","288.7","NAN","NAN","NAN","NAN","NAN"],
    [1566377,"2026-08-13 05:10:00","3130","1.526","281.0","2.156","276.4","NAN","NAN","NAN","NAN","NAN"],
    [1566378,"2026-08-13 05:20:00","3131","1.944","291.3","2.94","294.9","NAN","NAN","NAN","NAN","NAN"],
    [1566379,"2026-08-13 05:30:00","3132","1.607","286.0","3.038","287.1","NAN","NAN","NAN","NAN","NAN"],
    [1566380,"2026-08-13 05:40:00","3133","1.463","285.6","2.254","296.7","NAN","NAN","NAN","NAN","NAN"],
    [1566381,"2026-08-13 05:50:00","3134","1.656","282.6","2.744","287.1","NAN","NAN","NAN","NAN","NAN"],
    [1566382,"2026-08-13 06:00:00","3135","1.882","275.7","2.744","273.1","NAN","NAN","NAN","NAN","NAN"],
    [1566383,"2026-08-13 06:10:00","3136","1.7009999999999998","281.0","2.94","269.7","NAN","NAN","NAN","NAN","NAN"],
    [1566384,"2026-08-13 06:20:00","3137","1.609","279.8","2.646","272.3","NAN","NAN","NAN","NAN","NAN"],
    [1566385,"2026-08-13 06:30:00","3138","1.7519999999999998","278.3","2.94","292.9","NAN","NAN","NAN","NAN","NAN"],
    [1566386,"2026-08-13 06:40:00","3139","1.945","275.1","2.94","272.8","NAN","NAN","NAN","NAN","NAN"],
    [1566387,"2026-08-13 06:50:00","3140","2.039","269.5","2.842","273.4","NAN","NAN","NAN","NAN","NAN"],
    [1566388,"2026-08-13 07:00:00","3141","1.405","274.3","2.45","270.9","NAN","NAN","NAN","NAN","NAN"],
    [1566389,"2026-08-13 07:10:00","3142","0.951","277.0","1.568","278.5","NAN","NAN","NAN","NAN","NAN"],
    [1566390,"2026-08-13 07:20:00","3143","0.925","277.9","1.47","277.6","NAN","NAN","NAN","NAN","NAN"],
    [1566391,"2026-08-13 07:30:00","3144","0.69","274.1","1.568","266.9","NAN","NAN","NAN","NAN","NAN"],
    [1566392,"2026-08-13 07:40:00","3145","0.449","259.3","1.47","266","NAN","NAN","NAN","NAN","NAN"],
    [1566393,"2026-08-13 07:50:00","3146","0.141","253.8","0.98","251","NAN","NAN","NAN","NAN","NAN"],
    [1566394,"2026-08-13 08:00:00","3147","0.23","255.5","0.98","250.5","NAN","NAN","NAN","NAN","NAN"],
    [1566395,"2026-08-13 08:10:00","3148","0.46299999999999997","249.1","0.784","249.7","NAN","NAN","NAN","NAN","NAN"],
    [1566396,"2026-08-13 08:20:00","3149","1.5130000000000001","129.6","2.254","123.7","NAN","NAN","NAN","NAN","NAN"],
    [1566397,"2026-08-13 08:30:00","3150","2.024","112.4","3.038","120.1","NAN","NAN","NAN","NAN","NAN"],
    [1566398,"2026-08-13 08:40:00","3151","1.784","114.9","2.744","114.4","NAN","NAN","NAN","NAN","NAN"],
    [1566399,"2026-08-13 08:50:00","3152","2.214","112.1","2.94","109.1","NAN","NAN","NAN","NAN","NAN"],
    [1566400,"2026-08-13 09:00:00","3153","2.1830000000000003","110.1","2.94","116.9","NAN","NAN","NAN","NAN","NAN"],
    [1566401,"2026-08-13 09:10:00","3154","2.516","110.6","3.43","112.6","NAN","NAN","NAN","NAN","NAN"],
    [1566402,"2026-08-13 09:20:00","3155","2.656","123.5","4.116","121.6","NAN","NAN","NAN","NAN","NAN"],
    [1566403,"2026-08-13 09:30:00","3156","2.609","123.4","4.018","134.6","NAN","NAN","NAN","NAN","NAN"],
    [1566404,"2026-08-13 09:40:00","3157","3.105","129.9","4.606","137.5","NAN","NAN","NAN","NAN","NAN"],
    [1566405,"2026-08-13 09:50:00","3158","3.236","126.5","4.41","132.9","NAN","NAN","NAN","NAN","NAN"],
    [1566406,"2026-08-13 10:00:00","3159","2.802","124.4","3.92","129.1","NAN","NAN","NAN","NAN","NAN"],
    [1566407,"2026-08-13 10:10:00","3160","2.56","118.6","4.018","111.9","NAN","NAN","NAN","NAN","NAN"],
    [1566408,"2026-08-13 10:20:00","3161","2.226","124.5","3.234","139.6","NAN","NAN","NAN","NAN","NAN"],
    [1566409,"2026-08-13 10:30:00","3162","1.7630000000000001","137.6","3.136","141.8","NAN","NAN","NAN","NAN","NAN"],
    [1566410,"2026-08-13 10:40:00","3163","2.33","194.2","4.312","217.8","NAN","NAN","NAN","NAN","NAN"],
    [1566411,"2026-08-13 10:50:00","3164","2.112","183.3","3.724","179.1","NAN","NAN","NAN","NAN","NAN"],
    [1566412,"2026-08-13 11:00:00","3165","3.198","151.2","4.606","149.6","NAN","NAN","NAN","NAN","NAN"],
    [1566413,"2026-08-13 11:10:00","3166","3.536","159.6","4.704","160.2","NAN","NAN","NAN","NAN","NAN"],
    [1566414,"2026-08-13 11:20:00","3167","3.514","158.2","4.998","165.2","NAN","NAN","NAN","NAN","NAN"],
    [1566415,"2026-08-13 11:30:00","3168","3.678","160.6","4.998","160.3","NAN","NAN","NAN","NAN","NAN"],
    [1566416,"2026-08-13 11:40:00","3169","3.739","162.2","5.488","173.7","NAN","NAN","NAN","NAN","NAN"],
    [1566417,"2026-08-13 11:50:00","3170","3.258","167.9","5.194","167.7","NAN","NAN","NAN","NAN","NAN"],
    [1566418,"2026-08-13 12:00:00","3171","3.083","186.9","4.704","169.5","NAN","NAN","NAN","NAN","NAN"],
    [1566419,"2026-08-13 12:10:00","3172","3.299","192.0","5.488","196.7","NAN","NAN","NAN","NAN","NAN"],
    [1566420,"2026-08-13 12:20:00","3173","3.088","184.9","4.998","161.6","NAN","NAN","NAN","NAN","NAN"],
    [1566421,"2026-08-13 12:30:00","3174","3.2680000000000002","187.6","5.096","154.8","NAN","NAN","NAN","NAN","NAN"],
    [1566422,"2026-08-13 12:40:00","3175","3.805","187.3","5.782","171.3","NAN","NAN","NAN","NAN","NAN"],
    [1566423,"2026-08-13 12:50:00","3176","3.3539999999999996","181.5","5.684","171.1","NAN","NAN","NAN","NAN","NAN"],
    [1566424,"2026-08-13 13:00:00","3177","3.531","178.7","5.782","164.8","NAN","NAN","NAN","NAN","NAN"],
    [1566425,"2026-08-13 13:10:00","3178","3.18","178.5","5.096","186.6","NAN","NAN","NAN","NAN","NAN"],
    [1566426,"2026-08-13 13:20:00","3179","3.072","204.4","5.782","215.7","NAN","NAN","NAN","NAN","NAN"],
    [1566427,"2026-08-13 13:30:00","3180","3.3369999999999997","187.3","5.194","159.8","NAN","NAN","NAN","NAN","NAN"],
    [1566428,"2026-08-13 13:40:00","3181","3.283","192.3","5.684","202.4","NAN","NAN","NAN","NAN","NAN"],
    [1566429,"2026-08-13 13:50:00","3182","3.325","191.0","6.076","209.5","NAN","NAN","NAN","NAN","NAN"],
    [1566430,"2026-08-13 14:00:00","3183","2.8939999999999997","188.9","5.194","208.5","NAN","NAN","NAN","NAN","NAN"],
    [1566431,"2026-08-13 14:10:00","3184","3.031","205.0","4.998","210.2","NAN","NAN","NAN","NAN","NAN"],
    [1566432,"2026-08-13 14:20:00","3185","3.109","207.6","5.096","215.7","NAN","NAN","NAN","NAN","NAN"],
    [1566433,"2026-08-13 14:30:00","3186","3.154","181.2","5.096","179.5","NAN","NAN","NAN","NAN","NAN"],
    [1566434,"2026-08-13 14:40:00","3187","3.029","197.8","4.998","169.9","NAN","NAN","NAN","NAN","NAN"],
    [1566435,"2026-08-13 14:50:00","3188","3.0210000000000004","201.3","5.096","222.9","NAN","NAN","NAN","NAN","NAN"],
    [1566436,"2026-08-13 15:00:00","3189","2.286","194.6","3.822","151.8","NAN","NAN","NAN","NAN","NAN"],
    [1566437,"2026-08-13 15:10:00","3190","2.804","199.6","4.704","222","NAN","NAN","NAN","NAN","NAN"],
    [1566438,"2026-08-13 15:20:00","3191","2.741","183.3","4.998","181.8","NAN","NAN","NAN","NAN","NAN"],
    [1566439,"2026-08-13 15:30:00","3192","2.734","194.6","4.802","216.1","NAN","NAN","NAN","NAN","NAN"],
    [1566440,"2026-08-13 15:40:00","3193","2.609","182.8","4.998","183.6","NAN","NAN","NAN","NAN","NAN"],
    [1566441,"2026-08-13 15:50:00","3194","2.456","182.5","3.822","169.6","NAN","NAN","NAN","NAN","NAN"],
    [1566442,"2026-08-13 16:00:00","3195","2.371","210.2","3.92","217.4","NAN","NAN","NAN","NAN","NAN"],
    [1566443,"2026-08-13 16:10:00","3196","1.9340000000000002","206.7","3.92","214.4","NAN","NAN","NAN","NAN","NAN"],
    [1566444,"2026-08-13 16:20:00","3197","2.594","196.2","4.116","170","NAN","NAN","NAN","NAN","NAN"],
    [1566445,"2026-08-13 16:30:00","3198","2.146","198.3","4.116","166.2","NAN","NAN","NAN","NAN","NAN"],
    [1566446,"2026-08-13 16:40:00","3199","2.214","195.1","3.822","177.5","NAN","NAN","NAN","NAN","NAN"],
    [1566447,"2026-08-13 16:50:00","3200","2.437","209.7","3.626","211.8","NAN","NAN","NAN","NAN","NAN"],
    [1566448,"2026-08-13 17:00:00","3201","1.733","202.3","3.136","212.1","NAN","NAN","NAN","NAN","NAN"],
    [1566449,"2026-08-13 17:10:00","3202","1.713","196.8","3.038","222.2","NAN","NAN","NAN","NAN","NAN"],
    [1566450,"2026-08-13 17:20:00","3203","1.55","181.7","3.136","165.6","NAN","NAN","NAN","NAN","NAN"],
    [1566451,"2026-08-13 17:30:00","3204","1.7990000000000002","178.4","3.136","187.7","NAN","NAN","NAN","NAN","NAN"],
    [1566452,"2026-08-13 17:40:00","3205","1.556","180.7","2.548","169.7","NAN","NAN","NAN","NAN","NAN"],
    [1566453,"2026-08-13 17:50:00","3206","1.6480000000000001","207.4","2.646","215.8","NAN","NAN","NAN","NAN","NAN"],
    [1566454,"2026-08-13 18:00:00","3207","1.8719999999999999","192.8","3.43","182.8","NAN","NAN","NAN","NAN","NAN"],
    [1566455,"2026-08-13 18:10:00","3208","1.653","199.3","2.548","200.8","NAN","NAN","NAN","NAN","NAN"],
    [1566456,"2026-08-13 18:20:00","3209","1.768","213.9","3.234","210.5","NAN","NAN","NAN","NAN","NAN"],
    [1566457,"2026-08-13 18:30:00","3210","2.043","215.1","3.136","210.3","NAN","NAN","NAN","NAN","NAN"],
    [1566458,"2026-08-13 18:40:00","3211","1.7990000000000002","212.5","2.94","215.3","NAN","NAN","NAN","NAN","NAN"],
    [1566459,"2026-08-13 18:50:00","3212","2.22","208.7","3.234","213.3","NAN","NAN","NAN","NAN","NAN"],
    [1566460,"2026-08-13 19:00:00","3213","2.117","216.8","3.528","224.3","NAN","NAN","NAN","NAN","NAN"],
    [1566461,"2026-08-13 19:10:00","3214","2.406","211.4","3.528","209.9","NAN","NAN","NAN","NAN","NAN"],
    [1566462,"2026-08-13 19:20:00","3215","1.811","219.2","3.332","221.4","NAN","NAN","NAN","NAN","NAN"],
    [1566463,"2026-08-13 19:30:00","3216","2.009","235.1","3.136","248.4","NAN","NAN","NAN","NAN","NAN"],
    [1566464,"2026-08-13 19:40:00","3217","2.129","224.6","3.136","231.1","NAN","NAN","NAN","NAN","NAN"],
    [1566465,"2026-08-13 19:50:00","3218","2.276","219.5","3.724","222.9","NAN","NAN","NAN","NAN","NAN"],
    [1566466,"2026-08-13 20:00:00","3219","2.0669999999999997","228.5","3.43","231.9","NAN","NAN","NAN","NAN","NAN"],
    [1566467,"2026-08-13 20:10:00","3220","2.031","223.3","3.528","225.3","NAN","NAN","NAN","NAN","NAN"],
    [1566468,"2026-08-13 20:20:00","3221","2.114","221.8","4.41","221.8","NAN","NAN","NAN","NAN","NAN"],
    [1566469,"2026-08-13 20:30:00","3222","1.433","222.8","2.646","213.6","NAN","NAN","NAN","NAN","NAN"],
    [1566470,"2026-08-13 20:40:00","3223","1.909","225.8","3.234","237.5","NAN","NAN","NAN","NAN","NAN"],
    [1566471,"2026-08-13 20:50:00","3224","2.2","232.9","3.43","228.9","NAN","NAN","NAN","NAN","NAN"],
    [1566472,"2026-08-13 21:00:00","3225","1.7480000000000002","244.7","2.744","249.6","NAN","NAN","NAN","NAN","NAN"],
    [1566473,"2026-08-13 21:10:00","3226","1.645","239.0","2.842","243.9","NAN","NAN","NAN","NAN","NAN"],
    [1566474,"2026-08-13 21:20:00","3227","1.825","238.4","3.234","248.7","NAN","NAN","NAN","NAN","NAN"],
    [1566475,"2026-08-13 21:30:00","3228","1.942","242.3","3.528","221.8","NAN","NAN","NAN","NAN","NAN"],
    [1566476,"2026-08-13 21:40:00","3229","2.3169999999999997","262.2","3.724","252","NAN","NAN","NAN","NAN","NAN"],
    [1566477,"2026-08-13 21:50:00","3230","2.231","257.6","3.626","253.9","NAN","NAN","NAN","NAN","NAN"],
    [1566478,"2026-08-13 22:00:00","3231","2.248","250.9","3.234","250.2","NAN","NAN","NAN","NAN","NAN"],
    [1566479,"2026-08-13 22:10:00","3232","2.645","253.8","3.822","243.2","NAN","NAN","NAN","NAN","NAN"],
    [1566480,"2026-08-13 22:20:00","3233","2.3040000000000003","257.5","3.43","241.1","NAN","NAN","NAN","NAN","NAN"],
    [1566481,"2026-08-13 22:30:00","3234","2.356","257.0","3.43","246","NAN","NAN","NAN","NAN","NAN"],
    [1566482,"2026-08-13 22:40:00","3235","2.45","254.8","3.43","255.8","NAN","NAN","NAN","NAN","NAN"],
    [1566483,"2026-08-13 22:50:00","3236","1.574","264.4","2.548","265.6","NAN","NAN","NAN","NAN","NAN"],
    [1566484,"2026-08-13 23:00:00","3237","2.226","259.6","3.528","246.3","NAN","NAN","NAN","NAN","NAN"],
    [1566485,"2026-08-13 23:10:00","3238","1.895","259.0","2.744","268.9","NAN","NAN","NAN","NAN","NAN"],
    [1566486,"2026-08-13 23:20:00","3239","2.156","256.1","2.94","247.1","NAN","NAN","NAN","NAN","NAN"],
    [1566487,"2026-08-13 23:30:00","3240","2.351","253.1","2.94","251","NAN","NAN","NAN","NAN","NAN"],
    [1566488,"2026-08-13 23:40:00","3241","1.972","256.8","3.136","251.3","NAN","NAN","NAN","NAN","NAN"],
    [1566489,"2026-08-13 23:50:00","3242","2.042","254.9","3.038","248.5","NAN","NAN","NAN","NAN","NAN"],
    [1566490,"2026-08-14 00:00:00","3243","2.542","255.4","3.332","255.5","NAN","NAN","NAN","NAN","NAN"],
    [1566491,"2026-08-14 00:10:00","3244","1.722","257.8","2.45","262.6","NAN","NAN","NAN","NAN","NAN"],
    [1566492,"2026-08-14 00:20:00","3245","2.201","255.1","2.842","247.3","NAN","NAN","NAN","NAN","NAN"],
    [1566493,"2026-08-14 00:30:00","3246","1.9180000000000001","258.4","2.94","251.6","NAN","NAN","NAN","NAN","NAN"],
    [1566494,"2026-08-14 00:40:00","3247","1.828","256.4","2.548","255","NAN","NAN","NAN","NAN","NAN"],
    [1566495,"2026-08-14 00:50:00","3248","1.7080000000000002","258.7","2.646","253.8","NAN","NAN","NAN","NAN","NAN"],
    [1566496,"2026-08-14 01:00:00","3249","2.719","250.4","3.528","247.1","NAN","NAN","NAN","NAN","NAN"],
    [1566497,"2026-08-14 01:10:00","3250","2.2119999999999997","268.7","3.332","282.7","NAN","NAN","NAN","NAN","NAN"],
    [1566498,"2026-08-14 01:20:00","3251","2.523","277.7","4.018","284.4","NAN","NAN","NAN","NAN","NAN"],
    [1566499,"2026-08-14 01:30:00","3252","3.485","284.2","5.292","284.4","NAN","NAN","NAN","NAN","NAN"],
    [1566500,"2026-08-14 01:40:00","3253","3.123","267.2","5.978","273.9","NAN","NAN","NAN","NAN","NAN"],
    [1566501,"2026-08-14 01:50:00","3254","2.5269999999999997","268.3","3.92","260","NAN","NAN","NAN","NAN","NAN"],
    [1566502,"2026-08-14 02:00:00","3255","2.736","277.0","4.214","267.9","NAN","NAN","NAN","NAN","NAN"],
    [1566503,"2026-08-14 02:10:00","3256","2.135","272.2","3.332","265.7","NAN","NAN","NAN","NAN","NAN"],
    [1566504,"2026-08-14 02:20:00","3257","2.648","259.8","3.92","251.6","NAN","NAN","NAN","NAN","NAN"],
    [1566505,"2026-08-14 02:30:00","3258","2.529","272.6","3.822","257","NAN","NAN","NAN","NAN","NAN"],
    [1566506,"2026-08-14 02:40:00","3259","2.742","278.8","3.92","272.5","NAN","NAN","NAN","NAN","NAN"],
    [1566507,"2026-08-14 02:50:00","3260","2.552","282.4","4.508","295.8","NAN","NAN","NAN","NAN","NAN"],
    [1566508,"2026-08-14 03:00:00","3261","3.2","275.5","4.508","295.8","NAN","NAN","NAN","NAN","NAN"],
    [1566509,"2026-08-14 03:10:00","3262","3.043","278.8","4.802","270.6","NAN","NAN","NAN","NAN","NAN"],
    [1566510,"2026-08-14 03:20:00","3263","2.375","286.4","3.43","295.3","NAN","NAN","NAN","NAN","NAN"],
    [1566511,"2026-08-14 03:30:00","3264","2.5810000000000004","310.3","4.606","309.3","NAN","NAN","NAN","NAN","NAN"],
    [1566512,"2026-08-14 03:40:00","3265","1.655","316.5","2.646","315.5","NAN","NAN","NAN","NAN","NAN"],
    [1566513,"2026-08-14 03:50:00","3266","1.37","295.0","2.254","292","NAN","NAN","NAN","NAN","NAN"],
    [1566514,"2026-08-14 04:00:00","3267","1.6669999999999998","286.2","2.842","271.3","NAN","NAN","NAN","NAN","NAN"],
    [1566515,"2026-08-14 04:10:00","3268","2.2","278.7","2.94","279.4","NAN","NAN","NAN","NAN","NAN"],
    [1566516,"2026-08-14 04:20:00","3269","2.182","280.1","3.43","290.5","NAN","NAN","NAN","NAN","NAN"],
    [1566517,"2026-08-14 04:30:00","3270","1.7690000000000001","288.9","3.136","286.6","NAN","NAN","NAN","NAN","NAN"],
    [1566518,"2026-08-14 04:40:00","3271","1.557","278.2","2.45","280.9","NAN","NAN","NAN","NAN","NAN"],
    [1566519,"2026-08-14 04:50:00","3272","2.151","271.5","3.528","275.5","NAN","NAN","NAN","NAN","NAN"],
    [1566520,"2026-08-14 05:00:00","3273","2.548","290.3","4.116","303.4","NAN","NAN","NAN","NAN","NAN"],
    [1566521,"2026-08-14 05:10:00","3274","2.528","300.7","4.998","312","NAN","NAN","NAN","NAN","NAN"],
    [1566522,"2026-08-14 05:20:00","3275","2.555","281.7","3.92","288.9","NAN","NAN","NAN","NAN","NAN"],
    [1566523,"2026-08-14 05:30:00","3276","2.476","269.3","3.626","276.8","NAN","NAN","NAN","NAN","NAN"],
    [1566524,"2026-08-14 05:40:00","3277","2.77","275.3","4.214","268","NAN","NAN","NAN","NAN","NAN"],
    [1566525,"2026-08-14 05:50:00","3278","2.918","269.1","4.116","273.3","NAN","NAN","NAN","NAN","NAN"],
    [1566526,"2026-08-14 06:00:00","3279","3.088","265.2","4.9","267.2","NAN","NAN","NAN","NAN","NAN"],
    [1566527,"2026-08-14 06:10:00","3280","2.596","282.6","4.312","265.8","NAN","NAN","NAN","NAN","NAN"],
    [1566528,"2026-08-14 06:20:00","3281","2.332","282.7","3.92","278.6","NAN","NAN","NAN","NAN","NAN"],
    [1566529,"2026-08-14 06:30:00","3282","2.449","274.5","3.822","264.7","NAN","NAN","NAN","NAN","NAN"],
    [1566530,"2026-08-14 06:40:00","3283","2.17","279.8","3.43","272.5","NAN","NAN","NAN","NAN","NAN"],
    [1566531,"2026-08-14 06:50:00","3284","2.247","284.4","3.332","270.9","NAN","NAN","NAN","NAN","NAN"],
    [1566532,"2026-08-14 07:00:00","3285","2.016","287.3","3.626","293.7","NAN","NAN","NAN","NAN","NAN"],
    [1566533,"2026-08-14 07:10:00","3286","2.182","286.5","3.822","293.7","NAN","NAN","NAN","NAN","NAN"],
    [1566534,"2026-08-14 07:20:00","3287","2.224","279.2","3.43","289.5","NAN","NAN","NAN","NAN","NAN"],
    [1566535,"2026-08-14 07:30:00","3288","2.251","281.7","3.822","283.7","NAN","NAN","NAN","NAN","NAN"],
    [1566536,"2026-08-14 07:40:00","3289","2.133","282.8","3.43","269.3","NAN","NAN","NAN","NAN","NAN"],
    [1566537,"2026-08-14 07:50:00","3290","2.291","281.5","3.332","279.7","NAN","NAN","NAN","NAN","NAN"],
    [1566538,"2026-08-14 08:00:00","3291","2.656","292.9","3.822","276.2","NAN","NAN","NAN","NAN","NAN"],
    [1566539,"2026-08-14 08:10:00","3292","2.033","282.7","3.626","277.3","NAN","NAN","NAN","NAN","NAN"],
    [1566540,"2026-08-14 08:20:00","3293","2.603","263.2","4.214","260.9","NAN","NAN","NAN","NAN","NAN"],
    [1566541,"2026-08-14 08:30:00","3294","2.949","264.5","4.214","262","NAN","NAN","NAN","NAN","NAN"],
    [1566542,"2026-08-14 08:40:00","3295","3.0239999999999996","258.3","4.802","269.1","NAN","NAN","NAN","NAN","NAN"],
    [1566543,"2026-08-14 08:50:00","3296","2.995","260.9","5.096","244.5","NAN","NAN","NAN","NAN","NAN"],
    [1566544,"2026-08-14 09:00:00","3297","3.278","250.9","5.782","245.2","NAN","NAN","NAN","NAN","NAN"],
    [1566545,"2026-08-14 09:10:00","3298","2.74","221.9","4.704","250.8","NAN","NAN","NAN","NAN","NAN"],
    [1566546,"2026-08-14 09:20:00","3299","2.572","233.6","4.508","248.4","NAN","NAN","NAN","NAN","NAN"],
    [1566547,"2026-08-14 09:30:00","3300","2.694","239.2","5.096","263","NAN","NAN","NAN","NAN","NAN"],
    [1566548,"2026-08-14 09:40:00","3301","3.053","239.0","4.606","255.7","NAN","NAN","NAN","NAN","NAN"],
    [1566549,"2026-08-14 09:50:00","3302","2.9010000000000002","241.5","4.9","275.4","NAN","NAN","NAN","NAN","NAN"],
    [1566550,"2026-08-14 10:00:00","3303","3.405","236.8","5.488","228.1","NAN","NAN","NAN","NAN","NAN"],
    [1566551,"2026-08-14 10:10:00","3304","3.468","229.8","5.88","231.6","NAN","NAN","NAN","NAN","NAN"],
    [1566552,"2026-08-14 10:20:00","3305","3.514","231.6","5.488","201","NAN","NAN","NAN","NAN","NAN"],
    [1566553,"2026-08-14 10:30:00","3306","3.51","240.4","5.782","267.4","NAN","NAN","NAN","NAN","NAN"],
    [1566554,"2026-08-14 10:40:00","3307","4.138999999999999","225.5","7.056","224.4","NAN","NAN","NAN","NAN","NAN"],
    [1566555,"2026-08-14 10:50:00","3308","4.1610000000000005","209.6","6.86","203.7","NAN","NAN","NAN","NAN","NAN"],
    [1566556,"2026-08-14 11:00:00","3309","3.716","222.7","6.37","228.9","NAN","NAN","NAN","NAN","NAN"],
    [1566557,"2026-08-14 11:10:00","3310","3.611","221.2","6.076","248","NAN","NAN","NAN","NAN","NAN"],
    [1566558,"2026-08-14 11:20:00","3311","3.7939999999999996","219.9","7.056","203.6","NAN","NAN","NAN","NAN","NAN"],
    [1566559,"2026-08-14 11:30:00","3312","4.269","222.1","7.644","216.7","NAN","NAN","NAN","NAN","NAN"],
    [1566560,"2026-08-14 11:40:00","3313","4.459","228.2","7.644","216.7","NAN","NAN","NAN","NAN","NAN"],
    [1566561,"2026-08-14 11:50:00","3314","3.998","221.2","7.546","208","NAN","NAN","NAN","NAN","NAN"],
    [1566562,"2026-08-14 12:00:00","3315","4.27","231.2","7.056","229.4","NAN","NAN","NAN","NAN","NAN"],
    [1566563,"2026-08-14 12:10:00","3316","4.579","217.4","7.252","199.9","NAN","NAN","NAN","NAN","NAN"],
    [1566564,"2026-08-14 12:20:00","3317","5.142","213.6","8.33","224.4","NAN","NAN","NAN","NAN","NAN"],
    [1566565,"2026-08-14 12:30:00","3318","4.698","222.1","8.23","243.9","NAN","NAN","NAN","NAN","NAN"],
    [1566566,"2026-08-14 12:40:00","3319","4.51","219.5","7.448","231.1","NAN","NAN","NAN","NAN","NAN"],
    [1566567,"2026-08-14 12:50:00","3320","4.707","224.0","8.13","236.1","NAN","NAN","NAN","NAN","NAN"],
    [1566568,"2026-08-14 13:00:00","3321","5.431","222.1","8.82","211.8","NAN","NAN","NAN","NAN","NAN"],
    [1566569,"2026-08-14 13:10:00","3322","5.457000000000001","224.4","8.13","224.3","NAN","NAN","NAN","NAN","NAN"],
    [1566570,"2026-08-14 13:20:00","3323","5.303999999999999","220.4","8.04","214.8","NAN","NAN","NAN","NAN","NAN"],
    [1566571,"2026-08-14 13:30:00","3324","4.643","226.2","7.742","242.4","NAN","NAN","NAN","NAN","NAN"],
    [1566572,"2026-08-14 13:40:00","3325","5.332000000000001","225.1","9.11","236.2","NAN","NAN","NAN","NAN","NAN"],
    [1566573,"2026-08-14 13:50:00","3326","5.263","223.3","9.21","237.5","NAN","NAN","NAN","NAN","NAN"],
    [1566574,"2026-08-14 14:00:00","3327","4.843","220.1","8.13","201.2","NAN","NAN","NAN","NAN","NAN"],
    [1566575,"2026-08-14 14:10:00","3328","4.835","213.8","8.33","206.4","NAN","NAN","NAN","NAN","NAN"],
    [1566576,"2026-08-14 14:20:00","3329","4.842","220.4","8.62","209.4","NAN","NAN","NAN","NAN","NAN"],
    [1566577,"2026-08-14 14:30:00","3330","4.281000000000001","215.5","7.056","203","NAN","NAN","NAN","NAN","NAN"],
    [1566578,"2026-08-14 14:40:00","3331","4.6930000000000005","215.6","6.86","210.1","NAN","NAN","NAN","NAN","NAN"],
    [1566579,"2026-08-14 14:50:00","3332","4.824","215.9","7.154","203.2","NAN","NAN","NAN","NAN","NAN"],
    [1566580,"2026-08-14 15:00:00","3333","4.518","218.2","6.468","213.7","NAN","NAN","NAN","NAN","NAN"],
    [1566581,"2026-08-14 15:10:00","3334","5.062","210.7","7.644","218.9","NAN","NAN","NAN","NAN","NAN"],
    [1566582,"2026-08-14 15:20:00","3335","4.42","215.3","6.664","225.2","NAN","NAN","NAN","NAN","NAN"],
    [1566583,"2026-08-14 15:30:00","3336","5.1160000000000005","217.3","7.644","206.3","NAN","NAN","NAN","NAN","NAN"],
    [1566584,"2026-08-14 15:40:00","3337","4.375","218.2","7.546","209","NAN","NAN","NAN","NAN","NAN"],
    [1566585,"2026-08-14 15:50:00","3338","4.425","215.3","6.664","207.2","NAN","NAN","NAN","NAN","NAN"],
    [1566586,"2026-08-14 16:00:00","3339","4.242","214.2","7.252","204.7","NAN","NAN","NAN","NAN","NAN"],
    [1566587,"2026-08-14 16:10:00","3340","3.964","220.5","6.37","229.4","NAN","NAN","NAN","NAN","NAN"],
    [1566588,"2026-08-14 16:20:00","3341","4.3469999999999995","220.0","7.056","221.7","NAN","NAN","NAN","NAN","NAN"],
    [1566589,"2026-08-14 16:30:00","3342","3.452","218.7","5.978","215.3","NAN","NAN","NAN","NAN","NAN"],
    [1566590,"2026-08-14 16:40:00","3343","3.7","233.3","6.076","241.5","NAN","NAN","NAN","NAN","NAN"],
    [1566591,"2026-08-14 16:50:00","3344","3.693","231.1","6.664","229.7","NAN","NAN","NAN","NAN","NAN"],
    [1566592,"2026-08-14 17:00:00","3345","3.6430000000000002","235.7","5.39","262.3","NAN","NAN","NAN","NAN","NAN"],
    [1566593,"2026-08-14 17:10:00","3346","3.645","231.9","6.762","244.4","NAN","NAN","NAN","NAN","NAN"],
    [1566594,"2026-08-14 17:20:00","3347","3.602","233.4","6.076","209.5","NAN","NAN","NAN","NAN","NAN"],
    [1566595,"2026-08-14 17:30:00","3348","3.548","235.0","5.488","219.6","NAN","NAN","NAN","NAN","NAN"],
    [1566596,"2026-08-14 17:40:00","3349","3.2960000000000003","234.7","5.194","266.1","NAN","NAN","NAN","NAN","NAN"],
    [1566597,"2026-08-14 17:50:00","3350","3.075","229.9","5.488","236.5","NAN","NAN","NAN","NAN","NAN"],
    [1566598,"2026-08-14 18:00:00","3351","2.475","241.1","4.41","236","NAN","NAN","NAN","NAN","NAN"],
    [1566599,"2026-08-14 18:10:00","3352","2.475","226.4","4.116","234.8","NAN","NAN","NAN","NAN","NAN"],
    [1566600,"2026-08-14 18:20:00","3353","2.762","221.1","4.508","208.2","NAN","NAN","NAN","NAN","NAN"],
    [1566601,"2026-08-14 18:30:00","3354","2.4819999999999998","224.2","3.822","226.6","NAN","NAN","NAN","NAN","NAN"],
    [1566602,"2026-08-14 18:40:00","3355","2.801","218.3","3.724","211.5","NAN","NAN","NAN","NAN","NAN"],
    [1566603,"2026-08-14 18:50:00","3356","2.602","222.1","4.9","224.8","NAN","NAN","NAN","NAN","NAN"],
    [1566604,"2026-08-14 19:00:00","3357","2.485","232.9","4.41","240.4","NAN","NAN","NAN","NAN","NAN"],
    [1566605,"2026-08-14 19:10:00","3358","2.158","233.4","3.724","244.1","NAN","NAN","NAN","NAN","NAN"],
    [1566606,"2026-08-14 19:20:00","3359","2.262","245.0","3.43","253.7","NAN","NAN","NAN","NAN","NAN"],
    [1566607,"2026-08-14 19:30:00","3360","2.0469999999999997","239.2","3.43","233.7","NAN","NAN","NAN","NAN","NAN"],
    [1566608,"2026-08-14 19:40:00","3361","1.706","236.0","3.43","244.2","NAN","NAN","NAN","NAN","NAN"],
    [1566609,"2026-08-14 19:50:00","3362","1.568","242.2","3.136","220","NAN","NAN","NAN","NAN","NAN"],
    [1566610,"2026-08-14 20:00:00","3363","1.81","237.1","3.332","234.9","NAN","NAN","NAN","NAN","NAN"],
    [1566611,"2026-08-14 20:10:00","3364","1.655","223.5","2.842","221.6","NAN","NAN","NAN","NAN","NAN"],
    [1566612,"2026-08-14 20:20:00","3365","1.739","239.8","3.528","238.1","NAN","NAN","NAN","NAN","NAN"],
    [1566613,"2026-08-14 20:30:00","3366","1.976","249.4","2.842","249.8","NAN","NAN","NAN","NAN","NAN"],
    [1566614,"2026-08-14 20:40:00","3367","2.53","246.0","3.43","238.7","NAN","NAN","NAN","NAN","NAN"],
    [1566615,"2026-08-14 20:50:00","3368","2.1830000000000003","245.6","3.43","239.6","NAN","NAN","NAN","NAN","NAN"],
    [1566616,"2026-08-14 21:00:00","3369","2.063","234.2","3.43","234.4","NAN","NAN","NAN","NAN","NAN"],
    [1566617,"2026-08-14 21:10:00","3370","2.377","243.1","3.724","238.8","NAN","NAN","NAN","NAN","NAN"],
    [1566618,"2026-08-14 21:20:00","3371","2.419","243.5","4.41","245.4","NAN","NAN","NAN","NAN","NAN"],
    [1566619,"2026-08-14 21:30:00","3372","3.4219999999999997","252.1","4.802","256.2","NAN","NAN","NAN","NAN","NAN"],
    [1566620,"2026-08-14 21:40:00","3373","3.2","261.1","4.998","247.5","NAN","NAN","NAN","NAN","NAN"],
    [1566621,"2026-08-14 21:50:00","3374","3.0380000000000003","254.7","4.116","264.4","NAN","NAN","NAN","NAN","NAN"],
    [1566622,"2026-08-14 22:00:00","3375","3.113","250.9","5.488","251.5","NAN","NAN","NAN","NAN","NAN"],
    [1566623,"2026-08-14 22:10:00","3376","3.387","251.2","5.096","248.6","NAN","NAN","NAN","NAN","NAN"],
    [1566624,"2026-08-14 22:20:00","3377","3.4589999999999996","254.0","4.802","252.3","NAN","NAN","NAN","NAN","NAN"],
    [1566625,"2026-08-14 22:30:00","3378","2.923","258.6","4.802","256.9","NAN","NAN","NAN","NAN","NAN"],
    [1566626,"2026-08-14 22:40:00","3379","2.494","252.4","3.92","257.4","NAN","NAN","NAN","NAN","NAN"],
    [1566627,"2026-08-14 22:50:00","3380","1.892","255.0","3.038","246.9","NAN","NAN","NAN","NAN","NAN"],
    [1566628,"2026-08-14 23:00:00","3381","1.8519999999999999","257.5","2.646","251.7","NAN","NAN","NAN","NAN","NAN"],
    [1566629,"2026-08-14 23:10:00","3382","2.557","253.6","3.724","248.5","NAN","NAN","NAN","NAN","NAN"],
    [1566630,"2026-08-14 23:20:00","3383","2.492","253.1","3.724","260","NAN","NAN","NAN","NAN","NAN"],
    [1566631,"2026-08-14 23:30:00","3384","2.346","243.4","3.528","250.2","NAN","NAN","NAN","NAN","NAN"],
    [1566632,"2026-08-14 23:40:00","3385","2.077","234.0","3.822","215.8","NAN","NAN","NAN","NAN","NAN"],
    [1566633,"2026-08-14 23:50:00","3386","2.472","240.7","4.214","249","NAN","NAN","NAN","NAN","NAN"],
    [1566634,"2026-08-15 00:00:00","3387","2.227","247.4","3.724","245.9","NAN","NAN","NAN","NAN","NAN"],
    [1566635,"2026-08-15 00:10:00","3388","2.041","236.2","4.018","240.2","NAN","NAN","NAN","NAN","NAN"],
    [1566636,"2026-08-15 00:20:00","3389","2.3609999999999998","247.6","3.724","262.3","NAN","NAN","NAN","NAN","NAN"],
    [1566637,"2026-08-15 00:30:00","3390","2.406","255.7","4.214","264.1","NAN","NAN","NAN","NAN","NAN"],
    [1566638,"2026-08-15 00:40:00","3391","2.197","253.0","3.136","250.8","NAN","NAN","NAN","NAN","NAN"],
    [1566639,"2026-08-15 00:50:00","3392","1.435","260.1","2.352","260.1","NAN","NAN","NAN","NAN","NAN"],
    [1566640,"2026-08-15 01:00:00","3393","1.48","256.6","2.548","246","NAN","NAN","NAN","NAN","NAN"],
    [1566641,"2026-08-15 01:10:00","3394","1.421","259.5","2.156","256.5","NAN","NAN","NAN","NAN","NAN"],
    [1566642,"2026-08-15 01:20:00","3395","1.2790000000000001","262.5","1.96","263.4","NAN","NAN","NAN","NAN","NAN"],
    [1566643,"2026-08-15 01:30:00","3396","1.2209999999999999","247.4","2.254","251.1","NAN","NAN","NAN","NAN","NAN"],
    [1566644,"2026-08-15 01:40:00","3397","1.367","240.7","2.94","238","NAN","NAN","NAN","NAN","NAN"],
    [1566645,"2026-08-15 01:50:00","3398","1.7830000000000001","247.8","2.646","252","NAN","NAN","NAN","NAN","NAN"],
    [1566646,"2026-08-15 02:00:00","3399","2.019","247.2","2.646","248.6","NAN","NAN","NAN","NAN","NAN"],
    [1566647,"2026-08-15 02:10:00","3400","1.8","248.1","2.94","250","NAN","NAN","NAN","NAN","NAN"],
    [1566648,"2026-08-15 02:20:00","3401","1.436","254.1","2.254","254.9","NAN","NAN","NAN","NAN","NAN"],
    [1566649,"2026-08-15 02:30:00","3402","1.34","257.1","2.548","257","NAN","NAN","NAN","NAN","NAN"],
    [1566650,"2026-08-15 02:40:00","3403","0.988","246.8","1.47","244","NAN","NAN","NAN","NAN","NAN"],
    [1566651,"2026-08-15 02:50:00","3404","1.246","243.2","2.156","249.3","NAN","NAN","NAN","NAN","NAN"],
    [1566652,"2026-08-15 03:00:00","3405","1.609","249.8","2.45","255.7","NAN","NAN","NAN","NAN","NAN"],
    [1566653,"2026-08-15 03:10:00","3406","1.444","256.1","2.254","257.3","NAN","NAN","NAN","NAN","NAN"],
    [1566654,"2026-08-15 03:20:00","3407","0.917","257.6","1.568","257.6","NAN","NAN","NAN","NAN","NAN"],
    [1566655,"2026-08-15 03:30:00","3408","0.762","257.8","1.568","257.8","NAN","NAN","NAN","NAN","NAN"],
    [1566656,"2026-08-15 03:40:00","3409","0.779","257.9","1.568","258","NAN","NAN","NAN","NAN","NAN"],
    [1566657,"2026-08-15 03:50:00","3410","0.9520000000000001","257.8","1.666","257.9","NAN","NAN","NAN","NAN","NAN"],
    [1566658,"2026-08-15 04:00:00","3411","1.036","257.8","1.764","257.9","NAN","NAN","NAN","NAN","NAN"],
    [1566659,"2026-08-15 04:10:00","3412","0.982","257.5","1.47","257.9","NAN","NAN","NAN","NAN","NAN"],
    [1566660,"2026-08-15 04:20:00","3413","1.359","258.3","2.058","258.1","NAN","NAN","NAN","NAN","NAN"],
    [1566661,"2026-08-15 04:30:00","3414","1.344","258.9","2.058","258.9","NAN","NAN","NAN","NAN","NAN"],
    [1566662,"2026-08-15 04:40:00","3415","1.73","262.5","2.548","266.4","NAN","NAN","NAN","NAN","NAN"],
    [1566663,"2026-08-15 04:50:00","3416","1.72","268.0","2.646","272.9","NAN","NAN","NAN","NAN","NAN"],
    [1566664,"2026-08-15 05:00:00","3417","1.4509999999999998","279.4","2.45","278.7","NAN","NAN","NAN","NAN","NAN"],
    [1566665,"2026-08-15 05:10:00","3418","1.49","279.2","2.254","271.7","NAN","NAN","NAN","NAN","NAN"],
    [1566666,"2026-08-15 05:20:00","3419","1.44","283.4","2.352","284.1","NAN","NAN","NAN","NAN","NAN"],
    [1566667,"2026-08-15 05:30:00","3420","1.376","284.4","2.646","288.7","NAN","NAN","NAN","NAN","NAN"],
    [1566668,"2026-08-15 05:40:00","3421","1.386","293.2","2.548","293.4","NAN","NAN","NAN","NAN","NAN"],
    [1566669,"2026-08-15 05:50:00","3422","0.674","293.3","1.568","293.4","NAN","NAN","NAN","NAN","NAN"],
    [1566670,"2026-08-15 06:00:00","3423","0.22","293.3","0.686","293.3","NAN","NAN","NAN","NAN","NAN"],
    [1566671,"2026-08-15 06:10:00","3424","0.02","293.3","0.294","293.3","NAN","NAN","NAN","NAN","NAN"],
    [1566672,"2026-08-15 06:20:00","3425","0.5479999999999999","288.2","1.274","285.4","NAN","NAN","NAN","NAN","NAN"],
    [1566673,"2026-08-15 06:30:00","3426","0.541","289.3","1.176","282","NAN","NAN","NAN","NAN","NAN"],
    [1566674,"2026-08-15 06:40:00","3427","0.065","293.4","0.588","293.5","NAN","NAN","NAN","NAN","NAN"],
    [1566675,"2026-08-15 06:50:00","3428","0.473","320.1","2.744","22.3","NAN","NAN","NAN","NAN","NAN"],
    [1566676,"2026-08-15 07:00:00","3429","1.232","34.19","2.548","27.81","NAN","NAN","NAN","NAN","NAN"],
    [1566677,"2026-08-15 07:10:00","3430","0.81","35.47","1.666","35.84","NAN","NAN","NAN","NAN","NAN"],
    [1566678,"2026-08-15 07:20:00","3431","1.185","45.86","2.842","49.8","NAN","NAN","NAN","NAN","NAN"],
    [1566679,"2026-08-15 07:30:00","3432","1.892","45.18","4.214","34.91","NAN","NAN","NAN","NAN","NAN"],
    [1566680,"2026-08-15 07:40:00","3433","3.1260000000000003","63.18","5.978","34.31","NAN","NAN","NAN","NAN","NAN"],
    [1566681,"2026-08-15 07:50:00","3434","3.9960000000000004","63.43","6.37","73.1","NAN","NAN","NAN","NAN","NAN"],
    [1566682,"2026-08-15 08:00:00","3435","4.107","67.88","6.468","73.6","NAN","NAN","NAN","NAN","NAN"],
    [1566683,"2026-08-15 08:10:00","3436","4.176","66.76","6.174","87.9","NAN","NAN","NAN","NAN","NAN"],
    [1566684,"2026-08-15 08:20:00","3437","4.593","60.28","6.958","72.88","NAN","NAN","NAN","NAN","NAN"],
    [1566685,"2026-08-15 08:30:00","3438","3.975","57.8","7.252","56.75","NAN","NAN","NAN","NAN","NAN"],
    [1566686,"2026-08-15 08:40:00","3439","3.84","59.62","6.762","53.84","NAN","NAN","NAN","NAN","NAN"],
    [1566687,"2026-08-15 08:50:00","3440","3.971","58.06","6.762","61.63","NAN","NAN","NAN","NAN","NAN"],
    [1566688,"2026-08-15 09:00:00","3441","4.004","61.39","6.566","55.21","NAN","NAN","NAN","NAN","NAN"],
    [1566689,"2026-08-15 09:10:00","3442","4.416","58.85","7.938","68.08","NAN","NAN","NAN","NAN","NAN"],
    [1566690,"2026-08-15 09:20:00","3443","5.104","63.34","7.448","62.4","NAN","NAN","NAN","NAN","NAN"],
    [1566691,"2026-08-15 09:30:00","3444","3.8280000000000003","74.21","6.664","61.37","NAN","NAN","NAN","NAN","NAN"],
    [1566692,"2026-08-15 09:40:00","3445","3.116","95.8","5.292","94.3","NAN","NAN","NAN","NAN","NAN"],
    [1566693,"2026-08-15 09:50:00","3446","3.596","100.0","5.586","100.7","NAN","NAN","NAN","NAN","NAN"],
    [1566694,"2026-08-15 10:00:00","3447","3.563","96.5","6.566","101","NAN","NAN","NAN","NAN","NAN"],
    [1566695,"2026-08-15 10:10:00","3448","3.838","91.6","6.174","96.1","NAN","NAN","NAN","NAN","NAN"],
    [1566696,"2026-08-15 10:20:00","3449","3.7319999999999998","95.2","6.272","82.3","NAN","NAN","NAN","NAN","NAN"],
    [1566697,"2026-08-15 10:30:00","3450","3.701","100.9","5.488","96.6","NAN","NAN","NAN","NAN","NAN"],
    [1566698,"2026-08-15 10:40:00","3451","3.827","105.9","6.566","76.08","NAN","NAN","NAN","NAN","NAN"],
    [1566699,"2026-08-15 10:50:00","3452","3.4139999999999997","110.0","4.704","131.4","NAN","NAN","NAN","NAN","NAN"],
    [1566700,"2026-08-15 11:00:00","3453","3.2230000000000003","114.7","5.978","116.3","NAN","NAN","NAN","NAN","NAN"],
    [1566701,"2026-08-15 11:10:00","3454","3.595","116.0","5.292","125.9","NAN","NAN","NAN","NAN","NAN"],
    [1566702,"2026-08-15 11:20:00","3455","3.217","120.1","4.802","122.5","NAN","NAN","NAN","NAN","NAN"],
    [1566703,"2026-08-15 11:30:00","3456","3.639","117.0","4.9","121.8","NAN","NAN","NAN","NAN","NAN"],
    [1566704,"2026-08-15 11:40:00","3457","3.134","118.1","5.684","113.8","NAN","NAN","NAN","NAN","NAN"],
    [1566705,"2026-08-15 11:50:00","3458","3.667","115.1","5.292","108.6","NAN","NAN","NAN","NAN","NAN"],
    [1566706,"2026-08-15 12:00:00","3459","3.242","112.5","4.704","113.1","NAN","NAN","NAN","NAN","NAN"],
    [1566707,"2026-08-15 12:10:00","3460","3.0389999999999997","122.3","4.802","128.9","NAN","NAN","NAN","NAN","NAN"],
    [1566708,"2026-08-15 12:20:00","3461","3.262","112.9","5.194","144.7","NAN","NAN","NAN","NAN","NAN"],
    [1566709,"2026-08-15 12:30:00","3462","3.89","127.7","5.39","145","NAN","NAN","NAN","NAN","NAN"],
    [1566710,"2026-08-15 12:40:00","3463","4.059","125.9","5.978","134.1","NAN","NAN","NAN","NAN","NAN"],
    [1566711,"2026-08-15 12:50:00","3464","3.977","126.3","5.586","140.1","NAN","NAN","NAN","NAN","NAN"],
    [1566712,"2026-08-15 13:00:00","3465","4.2589999999999995","134.8","5.88","122.7","NAN","NAN","NAN","NAN","NAN"],
    [1566713,"2026-08-15 13:10:00","3466","3.9530000000000003","132.3","5.292","143.1","NAN","NAN","NAN","NAN","NAN"],
    [1566714,"2026-08-15 13:20:00","3467","3.188","115.6","5.39","103.5","NAN","NAN","NAN","NAN","NAN"],
    [1566715,"2026-08-15 13:30:00","3468","3.377","115.7","4.802","101.7","NAN","NAN","NAN","NAN","NAN"],
    [1566716,"2026-08-15 13:40:00","3469","3.8110000000000004","119.5","5.684","121.3","NAN","NAN","NAN","NAN","NAN"],
    [1566717,"2026-08-15 13:50:00","3470","4.063","127.2","6.272","131.6","NAN","NAN","NAN","NAN","NAN"],
    [1566718,"2026-08-15 14:00:00","3471","4.077","128.0","5.488","135.2","NAN","NAN","NAN","NAN","NAN"],
    [1566719,"2026-08-15 14:10:00","3472","3.44","116.3","5.292","137","NAN","NAN","NAN","NAN","NAN"],
    [1566720,"2026-08-15 14:20:00","3473","3.6660000000000004","115.0","6.174","138","NAN","NAN","NAN","NAN","NAN"],
    [1566721,"2026-08-15 14:30:00","3474","3.426","155.8","5.586","157.8","NAN","NAN","NAN","NAN","NAN"],
    [1566722,"2026-08-15 14:40:00","3475","2.6430000000000002","180.5","5.292","167.1","NAN","NAN","NAN","NAN","NAN"],
    [1566723,"2026-08-15 14:50:00","3476","3.0410000000000004","165.2","4.9","155.6","NAN","NAN","NAN","NAN","NAN"],
    [1566724,"2026-08-15 15:00:00","3477","2.821","178.9","4.41","165.2","NAN","NAN","NAN","NAN","NAN"],
    [1566725,"2026-08-15 15:10:00","3478","2.7","170.9","4.802","172.2","NAN","NAN","NAN","NAN","NAN"],
    [1566726,"2026-08-15 15:20:00","3479","3.273","152.6","5.488","143.8","NAN","NAN","NAN","NAN","NAN"],
    [1566727,"2026-08-15 15:30:00","3480","1.8219999999999998","164.0","3.92","173.7","NAN","NAN","NAN","NAN","NAN"],
    [1566728,"2026-08-15 15:40:00","3481","0.9690000000000001","190.8","2.94","204.1","NAN","NAN","NAN","NAN","NAN"],
    [1566729,"2026-08-15 15:50:00","3482","2.938","43.48","7.84","0.577","NAN","NAN","NAN","NAN","NAN"],
    [1566730,"2026-08-15 16:00:00","3483","6.568","15.0","12.94","348","NAN","NAN","NAN","NAN","NAN"],
    [1566731,"2026-08-15 16:10:00","3484","4.5489999999999995","354.6","7.742","5.676","NAN","NAN","NAN","NAN","NAN"],
    [1566732,"2026-08-15 16:20:00","3485","3.7319999999999998","18.82","6.076","4.643","NAN","NAN","NAN","NAN","NAN"],
    [1566733,"2026-08-15 16:30:00","3486","3.633","19.37","7.84","26.61","NAN","NAN","NAN","NAN","NAN"],
    [1566734,"2026-08-15 16:40:00","3487","2.228","14.38","3.332","14.19","NAN","NAN","NAN","NAN","NAN"],
    [1566735,"2026-08-15 16:50:00","3488","1.023","30.6","2.842","30.17","NAN","NAN","NAN","NAN","NAN"],
    [1566736,"2026-08-15 17:00:00","3489","0.619","13.98","2.254","7.842","NAN","NAN","NAN","NAN","NAN"],
    [1566737,"2026-08-15 17:10:00","3490","1.258","330.8","3.43","285.3","NAN","NAN","NAN","NAN","NAN"],
    [1566738,"2026-08-15 17:20:00","3491","3.245","286.2","5.194","290.9","NAN","NAN","NAN","NAN","NAN"],
    [1566739,"2026-08-15 17:30:00","3492","2.966","287.3","4.606","302.3","NAN","NAN","NAN","NAN","NAN"],
    [1566740,"2026-08-15 17:40:00","3493","2.8160000000000003","282.5","4.312","265.6","NAN","NAN","NAN","NAN","NAN"],
    [1566741,"2026-08-15 17:50:00","3494","3.322","277.3","5.586","294.2","NAN","NAN","NAN","NAN","NAN"],
    [1566742,"2026-08-15 18:00:00","3495","2.9","291.6","4.802","295.5","NAN","NAN","NAN","NAN","NAN"],
    [1566743,"2026-08-15 18:10:00","3496","2.766","284.4","4.606","273.9","NAN","NAN","NAN","NAN","NAN"],
    [1566744,"2026-08-15 18:20:00","3497","3.264","293.7","4.704","279.8","NAN","NAN","NAN","NAN","NAN"],
    [1566745,"2026-08-15 18:30:00","3498","2.7289999999999996","308.0","4.802","306.8","NAN","NAN","NAN","NAN","NAN"],
    [1566746,"2026-08-15 18:40:00","3499","2.909","310.8","5.096","316.7","NAN","NAN","NAN","NAN","NAN"],
    [1566747,"2026-08-15 18:50:00","3500","2.8739999999999997","309.9","4.214","311.5","NAN","NAN","NAN","NAN","NAN"],
    [1566748,"2026-08-15 19:00:00","3501","3.4330000000000003","320.5","5.88","336.7","NAN","NAN","NAN","NAN","NAN"],
    [1566749,"2026-08-15 19:10:00","3502","3.241","317.3","5.096","324.1","NAN","NAN","NAN","NAN","NAN"],
    [1566750,"2026-08-15 19:20:00","3503","2.825","308.4","4.802","316.1","NAN","NAN","NAN","NAN","NAN"],
    [1566751,"2026-08-15 19:30:00","3504","2.63","310.6","4.998","303.3","NAN","NAN","NAN","NAN","NAN"],
    [1566752,"2026-08-15 19:40:00","3505","2.427","323.1","4.312","331.3","NAN","NAN","NAN","NAN","NAN"],
    [1566753,"2026-08-15 19:50:00","3506","2.359","306.3","3.332","299.3","NAN","NAN","NAN","NAN","NAN"],
    [1566754,"2026-08-15 20:00:00","3507","1.911","299.0","3.038","310.9","NAN","NAN","NAN","NAN","NAN"],
    [1566755,"2026-08-15 20:10:00","3508","1.7619999999999998","303.9","2.842","298.4","NAN","NAN","NAN","NAN","NAN"],
    [1566756,"2026-08-15 20:20:00","3509","1.5859999999999999","297.4","2.744","291.1","NAN","NAN","NAN","NAN","NAN"],
    [1566757,"2026-08-15 20:30:00","3510","1.1440000000000001","316.6","2.156","318.5","NAN","NAN","NAN","NAN","NAN"],
    [1566758,"2026-08-15 20:40:00","3511","1.045","315.7","1.862","310.7","NAN","NAN","NAN","NAN","NAN"],
    [1566759,"2026-08-15 20:50:00","3512","1.0070000000000001","306.3","1.764","294.7","NAN","NAN","NAN","NAN","NAN"],
    [1566760,"2026-08-15 21:00:00","3513","1.092","293.4","1.764","293.2","NAN","NAN","NAN","NAN","NAN"],
    [1566761,"2026-08-15 21:10:00","3514","1.723","292.4","2.646","291.4","NAN","NAN","NAN","NAN","NAN"],
    [1566762,"2026-08-15 21:20:00","3515","1.797","283.0","2.94","261.3","NAN","NAN","NAN","NAN","NAN"],
    [1566763,"2026-08-15 21:30:00","3516","1.92","273.5","3.43","273.6","NAN","NAN","NAN","NAN","NAN"],
    [1566764,"2026-08-15 21:40:00","3517","1.8430000000000002","279.7","3.136","285.9","NAN","NAN","NAN","NAN","NAN"],
    [1566765,"2026-08-15 21:50:00","3518","1.649","276.3","2.45","275.3","NAN","NAN","NAN","NAN","NAN"],
    [1566766,"2026-08-15 22:00:00","3519","2.416","275.9","3.528","271.4","NAN","NAN","NAN","NAN","NAN"],
    [1566767,"2026-08-15 22:10:00","3520","2.247","284.2","3.332","272.5","NAN","NAN","NAN","NAN","NAN"],
    [1566768,"2026-08-15 22:20:00","3521","2.101","281.8","3.136","275.2","NAN","NAN","NAN","NAN","NAN"],
    [1566769,"2026-08-15 22:30:00","3522","1.486","294.9","2.45","294.3","NAN","NAN","NAN","NAN","NAN"],
    [1566770,"2026-08-15 22:40:00","3523","1.115","294.5","1.862","296.7","NAN","NAN","NAN","NAN","NAN"],
    [1566771,"2026-08-15 22:50:00","3524","1.3619999999999999","284.3","2.058","274.7","NAN","NAN","NAN","NAN","NAN"],
    [1566772,"2026-08-15 23:00:00","3525","2.133","275.7","2.94","271.2","NAN","NAN","NAN","NAN","NAN"],
    [1566773,"2026-08-15 23:10:00","3526","1.963","281.5","3.136","277.9","NAN","NAN","NAN","NAN","NAN"],
    [1566774,"2026-08-15 23:20:00","3527","2.313","281.3","3.43","278.3","NAN","NAN","NAN","NAN","NAN"],
    [1566775,"2026-08-15 23:30:00","3528","2.246","281.7","3.822","286","NAN","NAN","NAN","NAN","NAN"],
    [1566776,"2026-08-15 23:40:00","3529","2.572","281.4","3.822","274.1","NAN","NAN","NAN","NAN","NAN"],
    [1566777,"2026-08-15 23:50:00","3530","2.334","283.4","3.724","281.8","NAN","NAN","NAN","NAN","NAN"],
    [1566778,"2026-08-16 00:00:00","3531","1.571","294.9","2.646","296.6","NAN","NAN","NAN","NAN","NAN"],
    [1566779,"2026-08-16 00:10:00","3532","1.56","284.0","2.548","276.1","NAN","NAN","NAN","NAN","NAN"],
    [1566780,"2026-08-16 00:20:00","3533","2.412","282.2","4.018","267.9","NAN","NAN","NAN","NAN","NAN"],
    [1566781,"2026-08-16 00:30:00","3534","3.0069999999999997","283.2","4.312","266.9","NAN","NAN","NAN","NAN","NAN"],
    [1566782,"2026-08-16 00:40:00","3535","3.239","285.7","4.9","284.7","NAN","NAN","NAN","NAN","NAN"],
    [1566783,"2026-08-16 00:50:00","3536","3.096","289.1","5.292","290.8","NAN","NAN","NAN","NAN","NAN"],
    [1566784,"2026-08-16 01:00:00","3537","2.897","299.3","4.704","295.1","NAN","NAN","NAN","NAN","NAN"],
    [1566785,"2026-08-16 01:10:00","3538","2.1959999999999997","300.2","3.43","300.2","NAN","NAN","NAN","NAN","NAN"],
    [1566786,"2026-08-16 01:20:00","3539","1.4809999999999999","306.2","2.842","312.7","NAN","NAN","NAN","NAN","NAN"],
    [1566787,"2026-08-16 01:30:00","3540","0.5660000000000001","313.4","1.568","313.4","NAN","NAN","NAN","NAN","NAN"],
    [1566788,"2026-08-16 01:40:00","3541","1.056","284.0","1.862","286.8","NAN","NAN","NAN","NAN","NAN"],
    [1566789,"2026-08-16 01:50:00","3542","2.365","282.4","4.018","281.2","NAN","NAN","NAN","NAN","NAN"],
    [1566790,"2026-08-16 02:00:00","3543","1.795","286.3","4.214","290.7","NAN","NAN","NAN","NAN","NAN"],
    [1566791,"2026-08-16 02:10:00","3544","1.8969999999999998","283.6","3.332","275.7","NAN","NAN","NAN","NAN","NAN"],
    [1566792,"2026-08-16 02:20:00","3545","2.642","279.8","3.92","289.1","NAN","NAN","NAN","NAN","NAN"],
    [1566793,"2026-08-16 02:30:00","3546","2.5069999999999997","278.2","3.43","289.2","NAN","NAN","NAN","NAN","NAN"],
    [1566794,"2026-08-16 02:40:00","3547","2.765","271.3","4.508","271","NAN","NAN","NAN","NAN","NAN"],
    [1566795,"2026-08-16 02:50:00","3548","2.569","279.6","4.214","284.8","NAN","NAN","NAN","NAN","NAN"],
    [1566796,"2026-08-16 03:00:00","3549","1.995","282.2","3.626","273.8","NAN","NAN","NAN","NAN","NAN"],
    [1566797,"2026-08-16 03:10:00","3550","2.276","291.0","4.116","292.5","NAN","NAN","NAN","NAN","NAN"],
    [1566798,"2026-08-16 03:20:00","3551","2.8489999999999998","279.2","4.116","270.6","NAN","NAN","NAN","NAN","NAN"],
    [1566799,"2026-08-16 03:30:00","3552","2.8310000000000004","287.0","4.704","290.8","NAN","NAN","NAN","NAN","NAN"],
    [1566800,"2026-08-16 03:40:00","3553","1.9280000000000002","294.0","3.332","302.5","NAN","NAN","NAN","NAN","NAN"],
    [1566801,"2026-08-16 03:50:00","3554","2.778","279.5","4.116","280.5","NAN","NAN","NAN","NAN","NAN"],
    [1566802,"2026-08-16 04:00:00","3555","2.6","276.5","3.626","278.7","NAN","NAN","NAN","NAN","NAN"],
    [1566803,"2026-08-16 04:10:00","3556","2.8939999999999997","280.6","4.312","285.6","NAN","NAN","NAN","NAN","NAN"],
    [1566804,"2026-08-16 04:20:00","3557","2.443","282.4","3.626","282.4","NAN","NAN","NAN","NAN","NAN"],
    [1566805,"2026-08-16 04:30:00","3558","1.7530000000000001","291.7","3.038","294.5","NAN","NAN","NAN","NAN","NAN"],
    [1566806,"2026-08-16 04:40:00","3559","1.7280000000000002","286.7","2.744","278.1","NAN","NAN","NAN","NAN","NAN"],
    [1566807,"2026-08-16 04:50:00","3560","1.9040000000000001","285.9","2.94","287.6","NAN","NAN","NAN","NAN","NAN"],
    [1566808,"2026-08-16 05:00:00","3561","1.567","290.3","2.646","278.8","NAN","NAN","NAN","NAN","NAN"],
    [1566809,"2026-08-16 05:10:00","3562","1.805","277.1","2.744","274.1","NAN","NAN","NAN","NAN","NAN"],
    [1566810,"2026-08-16 05:20:00","3563","2.213","274.7","3.038","276.4","NAN","NAN","NAN","NAN","NAN"],
    [1566811,"2026-08-16 05:30:00","3564","2.19","275.4","3.528","270.2","NAN","NAN","NAN","NAN","NAN"],
    [1566812,"2026-08-16 05:40:00","3565","2.049","284.4","3.43","289.7","NAN","NAN","NAN","NAN","NAN"],
    [1566813,"2026-08-16 05:50:00","3566","1.92","283.0","3.038","276","NAN","NAN","NAN","NAN","NAN"],
    [1566814,"2026-08-16 06:00:00","3567","1.964","291.3","3.724","298.9","NAN","NAN","NAN","NAN","NAN"],
    [1566815,"2026-08-16 06:10:00","3568","2.681","276.0","4.116","272.3","NAN","NAN","NAN","NAN","NAN"],
    [1566816,"2026-08-16 06:20:00","3569","3.458","285.3","4.704","287","NAN","NAN","NAN","NAN","NAN"],
    [1566817,"2026-08-16 06:30:00","3570","3.1430000000000002","290.3","4.998","283.5","NAN","NAN","NAN","NAN","NAN"],
    [1566818,"2026-08-16 06:40:00","3571","3.2739999999999996","298.1","5.292","296.8","NAN","NAN","NAN","NAN","NAN"],
    [1566819,"2026-08-16 06:50:00","3572","2.69","293.5","4.312","296","NAN","NAN","NAN","NAN","NAN"],
    [1566820,"2026-08-16 07:00:00","3573","2.805","286.8","4.508","284.1","NAN","NAN","NAN","NAN","NAN"],
    [1566821,"2026-08-16 07:10:00","3574","2.8","295.3","4.214","297","NAN","NAN","NAN","NAN","NAN"],
    [1566822,"2026-08-16 07:20:00","3575","2.313","292.5","3.43","290.1","NAN","NAN","NAN","NAN","NAN"],
    [1566823,"2026-08-16 07:30:00","3576","2.2159999999999997","275.5","3.136","256.6","NAN","NAN","NAN","NAN","NAN"],
    [1566824,"2026-08-16 07:40:00","3577","2.452","263.4","3.528","262.8","NAN","NAN","NAN","NAN","NAN"],
    [1566825,"2026-08-16 07:50:00","3578","2.256","261.7","3.528","262.8","NAN","NAN","NAN","NAN","NAN"],
    [1566826,"2026-08-16 08:00:00","3579","2.605","272.5","3.822","265.5","NAN","NAN","NAN","NAN","NAN"],
    [1566827,"2026-08-16 08:10:00","3580","2.325","276.8","3.43","277.9","NAN","NAN","NAN","NAN","NAN"],
    [1566828,"2026-08-16 08:20:00","3581","1.791","269.3","3.136","264.5","NAN","NAN","NAN","NAN","NAN"],
    [1566829,"2026-08-16 08:30:00","3582","2.009","256.3","3.332","251.7","NAN","NAN","NAN","NAN","NAN"],
    [1566830,"2026-08-16 08:40:00","3583","2.082","267.4","3.332","251.7","NAN","NAN","NAN","NAN","NAN"],
    [1566831,"2026-08-16 08:50:00","3584","2.655","243.9","3.724","238.1","NAN","NAN","NAN","NAN","NAN"],
    [1566832,"2026-08-16 09:00:00","3585","2.23","254.0","3.234","288.5","NAN","NAN","NAN","NAN","NAN"],
    [1566833,"2026-08-16 09:10:00","3586","2.286","239.9","3.822","248.1","NAN","NAN","NAN","NAN","NAN"],
    [1566834,"2026-08-16 09:20:00","3587","2.008","244.9","3.43","234.4","NAN","NAN","NAN","NAN","NAN"],
    [1566835,"2026-08-16 09:30:00","3588","1.814","215.5","3.43","221.1","NAN","NAN","NAN","NAN","NAN"],
    [1566836,"2026-08-16 09:40:00","3589","2.272","207.8","4.802","216.6","NAN","NAN","NAN","NAN","NAN"],
    [1566837,"2026-08-16 09:50:00","3590","3.233","205.2","4.802","209.6","NAN","NAN","NAN","NAN","NAN"],
    [1566838,"2026-08-16 10:00:00","3591","3.59","211.0","5.292","213.5","NAN","NAN","NAN","NAN","NAN"],
    [1566839,"2026-08-16 10:10:00","3592","3.3369999999999997","205.9","4.802","210","NAN","NAN","NAN","NAN","NAN"],
    [1566840,"2026-08-16 10:20:00","3593","3.424","207.3","4.998","217.6","NAN","NAN","NAN","NAN","NAN"],
    [1566841,"2026-08-16 10:30:00","3594","2.807","203.7","5.39","214.6","NAN","NAN","NAN","NAN","NAN"],
    [1566842,"2026-08-16 10:40:00","3595","3.1","193.8","5.292","198.7","NAN","NAN","NAN","NAN","NAN"],
    [1566843,"2026-08-16 10:50:00","3596","3.392","206.7","5.684","211.5","NAN","NAN","NAN","NAN","NAN"],
    [1566844,"2026-08-16 11:00:00","3597","3.412","201.7","5.39","211.8","NAN","NAN","NAN","NAN","NAN"],
    [1566845,"2026-08-16 11:10:00","3598","3.6069999999999998","193.6","5.684","209.6","NAN","NAN","NAN","NAN","NAN"],
    [1566846,"2026-08-16 11:20:00","3599","3.4210000000000003","196.6","5.684","201.4","NAN","NAN","NAN","NAN","NAN"],
    [1566847,"2026-08-16 11:30:00","3600","3.9739999999999998","206.7","6.468","208.5","NAN","NAN","NAN","NAN","NAN"],
    [1566848,"2026-08-16 11:40:00","3601","3.841","206.7","5.88","207.5","NAN","NAN","NAN","NAN","NAN"],
    [1566849,"2026-08-16 11:50:00","3602","3.6839999999999997","192.3","6.174","211.9","NAN","NAN","NAN","NAN","NAN"],
    [1566850,"2026-08-16 12:00:00","3603","3.96","198.3","6.958","172.1","NAN","NAN","NAN","NAN","NAN"],
    [1566851,"2026-08-16 12:10:00","3604","3.5580000000000003","195.8","5.88","216.5","NAN","NAN","NAN","NAN","NAN"],
    [1566852,"2026-08-16 12:20:00","3605","3.608","201.1","6.664","221","NAN","NAN","NAN","NAN","NAN"],
    [1566853,"2026-08-16 12:30:00","3606","3.9389999999999996","205.5","6.174","218.3","NAN","NAN","NAN","NAN","NAN"],
    [1566854,"2026-08-16 12:40:00","3607","4.01","200.7","7.938","174.9","NAN","NAN","NAN","NAN","NAN"],
    [1566855,"2026-08-16 12:50:00","3608","3.9930000000000003","199.5","7.154","174.9","NAN","NAN","NAN","NAN","NAN"],
    [1566856,"2026-08-16 13:00:00","3609","3.7680000000000002","199.3","6.762","221.7","NAN","NAN","NAN","NAN","NAN"],
    [1566857,"2026-08-16 13:10:00","3610","3.553","196.9","6.174","186.1","NAN","NAN","NAN","NAN","NAN"],
    [1566858,"2026-08-16 13:20:00","3611","3.9530000000000003","205.5","6.076","223.4","NAN","NAN","NAN","NAN","NAN"],
    [1566859,"2026-08-16 13:30:00","3612","4.107","205.3","6.174","202.6","NAN","NAN","NAN","NAN","NAN"],
    [1566860,"2026-08-16 13:40:00","3613","4.015","210.3","7.056","211.8","NAN","NAN","NAN","NAN","NAN"],
    [1566861,"2026-08-16 13:50:00","3614","3.562","217.9","6.272","221.9","NAN","NAN","NAN","NAN","NAN"],
    [1566862,"2026-08-16 14:00:00","3615","3.6289999999999996","210.4","5.586","215.8","NAN","NAN","NAN","NAN","NAN"],
    [1566863,"2026-08-16 14:10:00","3616","3.096","209.2","5.88","204.7","NAN","NAN","NAN","NAN","NAN"],
    [1566864,"2026-08-16 14:20:00","3617","3.245","218.4","4.998","226.1","NAN","NAN","NAN","NAN","NAN"],
    [1566865,"2026-08-16 14:30:00","3618","2.946","213.5","4.508","205.8","NAN","NAN","NAN","NAN","NAN"],
    [1566866,"2026-08-16 14:40:00","3619","2.717","216.0","4.508","213","NAN","NAN","NAN","NAN","NAN"],
    [1566867,"2026-08-16 14:50:00","3620","3.14","216.0","5.194","223.7","NAN","NAN","NAN","NAN","NAN"],
    [1566868,"2026-08-16 15:00:00","3621","2.685","210.0","4.018","195.5","NAN","NAN","NAN","NAN","NAN"],
    [1566869,"2026-08-16 15:10:00","3622","2.653","210.7","4.116","203","NAN","NAN","NAN","NAN","NAN"],
    [1566870,"2026-08-16 15:20:00","3623","2.49","216.2","4.116","226.7","NAN","NAN","NAN","NAN","NAN"],
    [1566871,"2026-08-16 15:30:00","3624","2.623","206.0","4.312","205.3","NAN","NAN","NAN","NAN","NAN"],
    [1566872,"2026-08-16 15:40:00","3625","2.773","202.9","4.508","228.1","NAN","NAN","NAN","NAN","NAN"],
    [1566873,"2026-08-16 15:50:00","3626","2.9410000000000003","209.9","4.704","226.7","NAN","NAN","NAN","NAN","NAN"],
    [1566874,"2026-08-16 16:00:00","3627","3.138","208.7","5.292","209","NAN","NAN","NAN","NAN","NAN"],
    [1566875,"2026-08-16 16:10:00","3628","2.66","208.4","4.998","216.9","NAN","NAN","NAN","NAN","NAN"],
    [1566876,"2026-08-16 16:20:00","3629","2.782","206.9","4.998","203.9","NAN","NAN","NAN","NAN","NAN"],
    [1566877,"2026-08-16 16:30:00","3630","2.532","187.0","4.704","204.5","NAN","NAN","NAN","NAN","NAN"],
    [1566878,"2026-08-16 16:40:00","3631","2.303","164.2","4.214","154.3","NAN","NAN","NAN","NAN","NAN"],
    [1566879,"2026-08-16 16:50:00","3632","2.104","170.5","3.92","171.3","NAN","NAN","NAN","NAN","NAN"],
    [1566880,"2026-08-16 17:00:00","3633","1.931","179.8","3.136","176.4","NAN","NAN","NAN","NAN","NAN"],
    [1566881,"2026-08-16 17:10:00","3634","1.915","186.9","3.724","164.1","NAN","NAN","NAN","NAN","NAN"],
    [1566882,"2026-08-16 17:20:00","3635","1.824","191.0","3.234","183.4","NAN","NAN","NAN","NAN","NAN"],
    [1566883,"2026-08-16 17:30:00","3636","1.94","189.3","4.018","212.7","NAN","NAN","NAN","NAN","NAN"],
    [1566884,"2026-08-16 17:40:00","3637","2.079","166.9","3.234","169.8","NAN","NAN","NAN","NAN","NAN"],
    [1566885,"2026-08-16 17:50:00","3638","1.7469999999999999","165.6","2.842","173.6","NAN","NAN","NAN","NAN","NAN"],
    [1566886,"2026-08-16 18:00:00","3639","1.1","178.8","2.352","179.5","NAN","NAN","NAN","NAN","NAN"],
    [1566887,"2026-08-16 18:10:00","3640","0.6859999999999999","162.7","1.862","163.7","NAN","NAN","NAN","NAN","NAN"],
    [1566888,"2026-08-16 18:20:00","3641","1.868","117.0","2.646","111.5","NAN","NAN","NAN","NAN","NAN"],
    [1566889,"2026-08-16 18:30:00","3642","1.946","141.4","2.744","144.4","NAN","NAN","NAN","NAN","NAN"],
    [1566890,"2026-08-16 18:40:00","3643","2.378","156.2","3.136","159.6","NAN","NAN","NAN","NAN","NAN"],
    [1566891,"2026-08-16 18:50:00","3644","1.71","159.6","2.646","152","NAN","NAN","NAN","NAN","NAN"],
    [1566892,"2026-08-16 19:00:00","3645","2.1180000000000003","165.7","3.136","165.5","NAN","NAN","NAN","NAN","NAN"],
    [1566893,"2026-08-16 19:10:00","3646","2.15","164.7","3.332","161.1","NAN","NAN","NAN","NAN","NAN"],
    [1566894,"2026-08-16 19:20:00","3647","1.119","156.6","2.646","160.7","NAN","NAN","NAN","NAN","NAN"],
    [1566895,"2026-08-16 19:30:00","3648","0.26","145.5","1.078","146.4","NAN","NAN","NAN","NAN","NAN"],
    [1566896,"2026-08-16 19:40:00","3649","1.2770000000000001","144.4","1.96","146.7","NAN","NAN","NAN","NAN","NAN"],
    [1566897,"2026-08-16 19:50:00","3650","1.3730000000000002","151.1","2.156","158.5","NAN","NAN","NAN","NAN","NAN"],
    [1566898,"2026-08-16 20:00:00","3651","1.217","144.3","1.96","142.6","NAN","NAN","NAN","NAN","NAN"],
    [1566899,"2026-08-16 20:10:00","3652","0.975","120.9","1.666","118.7","NAN","NAN","NAN","NAN","NAN"],
    [1566900,"2026-08-16 20:20:00","3653","1.232","104.5","2.058","97.9","NAN","NAN","NAN","NAN","NAN"],
    [1566901,"2026-08-16 20:30:00","3654","1.4340000000000002","99.1","2.45","99.6","NAN","NAN","NAN","NAN","NAN"],
    [1566902,"2026-08-16 20:40:00","3655","1.715","101.9","2.646","103.2","NAN","NAN","NAN","NAN","NAN"],
    [1566903,"2026-08-16 20:50:00","3656","1.442","110.2","2.352","111.5","NAN","NAN","NAN","NAN","NAN"],
    [1566904,"2026-08-16 21:00:00","3657","1.508","102.0","2.156","98.2","NAN","NAN","NAN","NAN","NAN"],
    [1566905,"2026-08-16 21:10:00","3658","1.4080000000000001","100.5","2.254","93.8","NAN","NAN","NAN","NAN","NAN"],
    [1566906,"2026-08-16 21:20:00","3659","1.4280000000000002","107.1","2.352","109.8","NAN","NAN","NAN","NAN","NAN"],
    [1566907,"2026-08-16 21:30:00","3660","1.258","108.0","2.254","98.1","NAN","NAN","NAN","NAN","NAN"],
    [1566908,"2026-08-16 21:40:00","3661","1.3840000000000001","102.5","2.058","114.9","NAN","NAN","NAN","NAN","NAN"],
    [1566909,"2026-08-16 21:50:00","3662","1.1740000000000002","101.2","2.254","94.5","NAN","NAN","NAN","NAN","NAN"],
    [1566910,"2026-08-16 22:00:00","3663","1.1059999999999999","106.1","1.764","108.3","NAN","NAN","NAN","NAN","NAN"],
    [1566911,"2026-08-16 22:10:00","3664","1.056","97.0","1.666","103","NAN","NAN","NAN","NAN","NAN"],
    [1566912,"2026-08-16 22:20:00","3665","1.3030000000000002","97.5","1.862","104.3","NAN","NAN","NAN","NAN","NAN"],
    [1566913,"2026-08-16 22:30:00","3666","0.961","98.0","1.666","93","NAN","NAN","NAN","NAN","NAN"],
    [1566914,"2026-08-16 22:40:00","3667","0.82","102.8","1.274","112.2","NAN","NAN","NAN","NAN","NAN"],
    [1566915,"2026-08-16 22:50:00","3668","0.909","92.8","1.274","93.1","NAN","NAN","NAN","NAN","NAN"],
    [1566916,"2026-08-16 23:00:00","3669","1.479","90.8","2.156","90.5","NAN","NAN","NAN","NAN","NAN"],
    [1566917,"2026-08-16 23:10:00","3670","1.396","88.9","2.156","89","NAN","NAN","NAN","NAN","NAN"],
    [1566918,"2026-08-16 23:20:00","3671","1.271","84.4","2.646","83.6","NAN","NAN","NAN","NAN","NAN"],
    [1566919,"2026-08-16 23:30:00","3672","1.655","71.66","3.626","76.66","NAN","NAN","NAN","NAN","NAN"],
    [1566920,"2026-08-16 23:40:00","3673","1.515","65.56","2.744","65.11","NAN","NAN","NAN","NAN","NAN"],
    [1566921,"2026-08-16 23:50:00","3674","1.7080000000000002","56.28","2.744","50.39","NAN","NAN","NAN","NAN","NAN"],
    [1566922,"2026-08-17 00:00:00","3675","1.507","52.01","3.332","42.73","NAN","NAN","NAN","NAN","NAN"],
    [1566923,"2026-08-17 00:10:00","3676","1.071","54.94","2.254","49.91","NAN","NAN","NAN","NAN","NAN"],
    [1566924,"2026-08-17 00:20:00","3677","1.025","57.44","1.96","42.2","NAN","NAN","NAN","NAN","NAN"],
    [1566925,"2026-08-17 00:30:00","3678","1.094","59.92","2.254","62.69","NAN","NAN","NAN","NAN","NAN"],
    [1566926,"2026-08-17 00:40:00","3679","0.748","54.19","1.96","57.02","NAN","NAN","NAN","NAN","NAN"],
    [1566927,"2026-08-17 00:50:00","3680","0.601","48.76","1.568","43.16","NAN","NAN","NAN","NAN","NAN"],
    [1566928,"2026-08-17 01:00:00","3681","0.205","59.26","0.98","55.3","NAN","NAN","NAN","NAN","NAN"],
    [1566929,"2026-08-17 01:10:00","3682","0.551","51.18","1.372","46.05","NAN","NAN","NAN","NAN","NAN"],
    [1566930,"2026-08-17 01:20:00","3683","1.228","45.79","1.96","42.2","NAN","NAN","NAN","NAN","NAN"],
    [1566931,"2026-08-17 01:30:00","3684","0.63","57.87","1.568","60.87","NAN","NAN","NAN","NAN","NAN"],
    [1566932,"2026-08-17 01:40:00","3685","0.467","60.72","1.274","60.77","NAN","NAN","NAN","NAN","NAN"],
    [1566933,"2026-08-17 01:50:00","3686","0.092","45.1","0.49","56.47","NAN","NAN","NAN","NAN","NAN"],
    [1566934,"2026-08-17 02:00:00","3687","0.361","41.02","0.588","40.86","NAN","NAN","NAN","NAN","NAN"],
    [1566935,"2026-08-17 02:10:00","3688","0.42100000000000004","40.5","0.588","40.76","NAN","NAN","NAN","NAN","NAN"],
    [1566936,"2026-08-17 02:20:00","3689","0.623","39.37","1.078","39.7","NAN","NAN","NAN","NAN","NAN"],
    [1566937,"2026-08-17 02:30:00","3690","0.6679999999999999","34.17","0.882","37.1","NAN","NAN","NAN","NAN","NAN"],
    [1566938,"2026-08-17 02:40:00","3691","0.377","29.43","0.784","31.52","NAN","NAN","NAN","NAN","NAN"],
    [1566939,"2026-08-17 02:50:00","3692","0.191","3.133","0.882","0.626","NAN","NAN","NAN","NAN","NAN"],
    [1566940,"2026-08-17 03:00:00","3693","0.506","340.7","1.078","333.3","NAN","NAN","NAN","NAN","NAN"],
    [1566941,"2026-08-17 03:10:00","3694","1.321","311.3","2.548","299.4","NAN","NAN","NAN","NAN","NAN"],
    [1566942,"2026-08-17 03:20:00","3695","1.8869999999999998","292.9","2.842","293.2","NAN","NAN","NAN","NAN","NAN"],
    [1566943,"2026-08-17 03:30:00","3696","1.7630000000000001","290.0","3.038","289.9","NAN","NAN","NAN","NAN","NAN"],
    [1566944,"2026-08-17 03:40:00","3697","1.801","283.4","2.45","284.4","NAN","NAN","NAN","NAN","NAN"],
    [1566945,"2026-08-17 03:50:00","3698","1.831","288.9","2.646","294.5","NAN","NAN","NAN","NAN","NAN"],
    [1566946,"2026-08-17 04:00:00","3699","1.902","281.2","2.646","277.9","NAN","NAN","NAN","NAN","NAN"],
    [1566947,"2026-08-17 04:10:00","3700","1.791","279.3","2.842","276.7","NAN","NAN","NAN","NAN","NAN"],
    [1566948,"2026-08-17 04:20:00","3701","1.706","277.3","3.038","270.2","NAN","NAN","NAN","NAN","NAN"],
    [1566949,"2026-08-17 04:30:00","3702","1.6119999999999999","278.9","2.646","282.1","NAN","NAN","NAN","NAN","NAN"],
    [1566950,"2026-08-17 04:40:00","3703","1.538","283.1","2.548","284.5","NAN","NAN","NAN","NAN","NAN"],
    [1566951,"2026-08-17 04:50:00","3704","1.365","283.3","2.058","290.8","NAN","NAN","NAN","NAN","NAN"],
    [1566952,"2026-08-17 05:00:00","3705","1.314","274.8","2.058","271.9","NAN","NAN","NAN","NAN","NAN"],
    [1566953,"2026-08-17 05:10:00","3706","1.242","285.0","2.058","283.9","NAN","NAN","NAN","NAN","NAN"],
    [1566954,"2026-08-17 05:20:00","3707","1.3880000000000001","282.3","2.058","282","NAN","NAN","NAN","NAN","NAN"],
    [1566955,"2026-08-17 05:30:00","3708","1.389","277.4","2.254","287.9","NAN","NAN","NAN","NAN","NAN"],
    [1566956,"2026-08-17 05:40:00","3709","1.633","275.5","2.548","273.9","NAN","NAN","NAN","NAN","NAN"],
    [1566957,"2026-08-17 05:50:00","3710","1.9","282.6","3.038","289.3","NAN","NAN","NAN","NAN","NAN"],
    [1566958,"2026-08-17 06:00:00","3711","2.0980000000000003","287.5","3.626","287.5","NAN","NAN","NAN","NAN","NAN"],
    [1566959,"2026-08-17 06:10:00","3712","1.8630000000000002","283.7","3.038","292.8","NAN","NAN","NAN","NAN","NAN"],
    [1566960,"2026-08-17 06:20:00","3713","1.5759999999999998","282.2","2.842","277.5","NAN","NAN","NAN","NAN","NAN"],
    [1566961,"2026-08-17 06:30:00","3714","1.8159999999999998","281.0","2.744","272.7","NAN","NAN","NAN","NAN","NAN"],
    [1566962,"2026-08-17 06:40:00","3715","1.7530000000000001","280.4","2.646","281.6","NAN","NAN","NAN","NAN","NAN"],
    [1566963,"2026-08-17 06:50:00","3716","1.571","284.0","2.646","281.6","NAN","NAN","NAN","NAN","NAN"],
    [1566964,"2026-08-17 07:00:00","3717","1.8019999999999998","276.1","2.744","265","NAN","NAN","NAN","NAN","NAN"],
    [1566965,"2026-08-17 07:10:00","3718","1.143","297.6","1.862","314.3","NAN","NAN","NAN","NAN","NAN"],
    [1566966,"2026-08-17 07:20:00","3719","1.776","305.3","2.744","304","NAN","NAN","NAN","NAN","NAN"],
    [1566967,"2026-08-17 07:30:00","3720","1.258","293.2","2.254","266.3","NAN","NAN","NAN","NAN","NAN"],
    [1566968,"2026-08-17 07:40:00","3721","1.2990000000000002","280.8","2.744","283.3","NAN","NAN","NAN","NAN","NAN"],
    [1566969,"2026-08-17 07:50:00","3722","1.038","281.0","2.058","276.3","NAN","NAN","NAN","NAN","NAN"],
    [1566970,"2026-08-17 08:00:00","3723","0.643","311.9","2.254","311.4","NAN","NAN","NAN","NAN","NAN"],
    [1566971,"2026-08-17 08:10:00","3724","0.818","299.9","2.254","293.3","NAN","NAN","NAN","NAN","NAN"],
    [1566972,"2026-08-17 08:20:00","3725","1.305","284.6","2.352","294.5","NAN","NAN","NAN","NAN","NAN"],
    [1566973,"2026-08-17 08:30:00","3726","1.185","170.9","3.724","128.7","NAN","NAN","NAN","NAN","NAN"],
    [1566974,"2026-08-17 08:40:00","3727","2.946","112.0","4.116","116.7","NAN","NAN","NAN","NAN","NAN"],
    [1566975,"2026-08-17 08:50:00","3728","2.832","118.9","4.508","99.3","NAN","NAN","NAN","NAN","NAN"],
    [1566976,"2026-08-17 09:00:00","3729","3.1","125.5","5.096","136.7","NAN","NAN","NAN","NAN","NAN"],
    [1566977,"2026-08-17 09:10:00","3730","3.306","127.8","4.508","132.9","NAN","NAN","NAN","NAN","NAN"],
    [1566978,"2026-08-17 09:20:00","3731","2.9130000000000003","118.4","4.606","105.4","NAN","NAN","NAN","NAN","NAN"],
    [1566979,"2026-08-17 09:30:00","3732","3.06","133.8","4.508","139.4","NAN","NAN","NAN","NAN","NAN"],
    [1566980,"2026-08-17 09:40:00","3733","3.242","132.8","4.998","131.2","NAN","NAN","NAN","NAN","NAN"],
    [1566981,"2026-08-17 09:50:00","3734","3.06","130.0","4.41","133.6","NAN","NAN","NAN","NAN","NAN"],
    [1566982,"2026-08-17 10:00:00","3735","3.429","127.9","5.684","127.1","NAN","NAN","NAN","NAN","NAN"],
    [1566983,"2026-08-17 10:10:00","3736","3.813","136.0","4.998","138.7","NAN","NAN","NAN","NAN","NAN"],
    [1566984,"2026-08-17 10:20:00","3737","3.627","131.7","5.096","163.5","NAN","NAN","NAN","NAN","NAN"],
    [1566985,"2026-08-17 10:30:00","3738","3.888","160.2","5.586","173.2","NAN","NAN","NAN","NAN","NAN"],
    [1566986,"2026-08-17 10:40:00","3739","4.248","161.1","5.978","160.7","NAN","NAN","NAN","NAN","NAN"],
    [1566987,"2026-08-17 10:50:00","3740","4.652","160.8","6.37","152","NAN","NAN","NAN","NAN","NAN"],
    [1566988,"2026-08-17 11:00:00","3741","3.9360000000000004","150.7","6.272","175.5","NAN","NAN","NAN","NAN","NAN"],
    [1566989,"2026-08-17 11:10:00","3742","4.125","151.8","6.076","135.5","NAN","NAN","NAN","NAN","NAN"],
    [1566990,"2026-08-17 11:20:00","3743","4.732","156.7","6.566","169.4","NAN","NAN","NAN","NAN","NAN"],
    [1566991,"2026-08-17 11:30:00","3744","4.268","155.9","5.978","144.2","NAN","NAN","NAN","NAN","NAN"],
    [1566992,"2026-08-17 11:40:00","3745","4.05","167.0","6.664","163.5","NAN","NAN","NAN","NAN","NAN"],
    [1566993,"2026-08-17 11:50:00","3746","3.722","195.1","6.174","216.1","NAN","NAN","NAN","NAN","NAN"],
    [1566994,"2026-08-17 12:00:00","3747","3.378","196.3","6.566","190.4","NAN","NAN","NAN","NAN","NAN"],
    [1566995,"2026-08-17 12:10:00","3748","3.992","194.0","6.86","184.4","NAN","NAN","NAN","NAN","NAN"],
    [1566996,"2026-08-17 12:20:00","3749","3.452","211.0","6.958","176.7","NAN","NAN","NAN","NAN","NAN"],
    [1566997,"2026-08-17 12:30:00","3750","4.071000000000001","186.5","7.154","164","NAN","NAN","NAN","NAN","NAN"],
    [1566998,"2026-08-17 12:40:00","3751","3.532","191.3","6.762","179.2","NAN","NAN","NAN","NAN","NAN"],
    [1566999,"2026-08-17 12:50:00","3752","3.6510000000000002","191.1","6.076","209.5","NAN","NAN","NAN","NAN","NAN"],
    [1567000,"2026-08-17 13:00:00","3753","3.532","183.0","5.978","166.4","NAN","NAN","NAN","NAN","NAN"],
    [1567001,"2026-08-17 13:10:00","3754","3.39","189.5","5.684","216.2","NAN","NAN","NAN","NAN","NAN"],
    [1567002,"2026-08-17 13:20:00","3755","3.2910000000000004","187.1","6.468","220.4","NAN","NAN","NAN","NAN","NAN"],
    [1567003,"2026-08-17 13:30:00","3756","3.612","196.7","6.664","161.7","NAN","NAN","NAN","NAN","NAN"],
    [1567004,"2026-08-17 13:40:00","3757","3.45","208.9","5.586","204.2","NAN","NAN","NAN","NAN","NAN"],
    [1567005,"2026-08-17 13:50:00","3758","3.4930000000000003","210.4","5.39","216.5","NAN","NAN","NAN","NAN","NAN"],
    [1567006,"2026-08-17 14:00:00","3759","2.825","217.0","4.9","219.8","NAN","NAN","NAN","NAN","NAN"],
    [1567007,"2026-08-17 14:10:00","3760","3.6260000000000003","206.8","6.076","210.3","NAN","NAN","NAN","NAN","NAN"],
    [1567008,"2026-08-17 14:20:00","3761","3.2460000000000004","217.9","5.88","218.7","NAN","NAN","NAN","NAN","NAN"],
    [1567009,"2026-08-17 14:30:00","3762","3.178","210.0","5.586","224.6","NAN","NAN","NAN","NAN","NAN"],
    [1567010,"2026-08-17 14:40:00","3763","3.1839999999999997","202.9","5.292","248","NAN","NAN","NAN","NAN","NAN"],
    [1567011,"2026-08-17 14:50:00","3764","3.529","208.5","6.076","218.6","NAN","NAN","NAN","NAN","NAN"],
    [1567012,"2026-08-17 15:00:00","3765","3.805","207.7","5.782","196.9","NAN","NAN","NAN","NAN","NAN"],
    [1567013,"2026-08-17 15:10:00","3766","3.8560000000000003","221.0","6.076","230.7","NAN","NAN","NAN","NAN","NAN"],
    [1567014,"2026-08-17 15:20:00","3767","4.021","208.8","6.762","205.3","NAN","NAN","NAN","NAN","NAN"],
    [1567015,"2026-08-17 15:30:00","3768","3.2880000000000003","210.0","5.88","235.9","NAN","NAN","NAN","NAN","NAN"],
    [1567016,"2026-08-17 15:40:00","3769","3.312","195.1","7.35","231.6","NAN","NAN","NAN","NAN","NAN"],
    [1567017,"2026-08-17 15:50:00","3770","3.804","217.3","5.978","223.1","NAN","NAN","NAN","NAN","NAN"],
    [1567018,"2026-08-17 16:00:00","3771","3.623","210.1","6.958","205.2","NAN","NAN","NAN","NAN","NAN"],
    [1567019,"2026-08-17 16:10:00","3772","3.551","218.4","5.194","232.9","NAN","NAN","NAN","NAN","NAN"],
    [1567020,"2026-08-17 16:20:00","3773","3.242","217.7","4.9","211.5","NAN","NAN","NAN","NAN","NAN"],
    [1567021,"2026-08-17 16:30:00","3774","2.679","215.1","4.508","245.7","NAN","NAN","NAN","NAN","NAN"],
    [1567022,"2026-08-17 16:40:00","3775","2.075","209.4","4.606","207.7","NAN","NAN","NAN","NAN","NAN"],
    [1567023,"2026-08-17 16:50:00","3776","2.024","213.7","3.822","189.4","NAN","NAN","NAN","NAN","NAN"],
    [1567024,"2026-08-17 17:00:00","3777","1.733","227.2","3.038","205.8","NAN","NAN","NAN","NAN","NAN"],
    [1567025,"2026-08-17 17:10:00","3778","1.96","206.7","3.038","216.5","NAN","NAN","NAN","NAN","NAN"],
    [1567026,"2026-08-17 17:20:00","3779","1.577","195.2","2.744","218.6","NAN","NAN","NAN","NAN","NAN"],
    [1567027,"2026-08-17 17:30:00","3780","1.715","197.7","2.842","206.6","NAN","NAN","NAN","NAN","NAN"],
    [1567028,"2026-08-17 17:40:00","3781","1.8940000000000001","184.0","2.94","163.7","NAN","NAN","NAN","NAN","NAN"],
    [1567029,"2026-08-17 17:50:00","3782","1.751","199.7","2.94","218.2","NAN","NAN","NAN","NAN","NAN"],
    [1567030,"2026-08-17 18:00:00","3783","2.301","175.7","3.332","179.9","NAN","NAN","NAN","NAN","NAN"],
    [1567031,"2026-08-17 18:10:00","3784","1.64","176.1","2.744","166.1","NAN","NAN","NAN","NAN","NAN"],
    [1567032,"2026-08-17 18:20:00","3785","1.253","177.0","2.352","164.4","NAN","NAN","NAN","NAN","NAN"],
    [1567033,"2026-08-17 18:30:00","3786","1.117","188.5","2.352","194.2","NAN","NAN","NAN","NAN","NAN"],
    [1567034,"2026-08-17 18:40:00","3787","1.218","180.9","2.548","176.2","NAN","NAN","NAN","NAN","NAN"],
    [1567035,"2026-08-17 18:50:00","3788","1.1079999999999999","184.9","2.352","175.2","NAN","NAN","NAN","NAN","NAN"],
    [1567036,"2026-08-17 19:00:00","3789","1.165","184.6","2.254","175.7","NAN","NAN","NAN","NAN","NAN"],
    [1567037,"2026-08-17 19:10:00","3790","0.802","188.6","1.568","193.9","NAN","NAN","NAN","NAN","NAN"],
    [1567038,"2026-08-17 19:20:00","3791","0.6459999999999999","180.2","1.274","182.8","NAN","NAN","NAN","NAN","NAN"],
    [1567039,"2026-08-17 19:30:00","3792","0.943","186.1","1.666","192.4","NAN","NAN","NAN","NAN","NAN"],
    [1567040,"2026-08-17 19:40:00","3793","0.753","179.3","1.568","177.8","NAN","NAN","NAN","NAN","NAN"],
    [1567041,"2026-08-17 19:50:00","3794","0.395","180.5","1.176","175.8","NAN","NAN","NAN","NAN","NAN"],
    [1567042,"2026-08-17 20:00:00","3795","0.67","174.0","1.176","172.8","NAN","NAN","NAN","NAN","NAN"],
    [1567043,"2026-08-17 20:10:00","3796","0.233","179.1","0.882","180.9","NAN","NAN","NAN","NAN","NAN"],
    [1567044,"2026-08-17 20:20:00","3797","0.6659999999999999","170.1","1.47","170.1","NAN","NAN","NAN","NAN","NAN"],
    [1567045,"2026-08-17 20:30:00","3798","0.731","171.2","1.568","170.1","NAN","NAN","NAN","NAN","NAN"],
    [1567046,"2026-08-17 20:40:00","3799","0.653","170.8","1.47","170.2","NAN","NAN","NAN","NAN","NAN"],
    [1567047,"2026-08-17 20:50:00","3800","0.731","169.9","1.274","169.9","NAN","NAN","NAN","NAN","NAN"],
    [1567048,"2026-08-17 21:00:00","3801","0.96","169.8","1.47","169.8","NAN","NAN","NAN","NAN","NAN"],
    [1567049,"2026-08-17 21:10:00","3802","0.528","169.9","1.078","169.8","NAN","NAN","NAN","NAN","NAN"],
    [1567050,"2026-08-17 21:20:00","3803","0.282","169.5","0.882","169.5","NAN","NAN","NAN","NAN","NAN"],
    [1567051,"2026-08-17 21:30:00","3804","0.755","169.4","1.372","169.4","NAN","NAN","NAN","NAN","NAN"],
    [1567052,"2026-08-17 21:40:00","3805","0.447","169.2","1.078","169.2","NAN","NAN","NAN","NAN","NAN"],
    [1567053,"2026-08-17 21:50:00","3806","0.161","169.3","0.98","169.3","NAN","NAN","NAN","NAN","NAN"],
    [1567054,"2026-08-17 22:00:00","3807","0.008","169.2","0.196","169.3","NAN","NAN","NAN","NAN","NAN"],
    [1567055,"2026-08-17 22:10:00","3808","0.002","169.2","0.098","169.2","NAN","NAN","NAN","NAN","NAN"],
    [1567056,"2026-08-17 22:20:00","3809","0.0","0.0","0","169","NAN","NAN","NAN","NAN","NAN"],
    [1567057,"2026-08-17 22:30:00","3810","0.0","0.0","0","169","NAN","NAN","NAN","NAN","NAN"],
    [1567058,"2026-08-17 22:40:00","3811","0.008","169.0","0.196","169","NAN","NAN","NAN","NAN","NAN"],
    [1567059,"2026-08-17 22:50:00","3812","0.0","0.0","0","169","NAN","NAN","NAN","NAN","NAN"],
    [1567060,"2026-08-17 23:00:00","3813","0.54","170.1","0.98","171","NAN","NAN","NAN","NAN","NAN"],
    [1567061,"2026-08-17 23:10:00","3814","0.373","171.6","0.882","171.9","NAN","NAN","NAN","NAN","NAN"],
    [1567062,"2026-08-17 23:20:00","3815","0.56","173.1","1.078","178.2","NAN","NAN","NAN","NAN","NAN"],
    [1567063,"2026-08-17 23:30:00","3816","0.38","181.5","1.078","179.8","NAN","NAN","NAN","NAN","NAN"],
    [1567064,"2026-08-17 23:40:00","3817","0.09","195.0","0.49","194.3","NAN","NAN","NAN","NAN","NAN"],
    [1567065,"2026-08-17 23:50:00","3818","0.038","195.7","0.392","195.7","NAN","NAN","NAN","NAN","NAN"],
    [1567066,"2026-08-18 00:00:00","3819","0.111","196.0","0.588","195.9","NAN","NAN","NAN","NAN","NAN"],
    [1567067,"2026-08-18 00:10:00","3820","0.0","0.0","0","196","NAN","NAN","NAN","NAN","NAN"],
    [1567068,"2026-08-18 00:20:00","3821","0.0","0.0","0","196","NAN","NAN","NAN","NAN","NAN"],
    [1567069,"2026-08-18 00:30:00","3822","0.0","0.0","0","196","NAN","NAN","NAN","NAN","NAN"],
    [1567070,"2026-08-18 00:40:00","3823","0.025","196.2","0.294","196.2","NAN","NAN","NAN","NAN","NAN"],
    [1567071,"2026-08-18 00:50:00","3824","0.057","196.7","0.49","196.5","NAN","NAN","NAN","NAN","NAN"],
    [1567072,"2026-08-18 01:00:00","3825","0.005","196.9","0.294","196.9","NAN","NAN","NAN","NAN","NAN"],
    [1567073,"2026-08-18 01:10:00","3826","0.0","0.0","0","197","NAN","NAN","NAN","NAN","NAN"],
    [1567074,"2026-08-18 01:20:00","3827","0.0","0.0","0","197","NAN","NAN","NAN","NAN","NAN"],
    [1567075,"2026-08-18 01:30:00","3828","0.026000000000000002","197.3","0.588","197.3","NAN","NAN","NAN","NAN","NAN"],
    [1567076,"2026-08-18 01:40:00","3829","0.01","197.4","0.196","197.4","NAN","NAN","NAN","NAN","NAN"],
    [1567077,"2026-08-18 01:50:00","3830","0.003","197.5","0.196","197.5","NAN","NAN","NAN","NAN","NAN"],
    [1567078,"2026-08-18 02:00:00","3831","0.006999999999999999","197.4","0.196","197.4","NAN","NAN","NAN","NAN","NAN"],
    [1567079,"2026-08-18 02:10:00","3832","0.0","0.0","0","197.4","NAN","NAN","NAN","NAN","NAN"],
    [1567080,"2026-08-18 02:20:00","3833","0.003","198.0","0.196","198","NAN","NAN","NAN","NAN","NAN"],
    [1567081,"2026-08-18 02:30:00","3834","0.055","202.8","0.49","204.1","NAN","NAN","NAN","NAN","NAN"],
    [1567082,"2026-08-18 02:40:00","3835","0.332","210.0","0.882","219.8","NAN","NAN","NAN","NAN","NAN"],
    [1567083,"2026-08-18 02:50:00","3836","0.616","222.9","1.078","224.1","NAN","NAN","NAN","NAN","NAN"],
    [1567084,"2026-08-18 03:00:00","3837","0.588","228.0","0.98","226.7","NAN","NAN","NAN","NAN","NAN"],
    [1567085,"2026-08-18 03:10:00","3838","0.6459999999999999","230.8","1.176","230.3","NAN","NAN","NAN","NAN","NAN"],
    [1567086,"2026-08-18 03:20:00","3839","0.61","231.2","1.176","231.2","NAN","NAN","NAN","NAN","NAN"],
    [1567087,"2026-08-18 03:30:00","3840","0.33399999999999996","231.4","0.98","231.3","NAN","NAN","NAN","NAN","NAN"],
    [1567088,"2026-08-18 03:40:00","3841","0.096","231.3","0.49","231.3","NAN","NAN","NAN","NAN","NAN"],
    [1567089,"2026-08-18 03:50:00","3842","0.0","0.0","0","231.2","NAN","NAN","NAN","NAN","NAN"],
    [1567090,"2026-08-18 04:00:00","3843","0.026000000000000002","231.2","0.294","231.2","NAN","NAN","NAN","NAN","NAN"],
    [1567091,"2026-08-18 04:10:00","3844","0.008","231.4","0.294","231.4","NAN","NAN","NAN","NAN","NAN"],
    [1567092,"2026-08-18 04:20:00","3845","0.067","231.3","0.49","231.3","NAN","NAN","NAN","NAN","NAN"],
    [1567093,"2026-08-18 04:30:00","3846","0.026000000000000002","231.3","0.392","231.3","NAN","NAN","NAN","NAN","NAN"],
    [1567094,"2026-08-18 04:40:00","3847","0.19","231.4","0.588","231.4","NAN","NAN","NAN","NAN","NAN"],
    [1567095,"2026-08-18 04:50:00","3848","0.231","231.6","0.784","231.6","NAN","NAN","NAN","NAN","NAN"],
    [1567096,"2026-08-18 05:00:00","3849","0.897","235.7","1.372","232.7","NAN","NAN","NAN","NAN","NAN"],
    [1567097,"2026-08-18 05:10:00","3850","1.038","241.4","1.764","244","NAN","NAN","NAN","NAN","NAN"],
    [1567098,"2026-08-18 05:20:00","3851","1.2429999999999999","246.8","1.764","244","NAN","NAN","NAN","NAN","NAN"],
    [1567099,"2026-08-18 05:30:00","3852","0.96","248.4","1.372","248.2","NAN","NAN","NAN","NAN","NAN"],
    [1567100,"2026-08-18 05:40:00","3853","0.7559999999999999","248.9","1.568","248.6","NAN","NAN","NAN","NAN","NAN"],
    [1567101,"2026-08-18 05:50:00","3854","1.158","249.7","1.666","249.7","NAN","NAN","NAN","NAN","NAN"],
    [1567102,"2026-08-18 06:00:00","3855","1.035","251.3","1.862","251.4","NAN","NAN","NAN","NAN","NAN"],
    [1567103,"2026-08-18 06:10:00","3856","1.247","253.8","2.058","255.8","NAN","NAN","NAN","NAN","NAN"],
    [1567104,"2026-08-18 06:20:00","3857","1.321","259.2","2.156","261.1","NAN","NAN","NAN","NAN","NAN"],
    [1567105,"2026-08-18 06:30:00","3858","1.2409999999999999","261.5","1.666","261.5","NAN","NAN","NAN","NAN","NAN"],
    [1567106,"2026-08-18 06:40:00","3859","0.9620000000000001","261.9","1.568","261.8","NAN","NAN","NAN","NAN","NAN"],
    [1567107,"2026-08-18 06:50:00","3860","0.46799999999999997","261.7","0.882","262.2","NAN","NAN","NAN","NAN","NAN"],
    [1567108,"2026-08-18 07:00:00","3861","0.32","262.5","1.372","262.5","NAN","NAN","NAN","NAN","NAN"],
    [1567109,"2026-08-18 07:10:00","3862","0.266","262.0","0.98","262.6","NAN","NAN","NAN","NAN","NAN"],
    [1567110,"2026-08-18 07:20:00","3863","0.305","246.9","1.96","116.9","NAN","NAN","NAN","NAN","NAN"],
    [1567111,"2026-08-18 07:30:00","3864","1.402","106.5","2.352","113.5","NAN","NAN","NAN","NAN","NAN"],
    [1567112,"2026-08-18 07:40:00","3865","1.239","121.2","2.744","154.8","NAN","NAN","NAN","NAN","NAN"],
    [1567113,"2026-08-18 07:50:00","3866","1.3430000000000002","142.3","2.45","160.8","NAN","NAN","NAN","NAN","NAN"],
    [1567114,"2026-08-18 08:00:00","3867","1.385","130.0","2.156","123.4","NAN","NAN","NAN","NAN","NAN"],
    [1567115,"2026-08-18 08:10:00","3868","1.11","127.3","2.058","144.2","NAN","NAN","NAN","NAN","NAN"],
    [1567116,"2026-08-18 08:20:00","3869","0.7509999999999999","106.1","1.96","73.58","NAN","NAN","NAN","NAN","NAN"],
    [1567117,"2026-08-18 08:30:00","3870","1.719","95.2","4.998","126.8","NAN","NAN","NAN","NAN","NAN"],
    [1567118,"2026-08-18 08:40:00","3871","3.467","141.5","4.802","144.6","NAN","NAN","NAN","NAN","NAN"],
    [1567119,"2026-08-18 08:50:00","3872","3.7460000000000004","150.5","5.488","162","NAN","NAN","NAN","NAN","NAN"],
    [1567120,"2026-08-18 09:00:00","3873","4.087","153.1","5.194","154","NAN","NAN","NAN","NAN","NAN"],
    [1567121,"2026-08-18 09:10:00","3874","4.519","151.8","6.664","150.8","NAN","NAN","NAN","NAN","NAN"],
    [1567122,"2026-08-18 09:20:00","3875","4.433","152.1","7.056","138","NAN","NAN","NAN","NAN","NAN"],
    [1567123,"2026-08-18 09:30:00","3876","3.9589999999999996","155.5","5.88","150.8","NAN","NAN","NAN","NAN","NAN"],
    [1567124,"2026-08-18 09:40:00","3877","3.928","153.5","6.958","131","NAN","NAN","NAN","NAN","NAN"],
    [1567125,"2026-08-18 09:50:00","3878","4.2989999999999995","150.9","6.37","167","NAN","NAN","NAN","NAN","NAN"],
    [1567126,"2026-08-18 10:00:00","3879","3.6910000000000003","163.9","6.86","153.4","NAN","NAN","NAN","NAN","NAN"],
    [1567127,"2026-08-18 10:10:00","3880","3.6519999999999997","186.7","6.272","172.7","NAN","NAN","NAN","NAN","NAN"],
    [1567128,"2026-08-18 10:20:00","3881","3.844","194.2","6.566","189.5","NAN","NAN","NAN","NAN","NAN"],
    [1567129,"2026-08-18 10:30:00","3882","3.341","199.5","6.86","153.5","NAN","NAN","NAN","NAN","NAN"],
    [1567130,"2026-08-18 10:40:00","3883","4.176","188.6","5.978","213.7","NAN","NAN","NAN","NAN","NAN"],
    [1567131,"2026-08-18 10:50:00","3884","4.802","196.0","7.448","173.6","NAN","NAN","NAN","NAN","NAN"],
    [1567132,"2026-08-18 11:00:00","3885","4.415","203.6","7.35","196.9","NAN","NAN","NAN","NAN","NAN"],
    [1567133,"2026-08-18 11:10:00","3886","4.015","199.8","7.35","200.4","NAN","NAN","NAN","NAN","NAN"],
    [1567134,"2026-08-18 11:20:00","3887","4.111000000000001","192.8","7.056","209.3","NAN","NAN","NAN","NAN","NAN"],
    [1567135,"2026-08-18 11:30:00","3888","4.072","187.4","6.762","184.1","NAN","NAN","NAN","NAN","NAN"],
    [1567136,"2026-08-18 11:40:00","3889","4.141","205.2","7.644","205.3","NAN","NAN","NAN","NAN","NAN"],
    [1567137,"2026-08-18 11:50:00","3890","4.499","202.1","6.664","214.2","NAN","NAN","NAN","NAN","NAN"],
    [1567138,"2026-08-18 12:00:00","3891","3.9989999999999997","191.0","6.762","184.9","NAN","NAN","NAN","NAN","NAN"],
    [1567139,"2026-08-18 12:10:00","3892","4.658","183.7","7.35","170.5","NAN","NAN","NAN","NAN","NAN"],
    [1567140,"2026-08-18 12:20:00","3893","4.325","191.0","8.72","220.7","NAN","NAN","NAN","NAN","NAN"],
    [1567141,"2026-08-18 12:30:00","3894","4.552","188.5","8.23","166.2","NAN","NAN","NAN","NAN","NAN"],
    [1567142,"2026-08-18 12:40:00","3895","3.755","194.4","6.664","207.3","NAN","NAN","NAN","NAN","NAN"],
    [1567143,"2026-08-18 12:50:00","3896","4.761","180.2","7.448","163.2","NAN","NAN","NAN","NAN","NAN"],
    [1567144,"2026-08-18 13:00:00","3897","5.569","167.8","8.23","161.8","NAN","NAN","NAN","NAN","NAN"],
    [1567145,"2026-08-18 13:10:00","3898","4.217","190.4","8.43","149.3","NAN","NAN","NAN","NAN","NAN"],
    [1567146,"2026-08-18 13:20:00","3899","4.508","179.5","6.958","146.8","NAN","NAN","NAN","NAN","NAN"],
    [1567147,"2026-08-18 13:30:00","3900","4.867","187.6","7.644","198.5","NAN","NAN","NAN","NAN","NAN"],
    [1567148,"2026-08-18 13:40:00","3901","4.902","192.1","8.43","205.1","NAN","NAN","NAN","NAN","NAN"],
    [1567149,"2026-08-18 13:50:00","3902","4.144","183.1","7.448","182.7","NAN","NAN","NAN","NAN","NAN"],
    [1567150,"2026-08-18 14:00:00","3903","4.965","195.6","9.31","169.3","NAN","NAN","NAN","NAN","NAN"],
    [1567151,"2026-08-18 14:10:00","3904","4.656000000000001","193.9","8.33","199.2","NAN","NAN","NAN","NAN","NAN"],
    [1567152,"2026-08-18 14:20:00","3905","4.133","202.6","8.13","227","NAN","NAN","NAN","NAN","NAN"],
    [1567153,"2026-08-18 14:30:00","3906","4.835","199.7","8.43","193.4","NAN","NAN","NAN","NAN","NAN"],
    [1567154,"2026-08-18 14:40:00","3907","5.1579999999999995","204.9","8.13","215.4","NAN","NAN","NAN","NAN","NAN"],
    [1567155,"2026-08-18 14:50:00","3908","5.728","213.2","8.82","229.1","NAN","NAN","NAN","NAN","NAN"],
    [1567156,"2026-08-18 15:00:00","3909","4.906000000000001","202.4","9.31","218.5","NAN","NAN","NAN","NAN","NAN"],
    [1567157,"2026-08-18 15:10:00","3910","4.675","212.1","7.742","220.4","NAN","NAN","NAN","NAN","NAN"],
    [1567158,"2026-08-18 15:20:00","3911","4.547","202.2","9.11","211.1","NAN","NAN","NAN","NAN","NAN"],
    [1567159,"2026-08-18 15:30:00","3912","4.437","206.6","7.84","210.4","NAN","NAN","NAN","NAN","NAN"],
    [1567160,"2026-08-18 15:40:00","3913","5.056","213.8","9.51","219.3","NAN","NAN","NAN","NAN","NAN"],
    [1567161,"2026-08-18 15:50:00","3914","5.27","211.2","8.62","203.3","NAN","NAN","NAN","NAN","NAN"],
    [1567162,"2026-08-18 16:00:00","3915","4.8180000000000005","210.0","7.742","221.4","NAN","NAN","NAN","NAN","NAN"],
    [1567163,"2026-08-18 16:10:00","3916","4.345","206.2","7.056","183.5","NAN","NAN","NAN","NAN","NAN"],
    [1567164,"2026-08-18 16:20:00","3917","4.504","209.5","8.04","217.3","NAN","NAN","NAN","NAN","NAN"],
    [1567165,"2026-08-18 16:30:00","3918","3.88","198.6","6.86","206.8","NAN","NAN","NAN","NAN","NAN"],
    [1567166,"2026-08-18 16:40:00","3919","4.334","202.0","8.43","202.3","NAN","NAN","NAN","NAN","NAN"],
    [1567167,"2026-08-18 16:50:00","3920","3.7089999999999996","204.1","6.174","190.7","NAN","NAN","NAN","NAN","NAN"],
    [1567168,"2026-08-18 17:00:00","3921","3.645","195.0","6.664","190.3","NAN","NAN","NAN","NAN","NAN"],
    [1567169,"2026-08-18 17:10:00","3922","3.574","190.7","6.664","176.3","NAN","NAN","NAN","NAN","NAN"],
    [1567170,"2026-08-18 17:20:00","3923","3.5389999999999997","208.8","7.154","209.2","NAN","NAN","NAN","NAN","NAN"],
    [1567171,"2026-08-18 17:30:00","3924","3.125","187.8","4.9","192.3","NAN","NAN","NAN","NAN","NAN"],
    [1567172,"2026-08-18 17:40:00","3925","2.986","188.6","5.782","190.3","NAN","NAN","NAN","NAN","NAN"],
    [1567173,"2026-08-18 17:50:00","3926","2.897","191.1","4.802","196.9","NAN","NAN","NAN","NAN","NAN"],
    [1567174,"2026-08-18 18:00:00","3927","3.1439999999999997","175.9","5.684","198.9","NAN","NAN","NAN","NAN","NAN"],
    [1567175,"2026-08-18 18:10:00","3928","3.197","177.9","5.586","154.7","NAN","NAN","NAN","NAN","NAN"],
    [1567176,"2026-08-18 18:20:00","3929","2.81","189.9","5.096","178.8","NAN","NAN","NAN","NAN","NAN"],
    [1567177,"2026-08-18 18:30:00","3930","2.635","208.9","4.9","216.8","NAN","NAN","NAN","NAN","NAN"],
    [1567178,"2026-08-18 18:40:00","3931","3.0039999999999996","208.9","4.998","201.1","NAN","NAN","NAN","NAN","NAN"],
    [1567179,"2026-08-18 18:50:00","3932","2.58","210.9","4.116","209.8","NAN","NAN","NAN","NAN","NAN"],
    [1567180,"2026-08-18 19:00:00","3933","1.893","208.3","3.528","197.9","NAN","NAN","NAN","NAN","NAN"],
    [1567181,"2026-08-18 19:10:00","3934","2.056","208.2","2.94","216.2","NAN","NAN","NAN","NAN","NAN"],
    [1567182,"2026-08-18 19:20:00","3935","1.8230000000000002","211.2","2.744","208.1","NAN","NAN","NAN","NAN","NAN"],
    [1567183,"2026-08-18 19:30:00","3936","1.47","225.6","2.744","236.9","NAN","NAN","NAN","NAN","NAN"],
    [1567184,"2026-08-18 19:40:00","3937","1.5419999999999998","236.6","2.842","238.2","NAN","NAN","NAN","NAN","NAN"],
    [1567185,"2026-08-18 19:50:00","3938","1.16","222.0","2.548","216.1","NAN","NAN","NAN","NAN","NAN"],
    [1567186,"2026-08-18 20:00:00","3939","1.705","231.5","3.136","215","NAN","NAN","NAN","NAN","NAN"],
    [1567187,"2026-08-18 20:10:00","3940","1.26","242.4","2.254","246.7","NAN","NAN","NAN","NAN","NAN"],
    [1567188,"2026-08-18 20:20:00","3941","1.327","222.6","2.842","220.7","NAN","NAN","NAN","NAN","NAN"],
    [1567189,"2026-08-18 20:30:00","3942","1.173","215.8","3.332","190.2","NAN","NAN","NAN","NAN","NAN"],
    [1567190,"2026-08-18 20:40:00","3943","1.5090000000000001","188.9","3.038","192","NAN","NAN","NAN","NAN","NAN"],
    [1567191,"2026-08-18 20:50:00","3944","2.119","161.9","3.626","155.4","NAN","NAN","NAN","NAN","NAN"],
    [1567192,"2026-08-18 21:00:00","3945","2.1790000000000003","170.7","3.626","159.4","NAN","NAN","NAN","NAN","NAN"],
    [1567193,"2026-08-18 21:10:00","3946","1.8519999999999999","183.0","3.332","191.6","NAN","NAN","NAN","NAN","NAN"],
    [1567194,"2026-08-18 21:20:00","3947","2.142","183.2","3.528","184.7","NAN","NAN","NAN","NAN","NAN"],
    [1567195,"2026-08-18 21:30:00","3948","1.726","187.5","3.528","174.7","NAN","NAN","NAN","NAN","NAN"],
    [1567196,"2026-08-18 21:40:00","3949","2.065","184.8","3.234","197.8","NAN","NAN","NAN","NAN","NAN"],
    [1567197,"2026-08-18 21:50:00","3950","1.9409999999999998","175.6","3.43","168.7","NAN","NAN","NAN","NAN","NAN"],
    [1567198,"2026-08-18 22:00:00","3951","0.9359999999999999","178.5","2.058","175.7","NAN","NAN","NAN","NAN","NAN"],
    [1567199,"2026-08-18 22:10:00","3952","1.015","187.4","1.666","182.8","NAN","NAN","NAN","NAN","NAN"],
    [1567200,"2026-08-18 22:20:00","3953","1.089","186.7","1.666","192.5","NAN","NAN","NAN","NAN","NAN"],
    [1567201,"2026-08-18 22:30:00","3954","1.699","194.4","2.842","196.6","NAN","NAN","NAN","NAN","NAN"],
    [1567202,"2026-08-18 22:40:00","3955","1.829","202.6","2.646","208.4","NAN","NAN","NAN","NAN","NAN"],
    [1567203,"2026-08-18 22:50:00","3956","2.479","207.0","3.234","211.7","NAN","NAN","NAN","NAN","NAN"],
    [1567204,"2026-08-18 23:00:00","3957","2.125","208.6","3.038","214.7","NAN","NAN","NAN","NAN","NAN"],
    [1567205,"2026-08-18 23:10:00","3958","2.1109999999999998","206.6","3.234","209.5","NAN","NAN","NAN","NAN","NAN"],
    [1567206,"2026-08-18 23:20:00","3959","1.8969999999999998","207.5","3.234","211.2","NAN","NAN","NAN","NAN","NAN"],
    [1567207,"2026-08-18 23:30:00","3960","2.072","209.8","3.136","204","NAN","NAN","NAN","NAN","NAN"],
    [1567208,"2026-08-18 23:40:00","3961","1.459","229.9","2.842","226.8","NAN","NAN","NAN","NAN","NAN"],
    [1567209,"2026-08-18 23:50:00","3962","1.271","227.9","2.548","224.8","NAN","NAN","NAN","NAN","NAN"],
    [1567210,"2026-08-19 00:00:00","3963","1.489","239.2","2.352","240.3","NAN","NAN","NAN","NAN","NAN"],
    [1567211,"2026-08-19 00:10:00","3964","1.073","241.3","2.156","240.9","NAN","NAN","NAN","NAN","NAN"],
    [1567212,"2026-08-19 00:20:00","3965","0.639","241.9","1.666","241.9","NAN","NAN","NAN","NAN","NAN"],
    [1567213,"2026-08-19 00:30:00","3966","0.177","241.9","0.686","241.9","NAN","NAN","NAN","NAN","NAN"],
    [1567214,"2026-08-19 00:40:00","3967","0.51","242.0","0.98","242.1","NAN","NAN","NAN","NAN","NAN"],
    [1567215,"2026-08-19 00:50:00","3968","0.545","242.1","0.98","242.1","NAN","NAN","NAN","NAN","NAN"],
    [1567216,"2026-08-19 01:00:00","3969","0.133","242.2","0.784","242.2","NAN","NAN","NAN","NAN","NAN"],
    [1567217,"2026-08-19 01:10:00","3970","0.109","242.3","0.49","242.3","NAN","NAN","NAN","NAN","NAN"],
    [1567218,"2026-08-19 01:20:00","3971","0.045","242.3","0.49","242.4","NAN","NAN","NAN","NAN","NAN"],
    [1567219,"2026-08-19 01:30:00","3972","0.32799999999999996","242.4","0.98","242.4","NAN","NAN","NAN","NAN","NAN"],
    [1567220,"2026-08-19 01:40:00","3973","0.342","242.5","0.882","242.4","NAN","NAN","NAN","NAN","NAN"],
    [1567221,"2026-08-19 01:50:00","3974","0.43","242.5","0.784","242.5","NAN","NAN","NAN","NAN","NAN"],
    [1567222,"2026-08-19 02:00:00","3975","0.512","242.6","0.98","242.6","NAN","NAN","NAN","NAN","NAN"],
    [1567223,"2026-08-19 02:10:00","3976","0.628","242.9","1.372","242.9","NAN","NAN","NAN","NAN","NAN"],
    [1567224,"2026-08-19 02:20:00","3977","0.449","243.1","0.882","243","NAN","NAN","NAN","NAN","NAN"],
    [1567225,"2026-08-19 02:30:00","3978","0.451","243.1","1.078","243.1","NAN","NAN","NAN","NAN","NAN"],
    [1567226,"2026-08-19 02:40:00","3979","0.39","243.1","1.078","243.1","NAN","NAN","NAN","NAN","NAN"],
    [1567227,"2026-08-19 02:50:00","3980","0.682","243.1","1.372","243.1","NAN","NAN","NAN","NAN","NAN"],
    [1567228,"2026-08-19 03:00:00","3981","0.511","243.3","1.568","243.3","NAN","NAN","NAN","NAN","NAN"],
    [1567229,"2026-08-19 03:10:00","3982","0.95","243.5","1.372","243.8","NAN","NAN","NAN","NAN","NAN"],
    [1567230,"2026-08-19 03:20:00","3983","0.8340000000000001","244.1","1.568","244.1","NAN","NAN","NAN","NAN","NAN"],
    [1567231,"2026-08-19 03:30:00","3984","0.735","244.5","1.568","244.3","NAN","NAN","NAN","NAN","NAN"],
    [1567232,"2026-08-19 03:40:00","3985","0.705","244.5","1.372","244.6","NAN","NAN","NAN","NAN","NAN"],
    [1567233,"2026-08-19 03:50:00","3986","1.077","244.7","1.764","244.9","NAN","NAN","NAN","NAN","NAN"],
    [1567234,"2026-08-19 04:00:00","3987","1.068","244.9","1.666","245","NAN","NAN","NAN","NAN","NAN"],
    [1567235,"2026-08-19 04:10:00","3988","0.723","245.0","1.666","245.1","NAN","NAN","NAN","NAN","NAN"],
    [1567236,"2026-08-19 04:20:00","3989","1.065","245.3","1.862","245.4","NAN","NAN","NAN","NAN","NAN"],
    [1567237,"2026-08-19 04:30:00","3990","0.532","245.7","1.372","245.6","NAN","NAN","NAN","NAN","NAN"],
    [1567238,"2026-08-19 04:40:00","3991","1.041","245.9","1.764","246","NAN","NAN","NAN","NAN","NAN"],
    [1567239,"2026-08-19 04:50:00","3992","1.183","246.4","1.862","246.2","NAN","NAN","NAN","NAN","NAN"],
    [1567240,"2026-08-19 05:00:00","3993","1.128","247.2","1.862","246.9","NAN","NAN","NAN","NAN","NAN"],
    [1567241,"2026-08-19 05:10:00","3994","0.975","247.6","1.568","247.6","NAN","NAN","NAN","NAN","NAN"],
    [1567242,"2026-08-19 05:20:00","3995","1.0090000000000001","248.1","1.568","249.1","NAN","NAN","NAN","NAN","NAN"],
    [1567243,"2026-08-19 05:30:00","3996","1.224","250.0","1.862","250.2","NAN","NAN","NAN","NAN","NAN"],
    [1567244,"2026-08-19 05:40:00","3997","1.328","251.2","2.45","251.5","NAN","NAN","NAN","NAN","NAN"],
    [1567245,"2026-08-19 05:50:00","3998","0.982","253.1","1.764","252.7","NAN","NAN","NAN","NAN","NAN"],
    [1567246,"2026-08-19 06:00:00","3999","1.032","254.9","1.666","254.9","NAN","NAN","NAN","NAN","NAN"],
    [1567247,"2026-08-19 06:10:00","4000","1.061","256.9","1.764","255.9","NAN","NAN","NAN","NAN","NAN"],
    [1567248,"2026-08-19 06:20:00","4001","1.105","259.7","1.764","258.7","NAN","NAN","NAN","NAN","NAN"],
    [1567249,"2026-08-19 06:30:00","4002","1.159","261.8","1.96","262.1","NAN","NAN","NAN","NAN","NAN"],
    [1567250,"2026-08-19 06:40:00","4003","1.22","267.1","1.96","270.8","NAN","NAN","NAN","NAN","NAN"],
    [1567251,"2026-08-19 06:50:00","4004","1.413","289.8","2.548","296.8","NAN","NAN","NAN","NAN","NAN"],
    [1567252,"2026-08-19 07:00:00","4005","1.9069999999999998","284.5","3.038","292.2","NAN","NAN","NAN","NAN","NAN"],
    [1567253,"2026-08-19 07:10:00","4006","1.818","288.5","3.136","284.9","NAN","NAN","NAN","NAN","NAN"],
    [1567254,"2026-08-19 07:20:00","4007","1.885","294.1","3.43","278","NAN","NAN","NAN","NAN","NAN"],
    [1567255,"2026-08-19 07:30:00","4008","1.163","284.5","2.744","297.1","NAN","NAN","NAN","NAN","NAN"],
    [1567256,"2026-08-19 07:40:00","4009","1.9969999999999999","276.4","3.724","277.6","NAN","NAN","NAN","NAN","NAN"],
    [1567257,"2026-08-19 07:50:00","4010","1.278","273.6","2.548","265.6","NAN","NAN","NAN","NAN","NAN"],
    [1567258,"2026-08-19 08:00:00","4011","1.9480000000000002","233.3","3.92","225.4","NAN","NAN","NAN","NAN","NAN"],
    [1567259,"2026-08-19 08:10:00","4012","2.398","245.9","4.214","247.2","NAN","NAN","NAN","NAN","NAN"],
    [1567260,"2026-08-19 08:20:00","4013","2.1390000000000002","224.7","4.214","247.2","NAN","NAN","NAN","NAN","NAN"],
    [1567261,"2026-08-19 08:30:00","4014","2.37","229.5","3.822","201.2","NAN","NAN","NAN","NAN","NAN"],
    [1567262,"2026-08-19 08:40:00","4015","3.155","228.8","5.782","227.3","NAN","NAN","NAN","NAN","NAN"],
    [1567263,"2026-08-19 08:50:00","4016","3.593","208.8","5.978","211","NAN","NAN","NAN","NAN","NAN"],
    [1567264,"2026-08-19 09:00:00","4017","3.427","205.6","5.586","205.3","NAN","NAN","NAN","NAN","NAN"],
    [1567265,"2026-08-19 09:10:00","4018","3.055","208.1","5.978","200.3","NAN","NAN","NAN","NAN","NAN"],
    [1567266,"2026-08-19 09:20:00","4019","2.741","204.9","5.586","209.1","NAN","NAN","NAN","NAN","NAN"],
    [1567267,"2026-08-19 09:30:00","4020","3.0639999999999996","197.2","5.88","217.9","NAN","NAN","NAN","NAN","NAN"],
    [1567268,"2026-08-19 09:40:00","4021","3.388","201.7","5.292","214.5","NAN","NAN","NAN","NAN","NAN"],
    [1567269,"2026-08-19 09:50:00","4022","3.4589999999999996","195.2","5.684","220.5","NAN","NAN","NAN","NAN","NAN"],
    [1567270,"2026-08-19 10:00:00","4023","3.387","202.0","6.272","211.6","NAN","NAN","NAN","NAN","NAN"],
    [1567271,"2026-08-19 10:10:00","4024","2.984","202.9","5.488","218.3","NAN","NAN","NAN","NAN","NAN"],
    [1567272,"2026-08-19 10:20:00","4025","4.0489999999999995","200.8","6.566","207.6","NAN","NAN","NAN","NAN","NAN"],
    [1567273,"2026-08-19 10:30:00","4026","3.983","202.9","6.37","170.4","NAN","NAN","NAN","NAN","NAN"],
    [1567274,"2026-08-19 10:40:00","4027","4.0680000000000005","211.1","6.664","218.1","NAN","NAN","NAN","NAN","NAN"],
    [1567275,"2026-08-19 10:50:00","4028","3.359","203.7","6.076","207.3","NAN","NAN","NAN","NAN","NAN"],
    [1567276,"2026-08-19 11:00:00","4029","3.762","194.0","6.566","196.1","NAN","NAN","NAN","NAN","NAN"],
    [1567277,"2026-08-19 11:10:00","4030","4.052","197.7","6.37","220.4","NAN","NAN","NAN","NAN","NAN"],
    [1567278,"2026-08-19 11:20:00","4031","4.096","206.9","6.86","218.1","NAN","NAN","NAN","NAN","NAN"],
    [1567279,"2026-08-19 11:30:00","4032","3.3760000000000003","203.3","6.37","210.1","NAN","NAN","NAN","NAN","NAN"],
    [1567280,"2026-08-19 11:40:00","4033","3.387","205.6","5.488","219.3","NAN","NAN","NAN","NAN","NAN"],
    [1567281,"2026-08-19 11:50:00","4034","3.639","211.9","6.958","213.6","NAN","NAN","NAN","NAN","NAN"],
    [1567282,"2026-08-19 12:00:00","4035","3.7319999999999998","193.3","5.88","192.3","NAN","NAN","NAN","NAN","NAN"],
    [1567283,"2026-08-19 12:10:00","4036","3.32","209.5","6.762","218.9","NAN","NAN","NAN","NAN","NAN"],
    [1567284,"2026-08-19 12:20:00","4037","3.755","186.0","6.664","188.3","NAN","NAN","NAN","NAN","NAN"],
    [1567285,"2026-08-19 12:30:00","4038","4.1339999999999995","187.0","6.86","227.2","NAN","NAN","NAN","NAN","NAN"],
    [1567286,"2026-08-19 12:40:00","4039","4.0360000000000005","201.0","6.958","226.1","NAN","NAN","NAN","NAN","NAN"],
    [1567287,"2026-08-19 12:50:00","4040","4.325","216.9","6.762","237.1","NAN","NAN","NAN","NAN","NAN"],
    [1567288,"2026-08-19 13:00:00","4041","3.432","202.8","6.076","201.8","NAN","NAN","NAN","NAN","NAN"],
    [1567289,"2026-08-19 13:10:00","4042","3.758","205.7","6.86","215.5","NAN","NAN","NAN","NAN","NAN"],
    [1567290,"2026-08-19 13:20:00","4043","3.4930000000000003","201.4","6.076","205.9","NAN","NAN","NAN","NAN","NAN"],
    [1567291,"2026-08-19 13:30:00","4044","3.7769999999999997","198.6","6.468","179.8","NAN","NAN","NAN","NAN","NAN"],
    [1567292,"2026-08-19 13:40:00","4045","3.7969999999999997","186.6","6.762","174.6","NAN","NAN","NAN","NAN","NAN"],
    [1567293,"2026-08-19 13:50:00","4046","4.323","202.5","7.252","217.1","NAN","NAN","NAN","NAN","NAN"],
    [1567294,"2026-08-19 14:00:00","4047","4.123","213.5","7.154","216","NAN","NAN","NAN","NAN","NAN"],
    [1567295,"2026-08-19 14:10:00","4048","4.012","203.2","7.154","185.4","NAN","NAN","NAN","NAN","NAN"],
    [1567296,"2026-08-19 14:20:00","4049","4.262","220.1","6.762","229.2","NAN","NAN","NAN","NAN","NAN"],
    [1567297,"2026-08-19 14:30:00","4050","4.453","201.4","6.468","226.5","NAN","NAN","NAN","NAN","NAN"],
    [1567298,"2026-08-19 14:40:00","4051","4.124","212.0","6.076","209.1","NAN","NAN","NAN","NAN","NAN"],
    [1567299,"2026-08-19 14:50:00","4052","3.464","209.6","6.174","224.2","NAN","NAN","NAN","NAN","NAN"],
    [1567300,"2026-08-19 15:00:00","4053","3.943","213.8","6.174","212.1","NAN","NAN","NAN","NAN","NAN"],
    [1567301,"2026-08-19 15:10:00","4054","3.4339999999999997","210.2","5.684","205.4","NAN","NAN","NAN","NAN","NAN"],
    [1567302,"2026-08-19 15:20:00","4055","3.929","213.2","7.056","215","NAN","NAN","NAN","NAN","NAN"],
    [1567303,"2026-08-19 15:30:00","4056","3.9010000000000002","223.4","6.958","214.9","NAN","NAN","NAN","NAN","NAN"],
    [1567304,"2026-08-19 15:40:00","4057","4.196000000000001","227.7","7.448","219.6","NAN","NAN","NAN","NAN","NAN"],
    [1567305,"2026-08-19 15:50:00","4058","4.027","226.8","7.448","208.8","NAN","NAN","NAN","NAN","NAN"],
    [1567306,"2026-08-19 16:00:00","4059","3.2030000000000003","227.8","6.174","224.4","NAN","NAN","NAN","NAN","NAN"],
    [1567307,"2026-08-19 16:10:00","4060","3.6180000000000003","237.9","6.272","233.4","NAN","NAN","NAN","NAN","NAN"],
    [1567308,"2026-08-19 16:20:00","4061","3.968","228.2","5.88","221.4","NAN","NAN","NAN","NAN","NAN"],
    [1567309,"2026-08-19 16:30:00","4062","3.766","224.7","6.958","237.1","NAN","NAN","NAN","NAN","NAN"],
    [1567310,"2026-08-19 16:40:00","4063","3.335","222.7","6.37","232.3","NAN","NAN","NAN","NAN","NAN"],
    [1567311,"2026-08-19 16:50:00","4064","3.888","232.4","6.958","266.1","NAN","NAN","NAN","NAN","NAN"],
    [1567312,"2026-08-19 17:00:00","4065","4.157","223.1","6.174","215.3","NAN","NAN","NAN","NAN","NAN"],
    [1567313,"2026-08-19 17:10:00","4066","3.786","220.5","6.174","206.4","NAN","NAN","NAN","NAN","NAN"],
    [1567314,"2026-08-19 17:20:00","4067","3.491","214.9","5.978","209.3","NAN","NAN","NAN","NAN","NAN"],
    [1567315,"2026-08-19 17:30:00","4068","3.688","224.9","6.174","221.9","NAN","NAN","NAN","NAN","NAN"],
    [1567316,"2026-08-19 17:40:00","4069","3.908","215.8","6.86","209.4","NAN","NAN","NAN","NAN","NAN"],
    [1567317,"2026-08-19 17:50:00","4070","3.9330000000000003","222.3","6.37","218.1","NAN","NAN","NAN","NAN","NAN"],
    [1567318,"2026-08-19 18:00:00","4071","3.761","214.5","5.88","230.2","NAN","NAN","NAN","NAN","NAN"],
    [1567319,"2026-08-19 18:10:00","4072","3.679","212.5","5.488","236.7","NAN","NAN","NAN","NAN","NAN"],
    [1567320,"2026-08-19 18:20:00","4073","4.01","210.5","5.978","206.7","NAN","NAN","NAN","NAN","NAN"],
    [1567321,"2026-08-19 18:30:00","4074","3.888","209.9","6.174","196.3","NAN","NAN","NAN","NAN","NAN"],
    [1567322,"2026-08-19 18:40:00","4075","3.9760000000000004","212.2","5.88","209.8","NAN","NAN","NAN","NAN","NAN"],
    [1567323,"2026-08-19 18:50:00","4076","3.628","210.1","5.586","207.3","NAN","NAN","NAN","NAN","NAN"],
    [1567324,"2026-08-19 19:00:00","4077","3.313","210.8","5.488","204.5","NAN","NAN","NAN","NAN","NAN"],
    [1567325,"2026-08-19 19:10:00","4078","3.5589999999999997","211.7","5.096","203.2","NAN","NAN","NAN","NAN","NAN"],
    [1567326,"2026-08-19 19:20:00","4079","2.373","218.4","4.508","221.1","NAN","NAN","NAN","NAN","NAN"],
    [1567327,"2026-08-19 19:30:00","4080","2.793","224.9","4.998","221.5","NAN","NAN","NAN","NAN","NAN"],
    [1567328,"2026-08-19 19:40:00","4081","2.404","236.2","4.018","236.7","NAN","NAN","NAN","NAN","NAN"],
    [1567329,"2026-08-19 19:50:00","4082","2.023","233.0","3.626","236.2","NAN","NAN","NAN","NAN","NAN"],
    [1567330,"2026-08-19 20:00:00","4083","2.737","248.1","4.116","259.3","NAN","NAN","NAN","NAN","NAN"],
    [1567331,"2026-08-19 20:10:00","4084","1.829","259.8","3.626","244.6","NAN","NAN","NAN","NAN","NAN"],
    [1567332,"2026-08-19 20:20:00","4085","1.963","259.0","2.548","266.5","NAN","NAN","NAN","NAN","NAN"],
    [1567333,"2026-08-19 20:30:00","4086","1.882","254.0","2.94","254.6","NAN","NAN","NAN","NAN","NAN"],
    [1567334,"2026-08-19 20:40:00","4087","1.452","249.8","2.254","253.4","NAN","NAN","NAN","NAN","NAN"],
    [1567335,"2026-08-19 20:50:00","4088","1.55","256.3","2.352","254","NAN","NAN","NAN","NAN","NAN"],
    [1567336,"2026-08-19 21:00:00","4089","1.12","261.1","1.666","257.5","NAN","NAN","NAN","NAN","NAN"],
    [1567337,"2026-08-19 21:10:00","4090","0.518","262.2","1.47","262.5","NAN","NAN","NAN","NAN","NAN"],
    [1567338,"2026-08-19 21:20:00","4091","0.382","242.9","1.078","241.8","NAN","NAN","NAN","NAN","NAN"],
    [1567339,"2026-08-19 21:30:00","4092","0.247","243.8","1.274","240.6","NAN","NAN","NAN","NAN","NAN"],
    [1567340,"2026-08-19 21:40:00","4093","0.023","240.3","0.49","239.3","NAN","NAN","NAN","NAN","NAN"],
    [1567341,"2026-08-19 21:50:00","4094","0.071","239.3","0.49","239.3","NAN","NAN","NAN","NAN","NAN"],
    [1567342,"2026-08-19 22:00:00","4095","0.41200000000000003","206.8","1.568","174.3","NAN","NAN","NAN","NAN","NAN"],
    [1567343,"2026-08-19 22:10:00","4096","1.178","176.6","2.156","185.6","NAN","NAN","NAN","NAN","NAN"],
    [1567344,"2026-08-19 22:20:00","4097","1.3769999999999998","176.6","2.548","184.4","NAN","NAN","NAN","NAN","NAN"],
    [1567345,"2026-08-19 22:30:00","4098","1.254","175.1","2.45","174.7","NAN","NAN","NAN","NAN","NAN"],
    [1567346,"2026-08-19 22:40:00","4099","0.579","169.9","1.274","169.9","NAN","NAN","NAN","NAN","NAN"],
    [1567347,"2026-08-19 22:50:00","4100","0.512","170.1","1.274","169.4","NAN","NAN","NAN","NAN","NAN"],
    [1567348,"2026-08-19 23:00:00","4101","0.139","169.3","0.882","169.3","NAN","NAN","NAN","NAN","NAN"],
    [1567349,"2026-08-19 23:10:00","4102","0.12300000000000001","169.5","0.49","169.1","NAN","NAN","NAN","NAN","NAN"],
    [1567350,"2026-08-19 23:20:00","4103","0.7709999999999999","163.3","1.372","160.8","NAN","NAN","NAN","NAN","NAN"],
    [1567351,"2026-08-19 23:30:00","4104","0.863","155.0","1.568","156.2","NAN","NAN","NAN","NAN","NAN"],
    [1567352,"2026-08-19 23:40:00","4105","0.063","153.1","0.49","153.2","NAN","NAN","NAN","NAN","NAN"],
    [1567353,"2026-08-19 23:50:00","4106","0.21","151.2","0.686","150.9","NAN","NAN","NAN","NAN","NAN"],
    [1567354,"2026-08-20 00:00:00","4107","0.03","150.5","0.294","150.9","NAN","NAN","NAN","NAN","NAN"],
    [1567355,"2026-08-20 00:10:00","4108","1.423","89.8","3.528","72.81","NAN","NAN","NAN","NAN","NAN"],
    [1567356,"2026-08-20 00:20:00","4109","2.542","73.82","3.724","67.13","NAN","NAN","NAN","NAN","NAN"],
    [1567357,"2026-08-20 00:30:00","4110","2.195","62.98","3.92","62.13","NAN","NAN","NAN","NAN","NAN"],
    [1567358,"2026-08-20 00:40:00","4111","2.25","63.65","3.43","65.52","NAN","NAN","NAN","NAN","NAN"],
    [1567359,"2026-08-20 00:50:00","4112","2.454","70.22","3.626","68.96","NAN","NAN","NAN","NAN","NAN"],
    [1567360,"2026-08-20 01:00:00","4113","1.964","66.19","3.332","71.94","NAN","NAN","NAN","NAN","NAN"],
    [1567361,"2026-08-20 01:10:00","4114","2.234","65.15","3.724","65.4","NAN","NAN","NAN","NAN","NAN"],
    [1567362,"2026-08-20 01:20:00","4115","1.8359999999999999","74.89","3.43","73.38","NAN","NAN","NAN","NAN","NAN"],
    [1567363,"2026-08-20 01:30:00","4116","1.874","68.16","3.136","67.22","NAN","NAN","NAN","NAN","NAN"],
    [1567364,"2026-08-20 01:40:00","4117","1.87","71.27","2.744","72.86","NAN","NAN","NAN","NAN","NAN"],
    [1567365,"2026-08-20 01:50:00","4118","1.3630000000000002","63.73","2.548","64.34","NAN","NAN","NAN","NAN","NAN"],
    [1567366,"2026-08-20 02:00:00","4119","1.403","63.74","2.646","59.15","NAN","NAN","NAN","NAN","NAN"],
    [1567367,"2026-08-20 02:10:00","4120","1.749","69.48","2.744","76.28","NAN","NAN","NAN","NAN","NAN"],
    [1567368,"2026-08-20 02:20:00","4121","1.693","61.8","3.626","63.64","NAN","NAN","NAN","NAN","NAN"],
    [1567369,"2026-08-20 02:30:00","4122","1.6369999999999998","65.6","3.332","66.45","NAN","NAN","NAN","NAN","NAN"],
    [1567370,"2026-08-20 02:40:00","4123","1.589","58.7","2.744","57.22","NAN","NAN","NAN","NAN","NAN"],
    [1567371,"2026-08-20 02:50:00","4124","1.56","56.46","2.94","56.06","NAN","NAN","NAN","NAN","NAN"],
    [1567372,"2026-08-20 03:00:00","4125","1.6269999999999998","58.3","3.038","73.22","NAN","NAN","NAN","NAN","NAN"],
    [1567373,"2026-08-20 03:10:00","4126","1.484","75.33","2.45","81.2","NAN","NAN","NAN","NAN","NAN"],
    [1567374,"2026-08-20 03:20:00","4127","2.116","56.58","4.214","49.46","NAN","NAN","NAN","NAN","NAN"],
    [1567375,"2026-08-20 03:30:00","4128","2.115","57.57","3.822","53.14","NAN","NAN","NAN","NAN","NAN"],
    [1567376,"2026-08-20 03:40:00","4129","1.78","60.55","4.018","67.41","NAN","NAN","NAN","NAN","NAN"],
    [1567377,"2026-08-20 03:50:00","4130","2.822","64.9","5.39","62.27","NAN","NAN","NAN","NAN","NAN"],
    [1567378,"2026-08-20 04:00:00","4131","2.912","66.6","5.684","58.32","NAN","NAN","NAN","NAN","NAN"],
    [1567379,"2026-08-20 04:10:00","4132","2.635","72.25","4.606","83.4","NAN","NAN","NAN","NAN","NAN"],
    [1567380,"2026-08-20 04:20:00","4133","2.532","71.14","5.194","88.4","NAN","NAN","NAN","NAN","NAN"],
    [1567381,"2026-08-20 04:30:00","4134","2.6310000000000002","64.56","4.606","66","NAN","NAN","NAN","NAN","NAN"],
    [1567382,"2026-08-20 04:40:00","4135","2.38","53.53","4.9","47.57","NAN","NAN","NAN","NAN","NAN"],
    [1567383,"2026-08-20 04:50:00","4136","2.104","79.48","3.332","82.5","NAN","NAN","NAN","NAN","NAN"],
    [1567384,"2026-08-20 05:00:00","4137","3.108","103.8","5.88","92.7","NAN","NAN","NAN","NAN","NAN"],
    [1567385,"2026-08-20 05:10:00","4138","1.976","107.5","4.508","129.7","NAN","NAN","NAN","NAN","NAN"],
    [1567386,"2026-08-20 05:20:00","4139","2.11","72.62","4.508","45.08","NAN","NAN","NAN","NAN","NAN"],
    [1567387,"2026-08-20 05:30:00","4140","1.777","95.6","4.018","65.1","NAN","NAN","NAN","NAN","NAN"],
    [1567388,"2026-08-20 05:40:00","4141","2.8","79.05","4.704","87.4","NAN","NAN","NAN","NAN","NAN"],
    [1567389,"2026-08-20 05:50:00","4142","2.396","91.4","4.018","64.72","NAN","NAN","NAN","NAN","NAN"],
    [1567390,"2026-08-20 06:00:00","4143","1.693","87.7","3.234","107.2","NAN","NAN","NAN","NAN","NAN"],
    [1567391,"2026-08-20 06:10:00","4144","2.519","98.4","4.214","118.7","NAN","NAN","NAN","NAN","NAN"],
    [1567392,"2026-08-20 06:20:00","4145","1.912","98.2","3.528","103.3","NAN","NAN","NAN","NAN","NAN"],
    [1567393,"2026-08-20 06:30:00","4146","2.524","77.83","4.508","71.94","NAN","NAN","NAN","NAN","NAN"],
    [1567394,"2026-08-20 06:40:00","4147","3.217","74.21","4.998","95","NAN","NAN","NAN","NAN","NAN"],
    [1567395,"2026-08-20 06:50:00","4148","2.37","80.2","5.194","72.96","NAN","NAN","NAN","NAN","NAN"],
    [1567396,"2026-08-20 07:00:00","4149","3.135","90.0","4.998","86","NAN","NAN","NAN","NAN","NAN"],
    [1567397,"2026-08-20 07:10:00","4150","3.168","88.3","4.704","84.9","NAN","NAN","NAN","NAN","NAN"],
    [1567398,"2026-08-20 07:20:00","4151","2.717","100.9","4.9","93.1","NAN","NAN","NAN","NAN","NAN"],
    [1567399,"2026-08-20 07:30:00","4152","2.4330000000000003","90.8","3.92","113.5","NAN","NAN","NAN","NAN","NAN"],
    [1567400,"2026-08-20 07:40:00","4153","2.846","100.1","4.802","83.6","NAN","NAN","NAN","NAN","NAN"],
    [1567401,"2026-08-20 07:50:00","4154","2.806","93.6","4.312","96.5","NAN","NAN","NAN","NAN","NAN"],
    [1567402,"2026-08-20 08:00:00","4155","2.313","96.6","3.822","84.6","NAN","NAN","NAN","NAN","NAN"],
    [1567403,"2026-08-20 08:10:00","4156","2.9819999999999998","99.1","4.116","103.1","NAN","NAN","NAN","NAN","NAN"],
    [1567404,"2026-08-20 08:20:00","4157","2.46","87.3","4.018","98.1","NAN","NAN","NAN","NAN","NAN"],
    [1567405,"2026-08-20 08:30:00","4158","2.157","93.7","3.822","100.9","NAN","NAN","NAN","NAN","NAN"],
    [1567406,"2026-08-20 08:40:00","4159","2.58","90.5","3.626","97.1","NAN","NAN","NAN","NAN","NAN"],
    [1567407,"2026-08-20 08:50:00","4160","2.154","88.2","4.41","105.5","NAN","NAN","NAN","NAN","NAN"],
    [1567408,"2026-08-20 09:00:00","4161","2.986","91.6","4.9","85.9","NAN","NAN","NAN","NAN","NAN"],
    [1567409,"2026-08-20 09:10:00","4162","1.696","77.45","3.332","70.01","NAN","NAN","NAN","NAN","NAN"],
    [1567410,"2026-08-20 09:20:00","4163","2.254","67.82","4.214","66.74","NAN","NAN","NAN","NAN","NAN"],
    [1567411,"2026-08-20 09:30:00","4164","2.354","66.23","4.018","64.36","NAN","NAN","NAN","NAN","NAN"],
    [1567412,"2026-08-20 09:40:00","4165","1.915","59.1","3.43","58.3","NAN","NAN","NAN","NAN","NAN"],
    [1567413,"2026-08-20 09:50:00","4166","2.0980000000000003","60.49","4.214","68.32","NAN","NAN","NAN","NAN","NAN"],
    [1567414,"2026-08-20 10:00:00","4167","2.3080000000000003","62.57","4.802","55.14","NAN","NAN","NAN","NAN","NAN"],
    [1567415,"2026-08-20 10:10:00","4168","2.609","57.08","4.116","72.98","NAN","NAN","NAN","NAN","NAN"],
    [1567416,"2026-08-20 10:20:00","4169","2.414","63.12","4.508","63.63","NAN","NAN","NAN","NAN","NAN"],
    [1567417,"2026-08-20 10:30:00","4170","2.247","55.75","4.214","52.49","NAN","NAN","NAN","NAN","NAN"],
    [1567418,"2026-08-20 10:40:00","4171","2.495","60.37","3.92","39.69","NAN","NAN","NAN","NAN","NAN"],
    [1567419,"2026-08-20 10:50:00","4172","2.11","60.38","3.626","69.52","NAN","NAN","NAN","NAN","NAN"],
    [1567420,"2026-08-20 11:00:00","4173","3.13","52.91","5.096","60.21","NAN","NAN","NAN","NAN","NAN"],
    [1567421,"2026-08-20 11:10:00","4174","2.795","55.86","5.096","72.98","NAN","NAN","NAN","NAN","NAN"],
    [1567422,"2026-08-20 11:20:00","4175","2.97","55.58","4.704","63.92","NAN","NAN","NAN","NAN","NAN"],
    [1567423,"2026-08-20 11:30:00","4176","3.532","94.3","5.488","134.7","NAN","NAN","NAN","NAN","NAN"],
    [1567424,"2026-08-20 11:40:00","4177","3.657","103.5","5.292","96.1","NAN","NAN","NAN","NAN","NAN"],
    [1567425,"2026-08-20 11:50:00","4178","3.193","102.5","4.802","92.2","NAN","NAN","NAN","NAN","NAN"],
    [1567426,"2026-08-20 12:00:00","4179","3.81","90.2","5.488","102.4","NAN","NAN","NAN","NAN","NAN"],
    [1567427,"2026-08-20 12:10:00","4180","3.765","94.9","5.586","104.3","NAN","NAN","NAN","NAN","NAN"],
    [1567428,"2026-08-20 12:20:00","4181","3.653","96.1","6.37","85.1","NAN","NAN","NAN","NAN","NAN"],
    [1567429,"2026-08-20 12:30:00","4182","3.3939999999999997","97.2","5.684","84.1","NAN","NAN","NAN","NAN","NAN"],
    [1567430,"2026-08-20 12:40:00","4183","3.3110000000000004","92.0","6.468","95.7","NAN","NAN","NAN","NAN","NAN"],
    [1567431,"2026-08-20 12:50:00","4184","3.641","91.6","6.076","79.53","NAN","NAN","NAN","NAN","NAN"],
    [1567432,"2026-08-20 13:00:00","4185","3.7960000000000003","91.6","6.076","97.1","NAN","NAN","NAN","NAN","NAN"],
    [1567433,"2026-08-20 13:10:00","4186","4.211","91.7","6.076","77.36","NAN","NAN","NAN","NAN","NAN"],
    [1567434,"2026-08-20 13:20:00","4187","3.448","92.4","5.684","107.5","NAN","NAN","NAN","NAN","NAN"],
    [1567435,"2026-08-20 13:30:00","4188","3.2910000000000004","85.3","5.194","111.1","NAN","NAN","NAN","NAN","NAN"],
    [1567436,"2026-08-20 13:40:00","4189","3.4189999999999996","76.29","5.684","67.01","NAN","NAN","NAN","NAN","NAN"],
    [1567437,"2026-08-20 13:50:00","4190","3.415","71.98","5.88","63.74","NAN","NAN","NAN","NAN","NAN"],
    [1567438,"2026-08-20 14:00:00","4191","3.761","86.9","6.86","75.04","NAN","NAN","NAN","NAN","NAN"],
    [1567439,"2026-08-20 14:10:00","4192","4.335","90.0","7.056","75.67","NAN","NAN","NAN","NAN","NAN"],
    [1567440,"2026-08-20 14:20:00","4193","4.637","85.6","7.448","87","NAN","NAN","NAN","NAN","NAN"],
    [1567441,"2026-08-20 14:30:00","4194","6.183","90.1","9.02","91.7","NAN","NAN","NAN","NAN","NAN"],
    [1567442,"2026-08-20 14:40:00","4195","5.426","89.9","7.742","83.4","NAN","NAN","NAN","NAN","NAN"],
    [1567443,"2026-08-20 14:50:00","4196","5.227","80.8","8.82","70.11","NAN","NAN","NAN","NAN","NAN"],
    [1567444,"2026-08-20 15:00:00","4197","5.169","78.75","7.546","74.7","NAN","NAN","NAN","NAN","NAN"],
    [1567445,"2026-08-20 15:10:00","4198","4.052","80.7","5.39","83.6","NAN","NAN","NAN","NAN","NAN"],
    [1567446,"2026-08-20 15:20:00","4199","2.615","75.03","4.998","84.8","NAN","NAN","NAN","NAN","NAN"],
    [1567447,"2026-08-20 15:30:00","4200","3.891","75.88","5.684","82.4","NAN","NAN","NAN","NAN","NAN"],
    [1567448,"2026-08-20 15:40:00","4201","2.423","77.65","5.488","73.13","NAN","NAN","NAN","NAN","NAN"],
    [1567449,"2026-08-20 15:50:00","4202","2.716","76.81","4.312","65.09","NAN","NAN","NAN","NAN","NAN"],
    [1567450,"2026-08-20 16:00:00","4203","2.9389999999999996","83.5","4.214","78.13","NAN","NAN","NAN","NAN","NAN"],
    [1567451,"2026-08-20 16:10:00","4204","2.5869999999999997","82.6","3.724","89.5","NAN","NAN","NAN","NAN","NAN"],
    [1567452,"2026-08-20 16:20:00","4205","2.408","73.49","3.528","65.09","NAN","NAN","NAN","NAN","NAN"],
    [1567453,"2026-08-20 16:30:00","4206","2.852","69.26","4.41","68.46","NAN","NAN","NAN","NAN","NAN"],
    [1567454,"2026-08-20 16:40:00","4207","3.1039999999999996","71.64","4.312","64.97","NAN","NAN","NAN","NAN","NAN"],
    [1567455,"2026-08-20 16:50:00","4208","1.87","58.25","3.43","46.33","NAN","NAN","NAN","NAN","NAN"],
    [1567456,"2026-08-20 17:00:00","4209","1.838","60.06","3.038","66.06","NAN","NAN","NAN","NAN","NAN"],
    [1567457,"2026-08-20 17:10:00","4210","2.6069999999999998","69.51","3.92","73.85","NAN","NAN","NAN","NAN","NAN"],
    [1567458,"2026-08-20 17:20:00","4211","2.222","78.01","3.92","77.6","NAN","NAN","NAN","NAN","NAN"],
    [1567459,"2026-08-20 17:30:00","4212","1.7109999999999999","67.22","3.332","61.73","NAN","NAN","NAN","NAN","NAN"],
    [1567460,"2026-08-20 17:40:00","4213","1.119","71.31","2.058","72.71","NAN","NAN","NAN","NAN","NAN"],
    [1567461,"2026-08-20 17:50:00","4214","0.614","73.55","1.666","70.89","NAN","NAN","NAN","NAN","NAN"],
    [1567462,"2026-08-20 18:00:00","4215","1.483","233.6","5.39","235.5","NAN","NAN","NAN","NAN","NAN"],
    [1567463,"2026-08-20 18:10:00","4216","3.737","230.1","6.37","250.3","NAN","NAN","NAN","NAN","NAN"],
    [1567464,"2026-08-20 18:20:00","4217","3.725","221.8","6.762","245.7","NAN","NAN","NAN","NAN","NAN"],
    [1567465,"2026-08-20 18:30:00","4218","4.148","217.2","7.644","205.4","NAN","NAN","NAN","NAN","NAN"],
    [1567466,"2026-08-20 18:40:00","4219","5.034","231.6","10.78","251.6","NAN","NAN","NAN","NAN","NAN"],
    [1567467,"2026-08-20 18:50:00","4220","5.229","236.2","9.6","268.6","NAN","NAN","NAN","NAN","NAN"],
    [1567468,"2026-08-20 19:00:00","4221","6.016","243.9","10.19","247.8","NAN","NAN","NAN","NAN","NAN"],
    [1567469,"2026-08-20 19:10:00","4222","5.739","235.1","10.88","215.3","NAN","NAN","NAN","NAN","NAN"],
    [1567470,"2026-08-20 19:20:00","4223","5.867999999999999","256.9","9.7","248","NAN","NAN","NAN","NAN","NAN"],
    [1567471,"2026-08-20 19:30:00","4224","3.739","287.4","6.566","309.2","NAN","NAN","NAN","NAN","NAN"],
    [1567472,"2026-08-20 19:40:00","4225","3.677","296.4","6.664","303.5","NAN","NAN","NAN","NAN","NAN"],
    [1567473,"2026-08-20 19:50:00","4226","3.1319999999999997","319.6","5.194","310","NAN","NAN","NAN","NAN","NAN"],
    [1567474,"2026-08-20 20:00:00","4227","2.5380000000000003","308.6","4.508","335.7","NAN","NAN","NAN","NAN","NAN"],
    [1567475,"2026-08-20 20:10:00","4228","2.5869999999999997","284.3","3.92","281.4","NAN","NAN","NAN","NAN","NAN"],
    [1567476,"2026-08-20 20:20:00","4229","2.847","265.7","5.096","257.2","NAN","NAN","NAN","NAN","NAN"],
    [1567477,"2026-08-20 20:30:00","4230","3.5269999999999997","262.8","5.39","274.7","NAN","NAN","NAN","NAN","NAN"],
    [1567478,"2026-08-20 20:40:00","4231","3.948","272.9","5.782","260.4","NAN","NAN","NAN","NAN","NAN"],
    [1567479,"2026-08-20 20:50:00","4232","3.302","279.4","6.37","271.8","NAN","NAN","NAN","NAN","NAN"],
    [1567480,"2026-08-20 21:00:00","4233","3.971","270.6","6.958","256","NAN","NAN","NAN","NAN","NAN"],
    [1567481,"2026-08-20 21:10:00","4234","6.065","268.0","9.11","268.8","NAN","NAN","NAN","NAN","NAN"],
    [1567482,"2026-08-20 21:20:00","4235","5.374","259.4","9.21","272.8","NAN","NAN","NAN","NAN","NAN"],
    [1567483,"2026-08-20 21:30:00","4236","6.011","263.4","10.39","263.1","NAN","NAN","NAN","NAN","NAN"],
    [1567484,"2026-08-20 21:40:00","4237","5.335","267.0","10","287.3","NAN","NAN","NAN","NAN","NAN"],
    [1567485,"2026-08-20 21:50:00","4238","5.037","254.4","7.84","256.5","NAN","NAN","NAN","NAN","NAN"],
    [1567486,"2026-08-20 22:00:00","4239","5.143","253.2","7.546","248.8","NAN","NAN","NAN","NAN","NAN"],
    [1567487,"2026-08-20 22:10:00","4240","4.727","260.1","7.154","272.9","NAN","NAN","NAN","NAN","NAN"],
    [1567488,"2026-08-20 22:20:00","4241","3.6180000000000003","290.7","5.39","254.1","NAN","NAN","NAN","NAN","NAN"],
    [1567489,"2026-08-20 22:30:00","4242","4.079","292.1","6.566","304.2","NAN","NAN","NAN","NAN","NAN"],
    [1567490,"2026-08-20 22:40:00","4243","4.059","289.6","7.35","272.7","NAN","NAN","NAN","NAN","NAN"],
    [1567491,"2026-08-20 22:50:00","4244","4.136","289.1","7.056","292.4","NAN","NAN","NAN","NAN","NAN"],
    [1567492,"2026-08-20 23:00:00","4245","3.516","283.2","5.684","293.9","NAN","NAN","NAN","NAN","NAN"],
    [1567493,"2026-08-20 23:10:00","4246","3.137","301.4","6.076","294.9","NAN","NAN","NAN","NAN","NAN"],
    [1567494,"2026-08-20 23:20:00","4247","3.5580000000000003","289.4","7.154","291.8","NAN","NAN","NAN","NAN","NAN"],
    [1567495,"2026-08-20 23:30:00","4248","2.3930000000000002","299.8","4.214","296.2","NAN","NAN","NAN","NAN","NAN"],
    [1567496,"2026-08-20 23:40:00","4249","1.505","306.9","2.352","309.7","NAN","NAN","NAN","NAN","NAN"],
    [1567497,"2026-08-20 23:50:00","4250","1.521","300.7","2.744","300.8","NAN","NAN","NAN","NAN","NAN"],
    [1567498,"2026-08-21 00:00:00","4251","1.704","294.0","2.842","290.4","NAN","NAN","NAN","NAN","NAN"],
    [1567499,"2026-08-21 00:10:00","4252","2.005","291.5","3.038","297.8","NAN","NAN","NAN","NAN","NAN"],
    [1567500,"2026-08-21 00:20:00","4253","1.749","291.2","3.136","291.6","NAN","NAN","NAN","NAN","NAN"],
    [1567501,"2026-08-21 00:30:00","4254","2.7289999999999996","278.1","4.802","270","NAN","NAN","NAN","NAN","NAN"],
    [1567502,"2026-08-21 00:40:00","4255","4.813","262.4","8.62","256.7","NAN","NAN","NAN","NAN","NAN"],
    [1567503,"2026-08-21 00:50:00","4256","4.061","275.7","6.958","251.4","NAN","NAN","NAN","NAN","NAN"],
    [1567504,"2026-08-21 01:00:00","4257","2.004","254.0","4.606","273.5","NAN","NAN","NAN","NAN","NAN"],
    [1567505,"2026-08-21 01:10:00","4258","2.3409999999999997","251.9","3.92","253.5","NAN","NAN","NAN","NAN","NAN"],
    [1567506,"2026-08-21 01:20:00","4259","1.4580000000000002","247.0","2.842","236.9","NAN","NAN","NAN","NAN","NAN"],
    [1567507,"2026-08-21 01:30:00","4260","1.56","231.3","2.548","228.7","NAN","NAN","NAN","NAN","NAN"],
    [1567508,"2026-08-21 01:40:00","4261","0.26","251.9","1.372","248.4","NAN","NAN","NAN","NAN","NAN"],
    [1567509,"2026-08-21 01:50:00","4262","0.983","281.5","2.94","310.3","NAN","NAN","NAN","NAN","NAN"],
    [1567510,"2026-08-21 02:00:00","4263","2.123","300.7","3.234","307.3","NAN","NAN","NAN","NAN","NAN"],
    [1567511,"2026-08-21 02:10:00","4264","1.7919999999999998","287.8","3.038","295","NAN","NAN","NAN","NAN","NAN"],
    [1567512,"2026-08-21 02:20:00","4265","1.8130000000000002","295.1","2.94","289.3","NAN","NAN","NAN","NAN","NAN"],
    [1567513,"2026-08-21 02:30:00","4266","1.855","281.8","2.94","278.7","NAN","NAN","NAN","NAN","NAN"],
    [1567514,"2026-08-21 02:40:00","4267","2.3040000000000003","269.0","3.724","270.5","NAN","NAN","NAN","NAN","NAN"],
    [1567515,"2026-08-21 02:50:00","4268","2.141","276.0","3.136","281.9","NAN","NAN","NAN","NAN","NAN"],
    [1567516,"2026-08-21 03:00:00","4269","1.538","290.5","2.548","289.9","NAN","NAN","NAN","NAN","NAN"],
    [1567517,"2026-08-21 03:10:00","4270","1.298","291.9","2.744","296.4","NAN","NAN","NAN","NAN","NAN"],
    [1567518,"2026-08-21 03:20:00","4271","2.128","256.9","3.136","248.8","NAN","NAN","NAN","NAN","NAN"],
    [1567519,"2026-08-21 03:30:00","4272","2.106","265.8","3.234","276.9","NAN","NAN","NAN","NAN","NAN"],
    [1567520,"2026-08-21 03:40:00","4273","2.445","286.6","4.41","318.5","NAN","NAN","NAN","NAN","NAN"],
    [1567521,"2026-08-21 03:50:00","4274","2.654","312.0","4.018","327.8","NAN","NAN","NAN","NAN","NAN"],
    [1567522,"2026-08-21 04:00:00","4275","1.61","297.0","2.94","311","NAN","NAN","NAN","NAN","NAN"],
    [1567523,"2026-08-21 04:10:00","4276","2.331","315.3","4.018","329.7","NAN","NAN","NAN","NAN","NAN"],
    [1567524,"2026-08-21 04:20:00","4277","1.6340000000000001","320.2","3.528","307.3","NAN","NAN","NAN","NAN","NAN"],
    [1567525,"2026-08-21 04:30:00","4278","1.7890000000000001","309.5","3.332","294.4","NAN","NAN","NAN","NAN","NAN"],
    [1567526,"2026-08-21 04:40:00","4279","2.967","299.0","5.586","293.8","NAN","NAN","NAN","NAN","NAN"],
    [1567527,"2026-08-21 04:50:00","4280","3.7960000000000003","310.7","6.076","316.8","NAN","NAN","NAN","NAN","NAN"],
    [1567528,"2026-08-21 05:00:00","4281","2.397","301.3","4.508","307.2","NAN","NAN","NAN","NAN","NAN"],
    [1567529,"2026-08-21 05:10:00","4282","2.6839999999999997","311.6","4.704","324.8","NAN","NAN","NAN","NAN","NAN"],
    [1567530,"2026-08-21 05:20:00","4283","2.048","305.6","3.528","297.3","NAN","NAN","NAN","NAN","NAN"],
    [1567531,"2026-08-21 05:30:00","4284","2.6310000000000002","285.6","3.92","293.3","NAN","NAN","NAN","NAN","NAN"],
    [1567532,"2026-08-21 05:40:00","4285","1.8559999999999999","293.8","3.724","291.3","NAN","NAN","NAN","NAN","NAN"],
    [1567533,"2026-08-21 05:50:00","4286","3.045","310.1","5.096","325.5","NAN","NAN","NAN","NAN","NAN"],
    [1567534,"2026-08-21 06:00:00","4287","2.8680000000000003","301.2","4.214","291","NAN","NAN","NAN","NAN","NAN"],
    [1567535,"2026-08-21 06:10:00","4288","1.561","296.7","2.744","289.5","NAN","NAN","NAN","NAN","NAN"],
    [1567536,"2026-08-21 06:20:00","4289","2.142","295.3","4.606","301.4","NAN","NAN","NAN","NAN","NAN"],
    [1567537,"2026-08-21 06:30:00","4290","3.074","303.2","4.508","286.9","NAN","NAN","NAN","NAN","NAN"],
    [1567538,"2026-08-21 06:40:00","4291","3.397","303.5","5.39","301.6","NAN","NAN","NAN","NAN","NAN"],
    [1567539,"2026-08-21 06:50:00","4292","2.32","293.3","4.704","292.4","NAN","NAN","NAN","NAN","NAN"],
    [1567540,"2026-08-21 07:00:00","4293","2.9930000000000003","307.3","4.998","302.9","NAN","NAN","NAN","NAN","NAN"],
    [1567541,"2026-08-21 07:10:00","4294","3.725","306.3","7.742","286.9","NAN","NAN","NAN","NAN","NAN"],
    [1567542,"2026-08-21 07:20:00","4295","4.377","319.3","7.056","302.3","NAN","NAN","NAN","NAN","NAN"],
    [1567543,"2026-08-21 07:30:00","4296","4.004","326.6","8.43","334.7","NAN","NAN","NAN","NAN","NAN"],
    [1567544,"2026-08-21 07:40:00","4297","3.403","303.6","5.782","283.9","NAN","NAN","NAN","NAN","NAN"],
    [1567545,"2026-08-21 07:50:00","4298","2.947","311.2","4.508","324","NAN","NAN","NAN","NAN","NAN"],
    [1567546,"2026-08-21 08:00:00","4299","3.301","307.6","4.704","299.6","NAN","NAN","NAN","NAN","NAN"],
    [1567547,"2026-08-21 08:10:00","4300","2.439","318.3","4.116","306.2","NAN","NAN","NAN","NAN","NAN"],
    [1567548,"2026-08-21 08:20:00","4301","2.6439999999999997","332.8","3.822","2.551","NAN","NAN","NAN","NAN","NAN"],
    [1567549,"2026-08-21 08:30:00","4302","2.299","349.4","4.116","6.497","NAN","NAN","NAN","NAN","NAN"],
    [1567550,"2026-08-21 08:40:00","4303","2.291","341.7","4.214","292.4","NAN","NAN","NAN","NAN","NAN"],
    [1567551,"2026-08-21 08:50:00","4304","3.0010000000000003","319.3","4.214","292.4","NAN","NAN","NAN","NAN","NAN"],
    [1567552,"2026-08-21 09:00:00","4305","2.577","307.8","5.096","297.1","NAN","NAN","NAN","NAN","NAN"],
    [1567553,"2026-08-21 09:10:00","4306","1.65","6.4910000000000005","3.332","25.46","NAN","NAN","NAN","NAN","NAN"],
    [1567554,"2026-08-21 09:20:00","4307","1.297","311.8","3.332","302.1","NAN","NAN","NAN","NAN","NAN"],
    [1567555,"2026-08-21 09:30:00","4308","2.184","273.3","4.312","289.6","NAN","NAN","NAN","NAN","NAN"],
    [1567556,"2026-08-21 09:40:00","4309","1.7919999999999998","273.1","4.41","290.5","NAN","NAN","NAN","NAN","NAN"],
    [1567557,"2026-08-21 09:50:00","4310","1.756","289.3","3.626","326.1","NAN","NAN","NAN","NAN","NAN"],
    [1567558,"2026-08-21 10:00:00","4311","1.4809999999999999","215.7","3.822","132.6","NAN","NAN","NAN","NAN","NAN"],
    [1567559,"2026-08-21 10:10:00","4312","2.612","119.5","4.018","113.4","NAN","NAN","NAN","NAN","NAN"],
    [1567560,"2026-08-21 10:20:00","4313","3.2689999999999997","105.8","4.41","111.7","NAN","NAN","NAN","NAN","NAN"],
    [1567561,"2026-08-21 10:30:00","4314","3.092","114.5","4.41","110.1","NAN","NAN","NAN","NAN","NAN"],
    [1567562,"2026-08-21 10:40:00","4315","2.802","123.1","4.508","121.8","NAN","NAN","NAN","NAN","NAN"],
    [1567563,"2026-08-21 10:50:00","4316","3.471","115.0","5.194","126.7","NAN","NAN","NAN","NAN","NAN"],
    [1567564,"2026-08-21 11:00:00","4317","3.045","123.3","4.41","147.8","NAN","NAN","NAN","NAN","NAN"],
    [1567565,"2026-08-21 11:10:00","4318","3.0210000000000004","114.4","4.998","138.1","NAN","NAN","NAN","NAN","NAN"],
    [1567566,"2026-08-21 11:20:00","4319","3.3819999999999997","109.4","5.292","111.7","NAN","NAN","NAN","NAN","NAN"],
    [1567567,"2026-08-21 11:30:00","4320","3.7110000000000003","122.4","5.488","104.9","NAN","NAN","NAN","NAN","NAN"],
    [1567568,"2026-08-21 11:40:00","4321","3.977","119.5","5.88","129.3","NAN","NAN","NAN","NAN","NAN"],
    [1567569,"2026-08-21 11:50:00","4322","3.613","118.5","4.802","112.9","NAN","NAN","NAN","NAN","NAN"],
    [1567570,"2026-08-21 12:00:00","4323","3.093","121.5","5.684","136.3","NAN","NAN","NAN","NAN","NAN"],
    [1567571,"2026-08-21 12:10:00","4324","3.7539999999999996","124.8","5.978","117.4","NAN","NAN","NAN","NAN","NAN"],
    [1567572,"2026-08-21 12:20:00","4325","3.818","120.7","5.586","115.9","NAN","NAN","NAN","NAN","NAN"],
    [1567573,"2026-08-21 12:30:00","4326","3.807","117.1","5.684","137","NAN","NAN","NAN","NAN","NAN"],
    [1567574,"2026-08-21 12:40:00","4327","3.2539999999999996","119.2","5.39","119.8","NAN","NAN","NAN","NAN","NAN"],
    [1567575,"2026-08-21 12:50:00","4328","3.1519999999999997","129.1","4.9","147.5","NAN","NAN","NAN","NAN","NAN"],
    [1567576,"2026-08-21 13:00:00","4329","3.4210000000000003","116.2","4.704","126.7","NAN","NAN","NAN","NAN","NAN"],
    [1567577,"2026-08-21 13:10:00","4330","4.4","112.5","6.566","110.8","NAN","NAN","NAN","NAN","NAN"],
    [1567578,"2026-08-21 13:20:00","4331","4.44","116.5","6.86","105.8","NAN","NAN","NAN","NAN","NAN"],
    [1567579,"2026-08-21 13:30:00","4332","5.272","115.6","8.04","107","NAN","NAN","NAN","NAN","NAN"],
    [1567580,"2026-08-21 13:40:00","4333","5.382000000000001","123.3","8.43","134.2","NAN","NAN","NAN","NAN","NAN"],
    [1567581,"2026-08-21 13:50:00","4334","4.538","120.5","6.468","109.8","NAN","NAN","NAN","NAN","NAN"],
    [1567582,"2026-08-21 14:00:00","4335","4.663","120.8","7.938","108.9","NAN","NAN","NAN","NAN","NAN"],
    [1567583,"2026-08-21 14:10:00","4336","4.588","119.3","7.448","110.1","NAN","NAN","NAN","NAN","NAN"],
    [1567584,"2026-08-21 14:20:00","4337","3.964","115.7","7.154","99.1","NAN","NAN","NAN","NAN","NAN"],
    [1567585,"2026-08-21 14:30:00","4338","4.316","118.2","6.272","129.3","NAN","NAN","NAN","NAN","NAN"],
    [1567586,"2026-08-21 14:40:00","4339","4.525","125.9","6.86","145.9","NAN","NAN","NAN","NAN","NAN"],
    [1567587,"2026-08-21 14:50:00","4340","4.38","119.2","7.742","127.6","NAN","NAN","NAN","NAN","NAN"],
    [1567588,"2026-08-21 15:00:00","4341","4.23","114.4","7.252","110.6","NAN","NAN","NAN","NAN","NAN"],
    [1567589,"2026-08-21 15:10:00","4342","4.2780000000000005","116.4","6.468","114.1","NAN","NAN","NAN","NAN","NAN"],
    [1567590,"2026-08-21 15:20:00","4343","3.985","117.1","6.37","107.3","NAN","NAN","NAN","NAN","NAN"],
    [1567591,"2026-08-21 15:30:00","4344","4.373","119.5","6.762","116.6","NAN","NAN","NAN","NAN","NAN"],
    [1567592,"2026-08-21 15:40:00","4345","4.133","114.0","6.762","116.1","NAN","NAN","NAN","NAN","NAN"],
    [1567593,"2026-08-21 15:50:00","4346","4.381","115.6","7.938","115.2","NAN","NAN","NAN","NAN","NAN"],
    [1567594,"2026-08-21 16:00:00","4347","4.181","113.9","6.174","117.6","NAN","NAN","NAN","NAN","NAN"],
    [1567595,"2026-08-21 16:10:00","4348","3.826","113.7","6.174","101.7","NAN","NAN","NAN","NAN","NAN"],
    [1567596,"2026-08-21 16:20:00","4349","3.65","114.8","5.782","111.9","NAN","NAN","NAN","NAN","NAN"],
    [1567597,"2026-08-21 16:30:00","4350","3.656","117.7","6.468","122.4","NAN","NAN","NAN","NAN","NAN"],
    [1567598,"2026-08-21 16:40:00","4351","3.3819999999999997","108.5","5.096","117.3","NAN","NAN","NAN","NAN","NAN"],
    [1567599,"2026-08-21 16:50:00","4352","3.4739999999999998","113.9","6.076","119.6","NAN","NAN","NAN","NAN","NAN"],
    [1567600,"2026-08-21 17:00:00","4353","3.157","104.3","5.292","125.1","NAN","NAN","NAN","NAN","NAN"],
    [1567601,"2026-08-21 17:10:00","4354","3.3139999999999996","111.5","5.194","98.2","NAN","NAN","NAN","NAN","NAN"],
    [1567602,"2026-08-21 17:20:00","4355","2.958","111.6","5.586","116.2","NAN","NAN","NAN","NAN","NAN"],
    [1567603,"2026-08-21 17:30:00","4356","3.4210000000000003","113.2","5.684","106.1","NAN","NAN","NAN","NAN","NAN"],
    [1567604,"2026-08-21 17:40:00","4357","3.571","118.0","4.998","132.6","NAN","NAN","NAN","NAN","NAN"],
    [1567605,"2026-08-21 17:50:00","4358","3.333","105.9","5.782","111.4","NAN","NAN","NAN","NAN","NAN"],
    [1567606,"2026-08-21 18:00:00","4359","4.063","110.3","6.076","118.2","NAN","NAN","NAN","NAN","NAN"],
    [1567607,"2026-08-21 18:10:00","4360","3.824","115.4","6.37","129.9","NAN","NAN","NAN","NAN","NAN"],
    [1567608,"2026-08-21 18:20:00","4361","3.6830000000000003","119.5","5.586","109.3","NAN","NAN","NAN","NAN","NAN"],
    [1567609,"2026-08-21 18:30:00","4362","3.8539999999999996","111.4","5.782","116.6","NAN","NAN","NAN","NAN","NAN"],
    [1567610,"2026-08-21 18:40:00","4363","4.123","108.9","6.37","107.9","NAN","NAN","NAN","NAN","NAN"],
    [1567611,"2026-08-21 18:50:00","4364","4.117","111.5","6.468","100.1","NAN","NAN","NAN","NAN","NAN"],
    [1567612,"2026-08-21 19:00:00","4365","3.767","112.1","5.978","111.7","NAN","NAN","NAN","NAN","NAN"],
    [1567613,"2026-08-21 19:10:00","4366","4.046","111.4","6.468","124.6","NAN","NAN","NAN","NAN","NAN"],
    [1567614,"2026-08-21 19:20:00","4367","3.772","115.1","5.586","114.4","NAN","NAN","NAN","NAN","NAN"],
    [1567615,"2026-08-21 19:30:00","4368","4.67","115.5","7.546","110.5","NAN","NAN","NAN","NAN","NAN"],
    [1567616,"2026-08-21 19:40:00","4369","4.338","112.8","7.056","115.5","NAN","NAN","NAN","NAN","NAN"],
    [1567617,"2026-08-21 19:50:00","4370","4.65","115.6","7.546","108","NAN","NAN","NAN","NAN","NAN"],
    [1567618,"2026-08-21 20:00:00","4371","3.8089999999999997","109.5","6.664","100.1","NAN","NAN","NAN","NAN","NAN"],
    [1567619,"2026-08-21 20:10:00","4372","4.022","113.2","6.37","101.6","NAN","NAN","NAN","NAN","NAN"],
    [1567620,"2026-08-21 20:20:00","4373","4.055","115.1","7.448","135.7","NAN","NAN","NAN","NAN","NAN"],
    [1567621,"2026-08-21 20:30:00","4374","3.907","112.2","5.978","118","NAN","NAN","NAN","NAN","NAN"],
    [1567622,"2026-08-21 20:40:00","4375","3.83","114.7","6.174","120.5","NAN","NAN","NAN","NAN","NAN"],
    [1567623,"2026-08-21 20:50:00","4376","3.65","110.0","6.174","124","NAN","NAN","NAN","NAN","NAN"],
    [1567624,"2026-08-21 21:00:00","4377","3.593","106.5","6.468","124.7","NAN","NAN","NAN","NAN","NAN"],
    [1567625,"2026-08-21 21:10:00","4378","3.279","103.1","6.174","75.78","NAN","NAN","NAN","NAN","NAN"],
    [1567626,"2026-08-21 21:20:00","4379","3.29","110.3","6.272","83.5","NAN","NAN","NAN","NAN","NAN"],
    [1567627,"2026-08-21 21:30:00","4380","3.0","111.8","5.194","112.9","NAN","NAN","NAN","NAN","NAN"],
    [1567628,"2026-08-21 21:40:00","4381","3.18","104.8","5.39","99","NAN","NAN","NAN","NAN","NAN"],
    [1567629,"2026-08-21 21:50:00","4382","3.102","110.9","5.488","99.3","NAN","NAN","NAN","NAN","NAN"],
    [1567630,"2026-08-21 22:00:00","4383","2.345","108.8","5.096","100.6","NAN","NAN","NAN","NAN","NAN"],
    [1567631,"2026-08-21 22:10:00","4384","2.983","106.9","5.39","112.9","NAN","NAN","NAN","NAN","NAN"],
    [1567632,"2026-08-21 22:20:00","4385","3.326","113.4","5.782","131.2","NAN","NAN","NAN","NAN","NAN"],
    [1567633,"2026-08-21 22:30:00","4386","3.008","105.7","5.292","100.5","NAN","NAN","NAN","NAN","NAN"],
    [1567634,"2026-08-21 22:40:00","4387","3.1180000000000003","111.1","5.684","96.8","NAN","NAN","NAN","NAN","NAN"],
    [1567635,"2026-08-21 22:50:00","4388","2.9610000000000003","108.0","5.096","107.4","NAN","NAN","NAN","NAN","NAN"],
    [1567636,"2026-08-21 23:00:00","4389","3.11","107.5","5.096","115.7","NAN","NAN","NAN","NAN","NAN"],
    [1567637,"2026-08-21 23:10:00","4390","3.1660000000000004","105.5","5.978","115.8","NAN","NAN","NAN","NAN","NAN"],
    [1567638,"2026-08-21 23:20:00","4391","3.738","95.0","5.782","83.4","NAN","NAN","NAN","NAN","NAN"],
    [1567639,"2026-08-21 23:30:00","4392","3.056","97.6","4.998","83.5","NAN","NAN","NAN","NAN","NAN"],
    [1567640,"2026-08-21 23:40:00","4393","3.489","96.7","5.586","97.7","NAN","NAN","NAN","NAN","NAN"],
    [1567641,"2026-08-21 23:50:00","4394","3.193","99.1","5.488","82.1","NAN","NAN","NAN","NAN","NAN"],
    [1567642,"2026-08-22 00:00:00","4395","3.677","95.7","6.272","102.1","NAN","NAN","NAN","NAN","NAN"],
    [1567643,"2026-08-22 00:10:00","4396","3.148","89.6","5.586","60.48","NAN","NAN","NAN","NAN","NAN"],
    [1567644,"2026-08-22 00:20:00","4397","3.0589999999999997","84.9","5.194","68.84","NAN","NAN","NAN","NAN","NAN"],
    [1567645,"2026-08-22 00:30:00","4398","3.236","70.94","5.096","56.52","NAN","NAN","NAN","NAN","NAN"],
    [1567646,"2026-08-22 00:40:00","4399","3.4939999999999998","72.91","6.174","72.62","NAN","NAN","NAN","NAN","NAN"],
    [1567647,"2026-08-22 00:50:00","4400","3.8680000000000003","75.59","5.978","65.78","NAN","NAN","NAN","NAN","NAN"],
    [1567648,"2026-08-22 01:00:00","4401","3.1639999999999997","75.81","5.488","56.34","NAN","NAN","NAN","NAN","NAN"],
    [1567649,"2026-08-22 01:10:00","4402","3.293","67.55","5.586","75.73","NAN","NAN","NAN","NAN","NAN"],
    [1567650,"2026-08-22 01:20:00","4403","2.735","79.41","4.704","71.96","NAN","NAN","NAN","NAN","NAN"],
    [1567651,"2026-08-22 01:30:00","4404","3.295","75.51","6.076","64.91","NAN","NAN","NAN","NAN","NAN"],
    [1567652,"2026-08-22 01:40:00","4405","3.53","70.21","8.23","81.2","NAN","NAN","NAN","NAN","NAN"],
    [1567653,"2026-08-22 01:50:00","4406","3.549","74.08","5.488","73.1","NAN","NAN","NAN","NAN","NAN"],
    [1567654,"2026-08-22 02:00:00","4407","3.1710000000000003","73.05","5.194","82.5","NAN","NAN","NAN","NAN","NAN"],
    [1567655,"2026-08-22 02:10:00","4408","2.611","81.5","4.998","74.78","NAN","NAN","NAN","NAN","NAN"],
    [1567656,"2026-08-22 02:20:00","4409","2.915","81.3","5.194","75.86","NAN","NAN","NAN","NAN","NAN"],
    [1567657,"2026-08-22 02:30:00","4410","2.819","88.9","4.508","113.5","NAN","NAN","NAN","NAN","NAN"],
    [1567658,"2026-08-22 02:40:00","4411","2.737","79.88","3.822","74","NAN","NAN","NAN","NAN","NAN"],
    [1567659,"2026-08-22 02:50:00","4412","2.526","82.6","3.822","72.33","NAN","NAN","NAN","NAN","NAN"],
    [1567660,"2026-08-22 03:00:00","4413","2.802","98.8","5.194","93.9","NAN","NAN","NAN","NAN","NAN"],
    [1567661,"2026-08-22 03:10:00","4414","3.105","90.6","5.292","78.41","NAN","NAN","NAN","NAN","NAN"],
    [1567662,"2026-08-22 03:20:00","4415","2.8739999999999997","90.0","6.174","100.6","NAN","NAN","NAN","NAN","NAN"],
    [1567663,"2026-08-22 03:30:00","4416","2.695","90.4","4.606","93.9","NAN","NAN","NAN","NAN","NAN"],
    [1567664,"2026-08-22 03:40:00","4417","3.241","78.72","4.802","97.8","NAN","NAN","NAN","NAN","NAN"],
    [1567665,"2026-08-22 03:50:00","4418","2.7680000000000002","82.4","6.272","66.59","NAN","NAN","NAN","NAN","NAN"],
    [1567666,"2026-08-22 04:00:00","4419","2.668","79.44","4.508","70.78","NAN","NAN","NAN","NAN","NAN"],
    [1567667,"2026-08-22 04:10:00","4420","2.571","77.67","4.214","73.94","NAN","NAN","NAN","NAN","NAN"],
    [1567668,"2026-08-22 04:20:00","4421","2.115","80.2","4.116","66.55","NAN","NAN","NAN","NAN","NAN"],
    [1567669,"2026-08-22 04:30:00","4422","2.1180000000000003","86.3","3.822","91.5","NAN","NAN","NAN","NAN","NAN"],
    [1567670,"2026-08-22 04:40:00","4423","3.02","89.7","4.41","91.7","NAN","NAN","NAN","NAN","NAN"],
    [1567671,"2026-08-22 04:50:00","4424","2.9189999999999996","81.2","4.802","58.46","NAN","NAN","NAN","NAN","NAN"],
    [1567672,"2026-08-22 05:00:00","4425","3.161","90.4","5.39","87.7","NAN","NAN","NAN","NAN","NAN"],
    [1567673,"2026-08-22 05:10:00","4426","3.06","95.4","5.782","102.9","NAN","NAN","NAN","NAN","NAN"],
    [1567674,"2026-08-22 05:20:00","4427","3.165","95.7","4.9","94.1","NAN","NAN","NAN","NAN","NAN"],
    [1567675,"2026-08-22 05:30:00","4428","2.7430000000000003","91.6","4.41","98.7","NAN","NAN","NAN","NAN","NAN"],
    [1567676,"2026-08-22 05:40:00","4429","3.5980000000000003","73.91","5.39","70.22","NAN","NAN","NAN","NAN","NAN"],
    [1567677,"2026-08-22 05:50:00","4430","2.8569999999999998","89.0","4.606","75.47","NAN","NAN","NAN","NAN","NAN"],
    [1567678,"2026-08-22 06:00:00","4431","2.5580000000000003","94.4","4.116","96","NAN","NAN","NAN","NAN","NAN"],
    [1567679,"2026-08-22 06:10:00","4432","3.031","96.9","4.998","107.6","NAN","NAN","NAN","NAN","NAN"],
    [1567680,"2026-08-22 06:20:00","4433","2.8280000000000003","96.5","5.292","117.1","NAN","NAN","NAN","NAN","NAN"],
    [1567681,"2026-08-22 06:30:00","4434","2.8289999999999997","86.1","5.39","60.26","NAN","NAN","NAN","NAN","NAN"],
    [1567682,"2026-08-22 06:40:00","4435","3.195","88.8","5.096","90.2","NAN","NAN","NAN","NAN","NAN"],
    [1567683,"2026-08-22 06:50:00","4436","2.345","98.9","4.116","80.9","NAN","NAN","NAN","NAN","NAN"],
    [1567684,"2026-08-22 07:00:00","4437","2.943","99.6","5.88","103.1","NAN","NAN","NAN","NAN","NAN"],
    [1567685,"2026-08-22 07:10:00","4438","3.04","81.5","5.488","62.83","NAN","NAN","NAN","NAN","NAN"],
    [1567686,"2026-08-22 07:20:00","4439","3.2310000000000003","74.17","5.88","71.38","NAN","NAN","NAN","NAN","NAN"],
    [1567687,"2026-08-22 07:30:00","4440","2.813","77.5","6.566","65.58","NAN","NAN","NAN","NAN","NAN"],
    [1567688,"2026-08-22 07:40:00","4441","2.9760000000000004","67.31","5.39","58.82","NAN","NAN","NAN","NAN","NAN"],
    [1567689,"2026-08-22 07:50:00","4442","3.2319999999999998","59.09","5.782","69.43","NAN","NAN","NAN","NAN","NAN"],
    [1567690,"2026-08-22 08:00:00","4443","3.656","64.55","5.88","68.14","NAN","NAN","NAN","NAN","NAN"],
    [1567691,"2026-08-22 08:10:00","4444","3.3480000000000003","64.56","5.88","70.21","NAN","NAN","NAN","NAN","NAN"],
    [1567692,"2026-08-22 08:20:00","4445","4.0969999999999995","68.08","6.272","67.88","NAN","NAN","NAN","NAN","NAN"],
    [1567693,"2026-08-22 08:30:00","4446","2.932","80.0","5.096","69.34","NAN","NAN","NAN","NAN","NAN"],
    [1567694,"2026-08-22 08:40:00","4447","2.918","79.1","5.292","67.73","NAN","NAN","NAN","NAN","NAN"],
    [1567695,"2026-08-22 08:50:00","4448","2.4290000000000003","87.3","3.92","54.53","NAN","NAN","NAN","NAN","NAN"],
    [1567696,"2026-08-22 09:00:00","4449","2.81","99.4","5.096","93.2","NAN","NAN","NAN","NAN","NAN"],
    [1567697,"2026-08-22 09:10:00","4450","2.883","97.4","4.508","93.1","NAN","NAN","NAN","NAN","NAN"],
    [1567698,"2026-08-22 09:20:00","4451","3.7","95.7","5.488","70.98","NAN","NAN","NAN","NAN","NAN"],
    [1567699,"2026-08-22 09:30:00","4452","3.4419999999999997","82.1","6.272","103.1","NAN","NAN","NAN","NAN","NAN"],
    [1567700,"2026-08-22 09:40:00","4453","3.924","95.9","6.272","97.6","NAN","NAN","NAN","NAN","NAN"],
    [1567701,"2026-08-22 09:50:00","4454","3.7439999999999998","102.7","6.468","99.1","NAN","NAN","NAN","NAN","NAN"],
    [1567702,"2026-08-22 10:00:00","4455","3.742","101.3","6.076","94.7","NAN","NAN","NAN","NAN","NAN"],
    [1567703,"2026-08-22 10:10:00","4456","4.01","73.2","6.664","70.19","NAN","NAN","NAN","NAN","NAN"],
    [1567704,"2026-08-22 10:20:00","4457","3.215","90.0","4.998","99.5","NAN","NAN","NAN","NAN","NAN"],
    [1567705,"2026-08-22 10:30:00","4458","3.597","89.9","5.88","108","NAN","NAN","NAN","NAN","NAN"],
    [1567706,"2026-08-22 10:40:00","4459","4.08","76.36","6.664","63.77","NAN","NAN","NAN","NAN","NAN"],
    [1567707,"2026-08-22 10:50:00","4460","3.613","75.19","6.468","71.13","NAN","NAN","NAN","NAN","NAN"],
    [1567708,"2026-08-22 11:00:00","4461","3.846","89.3","5.684","71.45","NAN","NAN","NAN","NAN","NAN"],
    [1567709,"2026-08-22 11:10:00","4462","3.674","90.6","5.488","102.1","NAN","NAN","NAN","NAN","NAN"],
    [1567710,"2026-08-22 11:20:00","4463","3.136","92.5","5.292","93.5","NAN","NAN","NAN","NAN","NAN"],
    [1567711,"2026-08-22 11:30:00","4464","3.1289999999999996","93.3","5.194","69.14","NAN","NAN","NAN","NAN","NAN"],
    [1567712,"2026-08-22 11:40:00","4465","3.642","98.0","5.488","80.5","NAN","NAN","NAN","NAN","NAN"],
    [1567713,"2026-08-22 11:50:00","4466","3.59","101.8","5.488","102","NAN","NAN","NAN","NAN","NAN"],
    [1567714,"2026-08-22 12:00:00","4467","3.4989999999999997","106.5","5.782","85.6","NAN","NAN","NAN","NAN","NAN"],
    [1567715,"2026-08-22 12:10:00","4468","3.071","102.8","4.9","92.2","NAN","NAN","NAN","NAN","NAN"],
    [1567716,"2026-08-22 12:20:00","4469","3.168","102.2","4.606","92.5","NAN","NAN","NAN","NAN","NAN"],
    [1567717,"2026-08-22 12:30:00","4470","3.136","102.7","5.488","87.3","NAN","NAN","NAN","NAN","NAN"],
    [1567718,"2026-08-22 12:40:00","4471","2.958","88.8","4.998","75.39","NAN","NAN","NAN","NAN","NAN"],
    [1567719,"2026-08-22 12:50:00","4472","3.053","102.8","5.096","121.5","NAN","NAN","NAN","NAN","NAN"],
    [1567720,"2026-08-22 13:00:00","4473","2.931","96.0","5.586","88.1","NAN","NAN","NAN","NAN","NAN"],
    [1567721,"2026-08-22 13:10:00","4474","3.322","95.6","5.292","86.7","NAN","NAN","NAN","NAN","NAN"],
    [1567722,"2026-08-22 13:20:00","4475","2.895","112.5","4.998","101.8","NAN","NAN","NAN","NAN","NAN"],
    [1567723,"2026-08-22 13:30:00","4476","3.2439999999999998","106.1","5.39","123.8","NAN","NAN","NAN","NAN","NAN"],
    [1567724,"2026-08-22 13:40:00","4477","3.616","124.6","5.39","123.8","NAN","NAN","NAN","NAN","NAN"],
    [1567725,"2026-08-22 13:50:00","4478","3.4619999999999997","114.7","5.488","128.2","NAN","NAN","NAN","NAN","NAN"],
    [1567726,"2026-08-22 14:00:00","4479","3.467","115.0","4.802","114.3","NAN","NAN","NAN","NAN","NAN"],
    [1567727,"2026-08-22 14:10:00","4480","3.525","131.7","5.684","139.8","NAN","NAN","NAN","NAN","NAN"],
    [1567728,"2026-08-22 14:20:00","4481","3.603","127.5","5.88","133.1","NAN","NAN","NAN","NAN","NAN"],
    [1567729,"2026-08-22 14:30:00","4482","3.238","118.5","4.802","101.4","NAN","NAN","NAN","NAN","NAN"],
    [1567730,"2026-08-22 14:40:00","4483","3.093","104.7","4.9","91.6","NAN","NAN","NAN","NAN","NAN"],
    [1567731,"2026-08-22 14:50:00","4484","3.272","116.9","4.9","136.5","NAN","NAN","NAN","NAN","NAN"],
    [1567732,"2026-08-22 15:00:00","4485","3.0260000000000002","128.6","4.9","149.4","NAN","NAN","NAN","NAN","NAN"],
    [1567733,"2026-08-22 15:10:00","4486","3.1460000000000004","123.4","5.194","136.8","NAN","NAN","NAN","NAN","NAN"],
    [1567734,"2026-08-22 15:20:00","4487","3.076","116.9","4.802","113.8","NAN","NAN","NAN","NAN","NAN"],
    [1567735,"2026-08-22 15:30:00","4488","2.963","121.1","5.194","132.5","NAN","NAN","NAN","NAN","NAN"],
    [1567736,"2026-08-22 15:40:00","4489","3.09","114.9","4.704","104.1","NAN","NAN","NAN","NAN","NAN"],
    [1567737,"2026-08-22 15:50:00","4490","2.877","122.0","5.292","140.6","NAN","NAN","NAN","NAN","NAN"],
    [1567738,"2026-08-22 16:00:00","4491","2.955","133.2","4.998","138.1","NAN","NAN","NAN","NAN","NAN"],
    [1567739,"2026-08-22 16:10:00","4492","3.014","120.1","4.116","109.2","NAN","NAN","NAN","NAN","NAN"],
    [1567740,"2026-08-22 16:20:00","4493","2.8989999999999996","127.4","5.782","149.2","NAN","NAN","NAN","NAN","NAN"],
    [1567741,"2026-08-22 16:30:00","4494","2.525","127.2","4.116","143.9","NAN","NAN","NAN","NAN","NAN"],
    [1567742,"2026-08-22 16:40:00","4495","2.6010000000000004","130.0","4.116","149.1","NAN","NAN","NAN","NAN","NAN"],
    [1567743,"2026-08-22 16:50:00","4496","2.4819999999999998","116.0","3.92","110.2","NAN","NAN","NAN","NAN","NAN"],
    [1567744,"2026-08-22 17:00:00","4497","2.735","122.7","4.214","137.4","NAN","NAN","NAN","NAN","NAN"],
    [1567745,"2026-08-22 17:10:00","4498","2.695","105.6","4.606","93.5","NAN","NAN","NAN","NAN","NAN"],
    [1567746,"2026-08-22 17:20:00","4499","1.954","118.3","3.234","109.9","NAN","NAN","NAN","NAN","NAN"],
    [1567747,"2026-08-22 17:30:00","4500","2.125","126.8","4.312","143","NAN","NAN","NAN","NAN","NAN"],
    [1567748,"2026-08-22 17:40:00","4501","2.135","120.4","3.332","136","NAN","NAN","NAN","NAN","NAN"],
    [1567749,"2026-08-22 17:50:00","4502","1.786","99.2","3.822","111.4","NAN","NAN","NAN","NAN","NAN"],
    [1567750,"2026-08-22 18:00:00","4503","1.33","109.8","2.842","110.5","NAN","NAN","NAN","NAN","NAN"],
    [1567751,"2026-08-22 18:10:00","4504","1.219","108.3","2.45","115.2","NAN","NAN","NAN","NAN","NAN"],
    [1567752,"2026-08-22 18:20:00","4505","0.905","116.7","1.96","105.7","NAN","NAN","NAN","NAN","NAN"],
    [1567753,"2026-08-22 18:30:00","4506","0.638","121.7","1.764","123","NAN","NAN","NAN","NAN","NAN"],
    [1567754,"2026-08-22 18:40:00","4507","1.206","114.2","2.352","123.1","NAN","NAN","NAN","NAN","NAN"],
    [1567755,"2026-08-22 18:50:00","4508","1.379","119.9","2.352","112.9","NAN","NAN","NAN","NAN","NAN"],
    [1567756,"2026-08-22 19:00:00","4509","1.3869999999999998","121.6","2.254","127.2","NAN","NAN","NAN","NAN","NAN"],
    [1567757,"2026-08-22 19:10:00","4510","1.195","122.7","1.96","132.6","NAN","NAN","NAN","NAN","NAN"],
    [1567758,"2026-08-22 19:20:00","4511","1.6340000000000001","132.3","2.548","133.3","NAN","NAN","NAN","NAN","NAN"],
    [1567759,"2026-08-22 19:30:00","4512","1.7919999999999998","126.7","2.548","133.8","NAN","NAN","NAN","NAN","NAN"],
    [1567760,"2026-08-22 19:40:00","4513","1.178","125.2","1.862","133.6","NAN","NAN","NAN","NAN","NAN"],
    [1567761,"2026-08-22 19:50:00","4514","1.042","114.8","2.156","107.7","NAN","NAN","NAN","NAN","NAN"],
    [1567762,"2026-08-22 20:00:00","4515","1.275","110.5","2.058","114.9","NAN","NAN","NAN","NAN","NAN"],
    [1567763,"2026-08-22 20:10:00","4516","0.946","107.6","1.666","115.1","NAN","NAN","NAN","NAN","NAN"],
    [1567764,"2026-08-22 20:20:00","4517","0.932","107.7","2.254","106.1","NAN","NAN","NAN","NAN","NAN"],
    [1567765,"2026-08-22 20:30:00","4518","1.301","118.6","2.254","117.8","NAN","NAN","NAN","NAN","NAN"],
    [1567766,"2026-08-22 20:40:00","4519","1.225","114.0","2.548","130.2","NAN","NAN","NAN","NAN","NAN"],
    [1567767,"2026-08-22 20:50:00","4520","0.754","113.6","1.666","117.5","NAN","NAN","NAN","NAN","NAN"],
    [1567768,"2026-08-22 21:00:00","4521","1.041","112.9","1.96","117.8","NAN","NAN","NAN","NAN","NAN"],
    [1567769,"2026-08-22 21:10:00","4522","0.48100000000000004","106.9","1.372","106.1","NAN","NAN","NAN","NAN","NAN"],
    [1567770,"2026-08-22 21:20:00","4523","0.261","106.2","1.176","106.1","NAN","NAN","NAN","NAN","NAN"],
    [1567771,"2026-08-22 21:30:00","4524","0.0","0.0","0","111.9","NAN","NAN","NAN","NAN","NAN"],
    [1567772,"2026-08-22 21:40:00","4525","0.39299999999999996","106.3","1.274","106","NAN","NAN","NAN","NAN","NAN"],
    [1567773,"2026-08-22 21:50:00","4526","0.522","106.1","1.274","105.9","NAN","NAN","NAN","NAN","NAN"],
    [1567774,"2026-08-22 22:00:00","4527","0.6609999999999999","108.0","1.274","111","NAN","NAN","NAN","NAN","NAN"],
    [1567775,"2026-08-22 22:10:00","4528","0.13699999999999998","105.9","0.49","105.9","NAN","NAN","NAN","NAN","NAN"],
    [1567776,"2026-08-22 22:20:00","4529","0.08","105.9","0.588","105.9","NAN","NAN","NAN","NAN","NAN"],
    [1567777,"2026-08-22 22:30:00","4530","0.033","105.9","0.392","105.9","NAN","NAN","NAN","NAN","NAN"],
    [1567778,"2026-08-22 22:40:00","4531","0.037000000000000005","105.9","0.392","105.9","NAN","NAN","NAN","NAN","NAN"],
    [1567779,"2026-08-22 22:50:00","4532","0.013000000000000001","105.9","0.196","105.9","NAN","NAN","NAN","NAN","NAN"],
    [1567780,"2026-08-22 23:00:00","4533","0.53","106.2","1.274","111.8","NAN","NAN","NAN","NAN","NAN"],
    [1567781,"2026-08-22 23:10:00","4534","1.087","106.5","1.666","105.4","NAN","NAN","NAN","NAN","NAN"],
    [1567782,"2026-08-22 23:20:00","4535","0.721","105.1","1.176","105.1","NAN","NAN","NAN","NAN","NAN"],
    [1567783,"2026-08-22 23:30:00","4536","0.66","105.1","1.078","105.1","NAN","NAN","NAN","NAN","NAN"],
    [1567784,"2026-08-22 23:40:00","4537","0.406","105.0","0.882","105.1","NAN","NAN","NAN","NAN","NAN"],
    [1567785,"2026-08-22 23:50:00","4538","0.35100000000000003","105.0","0.784","104.9","NAN","NAN","NAN","NAN","NAN"],
    [1567786,"2026-08-23 00:00:00","4539","0.19","104.9","0.588","104.9","NAN","NAN","NAN","NAN","NAN"],
    [1567787,"2026-08-23 00:10:00","4540","0.26","104.9","0.882","104.9","NAN","NAN","NAN","NAN","NAN"],
    [1567788,"2026-08-23 00:20:00","4541","0.435","104.9","0.882","104.9","NAN","NAN","NAN","NAN","NAN"],
    [1567789,"2026-08-23 00:30:00","4542","0.721","104.8","1.078","104.8","NAN","NAN","NAN","NAN","NAN"],
    [1567790,"2026-08-23 00:40:00","4543","0.42","104.5","0.98","104.8","NAN","NAN","NAN","NAN","NAN"],
    [1567791,"2026-08-23 00:50:00","4544","0.49700000000000005","103.9","1.078","103.9","NAN","NAN","NAN","NAN","NAN"],
    [1567792,"2026-08-23 01:00:00","4545","0.882","104.2","1.372","103.9","NAN","NAN","NAN","NAN","NAN"],
    [1567793,"2026-08-23 01:10:00","4546","0.987","120.5","1.372","120","NAN","NAN","NAN","NAN","NAN"],
    [1567794,"2026-08-23 01:20:00","4547","0.564","121.4","0.98","121.4","NAN","NAN","NAN","NAN","NAN"],
    [1567795,"2026-08-23 01:30:00","4548","0.8320000000000001","121.5","1.176","121.5","NAN","NAN","NAN","NAN","NAN"],
    [1567796,"2026-08-23 01:40:00","4549","1.314","121.9","2.156","122.6","NAN","NAN","NAN","NAN","NAN"],
    [1567797,"2026-08-23 01:50:00","4550","1.247","129.0","2.058","127.4","NAN","NAN","NAN","NAN","NAN"],
    [1567798,"2026-08-23 02:00:00","4551","0.9159999999999999","211.8","1.862","132.4","NAN","NAN","NAN","NAN","NAN"],
    [1567799,"2026-08-23 02:10:00","4552","1.406","252.3","2.058","250.6","NAN","NAN","NAN","NAN","NAN"],
    [1567800,"2026-08-23 02:20:00","4553","1.675","268.0","2.842","271.4","NAN","NAN","NAN","NAN","NAN"],
    [1567801,"2026-08-23 02:30:00","4554","2.208","283.7","3.136","283.9","NAN","NAN","NAN","NAN","NAN"],
    [1567802,"2026-08-23 02:40:00","4555","1.546","285.3","2.352","287.8","NAN","NAN","NAN","NAN","NAN"],
    [1567803,"2026-08-23 02:50:00","4556","1.357","288.9","2.548","291.9","NAN","NAN","NAN","NAN","NAN"],
    [1567804,"2026-08-23 03:00:00","4557","1.403","293.8","2.45","293.9","NAN","NAN","NAN","NAN","NAN"],
    [1567805,"2026-08-23 03:10:00","4558","0.9620000000000001","286.4","1.568","281","NAN","NAN","NAN","NAN","NAN"],
    [1567806,"2026-08-23 03:20:00","4559","0.9640000000000001","281.5","1.47","281.2","NAN","NAN","NAN","NAN","NAN"],
    [1567807,"2026-08-23 03:30:00","4560","0.55","288.7","1.078","285.7","NAN","NAN","NAN","NAN","NAN"],
    [1567808,"2026-08-23 03:40:00","4561","0.929","284.5","1.666","293","NAN","NAN","NAN","NAN","NAN"],
    [1567809,"2026-08-23 03:50:00","4562","1.537","286.6","2.352","285.1","NAN","NAN","NAN","NAN","NAN"],
    [1567810,"2026-08-23 04:00:00","4563","1.4380000000000002","285.6","2.45","287.4","NAN","NAN","NAN","NAN","NAN"],
    [1567811,"2026-08-23 04:10:00","4564","1.663","285.1","2.646","281.1","NAN","NAN","NAN","NAN","NAN"],
    [1567812,"2026-08-23 04:20:00","4565","1.531","283.8","2.352","290.4","NAN","NAN","NAN","NAN","NAN"],
    [1567813,"2026-08-23 04:30:00","4566","1.492","286.5","2.352","283.3","NAN","NAN","NAN","NAN","NAN"],
    [1567814,"2026-08-23 04:40:00","4567","1.227","291.7","1.764","291.7","NAN","NAN","NAN","NAN","NAN"],
    [1567815,"2026-08-23 04:50:00","4568","1.002","288.1","1.764","287.4","NAN","NAN","NAN","NAN","NAN"],
    [1567816,"2026-08-23 05:00:00","4569","1.426","283.9","2.058","290.8","NAN","NAN","NAN","NAN","NAN"],
    [1567817,"2026-08-23 05:10:00","4570","1.726","280.2","2.646","283","NAN","NAN","NAN","NAN","NAN"],
    [1567818,"2026-08-23 05:20:00","4571","1.743","279.5","2.744","280","NAN","NAN","NAN","NAN","NAN"],
    [1567819,"2026-08-23 05:30:00","4572","2.028","285.0","3.136","279.7","NAN","NAN","NAN","NAN","NAN"],
    [1567820,"2026-08-23 05:40:00","4573","1.899","284.5","2.94","293.1","NAN","NAN","NAN","NAN","NAN"],
    [1567821,"2026-08-23 05:50:00","4574","1.605","279.6","2.254","280.1","NAN","NAN","NAN","NAN","NAN"],
    [1567822,"2026-08-23 06:00:00","4575","1.7919999999999998","280.4","2.646","289.1","NAN","NAN","NAN","NAN","NAN"],
    [1567823,"2026-08-23 06:10:00","4576","1.651","283.7","2.744","288.2","NAN","NAN","NAN","NAN","NAN"],
    [1567824,"2026-08-23 06:20:00","4577","1.028","283.5","1.764","292","NAN","NAN","NAN","NAN","NAN"],
    [1567825,"2026-08-23 06:30:00","4578","1.546","281.6","2.352","273.1","NAN","NAN","NAN","NAN","NAN"],
    [1567826,"2026-08-23 06:40:00","4579","1.614","282.5","2.156","277.6","NAN","NAN","NAN","NAN","NAN"],
    [1567827,"2026-08-23 06:50:00","4580","1.298","282.5","2.45","275.7","NAN","NAN","NAN","NAN","NAN"],
    [1567828,"2026-08-23 07:00:00","4581","1.192","277.3","1.96","271.5","NAN","NAN","NAN","NAN","NAN"],
    [1567829,"2026-08-23 07:10:00","4582","1.2229999999999999","281.7","1.568","274","NAN","NAN","NAN","NAN","NAN"],
    [1567830,"2026-08-23 07:20:00","4583","1.194","280.3","2.254","271.1","NAN","NAN","NAN","NAN","NAN"],
    [1567831,"2026-08-23 07:30:00","4584","0.802","292.8","1.666","292.9","NAN","NAN","NAN","NAN","NAN"],
    [1567832,"2026-08-23 07:40:00","4585","0.972","290.1","1.862","293.2","NAN","NAN","NAN","NAN","NAN"],
    [1567833,"2026-08-23 07:50:00","4586","0.7829999999999999","266.6","2.254","279.6","NAN","NAN","NAN","NAN","NAN"],
    [1567834,"2026-08-23 08:00:00","4587","0.027999999999999997","259.7","0.294","259.7","NAN","NAN","NAN","NAN","NAN"],
    [1567835,"2026-08-23 08:10:00","4588","0.888","159.4","1.862","141.3","NAN","NAN","NAN","NAN","NAN"],
    [1567836,"2026-08-23 08:20:00","4589","1.571","138.4","2.352","137","NAN","NAN","NAN","NAN","NAN"],
    [1567837,"2026-08-23 08:30:00","4590","1.7409999999999999","127.2","2.744","104.6","NAN","NAN","NAN","NAN","NAN"],
    [1567838,"2026-08-23 08:40:00","4591","2.325","108.5","3.626","108.9","NAN","NAN","NAN","NAN","NAN"],
    [1567839,"2026-08-23 08:50:00","4592","2.3169999999999997","107.4","3.234","112.6","NAN","NAN","NAN","NAN","NAN"],
    [1567840,"2026-08-23 09:00:00","4593","2.542","116.8","3.822","116.7","NAN","NAN","NAN","NAN","NAN"],
    [1567841,"2026-08-23 09:10:00","4594","2.42","122.6","3.724","124.9","NAN","NAN","NAN","NAN","NAN"],
    [1567842,"2026-08-23 09:20:00","4595","2.562","118.9","3.626","116.3","NAN","NAN","NAN","NAN","NAN"],
    [1567843,"2026-08-23 09:30:00","4596","2.677","120.7","3.626","113.3","NAN","NAN","NAN","NAN","NAN"],
    [1567844,"2026-08-23 09:40:00","4597","3.116","128.8","4.312","132.8","NAN","NAN","NAN","NAN","NAN"],
    [1567845,"2026-08-23 09:50:00","4598","3.4330000000000003","127.6","4.998","140.8","NAN","NAN","NAN","NAN","NAN"],
    [1567846,"2026-08-23 10:00:00","4599","3.359","130.1","4.9","138.1","NAN","NAN","NAN","NAN","NAN"],
    [1567847,"2026-08-23 10:10:00","4600","3.4960000000000004","138.0","5.586","129.9","NAN","NAN","NAN","NAN","NAN"],
    [1567848,"2026-08-23 10:20:00","4601","3.5589999999999997","138.2","5.39","136.8","NAN","NAN","NAN","NAN","NAN"],
    [1567849,"2026-08-23 10:30:00","4602","3.929","143.6","5.978","135.6","NAN","NAN","NAN","NAN","NAN"],
    [1567850,"2026-08-23 10:40:00","4603","3.8339999999999996","140.3","5.586","136.2","NAN","NAN","NAN","NAN","NAN"],
    [1567851,"2026-08-23 10:50:00","4604","4.086","158.7","5.684","167.3","NAN","NAN","NAN","NAN","NAN"],
    [1567852,"2026-08-23 11:00:00","4605","3.965","160.6","5.782","168.3","NAN","NAN","NAN","NAN","NAN"],
    [1567853,"2026-08-23 11:10:00","4606","4.292","150.7","5.88","157.6","NAN","NAN","NAN","NAN","NAN"],
    [1567854,"2026-08-23 11:20:00","4607","4.388999999999999","143.0","5.88","148.8","NAN","NAN","NAN","NAN","NAN"],
    [1567855,"2026-08-23 11:30:00","4608","3.909","161.2","5.782","135.6","NAN","NAN","NAN","NAN","NAN"],
    [1567856,"2026-08-23 11:40:00","4609","3.6430000000000002","168.9","5.978","146.3","NAN","NAN","NAN","NAN","NAN"],
    [1567857,"2026-08-23 11:50:00","4610","3.957","168.4","6.762","181.8","NAN","NAN","NAN","NAN","NAN"],
    [1567858,"2026-08-23 12:00:00","4611","3.93","169.8","6.272","169.6","NAN","NAN","NAN","NAN","NAN"],
    [1567859,"2026-08-23 12:10:00","4612","3.665","168.0","5.684","152.6","NAN","NAN","NAN","NAN","NAN"],
    [1567860,"2026-08-23 12:20:00","4613","3.3930000000000002","172.1","5.586","170.7","NAN","NAN","NAN","NAN","NAN"],
    [1567861,"2026-08-23 12:30:00","4614","2.925","178.1","5.684","153.5","NAN","NAN","NAN","NAN","NAN"],
    [1567862,"2026-08-23 12:40:00","4615","3.9939999999999998","161.1","6.272","173.2","NAN","NAN","NAN","NAN","NAN"],
    [1567863,"2026-08-23 12:50:00","4616","3.302","166.8","5.978","155.4","NAN","NAN","NAN","NAN","NAN"],
    [1567864,"2026-08-23 13:00:00","4617","4.24","139.2","6.37","153.5","NAN","NAN","NAN","NAN","NAN"],
    [1567865,"2026-08-23 13:10:00","4618","3.46","135.9","5.39","152.4","NAN","NAN","NAN","NAN","NAN"],
    [1567866,"2026-08-23 13:20:00","4619","4.391","157.8","6.566","167.2","NAN","NAN","NAN","NAN","NAN"],
    [1567867,"2026-08-23 13:30:00","4620","3.935","163.0","5.978","146.9","NAN","NAN","NAN","NAN","NAN"],
    [1567868,"2026-08-23 13:40:00","4621","4.198","166.4","6.566","164.3","NAN","NAN","NAN","NAN","NAN"],
    [1567869,"2026-08-23 13:50:00","4622","4.66","148.8","6.468","159.6","NAN","NAN","NAN","NAN","NAN"],
    [1567870,"2026-08-23 14:00:00","4623","4.841","152.3","8.23","166.8","NAN","NAN","NAN","NAN","NAN"],
    [1567871,"2026-08-23 14:10:00","4624","4.45","163.3","7.154","160.4","NAN","NAN","NAN","NAN","NAN"],
    [1567872,"2026-08-23 14:20:00","4625","4.7780000000000005","170.5","7.252","161.5","NAN","NAN","NAN","NAN","NAN"],
    [1567873,"2026-08-23 14:30:00","4626","5.075","156.2","7.644","146","NAN","NAN","NAN","NAN","NAN"],
    [1567874,"2026-08-23 14:40:00","4627","3.9560000000000004","171.0","6.174","179.6","NAN","NAN","NAN","NAN","NAN"],
    [1567875,"2026-08-23 14:50:00","4628","5.079","174.3","7.84","165.4","NAN","NAN","NAN","NAN","NAN"],
    [1567876,"2026-08-23 15:00:00","4629","3.395","189.5","6.566","219.8","NAN","NAN","NAN","NAN","NAN"],
    [1567877,"2026-08-23 15:10:00","4630","3.917","196.3","5.88","189.7","NAN","NAN","NAN","NAN","NAN"],
    [1567878,"2026-08-23 15:20:00","4631","4.0280000000000005","189.0","6.762","191","NAN","NAN","NAN","NAN","NAN"],
    [1567879,"2026-08-23 15:30:00","4632","3.7430000000000003","198.9","6.468","214.6","NAN","NAN","NAN","NAN","NAN"],
    [1567880,"2026-08-23 15:40:00","4633","3.295","188.5","5.978","180.1","NAN","NAN","NAN","NAN","NAN"],
    [1567881,"2026-08-23 15:50:00","4634","3.5839999999999996","195.4","5.88","213.2","NAN","NAN","NAN","NAN","NAN"],
    [1567882,"2026-08-23 16:00:00","4635","3.52","200.1","5.978","221.2","NAN","NAN","NAN","NAN","NAN"],
    [1567883,"2026-08-23 16:10:00","4636","3.397","189.7","5.782","196.9","NAN","NAN","NAN","NAN","NAN"],
    [1567884,"2026-08-23 16:20:00","4637","3.287","194.1","5.782","175.3","NAN","NAN","NAN","NAN","NAN"],
    [1567885,"2026-08-23 16:30:00","4638","3.208","178.6","5.292","173.7","NAN","NAN","NAN","NAN","NAN"],
    [1567886,"2026-08-23 16:40:00","4639","3.261","180.0","5.194","167.3","NAN","NAN","NAN","NAN","NAN"],
    [1567887,"2026-08-23 16:50:00","4640","3.285","178.8","5.586","188.8","NAN","NAN","NAN","NAN","NAN"],
    [1567888,"2026-08-23 17:00:00","4641","2.674","178.9","4.998","160.5","NAN","NAN","NAN","NAN","NAN"],
    [1567889,"2026-08-23 17:10:00","4642","2.7569999999999997","175.3","5.194","154.4","NAN","NAN","NAN","NAN","NAN"],
    [1567890,"2026-08-23 17:20:00","4643","2.945","207.9","4.116","200.7","NAN","NAN","NAN","NAN","NAN"],
    [1567891,"2026-08-23 17:30:00","4644","2.574","211.1","4.606","210","NAN","NAN","NAN","NAN","NAN"],
    [1567892,"2026-08-23 17:40:00","4645","1.912","199.1","3.528","198.7","NAN","NAN","NAN","NAN","NAN"],
    [1567893,"2026-08-23 17:50:00","4646","2.0980000000000003","194.4","3.822","199.8","NAN","NAN","NAN","NAN","NAN"],
    [1567894,"2026-08-23 18:00:00","4647","2.4019999999999997","187.0","4.508","159.8","NAN","NAN","NAN","NAN","NAN"],
    [1567895,"2026-08-23 18:10:00","4648","2.066","182.8","3.43","165.5","NAN","NAN","NAN","NAN","NAN"],
    [1567896,"2026-08-23 18:20:00","4649","2.079","200.8","4.312","217.8","NAN","NAN","NAN","NAN","NAN"],
    [1567897,"2026-08-23 18:30:00","4650","1.96","188.7","3.822","200.7","NAN","NAN","NAN","NAN","NAN"],
    [1567898,"2026-08-23 18:40:00","4651","2.13","175.0","3.92","167.3","NAN","NAN","NAN","NAN","NAN"],
    [1567899,"2026-08-23 18:50:00","4652","1.819","180.2","3.43","166.2","NAN","NAN","NAN","NAN","NAN"],
    [1567900,"2026-08-23 19:00:00","4653","1.294","181.6","2.842","169.5","NAN","NAN","NAN","NAN","NAN"],
    [1567901,"2026-08-23 19:10:00","4654","1.0170000000000001","192.0","2.254","194","NAN","NAN","NAN","NAN","NAN"],
    [1567902,"2026-08-23 19:20:00","4655","0.828","211.4","1.862","208.9","NAN","NAN","NAN","NAN","NAN"],
    [1567903,"2026-08-23 19:30:00","4656","0.998","229.7","1.666","232","NAN","NAN","NAN","NAN","NAN"],
    [1567904,"2026-08-23 19:40:00","4657","0.775","231.6","1.568","232.2","NAN","NAN","NAN","NAN","NAN"],
    [1567905,"2026-08-23 19:50:00","4658","0.889","214.0","1.862","213.3","NAN","NAN","NAN","NAN","NAN"],
    [1567906,"2026-08-23 20:00:00","4659","0.7979999999999999","210.1","1.47","207.5","NAN","NAN","NAN","NAN","NAN"],
    [1567907,"2026-08-23 20:10:00","4660","0.785","207.0","1.568","207.3","NAN","NAN","NAN","NAN","NAN"],
    [1567908,"2026-08-23 20:20:00","4661","0.915","205.8","1.568","205.3","NAN","NAN","NAN","NAN","NAN"],
    [1567909,"2026-08-23 20:30:00","4662","1.354","202.2","2.058","203.4","NAN","NAN","NAN","NAN","NAN"],
    [1567910,"2026-08-23 20:40:00","4663","1.45","187.8","2.548","187.4","NAN","NAN","NAN","NAN","NAN"],
    [1567911,"2026-08-23 20:50:00","4664","1.3119999999999998","185.4","1.96","191.5","NAN","NAN","NAN","NAN","NAN"],
    [1567912,"2026-08-23 21:00:00","4665","0.9690000000000001","190.4","1.764","196.6","NAN","NAN","NAN","NAN","NAN"],
    [1567913,"2026-08-23 21:10:00","4666","1.131","196.8","1.96","193.5","NAN","NAN","NAN","NAN","NAN"],
    [1567914,"2026-08-23 21:20:00","4667","1.038","196.7","1.568","199.7","NAN","NAN","NAN","NAN","NAN"],
    [1567915,"2026-08-23 21:30:00","4668","0.787","192.9","2.058","200.3","NAN","NAN","NAN","NAN","NAN"],
    [1567916,"2026-08-23 21:40:00","4669","0.43700000000000006","196.0","1.274","189.7","NAN","NAN","NAN","NAN","NAN"],
    [1567917,"2026-08-23 21:50:00","4670","0.83","190.1","1.372","188.9","NAN","NAN","NAN","NAN","NAN"],
    [1567918,"2026-08-23 22:00:00","4671","0.72","191.7","1.176","192.3","NAN","NAN","NAN","NAN","NAN"],
    [1567919,"2026-08-23 22:10:00","4672","0.754","199.4","1.274","201.1","NAN","NAN","NAN","NAN","NAN"],
    [1567920,"2026-08-23 22:20:00","4673","0.551","192.5","1.274","190","NAN","NAN","NAN","NAN","NAN"],
    [1567921,"2026-08-23 22:30:00","4674","0.434","194.0","1.176","196.1","NAN","NAN","NAN","NAN","NAN"],
    [1567922,"2026-08-23 22:40:00","4675","0.0","0.0","0","203.4","NAN","NAN","NAN","NAN","NAN"],
    [1567923,"2026-08-23 22:50:00","4676","0.006","204.8","0.196","204.8","NAN","NAN","NAN","NAN","NAN"],
    [1567924,"2026-08-23 23:00:00","4677","0.278","205.3","0.686","205.2","NAN","NAN","NAN","NAN","NAN"],
    [1567925,"2026-08-23 23:10:00","4678","0.006999999999999999","206.5","0.196","206.4","NAN","NAN","NAN","NAN","NAN"],
    [1567926,"2026-08-23 23:20:00","4679","0.0","0.0","0","206.6","NAN","NAN","NAN","NAN","NAN"],
    [1567927,"2026-08-23 23:30:00","4680","0.0","0.0","0","206.8","NAN","NAN","NAN","NAN","NAN"],
    [1567928,"2026-08-23 23:40:00","4681","0.0","0.0","0","207.1","NAN","NAN","NAN","NAN","NAN"],
    [1567929,"2026-08-23 23:50:00","4682","0.0","0.0","0","207.1","NAN","NAN","NAN","NAN","NAN"],
    [1567930,"2026-08-24 00:00:00","4683","0.0","0.0","0","207.1","NAN","NAN","NAN","NAN","NAN"],
    [1567931,"2026-08-24 00:10:00","4684","0.053","207.3","0.392","207.3","NAN","NAN","NAN","NAN","NAN"],
    [1567932,"2026-08-24 00:20:00","4685","0.046","208.7","0.392","208.4","NAN","NAN","NAN","NAN","NAN"],
    [1567933,"2026-08-24 00:30:00","4686","0.0","0.0","0","211.1","NAN","NAN","NAN","NAN","NAN"],
    [1567934,"2026-08-24 00:40:00","4687","0.015","211.4","0.196","211.4","NAN","NAN","NAN","NAN","NAN"],
    [1567935,"2026-08-24 00:50:00","4688","0.083","211.4","0.588","211.4","NAN","NAN","NAN","NAN","NAN"],
    [1567936,"2026-08-24 01:00:00","4689","0.21","211.5","0.686","211.5","NAN","NAN","NAN","NAN","NAN"],
    [1567937,"2026-08-24 01:10:00","4690","0.061","211.5","0.686","211.5","NAN","NAN","NAN","NAN","NAN"],
    [1567938,"2026-08-24 01:20:00","4691","0.016","211.5","0.686","211.5","NAN","NAN","NAN","NAN","NAN"],
    [1567939,"2026-08-24 01:30:00","4692","0.006999999999999999","211.5","0.196","211.5","NAN","NAN","NAN","NAN","NAN"],
    [1567940,"2026-08-24 01:40:00","4693","0.0","0.0","0","211.6","NAN","NAN","NAN","NAN","NAN"],
    [1567941,"2026-08-24 01:50:00","4694","0.053","212.2","0.294","212.2","NAN","NAN","NAN","NAN","NAN"],
    [1567942,"2026-08-24 02:00:00","4695","0.29","212.3","0.588","212.3","NAN","NAN","NAN","NAN","NAN"],
    [1567943,"2026-08-24 02:10:00","4696","0.003","212.3","0.196","212.3","NAN","NAN","NAN","NAN","NAN"],
    [1567944,"2026-08-24 02:20:00","4697","0.047","212.5","0.392","212.5","NAN","NAN","NAN","NAN","NAN"],
    [1567945,"2026-08-24 02:30:00","4698","0.18899999999999997","212.5","0.588","212.5","NAN","NAN","NAN","NAN","NAN"],
    [1567946,"2026-08-24 02:40:00","4699","0.02","212.7","0.196","212.7","NAN","NAN","NAN","NAN","NAN"],
    [1567947,"2026-08-24 02:50:00","4700","0.102","212.8","0.392","212.7","NAN","NAN","NAN","NAN","NAN"],
    [1567948,"2026-08-24 03:00:00","4701","0.051","214.2","0.49","214.3","NAN","NAN","NAN","NAN","NAN"],
    [1567949,"2026-08-24 03:10:00","4702","0.11900000000000001","214.4","0.588","214.4","NAN","NAN","NAN","NAN","NAN"],
    [1567950,"2026-08-24 03:20:00","4703","0.008","214.5","0.294","214.5","NAN","NAN","NAN","NAN","NAN"],
    [1567951,"2026-08-24 03:30:00","4704","0.008","214.5","0.294","214.5","NAN","NAN","NAN","NAN","NAN"],
    [1567952,"2026-08-24 03:40:00","4705","0.13699999999999998","214.5","0.784","214.5","NAN","NAN","NAN","NAN","NAN"],
    [1567953,"2026-08-24 03:50:00","4706","0.6559999999999999","215.6","1.274","214.8","NAN","NAN","NAN","NAN","NAN"],
    [1567954,"2026-08-24 04:00:00","4707","0.485","221.2","1.274","220.8","NAN","NAN","NAN","NAN","NAN"],
    [1567955,"2026-08-24 04:10:00","4708","0.54","225.3","0.98","222.9","NAN","NAN","NAN","NAN","NAN"],
    [1567956,"2026-08-24 04:20:00","4709","0.8290000000000001","227.9","1.372","230.1","NAN","NAN","NAN","NAN","NAN"],
    [1567957,"2026-08-24 04:30:00","4710","1.193","238.0","1.96","239.1","NAN","NAN","NAN","NAN","NAN"],
    [1567958,"2026-08-24 04:40:00","4711","1.5030000000000001","271.2","2.548","284.9","NAN","NAN","NAN","NAN","NAN"],
    [1567959,"2026-08-24 04:50:00","4712","1.1340000000000001","282.2","1.96","281.3","NAN","NAN","NAN","NAN","NAN"],
    [1567960,"2026-08-24 05:00:00","4713","0.72","281.2","1.274","279.5","NAN","NAN","NAN","NAN","NAN"],
    [1567961,"2026-08-24 05:10:00","4714","0.7609999999999999","287.4","1.568","287.7","NAN","NAN","NAN","NAN","NAN"],
    [1567962,"2026-08-24 05:20:00","4715","0.52","280.7","1.274","276.3","NAN","NAN","NAN","NAN","NAN"],
    [1567963,"2026-08-24 05:30:00","4716","0.8490000000000001","281.6","1.47","277.6","NAN","NAN","NAN","NAN","NAN"],
    [1567964,"2026-08-24 05:40:00","4717","0.574","275.9","1.078","275.8","NAN","NAN","NAN","NAN","NAN"],
    [1567965,"2026-08-24 05:50:00","4718","0.8640000000000001","274.2","1.862","273.4","NAN","NAN","NAN","NAN","NAN"],
    [1567966,"2026-08-24 06:00:00","4719","1.53","275.8","2.156","271.6","NAN","NAN","NAN","NAN","NAN"],
    [1567967,"2026-08-24 06:10:00","4720","1.145","288.9","1.862","288.3","NAN","NAN","NAN","NAN","NAN"],
    [1567968,"2026-08-24 06:20:00","4721","0.8029999999999999","290.6","1.666","290.3","NAN","NAN","NAN","NAN","NAN"],
    [1567969,"2026-08-24 06:30:00","4722","0.622","291.2","1.568","291.6","NAN","NAN","NAN","NAN","NAN"],
    [1567970,"2026-08-24 06:40:00","4723","0.278","292.5","1.47","292.3","NAN","NAN","NAN","NAN","NAN"],
    [1567971,"2026-08-24 06:50:00","4724","0.085","292.6","0.588","292.6","NAN","NAN","NAN","NAN","NAN"],
    [1567972,"2026-08-24 07:00:00","4725","0.428","359.0","1.568","32.09","NAN","NAN","NAN","NAN","NAN"],
    [1567973,"2026-08-24 07:10:00","4726","1.053","37.64","2.058","36.71","NAN","NAN","NAN","NAN","NAN"],
    [1567974,"2026-08-24 07:20:00","4727","1.345","62.98","2.94","62.5","NAN","NAN","NAN","NAN","NAN"],
    [1567975,"2026-08-24 07:30:00","4728","1.83","56.27","3.626","28.53","NAN","NAN","NAN","NAN","NAN"],
    [1567976,"2026-08-24 07:40:00","4729","2.285","39.38","3.43","50.67","NAN","NAN","NAN","NAN","NAN"],
    [1567977,"2026-08-24 07:50:00","4730","1.507","53.53","2.646","56.93","NAN","NAN","NAN","NAN","NAN"],
    [1567978,"2026-08-24 08:00:00","4731","1.115","80.1","2.156","77.53","NAN","NAN","NAN","NAN","NAN"],
    [1567979,"2026-08-24 08:10:00","4732","1.474","93.8","2.94","93.2","NAN","NAN","NAN","NAN","NAN"],
    [1567980,"2026-08-24 08:20:00","4733","1.7080000000000002","98.0","2.646","113.8","NAN","NAN","NAN","NAN","NAN"],
    [1567981,"2026-08-24 08:30:00","4734","1.739","104.3","2.646","113.8","NAN","NAN","NAN","NAN","NAN"],
    [1567982,"2026-08-24 08:40:00","4735","1.8259999999999998","109.6","2.744","107.4","NAN","NAN","NAN","NAN","NAN"],
    [1567983,"2026-08-24 08:50:00","4736","2.529","121.2","3.724","133.2","NAN","NAN","NAN","NAN","NAN"],
    [1567984,"2026-08-24 09:00:00","4737","2.45","122.9","3.724","132.2","NAN","NAN","NAN","NAN","NAN"],
    [1567985,"2026-08-24 09:10:00","4738","2.685","113.2","4.018","117","NAN","NAN","NAN","NAN","NAN"],
    [1567986,"2026-08-24 09:20:00","4739","2.775","118.4","4.214","116.3","NAN","NAN","NAN","NAN","NAN"],
    [1567987,"2026-08-24 09:30:00","4740","2.931","122.1","4.116","133.6","NAN","NAN","NAN","NAN","NAN"],
    [1567988,"2026-08-24 09:40:00","4741","2.573","111.5","3.92","122.8","NAN","NAN","NAN","NAN","NAN"],
    [1567989,"2026-08-24 09:50:00","4742","2.494","113.9","3.92","112.9","NAN","NAN","NAN","NAN","NAN"],
    [1567990,"2026-08-24 10:00:00","4743","2.596","101.6","3.626","108.4","NAN","NAN","NAN","NAN","NAN"],
    [1567991,"2026-08-24 10:10:00","4744","2.802","90.7","4.606","76.23","NAN","NAN","NAN","NAN","NAN"],
    [1567992,"2026-08-24 10:20:00","4745","2.115","88.9","4.018","88.3","NAN","NAN","NAN","NAN","NAN"],
    [1567993,"2026-08-24 10:30:00","4746","2.137","93.3","3.724","100.7","NAN","NAN","NAN","NAN","NAN"],
    [1567994,"2026-08-24 10:40:00","4747","2.161","105.1","3.822","90.5","NAN","NAN","NAN","NAN","NAN"],
    [1567995,"2026-08-24 10:50:00","4748","2.37","99.4","4.018","62.16","NAN","NAN","NAN","NAN","NAN"],
    [1567996,"2026-08-24 11:00:00","4749","2.685","116.0","4.116","112.1","NAN","NAN","NAN","NAN","NAN"],
    [1567997,"2026-08-24 11:10:00","4750","2.497","108.3","4.214","137.6","NAN","NAN","NAN","NAN","NAN"],
    [1567998,"2026-08-24 11:20:00","4751","3.1060000000000003","113.2","5.194","99.2","NAN","NAN","NAN","NAN","NAN"],
    [1567999,"2026-08-24 11:30:00","4752","3.142","115.7","5.096","120.2","NAN","NAN","NAN","NAN","NAN"],
    [1568000,"2026-08-24 11:40:00","4753","3.19","113.7","4.802","98.7","NAN","NAN","NAN","NAN","NAN"],
    [1568001,"2026-08-24 11:50:00","4754","2.852","109.1","4.116","123.9","NAN","NAN","NAN","NAN","NAN"],
    [1568002,"2026-08-24 12:00:00","4755","2.8139999999999996","119.2","4.41","137","NAN","NAN","NAN","NAN","NAN"],
    [1568003,"2026-08-24 12:10:00","4756","2.695","101.7","3.92","88.1","NAN","NAN","NAN","NAN","NAN"],
    [1568004,"2026-08-24 12:20:00","4757","2.861","127.4","4.41","120.3","NAN","NAN","NAN","NAN","NAN"],
    [1568005,"2026-08-24 12:30:00","4758","2.71","132.0","4.606","159.9","NAN","NAN","NAN","NAN","NAN"],
    [1568006,"2026-08-24 12:40:00","4759","3.517","127.1","5.194","149.3","NAN","NAN","NAN","NAN","NAN"],
    [1568007,"2026-08-24 12:50:00","4760","3.661","124.3","5.292","134.2","NAN","NAN","NAN","NAN","NAN"],
    [1568008,"2026-08-24 13:00:00","4761","4.118","129.2","5.684","115.2","NAN","NAN","NAN","NAN","NAN"],
    [1568009,"2026-08-24 13:10:00","4762","3.661","131.3","5.194","129.9","NAN","NAN","NAN","NAN","NAN"],
    [1568010,"2026-08-24 13:20:00","4763","3.94","141.4","6.174","154.2","NAN","NAN","NAN","NAN","NAN"],
    [1568011,"2026-08-24 13:30:00","4764","3.755","153.7","6.272","167.2","NAN","NAN","NAN","NAN","NAN"],
    [1568012,"2026-08-24 13:40:00","4765","3.1660000000000004","161.8","4.704","165.7","NAN","NAN","NAN","NAN","NAN"],
    [1568013,"2026-08-24 13:50:00","4766","3.02","156.5","4.998","162.1","NAN","NAN","NAN","NAN","NAN"],
    [1568014,"2026-08-24 14:00:00","4767","2.2680000000000002","200.2","3.822","205.8","NAN","NAN","NAN","NAN","NAN"],
    [1568015,"2026-08-24 14:10:00","4768","1.921","199.9","3.822","209.9","NAN","NAN","NAN","NAN","NAN"],
    [1568016,"2026-08-24 14:20:00","4769","3.1210000000000004","160.9","4.704","156","NAN","NAN","NAN","NAN","NAN"],
    [1568017,"2026-08-24 14:30:00","4770","3.457","150.3","5.684","153","NAN","NAN","NAN","NAN","NAN"],
    [1568018,"2026-08-24 14:40:00","4771","2.456","122.0","4.116","104.6","NAN","NAN","NAN","NAN","NAN"],
    [1568019,"2026-08-24 14:50:00","4772","2.5789999999999997","133.6","3.92","112.2","NAN","NAN","NAN","NAN","NAN"],
    [1568020,"2026-08-24 15:00:00","4773","2.41","145.3","4.312","153.9","NAN","NAN","NAN","NAN","NAN"],
    [1568021,"2026-08-24 15:10:00","4774","3.194","169.2","5.39","157.6","NAN","NAN","NAN","NAN","NAN"],
    [1568022,"2026-08-24 15:20:00","4775","2.454","207.1","5.194","222.4","NAN","NAN","NAN","NAN","NAN"],
    [1568023,"2026-08-24 15:30:00","4776","2.9189999999999996","184.2","4.802","164.3","NAN","NAN","NAN","NAN","NAN"],
    [1568024,"2026-08-24 15:40:00","4777","3.23","181.0","5.586","166.4","NAN","NAN","NAN","NAN","NAN"],
    [1568025,"2026-08-24 15:50:00","4778","2.966","193.4","5.488","195.5","NAN","NAN","NAN","NAN","NAN"],
    [1568026,"2026-08-24 16:00:00","4779","3.195","187.2","7.056","184.5","NAN","NAN","NAN","NAN","NAN"],
    [1568027,"2026-08-24 16:10:00","4780","3.213","189.9","5.782","192.1","NAN","NAN","NAN","NAN","NAN"],
    [1568028,"2026-08-24 16:20:00","4781","2.853","182.7","5.488","160.3","NAN","NAN","NAN","NAN","NAN"],
    [1568029,"2026-08-24 16:30:00","4782","3.0","189.1","5.096","156.9","NAN","NAN","NAN","NAN","NAN"],
    [1568030,"2026-08-24 16:40:00","4783","3.8689999999999998","202.0","7.644","208.7","NAN","NAN","NAN","NAN","NAN"],
    [1568031,"2026-08-24 16:50:00","4784","3.773","227.4","6.272","210.8","NAN","NAN","NAN","NAN","NAN"],
    [1568032,"2026-08-24 17:00:00","4785","4.571000000000001","216.9","7.644","230.5","NAN","NAN","NAN","NAN","NAN"],
    [1568033,"2026-08-24 17:10:00","4786","4.7989999999999995","240.5","9.11","209","NAN","NAN","NAN","NAN","NAN"],
    [1568034,"2026-08-24 17:20:00","4787","6.357","219.3","10.98","222.8","NAN","NAN","NAN","NAN","NAN"],
    [1568035,"2026-08-24 17:30:00","4788","6.441","213.7","9.8","209.1","NAN","NAN","NAN","NAN","NAN"],
    [1568036,"2026-08-24 17:40:00","4789","4.979","196.6","9.21","158.1","NAN","NAN","NAN","NAN","NAN"],
    [1568037,"2026-08-24 17:50:00","4790","4.7","181.4","9.7","158.7","NAN","NAN","NAN","NAN","NAN"],
    [1568038,"2026-08-24 18:00:00","4791","3.2030000000000003","240.0","6.272","176.2","NAN","NAN","NAN","NAN","NAN"],
    [1568039,"2026-08-24 18:10:00","4792","2.841","308.9","5.39","319.3","NAN","NAN","NAN","NAN","NAN"],
    [1568040,"2026-08-24 18:20:00","4793","4.427","282.9","6.86","277.6","NAN","NAN","NAN","NAN","NAN"],
    [1568041,"2026-08-24 18:30:00","4794","4.101","277.0","6.468","283.5","NAN","NAN","NAN","NAN","NAN"],
    [1568042,"2026-08-24 18:40:00","4795","2.8080000000000003","294.2","5.978","276.8","NAN","NAN","NAN","NAN","NAN"],
    [1568043,"2026-08-24 18:50:00","4796","2.589","302.3","4.508","310.2","NAN","NAN","NAN","NAN","NAN"],
    [1568044,"2026-08-24 19:00:00","4797","3.569","281.2","6.076","278","NAN","NAN","NAN","NAN","NAN"],
    [1568045,"2026-08-24 19:10:00","4798","3.6460000000000004","285.4","6.076","295.4","NAN","NAN","NAN","NAN","NAN"],
    [1568046,"2026-08-24 19:20:00","4799","3.7","268.3","6.174","272.8","NAN","NAN","NAN","NAN","NAN"],
    [1568047,"2026-08-24 19:30:00","4800","4.798","260.6","7.644","267.9","NAN","NAN","NAN","NAN","NAN"],
    [1568048,"2026-08-24 19:40:00","4801","3.08","274.2","4.312","273.7","NAN","NAN","NAN","NAN","NAN"],
    [1568049,"2026-08-24 19:50:00","4802","2.74","308.1","5.586","303.8","NAN","NAN","NAN","NAN","NAN"],
    [1568050,"2026-08-24 20:00:00","4803","2.677","299.5","4.41","295.3","NAN","NAN","NAN","NAN","NAN"],
    [1568051,"2026-08-24 20:10:00","4804","1.5619999999999998","287.5","3.332","284.1","NAN","NAN","NAN","NAN","NAN"],
    [1568052,"2026-08-24 20:20:00","4805","1.5030000000000001","289.0","2.744","287.8","NAN","NAN","NAN","NAN","NAN"],
    [1568053,"2026-08-24 20:30:00","4806","1.117","283.5","1.862","283.3","NAN","NAN","NAN","NAN","NAN"],
    [1568054,"2026-08-24 20:40:00","4807","1.534","283.5","2.352","282.2","NAN","NAN","NAN","NAN","NAN"],
    [1568055,"2026-08-24 20:50:00","4808","1.264","282.3","2.058","281.8","NAN","NAN","NAN","NAN","NAN"],
    [1568056,"2026-08-24 21:00:00","4809","1.328","281.2","2.058","281","NAN","NAN","NAN","NAN","NAN"],
    [1568057,"2026-08-24 21:10:00","4810","1.093","281.0","1.862","281","NAN","NAN","NAN","NAN","NAN"],
    [1568058,"2026-08-24 21:20:00","4811","0.342","281.0","0.98","281","NAN","NAN","NAN","NAN","NAN"],
    [1568059,"2026-08-24 21:30:00","4812","0.051","281.0","0.49","281","NAN","NAN","NAN","NAN","NAN"],
    [1568060,"2026-08-24 21:40:00","4813","0.145","281.0","0.686","281","NAN","NAN","NAN","NAN","NAN"],
    [1568061,"2026-08-24 21:50:00","4814","0.249","281.0","0.588","281","NAN","NAN","NAN","NAN","NAN"],
    [1568062,"2026-08-24 22:00:00","4815","0.0","0.0","0","281","NAN","NAN","NAN","NAN","NAN"],
    [1568063,"2026-08-24 22:10:00","4816","0.21899999999999997","281.2","0.784","281.1","NAN","NAN","NAN","NAN","NAN"],
    [1568064,"2026-08-24 22:20:00","4817","0.28300000000000003","302.5","0.98","303.9","NAN","NAN","NAN","NAN","NAN"],
    [1568065,"2026-08-24 22:30:00","4818","0.027999999999999997","303.8","0.392","303.9","NAN","NAN","NAN","NAN","NAN"],
    [1568066,"2026-08-24 22:40:00","4819","0.23199999999999998","301.9","1.078","304","NAN","NAN","NAN","NAN","NAN"],
    [1568067,"2026-08-24 22:50:00","4820","0.17","292.3","0.686","291.7","NAN","NAN","NAN","NAN","NAN"],
    [1568068,"2026-08-24 23:00:00","4821","0.042","304.1","0.294","304.1","NAN","NAN","NAN","NAN","NAN"],
    [1568069,"2026-08-24 23:10:00","4822","0.081","296.8","0.686","293.9","NAN","NAN","NAN","NAN","NAN"],
    [1568070,"2026-08-24 23:20:00","4823","0.125","303.1","0.784","299.9","NAN","NAN","NAN","NAN","NAN"],
    [1568071,"2026-08-24 23:30:00","4824","0.132","302.1","0.98","298.1","NAN","NAN","NAN","NAN","NAN"],
    [1568072,"2026-08-24 23:40:00","4825","0.7809999999999999","300.4","1.176","303.9","NAN","NAN","NAN","NAN","NAN"],
    [1568073,"2026-08-24 23:50:00","4826","0.23800000000000002","297.5","0.784","300.7","NAN","NAN","NAN","NAN","NAN"],
    [1568074,"2026-08-25 00:00:00","4827","0.35100000000000003","299.4","0.588","299.1","NAN","NAN","NAN","NAN","NAN"],
    [1568075,"2026-08-25 00:10:00","4828","0.6859999999999999","298.9","1.372","301.6","NAN","NAN","NAN","NAN","NAN"],
    [1568076,"2026-08-25 00:20:00","4829","0.7090000000000001","304.0","1.372","301.6","NAN","NAN","NAN","NAN","NAN"],
    [1568077,"2026-08-25 00:30:00","4830","1.1340000000000001","293.7","1.862","294.9","NAN","NAN","NAN","NAN","NAN"],
    [1568078,"2026-08-25 00:40:00","4831","1.3619999999999999","286.5","2.156","282.3","NAN","NAN","NAN","NAN","NAN"],
    [1568079,"2026-08-25 00:50:00","4832","1.246","286.7","1.96","284.1","NAN","NAN","NAN","NAN","NAN"],
    [1568080,"2026-08-25 01:00:00","4833","0.358","288.8","0.98","291","NAN","NAN","NAN","NAN","NAN"],
    [1568081,"2026-08-25 01:10:00","4834","0.603","286.5","1.274","287.7","NAN","NAN","NAN","NAN","NAN"],
    [1568082,"2026-08-25 01:20:00","4835","0.728","285.0","1.372","283.8","NAN","NAN","NAN","NAN","NAN"],
    [1568083,"2026-08-25 01:30:00","4836","1.193","281.7","1.666","281.6","NAN","NAN","NAN","NAN","NAN"],
    [1568084,"2026-08-25 01:40:00","4837","1.3459999999999999","281.6","2.156","282.4","NAN","NAN","NAN","NAN","NAN"],
    [1568085,"2026-08-25 01:50:00","4838","1.578","281.5","2.352","280.7","NAN","NAN","NAN","NAN","NAN"],
    [1568086,"2026-08-25 02:00:00","4839","1.963","280.5","2.45","286.2","NAN","NAN","NAN","NAN","NAN"],
    [1568087,"2026-08-25 02:10:00","4840","1.7830000000000001","280.5","2.45","280.9","NAN","NAN","NAN","NAN","NAN"],
    [1568088,"2026-08-25 02:20:00","4841","1.655","284.7","2.254","290.5","NAN","NAN","NAN","NAN","NAN"],
    [1568089,"2026-08-25 02:30:00","4842","1.788","288.5","2.744","289.9","NAN","NAN","NAN","NAN","NAN"],
    [1568090,"2026-08-25 02:40:00","4843","1.091","289.6","1.666","286.1","NAN","NAN","NAN","NAN","NAN"],
    [1568091,"2026-08-25 02:50:00","4844","1.055","283.1","1.568","285.9","NAN","NAN","NAN","NAN","NAN"],
    [1568092,"2026-08-25 03:00:00","4845","1.5","276.2","2.254","274.4","NAN","NAN","NAN","NAN","NAN"],
    [1568093,"2026-08-25 03:10:00","4846","1.452","280.5","2.352","274.1","NAN","NAN","NAN","NAN","NAN"],
    [1568094,"2026-08-25 03:20:00","4847","1.7369999999999999","280.8","2.646","288.2","NAN","NAN","NAN","NAN","NAN"],
    [1568095,"2026-08-25 03:30:00","4848","2.063","281.0","2.94","276.8","NAN","NAN","NAN","NAN","NAN"],
    [1568096,"2026-08-25 03:40:00","4849","1.571","280.2","2.45","277.1","NAN","NAN","NAN","NAN","NAN"],
    [1568097,"2026-08-25 03:50:00","4850","1.32","287.5","2.352","291.7","NAN","NAN","NAN","NAN","NAN"],
    [1568098,"2026-08-25 04:00:00","4851","1.216","292.5","2.744","294","NAN","NAN","NAN","NAN","NAN"],
    [1568099,"2026-08-25 04:10:00","4852","1.225","296.9","2.744","299.3","NAN","NAN","NAN","NAN","NAN"],
    [1568100,"2026-08-25 04:20:00","4853","1.094","285.5","1.96","298.3","NAN","NAN","NAN","NAN","NAN"],
    [1568101,"2026-08-25 04:30:00","4854","2.074","286.4","3.528","292.6","NAN","NAN","NAN","NAN","NAN"],
    [1568102,"2026-08-25 04:40:00","4855","1.7269999999999999","283.5","2.842","290.4","NAN","NAN","NAN","NAN","NAN"],
    [1568103,"2026-08-25 04:50:00","4856","1.4069999999999998","275.1","2.156","275","NAN","NAN","NAN","NAN","NAN"],
    [1568104,"2026-08-25 05:00:00","4857","1.7590000000000001","284.1","2.548","287.4","NAN","NAN","NAN","NAN","NAN"],
    [1568105,"2026-08-25 05:10:00","4858","1.712","284.0","2.646","292.2","NAN","NAN","NAN","NAN","NAN"],
    [1568106,"2026-08-25 05:20:00","4859","1.7630000000000001","280.7","3.136","290.2","NAN","NAN","NAN","NAN","NAN"],
    [1568107,"2026-08-25 05:30:00","4860","2.083","285.5","3.136","290.2","NAN","NAN","NAN","NAN","NAN"],
    [1568108,"2026-08-25 05:40:00","4861","1.73","278.7","2.548","275.5","NAN","NAN","NAN","NAN","NAN"],
    [1568109,"2026-08-25 05:50:00","4862","1.784","276.8","2.45","269.8","NAN","NAN","NAN","NAN","NAN"],
    [1568110,"2026-08-25 06:00:00","4863","2.273","289.2","3.43","290.8","NAN","NAN","NAN","NAN","NAN"],
    [1568111,"2026-08-25 06:10:00","4864","2.5839999999999996","294.5","4.018","291.8","NAN","NAN","NAN","NAN","NAN"],
    [1568112,"2026-08-25 06:20:00","4865","1.819","288.9","2.646","303.2","NAN","NAN","NAN","NAN","NAN"],
    [1568113,"2026-08-25 06:30:00","4866","1.7280000000000002","279.3","2.842","288","NAN","NAN","NAN","NAN","NAN"],
    [1568114,"2026-08-25 06:40:00","4867","2.137","290.1","3.234","291.8","NAN","NAN","NAN","NAN","NAN"],
    [1568115,"2026-08-25 06:50:00","4868","2.8339999999999996","291.9","4.606","295.6","NAN","NAN","NAN","NAN","NAN"],
    [1568116,"2026-08-25 07:00:00","4869","2.778","289.1","4.312","288.2","NAN","NAN","NAN","NAN","NAN"],
    [1568117,"2026-08-25 07:10:00","4870","2.795","284.9","4.116","298.1","NAN","NAN","NAN","NAN","NAN"],
    [1568118,"2026-08-25 07:20:00","4871","2.6860000000000004","279.7","4.606","278","NAN","NAN","NAN","NAN","NAN"],
    [1568119,"2026-08-25 07:30:00","4872","2.696","278.9","4.214","275.3","NAN","NAN","NAN","NAN","NAN"],
    [1568120,"2026-08-25 07:40:00","4873","2.503","270.7","3.528","278.4","NAN","NAN","NAN","NAN","NAN"],
    [1568121,"2026-08-25 07:50:00","4874","2.006","281.2","3.43","267.5","NAN","NAN","NAN","NAN","NAN"],
    [1568122,"2026-08-25 08:00:00","4875","2.425","274.7","3.724","286.7","NAN","NAN","NAN","NAN","NAN"],
    [1568123,"2026-08-25 08:10:00","4876","1.675","278.5","2.744","265.7","NAN","NAN","NAN","NAN","NAN"],
    [1568124,"2026-08-25 08:20:00","4877","2.307","269.4","3.92","282.3","NAN","NAN","NAN","NAN","NAN"],
    [1568125,"2026-08-25 08:30:00","4878","1.819","277.9","3.136","275","NAN","NAN","NAN","NAN","NAN"],
    [1568126,"2026-08-25 08:40:00","4879","2.3369999999999997","292.4","4.998","314.1","NAN","NAN","NAN","NAN","NAN"],
    [1568127,"2026-08-25 08:50:00","4880","2.931","299.6","6.272","288.5","NAN","NAN","NAN","NAN","NAN"],
    [1568128,"2026-08-25 09:00:00","4881","2.209","286.7","4.116","291.2","NAN","NAN","NAN","NAN","NAN"],
    [1568129,"2026-08-25 09:10:00","4882","2.642","281.6","4.998","273","NAN","NAN","NAN","NAN","NAN"],
    [1568130,"2026-08-25 09:20:00","4883","2.574","294.3","4.508","275.7","NAN","NAN","NAN","NAN","NAN"],
    [1568131,"2026-08-25 09:30:00","4884","3.94","315.7","6.076","352.8","NAN","NAN","NAN","NAN","NAN"],
    [1568132,"2026-08-25 09:40:00","4885","3.628","324.1","5.782","309.5","NAN","NAN","NAN","NAN","NAN"],
    [1568133,"2026-08-25 09:50:00","4886","3.576","306.3","6.272","291.6","NAN","NAN","NAN","NAN","NAN"],
    [1568134,"2026-08-25 10:00:00","4887","3.7230000000000003","279.5","6.174","265.3","NAN","NAN","NAN","NAN","NAN"],
    [1568135,"2026-08-25 10:10:00","4888","2.186","272.9","5.096","267.9","NAN","NAN","NAN","NAN","NAN"],
    [1568136,"2026-08-25 10:20:00","4889","1.76","317.2","4.9","337.9","NAN","NAN","NAN","NAN","NAN"],
    [1568137,"2026-08-25 10:30:00","4890","1.6880000000000002","214.4","4.018","170.5","NAN","NAN","NAN","NAN","NAN"],
    [1568138,"2026-08-25 10:40:00","4891","2.383","192.2","5.194","231.1","NAN","NAN","NAN","NAN","NAN"],
    [1568139,"2026-08-25 10:50:00","4892","4.0","182.3","6.174","157.5","NAN","NAN","NAN","NAN","NAN"],
    [1568140,"2026-08-25 11:00:00","4893","4.345","203.2","7.056","214.3","NAN","NAN","NAN","NAN","NAN"],
    [1568141,"2026-08-25 11:10:00","4894","4.256","205.1","7.448","203.3","NAN","NAN","NAN","NAN","NAN"],
    [1568142,"2026-08-25 11:20:00","4895","4.2010000000000005","212.4","6.762","215.8","NAN","NAN","NAN","NAN","NAN"],
    [1568143,"2026-08-25 11:30:00","4896","4.494","211.6","6.664","205.9","NAN","NAN","NAN","NAN","NAN"],
    [1568144,"2026-08-25 11:40:00","4897","3.909","195.6","6.762","181.6","NAN","NAN","NAN","NAN","NAN"],
    [1568145,"2026-08-25 11:50:00","4898","5.021","209.2","7.938","210.6","NAN","NAN","NAN","NAN","NAN"],
    [1568146,"2026-08-25 12:00:00","4899","5.047","209.8","8.33","212.5","NAN","NAN","NAN","NAN","NAN"],
    [1568147,"2026-08-25 12:10:00","4900","4.742","211.1","9.02","226.5","NAN","NAN","NAN","NAN","NAN"],
    [1568148,"2026-08-25 12:20:00","4901","5.1979999999999995","213.9","9.51","205.9","NAN","NAN","NAN","NAN","NAN"],
    [1568149,"2026-08-25 12:30:00","4902","5.204","216.7","7.84","220.3","NAN","NAN","NAN","NAN","NAN"],
    [1568150,"2026-08-25 12:40:00","4903","5.75","216.8","10.68","208.7","NAN","NAN","NAN","NAN","NAN"],
    [1568151,"2026-08-25 12:50:00","4904","4.792","222.4","8.43","207.6","NAN","NAN","NAN","NAN","NAN"],
    [1568152,"2026-08-25 13:00:00","4905","5.612","214.6","10.78","216.3","NAN","NAN","NAN","NAN","NAN"],
    [1568153,"2026-08-25 13:10:00","4906","4.459","222.6","8.13","215.9","NAN","NAN","NAN","NAN","NAN"],
    [1568154,"2026-08-25 13:20:00","4907","5.99","212.9","8.62","195.4","NAN","NAN","NAN","NAN","NAN"],
    [1568155,"2026-08-25 13:30:00","4908","5.834","210.2","9.6","189","NAN","NAN","NAN","NAN","NAN"],
    [1568156,"2026-08-25 13:40:00","4909","6.184","212.8","9.6","214.9","NAN","NAN","NAN","NAN","NAN"],
    [1568157,"2026-08-25 13:50:00","4910","6.444","212.4","10.68","231","NAN","NAN","NAN","NAN","NAN"],
    [1568158,"2026-08-25 14:00:00","4911","6.434","221.9","9.9","209.6","NAN","NAN","NAN","NAN","NAN"],
    [1568159,"2026-08-25 14:10:00","4912","5.309","216.0","9.8","228","NAN","NAN","NAN","NAN","NAN"],
    [1568160,"2026-08-25 14:20:00","4913","5.141","220.4","9.02","212.9","NAN","NAN","NAN","NAN","NAN"],
    [1568161,"2026-08-25 14:30:00","4914","6.053999999999999","214.9","9.11","227.7","NAN","NAN","NAN","NAN","NAN"],
    [1568162,"2026-08-25 14:40:00","4915","6.506","216.0","10.29","206.3","NAN","NAN","NAN","NAN","NAN"],
    [1568163,"2026-08-25 14:50:00","4916","5.699","215.1","8.62","216.5","NAN","NAN","NAN","NAN","NAN"],
    [1568164,"2026-08-25 15:00:00","4917","5.504","214.2","9.7","207.9","NAN","NAN","NAN","NAN","NAN"],
    [1568165,"2026-08-25 15:10:00","4918","5.31","212.4","9.02","235.4","NAN","NAN","NAN","NAN","NAN"],
    [1568166,"2026-08-25 15:20:00","4919","4.878","208.9","9.31","206.8","NAN","NAN","NAN","NAN","NAN"],
    [1568167,"2026-08-25 15:30:00","4920","3.938","209.8","8.04","206.6","NAN","NAN","NAN","NAN","NAN"],
    [1568168,"2026-08-25 15:40:00","4921","5.171","208.0","9.02","212.5","NAN","NAN","NAN","NAN","NAN"],
    [1568169,"2026-08-25 15:50:00","4922","5.678","211.8","9.31","204.3","NAN","NAN","NAN","NAN","NAN"],
    [1568170,"2026-08-25 16:00:00","4923","4.279","211.8","7.938","214.9","NAN","NAN","NAN","NAN","NAN"],
    [1568171,"2026-08-25 16:10:00","4924","5.928","213.8","9.02","205.6","NAN","NAN","NAN","NAN","NAN"],
    [1568172,"2026-08-25 16:20:00","4925","5.202999999999999","217.7","8.62","209.2","NAN","NAN","NAN","NAN","NAN"],
    [1568173,"2026-08-25 16:30:00","4926","4.894","224.8","8.23","225.5","NAN","NAN","NAN","NAN","NAN"],
    [1568174,"2026-08-25 16:40:00","4927","5.494","224.9","8.33","215.4","NAN","NAN","NAN","NAN","NAN"],
    [1568175,"2026-08-25 16:50:00","4928","4.718999999999999","229.4","7.938","228.5","NAN","NAN","NAN","NAN","NAN"],
    [1568176,"2026-08-25 17:00:00","4929","4.641","221.4","8.23","215","NAN","NAN","NAN","NAN","NAN"],
    [1568177,"2026-08-25 17:10:00","4930","4.439","228.9","8.23","223.4","NAN","NAN","NAN","NAN","NAN"],
    [1568178,"2026-08-25 17:20:00","4931","4.391","225.8","7.84","225","NAN","NAN","NAN","NAN","NAN"],
    [1568179,"2026-08-25 17:30:00","4932","3.9210000000000003","233.0","7.252","205.9","NAN","NAN","NAN","NAN","NAN"],
    [1568180,"2026-08-25 17:40:00","4933","4.715","231.4","8.62","239.7","NAN","NAN","NAN","NAN","NAN"],
    [1568181,"2026-08-25 17:50:00","4934","3.8689999999999998","239.4","6.566","233.2","NAN","NAN","NAN","NAN","NAN"],
    [1568182,"2026-08-25 18:00:00","4935","4.497","242.3","8.04","245.7","NAN","NAN","NAN","NAN","NAN"],
    [1568183,"2026-08-25 18:10:00","4936","3.84","247.8","7.252","258","NAN","NAN","NAN","NAN","NAN"],
    [1568184,"2026-08-25 18:20:00","4937","3.54","236.1","6.37","243.4","NAN","NAN","NAN","NAN","NAN"],
    [1568185,"2026-08-25 18:30:00","4938","4.532","248.1","7.252","254.1","NAN","NAN","NAN","NAN","NAN"],
    [1568186,"2026-08-25 18:40:00","4939","4.38","246.2","7.154","242.9","NAN","NAN","NAN","NAN","NAN"],
    [1568187,"2026-08-25 18:50:00","4940","3.7319999999999998","248.2","6.468","249.5","NAN","NAN","NAN","NAN","NAN"],
    [1568188,"2026-08-25 19:00:00","4941","2.8110000000000004","222.7","4.802","253.6","NAN","NAN","NAN","NAN","NAN"],
    [1568189,"2026-08-25 19:10:00","4942","3.063","237.3","4.802","236.3","NAN","NAN","NAN","NAN","NAN"],
    [1568190,"2026-08-25 19:20:00","4943","3.3689999999999998","251.0","4.998","246.6","NAN","NAN","NAN","NAN","NAN"],
    [1568191,"2026-08-25 19:30:00","4944","2.279","248.4","4.116","254.7","NAN","NAN","NAN","NAN","NAN"],
    [1568192,"2026-08-25 19:40:00","4945","2.2640000000000002","254.4","3.528","251.4","NAN","NAN","NAN","NAN","NAN"],
    [1568193,"2026-08-25 19:50:00","4946","1.855","245.3","3.43","246.4","NAN","NAN","NAN","NAN","NAN"],
    [1568194,"2026-08-25 20:00:00","4947","1.5730000000000002","235.1","2.548","253.2","NAN","NAN","NAN","NAN","NAN"],
    [1568195,"2026-08-25 20:10:00","4948","1.936","212.4","3.43","203.3","NAN","NAN","NAN","NAN","NAN"],
    [1568196,"2026-08-25 20:20:00","4949","1.806","234.4","3.332","225.5","NAN","NAN","NAN","NAN","NAN"],
    [1568197,"2026-08-25 20:30:00","4950","1.5859999999999999","225.2","2.94","211.8","NAN","NAN","NAN","NAN","NAN"],
    [1568198,"2026-08-25 20:40:00","4951","2.015","247.0","3.136","247.1","NAN","NAN","NAN","NAN","NAN"],
    [1568199,"2026-08-25 20:50:00","4952","1.676","240.8","2.646","243.5","NAN","NAN","NAN","NAN","NAN"],
    [1568200,"2026-08-25 21:00:00","4953","1.858","249.1","3.038","256.9","NAN","NAN","NAN","NAN","NAN"],
    [1568201,"2026-08-25 21:10:00","4954","0.961","237.6","2.352","248.5","NAN","NAN","NAN","NAN","NAN"],
    [1568202,"2026-08-25 21:20:00","4955","1.149","244.1","2.45","251.7","NAN","NAN","NAN","NAN","NAN"],
    [1568203,"2026-08-25 21:30:00","4956","1.035","265.4","2.646","274.8","NAN","NAN","NAN","NAN","NAN"],
    [1568204,"2026-08-25 21:40:00","4957","0.003","265.5","0.196","265.5","NAN","NAN","NAN","NAN","NAN"],
    [1568205,"2026-08-25 21:50:00","4958","0.07200000000000001","257.0","0.98","254.8","NAN","NAN","NAN","NAN","NAN"],
    [1568206,"2026-08-25 22:00:00","4959","0.26899999999999996","256.1","1.078","254.8","NAN","NAN","NAN","NAN","NAN"],
    [1568207,"2026-08-25 22:10:00","4960","0.106","251.4","0.49","252","NAN","NAN","NAN","NAN","NAN"],
    [1568208,"2026-08-25 22:20:00","4961","0.023","251.2","0.392","251.2","NAN","NAN","NAN","NAN","NAN"],
    [1568209,"2026-08-25 22:30:00","4962","0.0","0.0","0","251.1","NAN","NAN","NAN","NAN","NAN"],
    [1568210,"2026-08-25 22:40:00","4963","0.0","0.0","0","251.2","NAN","NAN","NAN","NAN","NAN"],
    [1568211,"2026-08-25 22:50:00","4964","0.01","273.2","0.196","273.2","NAN","NAN","NAN","NAN","NAN"],
    [1568212,"2026-08-25 23:00:00","4965","0.115","273.2","0.49","273.1","NAN","NAN","NAN","NAN","NAN"],
    [1568213,"2026-08-25 23:10:00","4966","0.14","273.1","0.686","273.2","NAN","NAN","NAN","NAN","NAN"],
    [1568214,"2026-08-25 23:20:00","4967","0.0","0.0","0","273.1","NAN","NAN","NAN","NAN","NAN"],
    [1568215,"2026-08-25 23:30:00","4968","0.003","273.8","0.196","273.8","NAN","NAN","NAN","NAN","NAN"],
    [1568216,"2026-08-25 23:40:00","4969","0.614","271.6","2.156","272","NAN","NAN","NAN","NAN","NAN"],
    [1568217,"2026-08-25 23:50:00","4970","0.752","347.9","1.568","17.56","NAN","NAN","NAN","NAN","NAN"],
    [1568218,"2026-08-26 00:00:00","4971","0.708","17.6","1.96","17.56","NAN","NAN","NAN","NAN","NAN"],
    [1568219,"2026-08-26 00:10:00","4972","0.396","21.1","1.666","18.05","NAN","NAN","NAN","NAN","NAN"],
    [1568220,"2026-08-26 00:20:00","4973","1.2","56.64","3.234","73.02","NAN","NAN","NAN","NAN","NAN"],
    [1568221,"2026-08-26 00:30:00","4974","1.895","61.31","3.332","52.49","NAN","NAN","NAN","NAN","NAN"],
    [1568222,"2026-08-26 00:40:00","4975","2.079","49.41","3.528","37.38","NAN","NAN","NAN","NAN","NAN"],
    [1568223,"2026-08-26 00:50:00","4976","1.113","56.26","2.352","56.24","NAN","NAN","NAN","NAN","NAN"],
    [1568224,"2026-08-26 01:00:00","4977","1.758","52.93","3.332","44.41","NAN","NAN","NAN","NAN","NAN"],
    [1568225,"2026-08-26 01:10:00","4978","1.421","47.66","3.528","39.99","NAN","NAN","NAN","NAN","NAN"],
    [1568226,"2026-08-26 01:20:00","4979","1.486","47.33","4.214","41.38","NAN","NAN","NAN","NAN","NAN"],
    [1568227,"2026-08-26 01:30:00","4980","0.733","24.58","2.548","270.6","NAN","NAN","NAN","NAN","NAN"],
    [1568228,"2026-08-26 01:40:00","4981","0.898","279.3","2.254","274.9","NAN","NAN","NAN","NAN","NAN"],
    [1568229,"2026-08-26 01:50:00","4982","0.375","289.0","1.568","272.6","NAN","NAN","NAN","NAN","NAN"],
    [1568230,"2026-08-26 02:00:00","4983","1.39","277.3","2.156","271.3","NAN","NAN","NAN","NAN","NAN"],
    [1568231,"2026-08-26 02:10:00","4984","0.27399999999999997","292.2","1.372","293.3","NAN","NAN","NAN","NAN","NAN"],
    [1568232,"2026-08-26 02:20:00","4985","0.505","330.0","1.666","300.4","NAN","NAN","NAN","NAN","NAN"],
    [1568233,"2026-08-26 02:30:00","4986","0.377","359.1","1.862","15.44","NAN","NAN","NAN","NAN","NAN"],
    [1568234,"2026-08-26 02:40:00","4987","1.3159999999999998","16.53","2.352","15.92","NAN","NAN","NAN","NAN","NAN"],
    [1568235,"2026-08-26 02:50:00","4988","1.078","25.04","2.548","29.88","NAN","NAN","NAN","NAN","NAN"],
    [1568236,"2026-08-26 03:00:00","4989","1.143","332.4","2.548","308.5","NAN","NAN","NAN","NAN","NAN"],
    [1568237,"2026-08-26 03:10:00","4990","0.71","308.3","2.156","308.7","NAN","NAN","NAN","NAN","NAN"],
    [1568238,"2026-08-26 03:20:00","4991","0.6990000000000001","307.8","1.96","307.3","NAN","NAN","NAN","NAN","NAN"],
    [1568239,"2026-08-26 03:30:00","4992","2.219","291.9","3.92","292.8","NAN","NAN","NAN","NAN","NAN"],
    [1568240,"2026-08-26 03:40:00","4993","1.131","288.0","3.43","282.8","NAN","NAN","NAN","NAN","NAN"],
    [1568241,"2026-08-26 03:50:00","4994","3.04","309.3","4.802","326.6","NAN","NAN","NAN","NAN","NAN"],
    [1568242,"2026-08-26 04:00:00","4995","2.7969999999999997","330.3","5.488","329.1","NAN","NAN","NAN","NAN","NAN"],
    [1568243,"2026-08-26 04:10:00","4996","0.777","334.4","2.352","323","NAN","NAN","NAN","NAN","NAN"],
    [1568244,"2026-08-26 04:20:00","4997","0.745","14.59","2.842","24.69","NAN","NAN","NAN","NAN","NAN"],
    [1568245,"2026-08-26 04:30:00","4998","1.507","287.7","4.116","275.7","NAN","NAN","NAN","NAN","NAN"],
    [1568246,"2026-08-26 04:40:00","4999","1.264","273.7","4.9","273.9","NAN","NAN","NAN","NAN","NAN"],
    [1568247,"2026-08-26 04:50:00","5000","0.44","276.4","0.98","281.6","NAN","NAN","NAN","NAN","NAN"],
    [1568248,"2026-08-26 05:00:00","5001","0.08","269.0","0.784","268.8","NAN","NAN","NAN","NAN","NAN"],
    [1568249,"2026-08-26 05:10:00","5002","0.595","285.1","1.372","284.8","NAN","NAN","NAN","NAN","NAN"],
    [1568250,"2026-08-26 05:20:00","5003","0.53","290.9","2.058","289.5","NAN","NAN","NAN","NAN","NAN"],
    [1568251,"2026-08-26 05:30:00","5004","1.7619999999999998","293.0","2.94","305.7","NAN","NAN","NAN","NAN","NAN"],
    [1568252,"2026-08-26 05:40:00","5005","0.986","288.1","1.764","293.5","NAN","NAN","NAN","NAN","NAN"],
    [1568253,"2026-08-26 05:50:00","5006","1.307","293.2","1.96","296.2","NAN","NAN","NAN","NAN","NAN"],
    [1568254,"2026-08-26 06:00:00","5007","1.2930000000000001","296.7","2.352","298.3","NAN","NAN","NAN","NAN","NAN"],
    [1568255,"2026-08-26 06:10:00","5008","1.581","304.8","2.548","306.5","NAN","NAN","NAN","NAN","NAN"],
    [1568256,"2026-08-26 06:20:00","5009","1.2309999999999999","299.9","2.058","287.1","NAN","NAN","NAN","NAN","NAN"],
    [1568257,"2026-08-26 06:30:00","5010","1.791","290.4","4.312","290.6","NAN","NAN","NAN","NAN","NAN"],
    [1568258,"2026-08-26 06:40:00","5011","1.008","352.2","2.94","302.1","NAN","NAN","NAN","NAN","NAN"],
    [1568259,"2026-08-26 06:50:00","5012","1.55","13.23","2.548","5.438","NAN","NAN","NAN","NAN","NAN"],
    [1568260,"2026-08-26 07:00:00","5013","2.392","36.7","4.998","29.88","NAN","NAN","NAN","NAN","NAN"],
    [1568261,"2026-08-26 07:10:00","5014","3.0410000000000004","75.13","5.782","92","NAN","NAN","NAN","NAN","NAN"],
    [1568262,"2026-08-26 07:20:00","5015","4.145","86.1","7.742","79.27","NAN","NAN","NAN","NAN","NAN"],
    [1568263,"2026-08-26 07:30:00","5016","4.195","79.4","7.35","86.2","NAN","NAN","NAN","NAN","NAN"],
    [1568264,"2026-08-26 07:40:00","5017","2.5180000000000002","30.08","4.41","56.43","NAN","NAN","NAN","NAN","NAN"],
    [1568265,"2026-08-26 07:50:00","5018","2.641","359.3","5.194","354.5","NAN","NAN","NAN","NAN","NAN"],
    [1568266,"2026-08-26 08:00:00","5019","2.544","5.617000000000001","4.214","68.65","NAN","NAN","NAN","NAN","NAN"],
    [1568267,"2026-08-26 08:10:00","5020","3.227","111.2","4.998","128.4","NAN","NAN","NAN","NAN","NAN"],
    [1568268,"2026-08-26 08:20:00","5021","2.197","112.1","4.018","122.1","NAN","NAN","NAN","NAN","NAN"],
    [1568269,"2026-08-26 08:30:00","5022","0.9840000000000001","109.0","2.352","110.2","NAN","NAN","NAN","NAN","NAN"],
    [1568270,"2026-08-26 08:40:00","5023","1.528","97.1","3.332","83.5","NAN","NAN","NAN","NAN","NAN"],
    [1568271,"2026-08-26 08:50:00","5024","2.812","105.8","4.704","113.3","NAN","NAN","NAN","NAN","NAN"],
    [1568272,"2026-08-26 09:00:00","5025","2.898","89.0","6.958","85","NAN","NAN","NAN","NAN","NAN"],
    [1568273,"2026-08-26 09:10:00","5026","4.977","98.0","9.02","98.4","NAN","NAN","NAN","NAN","NAN"],
    [1568274,"2026-08-26 09:20:00","5027","4.956","94.9","7.644","93.3","NAN","NAN","NAN","NAN","NAN"],
    [1568275,"2026-08-26 09:30:00","5028","4.236000000000001","99.8","7.938","118","NAN","NAN","NAN","NAN","NAN"],
    [1568276,"2026-08-26 09:40:00","5029","4.005","121.3","6.174","115","NAN","NAN","NAN","NAN","NAN"],
    [1568277,"2026-08-26 09:50:00","5030","3.4419999999999997","133.3","5.978","130.8","NAN","NAN","NAN","NAN","NAN"],
    [1568278,"2026-08-26 10:00:00","5031","4.081","142.3","7.154","141","NAN","NAN","NAN","NAN","NAN"],
    [1568279,"2026-08-26 10:10:00","5032","3.176","121.1","5.586","123.4","NAN","NAN","NAN","NAN","NAN"],
    [1568280,"2026-08-26 10:20:00","5033","2.375","123.1","3.92","128.1","NAN","NAN","NAN","NAN","NAN"],
    [1568281,"2026-08-26 10:30:00","5034","2.33","92.2","3.626","110.4","NAN","NAN","NAN","NAN","NAN"],
    [1568282,"2026-08-26 10:40:00","5035","2.144","94.9","3.528","87.2","NAN","NAN","NAN","NAN","NAN"],
    [1568283,"2026-08-26 10:50:00","5036","2.32","89.0","3.822","77.31","NAN","NAN","NAN","NAN","NAN"],
    [1568284,"2026-08-26 11:00:00","5037","2.104","110.9","3.92","130.9","NAN","NAN","NAN","NAN","NAN"],
    [1568285,"2026-08-26 11:10:00","5038","2.17","123.9","3.234","135.7","NAN","NAN","NAN","NAN","NAN"],
    [1568286,"2026-08-26 11:20:00","5039","1.939","124.0","3.43","133.5","NAN","NAN","NAN","NAN","NAN"],
    [1568287,"2026-08-26 11:30:00","5040","2.366","93.9","3.332","98.2","NAN","NAN","NAN","NAN","NAN"],
    [1568288,"2026-08-26 11:40:00","5041","2.271","82.0","3.528","97.3","NAN","NAN","NAN","NAN","NAN"],
    [1568289,"2026-08-26 11:50:00","5042","2.569","89.7","4.214","93.3","NAN","NAN","NAN","NAN","NAN"],
    [1568290,"2026-08-26 12:00:00","5043","3.074","41.04","4.704","30.26","NAN","NAN","NAN","NAN","NAN"],
    [1568291,"2026-08-26 12:10:00","5044","2.8960000000000004","44.75","4.998","27.09","NAN","NAN","NAN","NAN","NAN"],
    [1568292,"2026-08-26 12:20:00","5045","2.591","52.14","4.508","32.19","NAN","NAN","NAN","NAN","NAN"],
    [1568293,"2026-08-26 12:30:00","5046","2.444","58.62","4.508","71.54","NAN","NAN","NAN","NAN","NAN"],
    [1568294,"2026-08-26 12:40:00","5047","3.248","83.2","5.292","86.5","NAN","NAN","NAN","NAN","NAN"],
    [1568295,"2026-08-26 12:50:00","5048","2.78","70.87","5.194","66.35","NAN","NAN","NAN","NAN","NAN"],
    [1568296,"2026-08-26 13:00:00","5049","2.912","81.1","4.9","87.3","NAN","NAN","NAN","NAN","NAN"],
    [1568297,"2026-08-26 13:10:00","5050","3.3289999999999997","91.1","4.802","84.9","NAN","NAN","NAN","NAN","NAN"],
    [1568298,"2026-08-26 13:20:00","5051","2.088","91.5","3.332","102.3","NAN","NAN","NAN","NAN","NAN"],
    [1568299,"2026-08-26 13:30:00","5052","3.175","109.6","4.41","118.3","NAN","NAN","NAN","NAN","NAN"],
    [1568300,"2026-08-26 13:40:00","5053","3.069","127.8","4.214","129.6","NAN","NAN","NAN","NAN","NAN"],
    [1568301,"2026-08-26 13:50:00","5054","3.208","111.7","4.802","112.3","NAN","NAN","NAN","NAN","NAN"],
    [1568302,"2026-08-26 14:00:00","5055","2.188","105.0","3.43","117.6","NAN","NAN","NAN","NAN","NAN"],
    [1568303,"2026-08-26 14:10:00","5056","2.6010000000000004","114.2","4.116","104.6","NAN","NAN","NAN","NAN","NAN"],
    [1568304,"2026-08-26 14:20:00","5057","2.43","103.6","3.528","105","NAN","NAN","NAN","NAN","NAN"],
    [1568305,"2026-08-26 14:30:00","5058","1.749","84.4","2.842","101","NAN","NAN","NAN","NAN","NAN"],
    [1568306,"2026-08-26 14:40:00","5059","3.1","108.3","4.312","96.3","NAN","NAN","NAN","NAN","NAN"],
    [1568307,"2026-08-26 14:50:00","5060","2.903","102.2","4.508","119.3","NAN","NAN","NAN","NAN","NAN"],
    [1568308,"2026-08-26 15:00:00","5061","3.388","108.5","5.684","98.5","NAN","NAN","NAN","NAN","NAN"],
    [1568309,"2026-08-26 15:10:00","5062","3.627","105.6","5.978","101.2","NAN","NAN","NAN","NAN","NAN"],
    [1568310,"2026-08-26 15:20:00","5063","3.8539999999999996","107.4","5.488","111.6","NAN","NAN","NAN","NAN","NAN"],
    [1568311,"2026-08-26 15:30:00","5064","3.4589999999999996","102.6","5.88","97.3","NAN","NAN","NAN","NAN","NAN"],
    [1568312,"2026-08-26 15:40:00","5065","2.7880000000000003","100.1","5.096","103.2","NAN","NAN","NAN","NAN","NAN"],
    [1568313,"2026-08-26 15:50:00","5066","3.062","98.1","4.998","95.7","NAN","NAN","NAN","NAN","NAN"],
    [1568314,"2026-08-26 16:00:00","5067","2.661","95.1","4.116","98.3","NAN","NAN","NAN","NAN","NAN"],
    [1568315,"2026-08-26 16:10:00","5068","3.0580000000000003","103.4","4.606","91.3","NAN","NAN","NAN","NAN","NAN"],
    [1568316,"2026-08-26 16:20:00","5069","3.571","105.4","5.292","112.2","NAN","NAN","NAN","NAN","NAN"],
    [1568317,"2026-08-26 16:30:00","5070","3.096","101.7","5.488","94","NAN","NAN","NAN","NAN","NAN"],
    [1568318,"2026-08-26 16:40:00","5071","2.832","100.5","5.88","108","NAN","NAN","NAN","NAN","NAN"],
    [1568319,"2026-08-26 16:50:00","5072","3.094","101.4","5.39","100.5","NAN","NAN","NAN","NAN","NAN"],
    [1568320,"2026-08-26 17:00:00","5073","2.542","105.1","3.822","116.4","NAN","NAN","NAN","NAN","NAN"],
    [1568321,"2026-08-26 17:10:00","5074","2.944","102.1","4.41","93.3","NAN","NAN","NAN","NAN","NAN"],
    [1568322,"2026-08-26 17:20:00","5075","2.7089999999999996","102.3","4.41","92.2","NAN","NAN","NAN","NAN","NAN"],
    [1568323,"2026-08-26 17:30:00","5076","3.272","101.6","5.096","100.9","NAN","NAN","NAN","NAN","NAN"],
    [1568324,"2026-08-26 17:40:00","5077","2.779","104.9","4.802","96.5","NAN","NAN","NAN","NAN","NAN"],
    [1568325,"2026-08-26 17:50:00","5078","2.64","109.6","4.606","121.6","NAN","NAN","NAN","NAN","NAN"],
    [1568326,"2026-08-26 18:00:00","5079","2.605","112.7","4.508","109.9","NAN","NAN","NAN","NAN","NAN"],
    [1568327,"2026-08-26 18:10:00","5080","2.261","109.6","4.116","111.1","NAN","NAN","NAN","NAN","NAN"],
    [1568328,"2026-08-26 18:20:00","5081","1.757","105.0","3.136","100.4","NAN","NAN","NAN","NAN","NAN"],
    [1568329,"2026-08-26 18:30:00","5082","1.443","99.4","2.352","92","NAN","NAN","NAN","NAN","NAN"],
    [1568330,"2026-08-26 18:40:00","5083","1.5530000000000002","98.3","2.646","94.1","NAN","NAN","NAN","NAN","NAN"],
    [1568331,"2026-08-26 18:50:00","5084","1.379","93.3","2.254","94.1","NAN","NAN","NAN","NAN","NAN"],
    [1568332,"2026-08-26 19:00:00","5085","1.189","92.9","1.764","88","NAN","NAN","NAN","NAN","NAN"],
    [1568333,"2026-08-26 19:10:00","5086","1.2","94.0","1.862","94.4","NAN","NAN","NAN","NAN","NAN"],
    [1568334,"2026-08-26 19:20:00","5087","0.5660000000000001","91.7","1.274","88.1","NAN","NAN","NAN","NAN","NAN"],
    [1568335,"2026-08-26 19:30:00","5088","0.449","94.0","1.176","103.1","NAN","NAN","NAN","NAN","NAN"],
    [1568336,"2026-08-26 19:40:00","5089","1.037","97.8","1.764","102.1","NAN","NAN","NAN","NAN","NAN"],
    [1568337,"2026-08-26 19:50:00","5090","1.33","103.6","2.058","107.7","NAN","NAN","NAN","NAN","NAN"],
    [1568338,"2026-08-26 20:00:00","5091","1.579","111.3","2.548","121.2","NAN","NAN","NAN","NAN","NAN"],
    [1568339,"2026-08-26 20:10:00","5092","1.4669999999999999","124.4","2.744","124.3","NAN","NAN","NAN","NAN","NAN"],
    [1568340,"2026-08-26 20:20:00","5093","1.0190000000000001","122.6","1.666","124.8","NAN","NAN","NAN","NAN","NAN"],
    [1568341,"2026-08-26 20:30:00","5094","0.9229999999999999","117.0","1.568","117","NAN","NAN","NAN","NAN","NAN"],
    [1568342,"2026-08-26 20:40:00","5095","0.625","119.5","1.372","112.3","NAN","NAN","NAN","NAN","NAN"],
    [1568343,"2026-08-26 20:50:00","5096","0.9079999999999999","111.0","1.47","111","NAN","NAN","NAN","NAN","NAN"],
    [1568344,"2026-08-26 21:00:00","5097","0.8220000000000001","110.8","1.47","114.1","NAN","NAN","NAN","NAN","NAN"],
    [1568345,"2026-08-26 21:10:00","5098","1.0","114.9","1.764","104.3","NAN","NAN","NAN","NAN","NAN"],
    [1568346,"2026-08-26 21:20:00","5099","1.03","102.1","2.156","103","NAN","NAN","NAN","NAN","NAN"],
    [1568347,"2026-08-26 21:30:00","5100","0.562","101.8","1.176","101.6","NAN","NAN","NAN","NAN","NAN"],
    [1568348,"2026-08-26 21:40:00","5101","0.5489999999999999","101.4","1.176","101.5","NAN","NAN","NAN","NAN","NAN"],
    [1568349,"2026-08-26 21:50:00","5102","0.162","101.3","0.784","101.3","NAN","NAN","NAN","NAN","NAN"],
    [1568350,"2026-08-26 22:00:00","5103","0.27399999999999997","101.2","0.98","101.2","NAN","NAN","NAN","NAN","NAN"],
    [1568351,"2026-08-26 22:10:00","5104","0.245","101.2","0.784","101.2","NAN","NAN","NAN","NAN","NAN"],
    [1568352,"2026-08-26 22:20:00","5105","0.7020000000000001","104.8","1.176","101.1","NAN","NAN","NAN","NAN","NAN"],
    [1568353,"2026-08-26 22:30:00","5106","1.12","116.3","1.666","123","NAN","NAN","NAN","NAN","NAN"],
    [1568354,"2026-08-26 22:40:00","5107","0.769","110.4","1.47","107.3","NAN","NAN","NAN","NAN","NAN"],
    [1568355,"2026-08-26 22:50:00","5108","0.47","105.3","1.274","102.5","NAN","NAN","NAN","NAN","NAN"],
    [1568356,"2026-08-26 23:00:00","5109","0.956","102.9","1.372","101.5","NAN","NAN","NAN","NAN","NAN"],
    [1568357,"2026-08-26 23:10:00","5110","0.755","113.7","1.47","110.9","NAN","NAN","NAN","NAN","NAN"],
    [1568358,"2026-08-26 23:20:00","5111","0.8540000000000001","115.6","1.274","120.6","NAN","NAN","NAN","NAN","NAN"],
    [1568359,"2026-08-26 23:30:00","5112","0.643","108.1","1.274","114.3","NAN","NAN","NAN","NAN","NAN"],
    [1568360,"2026-08-26 23:40:00","5113","0.8029999999999999","104.4","1.176","104.8","NAN","NAN","NAN","NAN","NAN"],
    [1568361,"2026-08-26 23:50:00","5114","0.381","101.3","1.078","101","NAN","NAN","NAN","NAN","NAN"],
    [1568362,"2026-08-27 00:00:00","5115","0.67","98.0","1.47","100","NAN","NAN","NAN","NAN","NAN"],
    [1568363,"2026-08-27 00:10:00","5116","0.679","91.6","1.47","87.2","NAN","NAN","NAN","NAN","NAN"],
    [1568364,"2026-08-27 00:20:00","5117","0.877","80.3","1.568","81.6","NAN","NAN","NAN","NAN","NAN"],
    [1568365,"2026-08-27 00:30:00","5118","0.769","71.96","1.862","72.51","NAN","NAN","NAN","NAN","NAN"],
    [1568366,"2026-08-27 00:40:00","5119","0.802","69.85","1.47","70.1","NAN","NAN","NAN","NAN","NAN"],
    [1568367,"2026-08-27 00:50:00","5120","0.769","68.64","1.764","68.85","NAN","NAN","NAN","NAN","NAN"],
    [1568368,"2026-08-27 01:00:00","5121","1.1420000000000001","79.29","2.352","86.7","NAN","NAN","NAN","NAN","NAN"],
    [1568369,"2026-08-27 01:10:00","5122","1.5759999999999998","74.62","2.842","70.58","NAN","NAN","NAN","NAN","NAN"],
    [1568370,"2026-08-27 01:20:00","5123","1.764","75.06","3.136","68.66","NAN","NAN","NAN","NAN","NAN"],
    [1568371,"2026-08-27 01:30:00","5124","1.921","68.09","2.842","77","NAN","NAN","NAN","NAN","NAN"],
    [1568372,"2026-08-27 01:40:00","5125","1.64","68.74","2.352","75.39","NAN","NAN","NAN","NAN","NAN"],
    [1568373,"2026-08-27 01:50:00","5126","1.3119999999999998","65.0","2.058","65.2","NAN","NAN","NAN","NAN","NAN"],
    [1568374,"2026-08-27 02:00:00","5127","1.281","69.74","1.96","74.91","NAN","NAN","NAN","NAN","NAN"],
    [1568375,"2026-08-27 02:10:00","5128","0.19399999999999998","61.22","0.882","61.26","NAN","NAN","NAN","NAN","NAN"],
    [1568376,"2026-08-27 02:20:00","5129","0.265","59.78","1.176","60.69","NAN","NAN","NAN","NAN","NAN"],
    [1568377,"2026-08-27 02:30:00","5130","1.073","59.05","2.156","74.14","NAN","NAN","NAN","NAN","NAN"],
    [1568378,"2026-08-27 02:40:00","5131","1.55","307.3","3.43","262.5","NAN","NAN","NAN","NAN","NAN"],
    [1568379,"2026-08-27 02:50:00","5132","0.42100000000000004","258.4","1.862","258.9","NAN","NAN","NAN","NAN","NAN"],
    [1568380,"2026-08-27 03:00:00","5133","0.0","0.0","0","260","NAN","NAN","NAN","NAN","NAN"],
    [1568381,"2026-08-27 03:10:00","5134","0.196","258.8","0.588","259.8","NAN","NAN","NAN","NAN","NAN"],
    [1568382,"2026-08-27 03:20:00","5135","0.34600000000000003","254.2","1.666","253.1","NAN","NAN","NAN","NAN","NAN"],
    [1568383,"2026-08-27 03:30:00","5136","0.6579999999999999","252.7","2.646","251.4","NAN","NAN","NAN","NAN","NAN"],
    [1568384,"2026-08-27 03:40:00","5137","0.395","246.8","1.078","246.8","NAN","NAN","NAN","NAN","NAN"],
    [1568385,"2026-08-27 03:50:00","5138","0.022000000000000002","246.7","0.294","246.7","NAN","NAN","NAN","NAN","NAN"],
    [1568386,"2026-08-27 04:00:00","5139","0.376","253.1","2.156","261.3","NAN","NAN","NAN","NAN","NAN"],
    [1568387,"2026-08-27 04:10:00","5140","1.129","270.7","2.156","264.2","NAN","NAN","NAN","NAN","NAN"],
    [1568388,"2026-08-27 04:20:00","5141","0.722","273.5","1.47","273.6","NAN","NAN","NAN","NAN","NAN"],
    [1568389,"2026-08-27 04:30:00","5142","0.22699999999999998","273.3","0.98","273.6","NAN","NAN","NAN","NAN","NAN"],
    [1568390,"2026-08-27 04:40:00","5143","0.065","273.5","0.49","273.5","NAN","NAN","NAN","NAN","NAN"],
    [1568391,"2026-08-27 04:50:00","5144","0.284","273.2","0.49","273.5","NAN","NAN","NAN","NAN","NAN"],
    [1568392,"2026-08-27 05:00:00","5145","0.17300000000000001","272.8","0.686","273.4","NAN","NAN","NAN","NAN","NAN"],
    [1568393,"2026-08-27 05:10:00","5146","0.185","273.1","0.686","272.8","NAN","NAN","NAN","NAN","NAN"],
    [1568394,"2026-08-27 05:20:00","5147","0.358","272.8","0.882","271.3","NAN","NAN","NAN","NAN","NAN"],
    [1568395,"2026-08-27 05:30:00","5148","0.11900000000000001","273.7","0.588","273.7","NAN","NAN","NAN","NAN","NAN"],
    [1568396,"2026-08-27 05:40:00","5149","0.245","273.9","0.588","273.9","NAN","NAN","NAN","NAN","NAN"],
    [1568397,"2026-08-27 05:50:00","5150","0.371","274.0","0.98","274.1","NAN","NAN","NAN","NAN","NAN"],
    [1568398,"2026-08-27 06:00:00","5151","0.09699999999999999","266.5","0.588","274.1","NAN","NAN","NAN","NAN","NAN"],
    [1568399,"2026-08-27 06:10:00","5152","0.727","226.2","1.862","216.9","NAN","NAN","NAN","NAN","NAN"],
    [1568400,"2026-08-27 06:20:00","5153","1.5219999999999998","206.4","2.646","202.2","NAN","NAN","NAN","NAN","NAN"],
    [1568401,"2026-08-27 06:30:00","5154","1.137","217.7","2.156","219.3","NAN","NAN","NAN","NAN","NAN"],
    [1568402,"2026-08-27 06:40:00","5155","1.472","227.1","2.842","239.5","NAN","NAN","NAN","NAN","NAN"],
    [1568403,"2026-08-27 06:50:00","5156","1.615","250.4","2.548","250.5","NAN","NAN","NAN","NAN","NAN"],
    [1568404,"2026-08-27 07:00:00","5157","1.517","248.6","2.548","251.8","NAN","NAN","NAN","NAN","NAN"],
    [1568405,"2026-08-27 07:10:00","5158","1.869","247.3","4.9","244.1","NAN","NAN","NAN","NAN","NAN"],
    [1568406,"2026-08-27 07:20:00","5159","3.028","219.1","5.39","231.4","NAN","NAN","NAN","NAN","NAN"],
    [1568407,"2026-08-27 07:30:00","5160","2.965","218.7","5.488","203.7","NAN","NAN","NAN","NAN","NAN"],
    [1568408,"2026-08-27 07:40:00","5161","2.78","216.8","4.41","207.9","NAN","NAN","NAN","NAN","NAN"],
    [1568409,"2026-08-27 07:50:00","5162","3.3739999999999997","224.6","5.39","207.6","NAN","NAN","NAN","NAN","NAN"],
    [1568410,"2026-08-27 08:00:00","5163","3.139","229.8","4.802","225.9","NAN","NAN","NAN","NAN","NAN"],
    [1568411,"2026-08-27 08:10:00","5164","2.85","227.3","4.508","220","NAN","NAN","NAN","NAN","NAN"],
    [1568412,"2026-08-27 08:20:00","5165","2.5869999999999997","214.4","5.292","231.2","NAN","NAN","NAN","NAN","NAN"],
    [1568413,"2026-08-27 08:30:00","5166","3.647","227.0","6.076","234.6","NAN","NAN","NAN","NAN","NAN"],
    [1568414,"2026-08-27 08:40:00","5167","2.654","227.6","5.488","215.9","NAN","NAN","NAN","NAN","NAN"],
    [1568415,"2026-08-27 08:50:00","5168","3.1860000000000004","218.6","5.488","202.5","NAN","NAN","NAN","NAN","NAN"],
    [1568416,"2026-08-27 09:00:00","5169","3.648","220.8","5.488","232.7","NAN","NAN","NAN","NAN","NAN"],
    [1568417,"2026-08-27 09:10:00","5170","2.818","205.9","5.684","177.2","NAN","NAN","NAN","NAN","NAN"],
    [1568418,"2026-08-27 09:20:00","5171","2.892","182.1","5.194","171.1","NAN","NAN","NAN","NAN","NAN"],
    [1568419,"2026-08-27 09:30:00","5172","2.772","205.1","4.704","164.4","NAN","NAN","NAN","NAN","NAN"],
    [1568420,"2026-08-27 09:40:00","5173","2.6430000000000002","197.0","5.586","239.5","NAN","NAN","NAN","NAN","NAN"],
    [1568421,"2026-08-27 09:50:00","5174","2.295","203.9","4.214","239.4","NAN","NAN","NAN","NAN","NAN"],
    [1568422,"2026-08-27 10:00:00","5175","2.576","214.2","4.312","213.1","NAN","NAN","NAN","NAN","NAN"],
    [1568423,"2026-08-27 10:10:00","5176","2.44","184.4","4.9","162.2","NAN","NAN","NAN","NAN","NAN"],
    [1568424,"2026-08-27 10:20:00","5177","2.7739999999999996","174.6","4.704","167.3","NAN","NAN","NAN","NAN","NAN"],
    [1568425,"2026-08-27 10:30:00","5178","2.7089999999999996","174.0","4.802","142.7","NAN","NAN","NAN","NAN","NAN"],
    [1568426,"2026-08-27 10:40:00","5179","3.037","132.9","4.704","132.5","NAN","NAN","NAN","NAN","NAN"],
    [1568427,"2026-08-27 10:50:00","5180","3.302","122.7","5.488","130.5","NAN","NAN","NAN","NAN","NAN"],
    [1568428,"2026-08-27 11:00:00","5181","2.8560000000000003","125.6","4.998","133.7","NAN","NAN","NAN","NAN","NAN"],
    [1568429,"2026-08-27 11:10:00","5182","3.343","115.5","4.704","105","NAN","NAN","NAN","NAN","NAN"],
    [1568430,"2026-08-27 11:20:00","5183","3.378","151.7","4.802","167.8","NAN","NAN","NAN","NAN","NAN"],
    [1568431,"2026-08-27 11:30:00","5184","3.549","153.7","5.488","150.3","NAN","NAN","NAN","NAN","NAN"],
    [1568432,"2026-08-27 11:40:00","5185","4.107","156.4","7.154","137.9","NAN","NAN","NAN","NAN","NAN"],
    [1568433,"2026-08-27 11:50:00","5186","3.136","180.4","6.272","172.9","NAN","NAN","NAN","NAN","NAN"],
    [1568434,"2026-08-27 12:00:00","5187","2.7569999999999997","203.9","5.292","187.1","NAN","NAN","NAN","NAN","NAN"],
    [1568435,"2026-08-27 12:10:00","5188","2.907","203.9","4.802","191.8","NAN","NAN","NAN","NAN","NAN"],
    [1568436,"2026-08-27 12:20:00","5189","2.95","191.2","5.292","174.7","NAN","NAN","NAN","NAN","NAN"],
    [1568437,"2026-08-27 12:30:00","5190","4.242","198.3","6.762","171.3","NAN","NAN","NAN","NAN","NAN"],
    [1568438,"2026-08-27 12:40:00","5191","3.6639999999999997","204.4","5.978","158","NAN","NAN","NAN","NAN","NAN"],
    [1568439,"2026-08-27 12:50:00","5192","4.087","201.9","6.37","241.9","NAN","NAN","NAN","NAN","NAN"],
    [1568440,"2026-08-27 13:00:00","5193","3.5580000000000003","191.8","5.978","208.2","NAN","NAN","NAN","NAN","NAN"],
    [1568441,"2026-08-27 13:10:00","5194","3.502","194.7","6.468","177.3","NAN","NAN","NAN","NAN","NAN"],
    [1568442,"2026-08-27 13:20:00","5195","3.925","197.4","7.448","182","NAN","NAN","NAN","NAN","NAN"],
    [1568443,"2026-08-27 13:30:00","5196","5.011","205.5","7.938","222.4","NAN","NAN","NAN","NAN","NAN"],
    [1568444,"2026-08-27 13:40:00","5197","4.164","199.4","7.546","220","NAN","NAN","NAN","NAN","NAN"],
    [1568445,"2026-08-27 13:50:00","5198","5.211","200.8","7.84","221.9","NAN","NAN","NAN","NAN","NAN"],
    [1568446,"2026-08-27 14:00:00","5199","4.615","209.1","7.84","229.4","NAN","NAN","NAN","NAN","NAN"],
    [1568447,"2026-08-27 14:10:00","5200","4.609","213.8","8.13","216.8","NAN","NAN","NAN","NAN","NAN"],
    [1568448,"2026-08-27 14:20:00","5201","4.955","222.4","8.53","202.7","NAN","NAN","NAN","NAN","NAN"],
    [1568449,"2026-08-27 14:30:00","5202","4.758","215.5","8.13","207.9","NAN","NAN","NAN","NAN","NAN"],
    [1568450,"2026-08-27 14:40:00","5203","4.079","218.8","7.938","227.6","NAN","NAN","NAN","NAN","NAN"],
    [1568451,"2026-08-27 14:50:00","5204","4.0569999999999995","212.5","6.664","230.4","NAN","NAN","NAN","NAN","NAN"],
    [1568452,"2026-08-27 15:00:00","5205","3.29","214.8","6.37","215.8","NAN","NAN","NAN","NAN","NAN"],
    [1568453,"2026-08-27 15:10:00","5206","3.213","220.3","5.39","211","NAN","NAN","NAN","NAN","NAN"],
    [1568454,"2026-08-27 15:20:00","5207","3.5660000000000003","212.7","5.88","208.5","NAN","NAN","NAN","NAN","NAN"],
    [1568455,"2026-08-27 15:30:00","5208","3.68","207.0","6.468","198.7","NAN","NAN","NAN","NAN","NAN"],
    [1568456,"2026-08-27 15:40:00","5209","3.5639999999999996","201.7","6.174","207.2","NAN","NAN","NAN","NAN","NAN"],
    [1568457,"2026-08-27 15:50:00","5210","3.2510000000000003","207.7","5.096","218.1","NAN","NAN","NAN","NAN","NAN"],
    [1568458,"2026-08-27 16:00:00","5211","3.127","204.7","5.292","198","NAN","NAN","NAN","NAN","NAN"],
    [1568459,"2026-08-27 16:10:00","5212","3.353","210.1","5.684","205.7","NAN","NAN","NAN","NAN","NAN"],
    [1568460,"2026-08-27 16:20:00","5213","3.489","220.8","5.096","204.9","NAN","NAN","NAN","NAN","NAN"],
    [1568461,"2026-08-27 16:30:00","5214","3.0410000000000004","216.9","5.096","222","NAN","NAN","NAN","NAN","NAN"],
    [1568462,"2026-08-27 16:40:00","5215","3.4539999999999997","213.1","5.488","196.2","NAN","NAN","NAN","NAN","NAN"],
    [1568463,"2026-08-27 16:50:00","5216","3.157","220.4","5.39","215.4","NAN","NAN","NAN","NAN","NAN"],
    [1568464,"2026-08-27 17:00:00","5217","2.8169999999999997","224.6","4.508","222","NAN","NAN","NAN","NAN","NAN"],
    [1568465,"2026-08-27 17:10:00","5218","2.28","224.3","5.586","230.1","NAN","NAN","NAN","NAN","NAN"],
    [1568466,"2026-08-27 17:20:00","5219","2.593","227.3","4.704","229.9","NAN","NAN","NAN","NAN","NAN"],
    [1568467,"2026-08-27 17:30:00","5220","2.533","214.0","4.508","205.6","NAN","NAN","NAN","NAN","NAN"],
    [1568468,"2026-08-27 17:40:00","5221","2.481","210.7","4.018","213.3","NAN","NAN","NAN","NAN","NAN"],
    [1568469,"2026-08-27 17:50:00","5222","2.414","206.5","4.116","211.7","NAN","NAN","NAN","NAN","NAN"],
    [1568470,"2026-08-27 18:00:00","5223","2.5789999999999997","208.7","4.41","211.7","NAN","NAN","NAN","NAN","NAN"],
    [1568471,"2026-08-27 18:10:00","5224","1.831","225.5","3.43","237","NAN","NAN","NAN","NAN","NAN"],
    [1568472,"2026-08-27 18:20:00","5225","1.8259999999999998","248.9","3.136","243.7","NAN","NAN","NAN","NAN","NAN"],
    [1568473,"2026-08-27 18:30:00","5226","2.346","258.7","3.234","265","NAN","NAN","NAN","NAN","NAN"],
    [1568474,"2026-08-27 18:40:00","5227","2.846","248.8","4.018","244.9","NAN","NAN","NAN","NAN","NAN"],
    [1568475,"2026-08-27 18:50:00","5228","2.81","261.1","3.92","269.6","NAN","NAN","NAN","NAN","NAN"],
    [1568476,"2026-08-27 19:00:00","5229","1.966","254.4","3.626","268.9","NAN","NAN","NAN","NAN","NAN"],
    [1568477,"2026-08-27 19:10:00","5230","1.835","258.4","2.94","263.2","NAN","NAN","NAN","NAN","NAN"],
    [1568478,"2026-08-27 19:20:00","5231","1.756","244.5","2.94","225.6","NAN","NAN","NAN","NAN","NAN"],
    [1568479,"2026-08-27 19:30:00","5232","1.8619999999999999","195.2","2.94","215.2","NAN","NAN","NAN","NAN","NAN"],
    [1568480,"2026-08-27 19:40:00","5233","1.548","207.4","2.744","208.9","NAN","NAN","NAN","NAN","NAN"],
    [1568481,"2026-08-27 19:50:00","5234","2.154","261.7","3.43","262.4","NAN","NAN","NAN","NAN","NAN"],
    [1568482,"2026-08-27 20:00:00","5235","2.154","276.1","3.234","276.8","NAN","NAN","NAN","NAN","NAN"],
    [1568483,"2026-08-27 20:10:00","5236","1.9269999999999998","263.9","3.724","258","NAN","NAN","NAN","NAN","NAN"],
    [1568484,"2026-08-27 20:20:00","5237","2.5","272.9","4.018","275.3","NAN","NAN","NAN","NAN","NAN"],
    [1568485,"2026-08-27 20:30:00","5238","1.18","212.1","2.646","216.2","NAN","NAN","NAN","NAN","NAN"],
    [1568486,"2026-08-27 20:40:00","5239","1.605","231.7","2.548","239.5","NAN","NAN","NAN","NAN","NAN"],
    [1568487,"2026-08-27 20:50:00","5240","3.155","235.9","5.096","249.9","NAN","NAN","NAN","NAN","NAN"],
    [1568488,"2026-08-27 21:00:00","5241","2.526","238.6","4.9","283.2","NAN","NAN","NAN","NAN","NAN"],
    [1568489,"2026-08-27 21:10:00","5242","0.9129999999999999","211.2","2.058","195.8","NAN","NAN","NAN","NAN","NAN"],
    [1568490,"2026-08-27 21:20:00","5243","0.645","235.1","1.568","264.4","NAN","NAN","NAN","NAN","NAN"],
    [1568491,"2026-08-27 21:30:00","5244","1.787","288.8","3.332","288","NAN","NAN","NAN","NAN","NAN"],
    [1568492,"2026-08-27 21:40:00","5245","2.138","289.3","3.43","279.1","NAN","NAN","NAN","NAN","NAN"],
    [1568493,"2026-08-27 21:50:00","5246","2.385","260.9","3.332","282.4","NAN","NAN","NAN","NAN","NAN"],
    [1568494,"2026-08-27 22:00:00","5247","2.662","249.5","3.92","249.6","NAN","NAN","NAN","NAN","NAN"],
    [1568495,"2026-08-27 22:10:00","5248","2.4819999999999998","245.0","3.822","244","NAN","NAN","NAN","NAN","NAN"],
    [1568496,"2026-08-27 22:20:00","5249","3.194","270.6","5.096","272.9","NAN","NAN","NAN","NAN","NAN"],
    [1568497,"2026-08-27 22:30:00","5250","2.986","274.2","5.292","260.4","NAN","NAN","NAN","NAN","NAN"],
    [1568498,"2026-08-27 22:40:00","5251","3.158","256.7","4.998","254.5","NAN","NAN","NAN","NAN","NAN"],
    [1568499,"2026-08-27 22:50:00","5252","3.033","251.8","4.704","243.4","NAN","NAN","NAN","NAN","NAN"],
    [1568500,"2026-08-27 23:00:00","5253","2.175","247.9","4.116","249.6","NAN","NAN","NAN","NAN","NAN"],
    [1568501,"2026-08-27 23:10:00","5254","1.544","227.5","2.744","214.1","NAN","NAN","NAN","NAN","NAN"],
    [1568502,"2026-08-27 23:20:00","5255","1.084","251.7","2.156","251.6","NAN","NAN","NAN","NAN","NAN"],
    [1568503,"2026-08-27 23:30:00","5256","2.052","308.6","3.528","296.5","NAN","NAN","NAN","NAN","NAN"],
    [1568504,"2026-08-27 23:40:00","5257","1.4409999999999998","299.7","2.94","298.2","NAN","NAN","NAN","NAN","NAN"],
    [1568505,"2026-08-27 23:50:00","5258","0.475","296.3","1.372","296.6","NAN","NAN","NAN","NAN","NAN"],
    [1568506,"2026-08-28 00:00:00","5259","0.163","290.9","0.784","293.8","NAN","NAN","NAN","NAN","NAN"],
    [1568507,"2026-08-28 00:10:00","5260","1.2009999999999998","292.7","2.548","286.8","NAN","NAN","NAN","NAN","NAN"],
    [1568508,"2026-08-28 00:20:00","5261","2.213","278.7","4.312","267.6","NAN","NAN","NAN","NAN","NAN"],
    [1568509,"2026-08-28 00:30:00","5262","1.9669999999999999","241.2","3.822","252.9","NAN","NAN","NAN","NAN","NAN"],
    [1568510,"2026-08-28 00:40:00","5263","2.487","216.2","3.92","233.8","NAN","NAN","NAN","NAN","NAN"],
    [1568511,"2026-08-28 00:50:00","5264","2.707","238.2","6.958","225.5","NAN","NAN","NAN","NAN","NAN"],
    [1568512,"2026-08-28 01:00:00","5265","3.238","276.2","5.194","273.3","NAN","NAN","NAN","NAN","NAN"],
    [1568513,"2026-08-28 01:10:00","5266","2.443","249.4","4.018","251.4","NAN","NAN","NAN","NAN","NAN"],
    [1568514,"2026-08-28 01:20:00","5267","1.556","218.3","2.94","217.4","NAN","NAN","NAN","NAN","NAN"],
    [1568515,"2026-08-28 01:30:00","5268","1.0659999999999998","234.9","2.842","239.2","NAN","NAN","NAN","NAN","NAN"],
    [1568516,"2026-08-28 01:40:00","5269","2.296","266.2","3.43","261.5","NAN","NAN","NAN","NAN","NAN"],
    [1568517,"2026-08-28 01:50:00","5270","2.059","275.2","3.038","276.9","NAN","NAN","NAN","NAN","NAN"],
    [1568518,"2026-08-28 02:00:00","5271","1.996","267.5","2.94","271","NAN","NAN","NAN","NAN","NAN"],
    [1568519,"2026-08-28 02:10:00","5272","2.4290000000000003","282.2","3.92","292.1","NAN","NAN","NAN","NAN","NAN"],
    [1568520,"2026-08-28 02:20:00","5273","3.14","291.1","5.488","294.7","NAN","NAN","NAN","NAN","NAN"],
    [1568521,"2026-08-28 02:30:00","5274","3.264","273.8","5.292","271","NAN","NAN","NAN","NAN","NAN"],
    [1568522,"2026-08-28 02:40:00","5275","3.013","275.1","5.39","269.8","NAN","NAN","NAN","NAN","NAN"],
    [1568523,"2026-08-28 02:50:00","5276","2.8930000000000002","279.4","5.292","292.2","NAN","NAN","NAN","NAN","NAN"],
    [1568524,"2026-08-28 03:00:00","5277","3.793","296.0","6.86","284.6","NAN","NAN","NAN","NAN","NAN"],
    [1568525,"2026-08-28 03:10:00","5278","2.34","280.3","3.528","289.9","NAN","NAN","NAN","NAN","NAN"],
    [1568526,"2026-08-28 03:20:00","5279","2.22","265.2","4.41","257.5","NAN","NAN","NAN","NAN","NAN"],
    [1568527,"2026-08-28 03:30:00","5280","2.675","282.7","6.37","301","NAN","NAN","NAN","NAN","NAN"],
    [1568528,"2026-08-28 03:40:00","5281","3.035","293.4","6.076","297.6","NAN","NAN","NAN","NAN","NAN"],
    [1568529,"2026-08-28 03:50:00","5282","3.3539999999999996","295.3","5.978","275.2","NAN","NAN","NAN","NAN","NAN"],
    [1568530,"2026-08-28 04:00:00","5283","3.003","284.1","6.174","285.9","NAN","NAN","NAN","NAN","NAN"],
    [1568531,"2026-08-28 04:10:00","5284","3.161","297.0","6.86","338.8","NAN","NAN","NAN","NAN","NAN"],
    [1568532,"2026-08-28 04:20:00","5285","3.5180000000000002","297.0","5.39","300.4","NAN","NAN","NAN","NAN","NAN"],
    [1568533,"2026-08-28 04:30:00","5286","4.251","307.2","8.13","297.2","NAN","NAN","NAN","NAN","NAN"],
    [1568534,"2026-08-28 04:40:00","5287","4.118","304.5","6.468","306.3","NAN","NAN","NAN","NAN","NAN"],
    [1568535,"2026-08-28 04:50:00","5288","4.086","314.0","8.33","323.7","NAN","NAN","NAN","NAN","NAN"],
    [1568536,"2026-08-28 05:00:00","5289","4.6530000000000005","312.1","9.21","299.2","NAN","NAN","NAN","NAN","NAN"],
    [1568537,"2026-08-28 05:10:00","5290","4.662","317.2","9.41","317.6","NAN","NAN","NAN","NAN","NAN"],
    [1568538,"2026-08-28 05:20:00","5291","3.4410000000000003","307.5","6.174","315.2","NAN","NAN","NAN","NAN","NAN"],
    [1568539,"2026-08-28 05:30:00","5292","3.7960000000000003","311.8","7.448","353.8","NAN","NAN","NAN","NAN","NAN"],
    [1568540,"2026-08-28 05:40:00","5293","3.813","307.7","6.958","307.5","NAN","NAN","NAN","NAN","NAN"],
    [1568541,"2026-08-28 05:50:00","5294","4.438","307.7","9.6","296.3","NAN","NAN","NAN","NAN","NAN"],
    [1568542,"2026-08-28 06:00:00","5295","4.0760000000000005","312.6","7.448","316.8","NAN","NAN","NAN","NAN","NAN"],
    [1568543,"2026-08-28 06:10:00","5296","4.419","309.9","8.23","294.5","NAN","NAN","NAN","NAN","NAN"],
    [1568544,"2026-08-28 06:20:00","5297","4.585","306.7","8.04","318.1","NAN","NAN","NAN","NAN","NAN"],
    [1568545,"2026-08-28 06:30:00","5298","4.096","314.4","7.154","292","NAN","NAN","NAN","NAN","NAN"],
    [1568546,"2026-08-28 06:40:00","5299","4.619","314.7","10.88","317.1","NAN","NAN","NAN","NAN","NAN"],
    [1568547,"2026-08-28 06:50:00","5300","5.192","313.3","10.88","317.1","NAN","NAN","NAN","NAN","NAN"],
    [1568548,"2026-08-28 07:00:00","5301","4.231","310.8","9.51","308","NAN","NAN","NAN","NAN","NAN"],
    [1568549,"2026-08-28 07:10:00","5302","5.806","309.6","13.23","301.5","NAN","NAN","NAN","NAN","NAN"],
    [1568550,"2026-08-28 07:20:00","5303","4.575","306.4","7.448","278.6","NAN","NAN","NAN","NAN","NAN"],
    [1568551,"2026-08-28 07:30:00","5304","4.2010000000000005","313.2","8.43","301","NAN","NAN","NAN","NAN","NAN"],
    [1568552,"2026-08-28 07:40:00","5305","5.353","313.0","8.92","310.4","NAN","NAN","NAN","NAN","NAN"],
    [1568553,"2026-08-28 07:50:00","5306","5.195","308.5","9.21","301.9","NAN","NAN","NAN","NAN","NAN"],
    [1568554,"2026-08-28 08:00:00","5307","4.904","315.1","9.9","305.5","NAN","NAN","NAN","NAN","NAN"],
    [1568555,"2026-08-28 08:10:00","5308","5.546","312.2","11.37","318.5","NAN","NAN","NAN","NAN","NAN"],
    [1568556,"2026-08-28 08:20:00","5309","5.3229999999999995","308.5","10.09","301.9","NAN","NAN","NAN","NAN","NAN"],
    [1568557,"2026-08-28 08:30:00","5310","5.371","317.0","10.49","328.7","NAN","NAN","NAN","NAN","NAN"],
    [1568558,"2026-08-28 08:40:00","5311","5.39","318.5","9.51","306.2","NAN","NAN","NAN","NAN","NAN"],
    [1568559,"2026-08-28 08:50:00","5312","4.753","313.5","8.82","303.5","NAN","NAN","NAN","NAN","NAN"],
    [1568560,"2026-08-28 09:00:00","5313","4.578","299.1","8.92","327.5","NAN","NAN","NAN","NAN","NAN"],
    [1568561,"2026-08-28 09:10:00","5314","4.281000000000001","302.6","7.448","294.5","NAN","NAN","NAN","NAN","NAN"],
    [1568562,"2026-08-28 09:20:00","5315","4.184","289.4","7.056","315.2","NAN","NAN","NAN","NAN","NAN"],
    [1568563,"2026-08-28 09:30:00","5316","4.258","295.4","8.13","290.8","NAN","NAN","NAN","NAN","NAN"],
    [1568564,"2026-08-28 09:40:00","5317","4.752","295.0","6.958","295.6","NAN","NAN","NAN","NAN","NAN"],
    [1568565,"2026-08-28 09:50:00","5318","3.971","299.1","7.252","321.8","NAN","NAN","NAN","NAN","NAN"],
    [1568566,"2026-08-28 10:00:00","5319","5.5360000000000005","315.5","8.33","311.3","NAN","NAN","NAN","NAN","NAN"],
    [1568567,"2026-08-28 10:10:00","5320","4.747","315.3","8.13","328","NAN","NAN","NAN","NAN","NAN"],
    [1568568,"2026-08-28 10:20:00","5321","4.619","307.4","7.546","294.4","NAN","NAN","NAN","NAN","NAN"],
    [1568569,"2026-08-28 10:30:00","5322","4.692","308.9","8.04","315.8","NAN","NAN","NAN","NAN","NAN"],
    [1568570,"2026-08-28 10:40:00","5323","3.966","306.1","7.546","314.8","NAN","NAN","NAN","NAN","NAN"],
    [1568571,"2026-08-28 10:50:00","5324","5.352","315.3","9.02","339.4","NAN","NAN","NAN","NAN","NAN"],
    [1568572,"2026-08-28 11:00:00","5325","5.428999999999999","314.9","9.6","329.6","NAN","NAN","NAN","NAN","NAN"],
    [1568573,"2026-08-28 11:10:00","5326","4.752","312.8","8.43","296.1","NAN","NAN","NAN","NAN","NAN"],
    [1568574,"2026-08-28 11:20:00","5327","5.045","322.2","7.252","331.9","NAN","NAN","NAN","NAN","NAN"],
    [1568575,"2026-08-28 11:30:00","5328","4.256","313.9","6.566","302.1","NAN","NAN","NAN","NAN","NAN"],
    [1568576,"2026-08-28 11:40:00","5329","2.918","315.6","6.37","317.5","NAN","NAN","NAN","NAN","NAN"],
    [1568577,"2026-08-28 11:50:00","5330","3.826","318.6","6.272","327.4","NAN","NAN","NAN","NAN","NAN"],
    [1568578,"2026-08-28 12:00:00","5331","3.56","307.7","7.056","300.4","NAN","NAN","NAN","NAN","NAN"],
    [1568579,"2026-08-28 12:10:00","5332","2.609","310.3","4.9","288.7","NAN","NAN","NAN","NAN","NAN"],
    [1568580,"2026-08-28 12:20:00","5333","2.755","269.6","5.488","260.3","NAN","NAN","NAN","NAN","NAN"],
    [1568581,"2026-08-28 12:30:00","5334","2.454","244.3","5.194","261.7","NAN","NAN","NAN","NAN","NAN"],
    [1568582,"2026-08-28 12:40:00","5335","4.221","282.7","10.09","312.3","NAN","NAN","NAN","NAN","NAN"],
    [1568583,"2026-08-28 12:50:00","5336","3.322","256.1","6.174","283.1","NAN","NAN","NAN","NAN","NAN"],
    [1568584,"2026-08-28 13:00:00","5337","4.768","217.2","8.33","225.2","NAN","NAN","NAN","NAN","NAN"],
    [1568585,"2026-08-28 13:10:00","5338","4.147","204.3","7.154","207.8","NAN","NAN","NAN","NAN","NAN"],
    [1568586,"2026-08-28 13:20:00","5339","3.733","215.0","7.056","242.1","NAN","NAN","NAN","NAN","NAN"],
    [1568587,"2026-08-28 13:30:00","5340","4.694","228.8","8.53","233.6","NAN","NAN","NAN","NAN","NAN"],
    [1568588,"2026-08-28 13:40:00","5341","5.268","225.7","9.6","226.8","NAN","NAN","NAN","NAN","NAN"],
    [1568589,"2026-08-28 13:50:00","5342","5.013999999999999","229.1","9.6","226.8","NAN","NAN","NAN","NAN","NAN"],
    [1568590,"2026-08-28 14:00:00","5343","5.776","233.2","9.9","242.5","NAN","NAN","NAN","NAN","NAN"],
    [1568591,"2026-08-28 14:10:00","5344","4.6610000000000005","224.4","8.33","221.2","NAN","NAN","NAN","NAN","NAN"],
    [1568592,"2026-08-28 14:20:00","5345","4.985","229.0","8.04","226","NAN","NAN","NAN","NAN","NAN"],
    [1568593,"2026-08-28 14:30:00","5346","4.896","218.7","7.938","240.3","NAN","NAN","NAN","NAN","NAN"],
    [1568594,"2026-08-28 14:40:00","5347","4.711","221.7","8.82","221.3","NAN","NAN","NAN","NAN","NAN"],
    [1568595,"2026-08-28 14:50:00","5348","4.716","221.6","7.448","221.2","NAN","NAN","NAN","NAN","NAN"],
    [1568596,"2026-08-28 15:00:00","5349","4.495","221.8","8.82","225.5","NAN","NAN","NAN","NAN","NAN"],
    [1568597,"2026-08-28 15:10:00","5350","4.577","223.7","8.13","223.5","NAN","NAN","NAN","NAN","NAN"],
    [1568598,"2026-08-28 15:20:00","5351","5.039","215.3","7.742","226.8","NAN","NAN","NAN","NAN","NAN"],
    [1568599,"2026-08-28 15:30:00","5352","4.69","220.4","8.82","253.5","NAN","NAN","NAN","NAN","NAN"],
    [1568600,"2026-08-28 15:40:00","5353","4.699","232.4","7.742","250.7","NAN","NAN","NAN","NAN","NAN"],
    [1568601,"2026-08-28 15:50:00","5354","5.437","227.5","9.21","221.4","NAN","NAN","NAN","NAN","NAN"],
    [1568602,"2026-08-28 16:00:00","5355","5.045","223.0","8.62","222.3","NAN","NAN","NAN","NAN","NAN"],
    [1568603,"2026-08-28 16:10:00","5356","4.633","218.8","7.644","231.2","NAN","NAN","NAN","NAN","NAN"],
    [1568604,"2026-08-28 16:20:00","5357","4.185","227.6","6.958","245.5","NAN","NAN","NAN","NAN","NAN"],
    [1568605,"2026-08-28 16:30:00","5358","4.914","233.8","8.23","242.2","NAN","NAN","NAN","NAN","NAN"],
    [1568606,"2026-08-28 16:40:00","5359","3.895","228.4","6.566","228.1","NAN","NAN","NAN","NAN","NAN"],
    [1568607,"2026-08-28 16:50:00","5360","3.798","237.5","8.04","231.6","NAN","NAN","NAN","NAN","NAN"],
    [1568608,"2026-08-28 17:00:00","5361","3.312","243.9","5.684","240.6","NAN","NAN","NAN","NAN","NAN"],
    [1568609,"2026-08-28 17:10:00","5362","4.243","246.8","6.958","237.1","NAN","NAN","NAN","NAN","NAN"],
    [1568610,"2026-08-28 17:20:00","5363","3.926","247.3","7.546","254.8","NAN","NAN","NAN","NAN","NAN"],
    [1568611,"2026-08-28 17:30:00","5364","3.5469999999999997","242.2","6.174","249.9","NAN","NAN","NAN","NAN","NAN"],
    [1568612,"2026-08-28 17:40:00","5365","3.53","248.7","5.88","260.2","NAN","NAN","NAN","NAN","NAN"],
    [1568613,"2026-08-28 17:50:00","5366","2.847","248.4","4.802","249.9","NAN","NAN","NAN","NAN","NAN"],
    [1568614,"2026-08-28 18:00:00","5367","3.0189999999999997","278.3","4.9","267.8","NAN","NAN","NAN","NAN","NAN"],
    [1568615,"2026-08-28 18:10:00","5368","3.338","284.8","5.88","298.5","NAN","NAN","NAN","NAN","NAN"],
    [1568616,"2026-08-28 18:20:00","5369","3.28","294.7","4.606","296.9","NAN","NAN","NAN","NAN","NAN"],
    [1568617,"2026-08-28 18:30:00","5370","3.417","308.5","6.664","296.7","NAN","NAN","NAN","NAN","NAN"],
    [1568618,"2026-08-28 18:40:00","5371","3.6239999999999997","308.4","6.174","305.3","NAN","NAN","NAN","NAN","NAN"],
    [1568619,"2026-08-28 18:50:00","5372","2.7039999999999997","305.0","4.606","317.8","NAN","NAN","NAN","NAN","NAN"],
    [1568620,"2026-08-28 19:00:00","5373","3.141","298.5","5.194","288.2","NAN","NAN","NAN","NAN","NAN"],
    [1568621,"2026-08-28 19:10:00","5374","3.0380000000000003","303.5","4.9","297.5","NAN","NAN","NAN","NAN","NAN"],
    [1568622,"2026-08-28 19:20:00","5375","3.3289999999999997","294.2","5.782","293.5","NAN","NAN","NAN","NAN","NAN"],
    [1568623,"2026-08-28 19:30:00","5376","2.822","303.8","4.998","308.2","NAN","NAN","NAN","NAN","NAN"],
    [1568624,"2026-08-28 19:40:00","5377","2.623","304.6","4.9","309.4","NAN","NAN","NAN","NAN","NAN"],
    [1568625,"2026-08-28 19:50:00","5378","2.001","309.6","3.822","316.6","NAN","NAN","NAN","NAN","NAN"],
    [1568626,"2026-08-28 20:00:00","5379","2.056","317.1","3.234","309.2","NAN","NAN","NAN","NAN","NAN"],
    [1568627,"2026-08-28 20:10:00","5380","2.687","325.5","5.586","322","NAN","NAN","NAN","NAN","NAN"],
    [1568628,"2026-08-28 20:20:00","5381","2.455","323.0","4.41","316.5","NAN","NAN","NAN","NAN","NAN"],
    [1568629,"2026-08-28 20:30:00","5382","2.011","339.4","4.018","343","NAN","NAN","NAN","NAN","NAN"],
    [1568630,"2026-08-28 20:40:00","5383","1.136","337.6","2.646","327.6","NAN","NAN","NAN","NAN","NAN"],
    [1568631,"2026-08-28 20:50:00","5384","2.065","332.7","4.116","335.7","NAN","NAN","NAN","NAN","NAN"],
    [1568632,"2026-08-28 21:00:00","5385","2.079","339.3","4.214","325.9","NAN","NAN","NAN","NAN","NAN"],
    [1568633,"2026-08-28 21:10:00","5386","0.728","358.0","1.862","353.8","NAN","NAN","NAN","NAN","NAN"],
    [1568634,"2026-08-28 21:20:00","5387","0.779","0.35700000000000004","1.666","10.23","NAN","NAN","NAN","NAN","NAN"],
    [1568635,"2026-08-28 21:30:00","5388","0.654","11.67","1.568","10.61","NAN","NAN","NAN","NAN","NAN"],
    [1568636,"2026-08-28 21:40:00","5389","1.344","17.95","2.842","17.53","NAN","NAN","NAN","NAN","NAN"],
    [1568637,"2026-08-28 21:50:00","5390","1.34","21.14","2.45","23.97","NAN","NAN","NAN","NAN","NAN"],
    [1568638,"2026-08-28 22:00:00","5391","1.91","78.78","3.528","83.7","NAN","NAN","NAN","NAN","NAN"],
    [1568639,"2026-08-28 22:10:00","5392","2.6319999999999997","86.7","4.41","110.9","NAN","NAN","NAN","NAN","NAN"],
    [1568640,"2026-08-28 22:20:00","5393","2.947","76.44","4.704","70.46","NAN","NAN","NAN","NAN","NAN"],
    [1568641,"2026-08-28 22:30:00","5394","2.85","68.78","4.508","68.35","NAN","NAN","NAN","NAN","NAN"],
    [1568642,"2026-08-28 22:40:00","5395","2.082","52.82","4.116","38.62","NAN","NAN","NAN","NAN","NAN"],
    [1568643,"2026-08-28 22:50:00","5396","2.154","43.17","3.822","44.86","NAN","NAN","NAN","NAN","NAN"],
    [1568644,"2026-08-28 23:00:00","5397","1.239","33.5","2.94","33.86","NAN","NAN","NAN","NAN","NAN"],
    [1568645,"2026-08-28 23:10:00","5398","0.313","33.29","1.47","33.29","NAN","NAN","NAN","NAN","NAN"],
    [1568646,"2026-08-28 23:20:00","5399","0.149","28.56","1.176","29.37","NAN","NAN","NAN","NAN","NAN"],
    [1568647,"2026-08-28 23:30:00","5400","0.152","23.82","0.588","24.06","NAN","NAN","NAN","NAN","NAN"],
    [1568648,"2026-08-28 23:40:00","5401","0.14800000000000002","23.72","0.49","23.78","NAN","NAN","NAN","NAN","NAN"],
    [1568649,"2026-08-28 23:50:00","5402","0.18","23.68","0.784","23.68","NAN","NAN","NAN","NAN","NAN"],
    [1568650,"2026-08-29 00:00:00","5403","0.10400000000000001","23.65","0.392","23.68","NAN","NAN","NAN","NAN","NAN"],
    [1568651,"2026-08-29 00:10:00","5404","0.244","23.59","0.588","23.59","NAN","NAN","NAN","NAN","NAN"],
    [1568652,"2026-08-29 00:20:00","5405","0.091","23.53","0.392","23.59","NAN","NAN","NAN","NAN","NAN"],
    [1568653,"2026-08-29 00:30:00","5406","0.239","23.1","0.784","23.21","NAN","NAN","NAN","NAN","NAN"],
    [1568654,"2026-08-29 00:40:00","5407","0.036000000000000004","22.73","0.392","22.73","NAN","NAN","NAN","NAN","NAN"],
    [1568655,"2026-08-29 00:50:00","5408","0.040999999999999995","22.53","0.294","22.63","NAN","NAN","NAN","NAN","NAN"],
    [1568656,"2026-08-29 01:00:00","5409","0.018000000000000002","22.05","0.196","22.05","NAN","NAN","NAN","NAN","NAN"],
    [1568657,"2026-08-29 01:10:00","5410","0.004","21.96","0.294","21.96","NAN","NAN","NAN","NAN","NAN"],
    [1568658,"2026-08-29 01:20:00","5411","0.005","21.98","0.294","21.98","NAN","NAN","NAN","NAN","NAN"],
    [1568659,"2026-08-29 01:30:00","5412","0.059000000000000004","21.96","0.588","21.96","NAN","NAN","NAN","NAN","NAN"],
    [1568660,"2026-08-29 01:40:00","5413","0.151","21.96","0.98","21.96","NAN","NAN","NAN","NAN","NAN"],
    [1568661,"2026-08-29 01:50:00","5414","0.013000000000000001","21.96","0.294","21.96","NAN","NAN","NAN","NAN","NAN"],
    [1568662,"2026-08-29 02:00:00","5415","0.011000000000000001","21.94","0.294","21.96","NAN","NAN","NAN","NAN","NAN"],
    [1568663,"2026-08-29 02:10:00","5416","0.033","21.63","0.294","21.57","NAN","NAN","NAN","NAN","NAN"],
    [1568664,"2026-08-29 02:20:00","5417","0.24100000000000002","20.87","0.49","21.38","NAN","NAN","NAN","NAN","NAN"],
    [1568665,"2026-08-29 02:30:00","5418","0.08199999999999999","20.64","0.49","20.71","NAN","NAN","NAN","NAN","NAN"],
    [1568666,"2026-08-29 02:40:00","5419","0.13699999999999998","20.57","0.49","20.61","NAN","NAN","NAN","NAN","NAN"],
    [1568667,"2026-08-29 02:50:00","5420","0.107","20.27","0.588","20.23","NAN","NAN","NAN","NAN","NAN"],
    [1568668,"2026-08-29 03:00:00","5421","0.003","20.23","0.196","20.23","NAN","NAN","NAN","NAN","NAN"],
    [1568669,"2026-08-29 03:10:00","5422","0.049","19.92","0.294","19.84","NAN","NAN","NAN","NAN","NAN"],
    [1568670,"2026-08-29 03:20:00","5423","0.122","19.65","0.588","19.65","NAN","NAN","NAN","NAN","NAN"],
    [1568671,"2026-08-29 03:30:00","5424","0.08199999999999999","19.53","0.392","19.55","NAN","NAN","NAN","NAN","NAN"],
    [1568672,"2026-08-29 03:40:00","5425","0.040999999999999995","19.24","0.49","18.59","NAN","NAN","NAN","NAN","NAN"],
    [1568673,"2026-08-29 03:50:00","5426","0.179","4.5280000000000005","0.784","0.625","NAN","NAN","NAN","NAN","NAN"],
    [1568674,"2026-08-29 04:00:00","5427","0.77","339.9","1.372","338","NAN","NAN","NAN","NAN","NAN"],
    [1568675,"2026-08-29 04:10:00","5428","0.784","331.4","1.568","331.6","NAN","NAN","NAN","NAN","NAN"],
    [1568676,"2026-08-29 04:20:00","5429","0.9490000000000001","329.2","1.764","326.4","NAN","NAN","NAN","NAN","NAN"],
    [1568677,"2026-08-29 04:30:00","5430","1.146","325.2","1.862","323.8","NAN","NAN","NAN","NAN","NAN"],
    [1568678,"2026-08-29 04:40:00","5431","1.4969999999999999","314.2","2.352","315.3","NAN","NAN","NAN","NAN","NAN"],
    [1568679,"2026-08-29 04:50:00","5432","1.073","312.1","1.666","312.2","NAN","NAN","NAN","NAN","NAN"],
    [1568680,"2026-08-29 05:00:00","5433","1.284","311.9","2.058","312.1","NAN","NAN","NAN","NAN","NAN"],
    [1568681,"2026-08-29 05:10:00","5434","1.344","310.4","2.254","311.8","NAN","NAN","NAN","NAN","NAN"],
    [1568682,"2026-08-29 05:20:00","5435","1.655","302.2","2.352","299.2","NAN","NAN","NAN","NAN","NAN"],
    [1568683,"2026-08-29 05:30:00","5436","1.98","292.5","2.94","293","NAN","NAN","NAN","NAN","NAN"],
    [1568684,"2026-08-29 05:40:00","5437","1.599","291.3","2.45","290.7","NAN","NAN","NAN","NAN","NAN"],
    [1568685,"2026-08-29 05:50:00","5438","1.7519999999999998","290.8","2.45","290.4","NAN","NAN","NAN","NAN","NAN"],
    [1568686,"2026-08-29 06:00:00","5439","1.67","295.2","2.646","290.1","NAN","NAN","NAN","NAN","NAN"],
    [1568687,"2026-08-29 06:10:00","5440","1.555","293.7","2.94","296.2","NAN","NAN","NAN","NAN","NAN"],
    [1568688,"2026-08-29 06:20:00","5441","1.516","292.3","2.45","289.9","NAN","NAN","NAN","NAN","NAN"],
    [1568689,"2026-08-29 06:30:00","5442","1.205","287.8","2.254","290.4","NAN","NAN","NAN","NAN","NAN"],
    [1568690,"2026-08-29 06:40:00","5443","1.545","282.1","3.038","279.1","NAN","NAN","NAN","NAN","NAN"],
    [1568691,"2026-08-29 06:50:00","5444","1.847","284.4","2.94","290.4","NAN","NAN","NAN","NAN","NAN"],
    [1568692,"2026-08-29 07:00:00","5445","2.421","287.5","3.724","295.8","NAN","NAN","NAN","NAN","NAN"],
    [1568693,"2026-08-29 07:10:00","5446","1.889","286.0","3.038","290.3","NAN","NAN","NAN","NAN","NAN"],
    [1568694,"2026-08-29 07:20:00","5447","2.457","286.2","3.332","297.5","NAN","NAN","NAN","NAN","NAN"],
    [1568695,"2026-08-29 07:30:00","5448","2.5269999999999997","290.5","3.528","295.6","NAN","NAN","NAN","NAN","NAN"],
    [1568696,"2026-08-29 07:40:00","5449","2.3409999999999997","291.3","3.136","296.2","NAN","NAN","NAN","NAN","NAN"],
    [1568697,"2026-08-29 07:50:00","5450","2.351","284.0","3.332","282.3","NAN","NAN","NAN","NAN","NAN"],
    [1568698,"2026-08-29 08:00:00","5451","1.597","280.1","2.548","278.2","NAN","NAN","NAN","NAN","NAN"],
    [1568699,"2026-08-29 08:10:00","5452","0.7959999999999999","285.9","2.254","283.6","NAN","NAN","NAN","NAN","NAN"],
    [1568700,"2026-08-29 08:20:00","5453","0.637","328.2","2.058","67.82","NAN","NAN","NAN","NAN","NAN"],
    [1568701,"2026-08-29 08:30:00","5454","1.4380000000000002","77.38","2.548","99.4","NAN","NAN","NAN","NAN","NAN"],
    [1568702,"2026-08-29 08:40:00","5455","1.5030000000000001","91.3","2.744","98.3","NAN","NAN","NAN","NAN","NAN"],
    [1568703,"2026-08-29 08:50:00","5456","1.564","105.4","2.842","107.5","NAN","NAN","NAN","NAN","NAN"],
    [1568704,"2026-08-29 09:00:00","5457","1.689","105.6","3.038","99.9","NAN","NAN","NAN","NAN","NAN"],
    [1568705,"2026-08-29 09:10:00","5458","1.465","96.0","3.332","93.6","NAN","NAN","NAN","NAN","NAN"],
    [1568706,"2026-08-29 09:20:00","5459","1.51","92.8","2.646","82.6","NAN","NAN","NAN","NAN","NAN"],
    [1568707,"2026-08-29 09:30:00","5460","1.77","86.6","2.94","75.77","NAN","NAN","NAN","NAN","NAN"],
    [1568708,"2026-08-29 09:40:00","5461","1.848","103.9","3.332","109.2","NAN","NAN","NAN","NAN","NAN"],
    [1568709,"2026-08-29 09:50:00","5462","1.814","96.0","2.94","70.48","NAN","NAN","NAN","NAN","NAN"],
    [1568710,"2026-08-29 10:00:00","5463","1.797","83.5","3.43","69.9","NAN","NAN","NAN","NAN","NAN"],
    [1568711,"2026-08-29 10:10:00","5464","2.19","96.8","3.528","113.4","NAN","NAN","NAN","NAN","NAN"],
    [1568712,"2026-08-29 10:20:00","5465","2.522","123.6","4.214","141.7","NAN","NAN","NAN","NAN","NAN"],
    [1568713,"2026-08-29 10:30:00","5466","2.439","116.7","3.724","105.7","NAN","NAN","NAN","NAN","NAN"],
    [1568714,"2026-08-29 10:40:00","5467","2.6660000000000004","127.6","4.312","136.6","NAN","NAN","NAN","NAN","NAN"],
    [1568715,"2026-08-29 10:50:00","5468","2.283","123.9","4.41","134.5","NAN","NAN","NAN","NAN","NAN"],
    [1568716,"2026-08-29 11:00:00","5469","3.5210000000000004","132.7","5.292","144.4","NAN","NAN","NAN","NAN","NAN"],
    [1568717,"2026-08-29 11:10:00","5470","3.176","126.2","4.41","127.8","NAN","NAN","NAN","NAN","NAN"],
    [1568718,"2026-08-29 11:20:00","5471","3.29","119.5","5.782","98.7","NAN","NAN","NAN","NAN","NAN"],
    [1568719,"2026-08-29 11:30:00","5472","2.935","134.9","4.606","137.2","NAN","NAN","NAN","NAN","NAN"],
    [1568720,"2026-08-29 11:40:00","5473","2.852","139.4","5.194","154.3","NAN","NAN","NAN","NAN","NAN"],
    [1568721,"2026-08-29 11:50:00","5474","3.4739999999999998","138.8","5.194","154.3","NAN","NAN","NAN","NAN","NAN"],
    [1568722,"2026-08-29 12:00:00","5475","3.656","130.6","5.39","126.7","NAN","NAN","NAN","NAN","NAN"],
    [1568723,"2026-08-29 12:10:00","5476","3.843","133.9","5.978","139.8","NAN","NAN","NAN","NAN","NAN"],
    [1568724,"2026-08-29 12:20:00","5477","4.292","154.5","6.174","164.2","NAN","NAN","NAN","NAN","NAN"],
    [1568725,"2026-08-29 12:30:00","5478","4.277","156.3","6.076","165.7","NAN","NAN","NAN","NAN","NAN"],
    [1568726,"2026-08-29 12:40:00","5479","4.416","146.7","6.664","152.6","NAN","NAN","NAN","NAN","NAN"],
    [1568727,"2026-08-29 12:50:00","5480","4.692","153.5","6.664","152.6","NAN","NAN","NAN","NAN","NAN"],
    [1568728,"2026-08-29 13:00:00","5481","3.9610000000000003","172.3","6.86","169.8","NAN","NAN","NAN","NAN","NAN"],
    [1568729,"2026-08-29 13:10:00","5482","4.24","173.3","6.762","178.6","NAN","NAN","NAN","NAN","NAN"],
    [1568730,"2026-08-29 13:20:00","5483","4.621","162.5","6.664","149.1","NAN","NAN","NAN","NAN","NAN"],
    [1568731,"2026-08-29 13:30:00","5484","4.771","169.6","8.13","153.1","NAN","NAN","NAN","NAN","NAN"],
    [1568732,"2026-08-29 13:40:00","5485","3.553","186.0","8.13","209.1","NAN","NAN","NAN","NAN","NAN"],
    [1568733,"2026-08-29 13:50:00","5486","4.607","201.3","6.762","206","NAN","NAN","NAN","NAN","NAN"],
    [1568734,"2026-08-29 14:00:00","5487","4.405","190.7","6.566","186.7","NAN","NAN","NAN","NAN","NAN"],
    [1568735,"2026-08-29 14:10:00","5488","4.2","201.3","7.742","213.7","NAN","NAN","NAN","NAN","NAN"],
    [1568736,"2026-08-29 14:20:00","5489","4.652","204.1","7.448","205.3","NAN","NAN","NAN","NAN","NAN"],
    [1568737,"2026-08-29 14:30:00","5490","4.757","200.4","8.13","213.4","NAN","NAN","NAN","NAN","NAN"],
    [1568738,"2026-08-29 14:40:00","5491","3.926","196.7","7.056","220.8","NAN","NAN","NAN","NAN","NAN"],
    [1568739,"2026-08-29 14:50:00","5492","3.531","195.3","6.958","187.9","NAN","NAN","NAN","NAN","NAN"],
    [1568740,"2026-08-29 15:00:00","5493","3.807","203.3","6.664","215.7","NAN","NAN","NAN","NAN","NAN"],
    [1568741,"2026-08-29 15:10:00","5494","4.1080000000000005","212.6","7.644","218","NAN","NAN","NAN","NAN","NAN"],
    [1568742,"2026-08-29 15:20:00","5495","4.592","209.2","7.154","204.3","NAN","NAN","NAN","NAN","NAN"],
    [1568743,"2026-08-29 15:30:00","5496","4.067","203.6","7.056","202.2","NAN","NAN","NAN","NAN","NAN"],
    [1568744,"2026-08-29 15:40:00","5497","3.7430000000000003","213.1","6.37","225.2","NAN","NAN","NAN","NAN","NAN"],
    [1568745,"2026-08-29 15:50:00","5498","4.492","209.5","7.546","219.8","NAN","NAN","NAN","NAN","NAN"],
    [1568746,"2026-08-29 16:00:00","5499","3.697","212.0","6.37","213.2","NAN","NAN","NAN","NAN","NAN"],
    [1568747,"2026-08-29 16:10:00","5500","4.968","224.8","8.04","242.8","NAN","NAN","NAN","NAN","NAN"],
    [1568748,"2026-08-29 16:20:00","5501","4.725","218.2","8.04","242.8","NAN","NAN","NAN","NAN","NAN"],
    [1568749,"2026-08-29 16:30:00","5502","3.865","230.7","6.37","221.6","NAN","NAN","NAN","NAN","NAN"],
    [1568750,"2026-08-29 16:40:00","5503","4.6339999999999995","231.3","7.35","253.2","NAN","NAN","NAN","NAN","NAN"],
    [1568751,"2026-08-29 16:50:00","5504","3.7569999999999997","230.3","6.174","232.3","NAN","NAN","NAN","NAN","NAN"],
    [1568752,"2026-08-29 17:00:00","5505","3.807","230.4","6.468","232.9","NAN","NAN","NAN","NAN","NAN"],
    [1568753,"2026-08-29 17:10:00","5506","4.065","236.6","7.35","233.7","NAN","NAN","NAN","NAN","NAN"],
    [1568754,"2026-08-29 17:20:00","5507","3.5989999999999998","234.7","6.86","238.7","NAN","NAN","NAN","NAN","NAN"],
    [1568755,"2026-08-29 17:30:00","5508","4.396","239.8","7.84","226.6","NAN","NAN","NAN","NAN","NAN"],
    [1568756,"2026-08-29 17:40:00","5509","3.845","227.6","6.958","236.7","NAN","NAN","NAN","NAN","NAN"],
    [1568757,"2026-08-29 17:50:00","5510","3.647","231.6","6.958","247","NAN","NAN","NAN","NAN","NAN"],
    [1568758,"2026-08-29 18:00:00","5511","3.865","222.6","6.958","221","NAN","NAN","NAN","NAN","NAN"],
    [1568759,"2026-08-29 18:10:00","5512","3.6319999999999997","227.5","7.252","223.1","NAN","NAN","NAN","NAN","NAN"],
    [1568760,"2026-08-29 18:20:00","5513","2.7739999999999996","222.3","5.488","218","NAN","NAN","NAN","NAN","NAN"],
    [1568761,"2026-08-29 18:30:00","5514","2.6189999999999998","225.3","4.312","219.8","NAN","NAN","NAN","NAN","NAN"],
    [1568762,"2026-08-29 18:40:00","5515","1.979","227.3","3.724","238.1","NAN","NAN","NAN","NAN","NAN"],
    [1568763,"2026-08-29 18:50:00","5516","1.9509999999999998","244.1","4.116","246.1","NAN","NAN","NAN","NAN","NAN"],
    [1568764,"2026-08-29 19:00:00","5517","2.576","247.2","4.9","254.6","NAN","NAN","NAN","NAN","NAN"],
    [1568765,"2026-08-29 19:10:00","5518","2.13","253.5","4.802","249.2","NAN","NAN","NAN","NAN","NAN"],
    [1568766,"2026-08-29 19:20:00","5519","2.9819999999999998","251.8","4.312","251.6","NAN","NAN","NAN","NAN","NAN"],
    [1568767,"2026-08-29 19:30:00","5520","2.679","250.2","4.312","253.5","NAN","NAN","NAN","NAN","NAN"],
    [1568768,"2026-08-29 19:40:00","5521","2.5780000000000003","250.0","4.214","239.3","NAN","NAN","NAN","NAN","NAN"],
    [1568769,"2026-08-29 19:50:00","5522","3.125","253.8","4.312","247.7","NAN","NAN","NAN","NAN","NAN"],
    [1568770,"2026-08-29 20:00:00","5523","2.923","257.3","4.606","252.1","NAN","NAN","NAN","NAN","NAN"],
    [1568771,"2026-08-29 20:10:00","5524","2.34","255.8","4.116","249.3","NAN","NAN","NAN","NAN","NAN"],
    [1568772,"2026-08-29 20:20:00","5525","2.802","269.9","4.018","271.8","NAN","NAN","NAN","NAN","NAN"],
    [1568773,"2026-08-29 20:30:00","5526","2.483","278.8","3.626","280.9","NAN","NAN","NAN","NAN","NAN"],
    [1568774,"2026-08-29 20:40:00","5527","0.9440000000000001","287.4","2.45","291.6","NAN","NAN","NAN","NAN","NAN"],
    [1568775,"2026-08-29 20:50:00","5528","0.036000000000000004","285.4","0.588","290","NAN","NAN","NAN","NAN","NAN"],
    [1568776,"2026-08-29 21:00:00","5529","0.27899999999999997","292.6","1.176","292.6","NAN","NAN","NAN","NAN","NAN"],
    [1568777,"2026-08-29 21:10:00","5530","0.33299999999999996","292.8","0.98","292.8","NAN","NAN","NAN","NAN","NAN"],
    [1568778,"2026-08-29 21:20:00","5531","0.263","292.5","0.588","292.5","NAN","NAN","NAN","NAN","NAN"],
    [1568779,"2026-08-29 21:30:00","5532","0.037000000000000005","292.6","0.392","292.6","NAN","NAN","NAN","NAN","NAN"],
    [1568780,"2026-08-29 21:40:00","5533","0.0","0.0","0","292.6","NAN","NAN","NAN","NAN","NAN"],
    [1568781,"2026-08-29 21:50:00","5534","0.013000000000000001","276.0","0.196","276.2","NAN","NAN","NAN","NAN","NAN"],
    [1568782,"2026-08-29 22:00:00","5535","0.16699999999999998","268.3","0.784","265.8","NAN","NAN","NAN","NAN","NAN"],
    [1568783,"2026-08-29 22:10:00","5536","0.515","260.2","1.47","261.6","NAN","NAN","NAN","NAN","NAN"],
    [1568784,"2026-08-29 22:20:00","5537","0.657","257.4","1.372","257.2","NAN","NAN","NAN","NAN","NAN"],
    [1568785,"2026-08-29 22:30:00","5538","1.0170000000000001","257.5","1.568","257.4","NAN","NAN","NAN","NAN","NAN"],
    [1568786,"2026-08-29 22:40:00","5539","1.2890000000000001","261.7","1.96","262.5","NAN","NAN","NAN","NAN","NAN"],
    [1568787,"2026-08-29 22:50:00","5540","1.194","267.9","1.764","265.9","NAN","NAN","NAN","NAN","NAN"],
    [1568788,"2026-08-29 23:00:00","5541","0.769","272.7","1.372","273.6","NAN","NAN","NAN","NAN","NAN"],
    [1568789,"2026-08-29 23:10:00","5542","0.725","275.6","1.372","274.9","NAN","NAN","NAN","NAN","NAN"],
    [1568790,"2026-08-29 23:20:00","5543","0.62","277.1","1.568","278.4","NAN","NAN","NAN","NAN","NAN"],
    [1568791,"2026-08-29 23:30:00","5544","0.586","279.5","1.568","279.9","NAN","NAN","NAN","NAN","NAN"],
    [1568792,"2026-08-29 23:40:00","5545","0.986","281.0","1.568","280.8","NAN","NAN","NAN","NAN","NAN"],
    [1568793,"2026-08-29 23:50:00","5546","0.514","281.3","1.274","281.2","NAN","NAN","NAN","NAN","NAN"],
    [1568794,"2026-08-30 00:00:00","5547","1.183","282.0","2.156","282","NAN","NAN","NAN","NAN","NAN"],
    [1568795,"2026-08-30 00:10:00","5548","1.281","280.8","1.96","281.1","NAN","NAN","NAN","NAN","NAN"],
    [1568796,"2026-08-30 00:20:00","5549","1.4380000000000002","278.9","2.058","280.1","NAN","NAN","NAN","NAN","NAN"],
    [1568797,"2026-08-30 00:30:00","5550","1.629","280.4","2.254","277.4","NAN","NAN","NAN","NAN","NAN"],
    [1568798,"2026-08-30 00:40:00","5551","1.536","282.5","2.352","283","NAN","NAN","NAN","NAN","NAN"],
    [1568799,"2026-08-30 00:50:00","5552","1.7009999999999998","282.6","2.352","283","NAN","NAN","NAN","NAN","NAN"],
    [1568800,"2026-08-30 01:00:00","5553","1.328","282.1","1.862","283.2","NAN","NAN","NAN","NAN","NAN"],
    [1568801,"2026-08-30 01:10:00","5554","1.034","277.3","1.764","275.3","NAN","NAN","NAN","NAN","NAN"],
    [1568802,"2026-08-30 01:20:00","5555","1.411","281.0","2.254","274","NAN","NAN","NAN","NAN","NAN"],
    [1568803,"2026-08-30 01:30:00","5556","1.585","280.9","2.352","283.5","NAN","NAN","NAN","NAN","NAN"],
    [1568804,"2026-08-30 01:40:00","5557","1.9380000000000002","283.0","2.548","286.8","NAN","NAN","NAN","NAN","NAN"],
    [1568805,"2026-08-30 01:50:00","5558","1.791","283.1","2.548","287.3","NAN","NAN","NAN","NAN","NAN"],
    [1568806,"2026-08-30 02:00:00","5559","1.173","281.1","1.862","277.7","NAN","NAN","NAN","NAN","NAN"],
    [1568807,"2026-08-30 02:10:00","5560","1.5230000000000001","278.2","2.156","277.8","NAN","NAN","NAN","NAN","NAN"],
    [1568808,"2026-08-30 02:20:00","5561","1.393","276.5","2.254","275.9","NAN","NAN","NAN","NAN","NAN"],
    [1568809,"2026-08-30 02:30:00","5562","0.9229999999999999","276.2","1.568","275.6","NAN","NAN","NAN","NAN","NAN"],
    [1568810,"2026-08-30 02:40:00","5563","0.695","276.1","1.274","276.9","NAN","NAN","NAN","NAN","NAN"],
    [1568811,"2026-08-30 02:50:00","5564","1.2890000000000001","277.6","1.764","280","NAN","NAN","NAN","NAN","NAN"],
    [1568812,"2026-08-30 03:00:00","5565","1.196","276.5","1.96","280.6","NAN","NAN","NAN","NAN","NAN"],
    [1568813,"2026-08-30 03:10:00","5566","1.761","281.8","2.646","284","NAN","NAN","NAN","NAN","NAN"],
    [1568814,"2026-08-30 03:20:00","5567","2.013","287.0","2.842","287.6","NAN","NAN","NAN","NAN","NAN"],
    [1568815,"2026-08-30 03:30:00","5568","1.5290000000000001","290.7","2.744","292.7","NAN","NAN","NAN","NAN","NAN"],
    [1568816,"2026-08-30 03:40:00","5569","1.589","278.9","2.646","274.5","NAN","NAN","NAN","NAN","NAN"],
    [1568817,"2026-08-30 03:50:00","5570","1.723","285.4","2.548","294.2","NAN","NAN","NAN","NAN","NAN"],
    [1568818,"2026-08-30 04:00:00","5571","1.575","286.3","2.842","301.8","NAN","NAN","NAN","NAN","NAN"],
    [1568819,"2026-08-30 04:10:00","5572","1.4169999999999998","293.5","2.548","289.3","NAN","NAN","NAN","NAN","NAN"],
    [1568820,"2026-08-30 04:20:00","5573","2.066","284.0","3.234","280.9","NAN","NAN","NAN","NAN","NAN"],
    [1568821,"2026-08-30 04:30:00","5574","1.943","286.8","3.234","280.9","NAN","NAN","NAN","NAN","NAN"],
    [1568822,"2026-08-30 04:40:00","5575","1.652","288.5","2.45","281.2","NAN","NAN","NAN","NAN","NAN"],
    [1568823,"2026-08-30 04:50:00","5576","1.956","294.6","3.822","310.3","NAN","NAN","NAN","NAN","NAN"],
    [1568824,"2026-08-30 05:00:00","5577","1.874","299.1","3.136","294.2","NAN","NAN","NAN","NAN","NAN"],
    [1568825,"2026-08-30 05:10:00","5578","1.902","288.5","3.136","291","NAN","NAN","NAN","NAN","NAN"],
    [1568826,"2026-08-30 05:20:00","5579","2.18","282.0","3.038","292.6","NAN","NAN","NAN","NAN","NAN"],
    [1568827,"2026-08-30 05:30:00","5580","1.989","289.5","2.842","294.4","NAN","NAN","NAN","NAN","NAN"],
    [1568828,"2026-08-30 05:40:00","5581","2.105","286.6","3.038","283.6","NAN","NAN","NAN","NAN","NAN"],
    [1568829,"2026-08-30 05:50:00","5582","2.247","286.3","3.234","288.2","NAN","NAN","NAN","NAN","NAN"],
    [1568830,"2026-08-30 06:00:00","5583","2.458","285.1","3.724","292.6","NAN","NAN","NAN","NAN","NAN"],
    [1568831,"2026-08-30 06:10:00","5584","1.932","289.1","3.234","279.2","NAN","NAN","NAN","NAN","NAN"],
    [1568832,"2026-08-30 06:20:00","5585","2.255","285.9","3.528","293.8","NAN","NAN","NAN","NAN","NAN"],
    [1568833,"2026-08-30 06:30:00","5586","2.6689999999999996","294.1","4.116","298.5","NAN","NAN","NAN","NAN","NAN"],
    [1568834,"2026-08-30 06:40:00","5587","1.8130000000000002","285.4","3.234","289.9","NAN","NAN","NAN","NAN","NAN"],
    [1568835,"2026-08-30 06:50:00","5588","2.093","288.4","3.724","308.4","NAN","NAN","NAN","NAN","NAN"],
    [1568836,"2026-08-30 07:00:00","5589","2.378","292.1","3.724","293.8","NAN","NAN","NAN","NAN","NAN"],
    [1568837,"2026-08-30 07:10:00","5590","2.399","295.7","3.528","282.4","NAN","NAN","NAN","NAN","NAN"],
    [1568838,"2026-08-30 07:20:00","5591","2.1630000000000003","300.2","3.332","306.9","NAN","NAN","NAN","NAN","NAN"],
    [1568839,"2026-08-30 07:30:00","5592","1.625","296.2","2.646","302.2","NAN","NAN","NAN","NAN","NAN"],
    [1568840,"2026-08-30 07:40:00","5593","1.749","275.0","2.744","278.8","NAN","NAN","NAN","NAN","NAN"],
    [1568841,"2026-08-30 07:50:00","5594","1.758","270.4","2.646","275.8","NAN","NAN","NAN","NAN","NAN"],
    [1568842,"2026-08-30 08:00:00","5595","2.012","271.0","2.548","282.1","NAN","NAN","NAN","NAN","NAN"],
    [1568843,"2026-08-30 08:10:00","5596","1.9240000000000002","267.2","3.038","280.2","NAN","NAN","NAN","NAN","NAN"],
    [1568844,"2026-08-30 08:20:00","5597","1.982","282.5","2.842","279.2","NAN","NAN","NAN","NAN","NAN"],
    [1568845,"2026-08-30 08:30:00","5598","1.594","284.2","2.548","286","NAN","NAN","NAN","NAN","NAN"],
    [1568846,"2026-08-30 08:40:00","5599","1.151","253.2","2.548","251.1","NAN","NAN","NAN","NAN","NAN"],
    [1568847,"2026-08-30 08:50:00","5600","1.881","246.2","3.528","261.8","NAN","NAN","NAN","NAN","NAN"],
    [1568848,"2026-08-30 09:00:00","5601","1.6880000000000002","234.7","3.332","219.3","NAN","NAN","NAN","NAN","NAN"],
    [1568849,"2026-08-30 09:10:00","5602","1.317","246.3","2.646","251.7","NAN","NAN","NAN","NAN","NAN"],
    [1568850,"2026-08-30 09:20:00","5603","1.8659999999999999","222.9","3.43","221.7","NAN","NAN","NAN","NAN","NAN"],
    [1568851,"2026-08-30 09:30:00","5604","1.5330000000000001","230.7","3.528","211.4","NAN","NAN","NAN","NAN","NAN"],
    [1568852,"2026-08-30 09:40:00","5605","1.3030000000000002","230.3","2.842","225.8","NAN","NAN","NAN","NAN","NAN"],
    [1568853,"2026-08-30 09:50:00","5606","2.18","189.5","4.508","172.1","NAN","NAN","NAN","NAN","NAN"],
    [1568854,"2026-08-30 10:00:00","5607","2.957","193.0","4.704","180.1","NAN","NAN","NAN","NAN","NAN"],
    [1568855,"2026-08-30 10:10:00","5608","3.21","199.2","4.9","198.3","NAN","NAN","NAN","NAN","NAN"],
    [1568856,"2026-08-30 10:20:00","5609","2.84","187.1","5.194","173.4","NAN","NAN","NAN","NAN","NAN"],
    [1568857,"2026-08-30 10:30:00","5610","2.824","190.9","5.096","161.9","NAN","NAN","NAN","NAN","NAN"],
    [1568858,"2026-08-30 10:40:00","5611","3.4219999999999997","189.3","5.194","184.3","NAN","NAN","NAN","NAN","NAN"],
    [1568859,"2026-08-30 10:50:00","5612","2.877","199.3","4.998","218.5","NAN","NAN","NAN","NAN","NAN"],
    [1568860,"2026-08-30 11:00:00","5613","2.9730000000000003","200.6","5.488","205.9","NAN","NAN","NAN","NAN","NAN"],
    [1568861,"2026-08-30 11:10:00","5614","3.201","198.0","5.292","216.1","NAN","NAN","NAN","NAN","NAN"],
    [1568862,"2026-08-30 11:20:00","5615","3.512","198.5","6.37","193.1","NAN","NAN","NAN","NAN","NAN"],
    [1568863,"2026-08-30 11:30:00","5616","4.04","206.3","5.488","218.2","NAN","NAN","NAN","NAN","NAN"],
    [1568864,"2026-08-30 11:40:00","5617","3.565","202.5","5.586","206.8","NAN","NAN","NAN","NAN","NAN"],
    [1568865,"2026-08-30 11:50:00","5618","3.6289999999999996","193.3","6.86","158.2","NAN","NAN","NAN","NAN","NAN"],
    [1568866,"2026-08-30 12:00:00","5619","3.7230000000000003","199.1","6.566","205.9","NAN","NAN","NAN","NAN","NAN"],
    [1568867,"2026-08-30 12:10:00","5620","3.657","202.3","6.272","207.5","NAN","NAN","NAN","NAN","NAN"],
    [1568868,"2026-08-30 12:20:00","5621","3.4360000000000004","208.8","6.076","223.7","NAN","NAN","NAN","NAN","NAN"],
    [1568869,"2026-08-30 12:30:00","5622","4.096","203.8","7.644","232.7","NAN","NAN","NAN","NAN","NAN"],
    [1568870,"2026-08-30 12:40:00","5623","4.244","206.2","6.664","215.1","NAN","NAN","NAN","NAN","NAN"],
    [1568871,"2026-08-30 12:50:00","5624","3.998","206.2","6.664","213.1","NAN","NAN","NAN","NAN","NAN"],
    [1568872,"2026-08-30 13:00:00","5625","4.105","202.9","6.566","200.8","NAN","NAN","NAN","NAN","NAN"],
    [1568873,"2026-08-30 13:10:00","5626","4.135","207.6","7.056","207.4","NAN","NAN","NAN","NAN","NAN"],
    [1568874,"2026-08-30 13:20:00","5627","4.721","209.9","7.938","236.8","NAN","NAN","NAN","NAN","NAN"],
    [1568875,"2026-08-30 13:30:00","5628","4.253","209.1","7.546","210.3","NAN","NAN","NAN","NAN","NAN"],
    [1568876,"2026-08-30 13:40:00","5629","4.588","230.4","7.154","235.4","NAN","NAN","NAN","NAN","NAN"],
    [1568877,"2026-08-30 13:50:00","5630","4.63","222.6","7.546","234.3","NAN","NAN","NAN","NAN","NAN"],
    [1568878,"2026-08-30 14:00:00","5631","4.61","231.2","7.546","236.1","NAN","NAN","NAN","NAN","NAN"],
    [1568879,"2026-08-30 14:10:00","5632","4.596","225.3","6.86","238.4","NAN","NAN","NAN","NAN","NAN"],
    [1568880,"2026-08-30 14:20:00","5633","4.738","225.6","6.958","256.4","NAN","NAN","NAN","NAN","NAN"],
    [1568881,"2026-08-30 14:30:00","5634","4.436","226.9","7.252","247.9","NAN","NAN","NAN","NAN","NAN"],
    [1568882,"2026-08-30 14:40:00","5635","4.745","209.1","8.13","230","NAN","NAN","NAN","NAN","NAN"],
    [1568883,"2026-08-30 14:50:00","5636","4.783","213.0","9.02","224.3","NAN","NAN","NAN","NAN","NAN"],
    [1568884,"2026-08-30 15:00:00","5637","4.475","223.3","7.938","233.9","NAN","NAN","NAN","NAN","NAN"],
    [1568885,"2026-08-30 15:10:00","5638","4.178999999999999","227.3","7.056","222.6","NAN","NAN","NAN","NAN","NAN"],
    [1568886,"2026-08-30 15:20:00","5639","4.35","217.4","6.664","213.3","NAN","NAN","NAN","NAN","NAN"],
    [1568887,"2026-08-30 15:30:00","5640","4.808","213.4","7.546","200.3","NAN","NAN","NAN","NAN","NAN"],
    [1568888,"2026-08-30 15:40:00","5641","4.298","219.0","7.644","209.4","NAN","NAN","NAN","NAN","NAN"],
    [1568889,"2026-08-30 15:50:00","5642","5.202999999999999","222.0","7.938","220.5","NAN","NAN","NAN","NAN","NAN"],
    [1568890,"2026-08-30 16:00:00","5643","3.66","228.2","6.86","223.7","NAN","NAN","NAN","NAN","NAN"],
    [1568891,"2026-08-30 16:10:00","5644","4.4030000000000005","230.0","8.53","210.1","NAN","NAN","NAN","NAN","NAN"],
    [1568892,"2026-08-30 16:20:00","5645","4.617","239.0","7.448","246.9","NAN","NAN","NAN","NAN","NAN"],
    [1568893,"2026-08-30 16:30:00","5646","4.69","229.5","7.448","235.6","NAN","NAN","NAN","NAN","NAN"],
    [1568894,"2026-08-30 16:40:00","5647","4.207","222.4","6.468","226","NAN","NAN","NAN","NAN","NAN"],
    [1568895,"2026-08-30 16:50:00","5648","3.978","224.6","6.272","223.6","NAN","NAN","NAN","NAN","NAN"],
    [1568896,"2026-08-30 17:00:00","5649","3.783","235.7","6.664","265.2","NAN","NAN","NAN","NAN","NAN"],
    [1568897,"2026-08-30 17:10:00","5650","3.6919999999999997","236.3","6.272","246.3","NAN","NAN","NAN","NAN","NAN"],
    [1568898,"2026-08-30 17:20:00","5651","3.529","233.0","7.056","220.3","NAN","NAN","NAN","NAN","NAN"],
    [1568899,"2026-08-30 17:30:00","5652","3.6910000000000003","231.6","5.782","231.1","NAN","NAN","NAN","NAN","NAN"],
    [1568900,"2026-08-30 17:40:00","5653","3.5269999999999997","241.5","7.056","263.8","NAN","NAN","NAN","NAN","NAN"],
    [1568901,"2026-08-30 17:50:00","5654","3.63","234.4","5.978","240.3","NAN","NAN","NAN","NAN","NAN"],
    [1568902,"2026-08-30 18:00:00","5655","2.83","230.8","4.802","233.5","NAN","NAN","NAN","NAN","NAN"],
    [1568903,"2026-08-30 18:10:00","5656","3.1060000000000003","234.8","5.292","238.3","NAN","NAN","NAN","NAN","NAN"],
    [1568904,"2026-08-30 18:20:00","5657","3.562","230.8","5.488","232.9","NAN","NAN","NAN","NAN","NAN"],
    [1568905,"2026-08-30 18:30:00","5658","2.8819999999999997","241.2","5.292","228.4","NAN","NAN","NAN","NAN","NAN"],
    [1568906,"2026-08-30 18:40:00","5659","3.307","245.4","4.998","242.3","NAN","NAN","NAN","NAN","NAN"],
    [1568907,"2026-08-30 18:50:00","5660","2.997","243.8","5.488","241","NAN","NAN","NAN","NAN","NAN"],
    [1568908,"2026-08-30 19:00:00","5661","2.8539999999999996","240.3","6.566","211.2","NAN","NAN","NAN","NAN","NAN"],
    [1568909,"2026-08-30 19:10:00","5662","2.762","233.2","5.096","225.2","NAN","NAN","NAN","NAN","NAN"],
    [1568910,"2026-08-30 19:20:00","5663","2.548","229.8","4.018","214.4","NAN","NAN","NAN","NAN","NAN"],
    [1568911,"2026-08-30 19:30:00","5664","2.892","223.5","4.998","222.3","NAN","NAN","NAN","NAN","NAN"],
    [1568912,"2026-08-30 19:40:00","5665","2.287","224.9","3.92","225.2","NAN","NAN","NAN","NAN","NAN"],
    [1568913,"2026-08-30 19:50:00","5666","2.145","237.6","3.92","227.3","NAN","NAN","NAN","NAN","NAN"],
    [1568914,"2026-08-30 20:00:00","5667","2.094","243.9","3.92","254.2","NAN","NAN","NAN","NAN","NAN"],
    [1568915,"2026-08-30 20:10:00","5668","1.841","238.1","3.136","235.3","NAN","NAN","NAN","NAN","NAN"],
    [1568916,"2026-08-30 20:20:00","5669","2.365","244.6","3.822","240.5","NAN","NAN","NAN","NAN","NAN"],
    [1568917,"2026-08-30 20:30:00","5670","2.585","248.8","4.116","248.7","NAN","NAN","NAN","NAN","NAN"],
    [1568918,"2026-08-30 20:40:00","5671","1.8719999999999999","243.1","3.528","235.3","NAN","NAN","NAN","NAN","NAN"],
    [1568919,"2026-08-30 20:50:00","5672","2.253","244.2","3.43","250.8","NAN","NAN","NAN","NAN","NAN"],
    [1568920,"2026-08-30 21:00:00","5673","3.142","244.8","4.802","247.2","NAN","NAN","NAN","NAN","NAN"],
    [1568921,"2026-08-30 21:10:00","5674","2.9810000000000003","247.0","4.41","240.8","NAN","NAN","NAN","NAN","NAN"],
    [1568922,"2026-08-30 21:20:00","5675","2.718","247.6","4.41","260.6","NAN","NAN","NAN","NAN","NAN"],
    [1568923,"2026-08-30 21:30:00","5676","1.9609999999999999","238.6","3.234","238.7","NAN","NAN","NAN","NAN","NAN"],
    [1568924,"2026-08-30 21:40:00","5677","1.639","239.4","2.94","243.1","NAN","NAN","NAN","NAN","NAN"],
    [1568925,"2026-08-30 21:50:00","5678","1.9469999999999998","241.5","3.136","233.8","NAN","NAN","NAN","NAN","NAN"],
    [1568926,"2026-08-30 22:00:00","5679","1.9969999999999999","244.3","3.724","233.1","NAN","NAN","NAN","NAN","NAN"],
    [1568927,"2026-08-30 22:10:00","5680","2.106","244.3","3.92","235.7","NAN","NAN","NAN","NAN","NAN"],
    [1568928,"2026-08-30 22:20:00","5681","2.48","248.7","4.018","256","NAN","NAN","NAN","NAN","NAN"],
    [1568929,"2026-08-30 22:30:00","5682","2.039","255.7","3.724","249.3","NAN","NAN","NAN","NAN","NAN"],
    [1568930,"2026-08-30 22:40:00","5683","1.271","261.8","1.862","261.8","NAN","NAN","NAN","NAN","NAN"],
    [1568931,"2026-08-30 22:50:00","5684","1.0659999999999998","261.8","1.96","261.8","NAN","NAN","NAN","NAN","NAN"],
    [1568932,"2026-08-30 23:00:00","5685","1.432","261.9","2.156","261.9","NAN","NAN","NAN","NAN","NAN"],
    [1568933,"2026-08-30 23:10:00","5686","1.129","262.1","2.058","262.4","NAN","NAN","NAN","NAN","NAN"],
    [1568934,"2026-08-30 23:20:00","5687","1.161","262.6","2.156","262.5","NAN","NAN","NAN","NAN","NAN"],
    [1568935,"2026-08-30 23:30:00","5688","0.8170000000000001","262.7","1.568","262.7","NAN","NAN","NAN","NAN","NAN"],
    [1568936,"2026-08-30 23:40:00","5689","0.518","262.6","0.882","262.7","NAN","NAN","NAN","NAN","NAN"],
    [1568937,"2026-08-30 23:50:00","5690","0.953","260.5","1.568","259.3","NAN","NAN","NAN","NAN","NAN"],
    [1568938,"2026-08-31 00:00:00","5691","1.0270000000000001","258.2","1.47","251.8","NAN","NAN","NAN","NAN","NAN"],
    [1568939,"2026-08-31 00:10:00","5692","0.772","262.0","1.274","262.6","NAN","NAN","NAN","NAN","NAN"],
    [1568940,"2026-08-31 00:20:00","5693","1.0170000000000001","260.0","1.568","253.3","NAN","NAN","NAN","NAN","NAN"],
    [1568941,"2026-08-31 00:30:00","5694","1.389","252.0","1.764","250.6","NAN","NAN","NAN","NAN","NAN"],
    [1568942,"2026-08-31 00:40:00","5695","0.8240000000000001","259.6","1.568","257.8","NAN","NAN","NAN","NAN","NAN"],
    [1568943,"2026-08-31 00:50:00","5696","0.885","254.6","1.764","251","NAN","NAN","NAN","NAN","NAN"],
    [1568944,"2026-08-31 01:00:00","5697","0.792","254.1","1.47","250.6","NAN","NAN","NAN","NAN","NAN"],
    [1568945,"2026-08-31 01:10:00","5698","0.621","259.0","1.176","261.8","NAN","NAN","NAN","NAN","NAN"],
    [1568946,"2026-08-31 01:20:00","5699","0.38799999999999996","262.3","0.98","262.1","NAN","NAN","NAN","NAN","NAN"],
    [1568947,"2026-08-31 01:30:00","5700","0.501","262.5","1.078","262.5","NAN","NAN","NAN","NAN","NAN"],
    [1568948,"2026-08-31 01:40:00","5701","0.426","262.5","1.078","262.6","NAN","NAN","NAN","NAN","NAN"],
    [1568949,"2026-08-31 01:50:00","5702","1.056","262.6","1.666","262.7","NAN","NAN","NAN","NAN","NAN"],
    [1568950,"2026-08-31 02:00:00","5703","0.5429999999999999","262.7","0.98","262.7","NAN","NAN","NAN","NAN","NAN"],
    [1568951,"2026-08-31 02:10:00","5704","0.544","262.7","1.274","262.8","NAN","NAN","NAN","NAN","NAN"],
    [1568952,"2026-08-31 02:20:00","5705","0.159","262.7","0.784","262.7","NAN","NAN","NAN","NAN","NAN"],
    [1568953,"2026-08-31 02:30:00","5706","0.7759999999999999","262.8","1.274","262.8","NAN","NAN","NAN","NAN","NAN"],
    [1568954,"2026-08-31 02:40:00","5707","0.534","262.8","1.372","262.8","NAN","NAN","NAN","NAN","NAN"],
    [1568955,"2026-08-31 02:50:00","5708","0.74","262.9","1.372","263","NAN","NAN","NAN","NAN","NAN"],
    [1568956,"2026-08-31 03:00:00","5709","1.064","262.9","1.47","263","NAN","NAN","NAN","NAN","NAN"],
    [1568957,"2026-08-31 03:10:00","5710","0.8740000000000001","262.9","1.372","263","NAN","NAN","NAN","NAN","NAN"],
    [1568958,"2026-08-31 03:20:00","5711","1.072","263.0","1.666","263.1","NAN","NAN","NAN","NAN","NAN"],
    [1568959,"2026-08-31 03:30:00","5712","1.082","263.1","1.568","263.1","NAN","NAN","NAN","NAN","NAN"],
    [1568960,"2026-08-31 03:40:00","5713","1.078","263.1","1.372","263.1","NAN","NAN","NAN","NAN","NAN"],
    [1568961,"2026-08-31 03:50:00","5714","0.703","263.1","1.372","263.1","NAN","NAN","NAN","NAN","NAN"],
    [1568962,"2026-08-31 04:00:00","5715","0.88","263.1","1.274","263.1","NAN","NAN","NAN","NAN","NAN"],
    [1568963,"2026-08-31 04:10:00","5716","0.34700000000000003","262.8","0.882","263","NAN","NAN","NAN","NAN","NAN"],
    [1568964,"2026-08-31 04:20:00","5717","0.825","262.9","1.764","263.1","NAN","NAN","NAN","NAN","NAN"],
    [1568965,"2026-08-31 04:30:00","5718","0.863","262.4","1.764","263.3","NAN","NAN","NAN","NAN","NAN"],
    [1568966,"2026-08-31 04:40:00","5719","1.113","262.5","1.96","263.3","NAN","NAN","NAN","NAN","NAN"],
    [1568967,"2026-08-31 04:50:00","5720","1.034","262.5","2.058","263.4","NAN","NAN","NAN","NAN","NAN"],
    [1568968,"2026-08-31 05:00:00","5721","1.496","263.1","2.646","264","NAN","NAN","NAN","NAN","NAN"],
    [1568969,"2026-08-31 05:10:00","5722","0.9470000000000001","263.8","1.862","264","NAN","NAN","NAN","NAN","NAN"],
    [1568970,"2026-08-31 05:20:00","5723","1.138","263.4","2.254","264.1","NAN","NAN","NAN","NAN","NAN"],
    [1568971,"2026-08-31 05:30:00","5724","1.361","266.2","2.058","266.9","NAN","NAN","NAN","NAN","NAN"],
    [1568972,"2026-08-31 05:40:00","5725","1.8869999999999998","273.3","3.332","287.8","NAN","NAN","NAN","NAN","NAN"],
    [1568973,"2026-08-31 05:50:00","5726","2.008","285.0","3.43","276.8","NAN","NAN","NAN","NAN","NAN"],
    [1568974,"2026-08-31 06:00:00","5727","1.499","279.6","2.254","286.5","NAN","NAN","NAN","NAN","NAN"],
    [1568975,"2026-08-31 06:10:00","5728","1.577","275.4","2.352","275.8","NAN","NAN","NAN","NAN","NAN"],
    [1568976,"2026-08-31 06:20:00","5729","1.304","272.6","1.96","274","NAN","NAN","NAN","NAN","NAN"],
    [1568977,"2026-08-31 06:30:00","5730","1.135","267.4","1.862","264.8","NAN","NAN","NAN","NAN","NAN"],
    [1568978,"2026-08-31 06:40:00","5731","1.501","272.0","2.254","270.5","NAN","NAN","NAN","NAN","NAN"],
    [1568979,"2026-08-31 06:50:00","5732","1.511","275.1","2.744","272.6","NAN","NAN","NAN","NAN","NAN"],
    [1568980,"2026-08-31 07:00:00","5733","1.137","269.9","1.862","265.5","NAN","NAN","NAN","NAN","NAN"],
    [1568981,"2026-08-31 07:10:00","5734","1.3519999999999999","273.7","1.862","277.6","NAN","NAN","NAN","NAN","NAN"],
    [1568982,"2026-08-31 07:20:00","5735","0.8490000000000001","277.4","1.862","283.7","NAN","NAN","NAN","NAN","NAN"],
    [1568983,"2026-08-31 07:30:00","5736","0.569","279.6","1.568","284.6","NAN","NAN","NAN","NAN","NAN"],
    [1568984,"2026-08-31 07:40:00","5737","1.002","285.3","2.254","288.1","NAN","NAN","NAN","NAN","NAN"],
    [1568985,"2026-08-31 07:50:00","5738","1.4169999999999998","281.5","2.352","287.7","NAN","NAN","NAN","NAN","NAN"],
    [1568986,"2026-08-31 08:00:00","5739","0.9229999999999999","280.2","1.666","292","NAN","NAN","NAN","NAN","NAN"],
    [1568987,"2026-08-31 08:10:00","5740","0.5489999999999999","4.253","1.568","264.6","NAN","NAN","NAN","NAN","NAN"],
    [1568988,"2026-08-31 08:20:00","5741","1.9180000000000001","71.23","3.92","94.4","NAN","NAN","NAN","NAN","NAN"],
    [1568989,"2026-08-31 08:30:00","5742","2.824","82.0","4.116","99.3","NAN","NAN","NAN","NAN","NAN"],
    [1568990,"2026-08-31 08:40:00","5743","2.033","82.4","2.842","65.1","NAN","NAN","NAN","NAN","NAN"],
    [1568991,"2026-08-31 08:50:00","5744","2.574","91.6","3.92","99.3","NAN","NAN","NAN","NAN","NAN"],
    [1568992,"2026-08-31 09:00:00","5745","1.8","97.3","2.45","95.7","NAN","NAN","NAN","NAN","NAN"],
    [1568993,"2026-08-31 09:10:00","5746","1.909","99.8","3.136","97.9","NAN","NAN","NAN","NAN","NAN"],
    [1568994,"2026-08-31 09:20:00","5747","2.504","96.6","3.234","87.7","NAN","NAN","NAN","NAN","NAN"],
    [1568995,"2026-08-31 09:30:00","5748","3.194","91.2","4.41","90.3","NAN","NAN","NAN","NAN","NAN"],
    [1568996,"2026-08-31 09:40:00","5749","3.0810000000000004","93.0","4.018","96","NAN","NAN","NAN","NAN","NAN"],
    [1568997,"2026-08-31 09:50:00","5750","2.403","102.0","3.822","91.2","NAN","NAN","NAN","NAN","NAN"],
    [1568998,"2026-08-31 10:00:00","5751","2.416","108.9","3.234","104.1","NAN","NAN","NAN","NAN","NAN"],
    [1568999,"2026-08-31 10:10:00","5752","2.521","101.8","3.724","88.4","NAN","NAN","NAN","NAN","NAN"],
    [1569000,"2026-08-31 10:20:00","5753","2.696","108.4","4.214","112.6","NAN","NAN","NAN","NAN","NAN"],
    [1569001,"2026-08-31 10:30:00","5754","3.0389999999999997","121.0","4.802","132.1","NAN","NAN","NAN","NAN","NAN"],
    [1569002,"2026-08-31 10:40:00","5755","3.611","124.5","4.998","123.4","NAN","NAN","NAN","NAN","NAN"],
    [1569003,"2026-08-31 10:50:00","5756","2.944","116.1","4.312","131.1","NAN","NAN","NAN","NAN","NAN"],
    [1569004,"2026-08-31 11:00:00","5757","3.315","111.4","4.704","108.7","NAN","NAN","NAN","NAN","NAN"],
    [1569005,"2026-08-31 11:10:00","5758","3.339","113.8","4.704","110.5","NAN","NAN","NAN","NAN","NAN"],
    [1569006,"2026-08-31 11:20:00","5759","3.378","108.4","5.096","104.6","NAN","NAN","NAN","NAN","NAN"],
    [1569007,"2026-08-31 11:30:00","5760","3.093","117.6","4.606","114","NAN","NAN","NAN","NAN","NAN"],
    [1569008,"2026-08-31 11:40:00","5761","2.575","122.9","4.018","105.2","NAN","NAN","NAN","NAN","NAN"],
    [1569009,"2026-08-31 11:50:00","5762","2.821","107.7","4.312","116.5","NAN","NAN","NAN","NAN","NAN"],
    [1569010,"2026-08-31 12:00:00","5763","2.419","113.8","3.528","112","NAN","NAN","NAN","NAN","NAN"],
    [1569011,"2026-08-31 12:10:00","5764","2.6489999999999996","113.8","4.018","103.4","NAN","NAN","NAN","NAN","NAN"],
    [1569012,"2026-08-31 12:20:00","5765","2.842","127.5","4.312","136.7","NAN","NAN","NAN","NAN","NAN"],
    [1569013,"2026-08-31 12:30:00","5766","2.7939999999999996","130.5","4.214","155","NAN","NAN","NAN","NAN","NAN"],
    [1569014,"2026-08-31 12:40:00","5767","2.958","130.2","4.802","154.1","NAN","NAN","NAN","NAN","NAN"],
    [1569015,"2026-08-31 12:50:00","5768","3.275","120.1","5.978","130.2","NAN","NAN","NAN","NAN","NAN"],
    [1569016,"2026-08-31 13:00:00","5769","4.448","139.6","6.762","152.9","NAN","NAN","NAN","NAN","NAN"],
    [1569017,"2026-08-31 13:10:00","5770","4.842","140.8","6.86","181.7","NAN","NAN","NAN","NAN","NAN"],
    [1569018,"2026-08-31 13:20:00","5771","5.122000000000001","143.3","6.37","126.6","NAN","NAN","NAN","NAN","NAN"],
    [1569019,"2026-08-31 13:30:00","5772","5.188","151.0","7.056","173.6","NAN","NAN","NAN","NAN","NAN"],
    [1569020,"2026-08-31 13:40:00","5773","5.672000000000001","160.6","7.644","154.1","NAN","NAN","NAN","NAN","NAN"],
    [1569021,"2026-08-31 13:50:00","5774","5.078","149.5","6.86","155.2","NAN","NAN","NAN","NAN","NAN"],
    [1569022,"2026-08-31 14:00:00","5775","5.681","161.5","8.04","168.5","NAN","NAN","NAN","NAN","NAN"],
    [1569023,"2026-08-31 14:10:00","5776","4.505","159.4","7.154","173.9","NAN","NAN","NAN","NAN","NAN"],
    [1569024,"2026-08-31 14:20:00","5777","3.6919999999999997","170.9","7.644","149.7","NAN","NAN","NAN","NAN","NAN"],
    [1569025,"2026-08-31 14:30:00","5778","4.181","179.4","6.664","167.1","NAN","NAN","NAN","NAN","NAN"],
    [1569026,"2026-08-31 14:40:00","5779","4.175","174.7","7.448","157.7","NAN","NAN","NAN","NAN","NAN"],
    [1569027,"2026-08-31 14:50:00","5780","4.886","169.2","7.644","161.4","NAN","NAN","NAN","NAN","NAN"],
    [1569028,"2026-08-31 15:00:00","5781","3.877","166.3","6.272","146.8","NAN","NAN","NAN","NAN","NAN"],
    [1569029,"2026-08-31 15:10:00","5782","4.399","165.9","6.174","138.3","NAN","NAN","NAN","NAN","NAN"],
    [1569030,"2026-08-31 15:20:00","5783","3.9339999999999997","171.0","6.762","154.1","NAN","NAN","NAN","NAN","NAN"],
    [1569031,"2026-08-31 15:30:00","5784","4.055","174.3","6.174","161.1","NAN","NAN","NAN","NAN","NAN"],
    [1569032,"2026-08-31 15:40:00","5785","4.205","171.6","5.978","168.6","NAN","NAN","NAN","NAN","NAN"],
    [1569033,"2026-08-31 15:50:00","5786","3.3","177.9","5.684","158.4","NAN","NAN","NAN","NAN","NAN"],
    [1569034,"2026-08-31 16:00:00","5787","3.221","176.3","5.586","152.7","NAN","NAN","NAN","NAN","NAN"],
    [1569035,"2026-08-31 16:10:00","5788","3.6010000000000004","174.4","5.488","190.1","NAN","NAN","NAN","NAN","NAN"],
    [1569036,"2026-08-31 16:20:00","5789","3.4539999999999997","168.3","5.978","146.2","NAN","NAN","NAN","NAN","NAN"],
    [1569037,"2026-08-31 16:30:00","5790","3.565","169.7","6.37","164.7","NAN","NAN","NAN","NAN","NAN"],
    [1569038,"2026-08-31 16:40:00","5791","3.7539999999999996","158.5","5.292","177.9","NAN","NAN","NAN","NAN","NAN"],
    [1569039,"2026-08-31 16:50:00","5792","3.628","163.2","5.39","165.1","NAN","NAN","NAN","NAN","NAN"],
    [1569040,"2026-08-31 17:00:00","5793","2.889","173.3","4.508","154.4","NAN","NAN","NAN","NAN","NAN"],
    [1569041,"2026-08-31 17:10:00","5794","2.8939999999999997","174.3","4.41","175.5","NAN","NAN","NAN","NAN","NAN"],
    [1569042,"2026-08-31 17:20:00","5795","3.293","168.0","4.9","179.5","NAN","NAN","NAN","NAN","NAN"],
    [1569043,"2026-08-31 17:30:00","5796","3.074","169.8","5.194","155.1","NAN","NAN","NAN","NAN","NAN"],
    [1569044,"2026-08-31 17:40:00","5797","3.1510000000000002","164.4","5.488","168.1","NAN","NAN","NAN","NAN","NAN"],
    [1569045,"2026-08-31 17:50:00","5798","3.112","152.0","5.292","131.2","NAN","NAN","NAN","NAN","NAN"],
    [1569046,"2026-08-31 18:00:00","5799","3.0210000000000004","160.7","4.41","151","NAN","NAN","NAN","NAN","NAN"],
    [1569047,"2026-08-31 18:10:00","5800","3.029","161.9","4.508","153.4","NAN","NAN","NAN","NAN","NAN"],
    [1569048,"2026-08-31 18:20:00","5801","2.57","154.4","3.724","141.4","NAN","NAN","NAN","NAN","NAN"],
    [1569049,"2026-08-31 18:30:00","5802","2.67","157.2","3.92","163.6","NAN","NAN","NAN","NAN","NAN"],
    [1569050,"2026-08-31 18:40:00","5803","2.698","155.9","3.724","143.7","NAN","NAN","NAN","NAN","NAN"],
    [1569051,"2026-08-31 18:50:00","5804","2.78","163.4","4.214","160.7","NAN","NAN","NAN","NAN","NAN"],
    [1569052,"2026-08-31 19:00:00","5805","2.697","150.3","3.92","147.3","NAN","NAN","NAN","NAN","NAN"],
    [1569053,"2026-08-31 19:10:00","5806","2.444","143.0","4.116","136.2","NAN","NAN","NAN","NAN","NAN"],
    [1569054,"2026-08-31 19:20:00","5807","2.326","140.0","3.626","143.5","NAN","NAN","NAN","NAN","NAN"],
    [1569055,"2026-08-31 19:30:00","5808","2.171","132.4","3.332","137.1","NAN","NAN","NAN","NAN","NAN"],
    [1569056,"2026-08-31 19:40:00","5809","1.936","130.2","2.94","128.8","NAN","NAN","NAN","NAN","NAN"],
    [1569057,"2026-08-31 19:50:00","5810","1.864","122.0","3.136","120","NAN","NAN","NAN","NAN","NAN"],
    [1569058,"2026-08-31 20:00:00","5811","1.923","114.3","3.234","120.6","NAN","NAN","NAN","NAN","NAN"],
    [1569059,"2026-08-31 20:10:00","5812","1.7730000000000001","106.0","3.136","100.5","NAN","NAN","NAN","NAN","NAN"],
    [1569060,"2026-08-31 20:20:00","5813","1.913","101.1","3.038","101.9","NAN","NAN","NAN","NAN","NAN"],
    [1569061,"2026-08-31 20:30:00","5814","1.585","102.3","2.744","99","NAN","NAN","NAN","NAN","NAN"],
    [1569062,"2026-08-31 20:40:00","5815","1.9269999999999998","102.9","3.724","96.8","NAN","NAN","NAN","NAN","NAN"],
    [1569063,"2026-08-31 20:50:00","5816","2.059","107.1","2.842","109.5","NAN","NAN","NAN","NAN","NAN"],
    [1569064,"2026-08-31 21:00:00","5817","1.624","99.4","3.038","94.9","NAN","NAN","NAN","NAN","NAN"],
    [1569065,"2026-08-31 21:10:00","5818","1.4569999999999999","105.6","2.45","109.3","NAN","NAN","NAN","NAN","NAN"],
    [1569066,"2026-08-31 21:20:00","5819","1.805","101.5","2.94","97.3","NAN","NAN","NAN","NAN","NAN"],
    [1569067,"2026-08-31 21:30:00","5820","1.496","105.0","2.352","102.8","NAN","NAN","NAN","NAN","NAN"],
    [1569068,"2026-08-31 21:40:00","5821","1.311","107.8","2.254","107","NAN","NAN","NAN","NAN","NAN"],
    [1569069,"2026-08-31 21:50:00","5822","1.252","105.4","1.96","111.6","NAN","NAN","NAN","NAN","NAN"],
    [1569070,"2026-08-31 22:00:00","5823","0.9990000000000001","104.2","1.96","113.4","NAN","NAN","NAN","NAN","NAN"],
    [1569071,"2026-08-31 22:10:00","5824","0.925","102.9","1.764","110.9","NAN","NAN","NAN","NAN","NAN"],
    [1569072,"2026-08-31 22:20:00","5825","1.265","95.3","2.352","90.8","NAN","NAN","NAN","NAN","NAN"],
    [1569073,"2026-08-31 22:30:00","5826","1.19","92.7","2.352","90.8","NAN","NAN","NAN","NAN","NAN"],
    [1569074,"2026-08-31 22:40:00","5827","0.932","102.9","1.666","102.5","NAN","NAN","NAN","NAN","NAN"],
    [1569075,"2026-08-31 22:50:00","5828","0.826","108.0","1.372","108.3","NAN","NAN","NAN","NAN","NAN"],
    [1569076,"2026-08-31 23:00:00","5829","0.504","105.8","0.98","104.6","NAN","NAN","NAN","NAN","NAN"],
    [1569077,"2026-08-31 23:10:00","5830","0.509","109.1","0.98","108.9","NAN","NAN","NAN","NAN","NAN"],
    [1569078,"2026-08-31 23:20:00","5831","0.336","108.6","0.882","110.7","NAN","NAN","NAN","NAN","NAN"],
    [1569079,"2026-08-31 23:30:00","5832","0.11900000000000001","107.8","0.784","108.4","NAN","NAN","NAN","NAN","NAN"],
    [1569080,"2026-08-31 23:40:00","5833","0.036000000000000004","110.8","0.49","110.8","NAN","NAN","NAN","NAN","NAN"],
    [1569081,"2026-08-31 23:50:00","5834","0.0","0.0","0","110.8","NAN","NAN","NAN","NAN","NAN"],
    [1569082,"2026-09-01 00:00:00","5835","0.02","110.8","0.49","110.8","NAN","NAN","NAN","NAN","NAN"],
    [1569083,"2026-09-01 00:10:00","5836","0.106","107.1","0.784","110.7","NAN","NAN","NAN","NAN","NAN"],
    [1569084,"2026-09-01 00:20:00","5837","0.213","106.8","0.784","105.3","NAN","NAN","NAN","NAN","NAN"],
    [1569085,"2026-09-01 00:30:00","5838","0.7559999999999999","93.4","1.568","90.1","NAN","NAN","NAN","NAN","NAN"],
    [1569086,"2026-09-01 00:40:00","5839","1.198","89.4","1.862","89.3","NAN","NAN","NAN","NAN","NAN"],
    [1569087,"2026-09-01 00:50:00","5840","0.777","89.0","1.666","89","NAN","NAN","NAN","NAN","NAN"],
    [1569088,"2026-09-01 01:00:00","5841","0.669","89.0","1.078","88.9","NAN","NAN","NAN","NAN","NAN"],
    [1569089,"2026-09-01 01:10:00","5842","0.585","91.2","0.882","88.9","NAN","NAN","NAN","NAN","NAN"],
    [1569090,"2026-09-01 01:20:00","5843","0.35","104.4","0.882","107.6","NAN","NAN","NAN","NAN","NAN"],
    [1569091,"2026-09-01 01:30:00","5844","0.72","88.8","1.274","88.8","NAN","NAN","NAN","NAN","NAN"],
    [1569092,"2026-09-01 01:40:00","5845","0.889","87.6","1.372","88.2","NAN","NAN","NAN","NAN","NAN"],
    [1569093,"2026-09-01 01:50:00","5846","0.7170000000000001","87.1","1.176","87.2","NAN","NAN","NAN","NAN","NAN"],
    [1569094,"2026-09-01 02:00:00","5847","0.7170000000000001","86.7","1.274","86.9","NAN","NAN","NAN","NAN","NAN"],
    [1569095,"2026-09-01 02:10:00","5848","0.705","86.0","1.274","85.7","NAN","NAN","NAN","NAN","NAN"],
    [1569096,"2026-09-01 02:20:00","5849","0.535","81.0","1.274","81.1","NAN","NAN","NAN","NAN","NAN"],
    [1569097,"2026-09-01 02:30:00","5850","0.35700000000000004","80.6","0.784","80.6","NAN","NAN","NAN","NAN","NAN"],
    [1569098,"2026-09-01 02:40:00","5851","0.434","80.5","0.882","80.5","NAN","NAN","NAN","NAN","NAN"],
    [1569099,"2026-09-01 02:50:00","5852","0.42100000000000004","80.4","0.882","80.4","NAN","NAN","NAN","NAN","NAN"],
    [1569100,"2026-09-01 03:00:00","5853","0.705","79.03","1.372","78.65","NAN","NAN","NAN","NAN","NAN"],
    [1569101,"2026-09-01 03:10:00","5854","0.564","77.29","1.078","77.5","NAN","NAN","NAN","NAN","NAN"],
    [1569102,"2026-09-01 03:20:00","5855","0.35200000000000004","77.02","0.882","77.02","NAN","NAN","NAN","NAN","NAN"],
    [1569103,"2026-09-01 03:30:00","5856","0.256","77.01","1.078","76.92","NAN","NAN","NAN","NAN","NAN"],
    [1569104,"2026-09-01 03:40:00","5857","0.485","76.87","1.176","76.83","NAN","NAN","NAN","NAN","NAN"],
    [1569105,"2026-09-01 03:50:00","5858","0.58","76.0","1.176","75.67","NAN","NAN","NAN","NAN","NAN"],
    [1569106,"2026-09-01 04:00:00","5859","0.324","75.67","0.784","75.67","NAN","NAN","NAN","NAN","NAN"],
    [1569107,"2026-09-01 04:10:00","5860","0.655","75.58","1.372","75.58","NAN","NAN","NAN","NAN","NAN"],
    [1569108,"2026-09-01 04:20:00","5861","0.45899999999999996","75.37","1.372","75.38","NAN","NAN","NAN","NAN","NAN"],
    [1569109,"2026-09-01 04:30:00","5862","0.6940000000000001","75.01","1.568","75.1","NAN","NAN","NAN","NAN","NAN"],
    [1569110,"2026-09-01 04:40:00","5863","0.622","74.81","1.176","74.81","NAN","NAN","NAN","NAN","NAN"],
    [1569111,"2026-09-01 04:50:00","5864","0.6559999999999999","74.78","0.98","74.81","NAN","NAN","NAN","NAN","NAN"],
    [1569112,"2026-09-01 05:00:00","5865","0.894","74.4","1.666","74.62","NAN","NAN","NAN","NAN","NAN"],
    [1569113,"2026-09-01 05:10:00","5866","0.983","73.05","1.568","72.98","NAN","NAN","NAN","NAN","NAN"],
    [1569114,"2026-09-01 05:20:00","5867","0.43700000000000006","72.89","1.078","72.89","NAN","NAN","NAN","NAN","NAN"],
    [1569115,"2026-09-01 05:30:00","5868","0.57","72.89","1.274","72.89","NAN","NAN","NAN","NAN","NAN"],
    [1569116,"2026-09-01 05:40:00","5869","0.815","72.81","1.372","72.69","NAN","NAN","NAN","NAN","NAN"],
    [1569117,"2026-09-01 05:50:00","5870","0.754","72.61","1.372","72.6","NAN","NAN","NAN","NAN","NAN"],
    [1569118,"2026-09-01 06:00:00","5871","1.1059999999999999","72.19","1.764","72.09","NAN","NAN","NAN","NAN","NAN"],
    [1569119,"2026-09-01 06:10:00","5872","0.703","71.8","1.274","71.92","NAN","NAN","NAN","NAN","NAN"],
    [1569120,"2026-09-01 06:20:00","5873","1.056","71.52","1.862","71.44","NAN","NAN","NAN","NAN","NAN"],
    [1569121,"2026-09-01 06:30:00","5874","1.157","68.96","1.96","68.95","NAN","NAN","NAN","NAN","NAN"],
    [1569122,"2026-09-01 06:40:00","5875","0.5329999999999999","44.84","1.372","67.5","NAN","NAN","NAN","NAN","NAN"],
    [1569123,"2026-09-01 06:50:00","5876","0.535","1.35","1.666","0.192","NAN","NAN","NAN","NAN","NAN"],
    [1569124,"2026-09-01 07:00:00","5877","1.074","359.0","2.058","3.988","NAN","NAN","NAN","NAN","NAN"],
    [1569125,"2026-09-01 07:10:00","5878","0.7040000000000001","354.8","1.96","354.2","NAN","NAN","NAN","NAN","NAN"],
    [1569126,"2026-09-01 07:20:00","5879","0.584","348.9","1.862","0.625","NAN","NAN","NAN","NAN","NAN"],
    [1569127,"2026-09-01 07:30:00","5880","0.977","299.5","1.96","309.1","NAN","NAN","NAN","NAN","NAN"],
    [1569128,"2026-09-01 07:40:00","5881","0.977","298.2","2.156","304","NAN","NAN","NAN","NAN","NAN"],
    [1569129,"2026-09-01 07:50:00","5882","0.10400000000000001","291.7","0.784","291.8","NAN","NAN","NAN","NAN","NAN"],
    [1569130,"2026-09-01 08:00:00","5883","0.588","291.2","1.176","291.2","NAN","NAN","NAN","NAN","NAN"],
    [1569131,"2026-09-01 08:10:00","5884","0.6940000000000001","297.8","1.372","290.9","NAN","NAN","NAN","NAN","NAN"],
    [1569132,"2026-09-01 08:20:00","5885","0.564","239.1","2.058","186.4","NAN","NAN","NAN","NAN","NAN"],
    [1569133,"2026-09-01 08:30:00","5886","2.36","148.8","3.528","131","NAN","NAN","NAN","NAN","NAN"],
    [1569134,"2026-09-01 08:40:00","5887","2.821","144.3","3.626","152.8","NAN","NAN","NAN","NAN","NAN"],
    [1569135,"2026-09-01 08:50:00","5888","2.909","142.9","4.312","148.7","NAN","NAN","NAN","NAN","NAN"],
    [1569136,"2026-09-01 09:00:00","5889","3.263","154.2","4.312","157.8","NAN","NAN","NAN","NAN","NAN"],
    [1569137,"2026-09-01 09:10:00","5890","3.3360000000000003","156.9","5.096","145.9","NAN","NAN","NAN","NAN","NAN"],
    [1569138,"2026-09-01 09:20:00","5891","3.3360000000000003","171.0","5.39","156.1","NAN","NAN","NAN","NAN","NAN"],
    [1569139,"2026-09-01 09:30:00","5892","3.66","173.2","4.998","180.2","NAN","NAN","NAN","NAN","NAN"],
    [1569140,"2026-09-01 09:40:00","5893","3.4739999999999998","174.9","6.272","163.3","NAN","NAN","NAN","NAN","NAN"],
    [1569141,"2026-09-01 09:50:00","5894","2.786","192.6","5.292","167.2","NAN","NAN","NAN","NAN","NAN"],
    [1569142,"2026-09-01 10:00:00","5895","3.1830000000000003","194.6","6.174","215.3","NAN","NAN","NAN","NAN","NAN"],
    [1569143,"2026-09-01 10:10:00","5896","3.4619999999999997","207.0","6.762","216.7","NAN","NAN","NAN","NAN","NAN"],
    [1569144,"2026-09-01 10:20:00","5897","3.588","188.3","6.272","168","NAN","NAN","NAN","NAN","NAN"],
    [1569145,"2026-09-01 10:30:00","5898","3.248","193.9","5.586","214.7","NAN","NAN","NAN","NAN","NAN"],
    [1569146,"2026-09-01 10:40:00","5899","3.2880000000000003","189.1","4.998","190.3","NAN","NAN","NAN","NAN","NAN"],
    [1569147,"2026-09-01 10:50:00","5900","3.937","195.6","6.272","229.6","NAN","NAN","NAN","NAN","NAN"],
    [1569148,"2026-09-01 11:00:00","5901","3.698","188.9","6.272","165.5","NAN","NAN","NAN","NAN","NAN"],
    [1569149,"2026-09-01 11:10:00","5902","3.8","188.1","6.272","172.4","NAN","NAN","NAN","NAN","NAN"],
    [1569150,"2026-09-01 11:20:00","5903","3.8680000000000003","187.5","6.566","193.6","NAN","NAN","NAN","NAN","NAN"],
    [1569151,"2026-09-01 11:30:00","5904","3.9939999999999998","200.0","6.566","214.6","NAN","NAN","NAN","NAN","NAN"],
    [1569152,"2026-09-01 11:40:00","5905","3.9989999999999997","201.5","6.468","186.1","NAN","NAN","NAN","NAN","NAN"],
    [1569153,"2026-09-01 11:50:00","5906","3.925","195.7","6.076","205.4","NAN","NAN","NAN","NAN","NAN"],
    [1569154,"2026-09-01 12:00:00","5907","3.838","205.5","6.762","217.4","NAN","NAN","NAN","NAN","NAN"],
    [1569155,"2026-09-01 12:10:00","5908","3.202","212.8","5.684","206.4","NAN","NAN","NAN","NAN","NAN"],
    [1569156,"2026-09-01 12:20:00","5909","3.3760000000000003","208.2","5.978","212.3","NAN","NAN","NAN","NAN","NAN"],
    [1569157,"2026-09-01 12:30:00","5910","2.8680000000000003","194.0","6.566","168.5","NAN","NAN","NAN","NAN","NAN"],
    [1569158,"2026-09-01 12:40:00","5911","2.4130000000000003","195.2","5.684","218.8","NAN","NAN","NAN","NAN","NAN"],
    [1569159,"2026-09-01 12:50:00","5912","2.878","185.0","5.586","144.2","NAN","NAN","NAN","NAN","NAN"],
    [1569160,"2026-09-01 13:00:00","5913","3.227","195.2","5.978","214.1","NAN","NAN","NAN","NAN","NAN"],
    [1569161,"2026-09-01 13:10:00","5914","2.8480000000000003","179.4","5.194","189.5","NAN","NAN","NAN","NAN","NAN"],
    [1569162,"2026-09-01 13:20:00","5915","2.674","190.3","4.312","204.7","NAN","NAN","NAN","NAN","NAN"],
    [1569163,"2026-09-01 13:30:00","5916","2.568","200.6","4.018","212.7","NAN","NAN","NAN","NAN","NAN"],
    [1569164,"2026-09-01 13:40:00","5917","2.793","192.0","4.704","214.5","NAN","NAN","NAN","NAN","NAN"],
    [1569165,"2026-09-01 13:50:00","5918","3.467","199.1","5.292","146.2","NAN","NAN","NAN","NAN","NAN"],
    [1569166,"2026-09-01 14:00:00","5919","3.2880000000000003","186.5","4.802","195.9","NAN","NAN","NAN","NAN","NAN"],
    [1569167,"2026-09-01 14:10:00","5920","2.963","208.3","5.782","209.8","NAN","NAN","NAN","NAN","NAN"],
    [1569168,"2026-09-01 14:20:00","5921","3.93","216.2","6.076","223.7","NAN","NAN","NAN","NAN","NAN"],
    [1569169,"2026-09-01 14:30:00","5922","3.614","212.2","5.782","222.6","NAN","NAN","NAN","NAN","NAN"],
    [1569170,"2026-09-01 14:40:00","5923","3.6839999999999997","216.7","6.468","234.9","NAN","NAN","NAN","NAN","NAN"],
    [1569171,"2026-09-01 14:50:00","5924","3.68","210.5","6.37","212.3","NAN","NAN","NAN","NAN","NAN"],
    [1569172,"2026-09-01 15:00:00","5925","2.545","199.4","4.508","227.1","NAN","NAN","NAN","NAN","NAN"],
    [1569173,"2026-09-01 15:10:00","5926","2.53","207.3","4.41","222.3","NAN","NAN","NAN","NAN","NAN"],
    [1569174,"2026-09-01 15:20:00","5927","2.397","182.2","4.606","169.9","NAN","NAN","NAN","NAN","NAN"],
    [1569175,"2026-09-01 15:30:00","5928","2.784","212.4","4.606","214.6","NAN","NAN","NAN","NAN","NAN"],
    [1569176,"2026-09-01 15:40:00","5929","2.386","213.4","4.998","191.8","NAN","NAN","NAN","NAN","NAN"],
    [1569177,"2026-09-01 15:50:00","5930","2.6439999999999997","188.9","5.096","187.1","NAN","NAN","NAN","NAN","NAN"],
    [1569178,"2026-09-01 16:00:00","5931","3.3310000000000004","202.3","5.488","209.6","NAN","NAN","NAN","NAN","NAN"],
    [1569179,"2026-09-01 16:10:00","5932","2.7880000000000003","198.2","5.292","219.7","NAN","NAN","NAN","NAN","NAN"],
    [1569180,"2026-09-01 16:20:00","5933","2.379","201.2","4.41","203","NAN","NAN","NAN","NAN","NAN"],
    [1569181,"2026-09-01 16:30:00","5934","1.5719999999999998","212.9","3.234","220","NAN","NAN","NAN","NAN","NAN"],
    [1569182,"2026-09-01 16:40:00","5935","2.138","179.5","3.724","179.8","NAN","NAN","NAN","NAN","NAN"],
    [1569183,"2026-09-01 16:50:00","5936","2.512","213.8","4.018","207.4","NAN","NAN","NAN","NAN","NAN"],
    [1569184,"2026-09-01 17:00:00","5937","3.077","207.0","4.998","208.4","NAN","NAN","NAN","NAN","NAN"],
    [1569185,"2026-09-01 17:10:00","5938","2.9139999999999997","212.6","4.704","205.6","NAN","NAN","NAN","NAN","NAN"],
    [1569186,"2026-09-01 17:20:00","5939","2.29","227.7","4.018","213.8","NAN","NAN","NAN","NAN","NAN"],
    [1569187,"2026-09-01 17:30:00","5940","1.817","215.6","3.234","212","NAN","NAN","NAN","NAN","NAN"],
    [1569188,"2026-09-01 17:40:00","5941","2.1790000000000003","237.7","4.018","235.8","NAN","NAN","NAN","NAN","NAN"],
    [1569189,"2026-09-01 17:50:00","5942","2.542","250.4","3.92","262.5","NAN","NAN","NAN","NAN","NAN"],
    [1569190,"2026-09-01 18:00:00","5943","1.949","250.4","3.234","255.2","NAN","NAN","NAN","NAN","NAN"],
    [1569191,"2026-09-01 18:10:00","5944","1.284","257.9","2.45","261.9","NAN","NAN","NAN","NAN","NAN"],
    [1569192,"2026-09-01 18:20:00","5945","0.9940000000000001","254.5","2.058","257.6","NAN","NAN","NAN","NAN","NAN"],
    [1569193,"2026-09-01 18:30:00","5946","1.974","227.4","3.724","217.6","NAN","NAN","NAN","NAN","NAN"],
    [1569194,"2026-09-01 18:40:00","5947","1.8619999999999999","213.7","3.528","210.7","NAN","NAN","NAN","NAN","NAN"],
    [1569195,"2026-09-01 18:50:00","5948","2.331","206.2","3.528","213.2","NAN","NAN","NAN","NAN","NAN"],
    [1569196,"2026-09-01 19:00:00","5949","2.16","215.2","3.234","200.4","NAN","NAN","NAN","NAN","NAN"],
    [1569197,"2026-09-01 19:10:00","5950","2.1069999999999998","221.6","3.43","213.6","NAN","NAN","NAN","NAN","NAN"],
    [1569198,"2026-09-01 19:20:00","5951","1.811","220.2","3.43","217.1","NAN","NAN","NAN","NAN","NAN"],
    [1569199,"2026-09-01 19:30:00","5952","2.011","231.1","3.234","224.6","NAN","NAN","NAN","NAN","NAN"],
    [1569200,"2026-09-01 19:40:00","5953","1.844","232.5","3.332","239.6","NAN","NAN","NAN","NAN","NAN"],
    [1569201,"2026-09-01 19:50:00","5954","1.858","243.3","2.45","240.6","NAN","NAN","NAN","NAN","NAN"],
    [1569202,"2026-09-01 20:00:00","5955","1.671","244.6","2.548","244","NAN","NAN","NAN","NAN","NAN"],
    [1569203,"2026-09-01 20:10:00","5956","1.564","236.7","3.038","241","NAN","NAN","NAN","NAN","NAN"],
    [1569204,"2026-09-01 20:20:00","5957","1.565","230.7","2.548","225.8","NAN","NAN","NAN","NAN","NAN"],
    [1569205,"2026-09-01 20:30:00","5958","0.9520000000000001","226.8","2.058","220.6","NAN","NAN","NAN","NAN","NAN"],
    [1569206,"2026-09-01 20:40:00","5959","1.536","242.3","2.548","245.1","NAN","NAN","NAN","NAN","NAN"],
    [1569207,"2026-09-01 20:50:00","5960","0.955","241.3","2.254","245.2","NAN","NAN","NAN","NAN","NAN"],
    [1569208,"2026-09-01 21:00:00","5961","1.8619999999999999","246.6","2.94","247.9","NAN","NAN","NAN","NAN","NAN"],
    [1569209,"2026-09-01 21:10:00","5962","1.486","244.2","2.646","245.2","NAN","NAN","NAN","NAN","NAN"],
    [1569210,"2026-09-01 21:20:00","5963","2.19","245.9","3.332","244.4","NAN","NAN","NAN","NAN","NAN"],
    [1569211,"2026-09-01 21:30:00","5964","1.9","246.5","3.626","245.5","NAN","NAN","NAN","NAN","NAN"],
    [1569212,"2026-09-01 21:40:00","5965","2.035","248.2","3.626","245.5","NAN","NAN","NAN","NAN","NAN"],
    [1569213,"2026-09-01 21:50:00","5966","1.587","245.7","2.548","252.3","NAN","NAN","NAN","NAN","NAN"],
    [1569214,"2026-09-01 22:00:00","5967","1.406","250.9","2.744","242","NAN","NAN","NAN","NAN","NAN"],
    [1569215,"2026-09-01 22:10:00","5968","0.893","253.1","1.274","253.1","NAN","NAN","NAN","NAN","NAN"],
    [1569216,"2026-09-01 22:20:00","5969","0.473","253.2","0.98","253.2","NAN","NAN","NAN","NAN","NAN"],
    [1569217,"2026-09-01 22:30:00","5970","0.48700000000000004","253.3","1.372","253.3","NAN","NAN","NAN","NAN","NAN"],
    [1569218,"2026-09-01 22:40:00","5971","0.445","253.3","1.078","253.3","NAN","NAN","NAN","NAN","NAN"],
    [1569219,"2026-09-01 22:50:00","5972","0.7559999999999999","253.3","1.274","253.3","NAN","NAN","NAN","NAN","NAN"],
    [1569220,"2026-09-01 23:00:00","5973","0.845","253.3","1.568","253.3","NAN","NAN","NAN","NAN","NAN"],
    [1569221,"2026-09-01 23:10:00","5974","0.39299999999999996","253.3","0.882","253.3","NAN","NAN","NAN","NAN","NAN"],
    [1569222,"2026-09-01 23:20:00","5975","0.38","253.5","0.882","253.6","NAN","NAN","NAN","NAN","NAN"],
    [1569223,"2026-09-01 23:30:00","5976","0.35100000000000003","253.6","0.882","253.6","NAN","NAN","NAN","NAN","NAN"],
    [1569224,"2026-09-01 23:40:00","5977","0.292","253.6","0.784","253.6","NAN","NAN","NAN","NAN","NAN"],
    [1569225,"2026-09-01 23:50:00","5978","0.6409999999999999","253.7","1.078","253.7","NAN","NAN","NAN","NAN","NAN"],
    [1569226,"2026-09-02 00:00:00","5979","0.5870000000000001","253.6","1.176","253.6","NAN","NAN","NAN","NAN","NAN"],
    [1569227,"2026-09-02 00:10:00","5980","0.504","253.7","0.98","253.7","NAN","NAN","NAN","NAN","NAN"],
    [1569228,"2026-09-02 00:20:00","5981","0.7240000000000001","253.8","1.47","253.8","NAN","NAN","NAN","NAN","NAN"],
    [1569229,"2026-09-02 00:30:00","5982","0.523","253.8","1.176","253.8","NAN","NAN","NAN","NAN","NAN"],
    [1569230,"2026-09-02 00:40:00","5983","0.66","253.9","1.274","253.9","NAN","NAN","NAN","NAN","NAN"],
    [1569231,"2026-09-02 00:50:00","5984","0.5870000000000001","253.9","1.176","253.9","NAN","NAN","NAN","NAN","NAN"],
    [1569232,"2026-09-02 01:00:00","5985","0.384","253.9","0.882","253.9","NAN","NAN","NAN","NAN","NAN"],
    [1569233,"2026-09-02 01:10:00","5986","0.069","254.1","0.588","254.1","NAN","NAN","NAN","NAN","NAN"],
    [1569234,"2026-09-02 01:20:00","5987","0.435","254.5","0.98","254.2","NAN","NAN","NAN","NAN","NAN"],
    [1569235,"2026-09-02 01:30:00","5988","0.5429999999999999","257.7","1.176","257.9","NAN","NAN","NAN","NAN","NAN"],
    [1569236,"2026-09-02 01:40:00","5989","0.917","257.9","1.568","257.9","NAN","NAN","NAN","NAN","NAN"],
    [1569237,"2026-09-02 01:50:00","5990","0.818","257.9","1.568","258","NAN","NAN","NAN","NAN","NAN"],
    [1569238,"2026-09-02 02:00:00","5991","0.8909999999999999","258.0","1.47","258","NAN","NAN","NAN","NAN","NAN"],
    [1569239,"2026-09-02 02:10:00","5992","1.107","258.2","1.96","258.1","NAN","NAN","NAN","NAN","NAN"],
    [1569240,"2026-09-02 02:20:00","5993","1.248","258.5","1.764","258.4","NAN","NAN","NAN","NAN","NAN"],
    [1569241,"2026-09-02 02:30:00","5994","0.915","258.6","1.47","258.6","NAN","NAN","NAN","NAN","NAN"],
    [1569242,"2026-09-02 02:40:00","5995","1.294","259.0","2.156","259.2","NAN","NAN","NAN","NAN","NAN"],
    [1569243,"2026-09-02 02:50:00","5996","1.3530000000000002","259.5","2.058","259.7","NAN","NAN","NAN","NAN","NAN"],
    [1569244,"2026-09-02 03:00:00","5997","1.6840000000000002","263.4","2.45","263.6","NAN","NAN","NAN","NAN","NAN"],
    [1569245,"2026-09-02 03:10:00","5998","1.965","264.1","2.842","264.2","NAN","NAN","NAN","NAN","NAN"],
    [1569246,"2026-09-02 03:20:00","5999","1.716","264.8","2.45","264.7","NAN","NAN","NAN","NAN","NAN"],
    [1569247,"2026-09-02 03:30:00","6000","2.228","271.7","3.136","277.7","NAN","NAN","NAN","NAN","NAN"],
    [1569248,"2026-09-02 03:40:00","6001","1.965","279.3","3.038","274","NAN","NAN","NAN","NAN","NAN"],
    [1569249,"2026-09-02 03:50:00","6002","2.115","283.3","3.724","281.3","NAN","NAN","NAN","NAN","NAN"],
    [1569250,"2026-09-02 04:00:00","6003","1.6880000000000002","288.5","3.038","291.4","NAN","NAN","NAN","NAN","NAN"],
    [1569251,"2026-09-02 04:10:00","6004","1.76","296.6","2.94","289.8","NAN","NAN","NAN","NAN","NAN"],
    [1569252,"2026-09-02 04:20:00","6005","2.233","299.1","3.822","303","NAN","NAN","NAN","NAN","NAN"],
    [1569253,"2026-09-02 04:30:00","6006","1.4780000000000002","297.5","2.94","300.1","NAN","NAN","NAN","NAN","NAN"],
    [1569254,"2026-09-02 04:40:00","6007","1.713","294.2","2.744","291.3","NAN","NAN","NAN","NAN","NAN"],
    [1569255,"2026-09-02 04:50:00","6008","1.4340000000000002","288.6","2.646","286.5","NAN","NAN","NAN","NAN","NAN"],
    [1569256,"2026-09-02 05:00:00","6009","2.279","286.2","3.724","288.2","NAN","NAN","NAN","NAN","NAN"],
    [1569257,"2026-09-02 05:10:00","6010","1.857","289.4","2.744","288.7","NAN","NAN","NAN","NAN","NAN"],
    [1569258,"2026-09-02 05:20:00","6011","1.9340000000000002","289.1","2.94","295.4","NAN","NAN","NAN","NAN","NAN"],
    [1569259,"2026-09-02 05:30:00","6012","2.113","280.1","3.332","289.2","NAN","NAN","NAN","NAN","NAN"],
    [1569260,"2026-09-02 05:40:00","6013","2.782","288.7","4.214","286.4","NAN","NAN","NAN","NAN","NAN"],
    [1569261,"2026-09-02 05:50:00","6014","2.4859999999999998","289.9","4.802","299","NAN","NAN","NAN","NAN","NAN"],
    [1569262,"2026-09-02 06:00:00","6015","2.2880000000000003","277.7","4.41","289.9","NAN","NAN","NAN","NAN","NAN"],
    [1569263,"2026-09-02 06:10:00","6016","2.698","285.5","4.41","289.9","NAN","NAN","NAN","NAN","NAN"],
    [1569264,"2026-09-02 06:20:00","6017","2.47","280.3","3.92","286","NAN","NAN","NAN","NAN","NAN"],
    [1569265,"2026-09-02 06:30:00","6018","2.613","288.1","4.018","294.1","NAN","NAN","NAN","NAN","NAN"],
    [1569266,"2026-09-02 06:40:00","6019","2.281","285.5","3.626","279","NAN","NAN","NAN","NAN","NAN"],
    [1569267,"2026-09-02 06:50:00","6020","2.391","295.7","3.822","292.4","NAN","NAN","NAN","NAN","NAN"],
    [1569268,"2026-09-02 07:00:00","6021","2.503","305.5","3.822","308.2","NAN","NAN","NAN","NAN","NAN"],
    [1569269,"2026-09-02 07:10:00","6022","2.115","297.2","3.038","294.4","NAN","NAN","NAN","NAN","NAN"],
    [1569270,"2026-09-02 07:20:00","6023","2.167","288.4","2.94","287","NAN","NAN","NAN","NAN","NAN"],
    [1569271,"2026-09-02 07:30:00","6024","1.5630000000000002","305.1","2.352","309.8","NAN","NAN","NAN","NAN","NAN"],
    [1569272,"2026-09-02 07:40:00","6025","1.4569999999999999","283.7","2.744","286.5","NAN","NAN","NAN","NAN","NAN"],
    [1569273,"2026-09-02 07:50:00","6026","0.9590000000000001","281.1","2.352","288.6","NAN","NAN","NAN","NAN","NAN"],
    [1569274,"2026-09-02 08:00:00","6027","0.8240000000000001","284.5","1.47","289","NAN","NAN","NAN","NAN","NAN"],
    [1569275,"2026-09-02 08:10:00","6028","0.262","265.8","0.686","265.6","NAN","NAN","NAN","NAN","NAN"],
    [1569276,"2026-09-02 08:20:00","6029","0.778","263.5","1.372","263.7","NAN","NAN","NAN","NAN","NAN"],
    [1569277,"2026-09-02 08:30:00","6030","0.51","261.2","1.176","262.3","NAN","NAN","NAN","NAN","NAN"],
    [1569278,"2026-09-02 08:40:00","6031","0.893","278.7","1.764","40.31","NAN","NAN","NAN","NAN","NAN"],
    [1569279,"2026-09-02 08:50:00","6032","1.807","78.97","3.136","87.7","NAN","NAN","NAN","NAN","NAN"],
    [1569280,"2026-09-02 09:00:00","6033","2.635","81.4","4.116","77.29","NAN","NAN","NAN","NAN","NAN"],
    [1569281,"2026-09-02 09:10:00","6034","2.557","82.4","4.116","81.4","NAN","NAN","NAN","NAN","NAN"],
    [1569282,"2026-09-02 09:20:00","6035","2.401","79.98","3.822","89.2","NAN","NAN","NAN","NAN","NAN"],
    [1569283,"2026-09-02 09:30:00","6036","2.281","66.94","4.116","72.29","NAN","NAN","NAN","NAN","NAN"],
    [1569284,"2026-09-02 09:40:00","6037","2.449","67.93","4.606","59.92","NAN","NAN","NAN","NAN","NAN"],
    [1569285,"2026-09-02 09:50:00","6038","2.336","69.94","4.116","72.77","NAN","NAN","NAN","NAN","NAN"],
    [1569286,"2026-09-02 10:00:00","6039","2.271","77.92","3.92","80.8","NAN","NAN","NAN","NAN","NAN"],
    [1569287,"2026-09-02 10:10:00","6040","3.17","98.6","4.9","100.5","NAN","NAN","NAN","NAN","NAN"],
    [1569288,"2026-09-02 10:20:00","6041","3.218","96.2","4.998","94.3","NAN","NAN","NAN","NAN","NAN"],
    [1569289,"2026-09-02 10:30:00","6042","3.3560000000000003","102.4","4.9","105.5","NAN","NAN","NAN","NAN","NAN"],
    [1569290,"2026-09-02 10:40:00","6043","3.0469999999999997","100.6","4.9","100.7","NAN","NAN","NAN","NAN","NAN"],
    [1569291,"2026-09-02 10:50:00","6044","3.583","91.9","4.998","91.8","NAN","NAN","NAN","NAN","NAN"],
    [1569292,"2026-09-02 11:00:00","6045","2.593","104.2","4.116","117","NAN","NAN","NAN","NAN","NAN"],
    [1569293,"2026-09-02 11:10:00","6046","2.661","111.6","4.214","112","NAN","NAN","NAN","NAN","NAN"],
    [1569294,"2026-09-02 11:20:00","6047","2.784","124.9","4.312","136.6","NAN","NAN","NAN","NAN","NAN"],
    [1569295,"2026-09-02 11:30:00","6048","2.273","135.1","4.312","154.6","NAN","NAN","NAN","NAN","NAN"],
    [1569296,"2026-09-02 11:40:00","6049","3.362","132.3","4.802","135.1","NAN","NAN","NAN","NAN","NAN"],
    [1569297,"2026-09-02 11:50:00","6050","3.5469999999999997","130.1","4.9","135.6","NAN","NAN","NAN","NAN","NAN"],
    [1569298,"2026-09-02 12:00:00","6051","3.239","131.1","4.802","132.5","NAN","NAN","NAN","NAN","NAN"],
    [1569299,"2026-09-02 12:10:00","6052","3.253","135.0","4.998","156.3","NAN","NAN","NAN","NAN","NAN"],
    [1569300,"2026-09-02 12:20:00","6053","2.978","129.6","4.508","143.4","NAN","NAN","NAN","NAN","NAN"],
    [1569301,"2026-09-02 12:30:00","6054","3.1860000000000004","133.0","5.194","129.8","NAN","NAN","NAN","NAN","NAN"],
    [1569302,"2026-09-02 12:40:00","6055","3.32","136.4","5.39","128.7","NAN","NAN","NAN","NAN","NAN"],
    [1569303,"2026-09-02 12:50:00","6056","3.765","128.6","5.684","126.5","NAN","NAN","NAN","NAN","NAN"],
    [1569304,"2026-09-02 13:00:00","6057","3.5410000000000004","128.2","4.998","121.4","NAN","NAN","NAN","NAN","NAN"],
    [1569305,"2026-09-02 13:10:00","6058","3.0860000000000003","127.5","4.9","122.4","NAN","NAN","NAN","NAN","NAN"],
    [1569306,"2026-09-02 13:20:00","6059","4.12","131.4","5.292","135.6","NAN","NAN","NAN","NAN","NAN"],
    [1569307,"2026-09-02 13:30:00","6060","3.6719999999999997","140.7","5.684","170.1","NAN","NAN","NAN","NAN","NAN"],
    [1569308,"2026-09-02 13:40:00","6061","3.803","149.5","5.586","131.8","NAN","NAN","NAN","NAN","NAN"],
    [1569309,"2026-09-02 13:50:00","6062","4.378","152.3","5.782","151.6","NAN","NAN","NAN","NAN","NAN"],
    [1569310,"2026-09-02 14:00:00","6063","3.315","157.2","6.076","130.8","NAN","NAN","NAN","NAN","NAN"],
    [1569311,"2026-09-02 14:10:00","6064","4.075","168.9","5.782","167.6","NAN","NAN","NAN","NAN","NAN"],
    [1569312,"2026-09-02 14:20:00","6065","3.7460000000000004","167.0","5.88","160.1","NAN","NAN","NAN","NAN","NAN"],
    [1569313,"2026-09-02 14:30:00","6066","4.092","151.7","5.88","163.8","NAN","NAN","NAN","NAN","NAN"],
    [1569314,"2026-09-02 14:40:00","6067","3.457","172.5","5.586","162.3","NAN","NAN","NAN","NAN","NAN"],
    [1569315,"2026-09-02 14:50:00","6068","3.463","171.6","5.586","175.3","NAN","NAN","NAN","NAN","NAN"],
    [1569316,"2026-09-02 15:00:00","6069","2.76","155.3","5.88","156.5","NAN","NAN","NAN","NAN","NAN"],
    [1569317,"2026-09-02 15:10:00","6070","3.323","148.8","4.9","144.4","NAN","NAN","NAN","NAN","NAN"],
    [1569318,"2026-09-02 15:20:00","6071","2.815","165.2","5.586","171.3","NAN","NAN","NAN","NAN","NAN"],
    [1569319,"2026-09-02 15:30:00","6072","2.535","159.5","5.194","155.9","NAN","NAN","NAN","NAN","NAN"],
    [1569320,"2026-09-02 15:40:00","6073","2.472","167.5","4.214","151.2","NAN","NAN","NAN","NAN","NAN"],
    [1569321,"2026-09-02 15:50:00","6074","1.982","159.5","3.822","186.7","NAN","NAN","NAN","NAN","NAN"],
    [1569322,"2026-09-02 16:00:00","6075","2.627","154.4","4.606","129.5","NAN","NAN","NAN","NAN","NAN"],
    [1569323,"2026-09-02 16:10:00","6076","2.589","154.6","4.9","126.1","NAN","NAN","NAN","NAN","NAN"],
    [1569324,"2026-09-02 16:20:00","6077","2.641","148.1","4.116","147.9","NAN","NAN","NAN","NAN","NAN"],
    [1569325,"2026-09-02 16:30:00","6078","2.05","154.4","3.724","167.6","NAN","NAN","NAN","NAN","NAN"],
    [1569326,"2026-09-02 16:40:00","6079","1.736","139.2","3.234","158.3","NAN","NAN","NAN","NAN","NAN"],
    [1569327,"2026-09-02 16:50:00","6080","2.112","167.7","4.508","140.6","NAN","NAN","NAN","NAN","NAN"],
    [1569328,"2026-09-02 17:00:00","6081","2.194","143.8","4.018","154.2","NAN","NAN","NAN","NAN","NAN"],
    [1569329,"2026-09-02 17:10:00","6082","1.975","155.0","3.528","153.4","NAN","NAN","NAN","NAN","NAN"],
    [1569330,"2026-09-02 17:20:00","6083","2.045","123.9","3.136","133.5","NAN","NAN","NAN","NAN","NAN"],
    [1569331,"2026-09-02 17:30:00","6084","1.926","110.2","2.842","109.6","NAN","NAN","NAN","NAN","NAN"],
    [1569332,"2026-09-02 17:40:00","6085","1.5219999999999998","118.9","2.646","99.4","NAN","NAN","NAN","NAN","NAN"],
    [1569333,"2026-09-02 17:50:00","6086","1.611","124.5","2.646","131.2","NAN","NAN","NAN","NAN","NAN"],
    [1569334,"2026-09-02 18:00:00","6087","1.272","125.1","2.45","124.9","NAN","NAN","NAN","NAN","NAN"],
    [1569335,"2026-09-02 18:10:00","6088","1.561","133.0","2.744","132.2","NAN","NAN","NAN","NAN","NAN"],
    [1569336,"2026-09-02 18:20:00","6089","0.688","139.0","1.568","137.5","NAN","NAN","NAN","NAN","NAN"],
    [1569337,"2026-09-02 18:30:00","6090","1.157","179.0","2.45","192.3","NAN","NAN","NAN","NAN","NAN"],
    [1569338,"2026-09-02 18:40:00","6091","1.1840000000000002","194.9","2.058","193.7","NAN","NAN","NAN","NAN","NAN"],
    [1569339,"2026-09-02 18:50:00","6092","0.95","198.6","1.862","198.7","NAN","NAN","NAN","NAN","NAN"],
    [1569340,"2026-09-02 19:00:00","6093","0.68","196.1","1.862","191","NAN","NAN","NAN","NAN","NAN"],
    [1569341,"2026-09-02 19:10:00","6094","0.981","197.4","1.666","199.9","NAN","NAN","NAN","NAN","NAN"],
    [1569342,"2026-09-02 19:20:00","6095","0.528","199.0","1.666","200","NAN","NAN","NAN","NAN","NAN"],
    [1569343,"2026-09-02 19:30:00","6096","0.08800000000000001","194.4","0.588","192.8","NAN","NAN","NAN","NAN","NAN"],
    [1569344,"2026-09-02 19:40:00","6097","0.0","0.0","0","192.8","NAN","NAN","NAN","NAN","NAN"],
    [1569345,"2026-09-02 19:50:00","6098","0.013000000000000001","192.6","0.294","192.6","NAN","NAN","NAN","NAN","NAN"],
    [1569346,"2026-09-02 20:00:00","6099","0.03","200.3","0.392","200.4","NAN","NAN","NAN","NAN","NAN"],
    [1569347,"2026-09-02 20:10:00","6100","0.215","195.7","0.686","199.1","NAN","NAN","NAN","NAN","NAN"],
    [1569348,"2026-09-02 20:20:00","6101","0.002","191.0","0.098","191","NAN","NAN","NAN","NAN","NAN"],
    [1569349,"2026-09-02 20:30:00","6102","0.3","190.6","0.882","190.5","NAN","NAN","NAN","NAN","NAN"],
    [1569350,"2026-09-02 20:40:00","6103","0.36200000000000004","197.6","1.078","190.3","NAN","NAN","NAN","NAN","NAN"],
    [1569351,"2026-09-02 20:50:00","6104","0.317","202.9","0.784","204.1","NAN","NAN","NAN","NAN","NAN"],
    [1569352,"2026-09-02 21:00:00","6105","0.317","219.2","0.784","224.8","NAN","NAN","NAN","NAN","NAN"],
    [1569353,"2026-09-02 21:10:00","6106","0.544","227.6","1.47","228","NAN","NAN","NAN","NAN","NAN"],
    [1569354,"2026-09-02 21:20:00","6107","0.255","238.2","0.98","247.9","NAN","NAN","NAN","NAN","NAN"],
    [1569355,"2026-09-02 21:30:00","6108","0.8809999999999999","256.8","2.058","252.9","NAN","NAN","NAN","NAN","NAN"],
    [1569356,"2026-09-02 21:40:00","6109","0.828","270.8","1.862","285.2","NAN","NAN","NAN","NAN","NAN"],
    [1569357,"2026-09-02 21:50:00","6110","1.253","301.5","2.254","297.1","NAN","NAN","NAN","NAN","NAN"],
    [1569358,"2026-09-02 22:00:00","6111","0.953","303.3","1.47","300.1","NAN","NAN","NAN","NAN","NAN"],
    [1569359,"2026-09-02 22:10:00","6112","0.937","296.1","1.568","292.5","NAN","NAN","NAN","NAN","NAN"],
    [1569360,"2026-09-02 22:20:00","6113","1.052","290.0","1.568","291.9","NAN","NAN","NAN","NAN","NAN"],
    [1569361,"2026-09-02 22:30:00","6114","1.133","288.6","1.568","289","NAN","NAN","NAN","NAN","NAN"],
    [1569362,"2026-09-02 22:40:00","6115","1.058","291.2","1.764","290.5","NAN","NAN","NAN","NAN","NAN"],
    [1569363,"2026-09-02 22:50:00","6116","0.287","298.7","0.98","298.6","NAN","NAN","NAN","NAN","NAN"],
    [1569364,"2026-09-02 23:00:00","6117","0.604","292.0","1.176","291.1","NAN","NAN","NAN","NAN","NAN"],
    [1569365,"2026-09-02 23:10:00","6118","0.425","291.8","1.078","291.1","NAN","NAN","NAN","NAN","NAN"],
    [1569366,"2026-09-02 23:20:00","6119","0.057","292.4","0.49","292.4","NAN","NAN","NAN","NAN","NAN"],
    [1569367,"2026-09-02 23:30:00","6120","0.442","288.7","1.274","287.9","NAN","NAN","NAN","NAN","NAN"],
    [1569368,"2026-09-02 23:40:00","6121","1.024","287.5","1.568","287.5","NAN","NAN","NAN","NAN","NAN"],
    [1569369,"2026-09-02 23:50:00","6122","1.185","290.5","1.96","292.3","NAN","NAN","NAN","NAN","NAN"],
    [1569370,"2026-09-03 00:00:00","6123","1.06","290.6","1.96","287.3","NAN","NAN","NAN","NAN","NAN"],
    [1569371,"2026-09-03 00:10:00","6124","1.1909999999999998","289.5","1.96","287","NAN","NAN","NAN","NAN","NAN"],
    [1569372,"2026-09-03 00:20:00","6125","0.888","287.3","1.372","286.6","NAN","NAN","NAN","NAN","NAN"],
    [1569373,"2026-09-03 00:30:00","6126","0.586","294.2","1.274","296","NAN","NAN","NAN","NAN","NAN"],
    [1569374,"2026-09-03 00:40:00","6127","1.168","290.7","1.568","286.1","NAN","NAN","NAN","NAN","NAN"],
    [1569375,"2026-09-03 00:50:00","6128","1.02","287.7","1.666","289.1","NAN","NAN","NAN","NAN","NAN"],
    [1569376,"2026-09-03 01:00:00","6129","1.129","286.1","1.568","286","NAN","NAN","NAN","NAN","NAN"],
    [1569377,"2026-09-03 01:10:00","6130","0.985","285.7","1.666","285.4","NAN","NAN","NAN","NAN","NAN"],
    [1569378,"2026-09-03 01:20:00","6131","1.168","286.4","1.666","285","NAN","NAN","NAN","NAN","NAN"],
    [1569379,"2026-09-03 01:30:00","6132","1.0659999999999998","289.4","1.764","295.1","NAN","NAN","NAN","NAN","NAN"],
    [1569380,"2026-09-03 01:40:00","6133","0.955","292.5","1.96","294.5","NAN","NAN","NAN","NAN","NAN"],
    [1569381,"2026-09-03 01:50:00","6134","1.25","289.5","2.254","290.4","NAN","NAN","NAN","NAN","NAN"],
    [1569382,"2026-09-03 02:00:00","6135","1.161","293.5","1.764","293.4","NAN","NAN","NAN","NAN","NAN"],
    [1569383,"2026-09-03 02:10:00","6136","1.1079999999999999","289.0","1.47","292.9","NAN","NAN","NAN","NAN","NAN"],
    [1569384,"2026-09-03 02:20:00","6137","1.204","287.0","1.666","284.7","NAN","NAN","NAN","NAN","NAN"],
    [1569385,"2026-09-03 02:30:00","6138","1.071","285.4","1.764","284.2","NAN","NAN","NAN","NAN","NAN"],
    [1569386,"2026-09-03 02:40:00","6139","1.518","289.5","2.352","288.4","NAN","NAN","NAN","NAN","NAN"],
    [1569387,"2026-09-03 02:50:00","6140","0.856","291.1","1.862","289.1","NAN","NAN","NAN","NAN","NAN"],
    [1569388,"2026-09-03 03:00:00","6141","0.867","288.7","1.666","290.4","NAN","NAN","NAN","NAN","NAN"],
    [1569389,"2026-09-03 03:10:00","6142","0.568","292.5","1.47","293.9","NAN","NAN","NAN","NAN","NAN"],
    [1569390,"2026-09-03 03:20:00","6143","0.727","289.5","1.078","285.2","NAN","NAN","NAN","NAN","NAN"],
    [1569391,"2026-09-03 03:30:00","6144","0.617","288.8","1.274","286.5","NAN","NAN","NAN","NAN","NAN"],
    [1569392,"2026-09-03 03:40:00","6145","1.052","286.3","1.47","289.5","NAN","NAN","NAN","NAN","NAN"],
    [1569393,"2026-09-03 03:50:00","6146","1.307","283.7","1.764","283.4","NAN","NAN","NAN","NAN","NAN"],
    [1569394,"2026-09-03 04:00:00","6147","1.607","282.9","2.352","282","NAN","NAN","NAN","NAN","NAN"],
    [1569395,"2026-09-03 04:10:00","6148","1.4269999999999998","281.6","2.156","281.6","NAN","NAN","NAN","NAN","NAN"],
    [1569396,"2026-09-03 04:20:00","6149","1.068","281.2","1.862","280.9","NAN","NAN","NAN","NAN","NAN"],
    [1569397,"2026-09-03 04:30:00","6150","1.371","281.0","1.96","280.3","NAN","NAN","NAN","NAN","NAN"],
    [1569398,"2026-09-03 04:40:00","6151","1.275","281.1","1.862","280","NAN","NAN","NAN","NAN","NAN"],
    [1569399,"2026-09-03 04:50:00","6152","1.227","280.1","1.764","279.4","NAN","NAN","NAN","NAN","NAN"],
    [1569400,"2026-09-03 05:00:00","6153","1.159","278.8","1.862","278.4","NAN","NAN","NAN","NAN","NAN"],
    [1569401,"2026-09-03 05:10:00","6154","1.249","280.2","1.764","278.1","NAN","NAN","NAN","NAN","NAN"],
    [1569402,"2026-09-03 05:20:00","6155","1.5430000000000001","280.1","2.352","277","NAN","NAN","NAN","NAN","NAN"],
    [1569403,"2026-09-03 05:30:00","6156","0.955","282.3","1.47","287","NAN","NAN","NAN","NAN","NAN"],
    [1569404,"2026-09-03 05:40:00","6157","0.8390000000000001","281.4","1.372","287.6","NAN","NAN","NAN","NAN","NAN"],
    [1569405,"2026-09-03 05:50:00","6158","0.7020000000000001","278.2","1.372","276.2","NAN","NAN","NAN","NAN","NAN"],
    [1569406,"2026-09-03 06:00:00","6159","0.503","283.6","1.078","276.1","NAN","NAN","NAN","NAN","NAN"],
    [1569407,"2026-09-03 06:10:00","6160","0.581","280.4","1.47","275.8","NAN","NAN","NAN","NAN","NAN"],
    [1569408,"2026-09-03 06:20:00","6161","1.1840000000000002","275.6","1.862","275.3","NAN","NAN","NAN","NAN","NAN"],
    [1569409,"2026-09-03 06:30:00","6162","1.705","275.2","2.254","288.7","NAN","NAN","NAN","NAN","NAN"],
    [1569410,"2026-09-03 06:40:00","6163","1.8730000000000002","274.7","3.038","276.2","NAN","NAN","NAN","NAN","NAN"],
    [1569411,"2026-09-03 06:50:00","6164","2.062","288.2","3.724","287.7","NAN","NAN","NAN","NAN","NAN"],
    [1569412,"2026-09-03 07:00:00","6165","2.2680000000000002","302.1","3.234","304.3","NAN","NAN","NAN","NAN","NAN"],
    [1569413,"2026-09-03 07:10:00","6166","1.8019999999999998","292.1","2.744","288.1","NAN","NAN","NAN","NAN","NAN"],
    [1569414,"2026-09-03 07:20:00","6167","1.79","309.2","2.842","314.8","NAN","NAN","NAN","NAN","NAN"],
    [1569415,"2026-09-03 07:30:00","6168","1.39","302.7","2.254","301.9","NAN","NAN","NAN","NAN","NAN"],
    [1569416,"2026-09-03 07:40:00","6169","1.2429999999999999","289.1","2.646","278.5","NAN","NAN","NAN","NAN","NAN"],
    [1569417,"2026-09-03 07:50:00","6170","1.288","268.8","2.45","268","NAN","NAN","NAN","NAN","NAN"],
    [1569418,"2026-09-03 08:00:00","6171","0.61","281.1","1.764","279.8","NAN","NAN","NAN","NAN","NAN"],
    [1569419,"2026-09-03 08:10:00","6172","0.06","281.7","0.588","281.6","NAN","NAN","NAN","NAN","NAN"],
    [1569420,"2026-09-03 08:20:00","6173","0.547","270.0","1.372","260.4","NAN","NAN","NAN","NAN","NAN"],
    [1569421,"2026-09-03 08:30:00","6174","0.368","235.8","1.274","259.8","NAN","NAN","NAN","NAN","NAN"],
    [1569422,"2026-09-03 08:40:00","6175","0.725","139.5","1.47","141","NAN","NAN","NAN","NAN","NAN"],
    [1569423,"2026-09-03 08:50:00","6176","1.839","115.4","2.45","112.4","NAN","NAN","NAN","NAN","NAN"],
    [1569424,"2026-09-03 09:00:00","6177","2.0069999999999997","116.2","2.94","113.1","NAN","NAN","NAN","NAN","NAN"],
    [1569425,"2026-09-03 09:10:00","6178","1.788","110.7","2.646","108.2","NAN","NAN","NAN","NAN","NAN"],
    [1569426,"2026-09-03 09:20:00","6179","1.724","105.8","2.45","106.7","NAN","NAN","NAN","NAN","NAN"],
    [1569427,"2026-09-03 09:30:00","6180","1.945","112.7","2.646","114.9","NAN","NAN","NAN","NAN","NAN"],
    [1569428,"2026-09-03 09:40:00","6181","1.8940000000000001","112.7","2.646","117.3","NAN","NAN","NAN","NAN","NAN"],
    [1569429,"2026-09-03 09:50:00","6182","2.015","112.6","3.136","112.2","NAN","NAN","NAN","NAN","NAN"],
    [1569430,"2026-09-03 10:00:00","6183","2.377","120.2","3.43","132.9","NAN","NAN","NAN","NAN","NAN"],
    [1569431,"2026-09-03 10:10:00","6184","2.173","118.7","3.038","112.1","NAN","NAN","NAN","NAN","NAN"],
    [1569432,"2026-09-03 10:20:00","6185","2.705","109.3","3.822","108.9","NAN","NAN","NAN","NAN","NAN"],
    [1569433,"2026-09-03 10:30:00","6186","2.766","109.2","4.018","102.6","NAN","NAN","NAN","NAN","NAN"],
    [1569434,"2026-09-03 10:40:00","6187","2.696","112.7","3.822","113.3","NAN","NAN","NAN","NAN","NAN"],
    [1569435,"2026-09-03 10:50:00","6188","2.536","127.4","3.822","111.8","NAN","NAN","NAN","NAN","NAN"],
    [1569436,"2026-09-03 11:00:00","6189","3.5210000000000004","146.2","4.998","141.4","NAN","NAN","NAN","NAN","NAN"],
    [1569437,"2026-09-03 11:10:00","6190","2.943","167.7","4.802","170.2","NAN","NAN","NAN","NAN","NAN"],
    [1569438,"2026-09-03 11:20:00","6191","3.622","168.0","5.194","171","NAN","NAN","NAN","NAN","NAN"],
    [1569439,"2026-09-03 11:30:00","6192","3.0980000000000003","170.6","5.292","149.8","NAN","NAN","NAN","NAN","NAN"],
    [1569440,"2026-09-03 11:40:00","6193","2.872","193.9","4.9","169.3","NAN","NAN","NAN","NAN","NAN"],
    [1569441,"2026-09-03 11:50:00","6194","2.483","195.3","5.488","177.8","NAN","NAN","NAN","NAN","NAN"],
    [1569442,"2026-09-03 12:00:00","6195","3.1489999999999996","188.6","5.488","177.8","NAN","NAN","NAN","NAN","NAN"],
    [1569443,"2026-09-03 12:10:00","6196","3.378","184.2","6.272","174.1","NAN","NAN","NAN","NAN","NAN"],
    [1569444,"2026-09-03 12:20:00","6197","3.6910000000000003","188.0","5.684","167.5","NAN","NAN","NAN","NAN","NAN"],
    [1569445,"2026-09-03 12:30:00","6198","3.705","165.8","5.39","157.8","NAN","NAN","NAN","NAN","NAN"],
    [1569446,"2026-09-03 12:40:00","6199","3.634","189.5","7.252","165","NAN","NAN","NAN","NAN","NAN"],
    [1569447,"2026-09-03 12:50:00","6200","4.19","174.6","6.566","165","NAN","NAN","NAN","NAN","NAN"],
    [1569448,"2026-09-03 13:00:00","6201","3.537","187.1","5.978","179","NAN","NAN","NAN","NAN","NAN"],
    [1569449,"2026-09-03 13:10:00","6202","3.377","205.4","5.292","223.4","NAN","NAN","NAN","NAN","NAN"],
    [1569450,"2026-09-03 13:20:00","6203","3.8139999999999996","199.0","6.468","220.5","NAN","NAN","NAN","NAN","NAN"],
    [1569451,"2026-09-03 13:30:00","6204","4.041","204.4","6.86","213.6","NAN","NAN","NAN","NAN","NAN"],
    [1569452,"2026-09-03 13:40:00","6205","3.6210000000000004","194.2","6.076","177.4","NAN","NAN","NAN","NAN","NAN"],
    [1569453,"2026-09-03 13:50:00","6206","4.098","192.1","6.762","222.2","NAN","NAN","NAN","NAN","NAN"],
    [1569454,"2026-09-03 14:00:00","6207","3.739","187.2","6.468","207.5","NAN","NAN","NAN","NAN","NAN"],
    [1569455,"2026-09-03 14:10:00","6208","4.106","177.4","7.252","175","NAN","NAN","NAN","NAN","NAN"],
    [1569456,"2026-09-03 14:20:00","6209","3.904","191.9","6.958","179.2","NAN","NAN","NAN","NAN","NAN"],
    [1569457,"2026-09-03 14:30:00","6210","4.417","175.5","7.056","161.3","NAN","NAN","NAN","NAN","NAN"],
    [1569458,"2026-09-03 14:40:00","6211","4.6739999999999995","197.3","7.84","213.8","NAN","NAN","NAN","NAN","NAN"],
    [1569459,"2026-09-03 14:50:00","6212","4.353","211.4","7.252","215.2","NAN","NAN","NAN","NAN","NAN"],
    [1569460,"2026-09-03 15:00:00","6213","4.111000000000001","205.0","7.448","211.8","NAN","NAN","NAN","NAN","NAN"],
    [1569461,"2026-09-03 15:10:00","6214","4.813","215.2","8.72","233.2","NAN","NAN","NAN","NAN","NAN"],
    [1569462,"2026-09-03 15:20:00","6215","4.607","214.3","8.62","205.2","NAN","NAN","NAN","NAN","NAN"],
    [1569463,"2026-09-03 15:30:00","6216","3.97","202.3","7.056","201.8","NAN","NAN","NAN","NAN","NAN"],
    [1569464,"2026-09-03 15:40:00","6217","4.644","209.8","8.04","208.8","NAN","NAN","NAN","NAN","NAN"],
    [1569465,"2026-09-03 15:50:00","6218","4.71","219.3","7.546","225.4","NAN","NAN","NAN","NAN","NAN"],
    [1569466,"2026-09-03 16:00:00","6219","4.584","213.1","7.84","206.6","NAN","NAN","NAN","NAN","NAN"],
    [1569467,"2026-09-03 16:10:00","6220","4.497","228.3","7.252","238.2","NAN","NAN","NAN","NAN","NAN"],
    [1569468,"2026-09-03 16:20:00","6221","3.885","230.5","6.664","233.2","NAN","NAN","NAN","NAN","NAN"],
    [1569469,"2026-09-03 16:30:00","6222","4.572","232.8","8.53","257.5","NAN","NAN","NAN","NAN","NAN"],
    [1569470,"2026-09-03 16:40:00","6223","4.114","240.6","7.154","248.8","NAN","NAN","NAN","NAN","NAN"],
    [1569471,"2026-09-03 16:50:00","6224","4.678","241.7","7.546","226.2","NAN","NAN","NAN","NAN","NAN"],
    [1569472,"2026-09-03 17:00:00","6225","3.719","241.5","6.468","211.5","NAN","NAN","NAN","NAN","NAN"],
    [1569473,"2026-09-03 17:10:00","6226","3.847","229.6","6.762","229","NAN","NAN","NAN","NAN","NAN"],
    [1569474,"2026-09-03 17:20:00","6227","3.875","246.7","5.782","252.1","NAN","NAN","NAN","NAN","NAN"],
    [1569475,"2026-09-03 17:30:00","6228","3.5660000000000003","237.5","7.056","240.6","NAN","NAN","NAN","NAN","NAN"],
    [1569476,"2026-09-03 17:40:00","6229","3.176","225.6","5.782","227.5","NAN","NAN","NAN","NAN","NAN"],
    [1569477,"2026-09-03 17:50:00","6230","3.6189999999999998","235.2","6.272","241.7","NAN","NAN","NAN","NAN","NAN"],
    [1569478,"2026-09-03 18:00:00","6231","3.319","216.9","5.782","224.2","NAN","NAN","NAN","NAN","NAN"],
    [1569479,"2026-09-03 18:10:00","6232","2.8989999999999996","220.9","5.096","231.4","NAN","NAN","NAN","NAN","NAN"],
    [1569480,"2026-09-03 18:20:00","6233","3.0789999999999997","224.9","5.586","207.5","NAN","NAN","NAN","NAN","NAN"],
    [1569481,"2026-09-03 18:30:00","6234","2.67","236.6","5.096","229.1","NAN","NAN","NAN","NAN","NAN"],
    [1569482,"2026-09-03 18:40:00","6235","2.497","238.3","4.508","245.5","NAN","NAN","NAN","NAN","NAN"],
    [1569483,"2026-09-03 18:50:00","6236","3.408","248.8","5.096","262.5","NAN","NAN","NAN","NAN","NAN"],
    [1569484,"2026-09-03 19:00:00","6237","3.0410000000000004","246.2","5.586","252.1","NAN","NAN","NAN","NAN","NAN"],
    [1569485,"2026-09-03 19:10:00","6238","2.852","247.6","4.9","252","NAN","NAN","NAN","NAN","NAN"],
    [1569486,"2026-09-03 19:20:00","6239","2.331","248.7","3.626","248.3","NAN","NAN","NAN","NAN","NAN"],
    [1569487,"2026-09-03 19:30:00","6240","1.912","245.4","3.332","209.9","NAN","NAN","NAN","NAN","NAN"],
    [1569488,"2026-09-03 19:40:00","6241","1.2670000000000001","229.6","3.332","209.9","NAN","NAN","NAN","NAN","NAN"],
    [1569489,"2026-09-03 19:50:00","6242","2.148","247.5","3.332","239.8","NAN","NAN","NAN","NAN","NAN"],
    [1569490,"2026-09-03 20:00:00","6243","2.241","240.5","3.724","244.2","NAN","NAN","NAN","NAN","NAN"],
    [1569491,"2026-09-03 20:10:00","6244","1.966","246.9","3.234","250.8","NAN","NAN","NAN","NAN","NAN"],
    [1569492,"2026-09-03 20:20:00","6245","2.029","242.4","3.234","245.1","NAN","NAN","NAN","NAN","NAN"],
    [1569493,"2026-09-03 20:30:00","6246","2.0069999999999997","248.1","2.94","247.6","NAN","NAN","NAN","NAN","NAN"],
    [1569494,"2026-09-03 20:40:00","6247","2.3930000000000002","249.7","3.626","240.9","NAN","NAN","NAN","NAN","NAN"],
    [1569495,"2026-09-03 20:50:00","6248","2.7230000000000003","249.7","3.332","244.5","NAN","NAN","NAN","NAN","NAN"],
    [1569496,"2026-09-03 21:00:00","6249","3.085","249.8","4.704","255.5","NAN","NAN","NAN","NAN","NAN"],
    [1569497,"2026-09-03 21:10:00","6250","3.447","254.0","5.096","245.8","NAN","NAN","NAN","NAN","NAN"],
    [1569498,"2026-09-03 21:20:00","6251","3.282","253.4","4.606","259.6","NAN","NAN","NAN","NAN","NAN"],
    [1569499,"2026-09-03 21:30:00","6252","3.7089999999999996","250.5","5.88","246.6","NAN","NAN","NAN","NAN","NAN"],
    [1569500,"2026-09-03 21:40:00","6253","3.6719999999999997","258.0","5.096","267.9","NAN","NAN","NAN","NAN","NAN"],
    [1569501,"2026-09-03 21:50:00","6254","2.778","258.3","4.606","249.9","NAN","NAN","NAN","NAN","NAN"],
    [1569502,"2026-09-03 22:00:00","6255","2.944","260.1","4.41","249.2","NAN","NAN","NAN","NAN","NAN"],
    [1569503,"2026-09-03 22:10:00","6256","2.697","276.6","4.508","267.8","NAN","NAN","NAN","NAN","NAN"],
    [1569504,"2026-09-03 22:20:00","6257","2.585","276.4","3.92","286.4","NAN","NAN","NAN","NAN","NAN"],
    [1569505,"2026-09-03 22:30:00","6258","2.702","281.2","4.41","266.8","NAN","NAN","NAN","NAN","NAN"],
    [1569506,"2026-09-03 22:40:00","6259","2.603","283.9","3.528","281.2","NAN","NAN","NAN","NAN","NAN"],
    [1569507,"2026-09-03 22:50:00","6260","2.792","284.1","3.822","289.1","NAN","NAN","NAN","NAN","NAN"],
    [1569508,"2026-09-03 23:00:00","6261","2.571","279.5","3.92","280.5","NAN","NAN","NAN","NAN","NAN"],
    [1569509,"2026-09-03 23:10:00","6262","2.426","278.8","3.92","280.5","NAN","NAN","NAN","NAN","NAN"],
    [1569510,"2026-09-03 23:20:00","6263","2.61","278.4","3.822","274.5","NAN","NAN","NAN","NAN","NAN"],
    [1569511,"2026-09-03 23:30:00","6264","2.081","284.2","2.94","286.7","NAN","NAN","NAN","NAN","NAN"],
    [1569512,"2026-09-03 23:40:00","6265","2.209","282.9","3.234","279.6","NAN","NAN","NAN","NAN","NAN"],
    [1569513,"2026-09-03 23:50:00","6266","1.719","281.6","2.744","286.6","NAN","NAN","NAN","NAN","NAN"],
    [1569514,"2026-09-04 00:00:00","6267","1.859","275.8","2.94","280.3","NAN","NAN","NAN","NAN","NAN"],
    [1569515,"2026-09-04 00:10:00","6268","1.9569999999999999","278.5","3.038","286.3","NAN","NAN","NAN","NAN","NAN"],
    [1569516,"2026-09-04 00:20:00","6269","1.69","285.0","2.744","276.5","NAN","NAN","NAN","NAN","NAN"],
    [1569517,"2026-09-04 00:30:00","6270","1.419","282.3","2.352","281.7","NAN","NAN","NAN","NAN","NAN"],
    [1569518,"2026-09-04 00:40:00","6271","1.54","279.2","2.352","268.4","NAN","NAN","NAN","NAN","NAN"],
    [1569519,"2026-09-04 00:50:00","6272","1.844","283.2","2.842","290.7","NAN","NAN","NAN","NAN","NAN"],
    [1569520,"2026-09-04 01:00:00","6273","1.9069999999999998","281.4","2.842","286.7","NAN","NAN","NAN","NAN","NAN"],
    [1569521,"2026-09-04 01:10:00","6274","1.8219999999999998","288.6","2.646","292.9","NAN","NAN","NAN","NAN","NAN"],
    [1569522,"2026-09-04 01:20:00","6275","1.931","283.1","2.94","279.7","NAN","NAN","NAN","NAN","NAN"],
    [1569523,"2026-09-04 01:30:00","6276","2.073","274.5","3.038","267","NAN","NAN","NAN","NAN","NAN"],
    [1569524,"2026-09-04 01:40:00","6277","1.9180000000000001","282.1","2.94","277.8","NAN","NAN","NAN","NAN","NAN"],
    [1569525,"2026-09-04 01:50:00","6278","1.85","287.2","2.646","283.5","NAN","NAN","NAN","NAN","NAN"],
    [1569526,"2026-09-04 02:00:00","6279","1.6440000000000001","287.9","3.136","285.3","NAN","NAN","NAN","NAN","NAN"],
    [1569527,"2026-09-04 02:10:00","6280","1.669","286.9","2.45","286.2","NAN","NAN","NAN","NAN","NAN"],
    [1569528,"2026-09-04 02:20:00","6281","1.87","279.4","2.842","278.5","NAN","NAN","NAN","NAN","NAN"],
    [1569529,"2026-09-04 02:30:00","6282","1.675","278.2","2.548","276.7","NAN","NAN","NAN","NAN","NAN"],
    [1569530,"2026-09-04 02:40:00","6283","1.465","280.2","2.058","270.7","NAN","NAN","NAN","NAN","NAN"],
    [1569531,"2026-09-04 02:50:00","6284","1.493","287.6","2.156","290.3","NAN","NAN","NAN","NAN","NAN"],
    [1569532,"2026-09-04 03:00:00","6285","1.784","280.4","2.94","274.3","NAN","NAN","NAN","NAN","NAN"],
    [1569533,"2026-09-04 03:10:00","6286","1.361","282.9","2.352","282.5","NAN","NAN","NAN","NAN","NAN"],
    [1569534,"2026-09-04 03:20:00","6287","1.702","285.5","2.548","277.9","NAN","NAN","NAN","NAN","NAN"],
    [1569535,"2026-09-04 03:30:00","6288","1.808","277.8","2.646","273.1","NAN","NAN","NAN","NAN","NAN"],
    [1569536,"2026-09-04 03:40:00","6289","1.745","272.7","2.842","284","NAN","NAN","NAN","NAN","NAN"],
    [1569537,"2026-09-04 03:50:00","6290","1.795","283.8","3.038","285.9","NAN","NAN","NAN","NAN","NAN"],
    [1569538,"2026-09-04 04:00:00","6291","1.8630000000000002","277.7","2.94","283.1","NAN","NAN","NAN","NAN","NAN"],
    [1569539,"2026-09-04 04:10:00","6292","2.02","284.0","3.234","289.4","NAN","NAN","NAN","NAN","NAN"],
    [1569540,"2026-09-04 04:20:00","6293","1.8030000000000002","274.4","2.744","282.6","NAN","NAN","NAN","NAN","NAN"],
    [1569541,"2026-09-04 04:30:00","6294","2.015","275.3","2.94","274.7","NAN","NAN","NAN","NAN","NAN"],
    [1569542,"2026-09-04 04:40:00","6295","1.902","274.3","3.234","267.4","NAN","NAN","NAN","NAN","NAN"],
    [1569543,"2026-09-04 04:50:00","6296","2.073","265.2","3.332","284.5","NAN","NAN","NAN","NAN","NAN"],
    [1569544,"2026-09-04 05:00:00","6297","2.055","253.0","3.038","263.2","NAN","NAN","NAN","NAN","NAN"],
    [1569545,"2026-09-04 05:10:00","6298","2.487","253.5","3.724","237.4","NAN","NAN","NAN","NAN","NAN"],
    [1569546,"2026-09-04 05:20:00","6299","2.122","254.6","3.43","265.8","NAN","NAN","NAN","NAN","NAN"],
    [1569547,"2026-09-04 05:30:00","6300","2.417","272.8","3.528","272.7","NAN","NAN","NAN","NAN","NAN"],
    [1569548,"2026-09-04 05:40:00","6301","2.655","274.1","3.724","263.7","NAN","NAN","NAN","NAN","NAN"],
    [1569549,"2026-09-04 05:50:00","6302","1.989","274.7","3.234","260","NAN","NAN","NAN","NAN","NAN"],
    [1569550,"2026-09-04 06:00:00","6303","2.511","275.1","3.724","277","NAN","NAN","NAN","NAN","NAN"],
    [1569551,"2026-09-04 06:10:00","6304","2.082","281.2","3.136","283.7","NAN","NAN","NAN","NAN","NAN"],
    [1569552,"2026-09-04 06:20:00","6305","2.234","284.4","3.528","278.5","NAN","NAN","NAN","NAN","NAN"],
    [1569553,"2026-09-04 06:30:00","6306","2.298","277.3","3.724","278.8","NAN","NAN","NAN","NAN","NAN"],
    [1569554,"2026-09-04 06:40:00","6307","2.436","289.9","4.312","289.9","NAN","NAN","NAN","NAN","NAN"],
    [1569555,"2026-09-04 06:50:00","6308","2.036","282.8","3.136","290.2","NAN","NAN","NAN","NAN","NAN"],
    [1569556,"2026-09-04 07:00:00","6309","2.807","272.3","4.018","272.9","NAN","NAN","NAN","NAN","NAN"],
    [1569557,"2026-09-04 07:10:00","6310","2.428","271.4","3.528","276.2","NAN","NAN","NAN","NAN","NAN"],
    [1569558,"2026-09-04 07:20:00","6311","2.932","266.4","4.116","281","NAN","NAN","NAN","NAN","NAN"],
    [1569559,"2026-09-04 07:30:00","6312","2.7310000000000003","257.8","3.92","253.5","NAN","NAN","NAN","NAN","NAN"],
    [1569560,"2026-09-04 07:40:00","6313","2.274","272.3","4.116","266.8","NAN","NAN","NAN","NAN","NAN"],
    [1569561,"2026-09-04 07:50:00","6314","2.477","272.9","4.41","276.8","NAN","NAN","NAN","NAN","NAN"],
    [1569562,"2026-09-04 08:00:00","6315","2.438","267.8","3.626","259.4","NAN","NAN","NAN","NAN","NAN"],
    [1569563,"2026-09-04 08:10:00","6316","2.52","272.6","3.724","260","NAN","NAN","NAN","NAN","NAN"],
    [1569564,"2026-09-04 08:20:00","6317","1.696","273.3","3.136","276.9","NAN","NAN","NAN","NAN","NAN"],
    [1569565,"2026-09-04 08:30:00","6318","1.02","254.2","3.332","285.6","NAN","NAN","NAN","NAN","NAN"],
    [1569566,"2026-09-04 08:40:00","6319","1.311","249.3","3.234","224.4","NAN","NAN","NAN","NAN","NAN"],
    [1569567,"2026-09-04 08:50:00","6320","1.1420000000000001","241.9","2.254","244.8","NAN","NAN","NAN","NAN","NAN"],
    [1569568,"2026-09-04 09:00:00","6321","1.589","204.5","2.646","190.5","NAN","NAN","NAN","NAN","NAN"],
    [1569569,"2026-09-04 09:10:00","6322","0.883","229.4","2.744","244.6","NAN","NAN","NAN","NAN","NAN"],
    [1569570,"2026-09-04 09:20:00","6323","2.674","224.0","4.508","225.6","NAN","NAN","NAN","NAN","NAN"],
    [1569571,"2026-09-04 09:30:00","6324","2.839","226.4","4.312","183.4","NAN","NAN","NAN","NAN","NAN"],
    [1569572,"2026-09-04 09:40:00","6325","3.676","216.7","5.194","230","NAN","NAN","NAN","NAN","NAN"],
    [1569573,"2026-09-04 09:50:00","6326","4.037","207.3","6.468","210.1","NAN","NAN","NAN","NAN","NAN"],
    [1569574,"2026-09-04 10:00:00","6327","3.988","207.9","5.978","209.7","NAN","NAN","NAN","NAN","NAN"],
    [1569575,"2026-09-04 10:10:00","6328","4.216","210.6","6.468","229.5","NAN","NAN","NAN","NAN","NAN"],
    [1569576,"2026-09-04 10:20:00","6329","4.1419999999999995","219.2","6.272","211.6","NAN","NAN","NAN","NAN","NAN"],
    [1569577,"2026-09-04 10:30:00","6330","3.943","217.7","5.88","228.9","NAN","NAN","NAN","NAN","NAN"],
    [1569578,"2026-09-04 10:40:00","6331","4.511","227.0","7.448","212.5","NAN","NAN","NAN","NAN","NAN"],
    [1569579,"2026-09-04 10:50:00","6332","4.32","219.8","6.86","214.7","NAN","NAN","NAN","NAN","NAN"],
    [1569580,"2026-09-04 11:00:00","6333","4.3469999999999995","218.6","7.056","211.2","NAN","NAN","NAN","NAN","NAN"],
    [1569581,"2026-09-04 11:10:00","6334","4.292","223.1","7.35","238.8","NAN","NAN","NAN","NAN","NAN"],
    [1569582,"2026-09-04 11:20:00","6335","4.4110000000000005","222.8","7.154","219.7","NAN","NAN","NAN","NAN","NAN"],
    [1569583,"2026-09-04 11:30:00","6336","4.437","225.6","6.958","240","NAN","NAN","NAN","NAN","NAN"],
    [1569584,"2026-09-04 11:40:00","6337","4.805","211.5","7.056","204.4","NAN","NAN","NAN","NAN","NAN"],
    [1569585,"2026-09-04 11:50:00","6338","4.175","215.3","7.056","213.7","NAN","NAN","NAN","NAN","NAN"],
    [1569586,"2026-09-04 12:00:00","6339","4.532","216.1","7.154","234.1","NAN","NAN","NAN","NAN","NAN"],
    [1569587,"2026-09-04 12:10:00","6340","4.035","219.8","6.566","208.7","NAN","NAN","NAN","NAN","NAN"],
    [1569588,"2026-09-04 12:20:00","6341","4.872","219.9","7.742","199.3","NAN","NAN","NAN","NAN","NAN"],
    [1569589,"2026-09-04 12:30:00","6342","5.141","218.5","8.33","214.2","NAN","NAN","NAN","NAN","NAN"],
    [1569590,"2026-09-04 12:40:00","6343","4.573","215.3","7.84","223.9","NAN","NAN","NAN","NAN","NAN"],
    [1569591,"2026-09-04 12:50:00","6344","4.765","215.5","7.252","225.4","NAN","NAN","NAN","NAN","NAN"],
    [1569592,"2026-09-04 13:00:00","6345","5.731","213.6","9.7","227.5","NAN","NAN","NAN","NAN","NAN"],
    [1569593,"2026-09-04 13:10:00","6346","5.604","223.1","10","228.8","NAN","NAN","NAN","NAN","NAN"],
    [1569594,"2026-09-04 13:20:00","6347","5.41","218.6","8.13","229.8","NAN","NAN","NAN","NAN","NAN"],
    [1569595,"2026-09-04 13:30:00","6348","4.995","219.4","8.62","209.5","NAN","NAN","NAN","NAN","NAN"],
    [1569596,"2026-09-04 13:40:00","6349","5.553999999999999","210.6","8.62","201.1","NAN","NAN","NAN","NAN","NAN"],
    [1569597,"2026-09-04 13:50:00","6350","5.284","224.0","7.938","219.4","NAN","NAN","NAN","NAN","NAN"],
    [1569598,"2026-09-04 14:00:00","6351","4.699","214.7","9.6","220.7","NAN","NAN","NAN","NAN","NAN"],
    [1569599,"2026-09-04 14:10:00","6352","5.394","223.4","8.92","220.7","NAN","NAN","NAN","NAN","NAN"],
    [1569600,"2026-09-04 14:20:00","6353","5.409","215.6","9.41","212.9","NAN","NAN","NAN","NAN","NAN"],
    [1569601,"2026-09-04 14:30:00","6354","5.021","213.8","7.938","225.2","NAN","NAN","NAN","NAN","NAN"],
    [1569602,"2026-09-04 14:40:00","6355","5.434","210.5","9.11","210.5","NAN","NAN","NAN","NAN","NAN"],
    [1569603,"2026-09-04 14:50:00","6356","4.401","214.8","7.448","214.2","NAN","NAN","NAN","NAN","NAN"],
    [1569604,"2026-09-04 15:00:00","6357","4.9","210.6","7.938","199.4","NAN","NAN","NAN","NAN","NAN"],
    [1569605,"2026-09-04 15:10:00","6358","5.027","213.5","8.13","204.9","NAN","NAN","NAN","NAN","NAN"],
    [1569606,"2026-09-04 15:20:00","6359","4.888","208.2","8.13","197.5","NAN","NAN","NAN","NAN","NAN"],
    [1569607,"2026-09-04 15:30:00","6360","4.1419999999999995","212.9","8.53","214.1","NAN","NAN","NAN","NAN","NAN"],
    [1569608,"2026-09-04 15:40:00","6361","5.337000000000001","212.1","9.6","219.1","NAN","NAN","NAN","NAN","NAN"],
    [1569609,"2026-09-04 15:50:00","6362","4.79","214.2","7.938","215.7","NAN","NAN","NAN","NAN","NAN"],
    [1569610,"2026-09-04 16:00:00","6363","5.517","210.4","9.8","223.6","NAN","NAN","NAN","NAN","NAN"],
    [1569611,"2026-09-04 16:10:00","6364","4.918","210.1","8.33","210.2","NAN","NAN","NAN","NAN","NAN"],
    [1569612,"2026-09-04 16:20:00","6365","4.825","211.7","7.252","223.4","NAN","NAN","NAN","NAN","NAN"],
    [1569613,"2026-09-04 16:30:00","6366","4.875","206.0","8.72","212.2","NAN","NAN","NAN","NAN","NAN"],
    [1569614,"2026-09-04 16:40:00","6367","4.183","210.8","7.448","204.6","NAN","NAN","NAN","NAN","NAN"],
    [1569615,"2026-09-04 16:50:00","6368","4.519","213.5","6.86","230.5","NAN","NAN","NAN","NAN","NAN"],
    [1569616,"2026-09-04 17:00:00","6369","4.385","206.1","6.566","196.7","NAN","NAN","NAN","NAN","NAN"],
    [1569617,"2026-09-04 17:10:00","6370","4.04","209.8","6.566","205.5","NAN","NAN","NAN","NAN","NAN"],
    [1569618,"2026-09-04 17:20:00","6371","4.575","210.3","6.958","215","NAN","NAN","NAN","NAN","NAN"],
    [1569619,"2026-09-04 17:30:00","6372","4.276","209.3","6.958","212","NAN","NAN","NAN","NAN","NAN"],
    [1569620,"2026-09-04 17:40:00","6373","3.7289999999999996","208.2","6.076","207.9","NAN","NAN","NAN","NAN","NAN"],
    [1569621,"2026-09-04 17:50:00","6374","3.821","209.0","6.762","217.2","NAN","NAN","NAN","NAN","NAN"],
    [1569622,"2026-09-04 18:00:00","6375","3.563","211.5","5.488","201.3","NAN","NAN","NAN","NAN","NAN"],
    [1569623,"2026-09-04 18:10:00","6376","3.5669999999999997","208.4","5.782","204.6","NAN","NAN","NAN","NAN","NAN"],
    [1569624,"2026-09-04 18:20:00","6377","3.1660000000000004","211.7","4.9","206.7","NAN","NAN","NAN","NAN","NAN"],
    [1569625,"2026-09-04 18:30:00","6378","3.182","213.3","4.998","230.8","NAN","NAN","NAN","NAN","NAN"],
    [1569626,"2026-09-04 18:40:00","6379","3.6039999999999996","215.9","5.292","210.6","NAN","NAN","NAN","NAN","NAN"],
    [1569627,"2026-09-04 18:50:00","6380","2.275","219.2","4.018","227.1","NAN","NAN","NAN","NAN","NAN"],
    [1569628,"2026-09-04 19:00:00","6381","2.8369999999999997","217.0","4.41","216.5","NAN","NAN","NAN","NAN","NAN"],
    [1569629,"2026-09-04 19:10:00","6382","2.345","214.7","3.724","220.2","NAN","NAN","NAN","NAN","NAN"],
    [1569630,"2026-09-04 19:20:00","6383","2.546","217.8","3.822","214.3","NAN","NAN","NAN","NAN","NAN"],
    [1569631,"2026-09-04 19:30:00","6384","2.024","239.6","3.92","245.6","NAN","NAN","NAN","NAN","NAN"],
    [1569632,"2026-09-04 19:40:00","6385","2.667","248.2","3.92","259.8","NAN","NAN","NAN","NAN","NAN"],
    [1569633,"2026-09-04 19:50:00","6386","2.612","251.3","4.606","246.1","NAN","NAN","NAN","NAN","NAN"],
    [1569634,"2026-09-04 20:00:00","6387","2.008","247.9","3.332","253.6","NAN","NAN","NAN","NAN","NAN"],
    [1569635,"2026-09-04 20:10:00","6388","2.233","247.2","4.508","261.7","NAN","NAN","NAN","NAN","NAN"],
    [1569636,"2026-09-04 20:20:00","6389","2.524","251.9","3.822","252.1","NAN","NAN","NAN","NAN","NAN"],
    [1569637,"2026-09-04 20:30:00","6390","2.929","251.6","4.606","251","NAN","NAN","NAN","NAN","NAN"],
    [1569638,"2026-09-04 20:40:00","6391","3.215","254.2","4.41","258.9","NAN","NAN","NAN","NAN","NAN"],
    [1569639,"2026-09-04 20:50:00","6392","3.034","261.5","4.214","264.2","NAN","NAN","NAN","NAN","NAN"],
    [1569640,"2026-09-04 21:00:00","6393","3.22","259.2","4.704","254.4","NAN","NAN","NAN","NAN","NAN"],
    [1569641,"2026-09-04 21:10:00","6394","2.6289999999999996","261.3","4.116","260.7","NAN","NAN","NAN","NAN","NAN"],
    [1569642,"2026-09-04 21:20:00","6395","3.377","256.7","4.998","258.5","NAN","NAN","NAN","NAN","NAN"],
    [1569643,"2026-09-04 21:30:00","6396","3.299","255.4","4.606","255.9","NAN","NAN","NAN","NAN","NAN"],
    [1569644,"2026-09-04 21:40:00","6397","3.475","255.4","4.704","247.6","NAN","NAN","NAN","NAN","NAN"],
    [1569645,"2026-09-04 21:50:00","6398","3.489","256.4","5.684","251.7","NAN","NAN","NAN","NAN","NAN"]
]}
